<?xml version="1.0" encoding="UTF-8" standalone="no" ?>
<gpx xmlns="http://www.topografix.com/GPX/1/1" xmlns:xsi="http://www.w3.org/2001/XMLSchema-instance" xsi:schemaLocation="http://www.topografix.com/GPX/1/1 http://www.topografix.com/GPX/1/1/gpx.xsd" version="1.1" creator="VisuGPX - https://www.visugpx.com">
  <metadata>
    <name>Etape 3 - Traversée des Pyrénées</name>
    <desc><![CDATA[(Très) Grosse étape, à en éclater la boulangerie à Aulus les bains. Quand on aime on compte pas les bosses]]></desc>
  </metadata>
  <trk>
    <name><![CDATA[Etape 3 Traversée des pyrénées | Ride | Strava]]></name>
    <trkseg>
      <trkpt lat="42.9198" lon="0.19076">
        <ele>1565</ele>
        <time>2019-08-08T05:00:00.000Z</time>
      </trkpt>
      <trkpt lat="42.9198" lon="0.19076">
        <ele>1565</ele>
        <time>2019-08-08T05:00:01.000Z</time>
      </trkpt>
      <trkpt lat="42.9198" lon="0.19076">
        <ele>1564</ele>
        <time>2019-08-08T05:00:02.000Z</time>
      </trkpt>
      <trkpt lat="42.9198" lon="0.19076">
        <ele>1564</ele>
        <time>2019-08-08T05:00:03.000Z</time>
      </trkpt>
      <trkpt lat="42.9198" lon="0.19076">
        <ele>1565</ele>
        <time>2019-08-08T05:00:04.000Z</time>
      </trkpt>
      <trkpt lat="42.9198" lon="0.19076">
        <ele>1565</ele>
        <time>2019-08-08T05:00:05.000Z</time>
      </trkpt>
      <trkpt lat="42.91979" lon="0.1908">
        <ele>1565</ele>
        <time>2019-08-08T05:00:06.000Z</time>
      </trkpt>
      <trkpt lat="42.91979" lon="0.19083">
        <ele>1565</ele>
        <time>2019-08-08T05:00:07.000Z</time>
      </trkpt>
      <trkpt lat="42.91979" lon="0.19086">
        <ele>1565</ele>
        <time>2019-08-08T05:00:08.000Z</time>
      </trkpt>
      <trkpt lat="42.91979" lon="0.19089">
        <ele>1564</ele>
        <time>2019-08-08T05:00:09.000Z</time>
      </trkpt>
      <trkpt lat="42.91979" lon="0.19092">
        <ele>1564</ele>
        <time>2019-08-08T05:00:10.000Z</time>
      </trkpt>
      <trkpt lat="42.91979" lon="0.19096">
        <ele>1564</ele>
        <time>2019-08-08T05:00:11.000Z</time>
      </trkpt>
      <trkpt lat="42.91979" lon="0.191">
        <ele>1564</ele>
        <time>2019-08-08T05:00:12.000Z</time>
      </trkpt>
      <trkpt lat="42.91978" lon="0.19103">
        <ele>1564</ele>
        <time>2019-08-08T05:00:13.000Z</time>
      </trkpt>
      <trkpt lat="42.91978" lon="0.19107">
        <ele>1564</ele>
        <time>2019-08-08T05:00:14.000Z</time>
      </trkpt>
      <trkpt lat="42.91978" lon="0.1911">
        <ele>1564</ele>
        <time>2019-08-08T05:00:15.000Z</time>
      </trkpt>
      <trkpt lat="42.91978" lon="0.19114">
        <ele>1564</ele>
        <time>2019-08-08T05:00:16.000Z</time>
      </trkpt>
      <trkpt lat="42.91977" lon="0.19118">
        <ele>1564</ele>
        <time>2019-08-08T05:00:17.000Z</time>
      </trkpt>
      <trkpt lat="42.91977" lon="0.19122">
        <ele>1564</ele>
        <time>2019-08-08T05:00:18.000Z</time>
      </trkpt>
      <trkpt lat="42.91976" lon="0.19126">
        <ele>1564</ele>
        <time>2019-08-08T05:00:19.000Z</time>
      </trkpt>
      <trkpt lat="42.91976" lon="0.19131">
        <ele>1564</ele>
        <time>2019-08-08T05:00:20.000Z</time>
      </trkpt>
      <trkpt lat="42.91975" lon="0.19135">
        <ele>1564</ele>
        <time>2019-08-08T05:00:21.000Z</time>
      </trkpt>
      <trkpt lat="42.91975" lon="0.1914">
        <ele>1564</ele>
        <time>2019-08-08T05:00:22.000Z</time>
      </trkpt>
      <trkpt lat="42.91975" lon="0.19145">
        <ele>1563</ele>
        <time>2019-08-08T05:00:23.000Z</time>
      </trkpt>
      <trkpt lat="42.91974" lon="0.19151">
        <ele>1563</ele>
        <time>2019-08-08T05:00:24.000Z</time>
      </trkpt>
      <trkpt lat="42.91974" lon="0.19157">
        <ele>1563</ele>
        <time>2019-08-08T05:00:25.000Z</time>
      </trkpt>
      <trkpt lat="42.91973" lon="0.19163">
        <ele>1563</ele>
        <time>2019-08-08T05:00:26.000Z</time>
      </trkpt>
      <trkpt lat="42.91972" lon="0.19169">
        <ele>1563</ele>
        <time>2019-08-08T05:00:27.000Z</time>
      </trkpt>
      <trkpt lat="42.91971" lon="0.19175">
        <ele>1562</ele>
        <time>2019-08-08T05:00:28.000Z</time>
      </trkpt>
      <trkpt lat="42.91969" lon="0.19182">
        <ele>1562</ele>
        <time>2019-08-08T05:00:29.000Z</time>
      </trkpt>
      <trkpt lat="42.91967" lon="0.19189">
        <ele>1561</ele>
        <time>2019-08-08T05:00:30.000Z</time>
      </trkpt>
      <trkpt lat="42.91966" lon="0.19197">
        <ele>1561</ele>
        <time>2019-08-08T05:00:31.000Z</time>
      </trkpt>
      <trkpt lat="42.91965" lon="0.19206">
        <ele>1561</ele>
        <time>2019-08-08T05:00:32.000Z</time>
      </trkpt>
      <trkpt lat="42.91965" lon="0.19215">
        <ele>1561</ele>
        <time>2019-08-08T05:00:33.000Z</time>
      </trkpt>
      <trkpt lat="42.91966" lon="0.19225">
        <ele>1558</ele>
        <time>2019-08-08T05:00:34.000Z</time>
      </trkpt>
      <trkpt lat="42.91967" lon="0.19235">
        <ele>1558</ele>
        <time>2019-08-08T05:00:35.000Z</time>
      </trkpt>
      <trkpt lat="42.91968" lon="0.19247">
        <ele>1556</ele>
        <time>2019-08-08T05:00:36.000Z</time>
      </trkpt>
      <trkpt lat="42.91969" lon="0.19258">
        <ele>1556</ele>
        <time>2019-08-08T05:00:37.000Z</time>
      </trkpt>
      <trkpt lat="42.91969" lon="0.1927">
        <ele>1556</ele>
        <time>2019-08-08T05:00:38.000Z</time>
      </trkpt>
      <trkpt lat="42.9197" lon="0.19282">
        <ele>1556</ele>
        <time>2019-08-08T05:00:39.000Z</time>
      </trkpt>
      <trkpt lat="42.9197" lon="0.19295">
        <ele>1553</ele>
        <time>2019-08-08T05:00:40.000Z</time>
      </trkpt>
      <trkpt lat="42.9197" lon="0.19307">
        <ele>1553</ele>
        <time>2019-08-08T05:00:41.000Z</time>
      </trkpt>
      <trkpt lat="42.91971" lon="0.1932">
        <ele>1553</ele>
        <time>2019-08-08T05:00:42.000Z</time>
      </trkpt>
      <trkpt lat="42.91972" lon="0.19332">
        <ele>1549</ele>
        <time>2019-08-08T05:00:43.000Z</time>
      </trkpt>
      <trkpt lat="42.91973" lon="0.19346">
        <ele>1549</ele>
        <time>2019-08-08T05:00:44.000Z</time>
      </trkpt>
      <trkpt lat="42.91974" lon="0.19359">
        <ele>1549</ele>
        <time>2019-08-08T05:00:45.000Z</time>
      </trkpt>
      <trkpt lat="42.91976" lon="0.19373">
        <ele>1547</ele>
        <time>2019-08-08T05:00:46.000Z</time>
      </trkpt>
      <trkpt lat="42.91979" lon="0.19386">
        <ele>1547</ele>
        <time>2019-08-08T05:00:47.000Z</time>
      </trkpt>
      <trkpt lat="42.91982" lon="0.194">
        <ele>1543</ele>
        <time>2019-08-08T05:00:48.000Z</time>
      </trkpt>
      <trkpt lat="42.91985" lon="0.19414">
        <ele>1543</ele>
        <time>2019-08-08T05:00:49.000Z</time>
      </trkpt>
      <trkpt lat="42.91989" lon="0.19427">
        <ele>1540</ele>
        <time>2019-08-08T05:00:50.000Z</time>
      </trkpt>
      <trkpt lat="42.91993" lon="0.1944">
        <ele>1540</ele>
        <time>2019-08-08T05:00:51.000Z</time>
      </trkpt>
      <trkpt lat="42.91998" lon="0.19452">
        <ele>1539</ele>
        <time>2019-08-08T05:00:52.000Z</time>
      </trkpt>
      <trkpt lat="42.92003" lon="0.19465">
        <ele>1539</ele>
        <time>2019-08-08T05:00:53.000Z</time>
      </trkpt>
      <trkpt lat="42.92008" lon="0.19477">
        <ele>1538</ele>
        <time>2019-08-08T05:00:54.000Z</time>
      </trkpt>
      <trkpt lat="42.92013" lon="0.1949">
        <ele>1538</ele>
        <time>2019-08-08T05:00:55.000Z</time>
      </trkpt>
      <trkpt lat="42.92018" lon="0.19504">
        <ele>1535</ele>
        <time>2019-08-08T05:00:56.000Z</time>
      </trkpt>
      <trkpt lat="42.92025" lon="0.19525">
        <ele>1535</ele>
        <time>2019-08-08T05:00:57.000Z</time>
      </trkpt>
      <trkpt lat="42.92028" lon="0.19531">
        <ele>1535</ele>
        <time>2019-08-08T05:00:58.000Z</time>
      </trkpt>
      <trkpt lat="42.92033" lon="0.19545">
        <ele>1535</ele>
        <time>2019-08-08T05:00:59.000Z</time>
      </trkpt>
      <trkpt lat="42.92038" lon="0.19559">
        <ele>1531</ele>
        <time>2019-08-08T05:01:00.000Z</time>
      </trkpt>
      <trkpt lat="42.92042" lon="0.19573">
        <ele>1531</ele>
        <time>2019-08-08T05:01:01.000Z</time>
      </trkpt>
      <trkpt lat="42.92048" lon="0.19587">
        <ele>1527</ele>
        <time>2019-08-08T05:01:02.000Z</time>
      </trkpt>
      <trkpt lat="42.92053" lon="0.19602">
        <ele>1527</ele>
        <time>2019-08-08T05:01:03.000Z</time>
      </trkpt>
      <trkpt lat="42.92059" lon="0.19617">
        <ele>1525</ele>
        <time>2019-08-08T05:01:04.000Z</time>
      </trkpt>
      <trkpt lat="42.92064" lon="0.19631">
        <ele>1525</ele>
        <time>2019-08-08T05:01:05.000Z</time>
      </trkpt>
      <trkpt lat="42.92072" lon="0.19646">
        <ele>1524</ele>
        <time>2019-08-08T05:01:06.000Z</time>
      </trkpt>
      <trkpt lat="42.92077" lon="0.19661">
        <ele>1524</ele>
        <time>2019-08-08T05:01:07.000Z</time>
      </trkpt>
      <trkpt lat="42.92082" lon="0.19675">
        <ele>1524</ele>
        <time>2019-08-08T05:01:08.000Z</time>
      </trkpt>
      <trkpt lat="42.92088" lon="0.19689">
        <ele>1519</ele>
        <time>2019-08-08T05:01:09.000Z</time>
      </trkpt>
      <trkpt lat="42.92094" lon="0.19702">
        <ele>1519</ele>
        <time>2019-08-08T05:01:10.000Z</time>
      </trkpt>
      <trkpt lat="42.921" lon="0.19716">
        <ele>1519</ele>
        <time>2019-08-08T05:01:11.000Z</time>
      </trkpt>
      <trkpt lat="42.92107" lon="0.1973">
        <ele>1515</ele>
        <time>2019-08-08T05:01:12.000Z</time>
      </trkpt>
      <trkpt lat="42.92113" lon="0.19744">
        <ele>1515</ele>
        <time>2019-08-08T05:01:13.000Z</time>
      </trkpt>
      <trkpt lat="42.92119" lon="0.19758">
        <ele>1515</ele>
        <time>2019-08-08T05:01:14.000Z</time>
      </trkpt>
      <trkpt lat="42.92126" lon="0.19771">
        <ele>1511</ele>
        <time>2019-08-08T05:01:15.000Z</time>
      </trkpt>
      <trkpt lat="42.92133" lon="0.19784">
        <ele>1511</ele>
        <time>2019-08-08T05:01:16.000Z</time>
      </trkpt>
      <trkpt lat="42.92139" lon="0.19797">
        <ele>1510</ele>
        <time>2019-08-08T05:01:17.000Z</time>
      </trkpt>
      <trkpt lat="42.92146" lon="0.1981">
        <ele>1510</ele>
        <time>2019-08-08T05:01:18.000Z</time>
      </trkpt>
      <trkpt lat="42.92153" lon="0.19823">
        <ele>1508</ele>
        <time>2019-08-08T05:01:19.000Z</time>
      </trkpt>
      <trkpt lat="42.92159" lon="0.19835">
        <ele>1508</ele>
        <time>2019-08-08T05:01:20.000Z</time>
      </trkpt>
      <trkpt lat="42.92165" lon="0.19848">
        <ele>1505</ele>
        <time>2019-08-08T05:01:21.000Z</time>
      </trkpt>
      <trkpt lat="42.92172" lon="0.1986">
        <ele>1505</ele>
        <time>2019-08-08T05:01:22.000Z</time>
      </trkpt>
      <trkpt lat="42.92177" lon="0.19873">
        <ele>1502</ele>
        <time>2019-08-08T05:01:23.000Z</time>
      </trkpt>
      <trkpt lat="42.92183" lon="0.19886">
        <ele>1502</ele>
        <time>2019-08-08T05:01:24.000Z</time>
      </trkpt>
      <trkpt lat="42.92188" lon="0.19899">
        <ele>1502</ele>
        <time>2019-08-08T05:01:25.000Z</time>
      </trkpt>
      <trkpt lat="42.92193" lon="0.19912">
        <ele>1499</ele>
        <time>2019-08-08T05:01:26.000Z</time>
      </trkpt>
      <trkpt lat="42.92199" lon="0.19926">
        <ele>1499</ele>
        <time>2019-08-08T05:01:27.000Z</time>
      </trkpt>
      <trkpt lat="42.92204" lon="0.1994">
        <ele>1497</ele>
        <time>2019-08-08T05:01:28.000Z</time>
      </trkpt>
      <trkpt lat="42.9221" lon="0.19954">
        <ele>1497</ele>
        <time>2019-08-08T05:01:29.000Z</time>
      </trkpt>
      <trkpt lat="42.92215" lon="0.19968">
        <ele>1496</ele>
        <time>2019-08-08T05:01:30.000Z</time>
      </trkpt>
      <trkpt lat="42.9222" lon="0.19982">
        <ele>1496</ele>
        <time>2019-08-08T05:01:31.000Z</time>
      </trkpt>
      <trkpt lat="42.92225" lon="0.19996">
        <ele>1496</ele>
        <time>2019-08-08T05:01:32.000Z</time>
      </trkpt>
      <trkpt lat="42.92229" lon="0.2001">
        <ele>1492</ele>
        <time>2019-08-08T05:01:33.000Z</time>
      </trkpt>
      <trkpt lat="42.92234" lon="0.20024">
        <ele>1492</ele>
        <time>2019-08-08T05:01:34.000Z</time>
      </trkpt>
      <trkpt lat="42.92237" lon="0.20038">
        <ele>1492</ele>
        <time>2019-08-08T05:01:35.000Z</time>
      </trkpt>
      <trkpt lat="42.92239" lon="0.20052">
        <ele>1489</ele>
        <time>2019-08-08T05:01:36.000Z</time>
      </trkpt>
      <trkpt lat="42.92241" lon="0.20066">
        <ele>1489</ele>
        <time>2019-08-08T05:01:37.000Z</time>
      </trkpt>
      <trkpt lat="42.92242" lon="0.2008">
        <ele>1486</ele>
        <time>2019-08-08T05:01:38.000Z</time>
      </trkpt>
      <trkpt lat="42.92244" lon="0.20093">
        <ele>1486</ele>
        <time>2019-08-08T05:01:39.000Z</time>
      </trkpt>
      <trkpt lat="42.92245" lon="0.20106">
        <ele>1485</ele>
        <time>2019-08-08T05:01:40.000Z</time>
      </trkpt>
      <trkpt lat="42.92245" lon="0.20119">
        <ele>1485</ele>
        <time>2019-08-08T05:01:41.000Z</time>
      </trkpt>
      <trkpt lat="42.92243" lon="0.20132">
        <ele>1482</ele>
        <time>2019-08-08T05:01:42.000Z</time>
      </trkpt>
      <trkpt lat="42.9224" lon="0.20145">
        <ele>1482</ele>
        <time>2019-08-08T05:01:43.000Z</time>
      </trkpt>
      <trkpt lat="42.92236" lon="0.20158">
        <ele>1482</ele>
        <time>2019-08-08T05:01:44.000Z</time>
      </trkpt>
      <trkpt lat="42.92231" lon="0.20172">
        <ele>1479</ele>
        <time>2019-08-08T05:01:45.000Z</time>
      </trkpt>
      <trkpt lat="42.92227" lon="0.20186">
        <ele>1479</ele>
        <time>2019-08-08T05:01:46.000Z</time>
      </trkpt>
      <trkpt lat="42.92223" lon="0.202">
        <ele>1479</ele>
        <time>2019-08-08T05:01:47.000Z</time>
      </trkpt>
      <trkpt lat="42.92218" lon="0.20214">
        <ele>1476</ele>
        <time>2019-08-08T05:01:48.000Z</time>
      </trkpt>
      <trkpt lat="42.92212" lon="0.20229">
        <ele>1476</ele>
        <time>2019-08-08T05:01:49.000Z</time>
      </trkpt>
      <trkpt lat="42.92207" lon="0.20244">
        <ele>1475</ele>
        <time>2019-08-08T05:01:50.000Z</time>
      </trkpt>
      <trkpt lat="42.92201" lon="0.20259">
        <ele>1475</ele>
        <time>2019-08-08T05:01:51.000Z</time>
      </trkpt>
      <trkpt lat="42.92194" lon="0.20275">
        <ele>1475</ele>
        <time>2019-08-08T05:01:52.000Z</time>
      </trkpt>
      <trkpt lat="42.92188" lon="0.2029">
        <ele>1471</ele>
        <time>2019-08-08T05:01:53.000Z</time>
      </trkpt>
      <trkpt lat="42.92184" lon="0.20304">
        <ele>1471</ele>
        <time>2019-08-08T05:01:54.000Z</time>
      </trkpt>
      <trkpt lat="42.92181" lon="0.20319">
        <ele>1467</ele>
        <time>2019-08-08T05:01:55.000Z</time>
      </trkpt>
      <trkpt lat="42.92177" lon="0.20333">
        <ele>1467</ele>
        <time>2019-08-08T05:01:56.000Z</time>
      </trkpt>
      <trkpt lat="42.92173" lon="0.20347">
        <ele>1465</ele>
        <time>2019-08-08T05:01:57.000Z</time>
      </trkpt>
      <trkpt lat="42.92168" lon="0.20361">
        <ele>1465</ele>
        <time>2019-08-08T05:01:58.000Z</time>
      </trkpt>
      <trkpt lat="42.92161" lon="0.20374">
        <ele>1464</ele>
        <time>2019-08-08T05:01:59.000Z</time>
      </trkpt>
      <trkpt lat="42.92154" lon="0.20387">
        <ele>1464</ele>
        <time>2019-08-08T05:02:00.000Z</time>
      </trkpt>
      <trkpt lat="42.92146" lon="0.204">
        <ele>1460</ele>
        <time>2019-08-08T05:02:01.000Z</time>
      </trkpt>
      <trkpt lat="42.92138" lon="0.20412">
        <ele>1460</ele>
        <time>2019-08-08T05:02:02.000Z</time>
      </trkpt>
      <trkpt lat="42.92131" lon="0.20425">
        <ele>1458</ele>
        <time>2019-08-08T05:02:03.000Z</time>
      </trkpt>
      <trkpt lat="42.92122" lon="0.20438">
        <ele>1458</ele>
        <time>2019-08-08T05:02:04.000Z</time>
      </trkpt>
      <trkpt lat="42.92114" lon="0.2045">
        <ele>1458</ele>
        <time>2019-08-08T05:02:05.000Z</time>
      </trkpt>
      <trkpt lat="42.92106" lon="0.20462">
        <ele>1455</ele>
        <time>2019-08-08T05:02:06.000Z</time>
      </trkpt>
      <trkpt lat="42.92096" lon="0.20473">
        <ele>1455</ele>
        <time>2019-08-08T05:02:07.000Z</time>
      </trkpt>
      <trkpt lat="42.92086" lon="0.20483">
        <ele>1455</ele>
        <time>2019-08-08T05:02:08.000Z</time>
      </trkpt>
      <trkpt lat="42.92075" lon="0.20494">
        <ele>1452</ele>
        <time>2019-08-08T05:02:09.000Z</time>
      </trkpt>
      <trkpt lat="42.92066" lon="0.20505">
        <ele>1452</ele>
        <time>2019-08-08T05:02:10.000Z</time>
      </trkpt>
      <trkpt lat="42.92058" lon="0.20517">
        <ele>1450</ele>
        <time>2019-08-08T05:02:11.000Z</time>
      </trkpt>
      <trkpt lat="42.92049" lon="0.20529">
        <ele>1450</ele>
        <time>2019-08-08T05:02:12.000Z</time>
      </trkpt>
      <trkpt lat="42.92039" lon="0.20541">
        <ele>1450</ele>
        <time>2019-08-08T05:02:13.000Z</time>
      </trkpt>
      <trkpt lat="42.92028" lon="0.20552">
        <ele>1446</ele>
        <time>2019-08-08T05:02:14.000Z</time>
      </trkpt>
      <trkpt lat="42.92017" lon="0.20562">
        <ele>1446</ele>
        <time>2019-08-08T05:02:15.000Z</time>
      </trkpt>
      <trkpt lat="42.92007" lon="0.20572">
        <ele>1446</ele>
        <time>2019-08-08T05:02:16.000Z</time>
      </trkpt>
      <trkpt lat="42.91996" lon="0.20581">
        <ele>1443</ele>
        <time>2019-08-08T05:02:17.000Z</time>
      </trkpt>
      <trkpt lat="42.91988" lon="0.20593">
        <ele>1443</ele>
        <time>2019-08-08T05:02:18.000Z</time>
      </trkpt>
      <trkpt lat="42.9198" lon="0.20604">
        <ele>1440</ele>
        <time>2019-08-08T05:02:19.000Z</time>
      </trkpt>
      <trkpt lat="42.91973" lon="0.20615">
        <ele>1440</ele>
        <time>2019-08-08T05:02:20.000Z</time>
      </trkpt>
      <trkpt lat="42.91967" lon="0.20626">
        <ele>1440</ele>
        <time>2019-08-08T05:02:21.000Z</time>
      </trkpt>
      <trkpt lat="42.91962" lon="0.20637">
        <ele>1437</ele>
        <time>2019-08-08T05:02:22.000Z</time>
      </trkpt>
      <trkpt lat="42.91957" lon="0.20649">
        <ele>1437</ele>
        <time>2019-08-08T05:02:23.000Z</time>
      </trkpt>
      <trkpt lat="42.91944" lon="0.20667">
        <ele>1437</ele>
        <time>2019-08-08T05:02:24.000Z</time>
      </trkpt>
      <trkpt lat="42.91939" lon="0.20673">
        <ele>1437</ele>
        <time>2019-08-08T05:02:25.000Z</time>
      </trkpt>
      <trkpt lat="42.91929" lon="0.20685">
        <ele>1433</ele>
        <time>2019-08-08T05:02:26.000Z</time>
      </trkpt>
      <trkpt lat="42.9192" lon="0.20697">
        <ele>1433</ele>
        <time>2019-08-08T05:02:27.000Z</time>
      </trkpt>
      <trkpt lat="42.91911" lon="0.20708">
        <ele>1429</ele>
        <time>2019-08-08T05:02:28.000Z</time>
      </trkpt>
      <trkpt lat="42.91901" lon="0.2072">
        <ele>1429</ele>
        <time>2019-08-08T05:02:29.000Z</time>
      </trkpt>
      <trkpt lat="42.91892" lon="0.20731">
        <ele>1429</ele>
        <time>2019-08-08T05:02:30.000Z</time>
      </trkpt>
      <trkpt lat="42.91882" lon="0.20742">
        <ele>1427</ele>
        <time>2019-08-08T05:02:31.000Z</time>
      </trkpt>
      <trkpt lat="42.91873" lon="0.20752">
        <ele>1427</ele>
        <time>2019-08-08T05:02:32.000Z</time>
      </trkpt>
      <trkpt lat="42.91863" lon="0.20762">
        <ele>1427</ele>
        <time>2019-08-08T05:02:33.000Z</time>
      </trkpt>
      <trkpt lat="42.91853" lon="0.2077">
        <ele>1423</ele>
        <time>2019-08-08T05:02:34.000Z</time>
      </trkpt>
      <trkpt lat="42.91843" lon="0.20778">
        <ele>1423</ele>
        <time>2019-08-08T05:02:35.000Z</time>
      </trkpt>
      <trkpt lat="42.91833" lon="0.20785">
        <ele>1420</ele>
        <time>2019-08-08T05:02:36.000Z</time>
      </trkpt>
      <trkpt lat="42.91823" lon="0.20793">
        <ele>1420</ele>
        <time>2019-08-08T05:02:37.000Z</time>
      </trkpt>
      <trkpt lat="42.91814" lon="0.20802">
        <ele>1420</ele>
        <time>2019-08-08T05:02:38.000Z</time>
      </trkpt>
      <trkpt lat="42.91805" lon="0.20811">
        <ele>1417</ele>
        <time>2019-08-08T05:02:39.000Z</time>
      </trkpt>
      <trkpt lat="42.91795" lon="0.20821">
        <ele>1417</ele>
        <time>2019-08-08T05:02:40.000Z</time>
      </trkpt>
      <trkpt lat="42.91786" lon="0.20832">
        <ele>1417</ele>
        <time>2019-08-08T05:02:41.000Z</time>
      </trkpt>
      <trkpt lat="42.91776" lon="0.20842">
        <ele>1416</ele>
        <time>2019-08-08T05:02:42.000Z</time>
      </trkpt>
      <trkpt lat="42.91767" lon="0.20852">
        <ele>1416</ele>
        <time>2019-08-08T05:02:43.000Z</time>
      </trkpt>
      <trkpt lat="42.91757" lon="0.20862">
        <ele>1413</ele>
        <time>2019-08-08T05:02:44.000Z</time>
      </trkpt>
      <trkpt lat="42.91748" lon="0.20872">
        <ele>1413</ele>
        <time>2019-08-08T05:02:45.000Z</time>
      </trkpt>
      <trkpt lat="42.91739" lon="0.20883">
        <ele>1409</ele>
        <time>2019-08-08T05:02:46.000Z</time>
      </trkpt>
      <trkpt lat="42.9173" lon="0.20893">
        <ele>1409</ele>
        <time>2019-08-08T05:02:47.000Z</time>
      </trkpt>
      <trkpt lat="42.91721" lon="0.20902">
        <ele>1408</ele>
        <time>2019-08-08T05:02:48.000Z</time>
      </trkpt>
      <trkpt lat="42.91713" lon="0.2091">
        <ele>1408</ele>
        <time>2019-08-08T05:02:49.000Z</time>
      </trkpt>
      <trkpt lat="42.91705" lon="0.20916">
        <ele>1408</ele>
        <time>2019-08-08T05:02:50.000Z</time>
      </trkpt>
      <trkpt lat="42.91698" lon="0.20923">
        <ele>1408</ele>
        <time>2019-08-08T05:02:51.000Z</time>
      </trkpt>
      <trkpt lat="42.91692" lon="0.20931">
        <ele>1408</ele>
        <time>2019-08-08T05:02:52.000Z</time>
      </trkpt>
      <trkpt lat="42.91689" lon="0.20941">
        <ele>1407</ele>
        <time>2019-08-08T05:02:53.000Z</time>
      </trkpt>
      <trkpt lat="42.91689" lon="0.20951">
        <ele>1407</ele>
        <time>2019-08-08T05:02:54.000Z</time>
      </trkpt>
      <trkpt lat="42.91693" lon="0.2096">
        <ele>1407</ele>
        <time>2019-08-08T05:02:55.000Z</time>
      </trkpt>
      <trkpt lat="42.91701" lon="0.20965">
        <ele>1404</ele>
        <time>2019-08-08T05:02:56.000Z</time>
      </trkpt>
      <trkpt lat="42.9171" lon="0.20966">
        <ele>1404</ele>
        <time>2019-08-08T05:02:57.000Z</time>
      </trkpt>
      <trkpt lat="42.9172" lon="0.20963">
        <ele>1402</ele>
        <time>2019-08-08T05:02:58.000Z</time>
      </trkpt>
      <trkpt lat="42.91728" lon="0.20956">
        <ele>1402</ele>
        <time>2019-08-08T05:02:59.000Z</time>
      </trkpt>
      <trkpt lat="42.91736" lon="0.20946">
        <ele>1401</ele>
        <time>2019-08-08T05:03:00.000Z</time>
      </trkpt>
      <trkpt lat="42.91744" lon="0.20937">
        <ele>1401</ele>
        <time>2019-08-08T05:03:01.000Z</time>
      </trkpt>
      <trkpt lat="42.91753" lon="0.20927">
        <ele>1401</ele>
        <time>2019-08-08T05:03:02.000Z</time>
      </trkpt>
      <trkpt lat="42.91761" lon="0.20917">
        <ele>1398</ele>
        <time>2019-08-08T05:03:03.000Z</time>
      </trkpt>
      <trkpt lat="42.9177" lon="0.20907">
        <ele>1398</ele>
        <time>2019-08-08T05:03:04.000Z</time>
      </trkpt>
      <trkpt lat="42.91779" lon="0.20896">
        <ele>1394</ele>
        <time>2019-08-08T05:03:05.000Z</time>
      </trkpt>
      <trkpt lat="42.91788" lon="0.20885">
        <ele>1394</ele>
        <time>2019-08-08T05:03:06.000Z</time>
      </trkpt>
      <trkpt lat="42.91798" lon="0.20875">
        <ele>1394</ele>
        <time>2019-08-08T05:03:07.000Z</time>
      </trkpt>
      <trkpt lat="42.91807" lon="0.20867">
        <ele>1391</ele>
        <time>2019-08-08T05:03:08.000Z</time>
      </trkpt>
      <trkpt lat="42.9182" lon="0.20858">
        <ele>1391</ele>
        <time>2019-08-08T05:03:09.000Z</time>
      </trkpt>
      <trkpt lat="42.91823" lon="0.20857">
        <ele>1391</ele>
        <time>2019-08-08T05:03:10.000Z</time>
      </trkpt>
      <trkpt lat="42.91837" lon="0.20855">
        <ele>1388</ele>
        <time>2019-08-08T05:03:11.000Z</time>
      </trkpt>
      <trkpt lat="42.91845" lon="0.20856">
        <ele>1388</ele>
        <time>2019-08-08T05:03:12.000Z</time>
      </trkpt>
      <trkpt lat="42.91862" lon="0.20857">
        <ele>1386</ele>
        <time>2019-08-08T05:03:13.000Z</time>
      </trkpt>
      <trkpt lat="42.91873" lon="0.20858">
        <ele>1386</ele>
        <time>2019-08-08T05:03:14.000Z</time>
      </trkpt>
      <trkpt lat="42.91884" lon="0.20855">
        <ele>1386</ele>
        <time>2019-08-08T05:03:15.000Z</time>
      </trkpt>
      <trkpt lat="42.91896" lon="0.2085">
        <ele>1382</ele>
        <time>2019-08-08T05:03:16.000Z</time>
      </trkpt>
      <trkpt lat="42.91906" lon="0.20842">
        <ele>1382</ele>
        <time>2019-08-08T05:03:17.000Z</time>
      </trkpt>
      <trkpt lat="42.91917" lon="0.20835">
        <ele>1379</ele>
        <time>2019-08-08T05:03:18.000Z</time>
      </trkpt>
      <trkpt lat="42.91928" lon="0.20827">
        <ele>1379</ele>
        <time>2019-08-08T05:03:19.000Z</time>
      </trkpt>
      <trkpt lat="42.91939" lon="0.20819">
        <ele>1377</ele>
        <time>2019-08-08T05:03:20.000Z</time>
      </trkpt>
      <trkpt lat="42.9195" lon="0.20811">
        <ele>1377</ele>
        <time>2019-08-08T05:03:21.000Z</time>
      </trkpt>
      <trkpt lat="42.91961" lon="0.20803">
        <ele>1375</ele>
        <time>2019-08-08T05:03:22.000Z</time>
      </trkpt>
      <trkpt lat="42.91974" lon="0.20791">
        <ele>1375</ele>
        <time>2019-08-08T05:03:23.000Z</time>
      </trkpt>
      <trkpt lat="42.91987" lon="0.2078">
        <ele>1375</ele>
        <time>2019-08-08T05:03:24.000Z</time>
      </trkpt>
      <trkpt lat="42.92" lon="0.2077">
        <ele>1370</ele>
        <time>2019-08-08T05:03:25.000Z</time>
      </trkpt>
      <trkpt lat="42.92012" lon="0.20761">
        <ele>1370</ele>
        <time>2019-08-08T05:03:26.000Z</time>
      </trkpt>
      <trkpt lat="42.92026" lon="0.20752">
        <ele>1367</ele>
        <time>2019-08-08T05:03:27.000Z</time>
      </trkpt>
      <trkpt lat="42.92045" lon="0.20738">
        <ele>1367</ele>
        <time>2019-08-08T05:03:28.000Z</time>
      </trkpt>
      <trkpt lat="42.92051" lon="0.20734">
        <ele>1367</ele>
        <time>2019-08-08T05:03:29.000Z</time>
      </trkpt>
      <trkpt lat="42.92063" lon="0.20724">
        <ele>1364</ele>
        <time>2019-08-08T05:03:30.000Z</time>
      </trkpt>
      <trkpt lat="42.92076" lon="0.20714">
        <ele>1364</ele>
        <time>2019-08-08T05:03:31.000Z</time>
      </trkpt>
      <trkpt lat="42.92089" lon="0.20707">
        <ele>1363</ele>
        <time>2019-08-08T05:03:32.000Z</time>
      </trkpt>
      <trkpt lat="42.92104" lon="0.20698">
        <ele>1363</ele>
        <time>2019-08-08T05:03:33.000Z</time>
      </trkpt>
      <trkpt lat="42.92116" lon="0.20691">
        <ele>1360</ele>
        <time>2019-08-08T05:03:34.000Z</time>
      </trkpt>
      <trkpt lat="42.92128" lon="0.20684">
        <ele>1360</ele>
        <time>2019-08-08T05:03:35.000Z</time>
      </trkpt>
      <trkpt lat="42.9214" lon="0.20677">
        <ele>1357</ele>
        <time>2019-08-08T05:03:36.000Z</time>
      </trkpt>
      <trkpt lat="42.92152" lon="0.20669">
        <ele>1357</ele>
        <time>2019-08-08T05:03:37.000Z</time>
      </trkpt>
      <trkpt lat="42.92164" lon="0.20662">
        <ele>1356</ele>
        <time>2019-08-08T05:03:38.000Z</time>
      </trkpt>
      <trkpt lat="42.92175" lon="0.20652">
        <ele>1356</ele>
        <time>2019-08-08T05:03:39.000Z</time>
      </trkpt>
      <trkpt lat="42.92186" lon="0.20641">
        <ele>1355</ele>
        <time>2019-08-08T05:03:40.000Z</time>
      </trkpt>
      <trkpt lat="42.92197" lon="0.20629">
        <ele>1355</ele>
        <time>2019-08-08T05:03:41.000Z</time>
      </trkpt>
      <trkpt lat="42.92208" lon="0.20617">
        <ele>1353</ele>
        <time>2019-08-08T05:03:42.000Z</time>
      </trkpt>
      <trkpt lat="42.92224" lon="0.20603">
        <ele>1353</ele>
        <time>2019-08-08T05:03:43.000Z</time>
      </trkpt>
      <trkpt lat="42.9223" lon="0.20599">
        <ele>1353</ele>
        <time>2019-08-08T05:03:44.000Z</time>
      </trkpt>
      <trkpt lat="42.92241" lon="0.20592">
        <ele>1348</ele>
        <time>2019-08-08T05:03:45.000Z</time>
      </trkpt>
      <trkpt lat="42.92253" lon="0.20587">
        <ele>1348</ele>
        <time>2019-08-08T05:03:46.000Z</time>
      </trkpt>
      <trkpt lat="42.9227" lon="0.20578">
        <ele>1348</ele>
        <time>2019-08-08T05:03:47.000Z</time>
      </trkpt>
      <trkpt lat="42.92276" lon="0.20574">
        <ele>1345</ele>
        <time>2019-08-08T05:03:48.000Z</time>
      </trkpt>
      <trkpt lat="42.92287" lon="0.20567">
        <ele>1345</ele>
        <time>2019-08-08T05:03:49.000Z</time>
      </trkpt>
      <trkpt lat="42.92297" lon="0.20555">
        <ele>1341</ele>
        <time>2019-08-08T05:03:50.000Z</time>
      </trkpt>
      <trkpt lat="42.92306" lon="0.20542">
        <ele>1341</ele>
        <time>2019-08-08T05:03:51.000Z</time>
      </trkpt>
      <trkpt lat="42.92314" lon="0.20527">
        <ele>1339</ele>
        <time>2019-08-08T05:03:52.000Z</time>
      </trkpt>
      <trkpt lat="42.92323" lon="0.20512">
        <ele>1339</ele>
        <time>2019-08-08T05:03:53.000Z</time>
      </trkpt>
      <trkpt lat="42.92331" lon="0.20498">
        <ele>1338</ele>
        <time>2019-08-08T05:03:54.000Z</time>
      </trkpt>
      <trkpt lat="42.9234" lon="0.20485">
        <ele>1338</ele>
        <time>2019-08-08T05:03:55.000Z</time>
      </trkpt>
      <trkpt lat="42.9235" lon="0.20472">
        <ele>1333</ele>
        <time>2019-08-08T05:03:56.000Z</time>
      </trkpt>
      <trkpt lat="42.92359" lon="0.20459">
        <ele>1333</ele>
        <time>2019-08-08T05:03:57.000Z</time>
      </trkpt>
      <trkpt lat="42.92367" lon="0.20444">
        <ele>1331</ele>
        <time>2019-08-08T05:03:58.000Z</time>
      </trkpt>
      <trkpt lat="42.92374" lon="0.20429">
        <ele>1331</ele>
        <time>2019-08-08T05:03:59.000Z</time>
      </trkpt>
      <trkpt lat="42.92381" lon="0.20413">
        <ele>1330</ele>
        <time>2019-08-08T05:04:00.000Z</time>
      </trkpt>
      <trkpt lat="42.92388" lon="0.20398">
        <ele>1330</ele>
        <time>2019-08-08T05:04:01.000Z</time>
      </trkpt>
      <trkpt lat="42.92395" lon="0.20383">
        <ele>1330</ele>
        <time>2019-08-08T05:04:02.000Z</time>
      </trkpt>
      <trkpt lat="42.92403" lon="0.20367">
        <ele>1326</ele>
        <time>2019-08-08T05:04:03.000Z</time>
      </trkpt>
      <trkpt lat="42.92412" lon="0.20353">
        <ele>1326</ele>
        <time>2019-08-08T05:04:04.000Z</time>
      </trkpt>
      <trkpt lat="42.92421" lon="0.20339">
        <ele>1324</ele>
        <time>2019-08-08T05:04:05.000Z</time>
      </trkpt>
      <trkpt lat="42.92431" lon="0.20317">
        <ele>1324</ele>
        <time>2019-08-08T05:04:06.000Z</time>
      </trkpt>
      <trkpt lat="42.92434" lon="0.2031">
        <ele>1324</ele>
        <time>2019-08-08T05:04:07.000Z</time>
      </trkpt>
      <trkpt lat="42.9244" lon="0.20295">
        <ele>1320</ele>
        <time>2019-08-08T05:04:08.000Z</time>
      </trkpt>
      <trkpt lat="42.92445" lon="0.20278">
        <ele>1320</ele>
        <time>2019-08-08T05:04:09.000Z</time>
      </trkpt>
      <trkpt lat="42.92447" lon="0.20262">
        <ele>1317</ele>
        <time>2019-08-08T05:04:10.000Z</time>
      </trkpt>
      <trkpt lat="42.92449" lon="0.20243">
        <ele>1317</ele>
        <time>2019-08-08T05:04:11.000Z</time>
      </trkpt>
      <trkpt lat="42.9245" lon="0.20223">
        <ele>1317</ele>
        <time>2019-08-08T05:04:12.000Z</time>
      </trkpt>
      <trkpt lat="42.92451" lon="0.20204">
        <ele>1313</ele>
        <time>2019-08-08T05:04:13.000Z</time>
      </trkpt>
      <trkpt lat="42.92453" lon="0.20185">
        <ele>1313</ele>
        <time>2019-08-08T05:04:14.000Z</time>
      </trkpt>
      <trkpt lat="42.92455" lon="0.20167">
        <ele>1309</ele>
        <time>2019-08-08T05:04:15.000Z</time>
      </trkpt>
      <trkpt lat="42.9246" lon="0.20149">
        <ele>1309</ele>
        <time>2019-08-08T05:04:16.000Z</time>
      </trkpt>
      <trkpt lat="42.92464" lon="0.20131">
        <ele>1308</ele>
        <time>2019-08-08T05:04:17.000Z</time>
      </trkpt>
      <trkpt lat="42.92468" lon="0.20114">
        <ele>1308</ele>
        <time>2019-08-08T05:04:18.000Z</time>
      </trkpt>
      <trkpt lat="42.92471" lon="0.20097">
        <ele>1306</ele>
        <time>2019-08-08T05:04:19.000Z</time>
      </trkpt>
      <trkpt lat="42.92477" lon="0.2008">
        <ele>1306</ele>
        <time>2019-08-08T05:04:20.000Z</time>
      </trkpt>
      <trkpt lat="42.92481" lon="0.20062">
        <ele>1306</ele>
        <time>2019-08-08T05:04:21.000Z</time>
      </trkpt>
      <trkpt lat="42.92483" lon="0.20045">
        <ele>1303</ele>
        <time>2019-08-08T05:04:22.000Z</time>
      </trkpt>
      <trkpt lat="42.92483" lon="0.20027">
        <ele>1303</ele>
        <time>2019-08-08T05:04:23.000Z</time>
      </trkpt>
      <trkpt lat="42.92481" lon="0.20009">
        <ele>1298</ele>
        <time>2019-08-08T05:04:24.000Z</time>
      </trkpt>
      <trkpt lat="42.92481" lon="0.19991">
        <ele>1298</ele>
        <time>2019-08-08T05:04:25.000Z</time>
      </trkpt>
      <trkpt lat="42.92483" lon="0.19972">
        <ele>1298</ele>
        <time>2019-08-08T05:04:26.000Z</time>
      </trkpt>
      <trkpt lat="42.92484" lon="0.19953">
        <ele>1296</ele>
        <time>2019-08-08T05:04:27.000Z</time>
      </trkpt>
      <trkpt lat="42.92485" lon="0.19935">
        <ele>1296</ele>
        <time>2019-08-08T05:04:28.000Z</time>
      </trkpt>
      <trkpt lat="42.92486" lon="0.19917">
        <ele>1293</ele>
        <time>2019-08-08T05:04:29.000Z</time>
      </trkpt>
      <trkpt lat="42.92486" lon="0.19899">
        <ele>1293</ele>
        <time>2019-08-08T05:04:30.000Z</time>
      </trkpt>
      <trkpt lat="42.92484" lon="0.19882">
        <ele>1292</ele>
        <time>2019-08-08T05:04:31.000Z</time>
      </trkpt>
      <trkpt lat="42.92483" lon="0.19866">
        <ele>1292</ele>
        <time>2019-08-08T05:04:32.000Z</time>
      </trkpt>
      <trkpt lat="42.92481" lon="0.19851">
        <ele>1292</ele>
        <time>2019-08-08T05:04:33.000Z</time>
      </trkpt>
      <trkpt lat="42.92481" lon="0.19836">
        <ele>1290</ele>
        <time>2019-08-08T05:04:34.000Z</time>
      </trkpt>
      <trkpt lat="42.9248" lon="0.19822">
        <ele>1290</ele>
        <time>2019-08-08T05:04:35.000Z</time>
      </trkpt>
      <trkpt lat="42.92477" lon="0.19808">
        <ele>1290</ele>
        <time>2019-08-08T05:04:36.000Z</time>
      </trkpt>
      <trkpt lat="42.92476" lon="0.1979">
        <ele>1288</ele>
        <time>2019-08-08T05:04:37.000Z</time>
      </trkpt>
      <trkpt lat="42.92477" lon="0.19785">
        <ele>1288</ele>
        <time>2019-08-08T05:04:38.000Z</time>
      </trkpt>
      <trkpt lat="42.92478" lon="0.19775">
        <ele>1288</ele>
        <time>2019-08-08T05:04:39.000Z</time>
      </trkpt>
      <trkpt lat="42.92484" lon="0.1977">
        <ele>1288</ele>
        <time>2019-08-08T05:04:40.000Z</time>
      </trkpt>
      <trkpt lat="42.92496" lon="0.19769">
        <ele>1288</ele>
        <time>2019-08-08T05:04:41.000Z</time>
      </trkpt>
      <trkpt lat="42.925" lon="0.19769">
        <ele>1285</ele>
        <time>2019-08-08T05:04:42.000Z</time>
      </trkpt>
      <trkpt lat="42.92508" lon="0.19769">
        <ele>1285</ele>
        <time>2019-08-08T05:04:43.000Z</time>
      </trkpt>
      <trkpt lat="42.92517" lon="0.19766">
        <ele>1285</ele>
        <time>2019-08-08T05:04:44.000Z</time>
      </trkpt>
      <trkpt lat="42.92529" lon="0.19762">
        <ele>1282</ele>
        <time>2019-08-08T05:04:45.000Z</time>
      </trkpt>
      <trkpt lat="42.9254" lon="0.19756">
        <ele>1282</ele>
        <time>2019-08-08T05:04:46.000Z</time>
      </trkpt>
      <trkpt lat="42.9255" lon="0.1975">
        <ele>1281</ele>
        <time>2019-08-08T05:04:47.000Z</time>
      </trkpt>
      <trkpt lat="42.92561" lon="0.19744">
        <ele>1281</ele>
        <time>2019-08-08T05:04:48.000Z</time>
      </trkpt>
      <trkpt lat="42.92572" lon="0.19736">
        <ele>1281</ele>
        <time>2019-08-08T05:04:49.000Z</time>
      </trkpt>
      <trkpt lat="42.9258" lon="0.19726">
        <ele>1277</ele>
        <time>2019-08-08T05:04:50.000Z</time>
      </trkpt>
      <trkpt lat="42.92589" lon="0.19718">
        <ele>1277</ele>
        <time>2019-08-08T05:04:51.000Z</time>
      </trkpt>
      <trkpt lat="42.92597" lon="0.19716">
        <ele>1277</ele>
        <time>2019-08-08T05:04:52.000Z</time>
      </trkpt>
      <trkpt lat="42.92606" lon="0.1972">
        <ele>1275</ele>
        <time>2019-08-08T05:04:53.000Z</time>
      </trkpt>
      <trkpt lat="42.92613" lon="0.19729">
        <ele>1275</ele>
        <time>2019-08-08T05:04:54.000Z</time>
      </trkpt>
      <trkpt lat="42.92619" lon="0.1974">
        <ele>1273</ele>
        <time>2019-08-08T05:04:55.000Z</time>
      </trkpt>
      <trkpt lat="42.92624" lon="0.19754">
        <ele>1273</ele>
        <time>2019-08-08T05:04:56.000Z</time>
      </trkpt>
      <trkpt lat="42.9263" lon="0.19769">
        <ele>1271</ele>
        <time>2019-08-08T05:04:57.000Z</time>
      </trkpt>
      <trkpt lat="42.92636" lon="0.19782">
        <ele>1271</ele>
        <time>2019-08-08T05:04:58.000Z</time>
      </trkpt>
      <trkpt lat="42.92645" lon="0.19796">
        <ele>1271</ele>
        <time>2019-08-08T05:04:59.000Z</time>
      </trkpt>
      <trkpt lat="42.92654" lon="0.19808">
        <ele>1266</ele>
        <time>2019-08-08T05:05:00.000Z</time>
      </trkpt>
      <trkpt lat="42.92664" lon="0.1982">
        <ele>1266</ele>
        <time>2019-08-08T05:05:01.000Z</time>
      </trkpt>
      <trkpt lat="42.92675" lon="0.19831">
        <ele>1266</ele>
        <time>2019-08-08T05:05:02.000Z</time>
      </trkpt>
      <trkpt lat="42.92685" lon="0.1984">
        <ele>1261</ele>
        <time>2019-08-08T05:05:03.000Z</time>
      </trkpt>
      <trkpt lat="42.92694" lon="0.1985">
        <ele>1261</ele>
        <time>2019-08-08T05:05:04.000Z</time>
      </trkpt>
      <trkpt lat="42.92701" lon="0.19862">
        <ele>1261</ele>
        <time>2019-08-08T05:05:05.000Z</time>
      </trkpt>
      <trkpt lat="42.92706" lon="0.19877">
        <ele>1258</ele>
        <time>2019-08-08T05:05:06.000Z</time>
      </trkpt>
      <trkpt lat="42.92711" lon="0.19892">
        <ele>1258</ele>
        <time>2019-08-08T05:05:07.000Z</time>
      </trkpt>
      <trkpt lat="42.92719" lon="0.19914">
        <ele>1258</ele>
        <time>2019-08-08T05:05:08.000Z</time>
      </trkpt>
      <trkpt lat="42.92723" lon="0.19921">
        <ele>1255</ele>
        <time>2019-08-08T05:05:09.000Z</time>
      </trkpt>
      <trkpt lat="42.92732" lon="0.19934">
        <ele>1255</ele>
        <time>2019-08-08T05:05:10.000Z</time>
      </trkpt>
      <trkpt lat="42.92742" lon="0.19946">
        <ele>1255</ele>
        <time>2019-08-08T05:05:11.000Z</time>
      </trkpt>
      <trkpt lat="42.92753" lon="0.19958">
        <ele>1251</ele>
        <time>2019-08-08T05:05:12.000Z</time>
      </trkpt>
      <trkpt lat="42.92763" lon="0.19971">
        <ele>1251</ele>
        <time>2019-08-08T05:05:13.000Z</time>
      </trkpt>
      <trkpt lat="42.92773" lon="0.19984">
        <ele>1246</ele>
        <time>2019-08-08T05:05:14.000Z</time>
      </trkpt>
      <trkpt lat="42.92784" lon="0.19997">
        <ele>1245</ele>
        <time>2019-08-08T05:05:15.000Z</time>
      </trkpt>
      <trkpt lat="42.92795" lon="0.2001">
        <ele>1245</ele>
        <time>2019-08-08T05:05:16.000Z</time>
      </trkpt>
      <trkpt lat="42.92805" lon="0.20023">
        <ele>1245</ele>
        <time>2019-08-08T05:05:17.000Z</time>
      </trkpt>
      <trkpt lat="42.92815" lon="0.20036">
        <ele>1244</ele>
        <time>2019-08-08T05:05:18.000Z</time>
      </trkpt>
      <trkpt lat="42.92825" lon="0.20049">
        <ele>1244</ele>
        <time>2019-08-08T05:05:19.000Z</time>
      </trkpt>
      <trkpt lat="42.92835" lon="0.20063">
        <ele>1240</ele>
        <time>2019-08-08T05:05:20.000Z</time>
      </trkpt>
      <trkpt lat="42.92844" lon="0.20077">
        <ele>1240</ele>
        <time>2019-08-08T05:05:21.000Z</time>
      </trkpt>
      <trkpt lat="42.92852" lon="0.20092">
        <ele>1240</ele>
        <time>2019-08-08T05:05:22.000Z</time>
      </trkpt>
      <trkpt lat="42.92861" lon="0.20106">
        <ele>1236</ele>
        <time>2019-08-08T05:05:23.000Z</time>
      </trkpt>
      <trkpt lat="42.92871" lon="0.20119">
        <ele>1236</ele>
        <time>2019-08-08T05:05:24.000Z</time>
      </trkpt>
      <trkpt lat="42.9288" lon="0.20131">
        <ele>1236</ele>
        <time>2019-08-08T05:05:25.000Z</time>
      </trkpt>
      <trkpt lat="42.92891" lon="0.20142">
        <ele>1232</ele>
        <time>2019-08-08T05:05:26.000Z</time>
      </trkpt>
      <trkpt lat="42.92902" lon="0.20152">
        <ele>1232</ele>
        <time>2019-08-08T05:05:27.000Z</time>
      </trkpt>
      <trkpt lat="42.92914" lon="0.20161">
        <ele>1229</ele>
        <time>2019-08-08T05:05:28.000Z</time>
      </trkpt>
      <trkpt lat="42.92926" lon="0.20169">
        <ele>1229</ele>
        <time>2019-08-08T05:05:29.000Z</time>
      </trkpt>
      <trkpt lat="42.92939" lon="0.20178">
        <ele>1227</ele>
        <time>2019-08-08T05:05:30.000Z</time>
      </trkpt>
      <trkpt lat="42.92951" lon="0.20187">
        <ele>1227</ele>
        <time>2019-08-08T05:05:31.000Z</time>
      </trkpt>
      <trkpt lat="42.92964" lon="0.20196">
        <ele>1227</ele>
        <time>2019-08-08T05:05:32.000Z</time>
      </trkpt>
      <trkpt lat="42.92977" lon="0.20205">
        <ele>1224</ele>
        <time>2019-08-08T05:05:33.000Z</time>
      </trkpt>
      <trkpt lat="42.92989" lon="0.20215">
        <ele>1224</ele>
        <time>2019-08-08T05:05:34.000Z</time>
      </trkpt>
      <trkpt lat="42.93001" lon="0.20225">
        <ele>1224</ele>
        <time>2019-08-08T05:05:35.000Z</time>
      </trkpt>
      <trkpt lat="42.93013" lon="0.20237">
        <ele>1220</ele>
        <time>2019-08-08T05:05:36.000Z</time>
      </trkpt>
      <trkpt lat="42.93025" lon="0.2025">
        <ele>1220</ele>
        <time>2019-08-08T05:05:37.000Z</time>
      </trkpt>
      <trkpt lat="42.93035" lon="0.20265">
        <ele>1215</ele>
        <time>2019-08-08T05:05:38.000Z</time>
      </trkpt>
      <trkpt lat="42.93045" lon="0.2028">
        <ele>1215</ele>
        <time>2019-08-08T05:05:39.000Z</time>
      </trkpt>
      <trkpt lat="42.93054" lon="0.20296">
        <ele>1214</ele>
        <time>2019-08-08T05:05:40.000Z</time>
      </trkpt>
      <trkpt lat="42.93068" lon="0.20319">
        <ele>1214</ele>
        <time>2019-08-08T05:05:41.000Z</time>
      </trkpt>
      <trkpt lat="42.93073" lon="0.20327">
        <ele>1214</ele>
        <time>2019-08-08T05:05:42.000Z</time>
      </trkpt>
      <trkpt lat="42.93082" lon="0.20342">
        <ele>1211</ele>
        <time>2019-08-08T05:05:43.000Z</time>
      </trkpt>
      <trkpt lat="42.93091" lon="0.20357">
        <ele>1211</ele>
        <time>2019-08-08T05:05:44.000Z</time>
      </trkpt>
      <trkpt lat="42.93101" lon="0.2037">
        <ele>1208</ele>
        <time>2019-08-08T05:05:45.000Z</time>
      </trkpt>
      <trkpt lat="42.93112" lon="0.20382">
        <ele>1208</ele>
        <time>2019-08-08T05:05:46.000Z</time>
      </trkpt>
      <trkpt lat="42.93124" lon="0.20391">
        <ele>1207</ele>
        <time>2019-08-08T05:05:47.000Z</time>
      </trkpt>
      <trkpt lat="42.93136" lon="0.204">
        <ele>1207</ele>
        <time>2019-08-08T05:05:48.000Z</time>
      </trkpt>
      <trkpt lat="42.93149" lon="0.20408">
        <ele>1207</ele>
        <time>2019-08-08T05:05:49.000Z</time>
      </trkpt>
      <trkpt lat="42.93162" lon="0.20416">
        <ele>1202</ele>
        <time>2019-08-08T05:05:50.000Z</time>
      </trkpt>
      <trkpt lat="42.93175" lon="0.20425">
        <ele>1202</ele>
        <time>2019-08-08T05:05:51.000Z</time>
      </trkpt>
      <trkpt lat="42.93188" lon="0.20433">
        <ele>1202</ele>
        <time>2019-08-08T05:05:52.000Z</time>
      </trkpt>
      <trkpt lat="42.93201" lon="0.20441">
        <ele>1198</ele>
        <time>2019-08-08T05:05:53.000Z</time>
      </trkpt>
      <trkpt lat="42.93215" lon="0.20449">
        <ele>1198</ele>
        <time>2019-08-08T05:05:54.000Z</time>
      </trkpt>
      <trkpt lat="42.93228" lon="0.20457">
        <ele>1195</ele>
        <time>2019-08-08T05:05:55.000Z</time>
      </trkpt>
      <trkpt lat="42.93241" lon="0.20467">
        <ele>1195</ele>
        <time>2019-08-08T05:05:56.000Z</time>
      </trkpt>
      <trkpt lat="42.93255" lon="0.20477">
        <ele>1195</ele>
        <time>2019-08-08T05:05:57.000Z</time>
      </trkpt>
      <trkpt lat="42.93267" lon="0.20489">
        <ele>1191</ele>
        <time>2019-08-08T05:05:58.000Z</time>
      </trkpt>
      <trkpt lat="42.9328" lon="0.20501">
        <ele>1191</ele>
        <time>2019-08-08T05:05:59.000Z</time>
      </trkpt>
      <trkpt lat="42.93292" lon="0.20514">
        <ele>1186</ele>
        <time>2019-08-08T05:06:00.000Z</time>
      </trkpt>
      <trkpt lat="42.93305" lon="0.20528">
        <ele>1186</ele>
        <time>2019-08-08T05:06:01.000Z</time>
      </trkpt>
      <trkpt lat="42.93317" lon="0.20541">
        <ele>1186</ele>
        <time>2019-08-08T05:06:02.000Z</time>
      </trkpt>
      <trkpt lat="42.9333" lon="0.20555">
        <ele>1182</ele>
        <time>2019-08-08T05:06:03.000Z</time>
      </trkpt>
      <trkpt lat="42.93342" lon="0.20567">
        <ele>1182</ele>
        <time>2019-08-08T05:06:04.000Z</time>
      </trkpt>
      <trkpt lat="42.93355" lon="0.20579">
        <ele>1180</ele>
        <time>2019-08-08T05:06:05.000Z</time>
      </trkpt>
      <trkpt lat="42.93368" lon="0.20591">
        <ele>1180</ele>
        <time>2019-08-08T05:06:06.000Z</time>
      </trkpt>
      <trkpt lat="42.93379" lon="0.20604">
        <ele>1180</ele>
        <time>2019-08-08T05:06:07.000Z</time>
      </trkpt>
      <trkpt lat="42.93389" lon="0.20618">
        <ele>1177</ele>
        <time>2019-08-08T05:06:08.000Z</time>
      </trkpt>
      <trkpt lat="42.93398" lon="0.20633">
        <ele>1177</ele>
        <time>2019-08-08T05:06:09.000Z</time>
      </trkpt>
      <trkpt lat="42.93405" lon="0.20649">
        <ele>1174</ele>
        <time>2019-08-08T05:06:10.000Z</time>
      </trkpt>
      <trkpt lat="42.93412" lon="0.20665">
        <ele>1174</ele>
        <time>2019-08-08T05:06:11.000Z</time>
      </trkpt>
      <trkpt lat="42.9342" lon="0.2068">
        <ele>1173</ele>
        <time>2019-08-08T05:06:12.000Z</time>
      </trkpt>
      <trkpt lat="42.9343" lon="0.20694">
        <ele>1173</ele>
        <time>2019-08-08T05:06:13.000Z</time>
      </trkpt>
      <trkpt lat="42.93447" lon="0.20713">
        <ele>1173</ele>
        <time>2019-08-08T05:06:14.000Z</time>
      </trkpt>
      <trkpt lat="42.93452" lon="0.20719">
        <ele>1170.4</ele>
        <time>2019-08-08T05:06:15.000Z</time>
      </trkpt>
      <trkpt lat="42.93464" lon="0.20732">
        <ele>1168</ele>
        <time>2019-08-08T05:06:16.000Z</time>
      </trkpt>
      <trkpt lat="42.93474" lon="0.20745">
        <ele>1167</ele>
        <time>2019-08-08T05:06:17.000Z</time>
      </trkpt>
      <trkpt lat="42.93483" lon="0.20758">
        <ele>1167</ele>
        <time>2019-08-08T05:06:18.000Z</time>
      </trkpt>
      <trkpt lat="42.93494" lon="0.20779">
        <ele>1167</ele>
        <time>2019-08-08T05:06:19.000Z</time>
      </trkpt>
      <trkpt lat="42.93497" lon="0.20787">
        <ele>1164</ele>
        <time>2019-08-08T05:06:20.000Z</time>
      </trkpt>
      <trkpt lat="42.93504" lon="0.20802">
        <ele>1164</ele>
        <time>2019-08-08T05:06:21.000Z</time>
      </trkpt>
      <trkpt lat="42.93512" lon="0.20815">
        <ele>1161</ele>
        <time>2019-08-08T05:06:22.000Z</time>
      </trkpt>
      <trkpt lat="42.93522" lon="0.20826">
        <ele>1161</ele>
        <time>2019-08-08T05:06:23.000Z</time>
      </trkpt>
      <trkpt lat="42.93533" lon="0.20834">
        <ele>1161</ele>
        <time>2019-08-08T05:06:24.000Z</time>
      </trkpt>
      <trkpt lat="42.93545" lon="0.2084">
        <ele>1158</ele>
        <time>2019-08-08T05:06:25.000Z</time>
      </trkpt>
      <trkpt lat="42.93557" lon="0.20845">
        <ele>1158</ele>
        <time>2019-08-08T05:06:26.000Z</time>
      </trkpt>
      <trkpt lat="42.93569" lon="0.20852">
        <ele>1155</ele>
        <time>2019-08-08T05:06:27.000Z</time>
      </trkpt>
      <trkpt lat="42.93579" lon="0.20862">
        <ele>1155</ele>
        <time>2019-08-08T05:06:28.000Z</time>
      </trkpt>
      <trkpt lat="42.93588" lon="0.20873">
        <ele>1153</ele>
        <time>2019-08-08T05:06:29.000Z</time>
      </trkpt>
      <trkpt lat="42.93597" lon="0.20882">
        <ele>1153</ele>
        <time>2019-08-08T05:06:30.000Z</time>
      </trkpt>
      <trkpt lat="42.93605" lon="0.20887">
        <ele>1152</ele>
        <time>2019-08-08T05:06:31.000Z</time>
      </trkpt>
      <trkpt lat="42.93614" lon="0.20887">
        <ele>1152</ele>
        <time>2019-08-08T05:06:32.000Z</time>
      </trkpt>
      <trkpt lat="42.93622" lon="0.20883">
        <ele>1152</ele>
        <time>2019-08-08T05:06:33.000Z</time>
      </trkpt>
      <trkpt lat="42.93628" lon="0.20876">
        <ele>1151</ele>
        <time>2019-08-08T05:06:34.000Z</time>
      </trkpt>
      <trkpt lat="42.93636" lon="0.20871">
        <ele>1151</ele>
        <time>2019-08-08T05:06:35.000Z</time>
      </trkpt>
      <trkpt lat="42.93643" lon="0.20871">
        <ele>1151</ele>
        <time>2019-08-08T05:06:36.000Z</time>
      </trkpt>
      <trkpt lat="42.93649" lon="0.20876">
        <ele>1151</ele>
        <time>2019-08-08T05:06:37.000Z</time>
      </trkpt>
      <trkpt lat="42.93653" lon="0.20886">
        <ele>1151</ele>
        <time>2019-08-08T05:06:38.000Z</time>
      </trkpt>
      <trkpt lat="42.93654" lon="0.20898">
        <ele>1151</ele>
        <time>2019-08-08T05:06:39.000Z</time>
      </trkpt>
      <trkpt lat="42.93654" lon="0.20911">
        <ele>1149</ele>
        <time>2019-08-08T05:06:40.000Z</time>
      </trkpt>
      <trkpt lat="42.93657" lon="0.20922">
        <ele>1149</ele>
        <time>2019-08-08T05:06:41.000Z</time>
      </trkpt>
      <trkpt lat="42.93663" lon="0.20933">
        <ele>1146</ele>
        <time>2019-08-08T05:06:42.000Z</time>
      </trkpt>
      <trkpt lat="42.9367" lon="0.20942">
        <ele>1146</ele>
        <time>2019-08-08T05:06:43.000Z</time>
      </trkpt>
      <trkpt lat="42.93678" lon="0.2095">
        <ele>1146</ele>
        <time>2019-08-08T05:06:44.000Z</time>
      </trkpt>
      <trkpt lat="42.93687" lon="0.20957">
        <ele>1143</ele>
        <time>2019-08-08T05:06:45.000Z</time>
      </trkpt>
      <trkpt lat="42.93696" lon="0.20962">
        <ele>1143</ele>
        <time>2019-08-08T05:06:46.000Z</time>
      </trkpt>
      <trkpt lat="42.93706" lon="0.20968">
        <ele>1140</ele>
        <time>2019-08-08T05:06:47.000Z</time>
      </trkpt>
      <trkpt lat="42.93716" lon="0.20974">
        <ele>1140</ele>
        <time>2019-08-08T05:06:48.000Z</time>
      </trkpt>
      <trkpt lat="42.93726" lon="0.20983">
        <ele>1140</ele>
        <time>2019-08-08T05:06:49.000Z</time>
      </trkpt>
      <trkpt lat="42.93735" lon="0.20994">
        <ele>1138</ele>
        <time>2019-08-08T05:06:50.000Z</time>
      </trkpt>
      <trkpt lat="42.93742" lon="0.21008">
        <ele>1138</ele>
        <time>2019-08-08T05:06:51.000Z</time>
      </trkpt>
      <trkpt lat="42.9375" lon="0.21021">
        <ele>1135</ele>
        <time>2019-08-08T05:06:52.000Z</time>
      </trkpt>
      <trkpt lat="42.93759" lon="0.21034">
        <ele>1135</ele>
        <time>2019-08-08T05:06:53.000Z</time>
      </trkpt>
      <trkpt lat="42.93768" lon="0.21047">
        <ele>1135</ele>
        <time>2019-08-08T05:06:54.000Z</time>
      </trkpt>
      <trkpt lat="42.93778" lon="0.21059">
        <ele>1132</ele>
        <time>2019-08-08T05:06:55.000Z</time>
      </trkpt>
      <trkpt lat="42.93788" lon="0.21072">
        <ele>1132</ele>
        <time>2019-08-08T05:06:56.000Z</time>
      </trkpt>
      <trkpt lat="42.93798" lon="0.21084">
        <ele>1132</ele>
        <time>2019-08-08T05:06:57.000Z</time>
      </trkpt>
      <trkpt lat="42.93807" lon="0.21096">
        <ele>1129</ele>
        <time>2019-08-08T05:06:58.000Z</time>
      </trkpt>
      <trkpt lat="42.93818" lon="0.21105">
        <ele>1129</ele>
        <time>2019-08-08T05:06:59.000Z</time>
      </trkpt>
      <trkpt lat="42.93827" lon="0.21115">
        <ele>1127</ele>
        <time>2019-08-08T05:07:00.000Z</time>
      </trkpt>
      <trkpt lat="42.93838" lon="0.21126">
        <ele>1127</ele>
        <time>2019-08-08T05:07:01.000Z</time>
      </trkpt>
      <trkpt lat="42.93841" lon="0.21129">
        <ele>1126</ele>
        <time>2019-08-08T05:07:02.000Z</time>
      </trkpt>
      <trkpt lat="42.93847" lon="0.21135">
        <ele>1126</ele>
        <time>2019-08-08T05:07:03.000Z</time>
      </trkpt>
      <trkpt lat="42.93847" lon="0.21135">
        <ele>1123</ele>
        <time>2019-08-08T05:07:04.000Z</time>
      </trkpt>
      <trkpt lat="42.93854" lon="0.21146">
        <ele>1123</ele>
        <time>2019-08-08T05:07:05.000Z</time>
      </trkpt>
      <trkpt lat="42.93854" lon="0.21146">
        <ele>1120</ele>
        <time>2019-08-08T05:07:06.000Z</time>
      </trkpt>
      <trkpt lat="42.93861" lon="0.21163">
        <ele>1120</ele>
        <time>2019-08-08T05:07:07.000Z</time>
      </trkpt>
      <trkpt lat="42.93868" lon="0.2118">
        <ele>1120</ele>
        <time>2019-08-08T05:07:08.000Z</time>
      </trkpt>
      <trkpt lat="42.93883" lon="0.21217">
        <ele>1117</ele>
        <time>2019-08-08T05:07:09.000Z</time>
      </trkpt>
      <trkpt lat="42.93897" lon="0.21249">
        <ele>1117</ele>
        <time>2019-08-08T05:07:10.000Z</time>
      </trkpt>
      <trkpt lat="42.93908" lon="0.21264">
        <ele>1117</ele>
        <time>2019-08-08T05:07:11.000Z</time>
      </trkpt>
      <trkpt lat="42.93917" lon="0.21279">
        <ele>1114</ele>
        <time>2019-08-08T05:07:12.000Z</time>
      </trkpt>
      <trkpt lat="42.93928" lon="0.21291">
        <ele>1114</ele>
        <time>2019-08-08T05:07:13.000Z</time>
      </trkpt>
      <trkpt lat="42.93939" lon="0.21303">
        <ele>1111</ele>
        <time>2019-08-08T05:07:14.000Z</time>
      </trkpt>
      <trkpt lat="42.9395" lon="0.21315">
        <ele>1111</ele>
        <time>2019-08-08T05:07:15.000Z</time>
      </trkpt>
      <trkpt lat="42.93965" lon="0.21325">
        <ele>1111</ele>
        <time>2019-08-08T05:07:16.000Z</time>
      </trkpt>
      <trkpt lat="42.93978" lon="0.21333">
        <ele>1107</ele>
        <time>2019-08-08T05:07:17.000Z</time>
      </trkpt>
      <trkpt lat="42.93991" lon="0.21341">
        <ele>1106</ele>
        <time>2019-08-08T05:07:18.000Z</time>
      </trkpt>
      <trkpt lat="42.94003" lon="0.21348">
        <ele>1106</ele>
        <time>2019-08-08T05:07:19.000Z</time>
      </trkpt>
      <trkpt lat="42.94016" lon="0.21355">
        <ele>1106</ele>
        <time>2019-08-08T05:07:20.000Z</time>
      </trkpt>
      <trkpt lat="42.94028" lon="0.21364">
        <ele>1104</ele>
        <time>2019-08-08T05:07:21.000Z</time>
      </trkpt>
      <trkpt lat="42.94039" lon="0.21375">
        <ele>1104</ele>
        <time>2019-08-08T05:07:22.000Z</time>
      </trkpt>
      <trkpt lat="42.9405" lon="0.21388">
        <ele>1104</ele>
        <time>2019-08-08T05:07:23.000Z</time>
      </trkpt>
      <trkpt lat="42.9406" lon="0.214">
        <ele>1104</ele>
        <time>2019-08-08T05:07:24.000Z</time>
      </trkpt>
      <trkpt lat="42.94068" lon="0.21416">
        <ele>1099</ele>
        <time>2019-08-08T05:07:25.000Z</time>
      </trkpt>
      <trkpt lat="42.94077" lon="0.21432">
        <ele>1099</ele>
        <time>2019-08-08T05:07:26.000Z</time>
      </trkpt>
      <trkpt lat="42.94087" lon="0.21445">
        <ele>1099</ele>
        <time>2019-08-08T05:07:27.000Z</time>
      </trkpt>
      <trkpt lat="42.94097" lon="0.21458">
        <ele>1095</ele>
        <time>2019-08-08T05:07:28.000Z</time>
      </trkpt>
      <trkpt lat="42.94108" lon="0.21471">
        <ele>1095</ele>
        <time>2019-08-08T05:07:29.000Z</time>
      </trkpt>
      <trkpt lat="42.94118" lon="0.21482">
        <ele>1095</ele>
        <time>2019-08-08T05:07:30.000Z</time>
      </trkpt>
      <trkpt lat="42.94129" lon="0.21495">
        <ele>1091</ele>
        <time>2019-08-08T05:07:31.000Z</time>
      </trkpt>
      <trkpt lat="42.94139" lon="0.21508">
        <ele>1091</ele>
        <time>2019-08-08T05:07:32.000Z</time>
      </trkpt>
      <trkpt lat="42.94147" lon="0.21523">
        <ele>1088</ele>
        <time>2019-08-08T05:07:33.000Z</time>
      </trkpt>
      <trkpt lat="42.94153" lon="0.21538">
        <ele>1088</ele>
        <time>2019-08-08T05:07:34.000Z</time>
      </trkpt>
      <trkpt lat="42.94159" lon="0.21554">
        <ele>1086</ele>
        <time>2019-08-08T05:07:35.000Z</time>
      </trkpt>
      <trkpt lat="42.94164" lon="0.21571">
        <ele>1086</ele>
        <time>2019-08-08T05:07:36.000Z</time>
      </trkpt>
      <trkpt lat="42.94168" lon="0.21589">
        <ele>1086</ele>
        <time>2019-08-08T05:07:37.000Z</time>
      </trkpt>
      <trkpt lat="42.94174" lon="0.21606">
        <ele>1086</ele>
        <time>2019-08-08T05:07:38.000Z</time>
      </trkpt>
      <trkpt lat="42.94179" lon="0.21621">
        <ele>1083</ele>
        <time>2019-08-08T05:07:39.000Z</time>
      </trkpt>
      <trkpt lat="42.94185" lon="0.21633">
        <ele>1083</ele>
        <time>2019-08-08T05:07:40.000Z</time>
      </trkpt>
      <trkpt lat="42.94192" lon="0.21643">
        <ele>1083</ele>
        <time>2019-08-08T05:07:41.000Z</time>
      </trkpt>
      <trkpt lat="42.94202" lon="0.21649">
        <ele>1080</ele>
        <time>2019-08-08T05:07:42.000Z</time>
      </trkpt>
      <trkpt lat="42.94211" lon="0.21656">
        <ele>1080</ele>
        <time>2019-08-08T05:07:43.000Z</time>
      </trkpt>
      <trkpt lat="42.9422" lon="0.21665">
        <ele>1076</ele>
        <time>2019-08-08T05:07:44.000Z</time>
      </trkpt>
      <trkpt lat="42.94229" lon="0.21677">
        <ele>1076</ele>
        <time>2019-08-08T05:07:45.000Z</time>
      </trkpt>
      <trkpt lat="42.94236" lon="0.21691">
        <ele>1076</ele>
        <time>2019-08-08T05:07:46.000Z</time>
      </trkpt>
      <trkpt lat="42.94244" lon="0.21705">
        <ele>1073</ele>
        <time>2019-08-08T05:07:47.000Z</time>
      </trkpt>
      <trkpt lat="42.94251" lon="0.21719">
        <ele>1073</ele>
        <time>2019-08-08T05:07:48.000Z</time>
      </trkpt>
      <trkpt lat="42.94261" lon="0.21732">
        <ele>1071</ele>
        <time>2019-08-08T05:07:49.000Z</time>
      </trkpt>
      <trkpt lat="42.9427" lon="0.21746">
        <ele>1071</ele>
        <time>2019-08-08T05:07:50.000Z</time>
      </trkpt>
      <trkpt lat="42.94279" lon="0.21759">
        <ele>1071</ele>
        <time>2019-08-08T05:07:51.000Z</time>
      </trkpt>
      <trkpt lat="42.94288" lon="0.21772">
        <ele>1067</ele>
        <time>2019-08-08T05:07:52.000Z</time>
      </trkpt>
      <trkpt lat="42.94298" lon="0.21784">
        <ele>1067</ele>
        <time>2019-08-08T05:07:53.000Z</time>
      </trkpt>
      <trkpt lat="42.94314" lon="0.21803">
        <ele>1067</ele>
        <time>2019-08-08T05:07:54.000Z</time>
      </trkpt>
      <trkpt lat="42.94319" lon="0.21809">
        <ele>1065</ele>
        <time>2019-08-08T05:07:55.000Z</time>
      </trkpt>
      <trkpt lat="42.94329" lon="0.21822">
        <ele>1063</ele>
        <time>2019-08-08T05:07:56.000Z</time>
      </trkpt>
      <trkpt lat="42.94339" lon="0.21836">
        <ele>1062</ele>
        <time>2019-08-08T05:07:57.000Z</time>
      </trkpt>
      <trkpt lat="42.94349" lon="0.2185">
        <ele>1062</ele>
        <time>2019-08-08T05:07:58.000Z</time>
      </trkpt>
      <trkpt lat="42.94358" lon="0.21863">
        <ele>1059</ele>
        <time>2019-08-08T05:07:59.000Z</time>
      </trkpt>
      <trkpt lat="42.94369" lon="0.21873">
        <ele>1059</ele>
        <time>2019-08-08T05:08:00.000Z</time>
      </trkpt>
      <trkpt lat="42.94379" lon="0.21885">
        <ele>1059</ele>
        <time>2019-08-08T05:08:01.000Z</time>
      </trkpt>
      <trkpt lat="42.9439" lon="0.21897">
        <ele>1056</ele>
        <time>2019-08-08T05:08:02.000Z</time>
      </trkpt>
      <trkpt lat="42.944" lon="0.21909">
        <ele>1056</ele>
        <time>2019-08-08T05:08:03.000Z</time>
      </trkpt>
      <trkpt lat="42.94409" lon="0.21921">
        <ele>1056</ele>
        <time>2019-08-08T05:08:04.000Z</time>
      </trkpt>
      <trkpt lat="42.94418" lon="0.21933">
        <ele>1053</ele>
        <time>2019-08-08T05:08:05.000Z</time>
      </trkpt>
      <trkpt lat="42.94428" lon="0.21945">
        <ele>1053</ele>
        <time>2019-08-08T05:08:06.000Z</time>
      </trkpt>
      <trkpt lat="42.94439" lon="0.21956">
        <ele>1050</ele>
        <time>2019-08-08T05:08:07.000Z</time>
      </trkpt>
      <trkpt lat="42.94451" lon="0.21967">
        <ele>1050</ele>
        <time>2019-08-08T05:08:08.000Z</time>
      </trkpt>
      <trkpt lat="42.94462" lon="0.21977">
        <ele>1050</ele>
        <time>2019-08-08T05:08:09.000Z</time>
      </trkpt>
      <trkpt lat="42.94475" lon="0.21985">
        <ele>1046</ele>
        <time>2019-08-08T05:08:10.000Z</time>
      </trkpt>
      <trkpt lat="42.94487" lon="0.21994">
        <ele>1046</ele>
        <time>2019-08-08T05:08:11.000Z</time>
      </trkpt>
      <trkpt lat="42.94499" lon="0.22003">
        <ele>1046</ele>
        <time>2019-08-08T05:08:12.000Z</time>
      </trkpt>
      <trkpt lat="42.94511" lon="0.22013">
        <ele>1043</ele>
        <time>2019-08-08T05:08:13.000Z</time>
      </trkpt>
      <trkpt lat="42.94522" lon="0.22024">
        <ele>1043</ele>
        <time>2019-08-08T05:08:14.000Z</time>
      </trkpt>
      <trkpt lat="42.94532" lon="0.22035">
        <ele>1043</ele>
        <time>2019-08-08T05:08:15.000Z</time>
      </trkpt>
      <trkpt lat="42.94541" lon="0.22048">
        <ele>1043</ele>
        <time>2019-08-08T05:08:16.000Z</time>
      </trkpt>
      <trkpt lat="42.94549" lon="0.22061">
        <ele>1040</ele>
        <time>2019-08-08T05:08:17.000Z</time>
      </trkpt>
      <trkpt lat="42.94557" lon="0.22075">
        <ele>1040</ele>
        <time>2019-08-08T05:08:18.000Z</time>
      </trkpt>
      <trkpt lat="42.94564" lon="0.22089">
        <ele>1040</ele>
        <time>2019-08-08T05:08:19.000Z</time>
      </trkpt>
      <trkpt lat="42.9457" lon="0.22101">
        <ele>1036</ele>
        <time>2019-08-08T05:08:20.000Z</time>
      </trkpt>
      <trkpt lat="42.94578" lon="0.22112">
        <ele>1036</ele>
        <time>2019-08-08T05:08:21.000Z</time>
      </trkpt>
      <trkpt lat="42.94587" lon="0.22122">
        <ele>1033</ele>
        <time>2019-08-08T05:08:22.000Z</time>
      </trkpt>
      <trkpt lat="42.94597" lon="0.22129">
        <ele>1033</ele>
        <time>2019-08-08T05:08:23.000Z</time>
      </trkpt>
      <trkpt lat="42.94607" lon="0.22134">
        <ele>1033</ele>
        <time>2019-08-08T05:08:24.000Z</time>
      </trkpt>
      <trkpt lat="42.94618" lon="0.22137">
        <ele>1031</ele>
        <time>2019-08-08T05:08:25.000Z</time>
      </trkpt>
      <trkpt lat="42.94628" lon="0.2214">
        <ele>1031</ele>
        <time>2019-08-08T05:08:26.000Z</time>
      </trkpt>
      <trkpt lat="42.94637" lon="0.22145">
        <ele>1028</ele>
        <time>2019-08-08T05:08:27.000Z</time>
      </trkpt>
      <trkpt lat="42.94646" lon="0.22154">
        <ele>1028</ele>
        <time>2019-08-08T05:08:28.000Z</time>
      </trkpt>
      <trkpt lat="42.94654" lon="0.22165">
        <ele>1028</ele>
        <time>2019-08-08T05:08:29.000Z</time>
      </trkpt>
      <trkpt lat="42.9466" lon="0.22179">
        <ele>1026</ele>
        <time>2019-08-08T05:08:30.000Z</time>
      </trkpt>
      <trkpt lat="42.94665" lon="0.22194">
        <ele>1026</ele>
        <time>2019-08-08T05:08:31.000Z</time>
      </trkpt>
      <trkpt lat="42.9467" lon="0.22219">
        <ele>1026</ele>
        <time>2019-08-08T05:08:32.000Z</time>
      </trkpt>
      <trkpt lat="42.94672" lon="0.22228">
        <ele>1022</ele>
        <time>2019-08-08T05:08:33.000Z</time>
      </trkpt>
      <trkpt lat="42.94675" lon="0.22245">
        <ele>1022</ele>
        <time>2019-08-08T05:08:34.000Z</time>
      </trkpt>
      <trkpt lat="42.94679" lon="0.22262">
        <ele>1019</ele>
        <time>2019-08-08T05:08:35.000Z</time>
      </trkpt>
      <trkpt lat="42.94684" lon="0.22279">
        <ele>1019</ele>
        <time>2019-08-08T05:08:36.000Z</time>
      </trkpt>
      <trkpt lat="42.94691" lon="0.22296">
        <ele>1019</ele>
        <time>2019-08-08T05:08:37.000Z</time>
      </trkpt>
      <trkpt lat="42.94697" lon="0.22312">
        <ele>1016</ele>
        <time>2019-08-08T05:08:38.000Z</time>
      </trkpt>
      <trkpt lat="42.94705" lon="0.22326">
        <ele>1016</ele>
        <time>2019-08-08T05:08:39.000Z</time>
      </trkpt>
      <trkpt lat="42.94713" lon="0.2234">
        <ele>1016</ele>
        <time>2019-08-08T05:08:40.000Z</time>
      </trkpt>
      <trkpt lat="42.94721" lon="0.22353">
        <ele>1015</ele>
        <time>2019-08-08T05:08:41.000Z</time>
      </trkpt>
      <trkpt lat="42.94731" lon="0.22364">
        <ele>1015</ele>
        <time>2019-08-08T05:08:42.000Z</time>
      </trkpt>
      <trkpt lat="42.94741" lon="0.22375">
        <ele>1013</ele>
        <time>2019-08-08T05:08:43.000Z</time>
      </trkpt>
      <trkpt lat="42.94752" lon="0.22385">
        <ele>1013</ele>
        <time>2019-08-08T05:08:44.000Z</time>
      </trkpt>
      <trkpt lat="42.94768" lon="0.22399">
        <ele>1013</ele>
        <time>2019-08-08T05:08:45.000Z</time>
      </trkpt>
      <trkpt lat="42.94774" lon="0.22403">
        <ele>1010</ele>
        <time>2019-08-08T05:08:46.000Z</time>
      </trkpt>
      <trkpt lat="42.94785" lon="0.22411">
        <ele>1010</ele>
        <time>2019-08-08T05:08:47.000Z</time>
      </trkpt>
      <trkpt lat="42.94797" lon="0.22419">
        <ele>1010</ele>
        <time>2019-08-08T05:08:48.000Z</time>
      </trkpt>
      <trkpt lat="42.94808" lon="0.22426">
        <ele>1010</ele>
        <time>2019-08-08T05:08:49.000Z</time>
      </trkpt>
      <trkpt lat="42.94819" lon="0.22433">
        <ele>1010</ele>
        <time>2019-08-08T05:08:50.000Z</time>
      </trkpt>
      <trkpt lat="42.94836" lon="0.22442">
        <ele>1010</ele>
        <time>2019-08-08T05:08:51.000Z</time>
      </trkpt>
      <trkpt lat="42.94841" lon="0.22444">
        <ele>1010</ele>
        <time>2019-08-08T05:08:52.000Z</time>
      </trkpt>
      <trkpt lat="42.94852" lon="0.22448">
        <ele>1008</ele>
        <time>2019-08-08T05:08:53.000Z</time>
      </trkpt>
      <trkpt lat="42.94864" lon="0.22451">
        <ele>1008</ele>
        <time>2019-08-08T05:08:54.000Z</time>
      </trkpt>
      <trkpt lat="42.94876" lon="0.22455">
        <ele>1007</ele>
        <time>2019-08-08T05:08:55.000Z</time>
      </trkpt>
      <trkpt lat="42.94888" lon="0.22462">
        <ele>1007</ele>
        <time>2019-08-08T05:08:56.000Z</time>
      </trkpt>
      <trkpt lat="42.94897" lon="0.22472">
        <ele>1007</ele>
        <time>2019-08-08T05:08:57.000Z</time>
      </trkpt>
      <trkpt lat="42.94904" lon="0.22485">
        <ele>1004</ele>
        <time>2019-08-08T05:08:58.000Z</time>
      </trkpt>
      <trkpt lat="42.9491" lon="0.22499">
        <ele>1004</ele>
        <time>2019-08-08T05:08:59.000Z</time>
      </trkpt>
      <trkpt lat="42.94918" lon="0.22513">
        <ele>1004</ele>
        <time>2019-08-08T05:09:00.000Z</time>
      </trkpt>
      <trkpt lat="42.94926" lon="0.22525">
        <ele>1002</ele>
        <time>2019-08-08T05:09:01.000Z</time>
      </trkpt>
      <trkpt lat="42.94935" lon="0.22535">
        <ele>1002</ele>
        <time>2019-08-08T05:09:02.000Z</time>
      </trkpt>
      <trkpt lat="42.94945" lon="0.22545">
        <ele>1002</ele>
        <time>2019-08-08T05:09:03.000Z</time>
      </trkpt>
      <trkpt lat="42.94956" lon="0.22553">
        <ele>999</ele>
        <time>2019-08-08T05:09:04.000Z</time>
      </trkpt>
      <trkpt lat="42.94968" lon="0.22558">
        <ele>999</ele>
        <time>2019-08-08T05:09:05.000Z</time>
      </trkpt>
      <trkpt lat="42.9498" lon="0.22561">
        <ele>999</ele>
        <time>2019-08-08T05:09:06.000Z</time>
      </trkpt>
      <trkpt lat="42.94993" lon="0.22564">
        <ele>995</ele>
        <time>2019-08-08T05:09:07.000Z</time>
      </trkpt>
      <trkpt lat="42.95006" lon="0.22569">
        <ele>995</ele>
        <time>2019-08-08T05:09:08.000Z</time>
      </trkpt>
      <trkpt lat="42.95018" lon="0.22575">
        <ele>995</ele>
        <time>2019-08-08T05:09:09.000Z</time>
      </trkpt>
      <trkpt lat="42.95031" lon="0.22582">
        <ele>991</ele>
        <time>2019-08-08T05:09:10.000Z</time>
      </trkpt>
      <trkpt lat="42.95045" lon="0.22588">
        <ele>991</ele>
        <time>2019-08-08T05:09:11.000Z</time>
      </trkpt>
      <trkpt lat="42.95058" lon="0.22596">
        <ele>991</ele>
        <time>2019-08-08T05:09:12.000Z</time>
      </trkpt>
      <trkpt lat="42.95072" lon="0.22603">
        <ele>987</ele>
        <time>2019-08-08T05:09:13.000Z</time>
      </trkpt>
      <trkpt lat="42.95085" lon="0.2261">
        <ele>987</ele>
        <time>2019-08-08T05:09:14.000Z</time>
      </trkpt>
      <trkpt lat="42.95099" lon="0.22616">
        <ele>987</ele>
        <time>2019-08-08T05:09:15.000Z</time>
      </trkpt>
      <trkpt lat="42.95112" lon="0.22623">
        <ele>985</ele>
        <time>2019-08-08T05:09:16.000Z</time>
      </trkpt>
      <trkpt lat="42.95125" lon="0.22632">
        <ele>985</ele>
        <time>2019-08-08T05:09:17.000Z</time>
      </trkpt>
      <trkpt lat="42.95137" lon="0.22641">
        <ele>984</ele>
        <time>2019-08-08T05:09:18.000Z</time>
      </trkpt>
      <trkpt lat="42.95148" lon="0.2265">
        <ele>984</ele>
        <time>2019-08-08T05:09:19.000Z</time>
      </trkpt>
      <trkpt lat="42.9516" lon="0.22658">
        <ele>984</ele>
        <time>2019-08-08T05:09:20.000Z</time>
      </trkpt>
      <trkpt lat="42.95171" lon="0.22667">
        <ele>984</ele>
        <time>2019-08-08T05:09:21.000Z</time>
      </trkpt>
      <trkpt lat="42.95182" lon="0.22675">
        <ele>984</ele>
        <time>2019-08-08T05:09:22.000Z</time>
      </trkpt>
      <trkpt lat="42.95193" lon="0.22684">
        <ele>984</ele>
        <time>2019-08-08T05:09:23.000Z</time>
      </trkpt>
      <trkpt lat="42.95203" lon="0.22693">
        <ele>984</ele>
        <time>2019-08-08T05:09:24.000Z</time>
      </trkpt>
      <trkpt lat="42.95214" lon="0.22702">
        <ele>983</ele>
        <time>2019-08-08T05:09:25.000Z</time>
      </trkpt>
      <trkpt lat="42.95224" lon="0.22711">
        <ele>983</ele>
        <time>2019-08-08T05:09:26.000Z</time>
      </trkpt>
      <trkpt lat="42.95234" lon="0.22719">
        <ele>983</ele>
        <time>2019-08-08T05:09:27.000Z</time>
      </trkpt>
      <trkpt lat="42.95244" lon="0.22725">
        <ele>982</ele>
        <time>2019-08-08T05:09:28.000Z</time>
      </trkpt>
      <trkpt lat="42.95255" lon="0.22731">
        <ele>982</ele>
        <time>2019-08-08T05:09:29.000Z</time>
      </trkpt>
      <trkpt lat="42.95266" lon="0.22736">
        <ele>982</ele>
        <time>2019-08-08T05:09:30.000Z</time>
      </trkpt>
      <trkpt lat="42.95277" lon="0.22741">
        <ele>982</ele>
        <time>2019-08-08T05:09:31.000Z</time>
      </trkpt>
      <trkpt lat="42.95288" lon="0.22746">
        <ele>982</ele>
        <time>2019-08-08T05:09:32.000Z</time>
      </trkpt>
      <trkpt lat="42.95298" lon="0.22752">
        <ele>981</ele>
        <time>2019-08-08T05:09:33.000Z</time>
      </trkpt>
      <trkpt lat="42.95309" lon="0.22757">
        <ele>981</ele>
        <time>2019-08-08T05:09:34.000Z</time>
      </trkpt>
      <trkpt lat="42.9532" lon="0.22762">
        <ele>981</ele>
        <time>2019-08-08T05:09:35.000Z</time>
      </trkpt>
      <trkpt lat="42.95331" lon="0.22767">
        <ele>979</ele>
        <time>2019-08-08T05:09:36.000Z</time>
      </trkpt>
      <trkpt lat="42.95341" lon="0.22773">
        <ele>979</ele>
        <time>2019-08-08T05:09:37.000Z</time>
      </trkpt>
      <trkpt lat="42.95352" lon="0.22778">
        <ele>979</ele>
        <time>2019-08-08T05:09:38.000Z</time>
      </trkpt>
      <trkpt lat="42.95363" lon="0.22782">
        <ele>979</ele>
        <time>2019-08-08T05:09:39.000Z</time>
      </trkpt>
      <trkpt lat="42.95373" lon="0.22786">
        <ele>979</ele>
        <time>2019-08-08T05:09:40.000Z</time>
      </trkpt>
      <trkpt lat="42.95384" lon="0.2279">
        <ele>977</ele>
        <time>2019-08-08T05:09:41.000Z</time>
      </trkpt>
      <trkpt lat="42.95395" lon="0.22793">
        <ele>977</ele>
        <time>2019-08-08T05:09:42.000Z</time>
      </trkpt>
      <trkpt lat="42.95406" lon="0.22794">
        <ele>975</ele>
        <time>2019-08-08T05:09:43.000Z</time>
      </trkpt>
      <trkpt lat="42.95418" lon="0.22795">
        <ele>975</ele>
        <time>2019-08-08T05:09:44.000Z</time>
      </trkpt>
      <trkpt lat="42.95429" lon="0.22795">
        <ele>975</ele>
        <time>2019-08-08T05:09:45.000Z</time>
      </trkpt>
      <trkpt lat="42.9544" lon="0.22795">
        <ele>974</ele>
        <time>2019-08-08T05:09:46.000Z</time>
      </trkpt>
      <trkpt lat="42.95452" lon="0.22795">
        <ele>974</ele>
        <time>2019-08-08T05:09:47.000Z</time>
      </trkpt>
      <trkpt lat="42.95469" lon="0.22796">
        <ele>974</ele>
        <time>2019-08-08T05:09:48.000Z</time>
      </trkpt>
      <trkpt lat="42.95474" lon="0.22796">
        <ele>973</ele>
        <time>2019-08-08T05:09:49.000Z</time>
      </trkpt>
      <trkpt lat="42.95485" lon="0.22796">
        <ele>973</ele>
        <time>2019-08-08T05:09:50.000Z</time>
      </trkpt>
      <trkpt lat="42.95496" lon="0.22796">
        <ele>972</ele>
        <time>2019-08-08T05:09:51.000Z</time>
      </trkpt>
      <trkpt lat="42.95507" lon="0.22797">
        <ele>972</ele>
        <time>2019-08-08T05:09:52.000Z</time>
      </trkpt>
      <trkpt lat="42.95518" lon="0.22797">
        <ele>972</ele>
        <time>2019-08-08T05:09:53.000Z</time>
      </trkpt>
      <trkpt lat="42.95528" lon="0.22796">
        <ele>972</ele>
        <time>2019-08-08T05:09:54.000Z</time>
      </trkpt>
      <trkpt lat="42.95538" lon="0.22795">
        <ele>971</ele>
        <time>2019-08-08T05:09:55.000Z</time>
      </trkpt>
      <trkpt lat="42.95547" lon="0.22794">
        <ele>971</ele>
        <time>2019-08-08T05:09:56.000Z</time>
      </trkpt>
      <trkpt lat="42.95557" lon="0.22793">
        <ele>970</ele>
        <time>2019-08-08T05:09:57.000Z</time>
      </trkpt>
      <trkpt lat="42.95567" lon="0.22792">
        <ele>970</ele>
        <time>2019-08-08T05:09:58.000Z</time>
      </trkpt>
      <trkpt lat="42.95576" lon="0.22791">
        <ele>970</ele>
        <time>2019-08-08T05:09:59.000Z</time>
      </trkpt>
      <trkpt lat="42.95586" lon="0.22791">
        <ele>968</ele>
        <time>2019-08-08T05:10:00.000Z</time>
      </trkpt>
      <trkpt lat="42.95597" lon="0.22791">
        <ele>968</ele>
        <time>2019-08-08T05:10:01.000Z</time>
      </trkpt>
      <trkpt lat="42.95608" lon="0.22792">
        <ele>966</ele>
        <time>2019-08-08T05:10:02.000Z</time>
      </trkpt>
      <trkpt lat="42.95618" lon="0.22795">
        <ele>966</ele>
        <time>2019-08-08T05:10:03.000Z</time>
      </trkpt>
      <trkpt lat="42.95629" lon="0.22799">
        <ele>966</ele>
        <time>2019-08-08T05:10:04.000Z</time>
      </trkpt>
      <trkpt lat="42.9564" lon="0.22803">
        <ele>964</ele>
        <time>2019-08-08T05:10:05.000Z</time>
      </trkpt>
      <trkpt lat="42.9565" lon="0.22807">
        <ele>964</ele>
        <time>2019-08-08T05:10:06.000Z</time>
      </trkpt>
      <trkpt lat="42.95664" lon="0.22812">
        <ele>964</ele>
        <time>2019-08-08T05:10:07.000Z</time>
      </trkpt>
      <trkpt lat="42.95667" lon="0.22813">
        <ele>963</ele>
        <time>2019-08-08T05:10:08.000Z</time>
      </trkpt>
      <trkpt lat="42.95681" lon="0.22818">
        <ele>963</ele>
        <time>2019-08-08T05:10:09.000Z</time>
      </trkpt>
      <trkpt lat="42.95689" lon="0.22822">
        <ele>960</ele>
        <time>2019-08-08T05:10:10.000Z</time>
      </trkpt>
      <trkpt lat="42.95706" lon="0.22828">
        <ele>960</ele>
        <time>2019-08-08T05:10:11.000Z</time>
      </trkpt>
      <trkpt lat="42.95717" lon="0.22833">
        <ele>959</ele>
        <time>2019-08-08T05:10:12.000Z</time>
      </trkpt>
      <trkpt lat="42.95729" lon="0.22837">
        <ele>959</ele>
        <time>2019-08-08T05:10:13.000Z</time>
      </trkpt>
      <trkpt lat="42.95741" lon="0.22843">
        <ele>957</ele>
        <time>2019-08-08T05:10:14.000Z</time>
      </trkpt>
      <trkpt lat="42.95752" lon="0.22849">
        <ele>957</ele>
        <time>2019-08-08T05:10:15.000Z</time>
      </trkpt>
      <trkpt lat="42.95764" lon="0.22855">
        <ele>957</ele>
        <time>2019-08-08T05:10:16.000Z</time>
      </trkpt>
      <trkpt lat="42.95775" lon="0.22861">
        <ele>956</ele>
        <time>2019-08-08T05:10:17.000Z</time>
      </trkpt>
      <trkpt lat="42.95787" lon="0.22866">
        <ele>956</ele>
        <time>2019-08-08T05:10:18.000Z</time>
      </trkpt>
      <trkpt lat="42.95798" lon="0.22868">
        <ele>956</ele>
        <time>2019-08-08T05:10:19.000Z</time>
      </trkpt>
      <trkpt lat="42.95809" lon="0.22869">
        <ele>956</ele>
        <time>2019-08-08T05:10:20.000Z</time>
      </trkpt>
      <trkpt lat="42.9582" lon="0.2287">
        <ele>956</ele>
        <time>2019-08-08T05:10:21.000Z</time>
      </trkpt>
      <trkpt lat="42.95831" lon="0.22871">
        <ele>956</ele>
        <time>2019-08-08T05:10:22.000Z</time>
      </trkpt>
      <trkpt lat="42.95841" lon="0.22873">
        <ele>955</ele>
        <time>2019-08-08T05:10:23.000Z</time>
      </trkpt>
      <trkpt lat="42.95852" lon="0.22875">
        <ele>955</ele>
        <time>2019-08-08T05:10:24.000Z</time>
      </trkpt>
      <trkpt lat="42.95862" lon="0.22879">
        <ele>955</ele>
        <time>2019-08-08T05:10:25.000Z</time>
      </trkpt>
      <trkpt lat="42.95871" lon="0.22884">
        <ele>955</ele>
        <time>2019-08-08T05:10:26.000Z</time>
      </trkpt>
      <trkpt lat="42.95881" lon="0.2289">
        <ele>955</ele>
        <time>2019-08-08T05:10:27.000Z</time>
      </trkpt>
      <trkpt lat="42.9589" lon="0.22896">
        <ele>955</ele>
        <time>2019-08-08T05:10:28.000Z</time>
      </trkpt>
      <trkpt lat="42.95899" lon="0.22903">
        <ele>954</ele>
        <time>2019-08-08T05:10:29.000Z</time>
      </trkpt>
      <trkpt lat="42.95907" lon="0.2291">
        <ele>954</ele>
        <time>2019-08-08T05:10:30.000Z</time>
      </trkpt>
      <trkpt lat="42.95916" lon="0.22917">
        <ele>954</ele>
        <time>2019-08-08T05:10:31.000Z</time>
      </trkpt>
      <trkpt lat="42.95924" lon="0.22924">
        <ele>954</ele>
        <time>2019-08-08T05:10:32.000Z</time>
      </trkpt>
      <trkpt lat="42.95932" lon="0.22931">
        <ele>954</ele>
        <time>2019-08-08T05:10:33.000Z</time>
      </trkpt>
      <trkpt lat="42.95939" lon="0.22938">
        <ele>954</ele>
        <time>2019-08-08T05:10:34.000Z</time>
      </trkpt>
      <trkpt lat="42.95947" lon="0.22945">
        <ele>954</ele>
        <time>2019-08-08T05:10:35.000Z</time>
      </trkpt>
      <trkpt lat="42.95955" lon="0.22951">
        <ele>954</ele>
        <time>2019-08-08T05:10:36.000Z</time>
      </trkpt>
      <trkpt lat="42.95962" lon="0.22958">
        <ele>953</ele>
        <time>2019-08-08T05:10:37.000Z</time>
      </trkpt>
      <trkpt lat="42.9597" lon="0.22965">
        <ele>953</ele>
        <time>2019-08-08T05:10:38.000Z</time>
      </trkpt>
      <trkpt lat="42.95978" lon="0.22972">
        <ele>952</ele>
        <time>2019-08-08T05:10:39.000Z</time>
      </trkpt>
      <trkpt lat="42.95986" lon="0.22979">
        <ele>952</ele>
        <time>2019-08-08T05:10:40.000Z</time>
      </trkpt>
      <trkpt lat="42.95994" lon="0.22985">
        <ele>952</ele>
        <time>2019-08-08T05:10:41.000Z</time>
      </trkpt>
      <trkpt lat="42.96003" lon="0.22992">
        <ele>952</ele>
        <time>2019-08-08T05:10:42.000Z</time>
      </trkpt>
      <trkpt lat="42.96011" lon="0.22998">
        <ele>952</ele>
        <time>2019-08-08T05:10:43.000Z</time>
      </trkpt>
      <trkpt lat="42.9602" lon="0.23004">
        <ele>951</ele>
        <time>2019-08-08T05:10:44.000Z</time>
      </trkpt>
      <trkpt lat="42.96034" lon="0.2301">
        <ele>951</ele>
        <time>2019-08-08T05:10:45.000Z</time>
      </trkpt>
      <trkpt lat="42.96038" lon="0.23012">
        <ele>951</ele>
        <time>2019-08-08T05:10:46.000Z</time>
      </trkpt>
      <trkpt lat="42.96048" lon="0.23015">
        <ele>949</ele>
        <time>2019-08-08T05:10:47.000Z</time>
      </trkpt>
      <trkpt lat="42.96058" lon="0.23017">
        <ele>949</ele>
        <time>2019-08-08T05:10:48.000Z</time>
      </trkpt>
      <trkpt lat="42.96068" lon="0.23018">
        <ele>947</ele>
        <time>2019-08-08T05:10:49.000Z</time>
      </trkpt>
      <trkpt lat="42.96079" lon="0.2302">
        <ele>947</ele>
        <time>2019-08-08T05:10:50.000Z</time>
      </trkpt>
      <trkpt lat="42.96089" lon="0.23022">
        <ele>947</ele>
        <time>2019-08-08T05:10:51.000Z</time>
      </trkpt>
      <trkpt lat="42.961" lon="0.23023">
        <ele>946</ele>
        <time>2019-08-08T05:10:52.000Z</time>
      </trkpt>
      <trkpt lat="42.96111" lon="0.23025">
        <ele>946</ele>
        <time>2019-08-08T05:10:53.000Z</time>
      </trkpt>
      <trkpt lat="42.96121" lon="0.23026">
        <ele>945</ele>
        <time>2019-08-08T05:10:54.000Z</time>
      </trkpt>
      <trkpt lat="42.96132" lon="0.23028">
        <ele>945</ele>
        <time>2019-08-08T05:10:55.000Z</time>
      </trkpt>
      <trkpt lat="42.96142" lon="0.23029">
        <ele>945</ele>
        <time>2019-08-08T05:10:56.000Z</time>
      </trkpt>
      <trkpt lat="42.96153" lon="0.2303">
        <ele>943</ele>
        <time>2019-08-08T05:10:57.000Z</time>
      </trkpt>
      <trkpt lat="42.96163" lon="0.2303">
        <ele>943</ele>
        <time>2019-08-08T05:10:58.000Z</time>
      </trkpt>
      <trkpt lat="42.96174" lon="0.2303">
        <ele>943</ele>
        <time>2019-08-08T05:10:59.000Z</time>
      </trkpt>
      <trkpt lat="42.96186" lon="0.23031">
        <ele>940</ele>
        <time>2019-08-08T05:11:00.000Z</time>
      </trkpt>
      <trkpt lat="42.96197" lon="0.23032">
        <ele>940</ele>
        <time>2019-08-08T05:11:01.000Z</time>
      </trkpt>
      <trkpt lat="42.96209" lon="0.23033">
        <ele>937</ele>
        <time>2019-08-08T05:11:02.000Z</time>
      </trkpt>
      <trkpt lat="42.96222" lon="0.23035">
        <ele>937</ele>
        <time>2019-08-08T05:11:03.000Z</time>
      </trkpt>
      <trkpt lat="42.96234" lon="0.23037">
        <ele>937</ele>
        <time>2019-08-08T05:11:04.000Z</time>
      </trkpt>
      <trkpt lat="42.96246" lon="0.23039">
        <ele>935</ele>
        <time>2019-08-08T05:11:05.000Z</time>
      </trkpt>
      <trkpt lat="42.96259" lon="0.23039">
        <ele>935</ele>
        <time>2019-08-08T05:11:06.000Z</time>
      </trkpt>
      <trkpt lat="42.96272" lon="0.23039">
        <ele>934</ele>
        <time>2019-08-08T05:11:07.000Z</time>
      </trkpt>
      <trkpt lat="42.96285" lon="0.23038">
        <ele>934</ele>
        <time>2019-08-08T05:11:08.000Z</time>
      </trkpt>
      <trkpt lat="42.96297" lon="0.23037">
        <ele>932</ele>
        <time>2019-08-08T05:11:09.000Z</time>
      </trkpt>
      <trkpt lat="42.9631" lon="0.23036">
        <ele>932</ele>
        <time>2019-08-08T05:11:10.000Z</time>
      </trkpt>
      <trkpt lat="42.96323" lon="0.23035">
        <ele>930</ele>
        <time>2019-08-08T05:11:11.000Z</time>
      </trkpt>
      <trkpt lat="42.96335" lon="0.23034">
        <ele>930</ele>
        <time>2019-08-08T05:11:12.000Z</time>
      </trkpt>
      <trkpt lat="42.96348" lon="0.23034">
        <ele>930</ele>
        <time>2019-08-08T05:11:13.000Z</time>
      </trkpt>
      <trkpt lat="42.9636" lon="0.23033">
        <ele>930</ele>
        <time>2019-08-08T05:11:14.000Z</time>
      </trkpt>
      <trkpt lat="42.96372" lon="0.23033">
        <ele>930</ele>
        <time>2019-08-08T05:11:15.000Z</time>
      </trkpt>
      <trkpt lat="42.96383" lon="0.23033">
        <ele>931</ele>
        <time>2019-08-08T05:11:16.000Z</time>
      </trkpt>
      <trkpt lat="42.96394" lon="0.23032">
        <ele>931</ele>
        <time>2019-08-08T05:11:17.000Z</time>
      </trkpt>
      <trkpt lat="42.96405" lon="0.23032">
        <ele>932</ele>
        <time>2019-08-08T05:11:18.000Z</time>
      </trkpt>
      <trkpt lat="42.96416" lon="0.23031">
        <ele>933</ele>
        <time>2019-08-08T05:11:19.000Z</time>
      </trkpt>
      <trkpt lat="42.96426" lon="0.23031">
        <ele>933</ele>
        <time>2019-08-08T05:11:20.000Z</time>
      </trkpt>
      <trkpt lat="42.96437" lon="0.23031">
        <ele>933</ele>
        <time>2019-08-08T05:11:21.000Z</time>
      </trkpt>
      <trkpt lat="42.96446" lon="0.23031">
        <ele>933</ele>
        <time>2019-08-08T05:11:22.000Z</time>
      </trkpt>
      <trkpt lat="42.96455" lon="0.23031">
        <ele>933</ele>
        <time>2019-08-08T05:11:23.000Z</time>
      </trkpt>
      <trkpt lat="42.96464" lon="0.23031">
        <ele>933</ele>
        <time>2019-08-08T05:11:24.000Z</time>
      </trkpt>
      <trkpt lat="42.96473" lon="0.23031">
        <ele>933</ele>
        <time>2019-08-08T05:11:25.000Z</time>
      </trkpt>
      <trkpt lat="42.96481" lon="0.23032">
        <ele>933</ele>
        <time>2019-08-08T05:11:26.000Z</time>
      </trkpt>
      <trkpt lat="42.96489" lon="0.23032">
        <ele>933</ele>
        <time>2019-08-08T05:11:27.000Z</time>
      </trkpt>
      <trkpt lat="42.96497" lon="0.23033">
        <ele>933</ele>
        <time>2019-08-08T05:11:28.000Z</time>
      </trkpt>
      <trkpt lat="42.96506" lon="0.23034">
        <ele>933</ele>
        <time>2019-08-08T05:11:29.000Z</time>
      </trkpt>
      <trkpt lat="42.96514" lon="0.23035">
        <ele>933</ele>
        <time>2019-08-08T05:11:30.000Z</time>
      </trkpt>
      <trkpt lat="42.96523" lon="0.23036">
        <ele>933</ele>
        <time>2019-08-08T05:11:31.000Z</time>
      </trkpt>
      <trkpt lat="42.96531" lon="0.23037">
        <ele>933</ele>
        <time>2019-08-08T05:11:32.000Z</time>
      </trkpt>
      <trkpt lat="42.9654" lon="0.23037">
        <ele>933</ele>
        <time>2019-08-08T05:11:33.000Z</time>
      </trkpt>
      <trkpt lat="42.96548" lon="0.23038">
        <ele>933</ele>
        <time>2019-08-08T05:11:34.000Z</time>
      </trkpt>
      <trkpt lat="42.96557" lon="0.23039">
        <ele>933</ele>
        <time>2019-08-08T05:11:35.000Z</time>
      </trkpt>
      <trkpt lat="42.96565" lon="0.2304">
        <ele>933</ele>
        <time>2019-08-08T05:11:36.000Z</time>
      </trkpt>
      <trkpt lat="42.96574" lon="0.23041">
        <ele>933</ele>
        <time>2019-08-08T05:11:37.000Z</time>
      </trkpt>
      <trkpt lat="42.96582" lon="0.23041">
        <ele>933</ele>
        <time>2019-08-08T05:11:38.000Z</time>
      </trkpt>
      <trkpt lat="42.9659" lon="0.23042">
        <ele>933</ele>
        <time>2019-08-08T05:11:39.000Z</time>
      </trkpt>
      <trkpt lat="42.96598" lon="0.23043">
        <ele>933</ele>
        <time>2019-08-08T05:11:40.000Z</time>
      </trkpt>
      <trkpt lat="42.96605" lon="0.23044">
        <ele>934</ele>
        <time>2019-08-08T05:11:41.000Z</time>
      </trkpt>
      <trkpt lat="42.96613" lon="0.23044">
        <ele>934</ele>
        <time>2019-08-08T05:11:42.000Z</time>
      </trkpt>
      <trkpt lat="42.9662" lon="0.23044">
        <ele>934</ele>
        <time>2019-08-08T05:11:43.000Z</time>
      </trkpt>
      <trkpt lat="42.96628" lon="0.23044">
        <ele>934</ele>
        <time>2019-08-08T05:11:44.000Z</time>
      </trkpt>
      <trkpt lat="42.96635" lon="0.23043">
        <ele>934</ele>
        <time>2019-08-08T05:11:45.000Z</time>
      </trkpt>
      <trkpt lat="42.96642" lon="0.23043">
        <ele>934</ele>
        <time>2019-08-08T05:11:46.000Z</time>
      </trkpt>
      <trkpt lat="42.96649" lon="0.23043">
        <ele>934</ele>
        <time>2019-08-08T05:11:47.000Z</time>
      </trkpt>
      <trkpt lat="42.96655" lon="0.23042">
        <ele>934</ele>
        <time>2019-08-08T05:11:48.000Z</time>
      </trkpt>
      <trkpt lat="42.96662" lon="0.23041">
        <ele>934</ele>
        <time>2019-08-08T05:11:49.000Z</time>
      </trkpt>
      <trkpt lat="42.96668" lon="0.2304">
        <ele>935</ele>
        <time>2019-08-08T05:11:50.000Z</time>
      </trkpt>
      <trkpt lat="42.96674" lon="0.23038">
        <ele>935</ele>
        <time>2019-08-08T05:11:51.000Z</time>
      </trkpt>
      <trkpt lat="42.9668" lon="0.23037">
        <ele>936</ele>
        <time>2019-08-08T05:11:52.000Z</time>
      </trkpt>
      <trkpt lat="42.96686" lon="0.23035">
        <ele>936</ele>
        <time>2019-08-08T05:11:53.000Z</time>
      </trkpt>
      <trkpt lat="42.96692" lon="0.23033">
        <ele>936</ele>
        <time>2019-08-08T05:11:54.000Z</time>
      </trkpt>
      <trkpt lat="42.96699" lon="0.2303">
        <ele>936</ele>
        <time>2019-08-08T05:11:55.000Z</time>
      </trkpt>
      <trkpt lat="42.96705" lon="0.23028">
        <ele>936</ele>
        <time>2019-08-08T05:11:56.000Z</time>
      </trkpt>
      <trkpt lat="42.96712" lon="0.23026">
        <ele>936</ele>
        <time>2019-08-08T05:11:57.000Z</time>
      </trkpt>
      <trkpt lat="42.96718" lon="0.23024">
        <ele>936</ele>
        <time>2019-08-08T05:11:58.000Z</time>
      </trkpt>
      <trkpt lat="42.96725" lon="0.23022">
        <ele>936</ele>
        <time>2019-08-08T05:11:59.000Z</time>
      </trkpt>
      <trkpt lat="42.96731" lon="0.23021">
        <ele>936</ele>
        <time>2019-08-08T05:12:00.000Z</time>
      </trkpt>
      <trkpt lat="42.96738" lon="0.23019">
        <ele>936</ele>
        <time>2019-08-08T05:12:01.000Z</time>
      </trkpt>
      <trkpt lat="42.96744" lon="0.23019">
        <ele>937</ele>
        <time>2019-08-08T05:12:02.000Z</time>
      </trkpt>
      <trkpt lat="42.9675" lon="0.23019">
        <ele>937</ele>
        <time>2019-08-08T05:12:03.000Z</time>
      </trkpt>
      <trkpt lat="42.96756" lon="0.23019">
        <ele>937</ele>
        <time>2019-08-08T05:12:04.000Z</time>
      </trkpt>
      <trkpt lat="42.96762" lon="0.23019">
        <ele>937</ele>
        <time>2019-08-08T05:12:05.000Z</time>
      </trkpt>
      <trkpt lat="42.96768" lon="0.23019">
        <ele>937</ele>
        <time>2019-08-08T05:12:06.000Z</time>
      </trkpt>
      <trkpt lat="42.96774" lon="0.2302">
        <ele>937</ele>
        <time>2019-08-08T05:12:07.000Z</time>
      </trkpt>
      <trkpt lat="42.9678" lon="0.23021">
        <ele>937</ele>
        <time>2019-08-08T05:12:08.000Z</time>
      </trkpt>
      <trkpt lat="42.96787" lon="0.23022">
        <ele>937</ele>
        <time>2019-08-08T05:12:09.000Z</time>
      </trkpt>
      <trkpt lat="42.96793" lon="0.23024">
        <ele>937</ele>
        <time>2019-08-08T05:12:10.000Z</time>
      </trkpt>
      <trkpt lat="42.968" lon="0.23025">
        <ele>937</ele>
        <time>2019-08-08T05:12:11.000Z</time>
      </trkpt>
      <trkpt lat="42.96807" lon="0.23025">
        <ele>936</ele>
        <time>2019-08-08T05:12:12.000Z</time>
      </trkpt>
      <trkpt lat="42.96814" lon="0.23027">
        <ele>936</ele>
        <time>2019-08-08T05:12:13.000Z</time>
      </trkpt>
      <trkpt lat="42.96821" lon="0.23028">
        <ele>936</ele>
        <time>2019-08-08T05:12:14.000Z</time>
      </trkpt>
      <trkpt lat="42.96829" lon="0.2303">
        <ele>936</ele>
        <time>2019-08-08T05:12:15.000Z</time>
      </trkpt>
      <trkpt lat="42.96836" lon="0.23032">
        <ele>934</ele>
        <time>2019-08-08T05:12:16.000Z</time>
      </trkpt>
      <trkpt lat="42.96844" lon="0.23033">
        <ele>934</ele>
        <time>2019-08-08T05:12:17.000Z</time>
      </trkpt>
      <trkpt lat="42.96853" lon="0.23035">
        <ele>934</ele>
        <time>2019-08-08T05:12:18.000Z</time>
      </trkpt>
      <trkpt lat="42.96861" lon="0.23038">
        <ele>934</ele>
        <time>2019-08-08T05:12:19.000Z</time>
      </trkpt>
      <trkpt lat="42.96869" lon="0.23041">
        <ele>933</ele>
        <time>2019-08-08T05:12:20.000Z</time>
      </trkpt>
      <trkpt lat="42.96881" lon="0.23048">
        <ele>933</ele>
        <time>2019-08-08T05:12:21.000Z</time>
      </trkpt>
      <trkpt lat="42.96885" lon="0.2305">
        <ele>933</ele>
        <time>2019-08-08T05:12:22.000Z</time>
      </trkpt>
      <trkpt lat="42.96885" lon="0.2305">
        <ele>933</ele>
        <time>2019-08-08T05:12:23.000Z</time>
      </trkpt>
      <trkpt lat="42.969" lon="0.23059">
        <ele>933</ele>
        <time>2019-08-08T05:12:24.000Z</time>
      </trkpt>
      <trkpt lat="42.96909" lon="0.23065">
        <ele>933</ele>
        <time>2019-08-08T05:12:25.000Z</time>
      </trkpt>
      <trkpt lat="42.96917" lon="0.2307">
        <ele>933</ele>
        <time>2019-08-08T05:12:26.000Z</time>
      </trkpt>
      <trkpt lat="42.96927" lon="0.23076">
        <ele>930</ele>
        <time>2019-08-08T05:12:27.000Z</time>
      </trkpt>
      <trkpt lat="42.96936" lon="0.23082">
        <ele>930</ele>
        <time>2019-08-08T05:12:28.000Z</time>
      </trkpt>
      <trkpt lat="42.96946" lon="0.23087">
        <ele>930</ele>
        <time>2019-08-08T05:12:29.000Z</time>
      </trkpt>
      <trkpt lat="42.96956" lon="0.23092">
        <ele>928</ele>
        <time>2019-08-08T05:12:30.000Z</time>
      </trkpt>
      <trkpt lat="42.96966" lon="0.23095">
        <ele>928</ele>
        <time>2019-08-08T05:12:31.000Z</time>
      </trkpt>
      <trkpt lat="42.96976" lon="0.23098">
        <ele>926</ele>
        <time>2019-08-08T05:12:32.000Z</time>
      </trkpt>
      <trkpt lat="42.96987" lon="0.23101">
        <ele>926</ele>
        <time>2019-08-08T05:12:33.000Z</time>
      </trkpt>
      <trkpt lat="42.96997" lon="0.23105">
        <ele>926</ele>
        <time>2019-08-08T05:12:34.000Z</time>
      </trkpt>
      <trkpt lat="42.97008" lon="0.23108">
        <ele>924</ele>
        <time>2019-08-08T05:12:35.000Z</time>
      </trkpt>
      <trkpt lat="42.97019" lon="0.23111">
        <ele>924</ele>
        <time>2019-08-08T05:12:36.000Z</time>
      </trkpt>
      <trkpt lat="42.97029" lon="0.23113">
        <ele>924</ele>
        <time>2019-08-08T05:12:37.000Z</time>
      </trkpt>
      <trkpt lat="42.9704" lon="0.23114">
        <ele>923</ele>
        <time>2019-08-08T05:12:38.000Z</time>
      </trkpt>
      <trkpt lat="42.97051" lon="0.23115">
        <ele>923</ele>
        <time>2019-08-08T05:12:39.000Z</time>
      </trkpt>
      <trkpt lat="42.97061" lon="0.23115">
        <ele>922</ele>
        <time>2019-08-08T05:12:40.000Z</time>
      </trkpt>
      <trkpt lat="42.97072" lon="0.23115">
        <ele>922</ele>
        <time>2019-08-08T05:12:41.000Z</time>
      </trkpt>
      <trkpt lat="42.97082" lon="0.23112">
        <ele>922</ele>
        <time>2019-08-08T05:12:42.000Z</time>
      </trkpt>
      <trkpt lat="42.97092" lon="0.23108">
        <ele>922</ele>
        <time>2019-08-08T05:12:43.000Z</time>
      </trkpt>
      <trkpt lat="42.97101" lon="0.23102">
        <ele>920</ele>
        <time>2019-08-08T05:12:44.000Z</time>
      </trkpt>
      <trkpt lat="42.97111" lon="0.23095">
        <ele>920</ele>
        <time>2019-08-08T05:12:45.000Z</time>
      </trkpt>
      <trkpt lat="42.97121" lon="0.23087">
        <ele>919</ele>
        <time>2019-08-08T05:12:46.000Z</time>
      </trkpt>
      <trkpt lat="42.97131" lon="0.2308">
        <ele>919</ele>
        <time>2019-08-08T05:12:47.000Z</time>
      </trkpt>
      <trkpt lat="42.97141" lon="0.23072">
        <ele>919</ele>
        <time>2019-08-08T05:12:48.000Z</time>
      </trkpt>
      <trkpt lat="42.97152" lon="0.23065">
        <ele>916</ele>
        <time>2019-08-08T05:12:49.000Z</time>
      </trkpt>
      <trkpt lat="42.97162" lon="0.23057">
        <ele>916</ele>
        <time>2019-08-08T05:12:50.000Z</time>
      </trkpt>
      <trkpt lat="42.97172" lon="0.2305">
        <ele>916</ele>
        <time>2019-08-08T05:12:51.000Z</time>
      </trkpt>
      <trkpt lat="42.97181" lon="0.23042">
        <ele>915</ele>
        <time>2019-08-08T05:12:52.000Z</time>
      </trkpt>
      <trkpt lat="42.97191" lon="0.23035">
        <ele>915</ele>
        <time>2019-08-08T05:12:53.000Z</time>
      </trkpt>
      <trkpt lat="42.97201" lon="0.23028">
        <ele>915</ele>
        <time>2019-08-08T05:12:54.000Z</time>
      </trkpt>
      <trkpt lat="42.97211" lon="0.23022">
        <ele>915</ele>
        <time>2019-08-08T05:12:55.000Z</time>
      </trkpt>
      <trkpt lat="42.97221" lon="0.23017">
        <ele>915</ele>
        <time>2019-08-08T05:12:56.000Z</time>
      </trkpt>
      <trkpt lat="42.97232" lon="0.23014">
        <ele>914</ele>
        <time>2019-08-08T05:12:57.000Z</time>
      </trkpt>
      <trkpt lat="42.97248" lon="0.23011">
        <ele>914</ele>
        <time>2019-08-08T05:12:58.000Z</time>
      </trkpt>
      <trkpt lat="42.97254" lon="0.23011">
        <ele>913</ele>
        <time>2019-08-08T05:12:59.000Z</time>
      </trkpt>
      <trkpt lat="42.97264" lon="0.2301">
        <ele>912</ele>
        <time>2019-08-08T05:13:00.000Z</time>
      </trkpt>
      <trkpt lat="42.97275" lon="0.23009">
        <ele>912</ele>
        <time>2019-08-08T05:13:01.000Z</time>
      </trkpt>
      <trkpt lat="42.97286" lon="0.23008">
        <ele>911</ele>
        <time>2019-08-08T05:13:02.000Z</time>
      </trkpt>
      <trkpt lat="42.97296" lon="0.23007">
        <ele>911</ele>
        <time>2019-08-08T05:13:03.000Z</time>
      </trkpt>
      <trkpt lat="42.97307" lon="0.23006">
        <ele>911</ele>
        <time>2019-08-08T05:13:04.000Z</time>
      </trkpt>
      <trkpt lat="42.97317" lon="0.23003">
        <ele>911</ele>
        <time>2019-08-08T05:13:05.000Z</time>
      </trkpt>
      <trkpt lat="42.97327" lon="0.23">
        <ele>911</ele>
        <time>2019-08-08T05:13:06.000Z</time>
      </trkpt>
      <trkpt lat="42.97337" lon="0.22995">
        <ele>911</ele>
        <time>2019-08-08T05:13:07.000Z</time>
      </trkpt>
      <trkpt lat="42.97347" lon="0.22989">
        <ele>911</ele>
        <time>2019-08-08T05:13:08.000Z</time>
      </trkpt>
      <trkpt lat="42.97356" lon="0.22983">
        <ele>910</ele>
        <time>2019-08-08T05:13:09.000Z</time>
      </trkpt>
      <trkpt lat="42.97365" lon="0.22975">
        <ele>910</ele>
        <time>2019-08-08T05:13:10.000Z</time>
      </trkpt>
      <trkpt lat="42.97375" lon="0.22968">
        <ele>910</ele>
        <time>2019-08-08T05:13:11.000Z</time>
      </trkpt>
      <trkpt lat="42.97385" lon="0.22961">
        <ele>907</ele>
        <time>2019-08-08T05:13:12.000Z</time>
      </trkpt>
      <trkpt lat="42.97395" lon="0.22953">
        <ele>907</ele>
        <time>2019-08-08T05:13:13.000Z</time>
      </trkpt>
      <trkpt lat="42.97405" lon="0.22945">
        <ele>907</ele>
        <time>2019-08-08T05:13:14.000Z</time>
      </trkpt>
      <trkpt lat="42.97414" lon="0.22937">
        <ele>904</ele>
        <time>2019-08-08T05:13:15.000Z</time>
      </trkpt>
      <trkpt lat="42.97424" lon="0.22929">
        <ele>904</ele>
        <time>2019-08-08T05:13:16.000Z</time>
      </trkpt>
      <trkpt lat="42.97435" lon="0.22921">
        <ele>902</ele>
        <time>2019-08-08T05:13:17.000Z</time>
      </trkpt>
      <trkpt lat="42.97445" lon="0.22913">
        <ele>902</ele>
        <time>2019-08-08T05:13:18.000Z</time>
      </trkpt>
      <trkpt lat="42.97456" lon="0.22904">
        <ele>902</ele>
        <time>2019-08-08T05:13:19.000Z</time>
      </trkpt>
      <trkpt lat="42.97466" lon="0.22896">
        <ele>900</ele>
        <time>2019-08-08T05:13:20.000Z</time>
      </trkpt>
      <trkpt lat="42.97476" lon="0.22888">
        <ele>900</ele>
        <time>2019-08-08T05:13:21.000Z</time>
      </trkpt>
      <trkpt lat="42.97486" lon="0.22881">
        <ele>899</ele>
        <time>2019-08-08T05:13:22.000Z</time>
      </trkpt>
      <trkpt lat="42.97496" lon="0.22873">
        <ele>899</ele>
        <time>2019-08-08T05:13:23.000Z</time>
      </trkpt>
      <trkpt lat="42.97506" lon="0.22866">
        <ele>899</ele>
        <time>2019-08-08T05:13:24.000Z</time>
      </trkpt>
      <trkpt lat="42.97516" lon="0.22859">
        <ele>898</ele>
        <time>2019-08-08T05:13:25.000Z</time>
      </trkpt>
      <trkpt lat="42.97526" lon="0.22851">
        <ele>898</ele>
        <time>2019-08-08T05:13:26.000Z</time>
      </trkpt>
      <trkpt lat="42.97535" lon="0.22845">
        <ele>898</ele>
        <time>2019-08-08T05:13:27.000Z</time>
      </trkpt>
      <trkpt lat="42.97545" lon="0.22839">
        <ele>898</ele>
        <time>2019-08-08T05:13:28.000Z</time>
      </trkpt>
      <trkpt lat="42.97555" lon="0.22834">
        <ele>898</ele>
        <time>2019-08-08T05:13:29.000Z</time>
      </trkpt>
      <trkpt lat="42.97564" lon="0.2283">
        <ele>898</ele>
        <time>2019-08-08T05:13:30.000Z</time>
      </trkpt>
      <trkpt lat="42.97573" lon="0.22827">
        <ele>898</ele>
        <time>2019-08-08T05:13:31.000Z</time>
      </trkpt>
      <trkpt lat="42.97582" lon="0.22824">
        <ele>898</ele>
        <time>2019-08-08T05:13:32.000Z</time>
      </trkpt>
      <trkpt lat="42.97591" lon="0.22822">
        <ele>899</ele>
        <time>2019-08-08T05:13:33.000Z</time>
      </trkpt>
      <trkpt lat="42.97599" lon="0.22821">
        <ele>899</ele>
        <time>2019-08-08T05:13:34.000Z</time>
      </trkpt>
      <trkpt lat="42.97607" lon="0.2282">
        <ele>899</ele>
        <time>2019-08-08T05:13:35.000Z</time>
      </trkpt>
      <trkpt lat="42.97619" lon="0.22821">
        <ele>899</ele>
        <time>2019-08-08T05:13:36.000Z</time>
      </trkpt>
      <trkpt lat="42.97623" lon="0.22821">
        <ele>899</ele>
        <time>2019-08-08T05:13:37.000Z</time>
      </trkpt>
      <trkpt lat="42.9763" lon="0.22822">
        <ele>899</ele>
        <time>2019-08-08T05:13:38.000Z</time>
      </trkpt>
      <trkpt lat="42.97638" lon="0.22824">
        <ele>899</ele>
        <time>2019-08-08T05:13:39.000Z</time>
      </trkpt>
      <trkpt lat="42.97646" lon="0.22826">
        <ele>899</ele>
        <time>2019-08-08T05:13:40.000Z</time>
      </trkpt>
      <trkpt lat="42.97655" lon="0.22828">
        <ele>899</ele>
        <time>2019-08-08T05:13:41.000Z</time>
      </trkpt>
      <trkpt lat="42.97664" lon="0.22831">
        <ele>898</ele>
        <time>2019-08-08T05:13:42.000Z</time>
      </trkpt>
      <trkpt lat="42.97673" lon="0.22834">
        <ele>896</ele>
        <time>2019-08-08T05:13:43.000Z</time>
      </trkpt>
      <trkpt lat="42.97683" lon="0.22835">
        <ele>896</ele>
        <time>2019-08-08T05:13:44.000Z</time>
      </trkpt>
      <trkpt lat="42.97693" lon="0.22836">
        <ele>894</ele>
        <time>2019-08-08T05:13:45.000Z</time>
      </trkpt>
      <trkpt lat="42.97704" lon="0.22836">
        <ele>894</ele>
        <time>2019-08-08T05:13:46.000Z</time>
      </trkpt>
      <trkpt lat="42.97716" lon="0.22836">
        <ele>893</ele>
        <time>2019-08-08T05:13:47.000Z</time>
      </trkpt>
      <trkpt lat="42.97728" lon="0.22837">
        <ele>893</ele>
        <time>2019-08-08T05:13:48.000Z</time>
      </trkpt>
      <trkpt lat="42.9774" lon="0.22836">
        <ele>888</ele>
        <time>2019-08-08T05:13:49.000Z</time>
      </trkpt>
      <trkpt lat="42.97753" lon="0.22835">
        <ele>888</ele>
        <time>2019-08-08T05:13:50.000Z</time>
      </trkpt>
      <trkpt lat="42.97765" lon="0.22832">
        <ele>886</ele>
        <time>2019-08-08T05:13:51.000Z</time>
      </trkpt>
      <trkpt lat="42.97778" lon="0.22828">
        <ele>886</ele>
        <time>2019-08-08T05:13:52.000Z</time>
      </trkpt>
      <trkpt lat="42.9779" lon="0.22823">
        <ele>884</ele>
        <time>2019-08-08T05:13:53.000Z</time>
      </trkpt>
      <trkpt lat="42.97803" lon="0.22818">
        <ele>884</ele>
        <time>2019-08-08T05:13:54.000Z</time>
      </trkpt>
      <trkpt lat="42.97816" lon="0.22815">
        <ele>882</ele>
        <time>2019-08-08T05:13:55.000Z</time>
      </trkpt>
      <trkpt lat="42.97829" lon="0.22813">
        <ele>882</ele>
        <time>2019-08-08T05:13:56.000Z</time>
      </trkpt>
      <trkpt lat="42.97842" lon="0.22812">
        <ele>882</ele>
        <time>2019-08-08T05:13:57.000Z</time>
      </trkpt>
      <trkpt lat="42.97855" lon="0.2281">
        <ele>880</ele>
        <time>2019-08-08T05:13:58.000Z</time>
      </trkpt>
      <trkpt lat="42.97868" lon="0.22807">
        <ele>880</ele>
        <time>2019-08-08T05:13:59.000Z</time>
      </trkpt>
      <trkpt lat="42.9788" lon="0.22803">
        <ele>878</ele>
        <time>2019-08-08T05:14:00.000Z</time>
      </trkpt>
      <trkpt lat="42.97892" lon="0.22798">
        <ele>878</ele>
        <time>2019-08-08T05:14:01.000Z</time>
      </trkpt>
      <trkpt lat="42.9791" lon="0.22793">
        <ele>878</ele>
        <time>2019-08-08T05:14:02.000Z</time>
      </trkpt>
      <trkpt lat="42.97916" lon="0.22792">
        <ele>877</ele>
        <time>2019-08-08T05:14:03.000Z</time>
      </trkpt>
      <trkpt lat="42.97928" lon="0.2279">
        <ele>877</ele>
        <time>2019-08-08T05:14:04.000Z</time>
      </trkpt>
      <trkpt lat="42.97939" lon="0.22789">
        <ele>877</ele>
        <time>2019-08-08T05:14:05.000Z</time>
      </trkpt>
      <trkpt lat="42.97949" lon="0.22786">
        <ele>877</ele>
        <time>2019-08-08T05:14:06.000Z</time>
      </trkpt>
      <trkpt lat="42.97959" lon="0.22781">
        <ele>877</ele>
        <time>2019-08-08T05:14:07.000Z</time>
      </trkpt>
      <trkpt lat="42.97969" lon="0.22775">
        <ele>877</ele>
        <time>2019-08-08T05:14:08.000Z</time>
      </trkpt>
      <trkpt lat="42.97978" lon="0.22769">
        <ele>877</ele>
        <time>2019-08-08T05:14:09.000Z</time>
      </trkpt>
      <trkpt lat="42.97987" lon="0.22764">
        <ele>877</ele>
        <time>2019-08-08T05:14:10.000Z</time>
      </trkpt>
      <trkpt lat="42.97996" lon="0.22758">
        <ele>877</ele>
        <time>2019-08-08T05:14:11.000Z</time>
      </trkpt>
      <trkpt lat="42.98005" lon="0.22754">
        <ele>876</ele>
        <time>2019-08-08T05:14:12.000Z</time>
      </trkpt>
      <trkpt lat="42.98014" lon="0.22751">
        <ele>876</ele>
        <time>2019-08-08T05:14:13.000Z</time>
      </trkpt>
      <trkpt lat="42.98023" lon="0.22747">
        <ele>876</ele>
        <time>2019-08-08T05:14:14.000Z</time>
      </trkpt>
      <trkpt lat="42.98032" lon="0.22744">
        <ele>876</ele>
        <time>2019-08-08T05:14:15.000Z</time>
      </trkpt>
      <trkpt lat="42.98041" lon="0.22739">
        <ele>875</ele>
        <time>2019-08-08T05:14:16.000Z</time>
      </trkpt>
      <trkpt lat="42.9805" lon="0.22734">
        <ele>875</ele>
        <time>2019-08-08T05:14:17.000Z</time>
      </trkpt>
      <trkpt lat="42.98059" lon="0.2273">
        <ele>875</ele>
        <time>2019-08-08T05:14:18.000Z</time>
      </trkpt>
      <trkpt lat="42.98068" lon="0.22726">
        <ele>875</ele>
        <time>2019-08-08T05:14:19.000Z</time>
      </trkpt>
      <trkpt lat="42.98082" lon="0.22721">
        <ele>875</ele>
        <time>2019-08-08T05:14:20.000Z</time>
      </trkpt>
      <trkpt lat="42.98086" lon="0.22719">
        <ele>875</ele>
        <time>2019-08-08T05:14:21.000Z</time>
      </trkpt>
      <trkpt lat="42.98096" lon="0.22717">
        <ele>875</ele>
        <time>2019-08-08T05:14:22.000Z</time>
      </trkpt>
      <trkpt lat="42.98106" lon="0.22714">
        <ele>874</ele>
        <time>2019-08-08T05:14:23.000Z</time>
      </trkpt>
      <trkpt lat="42.98115" lon="0.22712">
        <ele>874</ele>
        <time>2019-08-08T05:14:24.000Z</time>
      </trkpt>
      <trkpt lat="42.98125" lon="0.22711">
        <ele>874</ele>
        <time>2019-08-08T05:14:25.000Z</time>
      </trkpt>
      <trkpt lat="42.98135" lon="0.22709">
        <ele>874</ele>
        <time>2019-08-08T05:14:26.000Z</time>
      </trkpt>
      <trkpt lat="42.98146" lon="0.22708">
        <ele>872</ele>
        <time>2019-08-08T05:14:27.000Z</time>
      </trkpt>
      <trkpt lat="42.98156" lon="0.22707">
        <ele>872</ele>
        <time>2019-08-08T05:14:28.000Z</time>
      </trkpt>
      <trkpt lat="42.98166" lon="0.22707">
        <ele>870</ele>
        <time>2019-08-08T05:14:29.000Z</time>
      </trkpt>
      <trkpt lat="42.98176" lon="0.22707">
        <ele>870</ele>
        <time>2019-08-08T05:14:30.000Z</time>
      </trkpt>
      <trkpt lat="42.98186" lon="0.22706">
        <ele>870</ele>
        <time>2019-08-08T05:14:31.000Z</time>
      </trkpt>
      <trkpt lat="42.98196" lon="0.22705">
        <ele>870</ele>
        <time>2019-08-08T05:14:32.000Z</time>
      </trkpt>
      <trkpt lat="42.98206" lon="0.22704">
        <ele>870</ele>
        <time>2019-08-08T05:14:33.000Z</time>
      </trkpt>
      <trkpt lat="42.98215" lon="0.22701">
        <ele>870</ele>
        <time>2019-08-08T05:14:34.000Z</time>
      </trkpt>
      <trkpt lat="42.98225" lon="0.22698">
        <ele>870</ele>
        <time>2019-08-08T05:14:35.000Z</time>
      </trkpt>
      <trkpt lat="42.98234" lon="0.22695">
        <ele>869</ele>
        <time>2019-08-08T05:14:36.000Z</time>
      </trkpt>
      <trkpt lat="42.98243" lon="0.22693">
        <ele>869</ele>
        <time>2019-08-08T05:14:37.000Z</time>
      </trkpt>
      <trkpt lat="42.98253" lon="0.22692">
        <ele>869</ele>
        <time>2019-08-08T05:14:38.000Z</time>
      </trkpt>
      <trkpt lat="42.98262" lon="0.2269">
        <ele>868</ele>
        <time>2019-08-08T05:14:39.000Z</time>
      </trkpt>
      <trkpt lat="42.98272" lon="0.2269">
        <ele>868</ele>
        <time>2019-08-08T05:14:40.000Z</time>
      </trkpt>
      <trkpt lat="42.98281" lon="0.22689">
        <ele>868</ele>
        <time>2019-08-08T05:14:41.000Z</time>
      </trkpt>
      <trkpt lat="42.98291" lon="0.22687">
        <ele>868</ele>
        <time>2019-08-08T05:14:42.000Z</time>
      </trkpt>
      <trkpt lat="42.983" lon="0.22685">
        <ele>867</ele>
        <time>2019-08-08T05:14:43.000Z</time>
      </trkpt>
      <trkpt lat="42.9831" lon="0.22683">
        <ele>867</ele>
        <time>2019-08-08T05:14:44.000Z</time>
      </trkpt>
      <trkpt lat="42.9832" lon="0.22681">
        <ele>867</ele>
        <time>2019-08-08T05:14:45.000Z</time>
      </trkpt>
      <trkpt lat="42.9833" lon="0.22681">
        <ele>866</ele>
        <time>2019-08-08T05:14:46.000Z</time>
      </trkpt>
      <trkpt lat="42.9834" lon="0.22681">
        <ele>866</ele>
        <time>2019-08-08T05:14:47.000Z</time>
      </trkpt>
      <trkpt lat="42.98351" lon="0.22683">
        <ele>863</ele>
        <time>2019-08-08T05:14:48.000Z</time>
      </trkpt>
      <trkpt lat="42.98362" lon="0.22686">
        <ele>863</ele>
        <time>2019-08-08T05:14:49.000Z</time>
      </trkpt>
      <trkpt lat="42.98374" lon="0.22689">
        <ele>863</ele>
        <time>2019-08-08T05:14:50.000Z</time>
      </trkpt>
      <trkpt lat="42.98385" lon="0.22691">
        <ele>861</ele>
        <time>2019-08-08T05:14:51.000Z</time>
      </trkpt>
      <trkpt lat="42.98401" lon="0.22695">
        <ele>861</ele>
        <time>2019-08-08T05:14:52.000Z</time>
      </trkpt>
      <trkpt lat="42.98407" lon="0.22696">
        <ele>861</ele>
        <time>2019-08-08T05:14:53.000Z</time>
      </trkpt>
      <trkpt lat="42.98418" lon="0.22698">
        <ele>860</ele>
        <time>2019-08-08T05:14:54.000Z</time>
      </trkpt>
      <trkpt lat="42.98428" lon="0.22702">
        <ele>860</ele>
        <time>2019-08-08T05:14:55.000Z</time>
      </trkpt>
      <trkpt lat="42.98438" lon="0.22706">
        <ele>859</ele>
        <time>2019-08-08T05:14:56.000Z</time>
      </trkpt>
      <trkpt lat="42.98447" lon="0.22708">
        <ele>859</ele>
        <time>2019-08-08T05:14:57.000Z</time>
      </trkpt>
      <trkpt lat="42.98455" lon="0.22713">
        <ele>858</ele>
        <time>2019-08-08T05:14:58.000Z</time>
      </trkpt>
      <trkpt lat="42.9846" lon="0.22722">
        <ele>858</ele>
        <time>2019-08-08T05:14:59.000Z</time>
      </trkpt>
      <trkpt lat="42.98462" lon="0.22732">
        <ele>858</ele>
        <time>2019-08-08T05:15:00.000Z</time>
      </trkpt>
      <trkpt lat="42.98462" lon="0.22741">
        <ele>857</ele>
        <time>2019-08-08T05:15:01.000Z</time>
      </trkpt>
      <trkpt lat="42.98459" lon="0.22748">
        <ele>857</ele>
        <time>2019-08-08T05:15:02.000Z</time>
      </trkpt>
      <trkpt lat="42.98455" lon="0.22754">
        <ele>856</ele>
        <time>2019-08-08T05:15:03.000Z</time>
      </trkpt>
      <trkpt lat="42.9845" lon="0.22758">
        <ele>856</ele>
        <time>2019-08-08T05:15:04.000Z</time>
      </trkpt>
      <trkpt lat="42.98445" lon="0.22761">
        <ele>856</ele>
        <time>2019-08-08T05:15:05.000Z</time>
      </trkpt>
      <trkpt lat="42.98439" lon="0.22763">
        <ele>856</ele>
        <time>2019-08-08T05:15:06.000Z</time>
      </trkpt>
      <trkpt lat="42.98433" lon="0.22766">
        <ele>856</ele>
        <time>2019-08-08T05:15:07.000Z</time>
      </trkpt>
      <trkpt lat="42.98427" lon="0.22768">
        <ele>856</ele>
        <time>2019-08-08T05:15:08.000Z</time>
      </trkpt>
      <trkpt lat="42.9842" lon="0.2277">
        <ele>856</ele>
        <time>2019-08-08T05:15:09.000Z</time>
      </trkpt>
      <trkpt lat="42.98413" lon="0.22772">
        <ele>856</ele>
        <time>2019-08-08T05:15:10.000Z</time>
      </trkpt>
      <trkpt lat="42.98403" lon="0.22777">
        <ele>856</ele>
        <time>2019-08-08T05:15:11.000Z</time>
      </trkpt>
      <trkpt lat="42.984" lon="0.22778">
        <ele>856</ele>
        <time>2019-08-08T05:15:12.000Z</time>
      </trkpt>
      <trkpt lat="42.98393" lon="0.22781">
        <ele>856</ele>
        <time>2019-08-08T05:15:13.000Z</time>
      </trkpt>
      <trkpt lat="42.98386" lon="0.22784">
        <ele>855</ele>
        <time>2019-08-08T05:15:14.000Z</time>
      </trkpt>
      <trkpt lat="42.98378" lon="0.22788">
        <ele>855</ele>
        <time>2019-08-08T05:15:15.000Z</time>
      </trkpt>
      <trkpt lat="42.9837" lon="0.22791">
        <ele>854</ele>
        <time>2019-08-08T05:15:16.000Z</time>
      </trkpt>
      <trkpt lat="42.98363" lon="0.22795">
        <ele>854</ele>
        <time>2019-08-08T05:15:17.000Z</time>
      </trkpt>
      <trkpt lat="42.98355" lon="0.22797">
        <ele>853</ele>
        <time>2019-08-08T05:15:18.000Z</time>
      </trkpt>
      <trkpt lat="42.98347" lon="0.228">
        <ele>853</ele>
        <time>2019-08-08T05:15:19.000Z</time>
      </trkpt>
      <trkpt lat="42.98338" lon="0.22803">
        <ele>852</ele>
        <time>2019-08-08T05:15:20.000Z</time>
      </trkpt>
      <trkpt lat="42.9833" lon="0.22805">
        <ele>852</ele>
        <time>2019-08-08T05:15:21.000Z</time>
      </trkpt>
      <trkpt lat="42.98321" lon="0.22807">
        <ele>851</ele>
        <time>2019-08-08T05:15:22.000Z</time>
      </trkpt>
      <trkpt lat="42.98312" lon="0.22808">
        <ele>851</ele>
        <time>2019-08-08T05:15:23.000Z</time>
      </trkpt>
      <trkpt lat="42.98303" lon="0.22809">
        <ele>851</ele>
        <time>2019-08-08T05:15:24.000Z</time>
      </trkpt>
      <trkpt lat="42.98295" lon="0.2281">
        <ele>851</ele>
        <time>2019-08-08T05:15:25.000Z</time>
      </trkpt>
      <trkpt lat="42.98281" lon="0.22811">
        <ele>851</ele>
        <time>2019-08-08T05:15:26.000Z</time>
      </trkpt>
      <trkpt lat="42.98277" lon="0.22811">
        <ele>851</ele>
        <time>2019-08-08T05:15:27.000Z</time>
      </trkpt>
      <trkpt lat="42.98268" lon="0.22812">
        <ele>850</ele>
        <time>2019-08-08T05:15:28.000Z</time>
      </trkpt>
      <trkpt lat="42.98259" lon="0.22812">
        <ele>850</ele>
        <time>2019-08-08T05:15:29.000Z</time>
      </trkpt>
      <trkpt lat="42.9825" lon="0.22814">
        <ele>849</ele>
        <time>2019-08-08T05:15:30.000Z</time>
      </trkpt>
      <trkpt lat="42.98242" lon="0.22816">
        <ele>849</ele>
        <time>2019-08-08T05:15:31.000Z</time>
      </trkpt>
      <trkpt lat="42.98234" lon="0.2282">
        <ele>849</ele>
        <time>2019-08-08T05:15:32.000Z</time>
      </trkpt>
      <trkpt lat="42.98227" lon="0.22826">
        <ele>849</ele>
        <time>2019-08-08T05:15:33.000Z</time>
      </trkpt>
      <trkpt lat="42.98221" lon="0.22833">
        <ele>849</ele>
        <time>2019-08-08T05:15:34.000Z</time>
      </trkpt>
      <trkpt lat="42.98218" lon="0.22843">
        <ele>849</ele>
        <time>2019-08-08T05:15:35.000Z</time>
      </trkpt>
      <trkpt lat="42.98218" lon="0.22853">
        <ele>849</ele>
        <time>2019-08-08T05:15:36.000Z</time>
      </trkpt>
      <trkpt lat="42.98219" lon="0.22864">
        <ele>849</ele>
        <time>2019-08-08T05:15:37.000Z</time>
      </trkpt>
      <trkpt lat="42.9822" lon="0.22874">
        <ele>849</ele>
        <time>2019-08-08T05:15:38.000Z</time>
      </trkpt>
      <trkpt lat="42.98224" lon="0.22882">
        <ele>850</ele>
        <time>2019-08-08T05:15:39.000Z</time>
      </trkpt>
      <trkpt lat="42.98228" lon="0.22889">
        <ele>850</ele>
        <time>2019-08-08T05:15:40.000Z</time>
      </trkpt>
      <trkpt lat="42.98234" lon="0.22895">
        <ele>850</ele>
        <time>2019-08-08T05:15:41.000Z</time>
      </trkpt>
      <trkpt lat="42.98239" lon="0.22899">
        <ele>850</ele>
        <time>2019-08-08T05:15:42.000Z</time>
      </trkpt>
      <trkpt lat="42.98245" lon="0.22901">
        <ele>851</ele>
        <time>2019-08-08T05:15:43.000Z</time>
      </trkpt>
      <trkpt lat="42.98251" lon="0.22904">
        <ele>851</ele>
        <time>2019-08-08T05:15:44.000Z</time>
      </trkpt>
      <trkpt lat="42.98256" lon="0.22906">
        <ele>851</ele>
        <time>2019-08-08T05:15:45.000Z</time>
      </trkpt>
      <trkpt lat="42.98261" lon="0.22908">
        <ele>852</ele>
        <time>2019-08-08T05:15:46.000Z</time>
      </trkpt>
      <trkpt lat="42.98265" lon="0.22911">
        <ele>852</ele>
        <time>2019-08-08T05:15:47.000Z</time>
      </trkpt>
      <trkpt lat="42.98269" lon="0.22914">
        <ele>853</ele>
        <time>2019-08-08T05:15:48.000Z</time>
      </trkpt>
      <trkpt lat="42.98273" lon="0.22917">
        <ele>853</ele>
        <time>2019-08-08T05:15:49.000Z</time>
      </trkpt>
      <trkpt lat="42.98277" lon="0.22921">
        <ele>854</ele>
        <time>2019-08-08T05:15:50.000Z</time>
      </trkpt>
      <trkpt lat="42.9828" lon="0.22924">
        <ele>854</ele>
        <time>2019-08-08T05:15:51.000Z</time>
      </trkpt>
      <trkpt lat="42.98283" lon="0.22928">
        <ele>855</ele>
        <time>2019-08-08T05:15:52.000Z</time>
      </trkpt>
      <trkpt lat="42.98287" lon="0.22931">
        <ele>855</ele>
        <time>2019-08-08T05:15:53.000Z</time>
      </trkpt>
      <trkpt lat="42.9829" lon="0.22934">
        <ele>856</ele>
        <time>2019-08-08T05:15:54.000Z</time>
      </trkpt>
      <trkpt lat="42.98292" lon="0.22937">
        <ele>856</ele>
        <time>2019-08-08T05:15:55.000Z</time>
      </trkpt>
      <trkpt lat="42.98295" lon="0.2294">
        <ele>857</ele>
        <time>2019-08-08T05:15:56.000Z</time>
      </trkpt>
      <trkpt lat="42.98297" lon="0.22944">
        <ele>857</ele>
        <time>2019-08-08T05:15:57.000Z</time>
      </trkpt>
      <trkpt lat="42.983" lon="0.22947">
        <ele>857</ele>
        <time>2019-08-08T05:15:58.000Z</time>
      </trkpt>
      <trkpt lat="42.98302" lon="0.2295">
        <ele>857</ele>
        <time>2019-08-08T05:15:59.000Z</time>
      </trkpt>
      <trkpt lat="42.98305" lon="0.22953">
        <ele>857</ele>
        <time>2019-08-08T05:16:00.000Z</time>
      </trkpt>
      <trkpt lat="42.98307" lon="0.22955">
        <ele>857</ele>
        <time>2019-08-08T05:16:01.000Z</time>
      </trkpt>
      <trkpt lat="42.9831" lon="0.22958">
        <ele>857</ele>
        <time>2019-08-08T05:16:02.000Z</time>
      </trkpt>
      <trkpt lat="42.98312" lon="0.2296">
        <ele>857</ele>
        <time>2019-08-08T05:16:03.000Z</time>
      </trkpt>
      <trkpt lat="42.98315" lon="0.22963">
        <ele>858</ele>
        <time>2019-08-08T05:16:04.000Z</time>
      </trkpt>
      <trkpt lat="42.98316" lon="0.22966">
        <ele>858</ele>
        <time>2019-08-08T05:16:05.000Z</time>
      </trkpt>
      <trkpt lat="42.98318" lon="0.2297">
        <ele>858</ele>
        <time>2019-08-08T05:16:06.000Z</time>
      </trkpt>
      <trkpt lat="42.9832" lon="0.22974">
        <ele>858</ele>
        <time>2019-08-08T05:16:07.000Z</time>
      </trkpt>
      <trkpt lat="42.98321" lon="0.22978">
        <ele>860</ele>
        <time>2019-08-08T05:16:08.000Z</time>
      </trkpt>
      <trkpt lat="42.98323" lon="0.22982">
        <ele>860</ele>
        <time>2019-08-08T05:16:09.000Z</time>
      </trkpt>
      <trkpt lat="42.98324" lon="0.22986">
        <ele>860</ele>
        <time>2019-08-08T05:16:10.000Z</time>
      </trkpt>
      <trkpt lat="42.98325" lon="0.2299">
        <ele>860</ele>
        <time>2019-08-08T05:16:11.000Z</time>
      </trkpt>
      <trkpt lat="42.98327" lon="0.22994">
        <ele>860</ele>
        <time>2019-08-08T05:16:12.000Z</time>
      </trkpt>
      <trkpt lat="42.98328" lon="0.22999">
        <ele>861</ele>
        <time>2019-08-08T05:16:13.000Z</time>
      </trkpt>
      <trkpt lat="42.98328" lon="0.23003">
        <ele>861</ele>
        <time>2019-08-08T05:16:14.000Z</time>
      </trkpt>
      <trkpt lat="42.98329" lon="0.23008">
        <ele>862</ele>
        <time>2019-08-08T05:16:15.000Z</time>
      </trkpt>
      <trkpt lat="42.9833" lon="0.23012">
        <ele>862</ele>
        <time>2019-08-08T05:16:16.000Z</time>
      </trkpt>
      <trkpt lat="42.98331" lon="0.23017">
        <ele>862</ele>
        <time>2019-08-08T05:16:17.000Z</time>
      </trkpt>
      <trkpt lat="42.98331" lon="0.23022">
        <ele>862</ele>
        <time>2019-08-08T05:16:18.000Z</time>
      </trkpt>
      <trkpt lat="42.98332" lon="0.23026">
        <ele>862</ele>
        <time>2019-08-08T05:16:19.000Z</time>
      </trkpt>
      <trkpt lat="42.98333" lon="0.23031">
        <ele>862</ele>
        <time>2019-08-08T05:16:20.000Z</time>
      </trkpt>
      <trkpt lat="42.98333" lon="0.23035">
        <ele>862</ele>
        <time>2019-08-08T05:16:21.000Z</time>
      </trkpt>
      <trkpt lat="42.98334" lon="0.2304">
        <ele>863</ele>
        <time>2019-08-08T05:16:22.000Z</time>
      </trkpt>
      <trkpt lat="42.98335" lon="0.23045">
        <ele>863</ele>
        <time>2019-08-08T05:16:23.000Z</time>
      </trkpt>
      <trkpt lat="42.98336" lon="0.23049">
        <ele>863</ele>
        <time>2019-08-08T05:16:24.000Z</time>
      </trkpt>
      <trkpt lat="42.98337" lon="0.23054">
        <ele>863</ele>
        <time>2019-08-08T05:16:25.000Z</time>
      </trkpt>
      <trkpt lat="42.98338" lon="0.23059">
        <ele>863</ele>
        <time>2019-08-08T05:16:26.000Z</time>
      </trkpt>
      <trkpt lat="42.9834" lon="0.23064">
        <ele>864</ele>
        <time>2019-08-08T05:16:27.000Z</time>
      </trkpt>
      <trkpt lat="42.98341" lon="0.23069">
        <ele>864</ele>
        <time>2019-08-08T05:16:28.000Z</time>
      </trkpt>
      <trkpt lat="42.98343" lon="0.23074">
        <ele>864</ele>
        <time>2019-08-08T05:16:29.000Z</time>
      </trkpt>
      <trkpt lat="42.98344" lon="0.23079">
        <ele>864</ele>
        <time>2019-08-08T05:16:30.000Z</time>
      </trkpt>
      <trkpt lat="42.98345" lon="0.23084">
        <ele>864</ele>
        <time>2019-08-08T05:16:31.000Z</time>
      </trkpt>
      <trkpt lat="42.98347" lon="0.23089">
        <ele>864</ele>
        <time>2019-08-08T05:16:32.000Z</time>
      </trkpt>
      <trkpt lat="42.98348" lon="0.23094">
        <ele>864</ele>
        <time>2019-08-08T05:16:33.000Z</time>
      </trkpt>
      <trkpt lat="42.9835" lon="0.23099">
        <ele>864</ele>
        <time>2019-08-08T05:16:34.000Z</time>
      </trkpt>
      <trkpt lat="42.98351" lon="0.23104">
        <ele>865</ele>
        <time>2019-08-08T05:16:35.000Z</time>
      </trkpt>
      <trkpt lat="42.98352" lon="0.23109">
        <ele>865</ele>
        <time>2019-08-08T05:16:36.000Z</time>
      </trkpt>
      <trkpt lat="42.98353" lon="0.23114">
        <ele>866</ele>
        <time>2019-08-08T05:16:37.000Z</time>
      </trkpt>
      <trkpt lat="42.98355" lon="0.23119">
        <ele>866</ele>
        <time>2019-08-08T05:16:38.000Z</time>
      </trkpt>
      <trkpt lat="42.98356" lon="0.23123">
        <ele>866</ele>
        <time>2019-08-08T05:16:39.000Z</time>
      </trkpt>
      <trkpt lat="42.98357" lon="0.23128">
        <ele>866</ele>
        <time>2019-08-08T05:16:40.000Z</time>
      </trkpt>
      <trkpt lat="42.98359" lon="0.23132">
        <ele>866</ele>
        <time>2019-08-08T05:16:41.000Z</time>
      </trkpt>
      <trkpt lat="42.9836" lon="0.23137">
        <ele>866</ele>
        <time>2019-08-08T05:16:42.000Z</time>
      </trkpt>
      <trkpt lat="42.98361" lon="0.23142">
        <ele>866</ele>
        <time>2019-08-08T05:16:43.000Z</time>
      </trkpt>
      <trkpt lat="42.98363" lon="0.23146">
        <ele>866</ele>
        <time>2019-08-08T05:16:44.000Z</time>
      </trkpt>
      <trkpt lat="42.98364" lon="0.23151">
        <ele>866</ele>
        <time>2019-08-08T05:16:45.000Z</time>
      </trkpt>
      <trkpt lat="42.98366" lon="0.23155">
        <ele>866</ele>
        <time>2019-08-08T05:16:46.000Z</time>
      </trkpt>
      <trkpt lat="42.98367" lon="0.2316">
        <ele>866</ele>
        <time>2019-08-08T05:16:47.000Z</time>
      </trkpt>
      <trkpt lat="42.98369" lon="0.23164">
        <ele>866</ele>
        <time>2019-08-08T05:16:48.000Z</time>
      </trkpt>
      <trkpt lat="42.9837" lon="0.23169">
        <ele>866</ele>
        <time>2019-08-08T05:16:49.000Z</time>
      </trkpt>
      <trkpt lat="42.98372" lon="0.23173">
        <ele>867</ele>
        <time>2019-08-08T05:16:50.000Z</time>
      </trkpt>
      <trkpt lat="42.98373" lon="0.23178">
        <ele>867</ele>
        <time>2019-08-08T05:16:51.000Z</time>
      </trkpt>
      <trkpt lat="42.98375" lon="0.23182">
        <ele>867</ele>
        <time>2019-08-08T05:16:52.000Z</time>
      </trkpt>
      <trkpt lat="42.98376" lon="0.23187">
        <ele>867</ele>
        <time>2019-08-08T05:16:53.000Z</time>
      </trkpt>
      <trkpt lat="42.98377" lon="0.23192">
        <ele>867</ele>
        <time>2019-08-08T05:16:54.000Z</time>
      </trkpt>
      <trkpt lat="42.98378" lon="0.23196">
        <ele>868</ele>
        <time>2019-08-08T05:16:55.000Z</time>
      </trkpt>
      <trkpt lat="42.98379" lon="0.23201">
        <ele>868</ele>
        <time>2019-08-08T05:16:56.000Z</time>
      </trkpt>
      <trkpt lat="42.9838" lon="0.23206">
        <ele>868</ele>
        <time>2019-08-08T05:16:57.000Z</time>
      </trkpt>
      <trkpt lat="42.98381" lon="0.2321">
        <ele>868</ele>
        <time>2019-08-08T05:16:58.000Z</time>
      </trkpt>
      <trkpt lat="42.98382" lon="0.23215">
        <ele>869</ele>
        <time>2019-08-08T05:16:59.000Z</time>
      </trkpt>
      <trkpt lat="42.98382" lon="0.2322">
        <ele>869</ele>
        <time>2019-08-08T05:17:00.000Z</time>
      </trkpt>
      <trkpt lat="42.98382" lon="0.23225">
        <ele>870</ele>
        <time>2019-08-08T05:17:01.000Z</time>
      </trkpt>
      <trkpt lat="42.98382" lon="0.23229">
        <ele>870</ele>
        <time>2019-08-08T05:17:02.000Z</time>
      </trkpt>
      <trkpt lat="42.98381" lon="0.23234">
        <ele>870</ele>
        <time>2019-08-08T05:17:03.000Z</time>
      </trkpt>
      <trkpt lat="42.98381" lon="0.23241">
        <ele>870</ele>
        <time>2019-08-08T05:17:04.000Z</time>
      </trkpt>
      <trkpt lat="42.9838" lon="0.23243">
        <ele>870.4</ele>
        <time>2019-08-08T05:17:05.000Z</time>
      </trkpt>
      <trkpt lat="42.98379" lon="0.23247">
        <ele>871</ele>
        <time>2019-08-08T05:17:06.000Z</time>
      </trkpt>
      <trkpt lat="42.98378" lon="0.23251">
        <ele>871</ele>
        <time>2019-08-08T05:17:07.000Z</time>
      </trkpt>
      <trkpt lat="42.98377" lon="0.23255">
        <ele>872</ele>
        <time>2019-08-08T05:17:08.000Z</time>
      </trkpt>
      <trkpt lat="42.98375" lon="0.23259">
        <ele>872</ele>
        <time>2019-08-08T05:17:09.000Z</time>
      </trkpt>
      <trkpt lat="42.98374" lon="0.23263">
        <ele>873</ele>
        <time>2019-08-08T05:17:10.000Z</time>
      </trkpt>
      <trkpt lat="42.98372" lon="0.23267">
        <ele>873</ele>
        <time>2019-08-08T05:17:11.000Z</time>
      </trkpt>
      <trkpt lat="42.9837" lon="0.23272">
        <ele>873</ele>
        <time>2019-08-08T05:17:12.000Z</time>
      </trkpt>
      <trkpt lat="42.98368" lon="0.23276">
        <ele>873</ele>
        <time>2019-08-08T05:17:13.000Z</time>
      </trkpt>
      <trkpt lat="42.98366" lon="0.2328">
        <ele>874</ele>
        <time>2019-08-08T05:17:14.000Z</time>
      </trkpt>
      <trkpt lat="42.98364" lon="0.23284">
        <ele>874</ele>
        <time>2019-08-08T05:17:15.000Z</time>
      </trkpt>
      <trkpt lat="42.98363" lon="0.23288">
        <ele>874</ele>
        <time>2019-08-08T05:17:16.000Z</time>
      </trkpt>
      <trkpt lat="42.98361" lon="0.23292">
        <ele>874</ele>
        <time>2019-08-08T05:17:17.000Z</time>
      </trkpt>
      <trkpt lat="42.98359" lon="0.23296">
        <ele>874</ele>
        <time>2019-08-08T05:17:18.000Z</time>
      </trkpt>
      <trkpt lat="42.98358" lon="0.23301">
        <ele>874</ele>
        <time>2019-08-08T05:17:19.000Z</time>
      </trkpt>
      <trkpt lat="42.98356" lon="0.23305">
        <ele>875</ele>
        <time>2019-08-08T05:17:20.000Z</time>
      </trkpt>
      <trkpt lat="42.98354" lon="0.23309">
        <ele>875</ele>
        <time>2019-08-08T05:17:21.000Z</time>
      </trkpt>
      <trkpt lat="42.98352" lon="0.23313">
        <ele>875</ele>
        <time>2019-08-08T05:17:22.000Z</time>
      </trkpt>
      <trkpt lat="42.9835" lon="0.23317">
        <ele>875</ele>
        <time>2019-08-08T05:17:23.000Z</time>
      </trkpt>
      <trkpt lat="42.98348" lon="0.2332">
        <ele>875</ele>
        <time>2019-08-08T05:17:24.000Z</time>
      </trkpt>
      <trkpt lat="42.98346" lon="0.23324">
        <ele>875</ele>
        <time>2019-08-08T05:17:25.000Z</time>
      </trkpt>
      <trkpt lat="42.98344" lon="0.23328">
        <ele>875</ele>
        <time>2019-08-08T05:17:26.000Z</time>
      </trkpt>
      <trkpt lat="42.98341" lon="0.23331">
        <ele>876</ele>
        <time>2019-08-08T05:17:27.000Z</time>
      </trkpt>
      <trkpt lat="42.98338" lon="0.23335">
        <ele>876</ele>
        <time>2019-08-08T05:17:28.000Z</time>
      </trkpt>
      <trkpt lat="42.98336" lon="0.23338">
        <ele>876</ele>
        <time>2019-08-08T05:17:29.000Z</time>
      </trkpt>
      <trkpt lat="42.98333" lon="0.23341">
        <ele>876</ele>
        <time>2019-08-08T05:17:30.000Z</time>
      </trkpt>
      <trkpt lat="42.9833" lon="0.23344">
        <ele>877</ele>
        <time>2019-08-08T05:17:31.000Z</time>
      </trkpt>
      <trkpt lat="42.98327" lon="0.23346">
        <ele>877</ele>
        <time>2019-08-08T05:17:32.000Z</time>
      </trkpt>
      <trkpt lat="42.98324" lon="0.23349">
        <ele>877</ele>
        <time>2019-08-08T05:17:33.000Z</time>
      </trkpt>
      <trkpt lat="42.98321" lon="0.23352">
        <ele>877</ele>
        <time>2019-08-08T05:17:34.000Z</time>
      </trkpt>
      <trkpt lat="42.98318" lon="0.23355">
        <ele>877</ele>
        <time>2019-08-08T05:17:35.000Z</time>
      </trkpt>
      <trkpt lat="42.98315" lon="0.23357">
        <ele>877</ele>
        <time>2019-08-08T05:17:36.000Z</time>
      </trkpt>
      <trkpt lat="42.98311" lon="0.2336">
        <ele>878</ele>
        <time>2019-08-08T05:17:37.000Z</time>
      </trkpt>
      <trkpt lat="42.98308" lon="0.23362">
        <ele>878</ele>
        <time>2019-08-08T05:17:38.000Z</time>
      </trkpt>
      <trkpt lat="42.98305" lon="0.23364">
        <ele>878</ele>
        <time>2019-08-08T05:17:39.000Z</time>
      </trkpt>
      <trkpt lat="42.98302" lon="0.23366">
        <ele>878</ele>
        <time>2019-08-08T05:17:40.000Z</time>
      </trkpt>
      <trkpt lat="42.98299" lon="0.23368">
        <ele>878</ele>
        <time>2019-08-08T05:17:41.000Z</time>
      </trkpt>
      <trkpt lat="42.98295" lon="0.23371">
        <ele>878</ele>
        <time>2019-08-08T05:17:42.000Z</time>
      </trkpt>
      <trkpt lat="42.98292" lon="0.23373">
        <ele>879</ele>
        <time>2019-08-08T05:17:43.000Z</time>
      </trkpt>
      <trkpt lat="42.98289" lon="0.23376">
        <ele>879</ele>
        <time>2019-08-08T05:17:44.000Z</time>
      </trkpt>
      <trkpt lat="42.98286" lon="0.23379">
        <ele>879</ele>
        <time>2019-08-08T05:17:45.000Z</time>
      </trkpt>
      <trkpt lat="42.98283" lon="0.23383">
        <ele>879</ele>
        <time>2019-08-08T05:17:46.000Z</time>
      </trkpt>
      <trkpt lat="42.98281" lon="0.23387">
        <ele>879</ele>
        <time>2019-08-08T05:17:47.000Z</time>
      </trkpt>
      <trkpt lat="42.98278" lon="0.23391">
        <ele>879</ele>
        <time>2019-08-08T05:17:48.000Z</time>
      </trkpt>
      <trkpt lat="42.98275" lon="0.23396">
        <ele>879</ele>
        <time>2019-08-08T05:17:49.000Z</time>
      </trkpt>
      <trkpt lat="42.98273" lon="0.23401">
        <ele>879</ele>
        <time>2019-08-08T05:17:50.000Z</time>
      </trkpt>
      <trkpt lat="42.9827" lon="0.23406">
        <ele>879</ele>
        <time>2019-08-08T05:17:51.000Z</time>
      </trkpt>
      <trkpt lat="42.98267" lon="0.23411">
        <ele>879</ele>
        <time>2019-08-08T05:17:52.000Z</time>
      </trkpt>
      <trkpt lat="42.98265" lon="0.23417">
        <ele>879</ele>
        <time>2019-08-08T05:17:53.000Z</time>
      </trkpt>
      <trkpt lat="42.98263" lon="0.23423">
        <ele>879</ele>
        <time>2019-08-08T05:17:54.000Z</time>
      </trkpt>
      <trkpt lat="42.9826" lon="0.23429">
        <ele>879</ele>
        <time>2019-08-08T05:17:55.000Z</time>
      </trkpt>
      <trkpt lat="42.98258" lon="0.23435">
        <ele>879</ele>
        <time>2019-08-08T05:17:56.000Z</time>
      </trkpt>
      <trkpt lat="42.98256" lon="0.23441">
        <ele>880</ele>
        <time>2019-08-08T05:17:57.000Z</time>
      </trkpt>
      <trkpt lat="42.98254" lon="0.23447">
        <ele>880</ele>
        <time>2019-08-08T05:17:58.000Z</time>
      </trkpt>
      <trkpt lat="42.98252" lon="0.23453">
        <ele>880</ele>
        <time>2019-08-08T05:17:59.000Z</time>
      </trkpt>
      <trkpt lat="42.9825" lon="0.2346">
        <ele>880</ele>
        <time>2019-08-08T05:18:00.000Z</time>
      </trkpt>
      <trkpt lat="42.98249" lon="0.23466">
        <ele>880</ele>
        <time>2019-08-08T05:18:01.000Z</time>
      </trkpt>
      <trkpt lat="42.98247" lon="0.23472">
        <ele>880</ele>
        <time>2019-08-08T05:18:02.000Z</time>
      </trkpt>
      <trkpt lat="42.98246" lon="0.23478">
        <ele>880</ele>
        <time>2019-08-08T05:18:03.000Z</time>
      </trkpt>
      <trkpt lat="42.98244" lon="0.23485">
        <ele>880</ele>
        <time>2019-08-08T05:18:04.000Z</time>
      </trkpt>
      <trkpt lat="42.98243" lon="0.23491">
        <ele>881</ele>
        <time>2019-08-08T05:18:05.000Z</time>
      </trkpt>
      <trkpt lat="42.98242" lon="0.23497">
        <ele>881</ele>
        <time>2019-08-08T05:18:06.000Z</time>
      </trkpt>
      <trkpt lat="42.98241" lon="0.23503">
        <ele>881</ele>
        <time>2019-08-08T05:18:07.000Z</time>
      </trkpt>
      <trkpt lat="42.9824" lon="0.23509">
        <ele>881</ele>
        <time>2019-08-08T05:18:08.000Z</time>
      </trkpt>
      <trkpt lat="42.98239" lon="0.23514">
        <ele>881</ele>
        <time>2019-08-08T05:18:09.000Z</time>
      </trkpt>
      <trkpt lat="42.98238" lon="0.2352">
        <ele>881</ele>
        <time>2019-08-08T05:18:10.000Z</time>
      </trkpt>
      <trkpt lat="42.98237" lon="0.23526">
        <ele>881</ele>
        <time>2019-08-08T05:18:11.000Z</time>
      </trkpt>
      <trkpt lat="42.98236" lon="0.23531">
        <ele>882</ele>
        <time>2019-08-08T05:18:12.000Z</time>
      </trkpt>
      <trkpt lat="42.98235" lon="0.23536">
        <ele>882</ele>
        <time>2019-08-08T05:18:13.000Z</time>
      </trkpt>
      <trkpt lat="42.98234" lon="0.23541">
        <ele>883</ele>
        <time>2019-08-08T05:18:14.000Z</time>
      </trkpt>
      <trkpt lat="42.98233" lon="0.23546">
        <ele>883</ele>
        <time>2019-08-08T05:18:15.000Z</time>
      </trkpt>
      <trkpt lat="42.98232" lon="0.2355">
        <ele>883</ele>
        <time>2019-08-08T05:18:16.000Z</time>
      </trkpt>
      <trkpt lat="42.9823" lon="0.23554">
        <ele>883</ele>
        <time>2019-08-08T05:18:17.000Z</time>
      </trkpt>
      <trkpt lat="42.98229" lon="0.23558">
        <ele>884</ele>
        <time>2019-08-08T05:18:18.000Z</time>
      </trkpt>
      <trkpt lat="42.98227" lon="0.23563">
        <ele>884</ele>
        <time>2019-08-08T05:18:19.000Z</time>
      </trkpt>
      <trkpt lat="42.98226" lon="0.23567">
        <ele>884</ele>
        <time>2019-08-08T05:18:20.000Z</time>
      </trkpt>
      <trkpt lat="42.98223" lon="0.23573">
        <ele>884</ele>
        <time>2019-08-08T05:18:21.000Z</time>
      </trkpt>
      <trkpt lat="42.98222" lon="0.23575">
        <ele>884</ele>
        <time>2019-08-08T05:18:22.000Z</time>
      </trkpt>
      <trkpt lat="42.98221" lon="0.23579">
        <ele>884</ele>
        <time>2019-08-08T05:18:23.000Z</time>
      </trkpt>
      <trkpt lat="42.98219" lon="0.23583">
        <ele>884</ele>
        <time>2019-08-08T05:18:24.000Z</time>
      </trkpt>
      <trkpt lat="42.98217" lon="0.23587">
        <ele>885</ele>
        <time>2019-08-08T05:18:25.000Z</time>
      </trkpt>
      <trkpt lat="42.98215" lon="0.23591">
        <ele>885</ele>
        <time>2019-08-08T05:18:26.000Z</time>
      </trkpt>
      <trkpt lat="42.98213" lon="0.23595">
        <ele>886</ele>
        <time>2019-08-08T05:18:27.000Z</time>
      </trkpt>
      <trkpt lat="42.98211" lon="0.23598">
        <ele>886</ele>
        <time>2019-08-08T05:18:28.000Z</time>
      </trkpt>
      <trkpt lat="42.98209" lon="0.23602">
        <ele>887</ele>
        <time>2019-08-08T05:18:29.000Z</time>
      </trkpt>
      <trkpt lat="42.98207" lon="0.23605">
        <ele>887</ele>
        <time>2019-08-08T05:18:30.000Z</time>
      </trkpt>
      <trkpt lat="42.98205" lon="0.23608">
        <ele>887</ele>
        <time>2019-08-08T05:18:31.000Z</time>
      </trkpt>
      <trkpt lat="42.98203" lon="0.23612">
        <ele>887</ele>
        <time>2019-08-08T05:18:32.000Z</time>
      </trkpt>
      <trkpt lat="42.98201" lon="0.23615">
        <ele>888</ele>
        <time>2019-08-08T05:18:33.000Z</time>
      </trkpt>
      <trkpt lat="42.98199" lon="0.23618">
        <ele>888</ele>
        <time>2019-08-08T05:18:34.000Z</time>
      </trkpt>
      <trkpt lat="42.98197" lon="0.23622">
        <ele>888</ele>
        <time>2019-08-08T05:18:35.000Z</time>
      </trkpt>
      <trkpt lat="42.98195" lon="0.23625">
        <ele>888</ele>
        <time>2019-08-08T05:18:36.000Z</time>
      </trkpt>
      <trkpt lat="42.98193" lon="0.23628">
        <ele>888</ele>
        <time>2019-08-08T05:18:37.000Z</time>
      </trkpt>
      <trkpt lat="42.98191" lon="0.23631">
        <ele>888</ele>
        <time>2019-08-08T05:18:38.000Z</time>
      </trkpt>
      <trkpt lat="42.98189" lon="0.23634">
        <ele>889</ele>
        <time>2019-08-08T05:18:39.000Z</time>
      </trkpt>
      <trkpt lat="42.98187" lon="0.23637">
        <ele>889</ele>
        <time>2019-08-08T05:18:40.000Z</time>
      </trkpt>
      <trkpt lat="42.98185" lon="0.2364">
        <ele>890</ele>
        <time>2019-08-08T05:18:41.000Z</time>
      </trkpt>
      <trkpt lat="42.98183" lon="0.23643">
        <ele>890</ele>
        <time>2019-08-08T05:18:42.000Z</time>
      </trkpt>
      <trkpt lat="42.98181" lon="0.23645">
        <ele>890</ele>
        <time>2019-08-08T05:18:43.000Z</time>
      </trkpt>
      <trkpt lat="42.98179" lon="0.23648">
        <ele>890</ele>
        <time>2019-08-08T05:18:44.000Z</time>
      </trkpt>
      <trkpt lat="42.98176" lon="0.23651">
        <ele>891</ele>
        <time>2019-08-08T05:18:45.000Z</time>
      </trkpt>
      <trkpt lat="42.98174" lon="0.23654">
        <ele>891</ele>
        <time>2019-08-08T05:18:46.000Z</time>
      </trkpt>
      <trkpt lat="42.98171" lon="0.23656">
        <ele>892</ele>
        <time>2019-08-08T05:18:47.000Z</time>
      </trkpt>
      <trkpt lat="42.98169" lon="0.23659">
        <ele>892</ele>
        <time>2019-08-08T05:18:48.000Z</time>
      </trkpt>
      <trkpt lat="42.98167" lon="0.23662">
        <ele>892</ele>
        <time>2019-08-08T05:18:49.000Z</time>
      </trkpt>
      <trkpt lat="42.98164" lon="0.23665">
        <ele>892</ele>
        <time>2019-08-08T05:18:50.000Z</time>
      </trkpt>
      <trkpt lat="42.98162" lon="0.23667">
        <ele>892</ele>
        <time>2019-08-08T05:18:51.000Z</time>
      </trkpt>
      <trkpt lat="42.98159" lon="0.2367">
        <ele>892</ele>
        <time>2019-08-08T05:18:52.000Z</time>
      </trkpt>
      <trkpt lat="42.98156" lon="0.23673">
        <ele>892</ele>
        <time>2019-08-08T05:18:53.000Z</time>
      </trkpt>
      <trkpt lat="42.98154" lon="0.23676">
        <ele>892</ele>
        <time>2019-08-08T05:18:54.000Z</time>
      </trkpt>
      <trkpt lat="42.98151" lon="0.23679">
        <ele>892</ele>
        <time>2019-08-08T05:18:55.000Z</time>
      </trkpt>
      <trkpt lat="42.98149" lon="0.23681">
        <ele>892</ele>
        <time>2019-08-08T05:18:56.000Z</time>
      </trkpt>
      <trkpt lat="42.98146" lon="0.23684">
        <ele>892</ele>
        <time>2019-08-08T05:18:57.000Z</time>
      </trkpt>
      <trkpt lat="42.98144" lon="0.23687">
        <ele>892</ele>
        <time>2019-08-08T05:18:58.000Z</time>
      </trkpt>
      <trkpt lat="42.98142" lon="0.2369">
        <ele>892</ele>
        <time>2019-08-08T05:18:59.000Z</time>
      </trkpt>
      <trkpt lat="42.98139" lon="0.23694">
        <ele>892</ele>
        <time>2019-08-08T05:19:00.000Z</time>
      </trkpt>
      <trkpt lat="42.98136" lon="0.23697">
        <ele>892</ele>
        <time>2019-08-08T05:19:01.000Z</time>
      </trkpt>
      <trkpt lat="42.98134" lon="0.237">
        <ele>893</ele>
        <time>2019-08-08T05:19:02.000Z</time>
      </trkpt>
      <trkpt lat="42.98131" lon="0.23704">
        <ele>893</ele>
        <time>2019-08-08T05:19:03.000Z</time>
      </trkpt>
      <trkpt lat="42.98129" lon="0.23707">
        <ele>894</ele>
        <time>2019-08-08T05:19:04.000Z</time>
      </trkpt>
      <trkpt lat="42.98126" lon="0.23709">
        <ele>894</ele>
        <time>2019-08-08T05:19:05.000Z</time>
      </trkpt>
      <trkpt lat="42.98123" lon="0.23712">
        <ele>894</ele>
        <time>2019-08-08T05:19:06.000Z</time>
      </trkpt>
      <trkpt lat="42.9812" lon="0.23715">
        <ele>894</ele>
        <time>2019-08-08T05:19:07.000Z</time>
      </trkpt>
      <trkpt lat="42.98118" lon="0.23718">
        <ele>895</ele>
        <time>2019-08-08T05:19:08.000Z</time>
      </trkpt>
      <trkpt lat="42.98115" lon="0.23721">
        <ele>895</ele>
        <time>2019-08-08T05:19:09.000Z</time>
      </trkpt>
      <trkpt lat="42.98112" lon="0.23724">
        <ele>895</ele>
        <time>2019-08-08T05:19:10.000Z</time>
      </trkpt>
      <trkpt lat="42.9811" lon="0.23727">
        <ele>895</ele>
        <time>2019-08-08T05:19:11.000Z</time>
      </trkpt>
      <trkpt lat="42.98108" lon="0.2373">
        <ele>895</ele>
        <time>2019-08-08T05:19:12.000Z</time>
      </trkpt>
      <trkpt lat="42.98105" lon="0.23733">
        <ele>896</ele>
        <time>2019-08-08T05:19:13.000Z</time>
      </trkpt>
      <trkpt lat="42.98102" lon="0.23736">
        <ele>896</ele>
        <time>2019-08-08T05:19:14.000Z</time>
      </trkpt>
      <trkpt lat="42.981" lon="0.23739">
        <ele>897</ele>
        <time>2019-08-08T05:19:15.000Z</time>
      </trkpt>
      <trkpt lat="42.98097" lon="0.23742">
        <ele>897</ele>
        <time>2019-08-08T05:19:16.000Z</time>
      </trkpt>
      <trkpt lat="42.98095" lon="0.23745">
        <ele>897</ele>
        <time>2019-08-08T05:19:17.000Z</time>
      </trkpt>
      <trkpt lat="42.98092" lon="0.23748">
        <ele>897</ele>
        <time>2019-08-08T05:19:18.000Z</time>
      </trkpt>
      <trkpt lat="42.98089" lon="0.23751">
        <ele>897</ele>
        <time>2019-08-08T05:19:19.000Z</time>
      </trkpt>
      <trkpt lat="42.98087" lon="0.23754">
        <ele>898</ele>
        <time>2019-08-08T05:19:20.000Z</time>
      </trkpt>
      <trkpt lat="42.98084" lon="0.23757">
        <ele>898</ele>
        <time>2019-08-08T05:19:21.000Z</time>
      </trkpt>
      <trkpt lat="42.98081" lon="0.23761">
        <ele>898</ele>
        <time>2019-08-08T05:19:22.000Z</time>
      </trkpt>
      <trkpt lat="42.98079" lon="0.23764">
        <ele>898</ele>
        <time>2019-08-08T05:19:23.000Z</time>
      </trkpt>
      <trkpt lat="42.98076" lon="0.23767">
        <ele>898</ele>
        <time>2019-08-08T05:19:24.000Z</time>
      </trkpt>
      <trkpt lat="42.98073" lon="0.23771">
        <ele>897</ele>
        <time>2019-08-08T05:19:25.000Z</time>
      </trkpt>
      <trkpt lat="42.9807" lon="0.23774">
        <ele>897</ele>
        <time>2019-08-08T05:19:26.000Z</time>
      </trkpt>
      <trkpt lat="42.98067" lon="0.23777">
        <ele>898</ele>
        <time>2019-08-08T05:19:27.000Z</time>
      </trkpt>
      <trkpt lat="42.98064" lon="0.23781">
        <ele>898</ele>
        <time>2019-08-08T05:19:28.000Z</time>
      </trkpt>
      <trkpt lat="42.98061" lon="0.23785">
        <ele>898</ele>
        <time>2019-08-08T05:19:29.000Z</time>
      </trkpt>
      <trkpt lat="42.98058" lon="0.23789">
        <ele>898</ele>
        <time>2019-08-08T05:19:30.000Z</time>
      </trkpt>
      <trkpt lat="42.98055" lon="0.23792">
        <ele>899</ele>
        <time>2019-08-08T05:19:31.000Z</time>
      </trkpt>
      <trkpt lat="42.98051" lon="0.23796">
        <ele>899</ele>
        <time>2019-08-08T05:19:32.000Z</time>
      </trkpt>
      <trkpt lat="42.98048" lon="0.23799">
        <ele>899</ele>
        <time>2019-08-08T05:19:33.000Z</time>
      </trkpt>
      <trkpt lat="42.98045" lon="0.23803">
        <ele>899</ele>
        <time>2019-08-08T05:19:34.000Z</time>
      </trkpt>
      <trkpt lat="42.98042" lon="0.23807">
        <ele>899</ele>
        <time>2019-08-08T05:19:35.000Z</time>
      </trkpt>
      <trkpt lat="42.98039" lon="0.2381">
        <ele>899</ele>
        <time>2019-08-08T05:19:36.000Z</time>
      </trkpt>
      <trkpt lat="42.98036" lon="0.23814">
        <ele>899</ele>
        <time>2019-08-08T05:19:37.000Z</time>
      </trkpt>
      <trkpt lat="42.98033" lon="0.23817">
        <ele>899</ele>
        <time>2019-08-08T05:19:38.000Z</time>
      </trkpt>
      <trkpt lat="42.9803" lon="0.23821">
        <ele>899</ele>
        <time>2019-08-08T05:19:39.000Z</time>
      </trkpt>
      <trkpt lat="42.98027" lon="0.23825">
        <ele>899</ele>
        <time>2019-08-08T05:19:40.000Z</time>
      </trkpt>
      <trkpt lat="42.98023" lon="0.2383">
        <ele>899</ele>
        <time>2019-08-08T05:19:41.000Z</time>
      </trkpt>
      <trkpt lat="42.9802" lon="0.23834">
        <ele>899</ele>
        <time>2019-08-08T05:19:42.000Z</time>
      </trkpt>
      <trkpt lat="42.98017" lon="0.23837">
        <ele>899</ele>
        <time>2019-08-08T05:19:43.000Z</time>
      </trkpt>
      <trkpt lat="42.98014" lon="0.23841">
        <ele>899</ele>
        <time>2019-08-08T05:19:44.000Z</time>
      </trkpt>
      <trkpt lat="42.9801" lon="0.23845">
        <ele>900</ele>
        <time>2019-08-08T05:19:45.000Z</time>
      </trkpt>
      <trkpt lat="42.98007" lon="0.23849">
        <ele>900</ele>
        <time>2019-08-08T05:19:46.000Z</time>
      </trkpt>
      <trkpt lat="42.98004" lon="0.23853">
        <ele>900</ele>
        <time>2019-08-08T05:19:47.000Z</time>
      </trkpt>
      <trkpt lat="42.98001" lon="0.23857">
        <ele>900</ele>
        <time>2019-08-08T05:19:48.000Z</time>
      </trkpt>
      <trkpt lat="42.97999" lon="0.23861">
        <ele>900</ele>
        <time>2019-08-08T05:19:49.000Z</time>
      </trkpt>
      <trkpt lat="42.97996" lon="0.23865">
        <ele>900</ele>
        <time>2019-08-08T05:19:50.000Z</time>
      </trkpt>
      <trkpt lat="42.97994" lon="0.23869">
        <ele>900</ele>
        <time>2019-08-08T05:19:51.000Z</time>
      </trkpt>
      <trkpt lat="42.97991" lon="0.23873">
        <ele>900</ele>
        <time>2019-08-08T05:19:52.000Z</time>
      </trkpt>
      <trkpt lat="42.97988" lon="0.23877">
        <ele>900</ele>
        <time>2019-08-08T05:19:53.000Z</time>
      </trkpt>
      <trkpt lat="42.97986" lon="0.2388">
        <ele>900</ele>
        <time>2019-08-08T05:19:54.000Z</time>
      </trkpt>
      <trkpt lat="42.97984" lon="0.23885">
        <ele>900</ele>
        <time>2019-08-08T05:19:55.000Z</time>
      </trkpt>
      <trkpt lat="42.97981" lon="0.23889">
        <ele>900</ele>
        <time>2019-08-08T05:19:56.000Z</time>
      </trkpt>
      <trkpt lat="42.97978" lon="0.23893">
        <ele>900</ele>
        <time>2019-08-08T05:19:57.000Z</time>
      </trkpt>
      <trkpt lat="42.97975" lon="0.23897">
        <ele>900</ele>
        <time>2019-08-08T05:19:58.000Z</time>
      </trkpt>
      <trkpt lat="42.97972" lon="0.23902">
        <ele>900</ele>
        <time>2019-08-08T05:19:59.000Z</time>
      </trkpt>
      <trkpt lat="42.97969" lon="0.23907">
        <ele>900</ele>
        <time>2019-08-08T05:20:00.000Z</time>
      </trkpt>
      <trkpt lat="42.97966" lon="0.23912">
        <ele>900</ele>
        <time>2019-08-08T05:20:01.000Z</time>
      </trkpt>
      <trkpt lat="42.97963" lon="0.23916">
        <ele>900</ele>
        <time>2019-08-08T05:20:02.000Z</time>
      </trkpt>
      <trkpt lat="42.97959" lon="0.23921">
        <ele>900</ele>
        <time>2019-08-08T05:20:03.000Z</time>
      </trkpt>
      <trkpt lat="42.97956" lon="0.23927">
        <ele>900</ele>
        <time>2019-08-08T05:20:04.000Z</time>
      </trkpt>
      <trkpt lat="42.97952" lon="0.23932">
        <ele>900</ele>
        <time>2019-08-08T05:20:05.000Z</time>
      </trkpt>
      <trkpt lat="42.97949" lon="0.23937">
        <ele>900</ele>
        <time>2019-08-08T05:20:06.000Z</time>
      </trkpt>
      <trkpt lat="42.97945" lon="0.23942">
        <ele>900</ele>
        <time>2019-08-08T05:20:07.000Z</time>
      </trkpt>
      <trkpt lat="42.97941" lon="0.23947">
        <ele>900</ele>
        <time>2019-08-08T05:20:08.000Z</time>
      </trkpt>
      <trkpt lat="42.97937" lon="0.23951">
        <ele>900</ele>
        <time>2019-08-08T05:20:09.000Z</time>
      </trkpt>
      <trkpt lat="42.97932" lon="0.23955">
        <ele>900</ele>
        <time>2019-08-08T05:20:10.000Z</time>
      </trkpt>
      <trkpt lat="42.97926" lon="0.23958">
        <ele>900</ele>
        <time>2019-08-08T05:20:11.000Z</time>
      </trkpt>
      <trkpt lat="42.97921" lon="0.23961">
        <ele>900</ele>
        <time>2019-08-08T05:20:12.000Z</time>
      </trkpt>
      <trkpt lat="42.97915" lon="0.23964">
        <ele>900</ele>
        <time>2019-08-08T05:20:13.000Z</time>
      </trkpt>
      <trkpt lat="42.97909" lon="0.23967">
        <ele>900</ele>
        <time>2019-08-08T05:20:14.000Z</time>
      </trkpt>
      <trkpt lat="42.97903" lon="0.2397">
        <ele>900</ele>
        <time>2019-08-08T05:20:15.000Z</time>
      </trkpt>
      <trkpt lat="42.97897" lon="0.23974">
        <ele>899</ele>
        <time>2019-08-08T05:20:16.000Z</time>
      </trkpt>
      <trkpt lat="42.97891" lon="0.23978">
        <ele>899</ele>
        <time>2019-08-08T05:20:17.000Z</time>
      </trkpt>
      <trkpt lat="42.97885" lon="0.23982">
        <ele>899</ele>
        <time>2019-08-08T05:20:18.000Z</time>
      </trkpt>
      <trkpt lat="42.97879" lon="0.23986">
        <ele>898</ele>
        <time>2019-08-08T05:20:19.000Z</time>
      </trkpt>
      <trkpt lat="42.97872" lon="0.2399">
        <ele>898</ele>
        <time>2019-08-08T05:20:20.000Z</time>
      </trkpt>
      <trkpt lat="42.97865" lon="0.23994">
        <ele>897</ele>
        <time>2019-08-08T05:20:21.000Z</time>
      </trkpt>
      <trkpt lat="42.97859" lon="0.23999">
        <ele>897</ele>
        <time>2019-08-08T05:20:22.000Z</time>
      </trkpt>
      <trkpt lat="42.97853" lon="0.24005">
        <ele>897</ele>
        <time>2019-08-08T05:20:23.000Z</time>
      </trkpt>
      <trkpt lat="42.97845" lon="0.24018">
        <ele>896.4</ele>
        <time>2019-08-08T05:20:25.000Z</time>
      </trkpt>
      <trkpt lat="42.9784" lon="0.24028">
        <ele>896</ele>
        <time>2019-08-08T05:20:26.000Z</time>
      </trkpt>
      <trkpt lat="42.97833" lon="0.24043">
        <ele>896</ele>
        <time>2019-08-08T05:20:27.000Z</time>
      </trkpt>
      <trkpt lat="42.97831" lon="0.24048">
        <ele>896</ele>
        <time>2019-08-08T05:20:28.000Z</time>
      </trkpt>
      <trkpt lat="42.97828" lon="0.24059">
        <ele>896</ele>
        <time>2019-08-08T05:20:29.000Z</time>
      </trkpt>
      <trkpt lat="42.97824" lon="0.2407">
        <ele>896</ele>
        <time>2019-08-08T05:20:30.000Z</time>
      </trkpt>
      <trkpt lat="42.9782" lon="0.2408">
        <ele>896</ele>
        <time>2019-08-08T05:20:31.000Z</time>
      </trkpt>
      <trkpt lat="42.97817" lon="0.2409">
        <ele>896</ele>
        <time>2019-08-08T05:20:32.000Z</time>
      </trkpt>
      <trkpt lat="42.97814" lon="0.241">
        <ele>896</ele>
        <time>2019-08-08T05:20:33.000Z</time>
      </trkpt>
      <trkpt lat="42.9781" lon="0.2411">
        <ele>896</ele>
        <time>2019-08-08T05:20:34.000Z</time>
      </trkpt>
      <trkpt lat="42.97807" lon="0.24119">
        <ele>895</ele>
        <time>2019-08-08T05:20:35.000Z</time>
      </trkpt>
      <trkpt lat="42.97803" lon="0.24128">
        <ele>895</ele>
        <time>2019-08-08T05:20:36.000Z</time>
      </trkpt>
      <trkpt lat="42.978" lon="0.24136">
        <ele>895</ele>
        <time>2019-08-08T05:20:37.000Z</time>
      </trkpt>
      <trkpt lat="42.97796" lon="0.24143">
        <ele>895</ele>
        <time>2019-08-08T05:20:38.000Z</time>
      </trkpt>
      <trkpt lat="42.97793" lon="0.2415">
        <ele>895</ele>
        <time>2019-08-08T05:20:39.000Z</time>
      </trkpt>
      <trkpt lat="42.9779" lon="0.24158">
        <ele>895</ele>
        <time>2019-08-08T05:20:40.000Z</time>
      </trkpt>
      <trkpt lat="42.97786" lon="0.24166">
        <ele>895</ele>
        <time>2019-08-08T05:20:41.000Z</time>
      </trkpt>
      <trkpt lat="42.97782" lon="0.24174">
        <ele>895</ele>
        <time>2019-08-08T05:20:42.000Z</time>
      </trkpt>
      <trkpt lat="42.97778" lon="0.24183">
        <ele>894</ele>
        <time>2019-08-08T05:20:43.000Z</time>
      </trkpt>
      <trkpt lat="42.97773" lon="0.24194">
        <ele>894</ele>
        <time>2019-08-08T05:20:44.000Z</time>
      </trkpt>
      <trkpt lat="42.97769" lon="0.24202">
        <ele>894</ele>
        <time>2019-08-08T05:20:45.000Z</time>
      </trkpt>
      <trkpt lat="42.97765" lon="0.24211">
        <ele>894</ele>
        <time>2019-08-08T05:20:46.000Z</time>
      </trkpt>
      <trkpt lat="42.9776" lon="0.24219">
        <ele>894</ele>
        <time>2019-08-08T05:20:47.000Z</time>
      </trkpt>
      <trkpt lat="42.97754" lon="0.24228">
        <ele>894</ele>
        <time>2019-08-08T05:20:48.000Z</time>
      </trkpt>
      <trkpt lat="42.97747" lon="0.24234">
        <ele>894</ele>
        <time>2019-08-08T05:20:49.000Z</time>
      </trkpt>
      <trkpt lat="42.97741" lon="0.2424">
        <ele>894</ele>
        <time>2019-08-08T05:20:50.000Z</time>
      </trkpt>
      <trkpt lat="42.97734" lon="0.24245">
        <ele>894</ele>
        <time>2019-08-08T05:20:51.000Z</time>
      </trkpt>
      <trkpt lat="42.97727" lon="0.24248">
        <ele>894</ele>
        <time>2019-08-08T05:20:52.000Z</time>
      </trkpt>
      <trkpt lat="42.9772" lon="0.24252">
        <ele>894</ele>
        <time>2019-08-08T05:20:53.000Z</time>
      </trkpt>
      <trkpt lat="42.97713" lon="0.24255">
        <ele>895</ele>
        <time>2019-08-08T05:20:54.000Z</time>
      </trkpt>
      <trkpt lat="42.97706" lon="0.24257">
        <ele>895</ele>
        <time>2019-08-08T05:20:55.000Z</time>
      </trkpt>
      <trkpt lat="42.977" lon="0.2426">
        <ele>895</ele>
        <time>2019-08-08T05:20:56.000Z</time>
      </trkpt>
      <trkpt lat="42.97694" lon="0.24261">
        <ele>896</ele>
        <time>2019-08-08T05:20:57.000Z</time>
      </trkpt>
      <trkpt lat="42.97688" lon="0.24263">
        <ele>896</ele>
        <time>2019-08-08T05:20:58.000Z</time>
      </trkpt>
      <trkpt lat="42.97683" lon="0.24265">
        <ele>896</ele>
        <time>2019-08-08T05:20:59.000Z</time>
      </trkpt>
      <trkpt lat="42.97678" lon="0.24266">
        <ele>897</ele>
        <time>2019-08-08T05:21:00.000Z</time>
      </trkpt>
      <trkpt lat="42.97673" lon="0.24268">
        <ele>897</ele>
        <time>2019-08-08T05:21:01.000Z</time>
      </trkpt>
      <trkpt lat="42.97669" lon="0.24269">
        <ele>897</ele>
        <time>2019-08-08T05:21:02.000Z</time>
      </trkpt>
      <trkpt lat="42.97664" lon="0.2427">
        <ele>897</ele>
        <time>2019-08-08T05:21:03.000Z</time>
      </trkpt>
      <trkpt lat="42.9766" lon="0.24271">
        <ele>898</ele>
        <time>2019-08-08T05:21:04.000Z</time>
      </trkpt>
      <trkpt lat="42.97656" lon="0.24272">
        <ele>898</ele>
        <time>2019-08-08T05:21:05.000Z</time>
      </trkpt>
      <trkpt lat="42.97652" lon="0.24274">
        <ele>899</ele>
        <time>2019-08-08T05:21:06.000Z</time>
      </trkpt>
      <trkpt lat="42.97648" lon="0.24275">
        <ele>899</ele>
        <time>2019-08-08T05:21:07.000Z</time>
      </trkpt>
      <trkpt lat="42.97644" lon="0.24275">
        <ele>900</ele>
        <time>2019-08-08T05:21:08.000Z</time>
      </trkpt>
      <trkpt lat="42.9764" lon="0.24276">
        <ele>900</ele>
        <time>2019-08-08T05:21:09.000Z</time>
      </trkpt>
      <trkpt lat="42.97636" lon="0.24277">
        <ele>900</ele>
        <time>2019-08-08T05:21:10.000Z</time>
      </trkpt>
      <trkpt lat="42.97633" lon="0.24277">
        <ele>900</ele>
        <time>2019-08-08T05:21:11.000Z</time>
      </trkpt>
      <trkpt lat="42.97629" lon="0.24277">
        <ele>900</ele>
        <time>2019-08-08T05:21:12.000Z</time>
      </trkpt>
      <trkpt lat="42.97625" lon="0.24278">
        <ele>900</ele>
        <time>2019-08-08T05:21:13.000Z</time>
      </trkpt>
      <trkpt lat="42.97622" lon="0.24278">
        <ele>900</ele>
        <time>2019-08-08T05:21:14.000Z</time>
      </trkpt>
      <trkpt lat="42.97618" lon="0.24279">
        <ele>901</ele>
        <time>2019-08-08T05:21:15.000Z</time>
      </trkpt>
      <trkpt lat="42.97614" lon="0.2428">
        <ele>901</ele>
        <time>2019-08-08T05:21:16.000Z</time>
      </trkpt>
      <trkpt lat="42.9761" lon="0.24281">
        <ele>901</ele>
        <time>2019-08-08T05:21:17.000Z</time>
      </trkpt>
      <trkpt lat="42.97606" lon="0.24282">
        <ele>901</ele>
        <time>2019-08-08T05:21:18.000Z</time>
      </trkpt>
      <trkpt lat="42.97602" lon="0.24282">
        <ele>901</ele>
        <time>2019-08-08T05:21:19.000Z</time>
      </trkpt>
      <trkpt lat="42.97598" lon="0.24283">
        <ele>903</ele>
        <time>2019-08-08T05:21:20.000Z</time>
      </trkpt>
      <trkpt lat="42.97593" lon="0.24284">
        <ele>903</ele>
        <time>2019-08-08T05:21:21.000Z</time>
      </trkpt>
      <trkpt lat="42.97588" lon="0.24286">
        <ele>903</ele>
        <time>2019-08-08T05:21:22.000Z</time>
      </trkpt>
      <trkpt lat="42.97584" lon="0.24287">
        <ele>903</ele>
        <time>2019-08-08T05:21:23.000Z</time>
      </trkpt>
      <trkpt lat="42.9758" lon="0.24288">
        <ele>903</ele>
        <time>2019-08-08T05:21:24.000Z</time>
      </trkpt>
      <trkpt lat="42.97575" lon="0.24289">
        <ele>903</ele>
        <time>2019-08-08T05:21:25.000Z</time>
      </trkpt>
      <trkpt lat="42.97571" lon="0.2429">
        <ele>904</ele>
        <time>2019-08-08T05:21:26.000Z</time>
      </trkpt>
      <trkpt lat="42.97567" lon="0.24291">
        <ele>904</ele>
        <time>2019-08-08T05:21:27.000Z</time>
      </trkpt>
      <trkpt lat="42.97563" lon="0.24293">
        <ele>904</ele>
        <time>2019-08-08T05:21:28.000Z</time>
      </trkpt>
      <trkpt lat="42.97559" lon="0.24295">
        <ele>904</ele>
        <time>2019-08-08T05:21:29.000Z</time>
      </trkpt>
      <trkpt lat="42.97554" lon="0.24297">
        <ele>904</ele>
        <time>2019-08-08T05:21:30.000Z</time>
      </trkpt>
      <trkpt lat="42.97548" lon="0.24301">
        <ele>904</ele>
        <time>2019-08-08T05:21:31.000Z</time>
      </trkpt>
      <trkpt lat="42.97545" lon="0.24302">
        <ele>904</ele>
        <time>2019-08-08T05:21:32.000Z</time>
      </trkpt>
      <trkpt lat="42.97541" lon="0.24304">
        <ele>904</ele>
        <time>2019-08-08T05:21:33.000Z</time>
      </trkpt>
      <trkpt lat="42.97536" lon="0.24307">
        <ele>904</ele>
        <time>2019-08-08T05:21:34.000Z</time>
      </trkpt>
      <trkpt lat="42.97532" lon="0.24309">
        <ele>904</ele>
        <time>2019-08-08T05:21:35.000Z</time>
      </trkpt>
      <trkpt lat="42.97527" lon="0.2431">
        <ele>904</ele>
        <time>2019-08-08T05:21:36.000Z</time>
      </trkpt>
      <trkpt lat="42.97523" lon="0.24312">
        <ele>905</ele>
        <time>2019-08-08T05:21:37.000Z</time>
      </trkpt>
      <trkpt lat="42.97518" lon="0.24313">
        <ele>905</ele>
        <time>2019-08-08T05:21:38.000Z</time>
      </trkpt>
      <trkpt lat="42.97514" lon="0.24315">
        <ele>905</ele>
        <time>2019-08-08T05:21:39.000Z</time>
      </trkpt>
      <trkpt lat="42.97509" lon="0.24316">
        <ele>905</ele>
        <time>2019-08-08T05:21:40.000Z</time>
      </trkpt>
      <trkpt lat="42.97505" lon="0.24317">
        <ele>905</ele>
        <time>2019-08-08T05:21:41.000Z</time>
      </trkpt>
      <trkpt lat="42.975" lon="0.24318">
        <ele>905</ele>
        <time>2019-08-08T05:21:42.000Z</time>
      </trkpt>
      <trkpt lat="42.97495" lon="0.24318">
        <ele>905</ele>
        <time>2019-08-08T05:21:43.000Z</time>
      </trkpt>
      <trkpt lat="42.97491" lon="0.24318">
        <ele>905</ele>
        <time>2019-08-08T05:21:44.000Z</time>
      </trkpt>
      <trkpt lat="42.97486" lon="0.24318">
        <ele>905</ele>
        <time>2019-08-08T05:21:45.000Z</time>
      </trkpt>
      <trkpt lat="42.97481" lon="0.24318">
        <ele>906</ele>
        <time>2019-08-08T05:21:46.000Z</time>
      </trkpt>
      <trkpt lat="42.97476" lon="0.24318">
        <ele>906</ele>
        <time>2019-08-08T05:21:47.000Z</time>
      </trkpt>
      <trkpt lat="42.97472" lon="0.24317">
        <ele>906</ele>
        <time>2019-08-08T05:21:48.000Z</time>
      </trkpt>
      <trkpt lat="42.97467" lon="0.24317">
        <ele>906</ele>
        <time>2019-08-08T05:21:49.000Z</time>
      </trkpt>
      <trkpt lat="42.97462" lon="0.24317">
        <ele>906</ele>
        <time>2019-08-08T05:21:50.000Z</time>
      </trkpt>
      <trkpt lat="42.97457" lon="0.24317">
        <ele>906</ele>
        <time>2019-08-08T05:21:51.000Z</time>
      </trkpt>
      <trkpt lat="42.97453" lon="0.24317">
        <ele>906</ele>
        <time>2019-08-08T05:21:52.000Z</time>
      </trkpt>
      <trkpt lat="42.97448" lon="0.24317">
        <ele>906</ele>
        <time>2019-08-08T05:21:53.000Z</time>
      </trkpt>
      <trkpt lat="42.97443" lon="0.24317">
        <ele>906</ele>
        <time>2019-08-08T05:21:54.000Z</time>
      </trkpt>
      <trkpt lat="42.97438" lon="0.24317">
        <ele>906</ele>
        <time>2019-08-08T05:21:55.000Z</time>
      </trkpt>
      <trkpt lat="42.97433" lon="0.24317">
        <ele>906</ele>
        <time>2019-08-08T05:21:56.000Z</time>
      </trkpt>
      <trkpt lat="42.97428" lon="0.24317">
        <ele>906</ele>
        <time>2019-08-08T05:21:57.000Z</time>
      </trkpt>
      <trkpt lat="42.97424" lon="0.24318">
        <ele>906</ele>
        <time>2019-08-08T05:21:58.000Z</time>
      </trkpt>
      <trkpt lat="42.97419" lon="0.24318">
        <ele>906</ele>
        <time>2019-08-08T05:21:59.000Z</time>
      </trkpt>
      <trkpt lat="42.97414" lon="0.24319">
        <ele>906</ele>
        <time>2019-08-08T05:22:00.000Z</time>
      </trkpt>
      <trkpt lat="42.97409" lon="0.24319">
        <ele>906</ele>
        <time>2019-08-08T05:22:01.000Z</time>
      </trkpt>
      <trkpt lat="42.97404" lon="0.2432">
        <ele>906</ele>
        <time>2019-08-08T05:22:02.000Z</time>
      </trkpt>
      <trkpt lat="42.97399" lon="0.24321">
        <ele>906</ele>
        <time>2019-08-08T05:22:03.000Z</time>
      </trkpt>
      <trkpt lat="42.97394" lon="0.24322">
        <ele>906</ele>
        <time>2019-08-08T05:22:04.000Z</time>
      </trkpt>
      <trkpt lat="42.97389" lon="0.24323">
        <ele>906</ele>
        <time>2019-08-08T05:22:05.000Z</time>
      </trkpt>
      <trkpt lat="42.97384" lon="0.24324">
        <ele>906</ele>
        <time>2019-08-08T05:22:06.000Z</time>
      </trkpt>
      <trkpt lat="42.97379" lon="0.24325">
        <ele>906</ele>
        <time>2019-08-08T05:22:07.000Z</time>
      </trkpt>
      <trkpt lat="42.97375" lon="0.24326">
        <ele>906</ele>
        <time>2019-08-08T05:22:08.000Z</time>
      </trkpt>
      <trkpt lat="42.9737" lon="0.24328">
        <ele>906</ele>
        <time>2019-08-08T05:22:09.000Z</time>
      </trkpt>
      <trkpt lat="42.97366" lon="0.24329">
        <ele>906</ele>
        <time>2019-08-08T05:22:10.000Z</time>
      </trkpt>
      <trkpt lat="42.97361" lon="0.2433">
        <ele>906</ele>
        <time>2019-08-08T05:22:11.000Z</time>
      </trkpt>
      <trkpt lat="42.97356" lon="0.24331">
        <ele>907</ele>
        <time>2019-08-08T05:22:12.000Z</time>
      </trkpt>
      <trkpt lat="42.97352" lon="0.24332">
        <ele>907</ele>
        <time>2019-08-08T05:22:13.000Z</time>
      </trkpt>
      <trkpt lat="42.97347" lon="0.24334">
        <ele>907</ele>
        <time>2019-08-08T05:22:14.000Z</time>
      </trkpt>
      <trkpt lat="42.97343" lon="0.24335">
        <ele>907</ele>
        <time>2019-08-08T05:22:15.000Z</time>
      </trkpt>
      <trkpt lat="42.97338" lon="0.24337">
        <ele>907</ele>
        <time>2019-08-08T05:22:16.000Z</time>
      </trkpt>
      <trkpt lat="42.97334" lon="0.24338">
        <ele>908</ele>
        <time>2019-08-08T05:22:17.000Z</time>
      </trkpt>
      <trkpt lat="42.9733" lon="0.2434">
        <ele>908</ele>
        <time>2019-08-08T05:22:18.000Z</time>
      </trkpt>
      <trkpt lat="42.97326" lon="0.24341">
        <ele>908</ele>
        <time>2019-08-08T05:22:19.000Z</time>
      </trkpt>
      <trkpt lat="42.97321" lon="0.24342">
        <ele>908</ele>
        <time>2019-08-08T05:22:20.000Z</time>
      </trkpt>
      <trkpt lat="42.97317" lon="0.24344">
        <ele>909</ele>
        <time>2019-08-08T05:22:21.000Z</time>
      </trkpt>
      <trkpt lat="42.97313" lon="0.24346">
        <ele>909</ele>
        <time>2019-08-08T05:22:22.000Z</time>
      </trkpt>
      <trkpt lat="42.9731" lon="0.24348">
        <ele>909</ele>
        <time>2019-08-08T05:22:23.000Z</time>
      </trkpt>
      <trkpt lat="42.97306" lon="0.24349">
        <ele>909</ele>
        <time>2019-08-08T05:22:24.000Z</time>
      </trkpt>
      <trkpt lat="42.97302" lon="0.2435">
        <ele>909</ele>
        <time>2019-08-08T05:22:25.000Z</time>
      </trkpt>
      <trkpt lat="42.97297" lon="0.24352">
        <ele>909</ele>
        <time>2019-08-08T05:22:26.000Z</time>
      </trkpt>
      <trkpt lat="42.97293" lon="0.24353">
        <ele>909</ele>
        <time>2019-08-08T05:22:27.000Z</time>
      </trkpt>
      <trkpt lat="42.97289" lon="0.24354">
        <ele>909</ele>
        <time>2019-08-08T05:22:28.000Z</time>
      </trkpt>
      <trkpt lat="42.97285" lon="0.24355">
        <ele>910</ele>
        <time>2019-08-08T05:22:29.000Z</time>
      </trkpt>
      <trkpt lat="42.97281" lon="0.24356">
        <ele>910</ele>
        <time>2019-08-08T05:22:30.000Z</time>
      </trkpt>
      <trkpt lat="42.97277" lon="0.24358">
        <ele>910</ele>
        <time>2019-08-08T05:22:31.000Z</time>
      </trkpt>
      <trkpt lat="42.97274" lon="0.24359">
        <ele>910</ele>
        <time>2019-08-08T05:22:32.000Z</time>
      </trkpt>
      <trkpt lat="42.9727" lon="0.2436">
        <ele>910</ele>
        <time>2019-08-08T05:22:33.000Z</time>
      </trkpt>
      <trkpt lat="42.97266" lon="0.24361">
        <ele>910</ele>
        <time>2019-08-08T05:22:34.000Z</time>
      </trkpt>
      <trkpt lat="42.97262" lon="0.24363">
        <ele>910</ele>
        <time>2019-08-08T05:22:35.000Z</time>
      </trkpt>
      <trkpt lat="42.97258" lon="0.24364">
        <ele>911</ele>
        <time>2019-08-08T05:22:36.000Z</time>
      </trkpt>
      <trkpt lat="42.97255" lon="0.24365">
        <ele>911</ele>
        <time>2019-08-08T05:22:37.000Z</time>
      </trkpt>
      <trkpt lat="42.97251" lon="0.24366">
        <ele>911</ele>
        <time>2019-08-08T05:22:38.000Z</time>
      </trkpt>
      <trkpt lat="42.97247" lon="0.24367">
        <ele>911</ele>
        <time>2019-08-08T05:22:39.000Z</time>
      </trkpt>
      <trkpt lat="42.97244" lon="0.24368">
        <ele>911</ele>
        <time>2019-08-08T05:22:40.000Z</time>
      </trkpt>
      <trkpt lat="42.97241" lon="0.24369">
        <ele>913</ele>
        <time>2019-08-08T05:22:41.000Z</time>
      </trkpt>
      <trkpt lat="42.97237" lon="0.2437">
        <ele>913</ele>
        <time>2019-08-08T05:22:42.000Z</time>
      </trkpt>
      <trkpt lat="42.97234" lon="0.24371">
        <ele>913</ele>
        <time>2019-08-08T05:22:43.000Z</time>
      </trkpt>
      <trkpt lat="42.97231" lon="0.24372">
        <ele>913</ele>
        <time>2019-08-08T05:22:44.000Z</time>
      </trkpt>
      <trkpt lat="42.97228" lon="0.24373">
        <ele>913</ele>
        <time>2019-08-08T05:22:45.000Z</time>
      </trkpt>
      <trkpt lat="42.97225" lon="0.24375">
        <ele>913</ele>
        <time>2019-08-08T05:22:46.000Z</time>
      </trkpt>
      <trkpt lat="42.97222" lon="0.24376">
        <ele>913</ele>
        <time>2019-08-08T05:22:47.000Z</time>
      </trkpt>
      <trkpt lat="42.97219" lon="0.24377">
        <ele>913</ele>
        <time>2019-08-08T05:22:48.000Z</time>
      </trkpt>
      <trkpt lat="42.97216" lon="0.24378">
        <ele>913</ele>
        <time>2019-08-08T05:22:49.000Z</time>
      </trkpt>
      <trkpt lat="42.97213" lon="0.2438">
        <ele>915</ele>
        <time>2019-08-08T05:22:50.000Z</time>
      </trkpt>
      <trkpt lat="42.9721" lon="0.24382">
        <ele>915</ele>
        <time>2019-08-08T05:22:51.000Z</time>
      </trkpt>
      <trkpt lat="42.97207" lon="0.24384">
        <ele>915</ele>
        <time>2019-08-08T05:22:52.000Z</time>
      </trkpt>
      <trkpt lat="42.97205" lon="0.24386">
        <ele>915</ele>
        <time>2019-08-08T05:22:53.000Z</time>
      </trkpt>
      <trkpt lat="42.97202" lon="0.24388">
        <ele>915</ele>
        <time>2019-08-08T05:22:54.000Z</time>
      </trkpt>
      <trkpt lat="42.97199" lon="0.2439">
        <ele>915</ele>
        <time>2019-08-08T05:22:55.000Z</time>
      </trkpt>
      <trkpt lat="42.97196" lon="0.24391">
        <ele>915</ele>
        <time>2019-08-08T05:22:56.000Z</time>
      </trkpt>
      <trkpt lat="42.97193" lon="0.24392">
        <ele>916</ele>
        <time>2019-08-08T05:22:57.000Z</time>
      </trkpt>
      <trkpt lat="42.9719" lon="0.24394">
        <ele>916</ele>
        <time>2019-08-08T05:22:58.000Z</time>
      </trkpt>
      <trkpt lat="42.97187" lon="0.24395">
        <ele>916</ele>
        <time>2019-08-08T05:22:59.000Z</time>
      </trkpt>
      <trkpt lat="42.97184" lon="0.24397">
        <ele>916</ele>
        <time>2019-08-08T05:23:00.000Z</time>
      </trkpt>
      <trkpt lat="42.97181" lon="0.24398">
        <ele>917</ele>
        <time>2019-08-08T05:23:01.000Z</time>
      </trkpt>
      <trkpt lat="42.97178" lon="0.244">
        <ele>917</ele>
        <time>2019-08-08T05:23:02.000Z</time>
      </trkpt>
      <trkpt lat="42.97175" lon="0.24401">
        <ele>917</ele>
        <time>2019-08-08T05:23:03.000Z</time>
      </trkpt>
      <trkpt lat="42.97172" lon="0.24402">
        <ele>917</ele>
        <time>2019-08-08T05:23:04.000Z</time>
      </trkpt>
      <trkpt lat="42.97168" lon="0.24402">
        <ele>917</ele>
        <time>2019-08-08T05:23:05.000Z</time>
      </trkpt>
      <trkpt lat="42.97165" lon="0.24403">
        <ele>917</ele>
        <time>2019-08-08T05:23:06.000Z</time>
      </trkpt>
      <trkpt lat="42.97162" lon="0.24403">
        <ele>917</ele>
        <time>2019-08-08T05:23:07.000Z</time>
      </trkpt>
      <trkpt lat="42.97159" lon="0.24404">
        <ele>917</ele>
        <time>2019-08-08T05:23:08.000Z</time>
      </trkpt>
      <trkpt lat="42.97156" lon="0.24405">
        <ele>917</ele>
        <time>2019-08-08T05:23:09.000Z</time>
      </trkpt>
      <trkpt lat="42.97153" lon="0.24406">
        <ele>917</ele>
        <time>2019-08-08T05:23:10.000Z</time>
      </trkpt>
      <trkpt lat="42.97149" lon="0.24406">
        <ele>917</ele>
        <time>2019-08-08T05:23:11.000Z</time>
      </trkpt>
      <trkpt lat="42.97146" lon="0.24406">
        <ele>918</ele>
        <time>2019-08-08T05:23:12.000Z</time>
      </trkpt>
      <trkpt lat="42.97143" lon="0.24405">
        <ele>918</ele>
        <time>2019-08-08T05:23:13.000Z</time>
      </trkpt>
      <trkpt lat="42.9714" lon="0.24405">
        <ele>918</ele>
        <time>2019-08-08T05:23:14.000Z</time>
      </trkpt>
      <trkpt lat="42.97137" lon="0.24405">
        <ele>918</ele>
        <time>2019-08-08T05:23:15.000Z</time>
      </trkpt>
      <trkpt lat="42.97134" lon="0.24406">
        <ele>918</ele>
        <time>2019-08-08T05:23:16.000Z</time>
      </trkpt>
      <trkpt lat="42.97131" lon="0.24406">
        <ele>918</ele>
        <time>2019-08-08T05:23:17.000Z</time>
      </trkpt>
      <trkpt lat="42.97128" lon="0.24406">
        <ele>918</ele>
        <time>2019-08-08T05:23:18.000Z</time>
      </trkpt>
      <trkpt lat="42.97125" lon="0.24406">
        <ele>918</ele>
        <time>2019-08-08T05:23:19.000Z</time>
      </trkpt>
      <trkpt lat="42.97121" lon="0.24406">
        <ele>918</ele>
        <time>2019-08-08T05:23:20.000Z</time>
      </trkpt>
      <trkpt lat="42.97118" lon="0.24406">
        <ele>918</ele>
        <time>2019-08-08T05:23:21.000Z</time>
      </trkpt>
      <trkpt lat="42.97115" lon="0.24407">
        <ele>918</ele>
        <time>2019-08-08T05:23:22.000Z</time>
      </trkpt>
      <trkpt lat="42.97112" lon="0.24408">
        <ele>918</ele>
        <time>2019-08-08T05:23:23.000Z</time>
      </trkpt>
      <trkpt lat="42.97109" lon="0.24408">
        <ele>918</ele>
        <time>2019-08-08T05:23:24.000Z</time>
      </trkpt>
      <trkpt lat="42.97106" lon="0.2441">
        <ele>918</ele>
        <time>2019-08-08T05:23:25.000Z</time>
      </trkpt>
      <trkpt lat="42.97103" lon="0.24411">
        <ele>918</ele>
        <time>2019-08-08T05:23:26.000Z</time>
      </trkpt>
      <trkpt lat="42.971" lon="0.24411">
        <ele>918</ele>
        <time>2019-08-08T05:23:27.000Z</time>
      </trkpt>
      <trkpt lat="42.97097" lon="0.2441">
        <ele>919</ele>
        <time>2019-08-08T05:23:28.000Z</time>
      </trkpt>
      <trkpt lat="42.97094" lon="0.24409">
        <ele>919</ele>
        <time>2019-08-08T05:23:29.000Z</time>
      </trkpt>
      <trkpt lat="42.97091" lon="0.24409">
        <ele>919</ele>
        <time>2019-08-08T05:23:30.000Z</time>
      </trkpt>
      <trkpt lat="42.97088" lon="0.24409">
        <ele>919</ele>
        <time>2019-08-08T05:23:31.000Z</time>
      </trkpt>
      <trkpt lat="42.97086" lon="0.24411">
        <ele>920</ele>
        <time>2019-08-08T05:23:32.000Z</time>
      </trkpt>
      <trkpt lat="42.97083" lon="0.24412">
        <ele>920</ele>
        <time>2019-08-08T05:23:33.000Z</time>
      </trkpt>
      <trkpt lat="42.9708" lon="0.24413">
        <ele>920</ele>
        <time>2019-08-08T05:23:34.000Z</time>
      </trkpt>
      <trkpt lat="42.97076" lon="0.24413">
        <ele>920</ele>
        <time>2019-08-08T05:23:35.000Z</time>
      </trkpt>
      <trkpt lat="42.97073" lon="0.24413">
        <ele>921</ele>
        <time>2019-08-08T05:23:36.000Z</time>
      </trkpt>
      <trkpt lat="42.9707" lon="0.24413">
        <ele>921</ele>
        <time>2019-08-08T05:23:37.000Z</time>
      </trkpt>
      <trkpt lat="42.97067" lon="0.24413">
        <ele>921</ele>
        <time>2019-08-08T05:23:38.000Z</time>
      </trkpt>
      <trkpt lat="42.97064" lon="0.24413">
        <ele>921</ele>
        <time>2019-08-08T05:23:39.000Z</time>
      </trkpt>
      <trkpt lat="42.97061" lon="0.24413">
        <ele>922</ele>
        <time>2019-08-08T05:23:40.000Z</time>
      </trkpt>
      <trkpt lat="42.97059" lon="0.24414">
        <ele>922</ele>
        <time>2019-08-08T05:23:41.000Z</time>
      </trkpt>
      <trkpt lat="42.97056" lon="0.24413">
        <ele>922</ele>
        <time>2019-08-08T05:23:42.000Z</time>
      </trkpt>
      <trkpt lat="42.97053" lon="0.24413">
        <ele>922</ele>
        <time>2019-08-08T05:23:43.000Z</time>
      </trkpt>
      <trkpt lat="42.97049" lon="0.24412">
        <ele>922</ele>
        <time>2019-08-08T05:23:44.000Z</time>
      </trkpt>
      <trkpt lat="42.97046" lon="0.24412">
        <ele>924</ele>
        <time>2019-08-08T05:23:45.000Z</time>
      </trkpt>
      <trkpt lat="42.97043" lon="0.24413">
        <ele>924</ele>
        <time>2019-08-08T05:23:46.000Z</time>
      </trkpt>
      <trkpt lat="42.9704" lon="0.24413">
        <ele>924</ele>
        <time>2019-08-08T05:23:47.000Z</time>
      </trkpt>
      <trkpt lat="42.97037" lon="0.24413">
        <ele>924</ele>
        <time>2019-08-08T05:23:48.000Z</time>
      </trkpt>
      <trkpt lat="42.97034" lon="0.24414">
        <ele>924</ele>
        <time>2019-08-08T05:23:49.000Z</time>
      </trkpt>
      <trkpt lat="42.97032" lon="0.24414">
        <ele>924</ele>
        <time>2019-08-08T05:23:50.000Z</time>
      </trkpt>
      <trkpt lat="42.97029" lon="0.24414">
        <ele>925</ele>
        <time>2019-08-08T05:23:51.000Z</time>
      </trkpt>
      <trkpt lat="42.97026" lon="0.24414">
        <ele>925</ele>
        <time>2019-08-08T05:23:52.000Z</time>
      </trkpt>
      <trkpt lat="42.97023" lon="0.24414">
        <ele>925</ele>
        <time>2019-08-08T05:23:53.000Z</time>
      </trkpt>
      <trkpt lat="42.97021" lon="0.24415">
        <ele>925</ele>
        <time>2019-08-08T05:23:54.000Z</time>
      </trkpt>
      <trkpt lat="42.97018" lon="0.24415">
        <ele>926</ele>
        <time>2019-08-08T05:23:55.000Z</time>
      </trkpt>
      <trkpt lat="42.97015" lon="0.24415">
        <ele>926</ele>
        <time>2019-08-08T05:23:56.000Z</time>
      </trkpt>
      <trkpt lat="42.97013" lon="0.24415">
        <ele>927</ele>
        <time>2019-08-08T05:23:57.000Z</time>
      </trkpt>
      <trkpt lat="42.9701" lon="0.24416">
        <ele>927</ele>
        <time>2019-08-08T05:23:58.000Z</time>
      </trkpt>
      <trkpt lat="42.97007" lon="0.24417">
        <ele>927</ele>
        <time>2019-08-08T05:23:59.000Z</time>
      </trkpt>
      <trkpt lat="42.97004" lon="0.24417">
        <ele>927</ele>
        <time>2019-08-08T05:24:00.000Z</time>
      </trkpt>
      <trkpt lat="42.97" lon="0.24418">
        <ele>927</ele>
        <time>2019-08-08T05:24:01.000Z</time>
      </trkpt>
      <trkpt lat="42.96998" lon="0.24418">
        <ele>928</ele>
        <time>2019-08-08T05:24:02.000Z</time>
      </trkpt>
      <trkpt lat="42.96994" lon="0.24419">
        <ele>928</ele>
        <time>2019-08-08T05:24:03.000Z</time>
      </trkpt>
      <trkpt lat="42.96991" lon="0.2442">
        <ele>928</ele>
        <time>2019-08-08T05:24:04.000Z</time>
      </trkpt>
      <trkpt lat="42.96988" lon="0.2442">
        <ele>929</ele>
        <time>2019-08-08T05:24:05.000Z</time>
      </trkpt>
      <trkpt lat="42.96985" lon="0.2442">
        <ele>929</ele>
        <time>2019-08-08T05:24:06.000Z</time>
      </trkpt>
      <trkpt lat="42.96981" lon="0.2442">
        <ele>930</ele>
        <time>2019-08-08T05:24:07.000Z</time>
      </trkpt>
      <trkpt lat="42.96978" lon="0.2442">
        <ele>930</ele>
        <time>2019-08-08T05:24:08.000Z</time>
      </trkpt>
      <trkpt lat="42.96975" lon="0.2442">
        <ele>930</ele>
        <time>2019-08-08T05:24:09.000Z</time>
      </trkpt>
      <trkpt lat="42.96972" lon="0.2442">
        <ele>930</ele>
        <time>2019-08-08T05:24:10.000Z</time>
      </trkpt>
      <trkpt lat="42.96969" lon="0.2442">
        <ele>931</ele>
        <time>2019-08-08T05:24:11.000Z</time>
      </trkpt>
      <trkpt lat="42.96966" lon="0.2442">
        <ele>931</ele>
        <time>2019-08-08T05:24:12.000Z</time>
      </trkpt>
      <trkpt lat="42.96963" lon="0.2442">
        <ele>932</ele>
        <time>2019-08-08T05:24:13.000Z</time>
      </trkpt>
      <trkpt lat="42.9696" lon="0.2442">
        <ele>932</ele>
        <time>2019-08-08T05:24:14.000Z</time>
      </trkpt>
      <trkpt lat="42.96957" lon="0.2442">
        <ele>932</ele>
        <time>2019-08-08T05:24:15.000Z</time>
      </trkpt>
      <trkpt lat="42.96954" lon="0.2442">
        <ele>933</ele>
        <time>2019-08-08T05:24:16.000Z</time>
      </trkpt>
      <trkpt lat="42.96951" lon="0.2442">
        <ele>933</ele>
        <time>2019-08-08T05:24:17.000Z</time>
      </trkpt>
      <trkpt lat="42.96948" lon="0.2442">
        <ele>933</ele>
        <time>2019-08-08T05:24:18.000Z</time>
      </trkpt>
      <trkpt lat="42.96945" lon="0.2442">
        <ele>933</ele>
        <time>2019-08-08T05:24:19.000Z</time>
      </trkpt>
      <trkpt lat="42.96942" lon="0.2442">
        <ele>933</ele>
        <time>2019-08-08T05:24:20.000Z</time>
      </trkpt>
      <trkpt lat="42.96939" lon="0.2442">
        <ele>933</ele>
        <time>2019-08-08T05:24:21.000Z</time>
      </trkpt>
      <trkpt lat="42.96936" lon="0.24421">
        <ele>933</ele>
        <time>2019-08-08T05:24:22.000Z</time>
      </trkpt>
      <trkpt lat="42.96933" lon="0.24421">
        <ele>934</ele>
        <time>2019-08-08T05:24:23.000Z</time>
      </trkpt>
      <trkpt lat="42.9693" lon="0.24421">
        <ele>934</ele>
        <time>2019-08-08T05:24:24.000Z</time>
      </trkpt>
      <trkpt lat="42.96927" lon="0.24421">
        <ele>934</ele>
        <time>2019-08-08T05:24:25.000Z</time>
      </trkpt>
      <trkpt lat="42.96923" lon="0.24421">
        <ele>935</ele>
        <time>2019-08-08T05:24:26.000Z</time>
      </trkpt>
      <trkpt lat="42.9692" lon="0.24421">
        <ele>935</ele>
        <time>2019-08-08T05:24:27.000Z</time>
      </trkpt>
      <trkpt lat="42.96917" lon="0.24421">
        <ele>935</ele>
        <time>2019-08-08T05:24:28.000Z</time>
      </trkpt>
      <trkpt lat="42.96914" lon="0.24421">
        <ele>935</ele>
        <time>2019-08-08T05:24:29.000Z</time>
      </trkpt>
      <trkpt lat="42.96911" lon="0.24421">
        <ele>935</ele>
        <time>2019-08-08T05:24:30.000Z</time>
      </trkpt>
      <trkpt lat="42.96908" lon="0.24421">
        <ele>935</ele>
        <time>2019-08-08T05:24:31.000Z</time>
      </trkpt>
      <trkpt lat="42.96906" lon="0.24422">
        <ele>936</ele>
        <time>2019-08-08T05:24:32.000Z</time>
      </trkpt>
      <trkpt lat="42.96903" lon="0.24423">
        <ele>936</ele>
        <time>2019-08-08T05:24:33.000Z</time>
      </trkpt>
      <trkpt lat="42.969" lon="0.24424">
        <ele>936</ele>
        <time>2019-08-08T05:24:34.000Z</time>
      </trkpt>
      <trkpt lat="42.96897" lon="0.24425">
        <ele>936</ele>
        <time>2019-08-08T05:24:35.000Z</time>
      </trkpt>
      <trkpt lat="42.96894" lon="0.24426">
        <ele>936</ele>
        <time>2019-08-08T05:24:36.000Z</time>
      </trkpt>
      <trkpt lat="42.96891" lon="0.24428">
        <ele>936</ele>
        <time>2019-08-08T05:24:37.000Z</time>
      </trkpt>
      <trkpt lat="42.96887" lon="0.24429">
        <ele>936</ele>
        <time>2019-08-08T05:24:38.000Z</time>
      </trkpt>
      <trkpt lat="42.96884" lon="0.24431">
        <ele>936</ele>
        <time>2019-08-08T05:24:39.000Z</time>
      </trkpt>
      <trkpt lat="42.9688" lon="0.24433">
        <ele>937</ele>
        <time>2019-08-08T05:24:40.000Z</time>
      </trkpt>
      <trkpt lat="42.96877" lon="0.24434">
        <ele>937</ele>
        <time>2019-08-08T05:24:41.000Z</time>
      </trkpt>
      <trkpt lat="42.96873" lon="0.24436">
        <ele>937</ele>
        <time>2019-08-08T05:24:42.000Z</time>
      </trkpt>
      <trkpt lat="42.96869" lon="0.24437">
        <ele>937</ele>
        <time>2019-08-08T05:24:43.000Z</time>
      </trkpt>
      <trkpt lat="42.96866" lon="0.24439">
        <ele>937</ele>
        <time>2019-08-08T05:24:44.000Z</time>
      </trkpt>
      <trkpt lat="42.96862" lon="0.24441">
        <ele>937</ele>
        <time>2019-08-08T05:24:45.000Z</time>
      </trkpt>
      <trkpt lat="42.96858" lon="0.24443">
        <ele>937</ele>
        <time>2019-08-08T05:24:46.000Z</time>
      </trkpt>
      <trkpt lat="42.96853" lon="0.24445">
        <ele>937</ele>
        <time>2019-08-08T05:24:47.000Z</time>
      </trkpt>
      <trkpt lat="42.96849" lon="0.24447">
        <ele>937</ele>
        <time>2019-08-08T05:24:48.000Z</time>
      </trkpt>
      <trkpt lat="42.96845" lon="0.24449">
        <ele>937</ele>
        <time>2019-08-08T05:24:49.000Z</time>
      </trkpt>
      <trkpt lat="42.9684" lon="0.24451">
        <ele>937</ele>
        <time>2019-08-08T05:24:50.000Z</time>
      </trkpt>
      <trkpt lat="42.96836" lon="0.24454">
        <ele>937</ele>
        <time>2019-08-08T05:24:51.000Z</time>
      </trkpt>
      <trkpt lat="42.96832" lon="0.24456">
        <ele>937</ele>
        <time>2019-08-08T05:24:52.000Z</time>
      </trkpt>
      <trkpt lat="42.96827" lon="0.24458">
        <ele>937</ele>
        <time>2019-08-08T05:24:53.000Z</time>
      </trkpt>
      <trkpt lat="42.96823" lon="0.2446">
        <ele>937</ele>
        <time>2019-08-08T05:24:54.000Z</time>
      </trkpt>
      <trkpt lat="42.96819" lon="0.24462">
        <ele>937</ele>
        <time>2019-08-08T05:24:55.000Z</time>
      </trkpt>
      <trkpt lat="42.96814" lon="0.24464">
        <ele>938</ele>
        <time>2019-08-08T05:24:56.000Z</time>
      </trkpt>
      <trkpt lat="42.9681" lon="0.24466">
        <ele>938</ele>
        <time>2019-08-08T05:24:57.000Z</time>
      </trkpt>
      <trkpt lat="42.96806" lon="0.24468">
        <ele>938</ele>
        <time>2019-08-08T05:24:58.000Z</time>
      </trkpt>
      <trkpt lat="42.96802" lon="0.2447">
        <ele>938</ele>
        <time>2019-08-08T05:24:59.000Z</time>
      </trkpt>
      <trkpt lat="42.96798" lon="0.24472">
        <ele>938</ele>
        <time>2019-08-08T05:25:00.000Z</time>
      </trkpt>
      <trkpt lat="42.96793" lon="0.24474">
        <ele>939</ele>
        <time>2019-08-08T05:25:01.000Z</time>
      </trkpt>
      <trkpt lat="42.96789" lon="0.24476">
        <ele>939</ele>
        <time>2019-08-08T05:25:02.000Z</time>
      </trkpt>
      <trkpt lat="42.96785" lon="0.24478">
        <ele>939</ele>
        <time>2019-08-08T05:25:03.000Z</time>
      </trkpt>
      <trkpt lat="42.96781" lon="0.24481">
        <ele>939</ele>
        <time>2019-08-08T05:25:04.000Z</time>
      </trkpt>
      <trkpt lat="42.96776" lon="0.24483">
        <ele>939</ele>
        <time>2019-08-08T05:25:05.000Z</time>
      </trkpt>
      <trkpt lat="42.96772" lon="0.24485">
        <ele>939</ele>
        <time>2019-08-08T05:25:06.000Z</time>
      </trkpt>
      <trkpt lat="42.96768" lon="0.24487">
        <ele>939</ele>
        <time>2019-08-08T05:25:07.000Z</time>
      </trkpt>
      <trkpt lat="42.96763" lon="0.24488">
        <ele>939</ele>
        <time>2019-08-08T05:25:08.000Z</time>
      </trkpt>
      <trkpt lat="42.96759" lon="0.2449">
        <ele>940</ele>
        <time>2019-08-08T05:25:09.000Z</time>
      </trkpt>
      <trkpt lat="42.96754" lon="0.24491">
        <ele>940</ele>
        <time>2019-08-08T05:25:10.000Z</time>
      </trkpt>
      <trkpt lat="42.9675" lon="0.24492">
        <ele>940</ele>
        <time>2019-08-08T05:25:11.000Z</time>
      </trkpt>
      <trkpt lat="42.96746" lon="0.24493">
        <ele>941</ele>
        <time>2019-08-08T05:25:12.000Z</time>
      </trkpt>
      <trkpt lat="42.96741" lon="0.24494">
        <ele>941</ele>
        <time>2019-08-08T05:25:13.000Z</time>
      </trkpt>
      <trkpt lat="42.96737" lon="0.24494">
        <ele>941</ele>
        <time>2019-08-08T05:25:14.000Z</time>
      </trkpt>
      <trkpt lat="42.96732" lon="0.24494">
        <ele>941</ele>
        <time>2019-08-08T05:25:15.000Z</time>
      </trkpt>
      <trkpt lat="42.96728" lon="0.24494">
        <ele>942</ele>
        <time>2019-08-08T05:25:16.000Z</time>
      </trkpt>
      <trkpt lat="42.96723" lon="0.24495">
        <ele>942</ele>
        <time>2019-08-08T05:25:17.000Z</time>
      </trkpt>
      <trkpt lat="42.96719" lon="0.24495">
        <ele>942</ele>
        <time>2019-08-08T05:25:18.000Z</time>
      </trkpt>
      <trkpt lat="42.96714" lon="0.24496">
        <ele>942</ele>
        <time>2019-08-08T05:25:19.000Z</time>
      </trkpt>
      <trkpt lat="42.9671" lon="0.24496">
        <ele>942</ele>
        <time>2019-08-08T05:25:20.000Z</time>
      </trkpt>
      <trkpt lat="42.96706" lon="0.24497">
        <ele>942</ele>
        <time>2019-08-08T05:25:21.000Z</time>
      </trkpt>
      <trkpt lat="42.96702" lon="0.24498">
        <ele>943</ele>
        <time>2019-08-08T05:25:22.000Z</time>
      </trkpt>
      <trkpt lat="42.96698" lon="0.24499">
        <ele>943</ele>
        <time>2019-08-08T05:25:23.000Z</time>
      </trkpt>
      <trkpt lat="42.96693" lon="0.24499">
        <ele>943</ele>
        <time>2019-08-08T05:25:24.000Z</time>
      </trkpt>
      <trkpt lat="42.96689" lon="0.245">
        <ele>943</ele>
        <time>2019-08-08T05:25:25.000Z</time>
      </trkpt>
      <trkpt lat="42.96686" lon="0.245">
        <ele>943</ele>
        <time>2019-08-08T05:25:26.000Z</time>
      </trkpt>
      <trkpt lat="42.96681" lon="0.24501">
        <ele>944</ele>
        <time>2019-08-08T05:25:27.000Z</time>
      </trkpt>
      <trkpt lat="42.96678" lon="0.24501">
        <ele>944</ele>
        <time>2019-08-08T05:25:28.000Z</time>
      </trkpt>
      <trkpt lat="42.96674" lon="0.24501">
        <ele>945</ele>
        <time>2019-08-08T05:25:29.000Z</time>
      </trkpt>
      <trkpt lat="42.9667" lon="0.24501">
        <ele>945</ele>
        <time>2019-08-08T05:25:30.000Z</time>
      </trkpt>
      <trkpt lat="42.96666" lon="0.24501">
        <ele>945</ele>
        <time>2019-08-08T05:25:31.000Z</time>
      </trkpt>
      <trkpt lat="42.96662" lon="0.24501">
        <ele>945</ele>
        <time>2019-08-08T05:25:32.000Z</time>
      </trkpt>
      <trkpt lat="42.96658" lon="0.24502">
        <ele>945</ele>
        <time>2019-08-08T05:25:33.000Z</time>
      </trkpt>
      <trkpt lat="42.96654" lon="0.24502">
        <ele>945</ele>
        <time>2019-08-08T05:25:34.000Z</time>
      </trkpt>
      <trkpt lat="42.9665" lon="0.24501">
        <ele>945</ele>
        <time>2019-08-08T05:25:35.000Z</time>
      </trkpt>
      <trkpt lat="42.96646" lon="0.24501">
        <ele>945</ele>
        <time>2019-08-08T05:25:36.000Z</time>
      </trkpt>
      <trkpt lat="42.96642" lon="0.24501">
        <ele>945</ele>
        <time>2019-08-08T05:25:37.000Z</time>
      </trkpt>
      <trkpt lat="42.96639" lon="0.24501">
        <ele>945</ele>
        <time>2019-08-08T05:25:38.000Z</time>
      </trkpt>
      <trkpt lat="42.96635" lon="0.24502">
        <ele>945</ele>
        <time>2019-08-08T05:25:39.000Z</time>
      </trkpt>
      <trkpt lat="42.96631" lon="0.24503">
        <ele>945</ele>
        <time>2019-08-08T05:25:40.000Z</time>
      </trkpt>
      <trkpt lat="42.96627" lon="0.24504">
        <ele>946</ele>
        <time>2019-08-08T05:25:41.000Z</time>
      </trkpt>
      <trkpt lat="42.96622" lon="0.24506">
        <ele>946</ele>
        <time>2019-08-08T05:25:42.000Z</time>
      </trkpt>
      <trkpt lat="42.96618" lon="0.24507">
        <ele>946</ele>
        <time>2019-08-08T05:25:43.000Z</time>
      </trkpt>
      <trkpt lat="42.96615" lon="0.24509">
        <ele>946</ele>
        <time>2019-08-08T05:25:44.000Z</time>
      </trkpt>
      <trkpt lat="42.96611" lon="0.24511">
        <ele>947</ele>
        <time>2019-08-08T05:25:45.000Z</time>
      </trkpt>
      <trkpt lat="42.96607" lon="0.24514">
        <ele>947</ele>
        <time>2019-08-08T05:25:46.000Z</time>
      </trkpt>
      <trkpt lat="42.96604" lon="0.24517">
        <ele>948</ele>
        <time>2019-08-08T05:25:47.000Z</time>
      </trkpt>
      <trkpt lat="42.966" lon="0.24519">
        <ele>948</ele>
        <time>2019-08-08T05:25:48.000Z</time>
      </trkpt>
      <trkpt lat="42.96597" lon="0.24521">
        <ele>948</ele>
        <time>2019-08-08T05:25:49.000Z</time>
      </trkpt>
      <trkpt lat="42.96593" lon="0.24523">
        <ele>948</ele>
        <time>2019-08-08T05:25:50.000Z</time>
      </trkpt>
      <trkpt lat="42.9659" lon="0.24526">
        <ele>949</ele>
        <time>2019-08-08T05:25:51.000Z</time>
      </trkpt>
      <trkpt lat="42.96586" lon="0.24528">
        <ele>949</ele>
        <time>2019-08-08T05:25:52.000Z</time>
      </trkpt>
      <trkpt lat="42.96582" lon="0.24531">
        <ele>949</ele>
        <time>2019-08-08T05:25:53.000Z</time>
      </trkpt>
      <trkpt lat="42.96579" lon="0.24534">
        <ele>949</ele>
        <time>2019-08-08T05:25:54.000Z</time>
      </trkpt>
      <trkpt lat="42.96575" lon="0.24537">
        <ele>949</ele>
        <time>2019-08-08T05:25:55.000Z</time>
      </trkpt>
      <trkpt lat="42.96572" lon="0.2454">
        <ele>949</ele>
        <time>2019-08-08T05:25:56.000Z</time>
      </trkpt>
      <trkpt lat="42.96567" lon="0.24544">
        <ele>949</ele>
        <time>2019-08-08T05:25:57.000Z</time>
      </trkpt>
      <trkpt lat="42.96565" lon="0.24545">
        <ele>951</ele>
        <time>2019-08-08T05:25:58.000Z</time>
      </trkpt>
      <trkpt lat="42.96562" lon="0.24548">
        <ele>952</ele>
        <time>2019-08-08T05:25:59.000Z</time>
      </trkpt>
      <trkpt lat="42.96558" lon="0.2455">
        <ele>952</ele>
        <time>2019-08-08T05:26:00.000Z</time>
      </trkpt>
      <trkpt lat="42.96555" lon="0.24553">
        <ele>952</ele>
        <time>2019-08-08T05:26:01.000Z</time>
      </trkpt>
      <trkpt lat="42.96551" lon="0.24555">
        <ele>952</ele>
        <time>2019-08-08T05:26:02.000Z</time>
      </trkpt>
      <trkpt lat="42.96547" lon="0.24558">
        <ele>952</ele>
        <time>2019-08-08T05:26:03.000Z</time>
      </trkpt>
      <trkpt lat="42.96544" lon="0.2456">
        <ele>952</ele>
        <time>2019-08-08T05:26:04.000Z</time>
      </trkpt>
      <trkpt lat="42.9654" lon="0.24563">
        <ele>952</ele>
        <time>2019-08-08T05:26:05.000Z</time>
      </trkpt>
      <trkpt lat="42.96536" lon="0.24566">
        <ele>952</ele>
        <time>2019-08-08T05:26:06.000Z</time>
      </trkpt>
      <trkpt lat="42.96532" lon="0.2457">
        <ele>952</ele>
        <time>2019-08-08T05:26:07.000Z</time>
      </trkpt>
      <trkpt lat="42.96528" lon="0.24573">
        <ele>952</ele>
        <time>2019-08-08T05:26:08.000Z</time>
      </trkpt>
      <trkpt lat="42.96524" lon="0.24576">
        <ele>952</ele>
        <time>2019-08-08T05:26:09.000Z</time>
      </trkpt>
      <trkpt lat="42.9652" lon="0.2458">
        <ele>952</ele>
        <time>2019-08-08T05:26:10.000Z</time>
      </trkpt>
      <trkpt lat="42.96515" lon="0.24584">
        <ele>952</ele>
        <time>2019-08-08T05:26:11.000Z</time>
      </trkpt>
      <trkpt lat="42.96511" lon="0.24588">
        <ele>952</ele>
        <time>2019-08-08T05:26:12.000Z</time>
      </trkpt>
      <trkpt lat="42.96507" lon="0.24592">
        <ele>952</ele>
        <time>2019-08-08T05:26:13.000Z</time>
      </trkpt>
      <trkpt lat="42.96502" lon="0.24597">
        <ele>952</ele>
        <time>2019-08-08T05:26:14.000Z</time>
      </trkpt>
      <trkpt lat="42.96498" lon="0.24602">
        <ele>952</ele>
        <time>2019-08-08T05:26:15.000Z</time>
      </trkpt>
      <trkpt lat="42.96491" lon="0.24609">
        <ele>952</ele>
        <time>2019-08-08T05:26:16.000Z</time>
      </trkpt>
      <trkpt lat="42.96488" lon="0.24612">
        <ele>951</ele>
        <time>2019-08-08T05:26:17.000Z</time>
      </trkpt>
      <trkpt lat="42.96484" lon="0.24617">
        <ele>951</ele>
        <time>2019-08-08T05:26:18.000Z</time>
      </trkpt>
      <trkpt lat="42.96479" lon="0.24622">
        <ele>951</ele>
        <time>2019-08-08T05:26:19.000Z</time>
      </trkpt>
      <trkpt lat="42.96475" lon="0.24628">
        <ele>951</ele>
        <time>2019-08-08T05:26:20.000Z</time>
      </trkpt>
      <trkpt lat="42.9647" lon="0.24633">
        <ele>951</ele>
        <time>2019-08-08T05:26:21.000Z</time>
      </trkpt>
      <trkpt lat="42.96466" lon="0.24638">
        <ele>951</ele>
        <time>2019-08-08T05:26:22.000Z</time>
      </trkpt>
      <trkpt lat="42.96461" lon="0.24644">
        <ele>951</ele>
        <time>2019-08-08T05:26:23.000Z</time>
      </trkpt>
      <trkpt lat="42.96456" lon="0.24649">
        <ele>951</ele>
        <time>2019-08-08T05:26:24.000Z</time>
      </trkpt>
      <trkpt lat="42.96452" lon="0.24653">
        <ele>951</ele>
        <time>2019-08-08T05:26:25.000Z</time>
      </trkpt>
      <trkpt lat="42.96447" lon="0.24658">
        <ele>951</ele>
        <time>2019-08-08T05:26:26.000Z</time>
      </trkpt>
      <trkpt lat="42.96443" lon="0.24663">
        <ele>951</ele>
        <time>2019-08-08T05:26:27.000Z</time>
      </trkpt>
      <trkpt lat="42.96438" lon="0.24668">
        <ele>951</ele>
        <time>2019-08-08T05:26:28.000Z</time>
      </trkpt>
      <trkpt lat="42.96434" lon="0.24672">
        <ele>952</ele>
        <time>2019-08-08T05:26:29.000Z</time>
      </trkpt>
      <trkpt lat="42.96429" lon="0.24677">
        <ele>952</ele>
        <time>2019-08-08T05:26:30.000Z</time>
      </trkpt>
      <trkpt lat="42.96425" lon="0.24682">
        <ele>952</ele>
        <time>2019-08-08T05:26:31.000Z</time>
      </trkpt>
      <trkpt lat="42.9642" lon="0.24687">
        <ele>952</ele>
        <time>2019-08-08T05:26:32.000Z</time>
      </trkpt>
      <trkpt lat="42.96416" lon="0.24693">
        <ele>952</ele>
        <time>2019-08-08T05:26:33.000Z</time>
      </trkpt>
      <trkpt lat="42.96412" lon="0.24699">
        <ele>952</ele>
        <time>2019-08-08T05:26:34.000Z</time>
      </trkpt>
      <trkpt lat="42.96408" lon="0.24705">
        <ele>952</ele>
        <time>2019-08-08T05:26:35.000Z</time>
      </trkpt>
      <trkpt lat="42.96405" lon="0.24712">
        <ele>952</ele>
        <time>2019-08-08T05:26:36.000Z</time>
      </trkpt>
      <trkpt lat="42.96402" lon="0.24719">
        <ele>952</ele>
        <time>2019-08-08T05:26:37.000Z</time>
      </trkpt>
      <trkpt lat="42.96399" lon="0.24725">
        <ele>952</ele>
        <time>2019-08-08T05:26:38.000Z</time>
      </trkpt>
      <trkpt lat="42.96396" lon="0.24732">
        <ele>953</ele>
        <time>2019-08-08T05:26:39.000Z</time>
      </trkpt>
      <trkpt lat="42.96393" lon="0.24738">
        <ele>953</ele>
        <time>2019-08-08T05:26:40.000Z</time>
      </trkpt>
      <trkpt lat="42.96391" lon="0.24745">
        <ele>953</ele>
        <time>2019-08-08T05:26:41.000Z</time>
      </trkpt>
      <trkpt lat="42.96388" lon="0.24751">
        <ele>953</ele>
        <time>2019-08-08T05:26:42.000Z</time>
      </trkpt>
      <trkpt lat="42.96385" lon="0.24757">
        <ele>954</ele>
        <time>2019-08-08T05:26:43.000Z</time>
      </trkpt>
      <trkpt lat="42.96382" lon="0.24763">
        <ele>954</ele>
        <time>2019-08-08T05:26:44.000Z</time>
      </trkpt>
      <trkpt lat="42.96379" lon="0.24769">
        <ele>954</ele>
        <time>2019-08-08T05:26:45.000Z</time>
      </trkpt>
      <trkpt lat="42.96376" lon="0.24775">
        <ele>954</ele>
        <time>2019-08-08T05:26:46.000Z</time>
      </trkpt>
      <trkpt lat="42.96373" lon="0.2478">
        <ele>954</ele>
        <time>2019-08-08T05:26:47.000Z</time>
      </trkpt>
      <trkpt lat="42.9637" lon="0.24786">
        <ele>955</ele>
        <time>2019-08-08T05:26:48.000Z</time>
      </trkpt>
      <trkpt lat="42.96367" lon="0.24792">
        <ele>955</ele>
        <time>2019-08-08T05:26:49.000Z</time>
      </trkpt>
      <trkpt lat="42.96364" lon="0.24798">
        <ele>955</ele>
        <time>2019-08-08T05:26:50.000Z</time>
      </trkpt>
      <trkpt lat="42.9636" lon="0.24803">
        <ele>955</ele>
        <time>2019-08-08T05:26:51.000Z</time>
      </trkpt>
      <trkpt lat="42.96357" lon="0.24809">
        <ele>955</ele>
        <time>2019-08-08T05:26:52.000Z</time>
      </trkpt>
      <trkpt lat="42.96354" lon="0.24815">
        <ele>955</ele>
        <time>2019-08-08T05:26:53.000Z</time>
      </trkpt>
      <trkpt lat="42.96351" lon="0.24821">
        <ele>955</ele>
        <time>2019-08-08T05:26:54.000Z</time>
      </trkpt>
      <trkpt lat="42.96348" lon="0.24827">
        <ele>955</ele>
        <time>2019-08-08T05:26:55.000Z</time>
      </trkpt>
      <trkpt lat="42.96346" lon="0.24834">
        <ele>955</ele>
        <time>2019-08-08T05:26:56.000Z</time>
      </trkpt>
      <trkpt lat="42.96344" lon="0.24841">
        <ele>955</ele>
        <time>2019-08-08T05:26:57.000Z</time>
      </trkpt>
      <trkpt lat="42.96341" lon="0.24847">
        <ele>955</ele>
        <time>2019-08-08T05:26:58.000Z</time>
      </trkpt>
      <trkpt lat="42.96339" lon="0.24853">
        <ele>956</ele>
        <time>2019-08-08T05:26:59.000Z</time>
      </trkpt>
      <trkpt lat="42.96336" lon="0.2486">
        <ele>956</ele>
        <time>2019-08-08T05:27:00.000Z</time>
      </trkpt>
      <trkpt lat="42.96333" lon="0.24866">
        <ele>956</ele>
        <time>2019-08-08T05:27:01.000Z</time>
      </trkpt>
      <trkpt lat="42.9633" lon="0.24872">
        <ele>956</ele>
        <time>2019-08-08T05:27:02.000Z</time>
      </trkpt>
      <trkpt lat="42.96326" lon="0.24877">
        <ele>956</ele>
        <time>2019-08-08T05:27:03.000Z</time>
      </trkpt>
      <trkpt lat="42.96322" lon="0.24883">
        <ele>956</ele>
        <time>2019-08-08T05:27:04.000Z</time>
      </trkpt>
      <trkpt lat="42.96319" lon="0.24888">
        <ele>956</ele>
        <time>2019-08-08T05:27:05.000Z</time>
      </trkpt>
      <trkpt lat="42.96315" lon="0.24894">
        <ele>956</ele>
        <time>2019-08-08T05:27:06.000Z</time>
      </trkpt>
      <trkpt lat="42.96312" lon="0.24899">
        <ele>956</ele>
        <time>2019-08-08T05:27:07.000Z</time>
      </trkpt>
      <trkpt lat="42.96308" lon="0.24905">
        <ele>956</ele>
        <time>2019-08-08T05:27:08.000Z</time>
      </trkpt>
      <trkpt lat="42.96305" lon="0.24911">
        <ele>956</ele>
        <time>2019-08-08T05:27:09.000Z</time>
      </trkpt>
      <trkpt lat="42.96301" lon="0.24917">
        <ele>956</ele>
        <time>2019-08-08T05:27:10.000Z</time>
      </trkpt>
      <trkpt lat="42.96298" lon="0.24923">
        <ele>956</ele>
        <time>2019-08-08T05:27:11.000Z</time>
      </trkpt>
      <trkpt lat="42.96295" lon="0.24929">
        <ele>956</ele>
        <time>2019-08-08T05:27:12.000Z</time>
      </trkpt>
      <trkpt lat="42.96292" lon="0.24935">
        <ele>956</ele>
        <time>2019-08-08T05:27:13.000Z</time>
      </trkpt>
      <trkpt lat="42.96289" lon="0.24941">
        <ele>956</ele>
        <time>2019-08-08T05:27:14.000Z</time>
      </trkpt>
      <trkpt lat="42.96287" lon="0.24948">
        <ele>956</ele>
        <time>2019-08-08T05:27:15.000Z</time>
      </trkpt>
      <trkpt lat="42.96284" lon="0.24954">
        <ele>957</ele>
        <time>2019-08-08T05:27:16.000Z</time>
      </trkpt>
      <trkpt lat="42.96282" lon="0.2496">
        <ele>957</ele>
        <time>2019-08-08T05:27:17.000Z</time>
      </trkpt>
      <trkpt lat="42.96279" lon="0.24967">
        <ele>958</ele>
        <time>2019-08-08T05:27:18.000Z</time>
      </trkpt>
      <trkpt lat="42.96277" lon="0.24973">
        <ele>958</ele>
        <time>2019-08-08T05:27:19.000Z</time>
      </trkpt>
      <trkpt lat="42.96274" lon="0.2498">
        <ele>958</ele>
        <time>2019-08-08T05:27:20.000Z</time>
      </trkpt>
      <trkpt lat="42.96272" lon="0.24986">
        <ele>958</ele>
        <time>2019-08-08T05:27:21.000Z</time>
      </trkpt>
      <trkpt lat="42.96269" lon="0.24992">
        <ele>958</ele>
        <time>2019-08-08T05:27:22.000Z</time>
      </trkpt>
      <trkpt lat="42.96266" lon="0.24998">
        <ele>958</ele>
        <time>2019-08-08T05:27:23.000Z</time>
      </trkpt>
      <trkpt lat="42.96263" lon="0.25004">
        <ele>958</ele>
        <time>2019-08-08T05:27:24.000Z</time>
      </trkpt>
      <trkpt lat="42.9626" lon="0.25009">
        <ele>958</ele>
        <time>2019-08-08T05:27:25.000Z</time>
      </trkpt>
      <trkpt lat="42.96257" lon="0.25015">
        <ele>959</ele>
        <time>2019-08-08T05:27:26.000Z</time>
      </trkpt>
      <trkpt lat="42.96254" lon="0.25021">
        <ele>959</ele>
        <time>2019-08-08T05:27:27.000Z</time>
      </trkpt>
      <trkpt lat="42.96251" lon="0.25026">
        <ele>959</ele>
        <time>2019-08-08T05:27:28.000Z</time>
      </trkpt>
      <trkpt lat="42.96248" lon="0.25032">
        <ele>959</ele>
        <time>2019-08-08T05:27:29.000Z</time>
      </trkpt>
      <trkpt lat="42.96244" lon="0.25037">
        <ele>959</ele>
        <time>2019-08-08T05:27:30.000Z</time>
      </trkpt>
      <trkpt lat="42.96241" lon="0.25042">
        <ele>959</ele>
        <time>2019-08-08T05:27:31.000Z</time>
      </trkpt>
      <trkpt lat="42.96238" lon="0.25047">
        <ele>960</ele>
        <time>2019-08-08T05:27:32.000Z</time>
      </trkpt>
      <trkpt lat="42.96235" lon="0.25053">
        <ele>960</ele>
        <time>2019-08-08T05:27:33.000Z</time>
      </trkpt>
      <trkpt lat="42.96232" lon="0.25058">
        <ele>960</ele>
        <time>2019-08-08T05:27:34.000Z</time>
      </trkpt>
      <trkpt lat="42.96228" lon="0.25063">
        <ele>961</ele>
        <time>2019-08-08T05:27:35.000Z</time>
      </trkpt>
      <trkpt lat="42.96226" lon="0.25068">
        <ele>961</ele>
        <time>2019-08-08T05:27:36.000Z</time>
      </trkpt>
      <trkpt lat="42.96223" lon="0.25073">
        <ele>961</ele>
        <time>2019-08-08T05:27:37.000Z</time>
      </trkpt>
      <trkpt lat="42.9622" lon="0.25078">
        <ele>961</ele>
        <time>2019-08-08T05:27:38.000Z</time>
      </trkpt>
      <trkpt lat="42.96217" lon="0.25083">
        <ele>962</ele>
        <time>2019-08-08T05:27:39.000Z</time>
      </trkpt>
      <trkpt lat="42.96215" lon="0.25088">
        <ele>962</ele>
        <time>2019-08-08T05:27:40.000Z</time>
      </trkpt>
      <trkpt lat="42.96212" lon="0.25094">
        <ele>962</ele>
        <time>2019-08-08T05:27:41.000Z</time>
      </trkpt>
      <trkpt lat="42.96209" lon="0.25099">
        <ele>962</ele>
        <time>2019-08-08T05:27:42.000Z</time>
      </trkpt>
      <trkpt lat="42.96206" lon="0.25104">
        <ele>962</ele>
        <time>2019-08-08T05:27:43.000Z</time>
      </trkpt>
      <trkpt lat="42.96203" lon="0.25109">
        <ele>962</ele>
        <time>2019-08-08T05:27:44.000Z</time>
      </trkpt>
      <trkpt lat="42.962" lon="0.25114">
        <ele>962</ele>
        <time>2019-08-08T05:27:45.000Z</time>
      </trkpt>
      <trkpt lat="42.96197" lon="0.25119">
        <ele>963</ele>
        <time>2019-08-08T05:27:46.000Z</time>
      </trkpt>
      <trkpt lat="42.96194" lon="0.25124">
        <ele>963</ele>
        <time>2019-08-08T05:27:47.000Z</time>
      </trkpt>
      <trkpt lat="42.96191" lon="0.25129">
        <ele>963</ele>
        <time>2019-08-08T05:27:48.000Z</time>
      </trkpt>
      <trkpt lat="42.96188" lon="0.25134">
        <ele>963</ele>
        <time>2019-08-08T05:27:49.000Z</time>
      </trkpt>
      <trkpt lat="42.96185" lon="0.25139">
        <ele>964</ele>
        <time>2019-08-08T05:27:50.000Z</time>
      </trkpt>
      <trkpt lat="42.96183" lon="0.25144">
        <ele>964</ele>
        <time>2019-08-08T05:27:51.000Z</time>
      </trkpt>
      <trkpt lat="42.9618" lon="0.25148">
        <ele>964</ele>
        <time>2019-08-08T05:27:52.000Z</time>
      </trkpt>
      <trkpt lat="42.96177" lon="0.25153">
        <ele>964</ele>
        <time>2019-08-08T05:27:53.000Z</time>
      </trkpt>
      <trkpt lat="42.96173" lon="0.25157">
        <ele>964</ele>
        <time>2019-08-08T05:27:54.000Z</time>
      </trkpt>
      <trkpt lat="42.9617" lon="0.25161">
        <ele>964</ele>
        <time>2019-08-08T05:27:55.000Z</time>
      </trkpt>
      <trkpt lat="42.96167" lon="0.25165">
        <ele>964</ele>
        <time>2019-08-08T05:27:56.000Z</time>
      </trkpt>
      <trkpt lat="42.96164" lon="0.2517">
        <ele>964</ele>
        <time>2019-08-08T05:27:57.000Z</time>
      </trkpt>
      <trkpt lat="42.96161" lon="0.25174">
        <ele>966</ele>
        <time>2019-08-08T05:27:58.000Z</time>
      </trkpt>
      <trkpt lat="42.96157" lon="0.25177">
        <ele>966</ele>
        <time>2019-08-08T05:27:59.000Z</time>
      </trkpt>
      <trkpt lat="42.96154" lon="0.25181">
        <ele>966</ele>
        <time>2019-08-08T05:28:00.000Z</time>
      </trkpt>
      <trkpt lat="42.96151" lon="0.25185">
        <ele>966</ele>
        <time>2019-08-08T05:28:01.000Z</time>
      </trkpt>
      <trkpt lat="42.96148" lon="0.25189">
        <ele>967</ele>
        <time>2019-08-08T05:28:02.000Z</time>
      </trkpt>
      <trkpt lat="42.96145" lon="0.25193">
        <ele>967</ele>
        <time>2019-08-08T05:28:03.000Z</time>
      </trkpt>
      <trkpt lat="42.96143" lon="0.25197">
        <ele>967</ele>
        <time>2019-08-08T05:28:04.000Z</time>
      </trkpt>
      <trkpt lat="42.9614" lon="0.252">
        <ele>967</ele>
        <time>2019-08-08T05:28:05.000Z</time>
      </trkpt>
      <trkpt lat="42.96137" lon="0.25204">
        <ele>967</ele>
        <time>2019-08-08T05:28:06.000Z</time>
      </trkpt>
      <trkpt lat="42.96135" lon="0.25208">
        <ele>967</ele>
        <time>2019-08-08T05:28:07.000Z</time>
      </trkpt>
      <trkpt lat="42.96132" lon="0.25212">
        <ele>967</ele>
        <time>2019-08-08T05:28:08.000Z</time>
      </trkpt>
      <trkpt lat="42.96129" lon="0.25216">
        <ele>967</ele>
        <time>2019-08-08T05:28:09.000Z</time>
      </trkpt>
      <trkpt lat="42.96126" lon="0.25219">
        <ele>967</ele>
        <time>2019-08-08T05:28:10.000Z</time>
      </trkpt>
      <trkpt lat="42.96123" lon="0.25223">
        <ele>967</ele>
        <time>2019-08-08T05:28:11.000Z</time>
      </trkpt>
      <trkpt lat="42.9612" lon="0.25227">
        <ele>967</ele>
        <time>2019-08-08T05:28:12.000Z</time>
      </trkpt>
      <trkpt lat="42.96117" lon="0.2523">
        <ele>968</ele>
        <time>2019-08-08T05:28:13.000Z</time>
      </trkpt>
      <trkpt lat="42.96114" lon="0.25234">
        <ele>968</ele>
        <time>2019-08-08T05:28:14.000Z</time>
      </trkpt>
      <trkpt lat="42.96111" lon="0.25238">
        <ele>968</ele>
        <time>2019-08-08T05:28:15.000Z</time>
      </trkpt>
      <trkpt lat="42.96108" lon="0.25242">
        <ele>968</ele>
        <time>2019-08-08T05:28:16.000Z</time>
      </trkpt>
      <trkpt lat="42.96105" lon="0.25246">
        <ele>969</ele>
        <time>2019-08-08T05:28:17.000Z</time>
      </trkpt>
      <trkpt lat="42.96102" lon="0.25249">
        <ele>969</ele>
        <time>2019-08-08T05:28:18.000Z</time>
      </trkpt>
      <trkpt lat="42.96098" lon="0.25253">
        <ele>969</ele>
        <time>2019-08-08T05:28:19.000Z</time>
      </trkpt>
      <trkpt lat="42.96095" lon="0.25257">
        <ele>969</ele>
        <time>2019-08-08T05:28:20.000Z</time>
      </trkpt>
      <trkpt lat="42.96092" lon="0.25261">
        <ele>970</ele>
        <time>2019-08-08T05:28:21.000Z</time>
      </trkpt>
      <trkpt lat="42.96089" lon="0.25265">
        <ele>970</ele>
        <time>2019-08-08T05:28:22.000Z</time>
      </trkpt>
      <trkpt lat="42.96086" lon="0.25269">
        <ele>970</ele>
        <time>2019-08-08T05:28:23.000Z</time>
      </trkpt>
      <trkpt lat="42.96083" lon="0.25272">
        <ele>970</ele>
        <time>2019-08-08T05:28:24.000Z</time>
      </trkpt>
      <trkpt lat="42.9608" lon="0.25276">
        <ele>970</ele>
        <time>2019-08-08T05:28:25.000Z</time>
      </trkpt>
      <trkpt lat="42.96077" lon="0.2528">
        <ele>970</ele>
        <time>2019-08-08T05:28:26.000Z</time>
      </trkpt>
      <trkpt lat="42.96075" lon="0.25284">
        <ele>970</ele>
        <time>2019-08-08T05:28:27.000Z</time>
      </trkpt>
      <trkpt lat="42.96072" lon="0.25288">
        <ele>971</ele>
        <time>2019-08-08T05:28:28.000Z</time>
      </trkpt>
      <trkpt lat="42.96069" lon="0.25291">
        <ele>971</ele>
        <time>2019-08-08T05:28:29.000Z</time>
      </trkpt>
      <trkpt lat="42.96066" lon="0.25295">
        <ele>971</ele>
        <time>2019-08-08T05:28:30.000Z</time>
      </trkpt>
      <trkpt lat="42.96063" lon="0.25298">
        <ele>971</ele>
        <time>2019-08-08T05:28:31.000Z</time>
      </trkpt>
      <trkpt lat="42.9606" lon="0.25302">
        <ele>971</ele>
        <time>2019-08-08T05:28:32.000Z</time>
      </trkpt>
      <trkpt lat="42.96057" lon="0.25306">
        <ele>972</ele>
        <time>2019-08-08T05:28:33.000Z</time>
      </trkpt>
      <trkpt lat="42.96055" lon="0.25309">
        <ele>972</ele>
        <time>2019-08-08T05:28:34.000Z</time>
      </trkpt>
      <trkpt lat="42.96052" lon="0.25313">
        <ele>972</ele>
        <time>2019-08-08T05:28:35.000Z</time>
      </trkpt>
      <trkpt lat="42.96049" lon="0.25317">
        <ele>972</ele>
        <time>2019-08-08T05:28:36.000Z</time>
      </trkpt>
      <trkpt lat="42.96046" lon="0.25321">
        <ele>972</ele>
        <time>2019-08-08T05:28:37.000Z</time>
      </trkpt>
      <trkpt lat="42.96044" lon="0.25325">
        <ele>972</ele>
        <time>2019-08-08T05:28:38.000Z</time>
      </trkpt>
      <trkpt lat="42.96041" lon="0.25329">
        <ele>972</ele>
        <time>2019-08-08T05:28:39.000Z</time>
      </trkpt>
      <trkpt lat="42.96038" lon="0.25333">
        <ele>972</ele>
        <time>2019-08-08T05:28:40.000Z</time>
      </trkpt>
      <trkpt lat="42.96035" lon="0.25337">
        <ele>972</ele>
        <time>2019-08-08T05:28:41.000Z</time>
      </trkpt>
      <trkpt lat="42.96032" lon="0.25341">
        <ele>973</ele>
        <time>2019-08-08T05:28:42.000Z</time>
      </trkpt>
      <trkpt lat="42.96029" lon="0.25344">
        <ele>973</ele>
        <time>2019-08-08T05:28:43.000Z</time>
      </trkpt>
      <trkpt lat="42.96027" lon="0.25348">
        <ele>974</ele>
        <time>2019-08-08T05:28:44.000Z</time>
      </trkpt>
      <trkpt lat="42.96024" lon="0.25352">
        <ele>974</ele>
        <time>2019-08-08T05:28:45.000Z</time>
      </trkpt>
      <trkpt lat="42.96021" lon="0.25356">
        <ele>974</ele>
        <time>2019-08-08T05:28:46.000Z</time>
      </trkpt>
      <trkpt lat="42.96018" lon="0.2536">
        <ele>974</ele>
        <time>2019-08-08T05:28:47.000Z</time>
      </trkpt>
      <trkpt lat="42.96016" lon="0.25364">
        <ele>974</ele>
        <time>2019-08-08T05:28:48.000Z</time>
      </trkpt>
      <trkpt lat="42.96013" lon="0.25367">
        <ele>974</ele>
        <time>2019-08-08T05:28:49.000Z</time>
      </trkpt>
      <trkpt lat="42.9601" lon="0.25371">
        <ele>974</ele>
        <time>2019-08-08T05:28:50.000Z</time>
      </trkpt>
      <trkpt lat="42.96007" lon="0.25374">
        <ele>975</ele>
        <time>2019-08-08T05:28:51.000Z</time>
      </trkpt>
      <trkpt lat="42.96004" lon="0.25378">
        <ele>975</ele>
        <time>2019-08-08T05:28:52.000Z</time>
      </trkpt>
      <trkpt lat="42.96001" lon="0.25382">
        <ele>976</ele>
        <time>2019-08-08T05:28:53.000Z</time>
      </trkpt>
      <trkpt lat="42.95998" lon="0.25386">
        <ele>976</ele>
        <time>2019-08-08T05:28:54.000Z</time>
      </trkpt>
      <trkpt lat="42.95996" lon="0.2539">
        <ele>976</ele>
        <time>2019-08-08T05:28:55.000Z</time>
      </trkpt>
      <trkpt lat="42.95993" lon="0.25394">
        <ele>976</ele>
        <time>2019-08-08T05:28:56.000Z</time>
      </trkpt>
      <trkpt lat="42.9599" lon="0.25398">
        <ele>977</ele>
        <time>2019-08-08T05:28:57.000Z</time>
      </trkpt>
      <trkpt lat="42.95987" lon="0.25402">
        <ele>977</ele>
        <time>2019-08-08T05:28:58.000Z</time>
      </trkpt>
      <trkpt lat="42.95984" lon="0.25405">
        <ele>977</ele>
        <time>2019-08-08T05:28:59.000Z</time>
      </trkpt>
      <trkpt lat="42.95981" lon="0.25409">
        <ele>977</ele>
        <time>2019-08-08T05:29:00.000Z</time>
      </trkpt>
      <trkpt lat="42.95978" lon="0.25412">
        <ele>977</ele>
        <time>2019-08-08T05:29:01.000Z</time>
      </trkpt>
      <trkpt lat="42.95975" lon="0.25416">
        <ele>977</ele>
        <time>2019-08-08T05:29:02.000Z</time>
      </trkpt>
      <trkpt lat="42.95973" lon="0.25419">
        <ele>978</ele>
        <time>2019-08-08T05:29:03.000Z</time>
      </trkpt>
      <trkpt lat="42.9597" lon="0.25423">
        <ele>978</ele>
        <time>2019-08-08T05:29:04.000Z</time>
      </trkpt>
      <trkpt lat="42.95967" lon="0.25426">
        <ele>978</ele>
        <time>2019-08-08T05:29:05.000Z</time>
      </trkpt>
      <trkpt lat="42.95964" lon="0.25429">
        <ele>978</ele>
        <time>2019-08-08T05:29:06.000Z</time>
      </trkpt>
      <trkpt lat="42.95961" lon="0.25433">
        <ele>980</ele>
        <time>2019-08-08T05:29:07.000Z</time>
      </trkpt>
      <trkpt lat="42.95958" lon="0.25437">
        <ele>980</ele>
        <time>2019-08-08T05:29:08.000Z</time>
      </trkpt>
      <trkpt lat="42.95956" lon="0.2544">
        <ele>980</ele>
        <time>2019-08-08T05:29:09.000Z</time>
      </trkpt>
      <trkpt lat="42.95953" lon="0.25444">
        <ele>980</ele>
        <time>2019-08-08T05:29:10.000Z</time>
      </trkpt>
      <trkpt lat="42.9595" lon="0.25448">
        <ele>981</ele>
        <time>2019-08-08T05:29:11.000Z</time>
      </trkpt>
      <trkpt lat="42.95947" lon="0.25451">
        <ele>981</ele>
        <time>2019-08-08T05:29:12.000Z</time>
      </trkpt>
      <trkpt lat="42.95944" lon="0.25454">
        <ele>981</ele>
        <time>2019-08-08T05:29:13.000Z</time>
      </trkpt>
      <trkpt lat="42.9594" lon="0.25457">
        <ele>981</ele>
        <time>2019-08-08T05:29:14.000Z</time>
      </trkpt>
      <trkpt lat="42.95937" lon="0.2546">
        <ele>981</ele>
        <time>2019-08-08T05:29:15.000Z</time>
      </trkpt>
      <trkpt lat="42.95934" lon="0.25463">
        <ele>981</ele>
        <time>2019-08-08T05:29:16.000Z</time>
      </trkpt>
      <trkpt lat="42.95931" lon="0.25466">
        <ele>982</ele>
        <time>2019-08-08T05:29:17.000Z</time>
      </trkpt>
      <trkpt lat="42.95927" lon="0.25469">
        <ele>982</ele>
        <time>2019-08-08T05:29:18.000Z</time>
      </trkpt>
      <trkpt lat="42.95924" lon="0.25471">
        <ele>982</ele>
        <time>2019-08-08T05:29:19.000Z</time>
      </trkpt>
      <trkpt lat="42.9592" lon="0.25474">
        <ele>982</ele>
        <time>2019-08-08T05:29:20.000Z</time>
      </trkpt>
      <trkpt lat="42.95916" lon="0.25477">
        <ele>982</ele>
        <time>2019-08-08T05:29:21.000Z</time>
      </trkpt>
      <trkpt lat="42.95913" lon="0.2548">
        <ele>982</ele>
        <time>2019-08-08T05:29:22.000Z</time>
      </trkpt>
      <trkpt lat="42.95909" lon="0.25483">
        <ele>982</ele>
        <time>2019-08-08T05:29:23.000Z</time>
      </trkpt>
      <trkpt lat="42.95905" lon="0.25486">
        <ele>982</ele>
        <time>2019-08-08T05:29:24.000Z</time>
      </trkpt>
      <trkpt lat="42.95901" lon="0.25489">
        <ele>982</ele>
        <time>2019-08-08T05:29:25.000Z</time>
      </trkpt>
      <trkpt lat="42.95897" lon="0.25492">
        <ele>982</ele>
        <time>2019-08-08T05:29:26.000Z</time>
      </trkpt>
      <trkpt lat="42.95894" lon="0.25495">
        <ele>982</ele>
        <time>2019-08-08T05:29:27.000Z</time>
      </trkpt>
      <trkpt lat="42.9589" lon="0.25498">
        <ele>982</ele>
        <time>2019-08-08T05:29:28.000Z</time>
      </trkpt>
      <trkpt lat="42.95886" lon="0.25502">
        <ele>982</ele>
        <time>2019-08-08T05:29:29.000Z</time>
      </trkpt>
      <trkpt lat="42.95882" lon="0.25505">
        <ele>982</ele>
        <time>2019-08-08T05:29:30.000Z</time>
      </trkpt>
      <trkpt lat="42.95879" lon="0.25509">
        <ele>982</ele>
        <time>2019-08-08T05:29:31.000Z</time>
      </trkpt>
      <trkpt lat="42.95875" lon="0.25513">
        <ele>982</ele>
        <time>2019-08-08T05:29:32.000Z</time>
      </trkpt>
      <trkpt lat="42.95871" lon="0.25516">
        <ele>982</ele>
        <time>2019-08-08T05:29:33.000Z</time>
      </trkpt>
      <trkpt lat="42.95867" lon="0.2552">
        <ele>982</ele>
        <time>2019-08-08T05:29:34.000Z</time>
      </trkpt>
      <trkpt lat="42.95863" lon="0.25524">
        <ele>982</ele>
        <time>2019-08-08T05:29:35.000Z</time>
      </trkpt>
      <trkpt lat="42.95859" lon="0.25528">
        <ele>982</ele>
        <time>2019-08-08T05:29:36.000Z</time>
      </trkpt>
      <trkpt lat="42.95855" lon="0.25532">
        <ele>982</ele>
        <time>2019-08-08T05:29:37.000Z</time>
      </trkpt>
      <trkpt lat="42.95851" lon="0.25536">
        <ele>982</ele>
        <time>2019-08-08T05:29:38.000Z</time>
      </trkpt>
      <trkpt lat="42.95847" lon="0.2554">
        <ele>982</ele>
        <time>2019-08-08T05:29:39.000Z</time>
      </trkpt>
      <trkpt lat="42.95843" lon="0.25544">
        <ele>982</ele>
        <time>2019-08-08T05:29:40.000Z</time>
      </trkpt>
      <trkpt lat="42.95839" lon="0.25548">
        <ele>982</ele>
        <time>2019-08-08T05:29:41.000Z</time>
      </trkpt>
      <trkpt lat="42.95836" lon="0.25552">
        <ele>982</ele>
        <time>2019-08-08T05:29:42.000Z</time>
      </trkpt>
      <trkpt lat="42.95832" lon="0.25556">
        <ele>982</ele>
        <time>2019-08-08T05:29:43.000Z</time>
      </trkpt>
      <trkpt lat="42.95828" lon="0.2556">
        <ele>983</ele>
        <time>2019-08-08T05:29:44.000Z</time>
      </trkpt>
      <trkpt lat="42.95825" lon="0.25564">
        <ele>983</ele>
        <time>2019-08-08T05:29:45.000Z</time>
      </trkpt>
      <trkpt lat="42.95821" lon="0.25569">
        <ele>983</ele>
        <time>2019-08-08T05:29:46.000Z</time>
      </trkpt>
      <trkpt lat="42.95817" lon="0.25573">
        <ele>983</ele>
        <time>2019-08-08T05:29:47.000Z</time>
      </trkpt>
      <trkpt lat="42.95813" lon="0.25577">
        <ele>983</ele>
        <time>2019-08-08T05:29:48.000Z</time>
      </trkpt>
      <trkpt lat="42.9581" lon="0.2558">
        <ele>983</ele>
        <time>2019-08-08T05:29:49.000Z</time>
      </trkpt>
      <trkpt lat="42.95807" lon="0.25584">
        <ele>983</ele>
        <time>2019-08-08T05:29:50.000Z</time>
      </trkpt>
      <trkpt lat="42.95804" lon="0.25588">
        <ele>983</ele>
        <time>2019-08-08T05:29:51.000Z</time>
      </trkpt>
      <trkpt lat="42.958" lon="0.25592">
        <ele>983</ele>
        <time>2019-08-08T05:29:52.000Z</time>
      </trkpt>
      <trkpt lat="42.95797" lon="0.25596">
        <ele>983</ele>
        <time>2019-08-08T05:29:53.000Z</time>
      </trkpt>
      <trkpt lat="42.95793" lon="0.25601">
        <ele>984</ele>
        <time>2019-08-08T05:29:54.000Z</time>
      </trkpt>
      <trkpt lat="42.9579" lon="0.25605">
        <ele>984</ele>
        <time>2019-08-08T05:29:55.000Z</time>
      </trkpt>
      <trkpt lat="42.95786" lon="0.25609">
        <ele>984</ele>
        <time>2019-08-08T05:29:56.000Z</time>
      </trkpt>
      <trkpt lat="42.95783" lon="0.25613">
        <ele>984</ele>
        <time>2019-08-08T05:29:57.000Z</time>
      </trkpt>
      <trkpt lat="42.9578" lon="0.25618">
        <ele>985</ele>
        <time>2019-08-08T05:29:58.000Z</time>
      </trkpt>
      <trkpt lat="42.95777" lon="0.25622">
        <ele>985</ele>
        <time>2019-08-08T05:29:59.000Z</time>
      </trkpt>
      <trkpt lat="42.95774" lon="0.25627">
        <ele>985</ele>
        <time>2019-08-08T05:30:00.000Z</time>
      </trkpt>
      <trkpt lat="42.9577" lon="0.25631">
        <ele>985</ele>
        <time>2019-08-08T05:30:01.000Z</time>
      </trkpt>
      <trkpt lat="42.95767" lon="0.25636">
        <ele>985</ele>
        <time>2019-08-08T05:30:02.000Z</time>
      </trkpt>
      <trkpt lat="42.95764" lon="0.2564">
        <ele>985</ele>
        <time>2019-08-08T05:30:03.000Z</time>
      </trkpt>
      <trkpt lat="42.95761" lon="0.25644">
        <ele>986</ele>
        <time>2019-08-08T05:30:04.000Z</time>
      </trkpt>
      <trkpt lat="42.95758" lon="0.25648">
        <ele>986</ele>
        <time>2019-08-08T05:30:05.000Z</time>
      </trkpt>
      <trkpt lat="42.95754" lon="0.25652">
        <ele>986</ele>
        <time>2019-08-08T05:30:06.000Z</time>
      </trkpt>
      <trkpt lat="42.95751" lon="0.25656">
        <ele>986</ele>
        <time>2019-08-08T05:30:07.000Z</time>
      </trkpt>
      <trkpt lat="42.95748" lon="0.2566">
        <ele>986</ele>
        <time>2019-08-08T05:30:08.000Z</time>
      </trkpt>
      <trkpt lat="42.95742" lon="0.25666">
        <ele>986</ele>
        <time>2019-08-08T05:30:09.000Z</time>
      </trkpt>
      <trkpt lat="42.95741" lon="0.25668">
        <ele>986</ele>
        <time>2019-08-08T05:30:10.000Z</time>
      </trkpt>
      <trkpt lat="42.95737" lon="0.25671">
        <ele>986</ele>
        <time>2019-08-08T05:30:11.000Z</time>
      </trkpt>
      <trkpt lat="42.95734" lon="0.25675">
        <ele>987</ele>
        <time>2019-08-08T05:30:12.000Z</time>
      </trkpt>
      <trkpt lat="42.9573" lon="0.25679">
        <ele>987</ele>
        <time>2019-08-08T05:30:13.000Z</time>
      </trkpt>
      <trkpt lat="42.95726" lon="0.25683">
        <ele>987</ele>
        <time>2019-08-08T05:30:14.000Z</time>
      </trkpt>
      <trkpt lat="42.95723" lon="0.25687">
        <ele>987</ele>
        <time>2019-08-08T05:30:15.000Z</time>
      </trkpt>
      <trkpt lat="42.95719" lon="0.25691">
        <ele>987</ele>
        <time>2019-08-08T05:30:16.000Z</time>
      </trkpt>
      <trkpt lat="42.95715" lon="0.25695">
        <ele>987</ele>
        <time>2019-08-08T05:30:17.000Z</time>
      </trkpt>
      <trkpt lat="42.95712" lon="0.25698">
        <ele>987</ele>
        <time>2019-08-08T05:30:18.000Z</time>
      </trkpt>
      <trkpt lat="42.95708" lon="0.25703">
        <ele>987</ele>
        <time>2019-08-08T05:30:19.000Z</time>
      </trkpt>
      <trkpt lat="42.95704" lon="0.25707">
        <ele>987</ele>
        <time>2019-08-08T05:30:20.000Z</time>
      </trkpt>
      <trkpt lat="42.957" lon="0.25711">
        <ele>987</ele>
        <time>2019-08-08T05:30:21.000Z</time>
      </trkpt>
      <trkpt lat="42.95696" lon="0.25715">
        <ele>987</ele>
        <time>2019-08-08T05:30:22.000Z</time>
      </trkpt>
      <trkpt lat="42.95692" lon="0.25718">
        <ele>987</ele>
        <time>2019-08-08T05:30:23.000Z</time>
      </trkpt>
      <trkpt lat="42.95688" lon="0.25722">
        <ele>987</ele>
        <time>2019-08-08T05:30:24.000Z</time>
      </trkpt>
      <trkpt lat="42.95684" lon="0.25726">
        <ele>987</ele>
        <time>2019-08-08T05:30:25.000Z</time>
      </trkpt>
      <trkpt lat="42.9568" lon="0.2573">
        <ele>987</ele>
        <time>2019-08-08T05:30:26.000Z</time>
      </trkpt>
      <trkpt lat="42.95676" lon="0.25734">
        <ele>988</ele>
        <time>2019-08-08T05:30:27.000Z</time>
      </trkpt>
      <trkpt lat="42.95672" lon="0.25738">
        <ele>988</ele>
        <time>2019-08-08T05:30:28.000Z</time>
      </trkpt>
      <trkpt lat="42.95668" lon="0.25742">
        <ele>988</ele>
        <time>2019-08-08T05:30:29.000Z</time>
      </trkpt>
      <trkpt lat="42.95664" lon="0.25745">
        <ele>988</ele>
        <time>2019-08-08T05:30:30.000Z</time>
      </trkpt>
      <trkpt lat="42.95661" lon="0.25749">
        <ele>989</ele>
        <time>2019-08-08T05:30:31.000Z</time>
      </trkpt>
      <trkpt lat="42.95657" lon="0.25752">
        <ele>989</ele>
        <time>2019-08-08T05:30:32.000Z</time>
      </trkpt>
      <trkpt lat="42.95653" lon="0.25756">
        <ele>989</ele>
        <time>2019-08-08T05:30:33.000Z</time>
      </trkpt>
      <trkpt lat="42.95649" lon="0.25759">
        <ele>989</ele>
        <time>2019-08-08T05:30:34.000Z</time>
      </trkpt>
      <trkpt lat="42.95646" lon="0.25762">
        <ele>990</ele>
        <time>2019-08-08T05:30:35.000Z</time>
      </trkpt>
      <trkpt lat="42.95642" lon="0.25766">
        <ele>990</ele>
        <time>2019-08-08T05:30:36.000Z</time>
      </trkpt>
      <trkpt lat="42.95638" lon="0.2577">
        <ele>990</ele>
        <time>2019-08-08T05:30:37.000Z</time>
      </trkpt>
      <trkpt lat="42.95635" lon="0.25773">
        <ele>990</ele>
        <time>2019-08-08T05:30:38.000Z</time>
      </trkpt>
      <trkpt lat="42.95632" lon="0.25777">
        <ele>991</ele>
        <time>2019-08-08T05:30:39.000Z</time>
      </trkpt>
      <trkpt lat="42.95628" lon="0.25781">
        <ele>991</ele>
        <time>2019-08-08T05:30:40.000Z</time>
      </trkpt>
      <trkpt lat="42.95624" lon="0.25785">
        <ele>991</ele>
        <time>2019-08-08T05:30:41.000Z</time>
      </trkpt>
      <trkpt lat="42.95621" lon="0.25789">
        <ele>991</ele>
        <time>2019-08-08T05:30:42.000Z</time>
      </trkpt>
      <trkpt lat="42.95617" lon="0.25793">
        <ele>991</ele>
        <time>2019-08-08T05:30:43.000Z</time>
      </trkpt>
      <trkpt lat="42.95614" lon="0.25798">
        <ele>992</ele>
        <time>2019-08-08T05:30:44.000Z</time>
      </trkpt>
      <trkpt lat="42.95611" lon="0.25803">
        <ele>992</ele>
        <time>2019-08-08T05:30:45.000Z</time>
      </trkpt>
      <trkpt lat="42.95607" lon="0.25807">
        <ele>992</ele>
        <time>2019-08-08T05:30:46.000Z</time>
      </trkpt>
      <trkpt lat="42.95604" lon="0.25812">
        <ele>992</ele>
        <time>2019-08-08T05:30:47.000Z</time>
      </trkpt>
      <trkpt lat="42.95601" lon="0.25816">
        <ele>993</ele>
        <time>2019-08-08T05:30:48.000Z</time>
      </trkpt>
      <trkpt lat="42.95599" lon="0.25821">
        <ele>993</ele>
        <time>2019-08-08T05:30:49.000Z</time>
      </trkpt>
      <trkpt lat="42.95596" lon="0.25826">
        <ele>993</ele>
        <time>2019-08-08T05:30:50.000Z</time>
      </trkpt>
      <trkpt lat="42.95593" lon="0.25831">
        <ele>993</ele>
        <time>2019-08-08T05:30:51.000Z</time>
      </trkpt>
      <trkpt lat="42.95591" lon="0.25837">
        <ele>993</ele>
        <time>2019-08-08T05:30:52.000Z</time>
      </trkpt>
      <trkpt lat="42.95588" lon="0.25842">
        <ele>993</ele>
        <time>2019-08-08T05:30:53.000Z</time>
      </trkpt>
      <trkpt lat="42.95586" lon="0.25847">
        <ele>994</ele>
        <time>2019-08-08T05:30:54.000Z</time>
      </trkpt>
      <trkpt lat="42.95583" lon="0.25853">
        <ele>994</ele>
        <time>2019-08-08T05:30:55.000Z</time>
      </trkpt>
      <trkpt lat="42.95581" lon="0.25859">
        <ele>994</ele>
        <time>2019-08-08T05:30:56.000Z</time>
      </trkpt>
      <trkpt lat="42.95579" lon="0.25865">
        <ele>994</ele>
        <time>2019-08-08T05:30:57.000Z</time>
      </trkpt>
      <trkpt lat="42.95577" lon="0.25871">
        <ele>993</ele>
        <time>2019-08-08T05:30:58.000Z</time>
      </trkpt>
      <trkpt lat="42.95575" lon="0.25877">
        <ele>993</ele>
        <time>2019-08-08T05:30:59.000Z</time>
      </trkpt>
      <trkpt lat="42.95574" lon="0.25883">
        <ele>994</ele>
        <time>2019-08-08T05:31:00.000Z</time>
      </trkpt>
      <trkpt lat="42.95572" lon="0.2589">
        <ele>994</ele>
        <time>2019-08-08T05:31:01.000Z</time>
      </trkpt>
      <trkpt lat="42.9557" lon="0.25896">
        <ele>994</ele>
        <time>2019-08-08T05:31:02.000Z</time>
      </trkpt>
      <trkpt lat="42.95568" lon="0.25902">
        <ele>994</ele>
        <time>2019-08-08T05:31:03.000Z</time>
      </trkpt>
      <trkpt lat="42.95566" lon="0.25909">
        <ele>994</ele>
        <time>2019-08-08T05:31:04.000Z</time>
      </trkpt>
      <trkpt lat="42.95563" lon="0.25915">
        <ele>994</ele>
        <time>2019-08-08T05:31:05.000Z</time>
      </trkpt>
      <trkpt lat="42.95561" lon="0.25921">
        <ele>994</ele>
        <time>2019-08-08T05:31:06.000Z</time>
      </trkpt>
      <trkpt lat="42.95558" lon="0.25927">
        <ele>994</ele>
        <time>2019-08-08T05:31:07.000Z</time>
      </trkpt>
      <trkpt lat="42.95555" lon="0.25932">
        <ele>995</ele>
        <time>2019-08-08T05:31:08.000Z</time>
      </trkpt>
      <trkpt lat="42.95552" lon="0.25937">
        <ele>995</ele>
        <time>2019-08-08T05:31:09.000Z</time>
      </trkpt>
      <trkpt lat="42.95549" lon="0.25942">
        <ele>995</ele>
        <time>2019-08-08T05:31:10.000Z</time>
      </trkpt>
      <trkpt lat="42.95545" lon="0.25946">
        <ele>995</ele>
        <time>2019-08-08T05:31:11.000Z</time>
      </trkpt>
      <trkpt lat="42.95542" lon="0.2595">
        <ele>996</ele>
        <time>2019-08-08T05:31:12.000Z</time>
      </trkpt>
      <trkpt lat="42.95538" lon="0.25954">
        <ele>996</ele>
        <time>2019-08-08T05:31:13.000Z</time>
      </trkpt>
      <trkpt lat="42.95534" lon="0.25957">
        <ele>997</ele>
        <time>2019-08-08T05:31:14.000Z</time>
      </trkpt>
      <trkpt lat="42.9553" lon="0.2596">
        <ele>997</ele>
        <time>2019-08-08T05:31:15.000Z</time>
      </trkpt>
      <trkpt lat="42.95526" lon="0.25963">
        <ele>997</ele>
        <time>2019-08-08T05:31:16.000Z</time>
      </trkpt>
      <trkpt lat="42.95522" lon="0.25966">
        <ele>997</ele>
        <time>2019-08-08T05:31:17.000Z</time>
      </trkpt>
      <trkpt lat="42.95517" lon="0.25968">
        <ele>997</ele>
        <time>2019-08-08T05:31:18.000Z</time>
      </trkpt>
      <trkpt lat="42.95513" lon="0.25971">
        <ele>997</ele>
        <time>2019-08-08T05:31:19.000Z</time>
      </trkpt>
      <trkpt lat="42.95509" lon="0.25973">
        <ele>998</ele>
        <time>2019-08-08T05:31:20.000Z</time>
      </trkpt>
      <trkpt lat="42.95505" lon="0.25975">
        <ele>998</ele>
        <time>2019-08-08T05:31:21.000Z</time>
      </trkpt>
      <trkpt lat="42.95501" lon="0.25977">
        <ele>998</ele>
        <time>2019-08-08T05:31:22.000Z</time>
      </trkpt>
      <trkpt lat="42.95496" lon="0.25979">
        <ele>998</ele>
        <time>2019-08-08T05:31:23.000Z</time>
      </trkpt>
      <trkpt lat="42.95492" lon="0.2598">
        <ele>998</ele>
        <time>2019-08-08T05:31:24.000Z</time>
      </trkpt>
      <trkpt lat="42.95488" lon="0.25982">
        <ele>998</ele>
        <time>2019-08-08T05:31:25.000Z</time>
      </trkpt>
      <trkpt lat="42.95483" lon="0.25983">
        <ele>998</ele>
        <time>2019-08-08T05:31:26.000Z</time>
      </trkpt>
      <trkpt lat="42.95479" lon="0.25985">
        <ele>999</ele>
        <time>2019-08-08T05:31:27.000Z</time>
      </trkpt>
      <trkpt lat="42.95475" lon="0.25987">
        <ele>999</ele>
        <time>2019-08-08T05:31:28.000Z</time>
      </trkpt>
      <trkpt lat="42.95471" lon="0.25989">
        <ele>999</ele>
        <time>2019-08-08T05:31:29.000Z</time>
      </trkpt>
      <trkpt lat="42.95467" lon="0.2599">
        <ele>999</ele>
        <time>2019-08-08T05:31:30.000Z</time>
      </trkpt>
      <trkpt lat="42.95463" lon="0.25992">
        <ele>1000</ele>
        <time>2019-08-08T05:31:31.000Z</time>
      </trkpt>
      <trkpt lat="42.95459" lon="0.25994">
        <ele>1000</ele>
        <time>2019-08-08T05:31:32.000Z</time>
      </trkpt>
      <trkpt lat="42.95455" lon="0.25995">
        <ele>1000</ele>
        <time>2019-08-08T05:31:33.000Z</time>
      </trkpt>
      <trkpt lat="42.9545" lon="0.25997">
        <ele>1001</ele>
        <time>2019-08-08T05:31:34.000Z</time>
      </trkpt>
      <trkpt lat="42.95446" lon="0.25999">
        <ele>1001</ele>
        <time>2019-08-08T05:31:35.000Z</time>
      </trkpt>
      <trkpt lat="42.95442" lon="0.26">
        <ele>1001</ele>
        <time>2019-08-08T05:31:36.000Z</time>
      </trkpt>
      <trkpt lat="42.95438" lon="0.26002">
        <ele>1001</ele>
        <time>2019-08-08T05:31:37.000Z</time>
      </trkpt>
      <trkpt lat="42.95434" lon="0.26004">
        <ele>1001</ele>
        <time>2019-08-08T05:31:38.000Z</time>
      </trkpt>
      <trkpt lat="42.9543" lon="0.26005">
        <ele>1001</ele>
        <time>2019-08-08T05:31:39.000Z</time>
      </trkpt>
      <trkpt lat="42.95426" lon="0.26007">
        <ele>1001</ele>
        <time>2019-08-08T05:31:40.000Z</time>
      </trkpt>
      <trkpt lat="42.95423" lon="0.26008">
        <ele>1001</ele>
        <time>2019-08-08T05:31:41.000Z</time>
      </trkpt>
      <trkpt lat="42.95419" lon="0.2601">
        <ele>1001</ele>
        <time>2019-08-08T05:31:42.000Z</time>
      </trkpt>
      <trkpt lat="42.95415" lon="0.26011">
        <ele>1001</ele>
        <time>2019-08-08T05:31:43.000Z</time>
      </trkpt>
      <trkpt lat="42.95411" lon="0.26013">
        <ele>1002</ele>
        <time>2019-08-08T05:31:44.000Z</time>
      </trkpt>
      <trkpt lat="42.95407" lon="0.26015">
        <ele>1002</ele>
        <time>2019-08-08T05:31:45.000Z</time>
      </trkpt>
      <trkpt lat="42.95403" lon="0.26017">
        <ele>1002</ele>
        <time>2019-08-08T05:31:46.000Z</time>
      </trkpt>
      <trkpt lat="42.95399" lon="0.26019">
        <ele>1002</ele>
        <time>2019-08-08T05:31:47.000Z</time>
      </trkpt>
      <trkpt lat="42.95395" lon="0.26021">
        <ele>1002</ele>
        <time>2019-08-08T05:31:48.000Z</time>
      </trkpt>
      <trkpt lat="42.95391" lon="0.26023">
        <ele>1002</ele>
        <time>2019-08-08T05:31:49.000Z</time>
      </trkpt>
      <trkpt lat="42.95388" lon="0.26026">
        <ele>1002</ele>
        <time>2019-08-08T05:31:50.000Z</time>
      </trkpt>
      <trkpt lat="42.95384" lon="0.26028">
        <ele>1003</ele>
        <time>2019-08-08T05:31:51.000Z</time>
      </trkpt>
      <trkpt lat="42.9538" lon="0.26031">
        <ele>1003</ele>
        <time>2019-08-08T05:31:52.000Z</time>
      </trkpt>
      <trkpt lat="42.95377" lon="0.26034">
        <ele>1003</ele>
        <time>2019-08-08T05:31:53.000Z</time>
      </trkpt>
      <trkpt lat="42.95373" lon="0.26037">
        <ele>1003</ele>
        <time>2019-08-08T05:31:54.000Z</time>
      </trkpt>
      <trkpt lat="42.9537" lon="0.2604">
        <ele>1003</ele>
        <time>2019-08-08T05:31:55.000Z</time>
      </trkpt>
      <trkpt lat="42.95367" lon="0.26044">
        <ele>1003</ele>
        <time>2019-08-08T05:31:56.000Z</time>
      </trkpt>
      <trkpt lat="42.95364" lon="0.26048">
        <ele>1003</ele>
        <time>2019-08-08T05:31:57.000Z</time>
      </trkpt>
      <trkpt lat="42.95361" lon="0.26052">
        <ele>1003</ele>
        <time>2019-08-08T05:31:58.000Z</time>
      </trkpt>
      <trkpt lat="42.95359" lon="0.26056">
        <ele>1005</ele>
        <time>2019-08-08T05:31:59.000Z</time>
      </trkpt>
      <trkpt lat="42.95356" lon="0.2606">
        <ele>1005</ele>
        <time>2019-08-08T05:32:00.000Z</time>
      </trkpt>
      <trkpt lat="42.95353" lon="0.26065">
        <ele>1005</ele>
        <time>2019-08-08T05:32:01.000Z</time>
      </trkpt>
      <trkpt lat="42.95351" lon="0.26069">
        <ele>1005</ele>
        <time>2019-08-08T05:32:02.000Z</time>
      </trkpt>
      <trkpt lat="42.95348" lon="0.26074">
        <ele>1005</ele>
        <time>2019-08-08T05:32:03.000Z</time>
      </trkpt>
      <trkpt lat="42.95346" lon="0.26079">
        <ele>1006</ele>
        <time>2019-08-08T05:32:04.000Z</time>
      </trkpt>
      <trkpt lat="42.95343" lon="0.26084">
        <ele>1006</ele>
        <time>2019-08-08T05:32:05.000Z</time>
      </trkpt>
      <trkpt lat="42.95341" lon="0.26088">
        <ele>1006</ele>
        <time>2019-08-08T05:32:06.000Z</time>
      </trkpt>
      <trkpt lat="42.95338" lon="0.26093">
        <ele>1006</ele>
        <time>2019-08-08T05:32:07.000Z</time>
      </trkpt>
      <trkpt lat="42.95336" lon="0.26098">
        <ele>1007</ele>
        <time>2019-08-08T05:32:08.000Z</time>
      </trkpt>
      <trkpt lat="42.95333" lon="0.26102">
        <ele>1007</ele>
        <time>2019-08-08T05:32:09.000Z</time>
      </trkpt>
      <trkpt lat="42.95331" lon="0.26107">
        <ele>1007</ele>
        <time>2019-08-08T05:32:10.000Z</time>
      </trkpt>
      <trkpt lat="42.95328" lon="0.26112">
        <ele>1007</ele>
        <time>2019-08-08T05:32:11.000Z</time>
      </trkpt>
      <trkpt lat="42.95326" lon="0.26117">
        <ele>1007</ele>
        <time>2019-08-08T05:32:12.000Z</time>
      </trkpt>
      <trkpt lat="42.95323" lon="0.26121">
        <ele>1007</ele>
        <time>2019-08-08T05:32:13.000Z</time>
      </trkpt>
      <trkpt lat="42.95321" lon="0.26126">
        <ele>1007</ele>
        <time>2019-08-08T05:32:14.000Z</time>
      </trkpt>
      <trkpt lat="42.95318" lon="0.26131">
        <ele>1007</ele>
        <time>2019-08-08T05:32:15.000Z</time>
      </trkpt>
      <trkpt lat="42.95316" lon="0.26136">
        <ele>1008</ele>
        <time>2019-08-08T05:32:16.000Z</time>
      </trkpt>
      <trkpt lat="42.95313" lon="0.2614">
        <ele>1008</ele>
        <time>2019-08-08T05:32:17.000Z</time>
      </trkpt>
      <trkpt lat="42.9531" lon="0.26145">
        <ele>1008</ele>
        <time>2019-08-08T05:32:18.000Z</time>
      </trkpt>
      <trkpt lat="42.95308" lon="0.26149">
        <ele>1008</ele>
        <time>2019-08-08T05:32:19.000Z</time>
      </trkpt>
      <trkpt lat="42.95305" lon="0.26154">
        <ele>1008</ele>
        <time>2019-08-08T05:32:20.000Z</time>
      </trkpt>
      <trkpt lat="42.95303" lon="0.26158">
        <ele>1009</ele>
        <time>2019-08-08T05:32:21.000Z</time>
      </trkpt>
      <trkpt lat="42.953" lon="0.26162">
        <ele>1009</ele>
        <time>2019-08-08T05:32:22.000Z</time>
      </trkpt>
      <trkpt lat="42.95298" lon="0.26169">
        <ele>1009</ele>
        <time>2019-08-08T05:32:23.000Z</time>
      </trkpt>
      <trkpt lat="42.95297" lon="0.2617">
        <ele>1009</ele>
        <time>2019-08-08T05:32:24.000Z</time>
      </trkpt>
      <trkpt lat="42.95295" lon="0.26174">
        <ele>1009</ele>
        <time>2019-08-08T05:32:25.000Z</time>
      </trkpt>
      <trkpt lat="42.95293" lon="0.26178">
        <ele>1010</ele>
        <time>2019-08-08T05:32:26.000Z</time>
      </trkpt>
      <trkpt lat="42.95292" lon="0.26182">
        <ele>1010</ele>
        <time>2019-08-08T05:32:27.000Z</time>
      </trkpt>
      <trkpt lat="42.9529" lon="0.26186">
        <ele>1011</ele>
        <time>2019-08-08T05:32:28.000Z</time>
      </trkpt>
      <trkpt lat="42.95289" lon="0.2619">
        <ele>1011</ele>
        <time>2019-08-08T05:32:29.000Z</time>
      </trkpt>
      <trkpt lat="42.95286" lon="0.26195">
        <ele>1011</ele>
        <time>2019-08-08T05:32:30.000Z</time>
      </trkpt>
      <trkpt lat="42.95284" lon="0.26199">
        <ele>1012</ele>
        <time>2019-08-08T05:32:31.000Z</time>
      </trkpt>
      <trkpt lat="42.95282" lon="0.26203">
        <ele>1012</ele>
        <time>2019-08-08T05:32:32.000Z</time>
      </trkpt>
      <trkpt lat="42.95281" lon="0.26208">
        <ele>1012</ele>
        <time>2019-08-08T05:32:33.000Z</time>
      </trkpt>
      <trkpt lat="42.95278" lon="0.26212">
        <ele>1012</ele>
        <time>2019-08-08T05:32:34.000Z</time>
      </trkpt>
      <trkpt lat="42.95276" lon="0.26217">
        <ele>1013</ele>
        <time>2019-08-08T05:32:35.000Z</time>
      </trkpt>
      <trkpt lat="42.95273" lon="0.26222">
        <ele>1013</ele>
        <time>2019-08-08T05:32:36.000Z</time>
      </trkpt>
      <trkpt lat="42.95271" lon="0.26227">
        <ele>1013</ele>
        <time>2019-08-08T05:32:37.000Z</time>
      </trkpt>
      <trkpt lat="42.95268" lon="0.26233">
        <ele>1013</ele>
        <time>2019-08-08T05:32:38.000Z</time>
      </trkpt>
      <trkpt lat="42.95265" lon="0.26239">
        <ele>1013</ele>
        <time>2019-08-08T05:32:39.000Z</time>
      </trkpt>
      <trkpt lat="42.95263" lon="0.26243">
        <ele>1014</ele>
        <time>2019-08-08T05:32:40.000Z</time>
      </trkpt>
      <trkpt lat="42.95261" lon="0.26248">
        <ele>1014</ele>
        <time>2019-08-08T05:32:41.000Z</time>
      </trkpt>
      <trkpt lat="42.9526" lon="0.26252">
        <ele>1015</ele>
        <time>2019-08-08T05:32:42.000Z</time>
      </trkpt>
      <trkpt lat="42.95258" lon="0.26256">
        <ele>1015</ele>
        <time>2019-08-08T05:32:43.000Z</time>
      </trkpt>
      <trkpt lat="42.95256" lon="0.26261">
        <ele>1015</ele>
        <time>2019-08-08T05:32:44.000Z</time>
      </trkpt>
      <trkpt lat="42.95254" lon="0.26264">
        <ele>1015</ele>
        <time>2019-08-08T05:32:45.000Z</time>
      </trkpt>
      <trkpt lat="42.95252" lon="0.26269">
        <ele>1016</ele>
        <time>2019-08-08T05:32:46.000Z</time>
      </trkpt>
      <trkpt lat="42.9525" lon="0.26273">
        <ele>1016</ele>
        <time>2019-08-08T05:32:47.000Z</time>
      </trkpt>
      <trkpt lat="42.95248" lon="0.26277">
        <ele>1017</ele>
        <time>2019-08-08T05:32:48.000Z</time>
      </trkpt>
      <trkpt lat="42.95246" lon="0.26281">
        <ele>1017</ele>
        <time>2019-08-08T05:32:49.000Z</time>
      </trkpt>
      <trkpt lat="42.95246" lon="0.26281">
        <ele>1017</ele>
        <time>2019-08-08T05:32:50.000Z</time>
      </trkpt>
      <trkpt lat="42.95243" lon="0.26289">
        <ele>1017</ele>
        <time>2019-08-08T05:32:51.000Z</time>
      </trkpt>
      <trkpt lat="42.95243" lon="0.26289">
        <ele>1018</ele>
        <time>2019-08-08T05:32:52.000Z</time>
      </trkpt>
      <trkpt lat="42.95243" lon="0.26289">
        <ele>1018</ele>
        <time>2019-08-08T05:32:53.000Z</time>
      </trkpt>
      <trkpt lat="42.95236" lon="0.26303">
        <ele>1019</ele>
        <time>2019-08-08T05:32:54.000Z</time>
      </trkpt>
      <trkpt lat="42.95235" lon="0.26306">
        <ele>1019</ele>
        <time>2019-08-08T05:32:56.000Z</time>
      </trkpt>
      <trkpt lat="42.95235" lon="0.26308">
        <ele>1019</ele>
        <time>2019-08-08T05:32:57.000Z</time>
      </trkpt>
      <trkpt lat="42.95233" lon="0.26315">
        <ele>1019</ele>
        <time>2019-08-08T05:32:58.000Z</time>
      </trkpt>
      <trkpt lat="42.95231" lon="0.26319">
        <ele>1019</ele>
        <time>2019-08-08T05:32:59.000Z</time>
      </trkpt>
      <trkpt lat="42.9523" lon="0.26323">
        <ele>1019</ele>
        <time>2019-08-08T05:33:00.000Z</time>
      </trkpt>
      <trkpt lat="42.95229" lon="0.26327">
        <ele>1020</ele>
        <time>2019-08-08T05:33:01.000Z</time>
      </trkpt>
      <trkpt lat="42.95229" lon="0.26327">
        <ele>1020</ele>
        <time>2019-08-08T05:33:02.000Z</time>
      </trkpt>
      <trkpt lat="42.95227" lon="0.26334">
        <ele>1020</ele>
        <time>2019-08-08T05:33:03.000Z</time>
      </trkpt>
      <trkpt lat="42.95226" lon="0.26338">
        <ele>1020</ele>
        <time>2019-08-08T05:33:04.000Z</time>
      </trkpt>
      <trkpt lat="42.95225" lon="0.26342">
        <ele>1022</ele>
        <time>2019-08-08T05:33:05.000Z</time>
      </trkpt>
      <trkpt lat="42.95224" lon="0.26346">
        <ele>1022</ele>
        <time>2019-08-08T05:33:06.000Z</time>
      </trkpt>
      <trkpt lat="42.95224" lon="0.26349">
        <ele>1022</ele>
        <time>2019-08-08T05:33:07.000Z</time>
      </trkpt>
      <trkpt lat="42.95224" lon="0.26353">
        <ele>1022</ele>
        <time>2019-08-08T05:33:08.000Z</time>
      </trkpt>
      <trkpt lat="42.95223" lon="0.26357">
        <ele>1023</ele>
        <time>2019-08-08T05:33:09.000Z</time>
      </trkpt>
      <trkpt lat="42.95223" lon="0.2636">
        <ele>1023</ele>
        <time>2019-08-08T05:33:10.000Z</time>
      </trkpt>
      <trkpt lat="42.95222" lon="0.26364">
        <ele>1023</ele>
        <time>2019-08-08T05:33:11.000Z</time>
      </trkpt>
      <trkpt lat="42.9522" lon="0.26368">
        <ele>1023</ele>
        <time>2019-08-08T05:33:12.000Z</time>
      </trkpt>
      <trkpt lat="42.95219" lon="0.26372">
        <ele>1023</ele>
        <time>2019-08-08T05:33:13.000Z</time>
      </trkpt>
      <trkpt lat="42.95218" lon="0.26376">
        <ele>1024</ele>
        <time>2019-08-08T05:33:14.000Z</time>
      </trkpt>
      <trkpt lat="42.95217" lon="0.26379">
        <ele>1024</ele>
        <time>2019-08-08T05:33:15.000Z</time>
      </trkpt>
      <trkpt lat="42.95216" lon="0.26382">
        <ele>1024</ele>
        <time>2019-08-08T05:33:16.000Z</time>
      </trkpt>
      <trkpt lat="42.95215" lon="0.26385">
        <ele>1025</ele>
        <time>2019-08-08T05:33:17.000Z</time>
      </trkpt>
      <trkpt lat="42.95213" lon="0.26389">
        <ele>1025</ele>
        <time>2019-08-08T05:33:18.000Z</time>
      </trkpt>
      <trkpt lat="42.95212" lon="0.26392">
        <ele>1026</ele>
        <time>2019-08-08T05:33:19.000Z</time>
      </trkpt>
      <trkpt lat="42.95212" lon="0.26392">
        <ele>1026</ele>
        <time>2019-08-08T05:33:20.000Z</time>
      </trkpt>
      <trkpt lat="42.95212" lon="0.26392">
        <ele>1026</ele>
        <time>2019-08-08T05:33:21.000Z</time>
      </trkpt>
      <trkpt lat="42.95212" lon="0.26392">
        <ele>1027</ele>
        <time>2019-08-08T05:33:22.000Z</time>
      </trkpt>
      <trkpt lat="42.95209" lon="0.26405">
        <ele>1027</ele>
        <time>2019-08-08T05:33:23.000Z</time>
      </trkpt>
      <trkpt lat="42.95207" lon="0.26409">
        <ele>1027</ele>
        <time>2019-08-08T05:33:24.000Z</time>
      </trkpt>
      <trkpt lat="42.95206" lon="0.26413">
        <ele>1027</ele>
        <time>2019-08-08T05:33:25.000Z</time>
      </trkpt>
      <trkpt lat="42.95204" lon="0.26417">
        <ele>1027</ele>
        <time>2019-08-08T05:33:26.000Z</time>
      </trkpt>
      <trkpt lat="42.95201" lon="0.26422">
        <ele>1027</ele>
        <time>2019-08-08T05:33:27.000Z</time>
      </trkpt>
      <trkpt lat="42.95199" lon="0.26425">
        <ele>1027</ele>
        <time>2019-08-08T05:33:28.000Z</time>
      </trkpt>
      <trkpt lat="42.95197" lon="0.26429">
        <ele>1027</ele>
        <time>2019-08-08T05:33:29.000Z</time>
      </trkpt>
      <trkpt lat="42.95194" lon="0.26432">
        <ele>1028</ele>
        <time>2019-08-08T05:33:30.000Z</time>
      </trkpt>
      <trkpt lat="42.95191" lon="0.26436">
        <ele>1028</ele>
        <time>2019-08-08T05:33:31.000Z</time>
      </trkpt>
      <trkpt lat="42.95189" lon="0.26439">
        <ele>1028</ele>
        <time>2019-08-08T05:33:32.000Z</time>
      </trkpt>
      <trkpt lat="42.95186" lon="0.26442">
        <ele>1028</ele>
        <time>2019-08-08T05:33:33.000Z</time>
      </trkpt>
      <trkpt lat="42.95183" lon="0.26445">
        <ele>1028</ele>
        <time>2019-08-08T05:33:34.000Z</time>
      </trkpt>
      <trkpt lat="42.9518" lon="0.26448">
        <ele>1028</ele>
        <time>2019-08-08T05:33:35.000Z</time>
      </trkpt>
      <trkpt lat="42.95177" lon="0.26451">
        <ele>1028</ele>
        <time>2019-08-08T05:33:36.000Z</time>
      </trkpt>
      <trkpt lat="42.95174" lon="0.26453">
        <ele>1028</ele>
        <time>2019-08-08T05:33:37.000Z</time>
      </trkpt>
      <trkpt lat="42.95171" lon="0.26457">
        <ele>1029</ele>
        <time>2019-08-08T05:33:38.000Z</time>
      </trkpt>
      <trkpt lat="42.95169" lon="0.2646">
        <ele>1029</ele>
        <time>2019-08-08T05:33:39.000Z</time>
      </trkpt>
      <trkpt lat="42.95166" lon="0.26463">
        <ele>1029</ele>
        <time>2019-08-08T05:33:40.000Z</time>
      </trkpt>
      <trkpt lat="42.95164" lon="0.26466">
        <ele>1029</ele>
        <time>2019-08-08T05:33:41.000Z</time>
      </trkpt>
      <trkpt lat="42.95162" lon="0.26469">
        <ele>1029</ele>
        <time>2019-08-08T05:33:42.000Z</time>
      </trkpt>
      <trkpt lat="42.9516" lon="0.26473">
        <ele>1029</ele>
        <time>2019-08-08T05:33:43.000Z</time>
      </trkpt>
      <trkpt lat="42.95158" lon="0.26477">
        <ele>1029</ele>
        <time>2019-08-08T05:33:44.000Z</time>
      </trkpt>
      <trkpt lat="42.95156" lon="0.26481">
        <ele>1029</ele>
        <time>2019-08-08T05:33:45.000Z</time>
      </trkpt>
      <trkpt lat="42.95154" lon="0.26484">
        <ele>1029</ele>
        <time>2019-08-08T05:33:46.000Z</time>
      </trkpt>
      <trkpt lat="42.95154" lon="0.26484">
        <ele>1029</ele>
        <time>2019-08-08T05:33:47.000Z</time>
      </trkpt>
      <trkpt lat="42.95154" lon="0.26484">
        <ele>1030</ele>
        <time>2019-08-08T05:33:48.000Z</time>
      </trkpt>
      <trkpt lat="42.95148" lon="0.26497">
        <ele>1030</ele>
        <time>2019-08-08T05:33:49.000Z</time>
      </trkpt>
      <trkpt lat="42.95147" lon="0.26499">
        <ele>1031</ele>
        <time>2019-08-08T05:33:50.000Z</time>
      </trkpt>
      <trkpt lat="42.95146" lon="0.265">
        <ele>1031</ele>
        <time>2019-08-08T05:33:51.000Z</time>
      </trkpt>
      <trkpt lat="42.95146" lon="0.26502">
        <ele>1032</ele>
        <time>2019-08-08T05:33:52.000Z</time>
      </trkpt>
      <trkpt lat="42.95143" lon="0.26509">
        <ele>1032</ele>
        <time>2019-08-08T05:33:53.000Z</time>
      </trkpt>
      <trkpt lat="42.95143" lon="0.26509">
        <ele>1032</ele>
        <time>2019-08-08T05:33:54.000Z</time>
      </trkpt>
      <trkpt lat="42.95143" lon="0.26509">
        <ele>1033</ele>
        <time>2019-08-08T05:33:55.000Z</time>
      </trkpt>
      <trkpt lat="42.95138" lon="0.2652">
        <ele>1033</ele>
        <time>2019-08-08T05:33:56.000Z</time>
      </trkpt>
      <trkpt lat="42.95138" lon="0.2652">
        <ele>1034</ele>
        <time>2019-08-08T05:33:57.000Z</time>
      </trkpt>
      <trkpt lat="42.95138" lon="0.2652">
        <ele>1034</ele>
        <time>2019-08-08T05:33:58.000Z</time>
      </trkpt>
      <trkpt lat="42.95136" lon="0.26533">
        <ele>1034</ele>
        <time>2019-08-08T05:33:59.000Z</time>
      </trkpt>
      <trkpt lat="42.95136" lon="0.26533">
        <ele>1034</ele>
        <time>2019-08-08T05:34:00.000Z</time>
      </trkpt>
      <trkpt lat="42.95135" lon="0.26542">
        <ele>1035</ele>
        <time>2019-08-08T05:34:01.000Z</time>
      </trkpt>
      <trkpt lat="42.95135" lon="0.26546">
        <ele>1035</ele>
        <time>2019-08-08T05:34:02.000Z</time>
      </trkpt>
      <trkpt lat="42.95135" lon="0.2655">
        <ele>1035</ele>
        <time>2019-08-08T05:34:03.000Z</time>
      </trkpt>
      <trkpt lat="42.95135" lon="0.26554">
        <ele>1035</ele>
        <time>2019-08-08T05:34:04.000Z</time>
      </trkpt>
      <trkpt lat="42.95135" lon="0.26559">
        <ele>1036</ele>
        <time>2019-08-08T05:34:05.000Z</time>
      </trkpt>
      <trkpt lat="42.95135" lon="0.26564">
        <ele>1036</ele>
        <time>2019-08-08T05:34:06.000Z</time>
      </trkpt>
      <trkpt lat="42.95135" lon="0.26568">
        <ele>1036</ele>
        <time>2019-08-08T05:34:07.000Z</time>
      </trkpt>
      <trkpt lat="42.95135" lon="0.26573">
        <ele>1036</ele>
        <time>2019-08-08T05:34:08.000Z</time>
      </trkpt>
      <trkpt lat="42.95135" lon="0.26578">
        <ele>1036</ele>
        <time>2019-08-08T05:34:09.000Z</time>
      </trkpt>
      <trkpt lat="42.95134" lon="0.26583">
        <ele>1036</ele>
        <time>2019-08-08T05:34:10.000Z</time>
      </trkpt>
      <trkpt lat="42.95134" lon="0.26588">
        <ele>1037</ele>
        <time>2019-08-08T05:34:11.000Z</time>
      </trkpt>
      <trkpt lat="42.95134" lon="0.26593">
        <ele>1037</ele>
        <time>2019-08-08T05:34:12.000Z</time>
      </trkpt>
      <trkpt lat="42.95134" lon="0.26598">
        <ele>1037</ele>
        <time>2019-08-08T05:34:13.000Z</time>
      </trkpt>
      <trkpt lat="42.95134" lon="0.26603">
        <ele>1037</ele>
        <time>2019-08-08T05:34:14.000Z</time>
      </trkpt>
      <trkpt lat="42.95133" lon="0.26608">
        <ele>1037</ele>
        <time>2019-08-08T05:34:15.000Z</time>
      </trkpt>
      <trkpt lat="42.95133" lon="0.26613">
        <ele>1037</ele>
        <time>2019-08-08T05:34:16.000Z</time>
      </trkpt>
      <trkpt lat="42.95132" lon="0.26618">
        <ele>1037</ele>
        <time>2019-08-08T05:34:17.000Z</time>
      </trkpt>
      <trkpt lat="42.95132" lon="0.26623">
        <ele>1038</ele>
        <time>2019-08-08T05:34:18.000Z</time>
      </trkpt>
      <trkpt lat="42.95131" lon="0.26628">
        <ele>1038</ele>
        <time>2019-08-08T05:34:19.000Z</time>
      </trkpt>
      <trkpt lat="42.9513" lon="0.26632">
        <ele>1038</ele>
        <time>2019-08-08T05:34:20.000Z</time>
      </trkpt>
      <trkpt lat="42.95129" lon="0.26637">
        <ele>1038</ele>
        <time>2019-08-08T05:34:21.000Z</time>
      </trkpt>
      <trkpt lat="42.95127" lon="0.26641">
        <ele>1038</ele>
        <time>2019-08-08T05:34:22.000Z</time>
      </trkpt>
      <trkpt lat="42.95126" lon="0.26646">
        <ele>1038</ele>
        <time>2019-08-08T05:34:23.000Z</time>
      </trkpt>
      <trkpt lat="42.95125" lon="0.26651">
        <ele>1038</ele>
        <time>2019-08-08T05:34:24.000Z</time>
      </trkpt>
      <trkpt lat="42.95123" lon="0.26655">
        <ele>1039</ele>
        <time>2019-08-08T05:34:25.000Z</time>
      </trkpt>
      <trkpt lat="42.95121" lon="0.2666">
        <ele>1039</ele>
        <time>2019-08-08T05:34:26.000Z</time>
      </trkpt>
      <trkpt lat="42.95119" lon="0.26665">
        <ele>1039</ele>
        <time>2019-08-08T05:34:27.000Z</time>
      </trkpt>
      <trkpt lat="42.95117" lon="0.2667">
        <ele>1039</ele>
        <time>2019-08-08T05:34:28.000Z</time>
      </trkpt>
      <trkpt lat="42.95114" lon="0.26674">
        <ele>1039</ele>
        <time>2019-08-08T05:34:29.000Z</time>
      </trkpt>
      <trkpt lat="42.95111" lon="0.26678">
        <ele>1039</ele>
        <time>2019-08-08T05:34:30.000Z</time>
      </trkpt>
      <trkpt lat="42.95107" lon="0.26681">
        <ele>1039</ele>
        <time>2019-08-08T05:34:31.000Z</time>
      </trkpt>
      <trkpt lat="42.95103" lon="0.26685">
        <ele>1039</ele>
        <time>2019-08-08T05:34:32.000Z</time>
      </trkpt>
      <trkpt lat="42.95099" lon="0.26687">
        <ele>1039</ele>
        <time>2019-08-08T05:34:33.000Z</time>
      </trkpt>
      <trkpt lat="42.95095" lon="0.2669">
        <ele>1039</ele>
        <time>2019-08-08T05:34:34.000Z</time>
      </trkpt>
      <trkpt lat="42.95091" lon="0.26693">
        <ele>1039</ele>
        <time>2019-08-08T05:34:35.000Z</time>
      </trkpt>
      <trkpt lat="42.95087" lon="0.26696">
        <ele>1039</ele>
        <time>2019-08-08T05:34:36.000Z</time>
      </trkpt>
      <trkpt lat="42.95083" lon="0.26699">
        <ele>1039</ele>
        <time>2019-08-08T05:34:37.000Z</time>
      </trkpt>
      <trkpt lat="42.9508" lon="0.26702">
        <ele>1039</ele>
        <time>2019-08-08T05:34:38.000Z</time>
      </trkpt>
      <trkpt lat="42.95076" lon="0.26705">
        <ele>1039</ele>
        <time>2019-08-08T05:34:39.000Z</time>
      </trkpt>
      <trkpt lat="42.95072" lon="0.26707">
        <ele>1039</ele>
        <time>2019-08-08T05:34:40.000Z</time>
      </trkpt>
      <trkpt lat="42.95069" lon="0.2671">
        <ele>1039</ele>
        <time>2019-08-08T05:34:41.000Z</time>
      </trkpt>
      <trkpt lat="42.95065" lon="0.26713">
        <ele>1039</ele>
        <time>2019-08-08T05:34:42.000Z</time>
      </trkpt>
      <trkpt lat="42.95062" lon="0.26716">
        <ele>1039</ele>
        <time>2019-08-08T05:34:43.000Z</time>
      </trkpt>
      <trkpt lat="42.95058" lon="0.26719">
        <ele>1039</ele>
        <time>2019-08-08T05:34:44.000Z</time>
      </trkpt>
      <trkpt lat="42.95055" lon="0.26722">
        <ele>1041</ele>
        <time>2019-08-08T05:34:45.000Z</time>
      </trkpt>
      <trkpt lat="42.95052" lon="0.26725">
        <ele>1041</ele>
        <time>2019-08-08T05:34:46.000Z</time>
      </trkpt>
      <trkpt lat="42.9505" lon="0.26728">
        <ele>1042</ele>
        <time>2019-08-08T05:34:47.000Z</time>
      </trkpt>
      <trkpt lat="42.95047" lon="0.26731">
        <ele>1042</ele>
        <time>2019-08-08T05:34:48.000Z</time>
      </trkpt>
      <trkpt lat="42.95045" lon="0.26734">
        <ele>1042</ele>
        <time>2019-08-08T05:34:49.000Z</time>
      </trkpt>
      <trkpt lat="42.95042" lon="0.26736">
        <ele>1042</ele>
        <time>2019-08-08T05:34:50.000Z</time>
      </trkpt>
      <trkpt lat="42.9504" lon="0.26739">
        <ele>1042</ele>
        <time>2019-08-08T05:34:51.000Z</time>
      </trkpt>
      <trkpt lat="42.95037" lon="0.26742">
        <ele>1043</ele>
        <time>2019-08-08T05:34:52.000Z</time>
      </trkpt>
      <trkpt lat="42.95035" lon="0.26744">
        <ele>1043</ele>
        <time>2019-08-08T05:34:53.000Z</time>
      </trkpt>
      <trkpt lat="42.95033" lon="0.26747">
        <ele>1044</ele>
        <time>2019-08-08T05:34:54.000Z</time>
      </trkpt>
      <trkpt lat="42.95031" lon="0.26749">
        <ele>1044</ele>
        <time>2019-08-08T05:34:55.000Z</time>
      </trkpt>
      <trkpt lat="42.95028" lon="0.26751">
        <ele>1045</ele>
        <time>2019-08-08T05:34:56.000Z</time>
      </trkpt>
      <trkpt lat="42.95025" lon="0.26753">
        <ele>1045</ele>
        <time>2019-08-08T05:34:57.000Z</time>
      </trkpt>
      <trkpt lat="42.95022" lon="0.26755">
        <ele>1045</ele>
        <time>2019-08-08T05:34:58.000Z</time>
      </trkpt>
      <trkpt lat="42.9502" lon="0.26757">
        <ele>1045</ele>
        <time>2019-08-08T05:34:59.000Z</time>
      </trkpt>
      <trkpt lat="42.95017" lon="0.26759">
        <ele>1045</ele>
        <time>2019-08-08T05:35:00.000Z</time>
      </trkpt>
      <trkpt lat="42.95014" lon="0.26761">
        <ele>1045</ele>
        <time>2019-08-08T05:35:01.000Z</time>
      </trkpt>
      <trkpt lat="42.95012" lon="0.26762">
        <ele>1046</ele>
        <time>2019-08-08T05:35:02.000Z</time>
      </trkpt>
      <trkpt lat="42.95009" lon="0.26764">
        <ele>1046</ele>
        <time>2019-08-08T05:35:03.000Z</time>
      </trkpt>
      <trkpt lat="42.95009" lon="0.26764">
        <ele>1046</ele>
        <time>2019-08-08T05:35:04.000Z</time>
      </trkpt>
      <trkpt lat="42.95004" lon="0.26768">
        <ele>1046</ele>
        <time>2019-08-08T05:35:05.000Z</time>
      </trkpt>
      <trkpt lat="42.95001" lon="0.2677">
        <ele>1047</ele>
        <time>2019-08-08T05:35:06.000Z</time>
      </trkpt>
      <trkpt lat="42.95001" lon="0.2677">
        <ele>1047</ele>
        <time>2019-08-08T05:35:07.000Z</time>
      </trkpt>
      <trkpt lat="42.94992" lon="0.26775">
        <ele>1048</ele>
        <time>2019-08-08T05:35:09.000Z</time>
      </trkpt>
      <trkpt lat="42.9499" lon="0.26777">
        <ele>1048</ele>
        <time>2019-08-08T05:35:10.000Z</time>
      </trkpt>
      <trkpt lat="42.94987" lon="0.2678">
        <ele>1048</ele>
        <time>2019-08-08T05:35:11.000Z</time>
      </trkpt>
      <trkpt lat="42.94986" lon="0.26782">
        <ele>1048</ele>
        <time>2019-08-08T05:35:12.000Z</time>
      </trkpt>
      <trkpt lat="42.94985" lon="0.26783">
        <ele>1049</ele>
        <time>2019-08-08T05:35:13.000Z</time>
      </trkpt>
      <trkpt lat="42.94983" lon="0.26784">
        <ele>1049</ele>
        <time>2019-08-08T05:35:14.000Z</time>
      </trkpt>
      <trkpt lat="42.94979" lon="0.26791">
        <ele>1050</ele>
        <time>2019-08-08T05:35:15.000Z</time>
      </trkpt>
      <trkpt lat="42.94978" lon="0.26793">
        <ele>1050</ele>
        <time>2019-08-08T05:35:16.000Z</time>
      </trkpt>
      <trkpt lat="42.94977" lon="0.26794">
        <ele>1050</ele>
        <time>2019-08-08T05:35:17.000Z</time>
      </trkpt>
      <trkpt lat="42.94977" lon="0.26796">
        <ele>1050</ele>
        <time>2019-08-08T05:35:18.000Z</time>
      </trkpt>
      <trkpt lat="42.94974" lon="0.26803">
        <ele>1051</ele>
        <time>2019-08-08T05:35:19.000Z</time>
      </trkpt>
      <trkpt lat="42.94974" lon="0.26803">
        <ele>1051</ele>
        <time>2019-08-08T05:35:20.000Z</time>
      </trkpt>
      <trkpt lat="42.94974" lon="0.26803">
        <ele>1052</ele>
        <time>2019-08-08T05:35:21.000Z</time>
      </trkpt>
      <trkpt lat="42.94974" lon="0.26816">
        <ele>1052</ele>
        <time>2019-08-08T05:35:22.000Z</time>
      </trkpt>
      <trkpt lat="42.94974" lon="0.26821">
        <ele>1053</ele>
        <time>2019-08-08T05:35:23.000Z</time>
      </trkpt>
      <trkpt lat="42.94974" lon="0.26825">
        <ele>1053</ele>
        <time>2019-08-08T05:35:24.000Z</time>
      </trkpt>
      <trkpt lat="42.94974" lon="0.26829">
        <ele>1053</ele>
        <time>2019-08-08T05:35:25.000Z</time>
      </trkpt>
      <trkpt lat="42.94975" lon="0.26833">
        <ele>1053</ele>
        <time>2019-08-08T05:35:26.000Z</time>
      </trkpt>
      <trkpt lat="42.94975" lon="0.26838">
        <ele>1053</ele>
        <time>2019-08-08T05:35:27.000Z</time>
      </trkpt>
      <trkpt lat="42.94975" lon="0.26842">
        <ele>1053</ele>
        <time>2019-08-08T05:35:28.000Z</time>
      </trkpt>
      <trkpt lat="42.94976" lon="0.26846">
        <ele>1053</ele>
        <time>2019-08-08T05:35:29.000Z</time>
      </trkpt>
      <trkpt lat="42.94977" lon="0.2685">
        <ele>1053</ele>
        <time>2019-08-08T05:35:30.000Z</time>
      </trkpt>
      <trkpt lat="42.94977" lon="0.26854">
        <ele>1054</ele>
        <time>2019-08-08T05:35:31.000Z</time>
      </trkpt>
      <trkpt lat="42.94978" lon="0.26858">
        <ele>1054</ele>
        <time>2019-08-08T05:35:32.000Z</time>
      </trkpt>
      <trkpt lat="42.94978" lon="0.26862">
        <ele>1055</ele>
        <time>2019-08-08T05:35:33.000Z</time>
      </trkpt>
      <trkpt lat="42.94979" lon="0.26866">
        <ele>1055</ele>
        <time>2019-08-08T05:35:34.000Z</time>
      </trkpt>
      <trkpt lat="42.9498" lon="0.2687">
        <ele>1055</ele>
        <time>2019-08-08T05:35:35.000Z</time>
      </trkpt>
      <trkpt lat="42.9498" lon="0.26874">
        <ele>1055</ele>
        <time>2019-08-08T05:35:36.000Z</time>
      </trkpt>
      <trkpt lat="42.9498" lon="0.26878">
        <ele>1056</ele>
        <time>2019-08-08T05:35:37.000Z</time>
      </trkpt>
      <trkpt lat="42.9498" lon="0.26882">
        <ele>1056</ele>
        <time>2019-08-08T05:35:38.000Z</time>
      </trkpt>
      <trkpt lat="42.9498" lon="0.26886">
        <ele>1056</ele>
        <time>2019-08-08T05:35:39.000Z</time>
      </trkpt>
      <trkpt lat="42.94979" lon="0.2689">
        <ele>1056</ele>
        <time>2019-08-08T05:35:40.000Z</time>
      </trkpt>
      <trkpt lat="42.94979" lon="0.26894">
        <ele>1057</ele>
        <time>2019-08-08T05:35:41.000Z</time>
      </trkpt>
      <trkpt lat="42.94978" lon="0.26898">
        <ele>1057</ele>
        <time>2019-08-08T05:35:42.000Z</time>
      </trkpt>
      <trkpt lat="42.94977" lon="0.26902">
        <ele>1057</ele>
        <time>2019-08-08T05:35:43.000Z</time>
      </trkpt>
      <trkpt lat="42.94976" lon="0.26906">
        <ele>1057</ele>
        <time>2019-08-08T05:35:44.000Z</time>
      </trkpt>
      <trkpt lat="42.94975" lon="0.26909">
        <ele>1058</ele>
        <time>2019-08-08T05:35:45.000Z</time>
      </trkpt>
      <trkpt lat="42.94974" lon="0.26913">
        <ele>1058</ele>
        <time>2019-08-08T05:35:46.000Z</time>
      </trkpt>
      <trkpt lat="42.94972" lon="0.26917">
        <ele>1058</ele>
        <time>2019-08-08T05:35:47.000Z</time>
      </trkpt>
      <trkpt lat="42.94971" lon="0.2692">
        <ele>1058</ele>
        <time>2019-08-08T05:35:48.000Z</time>
      </trkpt>
      <trkpt lat="42.9497" lon="0.26924">
        <ele>1058</ele>
        <time>2019-08-08T05:35:49.000Z</time>
      </trkpt>
      <trkpt lat="42.94968" lon="0.26928">
        <ele>1059</ele>
        <time>2019-08-08T05:35:50.000Z</time>
      </trkpt>
      <trkpt lat="42.94967" lon="0.26931">
        <ele>1059</ele>
        <time>2019-08-08T05:35:51.000Z</time>
      </trkpt>
      <trkpt lat="42.94965" lon="0.26934">
        <ele>1060</ele>
        <time>2019-08-08T05:35:52.000Z</time>
      </trkpt>
      <trkpt lat="42.94964" lon="0.26938">
        <ele>1060</ele>
        <time>2019-08-08T05:35:53.000Z</time>
      </trkpt>
      <trkpt lat="42.94962" lon="0.26942">
        <ele>1060</ele>
        <time>2019-08-08T05:35:54.000Z</time>
      </trkpt>
      <trkpt lat="42.94961" lon="0.26945">
        <ele>1060</ele>
        <time>2019-08-08T05:35:55.000Z</time>
      </trkpt>
      <trkpt lat="42.94959" lon="0.26948">
        <ele>1060</ele>
        <time>2019-08-08T05:35:56.000Z</time>
      </trkpt>
      <trkpt lat="42.94957" lon="0.26951">
        <ele>1060</ele>
        <time>2019-08-08T05:35:57.000Z</time>
      </trkpt>
      <trkpt lat="42.94955" lon="0.26955">
        <ele>1061</ele>
        <time>2019-08-08T05:35:58.000Z</time>
      </trkpt>
      <trkpt lat="42.94954" lon="0.26958">
        <ele>1061</ele>
        <time>2019-08-08T05:35:59.000Z</time>
      </trkpt>
      <trkpt lat="42.94952" lon="0.26961">
        <ele>1061</ele>
        <time>2019-08-08T05:36:00.000Z</time>
      </trkpt>
      <trkpt lat="42.94951" lon="0.26965">
        <ele>1061</ele>
        <time>2019-08-08T05:36:01.000Z</time>
      </trkpt>
      <trkpt lat="42.94949" lon="0.26968">
        <ele>1061</ele>
        <time>2019-08-08T05:36:02.000Z</time>
      </trkpt>
      <trkpt lat="42.94947" lon="0.26972">
        <ele>1061</ele>
        <time>2019-08-08T05:36:03.000Z</time>
      </trkpt>
      <trkpt lat="42.94945" lon="0.26975">
        <ele>1061</ele>
        <time>2019-08-08T05:36:04.000Z</time>
      </trkpt>
      <trkpt lat="42.94943" lon="0.26978">
        <ele>1062</ele>
        <time>2019-08-08T05:36:05.000Z</time>
      </trkpt>
      <trkpt lat="42.94942" lon="0.26981">
        <ele>1062</ele>
        <time>2019-08-08T05:36:06.000Z</time>
      </trkpt>
      <trkpt lat="42.9494" lon="0.26984">
        <ele>1062</ele>
        <time>2019-08-08T05:36:07.000Z</time>
      </trkpt>
      <trkpt lat="42.94938" lon="0.26987">
        <ele>1063</ele>
        <time>2019-08-08T05:36:08.000Z</time>
      </trkpt>
      <trkpt lat="42.94936" lon="0.2699">
        <ele>1063</ele>
        <time>2019-08-08T05:36:09.000Z</time>
      </trkpt>
      <trkpt lat="42.94934" lon="0.26993">
        <ele>1063</ele>
        <time>2019-08-08T05:36:10.000Z</time>
      </trkpt>
      <trkpt lat="42.94932" lon="0.26996">
        <ele>1063</ele>
        <time>2019-08-08T05:36:11.000Z</time>
      </trkpt>
      <trkpt lat="42.9493" lon="0.26999">
        <ele>1063</ele>
        <time>2019-08-08T05:36:12.000Z</time>
      </trkpt>
      <trkpt lat="42.94928" lon="0.27002">
        <ele>1063</ele>
        <time>2019-08-08T05:36:13.000Z</time>
      </trkpt>
      <trkpt lat="42.94926" lon="0.27005">
        <ele>1064</ele>
        <time>2019-08-08T05:36:14.000Z</time>
      </trkpt>
      <trkpt lat="42.94924" lon="0.27008">
        <ele>1064</ele>
        <time>2019-08-08T05:36:15.000Z</time>
      </trkpt>
      <trkpt lat="42.94922" lon="0.27011">
        <ele>1065</ele>
        <time>2019-08-08T05:36:16.000Z</time>
      </trkpt>
      <trkpt lat="42.94921" lon="0.27014">
        <ele>1065</ele>
        <time>2019-08-08T05:36:17.000Z</time>
      </trkpt>
      <trkpt lat="42.94919" lon="0.27017">
        <ele>1066</ele>
        <time>2019-08-08T05:36:18.000Z</time>
      </trkpt>
      <trkpt lat="42.94917" lon="0.2702">
        <ele>1066</ele>
        <time>2019-08-08T05:36:19.000Z</time>
      </trkpt>
      <trkpt lat="42.94916" lon="0.27023">
        <ele>1067</ele>
        <time>2019-08-08T05:36:20.000Z</time>
      </trkpt>
      <trkpt lat="42.94914" lon="0.27025">
        <ele>1067</ele>
        <time>2019-08-08T05:36:21.000Z</time>
      </trkpt>
      <trkpt lat="42.94912" lon="0.27028">
        <ele>1067</ele>
        <time>2019-08-08T05:36:22.000Z</time>
      </trkpt>
      <trkpt lat="42.9491" lon="0.27031">
        <ele>1067</ele>
        <time>2019-08-08T05:36:23.000Z</time>
      </trkpt>
      <trkpt lat="42.94908" lon="0.27034">
        <ele>1067</ele>
        <time>2019-08-08T05:36:24.000Z</time>
      </trkpt>
      <trkpt lat="42.94906" lon="0.27036">
        <ele>1067</ele>
        <time>2019-08-08T05:36:25.000Z</time>
      </trkpt>
      <trkpt lat="42.94904" lon="0.27039">
        <ele>1067</ele>
        <time>2019-08-08T05:36:26.000Z</time>
      </trkpt>
      <trkpt lat="42.94902" lon="0.27041">
        <ele>1068</ele>
        <time>2019-08-08T05:36:27.000Z</time>
      </trkpt>
      <trkpt lat="42.94899" lon="0.27043">
        <ele>1068</ele>
        <time>2019-08-08T05:36:28.000Z</time>
      </trkpt>
      <trkpt lat="42.94896" lon="0.27045">
        <ele>1069</ele>
        <time>2019-08-08T05:36:29.000Z</time>
      </trkpt>
      <trkpt lat="42.94893" lon="0.27047">
        <ele>1069</ele>
        <time>2019-08-08T05:36:30.000Z</time>
      </trkpt>
      <trkpt lat="42.9489" lon="0.27049">
        <ele>1069</ele>
        <time>2019-08-08T05:36:31.000Z</time>
      </trkpt>
      <trkpt lat="42.94887" lon="0.27051">
        <ele>1069</ele>
        <time>2019-08-08T05:36:32.000Z</time>
      </trkpt>
      <trkpt lat="42.94883" lon="0.27052">
        <ele>1069</ele>
        <time>2019-08-08T05:36:33.000Z</time>
      </trkpt>
      <trkpt lat="42.9488" lon="0.27053">
        <ele>1069</ele>
        <time>2019-08-08T05:36:34.000Z</time>
      </trkpt>
      <trkpt lat="42.94876" lon="0.27053">
        <ele>1071</ele>
        <time>2019-08-08T05:36:35.000Z</time>
      </trkpt>
      <trkpt lat="42.94872" lon="0.27053">
        <ele>1071</ele>
        <time>2019-08-08T05:36:36.000Z</time>
      </trkpt>
      <trkpt lat="42.94868" lon="0.27054">
        <ele>1071</ele>
        <time>2019-08-08T05:36:37.000Z</time>
      </trkpt>
      <trkpt lat="42.94864" lon="0.27054">
        <ele>1071</ele>
        <time>2019-08-08T05:36:38.000Z</time>
      </trkpt>
      <trkpt lat="42.9486" lon="0.27054">
        <ele>1071</ele>
        <time>2019-08-08T05:36:39.000Z</time>
      </trkpt>
      <trkpt lat="42.94856" lon="0.27054">
        <ele>1071</ele>
        <time>2019-08-08T05:36:40.000Z</time>
      </trkpt>
      <trkpt lat="42.94852" lon="0.27054">
        <ele>1071</ele>
        <time>2019-08-08T05:36:41.000Z</time>
      </trkpt>
      <trkpt lat="42.94847" lon="0.27054">
        <ele>1071</ele>
        <time>2019-08-08T05:36:42.000Z</time>
      </trkpt>
      <trkpt lat="42.94841" lon="0.27055">
        <ele>1071</ele>
        <time>2019-08-08T05:36:43.000Z</time>
      </trkpt>
      <trkpt lat="42.94839" lon="0.27055">
        <ele>1071</ele>
        <time>2019-08-08T05:36:44.000Z</time>
      </trkpt>
      <trkpt lat="42.94835" lon="0.27056">
        <ele>1071</ele>
        <time>2019-08-08T05:36:45.000Z</time>
      </trkpt>
      <trkpt lat="42.94831" lon="0.27056">
        <ele>1072</ele>
        <time>2019-08-08T05:36:46.000Z</time>
      </trkpt>
      <trkpt lat="42.94826" lon="0.27056">
        <ele>1072</ele>
        <time>2019-08-08T05:36:47.000Z</time>
      </trkpt>
      <trkpt lat="42.94822" lon="0.27057">
        <ele>1072</ele>
        <time>2019-08-08T05:36:48.000Z</time>
      </trkpt>
      <trkpt lat="42.94817" lon="0.27057">
        <ele>1072</ele>
        <time>2019-08-08T05:36:49.000Z</time>
      </trkpt>
      <trkpt lat="42.94813" lon="0.27058">
        <ele>1072</ele>
        <time>2019-08-08T05:36:50.000Z</time>
      </trkpt>
      <trkpt lat="42.94808" lon="0.27059">
        <ele>1072</ele>
        <time>2019-08-08T05:36:51.000Z</time>
      </trkpt>
      <trkpt lat="42.94804" lon="0.27061">
        <ele>1072</ele>
        <time>2019-08-08T05:36:52.000Z</time>
      </trkpt>
      <trkpt lat="42.94799" lon="0.27062">
        <ele>1072</ele>
        <time>2019-08-08T05:36:53.000Z</time>
      </trkpt>
      <trkpt lat="42.94795" lon="0.27062">
        <ele>1072</ele>
        <time>2019-08-08T05:36:54.000Z</time>
      </trkpt>
      <trkpt lat="42.9479" lon="0.27063">
        <ele>1072</ele>
        <time>2019-08-08T05:36:55.000Z</time>
      </trkpt>
      <trkpt lat="42.94786" lon="0.27065">
        <ele>1072</ele>
        <time>2019-08-08T05:36:56.000Z</time>
      </trkpt>
      <trkpt lat="42.94781" lon="0.27067">
        <ele>1072</ele>
        <time>2019-08-08T05:36:57.000Z</time>
      </trkpt>
      <trkpt lat="42.94776" lon="0.27069">
        <ele>1072</ele>
        <time>2019-08-08T05:36:58.000Z</time>
      </trkpt>
      <trkpt lat="42.94772" lon="0.2707">
        <ele>1072</ele>
        <time>2019-08-08T05:36:59.000Z</time>
      </trkpt>
      <trkpt lat="42.94767" lon="0.27072">
        <ele>1072</ele>
        <time>2019-08-08T05:37:00.000Z</time>
      </trkpt>
      <trkpt lat="42.94762" lon="0.27073">
        <ele>1072</ele>
        <time>2019-08-08T05:37:01.000Z</time>
      </trkpt>
      <trkpt lat="42.94756" lon="0.27076">
        <ele>1072</ele>
        <time>2019-08-08T05:37:02.000Z</time>
      </trkpt>
      <trkpt lat="42.94751" lon="0.27078">
        <ele>1072</ele>
        <time>2019-08-08T05:37:03.000Z</time>
      </trkpt>
      <trkpt lat="42.94746" lon="0.2708">
        <ele>1072</ele>
        <time>2019-08-08T05:37:04.000Z</time>
      </trkpt>
      <trkpt lat="42.94741" lon="0.27083">
        <ele>1072</ele>
        <time>2019-08-08T05:37:05.000Z</time>
      </trkpt>
      <trkpt lat="42.94737" lon="0.27085">
        <ele>1072</ele>
        <time>2019-08-08T05:37:06.000Z</time>
      </trkpt>
      <trkpt lat="42.94732" lon="0.27088">
        <ele>1072</ele>
        <time>2019-08-08T05:37:07.000Z</time>
      </trkpt>
      <trkpt lat="42.94727" lon="0.27091">
        <ele>1072</ele>
        <time>2019-08-08T05:37:08.000Z</time>
      </trkpt>
      <trkpt lat="42.94721" lon="0.27095">
        <ele>1072</ele>
        <time>2019-08-08T05:37:09.000Z</time>
      </trkpt>
      <trkpt lat="42.94716" lon="0.27098">
        <ele>1072</ele>
        <time>2019-08-08T05:37:10.000Z</time>
      </trkpt>
      <trkpt lat="42.94711" lon="0.27101">
        <ele>1072</ele>
        <time>2019-08-08T05:37:11.000Z</time>
      </trkpt>
      <trkpt lat="42.94706" lon="0.27106">
        <ele>1072</ele>
        <time>2019-08-08T05:37:12.000Z</time>
      </trkpt>
      <trkpt lat="42.94702" lon="0.2711">
        <ele>1072</ele>
        <time>2019-08-08T05:37:13.000Z</time>
      </trkpt>
      <trkpt lat="42.94697" lon="0.27114">
        <ele>1072</ele>
        <time>2019-08-08T05:37:14.000Z</time>
      </trkpt>
      <trkpt lat="42.94692" lon="0.27118">
        <ele>1072</ele>
        <time>2019-08-08T05:37:15.000Z</time>
      </trkpt>
      <trkpt lat="42.94687" lon="0.27122">
        <ele>1072</ele>
        <time>2019-08-08T05:37:16.000Z</time>
      </trkpt>
      <trkpt lat="42.94683" lon="0.27126">
        <ele>1072</ele>
        <time>2019-08-08T05:37:17.000Z</time>
      </trkpt>
      <trkpt lat="42.94678" lon="0.27131">
        <ele>1072</ele>
        <time>2019-08-08T05:37:18.000Z</time>
      </trkpt>
      <trkpt lat="42.94673" lon="0.27135">
        <ele>1072</ele>
        <time>2019-08-08T05:37:19.000Z</time>
      </trkpt>
      <trkpt lat="42.94668" lon="0.27139">
        <ele>1072</ele>
        <time>2019-08-08T05:37:20.000Z</time>
      </trkpt>
      <trkpt lat="42.94663" lon="0.27143">
        <ele>1071</ele>
        <time>2019-08-08T05:37:21.000Z</time>
      </trkpt>
      <trkpt lat="42.94659" lon="0.27148">
        <ele>1071</ele>
        <time>2019-08-08T05:37:22.000Z</time>
      </trkpt>
      <trkpt lat="42.94654" lon="0.27153">
        <ele>1071</ele>
        <time>2019-08-08T05:37:23.000Z</time>
      </trkpt>
      <trkpt lat="42.9465" lon="0.27159">
        <ele>1071</ele>
        <time>2019-08-08T05:37:24.000Z</time>
      </trkpt>
      <trkpt lat="42.94645" lon="0.27164">
        <ele>1071</ele>
        <time>2019-08-08T05:37:25.000Z</time>
      </trkpt>
      <trkpt lat="42.9464" lon="0.27168">
        <ele>1071</ele>
        <time>2019-08-08T05:37:26.000Z</time>
      </trkpt>
      <trkpt lat="42.94635" lon="0.27173">
        <ele>1072</ele>
        <time>2019-08-08T05:37:27.000Z</time>
      </trkpt>
      <trkpt lat="42.9463" lon="0.27177">
        <ele>1072</ele>
        <time>2019-08-08T05:37:28.000Z</time>
      </trkpt>
      <trkpt lat="42.94625" lon="0.27181">
        <ele>1072</ele>
        <time>2019-08-08T05:37:29.000Z</time>
      </trkpt>
      <trkpt lat="42.9462" lon="0.27185">
        <ele>1072</ele>
        <time>2019-08-08T05:37:30.000Z</time>
      </trkpt>
      <trkpt lat="42.94615" lon="0.27189">
        <ele>1071</ele>
        <time>2019-08-08T05:37:31.000Z</time>
      </trkpt>
      <trkpt lat="42.94609" lon="0.27193">
        <ele>1071</ele>
        <time>2019-08-08T05:37:32.000Z</time>
      </trkpt>
      <trkpt lat="42.94604" lon="0.27196">
        <ele>1071</ele>
        <time>2019-08-08T05:37:33.000Z</time>
      </trkpt>
      <trkpt lat="42.94598" lon="0.272">
        <ele>1071</ele>
        <time>2019-08-08T05:37:34.000Z</time>
      </trkpt>
      <trkpt lat="42.94593" lon="0.27203">
        <ele>1071</ele>
        <time>2019-08-08T05:37:35.000Z</time>
      </trkpt>
      <trkpt lat="42.94588" lon="0.27207">
        <ele>1070</ele>
        <time>2019-08-08T05:37:36.000Z</time>
      </trkpt>
      <trkpt lat="42.9458" lon="0.27215">
        <ele>1070</ele>
        <time>2019-08-08T05:37:37.000Z</time>
      </trkpt>
      <trkpt lat="42.94578" lon="0.27218">
        <ele>1070</ele>
        <time>2019-08-08T05:37:38.000Z</time>
      </trkpt>
      <trkpt lat="42.94573" lon="0.27225">
        <ele>1070</ele>
        <time>2019-08-08T05:37:39.000Z</time>
      </trkpt>
      <trkpt lat="42.94569" lon="0.27231">
        <ele>1071</ele>
        <time>2019-08-08T05:37:40.000Z</time>
      </trkpt>
      <trkpt lat="42.94565" lon="0.27239">
        <ele>1071</ele>
        <time>2019-08-08T05:37:41.000Z</time>
      </trkpt>
      <trkpt lat="42.94561" lon="0.27246">
        <ele>1071</ele>
        <time>2019-08-08T05:37:42.000Z</time>
      </trkpt>
      <trkpt lat="42.94558" lon="0.27254">
        <ele>1071</ele>
        <time>2019-08-08T05:37:43.000Z</time>
      </trkpt>
      <trkpt lat="42.94555" lon="0.27261">
        <ele>1071</ele>
        <time>2019-08-08T05:37:44.000Z</time>
      </trkpt>
      <trkpt lat="42.94552" lon="0.27269">
        <ele>1071</ele>
        <time>2019-08-08T05:37:45.000Z</time>
      </trkpt>
      <trkpt lat="42.9455" lon="0.27277">
        <ele>1071</ele>
        <time>2019-08-08T05:37:46.000Z</time>
      </trkpt>
      <trkpt lat="42.94547" lon="0.27285">
        <ele>1072</ele>
        <time>2019-08-08T05:37:47.000Z</time>
      </trkpt>
      <trkpt lat="42.94545" lon="0.27293">
        <ele>1072</ele>
        <time>2019-08-08T05:37:48.000Z</time>
      </trkpt>
      <trkpt lat="42.94543" lon="0.27301">
        <ele>1072</ele>
        <time>2019-08-08T05:37:49.000Z</time>
      </trkpt>
      <trkpt lat="42.9454" lon="0.27309">
        <ele>1072</ele>
        <time>2019-08-08T05:37:50.000Z</time>
      </trkpt>
      <trkpt lat="42.94538" lon="0.27317">
        <ele>1072</ele>
        <time>2019-08-08T05:37:51.000Z</time>
      </trkpt>
      <trkpt lat="42.94535" lon="0.27325">
        <ele>1072</ele>
        <time>2019-08-08T05:37:52.000Z</time>
      </trkpt>
      <trkpt lat="42.94533" lon="0.27333">
        <ele>1072</ele>
        <time>2019-08-08T05:37:53.000Z</time>
      </trkpt>
      <trkpt lat="42.9453" lon="0.27342">
        <ele>1072</ele>
        <time>2019-08-08T05:37:54.000Z</time>
      </trkpt>
      <trkpt lat="42.94528" lon="0.2735">
        <ele>1072</ele>
        <time>2019-08-08T05:37:55.000Z</time>
      </trkpt>
      <trkpt lat="42.94526" lon="0.27358">
        <ele>1072</ele>
        <time>2019-08-08T05:37:56.000Z</time>
      </trkpt>
      <trkpt lat="42.94523" lon="0.27366">
        <ele>1072</ele>
        <time>2019-08-08T05:37:57.000Z</time>
      </trkpt>
      <trkpt lat="42.94521" lon="0.27375">
        <ele>1072</ele>
        <time>2019-08-08T05:37:58.000Z</time>
      </trkpt>
      <trkpt lat="42.94518" lon="0.27384">
        <ele>1072</ele>
        <time>2019-08-08T05:37:59.000Z</time>
      </trkpt>
      <trkpt lat="42.94516" lon="0.27392">
        <ele>1072</ele>
        <time>2019-08-08T05:38:00.000Z</time>
      </trkpt>
      <trkpt lat="42.94513" lon="0.27401">
        <ele>1072</ele>
        <time>2019-08-08T05:38:01.000Z</time>
      </trkpt>
      <trkpt lat="42.9451" lon="0.27409">
        <ele>1072</ele>
        <time>2019-08-08T05:38:02.000Z</time>
      </trkpt>
      <trkpt lat="42.94507" lon="0.27417">
        <ele>1073</ele>
        <time>2019-08-08T05:38:03.000Z</time>
      </trkpt>
      <trkpt lat="42.94504" lon="0.27425">
        <ele>1073</ele>
        <time>2019-08-08T05:38:04.000Z</time>
      </trkpt>
      <trkpt lat="42.94501" lon="0.27434">
        <ele>1073</ele>
        <time>2019-08-08T05:38:05.000Z</time>
      </trkpt>
      <trkpt lat="42.94497" lon="0.27441">
        <ele>1073</ele>
        <time>2019-08-08T05:38:06.000Z</time>
      </trkpt>
      <trkpt lat="42.94494" lon="0.27449">
        <ele>1073</ele>
        <time>2019-08-08T05:38:07.000Z</time>
      </trkpt>
      <trkpt lat="42.94491" lon="0.27457">
        <ele>1073</ele>
        <time>2019-08-08T05:38:08.000Z</time>
      </trkpt>
      <trkpt lat="42.94488" lon="0.27465">
        <ele>1073</ele>
        <time>2019-08-08T05:38:09.000Z</time>
      </trkpt>
      <trkpt lat="42.94484" lon="0.27472">
        <ele>1073</ele>
        <time>2019-08-08T05:38:10.000Z</time>
      </trkpt>
      <trkpt lat="42.94481" lon="0.2748">
        <ele>1073</ele>
        <time>2019-08-08T05:38:11.000Z</time>
      </trkpt>
      <trkpt lat="42.94479" lon="0.27488">
        <ele>1074</ele>
        <time>2019-08-08T05:38:12.000Z</time>
      </trkpt>
      <trkpt lat="42.94476" lon="0.27496">
        <ele>1074</ele>
        <time>2019-08-08T05:38:13.000Z</time>
      </trkpt>
      <trkpt lat="42.94474" lon="0.27504">
        <ele>1075</ele>
        <time>2019-08-08T05:38:14.000Z</time>
      </trkpt>
      <trkpt lat="42.94472" lon="0.27512">
        <ele>1075</ele>
        <time>2019-08-08T05:38:15.000Z</time>
      </trkpt>
      <trkpt lat="42.9447" lon="0.2752">
        <ele>1075</ele>
        <time>2019-08-08T05:38:16.000Z</time>
      </trkpt>
      <trkpt lat="42.94469" lon="0.27528">
        <ele>1075</ele>
        <time>2019-08-08T05:38:17.000Z</time>
      </trkpt>
      <trkpt lat="42.94467" lon="0.27536">
        <ele>1076</ele>
        <time>2019-08-08T05:38:18.000Z</time>
      </trkpt>
      <trkpt lat="42.94466" lon="0.27544">
        <ele>1076</ele>
        <time>2019-08-08T05:38:19.000Z</time>
      </trkpt>
      <trkpt lat="42.94465" lon="0.27552">
        <ele>1076</ele>
        <time>2019-08-08T05:38:20.000Z</time>
      </trkpt>
      <trkpt lat="42.94463" lon="0.2756">
        <ele>1076</ele>
        <time>2019-08-08T05:38:21.000Z</time>
      </trkpt>
      <trkpt lat="42.94462" lon="0.27568">
        <ele>1076</ele>
        <time>2019-08-08T05:38:22.000Z</time>
      </trkpt>
      <trkpt lat="42.9446" lon="0.27576">
        <ele>1077</ele>
        <time>2019-08-08T05:38:23.000Z</time>
      </trkpt>
      <trkpt lat="42.94458" lon="0.27585">
        <ele>1077</ele>
        <time>2019-08-08T05:38:24.000Z</time>
      </trkpt>
      <trkpt lat="42.94455" lon="0.27592">
        <ele>1077</ele>
        <time>2019-08-08T05:38:25.000Z</time>
      </trkpt>
      <trkpt lat="42.94452" lon="0.276">
        <ele>1077</ele>
        <time>2019-08-08T05:38:26.000Z</time>
      </trkpt>
      <trkpt lat="42.94449" lon="0.27607">
        <ele>1077</ele>
        <time>2019-08-08T05:38:27.000Z</time>
      </trkpt>
      <trkpt lat="42.94445" lon="0.27614">
        <ele>1077</ele>
        <time>2019-08-08T05:38:28.000Z</time>
      </trkpt>
      <trkpt lat="42.94441" lon="0.27621">
        <ele>1076</ele>
        <time>2019-08-08T05:38:29.000Z</time>
      </trkpt>
      <trkpt lat="42.94437" lon="0.27628">
        <ele>1076</ele>
        <time>2019-08-08T05:38:30.000Z</time>
      </trkpt>
      <trkpt lat="42.94433" lon="0.27634">
        <ele>1076</ele>
        <time>2019-08-08T05:38:31.000Z</time>
      </trkpt>
      <trkpt lat="42.94428" lon="0.2764">
        <ele>1076</ele>
        <time>2019-08-08T05:38:32.000Z</time>
      </trkpt>
      <trkpt lat="42.94423" lon="0.27646">
        <ele>1076</ele>
        <time>2019-08-08T05:38:33.000Z</time>
      </trkpt>
      <trkpt lat="42.94419" lon="0.27652">
        <ele>1076</ele>
        <time>2019-08-08T05:38:34.000Z</time>
      </trkpt>
      <trkpt lat="42.94414" lon="0.27657">
        <ele>1076</ele>
        <time>2019-08-08T05:38:35.000Z</time>
      </trkpt>
      <trkpt lat="42.94409" lon="0.27663">
        <ele>1076</ele>
        <time>2019-08-08T05:38:36.000Z</time>
      </trkpt>
      <trkpt lat="42.94405" lon="0.27669">
        <ele>1076</ele>
        <time>2019-08-08T05:38:37.000Z</time>
      </trkpt>
      <trkpt lat="42.94401" lon="0.27675">
        <ele>1076</ele>
        <time>2019-08-08T05:38:38.000Z</time>
      </trkpt>
      <trkpt lat="42.94397" lon="0.27682">
        <ele>1076</ele>
        <time>2019-08-08T05:38:39.000Z</time>
      </trkpt>
      <trkpt lat="42.94394" lon="0.27689">
        <ele>1076</ele>
        <time>2019-08-08T05:38:40.000Z</time>
      </trkpt>
      <trkpt lat="42.9439" lon="0.27697">
        <ele>1076</ele>
        <time>2019-08-08T05:38:41.000Z</time>
      </trkpt>
      <trkpt lat="42.94387" lon="0.27705">
        <ele>1076</ele>
        <time>2019-08-08T05:38:42.000Z</time>
      </trkpt>
      <trkpt lat="42.94385" lon="0.27712">
        <ele>1076</ele>
        <time>2019-08-08T05:38:43.000Z</time>
      </trkpt>
      <trkpt lat="42.94382" lon="0.2772">
        <ele>1077</ele>
        <time>2019-08-08T05:38:44.000Z</time>
      </trkpt>
      <trkpt lat="42.94379" lon="0.27728">
        <ele>1077</ele>
        <time>2019-08-08T05:38:45.000Z</time>
      </trkpt>
      <trkpt lat="42.94376" lon="0.27736">
        <ele>1077</ele>
        <time>2019-08-08T05:38:46.000Z</time>
      </trkpt>
      <trkpt lat="42.94374" lon="0.27744">
        <ele>1077</ele>
        <time>2019-08-08T05:38:47.000Z</time>
      </trkpt>
      <trkpt lat="42.94371" lon="0.27752">
        <ele>1077</ele>
        <time>2019-08-08T05:38:48.000Z</time>
      </trkpt>
      <trkpt lat="42.94369" lon="0.27759">
        <ele>1077</ele>
        <time>2019-08-08T05:38:49.000Z</time>
      </trkpt>
      <trkpt lat="42.94366" lon="0.27767">
        <ele>1077</ele>
        <time>2019-08-08T05:38:50.000Z</time>
      </trkpt>
      <trkpt lat="42.94364" lon="0.27775">
        <ele>1077</ele>
        <time>2019-08-08T05:38:51.000Z</time>
      </trkpt>
      <trkpt lat="42.94362" lon="0.27783">
        <ele>1078</ele>
        <time>2019-08-08T05:38:52.000Z</time>
      </trkpt>
      <trkpt lat="42.94361" lon="0.2779">
        <ele>1078</ele>
        <time>2019-08-08T05:38:53.000Z</time>
      </trkpt>
      <trkpt lat="42.9436" lon="0.27799">
        <ele>1078</ele>
        <time>2019-08-08T05:38:54.000Z</time>
      </trkpt>
      <trkpt lat="42.94359" lon="0.27807">
        <ele>1078</ele>
        <time>2019-08-08T05:38:55.000Z</time>
      </trkpt>
      <trkpt lat="42.94358" lon="0.27815">
        <ele>1078</ele>
        <time>2019-08-08T05:38:56.000Z</time>
      </trkpt>
      <trkpt lat="42.94358" lon="0.27823">
        <ele>1078</ele>
        <time>2019-08-08T05:38:57.000Z</time>
      </trkpt>
      <trkpt lat="42.94358" lon="0.27832">
        <ele>1078</ele>
        <time>2019-08-08T05:38:58.000Z</time>
      </trkpt>
      <trkpt lat="42.94358" lon="0.2784">
        <ele>1078</ele>
        <time>2019-08-08T05:38:59.000Z</time>
      </trkpt>
      <trkpt lat="42.94359" lon="0.27849">
        <ele>1078</ele>
        <time>2019-08-08T05:39:00.000Z</time>
      </trkpt>
      <trkpt lat="42.94359" lon="0.27857">
        <ele>1078</ele>
        <time>2019-08-08T05:39:01.000Z</time>
      </trkpt>
      <trkpt lat="42.94359" lon="0.27866">
        <ele>1079</ele>
        <time>2019-08-08T05:39:02.000Z</time>
      </trkpt>
      <trkpt lat="42.94359" lon="0.27874">
        <ele>1079</ele>
        <time>2019-08-08T05:39:03.000Z</time>
      </trkpt>
      <trkpt lat="42.9436" lon="0.27883">
        <ele>1079</ele>
        <time>2019-08-08T05:39:04.000Z</time>
      </trkpt>
      <trkpt lat="42.9436" lon="0.27891">
        <ele>1079</ele>
        <time>2019-08-08T05:39:05.000Z</time>
      </trkpt>
      <trkpt lat="42.94361" lon="0.27899">
        <ele>1079</ele>
        <time>2019-08-08T05:39:06.000Z</time>
      </trkpt>
      <trkpt lat="42.94362" lon="0.27907">
        <ele>1079</ele>
        <time>2019-08-08T05:39:07.000Z</time>
      </trkpt>
      <trkpt lat="42.94362" lon="0.27915">
        <ele>1079</ele>
        <time>2019-08-08T05:39:08.000Z</time>
      </trkpt>
      <trkpt lat="42.94363" lon="0.27923">
        <ele>1080</ele>
        <time>2019-08-08T05:39:09.000Z</time>
      </trkpt>
      <trkpt lat="42.94363" lon="0.27931">
        <ele>1080</ele>
        <time>2019-08-08T05:39:10.000Z</time>
      </trkpt>
      <trkpt lat="42.94364" lon="0.27939">
        <ele>1081</ele>
        <time>2019-08-08T05:39:11.000Z</time>
      </trkpt>
      <trkpt lat="42.94364" lon="0.27947">
        <ele>1081</ele>
        <time>2019-08-08T05:39:12.000Z</time>
      </trkpt>
      <trkpt lat="42.94364" lon="0.27955">
        <ele>1081</ele>
        <time>2019-08-08T05:39:13.000Z</time>
      </trkpt>
      <trkpt lat="42.94363" lon="0.27963">
        <ele>1081</ele>
        <time>2019-08-08T05:39:14.000Z</time>
      </trkpt>
      <trkpt lat="42.94363" lon="0.27971">
        <ele>1081</ele>
        <time>2019-08-08T05:39:15.000Z</time>
      </trkpt>
      <trkpt lat="42.94362" lon="0.2798">
        <ele>1081</ele>
        <time>2019-08-08T05:39:16.000Z</time>
      </trkpt>
      <trkpt lat="42.9436" lon="0.27988">
        <ele>1081</ele>
        <time>2019-08-08T05:39:17.000Z</time>
      </trkpt>
      <trkpt lat="42.94358" lon="0.27996">
        <ele>1081</ele>
        <time>2019-08-08T05:39:18.000Z</time>
      </trkpt>
      <trkpt lat="42.94356" lon="0.28004">
        <ele>1082</ele>
        <time>2019-08-08T05:39:19.000Z</time>
      </trkpt>
      <trkpt lat="42.94354" lon="0.28012">
        <ele>1082</ele>
        <time>2019-08-08T05:39:20.000Z</time>
      </trkpt>
      <trkpt lat="42.94351" lon="0.28019">
        <ele>1082</ele>
        <time>2019-08-08T05:39:21.000Z</time>
      </trkpt>
      <trkpt lat="42.94349" lon="0.28027">
        <ele>1082</ele>
        <time>2019-08-08T05:39:22.000Z</time>
      </trkpt>
      <trkpt lat="42.94346" lon="0.28035">
        <ele>1082</ele>
        <time>2019-08-08T05:39:23.000Z</time>
      </trkpt>
      <trkpt lat="42.94344" lon="0.28043">
        <ele>1082</ele>
        <time>2019-08-08T05:39:24.000Z</time>
      </trkpt>
      <trkpt lat="42.94343" lon="0.28051">
        <ele>1082</ele>
        <time>2019-08-08T05:39:25.000Z</time>
      </trkpt>
      <trkpt lat="42.94341" lon="0.28059">
        <ele>1082</ele>
        <time>2019-08-08T05:39:26.000Z</time>
      </trkpt>
      <trkpt lat="42.94341" lon="0.28067">
        <ele>1082</ele>
        <time>2019-08-08T05:39:27.000Z</time>
      </trkpt>
      <trkpt lat="42.9434" lon="0.28076">
        <ele>1082</ele>
        <time>2019-08-08T05:39:28.000Z</time>
      </trkpt>
      <trkpt lat="42.94339" lon="0.28084">
        <ele>1082</ele>
        <time>2019-08-08T05:39:29.000Z</time>
      </trkpt>
      <trkpt lat="42.94337" lon="0.28093">
        <ele>1082</ele>
        <time>2019-08-08T05:39:30.000Z</time>
      </trkpt>
      <trkpt lat="42.94336" lon="0.28101">
        <ele>1082</ele>
        <time>2019-08-08T05:39:31.000Z</time>
      </trkpt>
      <trkpt lat="42.94334" lon="0.28109">
        <ele>1082</ele>
        <time>2019-08-08T05:39:32.000Z</time>
      </trkpt>
      <trkpt lat="42.94332" lon="0.28118">
        <ele>1082</ele>
        <time>2019-08-08T05:39:33.000Z</time>
      </trkpt>
      <trkpt lat="42.9433" lon="0.28126">
        <ele>1082</ele>
        <time>2019-08-08T05:39:34.000Z</time>
      </trkpt>
      <trkpt lat="42.94328" lon="0.28134">
        <ele>1082</ele>
        <time>2019-08-08T05:39:35.000Z</time>
      </trkpt>
      <trkpt lat="42.94326" lon="0.28142">
        <ele>1082</ele>
        <time>2019-08-08T05:39:36.000Z</time>
      </trkpt>
      <trkpt lat="42.94322" lon="0.28149">
        <ele>1082</ele>
        <time>2019-08-08T05:39:37.000Z</time>
      </trkpt>
      <trkpt lat="42.94318" lon="0.28155">
        <ele>1082</ele>
        <time>2019-08-08T05:39:38.000Z</time>
      </trkpt>
      <trkpt lat="42.94313" lon="0.28161">
        <ele>1082</ele>
        <time>2019-08-08T05:39:39.000Z</time>
      </trkpt>
      <trkpt lat="42.94308" lon="0.28167">
        <ele>1082</ele>
        <time>2019-08-08T05:39:40.000Z</time>
      </trkpt>
      <trkpt lat="42.94305" lon="0.28174">
        <ele>1083</ele>
        <time>2019-08-08T05:39:41.000Z</time>
      </trkpt>
      <trkpt lat="42.94301" lon="0.28181">
        <ele>1083</ele>
        <time>2019-08-08T05:39:42.000Z</time>
      </trkpt>
      <trkpt lat="42.94297" lon="0.28188">
        <ele>1083</ele>
        <time>2019-08-08T05:39:43.000Z</time>
      </trkpt>
      <trkpt lat="42.94294" lon="0.28195">
        <ele>1083</ele>
        <time>2019-08-08T05:39:44.000Z</time>
      </trkpt>
      <trkpt lat="42.94291" lon="0.28202">
        <ele>1083</ele>
        <time>2019-08-08T05:39:45.000Z</time>
      </trkpt>
      <trkpt lat="42.94288" lon="0.2821">
        <ele>1083</ele>
        <time>2019-08-08T05:39:46.000Z</time>
      </trkpt>
      <trkpt lat="42.94285" lon="0.28218">
        <ele>1083</ele>
        <time>2019-08-08T05:39:47.000Z</time>
      </trkpt>
      <trkpt lat="42.94283" lon="0.28226">
        <ele>1083</ele>
        <time>2019-08-08T05:39:48.000Z</time>
      </trkpt>
      <trkpt lat="42.94281" lon="0.28235">
        <ele>1084</ele>
        <time>2019-08-08T05:39:49.000Z</time>
      </trkpt>
      <trkpt lat="42.9428" lon="0.28243">
        <ele>1084</ele>
        <time>2019-08-08T05:39:50.000Z</time>
      </trkpt>
      <trkpt lat="42.94279" lon="0.28252">
        <ele>1084</ele>
        <time>2019-08-08T05:39:51.000Z</time>
      </trkpt>
      <trkpt lat="42.94278" lon="0.28261">
        <ele>1084</ele>
        <time>2019-08-08T05:39:52.000Z</time>
      </trkpt>
      <trkpt lat="42.94277" lon="0.28274">
        <ele>1084</ele>
        <time>2019-08-08T05:39:53.000Z</time>
      </trkpt>
      <trkpt lat="42.94277" lon="0.28279">
        <ele>1085</ele>
        <time>2019-08-08T05:39:54.000Z</time>
      </trkpt>
      <trkpt lat="42.94277" lon="0.28288">
        <ele>1085</ele>
        <time>2019-08-08T05:39:55.000Z</time>
      </trkpt>
      <trkpt lat="42.94277" lon="0.28296">
        <ele>1085</ele>
        <time>2019-08-08T05:39:56.000Z</time>
      </trkpt>
      <trkpt lat="42.94277" lon="0.28305">
        <ele>1085</ele>
        <time>2019-08-08T05:39:57.000Z</time>
      </trkpt>
      <trkpt lat="42.94277" lon="0.28313">
        <ele>1085</ele>
        <time>2019-08-08T05:39:58.000Z</time>
      </trkpt>
      <trkpt lat="42.94278" lon="0.28322">
        <ele>1085</ele>
        <time>2019-08-08T05:39:59.000Z</time>
      </trkpt>
      <trkpt lat="42.94278" lon="0.2833">
        <ele>1085</ele>
        <time>2019-08-08T05:40:00.000Z</time>
      </trkpt>
      <trkpt lat="42.94278" lon="0.28339">
        <ele>1085</ele>
        <time>2019-08-08T05:40:01.000Z</time>
      </trkpt>
      <trkpt lat="42.94279" lon="0.28347">
        <ele>1086</ele>
        <time>2019-08-08T05:40:02.000Z</time>
      </trkpt>
      <trkpt lat="42.94279" lon="0.28356">
        <ele>1086</ele>
        <time>2019-08-08T05:40:03.000Z</time>
      </trkpt>
      <trkpt lat="42.94279" lon="0.28364">
        <ele>1086</ele>
        <time>2019-08-08T05:40:04.000Z</time>
      </trkpt>
      <trkpt lat="42.94279" lon="0.28372">
        <ele>1086</ele>
        <time>2019-08-08T05:40:05.000Z</time>
      </trkpt>
      <trkpt lat="42.94279" lon="0.2838">
        <ele>1086</ele>
        <time>2019-08-08T05:40:06.000Z</time>
      </trkpt>
      <trkpt lat="42.9428" lon="0.28388">
        <ele>1086</ele>
        <time>2019-08-08T05:40:07.000Z</time>
      </trkpt>
      <trkpt lat="42.9428" lon="0.28396">
        <ele>1086</ele>
        <time>2019-08-08T05:40:08.000Z</time>
      </trkpt>
      <trkpt lat="42.9428" lon="0.28404">
        <ele>1086</ele>
        <time>2019-08-08T05:40:09.000Z</time>
      </trkpt>
      <trkpt lat="42.9428" lon="0.28412">
        <ele>1087</ele>
        <time>2019-08-08T05:40:10.000Z</time>
      </trkpt>
      <trkpt lat="42.94281" lon="0.2842">
        <ele>1087</ele>
        <time>2019-08-08T05:40:11.000Z</time>
      </trkpt>
      <trkpt lat="42.94281" lon="0.28428">
        <ele>1087</ele>
        <time>2019-08-08T05:40:12.000Z</time>
      </trkpt>
      <trkpt lat="42.94281" lon="0.28435">
        <ele>1087</ele>
        <time>2019-08-08T05:40:13.000Z</time>
      </trkpt>
      <trkpt lat="42.94281" lon="0.28443">
        <ele>1087</ele>
        <time>2019-08-08T05:40:14.000Z</time>
      </trkpt>
      <trkpt lat="42.94281" lon="0.28451">
        <ele>1087</ele>
        <time>2019-08-08T05:40:15.000Z</time>
      </trkpt>
      <trkpt lat="42.94281" lon="0.28458">
        <ele>1087</ele>
        <time>2019-08-08T05:40:16.000Z</time>
      </trkpt>
      <trkpt lat="42.94282" lon="0.28466">
        <ele>1088</ele>
        <time>2019-08-08T05:40:17.000Z</time>
      </trkpt>
      <trkpt lat="42.94282" lon="0.28473">
        <ele>1088</ele>
        <time>2019-08-08T05:40:18.000Z</time>
      </trkpt>
      <trkpt lat="42.94283" lon="0.28481">
        <ele>1088</ele>
        <time>2019-08-08T05:40:19.000Z</time>
      </trkpt>
      <trkpt lat="42.94284" lon="0.28488">
        <ele>1088</ele>
        <time>2019-08-08T05:40:20.000Z</time>
      </trkpt>
      <trkpt lat="42.94285" lon="0.28496">
        <ele>1089</ele>
        <time>2019-08-08T05:40:21.000Z</time>
      </trkpt>
      <trkpt lat="42.94286" lon="0.28503">
        <ele>1089</ele>
        <time>2019-08-08T05:40:22.000Z</time>
      </trkpt>
      <trkpt lat="42.94287" lon="0.2851">
        <ele>1089</ele>
        <time>2019-08-08T05:40:23.000Z</time>
      </trkpt>
      <trkpt lat="42.94288" lon="0.28518">
        <ele>1089</ele>
        <time>2019-08-08T05:40:24.000Z</time>
      </trkpt>
      <trkpt lat="42.94289" lon="0.28525">
        <ele>1089</ele>
        <time>2019-08-08T05:40:25.000Z</time>
      </trkpt>
      <trkpt lat="42.9429" lon="0.28532">
        <ele>1089</ele>
        <time>2019-08-08T05:40:26.000Z</time>
      </trkpt>
      <trkpt lat="42.94292" lon="0.28539">
        <ele>1089</ele>
        <time>2019-08-08T05:40:27.000Z</time>
      </trkpt>
      <trkpt lat="42.94295" lon="0.28546">
        <ele>1089</ele>
        <time>2019-08-08T05:40:28.000Z</time>
      </trkpt>
      <trkpt lat="42.94297" lon="0.28552">
        <ele>1089</ele>
        <time>2019-08-08T05:40:29.000Z</time>
      </trkpt>
      <trkpt lat="42.94301" lon="0.28559">
        <ele>1089</ele>
        <time>2019-08-08T05:40:30.000Z</time>
      </trkpt>
      <trkpt lat="42.94303" lon="0.28565">
        <ele>1089</ele>
        <time>2019-08-08T05:40:31.000Z</time>
      </trkpt>
      <trkpt lat="42.94307" lon="0.28571">
        <ele>1089</ele>
        <time>2019-08-08T05:40:32.000Z</time>
      </trkpt>
      <trkpt lat="42.9431" lon="0.28577">
        <ele>1089</ele>
        <time>2019-08-08T05:40:33.000Z</time>
      </trkpt>
      <trkpt lat="42.94313" lon="0.28582">
        <ele>1089</ele>
        <time>2019-08-08T05:40:34.000Z</time>
      </trkpt>
      <trkpt lat="42.94316" lon="0.28588">
        <ele>1090</ele>
        <time>2019-08-08T05:40:35.000Z</time>
      </trkpt>
      <trkpt lat="42.94319" lon="0.28594">
        <ele>1090</ele>
        <time>2019-08-08T05:40:36.000Z</time>
      </trkpt>
      <trkpt lat="42.94322" lon="0.286">
        <ele>1091</ele>
        <time>2019-08-08T05:40:37.000Z</time>
      </trkpt>
      <trkpt lat="42.94326" lon="0.28605">
        <ele>1091</ele>
        <time>2019-08-08T05:40:38.000Z</time>
      </trkpt>
      <trkpt lat="42.94329" lon="0.28611">
        <ele>1091</ele>
        <time>2019-08-08T05:40:39.000Z</time>
      </trkpt>
      <trkpt lat="42.94332" lon="0.28617">
        <ele>1091</ele>
        <time>2019-08-08T05:40:40.000Z</time>
      </trkpt>
      <trkpt lat="42.94335" lon="0.28623">
        <ele>1091</ele>
        <time>2019-08-08T05:40:41.000Z</time>
      </trkpt>
      <trkpt lat="42.94338" lon="0.28629">
        <ele>1091</ele>
        <time>2019-08-08T05:40:42.000Z</time>
      </trkpt>
      <trkpt lat="42.94341" lon="0.28634">
        <ele>1091</ele>
        <time>2019-08-08T05:40:43.000Z</time>
      </trkpt>
      <trkpt lat="42.94345" lon="0.28639">
        <ele>1092</ele>
        <time>2019-08-08T05:40:44.000Z</time>
      </trkpt>
      <trkpt lat="42.94348" lon="0.28645">
        <ele>1092</ele>
        <time>2019-08-08T05:40:45.000Z</time>
      </trkpt>
      <trkpt lat="42.94351" lon="0.2865">
        <ele>1092</ele>
        <time>2019-08-08T05:40:46.000Z</time>
      </trkpt>
      <trkpt lat="42.94354" lon="0.28655">
        <ele>1092</ele>
        <time>2019-08-08T05:40:47.000Z</time>
      </trkpt>
      <trkpt lat="42.94357" lon="0.2866">
        <ele>1093</ele>
        <time>2019-08-08T05:40:48.000Z</time>
      </trkpt>
      <trkpt lat="42.94359" lon="0.28665">
        <ele>1093</ele>
        <time>2019-08-08T05:40:49.000Z</time>
      </trkpt>
      <trkpt lat="42.94362" lon="0.28671">
        <ele>1093</ele>
        <time>2019-08-08T05:40:50.000Z</time>
      </trkpt>
      <trkpt lat="42.94365" lon="0.28676">
        <ele>1093</ele>
        <time>2019-08-08T05:40:51.000Z</time>
      </trkpt>
      <trkpt lat="42.94369" lon="0.28681">
        <ele>1093</ele>
        <time>2019-08-08T05:40:52.000Z</time>
      </trkpt>
      <trkpt lat="42.94372" lon="0.28686">
        <ele>1093</ele>
        <time>2019-08-08T05:40:53.000Z</time>
      </trkpt>
      <trkpt lat="42.94375" lon="0.28691">
        <ele>1093</ele>
        <time>2019-08-08T05:40:54.000Z</time>
      </trkpt>
      <trkpt lat="42.94377" lon="0.28696">
        <ele>1094</ele>
        <time>2019-08-08T05:40:55.000Z</time>
      </trkpt>
      <trkpt lat="42.9438" lon="0.28701">
        <ele>1094</ele>
        <time>2019-08-08T05:40:56.000Z</time>
      </trkpt>
      <trkpt lat="42.94383" lon="0.28707">
        <ele>1095</ele>
        <time>2019-08-08T05:40:57.000Z</time>
      </trkpt>
      <trkpt lat="42.94386" lon="0.28711">
        <ele>1095</ele>
        <time>2019-08-08T05:40:58.000Z</time>
      </trkpt>
      <trkpt lat="42.9439" lon="0.28716">
        <ele>1095</ele>
        <time>2019-08-08T05:40:59.000Z</time>
      </trkpt>
      <trkpt lat="42.94393" lon="0.28721">
        <ele>1096</ele>
        <time>2019-08-08T05:41:00.000Z</time>
      </trkpt>
      <trkpt lat="42.94395" lon="0.28726">
        <ele>1096</ele>
        <time>2019-08-08T05:41:01.000Z</time>
      </trkpt>
      <trkpt lat="42.94398" lon="0.28731">
        <ele>1096</ele>
        <time>2019-08-08T05:41:02.000Z</time>
      </trkpt>
      <trkpt lat="42.94401" lon="0.28736">
        <ele>1096</ele>
        <time>2019-08-08T05:41:03.000Z</time>
      </trkpt>
      <trkpt lat="42.94404" lon="0.2874">
        <ele>1096</ele>
        <time>2019-08-08T05:41:04.000Z</time>
      </trkpt>
      <trkpt lat="42.94407" lon="0.28745">
        <ele>1096</ele>
        <time>2019-08-08T05:41:05.000Z</time>
      </trkpt>
      <trkpt lat="42.94409" lon="0.2875">
        <ele>1096</ele>
        <time>2019-08-08T05:41:06.000Z</time>
      </trkpt>
      <trkpt lat="42.94412" lon="0.28755">
        <ele>1096</ele>
        <time>2019-08-08T05:41:07.000Z</time>
      </trkpt>
      <trkpt lat="42.94415" lon="0.2876">
        <ele>1097</ele>
        <time>2019-08-08T05:41:08.000Z</time>
      </trkpt>
      <trkpt lat="42.94417" lon="0.28765">
        <ele>1097</ele>
        <time>2019-08-08T05:41:09.000Z</time>
      </trkpt>
      <trkpt lat="42.9442" lon="0.2877">
        <ele>1097</ele>
        <time>2019-08-08T05:41:10.000Z</time>
      </trkpt>
      <trkpt lat="42.94422" lon="0.28776">
        <ele>1097</ele>
        <time>2019-08-08T05:41:11.000Z</time>
      </trkpt>
      <trkpt lat="42.94424" lon="0.28781">
        <ele>1097</ele>
        <time>2019-08-08T05:41:12.000Z</time>
      </trkpt>
      <trkpt lat="42.94426" lon="0.28786">
        <ele>1098</ele>
        <time>2019-08-08T05:41:13.000Z</time>
      </trkpt>
      <trkpt lat="42.94427" lon="0.28792">
        <ele>1098</ele>
        <time>2019-08-08T05:41:14.000Z</time>
      </trkpt>
      <trkpt lat="42.94429" lon="0.28797">
        <ele>1099</ele>
        <time>2019-08-08T05:41:15.000Z</time>
      </trkpt>
      <trkpt lat="42.94429" lon="0.28803">
        <ele>1099</ele>
        <time>2019-08-08T05:41:16.000Z</time>
      </trkpt>
      <trkpt lat="42.9443" lon="0.28808">
        <ele>1100</ele>
        <time>2019-08-08T05:41:17.000Z</time>
      </trkpt>
      <trkpt lat="42.94431" lon="0.28814">
        <ele>1100</ele>
        <time>2019-08-08T05:41:18.000Z</time>
      </trkpt>
      <trkpt lat="42.94431" lon="0.28819">
        <ele>1100</ele>
        <time>2019-08-08T05:41:19.000Z</time>
      </trkpt>
      <trkpt lat="42.94432" lon="0.28825">
        <ele>1100</ele>
        <time>2019-08-08T05:41:20.000Z</time>
      </trkpt>
      <trkpt lat="42.94432" lon="0.2883">
        <ele>1101</ele>
        <time>2019-08-08T05:41:21.000Z</time>
      </trkpt>
      <trkpt lat="42.94432" lon="0.28835">
        <ele>1101</ele>
        <time>2019-08-08T05:41:22.000Z</time>
      </trkpt>
      <trkpt lat="42.94431" lon="0.28841">
        <ele>1101</ele>
        <time>2019-08-08T05:41:23.000Z</time>
      </trkpt>
      <trkpt lat="42.94431" lon="0.28846">
        <ele>1102</ele>
        <time>2019-08-08T05:41:24.000Z</time>
      </trkpt>
      <trkpt lat="42.94431" lon="0.28852">
        <ele>1102</ele>
        <time>2019-08-08T05:41:25.000Z</time>
      </trkpt>
      <trkpt lat="42.94431" lon="0.28857">
        <ele>1102</ele>
        <time>2019-08-08T05:41:26.000Z</time>
      </trkpt>
      <trkpt lat="42.9443" lon="0.28862">
        <ele>1102</ele>
        <time>2019-08-08T05:41:27.000Z</time>
      </trkpt>
      <trkpt lat="42.9443" lon="0.28867">
        <ele>1103</ele>
        <time>2019-08-08T05:41:28.000Z</time>
      </trkpt>
      <trkpt lat="42.94429" lon="0.28871">
        <ele>1103</ele>
        <time>2019-08-08T05:41:29.000Z</time>
      </trkpt>
      <trkpt lat="42.94428" lon="0.28876">
        <ele>1103</ele>
        <time>2019-08-08T05:41:30.000Z</time>
      </trkpt>
      <trkpt lat="42.94427" lon="0.2888">
        <ele>1103</ele>
        <time>2019-08-08T05:41:31.000Z</time>
      </trkpt>
      <trkpt lat="42.94426" lon="0.28884">
        <ele>1103</ele>
        <time>2019-08-08T05:41:32.000Z</time>
      </trkpt>
      <trkpt lat="42.94425" lon="0.28888">
        <ele>1103</ele>
        <time>2019-08-08T05:41:33.000Z</time>
      </trkpt>
      <trkpt lat="42.94423" lon="0.28892">
        <ele>1104</ele>
        <time>2019-08-08T05:41:34.000Z</time>
      </trkpt>
      <trkpt lat="42.9442" lon="0.28895">
        <ele>1104</ele>
        <time>2019-08-08T05:41:35.000Z</time>
      </trkpt>
      <trkpt lat="42.94418" lon="0.28898">
        <ele>1104</ele>
        <time>2019-08-08T05:41:36.000Z</time>
      </trkpt>
      <trkpt lat="42.94415" lon="0.28901">
        <ele>1105</ele>
        <time>2019-08-08T05:41:37.000Z</time>
      </trkpt>
      <trkpt lat="42.94413" lon="0.28904">
        <ele>1105</ele>
        <time>2019-08-08T05:41:38.000Z</time>
      </trkpt>
      <trkpt lat="42.9441" lon="0.28906">
        <ele>1106</ele>
        <time>2019-08-08T05:41:39.000Z</time>
      </trkpt>
      <trkpt lat="42.94407" lon="0.28907">
        <ele>1106</ele>
        <time>2019-08-08T05:41:40.000Z</time>
      </trkpt>
      <trkpt lat="42.94403" lon="0.28907">
        <ele>1107</ele>
        <time>2019-08-08T05:41:41.000Z</time>
      </trkpt>
      <trkpt lat="42.94399" lon="0.28906">
        <ele>1107</ele>
        <time>2019-08-08T05:41:42.000Z</time>
      </trkpt>
      <trkpt lat="42.94395" lon="0.28905">
        <ele>1107</ele>
        <time>2019-08-08T05:41:43.000Z</time>
      </trkpt>
      <trkpt lat="42.94392" lon="0.28902">
        <ele>1107</ele>
        <time>2019-08-08T05:41:44.000Z</time>
      </trkpt>
      <trkpt lat="42.94388" lon="0.28899">
        <ele>1107</ele>
        <time>2019-08-08T05:41:45.000Z</time>
      </trkpt>
      <trkpt lat="42.94385" lon="0.28897">
        <ele>1107</ele>
        <time>2019-08-08T05:41:46.000Z</time>
      </trkpt>
      <trkpt lat="42.94382" lon="0.28894">
        <ele>1108</ele>
        <time>2019-08-08T05:41:47.000Z</time>
      </trkpt>
      <trkpt lat="42.94379" lon="0.28891">
        <ele>1108</ele>
        <time>2019-08-08T05:41:48.000Z</time>
      </trkpt>
      <trkpt lat="42.94377" lon="0.28888">
        <ele>1108</ele>
        <time>2019-08-08T05:41:49.000Z</time>
      </trkpt>
      <trkpt lat="42.94374" lon="0.28885">
        <ele>1108</ele>
        <time>2019-08-08T05:41:50.000Z</time>
      </trkpt>
      <trkpt lat="42.94372" lon="0.28882">
        <ele>1110</ele>
        <time>2019-08-08T05:41:51.000Z</time>
      </trkpt>
      <trkpt lat="42.94369" lon="0.28879">
        <ele>1110</ele>
        <time>2019-08-08T05:41:52.000Z</time>
      </trkpt>
      <trkpt lat="42.94367" lon="0.28877">
        <ele>1110</ele>
        <time>2019-08-08T05:41:53.000Z</time>
      </trkpt>
      <trkpt lat="42.94364" lon="0.28874">
        <ele>1110</ele>
        <time>2019-08-08T05:41:54.000Z</time>
      </trkpt>
      <trkpt lat="42.94361" lon="0.28872">
        <ele>1111</ele>
        <time>2019-08-08T05:41:55.000Z</time>
      </trkpt>
      <trkpt lat="42.94358" lon="0.2887">
        <ele>1111</ele>
        <time>2019-08-08T05:41:56.000Z</time>
      </trkpt>
      <trkpt lat="42.94356" lon="0.28868">
        <ele>1111</ele>
        <time>2019-08-08T05:41:57.000Z</time>
      </trkpt>
      <trkpt lat="42.94353" lon="0.28866">
        <ele>1111</ele>
        <time>2019-08-08T05:41:58.000Z</time>
      </trkpt>
      <trkpt lat="42.9435" lon="0.28865">
        <ele>1112</ele>
        <time>2019-08-08T05:41:59.000Z</time>
      </trkpt>
      <trkpt lat="42.94347" lon="0.28863">
        <ele>1112</ele>
        <time>2019-08-08T05:42:00.000Z</time>
      </trkpt>
      <trkpt lat="42.94344" lon="0.28861">
        <ele>1112</ele>
        <time>2019-08-08T05:42:01.000Z</time>
      </trkpt>
      <trkpt lat="42.94341" lon="0.2886">
        <ele>1112</ele>
        <time>2019-08-08T05:42:02.000Z</time>
      </trkpt>
      <trkpt lat="42.94338" lon="0.28859">
        <ele>1112</ele>
        <time>2019-08-08T05:42:03.000Z</time>
      </trkpt>
      <trkpt lat="42.94335" lon="0.28857">
        <ele>1112</ele>
        <time>2019-08-08T05:42:04.000Z</time>
      </trkpt>
      <trkpt lat="42.94333" lon="0.28856">
        <ele>1112</ele>
        <time>2019-08-08T05:42:05.000Z</time>
      </trkpt>
      <trkpt lat="42.9433" lon="0.28855">
        <ele>1113</ele>
        <time>2019-08-08T05:42:06.000Z</time>
      </trkpt>
      <trkpt lat="42.94327" lon="0.28854">
        <ele>1113</ele>
        <time>2019-08-08T05:42:07.000Z</time>
      </trkpt>
      <trkpt lat="42.94324" lon="0.28853">
        <ele>1114</ele>
        <time>2019-08-08T05:42:08.000Z</time>
      </trkpt>
      <trkpt lat="42.94321" lon="0.28851">
        <ele>1114</ele>
        <time>2019-08-08T05:42:09.000Z</time>
      </trkpt>
      <trkpt lat="42.94318" lon="0.2885">
        <ele>1114</ele>
        <time>2019-08-08T05:42:10.000Z</time>
      </trkpt>
      <trkpt lat="42.94315" lon="0.2885">
        <ele>1114</ele>
        <time>2019-08-08T05:42:11.000Z</time>
      </trkpt>
      <trkpt lat="42.94312" lon="0.28849">
        <ele>1115</ele>
        <time>2019-08-08T05:42:12.000Z</time>
      </trkpt>
      <trkpt lat="42.94309" lon="0.28848">
        <ele>1115</ele>
        <time>2019-08-08T05:42:13.000Z</time>
      </trkpt>
      <trkpt lat="42.94306" lon="0.28847">
        <ele>1116</ele>
        <time>2019-08-08T05:42:14.000Z</time>
      </trkpt>
      <trkpt lat="42.94303" lon="0.28847">
        <ele>1116</ele>
        <time>2019-08-08T05:42:15.000Z</time>
      </trkpt>
      <trkpt lat="42.943" lon="0.28846">
        <ele>1116</ele>
        <time>2019-08-08T05:42:16.000Z</time>
      </trkpt>
      <trkpt lat="42.94297" lon="0.28846">
        <ele>1116</ele>
        <time>2019-08-08T05:42:17.000Z</time>
      </trkpt>
      <trkpt lat="42.94294" lon="0.28845">
        <ele>1117</ele>
        <time>2019-08-08T05:42:18.000Z</time>
      </trkpt>
      <trkpt lat="42.94291" lon="0.28845">
        <ele>1117</ele>
        <time>2019-08-08T05:42:19.000Z</time>
      </trkpt>
      <trkpt lat="42.94287" lon="0.28844">
        <ele>1118</ele>
        <time>2019-08-08T05:42:20.000Z</time>
      </trkpt>
      <trkpt lat="42.94284" lon="0.28844">
        <ele>1118</ele>
        <time>2019-08-08T05:42:21.000Z</time>
      </trkpt>
      <trkpt lat="42.94281" lon="0.28843">
        <ele>1119</ele>
        <time>2019-08-08T05:42:22.000Z</time>
      </trkpt>
      <trkpt lat="42.94278" lon="0.28842">
        <ele>1119</ele>
        <time>2019-08-08T05:42:23.000Z</time>
      </trkpt>
      <trkpt lat="42.94275" lon="0.28842">
        <ele>1119</ele>
        <time>2019-08-08T05:42:24.000Z</time>
      </trkpt>
      <trkpt lat="42.94272" lon="0.28842">
        <ele>1119</ele>
        <time>2019-08-08T05:42:25.000Z</time>
      </trkpt>
      <trkpt lat="42.94269" lon="0.28842">
        <ele>1119</ele>
        <time>2019-08-08T05:42:26.000Z</time>
      </trkpt>
      <trkpt lat="42.94266" lon="0.28842">
        <ele>1119</ele>
        <time>2019-08-08T05:42:27.000Z</time>
      </trkpt>
      <trkpt lat="42.94263" lon="0.28841">
        <ele>1119</ele>
        <time>2019-08-08T05:42:28.000Z</time>
      </trkpt>
      <trkpt lat="42.9426" lon="0.28841">
        <ele>1119</ele>
        <time>2019-08-08T05:42:29.000Z</time>
      </trkpt>
      <trkpt lat="42.94257" lon="0.28841">
        <ele>1119</ele>
        <time>2019-08-08T05:42:30.000Z</time>
      </trkpt>
      <trkpt lat="42.94254" lon="0.28841">
        <ele>1120</ele>
        <time>2019-08-08T05:42:31.000Z</time>
      </trkpt>
      <trkpt lat="42.94251" lon="0.2884">
        <ele>1120</ele>
        <time>2019-08-08T05:42:32.000Z</time>
      </trkpt>
      <trkpt lat="42.94248" lon="0.2884">
        <ele>1121</ele>
        <time>2019-08-08T05:42:33.000Z</time>
      </trkpt>
      <trkpt lat="42.94245" lon="0.2884">
        <ele>1121</ele>
        <time>2019-08-08T05:42:34.000Z</time>
      </trkpt>
      <trkpt lat="42.94242" lon="0.2884">
        <ele>1121</ele>
        <time>2019-08-08T05:42:35.000Z</time>
      </trkpt>
      <trkpt lat="42.9424" lon="0.28841">
        <ele>1121</ele>
        <time>2019-08-08T05:42:36.000Z</time>
      </trkpt>
      <trkpt lat="42.94237" lon="0.28841">
        <ele>1122</ele>
        <time>2019-08-08T05:42:37.000Z</time>
      </trkpt>
      <trkpt lat="42.94234" lon="0.28841">
        <ele>1122</ele>
        <time>2019-08-08T05:42:38.000Z</time>
      </trkpt>
      <trkpt lat="42.94231" lon="0.28842">
        <ele>1122</ele>
        <time>2019-08-08T05:42:39.000Z</time>
      </trkpt>
      <trkpt lat="42.94228" lon="0.28843">
        <ele>1122</ele>
        <time>2019-08-08T05:42:40.000Z</time>
      </trkpt>
      <trkpt lat="42.94226" lon="0.28844">
        <ele>1123</ele>
        <time>2019-08-08T05:42:41.000Z</time>
      </trkpt>
      <trkpt lat="42.94223" lon="0.28844">
        <ele>1123</ele>
        <time>2019-08-08T05:42:42.000Z</time>
      </trkpt>
      <trkpt lat="42.9422" lon="0.28845">
        <ele>1124</ele>
        <time>2019-08-08T05:42:43.000Z</time>
      </trkpt>
      <trkpt lat="42.94217" lon="0.28847">
        <ele>1124</ele>
        <time>2019-08-08T05:42:44.000Z</time>
      </trkpt>
      <trkpt lat="42.94215" lon="0.28848">
        <ele>1125</ele>
        <time>2019-08-08T05:42:45.000Z</time>
      </trkpt>
      <trkpt lat="42.94212" lon="0.28849">
        <ele>1125</ele>
        <time>2019-08-08T05:42:46.000Z</time>
      </trkpt>
      <trkpt lat="42.94209" lon="0.28851">
        <ele>1125</ele>
        <time>2019-08-08T05:42:47.000Z</time>
      </trkpt>
      <trkpt lat="42.94207" lon="0.28852">
        <ele>1125</ele>
        <time>2019-08-08T05:42:48.000Z</time>
      </trkpt>
      <trkpt lat="42.94204" lon="0.28853">
        <ele>1125</ele>
        <time>2019-08-08T05:42:49.000Z</time>
      </trkpt>
      <trkpt lat="42.94201" lon="0.28854">
        <ele>1125</ele>
        <time>2019-08-08T05:42:50.000Z</time>
      </trkpt>
      <trkpt lat="42.94199" lon="0.28855">
        <ele>1125</ele>
        <time>2019-08-08T05:42:51.000Z</time>
      </trkpt>
      <trkpt lat="42.94196" lon="0.28857">
        <ele>1125</ele>
        <time>2019-08-08T05:42:52.000Z</time>
      </trkpt>
      <trkpt lat="42.94194" lon="0.28858">
        <ele>1126</ele>
        <time>2019-08-08T05:42:53.000Z</time>
      </trkpt>
      <trkpt lat="42.94191" lon="0.28859">
        <ele>1126</ele>
        <time>2019-08-08T05:42:54.000Z</time>
      </trkpt>
      <trkpt lat="42.94188" lon="0.28861">
        <ele>1126</ele>
        <time>2019-08-08T05:42:55.000Z</time>
      </trkpt>
      <trkpt lat="42.94185" lon="0.28861">
        <ele>1127</ele>
        <time>2019-08-08T05:42:56.000Z</time>
      </trkpt>
      <trkpt lat="42.94183" lon="0.28863">
        <ele>1127</ele>
        <time>2019-08-08T05:42:57.000Z</time>
      </trkpt>
      <trkpt lat="42.9418" lon="0.28865">
        <ele>1127</ele>
        <time>2019-08-08T05:42:58.000Z</time>
      </trkpt>
      <trkpt lat="42.94178" lon="0.28866">
        <ele>1127</ele>
        <time>2019-08-08T05:42:59.000Z</time>
      </trkpt>
      <trkpt lat="42.94175" lon="0.28867">
        <ele>1128</ele>
        <time>2019-08-08T05:43:00.000Z</time>
      </trkpt>
      <trkpt lat="42.94172" lon="0.28868">
        <ele>1128</ele>
        <time>2019-08-08T05:43:01.000Z</time>
      </trkpt>
      <trkpt lat="42.9417" lon="0.2887">
        <ele>1128</ele>
        <time>2019-08-08T05:43:02.000Z</time>
      </trkpt>
      <trkpt lat="42.94167" lon="0.28871">
        <ele>1128</ele>
        <time>2019-08-08T05:43:03.000Z</time>
      </trkpt>
      <trkpt lat="42.94165" lon="0.28872">
        <ele>1129</ele>
        <time>2019-08-08T05:43:04.000Z</time>
      </trkpt>
      <trkpt lat="42.94162" lon="0.28874">
        <ele>1129</ele>
        <time>2019-08-08T05:43:05.000Z</time>
      </trkpt>
      <trkpt lat="42.9416" lon="0.28875">
        <ele>1129</ele>
        <time>2019-08-08T05:43:06.000Z</time>
      </trkpt>
      <trkpt lat="42.94157" lon="0.28877">
        <ele>1130</ele>
        <time>2019-08-08T05:43:07.000Z</time>
      </trkpt>
      <trkpt lat="42.94154" lon="0.28878">
        <ele>1130</ele>
        <time>2019-08-08T05:43:08.000Z</time>
      </trkpt>
      <trkpt lat="42.94152" lon="0.2888">
        <ele>1130</ele>
        <time>2019-08-08T05:43:09.000Z</time>
      </trkpt>
      <trkpt lat="42.94149" lon="0.28882">
        <ele>1130</ele>
        <time>2019-08-08T05:43:10.000Z</time>
      </trkpt>
      <trkpt lat="42.94147" lon="0.28884">
        <ele>1131</ele>
        <time>2019-08-08T05:43:11.000Z</time>
      </trkpt>
      <trkpt lat="42.94144" lon="0.28886">
        <ele>1131</ele>
        <time>2019-08-08T05:43:12.000Z</time>
      </trkpt>
      <trkpt lat="42.94142" lon="0.28888">
        <ele>1132</ele>
        <time>2019-08-08T05:43:13.000Z</time>
      </trkpt>
      <trkpt lat="42.94139" lon="0.2889">
        <ele>1132</ele>
        <time>2019-08-08T05:43:14.000Z</time>
      </trkpt>
      <trkpt lat="42.94137" lon="0.28892">
        <ele>1132</ele>
        <time>2019-08-08T05:43:15.000Z</time>
      </trkpt>
      <trkpt lat="42.94134" lon="0.28894">
        <ele>1132</ele>
        <time>2019-08-08T05:43:16.000Z</time>
      </trkpt>
      <trkpt lat="42.94132" lon="0.28896">
        <ele>1133</ele>
        <time>2019-08-08T05:43:17.000Z</time>
      </trkpt>
      <trkpt lat="42.9413" lon="0.28898">
        <ele>1133</ele>
        <time>2019-08-08T05:43:18.000Z</time>
      </trkpt>
      <trkpt lat="42.94127" lon="0.289">
        <ele>1134</ele>
        <time>2019-08-08T05:43:19.000Z</time>
      </trkpt>
      <trkpt lat="42.94125" lon="0.28902">
        <ele>1134</ele>
        <time>2019-08-08T05:43:20.000Z</time>
      </trkpt>
      <trkpt lat="42.94122" lon="0.28904">
        <ele>1134</ele>
        <time>2019-08-08T05:43:21.000Z</time>
      </trkpt>
      <trkpt lat="42.9412" lon="0.28906">
        <ele>1134</ele>
        <time>2019-08-08T05:43:22.000Z</time>
      </trkpt>
      <trkpt lat="42.94118" lon="0.28909">
        <ele>1135</ele>
        <time>2019-08-08T05:43:23.000Z</time>
      </trkpt>
      <trkpt lat="42.94116" lon="0.28912">
        <ele>1135</ele>
        <time>2019-08-08T05:43:24.000Z</time>
      </trkpt>
      <trkpt lat="42.94113" lon="0.28915">
        <ele>1135</ele>
        <time>2019-08-08T05:43:25.000Z</time>
      </trkpt>
      <trkpt lat="42.94111" lon="0.28917">
        <ele>1135</ele>
        <time>2019-08-08T05:43:26.000Z</time>
      </trkpt>
      <trkpt lat="42.94109" lon="0.2892">
        <ele>1135</ele>
        <time>2019-08-08T05:43:27.000Z</time>
      </trkpt>
      <trkpt lat="42.94107" lon="0.28923">
        <ele>1136</ele>
        <time>2019-08-08T05:43:28.000Z</time>
      </trkpt>
      <trkpt lat="42.94105" lon="0.28926">
        <ele>1136</ele>
        <time>2019-08-08T05:43:29.000Z</time>
      </trkpt>
      <trkpt lat="42.94103" lon="0.28929">
        <ele>1137</ele>
        <time>2019-08-08T05:43:30.000Z</time>
      </trkpt>
      <trkpt lat="42.94101" lon="0.28932">
        <ele>1137</ele>
        <time>2019-08-08T05:43:31.000Z</time>
      </trkpt>
      <trkpt lat="42.94099" lon="0.28935">
        <ele>1137</ele>
        <time>2019-08-08T05:43:32.000Z</time>
      </trkpt>
      <trkpt lat="42.94098" lon="0.28939">
        <ele>1138</ele>
        <time>2019-08-08T05:43:33.000Z</time>
      </trkpt>
      <trkpt lat="42.94095" lon="0.28942">
        <ele>1138</ele>
        <time>2019-08-08T05:43:34.000Z</time>
      </trkpt>
      <trkpt lat="42.94094" lon="0.28945">
        <ele>1138</ele>
        <time>2019-08-08T05:43:35.000Z</time>
      </trkpt>
      <trkpt lat="42.94092" lon="0.28948">
        <ele>1138</ele>
        <time>2019-08-08T05:43:36.000Z</time>
      </trkpt>
      <trkpt lat="42.94091" lon="0.28951">
        <ele>1138</ele>
        <time>2019-08-08T05:43:37.000Z</time>
      </trkpt>
      <trkpt lat="42.9409" lon="0.28955">
        <ele>1138</ele>
        <time>2019-08-08T05:43:38.000Z</time>
      </trkpt>
      <trkpt lat="42.94088" lon="0.28958">
        <ele>1139</ele>
        <time>2019-08-08T05:43:39.000Z</time>
      </trkpt>
      <trkpt lat="42.94087" lon="0.28961">
        <ele>1139</ele>
        <time>2019-08-08T05:43:40.000Z</time>
      </trkpt>
      <trkpt lat="42.94085" lon="0.28965">
        <ele>1140</ele>
        <time>2019-08-08T05:43:41.000Z</time>
      </trkpt>
      <trkpt lat="42.94084" lon="0.28968">
        <ele>1140</ele>
        <time>2019-08-08T05:43:42.000Z</time>
      </trkpt>
      <trkpt lat="42.94083" lon="0.28972">
        <ele>1140</ele>
        <time>2019-08-08T05:43:43.000Z</time>
      </trkpt>
      <trkpt lat="42.94082" lon="0.28976">
        <ele>1140</ele>
        <time>2019-08-08T05:43:44.000Z</time>
      </trkpt>
      <trkpt lat="42.9408" lon="0.28979">
        <ele>1140</ele>
        <time>2019-08-08T05:43:45.000Z</time>
      </trkpt>
      <trkpt lat="42.94079" lon="0.28982">
        <ele>1140</ele>
        <time>2019-08-08T05:43:46.000Z</time>
      </trkpt>
      <trkpt lat="42.94078" lon="0.28986">
        <ele>1140</ele>
        <time>2019-08-08T05:43:47.000Z</time>
      </trkpt>
      <trkpt lat="42.94076" lon="0.28989">
        <ele>1140</ele>
        <time>2019-08-08T05:43:48.000Z</time>
      </trkpt>
      <trkpt lat="42.94075" lon="0.28993">
        <ele>1140</ele>
        <time>2019-08-08T05:43:49.000Z</time>
      </trkpt>
      <trkpt lat="42.94074" lon="0.28996">
        <ele>1140</ele>
        <time>2019-08-08T05:43:50.000Z</time>
      </trkpt>
      <trkpt lat="42.94073" lon="0.29">
        <ele>1140</ele>
        <time>2019-08-08T05:43:51.000Z</time>
      </trkpt>
      <trkpt lat="42.94072" lon="0.29003">
        <ele>1141</ele>
        <time>2019-08-08T05:43:52.000Z</time>
      </trkpt>
      <trkpt lat="42.94072" lon="0.29007">
        <ele>1141</ele>
        <time>2019-08-08T05:43:53.000Z</time>
      </trkpt>
      <trkpt lat="42.94071" lon="0.2901">
        <ele>1141</ele>
        <time>2019-08-08T05:43:54.000Z</time>
      </trkpt>
      <trkpt lat="42.94069" lon="0.29014">
        <ele>1141</ele>
        <time>2019-08-08T05:43:55.000Z</time>
      </trkpt>
      <trkpt lat="42.94068" lon="0.29017">
        <ele>1142</ele>
        <time>2019-08-08T05:43:56.000Z</time>
      </trkpt>
      <trkpt lat="42.94067" lon="0.2902">
        <ele>1142</ele>
        <time>2019-08-08T05:43:57.000Z</time>
      </trkpt>
      <trkpt lat="42.94066" lon="0.29024">
        <ele>1142</ele>
        <time>2019-08-08T05:43:58.000Z</time>
      </trkpt>
      <trkpt lat="42.94065" lon="0.29027">
        <ele>1142</ele>
        <time>2019-08-08T05:43:59.000Z</time>
      </trkpt>
      <trkpt lat="42.94064" lon="0.29031">
        <ele>1143</ele>
        <time>2019-08-08T05:44:00.000Z</time>
      </trkpt>
      <trkpt lat="42.94064" lon="0.29034">
        <ele>1143</ele>
        <time>2019-08-08T05:44:01.000Z</time>
      </trkpt>
      <trkpt lat="42.94063" lon="0.29037">
        <ele>1143</ele>
        <time>2019-08-08T05:44:02.000Z</time>
      </trkpt>
      <trkpt lat="42.94064" lon="0.29041">
        <ele>1144</ele>
        <time>2019-08-08T05:44:03.000Z</time>
      </trkpt>
      <trkpt lat="42.94065" lon="0.29044">
        <ele>1144</ele>
        <time>2019-08-08T05:44:04.000Z</time>
      </trkpt>
      <trkpt lat="42.94067" lon="0.29047">
        <ele>1145</ele>
        <time>2019-08-08T05:44:05.000Z</time>
      </trkpt>
      <trkpt lat="42.94069" lon="0.29049">
        <ele>1145</ele>
        <time>2019-08-08T05:44:06.000Z</time>
      </trkpt>
      <trkpt lat="42.94071" lon="0.29052">
        <ele>1145</ele>
        <time>2019-08-08T05:44:07.000Z</time>
      </trkpt>
      <trkpt lat="42.94074" lon="0.29053">
        <ele>1145</ele>
        <time>2019-08-08T05:44:08.000Z</time>
      </trkpt>
      <trkpt lat="42.94076" lon="0.29053">
        <ele>1146</ele>
        <time>2019-08-08T05:44:09.000Z</time>
      </trkpt>
      <trkpt lat="42.94079" lon="0.29053">
        <ele>1146</ele>
        <time>2019-08-08T05:44:10.000Z</time>
      </trkpt>
      <trkpt lat="42.94082" lon="0.29052">
        <ele>1147</ele>
        <time>2019-08-08T05:44:11.000Z</time>
      </trkpt>
      <trkpt lat="42.94085" lon="0.2905">
        <ele>1147</ele>
        <time>2019-08-08T05:44:12.000Z</time>
      </trkpt>
      <trkpt lat="42.94087" lon="0.29047">
        <ele>1147</ele>
        <time>2019-08-08T05:44:13.000Z</time>
      </trkpt>
      <trkpt lat="42.9409" lon="0.29045">
        <ele>1147</ele>
        <time>2019-08-08T05:44:14.000Z</time>
      </trkpt>
      <trkpt lat="42.94093" lon="0.29043">
        <ele>1148</ele>
        <time>2019-08-08T05:44:15.000Z</time>
      </trkpt>
      <trkpt lat="42.94094" lon="0.2904">
        <ele>1148</ele>
        <time>2019-08-08T05:44:16.000Z</time>
      </trkpt>
      <trkpt lat="42.94096" lon="0.29037">
        <ele>1149</ele>
        <time>2019-08-08T05:44:17.000Z</time>
      </trkpt>
      <trkpt lat="42.94097" lon="0.29033">
        <ele>1149</ele>
        <time>2019-08-08T05:44:18.000Z</time>
      </trkpt>
      <trkpt lat="42.94099" lon="0.2903">
        <ele>1149</ele>
        <time>2019-08-08T05:44:19.000Z</time>
      </trkpt>
      <trkpt lat="42.94101" lon="0.29027">
        <ele>1149</ele>
        <time>2019-08-08T05:44:20.000Z</time>
      </trkpt>
      <trkpt lat="42.94103" lon="0.29024">
        <ele>1149</ele>
        <time>2019-08-08T05:44:21.000Z</time>
      </trkpt>
      <trkpt lat="42.94104" lon="0.29021">
        <ele>1149</ele>
        <time>2019-08-08T05:44:22.000Z</time>
      </trkpt>
      <trkpt lat="42.94106" lon="0.29018">
        <ele>1149</ele>
        <time>2019-08-08T05:44:23.000Z</time>
      </trkpt>
      <trkpt lat="42.94108" lon="0.29015">
        <ele>1151</ele>
        <time>2019-08-08T05:44:24.000Z</time>
      </trkpt>
      <trkpt lat="42.94111" lon="0.29014">
        <ele>1151</ele>
        <time>2019-08-08T05:44:25.000Z</time>
      </trkpt>
      <trkpt lat="42.94113" lon="0.29014">
        <ele>1151</ele>
        <time>2019-08-08T05:44:26.000Z</time>
      </trkpt>
      <trkpt lat="42.94116" lon="0.29014">
        <ele>1151</ele>
        <time>2019-08-08T05:44:27.000Z</time>
      </trkpt>
      <trkpt lat="42.94118" lon="0.29013">
        <ele>1151</ele>
        <time>2019-08-08T05:44:28.000Z</time>
      </trkpt>
      <trkpt lat="42.94121" lon="0.29013">
        <ele>1152</ele>
        <time>2019-08-08T05:44:29.000Z</time>
      </trkpt>
      <trkpt lat="42.94123" lon="0.29012">
        <ele>1152</ele>
        <time>2019-08-08T05:44:30.000Z</time>
      </trkpt>
      <trkpt lat="42.94126" lon="0.29012">
        <ele>1152</ele>
        <time>2019-08-08T05:44:31.000Z</time>
      </trkpt>
      <trkpt lat="42.94129" lon="0.29012">
        <ele>1152</ele>
        <time>2019-08-08T05:44:32.000Z</time>
      </trkpt>
      <trkpt lat="42.94132" lon="0.29011">
        <ele>1152</ele>
        <time>2019-08-08T05:44:33.000Z</time>
      </trkpt>
      <trkpt lat="42.94134" lon="0.29011">
        <ele>1152</ele>
        <time>2019-08-08T05:44:34.000Z</time>
      </trkpt>
      <trkpt lat="42.94137" lon="0.29011">
        <ele>1152</ele>
        <time>2019-08-08T05:44:35.000Z</time>
      </trkpt>
      <trkpt lat="42.94139" lon="0.2901">
        <ele>1152</ele>
        <time>2019-08-08T05:44:36.000Z</time>
      </trkpt>
      <trkpt lat="42.94142" lon="0.29009">
        <ele>1154</ele>
        <time>2019-08-08T05:44:37.000Z</time>
      </trkpt>
      <trkpt lat="42.94145" lon="0.29009">
        <ele>1154</ele>
        <time>2019-08-08T05:44:38.000Z</time>
      </trkpt>
      <trkpt lat="42.94148" lon="0.29009">
        <ele>1154</ele>
        <time>2019-08-08T05:44:39.000Z</time>
      </trkpt>
      <trkpt lat="42.9415" lon="0.29009">
        <ele>1154</ele>
        <time>2019-08-08T05:44:40.000Z</time>
      </trkpt>
      <trkpt lat="42.94153" lon="0.2901">
        <ele>1154</ele>
        <time>2019-08-08T05:44:41.000Z</time>
      </trkpt>
      <trkpt lat="42.94156" lon="0.2901">
        <ele>1154</ele>
        <time>2019-08-08T05:44:42.000Z</time>
      </trkpt>
      <trkpt lat="42.94159" lon="0.2901">
        <ele>1154</ele>
        <time>2019-08-08T05:44:43.000Z</time>
      </trkpt>
      <trkpt lat="42.94161" lon="0.2901">
        <ele>1155</ele>
        <time>2019-08-08T05:44:44.000Z</time>
      </trkpt>
      <trkpt lat="42.94164" lon="0.29011">
        <ele>1155</ele>
        <time>2019-08-08T05:44:45.000Z</time>
      </trkpt>
      <trkpt lat="42.94167" lon="0.2901">
        <ele>1155</ele>
        <time>2019-08-08T05:44:46.000Z</time>
      </trkpt>
      <trkpt lat="42.9417" lon="0.2901">
        <ele>1155</ele>
        <time>2019-08-08T05:44:47.000Z</time>
      </trkpt>
      <trkpt lat="42.94173" lon="0.29011">
        <ele>1156</ele>
        <time>2019-08-08T05:44:48.000Z</time>
      </trkpt>
      <trkpt lat="42.94175" lon="0.29011">
        <ele>1156</ele>
        <time>2019-08-08T05:44:49.000Z</time>
      </trkpt>
      <trkpt lat="42.94178" lon="0.29011">
        <ele>1156</ele>
        <time>2019-08-08T05:44:50.000Z</time>
      </trkpt>
      <trkpt lat="42.9418" lon="0.29012">
        <ele>1156</ele>
        <time>2019-08-08T05:44:51.000Z</time>
      </trkpt>
      <trkpt lat="42.94183" lon="0.29013">
        <ele>1156</ele>
        <time>2019-08-08T05:44:52.000Z</time>
      </trkpt>
      <trkpt lat="42.94186" lon="0.29013">
        <ele>1157</ele>
        <time>2019-08-08T05:44:53.000Z</time>
      </trkpt>
      <trkpt lat="42.94189" lon="0.29014">
        <ele>1157</ele>
        <time>2019-08-08T05:44:54.000Z</time>
      </trkpt>
      <trkpt lat="42.94192" lon="0.29014">
        <ele>1157</ele>
        <time>2019-08-08T05:44:55.000Z</time>
      </trkpt>
      <trkpt lat="42.94195" lon="0.29015">
        <ele>1157</ele>
        <time>2019-08-08T05:44:56.000Z</time>
      </trkpt>
      <trkpt lat="42.94198" lon="0.29015">
        <ele>1158</ele>
        <time>2019-08-08T05:44:57.000Z</time>
      </trkpt>
      <trkpt lat="42.94201" lon="0.29015">
        <ele>1158</ele>
        <time>2019-08-08T05:44:58.000Z</time>
      </trkpt>
      <trkpt lat="42.94204" lon="0.29016">
        <ele>1158</ele>
        <time>2019-08-08T05:44:59.000Z</time>
      </trkpt>
      <trkpt lat="42.94207" lon="0.29016">
        <ele>1158</ele>
        <time>2019-08-08T05:45:00.000Z</time>
      </trkpt>
      <trkpt lat="42.9421" lon="0.29016">
        <ele>1158</ele>
        <time>2019-08-08T05:45:01.000Z</time>
      </trkpt>
      <trkpt lat="42.9421" lon="0.29016">
        <ele>1158</ele>
        <time>2019-08-08T05:45:02.000Z</time>
      </trkpt>
      <trkpt lat="42.94215" lon="0.29017">
        <ele>1159</ele>
        <time>2019-08-08T05:45:03.000Z</time>
      </trkpt>
      <trkpt lat="42.94218" lon="0.29018">
        <ele>1159</ele>
        <time>2019-08-08T05:45:04.000Z</time>
      </trkpt>
      <trkpt lat="42.94218" lon="0.29018">
        <ele>1160</ele>
        <time>2019-08-08T05:45:05.000Z</time>
      </trkpt>
      <trkpt lat="42.94223" lon="0.29017">
        <ele>1160</ele>
        <time>2019-08-08T05:45:06.000Z</time>
      </trkpt>
      <trkpt lat="42.94225" lon="0.29017">
        <ele>1160</ele>
        <time>2019-08-08T05:45:07.000Z</time>
      </trkpt>
      <trkpt lat="42.94228" lon="0.29016">
        <ele>1160</ele>
        <time>2019-08-08T05:45:08.000Z</time>
      </trkpt>
      <trkpt lat="42.94231" lon="0.29016">
        <ele>1160</ele>
        <time>2019-08-08T05:45:09.000Z</time>
      </trkpt>
      <trkpt lat="42.94234" lon="0.29016">
        <ele>1161</ele>
        <time>2019-08-08T05:45:10.000Z</time>
      </trkpt>
      <trkpt lat="42.94237" lon="0.29016">
        <ele>1161</ele>
        <time>2019-08-08T05:45:11.000Z</time>
      </trkpt>
      <trkpt lat="42.9424" lon="0.29016">
        <ele>1161</ele>
        <time>2019-08-08T05:45:12.000Z</time>
      </trkpt>
      <trkpt lat="42.9424" lon="0.29016">
        <ele>1161</ele>
        <time>2019-08-08T05:45:13.000Z</time>
      </trkpt>
      <trkpt lat="42.94246" lon="0.29019">
        <ele>1161</ele>
        <time>2019-08-08T05:45:14.000Z</time>
      </trkpt>
      <trkpt lat="42.94249" lon="0.29019">
        <ele>1161</ele>
        <time>2019-08-08T05:45:15.000Z</time>
      </trkpt>
      <trkpt lat="42.94252" lon="0.29019">
        <ele>1162</ele>
        <time>2019-08-08T05:45:16.000Z</time>
      </trkpt>
      <trkpt lat="42.94254" lon="0.2902">
        <ele>1162</ele>
        <time>2019-08-08T05:45:17.000Z</time>
      </trkpt>
      <trkpt lat="42.94257" lon="0.2902">
        <ele>1162</ele>
        <time>2019-08-08T05:45:18.000Z</time>
      </trkpt>
      <trkpt lat="42.94259" lon="0.29021">
        <ele>1162</ele>
        <time>2019-08-08T05:45:19.000Z</time>
      </trkpt>
      <trkpt lat="42.94262" lon="0.29022">
        <ele>1162</ele>
        <time>2019-08-08T05:45:20.000Z</time>
      </trkpt>
      <trkpt lat="42.94265" lon="0.29023">
        <ele>1163</ele>
        <time>2019-08-08T05:45:21.000Z</time>
      </trkpt>
      <trkpt lat="42.94268" lon="0.29025">
        <ele>1163</ele>
        <time>2019-08-08T05:45:22.000Z</time>
      </trkpt>
      <trkpt lat="42.94271" lon="0.29027">
        <ele>1163</ele>
        <time>2019-08-08T05:45:23.000Z</time>
      </trkpt>
      <trkpt lat="42.94271" lon="0.29027">
        <ele>1163</ele>
        <time>2019-08-08T05:45:24.000Z</time>
      </trkpt>
      <trkpt lat="42.94271" lon="0.29027">
        <ele>1163</ele>
        <time>2019-08-08T05:45:25.000Z</time>
      </trkpt>
      <trkpt lat="42.94271" lon="0.29027">
        <ele>1163</ele>
        <time>2019-08-08T05:45:26.000Z</time>
      </trkpt>
      <trkpt lat="42.94274" lon="0.2904">
        <ele>1163</ele>
        <time>2019-08-08T05:45:27.000Z</time>
      </trkpt>
      <trkpt lat="42.94274" lon="0.2904">
        <ele>1165</ele>
        <time>2019-08-08T05:45:28.000Z</time>
      </trkpt>
      <trkpt lat="42.94274" lon="0.2904">
        <ele>1165</ele>
        <time>2019-08-08T05:45:29.000Z</time>
      </trkpt>
      <trkpt lat="42.94267" lon="0.29046">
        <ele>1166</ele>
        <time>2019-08-08T05:45:30.000Z</time>
      </trkpt>
      <trkpt lat="42.94267" lon="0.29046">
        <ele>1166</ele>
        <time>2019-08-08T05:45:31.000Z</time>
      </trkpt>
      <trkpt lat="42.94262" lon="0.29047">
        <ele>1167</ele>
        <time>2019-08-08T05:45:32.000Z</time>
      </trkpt>
      <trkpt lat="42.94259" lon="0.29047">
        <ele>1167</ele>
        <time>2019-08-08T05:45:33.000Z</time>
      </trkpt>
      <trkpt lat="42.94256" lon="0.29048">
        <ele>1167</ele>
        <time>2019-08-08T05:45:34.000Z</time>
      </trkpt>
      <trkpt lat="42.94252" lon="0.29048">
        <ele>1167</ele>
        <time>2019-08-08T05:45:35.000Z</time>
      </trkpt>
      <trkpt lat="42.94248" lon="0.29048">
        <ele>1167</ele>
        <time>2019-08-08T05:45:36.000Z</time>
      </trkpt>
      <trkpt lat="42.94245" lon="0.29048">
        <ele>1168</ele>
        <time>2019-08-08T05:45:37.000Z</time>
      </trkpt>
      <trkpt lat="42.94241" lon="0.29049">
        <ele>1168</ele>
        <time>2019-08-08T05:45:38.000Z</time>
      </trkpt>
      <trkpt lat="42.94238" lon="0.29049">
        <ele>1168</ele>
        <time>2019-08-08T05:45:39.000Z</time>
      </trkpt>
      <trkpt lat="42.94234" lon="0.29049">
        <ele>1168</ele>
        <time>2019-08-08T05:45:40.000Z</time>
      </trkpt>
      <trkpt lat="42.94232" lon="0.2905">
        <ele>1168</ele>
        <time>2019-08-08T05:45:41.000Z</time>
      </trkpt>
      <trkpt lat="42.94229" lon="0.2905">
        <ele>1168</ele>
        <time>2019-08-08T05:45:42.000Z</time>
      </trkpt>
      <trkpt lat="42.94226" lon="0.29051">
        <ele>1169</ele>
        <time>2019-08-08T05:45:43.000Z</time>
      </trkpt>
      <trkpt lat="42.94224" lon="0.29051">
        <ele>1169</ele>
        <time>2019-08-08T05:45:44.000Z</time>
      </trkpt>
      <trkpt lat="42.9422" lon="0.29052">
        <ele>1169</ele>
        <time>2019-08-08T05:45:45.000Z</time>
      </trkpt>
      <trkpt lat="42.94218" lon="0.29052">
        <ele>1169</ele>
        <time>2019-08-08T05:45:46.000Z</time>
      </trkpt>
      <trkpt lat="42.94215" lon="0.29053">
        <ele>1170</ele>
        <time>2019-08-08T05:45:47.000Z</time>
      </trkpt>
      <trkpt lat="42.94212" lon="0.29054">
        <ele>1170</ele>
        <time>2019-08-08T05:45:48.000Z</time>
      </trkpt>
      <trkpt lat="42.94209" lon="0.29055">
        <ele>1171</ele>
        <time>2019-08-08T05:45:49.000Z</time>
      </trkpt>
      <trkpt lat="42.94206" lon="0.29057">
        <ele>1171</ele>
        <time>2019-08-08T05:45:50.000Z</time>
      </trkpt>
      <trkpt lat="42.94203" lon="0.29059">
        <ele>1172</ele>
        <time>2019-08-08T05:45:51.000Z</time>
      </trkpt>
      <trkpt lat="42.94201" lon="0.29061">
        <ele>1172</ele>
        <time>2019-08-08T05:45:52.000Z</time>
      </trkpt>
      <trkpt lat="42.94198" lon="0.29062">
        <ele>1172</ele>
        <time>2019-08-08T05:45:53.000Z</time>
      </trkpt>
      <trkpt lat="42.94196" lon="0.29064">
        <ele>1172</ele>
        <time>2019-08-08T05:45:54.000Z</time>
      </trkpt>
      <trkpt lat="42.94194" lon="0.29066">
        <ele>1172</ele>
        <time>2019-08-08T05:45:55.000Z</time>
      </trkpt>
      <trkpt lat="42.94192" lon="0.29068">
        <ele>1172</ele>
        <time>2019-08-08T05:45:56.000Z</time>
      </trkpt>
      <trkpt lat="42.9419" lon="0.29071">
        <ele>1172</ele>
        <time>2019-08-08T05:45:57.000Z</time>
      </trkpt>
      <trkpt lat="42.94187" lon="0.29073">
        <ele>1172</ele>
        <time>2019-08-08T05:45:58.000Z</time>
      </trkpt>
      <trkpt lat="42.94185" lon="0.29075">
        <ele>1172</ele>
        <time>2019-08-08T05:45:59.000Z</time>
      </trkpt>
      <trkpt lat="42.94183" lon="0.29077">
        <ele>1172</ele>
        <time>2019-08-08T05:46:00.000Z</time>
      </trkpt>
      <trkpt lat="42.9418" lon="0.29079">
        <ele>1173</ele>
        <time>2019-08-08T05:46:01.000Z</time>
      </trkpt>
      <trkpt lat="42.94178" lon="0.29082">
        <ele>1173</ele>
        <time>2019-08-08T05:46:02.000Z</time>
      </trkpt>
      <trkpt lat="42.94176" lon="0.29084">
        <ele>1174</ele>
        <time>2019-08-08T05:46:03.000Z</time>
      </trkpt>
      <trkpt lat="42.94174" lon="0.29087">
        <ele>1174</ele>
        <time>2019-08-08T05:46:04.000Z</time>
      </trkpt>
      <trkpt lat="42.94172" lon="0.2909">
        <ele>1174</ele>
        <time>2019-08-08T05:46:05.000Z</time>
      </trkpt>
      <trkpt lat="42.94169" lon="0.29093">
        <ele>1174</ele>
        <time>2019-08-08T05:46:06.000Z</time>
      </trkpt>
      <trkpt lat="42.94167" lon="0.29095">
        <ele>1175</ele>
        <time>2019-08-08T05:46:07.000Z</time>
      </trkpt>
      <trkpt lat="42.94165" lon="0.29098">
        <ele>1175</ele>
        <time>2019-08-08T05:46:08.000Z</time>
      </trkpt>
      <trkpt lat="42.94163" lon="0.29101">
        <ele>1176</ele>
        <time>2019-08-08T05:46:09.000Z</time>
      </trkpt>
      <trkpt lat="42.94161" lon="0.29103">
        <ele>1176</ele>
        <time>2019-08-08T05:46:10.000Z</time>
      </trkpt>
      <trkpt lat="42.94159" lon="0.29105">
        <ele>1176</ele>
        <time>2019-08-08T05:46:11.000Z</time>
      </trkpt>
      <trkpt lat="42.94157" lon="0.29108">
        <ele>1177</ele>
        <time>2019-08-08T05:46:12.000Z</time>
      </trkpt>
      <trkpt lat="42.94155" lon="0.29111">
        <ele>1177</ele>
        <time>2019-08-08T05:46:13.000Z</time>
      </trkpt>
      <trkpt lat="42.94152" lon="0.29114">
        <ele>1177</ele>
        <time>2019-08-08T05:46:14.000Z</time>
      </trkpt>
      <trkpt lat="42.9415" lon="0.29117">
        <ele>1177</ele>
        <time>2019-08-08T05:46:15.000Z</time>
      </trkpt>
      <trkpt lat="42.94148" lon="0.2912">
        <ele>1177</ele>
        <time>2019-08-08T05:46:16.000Z</time>
      </trkpt>
      <trkpt lat="42.94146" lon="0.29122">
        <ele>1177</ele>
        <time>2019-08-08T05:46:17.000Z</time>
      </trkpt>
      <trkpt lat="42.94144" lon="0.29125">
        <ele>1177</ele>
        <time>2019-08-08T05:46:18.000Z</time>
      </trkpt>
      <trkpt lat="42.94143" lon="0.29128">
        <ele>1178</ele>
        <time>2019-08-08T05:46:19.000Z</time>
      </trkpt>
      <trkpt lat="42.94141" lon="0.29131">
        <ele>1178</ele>
        <time>2019-08-08T05:46:20.000Z</time>
      </trkpt>
      <trkpt lat="42.9414" lon="0.29134">
        <ele>1179</ele>
        <time>2019-08-08T05:46:21.000Z</time>
      </trkpt>
      <trkpt lat="42.94139" lon="0.29137">
        <ele>1179</ele>
        <time>2019-08-08T05:46:22.000Z</time>
      </trkpt>
      <trkpt lat="42.94137" lon="0.2914">
        <ele>1179</ele>
        <time>2019-08-08T05:46:23.000Z</time>
      </trkpt>
      <trkpt lat="42.94135" lon="0.29143">
        <ele>1179</ele>
        <time>2019-08-08T05:46:24.000Z</time>
      </trkpt>
      <trkpt lat="42.94133" lon="0.29146">
        <ele>1180</ele>
        <time>2019-08-08T05:46:25.000Z</time>
      </trkpt>
      <trkpt lat="42.94131" lon="0.29148">
        <ele>1180</ele>
        <time>2019-08-08T05:46:26.000Z</time>
      </trkpt>
      <trkpt lat="42.94129" lon="0.29152">
        <ele>1181</ele>
        <time>2019-08-08T05:46:27.000Z</time>
      </trkpt>
      <trkpt lat="42.94128" lon="0.29155">
        <ele>1181</ele>
        <time>2019-08-08T05:46:28.000Z</time>
      </trkpt>
      <trkpt lat="42.94126" lon="0.29159">
        <ele>1181</ele>
        <time>2019-08-08T05:46:29.000Z</time>
      </trkpt>
      <trkpt lat="42.94124" lon="0.29162">
        <ele>1181</ele>
        <time>2019-08-08T05:46:30.000Z</time>
      </trkpt>
      <trkpt lat="42.94122" lon="0.29166">
        <ele>1182</ele>
        <time>2019-08-08T05:46:31.000Z</time>
      </trkpt>
      <trkpt lat="42.94121" lon="0.29169">
        <ele>1182</ele>
        <time>2019-08-08T05:46:32.000Z</time>
      </trkpt>
      <trkpt lat="42.94119" lon="0.29173">
        <ele>1182</ele>
        <time>2019-08-08T05:46:33.000Z</time>
      </trkpt>
      <trkpt lat="42.94118" lon="0.29177">
        <ele>1182</ele>
        <time>2019-08-08T05:46:34.000Z</time>
      </trkpt>
      <trkpt lat="42.94116" lon="0.2918">
        <ele>1182</ele>
        <time>2019-08-08T05:46:35.000Z</time>
      </trkpt>
      <trkpt lat="42.94114" lon="0.29184">
        <ele>1183</ele>
        <time>2019-08-08T05:46:36.000Z</time>
      </trkpt>
      <trkpt lat="42.94113" lon="0.29187">
        <ele>1183</ele>
        <time>2019-08-08T05:46:37.000Z</time>
      </trkpt>
      <trkpt lat="42.94111" lon="0.2919">
        <ele>1183</ele>
        <time>2019-08-08T05:46:38.000Z</time>
      </trkpt>
      <trkpt lat="42.94109" lon="0.29193">
        <ele>1183</ele>
        <time>2019-08-08T05:46:39.000Z</time>
      </trkpt>
      <trkpt lat="42.94107" lon="0.29196">
        <ele>1183</ele>
        <time>2019-08-08T05:46:40.000Z</time>
      </trkpt>
      <trkpt lat="42.94106" lon="0.29199">
        <ele>1183</ele>
        <time>2019-08-08T05:46:41.000Z</time>
      </trkpt>
      <trkpt lat="42.94104" lon="0.29202">
        <ele>1184</ele>
        <time>2019-08-08T05:46:42.000Z</time>
      </trkpt>
      <trkpt lat="42.94102" lon="0.29205">
        <ele>1184</ele>
        <time>2019-08-08T05:46:43.000Z</time>
      </trkpt>
      <trkpt lat="42.94101" lon="0.29208">
        <ele>1185</ele>
        <time>2019-08-08T05:46:44.000Z</time>
      </trkpt>
      <trkpt lat="42.941" lon="0.29211">
        <ele>1185</ele>
        <time>2019-08-08T05:46:45.000Z</time>
      </trkpt>
      <trkpt lat="42.94098" lon="0.29214">
        <ele>1186</ele>
        <time>2019-08-08T05:46:46.000Z</time>
      </trkpt>
      <trkpt lat="42.94096" lon="0.29217">
        <ele>1186</ele>
        <time>2019-08-08T05:46:47.000Z</time>
      </trkpt>
      <trkpt lat="42.94094" lon="0.29219">
        <ele>1186</ele>
        <time>2019-08-08T05:46:48.000Z</time>
      </trkpt>
      <trkpt lat="42.94093" lon="0.29222">
        <ele>1186</ele>
        <time>2019-08-08T05:46:49.000Z</time>
      </trkpt>
      <trkpt lat="42.94092" lon="0.29225">
        <ele>1186</ele>
        <time>2019-08-08T05:46:50.000Z</time>
      </trkpt>
      <trkpt lat="42.9409" lon="0.29228">
        <ele>1186</ele>
        <time>2019-08-08T05:46:51.000Z</time>
      </trkpt>
      <trkpt lat="42.94089" lon="0.29231">
        <ele>1187</ele>
        <time>2019-08-08T05:46:52.000Z</time>
      </trkpt>
      <trkpt lat="42.94087" lon="0.29235">
        <ele>1187</ele>
        <time>2019-08-08T05:46:53.000Z</time>
      </trkpt>
      <trkpt lat="42.94086" lon="0.29238">
        <ele>1187</ele>
        <time>2019-08-08T05:46:54.000Z</time>
      </trkpt>
      <trkpt lat="42.94085" lon="0.29241">
        <ele>1187</ele>
        <time>2019-08-08T05:46:55.000Z</time>
      </trkpt>
      <trkpt lat="42.94083" lon="0.29244">
        <ele>1187</ele>
        <time>2019-08-08T05:46:56.000Z</time>
      </trkpt>
      <trkpt lat="42.94081" lon="0.29247">
        <ele>1187</ele>
        <time>2019-08-08T05:46:57.000Z</time>
      </trkpt>
      <trkpt lat="42.94079" lon="0.2925">
        <ele>1187</ele>
        <time>2019-08-08T05:46:58.000Z</time>
      </trkpt>
      <trkpt lat="42.94078" lon="0.29253">
        <ele>1187</ele>
        <time>2019-08-08T05:46:59.000Z</time>
      </trkpt>
      <trkpt lat="42.94076" lon="0.29257">
        <ele>1187</ele>
        <time>2019-08-08T05:47:00.000Z</time>
      </trkpt>
      <trkpt lat="42.94074" lon="0.29259">
        <ele>1188</ele>
        <time>2019-08-08T05:47:01.000Z</time>
      </trkpt>
      <trkpt lat="42.94072" lon="0.29261">
        <ele>1188</ele>
        <time>2019-08-08T05:47:02.000Z</time>
      </trkpt>
      <trkpt lat="42.9407" lon="0.29263">
        <ele>1189</ele>
        <time>2019-08-08T05:47:03.000Z</time>
      </trkpt>
      <trkpt lat="42.94068" lon="0.29265">
        <ele>1189</ele>
        <time>2019-08-08T05:47:04.000Z</time>
      </trkpt>
      <trkpt lat="42.94066" lon="0.29268">
        <ele>1189</ele>
        <time>2019-08-08T05:47:05.000Z</time>
      </trkpt>
      <trkpt lat="42.94064" lon="0.29271">
        <ele>1189</ele>
        <time>2019-08-08T05:47:06.000Z</time>
      </trkpt>
      <trkpt lat="42.94062" lon="0.29274">
        <ele>1190</ele>
        <time>2019-08-08T05:47:07.000Z</time>
      </trkpt>
      <trkpt lat="42.9406" lon="0.29277">
        <ele>1190</ele>
        <time>2019-08-08T05:47:08.000Z</time>
      </trkpt>
      <trkpt lat="42.94058" lon="0.2928">
        <ele>1190</ele>
        <time>2019-08-08T05:47:09.000Z</time>
      </trkpt>
      <trkpt lat="42.94056" lon="0.29282">
        <ele>1190</ele>
        <time>2019-08-08T05:47:10.000Z</time>
      </trkpt>
      <trkpt lat="42.94054" lon="0.29284">
        <ele>1191</ele>
        <time>2019-08-08T05:47:11.000Z</time>
      </trkpt>
      <trkpt lat="42.94052" lon="0.29286">
        <ele>1191</ele>
        <time>2019-08-08T05:47:12.000Z</time>
      </trkpt>
      <trkpt lat="42.94049" lon="0.29289">
        <ele>1191</ele>
        <time>2019-08-08T05:47:13.000Z</time>
      </trkpt>
      <trkpt lat="42.94047" lon="0.29292">
        <ele>1191</ele>
        <time>2019-08-08T05:47:14.000Z</time>
      </trkpt>
      <trkpt lat="42.94045" lon="0.29294">
        <ele>1191</ele>
        <time>2019-08-08T05:47:15.000Z</time>
      </trkpt>
      <trkpt lat="42.94042" lon="0.29296">
        <ele>1191</ele>
        <time>2019-08-08T05:47:16.000Z</time>
      </trkpt>
      <trkpt lat="42.9404" lon="0.29299">
        <ele>1191</ele>
        <time>2019-08-08T05:47:17.000Z</time>
      </trkpt>
      <trkpt lat="42.94038" lon="0.29303">
        <ele>1193</ele>
        <time>2019-08-08T05:47:18.000Z</time>
      </trkpt>
      <trkpt lat="42.94037" lon="0.29307">
        <ele>1193</ele>
        <time>2019-08-08T05:47:19.000Z</time>
      </trkpt>
      <trkpt lat="42.94036" lon="0.29311">
        <ele>1193</ele>
        <time>2019-08-08T05:47:20.000Z</time>
      </trkpt>
      <trkpt lat="42.94036" lon="0.29316">
        <ele>1193</ele>
        <time>2019-08-08T05:47:21.000Z</time>
      </trkpt>
      <trkpt lat="42.94036" lon="0.2932">
        <ele>1193</ele>
        <time>2019-08-08T05:47:22.000Z</time>
      </trkpt>
      <trkpt lat="42.94037" lon="0.29323">
        <ele>1194</ele>
        <time>2019-08-08T05:47:23.000Z</time>
      </trkpt>
      <trkpt lat="42.94039" lon="0.29325">
        <ele>1194</ele>
        <time>2019-08-08T05:47:24.000Z</time>
      </trkpt>
      <trkpt lat="42.94041" lon="0.29327">
        <ele>1194</ele>
        <time>2019-08-08T05:47:25.000Z</time>
      </trkpt>
      <trkpt lat="42.94044" lon="0.29328">
        <ele>1194</ele>
        <time>2019-08-08T05:47:26.000Z</time>
      </trkpt>
      <trkpt lat="42.94046" lon="0.29328">
        <ele>1194</ele>
        <time>2019-08-08T05:47:27.000Z</time>
      </trkpt>
      <trkpt lat="42.94049" lon="0.29327">
        <ele>1195</ele>
        <time>2019-08-08T05:47:28.000Z</time>
      </trkpt>
      <trkpt lat="42.94052" lon="0.29326">
        <ele>1195</ele>
        <time>2019-08-08T05:47:29.000Z</time>
      </trkpt>
      <trkpt lat="42.94054" lon="0.29324">
        <ele>1196</ele>
        <time>2019-08-08T05:47:30.000Z</time>
      </trkpt>
      <trkpt lat="42.94056" lon="0.29322">
        <ele>1196</ele>
        <time>2019-08-08T05:47:31.000Z</time>
      </trkpt>
      <trkpt lat="42.94058" lon="0.29321">
        <ele>1196</ele>
        <time>2019-08-08T05:47:32.000Z</time>
      </trkpt>
      <trkpt lat="42.9406" lon="0.29319">
        <ele>1196</ele>
        <time>2019-08-08T05:47:33.000Z</time>
      </trkpt>
      <trkpt lat="42.94062" lon="0.29317">
        <ele>1196</ele>
        <time>2019-08-08T05:47:34.000Z</time>
      </trkpt>
      <trkpt lat="42.94064" lon="0.29315">
        <ele>1196</ele>
        <time>2019-08-08T05:47:35.000Z</time>
      </trkpt>
      <trkpt lat="42.94066" lon="0.29312">
        <ele>1196</ele>
        <time>2019-08-08T05:47:36.000Z</time>
      </trkpt>
      <trkpt lat="42.94068" lon="0.29309">
        <ele>1197</ele>
        <time>2019-08-08T05:47:37.000Z</time>
      </trkpt>
      <trkpt lat="42.9407" lon="0.29307">
        <ele>1197</ele>
        <time>2019-08-08T05:47:38.000Z</time>
      </trkpt>
      <trkpt lat="42.94072" lon="0.29305">
        <ele>1197</ele>
        <time>2019-08-08T05:47:39.000Z</time>
      </trkpt>
      <trkpt lat="42.94074" lon="0.29302">
        <ele>1198</ele>
        <time>2019-08-08T05:47:40.000Z</time>
      </trkpt>
      <trkpt lat="42.94076" lon="0.293">
        <ele>1198</ele>
        <time>2019-08-08T05:47:41.000Z</time>
      </trkpt>
      <trkpt lat="42.94078" lon="0.29298">
        <ele>1198</ele>
        <time>2019-08-08T05:47:42.000Z</time>
      </trkpt>
      <trkpt lat="42.94081" lon="0.29297">
        <ele>1198</ele>
        <time>2019-08-08T05:47:43.000Z</time>
      </trkpt>
      <trkpt lat="42.94084" lon="0.29295">
        <ele>1199</ele>
        <time>2019-08-08T05:47:44.000Z</time>
      </trkpt>
      <trkpt lat="42.94086" lon="0.29294">
        <ele>1199</ele>
        <time>2019-08-08T05:47:45.000Z</time>
      </trkpt>
      <trkpt lat="42.94088" lon="0.29293">
        <ele>1200</ele>
        <time>2019-08-08T05:47:46.000Z</time>
      </trkpt>
      <trkpt lat="42.94091" lon="0.29292">
        <ele>1200</ele>
        <time>2019-08-08T05:47:47.000Z</time>
      </trkpt>
      <trkpt lat="42.94094" lon="0.29291">
        <ele>1200</ele>
        <time>2019-08-08T05:47:48.000Z</time>
      </trkpt>
      <trkpt lat="42.94096" lon="0.29291">
        <ele>1200</ele>
        <time>2019-08-08T05:47:49.000Z</time>
      </trkpt>
      <trkpt lat="42.94099" lon="0.2929">
        <ele>1200</ele>
        <time>2019-08-08T05:47:50.000Z</time>
      </trkpt>
      <trkpt lat="42.94101" lon="0.2929">
        <ele>1200</ele>
        <time>2019-08-08T05:47:51.000Z</time>
      </trkpt>
      <trkpt lat="42.94103" lon="0.29289">
        <ele>1200</ele>
        <time>2019-08-08T05:47:52.000Z</time>
      </trkpt>
      <trkpt lat="42.94106" lon="0.29288">
        <ele>1201</ele>
        <time>2019-08-08T05:47:53.000Z</time>
      </trkpt>
      <trkpt lat="42.94109" lon="0.29286">
        <ele>1201</ele>
        <time>2019-08-08T05:47:54.000Z</time>
      </trkpt>
      <trkpt lat="42.94112" lon="0.29285">
        <ele>1202</ele>
        <time>2019-08-08T05:47:55.000Z</time>
      </trkpt>
      <trkpt lat="42.94114" lon="0.29283">
        <ele>1202</ele>
        <time>2019-08-08T05:47:56.000Z</time>
      </trkpt>
      <trkpt lat="42.94117" lon="0.2928">
        <ele>1202</ele>
        <time>2019-08-08T05:47:57.000Z</time>
      </trkpt>
      <trkpt lat="42.94119" lon="0.29279">
        <ele>1202</ele>
        <time>2019-08-08T05:47:58.000Z</time>
      </trkpt>
      <trkpt lat="42.94121" lon="0.29277">
        <ele>1202</ele>
        <time>2019-08-08T05:47:59.000Z</time>
      </trkpt>
      <trkpt lat="42.94124" lon="0.29276">
        <ele>1202</ele>
        <time>2019-08-08T05:48:00.000Z</time>
      </trkpt>
      <trkpt lat="42.94126" lon="0.29276">
        <ele>1203</ele>
        <time>2019-08-08T05:48:01.000Z</time>
      </trkpt>
      <trkpt lat="42.94128" lon="0.29275">
        <ele>1203</ele>
        <time>2019-08-08T05:48:02.000Z</time>
      </trkpt>
      <trkpt lat="42.9413" lon="0.29275">
        <ele>1203</ele>
        <time>2019-08-08T05:48:03.000Z</time>
      </trkpt>
      <trkpt lat="42.94133" lon="0.29274">
        <ele>1203</ele>
        <time>2019-08-08T05:48:04.000Z</time>
      </trkpt>
      <trkpt lat="42.94137" lon="0.29271">
        <ele>1203</ele>
        <time>2019-08-08T05:48:05.000Z</time>
      </trkpt>
      <trkpt lat="42.94141" lon="0.29268">
        <ele>1203</ele>
        <time>2019-08-08T05:48:06.000Z</time>
      </trkpt>
      <trkpt lat="42.94145" lon="0.29266">
        <ele>1204</ele>
        <time>2019-08-08T05:48:07.000Z</time>
      </trkpt>
      <trkpt lat="42.94149" lon="0.29264">
        <ele>1204</ele>
        <time>2019-08-08T05:48:08.000Z</time>
      </trkpt>
      <trkpt lat="42.94152" lon="0.29263">
        <ele>1204</ele>
        <time>2019-08-08T05:48:09.000Z</time>
      </trkpt>
      <trkpt lat="42.94155" lon="0.29262">
        <ele>1205</ele>
        <time>2019-08-08T05:48:10.000Z</time>
      </trkpt>
      <trkpt lat="42.94157" lon="0.2926">
        <ele>1205</ele>
        <time>2019-08-08T05:48:11.000Z</time>
      </trkpt>
      <trkpt lat="42.9416" lon="0.29259">
        <ele>1205</ele>
        <time>2019-08-08T05:48:12.000Z</time>
      </trkpt>
      <trkpt lat="42.94163" lon="0.29257">
        <ele>1205</ele>
        <time>2019-08-08T05:48:13.000Z</time>
      </trkpt>
      <trkpt lat="42.94166" lon="0.29256">
        <ele>1207</ele>
        <time>2019-08-08T05:48:14.000Z</time>
      </trkpt>
      <trkpt lat="42.94169" lon="0.29256">
        <ele>1207</ele>
        <time>2019-08-08T05:48:15.000Z</time>
      </trkpt>
      <trkpt lat="42.94172" lon="0.29255">
        <ele>1207</ele>
        <time>2019-08-08T05:48:16.000Z</time>
      </trkpt>
      <trkpt lat="42.94175" lon="0.29255">
        <ele>1207</ele>
        <time>2019-08-08T05:48:17.000Z</time>
      </trkpt>
      <trkpt lat="42.94178" lon="0.29253">
        <ele>1207</ele>
        <time>2019-08-08T05:48:18.000Z</time>
      </trkpt>
      <trkpt lat="42.94181" lon="0.29253">
        <ele>1207</ele>
        <time>2019-08-08T05:48:19.000Z</time>
      </trkpt>
      <trkpt lat="42.94183" lon="0.29252">
        <ele>1207</ele>
        <time>2019-08-08T05:48:20.000Z</time>
      </trkpt>
      <trkpt lat="42.94186" lon="0.29251">
        <ele>1207</ele>
        <time>2019-08-08T05:48:21.000Z</time>
      </trkpt>
      <trkpt lat="42.94189" lon="0.29251">
        <ele>1208</ele>
        <time>2019-08-08T05:48:22.000Z</time>
      </trkpt>
      <trkpt lat="42.94191" lon="0.2925">
        <ele>1208</ele>
        <time>2019-08-08T05:48:23.000Z</time>
      </trkpt>
      <trkpt lat="42.94194" lon="0.2925">
        <ele>1208</ele>
        <time>2019-08-08T05:48:24.000Z</time>
      </trkpt>
      <trkpt lat="42.94196" lon="0.29248">
        <ele>1208</ele>
        <time>2019-08-08T05:48:25.000Z</time>
      </trkpt>
      <trkpt lat="42.94199" lon="0.29247">
        <ele>1208</ele>
        <time>2019-08-08T05:48:26.000Z</time>
      </trkpt>
      <trkpt lat="42.94202" lon="0.29247">
        <ele>1209</ele>
        <time>2019-08-08T05:48:27.000Z</time>
      </trkpt>
      <trkpt lat="42.94205" lon="0.29246">
        <ele>1209</ele>
        <time>2019-08-08T05:48:28.000Z</time>
      </trkpt>
      <trkpt lat="42.94208" lon="0.29245">
        <ele>1209</ele>
        <time>2019-08-08T05:48:29.000Z</time>
      </trkpt>
      <trkpt lat="42.94211" lon="0.29245">
        <ele>1210</ele>
        <time>2019-08-08T05:48:30.000Z</time>
      </trkpt>
      <trkpt lat="42.94214" lon="0.29244">
        <ele>1210</ele>
        <time>2019-08-08T05:48:31.000Z</time>
      </trkpt>
      <trkpt lat="42.94217" lon="0.29243">
        <ele>1210</ele>
        <time>2019-08-08T05:48:32.000Z</time>
      </trkpt>
      <trkpt lat="42.94219" lon="0.29243">
        <ele>1210</ele>
        <time>2019-08-08T05:48:33.000Z</time>
      </trkpt>
      <trkpt lat="42.94222" lon="0.29242">
        <ele>1211</ele>
        <time>2019-08-08T05:48:34.000Z</time>
      </trkpt>
      <trkpt lat="42.94225" lon="0.29243">
        <ele>1211</ele>
        <time>2019-08-08T05:48:35.000Z</time>
      </trkpt>
      <trkpt lat="42.94228" lon="0.29242">
        <ele>1211</ele>
        <time>2019-08-08T05:48:36.000Z</time>
      </trkpt>
      <trkpt lat="42.9423" lon="0.29242">
        <ele>1211</ele>
        <time>2019-08-08T05:48:37.000Z</time>
      </trkpt>
      <trkpt lat="42.94233" lon="0.29241">
        <ele>1212</ele>
        <time>2019-08-08T05:48:38.000Z</time>
      </trkpt>
      <trkpt lat="42.94236" lon="0.2924">
        <ele>1212</ele>
        <time>2019-08-08T05:48:39.000Z</time>
      </trkpt>
      <trkpt lat="42.94239" lon="0.29241">
        <ele>1212</ele>
        <time>2019-08-08T05:48:40.000Z</time>
      </trkpt>
      <trkpt lat="42.94242" lon="0.29242">
        <ele>1212</ele>
        <time>2019-08-08T05:48:41.000Z</time>
      </trkpt>
      <trkpt lat="42.94244" lon="0.29244">
        <ele>1213</ele>
        <time>2019-08-08T05:48:42.000Z</time>
      </trkpt>
      <trkpt lat="42.94246" lon="0.29247">
        <ele>1213</ele>
        <time>2019-08-08T05:48:43.000Z</time>
      </trkpt>
      <trkpt lat="42.94247" lon="0.29251">
        <ele>1213</ele>
        <time>2019-08-08T05:48:44.000Z</time>
      </trkpt>
      <trkpt lat="42.94247" lon="0.29255">
        <ele>1213</ele>
        <time>2019-08-08T05:48:45.000Z</time>
      </trkpt>
      <trkpt lat="42.94248" lon="0.29259">
        <ele>1213</ele>
        <time>2019-08-08T05:48:46.000Z</time>
      </trkpt>
      <trkpt lat="42.94248" lon="0.29263">
        <ele>1213</ele>
        <time>2019-08-08T05:48:47.000Z</time>
      </trkpt>
      <trkpt lat="42.94248" lon="0.29267">
        <ele>1214</ele>
        <time>2019-08-08T05:48:48.000Z</time>
      </trkpt>
      <trkpt lat="42.94247" lon="0.29271">
        <ele>1214</ele>
        <time>2019-08-08T05:48:49.000Z</time>
      </trkpt>
      <trkpt lat="42.94247" lon="0.29275">
        <ele>1215</ele>
        <time>2019-08-08T05:48:50.000Z</time>
      </trkpt>
      <trkpt lat="42.94246" lon="0.29278">
        <ele>1215</ele>
        <time>2019-08-08T05:48:51.000Z</time>
      </trkpt>
      <trkpt lat="42.94245" lon="0.29282">
        <ele>1215</ele>
        <time>2019-08-08T05:48:52.000Z</time>
      </trkpt>
      <trkpt lat="42.94243" lon="0.29285">
        <ele>1215</ele>
        <time>2019-08-08T05:48:53.000Z</time>
      </trkpt>
      <trkpt lat="42.94241" lon="0.29288">
        <ele>1215</ele>
        <time>2019-08-08T05:48:54.000Z</time>
      </trkpt>
      <trkpt lat="42.94238" lon="0.2929">
        <ele>1215</ele>
        <time>2019-08-08T05:48:55.000Z</time>
      </trkpt>
      <trkpt lat="42.94235" lon="0.29291">
        <ele>1216</ele>
        <time>2019-08-08T05:48:56.000Z</time>
      </trkpt>
      <trkpt lat="42.94232" lon="0.29291">
        <ele>1216</ele>
        <time>2019-08-08T05:48:57.000Z</time>
      </trkpt>
      <trkpt lat="42.94229" lon="0.29292">
        <ele>1216</ele>
        <time>2019-08-08T05:48:58.000Z</time>
      </trkpt>
      <trkpt lat="42.94227" lon="0.29293">
        <ele>1216</ele>
        <time>2019-08-08T05:48:59.000Z</time>
      </trkpt>
      <trkpt lat="42.94224" lon="0.29295">
        <ele>1216</ele>
        <time>2019-08-08T05:49:00.000Z</time>
      </trkpt>
      <trkpt lat="42.94221" lon="0.29296">
        <ele>1217</ele>
        <time>2019-08-08T05:49:01.000Z</time>
      </trkpt>
      <trkpt lat="42.94219" lon="0.29297">
        <ele>1217</ele>
        <time>2019-08-08T05:49:02.000Z</time>
      </trkpt>
      <trkpt lat="42.94216" lon="0.29299">
        <ele>1217</ele>
        <time>2019-08-08T05:49:03.000Z</time>
      </trkpt>
      <trkpt lat="42.94212" lon="0.29301">
        <ele>1217</ele>
        <time>2019-08-08T05:49:04.000Z</time>
      </trkpt>
      <trkpt lat="42.94211" lon="0.29302">
        <ele>1217.6</ele>
        <time>2019-08-08T05:49:05.000Z</time>
      </trkpt>
      <trkpt lat="42.94208" lon="0.29303">
        <ele>1218</ele>
        <time>2019-08-08T05:49:06.000Z</time>
      </trkpt>
      <trkpt lat="42.94206" lon="0.29305">
        <ele>1218</ele>
        <time>2019-08-08T05:49:07.000Z</time>
      </trkpt>
      <trkpt lat="42.94203" lon="0.29306">
        <ele>1219</ele>
        <time>2019-08-08T05:49:08.000Z</time>
      </trkpt>
      <trkpt lat="42.94201" lon="0.29308">
        <ele>1219</ele>
        <time>2019-08-08T05:49:09.000Z</time>
      </trkpt>
      <trkpt lat="42.94198" lon="0.29309">
        <ele>1219</ele>
        <time>2019-08-08T05:49:10.000Z</time>
      </trkpt>
      <trkpt lat="42.94196" lon="0.29311">
        <ele>1219</ele>
        <time>2019-08-08T05:49:11.000Z</time>
      </trkpt>
      <trkpt lat="42.94194" lon="0.29313">
        <ele>1219</ele>
        <time>2019-08-08T05:49:12.000Z</time>
      </trkpt>
      <trkpt lat="42.94191" lon="0.29315">
        <ele>1219</ele>
        <time>2019-08-08T05:49:13.000Z</time>
      </trkpt>
      <trkpt lat="42.94191" lon="0.29315">
        <ele>1220</ele>
        <time>2019-08-08T05:49:14.000Z</time>
      </trkpt>
      <trkpt lat="42.94188" lon="0.29318">
        <ele>1220</ele>
        <time>2019-08-08T05:49:15.000Z</time>
      </trkpt>
      <trkpt lat="42.94187" lon="0.2932">
        <ele>1220</ele>
        <time>2019-08-08T05:49:16.000Z</time>
      </trkpt>
      <trkpt lat="42.94185" lon="0.29321">
        <ele>1220</ele>
        <time>2019-08-08T05:49:17.000Z</time>
      </trkpt>
      <trkpt lat="42.94183" lon="0.29323">
        <ele>1221</ele>
        <time>2019-08-08T05:49:18.000Z</time>
      </trkpt>
      <trkpt lat="42.94181" lon="0.29325">
        <ele>1221</ele>
        <time>2019-08-08T05:49:19.000Z</time>
      </trkpt>
      <trkpt lat="42.94179" lon="0.29327">
        <ele>1222</ele>
        <time>2019-08-08T05:49:20.000Z</time>
      </trkpt>
      <trkpt lat="42.94178" lon="0.2933">
        <ele>1222</ele>
        <time>2019-08-08T05:49:21.000Z</time>
      </trkpt>
      <trkpt lat="42.94175" lon="0.29332">
        <ele>1222</ele>
        <time>2019-08-08T05:49:22.000Z</time>
      </trkpt>
      <trkpt lat="42.94173" lon="0.29335">
        <ele>1222</ele>
        <time>2019-08-08T05:49:23.000Z</time>
      </trkpt>
      <trkpt lat="42.94171" lon="0.29338">
        <ele>1222</ele>
        <time>2019-08-08T05:49:24.000Z</time>
      </trkpt>
      <trkpt lat="42.9417" lon="0.2934">
        <ele>1223</ele>
        <time>2019-08-08T05:49:25.000Z</time>
      </trkpt>
      <trkpt lat="42.94168" lon="0.29342">
        <ele>1223</ele>
        <time>2019-08-08T05:49:26.000Z</time>
      </trkpt>
      <trkpt lat="42.94167" lon="0.29345">
        <ele>1223</ele>
        <time>2019-08-08T05:49:27.000Z</time>
      </trkpt>
      <trkpt lat="42.94165" lon="0.29347">
        <ele>1223</ele>
        <time>2019-08-08T05:49:28.000Z</time>
      </trkpt>
      <trkpt lat="42.94163" lon="0.29349">
        <ele>1223</ele>
        <time>2019-08-08T05:49:29.000Z</time>
      </trkpt>
      <trkpt lat="42.9416" lon="0.29351">
        <ele>1223</ele>
        <time>2019-08-08T05:49:30.000Z</time>
      </trkpt>
      <trkpt lat="42.94158" lon="0.29353">
        <ele>1224</ele>
        <time>2019-08-08T05:49:31.000Z</time>
      </trkpt>
      <trkpt lat="42.94156" lon="0.29355">
        <ele>1224</ele>
        <time>2019-08-08T05:49:32.000Z</time>
      </trkpt>
      <trkpt lat="42.94154" lon="0.29357">
        <ele>1224</ele>
        <time>2019-08-08T05:49:33.000Z</time>
      </trkpt>
      <trkpt lat="42.94152" lon="0.2936">
        <ele>1224</ele>
        <time>2019-08-08T05:49:34.000Z</time>
      </trkpt>
      <trkpt lat="42.9415" lon="0.29362">
        <ele>1224</ele>
        <time>2019-08-08T05:49:35.000Z</time>
      </trkpt>
      <trkpt lat="42.94148" lon="0.29364">
        <ele>1225</ele>
        <time>2019-08-08T05:49:36.000Z</time>
      </trkpt>
      <trkpt lat="42.94147" lon="0.29366">
        <ele>1225</ele>
        <time>2019-08-08T05:49:37.000Z</time>
      </trkpt>
      <trkpt lat="42.94147" lon="0.29366">
        <ele>1226</ele>
        <time>2019-08-08T05:49:38.000Z</time>
      </trkpt>
      <trkpt lat="42.94143" lon="0.29371">
        <ele>1226</ele>
        <time>2019-08-08T05:49:39.000Z</time>
      </trkpt>
      <trkpt lat="42.9414" lon="0.29373">
        <ele>1226</ele>
        <time>2019-08-08T05:49:40.000Z</time>
      </trkpt>
      <trkpt lat="42.94138" lon="0.29377">
        <ele>1226</ele>
        <time>2019-08-08T05:49:41.000Z</time>
      </trkpt>
      <trkpt lat="42.94137" lon="0.29379">
        <ele>1226</ele>
        <time>2019-08-08T05:49:42.000Z</time>
      </trkpt>
      <trkpt lat="42.94136" lon="0.2938">
        <ele>1226</ele>
        <time>2019-08-08T05:49:43.000Z</time>
      </trkpt>
      <trkpt lat="42.94135" lon="0.29382">
        <ele>1227</ele>
        <time>2019-08-08T05:49:44.000Z</time>
      </trkpt>
      <trkpt lat="42.94131" lon="0.29387">
        <ele>1227</ele>
        <time>2019-08-08T05:49:45.000Z</time>
      </trkpt>
      <trkpt lat="42.94131" lon="0.29387">
        <ele>1227</ele>
        <time>2019-08-08T05:49:46.000Z</time>
      </trkpt>
      <trkpt lat="42.94127" lon="0.29392">
        <ele>1227</ele>
        <time>2019-08-08T05:49:47.000Z</time>
      </trkpt>
      <trkpt lat="42.94127" lon="0.29392">
        <ele>1228</ele>
        <time>2019-08-08T05:49:48.000Z</time>
      </trkpt>
      <trkpt lat="42.94123" lon="0.29398">
        <ele>1228</ele>
        <time>2019-08-08T05:49:49.000Z</time>
      </trkpt>
      <trkpt lat="42.9412" lon="0.29402">
        <ele>1229</ele>
        <time>2019-08-08T05:49:50.000Z</time>
      </trkpt>
      <trkpt lat="42.94118" lon="0.29406">
        <ele>1229</ele>
        <time>2019-08-08T05:49:51.000Z</time>
      </trkpt>
      <trkpt lat="42.94115" lon="0.2941">
        <ele>1229</ele>
        <time>2019-08-08T05:49:52.000Z</time>
      </trkpt>
      <trkpt lat="42.94114" lon="0.29412">
        <ele>1229</ele>
        <time>2019-08-08T05:49:53.000Z</time>
      </trkpt>
      <trkpt lat="42.94113" lon="0.29413">
        <ele>1230</ele>
        <time>2019-08-08T05:49:54.000Z</time>
      </trkpt>
      <trkpt lat="42.94112" lon="0.29414">
        <ele>1230</ele>
        <time>2019-08-08T05:49:55.000Z</time>
      </trkpt>
      <trkpt lat="42.94108" lon="0.29419">
        <ele>1231</ele>
        <time>2019-08-08T05:49:56.000Z</time>
      </trkpt>
      <trkpt lat="42.94106" lon="0.29422">
        <ele>1231</ele>
        <time>2019-08-08T05:49:57.000Z</time>
      </trkpt>
      <trkpt lat="42.94105" lon="0.29425">
        <ele>1231</ele>
        <time>2019-08-08T05:49:58.000Z</time>
      </trkpt>
      <trkpt lat="42.94105" lon="0.29428">
        <ele>1231</ele>
        <time>2019-08-08T05:49:59.000Z</time>
      </trkpt>
      <trkpt lat="42.94104" lon="0.29432">
        <ele>1232</ele>
        <time>2019-08-08T05:50:00.000Z</time>
      </trkpt>
      <trkpt lat="42.94103" lon="0.29436">
        <ele>1232</ele>
        <time>2019-08-08T05:50:01.000Z</time>
      </trkpt>
      <trkpt lat="42.94102" lon="0.29441">
        <ele>1232</ele>
        <time>2019-08-08T05:50:02.000Z</time>
      </trkpt>
      <trkpt lat="42.94102" lon="0.29443">
        <ele>1233</ele>
        <time>2019-08-08T05:50:03.000Z</time>
      </trkpt>
      <trkpt lat="42.94101" lon="0.29445">
        <ele>1234</ele>
        <time>2019-08-08T05:50:04.000Z</time>
      </trkpt>
      <trkpt lat="42.94101" lon="0.29447">
        <ele>1234</ele>
        <time>2019-08-08T05:50:05.000Z</time>
      </trkpt>
      <trkpt lat="42.94099" lon="0.29455">
        <ele>1234</ele>
        <time>2019-08-08T05:50:06.000Z</time>
      </trkpt>
      <trkpt lat="42.94099" lon="0.29455">
        <ele>1234</ele>
        <time>2019-08-08T05:50:07.000Z</time>
      </trkpt>
      <trkpt lat="42.94096" lon="0.29464">
        <ele>1234</ele>
        <time>2019-08-08T05:50:08.000Z</time>
      </trkpt>
      <trkpt lat="42.94096" lon="0.29464">
        <ele>1234</ele>
        <time>2019-08-08T05:50:09.000Z</time>
      </trkpt>
      <trkpt lat="42.94094" lon="0.29469">
        <ele>1234</ele>
        <time>2019-08-08T05:50:10.000Z</time>
      </trkpt>
      <trkpt lat="42.94093" lon="0.29471">
        <ele>1235</ele>
        <time>2019-08-08T05:50:11.000Z</time>
      </trkpt>
      <trkpt lat="42.94092" lon="0.29473">
        <ele>1235</ele>
        <time>2019-08-08T05:50:12.000Z</time>
      </trkpt>
      <trkpt lat="42.94091" lon="0.29477">
        <ele>1236</ele>
        <time>2019-08-08T05:50:13.000Z</time>
      </trkpt>
      <trkpt lat="42.9409" lon="0.29481">
        <ele>1236</ele>
        <time>2019-08-08T05:50:14.000Z</time>
      </trkpt>
      <trkpt lat="42.94088" lon="0.29484">
        <ele>1236</ele>
        <time>2019-08-08T05:50:15.000Z</time>
      </trkpt>
      <trkpt lat="42.94087" lon="0.29488">
        <ele>1236</ele>
        <time>2019-08-08T05:50:16.000Z</time>
      </trkpt>
      <trkpt lat="42.94085" lon="0.29493">
        <ele>1237</ele>
        <time>2019-08-08T05:50:17.000Z</time>
      </trkpt>
      <trkpt lat="42.94083" lon="0.29496">
        <ele>1237</ele>
        <time>2019-08-08T05:50:18.000Z</time>
      </trkpt>
      <trkpt lat="42.94082" lon="0.29499">
        <ele>1237</ele>
        <time>2019-08-08T05:50:19.000Z</time>
      </trkpt>
      <trkpt lat="42.94081" lon="0.29501">
        <ele>1238</ele>
        <time>2019-08-08T05:50:20.000Z</time>
      </trkpt>
      <trkpt lat="42.94079" lon="0.29505">
        <ele>1238</ele>
        <time>2019-08-08T05:50:21.000Z</time>
      </trkpt>
      <trkpt lat="42.94078" lon="0.29508">
        <ele>1238</ele>
        <time>2019-08-08T05:50:22.000Z</time>
      </trkpt>
      <trkpt lat="42.94076" lon="0.29511">
        <ele>1239</ele>
        <time>2019-08-08T05:50:23.000Z</time>
      </trkpt>
      <trkpt lat="42.94074" lon="0.29514">
        <ele>1239</ele>
        <time>2019-08-08T05:50:24.000Z</time>
      </trkpt>
      <trkpt lat="42.94072" lon="0.29519">
        <ele>1239</ele>
        <time>2019-08-08T05:50:25.000Z</time>
      </trkpt>
      <trkpt lat="42.9407" lon="0.29523">
        <ele>1239</ele>
        <time>2019-08-08T05:50:26.000Z</time>
      </trkpt>
      <trkpt lat="42.94068" lon="0.29526">
        <ele>1240</ele>
        <time>2019-08-08T05:50:27.000Z</time>
      </trkpt>
      <trkpt lat="42.94066" lon="0.29529">
        <ele>1240</ele>
        <time>2019-08-08T05:50:28.000Z</time>
      </trkpt>
      <trkpt lat="42.94065" lon="0.29532">
        <ele>1241</ele>
        <time>2019-08-08T05:50:29.000Z</time>
      </trkpt>
      <trkpt lat="42.94065" lon="0.29532">
        <ele>1241</ele>
        <time>2019-08-08T05:50:30.000Z</time>
      </trkpt>
      <trkpt lat="42.94061" lon="0.29538">
        <ele>1241</ele>
        <time>2019-08-08T05:50:31.000Z</time>
      </trkpt>
      <trkpt lat="42.94059" lon="0.29542">
        <ele>1241</ele>
        <time>2019-08-08T05:50:32.000Z</time>
      </trkpt>
      <trkpt lat="42.94058" lon="0.29546">
        <ele>1242</ele>
        <time>2019-08-08T05:50:33.000Z</time>
      </trkpt>
      <trkpt lat="42.94057" lon="0.2955">
        <ele>1242</ele>
        <time>2019-08-08T05:50:34.000Z</time>
      </trkpt>
      <trkpt lat="42.94055" lon="0.29553">
        <ele>1242</ele>
        <time>2019-08-08T05:50:35.000Z</time>
      </trkpt>
      <trkpt lat="42.94053" lon="0.29557">
        <ele>1242</ele>
        <time>2019-08-08T05:50:36.000Z</time>
      </trkpt>
      <trkpt lat="42.94051" lon="0.29561">
        <ele>1243</ele>
        <time>2019-08-08T05:50:37.000Z</time>
      </trkpt>
      <trkpt lat="42.9405" lon="0.29566">
        <ele>1243</ele>
        <time>2019-08-08T05:50:38.000Z</time>
      </trkpt>
      <trkpt lat="42.94048" lon="0.29572">
        <ele>1243</ele>
        <time>2019-08-08T05:50:39.000Z</time>
      </trkpt>
      <trkpt lat="42.94047" lon="0.29576">
        <ele>1243</ele>
        <time>2019-08-08T05:50:40.000Z</time>
      </trkpt>
      <trkpt lat="42.94045" lon="0.2958">
        <ele>1243</ele>
        <time>2019-08-08T05:50:41.000Z</time>
      </trkpt>
      <trkpt lat="42.94044" lon="0.29585">
        <ele>1243</ele>
        <time>2019-08-08T05:50:42.000Z</time>
      </trkpt>
      <trkpt lat="42.94043" lon="0.29588">
        <ele>1243</ele>
        <time>2019-08-08T05:50:43.000Z</time>
      </trkpt>
      <trkpt lat="42.94042" lon="0.29592">
        <ele>1244</ele>
        <time>2019-08-08T05:50:44.000Z</time>
      </trkpt>
      <trkpt lat="42.94041" lon="0.29596">
        <ele>1244</ele>
        <time>2019-08-08T05:50:45.000Z</time>
      </trkpt>
      <trkpt lat="42.9404" lon="0.29601">
        <ele>1245</ele>
        <time>2019-08-08T05:50:46.000Z</time>
      </trkpt>
      <trkpt lat="42.94039" lon="0.29605">
        <ele>1245</ele>
        <time>2019-08-08T05:50:47.000Z</time>
      </trkpt>
      <trkpt lat="42.94038" lon="0.29611">
        <ele>1245</ele>
        <time>2019-08-08T05:50:48.000Z</time>
      </trkpt>
      <trkpt lat="42.94037" lon="0.29616">
        <ele>1245</ele>
        <time>2019-08-08T05:50:49.000Z</time>
      </trkpt>
      <trkpt lat="42.94036" lon="0.2962">
        <ele>1246</ele>
        <time>2019-08-08T05:50:50.000Z</time>
      </trkpt>
      <trkpt lat="42.94035" lon="0.29625">
        <ele>1246</ele>
        <time>2019-08-08T05:50:51.000Z</time>
      </trkpt>
      <trkpt lat="42.94035" lon="0.29629">
        <ele>1247</ele>
        <time>2019-08-08T05:50:52.000Z</time>
      </trkpt>
      <trkpt lat="42.94035" lon="0.29632">
        <ele>1247</ele>
        <time>2019-08-08T05:50:53.000Z</time>
      </trkpt>
      <trkpt lat="42.94034" lon="0.29636">
        <ele>1248</ele>
        <time>2019-08-08T05:50:54.000Z</time>
      </trkpt>
      <trkpt lat="42.94034" lon="0.2964">
        <ele>1248</ele>
        <time>2019-08-08T05:50:55.000Z</time>
      </trkpt>
      <trkpt lat="42.94033" lon="0.29644">
        <ele>1248</ele>
        <time>2019-08-08T05:50:56.000Z</time>
      </trkpt>
      <trkpt lat="42.94032" lon="0.29647">
        <ele>1248</ele>
        <time>2019-08-08T05:50:57.000Z</time>
      </trkpt>
      <trkpt lat="42.94031" lon="0.2965">
        <ele>1248</ele>
        <time>2019-08-08T05:50:58.000Z</time>
      </trkpt>
      <trkpt lat="42.94029" lon="0.29653">
        <ele>1248</ele>
        <time>2019-08-08T05:50:59.000Z</time>
      </trkpt>
      <trkpt lat="42.94027" lon="0.29654">
        <ele>1248</ele>
        <time>2019-08-08T05:51:00.000Z</time>
      </trkpt>
      <trkpt lat="42.94025" lon="0.29656">
        <ele>1248</ele>
        <time>2019-08-08T05:51:01.000Z</time>
      </trkpt>
      <trkpt lat="42.94023" lon="0.29657">
        <ele>1249</ele>
        <time>2019-08-08T05:51:02.000Z</time>
      </trkpt>
      <trkpt lat="42.9402" lon="0.29659">
        <ele>1249</ele>
        <time>2019-08-08T05:51:03.000Z</time>
      </trkpt>
      <trkpt lat="42.94018" lon="0.2966">
        <ele>1250</ele>
        <time>2019-08-08T05:51:04.000Z</time>
      </trkpt>
      <trkpt lat="42.94016" lon="0.29662">
        <ele>1250</ele>
        <time>2019-08-08T05:51:05.000Z</time>
      </trkpt>
      <trkpt lat="42.94013" lon="0.29663">
        <ele>1250</ele>
        <time>2019-08-08T05:51:06.000Z</time>
      </trkpt>
      <trkpt lat="42.94011" lon="0.29664">
        <ele>1250</ele>
        <time>2019-08-08T05:51:07.000Z</time>
      </trkpt>
      <trkpt lat="42.94008" lon="0.29665">
        <ele>1252</ele>
        <time>2019-08-08T05:51:08.000Z</time>
      </trkpt>
      <trkpt lat="42.94006" lon="0.29665">
        <ele>1252</ele>
        <time>2019-08-08T05:51:09.000Z</time>
      </trkpt>
      <trkpt lat="42.94003" lon="0.29666">
        <ele>1252</ele>
        <time>2019-08-08T05:51:10.000Z</time>
      </trkpt>
      <trkpt lat="42.94001" lon="0.29666">
        <ele>1252</ele>
        <time>2019-08-08T05:51:11.000Z</time>
      </trkpt>
      <trkpt lat="42.93998" lon="0.29667">
        <ele>1253</ele>
        <time>2019-08-08T05:51:12.000Z</time>
      </trkpt>
      <trkpt lat="42.93996" lon="0.29667">
        <ele>1253</ele>
        <time>2019-08-08T05:51:13.000Z</time>
      </trkpt>
      <trkpt lat="42.93993" lon="0.29669">
        <ele>1253</ele>
        <time>2019-08-08T05:51:14.000Z</time>
      </trkpt>
      <trkpt lat="42.93991" lon="0.2967">
        <ele>1253</ele>
        <time>2019-08-08T05:51:15.000Z</time>
      </trkpt>
      <trkpt lat="42.93988" lon="0.29672">
        <ele>1253</ele>
        <time>2019-08-08T05:51:16.000Z</time>
      </trkpt>
      <trkpt lat="42.93986" lon="0.29673">
        <ele>1253</ele>
        <time>2019-08-08T05:51:17.000Z</time>
      </trkpt>
      <trkpt lat="42.93984" lon="0.29675">
        <ele>1253</ele>
        <time>2019-08-08T05:51:18.000Z</time>
      </trkpt>
      <trkpt lat="42.93981" lon="0.29677">
        <ele>1253</ele>
        <time>2019-08-08T05:51:19.000Z</time>
      </trkpt>
      <trkpt lat="42.93979" lon="0.29678">
        <ele>1254</ele>
        <time>2019-08-08T05:51:20.000Z</time>
      </trkpt>
      <trkpt lat="42.93976" lon="0.29679">
        <ele>1254</ele>
        <time>2019-08-08T05:51:21.000Z</time>
      </trkpt>
      <trkpt lat="42.93974" lon="0.29681">
        <ele>1254</ele>
        <time>2019-08-08T05:51:22.000Z</time>
      </trkpt>
      <trkpt lat="42.93971" lon="0.29683">
        <ele>1254</ele>
        <time>2019-08-08T05:51:23.000Z</time>
      </trkpt>
      <trkpt lat="42.93969" lon="0.29685">
        <ele>1255</ele>
        <time>2019-08-08T05:51:24.000Z</time>
      </trkpt>
      <trkpt lat="42.93967" lon="0.29688">
        <ele>1255</ele>
        <time>2019-08-08T05:51:25.000Z</time>
      </trkpt>
      <trkpt lat="42.93964" lon="0.2969">
        <ele>1256</ele>
        <time>2019-08-08T05:51:26.000Z</time>
      </trkpt>
      <trkpt lat="42.93962" lon="0.29693">
        <ele>1256</ele>
        <time>2019-08-08T05:51:27.000Z</time>
      </trkpt>
      <trkpt lat="42.9396" lon="0.29695">
        <ele>1257</ele>
        <time>2019-08-08T05:51:28.000Z</time>
      </trkpt>
      <trkpt lat="42.93958" lon="0.29698">
        <ele>1257</ele>
        <time>2019-08-08T05:51:29.000Z</time>
      </trkpt>
      <trkpt lat="42.93956" lon="0.29701">
        <ele>1257</ele>
        <time>2019-08-08T05:51:30.000Z</time>
      </trkpt>
      <trkpt lat="42.93955" lon="0.29704">
        <ele>1257</ele>
        <time>2019-08-08T05:51:31.000Z</time>
      </trkpt>
      <trkpt lat="42.93953" lon="0.29708">
        <ele>1258</ele>
        <time>2019-08-08T05:51:32.000Z</time>
      </trkpt>
      <trkpt lat="42.93951" lon="0.29711">
        <ele>1258</ele>
        <time>2019-08-08T05:51:33.000Z</time>
      </trkpt>
      <trkpt lat="42.9395" lon="0.29713">
        <ele>1258</ele>
        <time>2019-08-08T05:51:34.000Z</time>
      </trkpt>
      <trkpt lat="42.93948" lon="0.29717">
        <ele>1258</ele>
        <time>2019-08-08T05:51:35.000Z</time>
      </trkpt>
      <trkpt lat="42.93947" lon="0.2972">
        <ele>1258</ele>
        <time>2019-08-08T05:51:36.000Z</time>
      </trkpt>
      <trkpt lat="42.93945" lon="0.29723">
        <ele>1258</ele>
        <time>2019-08-08T05:51:37.000Z</time>
      </trkpt>
      <trkpt lat="42.93943" lon="0.29726">
        <ele>1258</ele>
        <time>2019-08-08T05:51:38.000Z</time>
      </trkpt>
      <trkpt lat="42.93942" lon="0.29729">
        <ele>1258</ele>
        <time>2019-08-08T05:51:39.000Z</time>
      </trkpt>
      <trkpt lat="42.9394" lon="0.29732">
        <ele>1258</ele>
        <time>2019-08-08T05:51:40.000Z</time>
      </trkpt>
      <trkpt lat="42.93939" lon="0.29735">
        <ele>1259</ele>
        <time>2019-08-08T05:51:41.000Z</time>
      </trkpt>
      <trkpt lat="42.93937" lon="0.29738">
        <ele>1259</ele>
        <time>2019-08-08T05:51:42.000Z</time>
      </trkpt>
      <trkpt lat="42.93936" lon="0.29741">
        <ele>1259</ele>
        <time>2019-08-08T05:51:43.000Z</time>
      </trkpt>
      <trkpt lat="42.93934" lon="0.29744">
        <ele>1259</ele>
        <time>2019-08-08T05:51:44.000Z</time>
      </trkpt>
      <trkpt lat="42.93933" lon="0.29747">
        <ele>1260</ele>
        <time>2019-08-08T05:51:45.000Z</time>
      </trkpt>
      <trkpt lat="42.93931" lon="0.2975">
        <ele>1260</ele>
        <time>2019-08-08T05:51:46.000Z</time>
      </trkpt>
      <trkpt lat="42.9393" lon="0.29754">
        <ele>1260</ele>
        <time>2019-08-08T05:51:47.000Z</time>
      </trkpt>
      <trkpt lat="42.93929" lon="0.29757">
        <ele>1260</ele>
        <time>2019-08-08T05:51:48.000Z</time>
      </trkpt>
      <trkpt lat="42.93928" lon="0.2976">
        <ele>1261</ele>
        <time>2019-08-08T05:51:49.000Z</time>
      </trkpt>
      <trkpt lat="42.93927" lon="0.29764">
        <ele>1261</ele>
        <time>2019-08-08T05:51:50.000Z</time>
      </trkpt>
      <trkpt lat="42.93926" lon="0.29767">
        <ele>1262</ele>
        <time>2019-08-08T05:51:51.000Z</time>
      </trkpt>
      <trkpt lat="42.93925" lon="0.2977">
        <ele>1262</ele>
        <time>2019-08-08T05:51:52.000Z</time>
      </trkpt>
      <trkpt lat="42.93924" lon="0.29774">
        <ele>1262</ele>
        <time>2019-08-08T05:51:53.000Z</time>
      </trkpt>
      <trkpt lat="42.93923" lon="0.29778">
        <ele>1262</ele>
        <time>2019-08-08T05:51:54.000Z</time>
      </trkpt>
      <trkpt lat="42.93922" lon="0.29781">
        <ele>1262</ele>
        <time>2019-08-08T05:51:55.000Z</time>
      </trkpt>
      <trkpt lat="42.9392" lon="0.29785">
        <ele>1262</ele>
        <time>2019-08-08T05:51:56.000Z</time>
      </trkpt>
      <trkpt lat="42.93919" lon="0.29789">
        <ele>1262</ele>
        <time>2019-08-08T05:51:57.000Z</time>
      </trkpt>
      <trkpt lat="42.93918" lon="0.29793">
        <ele>1263</ele>
        <time>2019-08-08T05:51:58.000Z</time>
      </trkpt>
      <trkpt lat="42.93917" lon="0.29797">
        <ele>1263</ele>
        <time>2019-08-08T05:51:59.000Z</time>
      </trkpt>
      <trkpt lat="42.93916" lon="0.298">
        <ele>1264</ele>
        <time>2019-08-08T05:52:00.000Z</time>
      </trkpt>
      <trkpt lat="42.93915" lon="0.29804">
        <ele>1264</ele>
        <time>2019-08-08T05:52:01.000Z</time>
      </trkpt>
      <trkpt lat="42.93914" lon="0.29808">
        <ele>1265</ele>
        <time>2019-08-08T05:52:02.000Z</time>
      </trkpt>
      <trkpt lat="42.93913" lon="0.29812">
        <ele>1265</ele>
        <time>2019-08-08T05:52:03.000Z</time>
      </trkpt>
      <trkpt lat="42.93912" lon="0.29816">
        <ele>1265</ele>
        <time>2019-08-08T05:52:04.000Z</time>
      </trkpt>
      <trkpt lat="42.93911" lon="0.2982">
        <ele>1265</ele>
        <time>2019-08-08T05:52:05.000Z</time>
      </trkpt>
      <trkpt lat="42.9391" lon="0.29824">
        <ele>1265</ele>
        <time>2019-08-08T05:52:06.000Z</time>
      </trkpt>
      <trkpt lat="42.93909" lon="0.29827">
        <ele>1266</ele>
        <time>2019-08-08T05:52:07.000Z</time>
      </trkpt>
      <trkpt lat="42.93908" lon="0.29831">
        <ele>1266</ele>
        <time>2019-08-08T05:52:08.000Z</time>
      </trkpt>
      <trkpt lat="42.93908" lon="0.29835">
        <ele>1266</ele>
        <time>2019-08-08T05:52:09.000Z</time>
      </trkpt>
      <trkpt lat="42.93907" lon="0.29839">
        <ele>1266</ele>
        <time>2019-08-08T05:52:10.000Z</time>
      </trkpt>
      <trkpt lat="42.93907" lon="0.29843">
        <ele>1266</ele>
        <time>2019-08-08T05:52:11.000Z</time>
      </trkpt>
      <trkpt lat="42.93906" lon="0.29847">
        <ele>1266</ele>
        <time>2019-08-08T05:52:12.000Z</time>
      </trkpt>
      <trkpt lat="42.93905" lon="0.29851">
        <ele>1266</ele>
        <time>2019-08-08T05:52:13.000Z</time>
      </trkpt>
      <trkpt lat="42.93905" lon="0.29855">
        <ele>1266</ele>
        <time>2019-08-08T05:52:14.000Z</time>
      </trkpt>
      <trkpt lat="42.93904" lon="0.2986">
        <ele>1267</ele>
        <time>2019-08-08T05:52:15.000Z</time>
      </trkpt>
      <trkpt lat="42.93904" lon="0.29864">
        <ele>1267</ele>
        <time>2019-08-08T05:52:16.000Z</time>
      </trkpt>
      <trkpt lat="42.93904" lon="0.29868">
        <ele>1267</ele>
        <time>2019-08-08T05:52:17.000Z</time>
      </trkpt>
      <trkpt lat="42.93904" lon="0.29872">
        <ele>1268</ele>
        <time>2019-08-08T05:52:18.000Z</time>
      </trkpt>
      <trkpt lat="42.93905" lon="0.29875">
        <ele>1268</ele>
        <time>2019-08-08T05:52:19.000Z</time>
      </trkpt>
      <trkpt lat="42.93905" lon="0.29879">
        <ele>1269</ele>
        <time>2019-08-08T05:52:20.000Z</time>
      </trkpt>
      <trkpt lat="42.93905" lon="0.29883">
        <ele>1269</ele>
        <time>2019-08-08T05:52:21.000Z</time>
      </trkpt>
      <trkpt lat="42.93906" lon="0.29887">
        <ele>1269</ele>
        <time>2019-08-08T05:52:22.000Z</time>
      </trkpt>
      <trkpt lat="42.93907" lon="0.29891">
        <ele>1269</ele>
        <time>2019-08-08T05:52:23.000Z</time>
      </trkpt>
      <trkpt lat="42.93907" lon="0.29894">
        <ele>1270</ele>
        <time>2019-08-08T05:52:24.000Z</time>
      </trkpt>
      <trkpt lat="42.93909" lon="0.29897">
        <ele>1270</ele>
        <time>2019-08-08T05:52:25.000Z</time>
      </trkpt>
      <trkpt lat="42.9391" lon="0.299">
        <ele>1270</ele>
        <time>2019-08-08T05:52:26.000Z</time>
      </trkpt>
      <trkpt lat="42.93912" lon="0.29902">
        <ele>1270</ele>
        <time>2019-08-08T05:52:27.000Z</time>
      </trkpt>
      <trkpt lat="42.93914" lon="0.29905">
        <ele>1271</ele>
        <time>2019-08-08T05:52:28.000Z</time>
      </trkpt>
      <trkpt lat="42.93916" lon="0.29907">
        <ele>1271</ele>
        <time>2019-08-08T05:52:29.000Z</time>
      </trkpt>
      <trkpt lat="42.93918" lon="0.29909">
        <ele>1271</ele>
        <time>2019-08-08T05:52:30.000Z</time>
      </trkpt>
      <trkpt lat="42.9392" lon="0.29911">
        <ele>1271</ele>
        <time>2019-08-08T05:52:31.000Z</time>
      </trkpt>
      <trkpt lat="42.93922" lon="0.29914">
        <ele>1271</ele>
        <time>2019-08-08T05:52:32.000Z</time>
      </trkpt>
      <trkpt lat="42.93924" lon="0.29916">
        <ele>1271</ele>
        <time>2019-08-08T05:52:33.000Z</time>
      </trkpt>
      <trkpt lat="42.93927" lon="0.29919">
        <ele>1271</ele>
        <time>2019-08-08T05:52:34.000Z</time>
      </trkpt>
      <trkpt lat="42.93929" lon="0.29921">
        <ele>1271</ele>
        <time>2019-08-08T05:52:35.000Z</time>
      </trkpt>
      <trkpt lat="42.93931" lon="0.29922">
        <ele>1271</ele>
        <time>2019-08-08T05:52:36.000Z</time>
      </trkpt>
      <trkpt lat="42.93933" lon="0.29924">
        <ele>1272</ele>
        <time>2019-08-08T05:52:37.000Z</time>
      </trkpt>
      <trkpt lat="42.93935" lon="0.29927">
        <ele>1272</ele>
        <time>2019-08-08T05:52:38.000Z</time>
      </trkpt>
      <trkpt lat="42.93937" lon="0.29929">
        <ele>1272</ele>
        <time>2019-08-08T05:52:39.000Z</time>
      </trkpt>
      <trkpt lat="42.93939" lon="0.29932">
        <ele>1273</ele>
        <time>2019-08-08T05:52:40.000Z</time>
      </trkpt>
      <trkpt lat="42.93941" lon="0.29936">
        <ele>1273</ele>
        <time>2019-08-08T05:52:41.000Z</time>
      </trkpt>
      <trkpt lat="42.93942" lon="0.2994">
        <ele>1273</ele>
        <time>2019-08-08T05:52:42.000Z</time>
      </trkpt>
      <trkpt lat="42.93943" lon="0.29943">
        <ele>1273</ele>
        <time>2019-08-08T05:52:43.000Z</time>
      </trkpt>
      <trkpt lat="42.93944" lon="0.29946">
        <ele>1273</ele>
        <time>2019-08-08T05:52:44.000Z</time>
      </trkpt>
      <trkpt lat="42.93945" lon="0.2995">
        <ele>1273</ele>
        <time>2019-08-08T05:52:45.000Z</time>
      </trkpt>
      <trkpt lat="42.93946" lon="0.29954">
        <ele>1274</ele>
        <time>2019-08-08T05:52:46.000Z</time>
      </trkpt>
      <trkpt lat="42.93946" lon="0.29958">
        <ele>1274</ele>
        <time>2019-08-08T05:52:47.000Z</time>
      </trkpt>
      <trkpt lat="42.93947" lon="0.29962">
        <ele>1274</ele>
        <time>2019-08-08T05:52:48.000Z</time>
      </trkpt>
      <trkpt lat="42.93948" lon="0.29966">
        <ele>1274</ele>
        <time>2019-08-08T05:52:49.000Z</time>
      </trkpt>
      <trkpt lat="42.93948" lon="0.29969">
        <ele>1275</ele>
        <time>2019-08-08T05:52:50.000Z</time>
      </trkpt>
      <trkpt lat="42.93948" lon="0.29973">
        <ele>1275</ele>
        <time>2019-08-08T05:52:51.000Z</time>
      </trkpt>
      <trkpt lat="42.93948" lon="0.29977">
        <ele>1275</ele>
        <time>2019-08-08T05:52:52.000Z</time>
      </trkpt>
      <trkpt lat="42.93949" lon="0.2998">
        <ele>1275</ele>
        <time>2019-08-08T05:52:53.000Z</time>
      </trkpt>
      <trkpt lat="42.93949" lon="0.29984">
        <ele>1275</ele>
        <time>2019-08-08T05:52:54.000Z</time>
      </trkpt>
      <trkpt lat="42.93949" lon="0.29987">
        <ele>1277</ele>
        <time>2019-08-08T05:52:55.000Z</time>
      </trkpt>
      <trkpt lat="42.9395" lon="0.29991">
        <ele>1277</ele>
        <time>2019-08-08T05:52:56.000Z</time>
      </trkpt>
      <trkpt lat="42.93951" lon="0.29994">
        <ele>1277</ele>
        <time>2019-08-08T05:52:57.000Z</time>
      </trkpt>
      <trkpt lat="42.93952" lon="0.29998">
        <ele>1277</ele>
        <time>2019-08-08T05:52:58.000Z</time>
      </trkpt>
      <trkpt lat="42.93952" lon="0.30001">
        <ele>1277</ele>
        <time>2019-08-08T05:52:59.000Z</time>
      </trkpt>
      <trkpt lat="42.93954" lon="0.30005">
        <ele>1277</ele>
        <time>2019-08-08T05:53:00.000Z</time>
      </trkpt>
      <trkpt lat="42.93955" lon="0.30009">
        <ele>1277</ele>
        <time>2019-08-08T05:53:01.000Z</time>
      </trkpt>
      <trkpt lat="42.93955" lon="0.30012">
        <ele>1277</ele>
        <time>2019-08-08T05:53:02.000Z</time>
      </trkpt>
      <trkpt lat="42.93956" lon="0.30016">
        <ele>1278</ele>
        <time>2019-08-08T05:53:03.000Z</time>
      </trkpt>
      <trkpt lat="42.93958" lon="0.30019">
        <ele>1278</ele>
        <time>2019-08-08T05:53:04.000Z</time>
      </trkpt>
      <trkpt lat="42.93959" lon="0.30022">
        <ele>1279</ele>
        <time>2019-08-08T05:53:05.000Z</time>
      </trkpt>
      <trkpt lat="42.93961" lon="0.30025">
        <ele>1279</ele>
        <time>2019-08-08T05:53:06.000Z</time>
      </trkpt>
      <trkpt lat="42.93963" lon="0.30027">
        <ele>1279</ele>
        <time>2019-08-08T05:53:07.000Z</time>
      </trkpt>
      <trkpt lat="42.93965" lon="0.30029">
        <ele>1279</ele>
        <time>2019-08-08T05:53:08.000Z</time>
      </trkpt>
      <trkpt lat="42.93967" lon="0.30031">
        <ele>1280</ele>
        <time>2019-08-08T05:53:09.000Z</time>
      </trkpt>
      <trkpt lat="42.93969" lon="0.30032">
        <ele>1280</ele>
        <time>2019-08-08T05:53:10.000Z</time>
      </trkpt>
      <trkpt lat="42.93972" lon="0.30032">
        <ele>1280</ele>
        <time>2019-08-08T05:53:11.000Z</time>
      </trkpt>
      <trkpt lat="42.93974" lon="0.30033">
        <ele>1280</ele>
        <time>2019-08-08T05:53:12.000Z</time>
      </trkpt>
      <trkpt lat="42.93977" lon="0.30033">
        <ele>1280</ele>
        <time>2019-08-08T05:53:13.000Z</time>
      </trkpt>
      <trkpt lat="42.93979" lon="0.30033">
        <ele>1281</ele>
        <time>2019-08-08T05:53:14.000Z</time>
      </trkpt>
      <trkpt lat="42.93982" lon="0.30033">
        <ele>1281</ele>
        <time>2019-08-08T05:53:15.000Z</time>
      </trkpt>
      <trkpt lat="42.93984" lon="0.30033">
        <ele>1281</ele>
        <time>2019-08-08T05:53:16.000Z</time>
      </trkpt>
      <trkpt lat="42.93987" lon="0.30033">
        <ele>1281</ele>
        <time>2019-08-08T05:53:17.000Z</time>
      </trkpt>
      <trkpt lat="42.93989" lon="0.30033">
        <ele>1281</ele>
        <time>2019-08-08T05:53:18.000Z</time>
      </trkpt>
      <trkpt lat="42.93992" lon="0.30034">
        <ele>1282</ele>
        <time>2019-08-08T05:53:19.000Z</time>
      </trkpt>
      <trkpt lat="42.93994" lon="0.30035">
        <ele>1282</ele>
        <time>2019-08-08T05:53:20.000Z</time>
      </trkpt>
      <trkpt lat="42.93997" lon="0.30036">
        <ele>1283</ele>
        <time>2019-08-08T05:53:21.000Z</time>
      </trkpt>
      <trkpt lat="42.94" lon="0.30038">
        <ele>1283</ele>
        <time>2019-08-08T05:53:22.000Z</time>
      </trkpt>
      <trkpt lat="42.94002" lon="0.30039">
        <ele>1284</ele>
        <time>2019-08-08T05:53:23.000Z</time>
      </trkpt>
      <trkpt lat="42.94004" lon="0.30041">
        <ele>1284</ele>
        <time>2019-08-08T05:53:24.000Z</time>
      </trkpt>
      <trkpt lat="42.94006" lon="0.30042">
        <ele>1285</ele>
        <time>2019-08-08T05:53:25.000Z</time>
      </trkpt>
      <trkpt lat="42.94008" lon="0.30045">
        <ele>1285</ele>
        <time>2019-08-08T05:53:26.000Z</time>
      </trkpt>
      <trkpt lat="42.94009" lon="0.30048">
        <ele>1285</ele>
        <time>2019-08-08T05:53:27.000Z</time>
      </trkpt>
      <trkpt lat="42.9401" lon="0.30051">
        <ele>1285</ele>
        <time>2019-08-08T05:53:28.000Z</time>
      </trkpt>
      <trkpt lat="42.94011" lon="0.30055">
        <ele>1285</ele>
        <time>2019-08-08T05:53:29.000Z</time>
      </trkpt>
      <trkpt lat="42.94012" lon="0.30059">
        <ele>1286</ele>
        <time>2019-08-08T05:53:30.000Z</time>
      </trkpt>
      <trkpt lat="42.94013" lon="0.30063">
        <ele>1286</ele>
        <time>2019-08-08T05:53:31.000Z</time>
      </trkpt>
      <trkpt lat="42.94014" lon="0.30067">
        <ele>1286</ele>
        <time>2019-08-08T05:53:32.000Z</time>
      </trkpt>
      <trkpt lat="42.94015" lon="0.3007">
        <ele>1286</ele>
        <time>2019-08-08T05:53:33.000Z</time>
      </trkpt>
      <trkpt lat="42.94017" lon="0.30073">
        <ele>1286</ele>
        <time>2019-08-08T05:53:34.000Z</time>
      </trkpt>
      <trkpt lat="42.94018" lon="0.30076">
        <ele>1287</ele>
        <time>2019-08-08T05:53:35.000Z</time>
      </trkpt>
      <trkpt lat="42.9402" lon="0.30079">
        <ele>1287</ele>
        <time>2019-08-08T05:53:36.000Z</time>
      </trkpt>
      <trkpt lat="42.94022" lon="0.30082">
        <ele>1287</ele>
        <time>2019-08-08T05:53:37.000Z</time>
      </trkpt>
      <trkpt lat="42.94024" lon="0.30086">
        <ele>1287</ele>
        <time>2019-08-08T05:53:38.000Z</time>
      </trkpt>
      <trkpt lat="42.94025" lon="0.30089">
        <ele>1288</ele>
        <time>2019-08-08T05:53:39.000Z</time>
      </trkpt>
      <trkpt lat="42.94026" lon="0.30092">
        <ele>1288</ele>
        <time>2019-08-08T05:53:40.000Z</time>
      </trkpt>
      <trkpt lat="42.94028" lon="0.30095">
        <ele>1289</ele>
        <time>2019-08-08T05:53:41.000Z</time>
      </trkpt>
      <trkpt lat="42.9403" lon="0.30098">
        <ele>1289</ele>
        <time>2019-08-08T05:53:42.000Z</time>
      </trkpt>
      <trkpt lat="42.94031" lon="0.30101">
        <ele>1289</ele>
        <time>2019-08-08T05:53:43.000Z</time>
      </trkpt>
      <trkpt lat="42.94033" lon="0.30104">
        <ele>1289</ele>
        <time>2019-08-08T05:53:44.000Z</time>
      </trkpt>
      <trkpt lat="42.94034" lon="0.30107">
        <ele>1289</ele>
        <time>2019-08-08T05:53:45.000Z</time>
      </trkpt>
      <trkpt lat="42.94036" lon="0.3011">
        <ele>1289</ele>
        <time>2019-08-08T05:53:46.000Z</time>
      </trkpt>
      <trkpt lat="42.94037" lon="0.30114">
        <ele>1290</ele>
        <time>2019-08-08T05:53:47.000Z</time>
      </trkpt>
      <trkpt lat="42.94038" lon="0.30117">
        <ele>1290</ele>
        <time>2019-08-08T05:53:48.000Z</time>
      </trkpt>
      <trkpt lat="42.9404" lon="0.3012">
        <ele>1290</ele>
        <time>2019-08-08T05:53:49.000Z</time>
      </trkpt>
      <trkpt lat="42.94041" lon="0.30123">
        <ele>1290</ele>
        <time>2019-08-08T05:53:50.000Z</time>
      </trkpt>
      <trkpt lat="42.94042" lon="0.30127">
        <ele>1290</ele>
        <time>2019-08-08T05:53:51.000Z</time>
      </trkpt>
      <trkpt lat="42.94043" lon="0.30131">
        <ele>1290</ele>
        <time>2019-08-08T05:53:52.000Z</time>
      </trkpt>
      <trkpt lat="42.94044" lon="0.30135">
        <ele>1291</ele>
        <time>2019-08-08T05:53:53.000Z</time>
      </trkpt>
      <trkpt lat="42.94045" lon="0.30138">
        <ele>1291</ele>
        <time>2019-08-08T05:53:54.000Z</time>
      </trkpt>
      <trkpt lat="42.94046" lon="0.30142">
        <ele>1291</ele>
        <time>2019-08-08T05:53:55.000Z</time>
      </trkpt>
      <trkpt lat="42.94047" lon="0.30145">
        <ele>1291</ele>
        <time>2019-08-08T05:53:56.000Z</time>
      </trkpt>
      <trkpt lat="42.94048" lon="0.30148">
        <ele>1292</ele>
        <time>2019-08-08T05:53:57.000Z</time>
      </trkpt>
      <trkpt lat="42.94049" lon="0.30151">
        <ele>1292</ele>
        <time>2019-08-08T05:53:58.000Z</time>
      </trkpt>
      <trkpt lat="42.94051" lon="0.30155">
        <ele>1293</ele>
        <time>2019-08-08T05:53:59.000Z</time>
      </trkpt>
      <trkpt lat="42.94052" lon="0.30158">
        <ele>1293</ele>
        <time>2019-08-08T05:54:00.000Z</time>
      </trkpt>
      <trkpt lat="42.94053" lon="0.30161">
        <ele>1293</ele>
        <time>2019-08-08T05:54:01.000Z</time>
      </trkpt>
      <trkpt lat="42.94055" lon="0.30164">
        <ele>1293</ele>
        <time>2019-08-08T05:54:02.000Z</time>
      </trkpt>
      <trkpt lat="42.94056" lon="0.30168">
        <ele>1294</ele>
        <time>2019-08-08T05:54:03.000Z</time>
      </trkpt>
      <trkpt lat="42.94058" lon="0.30171">
        <ele>1294</ele>
        <time>2019-08-08T05:54:04.000Z</time>
      </trkpt>
      <trkpt lat="42.94059" lon="0.30173">
        <ele>1294</ele>
        <time>2019-08-08T05:54:05.000Z</time>
      </trkpt>
      <trkpt lat="42.94061" lon="0.30176">
        <ele>1294</ele>
        <time>2019-08-08T05:54:06.000Z</time>
      </trkpt>
      <trkpt lat="42.94063" lon="0.30179">
        <ele>1295</ele>
        <time>2019-08-08T05:54:07.000Z</time>
      </trkpt>
      <trkpt lat="42.94065" lon="0.30184">
        <ele>1295</ele>
        <time>2019-08-08T05:54:08.000Z</time>
      </trkpt>
      <trkpt lat="42.94066" lon="0.30185">
        <ele>1295</ele>
        <time>2019-08-08T05:54:09.000Z</time>
      </trkpt>
      <trkpt lat="42.94068" lon="0.30187">
        <ele>1295</ele>
        <time>2019-08-08T05:54:10.000Z</time>
      </trkpt>
      <trkpt lat="42.9407" lon="0.30189">
        <ele>1295</ele>
        <time>2019-08-08T05:54:11.000Z</time>
      </trkpt>
      <trkpt lat="42.94072" lon="0.30191">
        <ele>1295</ele>
        <time>2019-08-08T05:54:12.000Z</time>
      </trkpt>
      <trkpt lat="42.94074" lon="0.30194">
        <ele>1295</ele>
        <time>2019-08-08T05:54:13.000Z</time>
      </trkpt>
      <trkpt lat="42.94076" lon="0.30196">
        <ele>1296</ele>
        <time>2019-08-08T05:54:14.000Z</time>
      </trkpt>
      <trkpt lat="42.94078" lon="0.30198">
        <ele>1296</ele>
        <time>2019-08-08T05:54:15.000Z</time>
      </trkpt>
      <trkpt lat="42.9408" lon="0.302">
        <ele>1296</ele>
        <time>2019-08-08T05:54:16.000Z</time>
      </trkpt>
      <trkpt lat="42.94082" lon="0.30202">
        <ele>1297</ele>
        <time>2019-08-08T05:54:17.000Z</time>
      </trkpt>
      <trkpt lat="42.94084" lon="0.30204">
        <ele>1297</ele>
        <time>2019-08-08T05:54:18.000Z</time>
      </trkpt>
      <trkpt lat="42.94085" lon="0.30206">
        <ele>1297</ele>
        <time>2019-08-08T05:54:19.000Z</time>
      </trkpt>
      <trkpt lat="42.94087" lon="0.30208">
        <ele>1297</ele>
        <time>2019-08-08T05:54:20.000Z</time>
      </trkpt>
      <trkpt lat="42.94088" lon="0.30209">
        <ele>1298</ele>
        <time>2019-08-08T05:54:21.000Z</time>
      </trkpt>
      <trkpt lat="42.9409" lon="0.3021">
        <ele>1298</ele>
        <time>2019-08-08T05:54:22.000Z</time>
      </trkpt>
      <trkpt lat="42.94092" lon="0.30212">
        <ele>1299</ele>
        <time>2019-08-08T05:54:23.000Z</time>
      </trkpt>
      <trkpt lat="42.94092" lon="0.30212">
        <ele>1299</ele>
        <time>2019-08-08T05:54:24.000Z</time>
      </trkpt>
      <trkpt lat="42.94092" lon="0.30212">
        <ele>1299</ele>
        <time>2019-08-08T05:54:25.000Z</time>
      </trkpt>
      <trkpt lat="42.94098" lon="0.30214">
        <ele>1299</ele>
        <time>2019-08-08T05:54:26.000Z</time>
      </trkpt>
      <trkpt lat="42.941" lon="0.30215">
        <ele>1299</ele>
        <time>2019-08-08T05:54:27.000Z</time>
      </trkpt>
      <trkpt lat="42.94103" lon="0.30217">
        <ele>1300</ele>
        <time>2019-08-08T05:54:28.000Z</time>
      </trkpt>
      <trkpt lat="42.94103" lon="0.30217">
        <ele>1300</ele>
        <time>2019-08-08T05:54:29.000Z</time>
      </trkpt>
      <trkpt lat="42.94103" lon="0.30217">
        <ele>1300</ele>
        <time>2019-08-08T05:54:30.000Z</time>
      </trkpt>
      <trkpt lat="42.94111" lon="0.30222">
        <ele>1300</ele>
        <time>2019-08-08T05:54:31.000Z</time>
      </trkpt>
      <trkpt lat="42.94113" lon="0.30225">
        <ele>1301</ele>
        <time>2019-08-08T05:54:32.000Z</time>
      </trkpt>
      <trkpt lat="42.94115" lon="0.30228">
        <ele>1301</ele>
        <time>2019-08-08T05:54:33.000Z</time>
      </trkpt>
      <trkpt lat="42.94116" lon="0.30231">
        <ele>1302</ele>
        <time>2019-08-08T05:54:34.000Z</time>
      </trkpt>
      <trkpt lat="42.94118" lon="0.30233">
        <ele>1302</ele>
        <time>2019-08-08T05:54:35.000Z</time>
      </trkpt>
      <trkpt lat="42.9412" lon="0.30236">
        <ele>1302</ele>
        <time>2019-08-08T05:54:36.000Z</time>
      </trkpt>
      <trkpt lat="42.94122" lon="0.30238">
        <ele>1302</ele>
        <time>2019-08-08T05:54:37.000Z</time>
      </trkpt>
      <trkpt lat="42.94122" lon="0.30238">
        <ele>1302</ele>
        <time>2019-08-08T05:54:38.000Z</time>
      </trkpt>
      <trkpt lat="42.94122" lon="0.30238">
        <ele>1302</ele>
        <time>2019-08-08T05:54:39.000Z</time>
      </trkpt>
      <trkpt lat="42.94128" lon="0.30247">
        <ele>1303</ele>
        <time>2019-08-08T05:54:40.000Z</time>
      </trkpt>
      <trkpt lat="42.9413" lon="0.3025">
        <ele>1303</ele>
        <time>2019-08-08T05:54:41.000Z</time>
      </trkpt>
      <trkpt lat="42.94132" lon="0.30253">
        <ele>1304</ele>
        <time>2019-08-08T05:54:42.000Z</time>
      </trkpt>
      <trkpt lat="42.94133" lon="0.30256">
        <ele>1304</ele>
        <time>2019-08-08T05:54:43.000Z</time>
      </trkpt>
      <trkpt lat="42.94136" lon="0.30258">
        <ele>1304</ele>
        <time>2019-08-08T05:54:44.000Z</time>
      </trkpt>
      <trkpt lat="42.94138" lon="0.30263">
        <ele>1304</ele>
        <time>2019-08-08T05:54:45.000Z</time>
      </trkpt>
      <trkpt lat="42.94139" lon="0.30265">
        <ele>1305</ele>
        <time>2019-08-08T05:54:46.000Z</time>
      </trkpt>
      <trkpt lat="42.94139" lon="0.30267">
        <ele>1305</ele>
        <time>2019-08-08T05:54:47.000Z</time>
      </trkpt>
      <trkpt lat="42.9414" lon="0.30269">
        <ele>1305</ele>
        <time>2019-08-08T05:54:48.000Z</time>
      </trkpt>
      <trkpt lat="42.94142" lon="0.30276">
        <ele>1305</ele>
        <time>2019-08-08T05:54:49.000Z</time>
      </trkpt>
      <trkpt lat="42.94145" lon="0.30279">
        <ele>1305</ele>
        <time>2019-08-08T05:54:50.000Z</time>
      </trkpt>
      <trkpt lat="42.94146" lon="0.30282">
        <ele>1305</ele>
        <time>2019-08-08T05:54:51.000Z</time>
      </trkpt>
      <trkpt lat="42.94146" lon="0.30282">
        <ele>1305</ele>
        <time>2019-08-08T05:54:52.000Z</time>
      </trkpt>
      <trkpt lat="42.94148" lon="0.30289">
        <ele>1306</ele>
        <time>2019-08-08T05:54:53.000Z</time>
      </trkpt>
      <trkpt lat="42.9415" lon="0.30291">
        <ele>1306</ele>
        <time>2019-08-08T05:54:54.000Z</time>
      </trkpt>
      <trkpt lat="42.94151" lon="0.30294">
        <ele>1306</ele>
        <time>2019-08-08T05:54:55.000Z</time>
      </trkpt>
      <trkpt lat="42.94153" lon="0.30297">
        <ele>1306</ele>
        <time>2019-08-08T05:54:56.000Z</time>
      </trkpt>
      <trkpt lat="42.94154" lon="0.303">
        <ele>1306</ele>
        <time>2019-08-08T05:54:57.000Z</time>
      </trkpt>
      <trkpt lat="42.94155" lon="0.30303">
        <ele>1307</ele>
        <time>2019-08-08T05:54:58.000Z</time>
      </trkpt>
      <trkpt lat="42.94156" lon="0.30306">
        <ele>1307</ele>
        <time>2019-08-08T05:54:59.000Z</time>
      </trkpt>
      <trkpt lat="42.94158" lon="0.3031">
        <ele>1308</ele>
        <time>2019-08-08T05:55:00.000Z</time>
      </trkpt>
      <trkpt lat="42.9416" lon="0.30313">
        <ele>1308</ele>
        <time>2019-08-08T05:55:01.000Z</time>
      </trkpt>
      <trkpt lat="42.94162" lon="0.30316">
        <ele>1308</ele>
        <time>2019-08-08T05:55:02.000Z</time>
      </trkpt>
      <trkpt lat="42.94163" lon="0.3032">
        <ele>1308</ele>
        <time>2019-08-08T05:55:03.000Z</time>
      </trkpt>
      <trkpt lat="42.94164" lon="0.30323">
        <ele>1309</ele>
        <time>2019-08-08T05:55:04.000Z</time>
      </trkpt>
      <trkpt lat="42.94167" lon="0.30327">
        <ele>1309</ele>
        <time>2019-08-08T05:55:05.000Z</time>
      </trkpt>
      <trkpt lat="42.94168" lon="0.30328">
        <ele>1309</ele>
        <time>2019-08-08T05:55:06.000Z</time>
      </trkpt>
      <trkpt lat="42.9417" lon="0.3033">
        <ele>1309</ele>
        <time>2019-08-08T05:55:07.000Z</time>
      </trkpt>
      <trkpt lat="42.94172" lon="0.30332">
        <ele>1309</ele>
        <time>2019-08-08T05:55:08.000Z</time>
      </trkpt>
      <trkpt lat="42.94173" lon="0.30334">
        <ele>1310</ele>
        <time>2019-08-08T05:55:09.000Z</time>
      </trkpt>
      <trkpt lat="42.94175" lon="0.30336">
        <ele>1310</ele>
        <time>2019-08-08T05:55:10.000Z</time>
      </trkpt>
      <trkpt lat="42.94177" lon="0.30339">
        <ele>1311</ele>
        <time>2019-08-08T05:55:11.000Z</time>
      </trkpt>
      <trkpt lat="42.94179" lon="0.30341">
        <ele>1311</ele>
        <time>2019-08-08T05:55:12.000Z</time>
      </trkpt>
      <trkpt lat="42.94182" lon="0.30342">
        <ele>1311</ele>
        <time>2019-08-08T05:55:13.000Z</time>
      </trkpt>
      <trkpt lat="42.94184" lon="0.30344">
        <ele>1311</ele>
        <time>2019-08-08T05:55:14.000Z</time>
      </trkpt>
      <trkpt lat="42.94186" lon="0.30346">
        <ele>1312</ele>
        <time>2019-08-08T05:55:15.000Z</time>
      </trkpt>
      <trkpt lat="42.94188" lon="0.30349">
        <ele>1312</ele>
        <time>2019-08-08T05:55:16.000Z</time>
      </trkpt>
      <trkpt lat="42.94189" lon="0.30352">
        <ele>1312</ele>
        <time>2019-08-08T05:55:17.000Z</time>
      </trkpt>
      <trkpt lat="42.94189" lon="0.30352">
        <ele>1312</ele>
        <time>2019-08-08T05:55:18.000Z</time>
      </trkpt>
      <trkpt lat="42.9419" lon="0.30362">
        <ele>1312</ele>
        <time>2019-08-08T05:55:19.000Z</time>
      </trkpt>
      <trkpt lat="42.94191" lon="0.30366">
        <ele>1312</ele>
        <time>2019-08-08T05:55:20.000Z</time>
      </trkpt>
      <trkpt lat="42.94192" lon="0.30369">
        <ele>1313</ele>
        <time>2019-08-08T05:55:21.000Z</time>
      </trkpt>
      <trkpt lat="42.94193" lon="0.30372">
        <ele>1313</ele>
        <time>2019-08-08T05:55:22.000Z</time>
      </trkpt>
      <trkpt lat="42.94194" lon="0.30375">
        <ele>1313</ele>
        <time>2019-08-08T05:55:23.000Z</time>
      </trkpt>
      <trkpt lat="42.94195" lon="0.30379">
        <ele>1313</ele>
        <time>2019-08-08T05:55:24.000Z</time>
      </trkpt>
      <trkpt lat="42.94195" lon="0.30381">
        <ele>1314</ele>
        <time>2019-08-08T05:55:25.000Z</time>
      </trkpt>
      <trkpt lat="42.94196" lon="0.30385">
        <ele>1314</ele>
        <time>2019-08-08T05:55:26.000Z</time>
      </trkpt>
      <trkpt lat="42.94197" lon="0.30388">
        <ele>1315</ele>
        <time>2019-08-08T05:55:27.000Z</time>
      </trkpt>
      <trkpt lat="42.94199" lon="0.30391">
        <ele>1315</ele>
        <time>2019-08-08T05:55:28.000Z</time>
      </trkpt>
      <trkpt lat="42.942" lon="0.30394">
        <ele>1316</ele>
        <time>2019-08-08T05:55:29.000Z</time>
      </trkpt>
      <trkpt lat="42.942" lon="0.30394">
        <ele>1316</ele>
        <time>2019-08-08T05:55:30.000Z</time>
      </trkpt>
      <trkpt lat="42.94202" lon="0.30401">
        <ele>1316</ele>
        <time>2019-08-08T05:55:31.000Z</time>
      </trkpt>
      <trkpt lat="42.94203" lon="0.30405">
        <ele>1316</ele>
        <time>2019-08-08T05:55:32.000Z</time>
      </trkpt>
      <trkpt lat="42.94205" lon="0.30408">
        <ele>1316</ele>
        <time>2019-08-08T05:55:33.000Z</time>
      </trkpt>
      <trkpt lat="42.94206" lon="0.30411">
        <ele>1316</ele>
        <time>2019-08-08T05:55:34.000Z</time>
      </trkpt>
      <trkpt lat="42.94207" lon="0.30415">
        <ele>1316</ele>
        <time>2019-08-08T05:55:35.000Z</time>
      </trkpt>
      <trkpt lat="42.94209" lon="0.30418">
        <ele>1316</ele>
        <time>2019-08-08T05:55:36.000Z</time>
      </trkpt>
      <trkpt lat="42.9421" lon="0.30421">
        <ele>1317</ele>
        <time>2019-08-08T05:55:37.000Z</time>
      </trkpt>
      <trkpt lat="42.94211" lon="0.30425">
        <ele>1317</ele>
        <time>2019-08-08T05:55:38.000Z</time>
      </trkpt>
      <trkpt lat="42.94212" lon="0.30428">
        <ele>1317</ele>
        <time>2019-08-08T05:55:39.000Z</time>
      </trkpt>
      <trkpt lat="42.94213" lon="0.30431">
        <ele>1317</ele>
        <time>2019-08-08T05:55:40.000Z</time>
      </trkpt>
      <trkpt lat="42.94215" lon="0.30434">
        <ele>1317</ele>
        <time>2019-08-08T05:55:41.000Z</time>
      </trkpt>
      <trkpt lat="42.94216" lon="0.30436">
        <ele>1318</ele>
        <time>2019-08-08T05:55:42.000Z</time>
      </trkpt>
      <trkpt lat="42.94218" lon="0.30439">
        <ele>1318</ele>
        <time>2019-08-08T05:55:43.000Z</time>
      </trkpt>
      <trkpt lat="42.94219" lon="0.30442">
        <ele>1319</ele>
        <time>2019-08-08T05:55:44.000Z</time>
      </trkpt>
      <trkpt lat="42.94221" lon="0.30444">
        <ele>1319</ele>
        <time>2019-08-08T05:55:45.000Z</time>
      </trkpt>
      <trkpt lat="42.94223" lon="0.30447">
        <ele>1319</ele>
        <time>2019-08-08T05:55:46.000Z</time>
      </trkpt>
      <trkpt lat="42.94225" lon="0.30449">
        <ele>1320</ele>
        <time>2019-08-08T05:55:47.000Z</time>
      </trkpt>
      <trkpt lat="42.94227" lon="0.30452">
        <ele>1320</ele>
        <time>2019-08-08T05:55:48.000Z</time>
      </trkpt>
      <trkpt lat="42.94228" lon="0.30455">
        <ele>1320</ele>
        <time>2019-08-08T05:55:49.000Z</time>
      </trkpt>
      <trkpt lat="42.94229" lon="0.30458">
        <ele>1320</ele>
        <time>2019-08-08T05:55:50.000Z</time>
      </trkpt>
      <trkpt lat="42.94231" lon="0.30462">
        <ele>1320</ele>
        <time>2019-08-08T05:55:51.000Z</time>
      </trkpt>
      <trkpt lat="42.94232" lon="0.30466">
        <ele>1320</ele>
        <time>2019-08-08T05:55:52.000Z</time>
      </trkpt>
      <trkpt lat="42.94234" lon="0.30469">
        <ele>1321</ele>
        <time>2019-08-08T05:55:53.000Z</time>
      </trkpt>
      <trkpt lat="42.94234" lon="0.30472">
        <ele>1321</ele>
        <time>2019-08-08T05:55:54.000Z</time>
      </trkpt>
      <trkpt lat="42.94235" lon="0.30476">
        <ele>1321</ele>
        <time>2019-08-08T05:55:55.000Z</time>
      </trkpt>
      <trkpt lat="42.94234" lon="0.3048">
        <ele>1321</ele>
        <time>2019-08-08T05:55:56.000Z</time>
      </trkpt>
      <trkpt lat="42.94234" lon="0.30484">
        <ele>1322</ele>
        <time>2019-08-08T05:55:57.000Z</time>
      </trkpt>
      <trkpt lat="42.94235" lon="0.30488">
        <ele>1322</ele>
        <time>2019-08-08T05:55:58.000Z</time>
      </trkpt>
      <trkpt lat="42.94235" lon="0.30492">
        <ele>1322</ele>
        <time>2019-08-08T05:55:59.000Z</time>
      </trkpt>
      <trkpt lat="42.94236" lon="0.30496">
        <ele>1322</ele>
        <time>2019-08-08T05:56:00.000Z</time>
      </trkpt>
      <trkpt lat="42.94237" lon="0.30501">
        <ele>1322</ele>
        <time>2019-08-08T05:56:01.000Z</time>
      </trkpt>
      <trkpt lat="42.94237" lon="0.30505">
        <ele>1322</ele>
        <time>2019-08-08T05:56:02.000Z</time>
      </trkpt>
      <trkpt lat="42.94239" lon="0.30509">
        <ele>1322</ele>
        <time>2019-08-08T05:56:03.000Z</time>
      </trkpt>
      <trkpt lat="42.9424" lon="0.30513">
        <ele>1322</ele>
        <time>2019-08-08T05:56:04.000Z</time>
      </trkpt>
      <trkpt lat="42.94241" lon="0.30517">
        <ele>1322</ele>
        <time>2019-08-08T05:56:05.000Z</time>
      </trkpt>
      <trkpt lat="42.94243" lon="0.30521">
        <ele>1323</ele>
        <time>2019-08-08T05:56:06.000Z</time>
      </trkpt>
      <trkpt lat="42.94245" lon="0.30525">
        <ele>1323</ele>
        <time>2019-08-08T05:56:07.000Z</time>
      </trkpt>
      <trkpt lat="42.94247" lon="0.30527">
        <ele>1323</ele>
        <time>2019-08-08T05:56:08.000Z</time>
      </trkpt>
      <trkpt lat="42.9425" lon="0.30529">
        <ele>1323</ele>
        <time>2019-08-08T05:56:09.000Z</time>
      </trkpt>
      <trkpt lat="42.94252" lon="0.30532">
        <ele>1324</ele>
        <time>2019-08-08T05:56:10.000Z</time>
      </trkpt>
      <trkpt lat="42.94254" lon="0.30533">
        <ele>1324</ele>
        <time>2019-08-08T05:56:11.000Z</time>
      </trkpt>
      <trkpt lat="42.94257" lon="0.30534">
        <ele>1324</ele>
        <time>2019-08-08T05:56:12.000Z</time>
      </trkpt>
      <trkpt lat="42.9426" lon="0.30534">
        <ele>1324</ele>
        <time>2019-08-08T05:56:13.000Z</time>
      </trkpt>
      <trkpt lat="42.94262" lon="0.30534">
        <ele>1325</ele>
        <time>2019-08-08T05:56:14.000Z</time>
      </trkpt>
      <trkpt lat="42.94264" lon="0.30535">
        <ele>1325</ele>
        <time>2019-08-08T05:56:15.000Z</time>
      </trkpt>
      <trkpt lat="42.94265" lon="0.30537">
        <ele>1326</ele>
        <time>2019-08-08T05:56:16.000Z</time>
      </trkpt>
      <trkpt lat="42.94265" lon="0.30537">
        <ele>1326</ele>
        <time>2019-08-08T05:56:17.000Z</time>
      </trkpt>
      <trkpt lat="42.94265" lon="0.30537">
        <ele>1326</ele>
        <time>2019-08-08T05:56:18.000Z</time>
      </trkpt>
      <trkpt lat="42.94275" lon="0.3054">
        <ele>1326</ele>
        <time>2019-08-08T05:56:19.000Z</time>
      </trkpt>
      <trkpt lat="42.94275" lon="0.3054">
        <ele>1326</ele>
        <time>2019-08-08T05:56:20.000Z</time>
      </trkpt>
      <trkpt lat="42.94275" lon="0.3054">
        <ele>1326</ele>
        <time>2019-08-08T05:56:21.000Z</time>
      </trkpt>
      <trkpt lat="42.94282" lon="0.30548">
        <ele>1327</ele>
        <time>2019-08-08T05:56:22.000Z</time>
      </trkpt>
      <trkpt lat="42.94282" lon="0.30548">
        <ele>1327</ele>
        <time>2019-08-08T05:56:23.000Z</time>
      </trkpt>
      <trkpt lat="42.94282" lon="0.30548">
        <ele>1327</ele>
        <time>2019-08-08T05:56:24.000Z</time>
      </trkpt>
      <trkpt lat="42.94282" lon="0.30548">
        <ele>1328</ele>
        <time>2019-08-08T05:56:25.000Z</time>
      </trkpt>
      <trkpt lat="42.9429" lon="0.30558">
        <ele>1328</ele>
        <time>2019-08-08T05:56:26.000Z</time>
      </trkpt>
      <trkpt lat="42.9429" lon="0.30558">
        <ele>1328</ele>
        <time>2019-08-08T05:56:27.000Z</time>
      </trkpt>
      <trkpt lat="42.9429" lon="0.30558">
        <ele>1328</ele>
        <time>2019-08-08T05:56:28.000Z</time>
      </trkpt>
      <trkpt lat="42.9429" lon="0.30558">
        <ele>1328</ele>
        <time>2019-08-08T05:56:29.000Z</time>
      </trkpt>
      <trkpt lat="42.94289" lon="0.3057">
        <ele>1328</ele>
        <time>2019-08-08T05:56:30.000Z</time>
      </trkpt>
      <trkpt lat="42.94289" lon="0.3057">
        <ele>1329</ele>
        <time>2019-08-08T05:56:31.000Z</time>
      </trkpt>
      <trkpt lat="42.94289" lon="0.3057">
        <ele>1329</ele>
        <time>2019-08-08T05:56:32.000Z</time>
      </trkpt>
      <trkpt lat="42.94289" lon="0.3057">
        <ele>1330</ele>
        <time>2019-08-08T05:56:33.000Z</time>
      </trkpt>
      <trkpt lat="42.94289" lon="0.30582">
        <ele>1330</ele>
        <time>2019-08-08T05:56:34.000Z</time>
      </trkpt>
      <trkpt lat="42.94289" lon="0.30586">
        <ele>1330</ele>
        <time>2019-08-08T05:56:35.000Z</time>
      </trkpt>
      <trkpt lat="42.94288" lon="0.3059">
        <ele>1330</ele>
        <time>2019-08-08T05:56:36.000Z</time>
      </trkpt>
      <trkpt lat="42.94288" lon="0.3059">
        <ele>1331</ele>
        <time>2019-08-08T05:56:37.000Z</time>
      </trkpt>
      <trkpt lat="42.94287" lon="0.30599">
        <ele>1331</ele>
        <time>2019-08-08T05:56:38.000Z</time>
      </trkpt>
      <trkpt lat="42.94287" lon="0.30599">
        <ele>1331</ele>
        <time>2019-08-08T05:56:39.000Z</time>
      </trkpt>
      <trkpt lat="42.94287" lon="0.30606">
        <ele>1331</ele>
        <time>2019-08-08T05:56:40.000Z</time>
      </trkpt>
      <trkpt lat="42.94287" lon="0.3061">
        <ele>1332</ele>
        <time>2019-08-08T05:56:41.000Z</time>
      </trkpt>
      <trkpt lat="42.94288" lon="0.30614">
        <ele>1332</ele>
        <time>2019-08-08T05:56:42.000Z</time>
      </trkpt>
      <trkpt lat="42.94287" lon="0.30618">
        <ele>1333</ele>
        <time>2019-08-08T05:56:43.000Z</time>
      </trkpt>
      <trkpt lat="42.94288" lon="0.30622">
        <ele>1333</ele>
        <time>2019-08-08T05:56:44.000Z</time>
      </trkpt>
      <trkpt lat="42.94288" lon="0.30626">
        <ele>1334</ele>
        <time>2019-08-08T05:56:45.000Z</time>
      </trkpt>
      <trkpt lat="42.94288" lon="0.30629">
        <ele>1334</ele>
        <time>2019-08-08T05:56:46.000Z</time>
      </trkpt>
      <trkpt lat="42.94288" lon="0.30633">
        <ele>1334</ele>
        <time>2019-08-08T05:56:47.000Z</time>
      </trkpt>
      <trkpt lat="42.94287" lon="0.30637">
        <ele>1334</ele>
        <time>2019-08-08T05:56:48.000Z</time>
      </trkpt>
      <trkpt lat="42.94287" lon="0.3064">
        <ele>1334</ele>
        <time>2019-08-08T05:56:49.000Z</time>
      </trkpt>
      <trkpt lat="42.94287" lon="0.30644">
        <ele>1334</ele>
        <time>2019-08-08T05:56:50.000Z</time>
      </trkpt>
      <trkpt lat="42.94288" lon="0.30647">
        <ele>1335</ele>
        <time>2019-08-08T05:56:51.000Z</time>
      </trkpt>
      <trkpt lat="42.94288" lon="0.30651">
        <ele>1335</ele>
        <time>2019-08-08T05:56:52.000Z</time>
      </trkpt>
      <trkpt lat="42.94287" lon="0.30656">
        <ele>1335</ele>
        <time>2019-08-08T05:56:53.000Z</time>
      </trkpt>
      <trkpt lat="42.94287" lon="0.3066">
        <ele>1335</ele>
        <time>2019-08-08T05:56:54.000Z</time>
      </trkpt>
      <trkpt lat="42.94287" lon="0.30663">
        <ele>1335</ele>
        <time>2019-08-08T05:56:55.000Z</time>
      </trkpt>
      <trkpt lat="42.94288" lon="0.30667">
        <ele>1335</ele>
        <time>2019-08-08T05:56:56.000Z</time>
      </trkpt>
      <trkpt lat="42.94289" lon="0.3067">
        <ele>1336</ele>
        <time>2019-08-08T05:56:57.000Z</time>
      </trkpt>
      <trkpt lat="42.9429" lon="0.30673">
        <ele>1336</ele>
        <time>2019-08-08T05:56:58.000Z</time>
      </trkpt>
      <trkpt lat="42.94292" lon="0.30675">
        <ele>1336</ele>
        <time>2019-08-08T05:56:59.000Z</time>
      </trkpt>
      <trkpt lat="42.94292" lon="0.30675">
        <ele>1336</ele>
        <time>2019-08-08T05:57:00.000Z</time>
      </trkpt>
      <trkpt lat="42.94298" lon="0.30679">
        <ele>1336</ele>
        <time>2019-08-08T05:57:01.000Z</time>
      </trkpt>
      <trkpt lat="42.943" lon="0.30681">
        <ele>1337</ele>
        <time>2019-08-08T05:57:02.000Z</time>
      </trkpt>
      <trkpt lat="42.94303" lon="0.30683">
        <ele>1337</ele>
        <time>2019-08-08T05:57:03.000Z</time>
      </trkpt>
      <trkpt lat="42.94305" lon="0.30684">
        <ele>1338</ele>
        <time>2019-08-08T05:57:04.000Z</time>
      </trkpt>
      <trkpt lat="42.94307" lon="0.30685">
        <ele>1338</ele>
        <time>2019-08-08T05:57:05.000Z</time>
      </trkpt>
      <trkpt lat="42.9431" lon="0.30686">
        <ele>1338</ele>
        <time>2019-08-08T05:57:06.000Z</time>
      </trkpt>
      <trkpt lat="42.94312" lon="0.30688">
        <ele>1338</ele>
        <time>2019-08-08T05:57:07.000Z</time>
      </trkpt>
      <trkpt lat="42.94314" lon="0.3069">
        <ele>1339</ele>
        <time>2019-08-08T05:57:08.000Z</time>
      </trkpt>
      <trkpt lat="42.94316" lon="0.30692">
        <ele>1339</ele>
        <time>2019-08-08T05:57:09.000Z</time>
      </trkpt>
      <trkpt lat="42.94317" lon="0.30696">
        <ele>1339</ele>
        <time>2019-08-08T05:57:10.000Z</time>
      </trkpt>
      <trkpt lat="42.94317" lon="0.30699">
        <ele>1339</ele>
        <time>2019-08-08T05:57:11.000Z</time>
      </trkpt>
      <trkpt lat="42.94317" lon="0.30699">
        <ele>1340</ele>
        <time>2019-08-08T05:57:12.000Z</time>
      </trkpt>
      <trkpt lat="42.94317" lon="0.30699">
        <ele>1340</ele>
        <time>2019-08-08T05:57:13.000Z</time>
      </trkpt>
      <trkpt lat="42.94316" lon="0.30709">
        <ele>1340</ele>
        <time>2019-08-08T05:57:14.000Z</time>
      </trkpt>
      <trkpt lat="42.94316" lon="0.30709">
        <ele>1340</ele>
        <time>2019-08-08T05:57:15.000Z</time>
      </trkpt>
      <trkpt lat="42.94316" lon="0.30709">
        <ele>1341</ele>
        <time>2019-08-08T05:57:16.000Z</time>
      </trkpt>
      <trkpt lat="42.9431" lon="0.30721">
        <ele>1341</ele>
        <time>2019-08-08T05:57:17.000Z</time>
      </trkpt>
      <trkpt lat="42.9431" lon="0.30721">
        <ele>1341</ele>
        <time>2019-08-08T05:57:18.000Z</time>
      </trkpt>
      <trkpt lat="42.94307" lon="0.30728">
        <ele>1341</ele>
        <time>2019-08-08T05:57:19.000Z</time>
      </trkpt>
      <trkpt lat="42.94306" lon="0.30731">
        <ele>1341</ele>
        <time>2019-08-08T05:57:20.000Z</time>
      </trkpt>
      <trkpt lat="42.94303" lon="0.30734">
        <ele>1342</ele>
        <time>2019-08-08T05:57:21.000Z</time>
      </trkpt>
      <trkpt lat="42.94301" lon="0.30737">
        <ele>1342</ele>
        <time>2019-08-08T05:57:22.000Z</time>
      </trkpt>
      <trkpt lat="42.94299" lon="0.30741">
        <ele>1343</ele>
        <time>2019-08-08T05:57:23.000Z</time>
      </trkpt>
      <trkpt lat="42.94297" lon="0.30745">
        <ele>1343</ele>
        <time>2019-08-08T05:57:24.000Z</time>
      </trkpt>
      <trkpt lat="42.94296" lon="0.30749">
        <ele>1343</ele>
        <time>2019-08-08T05:57:25.000Z</time>
      </trkpt>
      <trkpt lat="42.94294" lon="0.30752">
        <ele>1343</ele>
        <time>2019-08-08T05:57:26.000Z</time>
      </trkpt>
      <trkpt lat="42.94293" lon="0.30756">
        <ele>1343</ele>
        <time>2019-08-08T05:57:27.000Z</time>
      </trkpt>
      <trkpt lat="42.94292" lon="0.3076">
        <ele>1343</ele>
        <time>2019-08-08T05:57:28.000Z</time>
      </trkpt>
      <trkpt lat="42.94291" lon="0.30763">
        <ele>1344</ele>
        <time>2019-08-08T05:57:29.000Z</time>
      </trkpt>
      <trkpt lat="42.94291" lon="0.30766">
        <ele>1344</ele>
        <time>2019-08-08T05:57:30.000Z</time>
      </trkpt>
      <trkpt lat="42.9429" lon="0.3077">
        <ele>1344</ele>
        <time>2019-08-08T05:57:31.000Z</time>
      </trkpt>
      <trkpt lat="42.94289" lon="0.30773">
        <ele>1344</ele>
        <time>2019-08-08T05:57:32.000Z</time>
      </trkpt>
      <trkpt lat="42.94288" lon="0.30777">
        <ele>1344</ele>
        <time>2019-08-08T05:57:33.000Z</time>
      </trkpt>
      <trkpt lat="42.94287" lon="0.3078">
        <ele>1344</ele>
        <time>2019-08-08T05:57:34.000Z</time>
      </trkpt>
      <trkpt lat="42.94286" lon="0.30783">
        <ele>1345</ele>
        <time>2019-08-08T05:57:35.000Z</time>
      </trkpt>
      <trkpt lat="42.94286" lon="0.30786">
        <ele>1345</ele>
        <time>2019-08-08T05:57:36.000Z</time>
      </trkpt>
      <trkpt lat="42.94285" lon="0.3079">
        <ele>1345</ele>
        <time>2019-08-08T05:57:37.000Z</time>
      </trkpt>
      <trkpt lat="42.94284" lon="0.30793">
        <ele>1346</ele>
        <time>2019-08-08T05:57:38.000Z</time>
      </trkpt>
      <trkpt lat="42.94283" lon="0.30798">
        <ele>1346</ele>
        <time>2019-08-08T05:57:39.000Z</time>
      </trkpt>
      <trkpt lat="42.94282" lon="0.30801">
        <ele>1346</ele>
        <time>2019-08-08T05:57:40.000Z</time>
      </trkpt>
      <trkpt lat="42.94281" lon="0.30805">
        <ele>1347</ele>
        <time>2019-08-08T05:57:41.000Z</time>
      </trkpt>
      <trkpt lat="42.94281" lon="0.30809">
        <ele>1347</ele>
        <time>2019-08-08T05:57:42.000Z</time>
      </trkpt>
      <trkpt lat="42.9428" lon="0.30813">
        <ele>1347</ele>
        <time>2019-08-08T05:57:43.000Z</time>
      </trkpt>
      <trkpt lat="42.9428" lon="0.30817">
        <ele>1348</ele>
        <time>2019-08-08T05:57:44.000Z</time>
      </trkpt>
      <trkpt lat="42.9428" lon="0.30821">
        <ele>1348</ele>
        <time>2019-08-08T05:57:45.000Z</time>
      </trkpt>
      <trkpt lat="42.94279" lon="0.30825">
        <ele>1348</ele>
        <time>2019-08-08T05:57:46.000Z</time>
      </trkpt>
      <trkpt lat="42.94278" lon="0.30828">
        <ele>1349</ele>
        <time>2019-08-08T05:57:47.000Z</time>
      </trkpt>
      <trkpt lat="42.94277" lon="0.30832">
        <ele>1349</ele>
        <time>2019-08-08T05:57:48.000Z</time>
      </trkpt>
      <trkpt lat="42.94276" lon="0.30835">
        <ele>1349</ele>
        <time>2019-08-08T05:57:49.000Z</time>
      </trkpt>
      <trkpt lat="42.94275" lon="0.30839">
        <ele>1350</ele>
        <time>2019-08-08T05:57:50.000Z</time>
      </trkpt>
      <trkpt lat="42.94275" lon="0.30843">
        <ele>1350</ele>
        <time>2019-08-08T05:57:51.000Z</time>
      </trkpt>
      <trkpt lat="42.94275" lon="0.30846">
        <ele>1350</ele>
        <time>2019-08-08T05:57:52.000Z</time>
      </trkpt>
      <trkpt lat="42.94274" lon="0.3085">
        <ele>1351</ele>
        <time>2019-08-08T05:57:53.000Z</time>
      </trkpt>
      <trkpt lat="42.94273" lon="0.30854">
        <ele>1351</ele>
        <time>2019-08-08T05:57:54.000Z</time>
      </trkpt>
      <trkpt lat="42.94272" lon="0.30857">
        <ele>1351</ele>
        <time>2019-08-08T05:57:55.000Z</time>
      </trkpt>
      <trkpt lat="42.94271" lon="0.30861">
        <ele>1351</ele>
        <time>2019-08-08T05:57:56.000Z</time>
      </trkpt>
      <trkpt lat="42.9427" lon="0.30864">
        <ele>1352</ele>
        <time>2019-08-08T05:57:57.000Z</time>
      </trkpt>
      <trkpt lat="42.94269" lon="0.30868">
        <ele>1352</ele>
        <time>2019-08-08T05:57:58.000Z</time>
      </trkpt>
      <trkpt lat="42.94268" lon="0.30871">
        <ele>1352</ele>
        <time>2019-08-08T05:57:59.000Z</time>
      </trkpt>
      <trkpt lat="42.94267" lon="0.30875">
        <ele>1352</ele>
        <time>2019-08-08T05:58:00.000Z</time>
      </trkpt>
      <trkpt lat="42.94267" lon="0.30879">
        <ele>1352</ele>
        <time>2019-08-08T05:58:01.000Z</time>
      </trkpt>
      <trkpt lat="42.94266" lon="0.30883">
        <ele>1353</ele>
        <time>2019-08-08T05:58:02.000Z</time>
      </trkpt>
      <trkpt lat="42.94266" lon="0.30886">
        <ele>1353</ele>
        <time>2019-08-08T05:58:03.000Z</time>
      </trkpt>
      <trkpt lat="42.94265" lon="0.3089">
        <ele>1354</ele>
        <time>2019-08-08T05:58:04.000Z</time>
      </trkpt>
      <trkpt lat="42.94265" lon="0.30894">
        <ele>1354</ele>
        <time>2019-08-08T05:58:05.000Z</time>
      </trkpt>
      <trkpt lat="42.94264" lon="0.30897">
        <ele>1354</ele>
        <time>2019-08-08T05:58:06.000Z</time>
      </trkpt>
      <trkpt lat="42.94264" lon="0.30901">
        <ele>1354</ele>
        <time>2019-08-08T05:58:07.000Z</time>
      </trkpt>
      <trkpt lat="42.94264" lon="0.30904">
        <ele>1354</ele>
        <time>2019-08-08T05:58:08.000Z</time>
      </trkpt>
      <trkpt lat="42.94263" lon="0.30908">
        <ele>1355</ele>
        <time>2019-08-08T05:58:09.000Z</time>
      </trkpt>
      <trkpt lat="42.94264" lon="0.30911">
        <ele>1355</ele>
        <time>2019-08-08T05:58:10.000Z</time>
      </trkpt>
      <trkpt lat="42.94264" lon="0.30914">
        <ele>1356</ele>
        <time>2019-08-08T05:58:11.000Z</time>
      </trkpt>
      <trkpt lat="42.94264" lon="0.30917">
        <ele>1356</ele>
        <time>2019-08-08T05:58:12.000Z</time>
      </trkpt>
      <trkpt lat="42.94264" lon="0.3092">
        <ele>1356</ele>
        <time>2019-08-08T05:58:13.000Z</time>
      </trkpt>
      <trkpt lat="42.94264" lon="0.30924">
        <ele>1356</ele>
        <time>2019-08-08T05:58:14.000Z</time>
      </trkpt>
      <trkpt lat="42.94264" lon="0.30927">
        <ele>1357</ele>
        <time>2019-08-08T05:58:15.000Z</time>
      </trkpt>
      <trkpt lat="42.94263" lon="0.30931">
        <ele>1357</ele>
        <time>2019-08-08T05:58:16.000Z</time>
      </trkpt>
      <trkpt lat="42.94263" lon="0.30934">
        <ele>1357</ele>
        <time>2019-08-08T05:58:17.000Z</time>
      </trkpt>
      <trkpt lat="42.94263" lon="0.30937">
        <ele>1357</ele>
        <time>2019-08-08T05:58:18.000Z</time>
      </trkpt>
      <trkpt lat="42.94263" lon="0.3094">
        <ele>1357</ele>
        <time>2019-08-08T05:58:19.000Z</time>
      </trkpt>
      <trkpt lat="42.94263" lon="0.30943">
        <ele>1359</ele>
        <time>2019-08-08T05:58:20.000Z</time>
      </trkpt>
      <trkpt lat="42.94264" lon="0.30946">
        <ele>1359</ele>
        <time>2019-08-08T05:58:21.000Z</time>
      </trkpt>
      <trkpt lat="42.94263" lon="0.3095">
        <ele>1359</ele>
        <time>2019-08-08T05:58:22.000Z</time>
      </trkpt>
      <trkpt lat="42.94262" lon="0.30953">
        <ele>1359</ele>
        <time>2019-08-08T05:58:23.000Z</time>
      </trkpt>
      <trkpt lat="42.94263" lon="0.30956">
        <ele>1359</ele>
        <time>2019-08-08T05:58:24.000Z</time>
      </trkpt>
      <trkpt lat="42.94263" lon="0.30959">
        <ele>1359</ele>
        <time>2019-08-08T05:58:25.000Z</time>
      </trkpt>
      <trkpt lat="42.94263" lon="0.30962">
        <ele>1359</ele>
        <time>2019-08-08T05:58:26.000Z</time>
      </trkpt>
      <trkpt lat="42.94262" lon="0.30965">
        <ele>1359</ele>
        <time>2019-08-08T05:58:27.000Z</time>
      </trkpt>
      <trkpt lat="42.94261" lon="0.30968">
        <ele>1359</ele>
        <time>2019-08-08T05:58:28.000Z</time>
      </trkpt>
      <trkpt lat="42.9426" lon="0.30971">
        <ele>1359</ele>
        <time>2019-08-08T05:58:29.000Z</time>
      </trkpt>
      <trkpt lat="42.94259" lon="0.30976">
        <ele>1359</ele>
        <time>2019-08-08T05:58:30.000Z</time>
      </trkpt>
      <trkpt lat="42.94259" lon="0.30981">
        <ele>1360</ele>
        <time>2019-08-08T05:58:31.000Z</time>
      </trkpt>
      <trkpt lat="42.94259" lon="0.30985">
        <ele>1360</ele>
        <time>2019-08-08T05:58:32.000Z</time>
      </trkpt>
      <trkpt lat="42.94259" lon="0.30988">
        <ele>1361</ele>
        <time>2019-08-08T05:58:33.000Z</time>
      </trkpt>
      <trkpt lat="42.94258" lon="0.30991">
        <ele>1361</ele>
        <time>2019-08-08T05:58:34.000Z</time>
      </trkpt>
      <trkpt lat="42.94258" lon="0.30995">
        <ele>1361</ele>
        <time>2019-08-08T05:58:35.000Z</time>
      </trkpt>
      <trkpt lat="42.94258" lon="0.30999">
        <ele>1361</ele>
        <time>2019-08-08T05:58:36.000Z</time>
      </trkpt>
      <trkpt lat="42.94258" lon="0.31002">
        <ele>1361</ele>
        <time>2019-08-08T05:58:37.000Z</time>
      </trkpt>
      <trkpt lat="42.94259" lon="0.31006">
        <ele>1362</ele>
        <time>2019-08-08T05:58:38.000Z</time>
      </trkpt>
      <trkpt lat="42.94258" lon="0.3101">
        <ele>1362</ele>
        <time>2019-08-08T05:58:39.000Z</time>
      </trkpt>
      <trkpt lat="42.94258" lon="0.31014">
        <ele>1363</ele>
        <time>2019-08-08T05:58:40.000Z</time>
      </trkpt>
      <trkpt lat="42.94257" lon="0.31018">
        <ele>1363</ele>
        <time>2019-08-08T05:58:41.000Z</time>
      </trkpt>
      <trkpt lat="42.94257" lon="0.31022">
        <ele>1363</ele>
        <time>2019-08-08T05:58:42.000Z</time>
      </trkpt>
      <trkpt lat="42.94256" lon="0.31026">
        <ele>1363</ele>
        <time>2019-08-08T05:58:43.000Z</time>
      </trkpt>
      <trkpt lat="42.94256" lon="0.3103">
        <ele>1364</ele>
        <time>2019-08-08T05:58:44.000Z</time>
      </trkpt>
      <trkpt lat="42.94255" lon="0.31034">
        <ele>1364</ele>
        <time>2019-08-08T05:58:45.000Z</time>
      </trkpt>
      <trkpt lat="42.94255" lon="0.31039">
        <ele>1364</ele>
        <time>2019-08-08T05:58:46.000Z</time>
      </trkpt>
      <trkpt lat="42.94256" lon="0.31043">
        <ele>1365</ele>
        <time>2019-08-08T05:58:47.000Z</time>
      </trkpt>
      <trkpt lat="42.94256" lon="0.31046">
        <ele>1365</ele>
        <time>2019-08-08T05:58:48.000Z</time>
      </trkpt>
      <trkpt lat="42.94256" lon="0.3105">
        <ele>1366</ele>
        <time>2019-08-08T05:58:49.000Z</time>
      </trkpt>
      <trkpt lat="42.94257" lon="0.31053">
        <ele>1366</ele>
        <time>2019-08-08T05:58:50.000Z</time>
      </trkpt>
      <trkpt lat="42.94256" lon="0.31057">
        <ele>1366</ele>
        <time>2019-08-08T05:58:51.000Z</time>
      </trkpt>
      <trkpt lat="42.94256" lon="0.31057">
        <ele>1366</ele>
        <time>2019-08-08T05:58:52.000Z</time>
      </trkpt>
      <trkpt lat="42.94257" lon="0.31067">
        <ele>1366</ele>
        <time>2019-08-08T05:58:53.000Z</time>
      </trkpt>
      <trkpt lat="42.94257" lon="0.31074">
        <ele>1366</ele>
        <time>2019-08-08T05:58:54.000Z</time>
      </trkpt>
      <trkpt lat="42.94257" lon="0.31077">
        <ele>1366</ele>
        <time>2019-08-08T05:58:55.000Z</time>
      </trkpt>
      <trkpt lat="42.94256" lon="0.31079">
        <ele>1366</ele>
        <time>2019-08-08T05:58:56.000Z</time>
      </trkpt>
      <trkpt lat="42.94256" lon="0.31087">
        <ele>1366</ele>
        <time>2019-08-08T05:58:57.000Z</time>
      </trkpt>
      <trkpt lat="42.94256" lon="0.31087">
        <ele>1367</ele>
        <time>2019-08-08T05:58:58.000Z</time>
      </trkpt>
      <trkpt lat="42.94256" lon="0.31097">
        <ele>1367</ele>
        <time>2019-08-08T05:58:59.000Z</time>
      </trkpt>
      <trkpt lat="42.94255" lon="0.31101">
        <ele>1367</ele>
        <time>2019-08-08T05:59:00.000Z</time>
      </trkpt>
      <trkpt lat="42.94255" lon="0.31106">
        <ele>1367</ele>
        <time>2019-08-08T05:59:01.000Z</time>
      </trkpt>
      <trkpt lat="42.94255" lon="0.3111">
        <ele>1367</ele>
        <time>2019-08-08T05:59:02.000Z</time>
      </trkpt>
      <trkpt lat="42.94255" lon="0.31114">
        <ele>1368</ele>
        <time>2019-08-08T05:59:03.000Z</time>
      </trkpt>
      <trkpt lat="42.94256" lon="0.31118">
        <ele>1368</ele>
        <time>2019-08-08T05:59:04.000Z</time>
      </trkpt>
      <trkpt lat="42.94257" lon="0.31122">
        <ele>1368</ele>
        <time>2019-08-08T05:59:05.000Z</time>
      </trkpt>
      <trkpt lat="42.94259" lon="0.31126">
        <ele>1368</ele>
        <time>2019-08-08T05:59:06.000Z</time>
      </trkpt>
      <trkpt lat="42.94261" lon="0.3113">
        <ele>1369</ele>
        <time>2019-08-08T05:59:07.000Z</time>
      </trkpt>
      <trkpt lat="42.94264" lon="0.31133">
        <ele>1369</ele>
        <time>2019-08-08T05:59:08.000Z</time>
      </trkpt>
      <trkpt lat="42.94266" lon="0.31136">
        <ele>1369</ele>
        <time>2019-08-08T05:59:09.000Z</time>
      </trkpt>
      <trkpt lat="42.94269" lon="0.31139">
        <ele>1369</ele>
        <time>2019-08-08T05:59:10.000Z</time>
      </trkpt>
      <trkpt lat="42.94272" lon="0.31141">
        <ele>1370</ele>
        <time>2019-08-08T05:59:11.000Z</time>
      </trkpt>
      <trkpt lat="42.94275" lon="0.31143">
        <ele>1370</ele>
        <time>2019-08-08T05:59:12.000Z</time>
      </trkpt>
      <trkpt lat="42.94278" lon="0.31144">
        <ele>1371</ele>
        <time>2019-08-08T05:59:13.000Z</time>
      </trkpt>
      <trkpt lat="42.94281" lon="0.31145">
        <ele>1371</ele>
        <time>2019-08-08T05:59:14.000Z</time>
      </trkpt>
      <trkpt lat="42.94285" lon="0.31145">
        <ele>1371</ele>
        <time>2019-08-08T05:59:15.000Z</time>
      </trkpt>
      <trkpt lat="42.94288" lon="0.31146">
        <ele>1371</ele>
        <time>2019-08-08T05:59:16.000Z</time>
      </trkpt>
      <trkpt lat="42.94291" lon="0.31148">
        <ele>1371</ele>
        <time>2019-08-08T05:59:17.000Z</time>
      </trkpt>
      <trkpt lat="42.94294" lon="0.3115">
        <ele>1372</ele>
        <time>2019-08-08T05:59:18.000Z</time>
      </trkpt>
      <trkpt lat="42.94297" lon="0.31153">
        <ele>1372</ele>
        <time>2019-08-08T05:59:19.000Z</time>
      </trkpt>
      <trkpt lat="42.94299" lon="0.31155">
        <ele>1373</ele>
        <time>2019-08-08T05:59:20.000Z</time>
      </trkpt>
      <trkpt lat="42.94302" lon="0.31157">
        <ele>1373</ele>
        <time>2019-08-08T05:59:21.000Z</time>
      </trkpt>
      <trkpt lat="42.94304" lon="0.3116">
        <ele>1374</ele>
        <time>2019-08-08T05:59:22.000Z</time>
      </trkpt>
      <trkpt lat="42.94307" lon="0.31162">
        <ele>1374</ele>
        <time>2019-08-08T05:59:23.000Z</time>
      </trkpt>
      <trkpt lat="42.94309" lon="0.31165">
        <ele>1374</ele>
        <time>2019-08-08T05:59:24.000Z</time>
      </trkpt>
      <trkpt lat="42.94311" lon="0.31167">
        <ele>1374</ele>
        <time>2019-08-08T05:59:25.000Z</time>
      </trkpt>
      <trkpt lat="42.94313" lon="0.31171">
        <ele>1374</ele>
        <time>2019-08-08T05:59:26.000Z</time>
      </trkpt>
      <trkpt lat="42.94316" lon="0.31173">
        <ele>1375</ele>
        <time>2019-08-08T05:59:27.000Z</time>
      </trkpt>
      <trkpt lat="42.94318" lon="0.31176">
        <ele>1375</ele>
        <time>2019-08-08T05:59:28.000Z</time>
      </trkpt>
      <trkpt lat="42.9432" lon="0.31179">
        <ele>1375</ele>
        <time>2019-08-08T05:59:29.000Z</time>
      </trkpt>
      <trkpt lat="42.94323" lon="0.31183">
        <ele>1375</ele>
        <time>2019-08-08T05:59:30.000Z</time>
      </trkpt>
      <trkpt lat="42.94326" lon="0.31186">
        <ele>1376</ele>
        <time>2019-08-08T05:59:31.000Z</time>
      </trkpt>
      <trkpt lat="42.94329" lon="0.31189">
        <ele>1376</ele>
        <time>2019-08-08T05:59:32.000Z</time>
      </trkpt>
      <trkpt lat="42.94333" lon="0.31192">
        <ele>1376</ele>
        <time>2019-08-08T05:59:33.000Z</time>
      </trkpt>
      <trkpt lat="42.94335" lon="0.31195">
        <ele>1377</ele>
        <time>2019-08-08T05:59:34.000Z</time>
      </trkpt>
      <trkpt lat="42.94338" lon="0.31199">
        <ele>1377</ele>
        <time>2019-08-08T05:59:35.000Z</time>
      </trkpt>
      <trkpt lat="42.9434" lon="0.31203">
        <ele>1377</ele>
        <time>2019-08-08T05:59:36.000Z</time>
      </trkpt>
      <trkpt lat="42.94343" lon="0.31206">
        <ele>1377</ele>
        <time>2019-08-08T05:59:37.000Z</time>
      </trkpt>
      <trkpt lat="42.94345" lon="0.3121">
        <ele>1378</ele>
        <time>2019-08-08T05:59:38.000Z</time>
      </trkpt>
      <trkpt lat="42.94348" lon="0.31213">
        <ele>1378</ele>
        <time>2019-08-08T05:59:39.000Z</time>
      </trkpt>
      <trkpt lat="42.9435" lon="0.31217">
        <ele>1378</ele>
        <time>2019-08-08T05:59:40.000Z</time>
      </trkpt>
      <trkpt lat="42.94352" lon="0.31221">
        <ele>1378</ele>
        <time>2019-08-08T05:59:41.000Z</time>
      </trkpt>
      <trkpt lat="42.94354" lon="0.31224">
        <ele>1379</ele>
        <time>2019-08-08T05:59:42.000Z</time>
      </trkpt>
      <trkpt lat="42.94356" lon="0.31227">
        <ele>1379</ele>
        <time>2019-08-08T05:59:43.000Z</time>
      </trkpt>
      <trkpt lat="42.94359" lon="0.3123">
        <ele>1380</ele>
        <time>2019-08-08T05:59:44.000Z</time>
      </trkpt>
      <trkpt lat="42.94362" lon="0.31232">
        <ele>1380</ele>
        <time>2019-08-08T05:59:45.000Z</time>
      </trkpt>
      <trkpt lat="42.94364" lon="0.31234">
        <ele>1380</ele>
        <time>2019-08-08T05:59:46.000Z</time>
      </trkpt>
      <trkpt lat="42.94367" lon="0.31236">
        <ele>1380</ele>
        <time>2019-08-08T05:59:47.000Z</time>
      </trkpt>
      <trkpt lat="42.94369" lon="0.31239">
        <ele>1380</ele>
        <time>2019-08-08T05:59:48.000Z</time>
      </trkpt>
      <trkpt lat="42.94371" lon="0.31242">
        <ele>1380</ele>
        <time>2019-08-08T05:59:49.000Z</time>
      </trkpt>
      <trkpt lat="42.94373" lon="0.31245">
        <ele>1380</ele>
        <time>2019-08-08T05:59:50.000Z</time>
      </trkpt>
      <trkpt lat="42.94376" lon="0.31247">
        <ele>1381</ele>
        <time>2019-08-08T05:59:51.000Z</time>
      </trkpt>
      <trkpt lat="42.94378" lon="0.31248">
        <ele>1381</ele>
        <time>2019-08-08T05:59:52.000Z</time>
      </trkpt>
      <trkpt lat="42.94381" lon="0.3125">
        <ele>1381</ele>
        <time>2019-08-08T05:59:53.000Z</time>
      </trkpt>
      <trkpt lat="42.94383" lon="0.31252">
        <ele>1382</ele>
        <time>2019-08-08T05:59:54.000Z</time>
      </trkpt>
      <trkpt lat="42.94386" lon="0.31255">
        <ele>1382</ele>
        <time>2019-08-08T05:59:55.000Z</time>
      </trkpt>
      <trkpt lat="42.94389" lon="0.31257">
        <ele>1382</ele>
        <time>2019-08-08T05:59:56.000Z</time>
      </trkpt>
      <trkpt lat="42.94392" lon="0.3126">
        <ele>1382</ele>
        <time>2019-08-08T05:59:57.000Z</time>
      </trkpt>
      <trkpt lat="42.94395" lon="0.31262">
        <ele>1383</ele>
        <time>2019-08-08T05:59:58.000Z</time>
      </trkpt>
      <trkpt lat="42.94397" lon="0.31265">
        <ele>1383</ele>
        <time>2019-08-08T05:59:59.000Z</time>
      </trkpt>
      <trkpt lat="42.944" lon="0.31267">
        <ele>1383</ele>
        <time>2019-08-08T06:00:00.000Z</time>
      </trkpt>
      <trkpt lat="42.94403" lon="0.3127">
        <ele>1383</ele>
        <time>2019-08-08T06:00:01.000Z</time>
      </trkpt>
      <trkpt lat="42.94405" lon="0.31272">
        <ele>1384</ele>
        <time>2019-08-08T06:00:02.000Z</time>
      </trkpt>
      <trkpt lat="42.94408" lon="0.31275">
        <ele>1384</ele>
        <time>2019-08-08T06:00:03.000Z</time>
      </trkpt>
      <trkpt lat="42.94411" lon="0.31279">
        <ele>1384</ele>
        <time>2019-08-08T06:00:04.000Z</time>
      </trkpt>
      <trkpt lat="42.94413" lon="0.31282">
        <ele>1384</ele>
        <time>2019-08-08T06:00:05.000Z</time>
      </trkpt>
      <trkpt lat="42.94415" lon="0.31286">
        <ele>1384</ele>
        <time>2019-08-08T06:00:06.000Z</time>
      </trkpt>
      <trkpt lat="42.94417" lon="0.31289">
        <ele>1384</ele>
        <time>2019-08-08T06:00:07.000Z</time>
      </trkpt>
      <trkpt lat="42.94419" lon="0.31293">
        <ele>1384</ele>
        <time>2019-08-08T06:00:08.000Z</time>
      </trkpt>
      <trkpt lat="42.94421" lon="0.31297">
        <ele>1384</ele>
        <time>2019-08-08T06:00:09.000Z</time>
      </trkpt>
      <trkpt lat="42.94424" lon="0.313">
        <ele>1385</ele>
        <time>2019-08-08T06:00:10.000Z</time>
      </trkpt>
      <trkpt lat="42.94426" lon="0.31304">
        <ele>1385</ele>
        <time>2019-08-08T06:00:11.000Z</time>
      </trkpt>
      <trkpt lat="42.94428" lon="0.31307">
        <ele>1385</ele>
        <time>2019-08-08T06:00:12.000Z</time>
      </trkpt>
      <trkpt lat="42.94429" lon="0.31311">
        <ele>1386</ele>
        <time>2019-08-08T06:00:13.000Z</time>
      </trkpt>
      <trkpt lat="42.94431" lon="0.31315">
        <ele>1386</ele>
        <time>2019-08-08T06:00:14.000Z</time>
      </trkpt>
      <trkpt lat="42.94433" lon="0.31319">
        <ele>1387</ele>
        <time>2019-08-08T06:00:15.000Z</time>
      </trkpt>
      <trkpt lat="42.94434" lon="0.31323">
        <ele>1387</ele>
        <time>2019-08-08T06:00:16.000Z</time>
      </trkpt>
      <trkpt lat="42.94435" lon="0.31327">
        <ele>1387</ele>
        <time>2019-08-08T06:00:17.000Z</time>
      </trkpt>
      <trkpt lat="42.94437" lon="0.31331">
        <ele>1387</ele>
        <time>2019-08-08T06:00:18.000Z</time>
      </trkpt>
      <trkpt lat="42.94439" lon="0.31335">
        <ele>1387</ele>
        <time>2019-08-08T06:00:19.000Z</time>
      </trkpt>
      <trkpt lat="42.94441" lon="0.31339">
        <ele>1388</ele>
        <time>2019-08-08T06:00:20.000Z</time>
      </trkpt>
      <trkpt lat="42.94443" lon="0.31343">
        <ele>1388</ele>
        <time>2019-08-08T06:00:21.000Z</time>
      </trkpt>
      <trkpt lat="42.94444" lon="0.31347">
        <ele>1388</ele>
        <time>2019-08-08T06:00:22.000Z</time>
      </trkpt>
      <trkpt lat="42.94446" lon="0.31351">
        <ele>1388</ele>
        <time>2019-08-08T06:00:23.000Z</time>
      </trkpt>
      <trkpt lat="42.94447" lon="0.31355">
        <ele>1388</ele>
        <time>2019-08-08T06:00:24.000Z</time>
      </trkpt>
      <trkpt lat="42.94448" lon="0.31359">
        <ele>1389</ele>
        <time>2019-08-08T06:00:25.000Z</time>
      </trkpt>
      <trkpt lat="42.94449" lon="0.31363">
        <ele>1389</ele>
        <time>2019-08-08T06:00:26.000Z</time>
      </trkpt>
      <trkpt lat="42.9445" lon="0.31367">
        <ele>1390</ele>
        <time>2019-08-08T06:00:27.000Z</time>
      </trkpt>
      <trkpt lat="42.94451" lon="0.31371">
        <ele>1390</ele>
        <time>2019-08-08T06:00:28.000Z</time>
      </trkpt>
      <trkpt lat="42.94452" lon="0.31375">
        <ele>1391</ele>
        <time>2019-08-08T06:00:29.000Z</time>
      </trkpt>
      <trkpt lat="42.94454" lon="0.31379">
        <ele>1391</ele>
        <time>2019-08-08T06:00:30.000Z</time>
      </trkpt>
      <trkpt lat="42.94456" lon="0.31383">
        <ele>1391</ele>
        <time>2019-08-08T06:00:31.000Z</time>
      </trkpt>
      <trkpt lat="42.94458" lon="0.31386">
        <ele>1391</ele>
        <time>2019-08-08T06:00:32.000Z</time>
      </trkpt>
      <trkpt lat="42.94459" lon="0.3139">
        <ele>1391</ele>
        <time>2019-08-08T06:00:33.000Z</time>
      </trkpt>
      <trkpt lat="42.94461" lon="0.31394">
        <ele>1391</ele>
        <time>2019-08-08T06:00:34.000Z</time>
      </trkpt>
      <trkpt lat="42.94462" lon="0.31398">
        <ele>1392</ele>
        <time>2019-08-08T06:00:35.000Z</time>
      </trkpt>
      <trkpt lat="42.94464" lon="0.31402">
        <ele>1392</ele>
        <time>2019-08-08T06:00:36.000Z</time>
      </trkpt>
      <trkpt lat="42.94465" lon="0.31406">
        <ele>1392</ele>
        <time>2019-08-08T06:00:37.000Z</time>
      </trkpt>
      <trkpt lat="42.94466" lon="0.3141">
        <ele>1392</ele>
        <time>2019-08-08T06:00:38.000Z</time>
      </trkpt>
      <trkpt lat="42.94468" lon="0.31414">
        <ele>1393</ele>
        <time>2019-08-08T06:00:39.000Z</time>
      </trkpt>
      <trkpt lat="42.94469" lon="0.31418">
        <ele>1393</ele>
        <time>2019-08-08T06:00:40.000Z</time>
      </trkpt>
      <trkpt lat="42.94471" lon="0.31422">
        <ele>1394</ele>
        <time>2019-08-08T06:00:41.000Z</time>
      </trkpt>
      <trkpt lat="42.94473" lon="0.31425">
        <ele>1394</ele>
        <time>2019-08-08T06:00:42.000Z</time>
      </trkpt>
      <trkpt lat="42.94475" lon="0.31429">
        <ele>1395</ele>
        <time>2019-08-08T06:00:43.000Z</time>
      </trkpt>
      <trkpt lat="42.94476" lon="0.31433">
        <ele>1395</ele>
        <time>2019-08-08T06:00:44.000Z</time>
      </trkpt>
      <trkpt lat="42.94478" lon="0.31438">
        <ele>1395</ele>
        <time>2019-08-08T06:00:45.000Z</time>
      </trkpt>
      <trkpt lat="42.94479" lon="0.31442">
        <ele>1395</ele>
        <time>2019-08-08T06:00:46.000Z</time>
      </trkpt>
      <trkpt lat="42.9448" lon="0.31446">
        <ele>1395</ele>
        <time>2019-08-08T06:00:47.000Z</time>
      </trkpt>
      <trkpt lat="42.94481" lon="0.3145">
        <ele>1395</ele>
        <time>2019-08-08T06:00:48.000Z</time>
      </trkpt>
      <trkpt lat="42.94482" lon="0.31454">
        <ele>1395</ele>
        <time>2019-08-08T06:00:49.000Z</time>
      </trkpt>
      <trkpt lat="42.94483" lon="0.31459">
        <ele>1395</ele>
        <time>2019-08-08T06:00:50.000Z</time>
      </trkpt>
      <trkpt lat="42.94484" lon="0.31463">
        <ele>1397</ele>
        <time>2019-08-08T06:00:51.000Z</time>
      </trkpt>
      <trkpt lat="42.94485" lon="0.31467">
        <ele>1397</ele>
        <time>2019-08-08T06:00:52.000Z</time>
      </trkpt>
      <trkpt lat="42.94486" lon="0.31472">
        <ele>1397</ele>
        <time>2019-08-08T06:00:53.000Z</time>
      </trkpt>
      <trkpt lat="42.94487" lon="0.31476">
        <ele>1397</ele>
        <time>2019-08-08T06:00:54.000Z</time>
      </trkpt>
      <trkpt lat="42.94489" lon="0.3148">
        <ele>1398</ele>
        <time>2019-08-08T06:00:55.000Z</time>
      </trkpt>
      <trkpt lat="42.9449" lon="0.31484">
        <ele>1398</ele>
        <time>2019-08-08T06:00:56.000Z</time>
      </trkpt>
      <trkpt lat="42.94491" lon="0.31488">
        <ele>1398</ele>
        <time>2019-08-08T06:00:57.000Z</time>
      </trkpt>
      <trkpt lat="42.94493" lon="0.31492">
        <ele>1398</ele>
        <time>2019-08-08T06:00:58.000Z</time>
      </trkpt>
      <trkpt lat="42.94495" lon="0.31496">
        <ele>1399</ele>
        <time>2019-08-08T06:00:59.000Z</time>
      </trkpt>
      <trkpt lat="42.94497" lon="0.31499">
        <ele>1399</ele>
        <time>2019-08-08T06:01:00.000Z</time>
      </trkpt>
      <trkpt lat="42.94499" lon="0.31503">
        <ele>1399</ele>
        <time>2019-08-08T06:01:01.000Z</time>
      </trkpt>
      <trkpt lat="42.94501" lon="0.31506">
        <ele>1399</ele>
        <time>2019-08-08T06:01:02.000Z</time>
      </trkpt>
      <trkpt lat="42.94503" lon="0.31509">
        <ele>1399</ele>
        <time>2019-08-08T06:01:03.000Z</time>
      </trkpt>
      <trkpt lat="42.94506" lon="0.31513">
        <ele>1399</ele>
        <time>2019-08-08T06:01:04.000Z</time>
      </trkpt>
      <trkpt lat="42.94508" lon="0.31516">
        <ele>1400</ele>
        <time>2019-08-08T06:01:05.000Z</time>
      </trkpt>
      <trkpt lat="42.9451" lon="0.31519">
        <ele>1400</ele>
        <time>2019-08-08T06:01:06.000Z</time>
      </trkpt>
      <trkpt lat="42.94512" lon="0.31522">
        <ele>1401</ele>
        <time>2019-08-08T06:01:07.000Z</time>
      </trkpt>
      <trkpt lat="42.94515" lon="0.31526">
        <ele>1401</ele>
        <time>2019-08-08T06:01:08.000Z</time>
      </trkpt>
      <trkpt lat="42.94517" lon="0.31529">
        <ele>1401</ele>
        <time>2019-08-08T06:01:09.000Z</time>
      </trkpt>
      <trkpt lat="42.94519" lon="0.31532">
        <ele>1401</ele>
        <time>2019-08-08T06:01:10.000Z</time>
      </trkpt>
      <trkpt lat="42.94521" lon="0.31535">
        <ele>1401</ele>
        <time>2019-08-08T06:01:11.000Z</time>
      </trkpt>
      <trkpt lat="42.94524" lon="0.31539">
        <ele>1401</ele>
        <time>2019-08-08T06:01:12.000Z</time>
      </trkpt>
      <trkpt lat="42.94526" lon="0.31542">
        <ele>1403</ele>
        <time>2019-08-08T06:01:13.000Z</time>
      </trkpt>
      <trkpt lat="42.94529" lon="0.31545">
        <ele>1403</ele>
        <time>2019-08-08T06:01:14.000Z</time>
      </trkpt>
      <trkpt lat="42.94531" lon="0.31548">
        <ele>1403</ele>
        <time>2019-08-08T06:01:15.000Z</time>
      </trkpt>
      <trkpt lat="42.94533" lon="0.31551">
        <ele>1403</ele>
        <time>2019-08-08T06:01:16.000Z</time>
      </trkpt>
      <trkpt lat="42.94535" lon="0.31554">
        <ele>1404</ele>
        <time>2019-08-08T06:01:17.000Z</time>
      </trkpt>
      <trkpt lat="42.94537" lon="0.31557">
        <ele>1404</ele>
        <time>2019-08-08T06:01:18.000Z</time>
      </trkpt>
      <trkpt lat="42.94539" lon="0.31561">
        <ele>1405</ele>
        <time>2019-08-08T06:01:19.000Z</time>
      </trkpt>
      <trkpt lat="42.94541" lon="0.31564">
        <ele>1405</ele>
        <time>2019-08-08T06:01:20.000Z</time>
      </trkpt>
      <trkpt lat="42.94544" lon="0.31567">
        <ele>1405</ele>
        <time>2019-08-08T06:01:21.000Z</time>
      </trkpt>
      <trkpt lat="42.94546" lon="0.31571">
        <ele>1405</ele>
        <time>2019-08-08T06:01:22.000Z</time>
      </trkpt>
      <trkpt lat="42.94548" lon="0.31574">
        <ele>1405</ele>
        <time>2019-08-08T06:01:23.000Z</time>
      </trkpt>
      <trkpt lat="42.9455" lon="0.31577">
        <ele>1405</ele>
        <time>2019-08-08T06:01:24.000Z</time>
      </trkpt>
      <trkpt lat="42.94552" lon="0.3158">
        <ele>1405</ele>
        <time>2019-08-08T06:01:25.000Z</time>
      </trkpt>
      <trkpt lat="42.94555" lon="0.31583">
        <ele>1406</ele>
        <time>2019-08-08T06:01:26.000Z</time>
      </trkpt>
      <trkpt lat="42.94557" lon="0.31586">
        <ele>1406</ele>
        <time>2019-08-08T06:01:27.000Z</time>
      </trkpt>
      <trkpt lat="42.94559" lon="0.31589">
        <ele>1407</ele>
        <time>2019-08-08T06:01:28.000Z</time>
      </trkpt>
      <trkpt lat="42.94562" lon="0.31592">
        <ele>1407</ele>
        <time>2019-08-08T06:01:29.000Z</time>
      </trkpt>
      <trkpt lat="42.94564" lon="0.31595">
        <ele>1407</ele>
        <time>2019-08-08T06:01:30.000Z</time>
      </trkpt>
      <trkpt lat="42.94566" lon="0.31598">
        <ele>1407</ele>
        <time>2019-08-08T06:01:31.000Z</time>
      </trkpt>
      <trkpt lat="42.94569" lon="0.31601">
        <ele>1408</ele>
        <time>2019-08-08T06:01:32.000Z</time>
      </trkpt>
      <trkpt lat="42.94571" lon="0.31603">
        <ele>1408</ele>
        <time>2019-08-08T06:01:33.000Z</time>
      </trkpt>
      <trkpt lat="42.94574" lon="0.31606">
        <ele>1408</ele>
        <time>2019-08-08T06:01:34.000Z</time>
      </trkpt>
      <trkpt lat="42.94576" lon="0.31609">
        <ele>1408</ele>
        <time>2019-08-08T06:01:35.000Z</time>
      </trkpt>
      <trkpt lat="42.94579" lon="0.31611">
        <ele>1408</ele>
        <time>2019-08-08T06:01:36.000Z</time>
      </trkpt>
      <trkpt lat="42.94582" lon="0.31613">
        <ele>1408</ele>
        <time>2019-08-08T06:01:37.000Z</time>
      </trkpt>
      <trkpt lat="42.94585" lon="0.31616">
        <ele>1408</ele>
        <time>2019-08-08T06:01:38.000Z</time>
      </trkpt>
      <trkpt lat="42.94588" lon="0.31618">
        <ele>1409</ele>
        <time>2019-08-08T06:01:39.000Z</time>
      </trkpt>
      <trkpt lat="42.94591" lon="0.3162">
        <ele>1409</ele>
        <time>2019-08-08T06:01:40.000Z</time>
      </trkpt>
      <trkpt lat="42.94594" lon="0.31621">
        <ele>1410</ele>
        <time>2019-08-08T06:01:41.000Z</time>
      </trkpt>
      <trkpt lat="42.94597" lon="0.31623">
        <ele>1410</ele>
        <time>2019-08-08T06:01:42.000Z</time>
      </trkpt>
      <trkpt lat="42.946" lon="0.31625">
        <ele>1411</ele>
        <time>2019-08-08T06:01:43.000Z</time>
      </trkpt>
      <trkpt lat="42.94603" lon="0.31627">
        <ele>1411</ele>
        <time>2019-08-08T06:01:44.000Z</time>
      </trkpt>
      <trkpt lat="42.94606" lon="0.31628">
        <ele>1411</ele>
        <time>2019-08-08T06:01:45.000Z</time>
      </trkpt>
      <trkpt lat="42.94608" lon="0.3163">
        <ele>1411</ele>
        <time>2019-08-08T06:01:46.000Z</time>
      </trkpt>
      <trkpt lat="42.94611" lon="0.31632">
        <ele>1411</ele>
        <time>2019-08-08T06:01:47.000Z</time>
      </trkpt>
      <trkpt lat="42.94614" lon="0.31634">
        <ele>1412</ele>
        <time>2019-08-08T06:01:48.000Z</time>
      </trkpt>
      <trkpt lat="42.94616" lon="0.31636">
        <ele>1412</ele>
        <time>2019-08-08T06:01:49.000Z</time>
      </trkpt>
      <trkpt lat="42.94619" lon="0.31638">
        <ele>1413</ele>
        <time>2019-08-08T06:01:50.000Z</time>
      </trkpt>
      <trkpt lat="42.94621" lon="0.31641">
        <ele>1413</ele>
        <time>2019-08-08T06:01:51.000Z</time>
      </trkpt>
      <trkpt lat="42.94623" lon="0.31644">
        <ele>1413</ele>
        <time>2019-08-08T06:01:52.000Z</time>
      </trkpt>
      <trkpt lat="42.94625" lon="0.31648">
        <ele>1413</ele>
        <time>2019-08-08T06:01:53.000Z</time>
      </trkpt>
      <trkpt lat="42.94628" lon="0.31651">
        <ele>1414</ele>
        <time>2019-08-08T06:01:54.000Z</time>
      </trkpt>
      <trkpt lat="42.9463" lon="0.31655">
        <ele>1414</ele>
        <time>2019-08-08T06:01:55.000Z</time>
      </trkpt>
      <trkpt lat="42.94633" lon="0.31658">
        <ele>1414</ele>
        <time>2019-08-08T06:01:56.000Z</time>
      </trkpt>
      <trkpt lat="42.94635" lon="0.31662">
        <ele>1414</ele>
        <time>2019-08-08T06:01:57.000Z</time>
      </trkpt>
      <trkpt lat="42.94637" lon="0.31666">
        <ele>1414</ele>
        <time>2019-08-08T06:01:58.000Z</time>
      </trkpt>
      <trkpt lat="42.9464" lon="0.31669">
        <ele>1415</ele>
        <time>2019-08-08T06:01:59.000Z</time>
      </trkpt>
      <trkpt lat="42.94642" lon="0.31672">
        <ele>1415</ele>
        <time>2019-08-08T06:02:00.000Z</time>
      </trkpt>
      <trkpt lat="42.94644" lon="0.31676">
        <ele>1415</ele>
        <time>2019-08-08T06:02:01.000Z</time>
      </trkpt>
      <trkpt lat="42.94646" lon="0.31679">
        <ele>1415</ele>
        <time>2019-08-08T06:02:02.000Z</time>
      </trkpt>
      <trkpt lat="42.94648" lon="0.31682">
        <ele>1415</ele>
        <time>2019-08-08T06:02:03.000Z</time>
      </trkpt>
      <trkpt lat="42.94648" lon="0.31682">
        <ele>1415</ele>
        <time>2019-08-08T06:02:04.000Z</time>
      </trkpt>
      <trkpt lat="42.94648" lon="0.31682">
        <ele>1415</ele>
        <time>2019-08-08T06:02:05.000Z</time>
      </trkpt>
      <trkpt lat="42.94654" lon="0.31695">
        <ele>1416</ele>
        <time>2019-08-08T06:02:06.000Z</time>
      </trkpt>
      <trkpt lat="42.94654" lon="0.31698">
        <ele>1416</ele>
        <time>2019-08-08T06:02:07.000Z</time>
      </trkpt>
      <trkpt lat="42.94655" lon="0.317">
        <ele>1416</ele>
        <time>2019-08-08T06:02:08.000Z</time>
      </trkpt>
      <trkpt lat="42.94656" lon="0.31707">
        <ele>1416</ele>
        <time>2019-08-08T06:02:09.000Z</time>
      </trkpt>
      <trkpt lat="42.94656" lon="0.31712">
        <ele>1416</ele>
        <time>2019-08-08T06:02:10.000Z</time>
      </trkpt>
      <trkpt lat="42.94656" lon="0.31716">
        <ele>1416</ele>
        <time>2019-08-08T06:02:11.000Z</time>
      </trkpt>
      <trkpt lat="42.94655" lon="0.3172">
        <ele>1416</ele>
        <time>2019-08-08T06:02:12.000Z</time>
      </trkpt>
      <trkpt lat="42.94653" lon="0.31724">
        <ele>1416</ele>
        <time>2019-08-08T06:02:13.000Z</time>
      </trkpt>
      <trkpt lat="42.94651" lon="0.31728">
        <ele>1417</ele>
        <time>2019-08-08T06:02:14.000Z</time>
      </trkpt>
      <trkpt lat="42.94651" lon="0.31728">
        <ele>1417</ele>
        <time>2019-08-08T06:02:15.000Z</time>
      </trkpt>
      <trkpt lat="42.94645" lon="0.31734">
        <ele>1417</ele>
        <time>2019-08-08T06:02:16.000Z</time>
      </trkpt>
      <trkpt lat="42.94641" lon="0.31736">
        <ele>1417</ele>
        <time>2019-08-08T06:02:17.000Z</time>
      </trkpt>
      <trkpt lat="42.94638" lon="0.31737">
        <ele>1417</ele>
        <time>2019-08-08T06:02:18.000Z</time>
      </trkpt>
      <trkpt lat="42.94635" lon="0.31739">
        <ele>1417</ele>
        <time>2019-08-08T06:02:19.000Z</time>
      </trkpt>
      <trkpt lat="42.94632" lon="0.31741">
        <ele>1418</ele>
        <time>2019-08-08T06:02:20.000Z</time>
      </trkpt>
      <trkpt lat="42.94629" lon="0.31743">
        <ele>1418</ele>
        <time>2019-08-08T06:02:21.000Z</time>
      </trkpt>
      <trkpt lat="42.94626" lon="0.31745">
        <ele>1419</ele>
        <time>2019-08-08T06:02:22.000Z</time>
      </trkpt>
      <trkpt lat="42.94623" lon="0.31748">
        <ele>1419</ele>
        <time>2019-08-08T06:02:23.000Z</time>
      </trkpt>
      <trkpt lat="42.94621" lon="0.31751">
        <ele>1419</ele>
        <time>2019-08-08T06:02:24.000Z</time>
      </trkpt>
      <trkpt lat="42.94619" lon="0.31754">
        <ele>1418</ele>
        <time>2019-08-08T06:02:25.000Z</time>
      </trkpt>
      <trkpt lat="42.94617" lon="0.31758">
        <ele>1418</ele>
        <time>2019-08-08T06:02:26.000Z</time>
      </trkpt>
      <trkpt lat="42.94614" lon="0.31761">
        <ele>1419</ele>
        <time>2019-08-08T06:02:27.000Z</time>
      </trkpt>
      <trkpt lat="42.94612" lon="0.31764">
        <ele>1419</ele>
        <time>2019-08-08T06:02:28.000Z</time>
      </trkpt>
      <trkpt lat="42.9461" lon="0.31768">
        <ele>1419</ele>
        <time>2019-08-08T06:02:29.000Z</time>
      </trkpt>
      <trkpt lat="42.94609" lon="0.31772">
        <ele>1419</ele>
        <time>2019-08-08T06:02:30.000Z</time>
      </trkpt>
      <trkpt lat="42.94607" lon="0.31776">
        <ele>1420</ele>
        <time>2019-08-08T06:02:31.000Z</time>
      </trkpt>
      <trkpt lat="42.94605" lon="0.3178">
        <ele>1420</ele>
        <time>2019-08-08T06:02:32.000Z</time>
      </trkpt>
      <trkpt lat="42.94603" lon="0.31784">
        <ele>1420</ele>
        <time>2019-08-08T06:02:33.000Z</time>
      </trkpt>
      <trkpt lat="42.946" lon="0.31787">
        <ele>1420</ele>
        <time>2019-08-08T06:02:34.000Z</time>
      </trkpt>
      <trkpt lat="42.94599" lon="0.31791">
        <ele>1421</ele>
        <time>2019-08-08T06:02:35.000Z</time>
      </trkpt>
      <trkpt lat="42.94598" lon="0.31796">
        <ele>1421</ele>
        <time>2019-08-08T06:02:36.000Z</time>
      </trkpt>
      <trkpt lat="42.94597" lon="0.318">
        <ele>1421</ele>
        <time>2019-08-08T06:02:37.000Z</time>
      </trkpt>
      <trkpt lat="42.94595" lon="0.31804">
        <ele>1421</ele>
        <time>2019-08-08T06:02:38.000Z</time>
      </trkpt>
      <trkpt lat="42.94594" lon="0.31808">
        <ele>1422</ele>
        <time>2019-08-08T06:02:39.000Z</time>
      </trkpt>
      <trkpt lat="42.94593" lon="0.31812">
        <ele>1422</ele>
        <time>2019-08-08T06:02:40.000Z</time>
      </trkpt>
      <trkpt lat="42.94591" lon="0.31816">
        <ele>1422</ele>
        <time>2019-08-08T06:02:41.000Z</time>
      </trkpt>
      <trkpt lat="42.94589" lon="0.3182">
        <ele>1422</ele>
        <time>2019-08-08T06:02:42.000Z</time>
      </trkpt>
      <trkpt lat="42.94588" lon="0.31823">
        <ele>1422</ele>
        <time>2019-08-08T06:02:43.000Z</time>
      </trkpt>
      <trkpt lat="42.94587" lon="0.31827">
        <ele>1424</ele>
        <time>2019-08-08T06:02:44.000Z</time>
      </trkpt>
      <trkpt lat="42.94586" lon="0.31831">
        <ele>1424</ele>
        <time>2019-08-08T06:02:45.000Z</time>
      </trkpt>
      <trkpt lat="42.94585" lon="0.31835">
        <ele>1424</ele>
        <time>2019-08-08T06:02:46.000Z</time>
      </trkpt>
      <trkpt lat="42.94584" lon="0.31838">
        <ele>1424</ele>
        <time>2019-08-08T06:02:47.000Z</time>
      </trkpt>
      <trkpt lat="42.94582" lon="0.31841">
        <ele>1425</ele>
        <time>2019-08-08T06:02:48.000Z</time>
      </trkpt>
      <trkpt lat="42.9458" lon="0.31845">
        <ele>1425</ele>
        <time>2019-08-08T06:02:49.000Z</time>
      </trkpt>
      <trkpt lat="42.94579" lon="0.31848">
        <ele>1425</ele>
        <time>2019-08-08T06:02:50.000Z</time>
      </trkpt>
      <trkpt lat="42.94578" lon="0.31852">
        <ele>1425</ele>
        <time>2019-08-08T06:02:51.000Z</time>
      </trkpt>
      <trkpt lat="42.94576" lon="0.31855">
        <ele>1425</ele>
        <time>2019-08-08T06:02:52.000Z</time>
      </trkpt>
      <trkpt lat="42.94575" lon="0.31857">
        <ele>1426</ele>
        <time>2019-08-08T06:02:53.000Z</time>
      </trkpt>
      <trkpt lat="42.94575" lon="0.31857">
        <ele>1426</ele>
        <time>2019-08-08T06:02:54.000Z</time>
      </trkpt>
      <trkpt lat="42.94574" lon="0.31859">
        <ele>1426</ele>
        <time>2019-08-08T06:02:55.000Z</time>
      </trkpt>
      <trkpt lat="42.94574" lon="0.31859">
        <ele>1426</ele>
        <time>2019-08-08T06:02:56.000Z</time>
      </trkpt>
      <trkpt lat="42.94574" lon="0.31859">
        <ele>1426</ele>
        <time>2019-08-08T06:02:57.000Z</time>
      </trkpt>
      <trkpt lat="42.94574" lon="0.31859">
        <ele>1426</ele>
        <time>2019-08-08T06:02:58.000Z</time>
      </trkpt>
      <trkpt lat="42.94574" lon="0.31859">
        <ele>1426</ele>
        <time>2019-08-08T06:02:59.000Z</time>
      </trkpt>
      <trkpt lat="42.94574" lon="0.31859">
        <ele>1426</ele>
        <time>2019-08-08T06:03:00.000Z</time>
      </trkpt>
      <trkpt lat="42.94574" lon="0.31859">
        <ele>1426</ele>
        <time>2019-08-08T06:03:01.000Z</time>
      </trkpt>
      <trkpt lat="42.94574" lon="0.31859">
        <ele>1426</ele>
        <time>2019-08-08T06:03:02.000Z</time>
      </trkpt>
      <trkpt lat="42.94574" lon="0.31859">
        <ele>1426</ele>
        <time>2019-08-08T06:03:03.000Z</time>
      </trkpt>
      <trkpt lat="42.94574" lon="0.31859">
        <ele>1426</ele>
        <time>2019-08-08T06:03:04.000Z</time>
      </trkpt>
      <trkpt lat="42.94574" lon="0.31859">
        <ele>1426</ele>
        <time>2019-08-08T06:03:05.000Z</time>
      </trkpt>
      <trkpt lat="42.94574" lon="0.31859">
        <ele>1426</ele>
        <time>2019-08-08T06:03:06.000Z</time>
      </trkpt>
      <trkpt lat="42.94574" lon="0.31859">
        <ele>1426</ele>
        <time>2019-08-08T06:03:07.000Z</time>
      </trkpt>
      <trkpt lat="42.94574" lon="0.31859">
        <ele>1426</ele>
        <time>2019-08-08T06:03:08.000Z</time>
      </trkpt>
      <trkpt lat="42.94574" lon="0.31859">
        <ele>1426</ele>
        <time>2019-08-08T06:03:09.000Z</time>
      </trkpt>
      <trkpt lat="42.94574" lon="0.31859">
        <ele>1426</ele>
        <time>2019-08-08T06:03:10.000Z</time>
      </trkpt>
      <trkpt lat="42.94574" lon="0.31859">
        <ele>1426</ele>
        <time>2019-08-08T06:03:11.000Z</time>
      </trkpt>
      <trkpt lat="42.94574" lon="0.31859">
        <ele>1426</ele>
        <time>2019-08-08T06:03:12.000Z</time>
      </trkpt>
      <trkpt lat="42.94574" lon="0.31859">
        <ele>1426</ele>
        <time>2019-08-08T06:03:13.000Z</time>
      </trkpt>
      <trkpt lat="42.94574" lon="0.31859">
        <ele>1426</ele>
        <time>2019-08-08T06:03:14.000Z</time>
      </trkpt>
      <trkpt lat="42.94574" lon="0.31859">
        <ele>1426</ele>
        <time>2019-08-08T06:03:15.000Z</time>
      </trkpt>
      <trkpt lat="42.94574" lon="0.31859">
        <ele>1426</ele>
        <time>2019-08-08T06:03:16.000Z</time>
      </trkpt>
      <trkpt lat="42.94574" lon="0.31859">
        <ele>1426</ele>
        <time>2019-08-08T06:03:17.000Z</time>
      </trkpt>
      <trkpt lat="42.94574" lon="0.31859">
        <ele>1426</ele>
        <time>2019-08-08T06:03:18.000Z</time>
      </trkpt>
      <trkpt lat="42.94574" lon="0.31859">
        <ele>1427</ele>
        <time>2019-08-08T06:03:19.000Z</time>
      </trkpt>
      <trkpt lat="42.94574" lon="0.31859">
        <ele>1427</ele>
        <time>2019-08-08T06:03:20.000Z</time>
      </trkpt>
      <trkpt lat="42.94574" lon="0.31859">
        <ele>1427</ele>
        <time>2019-08-08T06:03:21.000Z</time>
      </trkpt>
      <trkpt lat="42.94574" lon="0.31859">
        <ele>1427</ele>
        <time>2019-08-08T06:03:22.000Z</time>
      </trkpt>
      <trkpt lat="42.94574" lon="0.31859">
        <ele>1427</ele>
        <time>2019-08-08T06:03:23.000Z</time>
      </trkpt>
      <trkpt lat="42.94574" lon="0.31859">
        <ele>1426</ele>
        <time>2019-08-08T06:03:24.000Z</time>
      </trkpt>
      <trkpt lat="42.94574" lon="0.31859">
        <ele>1426</ele>
        <time>2019-08-08T06:03:25.000Z</time>
      </trkpt>
      <trkpt lat="42.94574" lon="0.31859">
        <ele>1426</ele>
        <time>2019-08-08T06:03:26.000Z</time>
      </trkpt>
      <trkpt lat="42.94574" lon="0.31859">
        <ele>1426</ele>
        <time>2019-08-08T06:03:27.000Z</time>
      </trkpt>
      <trkpt lat="42.94574" lon="0.31859">
        <ele>1426</ele>
        <time>2019-08-08T06:03:28.000Z</time>
      </trkpt>
      <trkpt lat="42.94574" lon="0.31859">
        <ele>1426</ele>
        <time>2019-08-08T06:03:29.000Z</time>
      </trkpt>
      <trkpt lat="42.94574" lon="0.31859">
        <ele>1426</ele>
        <time>2019-08-08T06:03:30.000Z</time>
      </trkpt>
      <trkpt lat="42.94574" lon="0.31859">
        <ele>1426</ele>
        <time>2019-08-08T06:03:31.000Z</time>
      </trkpt>
      <trkpt lat="42.94574" lon="0.31859">
        <ele>1426</ele>
        <time>2019-08-08T06:03:32.000Z</time>
      </trkpt>
      <trkpt lat="42.94574" lon="0.31859">
        <ele>1426</ele>
        <time>2019-08-08T06:03:33.000Z</time>
      </trkpt>
      <trkpt lat="42.94574" lon="0.31859">
        <ele>1426</ele>
        <time>2019-08-08T06:03:34.000Z</time>
      </trkpt>
      <trkpt lat="42.94574" lon="0.31859">
        <ele>1426</ele>
        <time>2019-08-08T06:03:35.000Z</time>
      </trkpt>
      <trkpt lat="42.94574" lon="0.31859">
        <ele>1426</ele>
        <time>2019-08-08T06:03:36.000Z</time>
      </trkpt>
      <trkpt lat="42.94574" lon="0.31859">
        <ele>1426</ele>
        <time>2019-08-08T06:03:37.000Z</time>
      </trkpt>
      <trkpt lat="42.94574" lon="0.31859">
        <ele>1426</ele>
        <time>2019-08-08T06:03:38.000Z</time>
      </trkpt>
      <trkpt lat="42.94574" lon="0.31859">
        <ele>1426</ele>
        <time>2019-08-08T06:03:39.000Z</time>
      </trkpt>
      <trkpt lat="42.94574" lon="0.31859">
        <ele>1426</ele>
        <time>2019-08-08T06:03:40.000Z</time>
      </trkpt>
      <trkpt lat="42.94574" lon="0.31859">
        <ele>1426</ele>
        <time>2019-08-08T06:03:41.000Z</time>
      </trkpt>
      <trkpt lat="42.94574" lon="0.31859">
        <ele>1426</ele>
        <time>2019-08-08T06:03:42.000Z</time>
      </trkpt>
      <trkpt lat="42.94574" lon="0.31859">
        <ele>1426</ele>
        <time>2019-08-08T06:03:43.000Z</time>
      </trkpt>
      <trkpt lat="42.94574" lon="0.31859">
        <ele>1426</ele>
        <time>2019-08-08T06:03:44.000Z</time>
      </trkpt>
      <trkpt lat="42.94574" lon="0.31859">
        <ele>1426</ele>
        <time>2019-08-08T06:03:45.000Z</time>
      </trkpt>
      <trkpt lat="42.94574" lon="0.31859">
        <ele>1426</ele>
        <time>2019-08-08T06:03:46.000Z</time>
      </trkpt>
      <trkpt lat="42.94574" lon="0.31859">
        <ele>1426</ele>
        <time>2019-08-08T06:03:47.000Z</time>
      </trkpt>
      <trkpt lat="42.94574" lon="0.31859">
        <ele>1426</ele>
        <time>2019-08-08T06:03:48.000Z</time>
      </trkpt>
      <trkpt lat="42.94574" lon="0.31859">
        <ele>1426</ele>
        <time>2019-08-08T06:03:49.000Z</time>
      </trkpt>
      <trkpt lat="42.94574" lon="0.31859">
        <ele>1426</ele>
        <time>2019-08-08T06:03:50.000Z</time>
      </trkpt>
      <trkpt lat="42.94574" lon="0.31859">
        <ele>1426</ele>
        <time>2019-08-08T06:03:51.000Z</time>
      </trkpt>
      <trkpt lat="42.94574" lon="0.31859">
        <ele>1426</ele>
        <time>2019-08-08T06:03:52.000Z</time>
      </trkpt>
      <trkpt lat="42.94574" lon="0.31859">
        <ele>1426</ele>
        <time>2019-08-08T06:03:53.000Z</time>
      </trkpt>
      <trkpt lat="42.94574" lon="0.31859">
        <ele>1426</ele>
        <time>2019-08-08T06:03:54.000Z</time>
      </trkpt>
      <trkpt lat="42.94574" lon="0.31859">
        <ele>1426</ele>
        <time>2019-08-08T06:03:55.000Z</time>
      </trkpt>
      <trkpt lat="42.94574" lon="0.31859">
        <ele>1426</ele>
        <time>2019-08-08T06:03:56.000Z</time>
      </trkpt>
      <trkpt lat="42.94574" lon="0.31859">
        <ele>1427</ele>
        <time>2019-08-08T06:03:57.000Z</time>
      </trkpt>
      <trkpt lat="42.94574" lon="0.31859">
        <ele>1427</ele>
        <time>2019-08-08T06:03:58.000Z</time>
      </trkpt>
      <trkpt lat="42.94574" lon="0.31859">
        <ele>1427</ele>
        <time>2019-08-08T06:03:59.000Z</time>
      </trkpt>
      <trkpt lat="42.94574" lon="0.31859">
        <ele>1427</ele>
        <time>2019-08-08T06:04:00.000Z</time>
      </trkpt>
      <trkpt lat="42.94574" lon="0.31859">
        <ele>1427</ele>
        <time>2019-08-08T06:04:01.000Z</time>
      </trkpt>
      <trkpt lat="42.94574" lon="0.31859">
        <ele>1427</ele>
        <time>2019-08-08T06:04:02.000Z</time>
      </trkpt>
      <trkpt lat="42.94574" lon="0.31859">
        <ele>1427</ele>
        <time>2019-08-08T06:04:03.000Z</time>
      </trkpt>
      <trkpt lat="42.94574" lon="0.31859">
        <ele>1427</ele>
        <time>2019-08-08T06:04:04.000Z</time>
      </trkpt>
      <trkpt lat="42.94574" lon="0.31859">
        <ele>1427</ele>
        <time>2019-08-08T06:04:05.000Z</time>
      </trkpt>
      <trkpt lat="42.94574" lon="0.31859">
        <ele>1427</ele>
        <time>2019-08-08T06:04:06.000Z</time>
      </trkpt>
      <trkpt lat="42.94574" lon="0.31859">
        <ele>1427</ele>
        <time>2019-08-08T06:04:07.000Z</time>
      </trkpt>
      <trkpt lat="42.94574" lon="0.31859">
        <ele>1427</ele>
        <time>2019-08-08T06:04:08.000Z</time>
      </trkpt>
      <trkpt lat="42.94574" lon="0.31859">
        <ele>1427</ele>
        <time>2019-08-08T06:04:09.000Z</time>
      </trkpt>
      <trkpt lat="42.94574" lon="0.31859">
        <ele>1427</ele>
        <time>2019-08-08T06:04:10.000Z</time>
      </trkpt>
      <trkpt lat="42.94574" lon="0.31859">
        <ele>1427</ele>
        <time>2019-08-08T06:04:11.000Z</time>
      </trkpt>
      <trkpt lat="42.94574" lon="0.31859">
        <ele>1427</ele>
        <time>2019-08-08T06:04:12.000Z</time>
      </trkpt>
      <trkpt lat="42.94574" lon="0.31859">
        <ele>1427</ele>
        <time>2019-08-08T06:04:13.000Z</time>
      </trkpt>
      <trkpt lat="42.94574" lon="0.31859">
        <ele>1427</ele>
        <time>2019-08-08T06:04:14.000Z</time>
      </trkpt>
      <trkpt lat="42.94574" lon="0.31859">
        <ele>1427</ele>
        <time>2019-08-08T06:04:15.000Z</time>
      </trkpt>
      <trkpt lat="42.94574" lon="0.31859">
        <ele>1427</ele>
        <time>2019-08-08T06:04:16.000Z</time>
      </trkpt>
      <trkpt lat="42.94574" lon="0.31859">
        <ele>1427</ele>
        <time>2019-08-08T06:04:17.000Z</time>
      </trkpt>
      <trkpt lat="42.94573" lon="0.31862">
        <ele>1427</ele>
        <time>2019-08-08T06:04:18.000Z</time>
      </trkpt>
      <trkpt lat="42.94573" lon="0.31862">
        <ele>1427</ele>
        <time>2019-08-08T06:04:19.000Z</time>
      </trkpt>
      <trkpt lat="42.94574" lon="0.31866">
        <ele>1427</ele>
        <time>2019-08-08T06:04:20.000Z</time>
      </trkpt>
      <trkpt lat="42.94574" lon="0.3187">
        <ele>1427</ele>
        <time>2019-08-08T06:04:21.000Z</time>
      </trkpt>
      <trkpt lat="42.94573" lon="0.31873">
        <ele>1427</ele>
        <time>2019-08-08T06:04:22.000Z</time>
      </trkpt>
      <trkpt lat="42.94572" lon="0.31877">
        <ele>1428</ele>
        <time>2019-08-08T06:04:23.000Z</time>
      </trkpt>
      <trkpt lat="42.94572" lon="0.31881">
        <ele>1428</ele>
        <time>2019-08-08T06:04:24.000Z</time>
      </trkpt>
      <trkpt lat="42.94571" lon="0.31885">
        <ele>1428</ele>
        <time>2019-08-08T06:04:25.000Z</time>
      </trkpt>
      <trkpt lat="42.9457" lon="0.31889">
        <ele>1429</ele>
        <time>2019-08-08T06:04:26.000Z</time>
      </trkpt>
      <trkpt lat="42.9457" lon="0.31894">
        <ele>1429</ele>
        <time>2019-08-08T06:04:27.000Z</time>
      </trkpt>
      <trkpt lat="42.94568" lon="0.31898">
        <ele>1429</ele>
        <time>2019-08-08T06:04:28.000Z</time>
      </trkpt>
      <trkpt lat="42.94567" lon="0.31902">
        <ele>1429</ele>
        <time>2019-08-08T06:04:29.000Z</time>
      </trkpt>
      <trkpt lat="42.94565" lon="0.31907">
        <ele>1429</ele>
        <time>2019-08-08T06:04:30.000Z</time>
      </trkpt>
      <trkpt lat="42.94563" lon="0.31911">
        <ele>1430</ele>
        <time>2019-08-08T06:04:31.000Z</time>
      </trkpt>
      <trkpt lat="42.94562" lon="0.31915">
        <ele>1430</ele>
        <time>2019-08-08T06:04:32.000Z</time>
      </trkpt>
      <trkpt lat="42.94559" lon="0.3192">
        <ele>1431</ele>
        <time>2019-08-08T06:04:33.000Z</time>
      </trkpt>
      <trkpt lat="42.94556" lon="0.31924">
        <ele>1431</ele>
        <time>2019-08-08T06:04:34.000Z</time>
      </trkpt>
      <trkpt lat="42.94553" lon="0.31928">
        <ele>1431</ele>
        <time>2019-08-08T06:04:35.000Z</time>
      </trkpt>
      <trkpt lat="42.94551" lon="0.31932">
        <ele>1431</ele>
        <time>2019-08-08T06:04:36.000Z</time>
      </trkpt>
      <trkpt lat="42.94548" lon="0.31935">
        <ele>1431</ele>
        <time>2019-08-08T06:04:37.000Z</time>
      </trkpt>
      <trkpt lat="42.94545" lon="0.31939">
        <ele>1432</ele>
        <time>2019-08-08T06:04:38.000Z</time>
      </trkpt>
      <trkpt lat="42.94542" lon="0.31943">
        <ele>1432</ele>
        <time>2019-08-08T06:04:39.000Z</time>
      </trkpt>
      <trkpt lat="42.94541" lon="0.31947">
        <ele>1433</ele>
        <time>2019-08-08T06:04:40.000Z</time>
      </trkpt>
      <trkpt lat="42.94541" lon="0.31947">
        <ele>1433</ele>
        <time>2019-08-08T06:04:41.000Z</time>
      </trkpt>
      <trkpt lat="42.94541" lon="0.31947">
        <ele>1434</ele>
        <time>2019-08-08T06:04:42.000Z</time>
      </trkpt>
      <trkpt lat="42.94536" lon="0.31958">
        <ele>1434</ele>
        <time>2019-08-08T06:04:43.000Z</time>
      </trkpt>
      <trkpt lat="42.94536" lon="0.31958">
        <ele>1434</ele>
        <time>2019-08-08T06:04:44.000Z</time>
      </trkpt>
      <trkpt lat="42.94536" lon="0.31958">
        <ele>1434</ele>
        <time>2019-08-08T06:04:45.000Z</time>
      </trkpt>
      <trkpt lat="42.94531" lon="0.31971">
        <ele>1434</ele>
        <time>2019-08-08T06:04:46.000Z</time>
      </trkpt>
      <trkpt lat="42.9453" lon="0.31973">
        <ele>1435</ele>
        <time>2019-08-08T06:04:47.000Z</time>
      </trkpt>
      <trkpt lat="42.94529" lon="0.31975">
        <ele>1435</ele>
        <time>2019-08-08T06:04:48.000Z</time>
      </trkpt>
      <trkpt lat="42.94526" lon="0.31981">
        <ele>1435</ele>
        <time>2019-08-08T06:04:49.000Z</time>
      </trkpt>
      <trkpt lat="42.94526" lon="0.31981">
        <ele>1435</ele>
        <time>2019-08-08T06:04:50.000Z</time>
      </trkpt>
      <trkpt lat="42.94526" lon="0.31981">
        <ele>1435</ele>
        <time>2019-08-08T06:04:51.000Z</time>
      </trkpt>
      <trkpt lat="42.94519" lon="0.31991">
        <ele>1435</ele>
        <time>2019-08-08T06:04:52.000Z</time>
      </trkpt>
      <trkpt lat="42.94519" lon="0.31991">
        <ele>1435</ele>
        <time>2019-08-08T06:04:53.000Z</time>
      </trkpt>
      <trkpt lat="42.94515" lon="0.31999">
        <ele>1435</ele>
        <time>2019-08-08T06:04:54.000Z</time>
      </trkpt>
      <trkpt lat="42.94512" lon="0.32005">
        <ele>1436</ele>
        <time>2019-08-08T06:04:55.000Z</time>
      </trkpt>
      <trkpt lat="42.94511" lon="0.32007">
        <ele>1436</ele>
        <time>2019-08-08T06:04:56.000Z</time>
      </trkpt>
      <trkpt lat="42.9451" lon="0.32009">
        <ele>1436</ele>
        <time>2019-08-08T06:04:57.000Z</time>
      </trkpt>
      <trkpt lat="42.94507" lon="0.32015">
        <ele>1436</ele>
        <time>2019-08-08T06:04:58.000Z</time>
      </trkpt>
      <trkpt lat="42.94507" lon="0.32015">
        <ele>1436</ele>
        <time>2019-08-08T06:04:59.000Z</time>
      </trkpt>
      <trkpt lat="42.94502" lon="0.32024">
        <ele>1436</ele>
        <time>2019-08-08T06:05:00.000Z</time>
      </trkpt>
      <trkpt lat="42.94499" lon="0.32029">
        <ele>1436</ele>
        <time>2019-08-08T06:05:01.000Z</time>
      </trkpt>
      <trkpt lat="42.94497" lon="0.32033">
        <ele>1436</ele>
        <time>2019-08-08T06:05:02.000Z</time>
      </trkpt>
      <trkpt lat="42.94495" lon="0.32037">
        <ele>1437</ele>
        <time>2019-08-08T06:05:03.000Z</time>
      </trkpt>
      <trkpt lat="42.94493" lon="0.32041">
        <ele>1437</ele>
        <time>2019-08-08T06:05:04.000Z</time>
      </trkpt>
      <trkpt lat="42.94493" lon="0.32041">
        <ele>1438</ele>
        <time>2019-08-08T06:05:05.000Z</time>
      </trkpt>
      <trkpt lat="42.94489" lon="0.32049">
        <ele>1438</ele>
        <time>2019-08-08T06:05:06.000Z</time>
      </trkpt>
      <trkpt lat="42.94487" lon="0.32053">
        <ele>1439</ele>
        <time>2019-08-08T06:05:07.000Z</time>
      </trkpt>
      <trkpt lat="42.94485" lon="0.32056">
        <ele>1439</ele>
        <time>2019-08-08T06:05:08.000Z</time>
      </trkpt>
      <trkpt lat="42.94484" lon="0.3206">
        <ele>1440</ele>
        <time>2019-08-08T06:05:09.000Z</time>
      </trkpt>
      <trkpt lat="42.94483" lon="0.32064">
        <ele>1440</ele>
        <time>2019-08-08T06:05:10.000Z</time>
      </trkpt>
      <trkpt lat="42.94483" lon="0.32067">
        <ele>1440</ele>
        <time>2019-08-08T06:05:11.000Z</time>
      </trkpt>
      <trkpt lat="42.94482" lon="0.32071">
        <ele>1440</ele>
        <time>2019-08-08T06:05:12.000Z</time>
      </trkpt>
      <trkpt lat="42.94481" lon="0.32075">
        <ele>1440</ele>
        <time>2019-08-08T06:05:13.000Z</time>
      </trkpt>
      <trkpt lat="42.94479" lon="0.32079">
        <ele>1440</ele>
        <time>2019-08-08T06:05:14.000Z</time>
      </trkpt>
      <trkpt lat="42.94476" lon="0.32083">
        <ele>1440</ele>
        <time>2019-08-08T06:05:15.000Z</time>
      </trkpt>
      <trkpt lat="42.94474" lon="0.32086">
        <ele>1440</ele>
        <time>2019-08-08T06:05:16.000Z</time>
      </trkpt>
      <trkpt lat="42.94472" lon="0.3209">
        <ele>1440</ele>
        <time>2019-08-08T06:05:17.000Z</time>
      </trkpt>
      <trkpt lat="42.9447" lon="0.32093">
        <ele>1440</ele>
        <time>2019-08-08T06:05:18.000Z</time>
      </trkpt>
      <trkpt lat="42.94469" lon="0.32097">
        <ele>1440</ele>
        <time>2019-08-08T06:05:19.000Z</time>
      </trkpt>
      <trkpt lat="42.94469" lon="0.321">
        <ele>1441</ele>
        <time>2019-08-08T06:05:20.000Z</time>
      </trkpt>
      <trkpt lat="42.94467" lon="0.32104">
        <ele>1441</ele>
        <time>2019-08-08T06:05:21.000Z</time>
      </trkpt>
      <trkpt lat="42.94465" lon="0.32108">
        <ele>1442</ele>
        <time>2019-08-08T06:05:22.000Z</time>
      </trkpt>
      <trkpt lat="42.94462" lon="0.32112">
        <ele>1442</ele>
        <time>2019-08-08T06:05:23.000Z</time>
      </trkpt>
      <trkpt lat="42.94459" lon="0.32117">
        <ele>1443</ele>
        <time>2019-08-08T06:05:24.000Z</time>
      </trkpt>
      <trkpt lat="42.94457" lon="0.32121">
        <ele>1443</ele>
        <time>2019-08-08T06:05:25.000Z</time>
      </trkpt>
      <trkpt lat="42.94455" lon="0.32125">
        <ele>1444</ele>
        <time>2019-08-08T06:05:26.000Z</time>
      </trkpt>
      <trkpt lat="42.94453" lon="0.32129">
        <ele>1444</ele>
        <time>2019-08-08T06:05:27.000Z</time>
      </trkpt>
      <trkpt lat="42.94452" lon="0.32133">
        <ele>1444</ele>
        <time>2019-08-08T06:05:28.000Z</time>
      </trkpt>
      <trkpt lat="42.9445" lon="0.32138">
        <ele>1444</ele>
        <time>2019-08-08T06:05:29.000Z</time>
      </trkpt>
      <trkpt lat="42.94448" lon="0.32142">
        <ele>1444</ele>
        <time>2019-08-08T06:05:30.000Z</time>
      </trkpt>
      <trkpt lat="42.94446" lon="0.32146">
        <ele>1445</ele>
        <time>2019-08-08T06:05:31.000Z</time>
      </trkpt>
      <trkpt lat="42.94444" lon="0.3215">
        <ele>1445</ele>
        <time>2019-08-08T06:05:32.000Z</time>
      </trkpt>
      <trkpt lat="42.94443" lon="0.32154">
        <ele>1445</ele>
        <time>2019-08-08T06:05:33.000Z</time>
      </trkpt>
      <trkpt lat="42.94441" lon="0.32158">
        <ele>1445</ele>
        <time>2019-08-08T06:05:34.000Z</time>
      </trkpt>
      <trkpt lat="42.9444" lon="0.32162">
        <ele>1445</ele>
        <time>2019-08-08T06:05:35.000Z</time>
      </trkpt>
      <trkpt lat="42.94438" lon="0.32166">
        <ele>1445</ele>
        <time>2019-08-08T06:05:36.000Z</time>
      </trkpt>
      <trkpt lat="42.94437" lon="0.3217">
        <ele>1445</ele>
        <time>2019-08-08T06:05:37.000Z</time>
      </trkpt>
      <trkpt lat="42.94435" lon="0.32174">
        <ele>1446</ele>
        <time>2019-08-08T06:05:38.000Z</time>
      </trkpt>
      <trkpt lat="42.94434" lon="0.32178">
        <ele>1446</ele>
        <time>2019-08-08T06:05:39.000Z</time>
      </trkpt>
      <trkpt lat="42.94432" lon="0.32182">
        <ele>1447</ele>
        <time>2019-08-08T06:05:40.000Z</time>
      </trkpt>
      <trkpt lat="42.94431" lon="0.32186">
        <ele>1447</ele>
        <time>2019-08-08T06:05:41.000Z</time>
      </trkpt>
      <trkpt lat="42.94429" lon="0.3219">
        <ele>1447</ele>
        <time>2019-08-08T06:05:42.000Z</time>
      </trkpt>
      <trkpt lat="42.94428" lon="0.32194">
        <ele>1447</ele>
        <time>2019-08-08T06:05:43.000Z</time>
      </trkpt>
      <trkpt lat="42.94426" lon="0.32198">
        <ele>1447</ele>
        <time>2019-08-08T06:05:44.000Z</time>
      </trkpt>
      <trkpt lat="42.94424" lon="0.32201">
        <ele>1448</ele>
        <time>2019-08-08T06:05:45.000Z</time>
      </trkpt>
      <trkpt lat="42.94422" lon="0.32205">
        <ele>1448</ele>
        <time>2019-08-08T06:05:46.000Z</time>
      </trkpt>
      <trkpt lat="42.9442" lon="0.32208">
        <ele>1449</ele>
        <time>2019-08-08T06:05:47.000Z</time>
      </trkpt>
      <trkpt lat="42.94418" lon="0.32212">
        <ele>1449</ele>
        <time>2019-08-08T06:05:48.000Z</time>
      </trkpt>
      <trkpt lat="42.94417" lon="0.32216">
        <ele>1450</ele>
        <time>2019-08-08T06:05:49.000Z</time>
      </trkpt>
      <trkpt lat="42.94415" lon="0.3222">
        <ele>1450</ele>
        <time>2019-08-08T06:05:50.000Z</time>
      </trkpt>
      <trkpt lat="42.94414" lon="0.32224">
        <ele>1450</ele>
        <time>2019-08-08T06:05:51.000Z</time>
      </trkpt>
      <trkpt lat="42.94412" lon="0.32228">
        <ele>1450</ele>
        <time>2019-08-08T06:05:52.000Z</time>
      </trkpt>
      <trkpt lat="42.9441" lon="0.32232">
        <ele>1450</ele>
        <time>2019-08-08T06:05:53.000Z</time>
      </trkpt>
      <trkpt lat="42.94408" lon="0.32236">
        <ele>1450</ele>
        <time>2019-08-08T06:05:54.000Z</time>
      </trkpt>
      <trkpt lat="42.94406" lon="0.3224">
        <ele>1450</ele>
        <time>2019-08-08T06:05:55.000Z</time>
      </trkpt>
      <trkpt lat="42.94405" lon="0.32244">
        <ele>1451</ele>
        <time>2019-08-08T06:05:56.000Z</time>
      </trkpt>
      <trkpt lat="42.94403" lon="0.32248">
        <ele>1451</ele>
        <time>2019-08-08T06:05:57.000Z</time>
      </trkpt>
      <trkpt lat="42.944" lon="0.32251">
        <ele>1451</ele>
        <time>2019-08-08T06:05:58.000Z</time>
      </trkpt>
      <trkpt lat="42.94398" lon="0.32255">
        <ele>1451</ele>
        <time>2019-08-08T06:05:59.000Z</time>
      </trkpt>
      <trkpt lat="42.94396" lon="0.32259">
        <ele>1452</ele>
        <time>2019-08-08T06:06:00.000Z</time>
      </trkpt>
      <trkpt lat="42.94394" lon="0.32262">
        <ele>1452</ele>
        <time>2019-08-08T06:06:01.000Z</time>
      </trkpt>
      <trkpt lat="42.94392" lon="0.32266">
        <ele>1453</ele>
        <time>2019-08-08T06:06:02.000Z</time>
      </trkpt>
      <trkpt lat="42.9439" lon="0.32269">
        <ele>1453</ele>
        <time>2019-08-08T06:06:03.000Z</time>
      </trkpt>
      <trkpt lat="42.94387" lon="0.32273">
        <ele>1453</ele>
        <time>2019-08-08T06:06:04.000Z</time>
      </trkpt>
      <trkpt lat="42.94385" lon="0.32277">
        <ele>1454</ele>
        <time>2019-08-08T06:06:05.000Z</time>
      </trkpt>
      <trkpt lat="42.94383" lon="0.32281">
        <ele>1454</ele>
        <time>2019-08-08T06:06:06.000Z</time>
      </trkpt>
      <trkpt lat="42.94381" lon="0.32285">
        <ele>1455</ele>
        <time>2019-08-08T06:06:07.000Z</time>
      </trkpt>
      <trkpt lat="42.94379" lon="0.32289">
        <ele>1455</ele>
        <time>2019-08-08T06:06:08.000Z</time>
      </trkpt>
      <trkpt lat="42.94378" lon="0.32293">
        <ele>1455</ele>
        <time>2019-08-08T06:06:09.000Z</time>
      </trkpt>
      <trkpt lat="42.94375" lon="0.323">
        <ele>1455</ele>
        <time>2019-08-08T06:06:10.000Z</time>
      </trkpt>
      <trkpt lat="42.94374" lon="0.32302">
        <ele>1456</ele>
        <time>2019-08-08T06:06:11.000Z</time>
      </trkpt>
      <trkpt lat="42.94372" lon="0.32306">
        <ele>1456</ele>
        <time>2019-08-08T06:06:12.000Z</time>
      </trkpt>
      <trkpt lat="42.94371" lon="0.3231">
        <ele>1456</ele>
        <time>2019-08-08T06:06:13.000Z</time>
      </trkpt>
      <trkpt lat="42.94369" lon="0.32314">
        <ele>1457</ele>
        <time>2019-08-08T06:06:14.000Z</time>
      </trkpt>
      <trkpt lat="42.94368" lon="0.32318">
        <ele>1457</ele>
        <time>2019-08-08T06:06:15.000Z</time>
      </trkpt>
      <trkpt lat="42.94366" lon="0.32322">
        <ele>1457</ele>
        <time>2019-08-08T06:06:16.000Z</time>
      </trkpt>
      <trkpt lat="42.94365" lon="0.32326">
        <ele>1458</ele>
        <time>2019-08-08T06:06:17.000Z</time>
      </trkpt>
      <trkpt lat="42.94363" lon="0.32331">
        <ele>1458</ele>
        <time>2019-08-08T06:06:18.000Z</time>
      </trkpt>
      <trkpt lat="42.94361" lon="0.32335">
        <ele>1458</ele>
        <time>2019-08-08T06:06:19.000Z</time>
      </trkpt>
      <trkpt lat="42.9436" lon="0.3234">
        <ele>1458</ele>
        <time>2019-08-08T06:06:20.000Z</time>
      </trkpt>
      <trkpt lat="42.94359" lon="0.32344">
        <ele>1458</ele>
        <time>2019-08-08T06:06:21.000Z</time>
      </trkpt>
      <trkpt lat="42.94359" lon="0.32349">
        <ele>1458</ele>
        <time>2019-08-08T06:06:22.000Z</time>
      </trkpt>
      <trkpt lat="42.94359" lon="0.32354">
        <ele>1459</ele>
        <time>2019-08-08T06:06:23.000Z</time>
      </trkpt>
      <trkpt lat="42.94358" lon="0.32359">
        <ele>1459</ele>
        <time>2019-08-08T06:06:24.000Z</time>
      </trkpt>
      <trkpt lat="42.94357" lon="0.32363">
        <ele>1459</ele>
        <time>2019-08-08T06:06:25.000Z</time>
      </trkpt>
      <trkpt lat="42.94357" lon="0.32368">
        <ele>1459</ele>
        <time>2019-08-08T06:06:26.000Z</time>
      </trkpt>
      <trkpt lat="42.94357" lon="0.32372">
        <ele>1459</ele>
        <time>2019-08-08T06:06:27.000Z</time>
      </trkpt>
      <trkpt lat="42.94357" lon="0.32377">
        <ele>1460</ele>
        <time>2019-08-08T06:06:28.000Z</time>
      </trkpt>
      <trkpt lat="42.94357" lon="0.32382">
        <ele>1460</ele>
        <time>2019-08-08T06:06:29.000Z</time>
      </trkpt>
      <trkpt lat="42.94357" lon="0.32387">
        <ele>1460</ele>
        <time>2019-08-08T06:06:30.000Z</time>
      </trkpt>
      <trkpt lat="42.94357" lon="0.32391">
        <ele>1460</ele>
        <time>2019-08-08T06:06:31.000Z</time>
      </trkpt>
      <trkpt lat="42.94356" lon="0.32395">
        <ele>1461</ele>
        <time>2019-08-08T06:06:32.000Z</time>
      </trkpt>
      <trkpt lat="42.94356" lon="0.324">
        <ele>1461</ele>
        <time>2019-08-08T06:06:33.000Z</time>
      </trkpt>
      <trkpt lat="42.94355" lon="0.32404">
        <ele>1461</ele>
        <time>2019-08-08T06:06:34.000Z</time>
      </trkpt>
      <trkpt lat="42.94355" lon="0.32408">
        <ele>1462</ele>
        <time>2019-08-08T06:06:35.000Z</time>
      </trkpt>
      <trkpt lat="42.94354" lon="0.32413">
        <ele>1462</ele>
        <time>2019-08-08T06:06:36.000Z</time>
      </trkpt>
      <trkpt lat="42.94354" lon="0.32417">
        <ele>1462</ele>
        <time>2019-08-08T06:06:37.000Z</time>
      </trkpt>
      <trkpt lat="42.94353" lon="0.32421">
        <ele>1462</ele>
        <time>2019-08-08T06:06:38.000Z</time>
      </trkpt>
      <trkpt lat="42.94353" lon="0.32425">
        <ele>1462</ele>
        <time>2019-08-08T06:06:39.000Z</time>
      </trkpt>
      <trkpt lat="42.94352" lon="0.3243">
        <ele>1462</ele>
        <time>2019-08-08T06:06:40.000Z</time>
      </trkpt>
      <trkpt lat="42.94351" lon="0.32434">
        <ele>1463</ele>
        <time>2019-08-08T06:06:41.000Z</time>
      </trkpt>
      <trkpt lat="42.9435" lon="0.32438">
        <ele>1463</ele>
        <time>2019-08-08T06:06:42.000Z</time>
      </trkpt>
      <trkpt lat="42.94349" lon="0.32443">
        <ele>1464</ele>
        <time>2019-08-08T06:06:43.000Z</time>
      </trkpt>
      <trkpt lat="42.94348" lon="0.32447">
        <ele>1464</ele>
        <time>2019-08-08T06:06:44.000Z</time>
      </trkpt>
      <trkpt lat="42.94347" lon="0.32451">
        <ele>1465</ele>
        <time>2019-08-08T06:06:45.000Z</time>
      </trkpt>
      <trkpt lat="42.94346" lon="0.32455">
        <ele>1465</ele>
        <time>2019-08-08T06:06:46.000Z</time>
      </trkpt>
      <trkpt lat="42.94345" lon="0.32459">
        <ele>1465</ele>
        <time>2019-08-08T06:06:47.000Z</time>
      </trkpt>
      <trkpt lat="42.94345" lon="0.32464">
        <ele>1465</ele>
        <time>2019-08-08T06:06:48.000Z</time>
      </trkpt>
      <trkpt lat="42.94344" lon="0.32468">
        <ele>1465</ele>
        <time>2019-08-08T06:06:49.000Z</time>
      </trkpt>
      <trkpt lat="42.94344" lon="0.32472">
        <ele>1465</ele>
        <time>2019-08-08T06:06:50.000Z</time>
      </trkpt>
      <trkpt lat="42.94343" lon="0.32477">
        <ele>1466</ele>
        <time>2019-08-08T06:06:51.000Z</time>
      </trkpt>
      <trkpt lat="42.94343" lon="0.32481">
        <ele>1467</ele>
        <time>2019-08-08T06:06:52.000Z</time>
      </trkpt>
      <trkpt lat="42.94343" lon="0.32486">
        <ele>1467</ele>
        <time>2019-08-08T06:06:53.000Z</time>
      </trkpt>
      <trkpt lat="42.94342" lon="0.32491">
        <ele>1467</ele>
        <time>2019-08-08T06:06:54.000Z</time>
      </trkpt>
      <trkpt lat="42.94342" lon="0.32495">
        <ele>1467</ele>
        <time>2019-08-08T06:06:55.000Z</time>
      </trkpt>
      <trkpt lat="42.94341" lon="0.32499">
        <ele>1468</ele>
        <time>2019-08-08T06:06:56.000Z</time>
      </trkpt>
      <trkpt lat="42.9434" lon="0.32504">
        <ele>1468</ele>
        <time>2019-08-08T06:06:57.000Z</time>
      </trkpt>
      <trkpt lat="42.94339" lon="0.32508">
        <ele>1468</ele>
        <time>2019-08-08T06:06:58.000Z</time>
      </trkpt>
      <trkpt lat="42.94338" lon="0.32512">
        <ele>1469</ele>
        <time>2019-08-08T06:06:59.000Z</time>
      </trkpt>
      <trkpt lat="42.94337" lon="0.32517">
        <ele>1469</ele>
        <time>2019-08-08T06:07:00.000Z</time>
      </trkpt>
      <trkpt lat="42.94336" lon="0.32521">
        <ele>1469</ele>
        <time>2019-08-08T06:07:01.000Z</time>
      </trkpt>
      <trkpt lat="42.94335" lon="0.32525">
        <ele>1469</ele>
        <time>2019-08-08T06:07:02.000Z</time>
      </trkpt>
      <trkpt lat="42.94334" lon="0.32529">
        <ele>1470</ele>
        <time>2019-08-08T06:07:03.000Z</time>
      </trkpt>
      <trkpt lat="42.94334" lon="0.32534">
        <ele>1470</ele>
        <time>2019-08-08T06:07:04.000Z</time>
      </trkpt>
      <trkpt lat="42.94333" lon="0.32538">
        <ele>1470</ele>
        <time>2019-08-08T06:07:05.000Z</time>
      </trkpt>
      <trkpt lat="42.94332" lon="0.32542">
        <ele>1470</ele>
        <time>2019-08-08T06:07:06.000Z</time>
      </trkpt>
      <trkpt lat="42.94332" lon="0.32547">
        <ele>1470</ele>
        <time>2019-08-08T06:07:07.000Z</time>
      </trkpt>
      <trkpt lat="42.94331" lon="0.32551">
        <ele>1471</ele>
        <time>2019-08-08T06:07:08.000Z</time>
      </trkpt>
      <trkpt lat="42.9433" lon="0.32556">
        <ele>1471</ele>
        <time>2019-08-08T06:07:09.000Z</time>
      </trkpt>
      <trkpt lat="42.9433" lon="0.3256">
        <ele>1471</ele>
        <time>2019-08-08T06:07:10.000Z</time>
      </trkpt>
      <trkpt lat="42.9433" lon="0.32565">
        <ele>1471</ele>
        <time>2019-08-08T06:07:11.000Z</time>
      </trkpt>
      <trkpt lat="42.94329" lon="0.32569">
        <ele>1471</ele>
        <time>2019-08-08T06:07:12.000Z</time>
      </trkpt>
      <trkpt lat="42.94328" lon="0.32574">
        <ele>1471</ele>
        <time>2019-08-08T06:07:13.000Z</time>
      </trkpt>
      <trkpt lat="42.94327" lon="0.32578">
        <ele>1472</ele>
        <time>2019-08-08T06:07:14.000Z</time>
      </trkpt>
      <trkpt lat="42.94326" lon="0.32582">
        <ele>1472</ele>
        <time>2019-08-08T06:07:15.000Z</time>
      </trkpt>
      <trkpt lat="42.94325" lon="0.32587">
        <ele>1472</ele>
        <time>2019-08-08T06:07:16.000Z</time>
      </trkpt>
      <trkpt lat="42.94324" lon="0.32591">
        <ele>1472</ele>
        <time>2019-08-08T06:07:17.000Z</time>
      </trkpt>
      <trkpt lat="42.94323" lon="0.32595">
        <ele>1473</ele>
        <time>2019-08-08T06:07:18.000Z</time>
      </trkpt>
      <trkpt lat="42.94321" lon="0.32599">
        <ele>1473</ele>
        <time>2019-08-08T06:07:19.000Z</time>
      </trkpt>
      <trkpt lat="42.9432" lon="0.32603">
        <ele>1473</ele>
        <time>2019-08-08T06:07:20.000Z</time>
      </trkpt>
      <trkpt lat="42.94319" lon="0.32608">
        <ele>1473</ele>
        <time>2019-08-08T06:07:21.000Z</time>
      </trkpt>
      <trkpt lat="42.94317" lon="0.32612">
        <ele>1473</ele>
        <time>2019-08-08T06:07:22.000Z</time>
      </trkpt>
      <trkpt lat="42.94316" lon="0.32616">
        <ele>1474</ele>
        <time>2019-08-08T06:07:23.000Z</time>
      </trkpt>
      <trkpt lat="42.94315" lon="0.32621">
        <ele>1474</ele>
        <time>2019-08-08T06:07:24.000Z</time>
      </trkpt>
      <trkpt lat="42.94313" lon="0.32625">
        <ele>1474</ele>
        <time>2019-08-08T06:07:25.000Z</time>
      </trkpt>
      <trkpt lat="42.94312" lon="0.32629">
        <ele>1475</ele>
        <time>2019-08-08T06:07:26.000Z</time>
      </trkpt>
      <trkpt lat="42.9431" lon="0.32633">
        <ele>1475</ele>
        <time>2019-08-08T06:07:27.000Z</time>
      </trkpt>
      <trkpt lat="42.94308" lon="0.32637">
        <ele>1475</ele>
        <time>2019-08-08T06:07:28.000Z</time>
      </trkpt>
      <trkpt lat="42.94307" lon="0.32641">
        <ele>1476</ele>
        <time>2019-08-08T06:07:29.000Z</time>
      </trkpt>
      <trkpt lat="42.94305" lon="0.32645">
        <ele>1476</ele>
        <time>2019-08-08T06:07:30.000Z</time>
      </trkpt>
      <trkpt lat="42.94303" lon="0.32648">
        <ele>1476</ele>
        <time>2019-08-08T06:07:31.000Z</time>
      </trkpt>
      <trkpt lat="42.94301" lon="0.32651">
        <ele>1477</ele>
        <time>2019-08-08T06:07:32.000Z</time>
      </trkpt>
      <trkpt lat="42.94299" lon="0.32655">
        <ele>1477</ele>
        <time>2019-08-08T06:07:33.000Z</time>
      </trkpt>
      <trkpt lat="42.94297" lon="0.32658">
        <ele>1477</ele>
        <time>2019-08-08T06:07:34.000Z</time>
      </trkpt>
      <trkpt lat="42.94294" lon="0.32661">
        <ele>1477</ele>
        <time>2019-08-08T06:07:35.000Z</time>
      </trkpt>
      <trkpt lat="42.94292" lon="0.32664">
        <ele>1477</ele>
        <time>2019-08-08T06:07:36.000Z</time>
      </trkpt>
      <trkpt lat="42.94289" lon="0.32666">
        <ele>1478</ele>
        <time>2019-08-08T06:07:37.000Z</time>
      </trkpt>
      <trkpt lat="42.94287" lon="0.32669">
        <ele>1478</ele>
        <time>2019-08-08T06:07:38.000Z</time>
      </trkpt>
      <trkpt lat="42.94285" lon="0.32673">
        <ele>1478</ele>
        <time>2019-08-08T06:07:39.000Z</time>
      </trkpt>
      <trkpt lat="42.94283" lon="0.32676">
        <ele>1478</ele>
        <time>2019-08-08T06:07:40.000Z</time>
      </trkpt>
      <trkpt lat="42.94281" lon="0.32678">
        <ele>1478</ele>
        <time>2019-08-08T06:07:41.000Z</time>
      </trkpt>
      <trkpt lat="42.94281" lon="0.32678">
        <ele>1480</ele>
        <time>2019-08-08T06:08:47.000Z</time>
      </trkpt>
      <trkpt lat="42.94275" lon="0.32685">
        <ele>1480</ele>
        <time>2019-08-08T06:08:48.000Z</time>
      </trkpt>
      <trkpt lat="42.94275" lon="0.32685">
        <ele>1480</ele>
        <time>2019-08-08T06:08:49.000Z</time>
      </trkpt>
      <trkpt lat="42.94275" lon="0.32685">
        <ele>1480</ele>
        <time>2019-08-08T06:08:50.000Z</time>
      </trkpt>
      <trkpt lat="42.94274" lon="0.32686">
        <ele>1480</ele>
        <time>2019-08-08T06:08:51.000Z</time>
      </trkpt>
      <trkpt lat="42.94274" lon="0.32686">
        <ele>1480</ele>
        <time>2019-08-08T06:08:52.000Z</time>
      </trkpt>
      <trkpt lat="42.94272" lon="0.32689">
        <ele>1480</ele>
        <time>2019-08-08T06:08:53.000Z</time>
      </trkpt>
      <trkpt lat="42.94272" lon="0.32689">
        <ele>1480</ele>
        <time>2019-08-08T06:08:54.000Z</time>
      </trkpt>
      <trkpt lat="42.9427" lon="0.32693">
        <ele>1480</ele>
        <time>2019-08-08T06:08:55.000Z</time>
      </trkpt>
      <trkpt lat="42.94269" lon="0.32695">
        <ele>1480</ele>
        <time>2019-08-08T06:08:56.000Z</time>
      </trkpt>
      <trkpt lat="42.94267" lon="0.32697">
        <ele>1480</ele>
        <time>2019-08-08T06:08:57.000Z</time>
      </trkpt>
      <trkpt lat="42.94265" lon="0.327">
        <ele>1480</ele>
        <time>2019-08-08T06:08:58.000Z</time>
      </trkpt>
      <trkpt lat="42.94263" lon="0.32702">
        <ele>1480</ele>
        <time>2019-08-08T06:08:59.000Z</time>
      </trkpt>
      <trkpt lat="42.9426" lon="0.32705">
        <ele>1481</ele>
        <time>2019-08-08T06:09:00.000Z</time>
      </trkpt>
      <trkpt lat="42.94258" lon="0.32708">
        <ele>1481</ele>
        <time>2019-08-08T06:09:01.000Z</time>
      </trkpt>
      <trkpt lat="42.94255" lon="0.3271">
        <ele>1481</ele>
        <time>2019-08-08T06:09:02.000Z</time>
      </trkpt>
      <trkpt lat="42.94252" lon="0.32713">
        <ele>1481</ele>
        <time>2019-08-08T06:09:03.000Z</time>
      </trkpt>
      <trkpt lat="42.94249" lon="0.32717">
        <ele>1481</ele>
        <time>2019-08-08T06:09:04.000Z</time>
      </trkpt>
      <trkpt lat="42.94246" lon="0.3272">
        <ele>1481</ele>
        <time>2019-08-08T06:09:05.000Z</time>
      </trkpt>
      <trkpt lat="42.94244" lon="0.32723">
        <ele>1482</ele>
        <time>2019-08-08T06:09:06.000Z</time>
      </trkpt>
      <trkpt lat="42.94242" lon="0.32726">
        <ele>1482</ele>
        <time>2019-08-08T06:09:07.000Z</time>
      </trkpt>
      <trkpt lat="42.9424" lon="0.3273">
        <ele>1482</ele>
        <time>2019-08-08T06:09:08.000Z</time>
      </trkpt>
      <trkpt lat="42.94238" lon="0.32733">
        <ele>1482</ele>
        <time>2019-08-08T06:09:09.000Z</time>
      </trkpt>
      <trkpt lat="42.94237" lon="0.32737">
        <ele>1483</ele>
        <time>2019-08-08T06:09:10.000Z</time>
      </trkpt>
      <trkpt lat="42.94235" lon="0.3274">
        <ele>1483</ele>
        <time>2019-08-08T06:09:11.000Z</time>
      </trkpt>
      <trkpt lat="42.94233" lon="0.32744">
        <ele>1483</ele>
        <time>2019-08-08T06:09:12.000Z</time>
      </trkpt>
      <trkpt lat="42.94231" lon="0.32747">
        <ele>1483</ele>
        <time>2019-08-08T06:09:13.000Z</time>
      </trkpt>
      <trkpt lat="42.9423" lon="0.32751">
        <ele>1483</ele>
        <time>2019-08-08T06:09:14.000Z</time>
      </trkpt>
      <trkpt lat="42.94229" lon="0.32756">
        <ele>1483</ele>
        <time>2019-08-08T06:09:15.000Z</time>
      </trkpt>
      <trkpt lat="42.94228" lon="0.32762">
        <ele>1483</ele>
        <time>2019-08-08T06:09:16.000Z</time>
      </trkpt>
      <trkpt lat="42.94228" lon="0.32768">
        <ele>1483</ele>
        <time>2019-08-08T06:09:17.000Z</time>
      </trkpt>
      <trkpt lat="42.94228" lon="0.32774">
        <ele>1483</ele>
        <time>2019-08-08T06:09:18.000Z</time>
      </trkpt>
      <trkpt lat="42.94228" lon="0.32781">
        <ele>1483</ele>
        <time>2019-08-08T06:09:19.000Z</time>
      </trkpt>
      <trkpt lat="42.94228" lon="0.32788">
        <ele>1482</ele>
        <time>2019-08-08T06:09:20.000Z</time>
      </trkpt>
      <trkpt lat="42.94229" lon="0.32795">
        <ele>1481</ele>
        <time>2019-08-08T06:09:21.000Z</time>
      </trkpt>
      <trkpt lat="42.94231" lon="0.32803">
        <ele>1481</ele>
        <time>2019-08-08T06:09:22.000Z</time>
      </trkpt>
      <trkpt lat="42.94233" lon="0.3281">
        <ele>1480</ele>
        <time>2019-08-08T06:09:23.000Z</time>
      </trkpt>
      <trkpt lat="42.94234" lon="0.32816">
        <ele>1480</ele>
        <time>2019-08-08T06:09:24.000Z</time>
      </trkpt>
      <trkpt lat="42.94234" lon="0.32821">
        <ele>1480</ele>
        <time>2019-08-08T06:09:25.000Z</time>
      </trkpt>
      <trkpt lat="42.94235" lon="0.32824">
        <ele>1480</ele>
        <time>2019-08-08T06:09:26.000Z</time>
      </trkpt>
      <trkpt lat="42.94235" lon="0.32824">
        <ele>1480</ele>
        <time>2019-08-08T06:09:27.000Z</time>
      </trkpt>
      <trkpt lat="42.94236" lon="0.32827">
        <ele>1480</ele>
        <time>2019-08-08T06:09:28.000Z</time>
      </trkpt>
      <trkpt lat="42.94236" lon="0.32827">
        <ele>1480</ele>
        <time>2019-08-08T06:09:29.000Z</time>
      </trkpt>
      <trkpt lat="42.94237" lon="0.32827">
        <ele>1480</ele>
        <time>2019-08-08T06:09:30.000Z</time>
      </trkpt>
      <trkpt lat="42.94237" lon="0.32827">
        <ele>1480</ele>
        <time>2019-08-08T06:10:29.000Z</time>
      </trkpt>
      <trkpt lat="42.94239" lon="0.3283">
        <ele>1480</ele>
        <time>2019-08-08T06:10:30.000Z</time>
      </trkpt>
      <trkpt lat="42.94241" lon="0.32833">
        <ele>1480</ele>
        <time>2019-08-08T06:10:31.000Z</time>
      </trkpt>
      <trkpt lat="42.94242" lon="0.32836">
        <ele>1480</ele>
        <time>2019-08-08T06:10:32.000Z</time>
      </trkpt>
      <trkpt lat="42.94244" lon="0.32841">
        <ele>1479</ele>
        <time>2019-08-08T06:10:33.000Z</time>
      </trkpt>
      <trkpt lat="42.94246" lon="0.32846">
        <ele>1479</ele>
        <time>2019-08-08T06:10:34.000Z</time>
      </trkpt>
      <trkpt lat="42.94248" lon="0.32852">
        <ele>1478</ele>
        <time>2019-08-08T06:10:35.000Z</time>
      </trkpt>
      <trkpt lat="42.9425" lon="0.32859">
        <ele>1478</ele>
        <time>2019-08-08T06:10:36.000Z</time>
      </trkpt>
      <trkpt lat="42.94252" lon="0.32867">
        <ele>1478</ele>
        <time>2019-08-08T06:10:37.000Z</time>
      </trkpt>
      <trkpt lat="42.94253" lon="0.32875">
        <ele>1478</ele>
        <time>2019-08-08T06:10:38.000Z</time>
      </trkpt>
      <trkpt lat="42.94255" lon="0.32883">
        <ele>1476</ele>
        <time>2019-08-08T06:10:39.000Z</time>
      </trkpt>
      <trkpt lat="42.94257" lon="0.32893">
        <ele>1476</ele>
        <time>2019-08-08T06:10:40.000Z</time>
      </trkpt>
      <trkpt lat="42.9426" lon="0.32902">
        <ele>1475</ele>
        <time>2019-08-08T06:10:41.000Z</time>
      </trkpt>
      <trkpt lat="42.94263" lon="0.32912">
        <ele>1475</ele>
        <time>2019-08-08T06:10:42.000Z</time>
      </trkpt>
      <trkpt lat="42.94267" lon="0.32921">
        <ele>1474</ele>
        <time>2019-08-08T06:10:43.000Z</time>
      </trkpt>
      <trkpt lat="42.94272" lon="0.32931">
        <ele>1474</ele>
        <time>2019-08-08T06:10:44.000Z</time>
      </trkpt>
      <trkpt lat="42.94277" lon="0.32942">
        <ele>1472</ele>
        <time>2019-08-08T06:10:45.000Z</time>
      </trkpt>
      <trkpt lat="42.94281" lon="0.32953">
        <ele>1472</ele>
        <time>2019-08-08T06:10:46.000Z</time>
      </trkpt>
      <trkpt lat="42.94283" lon="0.32966">
        <ele>1470</ele>
        <time>2019-08-08T06:10:47.000Z</time>
      </trkpt>
      <trkpt lat="42.94285" lon="0.32986">
        <ele>1470</ele>
        <time>2019-08-08T06:10:48.000Z</time>
      </trkpt>
      <trkpt lat="42.94285" lon="0.32993">
        <ele>1468.4</ele>
        <time>2019-08-08T06:10:49.000Z</time>
      </trkpt>
      <trkpt lat="42.94286" lon="0.33007">
        <ele>1467</ele>
        <time>2019-08-08T06:10:50.000Z</time>
      </trkpt>
      <trkpt lat="42.94286" lon="0.33022">
        <ele>1467</ele>
        <time>2019-08-08T06:10:51.000Z</time>
      </trkpt>
      <trkpt lat="42.94287" lon="0.33037">
        <ele>1464</ele>
        <time>2019-08-08T06:10:52.000Z</time>
      </trkpt>
      <trkpt lat="42.94288" lon="0.33052">
        <ele>1464</ele>
        <time>2019-08-08T06:10:53.000Z</time>
      </trkpt>
      <trkpt lat="42.94288" lon="0.33066">
        <ele>1461</ele>
        <time>2019-08-08T06:10:54.000Z</time>
      </trkpt>
      <trkpt lat="42.94288" lon="0.33079">
        <ele>1461</ele>
        <time>2019-08-08T06:10:55.000Z</time>
      </trkpt>
      <trkpt lat="42.9429" lon="0.33091">
        <ele>1460</ele>
        <time>2019-08-08T06:10:56.000Z</time>
      </trkpt>
      <trkpt lat="42.94294" lon="0.33101">
        <ele>1460</ele>
        <time>2019-08-08T06:10:57.000Z</time>
      </trkpt>
      <trkpt lat="42.94302" lon="0.33109">
        <ele>1460</ele>
        <time>2019-08-08T06:10:58.000Z</time>
      </trkpt>
      <trkpt lat="42.94311" lon="0.33116">
        <ele>1460</ele>
        <time>2019-08-08T06:10:59.000Z</time>
      </trkpt>
      <trkpt lat="42.94318" lon="0.33125">
        <ele>1459</ele>
        <time>2019-08-08T06:11:00.000Z</time>
      </trkpt>
      <trkpt lat="42.94323" lon="0.33137">
        <ele>1459</ele>
        <time>2019-08-08T06:11:01.000Z</time>
      </trkpt>
      <trkpt lat="42.94328" lon="0.33151">
        <ele>1457</ele>
        <time>2019-08-08T06:11:02.000Z</time>
      </trkpt>
      <trkpt lat="42.94332" lon="0.33164">
        <ele>1457</ele>
        <time>2019-08-08T06:11:03.000Z</time>
      </trkpt>
      <trkpt lat="42.94337" lon="0.33176">
        <ele>1456</ele>
        <time>2019-08-08T06:11:04.000Z</time>
      </trkpt>
      <trkpt lat="42.94345" lon="0.33184">
        <ele>1456</ele>
        <time>2019-08-08T06:11:05.000Z</time>
      </trkpt>
      <trkpt lat="42.94354" lon="0.3319">
        <ele>1453</ele>
        <time>2019-08-08T06:11:06.000Z</time>
      </trkpt>
      <trkpt lat="42.94364" lon="0.33194">
        <ele>1453</ele>
        <time>2019-08-08T06:11:07.000Z</time>
      </trkpt>
      <trkpt lat="42.94372" lon="0.33201">
        <ele>1451</ele>
        <time>2019-08-08T06:11:08.000Z</time>
      </trkpt>
      <trkpt lat="42.94376" lon="0.33213">
        <ele>1451</ele>
        <time>2019-08-08T06:11:09.000Z</time>
      </trkpt>
      <trkpt lat="42.94378" lon="0.33226">
        <ele>1451</ele>
        <time>2019-08-08T06:11:10.000Z</time>
      </trkpt>
      <trkpt lat="42.94379" lon="0.33241">
        <ele>1449</ele>
        <time>2019-08-08T06:11:11.000Z</time>
      </trkpt>
      <trkpt lat="42.9438" lon="0.33257">
        <ele>1449</ele>
        <time>2019-08-08T06:11:12.000Z</time>
      </trkpt>
      <trkpt lat="42.94381" lon="0.33273">
        <ele>1447</ele>
        <time>2019-08-08T06:11:13.000Z</time>
      </trkpt>
      <trkpt lat="42.94383" lon="0.33289">
        <ele>1447</ele>
        <time>2019-08-08T06:11:14.000Z</time>
      </trkpt>
      <trkpt lat="42.94384" lon="0.33305">
        <ele>1445</ele>
        <time>2019-08-08T06:11:15.000Z</time>
      </trkpt>
      <trkpt lat="42.94383" lon="0.33322">
        <ele>1445</ele>
        <time>2019-08-08T06:11:16.000Z</time>
      </trkpt>
      <trkpt lat="42.94382" lon="0.33339">
        <ele>1442</ele>
        <time>2019-08-08T06:11:17.000Z</time>
      </trkpt>
      <trkpt lat="42.9438" lon="0.33357">
        <ele>1441</ele>
        <time>2019-08-08T06:11:18.000Z</time>
      </trkpt>
      <trkpt lat="42.94376" lon="0.33374">
        <ele>1441</ele>
        <time>2019-08-08T06:11:19.000Z</time>
      </trkpt>
      <trkpt lat="42.94373" lon="0.3339">
        <ele>1440</ele>
        <time>2019-08-08T06:11:20.000Z</time>
      </trkpt>
      <trkpt lat="42.94369" lon="0.33406">
        <ele>1440</ele>
        <time>2019-08-08T06:11:21.000Z</time>
      </trkpt>
      <trkpt lat="42.94365" lon="0.33421">
        <ele>1437</ele>
        <time>2019-08-08T06:11:22.000Z</time>
      </trkpt>
      <trkpt lat="42.9436" lon="0.33437">
        <ele>1437</ele>
        <time>2019-08-08T06:11:23.000Z</time>
      </trkpt>
      <trkpt lat="42.94355" lon="0.33455">
        <ele>1435</ele>
        <time>2019-08-08T06:11:24.000Z</time>
      </trkpt>
      <trkpt lat="42.9435" lon="0.33472">
        <ele>1435</ele>
        <time>2019-08-08T06:11:25.000Z</time>
      </trkpt>
      <trkpt lat="42.94345" lon="0.3349">
        <ele>1435</ele>
        <time>2019-08-08T06:11:26.000Z</time>
      </trkpt>
      <trkpt lat="42.94339" lon="0.33508">
        <ele>1431</ele>
        <time>2019-08-08T06:11:27.000Z</time>
      </trkpt>
      <trkpt lat="42.94333" lon="0.33526">
        <ele>1431</ele>
        <time>2019-08-08T06:11:28.000Z</time>
      </trkpt>
      <trkpt lat="42.9433" lon="0.33544">
        <ele>1427</ele>
        <time>2019-08-08T06:11:29.000Z</time>
      </trkpt>
      <trkpt lat="42.94327" lon="0.33562">
        <ele>1427</ele>
        <time>2019-08-08T06:11:30.000Z</time>
      </trkpt>
      <trkpt lat="42.94326" lon="0.33581">
        <ele>1426</ele>
        <time>2019-08-08T06:11:31.000Z</time>
      </trkpt>
      <trkpt lat="42.94327" lon="0.33601">
        <ele>1426</ele>
        <time>2019-08-08T06:11:32.000Z</time>
      </trkpt>
      <trkpt lat="42.94328" lon="0.33619">
        <ele>1425</ele>
        <time>2019-08-08T06:11:33.000Z</time>
      </trkpt>
      <trkpt lat="42.94329" lon="0.33636">
        <ele>1425</ele>
        <time>2019-08-08T06:11:34.000Z</time>
      </trkpt>
      <trkpt lat="42.94329" lon="0.33653">
        <ele>1422</ele>
        <time>2019-08-08T06:11:35.000Z</time>
      </trkpt>
      <trkpt lat="42.94327" lon="0.3367">
        <ele>1422</ele>
        <time>2019-08-08T06:11:36.000Z</time>
      </trkpt>
      <trkpt lat="42.94322" lon="0.33685">
        <ele>1420</ele>
        <time>2019-08-08T06:11:37.000Z</time>
      </trkpt>
      <trkpt lat="42.94315" lon="0.33698">
        <ele>1420</ele>
        <time>2019-08-08T06:11:38.000Z</time>
      </trkpt>
      <trkpt lat="42.94306" lon="0.33709">
        <ele>1419</ele>
        <time>2019-08-08T06:11:39.000Z</time>
      </trkpt>
      <trkpt lat="42.94295" lon="0.33721">
        <ele>1419</ele>
        <time>2019-08-08T06:11:40.000Z</time>
      </trkpt>
      <trkpt lat="42.94284" lon="0.33731">
        <ele>1417</ele>
        <time>2019-08-08T06:11:41.000Z</time>
      </trkpt>
      <trkpt lat="42.94275" lon="0.33741">
        <ele>1417</ele>
        <time>2019-08-08T06:11:42.000Z</time>
      </trkpt>
      <trkpt lat="42.94265" lon="0.3375">
        <ele>1415</ele>
        <time>2019-08-08T06:11:43.000Z</time>
      </trkpt>
      <trkpt lat="42.94255" lon="0.33756">
        <ele>1415</ele>
        <time>2019-08-08T06:11:44.000Z</time>
      </trkpt>
      <trkpt lat="42.94245" lon="0.3376">
        <ele>1413</ele>
        <time>2019-08-08T06:11:45.000Z</time>
      </trkpt>
      <trkpt lat="42.94234" lon="0.33764">
        <ele>1413</ele>
        <time>2019-08-08T06:11:46.000Z</time>
      </trkpt>
      <trkpt lat="42.94224" lon="0.33771">
        <ele>1413</ele>
        <time>2019-08-08T06:11:47.000Z</time>
      </trkpt>
      <trkpt lat="42.94217" lon="0.33781">
        <ele>1411</ele>
        <time>2019-08-08T06:11:48.000Z</time>
      </trkpt>
      <trkpt lat="42.94211" lon="0.33793">
        <ele>1411</ele>
        <time>2019-08-08T06:11:49.000Z</time>
      </trkpt>
      <trkpt lat="42.94205" lon="0.33805">
        <ele>1408</ele>
        <time>2019-08-08T06:11:50.000Z</time>
      </trkpt>
      <trkpt lat="42.94199" lon="0.33819">
        <ele>1408</ele>
        <time>2019-08-08T06:11:51.000Z</time>
      </trkpt>
      <trkpt lat="42.94193" lon="0.33834">
        <ele>1407</ele>
        <time>2019-08-08T06:11:52.000Z</time>
      </trkpt>
      <trkpt lat="42.94188" lon="0.33849">
        <ele>1407</ele>
        <time>2019-08-08T06:11:53.000Z</time>
      </trkpt>
      <trkpt lat="42.94182" lon="0.33864">
        <ele>1404</ele>
        <time>2019-08-08T06:11:54.000Z</time>
      </trkpt>
      <trkpt lat="42.94177" lon="0.33881">
        <ele>1404</ele>
        <time>2019-08-08T06:11:55.000Z</time>
      </trkpt>
      <trkpt lat="42.94172" lon="0.33898">
        <ele>1403</ele>
        <time>2019-08-08T06:11:56.000Z</time>
      </trkpt>
      <trkpt lat="42.94167" lon="0.33915">
        <ele>1403</ele>
        <time>2019-08-08T06:11:57.000Z</time>
      </trkpt>
      <trkpt lat="42.94163" lon="0.33931">
        <ele>1400</ele>
        <time>2019-08-08T06:11:58.000Z</time>
      </trkpt>
      <trkpt lat="42.94159" lon="0.33949">
        <ele>1400</ele>
        <time>2019-08-08T06:11:59.000Z</time>
      </trkpt>
      <trkpt lat="42.94154" lon="0.33966">
        <ele>1399</ele>
        <time>2019-08-08T06:12:00.000Z</time>
      </trkpt>
      <trkpt lat="42.9415" lon="0.33983">
        <ele>1399</ele>
        <time>2019-08-08T06:12:01.000Z</time>
      </trkpt>
      <trkpt lat="42.94146" lon="0.34001">
        <ele>1396</ele>
        <time>2019-08-08T06:12:02.000Z</time>
      </trkpt>
      <trkpt lat="42.94142" lon="0.34018">
        <ele>1396</ele>
        <time>2019-08-08T06:12:03.000Z</time>
      </trkpt>
      <trkpt lat="42.94138" lon="0.34045">
        <ele>1396</ele>
        <time>2019-08-08T06:12:04.000Z</time>
      </trkpt>
      <trkpt lat="42.94136" lon="0.34054">
        <ele>1394</ele>
        <time>2019-08-08T06:12:05.000Z</time>
      </trkpt>
      <trkpt lat="42.94133" lon="0.34072">
        <ele>1394</ele>
        <time>2019-08-08T06:12:06.000Z</time>
      </trkpt>
      <trkpt lat="42.94131" lon="0.3409">
        <ele>1391</ele>
        <time>2019-08-08T06:12:07.000Z</time>
      </trkpt>
      <trkpt lat="42.94129" lon="0.34108">
        <ele>1391</ele>
        <time>2019-08-08T06:12:08.000Z</time>
      </trkpt>
      <trkpt lat="42.94128" lon="0.34126">
        <ele>1388</ele>
        <time>2019-08-08T06:12:09.000Z</time>
      </trkpt>
      <trkpt lat="42.94126" lon="0.34143">
        <ele>1388</ele>
        <time>2019-08-08T06:12:10.000Z</time>
      </trkpt>
      <trkpt lat="42.94124" lon="0.3416">
        <ele>1386</ele>
        <time>2019-08-08T06:12:11.000Z</time>
      </trkpt>
      <trkpt lat="42.94121" lon="0.34176">
        <ele>1386</ele>
        <time>2019-08-08T06:12:12.000Z</time>
      </trkpt>
      <trkpt lat="42.94117" lon="0.34193">
        <ele>1383</ele>
        <time>2019-08-08T06:12:13.000Z</time>
      </trkpt>
      <trkpt lat="42.94113" lon="0.34209">
        <ele>1383</ele>
        <time>2019-08-08T06:12:14.000Z</time>
      </trkpt>
      <trkpt lat="42.94109" lon="0.34226">
        <ele>1380</ele>
        <time>2019-08-08T06:12:15.000Z</time>
      </trkpt>
      <trkpt lat="42.94104" lon="0.34243">
        <ele>1380</ele>
        <time>2019-08-08T06:12:16.000Z</time>
      </trkpt>
      <trkpt lat="42.941" lon="0.3426">
        <ele>1379</ele>
        <time>2019-08-08T06:12:17.000Z</time>
      </trkpt>
      <trkpt lat="42.94095" lon="0.34277">
        <ele>1379</ele>
        <time>2019-08-08T06:12:18.000Z</time>
      </trkpt>
      <trkpt lat="42.9409" lon="0.34294">
        <ele>1378</ele>
        <time>2019-08-08T06:12:19.000Z</time>
      </trkpt>
      <trkpt lat="42.94085" lon="0.3431">
        <ele>1378</ele>
        <time>2019-08-08T06:12:20.000Z</time>
      </trkpt>
      <trkpt lat="42.94081" lon="0.34326">
        <ele>1374</ele>
        <time>2019-08-08T06:12:21.000Z</time>
      </trkpt>
      <trkpt lat="42.94077" lon="0.34342">
        <ele>1374</ele>
        <time>2019-08-08T06:12:22.000Z</time>
      </trkpt>
      <trkpt lat="42.94073" lon="0.34366">
        <ele>1374</ele>
        <time>2019-08-08T06:12:23.000Z</time>
      </trkpt>
      <trkpt lat="42.94072" lon="0.34374">
        <ele>1372</ele>
        <time>2019-08-08T06:12:24.000Z</time>
      </trkpt>
      <trkpt lat="42.9407" lon="0.3439">
        <ele>1369</ele>
        <time>2019-08-08T06:12:25.000Z</time>
      </trkpt>
      <trkpt lat="42.94069" lon="0.34406">
        <ele>1369</ele>
        <time>2019-08-08T06:12:26.000Z</time>
      </trkpt>
      <trkpt lat="42.9407" lon="0.3442">
        <ele>1369</ele>
        <time>2019-08-08T06:12:27.000Z</time>
      </trkpt>
      <trkpt lat="42.94075" lon="0.34431">
        <ele>1369</ele>
        <time>2019-08-08T06:12:28.000Z</time>
      </trkpt>
      <trkpt lat="42.9408" lon="0.34439">
        <ele>1369</ele>
        <time>2019-08-08T06:12:29.000Z</time>
      </trkpt>
      <trkpt lat="42.94086" lon="0.34447">
        <ele>1369</ele>
        <time>2019-08-08T06:12:30.000Z</time>
      </trkpt>
      <trkpt lat="42.94089" lon="0.34456">
        <ele>1368</ele>
        <time>2019-08-08T06:12:31.000Z</time>
      </trkpt>
      <trkpt lat="42.94088" lon="0.34466">
        <ele>1368</ele>
        <time>2019-08-08T06:12:32.000Z</time>
      </trkpt>
      <trkpt lat="42.94084" lon="0.34475">
        <ele>1366</ele>
        <time>2019-08-08T06:12:33.000Z</time>
      </trkpt>
      <trkpt lat="42.94078" lon="0.34478">
        <ele>1366</ele>
        <time>2019-08-08T06:12:34.000Z</time>
      </trkpt>
      <trkpt lat="42.94071" lon="0.34476">
        <ele>1365</ele>
        <time>2019-08-08T06:12:35.000Z</time>
      </trkpt>
      <trkpt lat="42.94066" lon="0.34468">
        <ele>1365</ele>
        <time>2019-08-08T06:12:36.000Z</time>
      </trkpt>
      <trkpt lat="42.94061" lon="0.34458">
        <ele>1363</ele>
        <time>2019-08-08T06:12:37.000Z</time>
      </trkpt>
      <trkpt lat="42.94058" lon="0.34447">
        <ele>1363</ele>
        <time>2019-08-08T06:12:38.000Z</time>
      </trkpt>
      <trkpt lat="42.94054" lon="0.34435">
        <ele>1362</ele>
        <time>2019-08-08T06:12:39.000Z</time>
      </trkpt>
      <trkpt lat="42.9405" lon="0.34423">
        <ele>1362</ele>
        <time>2019-08-08T06:12:40.000Z</time>
      </trkpt>
      <trkpt lat="42.94046" lon="0.34409">
        <ele>1360</ele>
        <time>2019-08-08T06:12:41.000Z</time>
      </trkpt>
      <trkpt lat="42.94042" lon="0.34396">
        <ele>1360</ele>
        <time>2019-08-08T06:12:42.000Z</time>
      </trkpt>
      <trkpt lat="42.94039" lon="0.34382">
        <ele>1359</ele>
        <time>2019-08-08T06:12:43.000Z</time>
      </trkpt>
      <trkpt lat="42.94037" lon="0.34367">
        <ele>1359</ele>
        <time>2019-08-08T06:12:44.000Z</time>
      </trkpt>
      <trkpt lat="42.94037" lon="0.34351">
        <ele>1359</ele>
        <time>2019-08-08T06:12:45.000Z</time>
      </trkpt>
      <trkpt lat="42.94037" lon="0.34336">
        <ele>1357</ele>
        <time>2019-08-08T06:12:46.000Z</time>
      </trkpt>
      <trkpt lat="42.94038" lon="0.3432">
        <ele>1357</ele>
        <time>2019-08-08T06:12:47.000Z</time>
      </trkpt>
      <trkpt lat="42.94039" lon="0.34304">
        <ele>1354</ele>
        <time>2019-08-08T06:12:48.000Z</time>
      </trkpt>
      <trkpt lat="42.9404" lon="0.34287">
        <ele>1354</ele>
        <time>2019-08-08T06:12:49.000Z</time>
      </trkpt>
      <trkpt lat="42.94042" lon="0.34271">
        <ele>1352</ele>
        <time>2019-08-08T06:12:50.000Z</time>
      </trkpt>
      <trkpt lat="42.94044" lon="0.34253">
        <ele>1352</ele>
        <time>2019-08-08T06:12:51.000Z</time>
      </trkpt>
      <trkpt lat="42.94046" lon="0.34236">
        <ele>1351</ele>
        <time>2019-08-08T06:12:52.000Z</time>
      </trkpt>
      <trkpt lat="42.94048" lon="0.34218">
        <ele>1351</ele>
        <time>2019-08-08T06:12:53.000Z</time>
      </trkpt>
      <trkpt lat="42.94051" lon="0.34201">
        <ele>1349</ele>
        <time>2019-08-08T06:12:54.000Z</time>
      </trkpt>
      <trkpt lat="42.94053" lon="0.34184">
        <ele>1349</ele>
        <time>2019-08-08T06:12:55.000Z</time>
      </trkpt>
      <trkpt lat="42.94055" lon="0.34168">
        <ele>1346</ele>
        <time>2019-08-08T06:12:56.000Z</time>
      </trkpt>
      <trkpt lat="42.94056" lon="0.34152">
        <ele>1346</ele>
        <time>2019-08-08T06:12:57.000Z</time>
      </trkpt>
      <trkpt lat="42.94054" lon="0.34137">
        <ele>1344</ele>
        <time>2019-08-08T06:12:58.000Z</time>
      </trkpt>
      <trkpt lat="42.9405" lon="0.34122">
        <ele>1344</ele>
        <time>2019-08-08T06:12:59.000Z</time>
      </trkpt>
      <trkpt lat="42.94043" lon="0.3411">
        <ele>1341</ele>
        <time>2019-08-08T06:13:00.000Z</time>
      </trkpt>
      <trkpt lat="42.9403" lon="0.34096">
        <ele>1341</ele>
        <time>2019-08-08T06:13:01.000Z</time>
      </trkpt>
      <trkpt lat="42.94027" lon="0.34091">
        <ele>1341</ele>
        <time>2019-08-08T06:13:02.000Z</time>
      </trkpt>
      <trkpt lat="42.9402" lon="0.34081">
        <ele>1341</ele>
        <time>2019-08-08T06:13:03.000Z</time>
      </trkpt>
      <trkpt lat="42.94015" lon="0.34068">
        <ele>1341</ele>
        <time>2019-08-08T06:13:04.000Z</time>
      </trkpt>
      <trkpt lat="42.94012" lon="0.34054">
        <ele>1339</ele>
        <time>2019-08-08T06:13:05.000Z</time>
      </trkpt>
      <trkpt lat="42.94009" lon="0.34039">
        <ele>1339</ele>
        <time>2019-08-08T06:13:06.000Z</time>
      </trkpt>
      <trkpt lat="42.94007" lon="0.34024">
        <ele>1336</ele>
        <time>2019-08-08T06:13:07.000Z</time>
      </trkpt>
      <trkpt lat="42.94006" lon="0.34008">
        <ele>1336</ele>
        <time>2019-08-08T06:13:08.000Z</time>
      </trkpt>
      <trkpt lat="42.94005" lon="0.33992">
        <ele>1335</ele>
        <time>2019-08-08T06:13:09.000Z</time>
      </trkpt>
      <trkpt lat="42.94004" lon="0.33975">
        <ele>1335</ele>
        <time>2019-08-08T06:13:10.000Z</time>
      </trkpt>
      <trkpt lat="42.94004" lon="0.33958">
        <ele>1334</ele>
        <time>2019-08-08T06:13:11.000Z</time>
      </trkpt>
      <trkpt lat="42.94004" lon="0.33941">
        <ele>1334</ele>
        <time>2019-08-08T06:13:12.000Z</time>
      </trkpt>
      <trkpt lat="42.94005" lon="0.33924">
        <ele>1329</ele>
        <time>2019-08-08T06:13:13.000Z</time>
      </trkpt>
      <trkpt lat="42.94006" lon="0.33906">
        <ele>1329</ele>
        <time>2019-08-08T06:13:14.000Z</time>
      </trkpt>
      <trkpt lat="42.94008" lon="0.33887">
        <ele>1326</ele>
        <time>2019-08-08T06:13:15.000Z</time>
      </trkpt>
      <trkpt lat="42.9401" lon="0.33869">
        <ele>1326</ele>
        <time>2019-08-08T06:13:16.000Z</time>
      </trkpt>
      <trkpt lat="42.94012" lon="0.3385">
        <ele>1324</ele>
        <time>2019-08-08T06:13:17.000Z</time>
      </trkpt>
      <trkpt lat="42.94014" lon="0.33831">
        <ele>1324</ele>
        <time>2019-08-08T06:13:18.000Z</time>
      </trkpt>
      <trkpt lat="42.94017" lon="0.33812">
        <ele>1323</ele>
        <time>2019-08-08T06:13:19.000Z</time>
      </trkpt>
      <trkpt lat="42.9402" lon="0.33794">
        <ele>1323</ele>
        <time>2019-08-08T06:13:20.000Z</time>
      </trkpt>
      <trkpt lat="42.94024" lon="0.33769">
        <ele>1320</ele>
        <time>2019-08-08T06:13:21.000Z</time>
      </trkpt>
      <trkpt lat="42.94026" lon="0.33761">
        <ele>1320</ele>
        <time>2019-08-08T06:13:22.000Z</time>
      </trkpt>
      <trkpt lat="42.9403" lon="0.33745">
        <ele>1320</ele>
        <time>2019-08-08T06:13:23.000Z</time>
      </trkpt>
      <trkpt lat="42.94036" lon="0.3373">
        <ele>1320</ele>
        <time>2019-08-08T06:13:24.000Z</time>
      </trkpt>
      <trkpt lat="42.94043" lon="0.33716">
        <ele>1314</ele>
        <time>2019-08-08T06:13:25.000Z</time>
      </trkpt>
      <trkpt lat="42.94052" lon="0.33703">
        <ele>1314</ele>
        <time>2019-08-08T06:13:26.000Z</time>
      </trkpt>
      <trkpt lat="42.94061" lon="0.3369">
        <ele>1313</ele>
        <time>2019-08-08T06:13:27.000Z</time>
      </trkpt>
      <trkpt lat="42.94069" lon="0.33676">
        <ele>1313</ele>
        <time>2019-08-08T06:13:28.000Z</time>
      </trkpt>
      <trkpt lat="42.94077" lon="0.33663">
        <ele>1312</ele>
        <time>2019-08-08T06:13:29.000Z</time>
      </trkpt>
      <trkpt lat="42.94084" lon="0.33649">
        <ele>1312</ele>
        <time>2019-08-08T06:13:30.000Z</time>
      </trkpt>
      <trkpt lat="42.9409" lon="0.33634">
        <ele>1310</ele>
        <time>2019-08-08T06:13:31.000Z</time>
      </trkpt>
      <trkpt lat="42.94095" lon="0.3362">
        <ele>1310</ele>
        <time>2019-08-08T06:13:32.000Z</time>
      </trkpt>
      <trkpt lat="42.94102" lon="0.33609">
        <ele>1309</ele>
        <time>2019-08-08T06:13:33.000Z</time>
      </trkpt>
      <trkpt lat="42.9411" lon="0.336">
        <ele>1309</ele>
        <time>2019-08-08T06:13:34.000Z</time>
      </trkpt>
      <trkpt lat="42.94119" lon="0.33593">
        <ele>1308</ele>
        <time>2019-08-08T06:13:35.000Z</time>
      </trkpt>
      <trkpt lat="42.94128" lon="0.33585">
        <ele>1308</ele>
        <time>2019-08-08T06:13:36.000Z</time>
      </trkpt>
      <trkpt lat="42.94135" lon="0.33574">
        <ele>1305</ele>
        <time>2019-08-08T06:13:37.000Z</time>
      </trkpt>
      <trkpt lat="42.94139" lon="0.33563">
        <ele>1305</ele>
        <time>2019-08-08T06:13:38.000Z</time>
      </trkpt>
      <trkpt lat="42.9414" lon="0.33551">
        <ele>1304</ele>
        <time>2019-08-08T06:13:39.000Z</time>
      </trkpt>
      <trkpt lat="42.94137" lon="0.3354">
        <ele>1304</ele>
        <time>2019-08-08T06:13:40.000Z</time>
      </trkpt>
      <trkpt lat="42.94133" lon="0.33532">
        <ele>1304</ele>
        <time>2019-08-08T06:13:41.000Z</time>
      </trkpt>
      <trkpt lat="42.94126" lon="0.33527">
        <ele>1303</ele>
        <time>2019-08-08T06:13:42.000Z</time>
      </trkpt>
      <trkpt lat="42.94118" lon="0.33527">
        <ele>1303</ele>
        <time>2019-08-08T06:13:43.000Z</time>
      </trkpt>
      <trkpt lat="42.94111" lon="0.33532">
        <ele>1302</ele>
        <time>2019-08-08T06:13:44.000Z</time>
      </trkpt>
      <trkpt lat="42.94105" lon="0.33541">
        <ele>1302</ele>
        <time>2019-08-08T06:13:45.000Z</time>
      </trkpt>
      <trkpt lat="42.94101" lon="0.33551">
        <ele>1301</ele>
        <time>2019-08-08T06:13:46.000Z</time>
      </trkpt>
      <trkpt lat="42.94098" lon="0.33563">
        <ele>1301</ele>
        <time>2019-08-08T06:13:47.000Z</time>
      </trkpt>
      <trkpt lat="42.94094" lon="0.33575">
        <ele>1299</ele>
        <time>2019-08-08T06:13:48.000Z</time>
      </trkpt>
      <trkpt lat="42.94089" lon="0.33587">
        <ele>1299</ele>
        <time>2019-08-08T06:13:49.000Z</time>
      </trkpt>
      <trkpt lat="42.94083" lon="0.33599">
        <ele>1298</ele>
        <time>2019-08-08T06:13:50.000Z</time>
      </trkpt>
      <trkpt lat="42.94077" lon="0.3361">
        <ele>1298</ele>
        <time>2019-08-08T06:13:51.000Z</time>
      </trkpt>
      <trkpt lat="42.9407" lon="0.33621">
        <ele>1295</ele>
        <time>2019-08-08T06:13:52.000Z</time>
      </trkpt>
      <trkpt lat="42.94062" lon="0.33632">
        <ele>1295</ele>
        <time>2019-08-08T06:13:53.000Z</time>
      </trkpt>
      <trkpt lat="42.94054" lon="0.33642">
        <ele>1294</ele>
        <time>2019-08-08T06:13:54.000Z</time>
      </trkpt>
      <trkpt lat="42.94045" lon="0.33652">
        <ele>1294</ele>
        <time>2019-08-08T06:13:55.000Z</time>
      </trkpt>
      <trkpt lat="42.94034" lon="0.33663">
        <ele>1293</ele>
        <time>2019-08-08T06:13:56.000Z</time>
      </trkpt>
      <trkpt lat="42.94024" lon="0.33672">
        <ele>1293</ele>
        <time>2019-08-08T06:13:57.000Z</time>
      </trkpt>
      <trkpt lat="42.94013" lon="0.33681">
        <ele>1290</ele>
        <time>2019-08-08T06:13:58.000Z</time>
      </trkpt>
      <trkpt lat="42.94002" lon="0.3369">
        <ele>1290</ele>
        <time>2019-08-08T06:13:59.000Z</time>
      </trkpt>
      <trkpt lat="42.93991" lon="0.33697">
        <ele>1290</ele>
        <time>2019-08-08T06:14:00.000Z</time>
      </trkpt>
      <trkpt lat="42.9398" lon="0.33703">
        <ele>1287</ele>
        <time>2019-08-08T06:14:01.000Z</time>
      </trkpt>
      <trkpt lat="42.93969" lon="0.33709">
        <ele>1287</ele>
        <time>2019-08-08T06:14:02.000Z</time>
      </trkpt>
      <trkpt lat="42.9396" lon="0.33718">
        <ele>1286</ele>
        <time>2019-08-08T06:14:03.000Z</time>
      </trkpt>
      <trkpt lat="42.93953" lon="0.33732">
        <ele>1286</ele>
        <time>2019-08-08T06:14:04.000Z</time>
      </trkpt>
      <trkpt lat="42.93946" lon="0.33748">
        <ele>1283</ele>
        <time>2019-08-08T06:14:05.000Z</time>
      </trkpt>
      <trkpt lat="42.93941" lon="0.33764">
        <ele>1280</ele>
        <time>2019-08-08T06:14:06.000Z</time>
      </trkpt>
      <trkpt lat="42.93936" lon="0.33781">
        <ele>1280</ele>
        <time>2019-08-08T06:14:07.000Z</time>
      </trkpt>
      <trkpt lat="42.93929" lon="0.33797">
        <ele>1279</ele>
        <time>2019-08-08T06:14:08.000Z</time>
      </trkpt>
      <trkpt lat="42.93923" lon="0.33813">
        <ele>1279</ele>
        <time>2019-08-08T06:14:09.000Z</time>
      </trkpt>
      <trkpt lat="42.93916" lon="0.33829">
        <ele>1276</ele>
        <time>2019-08-08T06:14:10.000Z</time>
      </trkpt>
      <trkpt lat="42.93908" lon="0.33844">
        <ele>1276</ele>
        <time>2019-08-08T06:14:11.000Z</time>
      </trkpt>
      <trkpt lat="42.939" lon="0.3386">
        <ele>1273</ele>
        <time>2019-08-08T06:14:12.000Z</time>
      </trkpt>
      <trkpt lat="42.93892" lon="0.33875">
        <ele>1273</ele>
        <time>2019-08-08T06:14:13.000Z</time>
      </trkpt>
      <trkpt lat="42.93883" lon="0.3389">
        <ele>1271</ele>
        <time>2019-08-08T06:14:14.000Z</time>
      </trkpt>
      <trkpt lat="42.93874" lon="0.33905">
        <ele>1271</ele>
        <time>2019-08-08T06:14:15.000Z</time>
      </trkpt>
      <trkpt lat="42.93864" lon="0.3392">
        <ele>1270</ele>
        <time>2019-08-08T06:14:16.000Z</time>
      </trkpt>
      <trkpt lat="42.93849" lon="0.3394">
        <ele>1270</ele>
        <time>2019-08-08T06:14:17.000Z</time>
      </trkpt>
      <trkpt lat="42.93844" lon="0.33947">
        <ele>1269</ele>
        <time>2019-08-08T06:14:18.000Z</time>
      </trkpt>
      <trkpt lat="42.93834" lon="0.3396">
        <ele>1268</ele>
        <time>2019-08-08T06:14:19.000Z</time>
      </trkpt>
      <trkpt lat="42.93825" lon="0.33974">
        <ele>1268</ele>
        <time>2019-08-08T06:14:20.000Z</time>
      </trkpt>
      <trkpt lat="42.93817" lon="0.33988">
        <ele>1263</ele>
        <time>2019-08-08T06:14:21.000Z</time>
      </trkpt>
      <trkpt lat="42.93809" lon="0.34002">
        <ele>1263</ele>
        <time>2019-08-08T06:14:22.000Z</time>
      </trkpt>
      <trkpt lat="42.93802" lon="0.34015">
        <ele>1261</ele>
        <time>2019-08-08T06:14:23.000Z</time>
      </trkpt>
      <trkpt lat="42.93797" lon="0.3403">
        <ele>1261</ele>
        <time>2019-08-08T06:14:24.000Z</time>
      </trkpt>
      <trkpt lat="42.93793" lon="0.34045">
        <ele>1259</ele>
        <time>2019-08-08T06:14:25.000Z</time>
      </trkpt>
      <trkpt lat="42.93791" lon="0.3406">
        <ele>1259</ele>
        <time>2019-08-08T06:14:26.000Z</time>
      </trkpt>
      <trkpt lat="42.93791" lon="0.34074">
        <ele>1259</ele>
        <time>2019-08-08T06:14:27.000Z</time>
      </trkpt>
      <trkpt lat="42.93794" lon="0.34088">
        <ele>1259</ele>
        <time>2019-08-08T06:14:28.000Z</time>
      </trkpt>
      <trkpt lat="42.938" lon="0.34099">
        <ele>1258</ele>
        <time>2019-08-08T06:14:29.000Z</time>
      </trkpt>
      <trkpt lat="42.93809" lon="0.34107">
        <ele>1258</ele>
        <time>2019-08-08T06:14:30.000Z</time>
      </trkpt>
      <trkpt lat="42.93819" lon="0.34112">
        <ele>1254</ele>
        <time>2019-08-08T06:14:31.000Z</time>
      </trkpt>
      <trkpt lat="42.93828" lon="0.34118">
        <ele>1254</ele>
        <time>2019-08-08T06:14:32.000Z</time>
      </trkpt>
      <trkpt lat="42.93836" lon="0.34128">
        <ele>1252</ele>
        <time>2019-08-08T06:14:33.000Z</time>
      </trkpt>
      <trkpt lat="42.93842" lon="0.34141">
        <ele>1252</ele>
        <time>2019-08-08T06:14:34.000Z</time>
      </trkpt>
      <trkpt lat="42.93847" lon="0.34154">
        <ele>1251</ele>
        <time>2019-08-08T06:14:35.000Z</time>
      </trkpt>
      <trkpt lat="42.93852" lon="0.34168">
        <ele>1251</ele>
        <time>2019-08-08T06:14:36.000Z</time>
      </trkpt>
      <trkpt lat="42.93856" lon="0.34181">
        <ele>1249</ele>
        <time>2019-08-08T06:14:37.000Z</time>
      </trkpt>
      <trkpt lat="42.93856" lon="0.34196">
        <ele>1249</ele>
        <time>2019-08-08T06:14:38.000Z</time>
      </trkpt>
      <trkpt lat="42.93852" lon="0.3421">
        <ele>1249</ele>
        <time>2019-08-08T06:14:39.000Z</time>
      </trkpt>
      <trkpt lat="42.93846" lon="0.34223">
        <ele>1247</ele>
        <time>2019-08-08T06:14:40.000Z</time>
      </trkpt>
      <trkpt lat="42.93839" lon="0.34235">
        <ele>1247</ele>
        <time>2019-08-08T06:14:41.000Z</time>
      </trkpt>
      <trkpt lat="42.93831" lon="0.34246">
        <ele>1247</ele>
        <time>2019-08-08T06:14:42.000Z</time>
      </trkpt>
      <trkpt lat="42.93823" lon="0.34257">
        <ele>1247</ele>
        <time>2019-08-08T06:14:43.000Z</time>
      </trkpt>
      <trkpt lat="42.93814" lon="0.34267">
        <ele>1246</ele>
        <time>2019-08-08T06:14:44.000Z</time>
      </trkpt>
      <trkpt lat="42.93805" lon="0.34277">
        <ele>1246</ele>
        <time>2019-08-08T06:14:45.000Z</time>
      </trkpt>
      <trkpt lat="42.93795" lon="0.34287">
        <ele>1243</ele>
        <time>2019-08-08T06:14:46.000Z</time>
      </trkpt>
      <trkpt lat="42.93785" lon="0.34296">
        <ele>1243</ele>
        <time>2019-08-08T06:14:47.000Z</time>
      </trkpt>
      <trkpt lat="42.93774" lon="0.34305">
        <ele>1240</ele>
        <time>2019-08-08T06:14:48.000Z</time>
      </trkpt>
      <trkpt lat="42.93763" lon="0.34314">
        <ele>1240</ele>
        <time>2019-08-08T06:14:49.000Z</time>
      </trkpt>
      <trkpt lat="42.93752" lon="0.34324">
        <ele>1238</ele>
        <time>2019-08-08T06:14:50.000Z</time>
      </trkpt>
      <trkpt lat="42.93741" lon="0.34334">
        <ele>1238</ele>
        <time>2019-08-08T06:14:51.000Z</time>
      </trkpt>
      <trkpt lat="42.9373" lon="0.34344">
        <ele>1236</ele>
        <time>2019-08-08T06:14:52.000Z</time>
      </trkpt>
      <trkpt lat="42.93719" lon="0.34355">
        <ele>1236</ele>
        <time>2019-08-08T06:14:53.000Z</time>
      </trkpt>
      <trkpt lat="42.93708" lon="0.34367">
        <ele>1232</ele>
        <time>2019-08-08T06:14:54.000Z</time>
      </trkpt>
      <trkpt lat="42.93691" lon="0.34386">
        <ele>1232</ele>
        <time>2019-08-08T06:14:55.000Z</time>
      </trkpt>
      <trkpt lat="42.93686" lon="0.34392">
        <ele>1231.6</ele>
        <time>2019-08-08T06:14:56.000Z</time>
      </trkpt>
      <trkpt lat="42.93674" lon="0.34405">
        <ele>1231</ele>
        <time>2019-08-08T06:14:57.000Z</time>
      </trkpt>
      <trkpt lat="42.93663" lon="0.34418">
        <ele>1231</ele>
        <time>2019-08-08T06:14:58.000Z</time>
      </trkpt>
      <trkpt lat="42.93652" lon="0.34432">
        <ele>1227</ele>
        <time>2019-08-08T06:14:59.000Z</time>
      </trkpt>
      <trkpt lat="42.93641" lon="0.34446">
        <ele>1227</ele>
        <time>2019-08-08T06:15:00.000Z</time>
      </trkpt>
      <trkpt lat="42.93629" lon="0.3446">
        <ele>1223</ele>
        <time>2019-08-08T06:15:01.000Z</time>
      </trkpt>
      <trkpt lat="42.93611" lon="0.34479">
        <ele>1223</ele>
        <time>2019-08-08T06:15:02.000Z</time>
      </trkpt>
      <trkpt lat="42.93605" lon="0.34485">
        <ele>1222</ele>
        <time>2019-08-08T06:15:03.000Z</time>
      </trkpt>
      <trkpt lat="42.93592" lon="0.34497">
        <ele>1221</ele>
        <time>2019-08-08T06:15:04.000Z</time>
      </trkpt>
      <trkpt lat="42.93579" lon="0.34509">
        <ele>1216</ele>
        <time>2019-08-08T06:15:05.000Z</time>
      </trkpt>
      <trkpt lat="42.93566" lon="0.3452">
        <ele>1216</ele>
        <time>2019-08-08T06:15:06.000Z</time>
      </trkpt>
      <trkpt lat="42.93553" lon="0.34531">
        <ele>1215</ele>
        <time>2019-08-08T06:15:07.000Z</time>
      </trkpt>
      <trkpt lat="42.9354" lon="0.34543">
        <ele>1215</ele>
        <time>2019-08-08T06:15:08.000Z</time>
      </trkpt>
      <trkpt lat="42.93527" lon="0.34554">
        <ele>1214</ele>
        <time>2019-08-08T06:15:09.000Z</time>
      </trkpt>
      <trkpt lat="42.93514" lon="0.34565">
        <ele>1214</ele>
        <time>2019-08-08T06:15:10.000Z</time>
      </trkpt>
      <trkpt lat="42.93501" lon="0.34575">
        <ele>1211</ele>
        <time>2019-08-08T06:15:11.000Z</time>
      </trkpt>
      <trkpt lat="42.93488" lon="0.34585">
        <ele>1211</ele>
        <time>2019-08-08T06:15:12.000Z</time>
      </trkpt>
      <trkpt lat="42.93476" lon="0.34593">
        <ele>1208</ele>
        <time>2019-08-08T06:15:13.000Z</time>
      </trkpt>
      <trkpt lat="42.93463" lon="0.34601">
        <ele>1208</ele>
        <time>2019-08-08T06:15:14.000Z</time>
      </trkpt>
      <trkpt lat="42.9345" lon="0.34609">
        <ele>1207</ele>
        <time>2019-08-08T06:15:15.000Z</time>
      </trkpt>
      <trkpt lat="42.93437" lon="0.34617">
        <ele>1207</ele>
        <time>2019-08-08T06:15:16.000Z</time>
      </trkpt>
      <trkpt lat="42.93424" lon="0.34624">
        <ele>1207</ele>
        <time>2019-08-08T06:15:17.000Z</time>
      </trkpt>
      <trkpt lat="42.93411" lon="0.34631">
        <ele>1202</ele>
        <time>2019-08-08T06:15:18.000Z</time>
      </trkpt>
      <trkpt lat="42.93397" lon="0.34638">
        <ele>1202</ele>
        <time>2019-08-08T06:15:19.000Z</time>
      </trkpt>
      <trkpt lat="42.93383" lon="0.34644">
        <ele>1199</ele>
        <time>2019-08-08T06:15:20.000Z</time>
      </trkpt>
      <trkpt lat="42.9337" lon="0.34649">
        <ele>1199</ele>
        <time>2019-08-08T06:15:21.000Z</time>
      </trkpt>
      <trkpt lat="42.93357" lon="0.34655">
        <ele>1198</ele>
        <time>2019-08-08T06:15:22.000Z</time>
      </trkpt>
      <trkpt lat="42.93344" lon="0.3466">
        <ele>1198</ele>
        <time>2019-08-08T06:15:23.000Z</time>
      </trkpt>
      <trkpt lat="42.93331" lon="0.34666">
        <ele>1195</ele>
        <time>2019-08-08T06:15:24.000Z</time>
      </trkpt>
      <trkpt lat="42.93319" lon="0.34672">
        <ele>1195</ele>
        <time>2019-08-08T06:15:25.000Z</time>
      </trkpt>
      <trkpt lat="42.93306" lon="0.34679">
        <ele>1190</ele>
        <time>2019-08-08T06:15:26.000Z</time>
      </trkpt>
      <trkpt lat="42.93293" lon="0.34687">
        <ele>1190</ele>
        <time>2019-08-08T06:15:27.000Z</time>
      </trkpt>
      <trkpt lat="42.93282" lon="0.34693">
        <ele>1188</ele>
        <time>2019-08-08T06:15:28.000Z</time>
      </trkpt>
      <trkpt lat="42.9327" lon="0.34699">
        <ele>1188</ele>
        <time>2019-08-08T06:15:29.000Z</time>
      </trkpt>
      <trkpt lat="42.9326" lon="0.34704">
        <ele>1188</ele>
        <time>2019-08-08T06:15:30.000Z</time>
      </trkpt>
      <trkpt lat="42.93248" lon="0.34709">
        <ele>1188</ele>
        <time>2019-08-08T06:15:31.000Z</time>
      </trkpt>
      <trkpt lat="42.93237" lon="0.34714">
        <ele>1184</ele>
        <time>2019-08-08T06:15:32.000Z</time>
      </trkpt>
      <trkpt lat="42.93225" lon="0.3472">
        <ele>1184</ele>
        <time>2019-08-08T06:15:33.000Z</time>
      </trkpt>
      <trkpt lat="42.93215" lon="0.34727">
        <ele>1183</ele>
        <time>2019-08-08T06:15:34.000Z</time>
      </trkpt>
      <trkpt lat="42.93205" lon="0.34735">
        <ele>1183</ele>
        <time>2019-08-08T06:15:35.000Z</time>
      </trkpt>
      <trkpt lat="42.93194" lon="0.34744">
        <ele>1183</ele>
        <time>2019-08-08T06:15:36.000Z</time>
      </trkpt>
      <trkpt lat="42.93183" lon="0.34752">
        <ele>1179</ele>
        <time>2019-08-08T06:15:37.000Z</time>
      </trkpt>
      <trkpt lat="42.9317" lon="0.34762">
        <ele>1179</ele>
        <time>2019-08-08T06:15:38.000Z</time>
      </trkpt>
      <trkpt lat="42.93157" lon="0.34773">
        <ele>1175</ele>
        <time>2019-08-08T06:15:39.000Z</time>
      </trkpt>
      <trkpt lat="42.93144" lon="0.34784">
        <ele>1175</ele>
        <time>2019-08-08T06:15:40.000Z</time>
      </trkpt>
      <trkpt lat="42.93132" lon="0.34797">
        <ele>1174</ele>
        <time>2019-08-08T06:15:41.000Z</time>
      </trkpt>
      <trkpt lat="42.9312" lon="0.3481">
        <ele>1174</ele>
        <time>2019-08-08T06:15:42.000Z</time>
      </trkpt>
      <trkpt lat="42.93109" lon="0.34822">
        <ele>1170</ele>
        <time>2019-08-08T06:15:43.000Z</time>
      </trkpt>
      <trkpt lat="42.93098" lon="0.34835">
        <ele>1170</ele>
        <time>2019-08-08T06:15:44.000Z</time>
      </trkpt>
      <trkpt lat="42.93087" lon="0.34848">
        <ele>1169</ele>
        <time>2019-08-08T06:15:45.000Z</time>
      </trkpt>
      <trkpt lat="42.93075" lon="0.34861">
        <ele>1169</ele>
        <time>2019-08-08T06:15:46.000Z</time>
      </trkpt>
      <trkpt lat="42.93064" lon="0.34873">
        <ele>1165</ele>
        <time>2019-08-08T06:15:47.000Z</time>
      </trkpt>
      <trkpt lat="42.93053" lon="0.34886">
        <ele>1165</ele>
        <time>2019-08-08T06:15:48.000Z</time>
      </trkpt>
      <trkpt lat="42.93042" lon="0.34898">
        <ele>1163</ele>
        <time>2019-08-08T06:15:49.000Z</time>
      </trkpt>
      <trkpt lat="42.9303" lon="0.34909">
        <ele>1163</ele>
        <time>2019-08-08T06:15:50.000Z</time>
      </trkpt>
      <trkpt lat="42.93019" lon="0.34921">
        <ele>1159</ele>
        <time>2019-08-08T06:15:51.000Z</time>
      </trkpt>
      <trkpt lat="42.93001" lon="0.34937">
        <ele>1159</ele>
        <time>2019-08-08T06:15:52.000Z</time>
      </trkpt>
      <trkpt lat="42.92996" lon="0.34942">
        <ele>1157.6</ele>
        <time>2019-08-08T06:15:53.000Z</time>
      </trkpt>
      <trkpt lat="42.92984" lon="0.34953">
        <ele>1156</ele>
        <time>2019-08-08T06:15:54.000Z</time>
      </trkpt>
      <trkpt lat="42.92973" lon="0.34963">
        <ele>1156</ele>
        <time>2019-08-08T06:15:55.000Z</time>
      </trkpt>
      <trkpt lat="42.92962" lon="0.34973">
        <ele>1153</ele>
        <time>2019-08-08T06:15:56.000Z</time>
      </trkpt>
      <trkpt lat="42.92951" lon="0.34984">
        <ele>1153</ele>
        <time>2019-08-08T06:15:57.000Z</time>
      </trkpt>
      <trkpt lat="42.92941" lon="0.34994">
        <ele>1150</ele>
        <time>2019-08-08T06:15:58.000Z</time>
      </trkpt>
      <trkpt lat="42.9293" lon="0.35004">
        <ele>1150</ele>
        <time>2019-08-08T06:15:59.000Z</time>
      </trkpt>
      <trkpt lat="42.9292" lon="0.35015">
        <ele>1148</ele>
        <time>2019-08-08T06:16:00.000Z</time>
      </trkpt>
      <trkpt lat="42.9291" lon="0.35025">
        <ele>1148</ele>
        <time>2019-08-08T06:16:01.000Z</time>
      </trkpt>
      <trkpt lat="42.929" lon="0.35035">
        <ele>1146</ele>
        <time>2019-08-08T06:16:02.000Z</time>
      </trkpt>
      <trkpt lat="42.9289" lon="0.35044">
        <ele>1146</ele>
        <time>2019-08-08T06:16:03.000Z</time>
      </trkpt>
      <trkpt lat="42.9288" lon="0.35053">
        <ele>1144</ele>
        <time>2019-08-08T06:16:04.000Z</time>
      </trkpt>
      <trkpt lat="42.92869" lon="0.35062">
        <ele>1144</ele>
        <time>2019-08-08T06:16:05.000Z</time>
      </trkpt>
      <trkpt lat="42.92858" lon="0.3507">
        <ele>1141</ele>
        <time>2019-08-08T06:16:06.000Z</time>
      </trkpt>
      <trkpt lat="42.92847" lon="0.3508">
        <ele>1141</ele>
        <time>2019-08-08T06:16:07.000Z</time>
      </trkpt>
      <trkpt lat="42.92836" lon="0.35089">
        <ele>1138</ele>
        <time>2019-08-08T06:16:08.000Z</time>
      </trkpt>
      <trkpt lat="42.92824" lon="0.35098">
        <ele>1138</ele>
        <time>2019-08-08T06:16:09.000Z</time>
      </trkpt>
      <trkpt lat="42.92813" lon="0.35105">
        <ele>1136</ele>
        <time>2019-08-08T06:16:10.000Z</time>
      </trkpt>
      <trkpt lat="42.92795" lon="0.35114">
        <ele>1136</ele>
        <time>2019-08-08T06:16:11.000Z</time>
      </trkpt>
      <trkpt lat="42.92789" lon="0.35116">
        <ele>1134.4</ele>
        <time>2019-08-08T06:16:12.000Z</time>
      </trkpt>
      <trkpt lat="42.92777" lon="0.35121">
        <ele>1133</ele>
        <time>2019-08-08T06:16:13.000Z</time>
      </trkpt>
      <trkpt lat="42.92765" lon="0.35125">
        <ele>1133</ele>
        <time>2019-08-08T06:16:14.000Z</time>
      </trkpt>
      <trkpt lat="42.92752" lon="0.35127">
        <ele>1130</ele>
        <time>2019-08-08T06:16:15.000Z</time>
      </trkpt>
      <trkpt lat="42.9274" lon="0.35129">
        <ele>1130</ele>
        <time>2019-08-08T06:16:16.000Z</time>
      </trkpt>
      <trkpt lat="42.92728" lon="0.3513">
        <ele>1128</ele>
        <time>2019-08-08T06:16:17.000Z</time>
      </trkpt>
      <trkpt lat="42.92717" lon="0.35129">
        <ele>1127</ele>
        <time>2019-08-08T06:16:18.000Z</time>
      </trkpt>
      <trkpt lat="42.92706" lon="0.3513">
        <ele>1126</ele>
        <time>2019-08-08T06:16:19.000Z</time>
      </trkpt>
      <trkpt lat="42.92695" lon="0.35133">
        <ele>1126</ele>
        <time>2019-08-08T06:16:20.000Z</time>
      </trkpt>
      <trkpt lat="42.92685" lon="0.35139">
        <ele>1125</ele>
        <time>2019-08-08T06:16:21.000Z</time>
      </trkpt>
      <trkpt lat="42.92677" lon="0.35149">
        <ele>1123</ele>
        <time>2019-08-08T06:16:22.000Z</time>
      </trkpt>
      <trkpt lat="42.92669" lon="0.35161">
        <ele>1123</ele>
        <time>2019-08-08T06:16:23.000Z</time>
      </trkpt>
      <trkpt lat="42.92661" lon="0.35174">
        <ele>1122</ele>
        <time>2019-08-08T06:16:24.000Z</time>
      </trkpt>
      <trkpt lat="42.92653" lon="0.35186">
        <ele>1122</ele>
        <time>2019-08-08T06:16:25.000Z</time>
      </trkpt>
      <trkpt lat="42.92644" lon="0.352">
        <ele>1122</ele>
        <time>2019-08-08T06:16:26.000Z</time>
      </trkpt>
      <trkpt lat="42.92635" lon="0.35213">
        <ele>1117</ele>
        <time>2019-08-08T06:16:27.000Z</time>
      </trkpt>
      <trkpt lat="42.92626" lon="0.35227">
        <ele>1117</ele>
        <time>2019-08-08T06:16:28.000Z</time>
      </trkpt>
      <trkpt lat="42.92617" lon="0.35241">
        <ele>1117</ele>
        <time>2019-08-08T06:16:29.000Z</time>
      </trkpt>
      <trkpt lat="42.92608" lon="0.35254">
        <ele>1112</ele>
        <time>2019-08-08T06:16:30.000Z</time>
      </trkpt>
      <trkpt lat="42.92597" lon="0.35268">
        <ele>1110</ele>
        <time>2019-08-08T06:16:31.000Z</time>
      </trkpt>
      <trkpt lat="42.92587" lon="0.35281">
        <ele>1110</ele>
        <time>2019-08-08T06:16:32.000Z</time>
      </trkpt>
      <trkpt lat="42.92576" lon="0.35294">
        <ele>1110</ele>
        <time>2019-08-08T06:16:33.000Z</time>
      </trkpt>
      <trkpt lat="42.92566" lon="0.35307">
        <ele>1106</ele>
        <time>2019-08-08T06:16:34.000Z</time>
      </trkpt>
      <trkpt lat="42.92556" lon="0.35321">
        <ele>1104</ele>
        <time>2019-08-08T06:16:35.000Z</time>
      </trkpt>
      <trkpt lat="42.92548" lon="0.35334">
        <ele>1104</ele>
        <time>2019-08-08T06:16:36.000Z</time>
      </trkpt>
      <trkpt lat="42.9254" lon="0.35346">
        <ele>1104</ele>
        <time>2019-08-08T06:16:37.000Z</time>
      </trkpt>
      <trkpt lat="42.92533" lon="0.35358">
        <ele>1103</ele>
        <time>2019-08-08T06:16:38.000Z</time>
      </trkpt>
      <trkpt lat="42.92527" lon="0.35371">
        <ele>1103</ele>
        <time>2019-08-08T06:16:39.000Z</time>
      </trkpt>
      <trkpt lat="42.92524" lon="0.35385">
        <ele>1102</ele>
        <time>2019-08-08T06:16:40.000Z</time>
      </trkpt>
      <trkpt lat="42.92524" lon="0.35398">
        <ele>1102</ele>
        <time>2019-08-08T06:16:41.000Z</time>
      </trkpt>
      <trkpt lat="42.92522" lon="0.3541">
        <ele>1101</ele>
        <time>2019-08-08T06:16:42.000Z</time>
      </trkpt>
      <trkpt lat="42.92517" lon="0.35419">
        <ele>1101</ele>
        <time>2019-08-08T06:16:43.000Z</time>
      </trkpt>
      <trkpt lat="42.9251" lon="0.35424">
        <ele>1100</ele>
        <time>2019-08-08T06:16:44.000Z</time>
      </trkpt>
      <trkpt lat="42.92502" lon="0.35422">
        <ele>1100</ele>
        <time>2019-08-08T06:16:45.000Z</time>
      </trkpt>
      <trkpt lat="42.92497" lon="0.35415">
        <ele>1098</ele>
        <time>2019-08-08T06:16:46.000Z</time>
      </trkpt>
      <trkpt lat="42.92494" lon="0.35405">
        <ele>1097</ele>
        <time>2019-08-08T06:16:47.000Z</time>
      </trkpt>
      <trkpt lat="42.92496" lon="0.35394">
        <ele>1097</ele>
        <time>2019-08-08T06:16:48.000Z</time>
      </trkpt>
      <trkpt lat="42.92499" lon="0.35382">
        <ele>1097</ele>
        <time>2019-08-08T06:16:49.000Z</time>
      </trkpt>
      <trkpt lat="42.92503" lon="0.35371">
        <ele>1097</ele>
        <time>2019-08-08T06:16:50.000Z</time>
      </trkpt>
      <trkpt lat="42.92507" lon="0.35359">
        <ele>1097</ele>
        <time>2019-08-08T06:16:51.000Z</time>
      </trkpt>
      <trkpt lat="42.92511" lon="0.35347">
        <ele>1097</ele>
        <time>2019-08-08T06:16:52.000Z</time>
      </trkpt>
      <trkpt lat="42.92515" lon="0.35334">
        <ele>1094</ele>
        <time>2019-08-08T06:16:53.000Z</time>
      </trkpt>
      <trkpt lat="42.92519" lon="0.35321">
        <ele>1093</ele>
        <time>2019-08-08T06:16:54.000Z</time>
      </trkpt>
      <trkpt lat="42.92523" lon="0.35308">
        <ele>1093</ele>
        <time>2019-08-08T06:16:55.000Z</time>
      </trkpt>
      <trkpt lat="42.92526" lon="0.35294">
        <ele>1092</ele>
        <time>2019-08-08T06:16:56.000Z</time>
      </trkpt>
      <trkpt lat="42.92529" lon="0.35279">
        <ele>1092</ele>
        <time>2019-08-08T06:16:57.000Z</time>
      </trkpt>
      <trkpt lat="42.92532" lon="0.35264">
        <ele>1090</ele>
        <time>2019-08-08T06:16:58.000Z</time>
      </trkpt>
      <trkpt lat="42.92535" lon="0.35249">
        <ele>1090</ele>
        <time>2019-08-08T06:16:59.000Z</time>
      </trkpt>
      <trkpt lat="42.92538" lon="0.35233">
        <ele>1088</ele>
        <time>2019-08-08T06:17:00.000Z</time>
      </trkpt>
      <trkpt lat="42.92541" lon="0.35218">
        <ele>1088</ele>
        <time>2019-08-08T06:17:01.000Z</time>
      </trkpt>
      <trkpt lat="42.92545" lon="0.35202">
        <ele>1088</ele>
        <time>2019-08-08T06:17:02.000Z</time>
      </trkpt>
      <trkpt lat="42.9255" lon="0.35187">
        <ele>1086</ele>
        <time>2019-08-08T06:17:03.000Z</time>
      </trkpt>
      <trkpt lat="42.92555" lon="0.35171">
        <ele>1086</ele>
        <time>2019-08-08T06:17:04.000Z</time>
      </trkpt>
      <trkpt lat="42.9256" lon="0.35156">
        <ele>1084</ele>
        <time>2019-08-08T06:17:05.000Z</time>
      </trkpt>
      <trkpt lat="42.92567" lon="0.3514">
        <ele>1084</ele>
        <time>2019-08-08T06:17:06.000Z</time>
      </trkpt>
      <trkpt lat="42.92573" lon="0.35124">
        <ele>1081</ele>
        <time>2019-08-08T06:17:07.000Z</time>
      </trkpt>
      <trkpt lat="42.9258" lon="0.35108">
        <ele>1079</ele>
        <time>2019-08-08T06:17:08.000Z</time>
      </trkpt>
      <trkpt lat="42.92586" lon="0.35092">
        <ele>1079</ele>
        <time>2019-08-08T06:17:09.000Z</time>
      </trkpt>
      <trkpt lat="42.92593" lon="0.35076">
        <ele>1079</ele>
        <time>2019-08-08T06:17:10.000Z</time>
      </trkpt>
      <trkpt lat="42.92599" lon="0.3506">
        <ele>1076</ele>
        <time>2019-08-08T06:17:11.000Z</time>
      </trkpt>
      <trkpt lat="42.92606" lon="0.35044">
        <ele>1076</ele>
        <time>2019-08-08T06:17:12.000Z</time>
      </trkpt>
      <trkpt lat="42.92614" lon="0.35028">
        <ele>1074</ele>
        <time>2019-08-08T06:17:13.000Z</time>
      </trkpt>
      <trkpt lat="42.92621" lon="0.35012">
        <ele>1074</ele>
        <time>2019-08-08T06:17:14.000Z</time>
      </trkpt>
      <trkpt lat="42.92629" lon="0.34996">
        <ele>1073</ele>
        <time>2019-08-08T06:17:15.000Z</time>
      </trkpt>
      <trkpt lat="42.92637" lon="0.3498">
        <ele>1071</ele>
        <time>2019-08-08T06:17:16.000Z</time>
      </trkpt>
      <trkpt lat="42.92645" lon="0.34964">
        <ele>1071</ele>
        <time>2019-08-08T06:17:17.000Z</time>
      </trkpt>
      <trkpt lat="42.92654" lon="0.34948">
        <ele>1067</ele>
        <time>2019-08-08T06:17:18.000Z</time>
      </trkpt>
      <trkpt lat="42.92663" lon="0.34932">
        <ele>1067</ele>
        <time>2019-08-08T06:17:19.000Z</time>
      </trkpt>
      <trkpt lat="42.92672" lon="0.34917">
        <ele>1065</ele>
        <time>2019-08-08T06:17:20.000Z</time>
      </trkpt>
      <trkpt lat="42.92682" lon="0.34902">
        <ele>1065</ele>
        <time>2019-08-08T06:17:21.000Z</time>
      </trkpt>
      <trkpt lat="42.92698" lon="0.34882">
        <ele>1065</ele>
        <time>2019-08-08T06:17:22.000Z</time>
      </trkpt>
      <trkpt lat="42.92703" lon="0.34876">
        <ele>1064.4</ele>
        <time>2019-08-08T06:17:23.000Z</time>
      </trkpt>
      <trkpt lat="42.92714" lon="0.34863">
        <ele>1064</ele>
        <time>2019-08-08T06:17:24.000Z</time>
      </trkpt>
      <trkpt lat="42.92725" lon="0.3485">
        <ele>1064</ele>
        <time>2019-08-08T06:17:25.000Z</time>
      </trkpt>
      <trkpt lat="42.92735" lon="0.34837">
        <ele>1064</ele>
        <time>2019-08-08T06:17:26.000Z</time>
      </trkpt>
      <trkpt lat="42.92745" lon="0.34823">
        <ele>1059</ele>
        <time>2019-08-08T06:17:27.000Z</time>
      </trkpt>
      <trkpt lat="42.92755" lon="0.34809">
        <ele>1059</ele>
        <time>2019-08-08T06:17:28.000Z</time>
      </trkpt>
      <trkpt lat="42.92764" lon="0.34795">
        <ele>1059</ele>
        <time>2019-08-08T06:17:29.000Z</time>
      </trkpt>
      <trkpt lat="42.92772" lon="0.34783">
        <ele>1057</ele>
        <time>2019-08-08T06:17:30.000Z</time>
      </trkpt>
      <trkpt lat="42.9278" lon="0.3477">
        <ele>1057</ele>
        <time>2019-08-08T06:17:31.000Z</time>
      </trkpt>
      <trkpt lat="42.92787" lon="0.34758">
        <ele>1055</ele>
        <time>2019-08-08T06:17:32.000Z</time>
      </trkpt>
      <trkpt lat="42.92792" lon="0.34744">
        <ele>1055</ele>
        <time>2019-08-08T06:17:33.000Z</time>
      </trkpt>
      <trkpt lat="42.92795" lon="0.34729">
        <ele>1054</ele>
        <time>2019-08-08T06:17:34.000Z</time>
      </trkpt>
      <trkpt lat="42.92796" lon="0.34714">
        <ele>1054</ele>
        <time>2019-08-08T06:17:35.000Z</time>
      </trkpt>
      <trkpt lat="42.92797" lon="0.34699">
        <ele>1054</ele>
        <time>2019-08-08T06:17:36.000Z</time>
      </trkpt>
      <trkpt lat="42.92797" lon="0.34683">
        <ele>1051</ele>
        <time>2019-08-08T06:17:37.000Z</time>
      </trkpt>
      <trkpt lat="42.92796" lon="0.34668">
        <ele>1051</ele>
        <time>2019-08-08T06:17:38.000Z</time>
      </trkpt>
      <trkpt lat="42.92796" lon="0.34651">
        <ele>1049</ele>
        <time>2019-08-08T06:17:39.000Z</time>
      </trkpt>
      <trkpt lat="42.92795" lon="0.34636">
        <ele>1049</ele>
        <time>2019-08-08T06:17:40.000Z</time>
      </trkpt>
      <trkpt lat="42.92795" lon="0.34621">
        <ele>1048</ele>
        <time>2019-08-08T06:17:41.000Z</time>
      </trkpt>
      <trkpt lat="42.92795" lon="0.34607">
        <ele>1048</ele>
        <time>2019-08-08T06:17:42.000Z</time>
      </trkpt>
      <trkpt lat="42.92798" lon="0.34592">
        <ele>1045</ele>
        <time>2019-08-08T06:17:43.000Z</time>
      </trkpt>
      <trkpt lat="42.92801" lon="0.34578">
        <ele>1045</ele>
        <time>2019-08-08T06:17:44.000Z</time>
      </trkpt>
      <trkpt lat="42.92806" lon="0.34565">
        <ele>1043</ele>
        <time>2019-08-08T06:17:45.000Z</time>
      </trkpt>
      <trkpt lat="42.9281" lon="0.34552">
        <ele>1043</ele>
        <time>2019-08-08T06:17:46.000Z</time>
      </trkpt>
      <trkpt lat="42.92814" lon="0.34541">
        <ele>1043</ele>
        <time>2019-08-08T06:17:47.000Z</time>
      </trkpt>
      <trkpt lat="42.92816" lon="0.34529">
        <ele>1043</ele>
        <time>2019-08-08T06:17:48.000Z</time>
      </trkpt>
      <trkpt lat="42.92814" lon="0.34518">
        <ele>1043</ele>
        <time>2019-08-08T06:17:49.000Z</time>
      </trkpt>
      <trkpt lat="42.92809" lon="0.34508">
        <ele>1041</ele>
        <time>2019-08-08T06:17:50.000Z</time>
      </trkpt>
      <trkpt lat="42.92802" lon="0.345">
        <ele>1041</ele>
        <time>2019-08-08T06:17:51.000Z</time>
      </trkpt>
      <trkpt lat="42.92794" lon="0.34492">
        <ele>1040</ele>
        <time>2019-08-08T06:17:52.000Z</time>
      </trkpt>
      <trkpt lat="42.92785" lon="0.34484">
        <ele>1040</ele>
        <time>2019-08-08T06:17:53.000Z</time>
      </trkpt>
      <trkpt lat="42.92777" lon="0.34476">
        <ele>1037</ele>
        <time>2019-08-08T06:17:54.000Z</time>
      </trkpt>
      <trkpt lat="42.92768" lon="0.34467">
        <ele>1037</ele>
        <time>2019-08-08T06:17:55.000Z</time>
      </trkpt>
      <trkpt lat="42.92759" lon="0.34459">
        <ele>1035</ele>
        <time>2019-08-08T06:17:56.000Z</time>
      </trkpt>
      <trkpt lat="42.92751" lon="0.3445">
        <ele>1035</ele>
        <time>2019-08-08T06:17:57.000Z</time>
      </trkpt>
      <trkpt lat="42.92743" lon="0.34443">
        <ele>1035</ele>
        <time>2019-08-08T06:17:58.000Z</time>
      </trkpt>
      <trkpt lat="42.92734" lon="0.34438">
        <ele>1035</ele>
        <time>2019-08-08T06:17:59.000Z</time>
      </trkpt>
      <trkpt lat="42.92725" lon="0.34435">
        <ele>1033</ele>
        <time>2019-08-08T06:18:00.000Z</time>
      </trkpt>
      <trkpt lat="42.92715" lon="0.34435">
        <ele>1033</ele>
        <time>2019-08-08T06:18:01.000Z</time>
      </trkpt>
      <trkpt lat="42.92706" lon="0.34437">
        <ele>1032</ele>
        <time>2019-08-08T06:18:02.000Z</time>
      </trkpt>
      <trkpt lat="42.92696" lon="0.34442">
        <ele>1032</ele>
        <time>2019-08-08T06:18:03.000Z</time>
      </trkpt>
      <trkpt lat="42.92687" lon="0.34449">
        <ele>1030</ele>
        <time>2019-08-08T06:18:04.000Z</time>
      </trkpt>
      <trkpt lat="42.92677" lon="0.34457">
        <ele>1030</ele>
        <time>2019-08-08T06:18:05.000Z</time>
      </trkpt>
      <trkpt lat="42.92668" lon="0.34466">
        <ele>1029</ele>
        <time>2019-08-08T06:18:06.000Z</time>
      </trkpt>
      <trkpt lat="42.9266" lon="0.34475">
        <ele>1029</ele>
        <time>2019-08-08T06:18:07.000Z</time>
      </trkpt>
      <trkpt lat="42.92651" lon="0.34487">
        <ele>1029</ele>
        <time>2019-08-08T06:18:08.000Z</time>
      </trkpt>
      <trkpt lat="42.92644" lon="0.34499">
        <ele>1027</ele>
        <time>2019-08-08T06:18:09.000Z</time>
      </trkpt>
      <trkpt lat="42.92638" lon="0.34513">
        <ele>1027</ele>
        <time>2019-08-08T06:18:10.000Z</time>
      </trkpt>
      <trkpt lat="42.92634" lon="0.34528">
        <ele>1025</ele>
        <time>2019-08-08T06:18:11.000Z</time>
      </trkpt>
      <trkpt lat="42.92631" lon="0.34543">
        <ele>1025</ele>
        <time>2019-08-08T06:18:12.000Z</time>
      </trkpt>
      <trkpt lat="42.9263" lon="0.34557">
        <ele>1023</ele>
        <time>2019-08-08T06:18:13.000Z</time>
      </trkpt>
      <trkpt lat="42.92631" lon="0.34572">
        <ele>1023</ele>
        <time>2019-08-08T06:18:14.000Z</time>
      </trkpt>
      <trkpt lat="42.92635" lon="0.34587">
        <ele>1022</ele>
        <time>2019-08-08T06:18:15.000Z</time>
      </trkpt>
      <trkpt lat="42.9264" lon="0.346">
        <ele>1022</ele>
        <time>2019-08-08T06:18:16.000Z</time>
      </trkpt>
      <trkpt lat="42.92647" lon="0.34611">
        <ele>1019</ele>
        <time>2019-08-08T06:18:17.000Z</time>
      </trkpt>
      <trkpt lat="42.92655" lon="0.3462">
        <ele>1019</ele>
        <time>2019-08-08T06:18:18.000Z</time>
      </trkpt>
      <trkpt lat="42.92665" lon="0.34628">
        <ele>1018</ele>
        <time>2019-08-08T06:18:19.000Z</time>
      </trkpt>
      <trkpt lat="42.92675" lon="0.34635">
        <ele>1018</ele>
        <time>2019-08-08T06:18:20.000Z</time>
      </trkpt>
      <trkpt lat="42.92685" lon="0.34642">
        <ele>1017</ele>
        <time>2019-08-08T06:18:21.000Z</time>
      </trkpt>
      <trkpt lat="42.92693" lon="0.3465">
        <ele>1017</ele>
        <time>2019-08-08T06:18:22.000Z</time>
      </trkpt>
      <trkpt lat="42.92699" lon="0.34661">
        <ele>1014</ele>
        <time>2019-08-08T06:18:23.000Z</time>
      </trkpt>
      <trkpt lat="42.92702" lon="0.34673">
        <ele>1014</ele>
        <time>2019-08-08T06:18:24.000Z</time>
      </trkpt>
      <trkpt lat="42.927" lon="0.34691">
        <ele>1013</ele>
        <time>2019-08-08T06:18:25.000Z</time>
      </trkpt>
      <trkpt lat="42.92698" lon="0.34696">
        <ele>1013</ele>
        <time>2019-08-08T06:18:26.000Z</time>
      </trkpt>
      <trkpt lat="42.92695" lon="0.34707">
        <ele>1013</ele>
        <time>2019-08-08T06:18:27.000Z</time>
      </trkpt>
      <trkpt lat="42.92688" lon="0.34712">
        <ele>1013</ele>
        <time>2019-08-08T06:18:28.000Z</time>
      </trkpt>
      <trkpt lat="42.9268" lon="0.34716">
        <ele>1012</ele>
        <time>2019-08-08T06:18:29.000Z</time>
      </trkpt>
      <trkpt lat="42.92672" lon="0.34719">
        <ele>1012</ele>
        <time>2019-08-08T06:18:30.000Z</time>
      </trkpt>
      <trkpt lat="42.92664" lon="0.34722">
        <ele>1012</ele>
        <time>2019-08-08T06:18:31.000Z</time>
      </trkpt>
      <trkpt lat="42.92656" lon="0.34726">
        <ele>1012</ele>
        <time>2019-08-08T06:18:32.000Z</time>
      </trkpt>
      <trkpt lat="42.92648" lon="0.3473">
        <ele>1012</ele>
        <time>2019-08-08T06:18:33.000Z</time>
      </trkpt>
      <trkpt lat="42.92639" lon="0.34733">
        <ele>1012</ele>
        <time>2019-08-08T06:18:34.000Z</time>
      </trkpt>
      <trkpt lat="42.92631" lon="0.34737">
        <ele>1012</ele>
        <time>2019-08-08T06:18:35.000Z</time>
      </trkpt>
      <trkpt lat="42.92623" lon="0.34741">
        <ele>1012</ele>
        <time>2019-08-08T06:18:36.000Z</time>
      </trkpt>
      <trkpt lat="42.92614" lon="0.34746">
        <ele>1012</ele>
        <time>2019-08-08T06:18:37.000Z</time>
      </trkpt>
      <trkpt lat="42.92606" lon="0.34752">
        <ele>1011</ele>
        <time>2019-08-08T06:18:38.000Z</time>
      </trkpt>
      <trkpt lat="42.92597" lon="0.34758">
        <ele>1011</ele>
        <time>2019-08-08T06:18:39.000Z</time>
      </trkpt>
      <trkpt lat="42.92588" lon="0.34764">
        <ele>1009</ele>
        <time>2019-08-08T06:18:40.000Z</time>
      </trkpt>
      <trkpt lat="42.92578" lon="0.3477">
        <ele>1008</ele>
        <time>2019-08-08T06:18:41.000Z</time>
      </trkpt>
      <trkpt lat="42.92569" lon="0.34776">
        <ele>1008</ele>
        <time>2019-08-08T06:18:42.000Z</time>
      </trkpt>
      <trkpt lat="42.92559" lon="0.34783">
        <ele>1006</ele>
        <time>2019-08-08T06:18:43.000Z</time>
      </trkpt>
      <trkpt lat="42.9255" lon="0.34792">
        <ele>1006</ele>
        <time>2019-08-08T06:18:44.000Z</time>
      </trkpt>
      <trkpt lat="42.92541" lon="0.34801">
        <ele>1006</ele>
        <time>2019-08-08T06:18:45.000Z</time>
      </trkpt>
      <trkpt lat="42.92532" lon="0.34811">
        <ele>1003</ele>
        <time>2019-08-08T06:18:46.000Z</time>
      </trkpt>
      <trkpt lat="42.92523" lon="0.34822">
        <ele>1001</ele>
        <time>2019-08-08T06:18:47.000Z</time>
      </trkpt>
      <trkpt lat="42.92515" lon="0.34833">
        <ele>1001</ele>
        <time>2019-08-08T06:18:48.000Z</time>
      </trkpt>
      <trkpt lat="42.92507" lon="0.34844">
        <ele>1000</ele>
        <time>2019-08-08T06:18:49.000Z</time>
      </trkpt>
      <trkpt lat="42.92499" lon="0.34857">
        <ele>999</ele>
        <time>2019-08-08T06:18:50.000Z</time>
      </trkpt>
      <trkpt lat="42.92491" lon="0.3487">
        <ele>999</ele>
        <time>2019-08-08T06:18:51.000Z</time>
      </trkpt>
      <trkpt lat="42.92483" lon="0.34882">
        <ele>998</ele>
        <time>2019-08-08T06:18:52.000Z</time>
      </trkpt>
      <trkpt lat="42.92475" lon="0.34894">
        <ele>997</ele>
        <time>2019-08-08T06:18:53.000Z</time>
      </trkpt>
      <trkpt lat="42.92466" lon="0.34906">
        <ele>997</ele>
        <time>2019-08-08T06:18:54.000Z</time>
      </trkpt>
      <trkpt lat="42.92457" lon="0.34918">
        <ele>996</ele>
        <time>2019-08-08T06:18:55.000Z</time>
      </trkpt>
      <trkpt lat="42.92448" lon="0.3493">
        <ele>996</ele>
        <time>2019-08-08T06:18:56.000Z</time>
      </trkpt>
      <trkpt lat="42.92438" lon="0.34941">
        <ele>993</ele>
        <time>2019-08-08T06:18:57.000Z</time>
      </trkpt>
      <trkpt lat="42.92428" lon="0.34952">
        <ele>993</ele>
        <time>2019-08-08T06:18:58.000Z</time>
      </trkpt>
      <trkpt lat="42.92418" lon="0.34962">
        <ele>991</ele>
        <time>2019-08-08T06:18:59.000Z</time>
      </trkpt>
      <trkpt lat="42.92407" lon="0.34973">
        <ele>991</ele>
        <time>2019-08-08T06:19:00.000Z</time>
      </trkpt>
      <trkpt lat="42.92396" lon="0.34983">
        <ele>989</ele>
        <time>2019-08-08T06:19:01.000Z</time>
      </trkpt>
      <trkpt lat="42.9238" lon="0.34997">
        <ele>989</ele>
        <time>2019-08-08T06:19:02.000Z</time>
      </trkpt>
      <trkpt lat="42.92374" lon="0.35001">
        <ele>988</ele>
        <time>2019-08-08T06:19:03.000Z</time>
      </trkpt>
      <trkpt lat="42.92363" lon="0.35011">
        <ele>987</ele>
        <time>2019-08-08T06:19:04.000Z</time>
      </trkpt>
      <trkpt lat="42.92352" lon="0.35021">
        <ele>987</ele>
        <time>2019-08-08T06:19:05.000Z</time>
      </trkpt>
      <trkpt lat="42.92341" lon="0.35031">
        <ele>985</ele>
        <time>2019-08-08T06:19:06.000Z</time>
      </trkpt>
      <trkpt lat="42.9233" lon="0.35042">
        <ele>985</ele>
        <time>2019-08-08T06:19:07.000Z</time>
      </trkpt>
      <trkpt lat="42.9232" lon="0.35053">
        <ele>981</ele>
        <time>2019-08-08T06:19:08.000Z</time>
      </trkpt>
      <trkpt lat="42.92309" lon="0.35065">
        <ele>981</ele>
        <time>2019-08-08T06:19:09.000Z</time>
      </trkpt>
      <trkpt lat="42.92299" lon="0.35077">
        <ele>981</ele>
        <time>2019-08-08T06:19:10.000Z</time>
      </trkpt>
      <trkpt lat="42.9229" lon="0.35088">
        <ele>981</ele>
        <time>2019-08-08T06:19:11.000Z</time>
      </trkpt>
      <trkpt lat="42.92282" lon="0.351">
        <ele>981</ele>
        <time>2019-08-08T06:19:12.000Z</time>
      </trkpt>
      <trkpt lat="42.92275" lon="0.35111">
        <ele>980</ele>
        <time>2019-08-08T06:19:13.000Z</time>
      </trkpt>
      <trkpt lat="42.9227" lon="0.35122">
        <ele>979</ele>
        <time>2019-08-08T06:19:14.000Z</time>
      </trkpt>
      <trkpt lat="42.92266" lon="0.35134">
        <ele>979</ele>
        <time>2019-08-08T06:19:15.000Z</time>
      </trkpt>
      <trkpt lat="42.92264" lon="0.35147">
        <ele>979</ele>
        <time>2019-08-08T06:19:16.000Z</time>
      </trkpt>
      <trkpt lat="42.92265" lon="0.3516">
        <ele>979</ele>
        <time>2019-08-08T06:19:17.000Z</time>
      </trkpt>
      <trkpt lat="42.92266" lon="0.35173">
        <ele>976</ele>
        <time>2019-08-08T06:19:18.000Z</time>
      </trkpt>
      <trkpt lat="42.92264" lon="0.35185">
        <ele>976</ele>
        <time>2019-08-08T06:19:19.000Z</time>
      </trkpt>
      <trkpt lat="42.92258" lon="0.35196">
        <ele>975</ele>
        <time>2019-08-08T06:19:20.000Z</time>
      </trkpt>
      <trkpt lat="42.92251" lon="0.35205">
        <ele>975</ele>
        <time>2019-08-08T06:19:21.000Z</time>
      </trkpt>
      <trkpt lat="42.92243" lon="0.35214">
        <ele>973</ele>
        <time>2019-08-08T06:19:22.000Z</time>
      </trkpt>
      <trkpt lat="42.92235" lon="0.35224">
        <ele>973</ele>
        <time>2019-08-08T06:19:23.000Z</time>
      </trkpt>
      <trkpt lat="42.92227" lon="0.35234">
        <ele>971</ele>
        <time>2019-08-08T06:19:24.000Z</time>
      </trkpt>
      <trkpt lat="42.92219" lon="0.35244">
        <ele>971</ele>
        <time>2019-08-08T06:19:25.000Z</time>
      </trkpt>
      <trkpt lat="42.92211" lon="0.35253">
        <ele>971</ele>
        <time>2019-08-08T06:19:26.000Z</time>
      </trkpt>
      <trkpt lat="42.92202" lon="0.35263">
        <ele>970</ele>
        <time>2019-08-08T06:19:27.000Z</time>
      </trkpt>
      <trkpt lat="42.92193" lon="0.35272">
        <ele>969</ele>
        <time>2019-08-08T06:19:28.000Z</time>
      </trkpt>
      <trkpt lat="42.92184" lon="0.35281">
        <ele>969</ele>
        <time>2019-08-08T06:19:29.000Z</time>
      </trkpt>
      <trkpt lat="42.92175" lon="0.35291">
        <ele>968</ele>
        <time>2019-08-08T06:19:30.000Z</time>
      </trkpt>
      <trkpt lat="42.92167" lon="0.353">
        <ele>968</ele>
        <time>2019-08-08T06:19:31.000Z</time>
      </trkpt>
      <trkpt lat="42.92157" lon="0.3531">
        <ele>966</ele>
        <time>2019-08-08T06:19:32.000Z</time>
      </trkpt>
      <trkpt lat="42.92146" lon="0.35319">
        <ele>966</ele>
        <time>2019-08-08T06:19:33.000Z</time>
      </trkpt>
      <trkpt lat="42.92135" lon="0.35328">
        <ele>965</ele>
        <time>2019-08-08T06:19:34.000Z</time>
      </trkpt>
      <trkpt lat="42.92124" lon="0.35337">
        <ele>965</ele>
        <time>2019-08-08T06:19:35.000Z</time>
      </trkpt>
      <trkpt lat="42.92113" lon="0.35344">
        <ele>965</ele>
        <time>2019-08-08T06:19:36.000Z</time>
      </trkpt>
      <trkpt lat="42.92102" lon="0.35352">
        <ele>963</ele>
        <time>2019-08-08T06:19:37.000Z</time>
      </trkpt>
      <trkpt lat="42.92092" lon="0.3536">
        <ele>963</ele>
        <time>2019-08-08T06:19:38.000Z</time>
      </trkpt>
      <trkpt lat="42.92082" lon="0.3537">
        <ele>960</ele>
        <time>2019-08-08T06:19:39.000Z</time>
      </trkpt>
      <trkpt lat="42.92073" lon="0.35381">
        <ele>959</ele>
        <time>2019-08-08T06:19:40.000Z</time>
      </trkpt>
      <trkpt lat="42.92065" lon="0.35393">
        <ele>959</ele>
        <time>2019-08-08T06:19:41.000Z</time>
      </trkpt>
      <trkpt lat="42.92057" lon="0.35406">
        <ele>959</ele>
        <time>2019-08-08T06:19:42.000Z</time>
      </trkpt>
      <trkpt lat="42.92051" lon="0.35419">
        <ele>958</ele>
        <time>2019-08-08T06:19:43.000Z</time>
      </trkpt>
      <trkpt lat="42.92046" lon="0.35432">
        <ele>957</ele>
        <time>2019-08-08T06:19:44.000Z</time>
      </trkpt>
      <trkpt lat="42.92045" lon="0.35446">
        <ele>957</ele>
        <time>2019-08-08T06:19:45.000Z</time>
      </trkpt>
      <trkpt lat="42.92046" lon="0.35459">
        <ele>957</ele>
        <time>2019-08-08T06:19:46.000Z</time>
      </trkpt>
      <trkpt lat="42.9205" lon="0.35472">
        <ele>957</ele>
        <time>2019-08-08T06:19:47.000Z</time>
      </trkpt>
      <trkpt lat="42.92056" lon="0.35483">
        <ele>957</ele>
        <time>2019-08-08T06:19:48.000Z</time>
      </trkpt>
      <trkpt lat="42.92063" lon="0.35494">
        <ele>956</ele>
        <time>2019-08-08T06:19:49.000Z</time>
      </trkpt>
      <trkpt lat="42.92071" lon="0.35505">
        <ele>955</ele>
        <time>2019-08-08T06:19:50.000Z</time>
      </trkpt>
      <trkpt lat="42.92079" lon="0.35514">
        <ele>955</ele>
        <time>2019-08-08T06:19:51.000Z</time>
      </trkpt>
      <trkpt lat="42.92086" lon="0.35524">
        <ele>954</ele>
        <time>2019-08-08T06:19:52.000Z</time>
      </trkpt>
      <trkpt lat="42.92089" lon="0.35536">
        <ele>954</ele>
        <time>2019-08-08T06:19:53.000Z</time>
      </trkpt>
      <trkpt lat="42.92089" lon="0.35548">
        <ele>951</ele>
        <time>2019-08-08T06:19:54.000Z</time>
      </trkpt>
      <trkpt lat="42.92084" lon="0.35557">
        <ele>950</ele>
        <time>2019-08-08T06:19:55.000Z</time>
      </trkpt>
      <trkpt lat="42.92076" lon="0.35565">
        <ele>950</ele>
        <time>2019-08-08T06:19:56.000Z</time>
      </trkpt>
      <trkpt lat="42.92066" lon="0.3557">
        <ele>950</ele>
        <time>2019-08-08T06:19:57.000Z</time>
      </trkpt>
      <trkpt lat="42.92057" lon="0.35575">
        <ele>950</ele>
        <time>2019-08-08T06:19:58.000Z</time>
      </trkpt>
      <trkpt lat="42.92047" lon="0.3558">
        <ele>950</ele>
        <time>2019-08-08T06:19:59.000Z</time>
      </trkpt>
      <trkpt lat="42.92038" lon="0.35586">
        <ele>950</ele>
        <time>2019-08-08T06:20:00.000Z</time>
      </trkpt>
      <trkpt lat="42.92028" lon="0.35591">
        <ele>949</ele>
        <time>2019-08-08T06:20:01.000Z</time>
      </trkpt>
      <trkpt lat="42.92019" lon="0.35597">
        <ele>949</ele>
        <time>2019-08-08T06:20:02.000Z</time>
      </trkpt>
      <trkpt lat="42.92009" lon="0.35603">
        <ele>947</ele>
        <time>2019-08-08T06:20:03.000Z</time>
      </trkpt>
      <trkpt lat="42.92" lon="0.35609">
        <ele>947</ele>
        <time>2019-08-08T06:20:04.000Z</time>
      </trkpt>
      <trkpt lat="42.9199" lon="0.35617">
        <ele>946</ele>
        <time>2019-08-08T06:20:05.000Z</time>
      </trkpt>
      <trkpt lat="42.91983" lon="0.35628">
        <ele>945</ele>
        <time>2019-08-08T06:20:06.000Z</time>
      </trkpt>
      <trkpt lat="42.91977" lon="0.3564">
        <ele>945</ele>
        <time>2019-08-08T06:20:07.000Z</time>
      </trkpt>
      <trkpt lat="42.91973" lon="0.35654">
        <ele>944</ele>
        <time>2019-08-08T06:20:08.000Z</time>
      </trkpt>
      <trkpt lat="42.91972" lon="0.35669">
        <ele>943</ele>
        <time>2019-08-08T06:20:09.000Z</time>
      </trkpt>
      <trkpt lat="42.91975" lon="0.35684">
        <ele>943</ele>
        <time>2019-08-08T06:20:10.000Z</time>
      </trkpt>
      <trkpt lat="42.91979" lon="0.35699">
        <ele>942</ele>
        <time>2019-08-08T06:20:11.000Z</time>
      </trkpt>
      <trkpt lat="42.91985" lon="0.35712">
        <ele>942</ele>
        <time>2019-08-08T06:20:12.000Z</time>
      </trkpt>
      <trkpt lat="42.91992" lon="0.35724">
        <ele>941</ele>
        <time>2019-08-08T06:20:13.000Z</time>
      </trkpt>
      <trkpt lat="42.91999" lon="0.35736">
        <ele>941</ele>
        <time>2019-08-08T06:20:14.000Z</time>
      </trkpt>
      <trkpt lat="42.92007" lon="0.35747">
        <ele>941</ele>
        <time>2019-08-08T06:20:15.000Z</time>
      </trkpt>
      <trkpt lat="42.92016" lon="0.35758">
        <ele>941</ele>
        <time>2019-08-08T06:20:16.000Z</time>
      </trkpt>
      <trkpt lat="42.92025" lon="0.35767">
        <ele>938</ele>
        <time>2019-08-08T06:20:17.000Z</time>
      </trkpt>
      <trkpt lat="42.9204" lon="0.35782">
        <ele>938</ele>
        <time>2019-08-08T06:20:18.000Z</time>
      </trkpt>
      <trkpt lat="42.92045" lon="0.35787">
        <ele>936</ele>
        <time>2019-08-08T06:20:19.000Z</time>
      </trkpt>
      <trkpt lat="42.92054" lon="0.35797">
        <ele>936</ele>
        <time>2019-08-08T06:20:20.000Z</time>
      </trkpt>
      <trkpt lat="42.92065" lon="0.35805">
        <ele>936</ele>
        <time>2019-08-08T06:20:21.000Z</time>
      </trkpt>
      <trkpt lat="42.92076" lon="0.35813">
        <ele>935</ele>
        <time>2019-08-08T06:20:22.000Z</time>
      </trkpt>
      <trkpt lat="42.92087" lon="0.3582">
        <ele>935</ele>
        <time>2019-08-08T06:20:23.000Z</time>
      </trkpt>
      <trkpt lat="42.92098" lon="0.35828">
        <ele>932</ele>
        <time>2019-08-08T06:20:24.000Z</time>
      </trkpt>
      <trkpt lat="42.92109" lon="0.35835">
        <ele>932</ele>
        <time>2019-08-08T06:20:25.000Z</time>
      </trkpt>
      <trkpt lat="42.9212" lon="0.35843">
        <ele>932</ele>
        <time>2019-08-08T06:20:26.000Z</time>
      </trkpt>
      <trkpt lat="42.92131" lon="0.3585">
        <ele>931</ele>
        <time>2019-08-08T06:20:27.000Z</time>
      </trkpt>
      <trkpt lat="42.92142" lon="0.35856">
        <ele>931</ele>
        <time>2019-08-08T06:20:28.000Z</time>
      </trkpt>
      <trkpt lat="42.92154" lon="0.3586">
        <ele>928</ele>
        <time>2019-08-08T06:20:29.000Z</time>
      </trkpt>
      <trkpt lat="42.92166" lon="0.35864">
        <ele>928</ele>
        <time>2019-08-08T06:20:30.000Z</time>
      </trkpt>
      <trkpt lat="42.92179" lon="0.35867">
        <ele>927</ele>
        <time>2019-08-08T06:20:31.000Z</time>
      </trkpt>
      <trkpt lat="42.92191" lon="0.35871">
        <ele>927</ele>
        <time>2019-08-08T06:20:32.000Z</time>
      </trkpt>
      <trkpt lat="42.92204" lon="0.35874">
        <ele>927</ele>
        <time>2019-08-08T06:20:33.000Z</time>
      </trkpt>
      <trkpt lat="42.92216" lon="0.35878">
        <ele>926</ele>
        <time>2019-08-08T06:20:34.000Z</time>
      </trkpt>
      <trkpt lat="42.92228" lon="0.35882">
        <ele>926</ele>
        <time>2019-08-08T06:20:35.000Z</time>
      </trkpt>
      <trkpt lat="42.92241" lon="0.35887">
        <ele>925</ele>
        <time>2019-08-08T06:20:36.000Z</time>
      </trkpt>
      <trkpt lat="42.92254" lon="0.35891">
        <ele>925</ele>
        <time>2019-08-08T06:20:37.000Z</time>
      </trkpt>
      <trkpt lat="42.92266" lon="0.35895">
        <ele>923</ele>
        <time>2019-08-08T06:20:38.000Z</time>
      </trkpt>
      <trkpt lat="42.92279" lon="0.35899">
        <ele>923</ele>
        <time>2019-08-08T06:20:39.000Z</time>
      </trkpt>
      <trkpt lat="42.92292" lon="0.35902">
        <ele>923</ele>
        <time>2019-08-08T06:20:40.000Z</time>
      </trkpt>
      <trkpt lat="42.92304" lon="0.35905">
        <ele>921</ele>
        <time>2019-08-08T06:20:41.000Z</time>
      </trkpt>
      <trkpt lat="42.92317" lon="0.35908">
        <ele>921</ele>
        <time>2019-08-08T06:20:42.000Z</time>
      </trkpt>
      <trkpt lat="42.92329" lon="0.35911">
        <ele>920</ele>
        <time>2019-08-08T06:20:43.000Z</time>
      </trkpt>
      <trkpt lat="42.9234" lon="0.35913">
        <ele>920</ele>
        <time>2019-08-08T06:20:44.000Z</time>
      </trkpt>
      <trkpt lat="42.92353" lon="0.35916">
        <ele>920</ele>
        <time>2019-08-08T06:20:45.000Z</time>
      </trkpt>
      <trkpt lat="42.92365" lon="0.35918">
        <ele>917</ele>
        <time>2019-08-08T06:20:46.000Z</time>
      </trkpt>
      <trkpt lat="42.92377" lon="0.35919">
        <ele>917</ele>
        <time>2019-08-08T06:20:47.000Z</time>
      </trkpt>
      <trkpt lat="42.92387" lon="0.35921">
        <ele>916</ele>
        <time>2019-08-08T06:20:48.000Z</time>
      </trkpt>
      <trkpt lat="42.92396" lon="0.35926">
        <ele>915</ele>
        <time>2019-08-08T06:20:49.000Z</time>
      </trkpt>
      <trkpt lat="42.92401" lon="0.35936">
        <ele>915</ele>
        <time>2019-08-08T06:20:50.000Z</time>
      </trkpt>
      <trkpt lat="42.92403" lon="0.35949">
        <ele>915</ele>
        <time>2019-08-08T06:20:51.000Z</time>
      </trkpt>
      <trkpt lat="42.92402" lon="0.35962">
        <ele>915</ele>
        <time>2019-08-08T06:20:52.000Z</time>
      </trkpt>
      <trkpt lat="42.924" lon="0.35976">
        <ele>914</ele>
        <time>2019-08-08T06:20:53.000Z</time>
      </trkpt>
      <trkpt lat="42.924" lon="0.35989">
        <ele>914</ele>
        <time>2019-08-08T06:20:54.000Z</time>
      </trkpt>
      <trkpt lat="42.92404" lon="0.36002">
        <ele>914</ele>
        <time>2019-08-08T06:20:55.000Z</time>
      </trkpt>
      <trkpt lat="42.92408" lon="0.36011">
        <ele>914</ele>
        <time>2019-08-08T06:20:56.000Z</time>
      </trkpt>
      <trkpt lat="42.92411" lon="0.3602">
        <ele>914</ele>
        <time>2019-08-08T06:20:57.000Z</time>
      </trkpt>
      <trkpt lat="42.9241" lon="0.36028">
        <ele>914</ele>
        <time>2019-08-08T06:20:58.000Z</time>
      </trkpt>
      <trkpt lat="42.92405" lon="0.36032">
        <ele>914</ele>
        <time>2019-08-08T06:20:59.000Z</time>
      </trkpt>
      <trkpt lat="42.92399" lon="0.36029">
        <ele>912</ele>
        <time>2019-08-08T06:21:00.000Z</time>
      </trkpt>
      <trkpt lat="42.92394" lon="0.36022">
        <ele>912</ele>
        <time>2019-08-08T06:21:01.000Z</time>
      </trkpt>
      <trkpt lat="42.92392" lon="0.36012">
        <ele>911</ele>
        <time>2019-08-08T06:21:02.000Z</time>
      </trkpt>
      <trkpt lat="42.9239" lon="0.36002">
        <ele>911</ele>
        <time>2019-08-08T06:21:03.000Z</time>
      </trkpt>
      <trkpt lat="42.9239" lon="0.35992">
        <ele>911</ele>
        <time>2019-08-08T06:21:04.000Z</time>
      </trkpt>
      <trkpt lat="42.9239" lon="0.35981">
        <ele>911</ele>
        <time>2019-08-08T06:21:05.000Z</time>
      </trkpt>
      <trkpt lat="42.9239" lon="0.35969">
        <ele>910</ele>
        <time>2019-08-08T06:21:06.000Z</time>
      </trkpt>
      <trkpt lat="42.92388" lon="0.35958">
        <ele>909</ele>
        <time>2019-08-08T06:21:07.000Z</time>
      </trkpt>
      <trkpt lat="42.92384" lon="0.35948">
        <ele>909</ele>
        <time>2019-08-08T06:21:08.000Z</time>
      </trkpt>
      <trkpt lat="42.92376" lon="0.35943">
        <ele>909</ele>
        <time>2019-08-08T06:21:09.000Z</time>
      </trkpt>
      <trkpt lat="42.92366" lon="0.35942">
        <ele>908</ele>
        <time>2019-08-08T06:21:10.000Z</time>
      </trkpt>
      <trkpt lat="42.92356" lon="0.35943">
        <ele>907</ele>
        <time>2019-08-08T06:21:11.000Z</time>
      </trkpt>
      <trkpt lat="42.92346" lon="0.35943">
        <ele>907</ele>
        <time>2019-08-08T06:21:12.000Z</time>
      </trkpt>
      <trkpt lat="42.92337" lon="0.35944">
        <ele>906</ele>
        <time>2019-08-08T06:21:13.000Z</time>
      </trkpt>
      <trkpt lat="42.92327" lon="0.35945">
        <ele>905</ele>
        <time>2019-08-08T06:21:14.000Z</time>
      </trkpt>
      <trkpt lat="42.92311" lon="0.35946">
        <ele>905</ele>
        <time>2019-08-08T06:21:15.000Z</time>
      </trkpt>
      <trkpt lat="42.92306" lon="0.35946">
        <ele>905</ele>
        <time>2019-08-08T06:21:16.000Z</time>
      </trkpt>
      <trkpt lat="42.92296" lon="0.35947">
        <ele>904</ele>
        <time>2019-08-08T06:21:17.000Z</time>
      </trkpt>
      <trkpt lat="42.92285" lon="0.35948">
        <ele>904</ele>
        <time>2019-08-08T06:21:18.000Z</time>
      </trkpt>
      <trkpt lat="42.92275" lon="0.35948">
        <ele>903</ele>
        <time>2019-08-08T06:21:19.000Z</time>
      </trkpt>
      <trkpt lat="42.92265" lon="0.35948">
        <ele>902</ele>
        <time>2019-08-08T06:21:20.000Z</time>
      </trkpt>
      <trkpt lat="42.92254" lon="0.35947">
        <ele>901</ele>
        <time>2019-08-08T06:21:21.000Z</time>
      </trkpt>
      <trkpt lat="42.92244" lon="0.35945">
        <ele>901</ele>
        <time>2019-08-08T06:21:22.000Z</time>
      </trkpt>
      <trkpt lat="42.92234" lon="0.35942">
        <ele>900</ele>
        <time>2019-08-08T06:21:23.000Z</time>
      </trkpt>
      <trkpt lat="42.92223" lon="0.3594">
        <ele>900</ele>
        <time>2019-08-08T06:21:24.000Z</time>
      </trkpt>
      <trkpt lat="42.92213" lon="0.35938">
        <ele>897</ele>
        <time>2019-08-08T06:21:25.000Z</time>
      </trkpt>
      <trkpt lat="42.92202" lon="0.35939">
        <ele>897</ele>
        <time>2019-08-08T06:21:26.000Z</time>
      </trkpt>
      <trkpt lat="42.92191" lon="0.35941">
        <ele>897</ele>
        <time>2019-08-08T06:21:27.000Z</time>
      </trkpt>
      <trkpt lat="42.92181" lon="0.35944">
        <ele>896</ele>
        <time>2019-08-08T06:21:28.000Z</time>
      </trkpt>
      <trkpt lat="42.9217" lon="0.35948">
        <ele>896</ele>
        <time>2019-08-08T06:21:29.000Z</time>
      </trkpt>
      <trkpt lat="42.92158" lon="0.35952">
        <ele>896</ele>
        <time>2019-08-08T06:21:30.000Z</time>
      </trkpt>
      <trkpt lat="42.92146" lon="0.35955">
        <ele>896</ele>
        <time>2019-08-08T06:21:31.000Z</time>
      </trkpt>
      <trkpt lat="42.92135" lon="0.35959">
        <ele>895</ele>
        <time>2019-08-08T06:21:32.000Z</time>
      </trkpt>
      <trkpt lat="42.92124" lon="0.3596">
        <ele>895</ele>
        <time>2019-08-08T06:21:33.000Z</time>
      </trkpt>
      <trkpt lat="42.92113" lon="0.3596">
        <ele>892</ele>
        <time>2019-08-08T06:21:34.000Z</time>
      </trkpt>
      <trkpt lat="42.92102" lon="0.35956">
        <ele>892</ele>
        <time>2019-08-08T06:21:35.000Z</time>
      </trkpt>
      <trkpt lat="42.92092" lon="0.35952">
        <ele>892</ele>
        <time>2019-08-08T06:21:36.000Z</time>
      </trkpt>
      <trkpt lat="42.92082" lon="0.35945">
        <ele>890</ele>
        <time>2019-08-08T06:21:37.000Z</time>
      </trkpt>
      <trkpt lat="42.92071" lon="0.35939">
        <ele>890</ele>
        <time>2019-08-08T06:21:38.000Z</time>
      </trkpt>
      <trkpt lat="42.9206" lon="0.35933">
        <ele>889</ele>
        <time>2019-08-08T06:21:39.000Z</time>
      </trkpt>
      <trkpt lat="42.92048" lon="0.35928">
        <ele>889</ele>
        <time>2019-08-08T06:21:40.000Z</time>
      </trkpt>
      <trkpt lat="42.92037" lon="0.35924">
        <ele>888</ele>
        <time>2019-08-08T06:21:41.000Z</time>
      </trkpt>
      <trkpt lat="42.92027" lon="0.3592">
        <ele>888</ele>
        <time>2019-08-08T06:21:42.000Z</time>
      </trkpt>
      <trkpt lat="42.92016" lon="0.35917">
        <ele>887</ele>
        <time>2019-08-08T06:21:43.000Z</time>
      </trkpt>
      <trkpt lat="42.92005" lon="0.35913">
        <ele>887</ele>
        <time>2019-08-08T06:21:44.000Z</time>
      </trkpt>
      <trkpt lat="42.91995" lon="0.3591">
        <ele>886</ele>
        <time>2019-08-08T06:21:45.000Z</time>
      </trkpt>
      <trkpt lat="42.91984" lon="0.35906">
        <ele>885</ele>
        <time>2019-08-08T06:21:46.000Z</time>
      </trkpt>
      <trkpt lat="42.91974" lon="0.35901">
        <ele>885</ele>
        <time>2019-08-08T06:21:47.000Z</time>
      </trkpt>
      <trkpt lat="42.91963" lon="0.35895">
        <ele>885</ele>
        <time>2019-08-08T06:21:48.000Z</time>
      </trkpt>
      <trkpt lat="42.91953" lon="0.35889">
        <ele>885</ele>
        <time>2019-08-08T06:21:49.000Z</time>
      </trkpt>
      <trkpt lat="42.91943" lon="0.35883">
        <ele>883</ele>
        <time>2019-08-08T06:21:50.000Z</time>
      </trkpt>
      <trkpt lat="42.91932" lon="0.35877">
        <ele>883</ele>
        <time>2019-08-08T06:21:51.000Z</time>
      </trkpt>
      <trkpt lat="42.91922" lon="0.3587">
        <ele>882</ele>
        <time>2019-08-08T06:21:52.000Z</time>
      </trkpt>
      <trkpt lat="42.91911" lon="0.35863">
        <ele>882</ele>
        <time>2019-08-08T06:21:53.000Z</time>
      </trkpt>
      <trkpt lat="42.91901" lon="0.35855">
        <ele>879</ele>
        <time>2019-08-08T06:21:54.000Z</time>
      </trkpt>
      <trkpt lat="42.91891" lon="0.35846">
        <ele>879</ele>
        <time>2019-08-08T06:21:55.000Z</time>
      </trkpt>
      <trkpt lat="42.91882" lon="0.35837">
        <ele>878</ele>
        <time>2019-08-08T06:21:56.000Z</time>
      </trkpt>
      <trkpt lat="42.91872" lon="0.35829">
        <ele>877</ele>
        <time>2019-08-08T06:21:57.000Z</time>
      </trkpt>
      <trkpt lat="42.91862" lon="0.35821">
        <ele>877</ele>
        <time>2019-08-08T06:21:58.000Z</time>
      </trkpt>
      <trkpt lat="42.91852" lon="0.35811">
        <ele>877</ele>
        <time>2019-08-08T06:21:59.000Z</time>
      </trkpt>
      <trkpt lat="42.91843" lon="0.35801">
        <ele>877</ele>
        <time>2019-08-08T06:22:00.000Z</time>
      </trkpt>
      <trkpt lat="42.91835" lon="0.35789">
        <ele>876</ele>
        <time>2019-08-08T06:22:01.000Z</time>
      </trkpt>
      <trkpt lat="42.91827" lon="0.35776">
        <ele>876</ele>
        <time>2019-08-08T06:22:02.000Z</time>
      </trkpt>
      <trkpt lat="42.9182" lon="0.35763">
        <ele>876</ele>
        <time>2019-08-08T06:22:03.000Z</time>
      </trkpt>
      <trkpt lat="42.91813" lon="0.35749">
        <ele>875</ele>
        <time>2019-08-08T06:22:04.000Z</time>
      </trkpt>
      <trkpt lat="42.91808" lon="0.35735">
        <ele>875</ele>
        <time>2019-08-08T06:22:05.000Z</time>
      </trkpt>
      <trkpt lat="42.91805" lon="0.35719">
        <ele>874</ele>
        <time>2019-08-08T06:22:06.000Z</time>
      </trkpt>
      <trkpt lat="42.91804" lon="0.35704">
        <ele>874</ele>
        <time>2019-08-08T06:22:07.000Z</time>
      </trkpt>
      <trkpt lat="42.91805" lon="0.35688">
        <ele>871</ele>
        <time>2019-08-08T06:22:08.000Z</time>
      </trkpt>
      <trkpt lat="42.91809" lon="0.35672">
        <ele>871</ele>
        <time>2019-08-08T06:22:09.000Z</time>
      </trkpt>
      <trkpt lat="42.91812" lon="0.35655">
        <ele>869</ele>
        <time>2019-08-08T06:22:10.000Z</time>
      </trkpt>
      <trkpt lat="42.91815" lon="0.35638">
        <ele>869</ele>
        <time>2019-08-08T06:22:11.000Z</time>
      </trkpt>
      <trkpt lat="42.91819" lon="0.35611">
        <ele>869</ele>
        <time>2019-08-08T06:22:12.000Z</time>
      </trkpt>
      <trkpt lat="42.9182" lon="0.35602">
        <ele>867.6</ele>
        <time>2019-08-08T06:22:13.000Z</time>
      </trkpt>
      <trkpt lat="42.91823" lon="0.35584">
        <ele>866</ele>
        <time>2019-08-08T06:22:14.000Z</time>
      </trkpt>
      <trkpt lat="42.91827" lon="0.35566">
        <ele>863</ele>
        <time>2019-08-08T06:22:15.000Z</time>
      </trkpt>
      <trkpt lat="42.91831" lon="0.35548">
        <ele>863</ele>
        <time>2019-08-08T06:22:16.000Z</time>
      </trkpt>
      <trkpt lat="42.91835" lon="0.3553">
        <ele>862</ele>
        <time>2019-08-08T06:22:17.000Z</time>
      </trkpt>
      <trkpt lat="42.91839" lon="0.35513">
        <ele>862</ele>
        <time>2019-08-08T06:22:18.000Z</time>
      </trkpt>
      <trkpt lat="42.91843" lon="0.35497">
        <ele>859</ele>
        <time>2019-08-08T06:22:19.000Z</time>
      </trkpt>
      <trkpt lat="42.91845" lon="0.3548">
        <ele>857</ele>
        <time>2019-08-08T06:22:20.000Z</time>
      </trkpt>
      <trkpt lat="42.91846" lon="0.35462">
        <ele>857</ele>
        <time>2019-08-08T06:22:21.000Z</time>
      </trkpt>
      <trkpt lat="42.91844" lon="0.35444">
        <ele>854</ele>
        <time>2019-08-08T06:22:22.000Z</time>
      </trkpt>
      <trkpt lat="42.91842" lon="0.35426">
        <ele>852</ele>
        <time>2019-08-08T06:22:23.000Z</time>
      </trkpt>
      <trkpt lat="42.9184" lon="0.35408">
        <ele>852</ele>
        <time>2019-08-08T06:22:24.000Z</time>
      </trkpt>
      <trkpt lat="42.91838" lon="0.35391">
        <ele>852</ele>
        <time>2019-08-08T06:22:25.000Z</time>
      </trkpt>
      <trkpt lat="42.91836" lon="0.35373">
        <ele>852</ele>
        <time>2019-08-08T06:22:26.000Z</time>
      </trkpt>
      <trkpt lat="42.91834" lon="0.35355">
        <ele>852</ele>
        <time>2019-08-08T06:22:27.000Z</time>
      </trkpt>
      <trkpt lat="42.91832" lon="0.35337">
        <ele>851</ele>
        <time>2019-08-08T06:22:28.000Z</time>
      </trkpt>
      <trkpt lat="42.91831" lon="0.35319">
        <ele>851</ele>
        <time>2019-08-08T06:22:29.000Z</time>
      </trkpt>
      <trkpt lat="42.91829" lon="0.35303">
        <ele>847</ele>
        <time>2019-08-08T06:22:30.000Z</time>
      </trkpt>
      <trkpt lat="42.91828" lon="0.35278">
        <ele>847</ele>
        <time>2019-08-08T06:22:31.000Z</time>
      </trkpt>
      <trkpt lat="42.91827" lon="0.3527">
        <ele>846</ele>
        <time>2019-08-08T06:22:32.000Z</time>
      </trkpt>
      <trkpt lat="42.91826" lon="0.35254">
        <ele>846</ele>
        <time>2019-08-08T06:22:33.000Z</time>
      </trkpt>
      <trkpt lat="42.91826" lon="0.35238">
        <ele>845</ele>
        <time>2019-08-08T06:22:34.000Z</time>
      </trkpt>
      <trkpt lat="42.91827" lon="0.35223">
        <ele>845</ele>
        <time>2019-08-08T06:22:35.000Z</time>
      </trkpt>
      <trkpt lat="42.91829" lon="0.35208">
        <ele>843</ele>
        <time>2019-08-08T06:22:36.000Z</time>
      </trkpt>
      <trkpt lat="42.91832" lon="0.35193">
        <ele>843</ele>
        <time>2019-08-08T06:22:37.000Z</time>
      </trkpt>
      <trkpt lat="42.91837" lon="0.35177">
        <ele>839</ele>
        <time>2019-08-08T06:22:38.000Z</time>
      </trkpt>
      <trkpt lat="42.91842" lon="0.35161">
        <ele>836</ele>
        <time>2019-08-08T06:22:39.000Z</time>
      </trkpt>
      <trkpt lat="42.91847" lon="0.35145">
        <ele>836</ele>
        <time>2019-08-08T06:22:40.000Z</time>
      </trkpt>
      <trkpt lat="42.91853" lon="0.35129">
        <ele>836</ele>
        <time>2019-08-08T06:22:41.000Z</time>
      </trkpt>
      <trkpt lat="42.91858" lon="0.35112">
        <ele>834</ele>
        <time>2019-08-08T06:22:42.000Z</time>
      </trkpt>
      <trkpt lat="42.91863" lon="0.35095">
        <ele>834</ele>
        <time>2019-08-08T06:22:43.000Z</time>
      </trkpt>
      <trkpt lat="42.91868" lon="0.35078">
        <ele>831</ele>
        <time>2019-08-08T06:22:44.000Z</time>
      </trkpt>
      <trkpt lat="42.91872" lon="0.3506">
        <ele>831</ele>
        <time>2019-08-08T06:22:45.000Z</time>
      </trkpt>
      <trkpt lat="42.91875" lon="0.35042">
        <ele>829</ele>
        <time>2019-08-08T06:22:46.000Z</time>
      </trkpt>
      <trkpt lat="42.91878" lon="0.35024">
        <ele>828</ele>
        <time>2019-08-08T06:22:47.000Z</time>
      </trkpt>
      <trkpt lat="42.91882" lon="0.35007">
        <ele>827</ele>
        <time>2019-08-08T06:22:48.000Z</time>
      </trkpt>
      <trkpt lat="42.91885" lon="0.34992">
        <ele>827</ele>
        <time>2019-08-08T06:22:49.000Z</time>
      </trkpt>
      <trkpt lat="42.91891" lon="0.34978">
        <ele>826</ele>
        <time>2019-08-08T06:22:50.000Z</time>
      </trkpt>
      <trkpt lat="42.91899" lon="0.34966">
        <ele>825</ele>
        <time>2019-08-08T06:22:51.000Z</time>
      </trkpt>
      <trkpt lat="42.91909" lon="0.34958">
        <ele>825</ele>
        <time>2019-08-08T06:22:52.000Z</time>
      </trkpt>
      <trkpt lat="42.91919" lon="0.34953">
        <ele>825</ele>
        <time>2019-08-08T06:22:53.000Z</time>
      </trkpt>
      <trkpt lat="42.91929" lon="0.3495">
        <ele>823</ele>
        <time>2019-08-08T06:22:54.000Z</time>
      </trkpt>
      <trkpt lat="42.91938" lon="0.34946">
        <ele>823</ele>
        <time>2019-08-08T06:22:55.000Z</time>
      </trkpt>
      <trkpt lat="42.91946" lon="0.34933">
        <ele>823</ele>
        <time>2019-08-08T06:22:56.000Z</time>
      </trkpt>
      <trkpt lat="42.91947" lon="0.34927">
        <ele>821</ele>
        <time>2019-08-08T06:22:57.000Z</time>
      </trkpt>
      <trkpt lat="42.91949" lon="0.34915">
        <ele>820</ele>
        <time>2019-08-08T06:22:58.000Z</time>
      </trkpt>
      <trkpt lat="42.91948" lon="0.34901">
        <ele>816</ele>
        <time>2019-08-08T06:22:59.000Z</time>
      </trkpt>
      <trkpt lat="42.91945" lon="0.34886">
        <ele>816</ele>
        <time>2019-08-08T06:23:00.000Z</time>
      </trkpt>
      <trkpt lat="42.91942" lon="0.34872">
        <ele>815</ele>
        <time>2019-08-08T06:23:01.000Z</time>
      </trkpt>
      <trkpt lat="42.91937" lon="0.34858">
        <ele>814</ele>
        <time>2019-08-08T06:23:02.000Z</time>
      </trkpt>
      <trkpt lat="42.91931" lon="0.34844">
        <ele>814</ele>
        <time>2019-08-08T06:23:03.000Z</time>
      </trkpt>
      <trkpt lat="42.91925" lon="0.34831">
        <ele>813</ele>
        <time>2019-08-08T06:23:04.000Z</time>
      </trkpt>
      <trkpt lat="42.91922" lon="0.34819">
        <ele>812</ele>
        <time>2019-08-08T06:23:05.000Z</time>
      </trkpt>
      <trkpt lat="42.91921" lon="0.34807">
        <ele>812</ele>
        <time>2019-08-08T06:23:06.000Z</time>
      </trkpt>
      <trkpt lat="42.91923" lon="0.34794">
        <ele>811</ele>
        <time>2019-08-08T06:23:07.000Z</time>
      </trkpt>
      <trkpt lat="42.91927" lon="0.34781">
        <ele>811</ele>
        <time>2019-08-08T06:23:08.000Z</time>
      </trkpt>
      <trkpt lat="42.91934" lon="0.34769">
        <ele>807</ele>
        <time>2019-08-08T06:23:09.000Z</time>
      </trkpt>
      <trkpt lat="42.91941" lon="0.34758">
        <ele>806</ele>
        <time>2019-08-08T06:23:10.000Z</time>
      </trkpt>
      <trkpt lat="42.9195" lon="0.34749">
        <ele>806</ele>
        <time>2019-08-08T06:23:11.000Z</time>
      </trkpt>
      <trkpt lat="42.9196" lon="0.3474">
        <ele>806</ele>
        <time>2019-08-08T06:23:12.000Z</time>
      </trkpt>
      <trkpt lat="42.91969" lon="0.3473">
        <ele>803</ele>
        <time>2019-08-08T06:23:13.000Z</time>
      </trkpt>
      <trkpt lat="42.91978" lon="0.3472">
        <ele>801</ele>
        <time>2019-08-08T06:23:14.000Z</time>
      </trkpt>
      <trkpt lat="42.91987" lon="0.3471">
        <ele>801</ele>
        <time>2019-08-08T06:23:15.000Z</time>
      </trkpt>
      <trkpt lat="42.91995" lon="0.34701">
        <ele>801</ele>
        <time>2019-08-08T06:23:16.000Z</time>
      </trkpt>
      <trkpt lat="42.92002" lon="0.34693">
        <ele>801</ele>
        <time>2019-08-08T06:23:17.000Z</time>
      </trkpt>
      <trkpt lat="42.92008" lon="0.34684">
        <ele>801</ele>
        <time>2019-08-08T06:23:18.000Z</time>
      </trkpt>
      <trkpt lat="42.92011" lon="0.34672">
        <ele>799</ele>
        <time>2019-08-08T06:23:19.000Z</time>
      </trkpt>
      <trkpt lat="42.92012" lon="0.34659">
        <ele>797</ele>
        <time>2019-08-08T06:23:20.000Z</time>
      </trkpt>
      <trkpt lat="42.92012" lon="0.34645">
        <ele>797</ele>
        <time>2019-08-08T06:23:21.000Z</time>
      </trkpt>
      <trkpt lat="42.92013" lon="0.34631">
        <ele>797</ele>
        <time>2019-08-08T06:23:22.000Z</time>
      </trkpt>
      <trkpt lat="42.92016" lon="0.34618">
        <ele>796</ele>
        <time>2019-08-08T06:23:23.000Z</time>
      </trkpt>
      <trkpt lat="42.92019" lon="0.34606">
        <ele>796</ele>
        <time>2019-08-08T06:23:24.000Z</time>
      </trkpt>
      <trkpt lat="42.92019" lon="0.34589">
        <ele>794</ele>
        <time>2019-08-08T06:23:25.000Z</time>
      </trkpt>
      <trkpt lat="42.92018" lon="0.34584">
        <ele>794</ele>
        <time>2019-08-08T06:23:26.000Z</time>
      </trkpt>
      <trkpt lat="42.92013" lon="0.34575">
        <ele>794</ele>
        <time>2019-08-08T06:23:27.000Z</time>
      </trkpt>
      <trkpt lat="42.92009" lon="0.34575">
        <ele>794</ele>
        <time>2019-08-08T06:23:28.000Z</time>
      </trkpt>
      <trkpt lat="42.91998" lon="0.34578">
        <ele>792</ele>
        <time>2019-08-08T06:23:29.000Z</time>
      </trkpt>
      <trkpt lat="42.91994" lon="0.34582">
        <ele>792</ele>
        <time>2019-08-08T06:23:30.000Z</time>
      </trkpt>
      <trkpt lat="42.91983" lon="0.34594">
        <ele>791</ele>
        <time>2019-08-08T06:23:31.000Z</time>
      </trkpt>
      <trkpt lat="42.91981" lon="0.34599">
        <ele>791</ele>
        <time>2019-08-08T06:23:32.000Z</time>
      </trkpt>
      <trkpt lat="42.91975" lon="0.34608">
        <ele>791</ele>
        <time>2019-08-08T06:23:33.000Z</time>
      </trkpt>
      <trkpt lat="42.91968" lon="0.34623">
        <ele>791</ele>
        <time>2019-08-08T06:23:34.000Z</time>
      </trkpt>
      <trkpt lat="42.91966" lon="0.34628">
        <ele>791</ele>
        <time>2019-08-08T06:23:35.000Z</time>
      </trkpt>
      <trkpt lat="42.91961" lon="0.34643">
        <ele>791</ele>
        <time>2019-08-08T06:23:36.000Z</time>
      </trkpt>
      <trkpt lat="42.9196" lon="0.34648">
        <ele>790</ele>
        <time>2019-08-08T06:23:37.000Z</time>
      </trkpt>
      <trkpt lat="42.91959" lon="0.34662">
        <ele>790</ele>
        <time>2019-08-08T06:23:38.000Z</time>
      </trkpt>
      <trkpt lat="42.9196" lon="0.34665">
        <ele>790</ele>
        <time>2019-08-08T06:23:39.000Z</time>
      </trkpt>
      <trkpt lat="42.9196" lon="0.34676">
        <ele>790</ele>
        <time>2019-08-08T06:23:40.000Z</time>
      </trkpt>
      <trkpt lat="42.91959" lon="0.34679">
        <ele>790</ele>
        <time>2019-08-08T06:23:41.000Z</time>
      </trkpt>
      <trkpt lat="42.91958" lon="0.34682">
        <ele>789</ele>
        <time>2019-08-08T06:23:42.000Z</time>
      </trkpt>
      <trkpt lat="42.91952" lon="0.34693">
        <ele>789</ele>
        <time>2019-08-08T06:23:43.000Z</time>
      </trkpt>
      <trkpt lat="42.9195" lon="0.34696">
        <ele>788</ele>
        <time>2019-08-08T06:23:44.000Z</time>
      </trkpt>
      <trkpt lat="42.91943" lon="0.34705">
        <ele>788</ele>
        <time>2019-08-08T06:23:45.000Z</time>
      </trkpt>
      <trkpt lat="42.91941" lon="0.34708">
        <ele>788</ele>
        <time>2019-08-08T06:23:46.000Z</time>
      </trkpt>
      <trkpt lat="42.91937" lon="0.34715">
        <ele>788</ele>
        <time>2019-08-08T06:23:47.000Z</time>
      </trkpt>
      <trkpt lat="42.91928" lon="0.34723">
        <ele>788</ele>
        <time>2019-08-08T06:23:48.000Z</time>
      </trkpt>
      <trkpt lat="42.91918" lon="0.34732">
        <ele>788</ele>
        <time>2019-08-08T06:23:49.000Z</time>
      </trkpt>
      <trkpt lat="42.91907" lon="0.34747">
        <ele>786</ele>
        <time>2019-08-08T06:23:50.000Z</time>
      </trkpt>
      <trkpt lat="42.91905" lon="0.34751">
        <ele>786</ele>
        <time>2019-08-08T06:23:51.000Z</time>
      </trkpt>
      <trkpt lat="42.919" lon="0.34761">
        <ele>785</ele>
        <time>2019-08-08T06:23:52.000Z</time>
      </trkpt>
      <trkpt lat="42.91894" lon="0.34771">
        <ele>785</ele>
        <time>2019-08-08T06:23:53.000Z</time>
      </trkpt>
      <trkpt lat="42.91885" lon="0.34782">
        <ele>785</ele>
        <time>2019-08-08T06:23:54.000Z</time>
      </trkpt>
      <trkpt lat="42.91876" lon="0.34794">
        <ele>784</ele>
        <time>2019-08-08T06:23:55.000Z</time>
      </trkpt>
      <trkpt lat="42.9187" lon="0.34805">
        <ele>784</ele>
        <time>2019-08-08T06:23:56.000Z</time>
      </trkpt>
      <trkpt lat="42.91863" lon="0.34815">
        <ele>784</ele>
        <time>2019-08-08T06:23:57.000Z</time>
      </trkpt>
      <trkpt lat="42.91853" lon="0.34824">
        <ele>784</ele>
        <time>2019-08-08T06:23:58.000Z</time>
      </trkpt>
      <trkpt lat="42.91844" lon="0.34834">
        <ele>784</ele>
        <time>2019-08-08T06:23:59.000Z</time>
      </trkpt>
      <trkpt lat="42.91834" lon="0.34845">
        <ele>784</ele>
        <time>2019-08-08T06:24:00.000Z</time>
      </trkpt>
      <trkpt lat="42.91825" lon="0.34857">
        <ele>784</ele>
        <time>2019-08-08T06:24:01.000Z</time>
      </trkpt>
      <trkpt lat="42.91813" lon="0.34869">
        <ele>784</ele>
        <time>2019-08-08T06:24:02.000Z</time>
      </trkpt>
      <trkpt lat="42.91806" lon="0.3488">
        <ele>783</ele>
        <time>2019-08-08T06:24:03.000Z</time>
      </trkpt>
      <trkpt lat="42.91796" lon="0.34889">
        <ele>782</ele>
        <time>2019-08-08T06:24:04.000Z</time>
      </trkpt>
      <trkpt lat="42.91788" lon="0.34898">
        <ele>782</ele>
        <time>2019-08-08T06:24:05.000Z</time>
      </trkpt>
      <trkpt lat="42.91776" lon="0.34908">
        <ele>782</ele>
        <time>2019-08-08T06:24:06.000Z</time>
      </trkpt>
      <trkpt lat="42.91765" lon="0.34916">
        <ele>782</ele>
        <time>2019-08-08T06:24:07.000Z</time>
      </trkpt>
      <trkpt lat="42.91755" lon="0.34924">
        <ele>782</ele>
        <time>2019-08-08T06:24:08.000Z</time>
      </trkpt>
      <trkpt lat="42.91747" lon="0.34933">
        <ele>780</ele>
        <time>2019-08-08T06:24:09.000Z</time>
      </trkpt>
      <trkpt lat="42.9174" lon="0.34944">
        <ele>780</ele>
        <time>2019-08-08T06:24:10.000Z</time>
      </trkpt>
      <trkpt lat="42.91732" lon="0.34957">
        <ele>780</ele>
        <time>2019-08-08T06:24:11.000Z</time>
      </trkpt>
      <trkpt lat="42.91727" lon="0.34976">
        <ele>779</ele>
        <time>2019-08-08T06:24:12.000Z</time>
      </trkpt>
      <trkpt lat="42.91729" lon="0.34981">
        <ele>779</ele>
        <time>2019-08-08T06:24:13.000Z</time>
      </trkpt>
      <trkpt lat="42.91732" lon="0.34992">
        <ele>779</ele>
        <time>2019-08-08T06:24:14.000Z</time>
      </trkpt>
      <trkpt lat="42.91735" lon="0.35004">
        <ele>779</ele>
        <time>2019-08-08T06:24:15.000Z</time>
      </trkpt>
      <trkpt lat="42.91734" lon="0.35018">
        <ele>779</ele>
        <time>2019-08-08T06:24:16.000Z</time>
      </trkpt>
      <trkpt lat="42.91734" lon="0.35032">
        <ele>778</ele>
        <time>2019-08-08T06:24:17.000Z</time>
      </trkpt>
      <trkpt lat="42.91733" lon="0.35045">
        <ele>778</ele>
        <time>2019-08-08T06:24:18.000Z</time>
      </trkpt>
      <trkpt lat="42.91733" lon="0.35058">
        <ele>778</ele>
        <time>2019-08-08T06:24:19.000Z</time>
      </trkpt>
      <trkpt lat="42.9173" lon="0.35071">
        <ele>778</ele>
        <time>2019-08-08T06:24:20.000Z</time>
      </trkpt>
      <trkpt lat="42.91725" lon="0.35088">
        <ele>776</ele>
        <time>2019-08-08T06:24:21.000Z</time>
      </trkpt>
      <trkpt lat="42.91723" lon="0.35094">
        <ele>776</ele>
        <time>2019-08-08T06:24:22.000Z</time>
      </trkpt>
      <trkpt lat="42.91719" lon="0.35105">
        <ele>775</ele>
        <time>2019-08-08T06:24:23.000Z</time>
      </trkpt>
      <trkpt lat="42.91711" lon="0.35115">
        <ele>775</ele>
        <time>2019-08-08T06:24:24.000Z</time>
      </trkpt>
      <trkpt lat="42.91698" lon="0.35125">
        <ele>774</ele>
        <time>2019-08-08T06:24:25.000Z</time>
      </trkpt>
      <trkpt lat="42.91679" lon="0.35141">
        <ele>774</ele>
        <time>2019-08-08T06:24:26.000Z</time>
      </trkpt>
      <trkpt lat="42.91674" lon="0.35147">
        <ele>774</ele>
        <time>2019-08-08T06:24:27.000Z</time>
      </trkpt>
      <trkpt lat="42.91664" lon="0.35159">
        <ele>774</ele>
        <time>2019-08-08T06:24:28.000Z</time>
      </trkpt>
      <trkpt lat="42.91658" lon="0.35173">
        <ele>774</ele>
        <time>2019-08-08T06:24:29.000Z</time>
      </trkpt>
      <trkpt lat="42.91655" lon="0.35187">
        <ele>773</ele>
        <time>2019-08-08T06:24:30.000Z</time>
      </trkpt>
      <trkpt lat="42.91654" lon="0.352">
        <ele>773</ele>
        <time>2019-08-08T06:24:31.000Z</time>
      </trkpt>
      <trkpt lat="42.91652" lon="0.35212">
        <ele>773</ele>
        <time>2019-08-08T06:24:32.000Z</time>
      </trkpt>
      <trkpt lat="42.91647" lon="0.35225">
        <ele>772</ele>
        <time>2019-08-08T06:24:33.000Z</time>
      </trkpt>
      <trkpt lat="42.91645" lon="0.35237">
        <ele>772</ele>
        <time>2019-08-08T06:24:34.000Z</time>
      </trkpt>
      <trkpt lat="42.91642" lon="0.3525">
        <ele>772</ele>
        <time>2019-08-08T06:24:35.000Z</time>
      </trkpt>
      <trkpt lat="42.91639" lon="0.35263">
        <ele>771</ele>
        <time>2019-08-08T06:24:36.000Z</time>
      </trkpt>
      <trkpt lat="42.91637" lon="0.35275">
        <ele>771</ele>
        <time>2019-08-08T06:24:37.000Z</time>
      </trkpt>
      <trkpt lat="42.91636" lon="0.35288">
        <ele>771</ele>
        <time>2019-08-08T06:24:38.000Z</time>
      </trkpt>
      <trkpt lat="42.91636" lon="0.35301">
        <ele>771</ele>
        <time>2019-08-08T06:24:39.000Z</time>
      </trkpt>
      <trkpt lat="42.91637" lon="0.35319">
        <ele>771</ele>
        <time>2019-08-08T06:24:40.000Z</time>
      </trkpt>
      <trkpt lat="42.91637" lon="0.35325">
        <ele>771</ele>
        <time>2019-08-08T06:24:41.000Z</time>
      </trkpt>
      <trkpt lat="42.91639" lon="0.35343">
        <ele>770</ele>
        <time>2019-08-08T06:24:42.000Z</time>
      </trkpt>
      <trkpt lat="42.9164" lon="0.35348">
        <ele>770</ele>
        <time>2019-08-08T06:24:43.000Z</time>
      </trkpt>
      <trkpt lat="42.91641" lon="0.35365">
        <ele>770</ele>
        <time>2019-08-08T06:24:44.000Z</time>
      </trkpt>
      <trkpt lat="42.91641" lon="0.3537">
        <ele>770</ele>
        <time>2019-08-08T06:24:45.000Z</time>
      </trkpt>
      <trkpt lat="42.91642" lon="0.35381">
        <ele>770</ele>
        <time>2019-08-08T06:24:46.000Z</time>
      </trkpt>
      <trkpt lat="42.9164" lon="0.35394">
        <ele>769</ele>
        <time>2019-08-08T06:24:47.000Z</time>
      </trkpt>
      <trkpt lat="42.91633" lon="0.35407">
        <ele>768</ele>
        <time>2019-08-08T06:24:48.000Z</time>
      </trkpt>
      <trkpt lat="42.91627" lon="0.3542">
        <ele>768</ele>
        <time>2019-08-08T06:24:49.000Z</time>
      </trkpt>
      <trkpt lat="42.91625" lon="0.35434">
        <ele>768</ele>
        <time>2019-08-08T06:24:50.000Z</time>
      </trkpt>
      <trkpt lat="42.91624" lon="0.35447">
        <ele>768</ele>
        <time>2019-08-08T06:24:51.000Z</time>
      </trkpt>
      <trkpt lat="42.91622" lon="0.35461">
        <ele>768</ele>
        <time>2019-08-08T06:24:52.000Z</time>
      </trkpt>
      <trkpt lat="42.9162" lon="0.35474">
        <ele>767</ele>
        <time>2019-08-08T06:24:53.000Z</time>
      </trkpt>
      <trkpt lat="42.9162" lon="0.35488">
        <ele>767</ele>
        <time>2019-08-08T06:24:54.000Z</time>
      </trkpt>
      <trkpt lat="42.91621" lon="0.35501">
        <ele>767</ele>
        <time>2019-08-08T06:24:55.000Z</time>
      </trkpt>
      <trkpt lat="42.91621" lon="0.35519">
        <ele>766</ele>
        <time>2019-08-08T06:24:56.000Z</time>
      </trkpt>
      <trkpt lat="42.91621" lon="0.35524">
        <ele>765</ele>
        <time>2019-08-08T06:24:57.000Z</time>
      </trkpt>
      <trkpt lat="42.91618" lon="0.35539">
        <ele>765</ele>
        <time>2019-08-08T06:24:58.000Z</time>
      </trkpt>
      <trkpt lat="42.91617" lon="0.35543">
        <ele>765</ele>
        <time>2019-08-08T06:24:59.000Z</time>
      </trkpt>
      <trkpt lat="42.91609" lon="0.35553">
        <ele>765</ele>
        <time>2019-08-08T06:25:00.000Z</time>
      </trkpt>
      <trkpt lat="42.91605" lon="0.35556">
        <ele>765</ele>
        <time>2019-08-08T06:25:01.000Z</time>
      </trkpt>
      <trkpt lat="42.91597" lon="0.35561">
        <ele>764</ele>
        <time>2019-08-08T06:25:02.000Z</time>
      </trkpt>
      <trkpt lat="42.91588" lon="0.35568">
        <ele>764</ele>
        <time>2019-08-08T06:25:03.000Z</time>
      </trkpt>
      <trkpt lat="42.91578" lon="0.35581">
        <ele>764</ele>
        <time>2019-08-08T06:25:04.000Z</time>
      </trkpt>
      <trkpt lat="42.91575" lon="0.35586">
        <ele>763</ele>
        <time>2019-08-08T06:25:05.000Z</time>
      </trkpt>
      <trkpt lat="42.91569" lon="0.35596">
        <ele>763</ele>
        <time>2019-08-08T06:25:06.000Z</time>
      </trkpt>
      <trkpt lat="42.91563" lon="0.35612">
        <ele>763</ele>
        <time>2019-08-08T06:25:07.000Z</time>
      </trkpt>
      <trkpt lat="42.91561" lon="0.35618">
        <ele>762</ele>
        <time>2019-08-08T06:25:08.000Z</time>
      </trkpt>
      <trkpt lat="42.91555" lon="0.35634">
        <ele>762</ele>
        <time>2019-08-08T06:25:09.000Z</time>
      </trkpt>
      <trkpt lat="42.91553" lon="0.35639">
        <ele>762</ele>
        <time>2019-08-08T06:25:10.000Z</time>
      </trkpt>
      <trkpt lat="42.91546" lon="0.35653">
        <ele>762</ele>
        <time>2019-08-08T06:25:11.000Z</time>
      </trkpt>
      <trkpt lat="42.91543" lon="0.35657">
        <ele>762</ele>
        <time>2019-08-08T06:25:12.000Z</time>
      </trkpt>
      <trkpt lat="42.91536" lon="0.35671">
        <ele>761</ele>
        <time>2019-08-08T06:25:13.000Z</time>
      </trkpt>
      <trkpt lat="42.91533" lon="0.35676">
        <ele>761</ele>
        <time>2019-08-08T06:25:14.000Z</time>
      </trkpt>
      <trkpt lat="42.91528" lon="0.35686">
        <ele>761</ele>
        <time>2019-08-08T06:25:15.000Z</time>
      </trkpt>
      <trkpt lat="42.91523" lon="0.35698">
        <ele>761</ele>
        <time>2019-08-08T06:25:16.000Z</time>
      </trkpt>
      <trkpt lat="42.9152" lon="0.3571">
        <ele>760</ele>
        <time>2019-08-08T06:25:17.000Z</time>
      </trkpt>
      <trkpt lat="42.91516" lon="0.35723">
        <ele>760</ele>
        <time>2019-08-08T06:25:18.000Z</time>
      </trkpt>
      <trkpt lat="42.91512" lon="0.35736">
        <ele>759</ele>
        <time>2019-08-08T06:25:19.000Z</time>
      </trkpt>
      <trkpt lat="42.91509" lon="0.35749">
        <ele>759</ele>
        <time>2019-08-08T06:25:20.000Z</time>
      </trkpt>
      <trkpt lat="42.91506" lon="0.35762">
        <ele>759</ele>
        <time>2019-08-08T06:25:21.000Z</time>
      </trkpt>
      <trkpt lat="42.91503" lon="0.35775">
        <ele>759</ele>
        <time>2019-08-08T06:25:22.000Z</time>
      </trkpt>
      <trkpt lat="42.915" lon="0.35789">
        <ele>758</ele>
        <time>2019-08-08T06:25:23.000Z</time>
      </trkpt>
      <trkpt lat="42.91497" lon="0.35803">
        <ele>758</ele>
        <time>2019-08-08T06:25:24.000Z</time>
      </trkpt>
      <trkpt lat="42.91494" lon="0.35816">
        <ele>758</ele>
        <time>2019-08-08T06:25:25.000Z</time>
      </trkpt>
      <trkpt lat="42.91493" lon="0.35829">
        <ele>757</ele>
        <time>2019-08-08T06:25:26.000Z</time>
      </trkpt>
      <trkpt lat="42.9149" lon="0.35843">
        <ele>757</ele>
        <time>2019-08-08T06:25:27.000Z</time>
      </trkpt>
      <trkpt lat="42.91487" lon="0.35856">
        <ele>755</ele>
        <time>2019-08-08T06:25:28.000Z</time>
      </trkpt>
      <trkpt lat="42.91477" lon="0.3587">
        <ele>755</ele>
        <time>2019-08-08T06:25:29.000Z</time>
      </trkpt>
      <trkpt lat="42.91473" lon="0.35873">
        <ele>754</ele>
        <time>2019-08-08T06:25:30.000Z</time>
      </trkpt>
      <trkpt lat="42.91464" lon="0.35879">
        <ele>754</ele>
        <time>2019-08-08T06:25:31.000Z</time>
      </trkpt>
      <trkpt lat="42.91453" lon="0.35878">
        <ele>752</ele>
        <time>2019-08-08T06:25:32.000Z</time>
      </trkpt>
      <trkpt lat="42.91442" lon="0.35876">
        <ele>752</ele>
        <time>2019-08-08T06:25:33.000Z</time>
      </trkpt>
      <trkpt lat="42.91429" lon="0.35872">
        <ele>751</ele>
        <time>2019-08-08T06:25:34.000Z</time>
      </trkpt>
      <trkpt lat="42.91418" lon="0.35866">
        <ele>751</ele>
        <time>2019-08-08T06:25:35.000Z</time>
      </trkpt>
      <trkpt lat="42.91407" lon="0.3586">
        <ele>751</ele>
        <time>2019-08-08T06:25:36.000Z</time>
      </trkpt>
      <trkpt lat="42.91397" lon="0.35852">
        <ele>751</ele>
        <time>2019-08-08T06:25:37.000Z</time>
      </trkpt>
      <trkpt lat="42.91388" lon="0.35844">
        <ele>751</ele>
        <time>2019-08-08T06:25:38.000Z</time>
      </trkpt>
      <trkpt lat="42.91378" lon="0.35837">
        <ele>747</ele>
        <time>2019-08-08T06:25:39.000Z</time>
      </trkpt>
      <trkpt lat="42.91368" lon="0.35831">
        <ele>747</ele>
        <time>2019-08-08T06:25:40.000Z</time>
      </trkpt>
      <trkpt lat="42.91357" lon="0.35828">
        <ele>745</ele>
        <time>2019-08-08T06:25:41.000Z</time>
      </trkpt>
      <trkpt lat="42.91346" lon="0.35825">
        <ele>745</ele>
        <time>2019-08-08T06:25:42.000Z</time>
      </trkpt>
      <trkpt lat="42.91335" lon="0.35824">
        <ele>744</ele>
        <time>2019-08-08T06:25:43.000Z</time>
      </trkpt>
      <trkpt lat="42.91323" lon="0.35825">
        <ele>744</ele>
        <time>2019-08-08T06:25:44.000Z</time>
      </trkpt>
      <trkpt lat="42.91312" lon="0.35826">
        <ele>742</ele>
        <time>2019-08-08T06:25:45.000Z</time>
      </trkpt>
      <trkpt lat="42.91299" lon="0.35829">
        <ele>742</ele>
        <time>2019-08-08T06:25:46.000Z</time>
      </trkpt>
      <trkpt lat="42.91287" lon="0.35833">
        <ele>740</ele>
        <time>2019-08-08T06:25:47.000Z</time>
      </trkpt>
      <trkpt lat="42.91275" lon="0.35837">
        <ele>740</ele>
        <time>2019-08-08T06:25:48.000Z</time>
      </trkpt>
      <trkpt lat="42.91263" lon="0.35842">
        <ele>737</ele>
        <time>2019-08-08T06:25:49.000Z</time>
      </trkpt>
      <trkpt lat="42.9125" lon="0.35848">
        <ele>737</ele>
        <time>2019-08-08T06:25:50.000Z</time>
      </trkpt>
      <trkpt lat="42.91238" lon="0.35855">
        <ele>735</ele>
        <time>2019-08-08T06:25:51.000Z</time>
      </trkpt>
      <trkpt lat="42.91226" lon="0.35862">
        <ele>735</ele>
        <time>2019-08-08T06:25:52.000Z</time>
      </trkpt>
      <trkpt lat="42.91215" lon="0.3587">
        <ele>733</ele>
        <time>2019-08-08T06:25:53.000Z</time>
      </trkpt>
      <trkpt lat="42.91204" lon="0.35879">
        <ele>733</ele>
        <time>2019-08-08T06:25:54.000Z</time>
      </trkpt>
      <trkpt lat="42.91193" lon="0.35888">
        <ele>732</ele>
        <time>2019-08-08T06:25:55.000Z</time>
      </trkpt>
      <trkpt lat="42.91182" lon="0.35897">
        <ele>732</ele>
        <time>2019-08-08T06:25:56.000Z</time>
      </trkpt>
      <trkpt lat="42.91169" lon="0.35908">
        <ele>729</ele>
        <time>2019-08-08T06:25:57.000Z</time>
      </trkpt>
      <trkpt lat="42.91157" lon="0.35918">
        <ele>729</ele>
        <time>2019-08-08T06:25:58.000Z</time>
      </trkpt>
      <trkpt lat="42.91145" lon="0.35927">
        <ele>727</ele>
        <time>2019-08-08T06:25:59.000Z</time>
      </trkpt>
      <trkpt lat="42.91133" lon="0.35937">
        <ele>727</ele>
        <time>2019-08-08T06:26:00.000Z</time>
      </trkpt>
      <trkpt lat="42.91122" lon="0.35945">
        <ele>725</ele>
        <time>2019-08-08T06:26:01.000Z</time>
      </trkpt>
      <trkpt lat="42.91111" lon="0.35954">
        <ele>725</ele>
        <time>2019-08-08T06:26:02.000Z</time>
      </trkpt>
      <trkpt lat="42.91101" lon="0.35963">
        <ele>724</ele>
        <time>2019-08-08T06:26:03.000Z</time>
      </trkpt>
      <trkpt lat="42.91091" lon="0.3597">
        <ele>724</ele>
        <time>2019-08-08T06:26:04.000Z</time>
      </trkpt>
      <trkpt lat="42.91081" lon="0.35977">
        <ele>724</ele>
        <time>2019-08-08T06:26:05.000Z</time>
      </trkpt>
      <trkpt lat="42.91072" lon="0.35982">
        <ele>723</ele>
        <time>2019-08-08T06:26:06.000Z</time>
      </trkpt>
      <trkpt lat="42.91063" lon="0.35986">
        <ele>723</ele>
        <time>2019-08-08T06:26:07.000Z</time>
      </trkpt>
      <trkpt lat="42.91053" lon="0.3599">
        <ele>723</ele>
        <time>2019-08-08T06:26:08.000Z</time>
      </trkpt>
      <trkpt lat="42.91042" lon="0.35992">
        <ele>723</ele>
        <time>2019-08-08T06:26:09.000Z</time>
      </trkpt>
      <trkpt lat="42.9103" lon="0.35995">
        <ele>722</ele>
        <time>2019-08-08T06:26:10.000Z</time>
      </trkpt>
      <trkpt lat="42.91019" lon="0.35998">
        <ele>722</ele>
        <time>2019-08-08T06:26:11.000Z</time>
      </trkpt>
      <trkpt lat="42.91008" lon="0.36001">
        <ele>721</ele>
        <time>2019-08-08T06:26:12.000Z</time>
      </trkpt>
      <trkpt lat="42.90998" lon="0.36003">
        <ele>721</ele>
        <time>2019-08-08T06:26:13.000Z</time>
      </trkpt>
      <trkpt lat="42.90987" lon="0.36004">
        <ele>720</ele>
        <time>2019-08-08T06:26:14.000Z</time>
      </trkpt>
      <trkpt lat="42.90977" lon="0.36004">
        <ele>720</ele>
        <time>2019-08-08T06:26:15.000Z</time>
      </trkpt>
      <trkpt lat="42.90967" lon="0.36001">
        <ele>719</ele>
        <time>2019-08-08T06:26:16.000Z</time>
      </trkpt>
      <trkpt lat="42.90957" lon="0.35997">
        <ele>719</ele>
        <time>2019-08-08T06:26:17.000Z</time>
      </trkpt>
      <trkpt lat="42.90948" lon="0.35994">
        <ele>719</ele>
        <time>2019-08-08T06:26:18.000Z</time>
      </trkpt>
      <trkpt lat="42.90941" lon="0.35994">
        <ele>719</ele>
        <time>2019-08-08T06:26:19.000Z</time>
      </trkpt>
      <trkpt lat="42.90934" lon="0.35993">
        <ele>718</ele>
        <time>2019-08-08T06:26:20.000Z</time>
      </trkpt>
      <trkpt lat="42.90928" lon="0.3599">
        <ele>718</ele>
        <time>2019-08-08T06:26:21.000Z</time>
      </trkpt>
      <trkpt lat="42.90922" lon="0.35985">
        <ele>718</ele>
        <time>2019-08-08T06:26:22.000Z</time>
      </trkpt>
      <trkpt lat="42.90918" lon="0.35979">
        <ele>717</ele>
        <time>2019-08-08T06:26:23.000Z</time>
      </trkpt>
      <trkpt lat="42.90913" lon="0.35972">
        <ele>717</ele>
        <time>2019-08-08T06:26:24.000Z</time>
      </trkpt>
      <trkpt lat="42.90909" lon="0.35965">
        <ele>717</ele>
        <time>2019-08-08T06:26:25.000Z</time>
      </trkpt>
      <trkpt lat="42.90905" lon="0.35959">
        <ele>717</ele>
        <time>2019-08-08T06:26:26.000Z</time>
      </trkpt>
      <trkpt lat="42.909" lon="0.35953">
        <ele>717</ele>
        <time>2019-08-08T06:26:27.000Z</time>
      </trkpt>
      <trkpt lat="42.90894" lon="0.35946">
        <ele>717</ele>
        <time>2019-08-08T06:26:28.000Z</time>
      </trkpt>
      <trkpt lat="42.90889" lon="0.3594">
        <ele>717</ele>
        <time>2019-08-08T06:26:29.000Z</time>
      </trkpt>
      <trkpt lat="42.90884" lon="0.35933">
        <ele>717</ele>
        <time>2019-08-08T06:26:30.000Z</time>
      </trkpt>
      <trkpt lat="42.90879" lon="0.35927">
        <ele>717</ele>
        <time>2019-08-08T06:26:31.000Z</time>
      </trkpt>
      <trkpt lat="42.90875" lon="0.3592">
        <ele>717</ele>
        <time>2019-08-08T06:26:32.000Z</time>
      </trkpt>
      <trkpt lat="42.90869" lon="0.35914">
        <ele>717</ele>
        <time>2019-08-08T06:26:33.000Z</time>
      </trkpt>
      <trkpt lat="42.90864" lon="0.35909">
        <ele>716</ele>
        <time>2019-08-08T06:26:34.000Z</time>
      </trkpt>
      <trkpt lat="42.9086" lon="0.35903">
        <ele>716</ele>
        <time>2019-08-08T06:26:35.000Z</time>
      </trkpt>
      <trkpt lat="42.90854" lon="0.35897">
        <ele>716</ele>
        <time>2019-08-08T06:26:36.000Z</time>
      </trkpt>
      <trkpt lat="42.90849" lon="0.3589">
        <ele>716</ele>
        <time>2019-08-08T06:26:37.000Z</time>
      </trkpt>
      <trkpt lat="42.90841" lon="0.3588">
        <ele>716</ele>
        <time>2019-08-08T06:26:38.000Z</time>
      </trkpt>
      <trkpt lat="42.90838" lon="0.35876">
        <ele>716</ele>
        <time>2019-08-08T06:26:39.000Z</time>
      </trkpt>
      <trkpt lat="42.90831" lon="0.35869">
        <ele>716</ele>
        <time>2019-08-08T06:26:40.000Z</time>
      </trkpt>
      <trkpt lat="42.90825" lon="0.35862">
        <ele>716</ele>
        <time>2019-08-08T06:26:41.000Z</time>
      </trkpt>
      <trkpt lat="42.9082" lon="0.35855">
        <ele>716</ele>
        <time>2019-08-08T06:26:42.000Z</time>
      </trkpt>
      <trkpt lat="42.90814" lon="0.35849">
        <ele>715</ele>
        <time>2019-08-08T06:26:43.000Z</time>
      </trkpt>
      <trkpt lat="42.90808" lon="0.35843">
        <ele>715</ele>
        <time>2019-08-08T06:26:44.000Z</time>
      </trkpt>
      <trkpt lat="42.90802" lon="0.35837">
        <ele>715</ele>
        <time>2019-08-08T06:26:45.000Z</time>
      </trkpt>
      <trkpt lat="42.90795" lon="0.35831">
        <ele>716</ele>
        <time>2019-08-08T06:26:46.000Z</time>
      </trkpt>
      <trkpt lat="42.90786" lon="0.35823">
        <ele>716</ele>
        <time>2019-08-08T06:26:47.000Z</time>
      </trkpt>
      <trkpt lat="42.90783" lon="0.35821">
        <ele>716</ele>
        <time>2019-08-08T06:26:48.000Z</time>
      </trkpt>
      <trkpt lat="42.90777" lon="0.35817">
        <ele>716</ele>
        <time>2019-08-08T06:26:49.000Z</time>
      </trkpt>
      <trkpt lat="42.9077" lon="0.35812">
        <ele>716</ele>
        <time>2019-08-08T06:26:50.000Z</time>
      </trkpt>
      <trkpt lat="42.90765" lon="0.35807">
        <ele>716</ele>
        <time>2019-08-08T06:26:51.000Z</time>
      </trkpt>
      <trkpt lat="42.90759" lon="0.35803">
        <ele>717</ele>
        <time>2019-08-08T06:26:52.000Z</time>
      </trkpt>
      <trkpt lat="42.90754" lon="0.35798">
        <ele>717</ele>
        <time>2019-08-08T06:26:53.000Z</time>
      </trkpt>
      <trkpt lat="42.9075" lon="0.35794">
        <ele>718</ele>
        <time>2019-08-08T06:26:54.000Z</time>
      </trkpt>
      <trkpt lat="42.90745" lon="0.3579">
        <ele>718</ele>
        <time>2019-08-08T06:26:55.000Z</time>
      </trkpt>
      <trkpt lat="42.90741" lon="0.35786">
        <ele>718</ele>
        <time>2019-08-08T06:26:56.000Z</time>
      </trkpt>
      <trkpt lat="42.90737" lon="0.35782">
        <ele>718</ele>
        <time>2019-08-08T06:26:57.000Z</time>
      </trkpt>
      <trkpt lat="42.90733" lon="0.35778">
        <ele>718</ele>
        <time>2019-08-08T06:26:58.000Z</time>
      </trkpt>
      <trkpt lat="42.90728" lon="0.35774">
        <ele>718</ele>
        <time>2019-08-08T06:26:59.000Z</time>
      </trkpt>
      <trkpt lat="42.90725" lon="0.35769">
        <ele>718</ele>
        <time>2019-08-08T06:27:00.000Z</time>
      </trkpt>
      <trkpt lat="42.90721" lon="0.35765">
        <ele>718</ele>
        <time>2019-08-08T06:27:01.000Z</time>
      </trkpt>
      <trkpt lat="42.90717" lon="0.35761">
        <ele>718</ele>
        <time>2019-08-08T06:27:02.000Z</time>
      </trkpt>
      <trkpt lat="42.90713" lon="0.35757">
        <ele>719</ele>
        <time>2019-08-08T06:27:03.000Z</time>
      </trkpt>
      <trkpt lat="42.90709" lon="0.35753">
        <ele>719</ele>
        <time>2019-08-08T06:27:04.000Z</time>
      </trkpt>
      <trkpt lat="42.90704" lon="0.35749">
        <ele>719</ele>
        <time>2019-08-08T06:27:05.000Z</time>
      </trkpt>
      <trkpt lat="42.907" lon="0.35746">
        <ele>719</ele>
        <time>2019-08-08T06:27:06.000Z</time>
      </trkpt>
      <trkpt lat="42.90695" lon="0.35743">
        <ele>719</ele>
        <time>2019-08-08T06:27:07.000Z</time>
      </trkpt>
      <trkpt lat="42.90691" lon="0.35741">
        <ele>719</ele>
        <time>2019-08-08T06:27:08.000Z</time>
      </trkpt>
      <trkpt lat="42.90686" lon="0.3574">
        <ele>719</ele>
        <time>2019-08-08T06:27:09.000Z</time>
      </trkpt>
      <trkpt lat="42.90681" lon="0.35739">
        <ele>719</ele>
        <time>2019-08-08T06:27:10.000Z</time>
      </trkpt>
      <trkpt lat="42.90681" lon="0.35739">
        <ele>719</ele>
        <time>2019-08-08T06:27:11.000Z</time>
      </trkpt>
      <trkpt lat="42.90672" lon="0.35738">
        <ele>719</ele>
        <time>2019-08-08T06:27:12.000Z</time>
      </trkpt>
      <trkpt lat="42.90667" lon="0.35738">
        <ele>719</ele>
        <time>2019-08-08T06:27:13.000Z</time>
      </trkpt>
      <trkpt lat="42.90661" lon="0.35738">
        <ele>720</ele>
        <time>2019-08-08T06:27:14.000Z</time>
      </trkpt>
      <trkpt lat="42.90656" lon="0.35739">
        <ele>720</ele>
        <time>2019-08-08T06:27:15.000Z</time>
      </trkpt>
      <trkpt lat="42.90651" lon="0.3574">
        <ele>720</ele>
        <time>2019-08-08T06:27:16.000Z</time>
      </trkpt>
      <trkpt lat="42.90651" lon="0.3574">
        <ele>720</ele>
        <time>2019-08-08T06:27:17.000Z</time>
      </trkpt>
      <trkpt lat="42.90641" lon="0.35742">
        <ele>720</ele>
        <time>2019-08-08T06:27:18.000Z</time>
      </trkpt>
      <trkpt lat="42.90641" lon="0.35742">
        <ele>720</ele>
        <time>2019-08-08T06:27:19.000Z</time>
      </trkpt>
      <trkpt lat="42.90631" lon="0.35744">
        <ele>720</ele>
        <time>2019-08-08T06:27:20.000Z</time>
      </trkpt>
      <trkpt lat="42.90627" lon="0.35745">
        <ele>720</ele>
        <time>2019-08-08T06:27:21.000Z</time>
      </trkpt>
      <trkpt lat="42.90622" lon="0.35746">
        <ele>720</ele>
        <time>2019-08-08T06:27:22.000Z</time>
      </trkpt>
      <trkpt lat="42.90618" lon="0.35746">
        <ele>721</ele>
        <time>2019-08-08T06:27:23.000Z</time>
      </trkpt>
      <trkpt lat="42.90613" lon="0.35747">
        <ele>721</ele>
        <time>2019-08-08T06:27:24.000Z</time>
      </trkpt>
      <trkpt lat="42.90608" lon="0.35748">
        <ele>721</ele>
        <time>2019-08-08T06:27:25.000Z</time>
      </trkpt>
      <trkpt lat="42.90603" lon="0.35749">
        <ele>721</ele>
        <time>2019-08-08T06:27:26.000Z</time>
      </trkpt>
      <trkpt lat="42.90598" lon="0.35749">
        <ele>721</ele>
        <time>2019-08-08T06:27:27.000Z</time>
      </trkpt>
      <trkpt lat="42.90593" lon="0.35749">
        <ele>721</ele>
        <time>2019-08-08T06:27:28.000Z</time>
      </trkpt>
      <trkpt lat="42.90588" lon="0.35748">
        <ele>721</ele>
        <time>2019-08-08T06:27:29.000Z</time>
      </trkpt>
      <trkpt lat="42.90583" lon="0.35747">
        <ele>721</ele>
        <time>2019-08-08T06:27:30.000Z</time>
      </trkpt>
      <trkpt lat="42.90578" lon="0.35745">
        <ele>721</ele>
        <time>2019-08-08T06:27:31.000Z</time>
      </trkpt>
      <trkpt lat="42.90573" lon="0.35743">
        <ele>722</ele>
        <time>2019-08-08T06:27:32.000Z</time>
      </trkpt>
      <trkpt lat="42.90569" lon="0.3574">
        <ele>722</ele>
        <time>2019-08-08T06:27:33.000Z</time>
      </trkpt>
      <trkpt lat="42.90565" lon="0.35737">
        <ele>722</ele>
        <time>2019-08-08T06:27:34.000Z</time>
      </trkpt>
      <trkpt lat="42.90561" lon="0.35733">
        <ele>722</ele>
        <time>2019-08-08T06:27:35.000Z</time>
      </trkpt>
      <trkpt lat="42.90558" lon="0.3573">
        <ele>722</ele>
        <time>2019-08-08T06:27:36.000Z</time>
      </trkpt>
      <trkpt lat="42.90554" lon="0.35726">
        <ele>722</ele>
        <time>2019-08-08T06:27:37.000Z</time>
      </trkpt>
      <trkpt lat="42.9055" lon="0.35722">
        <ele>722</ele>
        <time>2019-08-08T06:27:38.000Z</time>
      </trkpt>
      <trkpt lat="42.90546" lon="0.35718">
        <ele>723</ele>
        <time>2019-08-08T06:27:39.000Z</time>
      </trkpt>
      <trkpt lat="42.90543" lon="0.35713">
        <ele>723</ele>
        <time>2019-08-08T06:27:40.000Z</time>
      </trkpt>
      <trkpt lat="42.90539" lon="0.35709">
        <ele>723</ele>
        <time>2019-08-08T06:27:41.000Z</time>
      </trkpt>
      <trkpt lat="42.90536" lon="0.35704">
        <ele>723</ele>
        <time>2019-08-08T06:27:42.000Z</time>
      </trkpt>
      <trkpt lat="42.90532" lon="0.357">
        <ele>724</ele>
        <time>2019-08-08T06:27:43.000Z</time>
      </trkpt>
      <trkpt lat="42.90529" lon="0.35696">
        <ele>724</ele>
        <time>2019-08-08T06:27:44.000Z</time>
      </trkpt>
      <trkpt lat="42.90526" lon="0.35692">
        <ele>725</ele>
        <time>2019-08-08T06:27:45.000Z</time>
      </trkpt>
      <trkpt lat="42.90523" lon="0.35688">
        <ele>725</ele>
        <time>2019-08-08T06:27:46.000Z</time>
      </trkpt>
      <trkpt lat="42.90519" lon="0.35683">
        <ele>725</ele>
        <time>2019-08-08T06:27:47.000Z</time>
      </trkpt>
      <trkpt lat="42.90516" lon="0.35679">
        <ele>725</ele>
        <time>2019-08-08T06:27:48.000Z</time>
      </trkpt>
      <trkpt lat="42.90512" lon="0.35675">
        <ele>725</ele>
        <time>2019-08-08T06:27:49.000Z</time>
      </trkpt>
      <trkpt lat="42.90509" lon="0.3567">
        <ele>725</ele>
        <time>2019-08-08T06:27:50.000Z</time>
      </trkpt>
      <trkpt lat="42.90505" lon="0.35666">
        <ele>725</ele>
        <time>2019-08-08T06:27:51.000Z</time>
      </trkpt>
      <trkpt lat="42.90501" lon="0.35661">
        <ele>725</ele>
        <time>2019-08-08T06:27:52.000Z</time>
      </trkpt>
      <trkpt lat="42.90498" lon="0.35657">
        <ele>725</ele>
        <time>2019-08-08T06:27:53.000Z</time>
      </trkpt>
      <trkpt lat="42.90494" lon="0.35652">
        <ele>725</ele>
        <time>2019-08-08T06:27:54.000Z</time>
      </trkpt>
      <trkpt lat="42.90491" lon="0.35648">
        <ele>725</ele>
        <time>2019-08-08T06:27:55.000Z</time>
      </trkpt>
      <trkpt lat="42.90487" lon="0.35643">
        <ele>725</ele>
        <time>2019-08-08T06:27:56.000Z</time>
      </trkpt>
      <trkpt lat="42.90483" lon="0.35638">
        <ele>725</ele>
        <time>2019-08-08T06:27:57.000Z</time>
      </trkpt>
      <trkpt lat="42.90479" lon="0.35633">
        <ele>725</ele>
        <time>2019-08-08T06:27:58.000Z</time>
      </trkpt>
      <trkpt lat="42.90475" lon="0.35629">
        <ele>725</ele>
        <time>2019-08-08T06:27:59.000Z</time>
      </trkpt>
      <trkpt lat="42.90472" lon="0.35624">
        <ele>726</ele>
        <time>2019-08-08T06:28:00.000Z</time>
      </trkpt>
      <trkpt lat="42.90468" lon="0.35619">
        <ele>726</ele>
        <time>2019-08-08T06:28:01.000Z</time>
      </trkpt>
      <trkpt lat="42.90465" lon="0.35614">
        <ele>727</ele>
        <time>2019-08-08T06:28:02.000Z</time>
      </trkpt>
      <trkpt lat="42.90461" lon="0.35609">
        <ele>727</ele>
        <time>2019-08-08T06:28:03.000Z</time>
      </trkpt>
      <trkpt lat="42.90458" lon="0.35604">
        <ele>727</ele>
        <time>2019-08-08T06:28:04.000Z</time>
      </trkpt>
      <trkpt lat="42.90455" lon="0.35599">
        <ele>727</ele>
        <time>2019-08-08T06:28:05.000Z</time>
      </trkpt>
      <trkpt lat="42.90451" lon="0.35594">
        <ele>727</ele>
        <time>2019-08-08T06:28:06.000Z</time>
      </trkpt>
      <trkpt lat="42.90447" lon="0.35589">
        <ele>727</ele>
        <time>2019-08-08T06:28:07.000Z</time>
      </trkpt>
      <trkpt lat="42.90444" lon="0.35583">
        <ele>727</ele>
        <time>2019-08-08T06:28:08.000Z</time>
      </trkpt>
      <trkpt lat="42.9044" lon="0.35578">
        <ele>727</ele>
        <time>2019-08-08T06:28:09.000Z</time>
      </trkpt>
      <trkpt lat="42.90436" lon="0.35572">
        <ele>727</ele>
        <time>2019-08-08T06:28:10.000Z</time>
      </trkpt>
      <trkpt lat="42.90433" lon="0.35567">
        <ele>727</ele>
        <time>2019-08-08T06:28:11.000Z</time>
      </trkpt>
      <trkpt lat="42.90429" lon="0.35561">
        <ele>727</ele>
        <time>2019-08-08T06:28:12.000Z</time>
      </trkpt>
      <trkpt lat="42.90426" lon="0.35556">
        <ele>727</ele>
        <time>2019-08-08T06:28:13.000Z</time>
      </trkpt>
      <trkpt lat="42.90423" lon="0.3555">
        <ele>728</ele>
        <time>2019-08-08T06:28:14.000Z</time>
      </trkpt>
      <trkpt lat="42.9042" lon="0.35544">
        <ele>728</ele>
        <time>2019-08-08T06:28:15.000Z</time>
      </trkpt>
      <trkpt lat="42.90417" lon="0.35538">
        <ele>728</ele>
        <time>2019-08-08T06:28:16.000Z</time>
      </trkpt>
      <trkpt lat="42.90414" lon="0.35533">
        <ele>728</ele>
        <time>2019-08-08T06:28:17.000Z</time>
      </trkpt>
      <trkpt lat="42.9041" lon="0.35527">
        <ele>729</ele>
        <time>2019-08-08T06:28:18.000Z</time>
      </trkpt>
      <trkpt lat="42.90407" lon="0.35522">
        <ele>729</ele>
        <time>2019-08-08T06:28:19.000Z</time>
      </trkpt>
      <trkpt lat="42.90402" lon="0.35518">
        <ele>729</ele>
        <time>2019-08-08T06:28:20.000Z</time>
      </trkpt>
      <trkpt lat="42.90397" lon="0.35514">
        <ele>729</ele>
        <time>2019-08-08T06:28:21.000Z</time>
      </trkpt>
      <trkpt lat="42.90393" lon="0.3551">
        <ele>728</ele>
        <time>2019-08-08T06:28:22.000Z</time>
      </trkpt>
      <trkpt lat="42.90388" lon="0.35507">
        <ele>728</ele>
        <time>2019-08-08T06:28:23.000Z</time>
      </trkpt>
      <trkpt lat="42.90383" lon="0.35504">
        <ele>729</ele>
        <time>2019-08-08T06:28:24.000Z</time>
      </trkpt>
      <trkpt lat="42.90378" lon="0.35502">
        <ele>729</ele>
        <time>2019-08-08T06:28:25.000Z</time>
      </trkpt>
      <trkpt lat="42.90373" lon="0.35499">
        <ele>730</ele>
        <time>2019-08-08T06:28:26.000Z</time>
      </trkpt>
      <trkpt lat="42.90368" lon="0.35496">
        <ele>730</ele>
        <time>2019-08-08T06:28:27.000Z</time>
      </trkpt>
      <trkpt lat="42.90363" lon="0.35492">
        <ele>730</ele>
        <time>2019-08-08T06:28:28.000Z</time>
      </trkpt>
      <trkpt lat="42.90357" lon="0.35489">
        <ele>730</ele>
        <time>2019-08-08T06:28:29.000Z</time>
      </trkpt>
      <trkpt lat="42.90352" lon="0.35485">
        <ele>731</ele>
        <time>2019-08-08T06:28:30.000Z</time>
      </trkpt>
      <trkpt lat="42.90347" lon="0.3548">
        <ele>731</ele>
        <time>2019-08-08T06:28:31.000Z</time>
      </trkpt>
      <trkpt lat="42.90343" lon="0.35475">
        <ele>731</ele>
        <time>2019-08-08T06:28:32.000Z</time>
      </trkpt>
      <trkpt lat="42.90338" lon="0.35471">
        <ele>731</ele>
        <time>2019-08-08T06:28:33.000Z</time>
      </trkpt>
      <trkpt lat="42.90334" lon="0.35466">
        <ele>731</ele>
        <time>2019-08-08T06:28:34.000Z</time>
      </trkpt>
      <trkpt lat="42.9033" lon="0.35461">
        <ele>732</ele>
        <time>2019-08-08T06:28:35.000Z</time>
      </trkpt>
      <trkpt lat="42.90326" lon="0.35457">
        <ele>732</ele>
        <time>2019-08-08T06:28:36.000Z</time>
      </trkpt>
      <trkpt lat="42.90321" lon="0.35452">
        <ele>732</ele>
        <time>2019-08-08T06:28:37.000Z</time>
      </trkpt>
      <trkpt lat="42.90317" lon="0.35448">
        <ele>732</ele>
        <time>2019-08-08T06:28:38.000Z</time>
      </trkpt>
      <trkpt lat="42.90313" lon="0.35443">
        <ele>733</ele>
        <time>2019-08-08T06:28:39.000Z</time>
      </trkpt>
      <trkpt lat="42.9031" lon="0.35439">
        <ele>733</ele>
        <time>2019-08-08T06:28:40.000Z</time>
      </trkpt>
      <trkpt lat="42.90306" lon="0.35435">
        <ele>733</ele>
        <time>2019-08-08T06:28:41.000Z</time>
      </trkpt>
      <trkpt lat="42.90302" lon="0.35431">
        <ele>733</ele>
        <time>2019-08-08T06:28:42.000Z</time>
      </trkpt>
      <trkpt lat="42.90298" lon="0.35427">
        <ele>734</ele>
        <time>2019-08-08T06:28:43.000Z</time>
      </trkpt>
      <trkpt lat="42.90294" lon="0.35423">
        <ele>734</ele>
        <time>2019-08-08T06:28:44.000Z</time>
      </trkpt>
      <trkpt lat="42.9029" lon="0.35418">
        <ele>734</ele>
        <time>2019-08-08T06:28:45.000Z</time>
      </trkpt>
      <trkpt lat="42.90285" lon="0.35414">
        <ele>734</ele>
        <time>2019-08-08T06:28:46.000Z</time>
      </trkpt>
      <trkpt lat="42.90281" lon="0.3541">
        <ele>734</ele>
        <time>2019-08-08T06:28:47.000Z</time>
      </trkpt>
      <trkpt lat="42.90276" lon="0.35406">
        <ele>734</ele>
        <time>2019-08-08T06:28:48.000Z</time>
      </trkpt>
      <trkpt lat="42.90272" lon="0.35402">
        <ele>734</ele>
        <time>2019-08-08T06:28:49.000Z</time>
      </trkpt>
      <trkpt lat="42.90267" lon="0.35398">
        <ele>734</ele>
        <time>2019-08-08T06:28:50.000Z</time>
      </trkpt>
      <trkpt lat="42.90263" lon="0.35395">
        <ele>734</ele>
        <time>2019-08-08T06:28:51.000Z</time>
      </trkpt>
      <trkpt lat="42.90258" lon="0.35391">
        <ele>734</ele>
        <time>2019-08-08T06:28:52.000Z</time>
      </trkpt>
      <trkpt lat="42.90254" lon="0.35387">
        <ele>734</ele>
        <time>2019-08-08T06:28:53.000Z</time>
      </trkpt>
      <trkpt lat="42.9025" lon="0.35384">
        <ele>735</ele>
        <time>2019-08-08T06:28:54.000Z</time>
      </trkpt>
      <trkpt lat="42.90245" lon="0.3538">
        <ele>735</ele>
        <time>2019-08-08T06:28:55.000Z</time>
      </trkpt>
      <trkpt lat="42.90241" lon="0.35377">
        <ele>736</ele>
        <time>2019-08-08T06:28:56.000Z</time>
      </trkpt>
      <trkpt lat="42.90236" lon="0.35374">
        <ele>736</ele>
        <time>2019-08-08T06:28:57.000Z</time>
      </trkpt>
      <trkpt lat="42.90232" lon="0.3537">
        <ele>736</ele>
        <time>2019-08-08T06:28:58.000Z</time>
      </trkpt>
      <trkpt lat="42.90228" lon="0.35367">
        <ele>736</ele>
        <time>2019-08-08T06:28:59.000Z</time>
      </trkpt>
      <trkpt lat="42.90223" lon="0.35364">
        <ele>736</ele>
        <time>2019-08-08T06:29:00.000Z</time>
      </trkpt>
      <trkpt lat="42.90219" lon="0.35361">
        <ele>736</ele>
        <time>2019-08-08T06:29:01.000Z</time>
      </trkpt>
      <trkpt lat="42.90215" lon="0.35358">
        <ele>736</ele>
        <time>2019-08-08T06:29:02.000Z</time>
      </trkpt>
      <trkpt lat="42.90211" lon="0.35355">
        <ele>736</ele>
        <time>2019-08-08T06:29:03.000Z</time>
      </trkpt>
      <trkpt lat="42.90206" lon="0.35352">
        <ele>736</ele>
        <time>2019-08-08T06:29:04.000Z</time>
      </trkpt>
      <trkpt lat="42.90202" lon="0.35348">
        <ele>736</ele>
        <time>2019-08-08T06:29:05.000Z</time>
      </trkpt>
      <trkpt lat="42.90198" lon="0.35345">
        <ele>736</ele>
        <time>2019-08-08T06:29:06.000Z</time>
      </trkpt>
      <trkpt lat="42.90194" lon="0.35342">
        <ele>736</ele>
        <time>2019-08-08T06:29:07.000Z</time>
      </trkpt>
      <trkpt lat="42.90189" lon="0.35339">
        <ele>737</ele>
        <time>2019-08-08T06:29:08.000Z</time>
      </trkpt>
      <trkpt lat="42.90185" lon="0.35336">
        <ele>737</ele>
        <time>2019-08-08T06:29:09.000Z</time>
      </trkpt>
      <trkpt lat="42.90179" lon="0.35331">
        <ele>737</ele>
        <time>2019-08-08T06:29:10.000Z</time>
      </trkpt>
      <trkpt lat="42.90177" lon="0.3533">
        <ele>737</ele>
        <time>2019-08-08T06:29:11.000Z</time>
      </trkpt>
      <trkpt lat="42.90173" lon="0.35327">
        <ele>737</ele>
        <time>2019-08-08T06:29:12.000Z</time>
      </trkpt>
      <trkpt lat="42.90169" lon="0.35324">
        <ele>738</ele>
        <time>2019-08-08T06:29:13.000Z</time>
      </trkpt>
      <trkpt lat="42.90165" lon="0.35321">
        <ele>738</ele>
        <time>2019-08-08T06:29:14.000Z</time>
      </trkpt>
      <trkpt lat="42.9016" lon="0.35318">
        <ele>739</ele>
        <time>2019-08-08T06:29:15.000Z</time>
      </trkpt>
      <trkpt lat="42.90156" lon="0.35315">
        <ele>739</ele>
        <time>2019-08-08T06:29:16.000Z</time>
      </trkpt>
      <trkpt lat="42.90152" lon="0.35312">
        <ele>739</ele>
        <time>2019-08-08T06:29:17.000Z</time>
      </trkpt>
      <trkpt lat="42.90147" lon="0.35309">
        <ele>739</ele>
        <time>2019-08-08T06:29:18.000Z</time>
      </trkpt>
      <trkpt lat="42.90143" lon="0.35307">
        <ele>739</ele>
        <time>2019-08-08T06:29:19.000Z</time>
      </trkpt>
      <trkpt lat="42.90139" lon="0.35304">
        <ele>739</ele>
        <time>2019-08-08T06:29:20.000Z</time>
      </trkpt>
      <trkpt lat="42.90135" lon="0.35302">
        <ele>739</ele>
        <time>2019-08-08T06:29:21.000Z</time>
      </trkpt>
      <trkpt lat="42.9013" lon="0.35299">
        <ele>739</ele>
        <time>2019-08-08T06:29:22.000Z</time>
      </trkpt>
      <trkpt lat="42.90126" lon="0.35297">
        <ele>739</ele>
        <time>2019-08-08T06:29:23.000Z</time>
      </trkpt>
      <trkpt lat="42.90122" lon="0.35294">
        <ele>739</ele>
        <time>2019-08-08T06:29:24.000Z</time>
      </trkpt>
      <trkpt lat="42.90117" lon="0.35292">
        <ele>739</ele>
        <time>2019-08-08T06:29:25.000Z</time>
      </trkpt>
      <trkpt lat="42.90112" lon="0.3529">
        <ele>739</ele>
        <time>2019-08-08T06:29:26.000Z</time>
      </trkpt>
      <trkpt lat="42.90107" lon="0.35288">
        <ele>740</ele>
        <time>2019-08-08T06:29:27.000Z</time>
      </trkpt>
      <trkpt lat="42.90103" lon="0.35286">
        <ele>740</ele>
        <time>2019-08-08T06:29:28.000Z</time>
      </trkpt>
      <trkpt lat="42.90098" lon="0.35284">
        <ele>740</ele>
        <time>2019-08-08T06:29:29.000Z</time>
      </trkpt>
      <trkpt lat="42.90093" lon="0.35283">
        <ele>740</ele>
        <time>2019-08-08T06:29:30.000Z</time>
      </trkpt>
      <trkpt lat="42.90088" lon="0.35282">
        <ele>740</ele>
        <time>2019-08-08T06:29:31.000Z</time>
      </trkpt>
      <trkpt lat="42.90083" lon="0.3528">
        <ele>740</ele>
        <time>2019-08-08T06:29:32.000Z</time>
      </trkpt>
      <trkpt lat="42.90078" lon="0.35279">
        <ele>740</ele>
        <time>2019-08-08T06:29:33.000Z</time>
      </trkpt>
      <trkpt lat="42.90073" lon="0.35278">
        <ele>740</ele>
        <time>2019-08-08T06:29:34.000Z</time>
      </trkpt>
      <trkpt lat="42.90067" lon="0.35277">
        <ele>740</ele>
        <time>2019-08-08T06:29:35.000Z</time>
      </trkpt>
      <trkpt lat="42.90061" lon="0.35276">
        <ele>740</ele>
        <time>2019-08-08T06:29:36.000Z</time>
      </trkpt>
      <trkpt lat="42.90055" lon="0.35276">
        <ele>740</ele>
        <time>2019-08-08T06:29:37.000Z</time>
      </trkpt>
      <trkpt lat="42.90049" lon="0.35276">
        <ele>741</ele>
        <time>2019-08-08T06:29:38.000Z</time>
      </trkpt>
      <trkpt lat="42.90043" lon="0.35277">
        <ele>741</ele>
        <time>2019-08-08T06:29:39.000Z</time>
      </trkpt>
      <trkpt lat="42.90036" lon="0.35278">
        <ele>741</ele>
        <time>2019-08-08T06:29:40.000Z</time>
      </trkpt>
      <trkpt lat="42.9003" lon="0.3528">
        <ele>741</ele>
        <time>2019-08-08T06:29:41.000Z</time>
      </trkpt>
      <trkpt lat="42.90024" lon="0.35282">
        <ele>741</ele>
        <time>2019-08-08T06:29:42.000Z</time>
      </trkpt>
      <trkpt lat="42.90017" lon="0.35284">
        <ele>741</ele>
        <time>2019-08-08T06:29:43.000Z</time>
      </trkpt>
      <trkpt lat="42.90011" lon="0.35286">
        <ele>741</ele>
        <time>2019-08-08T06:29:44.000Z</time>
      </trkpt>
      <trkpt lat="42.90004" lon="0.35288">
        <ele>741</ele>
        <time>2019-08-08T06:29:45.000Z</time>
      </trkpt>
      <trkpt lat="42.89998" lon="0.35291">
        <ele>741</ele>
        <time>2019-08-08T06:29:46.000Z</time>
      </trkpt>
      <trkpt lat="42.89991" lon="0.35294">
        <ele>740</ele>
        <time>2019-08-08T06:29:47.000Z</time>
      </trkpt>
      <trkpt lat="42.89984" lon="0.35296">
        <ele>740</ele>
        <time>2019-08-08T06:29:48.000Z</time>
      </trkpt>
      <trkpt lat="42.89977" lon="0.35298">
        <ele>741</ele>
        <time>2019-08-08T06:29:49.000Z</time>
      </trkpt>
      <trkpt lat="42.8997" lon="0.353">
        <ele>741</ele>
        <time>2019-08-08T06:29:50.000Z</time>
      </trkpt>
      <trkpt lat="42.89963" lon="0.35303">
        <ele>741</ele>
        <time>2019-08-08T06:29:51.000Z</time>
      </trkpt>
      <trkpt lat="42.89956" lon="0.35304">
        <ele>741</ele>
        <time>2019-08-08T06:29:52.000Z</time>
      </trkpt>
      <trkpt lat="42.89949" lon="0.35305">
        <ele>741</ele>
        <time>2019-08-08T06:29:53.000Z</time>
      </trkpt>
      <trkpt lat="42.89942" lon="0.35306">
        <ele>741</ele>
        <time>2019-08-08T06:29:54.000Z</time>
      </trkpt>
      <trkpt lat="42.89934" lon="0.35306">
        <ele>741</ele>
        <time>2019-08-08T06:29:55.000Z</time>
      </trkpt>
      <trkpt lat="42.89927" lon="0.35305">
        <ele>741</ele>
        <time>2019-08-08T06:29:56.000Z</time>
      </trkpt>
      <trkpt lat="42.8992" lon="0.35304">
        <ele>741</ele>
        <time>2019-08-08T06:29:57.000Z</time>
      </trkpt>
      <trkpt lat="42.89913" lon="0.35303">
        <ele>741</ele>
        <time>2019-08-08T06:29:58.000Z</time>
      </trkpt>
      <trkpt lat="42.89906" lon="0.35301">
        <ele>741</ele>
        <time>2019-08-08T06:29:59.000Z</time>
      </trkpt>
      <trkpt lat="42.89899" lon="0.353">
        <ele>741</ele>
        <time>2019-08-08T06:30:00.000Z</time>
      </trkpt>
      <trkpt lat="42.89892" lon="0.35298">
        <ele>741</ele>
        <time>2019-08-08T06:30:01.000Z</time>
      </trkpt>
      <trkpt lat="42.89885" lon="0.35296">
        <ele>742</ele>
        <time>2019-08-08T06:30:02.000Z</time>
      </trkpt>
      <trkpt lat="42.89878" lon="0.35294">
        <ele>742</ele>
        <time>2019-08-08T06:30:03.000Z</time>
      </trkpt>
      <trkpt lat="42.89871" lon="0.35293">
        <ele>742</ele>
        <time>2019-08-08T06:30:04.000Z</time>
      </trkpt>
      <trkpt lat="42.89864" lon="0.35292">
        <ele>742</ele>
        <time>2019-08-08T06:30:05.000Z</time>
      </trkpt>
      <trkpt lat="42.89857" lon="0.35292">
        <ele>742</ele>
        <time>2019-08-08T06:30:06.000Z</time>
      </trkpt>
      <trkpt lat="42.89849" lon="0.35292">
        <ele>742</ele>
        <time>2019-08-08T06:30:07.000Z</time>
      </trkpt>
      <trkpt lat="42.89842" lon="0.35292">
        <ele>742</ele>
        <time>2019-08-08T06:30:08.000Z</time>
      </trkpt>
      <trkpt lat="42.89835" lon="0.35293">
        <ele>742</ele>
        <time>2019-08-08T06:30:09.000Z</time>
      </trkpt>
      <trkpt lat="42.89827" lon="0.35294">
        <ele>742</ele>
        <time>2019-08-08T06:30:10.000Z</time>
      </trkpt>
      <trkpt lat="42.8982" lon="0.35297">
        <ele>742</ele>
        <time>2019-08-08T06:30:11.000Z</time>
      </trkpt>
      <trkpt lat="42.89813" lon="0.35299">
        <ele>742</ele>
        <time>2019-08-08T06:30:12.000Z</time>
      </trkpt>
      <trkpt lat="42.89806" lon="0.35303">
        <ele>741</ele>
        <time>2019-08-08T06:30:13.000Z</time>
      </trkpt>
      <trkpt lat="42.89798" lon="0.35306">
        <ele>741</ele>
        <time>2019-08-08T06:30:14.000Z</time>
      </trkpt>
      <trkpt lat="42.89791" lon="0.3531">
        <ele>741</ele>
        <time>2019-08-08T06:30:15.000Z</time>
      </trkpt>
      <trkpt lat="42.89784" lon="0.35315">
        <ele>741</ele>
        <time>2019-08-08T06:30:16.000Z</time>
      </trkpt>
      <trkpt lat="42.89777" lon="0.3532">
        <ele>741</ele>
        <time>2019-08-08T06:30:17.000Z</time>
      </trkpt>
      <trkpt lat="42.89769" lon="0.35324">
        <ele>741</ele>
        <time>2019-08-08T06:30:18.000Z</time>
      </trkpt>
      <trkpt lat="42.89761" lon="0.35329">
        <ele>741</ele>
        <time>2019-08-08T06:30:19.000Z</time>
      </trkpt>
      <trkpt lat="42.89753" lon="0.35334">
        <ele>741</ele>
        <time>2019-08-08T06:30:20.000Z</time>
      </trkpt>
      <trkpt lat="42.89745" lon="0.35339">
        <ele>741</ele>
        <time>2019-08-08T06:30:21.000Z</time>
      </trkpt>
      <trkpt lat="42.89737" lon="0.35344">
        <ele>741</ele>
        <time>2019-08-08T06:30:22.000Z</time>
      </trkpt>
      <trkpt lat="42.89729" lon="0.3535">
        <ele>739</ele>
        <time>2019-08-08T06:30:23.000Z</time>
      </trkpt>
      <trkpt lat="42.89721" lon="0.35356">
        <ele>739</ele>
        <time>2019-08-08T06:30:24.000Z</time>
      </trkpt>
      <trkpt lat="42.89714" lon="0.35361">
        <ele>739</ele>
        <time>2019-08-08T06:30:25.000Z</time>
      </trkpt>
      <trkpt lat="42.89702" lon="0.35371">
        <ele>739</ele>
        <time>2019-08-08T06:30:26.000Z</time>
      </trkpt>
      <trkpt lat="42.89698" lon="0.35374">
        <ele>738</ele>
        <time>2019-08-08T06:30:27.000Z</time>
      </trkpt>
      <trkpt lat="42.89691" lon="0.3538">
        <ele>738</ele>
        <time>2019-08-08T06:30:28.000Z</time>
      </trkpt>
      <trkpt lat="42.89683" lon="0.35386">
        <ele>739</ele>
        <time>2019-08-08T06:30:29.000Z</time>
      </trkpt>
      <trkpt lat="42.89675" lon="0.35391">
        <ele>739</ele>
        <time>2019-08-08T06:30:30.000Z</time>
      </trkpt>
      <trkpt lat="42.89667" lon="0.35396">
        <ele>739</ele>
        <time>2019-08-08T06:30:31.000Z</time>
      </trkpt>
      <trkpt lat="42.89659" lon="0.35401">
        <ele>739</ele>
        <time>2019-08-08T06:30:32.000Z</time>
      </trkpt>
      <trkpt lat="42.89652" lon="0.35406">
        <ele>738</ele>
        <time>2019-08-08T06:30:33.000Z</time>
      </trkpt>
      <trkpt lat="42.89645" lon="0.35411">
        <ele>738</ele>
        <time>2019-08-08T06:30:34.000Z</time>
      </trkpt>
      <trkpt lat="42.89638" lon="0.35416">
        <ele>739</ele>
        <time>2019-08-08T06:30:35.000Z</time>
      </trkpt>
      <trkpt lat="42.89631" lon="0.35421">
        <ele>739</ele>
        <time>2019-08-08T06:30:36.000Z</time>
      </trkpt>
      <trkpt lat="42.89624" lon="0.35426">
        <ele>739</ele>
        <time>2019-08-08T06:30:37.000Z</time>
      </trkpt>
      <trkpt lat="42.89617" lon="0.3543">
        <ele>739</ele>
        <time>2019-08-08T06:30:38.000Z</time>
      </trkpt>
      <trkpt lat="42.8961" lon="0.35435">
        <ele>739</ele>
        <time>2019-08-08T06:30:39.000Z</time>
      </trkpt>
      <trkpt lat="42.89603" lon="0.35439">
        <ele>739</ele>
        <time>2019-08-08T06:30:40.000Z</time>
      </trkpt>
      <trkpt lat="42.89596" lon="0.35444">
        <ele>739</ele>
        <time>2019-08-08T06:30:41.000Z</time>
      </trkpt>
      <trkpt lat="42.89589" lon="0.35448">
        <ele>740</ele>
        <time>2019-08-08T06:30:42.000Z</time>
      </trkpt>
      <trkpt lat="42.89583" lon="0.35452">
        <ele>740</ele>
        <time>2019-08-08T06:30:43.000Z</time>
      </trkpt>
      <trkpt lat="42.89577" lon="0.35456">
        <ele>740</ele>
        <time>2019-08-08T06:30:44.000Z</time>
      </trkpt>
      <trkpt lat="42.89567" lon="0.35461">
        <ele>740</ele>
        <time>2019-08-08T06:30:45.000Z</time>
      </trkpt>
      <trkpt lat="42.89564" lon="0.35463">
        <ele>739.6</ele>
        <time>2019-08-08T06:30:46.000Z</time>
      </trkpt>
      <trkpt lat="42.89558" lon="0.35466">
        <ele>740</ele>
        <time>2019-08-08T06:30:47.000Z</time>
      </trkpt>
      <trkpt lat="42.89552" lon="0.35468">
        <ele>740</ele>
        <time>2019-08-08T06:30:48.000Z</time>
      </trkpt>
      <trkpt lat="42.89546" lon="0.35471">
        <ele>741</ele>
        <time>2019-08-08T06:30:49.000Z</time>
      </trkpt>
      <trkpt lat="42.8954" lon="0.35473">
        <ele>741</ele>
        <time>2019-08-08T06:30:50.000Z</time>
      </trkpt>
      <trkpt lat="42.89534" lon="0.35476">
        <ele>742</ele>
        <time>2019-08-08T06:30:51.000Z</time>
      </trkpt>
      <trkpt lat="42.89528" lon="0.35479">
        <ele>742</ele>
        <time>2019-08-08T06:30:52.000Z</time>
      </trkpt>
      <trkpt lat="42.89523" lon="0.35484">
        <ele>742</ele>
        <time>2019-08-08T06:30:53.000Z</time>
      </trkpt>
      <trkpt lat="42.8952" lon="0.3549">
        <ele>742</ele>
        <time>2019-08-08T06:30:54.000Z</time>
      </trkpt>
      <trkpt lat="42.89518" lon="0.35497">
        <ele>743</ele>
        <time>2019-08-08T06:30:55.000Z</time>
      </trkpt>
      <trkpt lat="42.89519" lon="0.35505">
        <ele>743</ele>
        <time>2019-08-08T06:30:56.000Z</time>
      </trkpt>
      <trkpt lat="42.89519" lon="0.35513">
        <ele>743</ele>
        <time>2019-08-08T06:30:57.000Z</time>
      </trkpt>
      <trkpt lat="42.8952" lon="0.35521">
        <ele>743</ele>
        <time>2019-08-08T06:30:58.000Z</time>
      </trkpt>
      <trkpt lat="42.8952" lon="0.3553">
        <ele>743</ele>
        <time>2019-08-08T06:30:59.000Z</time>
      </trkpt>
      <trkpt lat="42.8952" lon="0.35539">
        <ele>743</ele>
        <time>2019-08-08T06:31:00.000Z</time>
      </trkpt>
      <trkpt lat="42.8952" lon="0.35547">
        <ele>743</ele>
        <time>2019-08-08T06:31:01.000Z</time>
      </trkpt>
      <trkpt lat="42.89522" lon="0.35556">
        <ele>743</ele>
        <time>2019-08-08T06:31:02.000Z</time>
      </trkpt>
      <trkpt lat="42.89524" lon="0.35564">
        <ele>743</ele>
        <time>2019-08-08T06:31:03.000Z</time>
      </trkpt>
      <trkpt lat="42.89527" lon="0.35572">
        <ele>743</ele>
        <time>2019-08-08T06:31:04.000Z</time>
      </trkpt>
      <trkpt lat="42.8953" lon="0.35579">
        <ele>744</ele>
        <time>2019-08-08T06:31:05.000Z</time>
      </trkpt>
      <trkpt lat="42.89533" lon="0.35587">
        <ele>744</ele>
        <time>2019-08-08T06:31:06.000Z</time>
      </trkpt>
      <trkpt lat="42.89536" lon="0.35594">
        <ele>744</ele>
        <time>2019-08-08T06:31:07.000Z</time>
      </trkpt>
      <trkpt lat="42.89539" lon="0.356">
        <ele>744</ele>
        <time>2019-08-08T06:31:08.000Z</time>
      </trkpt>
      <trkpt lat="42.89542" lon="0.35607">
        <ele>744</ele>
        <time>2019-08-08T06:31:09.000Z</time>
      </trkpt>
      <trkpt lat="42.89545" lon="0.35613">
        <ele>745</ele>
        <time>2019-08-08T06:31:10.000Z</time>
      </trkpt>
      <trkpt lat="42.89549" lon="0.3562">
        <ele>745</ele>
        <time>2019-08-08T06:31:11.000Z</time>
      </trkpt>
      <trkpt lat="42.89552" lon="0.35626">
        <ele>746</ele>
        <time>2019-08-08T06:31:12.000Z</time>
      </trkpt>
      <trkpt lat="42.89555" lon="0.35631">
        <ele>746</ele>
        <time>2019-08-08T06:31:13.000Z</time>
      </trkpt>
      <trkpt lat="42.89558" lon="0.35637">
        <ele>746</ele>
        <time>2019-08-08T06:31:14.000Z</time>
      </trkpt>
      <trkpt lat="42.89562" lon="0.35642">
        <ele>746</ele>
        <time>2019-08-08T06:31:15.000Z</time>
      </trkpt>
      <trkpt lat="42.89565" lon="0.35648">
        <ele>747</ele>
        <time>2019-08-08T06:31:16.000Z</time>
      </trkpt>
      <trkpt lat="42.89568" lon="0.35653">
        <ele>747</ele>
        <time>2019-08-08T06:31:17.000Z</time>
      </trkpt>
      <trkpt lat="42.89571" lon="0.35658">
        <ele>747</ele>
        <time>2019-08-08T06:31:18.000Z</time>
      </trkpt>
      <trkpt lat="42.89574" lon="0.35663">
        <ele>747</ele>
        <time>2019-08-08T06:31:19.000Z</time>
      </trkpt>
      <trkpt lat="42.89577" lon="0.35669">
        <ele>748</ele>
        <time>2019-08-08T06:31:20.000Z</time>
      </trkpt>
      <trkpt lat="42.89581" lon="0.35674">
        <ele>748</ele>
        <time>2019-08-08T06:31:21.000Z</time>
      </trkpt>
      <trkpt lat="42.89584" lon="0.35678">
        <ele>749</ele>
        <time>2019-08-08T06:31:22.000Z</time>
      </trkpt>
      <trkpt lat="42.89587" lon="0.35683">
        <ele>749</ele>
        <time>2019-08-08T06:31:23.000Z</time>
      </trkpt>
      <trkpt lat="42.89591" lon="0.35688">
        <ele>749</ele>
        <time>2019-08-08T06:31:24.000Z</time>
      </trkpt>
      <trkpt lat="42.89594" lon="0.35692">
        <ele>749</ele>
        <time>2019-08-08T06:31:25.000Z</time>
      </trkpt>
      <trkpt lat="42.89598" lon="0.35697">
        <ele>749</ele>
        <time>2019-08-08T06:31:26.000Z</time>
      </trkpt>
      <trkpt lat="42.89601" lon="0.35701">
        <ele>749</ele>
        <time>2019-08-08T06:31:27.000Z</time>
      </trkpt>
      <trkpt lat="42.89605" lon="0.35705">
        <ele>749</ele>
        <time>2019-08-08T06:31:28.000Z</time>
      </trkpt>
      <trkpt lat="42.89609" lon="0.35709">
        <ele>750</ele>
        <time>2019-08-08T06:31:29.000Z</time>
      </trkpt>
      <trkpt lat="42.89613" lon="0.35713">
        <ele>750</ele>
        <time>2019-08-08T06:31:30.000Z</time>
      </trkpt>
      <trkpt lat="42.89616" lon="0.35717">
        <ele>750</ele>
        <time>2019-08-08T06:31:31.000Z</time>
      </trkpt>
      <trkpt lat="42.8962" lon="0.35721">
        <ele>750</ele>
        <time>2019-08-08T06:31:32.000Z</time>
      </trkpt>
      <trkpt lat="42.89624" lon="0.35725">
        <ele>751</ele>
        <time>2019-08-08T06:31:33.000Z</time>
      </trkpt>
      <trkpt lat="42.89628" lon="0.35729">
        <ele>751</ele>
        <time>2019-08-08T06:31:34.000Z</time>
      </trkpt>
      <trkpt lat="42.89632" lon="0.35732">
        <ele>751</ele>
        <time>2019-08-08T06:31:35.000Z</time>
      </trkpt>
      <trkpt lat="42.89636" lon="0.35736">
        <ele>751</ele>
        <time>2019-08-08T06:31:36.000Z</time>
      </trkpt>
      <trkpt lat="42.8964" lon="0.3574">
        <ele>752</ele>
        <time>2019-08-08T06:31:37.000Z</time>
      </trkpt>
      <trkpt lat="42.89644" lon="0.35743">
        <ele>752</ele>
        <time>2019-08-08T06:31:38.000Z</time>
      </trkpt>
      <trkpt lat="42.89648" lon="0.35747">
        <ele>753</ele>
        <time>2019-08-08T06:31:39.000Z</time>
      </trkpt>
      <trkpt lat="42.89652" lon="0.3575">
        <ele>752</ele>
        <time>2019-08-08T06:31:40.000Z</time>
      </trkpt>
      <trkpt lat="42.89655" lon="0.35753">
        <ele>753</ele>
        <time>2019-08-08T06:31:41.000Z</time>
      </trkpt>
      <trkpt lat="42.89659" lon="0.35756">
        <ele>753</ele>
        <time>2019-08-08T06:31:42.000Z</time>
      </trkpt>
      <trkpt lat="42.89662" lon="0.3576">
        <ele>753</ele>
        <time>2019-08-08T06:31:43.000Z</time>
      </trkpt>
      <trkpt lat="42.89666" lon="0.35763">
        <ele>754</ele>
        <time>2019-08-08T06:31:44.000Z</time>
      </trkpt>
      <trkpt lat="42.89669" lon="0.35766">
        <ele>754</ele>
        <time>2019-08-08T06:31:45.000Z</time>
      </trkpt>
      <trkpt lat="42.89673" lon="0.35769">
        <ele>754</ele>
        <time>2019-08-08T06:31:46.000Z</time>
      </trkpt>
      <trkpt lat="42.89676" lon="0.35772">
        <ele>754</ele>
        <time>2019-08-08T06:31:47.000Z</time>
      </trkpt>
      <trkpt lat="42.8968" lon="0.35776">
        <ele>755</ele>
        <time>2019-08-08T06:31:48.000Z</time>
      </trkpt>
      <trkpt lat="42.89683" lon="0.35779">
        <ele>755</ele>
        <time>2019-08-08T06:31:49.000Z</time>
      </trkpt>
      <trkpt lat="42.89687" lon="0.35782">
        <ele>756</ele>
        <time>2019-08-08T06:31:50.000Z</time>
      </trkpt>
      <trkpt lat="42.8969" lon="0.35785">
        <ele>756</ele>
        <time>2019-08-08T06:31:51.000Z</time>
      </trkpt>
      <trkpt lat="42.89693" lon="0.35789">
        <ele>756</ele>
        <time>2019-08-08T06:31:52.000Z</time>
      </trkpt>
      <trkpt lat="42.89696" lon="0.35793">
        <ele>756</ele>
        <time>2019-08-08T06:31:53.000Z</time>
      </trkpt>
      <trkpt lat="42.89699" lon="0.35797">
        <ele>756</ele>
        <time>2019-08-08T06:31:54.000Z</time>
      </trkpt>
      <trkpt lat="42.89702" lon="0.358">
        <ele>756</ele>
        <time>2019-08-08T06:31:55.000Z</time>
      </trkpt>
      <trkpt lat="42.89705" lon="0.35804">
        <ele>756</ele>
        <time>2019-08-08T06:31:56.000Z</time>
      </trkpt>
      <trkpt lat="42.89708" lon="0.35808">
        <ele>756</ele>
        <time>2019-08-08T06:31:57.000Z</time>
      </trkpt>
      <trkpt lat="42.89711" lon="0.35812">
        <ele>757</ele>
        <time>2019-08-08T06:31:58.000Z</time>
      </trkpt>
      <trkpt lat="42.89714" lon="0.35816">
        <ele>757</ele>
        <time>2019-08-08T06:31:59.000Z</time>
      </trkpt>
      <trkpt lat="42.89717" lon="0.3582">
        <ele>758</ele>
        <time>2019-08-08T06:32:00.000Z</time>
      </trkpt>
      <trkpt lat="42.89719" lon="0.35824">
        <ele>758</ele>
        <time>2019-08-08T06:32:01.000Z</time>
      </trkpt>
      <trkpt lat="42.89722" lon="0.35829">
        <ele>758</ele>
        <time>2019-08-08T06:32:02.000Z</time>
      </trkpt>
      <trkpt lat="42.89724" lon="0.35833">
        <ele>758</ele>
        <time>2019-08-08T06:32:03.000Z</time>
      </trkpt>
      <trkpt lat="42.89727" lon="0.35837">
        <ele>758</ele>
        <time>2019-08-08T06:32:04.000Z</time>
      </trkpt>
      <trkpt lat="42.89729" lon="0.35841">
        <ele>759</ele>
        <time>2019-08-08T06:32:05.000Z</time>
      </trkpt>
      <trkpt lat="42.89732" lon="0.35846">
        <ele>759</ele>
        <time>2019-08-08T06:32:06.000Z</time>
      </trkpt>
      <trkpt lat="42.89734" lon="0.3585">
        <ele>759</ele>
        <time>2019-08-08T06:32:07.000Z</time>
      </trkpt>
      <trkpt lat="42.89736" lon="0.35855">
        <ele>759</ele>
        <time>2019-08-08T06:32:08.000Z</time>
      </trkpt>
      <trkpt lat="42.89738" lon="0.3586">
        <ele>760</ele>
        <time>2019-08-08T06:32:09.000Z</time>
      </trkpt>
      <trkpt lat="42.8974" lon="0.35865">
        <ele>760</ele>
        <time>2019-08-08T06:32:10.000Z</time>
      </trkpt>
      <trkpt lat="42.89742" lon="0.35869">
        <ele>760</ele>
        <time>2019-08-08T06:32:11.000Z</time>
      </trkpt>
      <trkpt lat="42.89744" lon="0.35874">
        <ele>760</ele>
        <time>2019-08-08T06:32:12.000Z</time>
      </trkpt>
      <trkpt lat="42.89746" lon="0.35879">
        <ele>760</ele>
        <time>2019-08-08T06:32:13.000Z</time>
      </trkpt>
      <trkpt lat="42.89748" lon="0.35884">
        <ele>760</ele>
        <time>2019-08-08T06:32:14.000Z</time>
      </trkpt>
      <trkpt lat="42.8975" lon="0.35889">
        <ele>760</ele>
        <time>2019-08-08T06:32:15.000Z</time>
      </trkpt>
      <trkpt lat="42.89751" lon="0.35894">
        <ele>760</ele>
        <time>2019-08-08T06:32:16.000Z</time>
      </trkpt>
      <trkpt lat="42.89753" lon="0.35898">
        <ele>762</ele>
        <time>2019-08-08T06:32:17.000Z</time>
      </trkpt>
      <trkpt lat="42.89754" lon="0.35903">
        <ele>762</ele>
        <time>2019-08-08T06:32:18.000Z</time>
      </trkpt>
      <trkpt lat="42.89755" lon="0.35908">
        <ele>762</ele>
        <time>2019-08-08T06:32:19.000Z</time>
      </trkpt>
      <trkpt lat="42.89757" lon="0.35913">
        <ele>762</ele>
        <time>2019-08-08T06:32:20.000Z</time>
      </trkpt>
      <trkpt lat="42.89759" lon="0.35918">
        <ele>762</ele>
        <time>2019-08-08T06:32:21.000Z</time>
      </trkpt>
      <trkpt lat="42.8976" lon="0.35922">
        <ele>762</ele>
        <time>2019-08-08T06:32:22.000Z</time>
      </trkpt>
      <trkpt lat="42.89762" lon="0.35927">
        <ele>762</ele>
        <time>2019-08-08T06:32:23.000Z</time>
      </trkpt>
      <trkpt lat="42.89764" lon="0.35932">
        <ele>762</ele>
        <time>2019-08-08T06:32:24.000Z</time>
      </trkpt>
      <trkpt lat="42.89765" lon="0.35936">
        <ele>762</ele>
        <time>2019-08-08T06:32:25.000Z</time>
      </trkpt>
      <trkpt lat="42.89767" lon="0.35941">
        <ele>763</ele>
        <time>2019-08-08T06:32:26.000Z</time>
      </trkpt>
      <trkpt lat="42.89769" lon="0.35946">
        <ele>763</ele>
        <time>2019-08-08T06:32:27.000Z</time>
      </trkpt>
      <trkpt lat="42.8977" lon="0.35951">
        <ele>764</ele>
        <time>2019-08-08T06:32:28.000Z</time>
      </trkpt>
      <trkpt lat="42.89772" lon="0.35956">
        <ele>764</ele>
        <time>2019-08-08T06:32:29.000Z</time>
      </trkpt>
      <trkpt lat="42.89774" lon="0.35961">
        <ele>764</ele>
        <time>2019-08-08T06:32:30.000Z</time>
      </trkpt>
      <trkpt lat="42.89776" lon="0.35966">
        <ele>764</ele>
        <time>2019-08-08T06:32:31.000Z</time>
      </trkpt>
      <trkpt lat="42.89777" lon="0.35971">
        <ele>764</ele>
        <time>2019-08-08T06:32:32.000Z</time>
      </trkpt>
      <trkpt lat="42.89779" lon="0.35976">
        <ele>764</ele>
        <time>2019-08-08T06:32:33.000Z</time>
      </trkpt>
      <trkpt lat="42.89781" lon="0.35981">
        <ele>764</ele>
        <time>2019-08-08T06:32:34.000Z</time>
      </trkpt>
      <trkpt lat="42.89783" lon="0.35986">
        <ele>764</ele>
        <time>2019-08-08T06:32:35.000Z</time>
      </trkpt>
      <trkpt lat="42.89785" lon="0.35991">
        <ele>766</ele>
        <time>2019-08-08T06:32:36.000Z</time>
      </trkpt>
      <trkpt lat="42.89787" lon="0.35996">
        <ele>766</ele>
        <time>2019-08-08T06:32:37.000Z</time>
      </trkpt>
      <trkpt lat="42.89789" lon="0.36001">
        <ele>767</ele>
        <time>2019-08-08T06:32:38.000Z</time>
      </trkpt>
      <trkpt lat="42.89791" lon="0.36005">
        <ele>767</ele>
        <time>2019-08-08T06:32:39.000Z</time>
      </trkpt>
      <trkpt lat="42.89793" lon="0.3601">
        <ele>767</ele>
        <time>2019-08-08T06:32:40.000Z</time>
      </trkpt>
      <trkpt lat="42.89794" lon="0.36015">
        <ele>767</ele>
        <time>2019-08-08T06:32:41.000Z</time>
      </trkpt>
      <trkpt lat="42.89796" lon="0.3602">
        <ele>767</ele>
        <time>2019-08-08T06:32:42.000Z</time>
      </trkpt>
      <trkpt lat="42.89798" lon="0.36025">
        <ele>767</ele>
        <time>2019-08-08T06:32:43.000Z</time>
      </trkpt>
      <trkpt lat="42.898" lon="0.36029">
        <ele>767</ele>
        <time>2019-08-08T06:32:44.000Z</time>
      </trkpt>
      <trkpt lat="42.89802" lon="0.36034">
        <ele>767</ele>
        <time>2019-08-08T06:32:45.000Z</time>
      </trkpt>
      <trkpt lat="42.89804" lon="0.36039">
        <ele>768</ele>
        <time>2019-08-08T06:32:46.000Z</time>
      </trkpt>
      <trkpt lat="42.89807" lon="0.36044">
        <ele>768</ele>
        <time>2019-08-08T06:32:47.000Z</time>
      </trkpt>
      <trkpt lat="42.89809" lon="0.36049">
        <ele>768</ele>
        <time>2019-08-08T06:32:48.000Z</time>
      </trkpt>
      <trkpt lat="42.89811" lon="0.36054">
        <ele>768</ele>
        <time>2019-08-08T06:32:49.000Z</time>
      </trkpt>
      <trkpt lat="42.89813" lon="0.36059">
        <ele>768</ele>
        <time>2019-08-08T06:32:50.000Z</time>
      </trkpt>
      <trkpt lat="42.89816" lon="0.36064">
        <ele>768</ele>
        <time>2019-08-08T06:32:51.000Z</time>
      </trkpt>
      <trkpt lat="42.89818" lon="0.36069">
        <ele>768</ele>
        <time>2019-08-08T06:32:52.000Z</time>
      </trkpt>
      <trkpt lat="42.8982" lon="0.36075">
        <ele>768</ele>
        <time>2019-08-08T06:32:53.000Z</time>
      </trkpt>
      <trkpt lat="42.89822" lon="0.3608">
        <ele>768</ele>
        <time>2019-08-08T06:32:54.000Z</time>
      </trkpt>
      <trkpt lat="42.89824" lon="0.36086">
        <ele>768</ele>
        <time>2019-08-08T06:32:55.000Z</time>
      </trkpt>
      <trkpt lat="42.89826" lon="0.36091">
        <ele>768</ele>
        <time>2019-08-08T06:32:56.000Z</time>
      </trkpt>
      <trkpt lat="42.89829" lon="0.36097">
        <ele>768</ele>
        <time>2019-08-08T06:32:57.000Z</time>
      </trkpt>
      <trkpt lat="42.89831" lon="0.36103">
        <ele>768</ele>
        <time>2019-08-08T06:32:58.000Z</time>
      </trkpt>
      <trkpt lat="42.89833" lon="0.3611">
        <ele>768</ele>
        <time>2019-08-08T06:32:59.000Z</time>
      </trkpt>
      <trkpt lat="42.89835" lon="0.36116">
        <ele>768</ele>
        <time>2019-08-08T06:33:00.000Z</time>
      </trkpt>
      <trkpt lat="42.89837" lon="0.36123">
        <ele>768</ele>
        <time>2019-08-08T06:33:01.000Z</time>
      </trkpt>
      <trkpt lat="42.89839" lon="0.36131">
        <ele>768</ele>
        <time>2019-08-08T06:33:02.000Z</time>
      </trkpt>
      <trkpt lat="42.89841" lon="0.36138">
        <ele>768</ele>
        <time>2019-08-08T06:33:03.000Z</time>
      </trkpt>
      <trkpt lat="42.89844" lon="0.36147">
        <ele>768</ele>
        <time>2019-08-08T06:33:04.000Z</time>
      </trkpt>
      <trkpt lat="42.89846" lon="0.36156">
        <ele>768</ele>
        <time>2019-08-08T06:33:05.000Z</time>
      </trkpt>
      <trkpt lat="42.89849" lon="0.36165">
        <ele>767</ele>
        <time>2019-08-08T06:33:06.000Z</time>
      </trkpt>
      <trkpt lat="42.8985" lon="0.36175">
        <ele>767</ele>
        <time>2019-08-08T06:33:07.000Z</time>
      </trkpt>
      <trkpt lat="42.89851" lon="0.36186">
        <ele>766</ele>
        <time>2019-08-08T06:33:08.000Z</time>
      </trkpt>
      <trkpt lat="42.89854" lon="0.36197">
        <ele>766</ele>
        <time>2019-08-08T06:33:09.000Z</time>
      </trkpt>
      <trkpt lat="42.89856" lon="0.36208">
        <ele>765</ele>
        <time>2019-08-08T06:33:10.000Z</time>
      </trkpt>
      <trkpt lat="42.89858" lon="0.3622">
        <ele>765</ele>
        <time>2019-08-08T06:33:11.000Z</time>
      </trkpt>
      <trkpt lat="42.8986" lon="0.36232">
        <ele>763</ele>
        <time>2019-08-08T06:33:12.000Z</time>
      </trkpt>
      <trkpt lat="42.89862" lon="0.36245">
        <ele>763</ele>
        <time>2019-08-08T06:33:13.000Z</time>
      </trkpt>
      <trkpt lat="42.89864" lon="0.36259">
        <ele>762</ele>
        <time>2019-08-08T06:33:14.000Z</time>
      </trkpt>
      <trkpt lat="42.89866" lon="0.36272">
        <ele>762</ele>
        <time>2019-08-08T06:33:15.000Z</time>
      </trkpt>
      <trkpt lat="42.89868" lon="0.36286">
        <ele>761</ele>
        <time>2019-08-08T06:33:16.000Z</time>
      </trkpt>
      <trkpt lat="42.89871" lon="0.36301">
        <ele>761</ele>
        <time>2019-08-08T06:33:17.000Z</time>
      </trkpt>
      <trkpt lat="42.89874" lon="0.36315">
        <ele>759</ele>
        <time>2019-08-08T06:33:18.000Z</time>
      </trkpt>
      <trkpt lat="42.89877" lon="0.3633">
        <ele>759</ele>
        <time>2019-08-08T06:33:19.000Z</time>
      </trkpt>
      <trkpt lat="42.8988" lon="0.36345">
        <ele>759</ele>
        <time>2019-08-08T06:33:20.000Z</time>
      </trkpt>
      <trkpt lat="42.89883" lon="0.3636">
        <ele>758</ele>
        <time>2019-08-08T06:33:21.000Z</time>
      </trkpt>
      <trkpt lat="42.89885" lon="0.36375">
        <ele>758</ele>
        <time>2019-08-08T06:33:22.000Z</time>
      </trkpt>
      <trkpt lat="42.89888" lon="0.3639">
        <ele>757</ele>
        <time>2019-08-08T06:33:23.000Z</time>
      </trkpt>
      <trkpt lat="42.89889" lon="0.36405">
        <ele>757</ele>
        <time>2019-08-08T06:33:24.000Z</time>
      </trkpt>
      <trkpt lat="42.8989" lon="0.3642">
        <ele>752</ele>
        <time>2019-08-08T06:33:25.000Z</time>
      </trkpt>
      <trkpt lat="42.89889" lon="0.36436">
        <ele>752</ele>
        <time>2019-08-08T06:33:26.000Z</time>
      </trkpt>
      <trkpt lat="42.89889" lon="0.36452">
        <ele>752</ele>
        <time>2019-08-08T06:33:27.000Z</time>
      </trkpt>
      <trkpt lat="42.89886" lon="0.36468">
        <ele>751</ele>
        <time>2019-08-08T06:33:28.000Z</time>
      </trkpt>
      <trkpt lat="42.8988" lon="0.36483">
        <ele>751</ele>
        <time>2019-08-08T06:33:29.000Z</time>
      </trkpt>
      <trkpt lat="42.89874" lon="0.36497">
        <ele>750</ele>
        <time>2019-08-08T06:33:30.000Z</time>
      </trkpt>
      <trkpt lat="42.89867" lon="0.36511">
        <ele>750</ele>
        <time>2019-08-08T06:33:31.000Z</time>
      </trkpt>
      <trkpt lat="42.89861" lon="0.36524">
        <ele>750</ele>
        <time>2019-08-08T06:33:32.000Z</time>
      </trkpt>
      <trkpt lat="42.89854" lon="0.36537">
        <ele>750</ele>
        <time>2019-08-08T06:33:33.000Z</time>
      </trkpt>
      <trkpt lat="42.89847" lon="0.36549">
        <ele>750</ele>
        <time>2019-08-08T06:33:34.000Z</time>
      </trkpt>
      <trkpt lat="42.8984" lon="0.36561">
        <ele>750</ele>
        <time>2019-08-08T06:33:35.000Z</time>
      </trkpt>
      <trkpt lat="42.89835" lon="0.36573">
        <ele>750</ele>
        <time>2019-08-08T06:33:36.000Z</time>
      </trkpt>
      <trkpt lat="42.89829" lon="0.36584">
        <ele>750</ele>
        <time>2019-08-08T06:33:37.000Z</time>
      </trkpt>
      <trkpt lat="42.89823" lon="0.36595">
        <ele>750</ele>
        <time>2019-08-08T06:33:38.000Z</time>
      </trkpt>
      <trkpt lat="42.89816" lon="0.36611">
        <ele>751</ele>
        <time>2019-08-08T06:33:39.000Z</time>
      </trkpt>
      <trkpt lat="42.89814" lon="0.36616">
        <ele>751</ele>
        <time>2019-08-08T06:33:40.000Z</time>
      </trkpt>
      <trkpt lat="42.89808" lon="0.3663">
        <ele>751</ele>
        <time>2019-08-08T06:33:41.000Z</time>
      </trkpt>
      <trkpt lat="42.89806" lon="0.36634">
        <ele>751</ele>
        <time>2019-08-08T06:33:42.000Z</time>
      </trkpt>
      <trkpt lat="42.898" lon="0.36647">
        <ele>753</ele>
        <time>2019-08-08T06:33:43.000Z</time>
      </trkpt>
      <trkpt lat="42.89798" lon="0.36651">
        <ele>753</ele>
        <time>2019-08-08T06:33:44.000Z</time>
      </trkpt>
      <trkpt lat="42.89791" lon="0.36662">
        <ele>754</ele>
        <time>2019-08-08T06:33:45.000Z</time>
      </trkpt>
      <trkpt lat="42.89789" lon="0.36665">
        <ele>754</ele>
        <time>2019-08-08T06:33:46.000Z</time>
      </trkpt>
      <trkpt lat="42.89784" lon="0.36671">
        <ele>755</ele>
        <time>2019-08-08T06:33:47.000Z</time>
      </trkpt>
      <trkpt lat="42.89777" lon="0.3668">
        <ele>755</ele>
        <time>2019-08-08T06:33:48.000Z</time>
      </trkpt>
      <trkpt lat="42.89775" lon="0.36683">
        <ele>756</ele>
        <time>2019-08-08T06:33:49.000Z</time>
      </trkpt>
      <trkpt lat="42.89771" lon="0.36689">
        <ele>756</ele>
        <time>2019-08-08T06:33:50.000Z</time>
      </trkpt>
      <trkpt lat="42.89767" lon="0.36695">
        <ele>756</ele>
        <time>2019-08-08T06:33:51.000Z</time>
      </trkpt>
      <trkpt lat="42.89763" lon="0.36701">
        <ele>756</ele>
        <time>2019-08-08T06:33:52.000Z</time>
      </trkpt>
      <trkpt lat="42.89759" lon="0.36706">
        <ele>757</ele>
        <time>2019-08-08T06:33:53.000Z</time>
      </trkpt>
      <trkpt lat="42.89756" lon="0.36711">
        <ele>757</ele>
        <time>2019-08-08T06:33:54.000Z</time>
      </trkpt>
      <trkpt lat="42.89752" lon="0.36717">
        <ele>758</ele>
        <time>2019-08-08T06:33:55.000Z</time>
      </trkpt>
      <trkpt lat="42.89749" lon="0.36722">
        <ele>758</ele>
        <time>2019-08-08T06:33:56.000Z</time>
      </trkpt>
      <trkpt lat="42.89746" lon="0.36727">
        <ele>758</ele>
        <time>2019-08-08T06:33:57.000Z</time>
      </trkpt>
      <trkpt lat="42.89743" lon="0.36732">
        <ele>759</ele>
        <time>2019-08-08T06:33:58.000Z</time>
      </trkpt>
      <trkpt lat="42.8974" lon="0.36737">
        <ele>759</ele>
        <time>2019-08-08T06:33:59.000Z</time>
      </trkpt>
      <trkpt lat="42.89737" lon="0.36742">
        <ele>759</ele>
        <time>2019-08-08T06:34:00.000Z</time>
      </trkpt>
      <trkpt lat="42.89734" lon="0.36747">
        <ele>759</ele>
        <time>2019-08-08T06:34:01.000Z</time>
      </trkpt>
      <trkpt lat="42.89731" lon="0.36753">
        <ele>760</ele>
        <time>2019-08-08T06:34:02.000Z</time>
      </trkpt>
      <trkpt lat="42.89728" lon="0.36758">
        <ele>760</ele>
        <time>2019-08-08T06:34:03.000Z</time>
      </trkpt>
      <trkpt lat="42.89725" lon="0.36763">
        <ele>760</ele>
        <time>2019-08-08T06:34:04.000Z</time>
      </trkpt>
      <trkpt lat="42.89722" lon="0.36768">
        <ele>760</ele>
        <time>2019-08-08T06:34:05.000Z</time>
      </trkpt>
      <trkpt lat="42.8972" lon="0.36773">
        <ele>760</ele>
        <time>2019-08-08T06:34:06.000Z</time>
      </trkpt>
      <trkpt lat="42.89717" lon="0.36779">
        <ele>760</ele>
        <time>2019-08-08T06:34:07.000Z</time>
      </trkpt>
      <trkpt lat="42.89714" lon="0.36784">
        <ele>761</ele>
        <time>2019-08-08T06:34:08.000Z</time>
      </trkpt>
      <trkpt lat="42.89712" lon="0.36789">
        <ele>761</ele>
        <time>2019-08-08T06:34:09.000Z</time>
      </trkpt>
      <trkpt lat="42.89709" lon="0.36794">
        <ele>761</ele>
        <time>2019-08-08T06:34:10.000Z</time>
      </trkpt>
      <trkpt lat="42.89707" lon="0.36799">
        <ele>761</ele>
        <time>2019-08-08T06:34:11.000Z</time>
      </trkpt>
      <trkpt lat="42.89704" lon="0.36805">
        <ele>761</ele>
        <time>2019-08-08T06:34:12.000Z</time>
      </trkpt>
      <trkpt lat="42.89702" lon="0.3681">
        <ele>761</ele>
        <time>2019-08-08T06:34:13.000Z</time>
      </trkpt>
      <trkpt lat="42.897" lon="0.36816">
        <ele>763</ele>
        <time>2019-08-08T06:34:14.000Z</time>
      </trkpt>
      <trkpt lat="42.897" lon="0.36816">
        <ele>763</ele>
        <time>2019-08-08T06:34:15.000Z</time>
      </trkpt>
      <trkpt lat="42.89696" lon="0.36827">
        <ele>763</ele>
        <time>2019-08-08T06:34:16.000Z</time>
      </trkpt>
      <trkpt lat="42.89696" lon="0.36827">
        <ele>763</ele>
        <time>2019-08-08T06:34:17.000Z</time>
      </trkpt>
      <trkpt lat="42.89693" lon="0.36838">
        <ele>764</ele>
        <time>2019-08-08T06:34:18.000Z</time>
      </trkpt>
      <trkpt lat="42.89691" lon="0.36846">
        <ele>764</ele>
        <time>2019-08-08T06:34:19.000Z</time>
      </trkpt>
      <trkpt lat="42.89691" lon="0.36849">
        <ele>764</ele>
        <time>2019-08-08T06:34:20.000Z</time>
      </trkpt>
      <trkpt lat="42.8969" lon="0.36852">
        <ele>765</ele>
        <time>2019-08-08T06:34:21.000Z</time>
      </trkpt>
      <trkpt lat="42.89688" lon="0.36863">
        <ele>765</ele>
        <time>2019-08-08T06:34:22.000Z</time>
      </trkpt>
      <trkpt lat="42.89688" lon="0.36866">
        <ele>765</ele>
        <time>2019-08-08T06:34:23.000Z</time>
      </trkpt>
      <trkpt lat="42.89687" lon="0.36869">
        <ele>766</ele>
        <time>2019-08-08T06:34:24.000Z</time>
      </trkpt>
      <trkpt lat="42.89686" lon="0.3688">
        <ele>766</ele>
        <time>2019-08-08T06:34:25.000Z</time>
      </trkpt>
      <trkpt lat="42.89686" lon="0.36883">
        <ele>766</ele>
        <time>2019-08-08T06:34:26.000Z</time>
      </trkpt>
      <trkpt lat="42.89685" lon="0.36886">
        <ele>766</ele>
        <time>2019-08-08T06:34:27.000Z</time>
      </trkpt>
      <trkpt lat="42.89685" lon="0.36894">
        <ele>766</ele>
        <time>2019-08-08T06:34:28.000Z</time>
      </trkpt>
      <trkpt lat="42.89685" lon="0.36894">
        <ele>767</ele>
        <time>2019-08-08T06:34:29.000Z</time>
      </trkpt>
      <trkpt lat="42.89683" lon="0.3691">
        <ele>767</ele>
        <time>2019-08-08T06:34:30.000Z</time>
      </trkpt>
      <trkpt lat="42.89682" lon="0.36913">
        <ele>768</ele>
        <time>2019-08-08T06:34:31.000Z</time>
      </trkpt>
      <trkpt lat="42.89682" lon="0.36915">
        <ele>768</ele>
        <time>2019-08-08T06:34:32.000Z</time>
      </trkpt>
      <trkpt lat="42.89681" lon="0.36924">
        <ele>768</ele>
        <time>2019-08-08T06:34:33.000Z</time>
      </trkpt>
      <trkpt lat="42.89681" lon="0.36924">
        <ele>768</ele>
        <time>2019-08-08T06:34:34.000Z</time>
      </trkpt>
      <trkpt lat="42.89682" lon="0.36939">
        <ele>768</ele>
        <time>2019-08-08T06:34:35.000Z</time>
      </trkpt>
      <trkpt lat="42.89682" lon="0.36942">
        <ele>768</ele>
        <time>2019-08-08T06:34:36.000Z</time>
      </trkpt>
      <trkpt lat="42.89682" lon="0.36945">
        <ele>768</ele>
        <time>2019-08-08T06:34:37.000Z</time>
      </trkpt>
      <trkpt lat="42.89683" lon="0.36956">
        <ele>768</ele>
        <time>2019-08-08T06:34:38.000Z</time>
      </trkpt>
      <trkpt lat="42.89683" lon="0.36959">
        <ele>769</ele>
        <time>2019-08-08T06:34:39.000Z</time>
      </trkpt>
      <trkpt lat="42.89682" lon="0.36962">
        <ele>769</ele>
        <time>2019-08-08T06:34:40.000Z</time>
      </trkpt>
      <trkpt lat="42.89681" lon="0.3697">
        <ele>769</ele>
        <time>2019-08-08T06:34:41.000Z</time>
      </trkpt>
      <trkpt lat="42.89681" lon="0.3697">
        <ele>769</ele>
        <time>2019-08-08T06:34:42.000Z</time>
      </trkpt>
      <trkpt lat="42.89677" lon="0.36981">
        <ele>769</ele>
        <time>2019-08-08T06:34:43.000Z</time>
      </trkpt>
      <trkpt lat="42.89677" lon="0.36981">
        <ele>770</ele>
        <time>2019-08-08T06:34:44.000Z</time>
      </trkpt>
      <trkpt lat="42.89671" lon="0.36991">
        <ele>770</ele>
        <time>2019-08-08T06:34:45.000Z</time>
      </trkpt>
      <trkpt lat="42.89668" lon="0.36995">
        <ele>770</ele>
        <time>2019-08-08T06:34:46.000Z</time>
      </trkpt>
      <trkpt lat="42.89665" lon="0.36998">
        <ele>770</ele>
        <time>2019-08-08T06:34:47.000Z</time>
      </trkpt>
      <trkpt lat="42.89662" lon="0.37001">
        <ele>770</ele>
        <time>2019-08-08T06:34:48.000Z</time>
      </trkpt>
      <trkpt lat="42.89658" lon="0.37004">
        <ele>770</ele>
        <time>2019-08-08T06:34:49.000Z</time>
      </trkpt>
      <trkpt lat="42.89654" lon="0.37005">
        <ele>770</ele>
        <time>2019-08-08T06:34:50.000Z</time>
      </trkpt>
      <trkpt lat="42.8965" lon="0.37007">
        <ele>770</ele>
        <time>2019-08-08T06:34:51.000Z</time>
      </trkpt>
      <trkpt lat="42.89647" lon="0.37008">
        <ele>771</ele>
        <time>2019-08-08T06:34:52.000Z</time>
      </trkpt>
      <trkpt lat="42.89644" lon="0.37009">
        <ele>771</ele>
        <time>2019-08-08T06:34:53.000Z</time>
      </trkpt>
      <trkpt lat="42.8964" lon="0.37011">
        <ele>771</ele>
        <time>2019-08-08T06:34:54.000Z</time>
      </trkpt>
      <trkpt lat="42.89636" lon="0.37012">
        <ele>771</ele>
        <time>2019-08-08T06:34:55.000Z</time>
      </trkpt>
      <trkpt lat="42.89632" lon="0.37014">
        <ele>771</ele>
        <time>2019-08-08T06:34:56.000Z</time>
      </trkpt>
      <trkpt lat="42.89628" lon="0.37016">
        <ele>773</ele>
        <time>2019-08-08T06:34:57.000Z</time>
      </trkpt>
      <trkpt lat="42.89624" lon="0.37018">
        <ele>773</ele>
        <time>2019-08-08T06:34:58.000Z</time>
      </trkpt>
      <trkpt lat="42.8962" lon="0.37019">
        <ele>773</ele>
        <time>2019-08-08T06:34:59.000Z</time>
      </trkpt>
      <trkpt lat="42.89616" lon="0.37021">
        <ele>772</ele>
        <time>2019-08-08T06:35:00.000Z</time>
      </trkpt>
      <trkpt lat="42.89612" lon="0.37024">
        <ele>772</ele>
        <time>2019-08-08T06:35:01.000Z</time>
      </trkpt>
      <trkpt lat="42.89608" lon="0.37026">
        <ele>773</ele>
        <time>2019-08-08T06:35:02.000Z</time>
      </trkpt>
      <trkpt lat="42.89603" lon="0.37029">
        <ele>773</ele>
        <time>2019-08-08T06:35:03.000Z</time>
      </trkpt>
      <trkpt lat="42.89599" lon="0.37032">
        <ele>773</ele>
        <time>2019-08-08T06:35:04.000Z</time>
      </trkpt>
      <trkpt lat="42.89595" lon="0.37035">
        <ele>773</ele>
        <time>2019-08-08T06:35:05.000Z</time>
      </trkpt>
      <trkpt lat="42.8959" lon="0.37038">
        <ele>774</ele>
        <time>2019-08-08T06:35:06.000Z</time>
      </trkpt>
      <trkpt lat="42.89585" lon="0.37041">
        <ele>774</ele>
        <time>2019-08-08T06:35:07.000Z</time>
      </trkpt>
      <trkpt lat="42.8958" lon="0.37043">
        <ele>774</ele>
        <time>2019-08-08T06:35:08.000Z</time>
      </trkpt>
      <trkpt lat="42.89575" lon="0.37046">
        <ele>774</ele>
        <time>2019-08-08T06:35:09.000Z</time>
      </trkpt>
      <trkpt lat="42.8957" lon="0.37049">
        <ele>774</ele>
        <time>2019-08-08T06:35:10.000Z</time>
      </trkpt>
      <trkpt lat="42.89565" lon="0.37051">
        <ele>774</ele>
        <time>2019-08-08T06:35:11.000Z</time>
      </trkpt>
      <trkpt lat="42.8956" lon="0.37054">
        <ele>774</ele>
        <time>2019-08-08T06:35:12.000Z</time>
      </trkpt>
      <trkpt lat="42.89554" lon="0.37056">
        <ele>774</ele>
        <time>2019-08-08T06:35:13.000Z</time>
      </trkpt>
      <trkpt lat="42.89548" lon="0.37058">
        <ele>774</ele>
        <time>2019-08-08T06:35:14.000Z</time>
      </trkpt>
      <trkpt lat="42.89542" lon="0.37061">
        <ele>774</ele>
        <time>2019-08-08T06:35:15.000Z</time>
      </trkpt>
      <trkpt lat="42.89536" lon="0.37063">
        <ele>774</ele>
        <time>2019-08-08T06:35:16.000Z</time>
      </trkpt>
      <trkpt lat="42.8953" lon="0.37066">
        <ele>774</ele>
        <time>2019-08-08T06:35:17.000Z</time>
      </trkpt>
      <trkpt lat="42.89524" lon="0.37068">
        <ele>774</ele>
        <time>2019-08-08T06:35:18.000Z</time>
      </trkpt>
      <trkpt lat="42.89519" lon="0.37071">
        <ele>774</ele>
        <time>2019-08-08T06:35:19.000Z</time>
      </trkpt>
      <trkpt lat="42.89513" lon="0.37074">
        <ele>774</ele>
        <time>2019-08-08T06:35:20.000Z</time>
      </trkpt>
      <trkpt lat="42.89508" lon="0.37077">
        <ele>775</ele>
        <time>2019-08-08T06:35:21.000Z</time>
      </trkpt>
      <trkpt lat="42.89504" lon="0.37081">
        <ele>775</ele>
        <time>2019-08-08T06:35:22.000Z</time>
      </trkpt>
      <trkpt lat="42.895" lon="0.37085">
        <ele>776</ele>
        <time>2019-08-08T06:35:23.000Z</time>
      </trkpt>
      <trkpt lat="42.89496" lon="0.37088">
        <ele>776</ele>
        <time>2019-08-08T06:35:24.000Z</time>
      </trkpt>
      <trkpt lat="42.89492" lon="0.3709">
        <ele>777</ele>
        <time>2019-08-08T06:35:25.000Z</time>
      </trkpt>
      <trkpt lat="42.89487" lon="0.37093">
        <ele>777</ele>
        <time>2019-08-08T06:35:26.000Z</time>
      </trkpt>
      <trkpt lat="42.89484" lon="0.37096">
        <ele>777</ele>
        <time>2019-08-08T06:35:27.000Z</time>
      </trkpt>
      <trkpt lat="42.8948" lon="0.37098">
        <ele>777</ele>
        <time>2019-08-08T06:35:28.000Z</time>
      </trkpt>
      <trkpt lat="42.89476" lon="0.371">
        <ele>777</ele>
        <time>2019-08-08T06:35:29.000Z</time>
      </trkpt>
      <trkpt lat="42.89472" lon="0.37102">
        <ele>777</ele>
        <time>2019-08-08T06:35:30.000Z</time>
      </trkpt>
      <trkpt lat="42.89468" lon="0.37103">
        <ele>777</ele>
        <time>2019-08-08T06:35:31.000Z</time>
      </trkpt>
      <trkpt lat="42.89464" lon="0.37105">
        <ele>777</ele>
        <time>2019-08-08T06:35:32.000Z</time>
      </trkpt>
      <trkpt lat="42.8946" lon="0.37106">
        <ele>777</ele>
        <time>2019-08-08T06:35:33.000Z</time>
      </trkpt>
      <trkpt lat="42.89456" lon="0.37108">
        <ele>778</ele>
        <time>2019-08-08T06:35:34.000Z</time>
      </trkpt>
      <trkpt lat="42.89452" lon="0.37109">
        <ele>778</ele>
        <time>2019-08-08T06:35:35.000Z</time>
      </trkpt>
      <trkpt lat="42.89448" lon="0.3711">
        <ele>778</ele>
        <time>2019-08-08T06:35:36.000Z</time>
      </trkpt>
      <trkpt lat="42.89443" lon="0.37111">
        <ele>778</ele>
        <time>2019-08-08T06:35:37.000Z</time>
      </trkpt>
      <trkpt lat="42.89438" lon="0.37112">
        <ele>778</ele>
        <time>2019-08-08T06:35:38.000Z</time>
      </trkpt>
      <trkpt lat="42.89433" lon="0.37114">
        <ele>778</ele>
        <time>2019-08-08T06:35:39.000Z</time>
      </trkpt>
      <trkpt lat="42.89428" lon="0.37116">
        <ele>778</ele>
        <time>2019-08-08T06:35:40.000Z</time>
      </trkpt>
      <trkpt lat="42.8942" lon="0.3712">
        <ele>777</ele>
        <time>2019-08-08T06:35:41.000Z</time>
      </trkpt>
      <trkpt lat="42.89417" lon="0.37122">
        <ele>777</ele>
        <time>2019-08-08T06:35:42.000Z</time>
      </trkpt>
      <trkpt lat="42.89409" lon="0.37127">
        <ele>777</ele>
        <time>2019-08-08T06:35:43.000Z</time>
      </trkpt>
      <trkpt lat="42.89406" lon="0.3713">
        <ele>777</ele>
        <time>2019-08-08T06:35:44.000Z</time>
      </trkpt>
      <trkpt lat="42.89398" lon="0.37137">
        <ele>775</ele>
        <time>2019-08-08T06:35:45.000Z</time>
      </trkpt>
      <trkpt lat="42.89395" lon="0.37139">
        <ele>775</ele>
        <time>2019-08-08T06:35:46.000Z</time>
      </trkpt>
      <trkpt lat="42.89386" lon="0.37145">
        <ele>774</ele>
        <time>2019-08-08T06:35:47.000Z</time>
      </trkpt>
      <trkpt lat="42.89383" lon="0.37146">
        <ele>774</ele>
        <time>2019-08-08T06:35:48.000Z</time>
      </trkpt>
      <trkpt lat="42.89373" lon="0.37151">
        <ele>774</ele>
        <time>2019-08-08T06:35:49.000Z</time>
      </trkpt>
      <trkpt lat="42.8937" lon="0.37153">
        <ele>774</ele>
        <time>2019-08-08T06:35:50.000Z</time>
      </trkpt>
      <trkpt lat="42.89363" lon="0.37157">
        <ele>774</ele>
        <time>2019-08-08T06:35:51.000Z</time>
      </trkpt>
      <trkpt lat="42.89354" lon="0.37164">
        <ele>773</ele>
        <time>2019-08-08T06:35:52.000Z</time>
      </trkpt>
      <trkpt lat="42.89345" lon="0.37171">
        <ele>773</ele>
        <time>2019-08-08T06:35:53.000Z</time>
      </trkpt>
      <trkpt lat="42.89334" lon="0.37179">
        <ele>774</ele>
        <time>2019-08-08T06:35:54.000Z</time>
      </trkpt>
      <trkpt lat="42.89331" lon="0.37181">
        <ele>774</ele>
        <time>2019-08-08T06:35:55.000Z</time>
      </trkpt>
      <trkpt lat="42.8932" lon="0.37188">
        <ele>775</ele>
        <time>2019-08-08T06:35:56.000Z</time>
      </trkpt>
      <trkpt lat="42.89317" lon="0.3719">
        <ele>775</ele>
        <time>2019-08-08T06:35:57.000Z</time>
      </trkpt>
      <trkpt lat="42.89306" lon="0.37197">
        <ele>775</ele>
        <time>2019-08-08T06:35:58.000Z</time>
      </trkpt>
      <trkpt lat="42.89303" lon="0.37199">
        <ele>775</ele>
        <time>2019-08-08T06:35:59.000Z</time>
      </trkpt>
      <trkpt lat="42.89294" lon="0.37205">
        <ele>776</ele>
        <time>2019-08-08T06:36:00.000Z</time>
      </trkpt>
      <trkpt lat="42.89292" lon="0.37208">
        <ele>776</ele>
        <time>2019-08-08T06:36:01.000Z</time>
      </trkpt>
      <trkpt lat="42.89286" lon="0.37212">
        <ele>777</ele>
        <time>2019-08-08T06:36:02.000Z</time>
      </trkpt>
      <trkpt lat="42.89286" lon="0.37212">
        <ele>777</ele>
        <time>2019-08-08T06:36:03.000Z</time>
      </trkpt>
      <trkpt lat="42.89276" lon="0.37222">
        <ele>777</ele>
        <time>2019-08-08T06:36:04.000Z</time>
      </trkpt>
      <trkpt lat="42.89273" lon="0.37225">
        <ele>777</ele>
        <time>2019-08-08T06:36:05.000Z</time>
      </trkpt>
      <trkpt lat="42.89266" lon="0.37231">
        <ele>778</ele>
        <time>2019-08-08T06:36:06.000Z</time>
      </trkpt>
      <trkpt lat="42.89264" lon="0.37234">
        <ele>778</ele>
        <time>2019-08-08T06:36:07.000Z</time>
      </trkpt>
      <trkpt lat="42.89257" lon="0.37241">
        <ele>778</ele>
        <time>2019-08-08T06:36:08.000Z</time>
      </trkpt>
      <trkpt lat="42.89255" lon="0.37243">
        <ele>778</ele>
        <time>2019-08-08T06:36:09.000Z</time>
      </trkpt>
      <trkpt lat="42.89248" lon="0.37251">
        <ele>778</ele>
        <time>2019-08-08T06:36:10.000Z</time>
      </trkpt>
      <trkpt lat="42.89247" lon="0.37254">
        <ele>778</ele>
        <time>2019-08-08T06:36:11.000Z</time>
      </trkpt>
      <trkpt lat="42.89243" lon="0.3726">
        <ele>778</ele>
        <time>2019-08-08T06:36:12.000Z</time>
      </trkpt>
      <trkpt lat="42.89243" lon="0.3726">
        <ele>778</ele>
        <time>2019-08-08T06:36:13.000Z</time>
      </trkpt>
      <trkpt lat="42.89238" lon="0.37271">
        <ele>778</ele>
        <time>2019-08-08T06:36:14.000Z</time>
      </trkpt>
      <trkpt lat="42.89238" lon="0.37271">
        <ele>778</ele>
        <time>2019-08-08T06:36:15.000Z</time>
      </trkpt>
      <trkpt lat="42.89233" lon="0.37286">
        <ele>778</ele>
        <time>2019-08-08T06:36:16.000Z</time>
      </trkpt>
      <trkpt lat="42.89232" lon="0.37289">
        <ele>778</ele>
        <time>2019-08-08T06:36:17.000Z</time>
      </trkpt>
      <trkpt lat="42.89228" lon="0.37298">
        <ele>778</ele>
        <time>2019-08-08T06:36:18.000Z</time>
      </trkpt>
      <trkpt lat="42.89226" lon="0.37301">
        <ele>778</ele>
        <time>2019-08-08T06:36:19.000Z</time>
      </trkpt>
      <trkpt lat="42.89219" lon="0.37311">
        <ele>778</ele>
        <time>2019-08-08T06:36:20.000Z</time>
      </trkpt>
      <trkpt lat="42.89217" lon="0.37314">
        <ele>777</ele>
        <time>2019-08-08T06:36:21.000Z</time>
      </trkpt>
      <trkpt lat="42.8921" lon="0.37324">
        <ele>777</ele>
        <time>2019-08-08T06:36:22.000Z</time>
      </trkpt>
      <trkpt lat="42.89207" lon="0.37328">
        <ele>777</ele>
        <time>2019-08-08T06:36:23.000Z</time>
      </trkpt>
      <trkpt lat="42.892" lon="0.37338">
        <ele>777</ele>
        <time>2019-08-08T06:36:24.000Z</time>
      </trkpt>
      <trkpt lat="42.89197" lon="0.37341">
        <ele>776</ele>
        <time>2019-08-08T06:36:25.000Z</time>
      </trkpt>
      <trkpt lat="42.89189" lon="0.37351">
        <ele>776</ele>
        <time>2019-08-08T06:36:26.000Z</time>
      </trkpt>
      <trkpt lat="42.89186" lon="0.37354">
        <ele>777</ele>
        <time>2019-08-08T06:36:27.000Z</time>
      </trkpt>
      <trkpt lat="42.89177" lon="0.37363">
        <ele>777</ele>
        <time>2019-08-08T06:36:28.000Z</time>
      </trkpt>
      <trkpt lat="42.89175" lon="0.37366">
        <ele>777</ele>
        <time>2019-08-08T06:36:29.000Z</time>
      </trkpt>
      <trkpt lat="42.89167" lon="0.37374">
        <ele>776</ele>
        <time>2019-08-08T06:36:30.000Z</time>
      </trkpt>
      <trkpt lat="42.89165" lon="0.37378">
        <ele>776</ele>
        <time>2019-08-08T06:36:31.000Z</time>
      </trkpt>
      <trkpt lat="42.89159" lon="0.37387">
        <ele>777</ele>
        <time>2019-08-08T06:36:32.000Z</time>
      </trkpt>
      <trkpt lat="42.89157" lon="0.37391">
        <ele>777</ele>
        <time>2019-08-08T06:36:33.000Z</time>
      </trkpt>
      <trkpt lat="42.89149" lon="0.374">
        <ele>777</ele>
        <time>2019-08-08T06:36:34.000Z</time>
      </trkpt>
      <trkpt lat="42.89146" lon="0.37403">
        <ele>777</ele>
        <time>2019-08-08T06:36:35.000Z</time>
      </trkpt>
      <trkpt lat="42.89138" lon="0.37412">
        <ele>778</ele>
        <time>2019-08-08T06:36:36.000Z</time>
      </trkpt>
      <trkpt lat="42.89135" lon="0.37415">
        <ele>778</ele>
        <time>2019-08-08T06:36:37.000Z</time>
      </trkpt>
      <trkpt lat="42.89127" lon="0.37424">
        <ele>778</ele>
        <time>2019-08-08T06:36:38.000Z</time>
      </trkpt>
      <trkpt lat="42.89124" lon="0.37428">
        <ele>778</ele>
        <time>2019-08-08T06:36:39.000Z</time>
      </trkpt>
      <trkpt lat="42.89118" lon="0.37438">
        <ele>778</ele>
        <time>2019-08-08T06:36:40.000Z</time>
      </trkpt>
      <trkpt lat="42.89116" lon="0.37441">
        <ele>778</ele>
        <time>2019-08-08T06:36:41.000Z</time>
      </trkpt>
      <trkpt lat="42.8911" lon="0.37451">
        <ele>778</ele>
        <time>2019-08-08T06:36:42.000Z</time>
      </trkpt>
      <trkpt lat="42.89108" lon="0.37455">
        <ele>778</ele>
        <time>2019-08-08T06:36:43.000Z</time>
      </trkpt>
      <trkpt lat="42.89102" lon="0.37466">
        <ele>777</ele>
        <time>2019-08-08T06:36:44.000Z</time>
      </trkpt>
      <trkpt lat="42.891" lon="0.3747">
        <ele>777</ele>
        <time>2019-08-08T06:36:45.000Z</time>
      </trkpt>
      <trkpt lat="42.89093" lon="0.3748">
        <ele>777</ele>
        <time>2019-08-08T06:36:46.000Z</time>
      </trkpt>
      <trkpt lat="42.89092" lon="0.37484">
        <ele>777</ele>
        <time>2019-08-08T06:36:47.000Z</time>
      </trkpt>
      <trkpt lat="42.89087" lon="0.37496">
        <ele>778</ele>
        <time>2019-08-08T06:36:48.000Z</time>
      </trkpt>
      <trkpt lat="42.89085" lon="0.375">
        <ele>778</ele>
        <time>2019-08-08T06:36:49.000Z</time>
      </trkpt>
      <trkpt lat="42.89079" lon="0.37512">
        <ele>778</ele>
        <time>2019-08-08T06:36:50.000Z</time>
      </trkpt>
      <trkpt lat="42.89077" lon="0.37516">
        <ele>778</ele>
        <time>2019-08-08T06:36:51.000Z</time>
      </trkpt>
      <trkpt lat="42.8907" lon="0.37528">
        <ele>778</ele>
        <time>2019-08-08T06:36:52.000Z</time>
      </trkpt>
      <trkpt lat="42.89068" lon="0.37532">
        <ele>778</ele>
        <time>2019-08-08T06:36:53.000Z</time>
      </trkpt>
      <trkpt lat="42.89061" lon="0.37544">
        <ele>778</ele>
        <time>2019-08-08T06:36:54.000Z</time>
      </trkpt>
      <trkpt lat="42.89059" lon="0.37548">
        <ele>778</ele>
        <time>2019-08-08T06:36:55.000Z</time>
      </trkpt>
      <trkpt lat="42.89052" lon="0.37561">
        <ele>778</ele>
        <time>2019-08-08T06:36:56.000Z</time>
      </trkpt>
      <trkpt lat="42.8905" lon="0.37565">
        <ele>778</ele>
        <time>2019-08-08T06:36:57.000Z</time>
      </trkpt>
      <trkpt lat="42.89043" lon="0.37577">
        <ele>778</ele>
        <time>2019-08-08T06:36:58.000Z</time>
      </trkpt>
      <trkpt lat="42.89041" lon="0.37581">
        <ele>778</ele>
        <time>2019-08-08T06:36:59.000Z</time>
      </trkpt>
      <trkpt lat="42.89034" lon="0.37593">
        <ele>778</ele>
        <time>2019-08-08T06:37:00.000Z</time>
      </trkpt>
      <trkpt lat="42.89031" lon="0.37597">
        <ele>778</ele>
        <time>2019-08-08T06:37:01.000Z</time>
      </trkpt>
      <trkpt lat="42.89024" lon="0.37608">
        <ele>778</ele>
        <time>2019-08-08T06:37:02.000Z</time>
      </trkpt>
      <trkpt lat="42.89022" lon="0.37611">
        <ele>778</ele>
        <time>2019-08-08T06:37:03.000Z</time>
      </trkpt>
      <trkpt lat="42.89015" lon="0.37622">
        <ele>778</ele>
        <time>2019-08-08T06:37:04.000Z</time>
      </trkpt>
      <trkpt lat="42.89013" lon="0.37625">
        <ele>778</ele>
        <time>2019-08-08T06:37:05.000Z</time>
      </trkpt>
      <trkpt lat="42.89006" lon="0.37634">
        <ele>778</ele>
        <time>2019-08-08T06:37:06.000Z</time>
      </trkpt>
      <trkpt lat="42.89004" lon="0.37638">
        <ele>778</ele>
        <time>2019-08-08T06:37:07.000Z</time>
      </trkpt>
      <trkpt lat="42.88997" lon="0.37647">
        <ele>780</ele>
        <time>2019-08-08T06:37:08.000Z</time>
      </trkpt>
      <trkpt lat="42.88995" lon="0.37649">
        <ele>780</ele>
        <time>2019-08-08T06:37:09.000Z</time>
      </trkpt>
      <trkpt lat="42.88988" lon="0.37657">
        <ele>780</ele>
        <time>2019-08-08T06:37:10.000Z</time>
      </trkpt>
      <trkpt lat="42.88985" lon="0.37659">
        <ele>780</ele>
        <time>2019-08-08T06:37:11.000Z</time>
      </trkpt>
      <trkpt lat="42.88977" lon="0.37665">
        <ele>781</ele>
        <time>2019-08-08T06:37:12.000Z</time>
      </trkpt>
      <trkpt lat="42.88974" lon="0.37667">
        <ele>781</ele>
        <time>2019-08-08T06:37:13.000Z</time>
      </trkpt>
      <trkpt lat="42.88965" lon="0.37672">
        <ele>782</ele>
        <time>2019-08-08T06:37:14.000Z</time>
      </trkpt>
      <trkpt lat="42.88962" lon="0.37674">
        <ele>782</ele>
        <time>2019-08-08T06:37:15.000Z</time>
      </trkpt>
      <trkpt lat="42.88956" lon="0.37681">
        <ele>783</ele>
        <time>2019-08-08T06:37:16.000Z</time>
      </trkpt>
      <trkpt lat="42.88956" lon="0.37685">
        <ele>783</ele>
        <time>2019-08-08T06:37:17.000Z</time>
      </trkpt>
      <trkpt lat="42.88956" lon="0.37688">
        <ele>783</ele>
        <time>2019-08-08T06:37:18.000Z</time>
      </trkpt>
      <trkpt lat="42.88956" lon="0.37691">
        <ele>783</ele>
        <time>2019-08-08T06:37:19.000Z</time>
      </trkpt>
      <trkpt lat="42.88956" lon="0.37694">
        <ele>785</ele>
        <time>2019-08-08T06:37:20.000Z</time>
      </trkpt>
      <trkpt lat="42.88955" lon="0.37697">
        <ele>785</ele>
        <time>2019-08-08T06:37:21.000Z</time>
      </trkpt>
      <trkpt lat="42.88955" lon="0.377">
        <ele>785</ele>
        <time>2019-08-08T06:37:22.000Z</time>
      </trkpt>
      <trkpt lat="42.88955" lon="0.37703">
        <ele>785</ele>
        <time>2019-08-08T06:37:23.000Z</time>
      </trkpt>
      <trkpt lat="42.88955" lon="0.37706">
        <ele>785</ele>
        <time>2019-08-08T06:37:24.000Z</time>
      </trkpt>
      <trkpt lat="42.88955" lon="0.37709">
        <ele>785</ele>
        <time>2019-08-08T06:37:25.000Z</time>
      </trkpt>
      <trkpt lat="42.88955" lon="0.37712">
        <ele>785</ele>
        <time>2019-08-08T06:37:26.000Z</time>
      </trkpt>
      <trkpt lat="42.88955" lon="0.37716">
        <ele>785</ele>
        <time>2019-08-08T06:37:27.000Z</time>
      </trkpt>
      <trkpt lat="42.88956" lon="0.37756">
        <ele>785</ele>
        <time>2019-08-08T06:37:28.000Z</time>
      </trkpt>
      <trkpt lat="42.88958" lon="0.37759">
        <ele>785</ele>
        <time>2019-08-08T06:37:29.000Z</time>
      </trkpt>
      <trkpt lat="42.88963" lon="0.37768">
        <ele>786</ele>
        <time>2019-08-08T06:37:30.000Z</time>
      </trkpt>
      <trkpt lat="42.88965" lon="0.3777">
        <ele>786</ele>
        <time>2019-08-08T06:37:31.000Z</time>
      </trkpt>
      <trkpt lat="42.8897" lon="0.37778">
        <ele>786</ele>
        <time>2019-08-08T06:37:32.000Z</time>
      </trkpt>
      <trkpt lat="42.88972" lon="0.37781">
        <ele>786</ele>
        <time>2019-08-08T06:37:33.000Z</time>
      </trkpt>
      <trkpt lat="42.88978" lon="0.37788">
        <ele>786</ele>
        <time>2019-08-08T06:37:34.000Z</time>
      </trkpt>
      <trkpt lat="42.8898" lon="0.3779">
        <ele>786</ele>
        <time>2019-08-08T06:37:35.000Z</time>
      </trkpt>
      <trkpt lat="42.88985" lon="0.37795">
        <ele>786</ele>
        <time>2019-08-08T06:37:36.000Z</time>
      </trkpt>
      <trkpt lat="42.88985" lon="0.37795">
        <ele>786</ele>
        <time>2019-08-08T06:37:37.000Z</time>
      </trkpt>
      <trkpt lat="42.88994" lon="0.37809">
        <ele>787</ele>
        <time>2019-08-08T06:37:38.000Z</time>
      </trkpt>
      <trkpt lat="42.88996" lon="0.37812">
        <ele>787</ele>
        <time>2019-08-08T06:37:39.000Z</time>
      </trkpt>
      <trkpt lat="42.89001" lon="0.37823">
        <ele>787</ele>
        <time>2019-08-08T06:37:40.000Z</time>
      </trkpt>
      <trkpt lat="42.89002" lon="0.37826">
        <ele>787</ele>
        <time>2019-08-08T06:37:41.000Z</time>
      </trkpt>
      <trkpt lat="42.89007" lon="0.37837">
        <ele>787</ele>
        <time>2019-08-08T06:37:42.000Z</time>
      </trkpt>
      <trkpt lat="42.89008" lon="0.37841">
        <ele>787</ele>
        <time>2019-08-08T06:37:43.000Z</time>
      </trkpt>
      <trkpt lat="42.89011" lon="0.37852">
        <ele>787</ele>
        <time>2019-08-08T06:37:44.000Z</time>
      </trkpt>
      <trkpt lat="42.89011" lon="0.37856">
        <ele>787</ele>
        <time>2019-08-08T06:37:45.000Z</time>
      </trkpt>
      <trkpt lat="42.89012" lon="0.37867">
        <ele>787</ele>
        <time>2019-08-08T06:37:46.000Z</time>
      </trkpt>
      <trkpt lat="42.89012" lon="0.37871">
        <ele>787</ele>
        <time>2019-08-08T06:37:47.000Z</time>
      </trkpt>
      <trkpt lat="42.89011" lon="0.37882">
        <ele>788</ele>
        <time>2019-08-08T06:37:48.000Z</time>
      </trkpt>
      <trkpt lat="42.89011" lon="0.37886">
        <ele>788</ele>
        <time>2019-08-08T06:37:49.000Z</time>
      </trkpt>
      <trkpt lat="42.8901" lon="0.37893">
        <ele>788</ele>
        <time>2019-08-08T06:37:50.000Z</time>
      </trkpt>
      <trkpt lat="42.8901" lon="0.37893">
        <ele>788</ele>
        <time>2019-08-08T06:37:51.000Z</time>
      </trkpt>
      <trkpt lat="42.89004" lon="0.37906">
        <ele>789</ele>
        <time>2019-08-08T06:37:52.000Z</time>
      </trkpt>
      <trkpt lat="42.89003" lon="0.37909">
        <ele>789</ele>
        <time>2019-08-08T06:37:53.000Z</time>
      </trkpt>
      <trkpt lat="42.89003" lon="0.37912">
        <ele>789</ele>
        <time>2019-08-08T06:37:54.000Z</time>
      </trkpt>
      <trkpt lat="42.89" lon="0.37919">
        <ele>789</ele>
        <time>2019-08-08T06:37:55.000Z</time>
      </trkpt>
      <trkpt lat="42.89" lon="0.37919">
        <ele>789</ele>
        <time>2019-08-08T06:37:56.000Z</time>
      </trkpt>
      <trkpt lat="42.88994" lon="0.37928">
        <ele>789</ele>
        <time>2019-08-08T06:37:57.000Z</time>
      </trkpt>
      <trkpt lat="42.88994" lon="0.37928">
        <ele>789</ele>
        <time>2019-08-08T06:37:58.000Z</time>
      </trkpt>
      <trkpt lat="42.88983" lon="0.37937">
        <ele>789</ele>
        <time>2019-08-08T06:37:59.000Z</time>
      </trkpt>
      <trkpt lat="42.8898" lon="0.37939">
        <ele>790</ele>
        <time>2019-08-08T06:38:00.000Z</time>
      </trkpt>
      <trkpt lat="42.88972" lon="0.37943">
        <ele>790</ele>
        <time>2019-08-08T06:38:01.000Z</time>
      </trkpt>
      <trkpt lat="42.8897" lon="0.37945">
        <ele>790</ele>
        <time>2019-08-08T06:38:02.000Z</time>
      </trkpt>
      <trkpt lat="42.88968" lon="0.37947">
        <ele>790</ele>
        <time>2019-08-08T06:38:03.000Z</time>
      </trkpt>
      <trkpt lat="42.88963" lon="0.37953">
        <ele>790</ele>
        <time>2019-08-08T06:38:04.000Z</time>
      </trkpt>
      <trkpt lat="42.88954" lon="0.37955">
        <ele>790</ele>
        <time>2019-08-08T06:38:05.000Z</time>
      </trkpt>
      <trkpt lat="42.88941" lon="0.37958">
        <ele>790</ele>
        <time>2019-08-08T06:38:06.000Z</time>
      </trkpt>
      <trkpt lat="42.88938" lon="0.37959">
        <ele>790</ele>
        <time>2019-08-08T06:38:07.000Z</time>
      </trkpt>
      <trkpt lat="42.88932" lon="0.37961">
        <ele>790</ele>
        <time>2019-08-08T06:38:08.000Z</time>
      </trkpt>
      <trkpt lat="42.88932" lon="0.37961">
        <ele>790</ele>
        <time>2019-08-08T06:38:09.000Z</time>
      </trkpt>
      <trkpt lat="42.88923" lon="0.37967">
        <ele>791</ele>
        <time>2019-08-08T06:38:10.000Z</time>
      </trkpt>
      <trkpt lat="42.88923" lon="0.37967">
        <ele>791</ele>
        <time>2019-08-08T06:38:11.000Z</time>
      </trkpt>
      <trkpt lat="42.88913" lon="0.37975">
        <ele>791</ele>
        <time>2019-08-08T06:38:12.000Z</time>
      </trkpt>
      <trkpt lat="42.88912" lon="0.37976">
        <ele>791</ele>
        <time>2019-08-08T06:38:13.000Z</time>
      </trkpt>
      <trkpt lat="42.8891" lon="0.37978">
        <ele>792</ele>
        <time>2019-08-08T06:38:14.000Z</time>
      </trkpt>
      <trkpt lat="42.88903" lon="0.37983">
        <ele>792</ele>
        <time>2019-08-08T06:38:15.000Z</time>
      </trkpt>
      <trkpt lat="42.889" lon="0.37984">
        <ele>792</ele>
        <time>2019-08-08T06:38:16.000Z</time>
      </trkpt>
      <trkpt lat="42.88891" lon="0.37988">
        <ele>792</ele>
        <time>2019-08-08T06:38:17.000Z</time>
      </trkpt>
      <trkpt lat="42.88888" lon="0.37989">
        <ele>792</ele>
        <time>2019-08-08T06:38:18.000Z</time>
      </trkpt>
      <trkpt lat="42.88878" lon="0.37993">
        <ele>792</ele>
        <time>2019-08-08T06:38:19.000Z</time>
      </trkpt>
      <trkpt lat="42.88875" lon="0.37994">
        <ele>792</ele>
        <time>2019-08-08T06:38:20.000Z</time>
      </trkpt>
      <trkpt lat="42.88867" lon="0.37997">
        <ele>792</ele>
        <time>2019-08-08T06:38:21.000Z</time>
      </trkpt>
      <trkpt lat="42.88864" lon="0.37999">
        <ele>792</ele>
        <time>2019-08-08T06:38:22.000Z</time>
      </trkpt>
      <trkpt lat="42.88859" lon="0.38001">
        <ele>792</ele>
        <time>2019-08-08T06:38:23.000Z</time>
      </trkpt>
      <trkpt lat="42.88859" lon="0.38001">
        <ele>792</ele>
        <time>2019-08-08T06:38:24.000Z</time>
      </trkpt>
      <trkpt lat="42.88847" lon="0.38006">
        <ele>792</ele>
        <time>2019-08-08T06:38:25.000Z</time>
      </trkpt>
      <trkpt lat="42.88845" lon="0.38008">
        <ele>794</ele>
        <time>2019-08-08T06:38:26.000Z</time>
      </trkpt>
      <trkpt lat="42.88843" lon="0.38009">
        <ele>794</ele>
        <time>2019-08-08T06:38:27.000Z</time>
      </trkpt>
      <trkpt lat="42.88837" lon="0.38012">
        <ele>794</ele>
        <time>2019-08-08T06:38:28.000Z</time>
      </trkpt>
      <trkpt lat="42.88837" lon="0.38012">
        <ele>794</ele>
        <time>2019-08-08T06:38:29.000Z</time>
      </trkpt>
      <trkpt lat="42.88827" lon="0.38017">
        <ele>795</ele>
        <time>2019-08-08T06:38:30.000Z</time>
      </trkpt>
      <trkpt lat="42.88825" lon="0.38019">
        <ele>795</ele>
        <time>2019-08-08T06:38:31.000Z</time>
      </trkpt>
      <trkpt lat="42.88823" lon="0.3802">
        <ele>795</ele>
        <time>2019-08-08T06:38:32.000Z</time>
      </trkpt>
      <trkpt lat="42.88817" lon="0.38024">
        <ele>795</ele>
        <time>2019-08-08T06:38:33.000Z</time>
      </trkpt>
      <trkpt lat="42.88817" lon="0.38024">
        <ele>795</ele>
        <time>2019-08-08T06:38:34.000Z</time>
      </trkpt>
      <trkpt lat="42.88808" lon="0.38033">
        <ele>795</ele>
        <time>2019-08-08T06:38:35.000Z</time>
      </trkpt>
      <trkpt lat="42.88806" lon="0.38036">
        <ele>795</ele>
        <time>2019-08-08T06:38:36.000Z</time>
      </trkpt>
      <trkpt lat="42.88801" lon="0.38045">
        <ele>795</ele>
        <time>2019-08-08T06:38:37.000Z</time>
      </trkpt>
      <trkpt lat="42.88799" lon="0.38048">
        <ele>795</ele>
        <time>2019-08-08T06:38:38.000Z</time>
      </trkpt>
      <trkpt lat="42.88791" lon="0.38062">
        <ele>795</ele>
        <time>2019-08-08T06:38:39.000Z</time>
      </trkpt>
      <trkpt lat="42.88785" lon="0.38069">
        <ele>795.6</ele>
        <time>2019-08-08T06:38:41.000Z</time>
      </trkpt>
      <trkpt lat="42.88785" lon="0.38069">
        <ele>796</ele>
        <time>2019-08-08T06:38:42.000Z</time>
      </trkpt>
      <trkpt lat="42.88775" lon="0.38089">
        <ele>796</ele>
        <time>2019-08-08T06:38:43.000Z</time>
      </trkpt>
      <trkpt lat="42.88773" lon="0.38093">
        <ele>796</ele>
        <time>2019-08-08T06:38:44.000Z</time>
      </trkpt>
      <trkpt lat="42.8877" lon="0.38105">
        <ele>796</ele>
        <time>2019-08-08T06:38:45.000Z</time>
      </trkpt>
      <trkpt lat="42.8877" lon="0.38109">
        <ele>796</ele>
        <time>2019-08-08T06:38:46.000Z</time>
      </trkpt>
      <trkpt lat="42.88768" lon="0.3812">
        <ele>796</ele>
        <time>2019-08-08T06:38:47.000Z</time>
      </trkpt>
      <trkpt lat="42.88767" lon="0.38124">
        <ele>796</ele>
        <time>2019-08-08T06:38:48.000Z</time>
      </trkpt>
      <trkpt lat="42.88766" lon="0.38135">
        <ele>796</ele>
        <time>2019-08-08T06:38:49.000Z</time>
      </trkpt>
      <trkpt lat="42.88765" lon="0.38139">
        <ele>797</ele>
        <time>2019-08-08T06:38:50.000Z</time>
      </trkpt>
      <trkpt lat="42.88764" lon="0.3815">
        <ele>797</ele>
        <time>2019-08-08T06:38:51.000Z</time>
      </trkpt>
      <trkpt lat="42.88764" lon="0.38154">
        <ele>797</ele>
        <time>2019-08-08T06:38:52.000Z</time>
      </trkpt>
      <trkpt lat="42.88762" lon="0.38165">
        <ele>797</ele>
        <time>2019-08-08T06:38:53.000Z</time>
      </trkpt>
      <trkpt lat="42.88762" lon="0.38169">
        <ele>797</ele>
        <time>2019-08-08T06:38:54.000Z</time>
      </trkpt>
      <trkpt lat="42.8876" lon="0.3818">
        <ele>797</ele>
        <time>2019-08-08T06:38:55.000Z</time>
      </trkpt>
      <trkpt lat="42.88759" lon="0.38184">
        <ele>797</ele>
        <time>2019-08-08T06:38:56.000Z</time>
      </trkpt>
      <trkpt lat="42.88756" lon="0.38195">
        <ele>797</ele>
        <time>2019-08-08T06:38:57.000Z</time>
      </trkpt>
      <trkpt lat="42.88755" lon="0.38198">
        <ele>797</ele>
        <time>2019-08-08T06:38:58.000Z</time>
      </trkpt>
      <trkpt lat="42.88753" lon="0.38205">
        <ele>797</ele>
        <time>2019-08-08T06:38:59.000Z</time>
      </trkpt>
      <trkpt lat="42.88753" lon="0.38205">
        <ele>797</ele>
        <time>2019-08-08T06:39:00.000Z</time>
      </trkpt>
      <trkpt lat="42.88745" lon="0.38219">
        <ele>797</ele>
        <time>2019-08-08T06:39:01.000Z</time>
      </trkpt>
      <trkpt lat="42.88743" lon="0.38222">
        <ele>798</ele>
        <time>2019-08-08T06:39:02.000Z</time>
      </trkpt>
      <trkpt lat="42.88737" lon="0.3823">
        <ele>798</ele>
        <time>2019-08-08T06:39:03.000Z</time>
      </trkpt>
      <trkpt lat="42.88735" lon="0.38232">
        <ele>799</ele>
        <time>2019-08-08T06:39:04.000Z</time>
      </trkpt>
      <trkpt lat="42.88731" lon="0.38237">
        <ele>799</ele>
        <time>2019-08-08T06:39:05.000Z</time>
      </trkpt>
      <trkpt lat="42.88731" lon="0.38237">
        <ele>800</ele>
        <time>2019-08-08T06:39:06.000Z</time>
      </trkpt>
      <trkpt lat="42.88723" lon="0.38246">
        <ele>800</ele>
        <time>2019-08-08T06:39:07.000Z</time>
      </trkpt>
      <trkpt lat="42.88723" lon="0.38246">
        <ele>800</ele>
        <time>2019-08-08T06:39:08.000Z</time>
      </trkpt>
      <trkpt lat="42.88717" lon="0.38255">
        <ele>800</ele>
        <time>2019-08-08T06:39:09.000Z</time>
      </trkpt>
      <trkpt lat="42.88717" lon="0.38255">
        <ele>800</ele>
        <time>2019-08-08T06:39:10.000Z</time>
      </trkpt>
      <trkpt lat="42.88709" lon="0.38267">
        <ele>800</ele>
        <time>2019-08-08T06:39:11.000Z</time>
      </trkpt>
      <trkpt lat="42.88707" lon="0.3827">
        <ele>801</ele>
        <time>2019-08-08T06:39:12.000Z</time>
      </trkpt>
      <trkpt lat="42.88704" lon="0.38275">
        <ele>801</ele>
        <time>2019-08-08T06:39:13.000Z</time>
      </trkpt>
      <trkpt lat="42.88704" lon="0.38275">
        <ele>801</ele>
        <time>2019-08-08T06:39:14.000Z</time>
      </trkpt>
      <trkpt lat="42.88699" lon="0.38286">
        <ele>801</ele>
        <time>2019-08-08T06:39:15.000Z</time>
      </trkpt>
      <trkpt lat="42.88699" lon="0.38286">
        <ele>801</ele>
        <time>2019-08-08T06:39:16.000Z</time>
      </trkpt>
      <trkpt lat="42.88694" lon="0.38297">
        <ele>801</ele>
        <time>2019-08-08T06:39:17.000Z</time>
      </trkpt>
      <trkpt lat="42.88687" lon="0.38307">
        <ele>801</ele>
        <time>2019-08-08T06:39:19.000Z</time>
      </trkpt>
      <trkpt lat="42.88687" lon="0.38307">
        <ele>801</ele>
        <time>2019-08-08T06:39:20.000Z</time>
      </trkpt>
      <trkpt lat="42.88681" lon="0.38318">
        <ele>801</ele>
        <time>2019-08-08T06:39:21.000Z</time>
      </trkpt>
      <trkpt lat="42.88681" lon="0.38318">
        <ele>802</ele>
        <time>2019-08-08T06:39:22.000Z</time>
      </trkpt>
      <trkpt lat="42.88677" lon="0.38329">
        <ele>802</ele>
        <time>2019-08-08T06:39:23.000Z</time>
      </trkpt>
      <trkpt lat="42.88677" lon="0.38329">
        <ele>803</ele>
        <time>2019-08-08T06:39:24.000Z</time>
      </trkpt>
      <trkpt lat="42.88672" lon="0.38343">
        <ele>803</ele>
        <time>2019-08-08T06:39:25.000Z</time>
      </trkpt>
      <trkpt lat="42.88671" lon="0.38346">
        <ele>804</ele>
        <time>2019-08-08T06:39:26.000Z</time>
      </trkpt>
      <trkpt lat="42.8867" lon="0.38349">
        <ele>804</ele>
        <time>2019-08-08T06:39:27.000Z</time>
      </trkpt>
      <trkpt lat="42.88666" lon="0.38359">
        <ele>804</ele>
        <time>2019-08-08T06:39:28.000Z</time>
      </trkpt>
      <trkpt lat="42.88664" lon="0.38361">
        <ele>804</ele>
        <time>2019-08-08T06:39:29.000Z</time>
      </trkpt>
      <trkpt lat="42.88663" lon="0.38364">
        <ele>805</ele>
        <time>2019-08-08T06:39:30.000Z</time>
      </trkpt>
      <trkpt lat="42.88658" lon="0.38371">
        <ele>805</ele>
        <time>2019-08-08T06:39:31.000Z</time>
      </trkpt>
      <trkpt lat="42.88658" lon="0.38371">
        <ele>805</ele>
        <time>2019-08-08T06:39:32.000Z</time>
      </trkpt>
      <trkpt lat="42.88653" lon="0.38382">
        <ele>805</ele>
        <time>2019-08-08T06:39:33.000Z</time>
      </trkpt>
      <trkpt lat="42.88653" lon="0.38382">
        <ele>805</ele>
        <time>2019-08-08T06:39:34.000Z</time>
      </trkpt>
      <trkpt lat="42.88648" lon="0.38396">
        <ele>805</ele>
        <time>2019-08-08T06:39:35.000Z</time>
      </trkpt>
      <trkpt lat="42.88649" lon="0.38399">
        <ele>806</ele>
        <time>2019-08-08T06:39:36.000Z</time>
      </trkpt>
      <trkpt lat="42.88649" lon="0.38402">
        <ele>806</ele>
        <time>2019-08-08T06:39:37.000Z</time>
      </trkpt>
      <trkpt lat="42.88649" lon="0.38411">
        <ele>807</ele>
        <time>2019-08-08T06:39:38.000Z</time>
      </trkpt>
      <trkpt lat="42.88649" lon="0.38411">
        <ele>807</ele>
        <time>2019-08-08T06:39:39.000Z</time>
      </trkpt>
      <trkpt lat="42.88641" lon="0.38426">
        <ele>807</ele>
        <time>2019-08-08T06:39:40.000Z</time>
      </trkpt>
      <trkpt lat="42.8864" lon="0.38429">
        <ele>807</ele>
        <time>2019-08-08T06:39:41.000Z</time>
      </trkpt>
      <trkpt lat="42.88636" lon="0.38435">
        <ele>807</ele>
        <time>2019-08-08T06:39:42.000Z</time>
      </trkpt>
      <trkpt lat="42.88636" lon="0.38435">
        <ele>807</ele>
        <time>2019-08-08T06:39:43.000Z</time>
      </trkpt>
      <trkpt lat="42.88631" lon="0.38447">
        <ele>807</ele>
        <time>2019-08-08T06:39:44.000Z</time>
      </trkpt>
      <trkpt lat="42.88628" lon="0.38453">
        <ele>807</ele>
        <time>2019-08-08T06:39:45.000Z</time>
      </trkpt>
      <trkpt lat="42.88626" lon="0.38459">
        <ele>807</ele>
        <time>2019-08-08T06:39:46.000Z</time>
      </trkpt>
      <trkpt lat="42.88622" lon="0.38466">
        <ele>807</ele>
        <time>2019-08-08T06:39:47.000Z</time>
      </trkpt>
      <trkpt lat="42.88619" lon="0.38472">
        <ele>808</ele>
        <time>2019-08-08T06:39:48.000Z</time>
      </trkpt>
      <trkpt lat="42.88616" lon="0.38478">
        <ele>808</ele>
        <time>2019-08-08T06:39:49.000Z</time>
      </trkpt>
      <trkpt lat="42.88612" lon="0.38484">
        <ele>808</ele>
        <time>2019-08-08T06:39:50.000Z</time>
      </trkpt>
      <trkpt lat="42.88608" lon="0.3849">
        <ele>808</ele>
        <time>2019-08-08T06:39:51.000Z</time>
      </trkpt>
      <trkpt lat="42.88605" lon="0.38496">
        <ele>808</ele>
        <time>2019-08-08T06:39:52.000Z</time>
      </trkpt>
      <trkpt lat="42.88598" lon="0.38504">
        <ele>808</ele>
        <time>2019-08-08T06:39:53.000Z</time>
      </trkpt>
      <trkpt lat="42.88596" lon="0.38506">
        <ele>808</ele>
        <time>2019-08-08T06:39:54.000Z</time>
      </trkpt>
      <trkpt lat="42.88586" lon="0.38516">
        <ele>808</ele>
        <time>2019-08-08T06:39:55.000Z</time>
      </trkpt>
      <trkpt lat="42.88581" lon="0.3852">
        <ele>808</ele>
        <time>2019-08-08T06:39:57.000Z</time>
      </trkpt>
      <trkpt lat="42.88577" lon="0.38524">
        <ele>808</ele>
        <time>2019-08-08T06:39:58.000Z</time>
      </trkpt>
      <trkpt lat="42.88569" lon="0.3853">
        <ele>808</ele>
        <time>2019-08-08T06:39:59.000Z</time>
      </trkpt>
      <trkpt lat="42.88567" lon="0.38532">
        <ele>808</ele>
        <time>2019-08-08T06:40:00.000Z</time>
      </trkpt>
      <trkpt lat="42.88562" lon="0.38535">
        <ele>809</ele>
        <time>2019-08-08T06:40:01.000Z</time>
      </trkpt>
      <trkpt lat="42.88557" lon="0.38539">
        <ele>809</ele>
        <time>2019-08-08T06:40:02.000Z</time>
      </trkpt>
      <trkpt lat="42.88552" lon="0.38542">
        <ele>809</ele>
        <time>2019-08-08T06:40:03.000Z</time>
      </trkpt>
      <trkpt lat="42.88547" lon="0.38545">
        <ele>810</ele>
        <time>2019-08-08T06:40:04.000Z</time>
      </trkpt>
      <trkpt lat="42.88542" lon="0.38548">
        <ele>811</ele>
        <time>2019-08-08T06:40:05.000Z</time>
      </trkpt>
      <trkpt lat="42.88537" lon="0.38551">
        <ele>811</ele>
        <time>2019-08-08T06:40:06.000Z</time>
      </trkpt>
      <trkpt lat="42.88533" lon="0.38554">
        <ele>811</ele>
        <time>2019-08-08T06:40:07.000Z</time>
      </trkpt>
      <trkpt lat="42.88528" lon="0.38557">
        <ele>811</ele>
        <time>2019-08-08T06:40:08.000Z</time>
      </trkpt>
      <trkpt lat="42.88524" lon="0.38559">
        <ele>811</ele>
        <time>2019-08-08T06:40:09.000Z</time>
      </trkpt>
      <trkpt lat="42.8852" lon="0.38562">
        <ele>811</ele>
        <time>2019-08-08T06:40:10.000Z</time>
      </trkpt>
      <trkpt lat="42.88516" lon="0.38565">
        <ele>811</ele>
        <time>2019-08-08T06:40:11.000Z</time>
      </trkpt>
      <trkpt lat="42.88513" lon="0.38567">
        <ele>812</ele>
        <time>2019-08-08T06:40:12.000Z</time>
      </trkpt>
      <trkpt lat="42.88506" lon="0.38571">
        <ele>812</ele>
        <time>2019-08-08T06:40:13.000Z</time>
      </trkpt>
      <trkpt lat="42.88503" lon="0.38572">
        <ele>813</ele>
        <time>2019-08-08T06:40:14.000Z</time>
      </trkpt>
      <trkpt lat="42.88498" lon="0.38574">
        <ele>813</ele>
        <time>2019-08-08T06:40:15.000Z</time>
      </trkpt>
      <trkpt lat="42.88494" lon="0.38576">
        <ele>814</ele>
        <time>2019-08-08T06:40:16.000Z</time>
      </trkpt>
      <trkpt lat="42.8849" lon="0.38578">
        <ele>814</ele>
        <time>2019-08-08T06:40:17.000Z</time>
      </trkpt>
      <trkpt lat="42.88486" lon="0.3858">
        <ele>814</ele>
        <time>2019-08-08T06:40:18.000Z</time>
      </trkpt>
      <trkpt lat="42.88482" lon="0.38583">
        <ele>814</ele>
        <time>2019-08-08T06:40:19.000Z</time>
      </trkpt>
      <trkpt lat="42.88477" lon="0.38585">
        <ele>814</ele>
        <time>2019-08-08T06:40:20.000Z</time>
      </trkpt>
      <trkpt lat="42.88472" lon="0.38587">
        <ele>814</ele>
        <time>2019-08-08T06:40:21.000Z</time>
      </trkpt>
      <trkpt lat="42.88468" lon="0.38589">
        <ele>814</ele>
        <time>2019-08-08T06:40:22.000Z</time>
      </trkpt>
      <trkpt lat="42.88464" lon="0.38591">
        <ele>815</ele>
        <time>2019-08-08T06:40:23.000Z</time>
      </trkpt>
      <trkpt lat="42.8846" lon="0.38593">
        <ele>815</ele>
        <time>2019-08-08T06:40:24.000Z</time>
      </trkpt>
      <trkpt lat="42.8846" lon="0.38593">
        <ele>815</ele>
        <time>2019-08-08T06:40:25.000Z</time>
      </trkpt>
      <trkpt lat="42.88451" lon="0.38597">
        <ele>815</ele>
        <time>2019-08-08T06:40:26.000Z</time>
      </trkpt>
      <trkpt lat="42.88447" lon="0.38599">
        <ele>816</ele>
        <time>2019-08-08T06:40:27.000Z</time>
      </trkpt>
      <trkpt lat="42.88443" lon="0.38601">
        <ele>816</ele>
        <time>2019-08-08T06:40:28.000Z</time>
      </trkpt>
      <trkpt lat="42.88439" lon="0.38603">
        <ele>817</ele>
        <time>2019-08-08T06:40:29.000Z</time>
      </trkpt>
      <trkpt lat="42.88439" lon="0.38603">
        <ele>817</ele>
        <time>2019-08-08T06:40:30.000Z</time>
      </trkpt>
      <trkpt lat="42.8843" lon="0.38608">
        <ele>817</ele>
        <time>2019-08-08T06:40:31.000Z</time>
      </trkpt>
      <trkpt lat="42.8843" lon="0.38608">
        <ele>817</ele>
        <time>2019-08-08T06:40:32.000Z</time>
      </trkpt>
      <trkpt lat="42.88422" lon="0.38614">
        <ele>818</ele>
        <time>2019-08-08T06:40:33.000Z</time>
      </trkpt>
      <trkpt lat="42.88418" lon="0.38617">
        <ele>818</ele>
        <time>2019-08-08T06:40:34.000Z</time>
      </trkpt>
      <trkpt lat="42.88414" lon="0.3862">
        <ele>818</ele>
        <time>2019-08-08T06:40:35.000Z</time>
      </trkpt>
      <trkpt lat="42.8841" lon="0.38624">
        <ele>818</ele>
        <time>2019-08-08T06:40:36.000Z</time>
      </trkpt>
      <trkpt lat="42.88407" lon="0.38627">
        <ele>818</ele>
        <time>2019-08-08T06:40:37.000Z</time>
      </trkpt>
      <trkpt lat="42.88404" lon="0.38631">
        <ele>819</ele>
        <time>2019-08-08T06:40:38.000Z</time>
      </trkpt>
      <trkpt lat="42.88401" lon="0.38635">
        <ele>819</ele>
        <time>2019-08-08T06:40:39.000Z</time>
      </trkpt>
      <trkpt lat="42.88398" lon="0.3864">
        <ele>819</ele>
        <time>2019-08-08T06:40:40.000Z</time>
      </trkpt>
      <trkpt lat="42.88395" lon="0.38644">
        <ele>819</ele>
        <time>2019-08-08T06:40:41.000Z</time>
      </trkpt>
      <trkpt lat="42.88392" lon="0.38649">
        <ele>819</ele>
        <time>2019-08-08T06:40:42.000Z</time>
      </trkpt>
      <trkpt lat="42.88389" lon="0.38653">
        <ele>819</ele>
        <time>2019-08-08T06:40:43.000Z</time>
      </trkpt>
      <trkpt lat="42.88385" lon="0.38658">
        <ele>820</ele>
        <time>2019-08-08T06:40:44.000Z</time>
      </trkpt>
      <trkpt lat="42.88382" lon="0.38662">
        <ele>820</ele>
        <time>2019-08-08T06:40:45.000Z</time>
      </trkpt>
      <trkpt lat="42.88378" lon="0.38666">
        <ele>821</ele>
        <time>2019-08-08T06:40:46.000Z</time>
      </trkpt>
      <trkpt lat="42.88375" lon="0.3867">
        <ele>821</ele>
        <time>2019-08-08T06:40:47.000Z</time>
      </trkpt>
      <trkpt lat="42.88372" lon="0.38675">
        <ele>822</ele>
        <time>2019-08-08T06:40:48.000Z</time>
      </trkpt>
      <trkpt lat="42.88368" lon="0.38679">
        <ele>822</ele>
        <time>2019-08-08T06:40:49.000Z</time>
      </trkpt>
      <trkpt lat="42.88365" lon="0.38683">
        <ele>822</ele>
        <time>2019-08-08T06:40:50.000Z</time>
      </trkpt>
      <trkpt lat="42.88361" lon="0.38687">
        <ele>822</ele>
        <time>2019-08-08T06:40:51.000Z</time>
      </trkpt>
      <trkpt lat="42.88358" lon="0.38691">
        <ele>822</ele>
        <time>2019-08-08T06:40:52.000Z</time>
      </trkpt>
      <trkpt lat="42.88354" lon="0.38696">
        <ele>822</ele>
        <time>2019-08-08T06:40:53.000Z</time>
      </trkpt>
      <trkpt lat="42.88351" lon="0.387">
        <ele>822</ele>
        <time>2019-08-08T06:40:54.000Z</time>
      </trkpt>
      <trkpt lat="42.88348" lon="0.38704">
        <ele>822</ele>
        <time>2019-08-08T06:40:55.000Z</time>
      </trkpt>
      <trkpt lat="42.88348" lon="0.38704">
        <ele>822</ele>
        <time>2019-08-08T06:40:56.000Z</time>
      </trkpt>
      <trkpt lat="42.88342" lon="0.38713">
        <ele>823</ele>
        <time>2019-08-08T06:40:57.000Z</time>
      </trkpt>
      <trkpt lat="42.88339" lon="0.38717">
        <ele>823</ele>
        <time>2019-08-08T06:40:58.000Z</time>
      </trkpt>
      <trkpt lat="42.88336" lon="0.38721">
        <ele>823</ele>
        <time>2019-08-08T06:40:59.000Z</time>
      </trkpt>
      <trkpt lat="42.88333" lon="0.38725">
        <ele>823</ele>
        <time>2019-08-08T06:41:00.000Z</time>
      </trkpt>
      <trkpt lat="42.8833" lon="0.38729">
        <ele>823</ele>
        <time>2019-08-08T06:41:01.000Z</time>
      </trkpt>
      <trkpt lat="42.88328" lon="0.38734">
        <ele>823</ele>
        <time>2019-08-08T06:41:02.000Z</time>
      </trkpt>
      <trkpt lat="42.88325" lon="0.38738">
        <ele>823</ele>
        <time>2019-08-08T06:41:03.000Z</time>
      </trkpt>
      <trkpt lat="42.88322" lon="0.38742">
        <ele>823</ele>
        <time>2019-08-08T06:41:04.000Z</time>
      </trkpt>
      <trkpt lat="42.88319" lon="0.38746">
        <ele>824</ele>
        <time>2019-08-08T06:41:05.000Z</time>
      </trkpt>
      <trkpt lat="42.88316" lon="0.3875">
        <ele>824</ele>
        <time>2019-08-08T06:41:06.000Z</time>
      </trkpt>
      <trkpt lat="42.88314" lon="0.38754">
        <ele>824</ele>
        <time>2019-08-08T06:41:07.000Z</time>
      </trkpt>
      <trkpt lat="42.88314" lon="0.38754">
        <ele>825</ele>
        <time>2019-08-08T06:41:08.000Z</time>
      </trkpt>
      <trkpt lat="42.88308" lon="0.38762">
        <ele>825</ele>
        <time>2019-08-08T06:41:09.000Z</time>
      </trkpt>
      <trkpt lat="42.88304" lon="0.38766">
        <ele>825</ele>
        <time>2019-08-08T06:41:10.000Z</time>
      </trkpt>
      <trkpt lat="42.88301" lon="0.38769">
        <ele>826</ele>
        <time>2019-08-08T06:41:11.000Z</time>
      </trkpt>
      <trkpt lat="42.88296" lon="0.38774">
        <ele>826</ele>
        <time>2019-08-08T06:41:12.000Z</time>
      </trkpt>
      <trkpt lat="42.88294" lon="0.38776">
        <ele>826</ele>
        <time>2019-08-08T06:41:13.000Z</time>
      </trkpt>
      <trkpt lat="42.8829" lon="0.38778">
        <ele>826</ele>
        <time>2019-08-08T06:41:14.000Z</time>
      </trkpt>
      <trkpt lat="42.88285" lon="0.3878">
        <ele>827</ele>
        <time>2019-08-08T06:41:15.000Z</time>
      </trkpt>
      <trkpt lat="42.88285" lon="0.3878">
        <ele>827</ele>
        <time>2019-08-08T06:41:16.000Z</time>
      </trkpt>
      <trkpt lat="42.88276" lon="0.38785">
        <ele>827</ele>
        <time>2019-08-08T06:41:17.000Z</time>
      </trkpt>
      <trkpt lat="42.88272" lon="0.38787">
        <ele>828</ele>
        <time>2019-08-08T06:41:18.000Z</time>
      </trkpt>
      <trkpt lat="42.88268" lon="0.38788">
        <ele>828</ele>
        <time>2019-08-08T06:41:19.000Z</time>
      </trkpt>
      <trkpt lat="42.88268" lon="0.38788">
        <ele>828</ele>
        <time>2019-08-08T06:41:20.000Z</time>
      </trkpt>
      <trkpt lat="42.88259" lon="0.38792">
        <ele>829</ele>
        <time>2019-08-08T06:41:21.000Z</time>
      </trkpt>
      <trkpt lat="42.88255" lon="0.38794">
        <ele>829</ele>
        <time>2019-08-08T06:41:22.000Z</time>
      </trkpt>
      <trkpt lat="42.88252" lon="0.38796">
        <ele>829</ele>
        <time>2019-08-08T06:41:23.000Z</time>
      </trkpt>
      <trkpt lat="42.88248" lon="0.38798">
        <ele>829</ele>
        <time>2019-08-08T06:41:24.000Z</time>
      </trkpt>
      <trkpt lat="42.88244" lon="0.38801">
        <ele>830</ele>
        <time>2019-08-08T06:41:25.000Z</time>
      </trkpt>
      <trkpt lat="42.8824" lon="0.38803">
        <ele>830</ele>
        <time>2019-08-08T06:41:26.000Z</time>
      </trkpt>
      <trkpt lat="42.88236" lon="0.38806">
        <ele>830</ele>
        <time>2019-08-08T06:41:27.000Z</time>
      </trkpt>
      <trkpt lat="42.88236" lon="0.38806">
        <ele>830</ele>
        <time>2019-08-08T06:41:28.000Z</time>
      </trkpt>
      <trkpt lat="42.88228" lon="0.38812">
        <ele>831</ele>
        <time>2019-08-08T06:41:29.000Z</time>
      </trkpt>
      <trkpt lat="42.88228" lon="0.38812">
        <ele>831</ele>
        <time>2019-08-08T06:41:30.000Z</time>
      </trkpt>
      <trkpt lat="42.88217" lon="0.38819">
        <ele>831</ele>
        <time>2019-08-08T06:41:31.000Z</time>
      </trkpt>
      <trkpt lat="42.88215" lon="0.3882">
        <ele>831</ele>
        <time>2019-08-08T06:41:32.000Z</time>
      </trkpt>
      <trkpt lat="42.88213" lon="0.38821">
        <ele>831</ele>
        <time>2019-08-08T06:41:33.000Z</time>
      </trkpt>
      <trkpt lat="42.88207" lon="0.38825">
        <ele>831</ele>
        <time>2019-08-08T06:41:34.000Z</time>
      </trkpt>
      <trkpt lat="42.88207" lon="0.38825">
        <ele>832</ele>
        <time>2019-08-08T06:41:35.000Z</time>
      </trkpt>
      <trkpt lat="42.88198" lon="0.3883">
        <ele>832</ele>
        <time>2019-08-08T06:41:36.000Z</time>
      </trkpt>
      <trkpt lat="42.88198" lon="0.3883">
        <ele>832</ele>
        <time>2019-08-08T06:41:37.000Z</time>
      </trkpt>
      <trkpt lat="42.88188" lon="0.38836">
        <ele>832</ele>
        <time>2019-08-08T06:41:38.000Z</time>
      </trkpt>
      <trkpt lat="42.88186" lon="0.38838">
        <ele>832</ele>
        <time>2019-08-08T06:41:39.000Z</time>
      </trkpt>
      <trkpt lat="42.88184" lon="0.38839">
        <ele>832</ele>
        <time>2019-08-08T06:41:40.000Z</time>
      </trkpt>
      <trkpt lat="42.88178" lon="0.38843">
        <ele>832</ele>
        <time>2019-08-08T06:41:41.000Z</time>
      </trkpt>
      <trkpt lat="42.88178" lon="0.38843">
        <ele>832</ele>
        <time>2019-08-08T06:41:42.000Z</time>
      </trkpt>
      <trkpt lat="42.88168" lon="0.3885">
        <ele>832</ele>
        <time>2019-08-08T06:41:43.000Z</time>
      </trkpt>
      <trkpt lat="42.88166" lon="0.38852">
        <ele>832</ele>
        <time>2019-08-08T06:41:44.000Z</time>
      </trkpt>
      <trkpt lat="42.88164" lon="0.38853">
        <ele>832</ele>
        <time>2019-08-08T06:41:45.000Z</time>
      </trkpt>
      <trkpt lat="42.88156" lon="0.38858">
        <ele>832</ele>
        <time>2019-08-08T06:41:46.000Z</time>
      </trkpt>
      <trkpt lat="42.88154" lon="0.38859">
        <ele>832</ele>
        <time>2019-08-08T06:41:47.000Z</time>
      </trkpt>
      <trkpt lat="42.88152" lon="0.38859">
        <ele>833</ele>
        <time>2019-08-08T06:41:48.000Z</time>
      </trkpt>
      <trkpt lat="42.88145" lon="0.38862">
        <ele>833</ele>
        <time>2019-08-08T06:41:49.000Z</time>
      </trkpt>
      <trkpt lat="42.88145" lon="0.38862">
        <ele>833</ele>
        <time>2019-08-08T06:41:50.000Z</time>
      </trkpt>
      <trkpt lat="42.88134" lon="0.38866">
        <ele>833</ele>
        <time>2019-08-08T06:41:51.000Z</time>
      </trkpt>
      <trkpt lat="42.88132" lon="0.38867">
        <ele>833</ele>
        <time>2019-08-08T06:41:52.000Z</time>
      </trkpt>
      <trkpt lat="42.8813" lon="0.38868">
        <ele>834</ele>
        <time>2019-08-08T06:41:53.000Z</time>
      </trkpt>
      <trkpt lat="42.88121" lon="0.38871">
        <ele>834</ele>
        <time>2019-08-08T06:41:54.000Z</time>
      </trkpt>
      <trkpt lat="42.88119" lon="0.38872">
        <ele>834</ele>
        <time>2019-08-08T06:41:55.000Z</time>
      </trkpt>
      <trkpt lat="42.88117" lon="0.38873">
        <ele>834</ele>
        <time>2019-08-08T06:41:56.000Z</time>
      </trkpt>
      <trkpt lat="42.88111" lon="0.38875">
        <ele>834</ele>
        <time>2019-08-08T06:41:57.000Z</time>
      </trkpt>
      <trkpt lat="42.88111" lon="0.38875">
        <ele>834</ele>
        <time>2019-08-08T06:41:58.000Z</time>
      </trkpt>
      <trkpt lat="42.88102" lon="0.38878">
        <ele>834</ele>
        <time>2019-08-08T06:41:59.000Z</time>
      </trkpt>
      <trkpt lat="42.88102" lon="0.38878">
        <ele>834</ele>
        <time>2019-08-08T06:42:00.000Z</time>
      </trkpt>
      <trkpt lat="42.88093" lon="0.3888">
        <ele>835</ele>
        <time>2019-08-08T06:42:01.000Z</time>
      </trkpt>
      <trkpt lat="42.88093" lon="0.3888">
        <ele>835</ele>
        <time>2019-08-08T06:42:02.000Z</time>
      </trkpt>
      <trkpt lat="42.88084" lon="0.38881">
        <ele>835</ele>
        <time>2019-08-08T06:42:03.000Z</time>
      </trkpt>
      <trkpt lat="42.8808" lon="0.38881">
        <ele>835</ele>
        <time>2019-08-08T06:42:04.000Z</time>
      </trkpt>
      <trkpt lat="42.88075" lon="0.38882">
        <ele>836</ele>
        <time>2019-08-08T06:42:05.000Z</time>
      </trkpt>
      <trkpt lat="42.88071" lon="0.38882">
        <ele>836</ele>
        <time>2019-08-08T06:42:06.000Z</time>
      </trkpt>
      <trkpt lat="42.88067" lon="0.38883">
        <ele>836</ele>
        <time>2019-08-08T06:42:07.000Z</time>
      </trkpt>
      <trkpt lat="42.88062" lon="0.38883">
        <ele>836</ele>
        <time>2019-08-08T06:42:08.000Z</time>
      </trkpt>
      <trkpt lat="42.88058" lon="0.38884">
        <ele>836</ele>
        <time>2019-08-08T06:42:09.000Z</time>
      </trkpt>
      <trkpt lat="42.88053" lon="0.38884">
        <ele>836</ele>
        <time>2019-08-08T06:42:10.000Z</time>
      </trkpt>
      <trkpt lat="42.88049" lon="0.38885">
        <ele>836</ele>
        <time>2019-08-08T06:42:11.000Z</time>
      </trkpt>
      <trkpt lat="42.88044" lon="0.38885">
        <ele>836</ele>
        <time>2019-08-08T06:42:12.000Z</time>
      </trkpt>
      <trkpt lat="42.8804" lon="0.38885">
        <ele>836</ele>
        <time>2019-08-08T06:42:13.000Z</time>
      </trkpt>
      <trkpt lat="42.88035" lon="0.38886">
        <ele>838</ele>
        <time>2019-08-08T06:42:14.000Z</time>
      </trkpt>
      <trkpt lat="42.88031" lon="0.38887">
        <ele>838</ele>
        <time>2019-08-08T06:42:15.000Z</time>
      </trkpt>
      <trkpt lat="42.88027" lon="0.38887">
        <ele>838</ele>
        <time>2019-08-08T06:42:16.000Z</time>
      </trkpt>
      <trkpt lat="42.88023" lon="0.38888">
        <ele>838</ele>
        <time>2019-08-08T06:42:17.000Z</time>
      </trkpt>
      <trkpt lat="42.88019" lon="0.38889">
        <ele>839</ele>
        <time>2019-08-08T06:42:18.000Z</time>
      </trkpt>
      <trkpt lat="42.88014" lon="0.3889">
        <ele>839</ele>
        <time>2019-08-08T06:42:19.000Z</time>
      </trkpt>
      <trkpt lat="42.8801" lon="0.38891">
        <ele>839</ele>
        <time>2019-08-08T06:42:20.000Z</time>
      </trkpt>
      <trkpt lat="42.88005" lon="0.38893">
        <ele>839</ele>
        <time>2019-08-08T06:42:21.000Z</time>
      </trkpt>
      <trkpt lat="42.88001" lon="0.38894">
        <ele>839</ele>
        <time>2019-08-08T06:42:22.000Z</time>
      </trkpt>
      <trkpt lat="42.87997" lon="0.38896">
        <ele>839</ele>
        <time>2019-08-08T06:42:23.000Z</time>
      </trkpt>
      <trkpt lat="42.87992" lon="0.38897">
        <ele>840</ele>
        <time>2019-08-08T06:42:24.000Z</time>
      </trkpt>
      <trkpt lat="42.87988" lon="0.38899">
        <ele>840</ele>
        <time>2019-08-08T06:42:25.000Z</time>
      </trkpt>
      <trkpt lat="42.87984" lon="0.38901">
        <ele>840</ele>
        <time>2019-08-08T06:42:26.000Z</time>
      </trkpt>
      <trkpt lat="42.8798" lon="0.38903">
        <ele>840</ele>
        <time>2019-08-08T06:42:27.000Z</time>
      </trkpt>
      <trkpt lat="42.87976" lon="0.38905">
        <ele>840</ele>
        <time>2019-08-08T06:42:28.000Z</time>
      </trkpt>
      <trkpt lat="42.8797" lon="0.38908">
        <ele>840</ele>
        <time>2019-08-08T06:42:29.000Z</time>
      </trkpt>
      <trkpt lat="42.87968" lon="0.3891">
        <ele>840</ele>
        <time>2019-08-08T06:42:30.000Z</time>
      </trkpt>
      <trkpt lat="42.87965" lon="0.38911">
        <ele>841</ele>
        <time>2019-08-08T06:42:31.000Z</time>
      </trkpt>
      <trkpt lat="42.87963" lon="0.38912">
        <ele>841</ele>
        <time>2019-08-08T06:42:32.000Z</time>
      </trkpt>
      <trkpt lat="42.87952" lon="0.38918">
        <ele>841</ele>
        <time>2019-08-08T06:42:33.000Z</time>
      </trkpt>
      <trkpt lat="42.87949" lon="0.38919">
        <ele>841</ele>
        <time>2019-08-08T06:42:34.000Z</time>
      </trkpt>
      <trkpt lat="42.87944" lon="0.38921">
        <ele>841</ele>
        <time>2019-08-08T06:42:35.000Z</time>
      </trkpt>
      <trkpt lat="42.87944" lon="0.38921">
        <ele>841</ele>
        <time>2019-08-08T06:42:36.000Z</time>
      </trkpt>
      <trkpt lat="42.87935" lon="0.38925">
        <ele>842</ele>
        <time>2019-08-08T06:42:37.000Z</time>
      </trkpt>
      <trkpt lat="42.87935" lon="0.38925">
        <ele>842</ele>
        <time>2019-08-08T06:42:38.000Z</time>
      </trkpt>
      <trkpt lat="42.87925" lon="0.38931">
        <ele>842</ele>
        <time>2019-08-08T06:42:39.000Z</time>
      </trkpt>
      <trkpt lat="42.87923" lon="0.38932">
        <ele>842</ele>
        <time>2019-08-08T06:42:40.000Z</time>
      </trkpt>
      <trkpt lat="42.87921" lon="0.38933">
        <ele>842</ele>
        <time>2019-08-08T06:42:41.000Z</time>
      </trkpt>
      <trkpt lat="42.87914" lon="0.38938">
        <ele>842</ele>
        <time>2019-08-08T06:42:42.000Z</time>
      </trkpt>
      <trkpt lat="42.87912" lon="0.38939">
        <ele>842</ele>
        <time>2019-08-08T06:42:43.000Z</time>
      </trkpt>
      <trkpt lat="42.8791" lon="0.38941">
        <ele>842</ele>
        <time>2019-08-08T06:42:44.000Z</time>
      </trkpt>
      <trkpt lat="42.87905" lon="0.38944">
        <ele>842</ele>
        <time>2019-08-08T06:42:45.000Z</time>
      </trkpt>
      <trkpt lat="42.87905" lon="0.38944">
        <ele>842</ele>
        <time>2019-08-08T06:42:46.000Z</time>
      </trkpt>
      <trkpt lat="42.87896" lon="0.38948">
        <ele>842</ele>
        <time>2019-08-08T06:42:47.000Z</time>
      </trkpt>
      <trkpt lat="42.8789" lon="0.3895">
        <ele>842</ele>
        <time>2019-08-08T06:42:48.000Z</time>
      </trkpt>
      <trkpt lat="42.87885" lon="0.38952">
        <ele>842</ele>
        <time>2019-08-08T06:42:49.000Z</time>
      </trkpt>
      <trkpt lat="42.87881" lon="0.38953">
        <ele>843</ele>
        <time>2019-08-08T06:42:50.000Z</time>
      </trkpt>
      <trkpt lat="42.87876" lon="0.38954">
        <ele>843</ele>
        <time>2019-08-08T06:42:51.000Z</time>
      </trkpt>
      <trkpt lat="42.87871" lon="0.38955">
        <ele>843</ele>
        <time>2019-08-08T06:42:52.000Z</time>
      </trkpt>
      <trkpt lat="42.87866" lon="0.38956">
        <ele>843</ele>
        <time>2019-08-08T06:42:53.000Z</time>
      </trkpt>
      <trkpt lat="42.87861" lon="0.38956">
        <ele>843</ele>
        <time>2019-08-08T06:42:54.000Z</time>
      </trkpt>
      <trkpt lat="42.87856" lon="0.38956">
        <ele>843</ele>
        <time>2019-08-08T06:42:55.000Z</time>
      </trkpt>
      <trkpt lat="42.87848" lon="0.38955">
        <ele>843</ele>
        <time>2019-08-08T06:42:56.000Z</time>
      </trkpt>
      <trkpt lat="42.87845" lon="0.38954">
        <ele>843</ele>
        <time>2019-08-08T06:42:57.000Z</time>
      </trkpt>
      <trkpt lat="42.87837" lon="0.38952">
        <ele>844</ele>
        <time>2019-08-08T06:42:58.000Z</time>
      </trkpt>
      <trkpt lat="42.87834" lon="0.38951">
        <ele>844</ele>
        <time>2019-08-08T06:42:59.000Z</time>
      </trkpt>
      <trkpt lat="42.87829" lon="0.38949">
        <ele>844</ele>
        <time>2019-08-08T06:43:00.000Z</time>
      </trkpt>
      <trkpt lat="42.87823" lon="0.38947">
        <ele>844</ele>
        <time>2019-08-08T06:43:01.000Z</time>
      </trkpt>
      <trkpt lat="42.87818" lon="0.38945">
        <ele>844</ele>
        <time>2019-08-08T06:43:02.000Z</time>
      </trkpt>
      <trkpt lat="42.87813" lon="0.38944">
        <ele>844</ele>
        <time>2019-08-08T06:43:03.000Z</time>
      </trkpt>
      <trkpt lat="42.87808" lon="0.38945">
        <ele>844</ele>
        <time>2019-08-08T06:43:04.000Z</time>
      </trkpt>
      <trkpt lat="42.87803" lon="0.38946">
        <ele>844</ele>
        <time>2019-08-08T06:43:05.000Z</time>
      </trkpt>
      <trkpt lat="42.87798" lon="0.38949">
        <ele>844</ele>
        <time>2019-08-08T06:43:06.000Z</time>
      </trkpt>
      <trkpt lat="42.87794" lon="0.38954">
        <ele>844</ele>
        <time>2019-08-08T06:43:07.000Z</time>
      </trkpt>
      <trkpt lat="42.8779" lon="0.38959">
        <ele>844</ele>
        <time>2019-08-08T06:43:08.000Z</time>
      </trkpt>
      <trkpt lat="42.87786" lon="0.38965">
        <ele>844</ele>
        <time>2019-08-08T06:43:09.000Z</time>
      </trkpt>
      <trkpt lat="42.87782" lon="0.38973">
        <ele>844</ele>
        <time>2019-08-08T06:43:10.000Z</time>
      </trkpt>
      <trkpt lat="42.87779" lon="0.3898">
        <ele>844</ele>
        <time>2019-08-08T06:43:11.000Z</time>
      </trkpt>
      <trkpt lat="42.87775" lon="0.38988">
        <ele>844</ele>
        <time>2019-08-08T06:43:12.000Z</time>
      </trkpt>
      <trkpt lat="42.87772" lon="0.38996">
        <ele>844</ele>
        <time>2019-08-08T06:43:13.000Z</time>
      </trkpt>
      <trkpt lat="42.87769" lon="0.39003">
        <ele>844</ele>
        <time>2019-08-08T06:43:14.000Z</time>
      </trkpt>
      <trkpt lat="42.87766" lon="0.39011">
        <ele>844</ele>
        <time>2019-08-08T06:43:15.000Z</time>
      </trkpt>
      <trkpt lat="42.87762" lon="0.39018">
        <ele>844</ele>
        <time>2019-08-08T06:43:16.000Z</time>
      </trkpt>
      <trkpt lat="42.87758" lon="0.39026">
        <ele>844</ele>
        <time>2019-08-08T06:43:17.000Z</time>
      </trkpt>
      <trkpt lat="42.87755" lon="0.39034">
        <ele>844</ele>
        <time>2019-08-08T06:43:18.000Z</time>
      </trkpt>
      <trkpt lat="42.87751" lon="0.39042">
        <ele>844</ele>
        <time>2019-08-08T06:43:19.000Z</time>
      </trkpt>
      <trkpt lat="42.87747" lon="0.39049">
        <ele>844</ele>
        <time>2019-08-08T06:43:20.000Z</time>
      </trkpt>
      <trkpt lat="42.87744" lon="0.39056">
        <ele>844</ele>
        <time>2019-08-08T06:43:21.000Z</time>
      </trkpt>
      <trkpt lat="42.87738" lon="0.39066">
        <ele>844</ele>
        <time>2019-08-08T06:43:22.000Z</time>
      </trkpt>
      <trkpt lat="42.87736" lon="0.39069">
        <ele>844</ele>
        <time>2019-08-08T06:43:23.000Z</time>
      </trkpt>
      <trkpt lat="42.87732" lon="0.39076">
        <ele>844</ele>
        <time>2019-08-08T06:43:24.000Z</time>
      </trkpt>
      <trkpt lat="42.87727" lon="0.39081">
        <ele>844</ele>
        <time>2019-08-08T06:43:25.000Z</time>
      </trkpt>
      <trkpt lat="42.87722" lon="0.39086">
        <ele>844</ele>
        <time>2019-08-08T06:43:26.000Z</time>
      </trkpt>
      <trkpt lat="42.87716" lon="0.3909">
        <ele>844</ele>
        <time>2019-08-08T06:43:27.000Z</time>
      </trkpt>
      <trkpt lat="42.87708" lon="0.39094">
        <ele>845</ele>
        <time>2019-08-08T06:43:28.000Z</time>
      </trkpt>
      <trkpt lat="42.87705" lon="0.39094">
        <ele>845</ele>
        <time>2019-08-08T06:43:29.000Z</time>
      </trkpt>
      <trkpt lat="42.87696" lon="0.39096">
        <ele>845</ele>
        <time>2019-08-08T06:43:30.000Z</time>
      </trkpt>
      <trkpt lat="42.87694" lon="0.39096">
        <ele>845</ele>
        <time>2019-08-08T06:43:31.000Z</time>
      </trkpt>
      <trkpt lat="42.87688" lon="0.39096">
        <ele>846</ele>
        <time>2019-08-08T06:43:32.000Z</time>
      </trkpt>
      <trkpt lat="42.87688" lon="0.39096">
        <ele>846</ele>
        <time>2019-08-08T06:43:33.000Z</time>
      </trkpt>
      <trkpt lat="42.87675" lon="0.39097">
        <ele>847</ele>
        <time>2019-08-08T06:43:34.000Z</time>
      </trkpt>
      <trkpt lat="42.87673" lon="0.39097">
        <ele>847</ele>
        <time>2019-08-08T06:43:35.000Z</time>
      </trkpt>
      <trkpt lat="42.87667" lon="0.39098">
        <ele>847</ele>
        <time>2019-08-08T06:43:36.000Z</time>
      </trkpt>
      <trkpt lat="42.87667" lon="0.39098">
        <ele>847</ele>
        <time>2019-08-08T06:43:37.000Z</time>
      </trkpt>
      <trkpt lat="42.87658" lon="0.39102">
        <ele>847</ele>
        <time>2019-08-08T06:43:38.000Z</time>
      </trkpt>
      <trkpt lat="42.87653" lon="0.39105">
        <ele>847</ele>
        <time>2019-08-08T06:43:39.000Z</time>
      </trkpt>
      <trkpt lat="42.87649" lon="0.39108">
        <ele>848</ele>
        <time>2019-08-08T06:43:40.000Z</time>
      </trkpt>
      <trkpt lat="42.87645" lon="0.39112">
        <ele>848</ele>
        <time>2019-08-08T06:43:41.000Z</time>
      </trkpt>
      <trkpt lat="42.87645" lon="0.39112">
        <ele>848</ele>
        <time>2019-08-08T06:43:42.000Z</time>
      </trkpt>
      <trkpt lat="42.87638" lon="0.3912">
        <ele>848</ele>
        <time>2019-08-08T06:43:43.000Z</time>
      </trkpt>
      <trkpt lat="42.87638" lon="0.3912">
        <ele>848</ele>
        <time>2019-08-08T06:43:44.000Z</time>
      </trkpt>
      <trkpt lat="42.87631" lon="0.39129">
        <ele>849</ele>
        <time>2019-08-08T06:43:45.000Z</time>
      </trkpt>
      <trkpt lat="42.87631" lon="0.39129">
        <ele>849</ele>
        <time>2019-08-08T06:43:46.000Z</time>
      </trkpt>
      <trkpt lat="42.87624" lon="0.39139">
        <ele>849</ele>
        <time>2019-08-08T06:43:47.000Z</time>
      </trkpt>
      <trkpt lat="42.87624" lon="0.39139">
        <ele>849</ele>
        <time>2019-08-08T06:43:48.000Z</time>
      </trkpt>
      <trkpt lat="42.87618" lon="0.3915">
        <ele>849</ele>
        <time>2019-08-08T06:43:49.000Z</time>
      </trkpt>
      <trkpt lat="42.87618" lon="0.3915">
        <ele>849</ele>
        <time>2019-08-08T06:43:50.000Z</time>
      </trkpt>
      <trkpt lat="42.87611" lon="0.39159">
        <ele>849</ele>
        <time>2019-08-08T06:43:51.000Z</time>
      </trkpt>
      <trkpt lat="42.87605" lon="0.39166">
        <ele>849</ele>
        <time>2019-08-08T06:43:52.000Z</time>
      </trkpt>
      <trkpt lat="42.87603" lon="0.39168">
        <ele>849</ele>
        <time>2019-08-08T06:43:53.000Z</time>
      </trkpt>
      <trkpt lat="42.87599" lon="0.39172">
        <ele>849</ele>
        <time>2019-08-08T06:43:54.000Z</time>
      </trkpt>
      <trkpt lat="42.87595" lon="0.39176">
        <ele>850</ele>
        <time>2019-08-08T06:43:55.000Z</time>
      </trkpt>
      <trkpt lat="42.87591" lon="0.39179">
        <ele>850</ele>
        <time>2019-08-08T06:43:56.000Z</time>
      </trkpt>
      <trkpt lat="42.87586" lon="0.39183">
        <ele>850</ele>
        <time>2019-08-08T06:43:57.000Z</time>
      </trkpt>
      <trkpt lat="42.87582" lon="0.39186">
        <ele>850</ele>
        <time>2019-08-08T06:43:58.000Z</time>
      </trkpt>
      <trkpt lat="42.87582" lon="0.39186">
        <ele>850</ele>
        <time>2019-08-08T06:43:59.000Z</time>
      </trkpt>
      <trkpt lat="42.87574" lon="0.39193">
        <ele>850</ele>
        <time>2019-08-08T06:44:00.000Z</time>
      </trkpt>
      <trkpt lat="42.8757" lon="0.39197">
        <ele>850</ele>
        <time>2019-08-08T06:44:01.000Z</time>
      </trkpt>
      <trkpt lat="42.87566" lon="0.392">
        <ele>850</ele>
        <time>2019-08-08T06:44:02.000Z</time>
      </trkpt>
      <trkpt lat="42.87562" lon="0.39204">
        <ele>850</ele>
        <time>2019-08-08T06:44:03.000Z</time>
      </trkpt>
      <trkpt lat="42.87559" lon="0.39207">
        <ele>850</ele>
        <time>2019-08-08T06:44:04.000Z</time>
      </trkpt>
      <trkpt lat="42.87555" lon="0.39211">
        <ele>850</ele>
        <time>2019-08-08T06:44:05.000Z</time>
      </trkpt>
      <trkpt lat="42.87551" lon="0.39214">
        <ele>850</ele>
        <time>2019-08-08T06:44:06.000Z</time>
      </trkpt>
      <trkpt lat="42.87547" lon="0.39218">
        <ele>850</ele>
        <time>2019-08-08T06:44:07.000Z</time>
      </trkpt>
      <trkpt lat="42.87543" lon="0.39221">
        <ele>852</ele>
        <time>2019-08-08T06:44:08.000Z</time>
      </trkpt>
      <trkpt lat="42.87539" lon="0.39225">
        <ele>852</ele>
        <time>2019-08-08T06:44:09.000Z</time>
      </trkpt>
      <trkpt lat="42.87536" lon="0.39228">
        <ele>853</ele>
        <time>2019-08-08T06:44:10.000Z</time>
      </trkpt>
      <trkpt lat="42.87532" lon="0.39231">
        <ele>853</ele>
        <time>2019-08-08T06:44:11.000Z</time>
      </trkpt>
      <trkpt lat="42.87528" lon="0.39234">
        <ele>853</ele>
        <time>2019-08-08T06:44:12.000Z</time>
      </trkpt>
      <trkpt lat="42.87524" lon="0.39237">
        <ele>853</ele>
        <time>2019-08-08T06:44:13.000Z</time>
      </trkpt>
      <trkpt lat="42.8752" lon="0.3924">
        <ele>853</ele>
        <time>2019-08-08T06:44:14.000Z</time>
      </trkpt>
      <trkpt lat="42.87517" lon="0.39243">
        <ele>853</ele>
        <time>2019-08-08T06:44:15.000Z</time>
      </trkpt>
      <trkpt lat="42.87511" lon="0.39246">
        <ele>853</ele>
        <time>2019-08-08T06:44:16.000Z</time>
      </trkpt>
      <trkpt lat="42.87509" lon="0.39247">
        <ele>853</ele>
        <time>2019-08-08T06:44:17.000Z</time>
      </trkpt>
      <trkpt lat="42.87507" lon="0.39249">
        <ele>854</ele>
        <time>2019-08-08T06:44:18.000Z</time>
      </trkpt>
      <trkpt lat="42.87501" lon="0.39252">
        <ele>854</ele>
        <time>2019-08-08T06:44:19.000Z</time>
      </trkpt>
      <trkpt lat="42.87497" lon="0.39254">
        <ele>854</ele>
        <time>2019-08-08T06:44:20.000Z</time>
      </trkpt>
      <trkpt lat="42.87493" lon="0.39255">
        <ele>854</ele>
        <time>2019-08-08T06:44:21.000Z</time>
      </trkpt>
      <trkpt lat="42.87488" lon="0.39257">
        <ele>855</ele>
        <time>2019-08-08T06:44:22.000Z</time>
      </trkpt>
      <trkpt lat="42.87484" lon="0.39259">
        <ele>855</ele>
        <time>2019-08-08T06:44:23.000Z</time>
      </trkpt>
      <trkpt lat="42.87481" lon="0.39261">
        <ele>856</ele>
        <time>2019-08-08T06:44:24.000Z</time>
      </trkpt>
      <trkpt lat="42.87477" lon="0.39263">
        <ele>856</ele>
        <time>2019-08-08T06:44:25.000Z</time>
      </trkpt>
      <trkpt lat="42.87473" lon="0.39265">
        <ele>856</ele>
        <time>2019-08-08T06:44:26.000Z</time>
      </trkpt>
      <trkpt lat="42.87469" lon="0.39266">
        <ele>856</ele>
        <time>2019-08-08T06:44:27.000Z</time>
      </trkpt>
      <trkpt lat="42.87465" lon="0.39268">
        <ele>856</ele>
        <time>2019-08-08T06:44:28.000Z</time>
      </trkpt>
      <trkpt lat="42.87462" lon="0.3927">
        <ele>857</ele>
        <time>2019-08-08T06:44:29.000Z</time>
      </trkpt>
      <trkpt lat="42.87459" lon="0.39273">
        <ele>857</ele>
        <time>2019-08-08T06:44:30.000Z</time>
      </trkpt>
      <trkpt lat="42.87456" lon="0.39276">
        <ele>857</ele>
        <time>2019-08-08T06:44:31.000Z</time>
      </trkpt>
      <trkpt lat="42.87456" lon="0.39276">
        <ele>857</ele>
        <time>2019-08-08T06:44:32.000Z</time>
      </trkpt>
      <trkpt lat="42.87456" lon="0.39276">
        <ele>857</ele>
        <time>2019-08-08T06:44:33.000Z</time>
      </trkpt>
      <trkpt lat="42.87447" lon="0.39283">
        <ele>857</ele>
        <time>2019-08-08T06:44:34.000Z</time>
      </trkpt>
      <trkpt lat="42.87447" lon="0.39283">
        <ele>858</ele>
        <time>2019-08-08T06:44:35.000Z</time>
      </trkpt>
      <trkpt lat="42.87447" lon="0.39283">
        <ele>858</ele>
        <time>2019-08-08T06:44:36.000Z</time>
      </trkpt>
      <trkpt lat="42.87438" lon="0.39292">
        <ele>858</ele>
        <time>2019-08-08T06:44:37.000Z</time>
      </trkpt>
      <trkpt lat="42.87437" lon="0.39293">
        <ele>858</ele>
        <time>2019-08-08T06:44:38.000Z</time>
      </trkpt>
      <trkpt lat="42.87435" lon="0.39294">
        <ele>858</ele>
        <time>2019-08-08T06:44:39.000Z</time>
      </trkpt>
      <trkpt lat="42.87428" lon="0.39298">
        <ele>858</ele>
        <time>2019-08-08T06:44:40.000Z</time>
      </trkpt>
      <trkpt lat="42.87426" lon="0.393">
        <ele>858</ele>
        <time>2019-08-08T06:44:41.000Z</time>
      </trkpt>
      <trkpt lat="42.87424" lon="0.39301">
        <ele>858</ele>
        <time>2019-08-08T06:44:42.000Z</time>
      </trkpt>
      <trkpt lat="42.87416" lon="0.39306">
        <ele>858</ele>
        <time>2019-08-08T06:44:43.000Z</time>
      </trkpt>
      <trkpt lat="42.87414" lon="0.39307">
        <ele>858</ele>
        <time>2019-08-08T06:44:44.000Z</time>
      </trkpt>
      <trkpt lat="42.87405" lon="0.3931">
        <ele>858</ele>
        <time>2019-08-08T06:44:45.000Z</time>
      </trkpt>
      <trkpt lat="42.87402" lon="0.39311">
        <ele>858</ele>
        <time>2019-08-08T06:44:46.000Z</time>
      </trkpt>
      <trkpt lat="42.87393" lon="0.39313">
        <ele>858</ele>
        <time>2019-08-08T06:44:47.000Z</time>
      </trkpt>
      <trkpt lat="42.8739" lon="0.39314">
        <ele>858</ele>
        <time>2019-08-08T06:44:48.000Z</time>
      </trkpt>
      <trkpt lat="42.87381" lon="0.39315">
        <ele>858</ele>
        <time>2019-08-08T06:44:49.000Z</time>
      </trkpt>
      <trkpt lat="42.87378" lon="0.39316">
        <ele>858</ele>
        <time>2019-08-08T06:44:50.000Z</time>
      </trkpt>
      <trkpt lat="42.8737" lon="0.39317">
        <ele>858</ele>
        <time>2019-08-08T06:44:51.000Z</time>
      </trkpt>
      <trkpt lat="42.87367" lon="0.39318">
        <ele>858</ele>
        <time>2019-08-08T06:44:52.000Z</time>
      </trkpt>
      <trkpt lat="42.87359" lon="0.3932">
        <ele>858</ele>
        <time>2019-08-08T06:44:53.000Z</time>
      </trkpt>
      <trkpt lat="42.87357" lon="0.39321">
        <ele>858</ele>
        <time>2019-08-08T06:44:54.000Z</time>
      </trkpt>
      <trkpt lat="42.87348" lon="0.39323">
        <ele>858</ele>
        <time>2019-08-08T06:44:55.000Z</time>
      </trkpt>
      <trkpt lat="42.87345" lon="0.39324">
        <ele>858</ele>
        <time>2019-08-08T06:44:56.000Z</time>
      </trkpt>
      <trkpt lat="42.87335" lon="0.39325">
        <ele>858</ele>
        <time>2019-08-08T06:44:57.000Z</time>
      </trkpt>
      <trkpt lat="42.87332" lon="0.39325">
        <ele>858</ele>
        <time>2019-08-08T06:44:58.000Z</time>
      </trkpt>
      <trkpt lat="42.87326" lon="0.39327">
        <ele>858</ele>
        <time>2019-08-08T06:44:59.000Z</time>
      </trkpt>
      <trkpt lat="42.8732" lon="0.39328">
        <ele>858</ele>
        <time>2019-08-08T06:45:00.000Z</time>
      </trkpt>
      <trkpt lat="42.87314" lon="0.3933">
        <ele>859</ele>
        <time>2019-08-08T06:45:01.000Z</time>
      </trkpt>
      <trkpt lat="42.87308" lon="0.39332">
        <ele>859</ele>
        <time>2019-08-08T06:45:02.000Z</time>
      </trkpt>
      <trkpt lat="42.873" lon="0.39334">
        <ele>859</ele>
        <time>2019-08-08T06:45:03.000Z</time>
      </trkpt>
      <trkpt lat="42.87293" lon="0.39335">
        <ele>859</ele>
        <time>2019-08-08T06:45:04.000Z</time>
      </trkpt>
      <trkpt lat="42.87287" lon="0.39337">
        <ele>858</ele>
        <time>2019-08-08T06:45:05.000Z</time>
      </trkpt>
      <trkpt lat="42.87281" lon="0.39338">
        <ele>858</ele>
        <time>2019-08-08T06:45:06.000Z</time>
      </trkpt>
      <trkpt lat="42.87272" lon="0.3934">
        <ele>858</ele>
        <time>2019-08-08T06:45:07.000Z</time>
      </trkpt>
      <trkpt lat="42.87269" lon="0.39341">
        <ele>858</ele>
        <time>2019-08-08T06:45:08.000Z</time>
      </trkpt>
      <trkpt lat="42.8726" lon="0.39343">
        <ele>859</ele>
        <time>2019-08-08T06:45:09.000Z</time>
      </trkpt>
      <trkpt lat="42.87257" lon="0.39344">
        <ele>859</ele>
        <time>2019-08-08T06:45:10.000Z</time>
      </trkpt>
      <trkpt lat="42.87248" lon="0.39347">
        <ele>859</ele>
        <time>2019-08-08T06:45:11.000Z</time>
      </trkpt>
      <trkpt lat="42.87245" lon="0.39348">
        <ele>859</ele>
        <time>2019-08-08T06:45:12.000Z</time>
      </trkpt>
      <trkpt lat="42.87237" lon="0.39351">
        <ele>858</ele>
        <time>2019-08-08T06:45:13.000Z</time>
      </trkpt>
      <trkpt lat="42.87234" lon="0.39351">
        <ele>858</ele>
        <time>2019-08-08T06:45:14.000Z</time>
      </trkpt>
      <trkpt lat="42.87226" lon="0.39354">
        <ele>858</ele>
        <time>2019-08-08T06:45:15.000Z</time>
      </trkpt>
      <trkpt lat="42.87224" lon="0.39356">
        <ele>858</ele>
        <time>2019-08-08T06:45:16.000Z</time>
      </trkpt>
      <trkpt lat="42.87216" lon="0.39359">
        <ele>858</ele>
        <time>2019-08-08T06:45:17.000Z</time>
      </trkpt>
      <trkpt lat="42.87213" lon="0.3936">
        <ele>858</ele>
        <time>2019-08-08T06:45:18.000Z</time>
      </trkpt>
      <trkpt lat="42.87205" lon="0.39362">
        <ele>859</ele>
        <time>2019-08-08T06:45:19.000Z</time>
      </trkpt>
      <trkpt lat="42.87202" lon="0.39363">
        <ele>859</ele>
        <time>2019-08-08T06:45:20.000Z</time>
      </trkpt>
      <trkpt lat="42.87193" lon="0.39365">
        <ele>859</ele>
        <time>2019-08-08T06:45:21.000Z</time>
      </trkpt>
      <trkpt lat="42.8719" lon="0.39366">
        <ele>859</ele>
        <time>2019-08-08T06:45:22.000Z</time>
      </trkpt>
      <trkpt lat="42.87181" lon="0.39369">
        <ele>859</ele>
        <time>2019-08-08T06:45:23.000Z</time>
      </trkpt>
      <trkpt lat="42.87179" lon="0.3937">
        <ele>859</ele>
        <time>2019-08-08T06:45:24.000Z</time>
      </trkpt>
      <trkpt lat="42.8717" lon="0.39374">
        <ele>858</ele>
        <time>2019-08-08T06:45:25.000Z</time>
      </trkpt>
      <trkpt lat="42.87168" lon="0.39376">
        <ele>858</ele>
        <time>2019-08-08T06:45:26.000Z</time>
      </trkpt>
      <trkpt lat="42.8716" lon="0.39384">
        <ele>859</ele>
        <time>2019-08-08T06:45:27.000Z</time>
      </trkpt>
      <trkpt lat="42.87158" lon="0.39387">
        <ele>859</ele>
        <time>2019-08-08T06:45:28.000Z</time>
      </trkpt>
      <trkpt lat="42.87151" lon="0.39396">
        <ele>859</ele>
        <time>2019-08-08T06:45:29.000Z</time>
      </trkpt>
      <trkpt lat="42.87149" lon="0.394">
        <ele>859</ele>
        <time>2019-08-08T06:45:30.000Z</time>
      </trkpt>
      <trkpt lat="42.87145" lon="0.39411">
        <ele>859</ele>
        <time>2019-08-08T06:45:31.000Z</time>
      </trkpt>
      <trkpt lat="42.87143" lon="0.39414">
        <ele>859</ele>
        <time>2019-08-08T06:45:32.000Z</time>
      </trkpt>
      <trkpt lat="42.87141" lon="0.39422">
        <ele>859</ele>
        <time>2019-08-08T06:45:33.000Z</time>
      </trkpt>
      <trkpt lat="42.87141" lon="0.39422">
        <ele>859</ele>
        <time>2019-08-08T06:45:34.000Z</time>
      </trkpt>
      <trkpt lat="42.87141" lon="0.39439">
        <ele>859</ele>
        <time>2019-08-08T06:45:35.000Z</time>
      </trkpt>
      <trkpt lat="42.8714" lon="0.39443">
        <ele>859</ele>
        <time>2019-08-08T06:45:36.000Z</time>
      </trkpt>
      <trkpt lat="42.87137" lon="0.39455">
        <ele>859</ele>
        <time>2019-08-08T06:45:37.000Z</time>
      </trkpt>
      <trkpt lat="42.87136" lon="0.3946">
        <ele>859</ele>
        <time>2019-08-08T06:45:38.000Z</time>
      </trkpt>
      <trkpt lat="42.87134" lon="0.39472">
        <ele>859</ele>
        <time>2019-08-08T06:45:39.000Z</time>
      </trkpt>
      <trkpt lat="42.87132" lon="0.39476">
        <ele>859</ele>
        <time>2019-08-08T06:45:40.000Z</time>
      </trkpt>
      <trkpt lat="42.87128" lon="0.39487">
        <ele>859</ele>
        <time>2019-08-08T06:45:41.000Z</time>
      </trkpt>
      <trkpt lat="42.87126" lon="0.39491">
        <ele>859</ele>
        <time>2019-08-08T06:45:42.000Z</time>
      </trkpt>
      <trkpt lat="42.87122" lon="0.39502">
        <ele>859</ele>
        <time>2019-08-08T06:45:43.000Z</time>
      </trkpt>
      <trkpt lat="42.8712" lon="0.39506">
        <ele>859</ele>
        <time>2019-08-08T06:45:44.000Z</time>
      </trkpt>
      <trkpt lat="42.87115" lon="0.39517">
        <ele>859</ele>
        <time>2019-08-08T06:45:45.000Z</time>
      </trkpt>
      <trkpt lat="42.87113" lon="0.39521">
        <ele>859</ele>
        <time>2019-08-08T06:45:46.000Z</time>
      </trkpt>
      <trkpt lat="42.87108" lon="0.39533">
        <ele>859</ele>
        <time>2019-08-08T06:45:47.000Z</time>
      </trkpt>
      <trkpt lat="42.87106" lon="0.39536">
        <ele>859</ele>
        <time>2019-08-08T06:45:48.000Z</time>
      </trkpt>
      <trkpt lat="42.871" lon="0.39548">
        <ele>860</ele>
        <time>2019-08-08T06:45:49.000Z</time>
      </trkpt>
      <trkpt lat="42.87098" lon="0.39551">
        <ele>860</ele>
        <time>2019-08-08T06:45:50.000Z</time>
      </trkpt>
      <trkpt lat="42.87093" lon="0.39563">
        <ele>860</ele>
        <time>2019-08-08T06:45:51.000Z</time>
      </trkpt>
      <trkpt lat="42.87091" lon="0.39567">
        <ele>860</ele>
        <time>2019-08-08T06:45:52.000Z</time>
      </trkpt>
      <trkpt lat="42.87086" lon="0.39578">
        <ele>860</ele>
        <time>2019-08-08T06:45:53.000Z</time>
      </trkpt>
      <trkpt lat="42.87084" lon="0.39582">
        <ele>860</ele>
        <time>2019-08-08T06:45:54.000Z</time>
      </trkpt>
      <trkpt lat="42.87079" lon="0.39593">
        <ele>860</ele>
        <time>2019-08-08T06:45:55.000Z</time>
      </trkpt>
      <trkpt lat="42.87078" lon="0.39596">
        <ele>860</ele>
        <time>2019-08-08T06:45:56.000Z</time>
      </trkpt>
      <trkpt lat="42.87073" lon="0.39606">
        <ele>860</ele>
        <time>2019-08-08T06:45:57.000Z</time>
      </trkpt>
      <trkpt lat="42.87071" lon="0.3961">
        <ele>860</ele>
        <time>2019-08-08T06:45:58.000Z</time>
      </trkpt>
      <trkpt lat="42.87066" lon="0.39619">
        <ele>860</ele>
        <time>2019-08-08T06:45:59.000Z</time>
      </trkpt>
      <trkpt lat="42.87064" lon="0.39622">
        <ele>860</ele>
        <time>2019-08-08T06:46:00.000Z</time>
      </trkpt>
      <trkpt lat="42.87059" lon="0.39631">
        <ele>860</ele>
        <time>2019-08-08T06:46:01.000Z</time>
      </trkpt>
      <trkpt lat="42.87057" lon="0.39634">
        <ele>860</ele>
        <time>2019-08-08T06:46:02.000Z</time>
      </trkpt>
      <trkpt lat="42.8705" lon="0.39641">
        <ele>860</ele>
        <time>2019-08-08T06:46:03.000Z</time>
      </trkpt>
      <trkpt lat="42.87047" lon="0.39643">
        <ele>860</ele>
        <time>2019-08-08T06:46:04.000Z</time>
      </trkpt>
      <trkpt lat="42.87039" lon="0.39648">
        <ele>860</ele>
        <time>2019-08-08T06:46:05.000Z</time>
      </trkpt>
      <trkpt lat="42.87036" lon="0.39649">
        <ele>861</ele>
        <time>2019-08-08T06:46:06.000Z</time>
      </trkpt>
      <trkpt lat="42.87027" lon="0.39651">
        <ele>861</ele>
        <time>2019-08-08T06:46:07.000Z</time>
      </trkpt>
      <trkpt lat="42.87025" lon="0.39651">
        <ele>861</ele>
        <time>2019-08-08T06:46:08.000Z</time>
      </trkpt>
      <trkpt lat="42.87016" lon="0.39652">
        <ele>861</ele>
        <time>2019-08-08T06:46:09.000Z</time>
      </trkpt>
      <trkpt lat="42.87012" lon="0.39652">
        <ele>862</ele>
        <time>2019-08-08T06:46:10.000Z</time>
      </trkpt>
      <trkpt lat="42.87002" lon="0.39652">
        <ele>862</ele>
        <time>2019-08-08T06:46:11.000Z</time>
      </trkpt>
      <trkpt lat="42.86999" lon="0.39652">
        <ele>862</ele>
        <time>2019-08-08T06:46:12.000Z</time>
      </trkpt>
      <trkpt lat="42.8699" lon="0.39652">
        <ele>862</ele>
        <time>2019-08-08T06:46:13.000Z</time>
      </trkpt>
      <trkpt lat="42.86987" lon="0.39652">
        <ele>862</ele>
        <time>2019-08-08T06:46:14.000Z</time>
      </trkpt>
      <trkpt lat="42.86978" lon="0.39652">
        <ele>862</ele>
        <time>2019-08-08T06:46:15.000Z</time>
      </trkpt>
      <trkpt lat="42.86975" lon="0.39652">
        <ele>862</ele>
        <time>2019-08-08T06:46:16.000Z</time>
      </trkpt>
      <trkpt lat="42.86966" lon="0.39652">
        <ele>862</ele>
        <time>2019-08-08T06:46:17.000Z</time>
      </trkpt>
      <trkpt lat="42.86963" lon="0.39652">
        <ele>862</ele>
        <time>2019-08-08T06:46:18.000Z</time>
      </trkpt>
      <trkpt lat="42.86954" lon="0.39652">
        <ele>862</ele>
        <time>2019-08-08T06:46:19.000Z</time>
      </trkpt>
      <trkpt lat="42.86951" lon="0.39651">
        <ele>861</ele>
        <time>2019-08-08T06:46:20.000Z</time>
      </trkpt>
      <trkpt lat="42.86942" lon="0.39651">
        <ele>861</ele>
        <time>2019-08-08T06:46:21.000Z</time>
      </trkpt>
      <trkpt lat="42.86939" lon="0.39651">
        <ele>862</ele>
        <time>2019-08-08T06:46:22.000Z</time>
      </trkpt>
      <trkpt lat="42.8693" lon="0.3965">
        <ele>862</ele>
        <time>2019-08-08T06:46:23.000Z</time>
      </trkpt>
      <trkpt lat="42.86927" lon="0.3965">
        <ele>862</ele>
        <time>2019-08-08T06:46:24.000Z</time>
      </trkpt>
      <trkpt lat="42.86918" lon="0.39649">
        <ele>862</ele>
        <time>2019-08-08T06:46:25.000Z</time>
      </trkpt>
      <trkpt lat="42.86915" lon="0.39649">
        <ele>862</ele>
        <time>2019-08-08T06:46:26.000Z</time>
      </trkpt>
      <trkpt lat="42.86906" lon="0.39647">
        <ele>862</ele>
        <time>2019-08-08T06:46:27.000Z</time>
      </trkpt>
      <trkpt lat="42.86903" lon="0.39647">
        <ele>862</ele>
        <time>2019-08-08T06:46:28.000Z</time>
      </trkpt>
      <trkpt lat="42.86894" lon="0.39645">
        <ele>862</ele>
        <time>2019-08-08T06:46:29.000Z</time>
      </trkpt>
      <trkpt lat="42.86891" lon="0.39645">
        <ele>862</ele>
        <time>2019-08-08T06:46:30.000Z</time>
      </trkpt>
      <trkpt lat="42.86882" lon="0.39644">
        <ele>862</ele>
        <time>2019-08-08T06:46:31.000Z</time>
      </trkpt>
      <trkpt lat="42.86879" lon="0.39644">
        <ele>862</ele>
        <time>2019-08-08T06:46:32.000Z</time>
      </trkpt>
      <trkpt lat="42.86869" lon="0.39644">
        <ele>862</ele>
        <time>2019-08-08T06:46:33.000Z</time>
      </trkpt>
      <trkpt lat="42.86867" lon="0.39644">
        <ele>863</ele>
        <time>2019-08-08T06:46:34.000Z</time>
      </trkpt>
      <trkpt lat="42.86858" lon="0.39645">
        <ele>863</ele>
        <time>2019-08-08T06:46:35.000Z</time>
      </trkpt>
      <trkpt lat="42.86855" lon="0.39645">
        <ele>863</ele>
        <time>2019-08-08T06:46:36.000Z</time>
      </trkpt>
      <trkpt lat="42.86846" lon="0.39647">
        <ele>863</ele>
        <time>2019-08-08T06:46:37.000Z</time>
      </trkpt>
      <trkpt lat="42.86843" lon="0.39648">
        <ele>863</ele>
        <time>2019-08-08T06:46:38.000Z</time>
      </trkpt>
      <trkpt lat="42.86835" lon="0.39651">
        <ele>863</ele>
        <time>2019-08-08T06:46:39.000Z</time>
      </trkpt>
      <trkpt lat="42.86832" lon="0.39652">
        <ele>863</ele>
        <time>2019-08-08T06:46:40.000Z</time>
      </trkpt>
      <trkpt lat="42.86824" lon="0.39656">
        <ele>863</ele>
        <time>2019-08-08T06:46:41.000Z</time>
      </trkpt>
      <trkpt lat="42.86822" lon="0.39657">
        <ele>863</ele>
        <time>2019-08-08T06:46:42.000Z</time>
      </trkpt>
      <trkpt lat="42.86814" lon="0.39662">
        <ele>863</ele>
        <time>2019-08-08T06:46:43.000Z</time>
      </trkpt>
      <trkpt lat="42.86812" lon="0.39664">
        <ele>863</ele>
        <time>2019-08-08T06:46:44.000Z</time>
      </trkpt>
      <trkpt lat="42.86804" lon="0.3967">
        <ele>863</ele>
        <time>2019-08-08T06:46:45.000Z</time>
      </trkpt>
      <trkpt lat="42.86802" lon="0.39671">
        <ele>863</ele>
        <time>2019-08-08T06:46:46.000Z</time>
      </trkpt>
      <trkpt lat="42.86794" lon="0.39678">
        <ele>864</ele>
        <time>2019-08-08T06:46:47.000Z</time>
      </trkpt>
      <trkpt lat="42.86792" lon="0.3968">
        <ele>864</ele>
        <time>2019-08-08T06:46:48.000Z</time>
      </trkpt>
      <trkpt lat="42.86785" lon="0.39687">
        <ele>864</ele>
        <time>2019-08-08T06:46:49.000Z</time>
      </trkpt>
      <trkpt lat="42.86783" lon="0.39689">
        <ele>864</ele>
        <time>2019-08-08T06:46:50.000Z</time>
      </trkpt>
      <trkpt lat="42.86776" lon="0.39697">
        <ele>865</ele>
        <time>2019-08-08T06:46:51.000Z</time>
      </trkpt>
      <trkpt lat="42.86774" lon="0.397">
        <ele>865</ele>
        <time>2019-08-08T06:46:52.000Z</time>
      </trkpt>
      <trkpt lat="42.86769" lon="0.39708">
        <ele>865</ele>
        <time>2019-08-08T06:46:53.000Z</time>
      </trkpt>
      <trkpt lat="42.86767" lon="0.39712">
        <ele>865</ele>
        <time>2019-08-08T06:46:54.000Z</time>
      </trkpt>
      <trkpt lat="42.86762" lon="0.39721">
        <ele>865</ele>
        <time>2019-08-08T06:46:55.000Z</time>
      </trkpt>
      <trkpt lat="42.86761" lon="0.39725">
        <ele>865</ele>
        <time>2019-08-08T06:46:56.000Z</time>
      </trkpt>
      <trkpt lat="42.86757" lon="0.39735">
        <ele>864</ele>
        <time>2019-08-08T06:46:57.000Z</time>
      </trkpt>
      <trkpt lat="42.86756" lon="0.39739">
        <ele>864</ele>
        <time>2019-08-08T06:46:58.000Z</time>
      </trkpt>
      <trkpt lat="42.86753" lon="0.39751">
        <ele>864</ele>
        <time>2019-08-08T06:46:59.000Z</time>
      </trkpt>
      <trkpt lat="42.86753" lon="0.39754">
        <ele>864</ele>
        <time>2019-08-08T06:47:00.000Z</time>
      </trkpt>
      <trkpt lat="42.86751" lon="0.39766">
        <ele>864</ele>
        <time>2019-08-08T06:47:01.000Z</time>
      </trkpt>
      <trkpt lat="42.8675" lon="0.3977">
        <ele>864</ele>
        <time>2019-08-08T06:47:02.000Z</time>
      </trkpt>
      <trkpt lat="42.86748" lon="0.39783">
        <ele>864</ele>
        <time>2019-08-08T06:47:03.000Z</time>
      </trkpt>
      <trkpt lat="42.86748" lon="0.39787">
        <ele>864</ele>
        <time>2019-08-08T06:47:04.000Z</time>
      </trkpt>
      <trkpt lat="42.86746" lon="0.398">
        <ele>864</ele>
        <time>2019-08-08T06:47:05.000Z</time>
      </trkpt>
      <trkpt lat="42.86746" lon="0.39804">
        <ele>864</ele>
        <time>2019-08-08T06:47:06.000Z</time>
      </trkpt>
      <trkpt lat="42.86745" lon="0.39817">
        <ele>864</ele>
        <time>2019-08-08T06:47:07.000Z</time>
      </trkpt>
      <trkpt lat="42.86745" lon="0.39822">
        <ele>864</ele>
        <time>2019-08-08T06:47:08.000Z</time>
      </trkpt>
      <trkpt lat="42.86744" lon="0.39835">
        <ele>864</ele>
        <time>2019-08-08T06:47:09.000Z</time>
      </trkpt>
      <trkpt lat="42.86744" lon="0.39839">
        <ele>864</ele>
        <time>2019-08-08T06:47:10.000Z</time>
      </trkpt>
      <trkpt lat="42.86743" lon="0.39852">
        <ele>864</ele>
        <time>2019-08-08T06:47:11.000Z</time>
      </trkpt>
      <trkpt lat="42.86743" lon="0.39856">
        <ele>864</ele>
        <time>2019-08-08T06:47:12.000Z</time>
      </trkpt>
      <trkpt lat="42.86742" lon="0.39867">
        <ele>864</ele>
        <time>2019-08-08T06:47:13.000Z</time>
      </trkpt>
      <trkpt lat="42.86741" lon="0.39871">
        <ele>865</ele>
        <time>2019-08-08T06:47:14.000Z</time>
      </trkpt>
      <trkpt lat="42.86738" lon="0.39882">
        <ele>865</ele>
        <time>2019-08-08T06:47:15.000Z</time>
      </trkpt>
      <trkpt lat="42.86736" lon="0.39886">
        <ele>865</ele>
        <time>2019-08-08T06:47:16.000Z</time>
      </trkpt>
      <trkpt lat="42.86731" lon="0.39895">
        <ele>865</ele>
        <time>2019-08-08T06:47:17.000Z</time>
      </trkpt>
      <trkpt lat="42.8673" lon="0.39898">
        <ele>865</ele>
        <time>2019-08-08T06:47:18.000Z</time>
      </trkpt>
      <trkpt lat="42.86723" lon="0.39907">
        <ele>865</ele>
        <time>2019-08-08T06:47:19.000Z</time>
      </trkpt>
      <trkpt lat="42.86721" lon="0.3991">
        <ele>865</ele>
        <time>2019-08-08T06:47:20.000Z</time>
      </trkpt>
      <trkpt lat="42.86714" lon="0.39917">
        <ele>865</ele>
        <time>2019-08-08T06:47:21.000Z</time>
      </trkpt>
      <trkpt lat="42.86712" lon="0.3992">
        <ele>865</ele>
        <time>2019-08-08T06:47:22.000Z</time>
      </trkpt>
      <trkpt lat="42.86705" lon="0.39927">
        <ele>865</ele>
        <time>2019-08-08T06:47:23.000Z</time>
      </trkpt>
      <trkpt lat="42.86703" lon="0.39929">
        <ele>866</ele>
        <time>2019-08-08T06:47:24.000Z</time>
      </trkpt>
      <trkpt lat="42.86696" lon="0.39935">
        <ele>866</ele>
        <time>2019-08-08T06:47:25.000Z</time>
      </trkpt>
      <trkpt lat="42.86694" lon="0.39937">
        <ele>866</ele>
        <time>2019-08-08T06:47:26.000Z</time>
      </trkpt>
      <trkpt lat="42.86689" lon="0.39942">
        <ele>866</ele>
        <time>2019-08-08T06:47:27.000Z</time>
      </trkpt>
      <trkpt lat="42.86689" lon="0.39942">
        <ele>866</ele>
        <time>2019-08-08T06:47:28.000Z</time>
      </trkpt>
      <trkpt lat="42.86678" lon="0.39952">
        <ele>866</ele>
        <time>2019-08-08T06:47:29.000Z</time>
      </trkpt>
      <trkpt lat="42.86676" lon="0.39954">
        <ele>867</ele>
        <time>2019-08-08T06:47:30.000Z</time>
      </trkpt>
      <trkpt lat="42.86669" lon="0.39959">
        <ele>867</ele>
        <time>2019-08-08T06:47:31.000Z</time>
      </trkpt>
      <trkpt lat="42.86667" lon="0.39961">
        <ele>867</ele>
        <time>2019-08-08T06:47:32.000Z</time>
      </trkpt>
      <trkpt lat="42.8666" lon="0.39966">
        <ele>867</ele>
        <time>2019-08-08T06:47:33.000Z</time>
      </trkpt>
      <trkpt lat="42.86657" lon="0.39968">
        <ele>867</ele>
        <time>2019-08-08T06:47:34.000Z</time>
      </trkpt>
      <trkpt lat="42.8665" lon="0.39973">
        <ele>867</ele>
        <time>2019-08-08T06:47:35.000Z</time>
      </trkpt>
      <trkpt lat="42.86648" lon="0.39975">
        <ele>867</ele>
        <time>2019-08-08T06:47:36.000Z</time>
      </trkpt>
      <trkpt lat="42.86641" lon="0.39981">
        <ele>867</ele>
        <time>2019-08-08T06:47:37.000Z</time>
      </trkpt>
      <trkpt lat="42.86639" lon="0.39982">
        <ele>867</ele>
        <time>2019-08-08T06:47:38.000Z</time>
      </trkpt>
      <trkpt lat="42.86632" lon="0.39988">
        <ele>868</ele>
        <time>2019-08-08T06:47:39.000Z</time>
      </trkpt>
      <trkpt lat="42.8663" lon="0.3999">
        <ele>868</ele>
        <time>2019-08-08T06:47:40.000Z</time>
      </trkpt>
      <trkpt lat="42.86624" lon="0.39997">
        <ele>868</ele>
        <time>2019-08-08T06:47:41.000Z</time>
      </trkpt>
      <trkpt lat="42.86621" lon="0.39999">
        <ele>868</ele>
        <time>2019-08-08T06:47:42.000Z</time>
      </trkpt>
      <trkpt lat="42.86617" lon="0.40004">
        <ele>868</ele>
        <time>2019-08-08T06:47:43.000Z</time>
      </trkpt>
      <trkpt lat="42.86617" lon="0.40004">
        <ele>868</ele>
        <time>2019-08-08T06:47:44.000Z</time>
      </trkpt>
      <trkpt lat="42.86608" lon="0.40016">
        <ele>868</ele>
        <time>2019-08-08T06:47:45.000Z</time>
      </trkpt>
      <trkpt lat="42.86606" lon="0.40019">
        <ele>868</ele>
        <time>2019-08-08T06:47:46.000Z</time>
      </trkpt>
      <trkpt lat="42.86602" lon="0.40024">
        <ele>869</ele>
        <time>2019-08-08T06:47:47.000Z</time>
      </trkpt>
      <trkpt lat="42.86602" lon="0.40024">
        <ele>869</ele>
        <time>2019-08-08T06:47:48.000Z</time>
      </trkpt>
      <trkpt lat="42.86594" lon="0.40037">
        <ele>869</ele>
        <time>2019-08-08T06:47:49.000Z</time>
      </trkpt>
      <trkpt lat="42.86592" lon="0.4004">
        <ele>869</ele>
        <time>2019-08-08T06:47:50.000Z</time>
      </trkpt>
      <trkpt lat="42.86586" lon="0.40048">
        <ele>869</ele>
        <time>2019-08-08T06:47:51.000Z</time>
      </trkpt>
      <trkpt lat="42.86584" lon="0.40051">
        <ele>869</ele>
        <time>2019-08-08T06:47:52.000Z</time>
      </trkpt>
      <trkpt lat="42.86578" lon="0.40059">
        <ele>869</ele>
        <time>2019-08-08T06:47:53.000Z</time>
      </trkpt>
      <trkpt lat="42.86577" lon="0.40062">
        <ele>869</ele>
        <time>2019-08-08T06:47:54.000Z</time>
      </trkpt>
      <trkpt lat="42.86571" lon="0.4007">
        <ele>869</ele>
        <time>2019-08-08T06:47:55.000Z</time>
      </trkpt>
      <trkpt lat="42.86569" lon="0.40072">
        <ele>869</ele>
        <time>2019-08-08T06:47:56.000Z</time>
      </trkpt>
      <trkpt lat="42.86564" lon="0.4008">
        <ele>870</ele>
        <time>2019-08-08T06:47:57.000Z</time>
      </trkpt>
      <trkpt lat="42.86562" lon="0.40083">
        <ele>870</ele>
        <time>2019-08-08T06:47:58.000Z</time>
      </trkpt>
      <trkpt lat="42.86556" lon="0.40091">
        <ele>870</ele>
        <time>2019-08-08T06:47:59.000Z</time>
      </trkpt>
      <trkpt lat="42.86554" lon="0.40093">
        <ele>870</ele>
        <time>2019-08-08T06:48:00.000Z</time>
      </trkpt>
      <trkpt lat="42.86548" lon="0.40101">
        <ele>869</ele>
        <time>2019-08-08T06:48:01.000Z</time>
      </trkpt>
      <trkpt lat="42.86546" lon="0.40103">
        <ele>869</ele>
        <time>2019-08-08T06:48:02.000Z</time>
      </trkpt>
      <trkpt lat="42.8654" lon="0.40109">
        <ele>869</ele>
        <time>2019-08-08T06:48:03.000Z</time>
      </trkpt>
      <trkpt lat="42.86538" lon="0.40111">
        <ele>869</ele>
        <time>2019-08-08T06:48:04.000Z</time>
      </trkpt>
      <trkpt lat="42.8653" lon="0.40116">
        <ele>870</ele>
        <time>2019-08-08T06:48:05.000Z</time>
      </trkpt>
      <trkpt lat="42.86528" lon="0.40118">
        <ele>870</ele>
        <time>2019-08-08T06:48:06.000Z</time>
      </trkpt>
      <trkpt lat="42.8652" lon="0.40121">
        <ele>870</ele>
        <time>2019-08-08T06:48:07.000Z</time>
      </trkpt>
      <trkpt lat="42.86517" lon="0.40122">
        <ele>870</ele>
        <time>2019-08-08T06:48:08.000Z</time>
      </trkpt>
      <trkpt lat="42.86509" lon="0.40124">
        <ele>870</ele>
        <time>2019-08-08T06:48:09.000Z</time>
      </trkpt>
      <trkpt lat="42.86506" lon="0.40124">
        <ele>870</ele>
        <time>2019-08-08T06:48:10.000Z</time>
      </trkpt>
      <trkpt lat="42.86498" lon="0.40124">
        <ele>870</ele>
        <time>2019-08-08T06:48:11.000Z</time>
      </trkpt>
      <trkpt lat="42.86495" lon="0.40124">
        <ele>870</ele>
        <time>2019-08-08T06:48:12.000Z</time>
      </trkpt>
      <trkpt lat="42.86487" lon="0.40123">
        <ele>870</ele>
        <time>2019-08-08T06:48:13.000Z</time>
      </trkpt>
      <trkpt lat="42.86484" lon="0.40123">
        <ele>870</ele>
        <time>2019-08-08T06:48:14.000Z</time>
      </trkpt>
      <trkpt lat="42.86476" lon="0.40122">
        <ele>870</ele>
        <time>2019-08-08T06:48:15.000Z</time>
      </trkpt>
      <trkpt lat="42.86473" lon="0.40122">
        <ele>871</ele>
        <time>2019-08-08T06:48:16.000Z</time>
      </trkpt>
      <trkpt lat="42.86465" lon="0.40121">
        <ele>871</ele>
        <time>2019-08-08T06:48:17.000Z</time>
      </trkpt>
      <trkpt lat="42.86462" lon="0.40121">
        <ele>871</ele>
        <time>2019-08-08T06:48:18.000Z</time>
      </trkpt>
      <trkpt lat="42.86453" lon="0.40121">
        <ele>871</ele>
        <time>2019-08-08T06:48:19.000Z</time>
      </trkpt>
      <trkpt lat="42.8645" lon="0.40121">
        <ele>871</ele>
        <time>2019-08-08T06:48:20.000Z</time>
      </trkpt>
      <trkpt lat="42.86442" lon="0.40121">
        <ele>871</ele>
        <time>2019-08-08T06:48:21.000Z</time>
      </trkpt>
      <trkpt lat="42.86439" lon="0.40121">
        <ele>871</ele>
        <time>2019-08-08T06:48:22.000Z</time>
      </trkpt>
      <trkpt lat="42.86431" lon="0.40122">
        <ele>871</ele>
        <time>2019-08-08T06:48:23.000Z</time>
      </trkpt>
      <trkpt lat="42.86428" lon="0.40122">
        <ele>871</ele>
        <time>2019-08-08T06:48:24.000Z</time>
      </trkpt>
      <trkpt lat="42.8642" lon="0.40123">
        <ele>871</ele>
        <time>2019-08-08T06:48:25.000Z</time>
      </trkpt>
      <trkpt lat="42.86417" lon="0.40124">
        <ele>871</ele>
        <time>2019-08-08T06:48:26.000Z</time>
      </trkpt>
      <trkpt lat="42.86409" lon="0.40125">
        <ele>871</ele>
        <time>2019-08-08T06:48:27.000Z</time>
      </trkpt>
      <trkpt lat="42.86406" lon="0.40125">
        <ele>871</ele>
        <time>2019-08-08T06:48:28.000Z</time>
      </trkpt>
      <trkpt lat="42.86398" lon="0.40126">
        <ele>871</ele>
        <time>2019-08-08T06:48:29.000Z</time>
      </trkpt>
      <trkpt lat="42.86395" lon="0.40126">
        <ele>871</ele>
        <time>2019-08-08T06:48:30.000Z</time>
      </trkpt>
      <trkpt lat="42.86386" lon="0.40127">
        <ele>871</ele>
        <time>2019-08-08T06:48:31.000Z</time>
      </trkpt>
      <trkpt lat="42.86384" lon="0.40128">
        <ele>871</ele>
        <time>2019-08-08T06:48:32.000Z</time>
      </trkpt>
      <trkpt lat="42.86375" lon="0.40128">
        <ele>872</ele>
        <time>2019-08-08T06:48:33.000Z</time>
      </trkpt>
      <trkpt lat="42.86372" lon="0.40128">
        <ele>872</ele>
        <time>2019-08-08T06:48:34.000Z</time>
      </trkpt>
      <trkpt lat="42.86364" lon="0.40128">
        <ele>872</ele>
        <time>2019-08-08T06:48:35.000Z</time>
      </trkpt>
      <trkpt lat="42.86361" lon="0.40128">
        <ele>872</ele>
        <time>2019-08-08T06:48:36.000Z</time>
      </trkpt>
      <trkpt lat="42.86353" lon="0.40127">
        <ele>872</ele>
        <time>2019-08-08T06:48:37.000Z</time>
      </trkpt>
      <trkpt lat="42.8635" lon="0.40127">
        <ele>872</ele>
        <time>2019-08-08T06:48:38.000Z</time>
      </trkpt>
      <trkpt lat="42.86342" lon="0.40125">
        <ele>872</ele>
        <time>2019-08-08T06:48:39.000Z</time>
      </trkpt>
      <trkpt lat="42.86339" lon="0.40125">
        <ele>872</ele>
        <time>2019-08-08T06:48:40.000Z</time>
      </trkpt>
      <trkpt lat="42.86331" lon="0.40123">
        <ele>873</ele>
        <time>2019-08-08T06:48:41.000Z</time>
      </trkpt>
      <trkpt lat="42.86329" lon="0.40122">
        <ele>873</ele>
        <time>2019-08-08T06:48:42.000Z</time>
      </trkpt>
      <trkpt lat="42.8632" lon="0.4012">
        <ele>873</ele>
        <time>2019-08-08T06:48:43.000Z</time>
      </trkpt>
      <trkpt lat="42.86318" lon="0.4012">
        <ele>873</ele>
        <time>2019-08-08T06:48:44.000Z</time>
      </trkpt>
      <trkpt lat="42.8631" lon="0.40117">
        <ele>873</ele>
        <time>2019-08-08T06:48:45.000Z</time>
      </trkpt>
      <trkpt lat="42.86307" lon="0.40117">
        <ele>873</ele>
        <time>2019-08-08T06:48:46.000Z</time>
      </trkpt>
      <trkpt lat="42.86299" lon="0.40115">
        <ele>873</ele>
        <time>2019-08-08T06:48:47.000Z</time>
      </trkpt>
      <trkpt lat="42.86296" lon="0.40115">
        <ele>873</ele>
        <time>2019-08-08T06:48:48.000Z</time>
      </trkpt>
      <trkpt lat="42.86288" lon="0.40114">
        <ele>873</ele>
        <time>2019-08-08T06:48:49.000Z</time>
      </trkpt>
      <trkpt lat="42.86285" lon="0.40114">
        <ele>873</ele>
        <time>2019-08-08T06:48:50.000Z</time>
      </trkpt>
      <trkpt lat="42.86277" lon="0.40113">
        <ele>873</ele>
        <time>2019-08-08T06:48:51.000Z</time>
      </trkpt>
      <trkpt lat="42.86274" lon="0.40113">
        <ele>873</ele>
        <time>2019-08-08T06:48:52.000Z</time>
      </trkpt>
      <trkpt lat="42.86266" lon="0.40113">
        <ele>873</ele>
        <time>2019-08-08T06:48:53.000Z</time>
      </trkpt>
      <trkpt lat="42.86263" lon="0.40114">
        <ele>873</ele>
        <time>2019-08-08T06:48:54.000Z</time>
      </trkpt>
      <trkpt lat="42.86255" lon="0.40114">
        <ele>874</ele>
        <time>2019-08-08T06:48:55.000Z</time>
      </trkpt>
      <trkpt lat="42.86252" lon="0.40114">
        <ele>874</ele>
        <time>2019-08-08T06:48:56.000Z</time>
      </trkpt>
      <trkpt lat="42.86244" lon="0.40114">
        <ele>874</ele>
        <time>2019-08-08T06:48:57.000Z</time>
      </trkpt>
      <trkpt lat="42.86242" lon="0.40114">
        <ele>874</ele>
        <time>2019-08-08T06:48:58.000Z</time>
      </trkpt>
      <trkpt lat="42.86237" lon="0.40115">
        <ele>874</ele>
        <time>2019-08-08T06:48:59.000Z</time>
      </trkpt>
      <trkpt lat="42.86237" lon="0.40115">
        <ele>874</ele>
        <time>2019-08-08T06:49:00.000Z</time>
      </trkpt>
      <trkpt lat="42.86224" lon="0.40118">
        <ele>874</ele>
        <time>2019-08-08T06:49:01.000Z</time>
      </trkpt>
      <trkpt lat="42.86221" lon="0.40119">
        <ele>874</ele>
        <time>2019-08-08T06:49:02.000Z</time>
      </trkpt>
      <trkpt lat="42.86213" lon="0.4012">
        <ele>874</ele>
        <time>2019-08-08T06:49:03.000Z</time>
      </trkpt>
      <trkpt lat="42.86211" lon="0.40121">
        <ele>874</ele>
        <time>2019-08-08T06:49:04.000Z</time>
      </trkpt>
      <trkpt lat="42.86205" lon="0.40123">
        <ele>874</ele>
        <time>2019-08-08T06:49:05.000Z</time>
      </trkpt>
      <trkpt lat="42.86205" lon="0.40123">
        <ele>874</ele>
        <time>2019-08-08T06:49:06.000Z</time>
      </trkpt>
      <trkpt lat="42.86194" lon="0.40129">
        <ele>875</ele>
        <time>2019-08-08T06:49:07.000Z</time>
      </trkpt>
      <trkpt lat="42.86191" lon="0.40131">
        <ele>875</ele>
        <time>2019-08-08T06:49:08.000Z</time>
      </trkpt>
      <trkpt lat="42.86184" lon="0.40136">
        <ele>876</ele>
        <time>2019-08-08T06:49:09.000Z</time>
      </trkpt>
      <trkpt lat="42.86181" lon="0.40138">
        <ele>876</ele>
        <time>2019-08-08T06:49:10.000Z</time>
      </trkpt>
      <trkpt lat="42.86174" lon="0.40144">
        <ele>876</ele>
        <time>2019-08-08T06:49:11.000Z</time>
      </trkpt>
      <trkpt lat="42.86172" lon="0.40147">
        <ele>876</ele>
        <time>2019-08-08T06:49:12.000Z</time>
      </trkpt>
      <trkpt lat="42.86165" lon="0.40154">
        <ele>876</ele>
        <time>2019-08-08T06:49:13.000Z</time>
      </trkpt>
      <trkpt lat="42.86163" lon="0.40157">
        <ele>876</ele>
        <time>2019-08-08T06:49:14.000Z</time>
      </trkpt>
      <trkpt lat="42.86158" lon="0.40165">
        <ele>876</ele>
        <time>2019-08-08T06:49:15.000Z</time>
      </trkpt>
      <trkpt lat="42.86156" lon="0.40167">
        <ele>876</ele>
        <time>2019-08-08T06:49:16.000Z</time>
      </trkpt>
      <trkpt lat="42.8615" lon="0.40176">
        <ele>876</ele>
        <time>2019-08-08T06:49:17.000Z</time>
      </trkpt>
      <trkpt lat="42.86149" lon="0.40178">
        <ele>876</ele>
        <time>2019-08-08T06:49:18.000Z</time>
      </trkpt>
      <trkpt lat="42.86144" lon="0.40187">
        <ele>876</ele>
        <time>2019-08-08T06:49:19.000Z</time>
      </trkpt>
      <trkpt lat="42.86142" lon="0.4019">
        <ele>876</ele>
        <time>2019-08-08T06:49:20.000Z</time>
      </trkpt>
      <trkpt lat="42.86138" lon="0.40196">
        <ele>876</ele>
        <time>2019-08-08T06:49:21.000Z</time>
      </trkpt>
      <trkpt lat="42.86138" lon="0.40196">
        <ele>876</ele>
        <time>2019-08-08T06:49:22.000Z</time>
      </trkpt>
      <trkpt lat="42.86133" lon="0.40206">
        <ele>876</ele>
        <time>2019-08-08T06:49:23.000Z</time>
      </trkpt>
      <trkpt lat="42.86133" lon="0.40206">
        <ele>877</ele>
        <time>2019-08-08T06:49:24.000Z</time>
      </trkpt>
      <trkpt lat="42.86127" lon="0.4022">
        <ele>877</ele>
        <time>2019-08-08T06:49:25.000Z</time>
      </trkpt>
      <trkpt lat="42.86125" lon="0.40223">
        <ele>877</ele>
        <time>2019-08-08T06:49:26.000Z</time>
      </trkpt>
      <trkpt lat="42.86121" lon="0.40232">
        <ele>877</ele>
        <time>2019-08-08T06:49:27.000Z</time>
      </trkpt>
      <trkpt lat="42.86119" lon="0.40235">
        <ele>877</ele>
        <time>2019-08-08T06:49:28.000Z</time>
      </trkpt>
      <trkpt lat="42.86116" lon="0.40241">
        <ele>877</ele>
        <time>2019-08-08T06:49:29.000Z</time>
      </trkpt>
      <trkpt lat="42.86116" lon="0.40241">
        <ele>877</ele>
        <time>2019-08-08T06:49:30.000Z</time>
      </trkpt>
      <trkpt lat="42.86109" lon="0.40256">
        <ele>877</ele>
        <time>2019-08-08T06:49:31.000Z</time>
      </trkpt>
      <trkpt lat="42.86108" lon="0.40259">
        <ele>877</ele>
        <time>2019-08-08T06:49:32.000Z</time>
      </trkpt>
      <trkpt lat="42.86102" lon="0.40266">
        <ele>877</ele>
        <time>2019-08-08T06:49:33.000Z</time>
      </trkpt>
      <trkpt lat="42.861" lon="0.40268">
        <ele>878</ele>
        <time>2019-08-08T06:49:34.000Z</time>
      </trkpt>
      <trkpt lat="42.86091" lon="0.40273">
        <ele>878</ele>
        <time>2019-08-08T06:49:35.000Z</time>
      </trkpt>
      <trkpt lat="42.86088" lon="0.40274">
        <ele>878</ele>
        <time>2019-08-08T06:49:36.000Z</time>
      </trkpt>
      <trkpt lat="42.86078" lon="0.40276">
        <ele>878</ele>
        <time>2019-08-08T06:49:37.000Z</time>
      </trkpt>
      <trkpt lat="42.86075" lon="0.40276">
        <ele>878</ele>
        <time>2019-08-08T06:49:38.000Z</time>
      </trkpt>
      <trkpt lat="42.86065" lon="0.40278">
        <ele>878</ele>
        <time>2019-08-08T06:49:39.000Z</time>
      </trkpt>
      <trkpt lat="42.86062" lon="0.40279">
        <ele>879</ele>
        <time>2019-08-08T06:49:40.000Z</time>
      </trkpt>
      <trkpt lat="42.86053" lon="0.40281">
        <ele>879</ele>
        <time>2019-08-08T06:49:41.000Z</time>
      </trkpt>
      <trkpt lat="42.8605" lon="0.40281">
        <ele>879</ele>
        <time>2019-08-08T06:49:42.000Z</time>
      </trkpt>
      <trkpt lat="42.86041" lon="0.40282">
        <ele>879</ele>
        <time>2019-08-08T06:49:43.000Z</time>
      </trkpt>
      <trkpt lat="42.86038" lon="0.40282">
        <ele>879</ele>
        <time>2019-08-08T06:49:44.000Z</time>
      </trkpt>
      <trkpt lat="42.86029" lon="0.40284">
        <ele>879</ele>
        <time>2019-08-08T06:49:45.000Z</time>
      </trkpt>
      <trkpt lat="42.86026" lon="0.40284">
        <ele>880</ele>
        <time>2019-08-08T06:49:46.000Z</time>
      </trkpt>
      <trkpt lat="42.86017" lon="0.40286">
        <ele>880</ele>
        <time>2019-08-08T06:49:47.000Z</time>
      </trkpt>
      <trkpt lat="42.86015" lon="0.40286">
        <ele>880</ele>
        <time>2019-08-08T06:49:48.000Z</time>
      </trkpt>
      <trkpt lat="42.86009" lon="0.40288">
        <ele>880</ele>
        <time>2019-08-08T06:49:49.000Z</time>
      </trkpt>
      <trkpt lat="42.86009" lon="0.40288">
        <ele>881</ele>
        <time>2019-08-08T06:49:50.000Z</time>
      </trkpt>
      <trkpt lat="42.85997" lon="0.40293">
        <ele>881</ele>
        <time>2019-08-08T06:49:51.000Z</time>
      </trkpt>
      <trkpt lat="42.85994" lon="0.40294">
        <ele>881</ele>
        <time>2019-08-08T06:49:52.000Z</time>
      </trkpt>
      <trkpt lat="42.85987" lon="0.40298">
        <ele>881</ele>
        <time>2019-08-08T06:49:53.000Z</time>
      </trkpt>
      <trkpt lat="42.85984" lon="0.403">
        <ele>881</ele>
        <time>2019-08-08T06:49:54.000Z</time>
      </trkpt>
      <trkpt lat="42.85977" lon="0.40306">
        <ele>881</ele>
        <time>2019-08-08T06:49:55.000Z</time>
      </trkpt>
      <trkpt lat="42.85975" lon="0.40308">
        <ele>881</ele>
        <time>2019-08-08T06:49:56.000Z</time>
      </trkpt>
      <trkpt lat="42.85969" lon="0.40315">
        <ele>881</ele>
        <time>2019-08-08T06:49:57.000Z</time>
      </trkpt>
      <trkpt lat="42.85967" lon="0.40318">
        <ele>882</ele>
        <time>2019-08-08T06:49:58.000Z</time>
      </trkpt>
      <trkpt lat="42.85961" lon="0.40326">
        <ele>882</ele>
        <time>2019-08-08T06:49:59.000Z</time>
      </trkpt>
      <trkpt lat="42.85959" lon="0.40329">
        <ele>882</ele>
        <time>2019-08-08T06:50:00.000Z</time>
      </trkpt>
      <trkpt lat="42.85953" lon="0.40337">
        <ele>882</ele>
        <time>2019-08-08T06:50:01.000Z</time>
      </trkpt>
      <trkpt lat="42.85952" lon="0.4034">
        <ele>882</ele>
        <time>2019-08-08T06:50:02.000Z</time>
      </trkpt>
      <trkpt lat="42.85948" lon="0.40345">
        <ele>882</ele>
        <time>2019-08-08T06:50:03.000Z</time>
      </trkpt>
      <trkpt lat="42.85939" lon="0.40355">
        <ele>882</ele>
        <time>2019-08-08T06:50:05.000Z</time>
      </trkpt>
      <trkpt lat="42.85939" lon="0.40355">
        <ele>882</ele>
        <time>2019-08-08T06:50:06.000Z</time>
      </trkpt>
      <trkpt lat="42.85927" lon="0.40366">
        <ele>883</ele>
        <time>2019-08-08T06:50:07.000Z</time>
      </trkpt>
      <trkpt lat="42.85924" lon="0.40368">
        <ele>883</ele>
        <time>2019-08-08T06:50:08.000Z</time>
      </trkpt>
      <trkpt lat="42.85917" lon="0.40373">
        <ele>883</ele>
        <time>2019-08-08T06:50:09.000Z</time>
      </trkpt>
      <trkpt lat="42.85914" lon="0.40374">
        <ele>883</ele>
        <time>2019-08-08T06:50:10.000Z</time>
      </trkpt>
      <trkpt lat="42.85906" lon="0.40378">
        <ele>884</ele>
        <time>2019-08-08T06:50:11.000Z</time>
      </trkpt>
      <trkpt lat="42.85904" lon="0.40379">
        <ele>884</ele>
        <time>2019-08-08T06:50:12.000Z</time>
      </trkpt>
      <trkpt lat="42.85896" lon="0.40383">
        <ele>884</ele>
        <time>2019-08-08T06:50:13.000Z</time>
      </trkpt>
      <trkpt lat="42.85893" lon="0.40384">
        <ele>884</ele>
        <time>2019-08-08T06:50:14.000Z</time>
      </trkpt>
      <trkpt lat="42.85886" lon="0.40387">
        <ele>885</ele>
        <time>2019-08-08T06:50:15.000Z</time>
      </trkpt>
      <trkpt lat="42.85883" lon="0.40388">
        <ele>885</ele>
        <time>2019-08-08T06:50:16.000Z</time>
      </trkpt>
      <trkpt lat="42.85875" lon="0.40392">
        <ele>885</ele>
        <time>2019-08-08T06:50:17.000Z</time>
      </trkpt>
      <trkpt lat="42.85873" lon="0.40393">
        <ele>885</ele>
        <time>2019-08-08T06:50:18.000Z</time>
      </trkpt>
      <trkpt lat="42.85865" lon="0.40396">
        <ele>885</ele>
        <time>2019-08-08T06:50:19.000Z</time>
      </trkpt>
      <trkpt lat="42.85862" lon="0.40397">
        <ele>885</ele>
        <time>2019-08-08T06:50:20.000Z</time>
      </trkpt>
      <trkpt lat="42.85854" lon="0.404">
        <ele>885</ele>
        <time>2019-08-08T06:50:21.000Z</time>
      </trkpt>
      <trkpt lat="42.85851" lon="0.40401">
        <ele>885</ele>
        <time>2019-08-08T06:50:22.000Z</time>
      </trkpt>
      <trkpt lat="42.85843" lon="0.40403">
        <ele>885</ele>
        <time>2019-08-08T06:50:23.000Z</time>
      </trkpt>
      <trkpt lat="42.85841" lon="0.40403">
        <ele>885</ele>
        <time>2019-08-08T06:50:24.000Z</time>
      </trkpt>
      <trkpt lat="42.85835" lon="0.40404">
        <ele>885</ele>
        <time>2019-08-08T06:50:25.000Z</time>
      </trkpt>
      <trkpt lat="42.85835" lon="0.40404">
        <ele>885</ele>
        <time>2019-08-08T06:50:26.000Z</time>
      </trkpt>
      <trkpt lat="42.85825" lon="0.40405">
        <ele>885</ele>
        <time>2019-08-08T06:50:27.000Z</time>
      </trkpt>
      <trkpt lat="42.85825" lon="0.40405">
        <ele>886</ele>
        <time>2019-08-08T06:50:28.000Z</time>
      </trkpt>
      <trkpt lat="42.85812" lon="0.40407">
        <ele>886</ele>
        <time>2019-08-08T06:50:29.000Z</time>
      </trkpt>
      <trkpt lat="42.85809" lon="0.40407">
        <ele>886</ele>
        <time>2019-08-08T06:50:30.000Z</time>
      </trkpt>
      <trkpt lat="42.85804" lon="0.40408">
        <ele>886</ele>
        <time>2019-08-08T06:50:31.000Z</time>
      </trkpt>
      <trkpt lat="42.85804" lon="0.40408">
        <ele>886</ele>
        <time>2019-08-08T06:50:32.000Z</time>
      </trkpt>
      <trkpt lat="42.85791" lon="0.40411">
        <ele>886</ele>
        <time>2019-08-08T06:50:33.000Z</time>
      </trkpt>
      <trkpt lat="42.85788" lon="0.40412">
        <ele>886</ele>
        <time>2019-08-08T06:50:34.000Z</time>
      </trkpt>
      <trkpt lat="42.8578" lon="0.40414">
        <ele>886</ele>
        <time>2019-08-08T06:50:35.000Z</time>
      </trkpt>
      <trkpt lat="42.85777" lon="0.40415">
        <ele>886</ele>
        <time>2019-08-08T06:50:36.000Z</time>
      </trkpt>
      <trkpt lat="42.85769" lon="0.40418">
        <ele>886</ele>
        <time>2019-08-08T06:50:37.000Z</time>
      </trkpt>
      <trkpt lat="42.85767" lon="0.40419">
        <ele>887</ele>
        <time>2019-08-08T06:50:38.000Z</time>
      </trkpt>
      <trkpt lat="42.85759" lon="0.40422">
        <ele>887</ele>
        <time>2019-08-08T06:50:39.000Z</time>
      </trkpt>
      <trkpt lat="42.85756" lon="0.40423">
        <ele>887</ele>
        <time>2019-08-08T06:50:40.000Z</time>
      </trkpt>
      <trkpt lat="42.8575" lon="0.40425">
        <ele>887</ele>
        <time>2019-08-08T06:50:41.000Z</time>
      </trkpt>
      <trkpt lat="42.8575" lon="0.40425">
        <ele>888</ele>
        <time>2019-08-08T06:50:42.000Z</time>
      </trkpt>
      <trkpt lat="42.85741" lon="0.40429">
        <ele>888</ele>
        <time>2019-08-08T06:50:43.000Z</time>
      </trkpt>
      <trkpt lat="42.85741" lon="0.40429">
        <ele>888</ele>
        <time>2019-08-08T06:50:44.000Z</time>
      </trkpt>
      <trkpt lat="42.85728" lon="0.40433">
        <ele>888</ele>
        <time>2019-08-08T06:50:45.000Z</time>
      </trkpt>
      <trkpt lat="42.85725" lon="0.40433">
        <ele>888</ele>
        <time>2019-08-08T06:50:46.000Z</time>
      </trkpt>
      <trkpt lat="42.8572" lon="0.40434">
        <ele>889</ele>
        <time>2019-08-08T06:50:47.000Z</time>
      </trkpt>
      <trkpt lat="42.8572" lon="0.40434">
        <ele>889</ele>
        <time>2019-08-08T06:50:48.000Z</time>
      </trkpt>
      <trkpt lat="42.85708" lon="0.40437">
        <ele>889</ele>
        <time>2019-08-08T06:50:49.000Z</time>
      </trkpt>
      <trkpt lat="42.85705" lon="0.40437">
        <ele>889</ele>
        <time>2019-08-08T06:50:50.000Z</time>
      </trkpt>
      <trkpt lat="42.85697" lon="0.40438">
        <ele>889</ele>
        <time>2019-08-08T06:50:51.000Z</time>
      </trkpt>
      <trkpt lat="42.85694" lon="0.40439">
        <ele>889</ele>
        <time>2019-08-08T06:50:52.000Z</time>
      </trkpt>
      <trkpt lat="42.85685" lon="0.4044">
        <ele>889</ele>
        <time>2019-08-08T06:50:53.000Z</time>
      </trkpt>
      <trkpt lat="42.85683" lon="0.4044">
        <ele>889</ele>
        <time>2019-08-08T06:50:54.000Z</time>
      </trkpt>
      <trkpt lat="42.85677" lon="0.40441">
        <ele>889</ele>
        <time>2019-08-08T06:50:55.000Z</time>
      </trkpt>
      <trkpt lat="42.85677" lon="0.40441">
        <ele>889</ele>
        <time>2019-08-08T06:50:56.000Z</time>
      </trkpt>
      <trkpt lat="42.85664" lon="0.40442">
        <ele>890</ele>
        <time>2019-08-08T06:50:57.000Z</time>
      </trkpt>
      <trkpt lat="42.85662" lon="0.40442">
        <ele>890</ele>
        <time>2019-08-08T06:50:58.000Z</time>
      </trkpt>
      <trkpt lat="42.85656" lon="0.40442">
        <ele>890</ele>
        <time>2019-08-08T06:50:59.000Z</time>
      </trkpt>
      <trkpt lat="42.85649" lon="0.40443">
        <ele>890</ele>
        <time>2019-08-08T06:51:00.000Z</time>
      </trkpt>
      <trkpt lat="42.85646" lon="0.40443">
        <ele>890</ele>
        <time>2019-08-08T06:51:01.000Z</time>
      </trkpt>
      <trkpt lat="42.85638" lon="0.40443">
        <ele>890</ele>
        <time>2019-08-08T06:51:02.000Z</time>
      </trkpt>
      <trkpt lat="42.85635" lon="0.40443">
        <ele>890</ele>
        <time>2019-08-08T06:51:03.000Z</time>
      </trkpt>
      <trkpt lat="42.85627" lon="0.40444">
        <ele>890</ele>
        <time>2019-08-08T06:51:04.000Z</time>
      </trkpt>
      <trkpt lat="42.85625" lon="0.40444">
        <ele>890</ele>
        <time>2019-08-08T06:51:05.000Z</time>
      </trkpt>
      <trkpt lat="42.85616" lon="0.40446">
        <ele>890</ele>
        <time>2019-08-08T06:51:06.000Z</time>
      </trkpt>
      <trkpt lat="42.85613" lon="0.40446">
        <ele>890</ele>
        <time>2019-08-08T06:51:07.000Z</time>
      </trkpt>
      <trkpt lat="42.85604" lon="0.40448">
        <ele>890</ele>
        <time>2019-08-08T06:51:08.000Z</time>
      </trkpt>
      <trkpt lat="42.85602" lon="0.40449">
        <ele>890</ele>
        <time>2019-08-08T06:51:09.000Z</time>
      </trkpt>
      <trkpt lat="42.85593" lon="0.40451">
        <ele>890</ele>
        <time>2019-08-08T06:51:10.000Z</time>
      </trkpt>
      <trkpt lat="42.8559" lon="0.40452">
        <ele>890</ele>
        <time>2019-08-08T06:51:11.000Z</time>
      </trkpt>
      <trkpt lat="42.85584" lon="0.40454">
        <ele>891</ele>
        <time>2019-08-08T06:51:12.000Z</time>
      </trkpt>
      <trkpt lat="42.85576" lon="0.40458">
        <ele>891</ele>
        <time>2019-08-08T06:51:13.000Z</time>
      </trkpt>
      <trkpt lat="42.85574" lon="0.40459">
        <ele>891</ele>
        <time>2019-08-08T06:51:14.000Z</time>
      </trkpt>
      <trkpt lat="42.85569" lon="0.40461">
        <ele>891</ele>
        <time>2019-08-08T06:51:15.000Z</time>
      </trkpt>
      <trkpt lat="42.85569" lon="0.40461">
        <ele>891</ele>
        <time>2019-08-08T06:51:16.000Z</time>
      </trkpt>
      <trkpt lat="42.85559" lon="0.40466">
        <ele>891</ele>
        <time>2019-08-08T06:51:17.000Z</time>
      </trkpt>
      <trkpt lat="42.85559" lon="0.40466">
        <ele>892</ele>
        <time>2019-08-08T06:51:18.000Z</time>
      </trkpt>
      <trkpt lat="42.8555" lon="0.40471">
        <ele>892</ele>
        <time>2019-08-08T06:51:19.000Z</time>
      </trkpt>
      <trkpt lat="42.8555" lon="0.40471">
        <ele>892</ele>
        <time>2019-08-08T06:51:20.000Z</time>
      </trkpt>
      <trkpt lat="42.85541" lon="0.40475">
        <ele>892</ele>
        <time>2019-08-08T06:51:21.000Z</time>
      </trkpt>
      <trkpt lat="42.85541" lon="0.40475">
        <ele>892</ele>
        <time>2019-08-08T06:51:22.000Z</time>
      </trkpt>
      <trkpt lat="42.85529" lon="0.40482">
        <ele>893</ele>
        <time>2019-08-08T06:51:23.000Z</time>
      </trkpt>
      <trkpt lat="42.85526" lon="0.40483">
        <ele>893</ele>
        <time>2019-08-08T06:51:24.000Z</time>
      </trkpt>
      <trkpt lat="42.85521" lon="0.40485">
        <ele>893</ele>
        <time>2019-08-08T06:51:25.000Z</time>
      </trkpt>
      <trkpt lat="42.85521" lon="0.40485">
        <ele>893</ele>
        <time>2019-08-08T06:51:26.000Z</time>
      </trkpt>
      <trkpt lat="42.85512" lon="0.40492">
        <ele>894</ele>
        <time>2019-08-08T06:51:27.000Z</time>
      </trkpt>
      <trkpt lat="42.85512" lon="0.40492">
        <ele>894</ele>
        <time>2019-08-08T06:51:28.000Z</time>
      </trkpt>
      <trkpt lat="42.85504" lon="0.40497">
        <ele>894</ele>
        <time>2019-08-08T06:51:29.000Z</time>
      </trkpt>
      <trkpt lat="42.85504" lon="0.40497">
        <ele>894</ele>
        <time>2019-08-08T06:51:30.000Z</time>
      </trkpt>
      <trkpt lat="42.85495" lon="0.40502">
        <ele>895</ele>
        <time>2019-08-08T06:51:31.000Z</time>
      </trkpt>
      <trkpt lat="42.85495" lon="0.40502">
        <ele>895</ele>
        <time>2019-08-08T06:51:32.000Z</time>
      </trkpt>
      <trkpt lat="42.85485" lon="0.40509">
        <ele>895</ele>
        <time>2019-08-08T06:51:33.000Z</time>
      </trkpt>
      <trkpt lat="42.85483" lon="0.4051">
        <ele>895</ele>
        <time>2019-08-08T06:51:34.000Z</time>
      </trkpt>
      <trkpt lat="42.85481" lon="0.40511">
        <ele>896</ele>
        <time>2019-08-08T06:51:35.000Z</time>
      </trkpt>
      <trkpt lat="42.85473" lon="0.40515">
        <ele>896</ele>
        <time>2019-08-08T06:51:36.000Z</time>
      </trkpt>
      <trkpt lat="42.85472" lon="0.40516">
        <ele>896</ele>
        <time>2019-08-08T06:51:37.000Z</time>
      </trkpt>
      <trkpt lat="42.8547" lon="0.40517">
        <ele>896</ele>
        <time>2019-08-08T06:51:38.000Z</time>
      </trkpt>
      <trkpt lat="42.85465" lon="0.4052">
        <ele>897</ele>
        <time>2019-08-08T06:51:39.000Z</time>
      </trkpt>
      <trkpt lat="42.85465" lon="0.4052">
        <ele>898</ele>
        <time>2019-08-08T06:51:40.000Z</time>
      </trkpt>
      <trkpt lat="42.85465" lon="0.4052">
        <ele>898</ele>
        <time>2019-08-08T06:51:41.000Z</time>
      </trkpt>
      <trkpt lat="42.85465" lon="0.4052">
        <ele>898</ele>
        <time>2019-08-08T06:51:42.000Z</time>
      </trkpt>
      <trkpt lat="42.85458" lon="0.40529">
        <ele>898</ele>
        <time>2019-08-08T06:51:43.000Z</time>
      </trkpt>
      <trkpt lat="42.85458" lon="0.40529">
        <ele>898</ele>
        <time>2019-08-08T06:51:44.000Z</time>
      </trkpt>
      <trkpt lat="42.85458" lon="0.40529">
        <ele>898</ele>
        <time>2019-08-08T06:51:45.000Z</time>
      </trkpt>
      <trkpt lat="42.85458" lon="0.40529">
        <ele>898</ele>
        <time>2019-08-08T06:51:46.000Z</time>
      </trkpt>
      <trkpt lat="42.85449" lon="0.40542">
        <ele>898</ele>
        <time>2019-08-08T06:51:47.000Z</time>
      </trkpt>
      <trkpt lat="42.85448" lon="0.40544">
        <ele>899</ele>
        <time>2019-08-08T06:51:48.000Z</time>
      </trkpt>
      <trkpt lat="42.85447" lon="0.40546">
        <ele>899</ele>
        <time>2019-08-08T06:51:49.000Z</time>
      </trkpt>
      <trkpt lat="42.85441" lon="0.40554">
        <ele>900</ele>
        <time>2019-08-08T06:51:50.000Z</time>
      </trkpt>
      <trkpt lat="42.85439" lon="0.40556">
        <ele>900</ele>
        <time>2019-08-08T06:51:51.000Z</time>
      </trkpt>
      <trkpt lat="42.85435" lon="0.40561">
        <ele>900</ele>
        <time>2019-08-08T06:51:52.000Z</time>
      </trkpt>
      <trkpt lat="42.85435" lon="0.40561">
        <ele>900</ele>
        <time>2019-08-08T06:51:53.000Z</time>
      </trkpt>
      <trkpt lat="42.85428" lon="0.40573">
        <ele>900</ele>
        <time>2019-08-08T06:51:54.000Z</time>
      </trkpt>
      <trkpt lat="42.85426" lon="0.40576">
        <ele>900</ele>
        <time>2019-08-08T06:51:55.000Z</time>
      </trkpt>
      <trkpt lat="42.85422" lon="0.40581">
        <ele>900</ele>
        <time>2019-08-08T06:51:56.000Z</time>
      </trkpt>
      <trkpt lat="42.85422" lon="0.40581">
        <ele>900</ele>
        <time>2019-08-08T06:51:57.000Z</time>
      </trkpt>
      <trkpt lat="42.85414" lon="0.40593">
        <ele>900</ele>
        <time>2019-08-08T06:51:58.000Z</time>
      </trkpt>
      <trkpt lat="42.85413" lon="0.40595">
        <ele>901</ele>
        <time>2019-08-08T06:51:59.000Z</time>
      </trkpt>
      <trkpt lat="42.85412" lon="0.40598">
        <ele>901</ele>
        <time>2019-08-08T06:52:00.000Z</time>
      </trkpt>
      <trkpt lat="42.85408" lon="0.40607">
        <ele>902</ele>
        <time>2019-08-08T06:52:01.000Z</time>
      </trkpt>
      <trkpt lat="42.85407" lon="0.40609">
        <ele>902</ele>
        <time>2019-08-08T06:52:02.000Z</time>
      </trkpt>
      <trkpt lat="42.85406" lon="0.40612">
        <ele>903</ele>
        <time>2019-08-08T06:52:03.000Z</time>
      </trkpt>
      <trkpt lat="42.85402" lon="0.40621">
        <ele>903</ele>
        <time>2019-08-08T06:52:04.000Z</time>
      </trkpt>
      <trkpt lat="42.85401" lon="0.40624">
        <ele>903</ele>
        <time>2019-08-08T06:52:05.000Z</time>
      </trkpt>
      <trkpt lat="42.854" lon="0.40626">
        <ele>903</ele>
        <time>2019-08-08T06:52:06.000Z</time>
      </trkpt>
      <trkpt lat="42.85397" lon="0.40636">
        <ele>903</ele>
        <time>2019-08-08T06:52:07.000Z</time>
      </trkpt>
      <trkpt lat="42.85395" lon="0.40638">
        <ele>903</ele>
        <time>2019-08-08T06:52:08.000Z</time>
      </trkpt>
      <trkpt lat="42.85394" lon="0.4064">
        <ele>904</ele>
        <time>2019-08-08T06:52:09.000Z</time>
      </trkpt>
      <trkpt lat="42.85388" lon="0.40648">
        <ele>904</ele>
        <time>2019-08-08T06:52:10.000Z</time>
      </trkpt>
      <trkpt lat="42.85387" lon="0.4065">
        <ele>904</ele>
        <time>2019-08-08T06:52:11.000Z</time>
      </trkpt>
      <trkpt lat="42.85385" lon="0.40652">
        <ele>904</ele>
        <time>2019-08-08T06:52:12.000Z</time>
      </trkpt>
      <trkpt lat="42.85381" lon="0.40658">
        <ele>904</ele>
        <time>2019-08-08T06:52:13.000Z</time>
      </trkpt>
      <trkpt lat="42.85381" lon="0.40658">
        <ele>904</ele>
        <time>2019-08-08T06:52:14.000Z</time>
      </trkpt>
      <trkpt lat="42.85373" lon="0.40665">
        <ele>905</ele>
        <time>2019-08-08T06:52:15.000Z</time>
      </trkpt>
      <trkpt lat="42.85373" lon="0.40665">
        <ele>905</ele>
        <time>2019-08-08T06:52:16.000Z</time>
      </trkpt>
      <trkpt lat="42.85363" lon="0.40675">
        <ele>905</ele>
        <time>2019-08-08T06:52:18.000Z</time>
      </trkpt>
      <trkpt lat="42.8536" lon="0.40678">
        <ele>905</ele>
        <time>2019-08-08T06:52:19.000Z</time>
      </trkpt>
      <trkpt lat="42.85358" lon="0.4068">
        <ele>905</ele>
        <time>2019-08-08T06:52:20.000Z</time>
      </trkpt>
      <trkpt lat="42.8535" lon="0.40686">
        <ele>905</ele>
        <time>2019-08-08T06:52:21.000Z</time>
      </trkpt>
      <trkpt lat="42.85349" lon="0.40687">
        <ele>905</ele>
        <time>2019-08-08T06:52:22.000Z</time>
      </trkpt>
      <trkpt lat="42.85347" lon="0.40689">
        <ele>905</ele>
        <time>2019-08-08T06:52:23.000Z</time>
      </trkpt>
      <trkpt lat="42.85339" lon="0.40694">
        <ele>907</ele>
        <time>2019-08-08T06:52:24.000Z</time>
      </trkpt>
      <trkpt lat="42.85338" lon="0.40695">
        <ele>907</ele>
        <time>2019-08-08T06:52:25.000Z</time>
      </trkpt>
      <trkpt lat="42.85336" lon="0.40696">
        <ele>907</ele>
        <time>2019-08-08T06:52:26.000Z</time>
      </trkpt>
      <trkpt lat="42.85329" lon="0.40699">
        <ele>907</ele>
        <time>2019-08-08T06:52:27.000Z</time>
      </trkpt>
      <trkpt lat="42.85327" lon="0.407">
        <ele>907</ele>
        <time>2019-08-08T06:52:28.000Z</time>
      </trkpt>
      <trkpt lat="42.85325" lon="0.40701">
        <ele>907</ele>
        <time>2019-08-08T06:52:29.000Z</time>
      </trkpt>
      <trkpt lat="42.85319" lon="0.40703">
        <ele>907</ele>
        <time>2019-08-08T06:52:30.000Z</time>
      </trkpt>
      <trkpt lat="42.85319" lon="0.40703">
        <ele>907</ele>
        <time>2019-08-08T06:52:31.000Z</time>
      </trkpt>
      <trkpt lat="42.85307" lon="0.40707">
        <ele>908</ele>
        <time>2019-08-08T06:52:32.000Z</time>
      </trkpt>
      <trkpt lat="42.85305" lon="0.40708">
        <ele>908</ele>
        <time>2019-08-08T06:52:33.000Z</time>
      </trkpt>
      <trkpt lat="42.85303" lon="0.40709">
        <ele>908</ele>
        <time>2019-08-08T06:52:34.000Z</time>
      </trkpt>
      <trkpt lat="42.85297" lon="0.40712">
        <ele>909</ele>
        <time>2019-08-08T06:52:35.000Z</time>
      </trkpt>
      <trkpt lat="42.85297" lon="0.40712">
        <ele>909</ele>
        <time>2019-08-08T06:52:36.000Z</time>
      </trkpt>
      <trkpt lat="42.85284" lon="0.40714">
        <ele>909</ele>
        <time>2019-08-08T06:52:37.000Z</time>
      </trkpt>
      <trkpt lat="42.85281" lon="0.40714">
        <ele>909</ele>
        <time>2019-08-08T06:52:38.000Z</time>
      </trkpt>
      <trkpt lat="42.85272" lon="0.40714">
        <ele>908</ele>
        <time>2019-08-08T06:52:39.000Z</time>
      </trkpt>
      <trkpt lat="42.85268" lon="0.40714">
        <ele>908</ele>
        <time>2019-08-08T06:52:40.000Z</time>
      </trkpt>
      <trkpt lat="42.85259" lon="0.40713">
        <ele>907</ele>
        <time>2019-08-08T06:52:41.000Z</time>
      </trkpt>
      <trkpt lat="42.85256" lon="0.40712">
        <ele>907</ele>
        <time>2019-08-08T06:52:42.000Z</time>
      </trkpt>
      <trkpt lat="42.85246" lon="0.40711">
        <ele>907</ele>
        <time>2019-08-08T06:52:43.000Z</time>
      </trkpt>
      <trkpt lat="42.85243" lon="0.4071">
        <ele>907</ele>
        <time>2019-08-08T06:52:44.000Z</time>
      </trkpt>
      <trkpt lat="42.85233" lon="0.40709">
        <ele>907</ele>
        <time>2019-08-08T06:52:45.000Z</time>
      </trkpt>
      <trkpt lat="42.8523" lon="0.40709">
        <ele>907</ele>
        <time>2019-08-08T06:52:46.000Z</time>
      </trkpt>
      <trkpt lat="42.8522" lon="0.40708">
        <ele>907</ele>
        <time>2019-08-08T06:52:47.000Z</time>
      </trkpt>
      <trkpt lat="42.85217" lon="0.40708">
        <ele>907</ele>
        <time>2019-08-08T06:52:48.000Z</time>
      </trkpt>
      <trkpt lat="42.85207" lon="0.40709">
        <ele>906</ele>
        <time>2019-08-08T06:52:49.000Z</time>
      </trkpt>
      <trkpt lat="42.85204" lon="0.40709">
        <ele>906</ele>
        <time>2019-08-08T06:52:50.000Z</time>
      </trkpt>
      <trkpt lat="42.85194" lon="0.40711">
        <ele>906</ele>
        <time>2019-08-08T06:52:51.000Z</time>
      </trkpt>
      <trkpt lat="42.85191" lon="0.40711">
        <ele>907</ele>
        <time>2019-08-08T06:52:52.000Z</time>
      </trkpt>
      <trkpt lat="42.85181" lon="0.40714">
        <ele>907</ele>
        <time>2019-08-08T06:52:53.000Z</time>
      </trkpt>
      <trkpt lat="42.85178" lon="0.40715">
        <ele>907</ele>
        <time>2019-08-08T06:52:54.000Z</time>
      </trkpt>
      <trkpt lat="42.85168" lon="0.40717">
        <ele>907</ele>
        <time>2019-08-08T06:52:55.000Z</time>
      </trkpt>
      <trkpt lat="42.85165" lon="0.40718">
        <ele>907</ele>
        <time>2019-08-08T06:52:56.000Z</time>
      </trkpt>
      <trkpt lat="42.85155" lon="0.40721">
        <ele>906</ele>
        <time>2019-08-08T06:52:57.000Z</time>
      </trkpt>
      <trkpt lat="42.85152" lon="0.40722">
        <ele>906</ele>
        <time>2019-08-08T06:52:58.000Z</time>
      </trkpt>
      <trkpt lat="42.85142" lon="0.40725">
        <ele>905</ele>
        <time>2019-08-08T06:52:59.000Z</time>
      </trkpt>
      <trkpt lat="42.85138" lon="0.40726">
        <ele>905</ele>
        <time>2019-08-08T06:53:00.000Z</time>
      </trkpt>
      <trkpt lat="42.85128" lon="0.4073">
        <ele>905</ele>
        <time>2019-08-08T06:53:01.000Z</time>
      </trkpt>
      <trkpt lat="42.85125" lon="0.40731">
        <ele>905</ele>
        <time>2019-08-08T06:53:02.000Z</time>
      </trkpt>
      <trkpt lat="42.85116" lon="0.40736">
        <ele>905</ele>
        <time>2019-08-08T06:53:03.000Z</time>
      </trkpt>
      <trkpt lat="42.85113" lon="0.40737">
        <ele>905</ele>
        <time>2019-08-08T06:53:04.000Z</time>
      </trkpt>
      <trkpt lat="42.85105" lon="0.40743">
        <ele>905</ele>
        <time>2019-08-08T06:53:05.000Z</time>
      </trkpt>
      <trkpt lat="42.85102" lon="0.40745">
        <ele>905</ele>
        <time>2019-08-08T06:53:06.000Z</time>
      </trkpt>
      <trkpt lat="42.85094" lon="0.4075">
        <ele>904</ele>
        <time>2019-08-08T06:53:07.000Z</time>
      </trkpt>
      <trkpt lat="42.85091" lon="0.40752">
        <ele>904</ele>
        <time>2019-08-08T06:53:08.000Z</time>
      </trkpt>
      <trkpt lat="42.85083" lon="0.40758">
        <ele>904</ele>
        <time>2019-08-08T06:53:09.000Z</time>
      </trkpt>
      <trkpt lat="42.8508" lon="0.4076">
        <ele>904</ele>
        <time>2019-08-08T06:53:10.000Z</time>
      </trkpt>
      <trkpt lat="42.8507" lon="0.40765">
        <ele>904</ele>
        <time>2019-08-08T06:53:11.000Z</time>
      </trkpt>
      <trkpt lat="42.85067" lon="0.40767">
        <ele>904</ele>
        <time>2019-08-08T06:53:12.000Z</time>
      </trkpt>
      <trkpt lat="42.85057" lon="0.40771">
        <ele>904</ele>
        <time>2019-08-08T06:53:13.000Z</time>
      </trkpt>
      <trkpt lat="42.85054" lon="0.40772">
        <ele>904</ele>
        <time>2019-08-08T06:53:14.000Z</time>
      </trkpt>
      <trkpt lat="42.85043" lon="0.40776">
        <ele>904</ele>
        <time>2019-08-08T06:53:15.000Z</time>
      </trkpt>
      <trkpt lat="42.8504" lon="0.40777">
        <ele>904</ele>
        <time>2019-08-08T06:53:16.000Z</time>
      </trkpt>
      <trkpt lat="42.85029" lon="0.4078">
        <ele>904</ele>
        <time>2019-08-08T06:53:17.000Z</time>
      </trkpt>
      <trkpt lat="42.85026" lon="0.40781">
        <ele>904</ele>
        <time>2019-08-08T06:53:18.000Z</time>
      </trkpt>
      <trkpt lat="42.85016" lon="0.40783">
        <ele>904</ele>
        <time>2019-08-08T06:53:19.000Z</time>
      </trkpt>
      <trkpt lat="42.85013" lon="0.40784">
        <ele>903</ele>
        <time>2019-08-08T06:53:20.000Z</time>
      </trkpt>
      <trkpt lat="42.85004" lon="0.40787">
        <ele>903</ele>
        <time>2019-08-08T06:53:21.000Z</time>
      </trkpt>
      <trkpt lat="42.85002" lon="0.40788">
        <ele>903</ele>
        <time>2019-08-08T06:53:22.000Z</time>
      </trkpt>
      <trkpt lat="42.84994" lon="0.40793">
        <ele>903</ele>
        <time>2019-08-08T06:53:23.000Z</time>
      </trkpt>
      <trkpt lat="42.84992" lon="0.40796">
        <ele>903</ele>
        <time>2019-08-08T06:53:24.000Z</time>
      </trkpt>
      <trkpt lat="42.84984" lon="0.40805">
        <ele>903</ele>
        <time>2019-08-08T06:53:25.000Z</time>
      </trkpt>
      <trkpt lat="42.84981" lon="0.40809">
        <ele>903</ele>
        <time>2019-08-08T06:53:26.000Z</time>
      </trkpt>
      <trkpt lat="42.84973" lon="0.40818">
        <ele>903</ele>
        <time>2019-08-08T06:53:27.000Z</time>
      </trkpt>
      <trkpt lat="42.8497" lon="0.40821">
        <ele>903</ele>
        <time>2019-08-08T06:53:28.000Z</time>
      </trkpt>
      <trkpt lat="42.84961" lon="0.40829">
        <ele>903</ele>
        <time>2019-08-08T06:53:29.000Z</time>
      </trkpt>
      <trkpt lat="42.84957" lon="0.40832">
        <ele>903</ele>
        <time>2019-08-08T06:53:30.000Z</time>
      </trkpt>
      <trkpt lat="42.84948" lon="0.40837">
        <ele>903</ele>
        <time>2019-08-08T06:53:31.000Z</time>
      </trkpt>
      <trkpt lat="42.84944" lon="0.40838">
        <ele>903</ele>
        <time>2019-08-08T06:53:32.000Z</time>
      </trkpt>
      <trkpt lat="42.84934" lon="0.40841">
        <ele>903</ele>
        <time>2019-08-08T06:53:33.000Z</time>
      </trkpt>
      <trkpt lat="42.8493" lon="0.40841">
        <ele>903</ele>
        <time>2019-08-08T06:53:34.000Z</time>
      </trkpt>
      <trkpt lat="42.8492" lon="0.40841">
        <ele>903</ele>
        <time>2019-08-08T06:53:35.000Z</time>
      </trkpt>
      <trkpt lat="42.84917" lon="0.40842">
        <ele>903</ele>
        <time>2019-08-08T06:53:36.000Z</time>
      </trkpt>
      <trkpt lat="42.84907" lon="0.40842">
        <ele>903</ele>
        <time>2019-08-08T06:53:37.000Z</time>
      </trkpt>
      <trkpt lat="42.84903" lon="0.40842">
        <ele>903</ele>
        <time>2019-08-08T06:53:38.000Z</time>
      </trkpt>
      <trkpt lat="42.84894" lon="0.40842">
        <ele>903</ele>
        <time>2019-08-08T06:53:39.000Z</time>
      </trkpt>
      <trkpt lat="42.84891" lon="0.40843">
        <ele>903</ele>
        <time>2019-08-08T06:53:40.000Z</time>
      </trkpt>
      <trkpt lat="42.84883" lon="0.40845">
        <ele>904</ele>
        <time>2019-08-08T06:53:41.000Z</time>
      </trkpt>
      <trkpt lat="42.8488" lon="0.40846">
        <ele>904</ele>
        <time>2019-08-08T06:53:42.000Z</time>
      </trkpt>
      <trkpt lat="42.84872" lon="0.40849">
        <ele>904</ele>
        <time>2019-08-08T06:53:43.000Z</time>
      </trkpt>
      <trkpt lat="42.84869" lon="0.4085">
        <ele>904</ele>
        <time>2019-08-08T06:53:44.000Z</time>
      </trkpt>
      <trkpt lat="42.8486" lon="0.40853">
        <ele>904</ele>
        <time>2019-08-08T06:53:45.000Z</time>
      </trkpt>
      <trkpt lat="42.84857" lon="0.40854">
        <ele>904</ele>
        <time>2019-08-08T06:53:46.000Z</time>
      </trkpt>
      <trkpt lat="42.84848" lon="0.40857">
        <ele>904</ele>
        <time>2019-08-08T06:53:47.000Z</time>
      </trkpt>
      <trkpt lat="42.84845" lon="0.40858">
        <ele>904</ele>
        <time>2019-08-08T06:53:48.000Z</time>
      </trkpt>
      <trkpt lat="42.84837" lon="0.40862">
        <ele>904</ele>
        <time>2019-08-08T06:53:49.000Z</time>
      </trkpt>
      <trkpt lat="42.84834" lon="0.40863">
        <ele>904</ele>
        <time>2019-08-08T06:53:50.000Z</time>
      </trkpt>
      <trkpt lat="42.84825" lon="0.40867">
        <ele>904</ele>
        <time>2019-08-08T06:53:51.000Z</time>
      </trkpt>
      <trkpt lat="42.84823" lon="0.40869">
        <ele>904</ele>
        <time>2019-08-08T06:53:52.000Z</time>
      </trkpt>
      <trkpt lat="42.84818" lon="0.40872">
        <ele>905</ele>
        <time>2019-08-08T06:53:53.000Z</time>
      </trkpt>
      <trkpt lat="42.84818" lon="0.40872">
        <ele>905</ele>
        <time>2019-08-08T06:53:54.000Z</time>
      </trkpt>
      <trkpt lat="42.84809" lon="0.40878">
        <ele>905</ele>
        <time>2019-08-08T06:53:55.000Z</time>
      </trkpt>
      <trkpt lat="42.84809" lon="0.40878">
        <ele>905</ele>
        <time>2019-08-08T06:53:56.000Z</time>
      </trkpt>
      <trkpt lat="42.848" lon="0.40885">
        <ele>906</ele>
        <time>2019-08-08T06:53:57.000Z</time>
      </trkpt>
      <trkpt lat="42.848" lon="0.40885">
        <ele>906</ele>
        <time>2019-08-08T06:53:58.000Z</time>
      </trkpt>
      <trkpt lat="42.84791" lon="0.40891">
        <ele>907</ele>
        <time>2019-08-08T06:53:59.000Z</time>
      </trkpt>
      <trkpt lat="42.84791" lon="0.40891">
        <ele>907</ele>
        <time>2019-08-08T06:54:00.000Z</time>
      </trkpt>
      <trkpt lat="42.8478" lon="0.40898">
        <ele>907</ele>
        <time>2019-08-08T06:54:01.000Z</time>
      </trkpt>
      <trkpt lat="42.84778" lon="0.40899">
        <ele>907</ele>
        <time>2019-08-08T06:54:02.000Z</time>
      </trkpt>
      <trkpt lat="42.84776" lon="0.40901">
        <ele>907</ele>
        <time>2019-08-08T06:54:03.000Z</time>
      </trkpt>
      <trkpt lat="42.84768" lon="0.40906">
        <ele>907</ele>
        <time>2019-08-08T06:54:04.000Z</time>
      </trkpt>
      <trkpt lat="42.84766" lon="0.40907">
        <ele>908</ele>
        <time>2019-08-08T06:54:05.000Z</time>
      </trkpt>
      <trkpt lat="42.84764" lon="0.40909">
        <ele>908</ele>
        <time>2019-08-08T06:54:06.000Z</time>
      </trkpt>
      <trkpt lat="42.84758" lon="0.40912">
        <ele>909</ele>
        <time>2019-08-08T06:54:07.000Z</time>
      </trkpt>
      <trkpt lat="42.84758" lon="0.40912">
        <ele>909</ele>
        <time>2019-08-08T06:54:08.000Z</time>
      </trkpt>
      <trkpt lat="42.84747" lon="0.40919">
        <ele>909</ele>
        <time>2019-08-08T06:54:09.000Z</time>
      </trkpt>
      <trkpt lat="42.84744" lon="0.4092">
        <ele>909</ele>
        <time>2019-08-08T06:54:10.000Z</time>
      </trkpt>
      <trkpt lat="42.84738" lon="0.40924">
        <ele>910</ele>
        <time>2019-08-08T06:54:11.000Z</time>
      </trkpt>
      <trkpt lat="42.84736" lon="0.40925">
        <ele>910</ele>
        <time>2019-08-08T06:54:12.000Z</time>
      </trkpt>
      <trkpt lat="42.84734" lon="0.40926">
        <ele>910</ele>
        <time>2019-08-08T06:54:13.000Z</time>
      </trkpt>
      <trkpt lat="42.84726" lon="0.4093">
        <ele>910</ele>
        <time>2019-08-08T06:54:14.000Z</time>
      </trkpt>
      <trkpt lat="42.84724" lon="0.40932">
        <ele>911</ele>
        <time>2019-08-08T06:54:15.000Z</time>
      </trkpt>
      <trkpt lat="42.84722" lon="0.40933">
        <ele>912</ele>
        <time>2019-08-08T06:54:16.000Z</time>
      </trkpt>
      <trkpt lat="42.84714" lon="0.40937">
        <ele>912</ele>
        <time>2019-08-08T06:54:17.000Z</time>
      </trkpt>
      <trkpt lat="42.84712" lon="0.40938">
        <ele>912</ele>
        <time>2019-08-08T06:54:18.000Z</time>
      </trkpt>
      <trkpt lat="42.8471" lon="0.40939">
        <ele>912</ele>
        <time>2019-08-08T06:54:19.000Z</time>
      </trkpt>
      <trkpt lat="42.84702" lon="0.40942">
        <ele>912</ele>
        <time>2019-08-08T06:54:20.000Z</time>
      </trkpt>
      <trkpt lat="42.847" lon="0.40942">
        <ele>912</ele>
        <time>2019-08-08T06:54:21.000Z</time>
      </trkpt>
      <trkpt lat="42.84698" lon="0.40942">
        <ele>913</ele>
        <time>2019-08-08T06:54:22.000Z</time>
      </trkpt>
      <trkpt lat="42.8469" lon="0.40943">
        <ele>913</ele>
        <time>2019-08-08T06:54:23.000Z</time>
      </trkpt>
      <trkpt lat="42.84688" lon="0.40942">
        <ele>913</ele>
        <time>2019-08-08T06:54:24.000Z</time>
      </trkpt>
      <trkpt lat="42.84686" lon="0.40942">
        <ele>913</ele>
        <time>2019-08-08T06:54:25.000Z</time>
      </trkpt>
      <trkpt lat="42.84678" lon="0.40941">
        <ele>913</ele>
        <time>2019-08-08T06:54:26.000Z</time>
      </trkpt>
      <trkpt lat="42.84676" lon="0.40941">
        <ele>913</ele>
        <time>2019-08-08T06:54:27.000Z</time>
      </trkpt>
      <trkpt lat="42.84674" lon="0.4094">
        <ele>914</ele>
        <time>2019-08-08T06:54:28.000Z</time>
      </trkpt>
      <trkpt lat="42.84667" lon="0.40939">
        <ele>914</ele>
        <time>2019-08-08T06:54:29.000Z</time>
      </trkpt>
      <trkpt lat="42.84665" lon="0.40939">
        <ele>915</ele>
        <time>2019-08-08T06:54:30.000Z</time>
      </trkpt>
      <trkpt lat="42.84663" lon="0.40939">
        <ele>915</ele>
        <time>2019-08-08T06:54:31.000Z</time>
      </trkpt>
      <trkpt lat="42.84657" lon="0.40939">
        <ele>915</ele>
        <time>2019-08-08T06:54:32.000Z</time>
      </trkpt>
      <trkpt lat="42.84657" lon="0.40939">
        <ele>915</ele>
        <time>2019-08-08T06:54:33.000Z</time>
      </trkpt>
      <trkpt lat="42.84657" lon="0.40939">
        <ele>915</ele>
        <time>2019-08-08T06:54:34.000Z</time>
      </trkpt>
      <trkpt lat="42.84645" lon="0.4094">
        <ele>915</ele>
        <time>2019-08-08T06:54:35.000Z</time>
      </trkpt>
      <trkpt lat="42.84643" lon="0.4094">
        <ele>915</ele>
        <time>2019-08-08T06:54:36.000Z</time>
      </trkpt>
      <trkpt lat="42.84641" lon="0.4094">
        <ele>915</ele>
        <time>2019-08-08T06:54:37.000Z</time>
      </trkpt>
      <trkpt lat="42.84633" lon="0.40941">
        <ele>916</ele>
        <time>2019-08-08T06:54:38.000Z</time>
      </trkpt>
      <trkpt lat="42.84631" lon="0.40942">
        <ele>916</ele>
        <time>2019-08-08T06:54:39.000Z</time>
      </trkpt>
      <trkpt lat="42.84629" lon="0.40942">
        <ele>917</ele>
        <time>2019-08-08T06:54:40.000Z</time>
      </trkpt>
      <trkpt lat="42.84621" lon="0.40942">
        <ele>917</ele>
        <time>2019-08-08T06:54:41.000Z</time>
      </trkpt>
      <trkpt lat="42.84619" lon="0.40943">
        <ele>917</ele>
        <time>2019-08-08T06:54:42.000Z</time>
      </trkpt>
      <trkpt lat="42.84617" lon="0.40943">
        <ele>917</ele>
        <time>2019-08-08T06:54:43.000Z</time>
      </trkpt>
      <trkpt lat="42.84609" lon="0.40944">
        <ele>917</ele>
        <time>2019-08-08T06:54:44.000Z</time>
      </trkpt>
      <trkpt lat="42.84606" lon="0.40945">
        <ele>917</ele>
        <time>2019-08-08T06:54:45.000Z</time>
      </trkpt>
      <trkpt lat="42.84604" lon="0.40946">
        <ele>918</ele>
        <time>2019-08-08T06:54:46.000Z</time>
      </trkpt>
      <trkpt lat="42.84596" lon="0.40949">
        <ele>918</ele>
        <time>2019-08-08T06:54:47.000Z</time>
      </trkpt>
      <trkpt lat="42.84594" lon="0.40951">
        <ele>918</ele>
        <time>2019-08-08T06:54:48.000Z</time>
      </trkpt>
      <trkpt lat="42.84593" lon="0.40953">
        <ele>918</ele>
        <time>2019-08-08T06:54:49.000Z</time>
      </trkpt>
      <trkpt lat="42.84585" lon="0.40959">
        <ele>918</ele>
        <time>2019-08-08T06:54:50.000Z</time>
      </trkpt>
      <trkpt lat="42.84583" lon="0.40961">
        <ele>918</ele>
        <time>2019-08-08T06:54:51.000Z</time>
      </trkpt>
      <trkpt lat="42.84575" lon="0.40966">
        <ele>917</ele>
        <time>2019-08-08T06:54:52.000Z</time>
      </trkpt>
      <trkpt lat="42.84572" lon="0.40967">
        <ele>917</ele>
        <time>2019-08-08T06:54:53.000Z</time>
      </trkpt>
      <trkpt lat="42.84563" lon="0.40967">
        <ele>916</ele>
        <time>2019-08-08T06:54:54.000Z</time>
      </trkpt>
      <trkpt lat="42.8456" lon="0.40967">
        <ele>916</ele>
        <time>2019-08-08T06:54:55.000Z</time>
      </trkpt>
      <trkpt lat="42.8455" lon="0.40964">
        <ele>916</ele>
        <time>2019-08-08T06:54:56.000Z</time>
      </trkpt>
      <trkpt lat="42.84547" lon="0.40962">
        <ele>916</ele>
        <time>2019-08-08T06:54:57.000Z</time>
      </trkpt>
      <trkpt lat="42.84537" lon="0.40954">
        <ele>916</ele>
        <time>2019-08-08T06:54:58.000Z</time>
      </trkpt>
      <trkpt lat="42.84534" lon="0.40951">
        <ele>916</ele>
        <time>2019-08-08T06:54:59.000Z</time>
      </trkpt>
      <trkpt lat="42.84525" lon="0.40941">
        <ele>916</ele>
        <time>2019-08-08T06:55:00.000Z</time>
      </trkpt>
      <trkpt lat="42.84522" lon="0.40937">
        <ele>916</ele>
        <time>2019-08-08T06:55:01.000Z</time>
      </trkpt>
      <trkpt lat="42.84513" lon="0.40925">
        <ele>916</ele>
        <time>2019-08-08T06:55:02.000Z</time>
      </trkpt>
      <trkpt lat="42.8451" lon="0.40921">
        <ele>916</ele>
        <time>2019-08-08T06:55:03.000Z</time>
      </trkpt>
      <trkpt lat="42.84504" lon="0.40914">
        <ele>913</ele>
        <time>2019-08-08T06:55:04.000Z</time>
      </trkpt>
      <trkpt lat="42.84493" lon="0.40905">
        <ele>913</ele>
        <time>2019-08-08T06:55:05.000Z</time>
      </trkpt>
      <trkpt lat="42.84489" lon="0.40903">
        <ele>913</ele>
        <time>2019-08-08T06:55:06.000Z</time>
      </trkpt>
      <trkpt lat="42.84472" lon="0.40901">
        <ele>913</ele>
        <time>2019-08-08T06:55:07.000Z</time>
      </trkpt>
      <trkpt lat="42.84463" lon="0.40903">
        <ele>911</ele>
        <time>2019-08-08T06:55:09.000Z</time>
      </trkpt>
      <trkpt lat="42.84456" lon="0.40911">
        <ele>910</ele>
        <time>2019-08-08T06:55:10.000Z</time>
      </trkpt>
      <trkpt lat="42.84449" lon="0.4092">
        <ele>910</ele>
        <time>2019-08-08T06:55:11.000Z</time>
      </trkpt>
      <trkpt lat="42.84443" lon="0.4093">
        <ele>910</ele>
        <time>2019-08-08T06:55:12.000Z</time>
      </trkpt>
      <trkpt lat="42.84435" lon="0.40945">
        <ele>910</ele>
        <time>2019-08-08T06:55:13.000Z</time>
      </trkpt>
      <trkpt lat="42.84433" lon="0.40949">
        <ele>910</ele>
        <time>2019-08-08T06:55:14.000Z</time>
      </trkpt>
      <trkpt lat="42.84425" lon="0.40964">
        <ele>909</ele>
        <time>2019-08-08T06:55:15.000Z</time>
      </trkpt>
      <trkpt lat="42.84422" lon="0.40968">
        <ele>909</ele>
        <time>2019-08-08T06:55:16.000Z</time>
      </trkpt>
      <trkpt lat="42.84414" lon="0.40982">
        <ele>909</ele>
        <time>2019-08-08T06:55:17.000Z</time>
      </trkpt>
      <trkpt lat="42.84411" lon="0.40987">
        <ele>909</ele>
        <time>2019-08-08T06:55:18.000Z</time>
      </trkpt>
      <trkpt lat="42.84403" lon="0.40999">
        <ele>909</ele>
        <time>2019-08-08T06:55:19.000Z</time>
      </trkpt>
      <trkpt lat="42.844" lon="0.41003">
        <ele>909</ele>
        <time>2019-08-08T06:55:20.000Z</time>
      </trkpt>
      <trkpt lat="42.84392" lon="0.41015">
        <ele>909</ele>
        <time>2019-08-08T06:55:21.000Z</time>
      </trkpt>
      <trkpt lat="42.84389" lon="0.41018">
        <ele>909</ele>
        <time>2019-08-08T06:55:22.000Z</time>
      </trkpt>
      <trkpt lat="42.84381" lon="0.41028">
        <ele>910</ele>
        <time>2019-08-08T06:55:23.000Z</time>
      </trkpt>
      <trkpt lat="42.84378" lon="0.41032">
        <ele>910</ele>
        <time>2019-08-08T06:55:24.000Z</time>
      </trkpt>
      <trkpt lat="42.8437" lon="0.41041">
        <ele>911</ele>
        <time>2019-08-08T06:55:25.000Z</time>
      </trkpt>
      <trkpt lat="42.84367" lon="0.41043">
        <ele>911</ele>
        <time>2019-08-08T06:55:26.000Z</time>
      </trkpt>
      <trkpt lat="42.84359" lon="0.41052">
        <ele>911</ele>
        <time>2019-08-08T06:55:27.000Z</time>
      </trkpt>
      <trkpt lat="42.84357" lon="0.41055">
        <ele>911</ele>
        <time>2019-08-08T06:55:28.000Z</time>
      </trkpt>
      <trkpt lat="42.8435" lon="0.41063">
        <ele>913</ele>
        <time>2019-08-08T06:55:29.000Z</time>
      </trkpt>
      <trkpt lat="42.84348" lon="0.41065">
        <ele>913</ele>
        <time>2019-08-08T06:55:30.000Z</time>
      </trkpt>
      <trkpt lat="42.84343" lon="0.41071">
        <ele>913</ele>
        <time>2019-08-08T06:55:31.000Z</time>
      </trkpt>
      <trkpt lat="42.84343" lon="0.41071">
        <ele>913</ele>
        <time>2019-08-08T06:55:32.000Z</time>
      </trkpt>
      <trkpt lat="42.84334" lon="0.41083">
        <ele>913</ele>
        <time>2019-08-08T06:55:33.000Z</time>
      </trkpt>
      <trkpt lat="42.84332" lon="0.41085">
        <ele>913</ele>
        <time>2019-08-08T06:55:34.000Z</time>
      </trkpt>
      <trkpt lat="42.84325" lon="0.41092">
        <ele>913</ele>
        <time>2019-08-08T06:55:35.000Z</time>
      </trkpt>
      <trkpt lat="42.84323" lon="0.41093">
        <ele>914</ele>
        <time>2019-08-08T06:55:36.000Z</time>
      </trkpt>
      <trkpt lat="42.84315" lon="0.41098">
        <ele>914</ele>
        <time>2019-08-08T06:55:37.000Z</time>
      </trkpt>
      <trkpt lat="42.84312" lon="0.41099">
        <ele>915</ele>
        <time>2019-08-08T06:55:38.000Z</time>
      </trkpt>
      <trkpt lat="42.84307" lon="0.41102">
        <ele>915</ele>
        <time>2019-08-08T06:55:39.000Z</time>
      </trkpt>
      <trkpt lat="42.84307" lon="0.41102">
        <ele>916</ele>
        <time>2019-08-08T06:55:40.000Z</time>
      </trkpt>
      <trkpt lat="42.84296" lon="0.41109">
        <ele>916</ele>
        <time>2019-08-08T06:55:41.000Z</time>
      </trkpt>
      <trkpt lat="42.84294" lon="0.4111">
        <ele>916</ele>
        <time>2019-08-08T06:55:42.000Z</time>
      </trkpt>
      <trkpt lat="42.84292" lon="0.41111">
        <ele>916</ele>
        <time>2019-08-08T06:55:43.000Z</time>
      </trkpt>
      <trkpt lat="42.84286" lon="0.41114">
        <ele>917</ele>
        <time>2019-08-08T06:55:44.000Z</time>
      </trkpt>
      <trkpt lat="42.84286" lon="0.41114">
        <ele>917</ele>
        <time>2019-08-08T06:55:45.000Z</time>
      </trkpt>
      <trkpt lat="42.84277" lon="0.41118">
        <ele>917</ele>
        <time>2019-08-08T06:55:46.000Z</time>
      </trkpt>
      <trkpt lat="42.84277" lon="0.41118">
        <ele>917</ele>
        <time>2019-08-08T06:55:47.000Z</time>
      </trkpt>
      <trkpt lat="42.84268" lon="0.41122">
        <ele>918</ele>
        <time>2019-08-08T06:55:48.000Z</time>
      </trkpt>
      <trkpt lat="42.84268" lon="0.41122">
        <ele>918</ele>
        <time>2019-08-08T06:55:49.000Z</time>
      </trkpt>
      <trkpt lat="42.84259" lon="0.41126">
        <ele>918</ele>
        <time>2019-08-08T06:55:50.000Z</time>
      </trkpt>
      <trkpt lat="42.84255" lon="0.41128">
        <ele>918</ele>
        <time>2019-08-08T06:55:51.000Z</time>
      </trkpt>
      <trkpt lat="42.8425" lon="0.4113">
        <ele>918</ele>
        <time>2019-08-08T06:55:52.000Z</time>
      </trkpt>
      <trkpt lat="42.84246" lon="0.41132">
        <ele>918</ele>
        <time>2019-08-08T06:55:53.000Z</time>
      </trkpt>
      <trkpt lat="42.84246" lon="0.41132">
        <ele>919</ele>
        <time>2019-08-08T06:55:54.000Z</time>
      </trkpt>
      <trkpt lat="42.84237" lon="0.41135">
        <ele>919</ele>
        <time>2019-08-08T06:55:55.000Z</time>
      </trkpt>
      <trkpt lat="42.84232" lon="0.41135">
        <ele>919</ele>
        <time>2019-08-08T06:55:56.000Z</time>
      </trkpt>
      <trkpt lat="42.84228" lon="0.41137">
        <ele>919</ele>
        <time>2019-08-08T06:55:57.000Z</time>
      </trkpt>
      <trkpt lat="42.84224" lon="0.41138">
        <ele>919</ele>
        <time>2019-08-08T06:55:58.000Z</time>
      </trkpt>
      <trkpt lat="42.8422" lon="0.4114">
        <ele>919</ele>
        <time>2019-08-08T06:55:59.000Z</time>
      </trkpt>
      <trkpt lat="42.84215" lon="0.41142">
        <ele>920</ele>
        <time>2019-08-08T06:56:00.000Z</time>
      </trkpt>
      <trkpt lat="42.84211" lon="0.41143">
        <ele>920</ele>
        <time>2019-08-08T06:56:01.000Z</time>
      </trkpt>
      <trkpt lat="42.84207" lon="0.41144">
        <ele>921</ele>
        <time>2019-08-08T06:56:02.000Z</time>
      </trkpt>
      <trkpt lat="42.84203" lon="0.41145">
        <ele>921</ele>
        <time>2019-08-08T06:56:03.000Z</time>
      </trkpt>
      <trkpt lat="42.84199" lon="0.41146">
        <ele>921</ele>
        <time>2019-08-08T06:56:04.000Z</time>
      </trkpt>
      <trkpt lat="42.84195" lon="0.41147">
        <ele>921</ele>
        <time>2019-08-08T06:56:05.000Z</time>
      </trkpt>
      <trkpt lat="42.84191" lon="0.41149">
        <ele>921</ele>
        <time>2019-08-08T06:56:06.000Z</time>
      </trkpt>
      <trkpt lat="42.84187" lon="0.4115">
        <ele>921</ele>
        <time>2019-08-08T06:56:07.000Z</time>
      </trkpt>
      <trkpt lat="42.84183" lon="0.4115">
        <ele>921</ele>
        <time>2019-08-08T06:56:08.000Z</time>
      </trkpt>
      <trkpt lat="42.84179" lon="0.41151">
        <ele>921</ele>
        <time>2019-08-08T06:56:09.000Z</time>
      </trkpt>
      <trkpt lat="42.84175" lon="0.41151">
        <ele>921</ele>
        <time>2019-08-08T06:56:10.000Z</time>
      </trkpt>
      <trkpt lat="42.84171" lon="0.41152">
        <ele>922</ele>
        <time>2019-08-08T06:56:11.000Z</time>
      </trkpt>
      <trkpt lat="42.84167" lon="0.41152">
        <ele>922</ele>
        <time>2019-08-08T06:56:12.000Z</time>
      </trkpt>
      <trkpt lat="42.84163" lon="0.41152">
        <ele>922</ele>
        <time>2019-08-08T06:56:13.000Z</time>
      </trkpt>
      <trkpt lat="42.84159" lon="0.41152">
        <ele>922</ele>
        <time>2019-08-08T06:56:14.000Z</time>
      </trkpt>
      <trkpt lat="42.84155" lon="0.41152">
        <ele>923</ele>
        <time>2019-08-08T06:56:15.000Z</time>
      </trkpt>
      <trkpt lat="42.84151" lon="0.41152">
        <ele>923</ele>
        <time>2019-08-08T06:56:16.000Z</time>
      </trkpt>
      <trkpt lat="42.84147" lon="0.41153">
        <ele>923</ele>
        <time>2019-08-08T06:56:17.000Z</time>
      </trkpt>
      <trkpt lat="42.84143" lon="0.41153">
        <ele>923</ele>
        <time>2019-08-08T06:56:18.000Z</time>
      </trkpt>
      <trkpt lat="42.84143" lon="0.41153">
        <ele>924</ele>
        <time>2019-08-08T06:56:19.000Z</time>
      </trkpt>
      <trkpt lat="42.84135" lon="0.41153">
        <ele>924</ele>
        <time>2019-08-08T06:56:20.000Z</time>
      </trkpt>
      <trkpt lat="42.84132" lon="0.41154">
        <ele>924</ele>
        <time>2019-08-08T06:56:21.000Z</time>
      </trkpt>
      <trkpt lat="42.84128" lon="0.41154">
        <ele>924</ele>
        <time>2019-08-08T06:56:22.000Z</time>
      </trkpt>
      <trkpt lat="42.84124" lon="0.41154">
        <ele>925</ele>
        <time>2019-08-08T06:56:23.000Z</time>
      </trkpt>
      <trkpt lat="42.8412" lon="0.41154">
        <ele>925</ele>
        <time>2019-08-08T06:56:24.000Z</time>
      </trkpt>
      <trkpt lat="42.84117" lon="0.41154">
        <ele>925</ele>
        <time>2019-08-08T06:56:25.000Z</time>
      </trkpt>
      <trkpt lat="42.84117" lon="0.41154">
        <ele>925</ele>
        <time>2019-08-08T06:56:26.000Z</time>
      </trkpt>
      <trkpt lat="42.8411" lon="0.41153">
        <ele>925</ele>
        <time>2019-08-08T06:56:27.000Z</time>
      </trkpt>
      <trkpt lat="42.84106" lon="0.41153">
        <ele>926</ele>
        <time>2019-08-08T06:56:28.000Z</time>
      </trkpt>
      <trkpt lat="42.84106" lon="0.41153">
        <ele>926</ele>
        <time>2019-08-08T06:56:29.000Z</time>
      </trkpt>
      <trkpt lat="42.84098" lon="0.41151">
        <ele>927</ele>
        <time>2019-08-08T06:56:30.000Z</time>
      </trkpt>
      <trkpt lat="42.84094" lon="0.41149">
        <ele>927</ele>
        <time>2019-08-08T06:56:31.000Z</time>
      </trkpt>
      <trkpt lat="42.8409" lon="0.41148">
        <ele>928</ele>
        <time>2019-08-08T06:56:32.000Z</time>
      </trkpt>
      <trkpt lat="42.84086" lon="0.41147">
        <ele>927</ele>
        <time>2019-08-08T06:56:33.000Z</time>
      </trkpt>
      <trkpt lat="42.84083" lon="0.41146">
        <ele>927</ele>
        <time>2019-08-08T06:56:34.000Z</time>
      </trkpt>
      <trkpt lat="42.84079" lon="0.41144">
        <ele>927</ele>
        <time>2019-08-08T06:56:35.000Z</time>
      </trkpt>
      <trkpt lat="42.84076" lon="0.41142">
        <ele>928</ele>
        <time>2019-08-08T06:56:36.000Z</time>
      </trkpt>
      <trkpt lat="42.84073" lon="0.41141">
        <ele>928</ele>
        <time>2019-08-08T06:56:37.000Z</time>
      </trkpt>
      <trkpt lat="42.8407" lon="0.4114">
        <ele>929</ele>
        <time>2019-08-08T06:56:38.000Z</time>
      </trkpt>
      <trkpt lat="42.84067" lon="0.41139">
        <ele>929</ele>
        <time>2019-08-08T06:56:39.000Z</time>
      </trkpt>
      <trkpt lat="42.84063" lon="0.41138">
        <ele>929</ele>
        <time>2019-08-08T06:56:40.000Z</time>
      </trkpt>
      <trkpt lat="42.8406" lon="0.41137">
        <ele>929</ele>
        <time>2019-08-08T06:56:41.000Z</time>
      </trkpt>
      <trkpt lat="42.84058" lon="0.41136">
        <ele>929</ele>
        <time>2019-08-08T06:56:42.000Z</time>
      </trkpt>
      <trkpt lat="42.84054" lon="0.41135">
        <ele>929</ele>
        <time>2019-08-08T06:56:43.000Z</time>
      </trkpt>
      <trkpt lat="42.84052" lon="0.41135">
        <ele>930</ele>
        <time>2019-08-08T06:56:44.000Z</time>
      </trkpt>
      <trkpt lat="42.84049" lon="0.41135">
        <ele>930</ele>
        <time>2019-08-08T06:56:45.000Z</time>
      </trkpt>
      <trkpt lat="42.84046" lon="0.41134">
        <ele>930</ele>
        <time>2019-08-08T06:56:46.000Z</time>
      </trkpt>
      <trkpt lat="42.84043" lon="0.41134">
        <ele>931</ele>
        <time>2019-08-08T06:56:47.000Z</time>
      </trkpt>
      <trkpt lat="42.8404" lon="0.41134">
        <ele>931</ele>
        <time>2019-08-08T06:56:48.000Z</time>
      </trkpt>
      <trkpt lat="42.84036" lon="0.41133">
        <ele>931</ele>
        <time>2019-08-08T06:56:49.000Z</time>
      </trkpt>
      <trkpt lat="42.84033" lon="0.41132">
        <ele>931</ele>
        <time>2019-08-08T06:56:50.000Z</time>
      </trkpt>
      <trkpt lat="42.8403" lon="0.41132">
        <ele>932</ele>
        <time>2019-08-08T06:56:51.000Z</time>
      </trkpt>
      <trkpt lat="42.84027" lon="0.41132">
        <ele>932</ele>
        <time>2019-08-08T06:56:52.000Z</time>
      </trkpt>
      <trkpt lat="42.84025" lon="0.41131">
        <ele>933</ele>
        <time>2019-08-08T06:56:53.000Z</time>
      </trkpt>
      <trkpt lat="42.84022" lon="0.41131">
        <ele>933</ele>
        <time>2019-08-08T06:56:54.000Z</time>
      </trkpt>
      <trkpt lat="42.84019" lon="0.41131">
        <ele>934</ele>
        <time>2019-08-08T06:56:55.000Z</time>
      </trkpt>
      <trkpt lat="42.84016" lon="0.4113">
        <ele>934</ele>
        <time>2019-08-08T06:56:56.000Z</time>
      </trkpt>
      <trkpt lat="42.84013" lon="0.4113">
        <ele>934</ele>
        <time>2019-08-08T06:56:57.000Z</time>
      </trkpt>
      <trkpt lat="42.8401" lon="0.41129">
        <ele>934</ele>
        <time>2019-08-08T06:56:58.000Z</time>
      </trkpt>
      <trkpt lat="42.8401" lon="0.41129">
        <ele>934</ele>
        <time>2019-08-08T06:56:59.000Z</time>
      </trkpt>
      <trkpt lat="42.84005" lon="0.41127">
        <ele>934</ele>
        <time>2019-08-08T06:57:00.000Z</time>
      </trkpt>
      <trkpt lat="42.84002" lon="0.41126">
        <ele>934</ele>
        <time>2019-08-08T06:57:01.000Z</time>
      </trkpt>
      <trkpt lat="42.83999" lon="0.41126">
        <ele>934</ele>
        <time>2019-08-08T06:57:02.000Z</time>
      </trkpt>
      <trkpt lat="42.83997" lon="0.41125">
        <ele>934</ele>
        <time>2019-08-08T06:57:03.000Z</time>
      </trkpt>
      <trkpt lat="42.83997" lon="0.41125">
        <ele>934</ele>
        <time>2019-08-08T06:57:04.000Z</time>
      </trkpt>
      <trkpt lat="42.83991" lon="0.41122">
        <ele>935</ele>
        <time>2019-08-08T06:57:05.000Z</time>
      </trkpt>
      <trkpt lat="42.83988" lon="0.41121">
        <ele>935</ele>
        <time>2019-08-08T06:57:06.000Z</time>
      </trkpt>
      <trkpt lat="42.83986" lon="0.41121">
        <ele>935</ele>
        <time>2019-08-08T06:57:07.000Z</time>
      </trkpt>
      <trkpt lat="42.83983" lon="0.41122">
        <ele>935</ele>
        <time>2019-08-08T06:57:08.000Z</time>
      </trkpt>
      <trkpt lat="42.83981" lon="0.41122">
        <ele>936</ele>
        <time>2019-08-08T06:57:09.000Z</time>
      </trkpt>
      <trkpt lat="42.83978" lon="0.41123">
        <ele>936</ele>
        <time>2019-08-08T06:57:10.000Z</time>
      </trkpt>
      <trkpt lat="42.83975" lon="0.41124">
        <ele>937</ele>
        <time>2019-08-08T06:57:11.000Z</time>
      </trkpt>
      <trkpt lat="42.83973" lon="0.41125">
        <ele>937</ele>
        <time>2019-08-08T06:57:12.000Z</time>
      </trkpt>
      <trkpt lat="42.83973" lon="0.41125">
        <ele>938</ele>
        <time>2019-08-08T06:57:13.000Z</time>
      </trkpt>
      <trkpt lat="42.83973" lon="0.41125">
        <ele>938</ele>
        <time>2019-08-08T06:57:14.000Z</time>
      </trkpt>
      <trkpt lat="42.83965" lon="0.41131">
        <ele>938</ele>
        <time>2019-08-08T06:57:15.000Z</time>
      </trkpt>
      <trkpt lat="42.83965" lon="0.41131">
        <ele>938</ele>
        <time>2019-08-08T06:57:16.000Z</time>
      </trkpt>
      <trkpt lat="42.83965" lon="0.41131">
        <ele>938</ele>
        <time>2019-08-08T06:57:17.000Z</time>
      </trkpt>
      <trkpt lat="42.83957" lon="0.41137">
        <ele>938</ele>
        <time>2019-08-08T06:57:18.000Z</time>
      </trkpt>
      <trkpt lat="42.83957" lon="0.41137">
        <ele>939</ele>
        <time>2019-08-08T06:57:19.000Z</time>
      </trkpt>
      <trkpt lat="42.83957" lon="0.41137">
        <ele>939</ele>
        <time>2019-08-08T06:57:20.000Z</time>
      </trkpt>
      <trkpt lat="42.83947" lon="0.41146">
        <ele>939</ele>
        <time>2019-08-08T06:57:22.000Z</time>
      </trkpt>
      <trkpt lat="42.83947" lon="0.41146">
        <ele>939</ele>
        <time>2019-08-08T06:57:23.000Z</time>
      </trkpt>
      <trkpt lat="42.83947" lon="0.41146">
        <ele>940</ele>
        <time>2019-08-08T06:57:24.000Z</time>
      </trkpt>
      <trkpt lat="42.83939" lon="0.41152">
        <ele>940</ele>
        <time>2019-08-08T06:57:25.000Z</time>
      </trkpt>
      <trkpt lat="42.83936" lon="0.41153">
        <ele>940</ele>
        <time>2019-08-08T06:57:26.000Z</time>
      </trkpt>
      <trkpt lat="42.83934" lon="0.41155">
        <ele>940</ele>
        <time>2019-08-08T06:57:27.000Z</time>
      </trkpt>
      <trkpt lat="42.83934" lon="0.41155">
        <ele>941</ele>
        <time>2019-08-08T06:57:28.000Z</time>
      </trkpt>
      <trkpt lat="42.83934" lon="0.41155">
        <ele>941</ele>
        <time>2019-08-08T06:57:29.000Z</time>
      </trkpt>
      <trkpt lat="42.83926" lon="0.41161">
        <ele>941</ele>
        <time>2019-08-08T06:57:30.000Z</time>
      </trkpt>
      <trkpt lat="42.83923" lon="0.41162">
        <ele>941</ele>
        <time>2019-08-08T06:57:31.000Z</time>
      </trkpt>
      <trkpt lat="42.83919" lon="0.41163">
        <ele>942</ele>
        <time>2019-08-08T06:57:32.000Z</time>
      </trkpt>
      <trkpt lat="42.83916" lon="0.41165">
        <ele>942</ele>
        <time>2019-08-08T06:57:33.000Z</time>
      </trkpt>
      <trkpt lat="42.83911" lon="0.41167">
        <ele>942</ele>
        <time>2019-08-08T06:57:34.000Z</time>
      </trkpt>
      <trkpt lat="42.83909" lon="0.41167">
        <ele>942</ele>
        <time>2019-08-08T06:57:35.000Z</time>
      </trkpt>
      <trkpt lat="42.83908" lon="0.41168">
        <ele>942</ele>
        <time>2019-08-08T06:57:36.000Z</time>
      </trkpt>
      <trkpt lat="42.83902" lon="0.4117">
        <ele>942</ele>
        <time>2019-08-08T06:57:37.000Z</time>
      </trkpt>
      <trkpt lat="42.83902" lon="0.4117">
        <ele>942</ele>
        <time>2019-08-08T06:57:38.000Z</time>
      </trkpt>
      <trkpt lat="42.83894" lon="0.41173">
        <ele>942</ele>
        <time>2019-08-08T06:57:39.000Z</time>
      </trkpt>
      <trkpt lat="42.8389" lon="0.41174">
        <ele>942</ele>
        <time>2019-08-08T06:57:40.000Z</time>
      </trkpt>
      <trkpt lat="42.83885" lon="0.41175">
        <ele>942</ele>
        <time>2019-08-08T06:57:41.000Z</time>
      </trkpt>
      <trkpt lat="42.83881" lon="0.41176">
        <ele>942</ele>
        <time>2019-08-08T06:57:42.000Z</time>
      </trkpt>
      <trkpt lat="42.83876" lon="0.41177">
        <ele>943</ele>
        <time>2019-08-08T06:57:43.000Z</time>
      </trkpt>
      <trkpt lat="42.83872" lon="0.41178">
        <ele>943</ele>
        <time>2019-08-08T06:57:44.000Z</time>
      </trkpt>
      <trkpt lat="42.83872" lon="0.41178">
        <ele>943</ele>
        <time>2019-08-08T06:57:45.000Z</time>
      </trkpt>
      <trkpt lat="42.83862" lon="0.41179">
        <ele>943</ele>
        <time>2019-08-08T06:57:46.000Z</time>
      </trkpt>
      <trkpt lat="42.83857" lon="0.4118">
        <ele>943</ele>
        <time>2019-08-08T06:57:47.000Z</time>
      </trkpt>
      <trkpt lat="42.83852" lon="0.41181">
        <ele>943</ele>
        <time>2019-08-08T06:57:48.000Z</time>
      </trkpt>
      <trkpt lat="42.83847" lon="0.41182">
        <ele>944</ele>
        <time>2019-08-08T06:57:49.000Z</time>
      </trkpt>
      <trkpt lat="42.83842" lon="0.41183">
        <ele>944</ele>
        <time>2019-08-08T06:57:50.000Z</time>
      </trkpt>
      <trkpt lat="42.83838" lon="0.41183">
        <ele>944</ele>
        <time>2019-08-08T06:57:51.000Z</time>
      </trkpt>
      <trkpt lat="42.83833" lon="0.41184">
        <ele>944</ele>
        <time>2019-08-08T06:57:52.000Z</time>
      </trkpt>
      <trkpt lat="42.83828" lon="0.41184">
        <ele>944</ele>
        <time>2019-08-08T06:57:53.000Z</time>
      </trkpt>
      <trkpt lat="42.83823" lon="0.41184">
        <ele>944</ele>
        <time>2019-08-08T06:57:54.000Z</time>
      </trkpt>
      <trkpt lat="42.83819" lon="0.41183">
        <ele>944</ele>
        <time>2019-08-08T06:57:55.000Z</time>
      </trkpt>
      <trkpt lat="42.83814" lon="0.41182">
        <ele>944</ele>
        <time>2019-08-08T06:57:56.000Z</time>
      </trkpt>
      <trkpt lat="42.83809" lon="0.41181">
        <ele>945</ele>
        <time>2019-08-08T06:57:57.000Z</time>
      </trkpt>
      <trkpt lat="42.83804" lon="0.41179">
        <ele>945</ele>
        <time>2019-08-08T06:57:58.000Z</time>
      </trkpt>
      <trkpt lat="42.83799" lon="0.41176">
        <ele>945</ele>
        <time>2019-08-08T06:57:59.000Z</time>
      </trkpt>
      <trkpt lat="42.83794" lon="0.41174">
        <ele>945</ele>
        <time>2019-08-08T06:58:00.000Z</time>
      </trkpt>
      <trkpt lat="42.8379" lon="0.41171">
        <ele>945</ele>
        <time>2019-08-08T06:58:01.000Z</time>
      </trkpt>
      <trkpt lat="42.83785" lon="0.41169">
        <ele>945</ele>
        <time>2019-08-08T06:58:02.000Z</time>
      </trkpt>
      <trkpt lat="42.83781" lon="0.41167">
        <ele>946</ele>
        <time>2019-08-08T06:58:03.000Z</time>
      </trkpt>
      <trkpt lat="42.83776" lon="0.41165">
        <ele>946</ele>
        <time>2019-08-08T06:58:04.000Z</time>
      </trkpt>
      <trkpt lat="42.83771" lon="0.41163">
        <ele>946</ele>
        <time>2019-08-08T06:58:05.000Z</time>
      </trkpt>
      <trkpt lat="42.83766" lon="0.41163">
        <ele>946</ele>
        <time>2019-08-08T06:58:06.000Z</time>
      </trkpt>
      <trkpt lat="42.83762" lon="0.41163">
        <ele>946</ele>
        <time>2019-08-08T06:58:07.000Z</time>
      </trkpt>
      <trkpt lat="42.83757" lon="0.41163">
        <ele>946</ele>
        <time>2019-08-08T06:58:08.000Z</time>
      </trkpt>
      <trkpt lat="42.83757" lon="0.41163">
        <ele>946</ele>
        <time>2019-08-08T06:58:09.000Z</time>
      </trkpt>
      <trkpt lat="42.83748" lon="0.41166">
        <ele>946</ele>
        <time>2019-08-08T06:58:10.000Z</time>
      </trkpt>
      <trkpt lat="42.83743" lon="0.41168">
        <ele>946</ele>
        <time>2019-08-08T06:58:11.000Z</time>
      </trkpt>
      <trkpt lat="42.83739" lon="0.41171">
        <ele>946</ele>
        <time>2019-08-08T06:58:12.000Z</time>
      </trkpt>
      <trkpt lat="42.83735" lon="0.41173">
        <ele>946</ele>
        <time>2019-08-08T06:58:13.000Z</time>
      </trkpt>
      <trkpt lat="42.83731" lon="0.41175">
        <ele>947</ele>
        <time>2019-08-08T06:58:14.000Z</time>
      </trkpt>
      <trkpt lat="42.83727" lon="0.41178">
        <ele>947</ele>
        <time>2019-08-08T06:58:15.000Z</time>
      </trkpt>
      <trkpt lat="42.83722" lon="0.4118">
        <ele>947</ele>
        <time>2019-08-08T06:58:16.000Z</time>
      </trkpt>
      <trkpt lat="42.83717" lon="0.41183">
        <ele>947</ele>
        <time>2019-08-08T06:58:17.000Z</time>
      </trkpt>
      <trkpt lat="42.83713" lon="0.41186">
        <ele>947</ele>
        <time>2019-08-08T06:58:18.000Z</time>
      </trkpt>
      <trkpt lat="42.83707" lon="0.4119">
        <ele>947</ele>
        <time>2019-08-08T06:58:19.000Z</time>
      </trkpt>
      <trkpt lat="42.83703" lon="0.41192">
        <ele>947</ele>
        <time>2019-08-08T06:58:20.000Z</time>
      </trkpt>
      <trkpt lat="42.83698" lon="0.41195">
        <ele>947</ele>
        <time>2019-08-08T06:58:21.000Z</time>
      </trkpt>
      <trkpt lat="42.83693" lon="0.41197">
        <ele>947</ele>
        <time>2019-08-08T06:58:22.000Z</time>
      </trkpt>
      <trkpt lat="42.83688" lon="0.412">
        <ele>947</ele>
        <time>2019-08-08T06:58:23.000Z</time>
      </trkpt>
      <trkpt lat="42.83684" lon="0.41202">
        <ele>947</ele>
        <time>2019-08-08T06:58:24.000Z</time>
      </trkpt>
      <trkpt lat="42.8368" lon="0.41204">
        <ele>947</ele>
        <time>2019-08-08T06:58:25.000Z</time>
      </trkpt>
      <trkpt lat="42.83675" lon="0.41205">
        <ele>948</ele>
        <time>2019-08-08T06:58:26.000Z</time>
      </trkpt>
      <trkpt lat="42.8367" lon="0.41208">
        <ele>948</ele>
        <time>2019-08-08T06:58:27.000Z</time>
      </trkpt>
      <trkpt lat="42.83665" lon="0.4121">
        <ele>948</ele>
        <time>2019-08-08T06:58:28.000Z</time>
      </trkpt>
      <trkpt lat="42.83661" lon="0.41212">
        <ele>948</ele>
        <time>2019-08-08T06:58:29.000Z</time>
      </trkpt>
      <trkpt lat="42.83657" lon="0.41213">
        <ele>948</ele>
        <time>2019-08-08T06:58:30.000Z</time>
      </trkpt>
      <trkpt lat="42.83653" lon="0.41214">
        <ele>948</ele>
        <time>2019-08-08T06:58:31.000Z</time>
      </trkpt>
      <trkpt lat="42.83648" lon="0.41216">
        <ele>948</ele>
        <time>2019-08-08T06:58:32.000Z</time>
      </trkpt>
      <trkpt lat="42.83648" lon="0.41216">
        <ele>949</ele>
        <time>2019-08-08T06:58:33.000Z</time>
      </trkpt>
      <trkpt lat="42.83638" lon="0.41219">
        <ele>949</ele>
        <time>2019-08-08T06:58:34.000Z</time>
      </trkpt>
      <trkpt lat="42.83634" lon="0.41221">
        <ele>949</ele>
        <time>2019-08-08T06:58:35.000Z</time>
      </trkpt>
      <trkpt lat="42.83629" lon="0.41223">
        <ele>949</ele>
        <time>2019-08-08T06:58:36.000Z</time>
      </trkpt>
      <trkpt lat="42.83622" lon="0.41226">
        <ele>949</ele>
        <time>2019-08-08T06:58:37.000Z</time>
      </trkpt>
      <trkpt lat="42.8362" lon="0.41227">
        <ele>950</ele>
        <time>2019-08-08T06:58:38.000Z</time>
      </trkpt>
      <trkpt lat="42.83612" lon="0.41231">
        <ele>950</ele>
        <time>2019-08-08T06:58:39.000Z</time>
      </trkpt>
      <trkpt lat="42.83609" lon="0.41232">
        <ele>950</ele>
        <time>2019-08-08T06:58:40.000Z</time>
      </trkpt>
      <trkpt lat="42.83603" lon="0.41235">
        <ele>949</ele>
        <time>2019-08-08T06:58:41.000Z</time>
      </trkpt>
      <trkpt lat="42.83598" lon="0.41238">
        <ele>949</ele>
        <time>2019-08-08T06:58:42.000Z</time>
      </trkpt>
      <trkpt lat="42.83593" lon="0.41241">
        <ele>950</ele>
        <time>2019-08-08T06:58:43.000Z</time>
      </trkpt>
      <trkpt lat="42.83587" lon="0.41243">
        <ele>950</ele>
        <time>2019-08-08T06:58:44.000Z</time>
      </trkpt>
      <trkpt lat="42.8358" lon="0.41247">
        <ele>951</ele>
        <time>2019-08-08T06:58:45.000Z</time>
      </trkpt>
      <trkpt lat="42.83577" lon="0.41248">
        <ele>951</ele>
        <time>2019-08-08T06:58:46.000Z</time>
      </trkpt>
      <trkpt lat="42.83572" lon="0.4125">
        <ele>951</ele>
        <time>2019-08-08T06:58:47.000Z</time>
      </trkpt>
      <trkpt lat="42.83567" lon="0.41253">
        <ele>951</ele>
        <time>2019-08-08T06:58:48.000Z</time>
      </trkpt>
      <trkpt lat="42.83562" lon="0.41256">
        <ele>951</ele>
        <time>2019-08-08T06:58:49.000Z</time>
      </trkpt>
      <trkpt lat="42.83557" lon="0.4126">
        <ele>951</ele>
        <time>2019-08-08T06:58:50.000Z</time>
      </trkpt>
      <trkpt lat="42.83552" lon="0.41263">
        <ele>951</ele>
        <time>2019-08-08T06:58:51.000Z</time>
      </trkpt>
      <trkpt lat="42.83548" lon="0.41266">
        <ele>951</ele>
        <time>2019-08-08T06:58:52.000Z</time>
      </trkpt>
      <trkpt lat="42.83542" lon="0.4127">
        <ele>951</ele>
        <time>2019-08-08T06:58:53.000Z</time>
      </trkpt>
      <trkpt lat="42.8354" lon="0.41271">
        <ele>951</ele>
        <time>2019-08-08T06:58:54.000Z</time>
      </trkpt>
      <trkpt lat="42.83538" lon="0.41272">
        <ele>952</ele>
        <time>2019-08-08T06:58:55.000Z</time>
      </trkpt>
      <trkpt lat="42.83532" lon="0.41275">
        <ele>952</ele>
        <time>2019-08-08T06:58:56.000Z</time>
      </trkpt>
      <trkpt lat="42.83532" lon="0.41275">
        <ele>952</ele>
        <time>2019-08-08T06:58:57.000Z</time>
      </trkpt>
      <trkpt lat="42.83522" lon="0.41284">
        <ele>952</ele>
        <time>2019-08-08T06:58:58.000Z</time>
      </trkpt>
      <trkpt lat="42.83519" lon="0.41285">
        <ele>952</ele>
        <time>2019-08-08T06:58:59.000Z</time>
      </trkpt>
      <trkpt lat="42.83514" lon="0.41289">
        <ele>954</ele>
        <time>2019-08-08T06:59:00.000Z</time>
      </trkpt>
      <trkpt lat="42.83514" lon="0.41289">
        <ele>954</ele>
        <time>2019-08-08T06:59:01.000Z</time>
      </trkpt>
      <trkpt lat="42.83504" lon="0.41294">
        <ele>955</ele>
        <time>2019-08-08T06:59:02.000Z</time>
      </trkpt>
      <trkpt lat="42.83504" lon="0.41294">
        <ele>955</ele>
        <time>2019-08-08T06:59:03.000Z</time>
      </trkpt>
      <trkpt lat="42.83495" lon="0.41298">
        <ele>955</ele>
        <time>2019-08-08T06:59:04.000Z</time>
      </trkpt>
      <trkpt lat="42.83495" lon="0.41298">
        <ele>955</ele>
        <time>2019-08-08T06:59:05.000Z</time>
      </trkpt>
      <trkpt lat="42.83487" lon="0.41304">
        <ele>956</ele>
        <time>2019-08-08T06:59:06.000Z</time>
      </trkpt>
      <trkpt lat="42.83483" lon="0.41306">
        <ele>956</ele>
        <time>2019-08-08T06:59:07.000Z</time>
      </trkpt>
      <trkpt lat="42.83483" lon="0.41306">
        <ele>956</ele>
        <time>2019-08-08T06:59:08.000Z</time>
      </trkpt>
      <trkpt lat="42.83474" lon="0.4131">
        <ele>956</ele>
        <time>2019-08-08T06:59:09.000Z</time>
      </trkpt>
      <trkpt lat="42.83474" lon="0.4131">
        <ele>956</ele>
        <time>2019-08-08T06:59:10.000Z</time>
      </trkpt>
      <trkpt lat="42.83465" lon="0.41314">
        <ele>957</ele>
        <time>2019-08-08T06:59:11.000Z</time>
      </trkpt>
      <trkpt lat="42.83465" lon="0.41314">
        <ele>957</ele>
        <time>2019-08-08T06:59:12.000Z</time>
      </trkpt>
      <trkpt lat="42.83456" lon="0.41318">
        <ele>957</ele>
        <time>2019-08-08T06:59:13.000Z</time>
      </trkpt>
      <trkpt lat="42.83456" lon="0.41318">
        <ele>957</ele>
        <time>2019-08-08T06:59:14.000Z</time>
      </trkpt>
      <trkpt lat="42.83448" lon="0.41323">
        <ele>958</ele>
        <time>2019-08-08T06:59:15.000Z</time>
      </trkpt>
      <trkpt lat="42.83443" lon="0.41325">
        <ele>958</ele>
        <time>2019-08-08T06:59:16.000Z</time>
      </trkpt>
      <trkpt lat="42.83438" lon="0.41327">
        <ele>958</ele>
        <time>2019-08-08T06:59:17.000Z</time>
      </trkpt>
      <trkpt lat="42.83434" lon="0.41328">
        <ele>958</ele>
        <time>2019-08-08T06:59:18.000Z</time>
      </trkpt>
      <trkpt lat="42.83429" lon="0.4133">
        <ele>958</ele>
        <time>2019-08-08T06:59:19.000Z</time>
      </trkpt>
      <trkpt lat="42.83424" lon="0.41332">
        <ele>959</ele>
        <time>2019-08-08T06:59:20.000Z</time>
      </trkpt>
      <trkpt lat="42.8342" lon="0.41333">
        <ele>959</ele>
        <time>2019-08-08T06:59:21.000Z</time>
      </trkpt>
      <trkpt lat="42.83415" lon="0.41335">
        <ele>960</ele>
        <time>2019-08-08T06:59:22.000Z</time>
      </trkpt>
      <trkpt lat="42.83411" lon="0.41337">
        <ele>960</ele>
        <time>2019-08-08T06:59:23.000Z</time>
      </trkpt>
      <trkpt lat="42.83406" lon="0.41338">
        <ele>960</ele>
        <time>2019-08-08T06:59:24.000Z</time>
      </trkpt>
      <trkpt lat="42.83402" lon="0.41339">
        <ele>960</ele>
        <time>2019-08-08T06:59:25.000Z</time>
      </trkpt>
      <trkpt lat="42.83397" lon="0.41341">
        <ele>960</ele>
        <time>2019-08-08T06:59:26.000Z</time>
      </trkpt>
      <trkpt lat="42.83393" lon="0.41342">
        <ele>961</ele>
        <time>2019-08-08T06:59:27.000Z</time>
      </trkpt>
      <trkpt lat="42.83388" lon="0.41344">
        <ele>961</ele>
        <time>2019-08-08T06:59:28.000Z</time>
      </trkpt>
      <trkpt lat="42.83384" lon="0.41345">
        <ele>961</ele>
        <time>2019-08-08T06:59:29.000Z</time>
      </trkpt>
      <trkpt lat="42.8338" lon="0.41346">
        <ele>961</ele>
        <time>2019-08-08T06:59:30.000Z</time>
      </trkpt>
      <trkpt lat="42.83375" lon="0.41348">
        <ele>961</ele>
        <time>2019-08-08T06:59:31.000Z</time>
      </trkpt>
      <trkpt lat="42.83371" lon="0.41349">
        <ele>961</ele>
        <time>2019-08-08T06:59:32.000Z</time>
      </trkpt>
      <trkpt lat="42.83366" lon="0.41351">
        <ele>962</ele>
        <time>2019-08-08T06:59:33.000Z</time>
      </trkpt>
      <trkpt lat="42.83362" lon="0.41352">
        <ele>962</ele>
        <time>2019-08-08T06:59:34.000Z</time>
      </trkpt>
      <trkpt lat="42.83357" lon="0.41354">
        <ele>963</ele>
        <time>2019-08-08T06:59:35.000Z</time>
      </trkpt>
      <trkpt lat="42.83353" lon="0.41356">
        <ele>963</ele>
        <time>2019-08-08T06:59:36.000Z</time>
      </trkpt>
      <trkpt lat="42.83348" lon="0.41358">
        <ele>963</ele>
        <time>2019-08-08T06:59:37.000Z</time>
      </trkpt>
      <trkpt lat="42.83344" lon="0.4136">
        <ele>963</ele>
        <time>2019-08-08T06:59:38.000Z</time>
      </trkpt>
      <trkpt lat="42.83339" lon="0.41362">
        <ele>963</ele>
        <time>2019-08-08T06:59:39.000Z</time>
      </trkpt>
      <trkpt lat="42.83335" lon="0.41364">
        <ele>964</ele>
        <time>2019-08-08T06:59:40.000Z</time>
      </trkpt>
      <trkpt lat="42.8333" lon="0.41365">
        <ele>964</ele>
        <time>2019-08-08T06:59:41.000Z</time>
      </trkpt>
      <trkpt lat="42.83326" lon="0.41367">
        <ele>964</ele>
        <time>2019-08-08T06:59:42.000Z</time>
      </trkpt>
      <trkpt lat="42.83321" lon="0.41369">
        <ele>964</ele>
        <time>2019-08-08T06:59:43.000Z</time>
      </trkpt>
      <trkpt lat="42.83316" lon="0.41371">
        <ele>964</ele>
        <time>2019-08-08T06:59:44.000Z</time>
      </trkpt>
      <trkpt lat="42.83312" lon="0.41372">
        <ele>964</ele>
        <time>2019-08-08T06:59:45.000Z</time>
      </trkpt>
      <trkpt lat="42.83304" lon="0.41374">
        <ele>964</ele>
        <time>2019-08-08T06:59:46.000Z</time>
      </trkpt>
      <trkpt lat="42.83301" lon="0.41374">
        <ele>964</ele>
        <time>2019-08-08T06:59:47.000Z</time>
      </trkpt>
      <trkpt lat="42.83292" lon="0.41374">
        <ele>964</ele>
        <time>2019-08-08T06:59:48.000Z</time>
      </trkpt>
      <trkpt lat="42.83289" lon="0.41373">
        <ele>964</ele>
        <time>2019-08-08T06:59:49.000Z</time>
      </trkpt>
      <trkpt lat="42.83282" lon="0.41372">
        <ele>964</ele>
        <time>2019-08-08T06:59:50.000Z</time>
      </trkpt>
      <trkpt lat="42.83276" lon="0.41371">
        <ele>963</ele>
        <time>2019-08-08T06:59:51.000Z</time>
      </trkpt>
      <trkpt lat="42.83268" lon="0.4137">
        <ele>963</ele>
        <time>2019-08-08T06:59:52.000Z</time>
      </trkpt>
      <trkpt lat="42.83261" lon="0.41368">
        <ele>962</ele>
        <time>2019-08-08T06:59:53.000Z</time>
      </trkpt>
      <trkpt lat="42.83253" lon="0.41366">
        <ele>962</ele>
        <time>2019-08-08T06:59:54.000Z</time>
      </trkpt>
      <trkpt lat="42.83245" lon="0.41364">
        <ele>962</ele>
        <time>2019-08-08T06:59:55.000Z</time>
      </trkpt>
      <trkpt lat="42.83236" lon="0.41362">
        <ele>961</ele>
        <time>2019-08-08T06:59:56.000Z</time>
      </trkpt>
      <trkpt lat="42.83227" lon="0.4136">
        <ele>961</ele>
        <time>2019-08-08T06:59:57.000Z</time>
      </trkpt>
      <trkpt lat="42.83219" lon="0.41359">
        <ele>960</ele>
        <time>2019-08-08T06:59:58.000Z</time>
      </trkpt>
      <trkpt lat="42.8321" lon="0.41357">
        <ele>960</ele>
        <time>2019-08-08T06:59:59.000Z</time>
      </trkpt>
      <trkpt lat="42.83201" lon="0.41354">
        <ele>959</ele>
        <time>2019-08-08T07:00:00.000Z</time>
      </trkpt>
      <trkpt lat="42.83192" lon="0.41352">
        <ele>959</ele>
        <time>2019-08-08T07:00:01.000Z</time>
      </trkpt>
      <trkpt lat="42.83182" lon="0.4135">
        <ele>958</ele>
        <time>2019-08-08T07:00:02.000Z</time>
      </trkpt>
      <trkpt lat="42.83173" lon="0.41348">
        <ele>958</ele>
        <time>2019-08-08T07:00:03.000Z</time>
      </trkpt>
      <trkpt lat="42.83163" lon="0.41346">
        <ele>957</ele>
        <time>2019-08-08T07:00:04.000Z</time>
      </trkpt>
      <trkpt lat="42.83154" lon="0.41344">
        <ele>957</ele>
        <time>2019-08-08T07:00:05.000Z</time>
      </trkpt>
      <trkpt lat="42.83144" lon="0.41343">
        <ele>957</ele>
        <time>2019-08-08T07:00:06.000Z</time>
      </trkpt>
      <trkpt lat="42.83134" lon="0.4134">
        <ele>957</ele>
        <time>2019-08-08T07:00:07.000Z</time>
      </trkpt>
      <trkpt lat="42.83124" lon="0.41338">
        <ele>956</ele>
        <time>2019-08-08T07:00:08.000Z</time>
      </trkpt>
      <trkpt lat="42.83114" lon="0.41337">
        <ele>956</ele>
        <time>2019-08-08T07:00:09.000Z</time>
      </trkpt>
      <trkpt lat="42.83104" lon="0.41335">
        <ele>955</ele>
        <time>2019-08-08T07:00:10.000Z</time>
      </trkpt>
      <trkpt lat="42.83095" lon="0.41333">
        <ele>955</ele>
        <time>2019-08-08T07:00:11.000Z</time>
      </trkpt>
      <trkpt lat="42.83085" lon="0.41331">
        <ele>955</ele>
        <time>2019-08-08T07:00:12.000Z</time>
      </trkpt>
      <trkpt lat="42.83075" lon="0.41329">
        <ele>955</ele>
        <time>2019-08-08T07:00:13.000Z</time>
      </trkpt>
      <trkpt lat="42.83065" lon="0.41326">
        <ele>955</ele>
        <time>2019-08-08T07:00:14.000Z</time>
      </trkpt>
      <trkpt lat="42.83056" lon="0.41324">
        <ele>955</ele>
        <time>2019-08-08T07:00:15.000Z</time>
      </trkpt>
      <trkpt lat="42.83046" lon="0.41322">
        <ele>955</ele>
        <time>2019-08-08T07:00:16.000Z</time>
      </trkpt>
      <trkpt lat="42.83036" lon="0.4132">
        <ele>954</ele>
        <time>2019-08-08T07:00:17.000Z</time>
      </trkpt>
      <trkpt lat="42.83027" lon="0.41318">
        <ele>954</ele>
        <time>2019-08-08T07:00:18.000Z</time>
      </trkpt>
      <trkpt lat="42.83017" lon="0.41316">
        <ele>954</ele>
        <time>2019-08-08T07:00:19.000Z</time>
      </trkpt>
      <trkpt lat="42.83008" lon="0.41314">
        <ele>954</ele>
        <time>2019-08-08T07:00:20.000Z</time>
      </trkpt>
      <trkpt lat="42.82998" lon="0.41312">
        <ele>954</ele>
        <time>2019-08-08T07:00:21.000Z</time>
      </trkpt>
      <trkpt lat="42.82989" lon="0.41311">
        <ele>954</ele>
        <time>2019-08-08T07:00:22.000Z</time>
      </trkpt>
      <trkpt lat="42.82979" lon="0.41309">
        <ele>954</ele>
        <time>2019-08-08T07:00:23.000Z</time>
      </trkpt>
      <trkpt lat="42.8297" lon="0.41309">
        <ele>954</ele>
        <time>2019-08-08T07:00:24.000Z</time>
      </trkpt>
      <trkpt lat="42.82961" lon="0.41309">
        <ele>955</ele>
        <time>2019-08-08T07:00:25.000Z</time>
      </trkpt>
      <trkpt lat="42.82952" lon="0.4131">
        <ele>955</ele>
        <time>2019-08-08T07:00:26.000Z</time>
      </trkpt>
      <trkpt lat="42.82944" lon="0.41312">
        <ele>955</ele>
        <time>2019-08-08T07:00:27.000Z</time>
      </trkpt>
      <trkpt lat="42.82936" lon="0.41313">
        <ele>955</ele>
        <time>2019-08-08T07:00:28.000Z</time>
      </trkpt>
      <trkpt lat="42.82928" lon="0.41315">
        <ele>955</ele>
        <time>2019-08-08T07:00:29.000Z</time>
      </trkpt>
      <trkpt lat="42.82921" lon="0.41317">
        <ele>955</ele>
        <time>2019-08-08T07:00:30.000Z</time>
      </trkpt>
      <trkpt lat="42.82914" lon="0.41319">
        <ele>956</ele>
        <time>2019-08-08T07:00:31.000Z</time>
      </trkpt>
      <trkpt lat="42.82907" lon="0.4132">
        <ele>956</ele>
        <time>2019-08-08T07:00:32.000Z</time>
      </trkpt>
      <trkpt lat="42.82901" lon="0.41322">
        <ele>957</ele>
        <time>2019-08-08T07:00:33.000Z</time>
      </trkpt>
      <trkpt lat="42.82894" lon="0.41323">
        <ele>957</ele>
        <time>2019-08-08T07:00:34.000Z</time>
      </trkpt>
      <trkpt lat="42.82888" lon="0.41325">
        <ele>957</ele>
        <time>2019-08-08T07:00:35.000Z</time>
      </trkpt>
      <trkpt lat="42.82883" lon="0.41326">
        <ele>957</ele>
        <time>2019-08-08T07:00:36.000Z</time>
      </trkpt>
      <trkpt lat="42.82877" lon="0.41327">
        <ele>957</ele>
        <time>2019-08-08T07:00:37.000Z</time>
      </trkpt>
      <trkpt lat="42.82871" lon="0.41328">
        <ele>958</ele>
        <time>2019-08-08T07:00:38.000Z</time>
      </trkpt>
      <trkpt lat="42.82866" lon="0.4133">
        <ele>958</ele>
        <time>2019-08-08T07:00:39.000Z</time>
      </trkpt>
      <trkpt lat="42.82861" lon="0.41331">
        <ele>960</ele>
        <time>2019-08-08T07:00:40.000Z</time>
      </trkpt>
      <trkpt lat="42.82856" lon="0.41333">
        <ele>960</ele>
        <time>2019-08-08T07:00:41.000Z</time>
      </trkpt>
      <trkpt lat="42.82851" lon="0.41335">
        <ele>960</ele>
        <time>2019-08-08T07:00:42.000Z</time>
      </trkpt>
      <trkpt lat="42.82846" lon="0.41336">
        <ele>960</ele>
        <time>2019-08-08T07:00:43.000Z</time>
      </trkpt>
      <trkpt lat="42.82841" lon="0.41338">
        <ele>960</ele>
        <time>2019-08-08T07:00:44.000Z</time>
      </trkpt>
      <trkpt lat="42.82836" lon="0.41339">
        <ele>960</ele>
        <time>2019-08-08T07:00:45.000Z</time>
      </trkpt>
      <trkpt lat="42.82832" lon="0.4134">
        <ele>961</ele>
        <time>2019-08-08T07:00:46.000Z</time>
      </trkpt>
      <trkpt lat="42.82828" lon="0.41341">
        <ele>961</ele>
        <time>2019-08-08T07:00:47.000Z</time>
      </trkpt>
      <trkpt lat="42.82823" lon="0.41342">
        <ele>962</ele>
        <time>2019-08-08T07:00:48.000Z</time>
      </trkpt>
      <trkpt lat="42.82823" lon="0.41342">
        <ele>962</ele>
        <time>2019-08-08T07:00:49.000Z</time>
      </trkpt>
      <trkpt lat="42.82815" lon="0.41345">
        <ele>963</ele>
        <time>2019-08-08T07:00:50.000Z</time>
      </trkpt>
      <trkpt lat="42.82811" lon="0.41346">
        <ele>963</ele>
        <time>2019-08-08T07:00:51.000Z</time>
      </trkpt>
      <trkpt lat="42.82807" lon="0.41347">
        <ele>964</ele>
        <time>2019-08-08T07:00:52.000Z</time>
      </trkpt>
      <trkpt lat="42.82803" lon="0.41348">
        <ele>964</ele>
        <time>2019-08-08T07:00:53.000Z</time>
      </trkpt>
      <trkpt lat="42.82799" lon="0.4135">
        <ele>964</ele>
        <time>2019-08-08T07:00:54.000Z</time>
      </trkpt>
      <trkpt lat="42.82795" lon="0.41351">
        <ele>964</ele>
        <time>2019-08-08T07:00:55.000Z</time>
      </trkpt>
      <trkpt lat="42.82792" lon="0.41353">
        <ele>964</ele>
        <time>2019-08-08T07:00:56.000Z</time>
      </trkpt>
      <trkpt lat="42.82788" lon="0.41354">
        <ele>964</ele>
        <time>2019-08-08T07:00:57.000Z</time>
      </trkpt>
      <trkpt lat="42.82784" lon="0.41356">
        <ele>964</ele>
        <time>2019-08-08T07:00:58.000Z</time>
      </trkpt>
      <trkpt lat="42.8278" lon="0.41357">
        <ele>964</ele>
        <time>2019-08-08T07:00:59.000Z</time>
      </trkpt>
      <trkpt lat="42.82777" lon="0.41358">
        <ele>965</ele>
        <time>2019-08-08T07:01:00.000Z</time>
      </trkpt>
      <trkpt lat="42.82773" lon="0.4136">
        <ele>965</ele>
        <time>2019-08-08T07:01:01.000Z</time>
      </trkpt>
      <trkpt lat="42.82771" lon="0.41361">
        <ele>965</ele>
        <time>2019-08-08T07:01:02.000Z</time>
      </trkpt>
      <trkpt lat="42.82768" lon="0.41363">
        <ele>965</ele>
        <time>2019-08-08T07:01:03.000Z</time>
      </trkpt>
      <trkpt lat="42.82764" lon="0.41364">
        <ele>966</ele>
        <time>2019-08-08T07:01:04.000Z</time>
      </trkpt>
      <trkpt lat="42.8276" lon="0.41365">
        <ele>966</ele>
        <time>2019-08-08T07:01:05.000Z</time>
      </trkpt>
      <trkpt lat="42.82757" lon="0.41367">
        <ele>966</ele>
        <time>2019-08-08T07:01:06.000Z</time>
      </trkpt>
      <trkpt lat="42.82753" lon="0.41369">
        <ele>966</ele>
        <time>2019-08-08T07:01:07.000Z</time>
      </trkpt>
      <trkpt lat="42.8275" lon="0.4137">
        <ele>967</ele>
        <time>2019-08-08T07:01:08.000Z</time>
      </trkpt>
      <trkpt lat="42.82746" lon="0.41372">
        <ele>967</ele>
        <time>2019-08-08T07:01:09.000Z</time>
      </trkpt>
      <trkpt lat="42.82746" lon="0.41372">
        <ele>968</ele>
        <time>2019-08-08T07:01:10.000Z</time>
      </trkpt>
      <trkpt lat="42.82739" lon="0.41375">
        <ele>968</ele>
        <time>2019-08-08T07:01:11.000Z</time>
      </trkpt>
      <trkpt lat="42.82736" lon="0.41376">
        <ele>968</ele>
        <time>2019-08-08T07:01:12.000Z</time>
      </trkpt>
      <trkpt lat="42.82732" lon="0.41378">
        <ele>968</ele>
        <time>2019-08-08T07:01:13.000Z</time>
      </trkpt>
      <trkpt lat="42.82729" lon="0.4138">
        <ele>968</ele>
        <time>2019-08-08T07:01:14.000Z</time>
      </trkpt>
      <trkpt lat="42.82725" lon="0.41381">
        <ele>970</ele>
        <time>2019-08-08T07:01:15.000Z</time>
      </trkpt>
      <trkpt lat="42.82722" lon="0.41382">
        <ele>970</ele>
        <time>2019-08-08T07:01:16.000Z</time>
      </trkpt>
      <trkpt lat="42.82719" lon="0.41384">
        <ele>970</ele>
        <time>2019-08-08T07:01:17.000Z</time>
      </trkpt>
      <trkpt lat="42.82716" lon="0.41385">
        <ele>970</ele>
        <time>2019-08-08T07:01:18.000Z</time>
      </trkpt>
      <trkpt lat="42.82712" lon="0.41386">
        <ele>971</ele>
        <time>2019-08-08T07:01:19.000Z</time>
      </trkpt>
      <trkpt lat="42.82709" lon="0.41387">
        <ele>971</ele>
        <time>2019-08-08T07:01:20.000Z</time>
      </trkpt>
      <trkpt lat="42.82706" lon="0.41389">
        <ele>971</ele>
        <time>2019-08-08T07:01:21.000Z</time>
      </trkpt>
      <trkpt lat="42.82703" lon="0.4139">
        <ele>971</ele>
        <time>2019-08-08T07:01:22.000Z</time>
      </trkpt>
      <trkpt lat="42.827" lon="0.41391">
        <ele>971</ele>
        <time>2019-08-08T07:01:23.000Z</time>
      </trkpt>
      <trkpt lat="42.827" lon="0.41391">
        <ele>971</ele>
        <time>2019-08-08T07:01:24.000Z</time>
      </trkpt>
      <trkpt lat="42.82694" lon="0.41392">
        <ele>971</ele>
        <time>2019-08-08T07:01:25.000Z</time>
      </trkpt>
      <trkpt lat="42.8269" lon="0.41393">
        <ele>973</ele>
        <time>2019-08-08T07:01:26.000Z</time>
      </trkpt>
      <trkpt lat="42.82687" lon="0.41393">
        <ele>973</ele>
        <time>2019-08-08T07:01:27.000Z</time>
      </trkpt>
      <trkpt lat="42.82684" lon="0.41394">
        <ele>973</ele>
        <time>2019-08-08T07:01:28.000Z</time>
      </trkpt>
      <trkpt lat="42.82681" lon="0.41395">
        <ele>973</ele>
        <time>2019-08-08T07:01:29.000Z</time>
      </trkpt>
      <trkpt lat="42.82678" lon="0.41396">
        <ele>974</ele>
        <time>2019-08-08T07:01:30.000Z</time>
      </trkpt>
      <trkpt lat="42.82676" lon="0.41397">
        <ele>974</ele>
        <time>2019-08-08T07:01:31.000Z</time>
      </trkpt>
      <trkpt lat="42.82672" lon="0.41397">
        <ele>974</ele>
        <time>2019-08-08T07:01:32.000Z</time>
      </trkpt>
      <trkpt lat="42.82669" lon="0.41398">
        <ele>974</ele>
        <time>2019-08-08T07:01:33.000Z</time>
      </trkpt>
      <trkpt lat="42.82667" lon="0.41399">
        <ele>975</ele>
        <time>2019-08-08T07:01:34.000Z</time>
      </trkpt>
      <trkpt lat="42.82664" lon="0.414">
        <ele>975</ele>
        <time>2019-08-08T07:01:35.000Z</time>
      </trkpt>
      <trkpt lat="42.82661" lon="0.41401">
        <ele>976</ele>
        <time>2019-08-08T07:01:36.000Z</time>
      </trkpt>
      <trkpt lat="42.82658" lon="0.41401">
        <ele>976</ele>
        <time>2019-08-08T07:01:37.000Z</time>
      </trkpt>
      <trkpt lat="42.82655" lon="0.41402">
        <ele>977</ele>
        <time>2019-08-08T07:01:38.000Z</time>
      </trkpt>
      <trkpt lat="42.82655" lon="0.41402">
        <ele>977</ele>
        <time>2019-08-08T07:01:39.000Z</time>
      </trkpt>
      <trkpt lat="42.82649" lon="0.41403">
        <ele>977</ele>
        <time>2019-08-08T07:01:40.000Z</time>
      </trkpt>
      <trkpt lat="42.82646" lon="0.41404">
        <ele>977</ele>
        <time>2019-08-08T07:01:41.000Z</time>
      </trkpt>
      <trkpt lat="42.82643" lon="0.41405">
        <ele>977</ele>
        <time>2019-08-08T07:01:42.000Z</time>
      </trkpt>
      <trkpt lat="42.8264" lon="0.41405">
        <ele>977</ele>
        <time>2019-08-08T07:01:43.000Z</time>
      </trkpt>
      <trkpt lat="42.82637" lon="0.41405">
        <ele>977</ele>
        <time>2019-08-08T07:01:44.000Z</time>
      </trkpt>
      <trkpt lat="42.82634" lon="0.41405">
        <ele>977</ele>
        <time>2019-08-08T07:01:45.000Z</time>
      </trkpt>
      <trkpt lat="42.82631" lon="0.41405">
        <ele>977</ele>
        <time>2019-08-08T07:01:46.000Z</time>
      </trkpt>
      <trkpt lat="42.82628" lon="0.41406">
        <ele>977</ele>
        <time>2019-08-08T07:01:47.000Z</time>
      </trkpt>
      <trkpt lat="42.82626" lon="0.41406">
        <ele>978</ele>
        <time>2019-08-08T07:01:48.000Z</time>
      </trkpt>
      <trkpt lat="42.82623" lon="0.41406">
        <ele>978</ele>
        <time>2019-08-08T07:01:49.000Z</time>
      </trkpt>
      <trkpt lat="42.8262" lon="0.41405">
        <ele>978</ele>
        <time>2019-08-08T07:01:50.000Z</time>
      </trkpt>
      <trkpt lat="42.82617" lon="0.41405">
        <ele>978</ele>
        <time>2019-08-08T07:01:51.000Z</time>
      </trkpt>
      <trkpt lat="42.82614" lon="0.41405">
        <ele>979</ele>
        <time>2019-08-08T07:01:52.000Z</time>
      </trkpt>
      <trkpt lat="42.82612" lon="0.41404">
        <ele>979</ele>
        <time>2019-08-08T07:01:53.000Z</time>
      </trkpt>
      <trkpt lat="42.82609" lon="0.41403">
        <ele>980</ele>
        <time>2019-08-08T07:01:54.000Z</time>
      </trkpt>
      <trkpt lat="42.82606" lon="0.41403">
        <ele>980</ele>
        <time>2019-08-08T07:01:55.000Z</time>
      </trkpt>
      <trkpt lat="42.82603" lon="0.41403">
        <ele>980</ele>
        <time>2019-08-08T07:01:56.000Z</time>
      </trkpt>
      <trkpt lat="42.826" lon="0.41403">
        <ele>980</ele>
        <time>2019-08-08T07:01:57.000Z</time>
      </trkpt>
      <trkpt lat="42.82598" lon="0.41403">
        <ele>980</ele>
        <time>2019-08-08T07:01:58.000Z</time>
      </trkpt>
      <trkpt lat="42.82595" lon="0.41404">
        <ele>981</ele>
        <time>2019-08-08T07:01:59.000Z</time>
      </trkpt>
      <trkpt lat="42.82593" lon="0.41405">
        <ele>981</ele>
        <time>2019-08-08T07:02:00.000Z</time>
      </trkpt>
      <trkpt lat="42.82591" lon="0.41407">
        <ele>982</ele>
        <time>2019-08-08T07:02:01.000Z</time>
      </trkpt>
      <trkpt lat="42.8259" lon="0.4141">
        <ele>982</ele>
        <time>2019-08-08T07:02:02.000Z</time>
      </trkpt>
      <trkpt lat="42.82588" lon="0.41413">
        <ele>983</ele>
        <time>2019-08-08T07:02:03.000Z</time>
      </trkpt>
      <trkpt lat="42.82586" lon="0.41416">
        <ele>983</ele>
        <time>2019-08-08T07:02:04.000Z</time>
      </trkpt>
      <trkpt lat="42.82585" lon="0.41419">
        <ele>983</ele>
        <time>2019-08-08T07:02:05.000Z</time>
      </trkpt>
      <trkpt lat="42.82584" lon="0.41423">
        <ele>983</ele>
        <time>2019-08-08T07:02:06.000Z</time>
      </trkpt>
      <trkpt lat="42.82583" lon="0.41426">
        <ele>983</ele>
        <time>2019-08-08T07:02:07.000Z</time>
      </trkpt>
      <trkpt lat="42.82581" lon="0.4143">
        <ele>983</ele>
        <time>2019-08-08T07:02:08.000Z</time>
      </trkpt>
      <trkpt lat="42.8258" lon="0.41433">
        <ele>984</ele>
        <time>2019-08-08T07:02:09.000Z</time>
      </trkpt>
      <trkpt lat="42.82579" lon="0.41436">
        <ele>984</ele>
        <time>2019-08-08T07:02:10.000Z</time>
      </trkpt>
      <trkpt lat="42.82579" lon="0.4144">
        <ele>985</ele>
        <time>2019-08-08T07:02:11.000Z</time>
      </trkpt>
      <trkpt lat="42.82578" lon="0.41444">
        <ele>985</ele>
        <time>2019-08-08T07:02:12.000Z</time>
      </trkpt>
      <trkpt lat="42.82578" lon="0.41447">
        <ele>985</ele>
        <time>2019-08-08T07:02:13.000Z</time>
      </trkpt>
      <trkpt lat="42.82577" lon="0.41451">
        <ele>985</ele>
        <time>2019-08-08T07:02:14.000Z</time>
      </trkpt>
      <trkpt lat="42.82576" lon="0.41455">
        <ele>986</ele>
        <time>2019-08-08T07:02:15.000Z</time>
      </trkpt>
      <trkpt lat="42.82575" lon="0.41458">
        <ele>986</ele>
        <time>2019-08-08T07:02:16.000Z</time>
      </trkpt>
      <trkpt lat="42.82574" lon="0.41462">
        <ele>987</ele>
        <time>2019-08-08T07:02:17.000Z</time>
      </trkpt>
      <trkpt lat="42.82572" lon="0.41466">
        <ele>987</ele>
        <time>2019-08-08T07:02:18.000Z</time>
      </trkpt>
      <trkpt lat="42.82571" lon="0.41469">
        <ele>987</ele>
        <time>2019-08-08T07:02:19.000Z</time>
      </trkpt>
      <trkpt lat="42.82569" lon="0.41472">
        <ele>987</ele>
        <time>2019-08-08T07:02:20.000Z</time>
      </trkpt>
      <trkpt lat="42.82567" lon="0.41474">
        <ele>987</ele>
        <time>2019-08-08T07:02:21.000Z</time>
      </trkpt>
      <trkpt lat="42.82565" lon="0.41477">
        <ele>987</ele>
        <time>2019-08-08T07:02:22.000Z</time>
      </trkpt>
      <trkpt lat="42.82562" lon="0.41479">
        <ele>988</ele>
        <time>2019-08-08T07:02:23.000Z</time>
      </trkpt>
      <trkpt lat="42.8256" lon="0.4148">
        <ele>988</ele>
        <time>2019-08-08T07:02:24.000Z</time>
      </trkpt>
      <trkpt lat="42.82557" lon="0.41481">
        <ele>988</ele>
        <time>2019-08-08T07:02:25.000Z</time>
      </trkpt>
      <trkpt lat="42.82555" lon="0.41483">
        <ele>988</ele>
        <time>2019-08-08T07:02:26.000Z</time>
      </trkpt>
      <trkpt lat="42.82552" lon="0.41485">
        <ele>988</ele>
        <time>2019-08-08T07:02:27.000Z</time>
      </trkpt>
      <trkpt lat="42.8255" lon="0.41487">
        <ele>989</ele>
        <time>2019-08-08T07:02:28.000Z</time>
      </trkpt>
      <trkpt lat="42.82547" lon="0.41489">
        <ele>989</ele>
        <time>2019-08-08T07:02:29.000Z</time>
      </trkpt>
      <trkpt lat="42.82545" lon="0.41491">
        <ele>991</ele>
        <time>2019-08-08T07:02:30.000Z</time>
      </trkpt>
      <trkpt lat="42.82543" lon="0.41493">
        <ele>991</ele>
        <time>2019-08-08T07:02:31.000Z</time>
      </trkpt>
      <trkpt lat="42.8254" lon="0.41495">
        <ele>991</ele>
        <time>2019-08-08T07:02:32.000Z</time>
      </trkpt>
      <trkpt lat="42.82537" lon="0.41497">
        <ele>991</ele>
        <time>2019-08-08T07:02:33.000Z</time>
      </trkpt>
      <trkpt lat="42.82535" lon="0.41499">
        <ele>991</ele>
        <time>2019-08-08T07:02:34.000Z</time>
      </trkpt>
      <trkpt lat="42.82533" lon="0.41501">
        <ele>991</ele>
        <time>2019-08-08T07:02:35.000Z</time>
      </trkpt>
      <trkpt lat="42.8253" lon="0.41503">
        <ele>991</ele>
        <time>2019-08-08T07:02:36.000Z</time>
      </trkpt>
      <trkpt lat="42.82528" lon="0.41505">
        <ele>991</ele>
        <time>2019-08-08T07:02:37.000Z</time>
      </trkpt>
      <trkpt lat="42.82525" lon="0.41506">
        <ele>991</ele>
        <time>2019-08-08T07:02:38.000Z</time>
      </trkpt>
      <trkpt lat="42.82522" lon="0.41506">
        <ele>991</ele>
        <time>2019-08-08T07:02:39.000Z</time>
      </trkpt>
      <trkpt lat="42.82519" lon="0.41506">
        <ele>992</ele>
        <time>2019-08-08T07:02:40.000Z</time>
      </trkpt>
      <trkpt lat="42.82516" lon="0.41506">
        <ele>992</ele>
        <time>2019-08-08T07:02:41.000Z</time>
      </trkpt>
      <trkpt lat="42.82513" lon="0.41504">
        <ele>992</ele>
        <time>2019-08-08T07:02:42.000Z</time>
      </trkpt>
      <trkpt lat="42.8251" lon="0.41503">
        <ele>992</ele>
        <time>2019-08-08T07:02:43.000Z</time>
      </trkpt>
      <trkpt lat="42.82508" lon="0.415">
        <ele>993</ele>
        <time>2019-08-08T07:02:44.000Z</time>
      </trkpt>
      <trkpt lat="42.82505" lon="0.41498">
        <ele>993</ele>
        <time>2019-08-08T07:02:45.000Z</time>
      </trkpt>
      <trkpt lat="42.82503" lon="0.41495">
        <ele>993</ele>
        <time>2019-08-08T07:02:46.000Z</time>
      </trkpt>
      <trkpt lat="42.82501" lon="0.41492">
        <ele>994</ele>
        <time>2019-08-08T07:02:47.000Z</time>
      </trkpt>
      <trkpt lat="42.82499" lon="0.4149">
        <ele>994</ele>
        <time>2019-08-08T07:02:48.000Z</time>
      </trkpt>
      <trkpt lat="42.82498" lon="0.41487">
        <ele>995</ele>
        <time>2019-08-08T07:02:49.000Z</time>
      </trkpt>
      <trkpt lat="42.82496" lon="0.41485">
        <ele>995</ele>
        <time>2019-08-08T07:02:50.000Z</time>
      </trkpt>
      <trkpt lat="42.82494" lon="0.41483">
        <ele>996</ele>
        <time>2019-08-08T07:02:51.000Z</time>
      </trkpt>
      <trkpt lat="42.82491" lon="0.41481">
        <ele>996</ele>
        <time>2019-08-08T07:02:52.000Z</time>
      </trkpt>
      <trkpt lat="42.82489" lon="0.41479">
        <ele>997</ele>
        <time>2019-08-08T07:02:53.000Z</time>
      </trkpt>
      <trkpt lat="42.82487" lon="0.41477">
        <ele>997</ele>
        <time>2019-08-08T07:02:54.000Z</time>
      </trkpt>
      <trkpt lat="42.82484" lon="0.41475">
        <ele>997</ele>
        <time>2019-08-08T07:02:55.000Z</time>
      </trkpt>
      <trkpt lat="42.82481" lon="0.41473">
        <ele>997</ele>
        <time>2019-08-08T07:02:56.000Z</time>
      </trkpt>
      <trkpt lat="42.82479" lon="0.41472">
        <ele>997</ele>
        <time>2019-08-08T07:02:57.000Z</time>
      </trkpt>
      <trkpt lat="42.82476" lon="0.4147">
        <ele>997</ele>
        <time>2019-08-08T07:02:58.000Z</time>
      </trkpt>
      <trkpt lat="42.82476" lon="0.4147">
        <ele>998</ele>
        <time>2019-08-08T07:02:59.000Z</time>
      </trkpt>
      <trkpt lat="42.82471" lon="0.41469">
        <ele>998</ele>
        <time>2019-08-08T07:03:00.000Z</time>
      </trkpt>
      <trkpt lat="42.82468" lon="0.41468">
        <ele>998</ele>
        <time>2019-08-08T07:03:01.000Z</time>
      </trkpt>
      <trkpt lat="42.82465" lon="0.41468">
        <ele>998</ele>
        <time>2019-08-08T07:03:02.000Z</time>
      </trkpt>
      <trkpt lat="42.82462" lon="0.41468">
        <ele>999</ele>
        <time>2019-08-08T07:03:03.000Z</time>
      </trkpt>
      <trkpt lat="42.82459" lon="0.41469">
        <ele>999</ele>
        <time>2019-08-08T07:03:04.000Z</time>
      </trkpt>
      <trkpt lat="42.82456" lon="0.4147">
        <ele>999</ele>
        <time>2019-08-08T07:03:05.000Z</time>
      </trkpt>
      <trkpt lat="42.82454" lon="0.4147">
        <ele>999</ele>
        <time>2019-08-08T07:03:06.000Z</time>
      </trkpt>
      <trkpt lat="42.8245" lon="0.41471">
        <ele>999</ele>
        <time>2019-08-08T07:03:07.000Z</time>
      </trkpt>
      <trkpt lat="42.82448" lon="0.41471">
        <ele>1000</ele>
        <time>2019-08-08T07:03:08.000Z</time>
      </trkpt>
      <trkpt lat="42.82447" lon="0.41471">
        <ele>1000</ele>
        <time>2019-08-08T07:03:09.000Z</time>
      </trkpt>
      <trkpt lat="42.82445" lon="0.41472">
        <ele>1000</ele>
        <time>2019-08-08T07:03:10.000Z</time>
      </trkpt>
      <trkpt lat="42.82439" lon="0.41473">
        <ele>1000</ele>
        <time>2019-08-08T07:03:11.000Z</time>
      </trkpt>
      <trkpt lat="42.82437" lon="0.41474">
        <ele>1001</ele>
        <time>2019-08-08T07:03:12.000Z</time>
      </trkpt>
      <trkpt lat="42.82433" lon="0.41474">
        <ele>1001</ele>
        <time>2019-08-08T07:03:13.000Z</time>
      </trkpt>
      <trkpt lat="42.82431" lon="0.41474">
        <ele>1001</ele>
        <time>2019-08-08T07:03:14.000Z</time>
      </trkpt>
      <trkpt lat="42.8243" lon="0.41474">
        <ele>1001</ele>
        <time>2019-08-08T07:03:15.000Z</time>
      </trkpt>
      <trkpt lat="42.82429" lon="0.41474">
        <ele>1002</ele>
        <time>2019-08-08T07:03:16.000Z</time>
      </trkpt>
      <trkpt lat="42.82423" lon="0.41474">
        <ele>1002</ele>
        <time>2019-08-08T07:03:17.000Z</time>
      </trkpt>
      <trkpt lat="42.82423" lon="0.41474">
        <ele>1002</ele>
        <time>2019-08-08T07:03:18.000Z</time>
      </trkpt>
      <trkpt lat="42.82423" lon="0.41474">
        <ele>1002</ele>
        <time>2019-08-08T07:03:19.000Z</time>
      </trkpt>
      <trkpt lat="42.82415" lon="0.41474">
        <ele>1003</ele>
        <time>2019-08-08T07:03:20.000Z</time>
      </trkpt>
      <trkpt lat="42.82412" lon="0.41475">
        <ele>1003</ele>
        <time>2019-08-08T07:03:21.000Z</time>
      </trkpt>
      <trkpt lat="42.82409" lon="0.41475">
        <ele>1004</ele>
        <time>2019-08-08T07:03:22.000Z</time>
      </trkpt>
      <trkpt lat="42.82407" lon="0.41476">
        <ele>1004</ele>
        <time>2019-08-08T07:03:23.000Z</time>
      </trkpt>
      <trkpt lat="42.82404" lon="0.41477">
        <ele>1004</ele>
        <time>2019-08-08T07:03:24.000Z</time>
      </trkpt>
      <trkpt lat="42.82401" lon="0.41477">
        <ele>1004</ele>
        <time>2019-08-08T07:03:25.000Z</time>
      </trkpt>
      <trkpt lat="42.82399" lon="0.41478">
        <ele>1005</ele>
        <time>2019-08-08T07:03:26.000Z</time>
      </trkpt>
      <trkpt lat="42.82396" lon="0.4148">
        <ele>1005</ele>
        <time>2019-08-08T07:03:27.000Z</time>
      </trkpt>
      <trkpt lat="42.82394" lon="0.41481">
        <ele>1005</ele>
        <time>2019-08-08T07:03:28.000Z</time>
      </trkpt>
      <trkpt lat="42.82391" lon="0.41483">
        <ele>1005</ele>
        <time>2019-08-08T07:03:29.000Z</time>
      </trkpt>
      <trkpt lat="42.82389" lon="0.41485">
        <ele>1006</ele>
        <time>2019-08-08T07:03:30.000Z</time>
      </trkpt>
      <trkpt lat="42.82387" lon="0.41488">
        <ele>1006</ele>
        <time>2019-08-08T07:03:31.000Z</time>
      </trkpt>
      <trkpt lat="42.82385" lon="0.4149">
        <ele>1006</ele>
        <time>2019-08-08T07:03:32.000Z</time>
      </trkpt>
      <trkpt lat="42.82383" lon="0.41493">
        <ele>1006</ele>
        <time>2019-08-08T07:03:33.000Z</time>
      </trkpt>
      <trkpt lat="42.82381" lon="0.41495">
        <ele>1006</ele>
        <time>2019-08-08T07:03:34.000Z</time>
      </trkpt>
      <trkpt lat="42.82379" lon="0.41498">
        <ele>1006</ele>
        <time>2019-08-08T07:03:35.000Z</time>
      </trkpt>
      <trkpt lat="42.82376" lon="0.415">
        <ele>1008</ele>
        <time>2019-08-08T07:03:36.000Z</time>
      </trkpt>
      <trkpt lat="42.82374" lon="0.41502">
        <ele>1008</ele>
        <time>2019-08-08T07:03:37.000Z</time>
      </trkpt>
      <trkpt lat="42.82372" lon="0.41505">
        <ele>1009</ele>
        <time>2019-08-08T07:03:38.000Z</time>
      </trkpt>
      <trkpt lat="42.8237" lon="0.41507">
        <ele>1009</ele>
        <time>2019-08-08T07:03:39.000Z</time>
      </trkpt>
      <trkpt lat="42.82368" lon="0.4151">
        <ele>1009</ele>
        <time>2019-08-08T07:03:40.000Z</time>
      </trkpt>
      <trkpt lat="42.82366" lon="0.41513">
        <ele>1009</ele>
        <time>2019-08-08T07:03:41.000Z</time>
      </trkpt>
      <trkpt lat="42.82364" lon="0.41516">
        <ele>1010</ele>
        <time>2019-08-08T07:03:42.000Z</time>
      </trkpt>
      <trkpt lat="42.82362" lon="0.41518">
        <ele>1010</ele>
        <time>2019-08-08T07:03:43.000Z</time>
      </trkpt>
      <trkpt lat="42.8236" lon="0.41521">
        <ele>1010</ele>
        <time>2019-08-08T07:03:44.000Z</time>
      </trkpt>
      <trkpt lat="42.82358" lon="0.41524">
        <ele>1010</ele>
        <time>2019-08-08T07:03:45.000Z</time>
      </trkpt>
      <trkpt lat="42.82356" lon="0.41527">
        <ele>1010</ele>
        <time>2019-08-08T07:03:46.000Z</time>
      </trkpt>
      <trkpt lat="42.82354" lon="0.4153">
        <ele>1011</ele>
        <time>2019-08-08T07:03:47.000Z</time>
      </trkpt>
      <trkpt lat="42.82353" lon="0.41533">
        <ele>1011</ele>
        <time>2019-08-08T07:03:48.000Z</time>
      </trkpt>
      <trkpt lat="42.82351" lon="0.41536">
        <ele>1011</ele>
        <time>2019-08-08T07:03:49.000Z</time>
      </trkpt>
      <trkpt lat="42.82349" lon="0.41538">
        <ele>1011</ele>
        <time>2019-08-08T07:03:50.000Z</time>
      </trkpt>
      <trkpt lat="42.82347" lon="0.41542">
        <ele>1012</ele>
        <time>2019-08-08T07:03:51.000Z</time>
      </trkpt>
      <trkpt lat="42.82346" lon="0.41545">
        <ele>1012</ele>
        <time>2019-08-08T07:03:52.000Z</time>
      </trkpt>
      <trkpt lat="42.82344" lon="0.41548">
        <ele>1012</ele>
        <time>2019-08-08T07:03:53.000Z</time>
      </trkpt>
      <trkpt lat="42.82342" lon="0.41551">
        <ele>1012</ele>
        <time>2019-08-08T07:03:54.000Z</time>
      </trkpt>
      <trkpt lat="42.8234" lon="0.41554">
        <ele>1013</ele>
        <time>2019-08-08T07:03:55.000Z</time>
      </trkpt>
      <trkpt lat="42.82339" lon="0.41557">
        <ele>1013</ele>
        <time>2019-08-08T07:03:56.000Z</time>
      </trkpt>
      <trkpt lat="42.82337" lon="0.4156">
        <ele>1013</ele>
        <time>2019-08-08T07:03:57.000Z</time>
      </trkpt>
      <trkpt lat="42.82335" lon="0.41563">
        <ele>1013</ele>
        <time>2019-08-08T07:03:58.000Z</time>
      </trkpt>
      <trkpt lat="42.82333" lon="0.41566">
        <ele>1014</ele>
        <time>2019-08-08T07:03:59.000Z</time>
      </trkpt>
      <trkpt lat="42.82331" lon="0.41569">
        <ele>1013</ele>
        <time>2019-08-08T07:04:00.000Z</time>
      </trkpt>
      <trkpt lat="42.82329" lon="0.41571">
        <ele>1013</ele>
        <time>2019-08-08T07:04:01.000Z</time>
      </trkpt>
      <trkpt lat="42.82327" lon="0.41574">
        <ele>1013</ele>
        <time>2019-08-08T07:04:02.000Z</time>
      </trkpt>
      <trkpt lat="42.82327" lon="0.41574">
        <ele>1013</ele>
        <time>2019-08-08T07:04:03.000Z</time>
      </trkpt>
      <trkpt lat="42.82323" lon="0.41579">
        <ele>1015</ele>
        <time>2019-08-08T07:04:04.000Z</time>
      </trkpt>
      <trkpt lat="42.82321" lon="0.41582">
        <ele>1015</ele>
        <time>2019-08-08T07:04:05.000Z</time>
      </trkpt>
      <trkpt lat="42.82319" lon="0.41584">
        <ele>1015</ele>
        <time>2019-08-08T07:04:06.000Z</time>
      </trkpt>
      <trkpt lat="42.82317" lon="0.41586">
        <ele>1015</ele>
        <time>2019-08-08T07:04:07.000Z</time>
      </trkpt>
      <trkpt lat="42.82314" lon="0.41587">
        <ele>1016</ele>
        <time>2019-08-08T07:04:08.000Z</time>
      </trkpt>
      <trkpt lat="42.82311" lon="0.41588">
        <ele>1016</ele>
        <time>2019-08-08T07:04:09.000Z</time>
      </trkpt>
      <trkpt lat="42.82311" lon="0.41588">
        <ele>1017</ele>
        <time>2019-08-08T07:04:10.000Z</time>
      </trkpt>
      <trkpt lat="42.82306" lon="0.41589">
        <ele>1017</ele>
        <time>2019-08-08T07:04:11.000Z</time>
      </trkpt>
      <trkpt lat="42.82304" lon="0.41591">
        <ele>1017</ele>
        <time>2019-08-08T07:04:12.000Z</time>
      </trkpt>
      <trkpt lat="42.82301" lon="0.41593">
        <ele>1017</ele>
        <time>2019-08-08T07:04:13.000Z</time>
      </trkpt>
      <trkpt lat="42.82299" lon="0.41594">
        <ele>1018</ele>
        <time>2019-08-08T07:04:14.000Z</time>
      </trkpt>
      <trkpt lat="42.82296" lon="0.41596">
        <ele>1018</ele>
        <time>2019-08-08T07:04:15.000Z</time>
      </trkpt>
      <trkpt lat="42.82294" lon="0.41598">
        <ele>1019</ele>
        <time>2019-08-08T07:04:16.000Z</time>
      </trkpt>
      <trkpt lat="42.82291" lon="0.41599">
        <ele>1019</ele>
        <time>2019-08-08T07:04:17.000Z</time>
      </trkpt>
      <trkpt lat="42.82289" lon="0.41601">
        <ele>1019</ele>
        <time>2019-08-08T07:04:18.000Z</time>
      </trkpt>
      <trkpt lat="42.82285" lon="0.41604">
        <ele>1019</ele>
        <time>2019-08-08T07:04:19.000Z</time>
      </trkpt>
      <trkpt lat="42.82284" lon="0.41604">
        <ele>1019</ele>
        <time>2019-08-08T07:04:20.000Z</time>
      </trkpt>
      <trkpt lat="42.82281" lon="0.41606">
        <ele>1019</ele>
        <time>2019-08-08T07:04:21.000Z</time>
      </trkpt>
      <trkpt lat="42.82279" lon="0.41608">
        <ele>1020</ele>
        <time>2019-08-08T07:04:22.000Z</time>
      </trkpt>
      <trkpt lat="42.82276" lon="0.4161">
        <ele>1020</ele>
        <time>2019-08-08T07:04:23.000Z</time>
      </trkpt>
      <trkpt lat="42.82274" lon="0.41612">
        <ele>1020</ele>
        <time>2019-08-08T07:04:24.000Z</time>
      </trkpt>
      <trkpt lat="42.82271" lon="0.41614">
        <ele>1020</ele>
        <time>2019-08-08T07:04:25.000Z</time>
      </trkpt>
      <trkpt lat="42.82269" lon="0.41616">
        <ele>1020</ele>
        <time>2019-08-08T07:04:26.000Z</time>
      </trkpt>
      <trkpt lat="42.82266" lon="0.41618">
        <ele>1021</ele>
        <time>2019-08-08T07:04:27.000Z</time>
      </trkpt>
      <trkpt lat="42.82264" lon="0.4162">
        <ele>1021</ele>
        <time>2019-08-08T07:04:28.000Z</time>
      </trkpt>
      <trkpt lat="42.82262" lon="0.41622">
        <ele>1022</ele>
        <time>2019-08-08T07:04:29.000Z</time>
      </trkpt>
      <trkpt lat="42.82259" lon="0.41624">
        <ele>1022</ele>
        <time>2019-08-08T07:04:30.000Z</time>
      </trkpt>
      <trkpt lat="42.82256" lon="0.41625">
        <ele>1022</ele>
        <time>2019-08-08T07:04:31.000Z</time>
      </trkpt>
      <trkpt lat="42.82254" lon="0.41627">
        <ele>1022</ele>
        <time>2019-08-08T07:04:32.000Z</time>
      </trkpt>
      <trkpt lat="42.82252" lon="0.41629">
        <ele>1023</ele>
        <time>2019-08-08T07:04:33.000Z</time>
      </trkpt>
      <trkpt lat="42.82249" lon="0.41631">
        <ele>1023</ele>
        <time>2019-08-08T07:04:34.000Z</time>
      </trkpt>
      <trkpt lat="42.82246" lon="0.41632">
        <ele>1023</ele>
        <time>2019-08-08T07:04:35.000Z</time>
      </trkpt>
      <trkpt lat="42.82244" lon="0.41634">
        <ele>1023</ele>
        <time>2019-08-08T07:04:36.000Z</time>
      </trkpt>
      <trkpt lat="42.82241" lon="0.41636">
        <ele>1024</ele>
        <time>2019-08-08T07:04:37.000Z</time>
      </trkpt>
      <trkpt lat="42.82239" lon="0.41638">
        <ele>1024</ele>
        <time>2019-08-08T07:04:38.000Z</time>
      </trkpt>
      <trkpt lat="42.82236" lon="0.41639">
        <ele>1025</ele>
        <time>2019-08-08T07:04:39.000Z</time>
      </trkpt>
      <trkpt lat="42.82234" lon="0.41641">
        <ele>1025</ele>
        <time>2019-08-08T07:04:40.000Z</time>
      </trkpt>
      <trkpt lat="42.82232" lon="0.41643">
        <ele>1025</ele>
        <time>2019-08-08T07:04:41.000Z</time>
      </trkpt>
      <trkpt lat="42.82229" lon="0.41645">
        <ele>1025</ele>
        <time>2019-08-08T07:04:42.000Z</time>
      </trkpt>
      <trkpt lat="42.82227" lon="0.41647">
        <ele>1025</ele>
        <time>2019-08-08T07:04:43.000Z</time>
      </trkpt>
      <trkpt lat="42.82224" lon="0.41649">
        <ele>1026</ele>
        <time>2019-08-08T07:04:44.000Z</time>
      </trkpt>
      <trkpt lat="42.82222" lon="0.41651">
        <ele>1026</ele>
        <time>2019-08-08T07:04:45.000Z</time>
      </trkpt>
      <trkpt lat="42.82219" lon="0.41653">
        <ele>1026</ele>
        <time>2019-08-08T07:04:46.000Z</time>
      </trkpt>
      <trkpt lat="42.82217" lon="0.41654">
        <ele>1026</ele>
        <time>2019-08-08T07:04:47.000Z</time>
      </trkpt>
      <trkpt lat="42.82215" lon="0.41655">
        <ele>1027</ele>
        <time>2019-08-08T07:04:48.000Z</time>
      </trkpt>
      <trkpt lat="42.82215" lon="0.41655">
        <ele>1027</ele>
        <time>2019-08-08T07:04:49.000Z</time>
      </trkpt>
      <trkpt lat="42.82209" lon="0.41658">
        <ele>1028</ele>
        <time>2019-08-08T07:04:50.000Z</time>
      </trkpt>
      <trkpt lat="42.82209" lon="0.41658">
        <ele>1028</ele>
        <time>2019-08-08T07:04:51.000Z</time>
      </trkpt>
      <trkpt lat="42.82209" lon="0.41658">
        <ele>1028</ele>
        <time>2019-08-08T07:04:52.000Z</time>
      </trkpt>
      <trkpt lat="42.82201" lon="0.41662">
        <ele>1028</ele>
        <time>2019-08-08T07:04:53.000Z</time>
      </trkpt>
      <trkpt lat="42.82198" lon="0.41663">
        <ele>1029</ele>
        <time>2019-08-08T07:04:54.000Z</time>
      </trkpt>
      <trkpt lat="42.82198" lon="0.41663">
        <ele>1029</ele>
        <time>2019-08-08T07:04:55.000Z</time>
      </trkpt>
      <trkpt lat="42.82193" lon="0.41666">
        <ele>1029</ele>
        <time>2019-08-08T07:04:56.000Z</time>
      </trkpt>
      <trkpt lat="42.82189" lon="0.41669">
        <ele>1029</ele>
        <time>2019-08-08T07:04:57.000Z</time>
      </trkpt>
      <trkpt lat="42.82187" lon="0.4167">
        <ele>1029</ele>
        <time>2019-08-08T07:04:58.000Z</time>
      </trkpt>
      <trkpt lat="42.82185" lon="0.41672">
        <ele>1029</ele>
        <time>2019-08-08T07:04:59.000Z</time>
      </trkpt>
      <trkpt lat="42.82182" lon="0.41674">
        <ele>1029</ele>
        <time>2019-08-08T07:05:00.000Z</time>
      </trkpt>
      <trkpt lat="42.8218" lon="0.41676">
        <ele>1030</ele>
        <time>2019-08-08T07:05:01.000Z</time>
      </trkpt>
      <trkpt lat="42.82177" lon="0.41678">
        <ele>1030</ele>
        <time>2019-08-08T07:05:02.000Z</time>
      </trkpt>
      <trkpt lat="42.82175" lon="0.4168">
        <ele>1030</ele>
        <time>2019-08-08T07:05:03.000Z</time>
      </trkpt>
      <trkpt lat="42.82172" lon="0.41681">
        <ele>1030</ele>
        <time>2019-08-08T07:05:04.000Z</time>
      </trkpt>
      <trkpt lat="42.8217" lon="0.41683">
        <ele>1030</ele>
        <time>2019-08-08T07:05:05.000Z</time>
      </trkpt>
      <trkpt lat="42.82167" lon="0.41685">
        <ele>1030</ele>
        <time>2019-08-08T07:05:06.000Z</time>
      </trkpt>
      <trkpt lat="42.82165" lon="0.41687">
        <ele>1032</ele>
        <time>2019-08-08T07:05:07.000Z</time>
      </trkpt>
      <trkpt lat="42.82162" lon="0.41688">
        <ele>1032</ele>
        <time>2019-08-08T07:05:08.000Z</time>
      </trkpt>
      <trkpt lat="42.8216" lon="0.4169">
        <ele>1032</ele>
        <time>2019-08-08T07:05:09.000Z</time>
      </trkpt>
      <trkpt lat="42.82157" lon="0.41692">
        <ele>1032</ele>
        <time>2019-08-08T07:05:10.000Z</time>
      </trkpt>
      <trkpt lat="42.82155" lon="0.41694">
        <ele>1033</ele>
        <time>2019-08-08T07:05:11.000Z</time>
      </trkpt>
      <trkpt lat="42.82152" lon="0.41696">
        <ele>1033</ele>
        <time>2019-08-08T07:05:12.000Z</time>
      </trkpt>
      <trkpt lat="42.8215" lon="0.41698">
        <ele>1033</ele>
        <time>2019-08-08T07:05:13.000Z</time>
      </trkpt>
      <trkpt lat="42.82147" lon="0.41699">
        <ele>1033</ele>
        <time>2019-08-08T07:05:14.000Z</time>
      </trkpt>
      <trkpt lat="42.82145" lon="0.41701">
        <ele>1033</ele>
        <time>2019-08-08T07:05:15.000Z</time>
      </trkpt>
      <trkpt lat="42.82143" lon="0.41703">
        <ele>1033</ele>
        <time>2019-08-08T07:05:16.000Z</time>
      </trkpt>
      <trkpt lat="42.82141" lon="0.41705">
        <ele>1034</ele>
        <time>2019-08-08T07:05:17.000Z</time>
      </trkpt>
      <trkpt lat="42.82141" lon="0.41705">
        <ele>1034</ele>
        <time>2019-08-08T07:05:18.000Z</time>
      </trkpt>
      <trkpt lat="42.82141" lon="0.41705">
        <ele>1034</ele>
        <time>2019-08-08T07:05:19.000Z</time>
      </trkpt>
      <trkpt lat="42.82134" lon="0.4171">
        <ele>1034</ele>
        <time>2019-08-08T07:05:20.000Z</time>
      </trkpt>
      <trkpt lat="42.82134" lon="0.4171">
        <ele>1034</ele>
        <time>2019-08-08T07:05:21.000Z</time>
      </trkpt>
      <trkpt lat="42.82128" lon="0.41713">
        <ele>1035</ele>
        <time>2019-08-08T07:05:22.000Z</time>
      </trkpt>
      <trkpt lat="42.82125" lon="0.41715">
        <ele>1035</ele>
        <time>2019-08-08T07:05:23.000Z</time>
      </trkpt>
      <trkpt lat="42.82122" lon="0.41717">
        <ele>1035</ele>
        <time>2019-08-08T07:05:24.000Z</time>
      </trkpt>
      <trkpt lat="42.82119" lon="0.41719">
        <ele>1035</ele>
        <time>2019-08-08T07:05:25.000Z</time>
      </trkpt>
      <trkpt lat="42.82116" lon="0.4172">
        <ele>1036</ele>
        <time>2019-08-08T07:05:26.000Z</time>
      </trkpt>
      <trkpt lat="42.82113" lon="0.41722">
        <ele>1036</ele>
        <time>2019-08-08T07:05:27.000Z</time>
      </trkpt>
      <trkpt lat="42.82113" lon="0.41722">
        <ele>1036</ele>
        <time>2019-08-08T07:05:28.000Z</time>
      </trkpt>
      <trkpt lat="42.82107" lon="0.41725">
        <ele>1036</ele>
        <time>2019-08-08T07:05:29.000Z</time>
      </trkpt>
      <trkpt lat="42.82104" lon="0.41726">
        <ele>1037</ele>
        <time>2019-08-08T07:05:30.000Z</time>
      </trkpt>
      <trkpt lat="42.82101" lon="0.41727">
        <ele>1037</ele>
        <time>2019-08-08T07:05:31.000Z</time>
      </trkpt>
      <trkpt lat="42.82098" lon="0.41728">
        <ele>1038</ele>
        <time>2019-08-08T07:05:32.000Z</time>
      </trkpt>
      <trkpt lat="42.82098" lon="0.41728">
        <ele>1038</ele>
        <time>2019-08-08T07:05:33.000Z</time>
      </trkpt>
      <trkpt lat="42.82093" lon="0.41731">
        <ele>1039</ele>
        <time>2019-08-08T07:05:34.000Z</time>
      </trkpt>
      <trkpt lat="42.8209" lon="0.41732">
        <ele>1039</ele>
        <time>2019-08-08T07:05:35.000Z</time>
      </trkpt>
      <trkpt lat="42.82088" lon="0.41734">
        <ele>1039</ele>
        <time>2019-08-08T07:05:36.000Z</time>
      </trkpt>
      <trkpt lat="42.82085" lon="0.41735">
        <ele>1039</ele>
        <time>2019-08-08T07:05:37.000Z</time>
      </trkpt>
      <trkpt lat="42.82082" lon="0.41736">
        <ele>1040</ele>
        <time>2019-08-08T07:05:38.000Z</time>
      </trkpt>
      <trkpt lat="42.82079" lon="0.41737">
        <ele>1040</ele>
        <time>2019-08-08T07:05:39.000Z</time>
      </trkpt>
      <trkpt lat="42.82076" lon="0.41739">
        <ele>1040</ele>
        <time>2019-08-08T07:05:40.000Z</time>
      </trkpt>
      <trkpt lat="42.82073" lon="0.41741">
        <ele>1040</ele>
        <time>2019-08-08T07:05:41.000Z</time>
      </trkpt>
      <trkpt lat="42.82071" lon="0.41744">
        <ele>1040</ele>
        <time>2019-08-08T07:05:42.000Z</time>
      </trkpt>
      <trkpt lat="42.82068" lon="0.41746">
        <ele>1040</ele>
        <time>2019-08-08T07:05:43.000Z</time>
      </trkpt>
      <trkpt lat="42.82065" lon="0.41748">
        <ele>1041</ele>
        <time>2019-08-08T07:05:44.000Z</time>
      </trkpt>
      <trkpt lat="42.82062" lon="0.41749">
        <ele>1041</ele>
        <time>2019-08-08T07:05:45.000Z</time>
      </trkpt>
      <trkpt lat="42.82059" lon="0.41751">
        <ele>1042</ele>
        <time>2019-08-08T07:05:46.000Z</time>
      </trkpt>
      <trkpt lat="42.82056" lon="0.41753">
        <ele>1042</ele>
        <time>2019-08-08T07:05:47.000Z</time>
      </trkpt>
      <trkpt lat="42.82053" lon="0.41755">
        <ele>1042</ele>
        <time>2019-08-08T07:05:48.000Z</time>
      </trkpt>
      <trkpt lat="42.8205" lon="0.41756">
        <ele>1042</ele>
        <time>2019-08-08T07:05:49.000Z</time>
      </trkpt>
      <trkpt lat="42.82048" lon="0.41758">
        <ele>1043</ele>
        <time>2019-08-08T07:05:50.000Z</time>
      </trkpt>
      <trkpt lat="42.82045" lon="0.4176">
        <ele>1043</ele>
        <time>2019-08-08T07:05:51.000Z</time>
      </trkpt>
      <trkpt lat="42.82043" lon="0.41761">
        <ele>1043</ele>
        <time>2019-08-08T07:05:52.000Z</time>
      </trkpt>
      <trkpt lat="42.8204" lon="0.41763">
        <ele>1043</ele>
        <time>2019-08-08T07:05:53.000Z</time>
      </trkpt>
      <trkpt lat="42.82038" lon="0.41765">
        <ele>1044</ele>
        <time>2019-08-08T07:05:54.000Z</time>
      </trkpt>
      <trkpt lat="42.82035" lon="0.41768">
        <ele>1044</ele>
        <time>2019-08-08T07:05:55.000Z</time>
      </trkpt>
      <trkpt lat="42.82032" lon="0.4177">
        <ele>1045</ele>
        <time>2019-08-08T07:05:56.000Z</time>
      </trkpt>
      <trkpt lat="42.82029" lon="0.41773">
        <ele>1045</ele>
        <time>2019-08-08T07:05:57.000Z</time>
      </trkpt>
      <trkpt lat="42.82026" lon="0.41775">
        <ele>1045</ele>
        <time>2019-08-08T07:05:58.000Z</time>
      </trkpt>
      <trkpt lat="42.82024" lon="0.41777">
        <ele>1045</ele>
        <time>2019-08-08T07:05:59.000Z</time>
      </trkpt>
      <trkpt lat="42.82021" lon="0.4178">
        <ele>1045</ele>
        <time>2019-08-08T07:06:00.000Z</time>
      </trkpt>
      <trkpt lat="42.82018" lon="0.41782">
        <ele>1045</ele>
        <time>2019-08-08T07:06:01.000Z</time>
      </trkpt>
      <trkpt lat="42.82015" lon="0.41784">
        <ele>1046</ele>
        <time>2019-08-08T07:06:02.000Z</time>
      </trkpt>
      <trkpt lat="42.82013" lon="0.41785">
        <ele>1046</ele>
        <time>2019-08-08T07:06:03.000Z</time>
      </trkpt>
      <trkpt lat="42.8201" lon="0.41787">
        <ele>1047</ele>
        <time>2019-08-08T07:06:04.000Z</time>
      </trkpt>
      <trkpt lat="42.82008" lon="0.41789">
        <ele>1047</ele>
        <time>2019-08-08T07:06:05.000Z</time>
      </trkpt>
      <trkpt lat="42.82005" lon="0.41791">
        <ele>1047</ele>
        <time>2019-08-08T07:06:06.000Z</time>
      </trkpt>
      <trkpt lat="42.82003" lon="0.41793">
        <ele>1047</ele>
        <time>2019-08-08T07:06:07.000Z</time>
      </trkpt>
      <trkpt lat="42.82" lon="0.41795">
        <ele>1048</ele>
        <time>2019-08-08T07:06:08.000Z</time>
      </trkpt>
      <trkpt lat="42.81998" lon="0.41797">
        <ele>1048</ele>
        <time>2019-08-08T07:06:09.000Z</time>
      </trkpt>
      <trkpt lat="42.81995" lon="0.41799">
        <ele>1048</ele>
        <time>2019-08-08T07:06:10.000Z</time>
      </trkpt>
      <trkpt lat="42.81992" lon="0.41801">
        <ele>1048</ele>
        <time>2019-08-08T07:06:11.000Z</time>
      </trkpt>
      <trkpt lat="42.8199" lon="0.41803">
        <ele>1048</ele>
        <time>2019-08-08T07:06:12.000Z</time>
      </trkpt>
      <trkpt lat="42.81987" lon="0.41805">
        <ele>1048</ele>
        <time>2019-08-08T07:06:13.000Z</time>
      </trkpt>
      <trkpt lat="42.81985" lon="0.41806">
        <ele>1049</ele>
        <time>2019-08-08T07:06:14.000Z</time>
      </trkpt>
      <trkpt lat="42.81982" lon="0.41808">
        <ele>1049</ele>
        <time>2019-08-08T07:06:15.000Z</time>
      </trkpt>
      <trkpt lat="42.8198" lon="0.4181">
        <ele>1049</ele>
        <time>2019-08-08T07:06:16.000Z</time>
      </trkpt>
      <trkpt lat="42.81977" lon="0.41812">
        <ele>1049</ele>
        <time>2019-08-08T07:06:17.000Z</time>
      </trkpt>
      <trkpt lat="42.81975" lon="0.41814">
        <ele>1049</ele>
        <time>2019-08-08T07:06:18.000Z</time>
      </trkpt>
      <trkpt lat="42.81973" lon="0.41816">
        <ele>1050</ele>
        <time>2019-08-08T07:06:19.000Z</time>
      </trkpt>
      <trkpt lat="42.8197" lon="0.41817">
        <ele>1050</ele>
        <time>2019-08-08T07:06:20.000Z</time>
      </trkpt>
      <trkpt lat="42.81968" lon="0.41819">
        <ele>1051</ele>
        <time>2019-08-08T07:06:21.000Z</time>
      </trkpt>
      <trkpt lat="42.81965" lon="0.4182">
        <ele>1051</ele>
        <time>2019-08-08T07:06:22.000Z</time>
      </trkpt>
      <trkpt lat="42.81963" lon="0.41821">
        <ele>1051</ele>
        <time>2019-08-08T07:06:23.000Z</time>
      </trkpt>
      <trkpt lat="42.8196" lon="0.41823">
        <ele>1051</ele>
        <time>2019-08-08T07:06:24.000Z</time>
      </trkpt>
      <trkpt lat="42.81957" lon="0.41824">
        <ele>1052</ele>
        <time>2019-08-08T07:06:25.000Z</time>
      </trkpt>
      <trkpt lat="42.81955" lon="0.41826">
        <ele>1052</ele>
        <time>2019-08-08T07:06:26.000Z</time>
      </trkpt>
      <trkpt lat="42.81952" lon="0.41828">
        <ele>1053</ele>
        <time>2019-08-08T07:06:27.000Z</time>
      </trkpt>
      <trkpt lat="42.8195" lon="0.4183">
        <ele>1053</ele>
        <time>2019-08-08T07:06:28.000Z</time>
      </trkpt>
      <trkpt lat="42.81948" lon="0.41832">
        <ele>1053</ele>
        <time>2019-08-08T07:06:29.000Z</time>
      </trkpt>
      <trkpt lat="42.81945" lon="0.41834">
        <ele>1053</ele>
        <time>2019-08-08T07:06:30.000Z</time>
      </trkpt>
      <trkpt lat="42.81943" lon="0.41836">
        <ele>1054</ele>
        <time>2019-08-08T07:06:31.000Z</time>
      </trkpt>
      <trkpt lat="42.8194" lon="0.41837">
        <ele>1054</ele>
        <time>2019-08-08T07:06:32.000Z</time>
      </trkpt>
      <trkpt lat="42.81938" lon="0.4184">
        <ele>1055</ele>
        <time>2019-08-08T07:06:33.000Z</time>
      </trkpt>
      <trkpt lat="42.81935" lon="0.41842">
        <ele>1055</ele>
        <time>2019-08-08T07:06:34.000Z</time>
      </trkpt>
      <trkpt lat="42.81933" lon="0.41844">
        <ele>1055</ele>
        <time>2019-08-08T07:06:35.000Z</time>
      </trkpt>
      <trkpt lat="42.81931" lon="0.41847">
        <ele>1055</ele>
        <time>2019-08-08T07:06:36.000Z</time>
      </trkpt>
      <trkpt lat="42.81928" lon="0.41849">
        <ele>1055</ele>
        <time>2019-08-08T07:06:37.000Z</time>
      </trkpt>
      <trkpt lat="42.81926" lon="0.41852">
        <ele>1055</ele>
        <time>2019-08-08T07:06:38.000Z</time>
      </trkpt>
      <trkpt lat="42.81924" lon="0.41855">
        <ele>1055</ele>
        <time>2019-08-08T07:06:39.000Z</time>
      </trkpt>
      <trkpt lat="42.81922" lon="0.41858">
        <ele>1056</ele>
        <time>2019-08-08T07:06:40.000Z</time>
      </trkpt>
      <trkpt lat="42.81919" lon="0.41861">
        <ele>1056</ele>
        <time>2019-08-08T07:06:41.000Z</time>
      </trkpt>
      <trkpt lat="42.81917" lon="0.41863">
        <ele>1057</ele>
        <time>2019-08-08T07:06:42.000Z</time>
      </trkpt>
      <trkpt lat="42.81915" lon="0.41866">
        <ele>1058</ele>
        <time>2019-08-08T07:06:43.000Z</time>
      </trkpt>
      <trkpt lat="42.81913" lon="0.41868">
        <ele>1058</ele>
        <time>2019-08-08T07:06:44.000Z</time>
      </trkpt>
      <trkpt lat="42.8191" lon="0.41871">
        <ele>1058</ele>
        <time>2019-08-08T07:06:45.000Z</time>
      </trkpt>
      <trkpt lat="42.81908" lon="0.41873">
        <ele>1058</ele>
        <time>2019-08-08T07:06:46.000Z</time>
      </trkpt>
      <trkpt lat="42.81906" lon="0.41876">
        <ele>1058</ele>
        <time>2019-08-08T07:06:47.000Z</time>
      </trkpt>
      <trkpt lat="42.81904" lon="0.41878">
        <ele>1058</ele>
        <time>2019-08-08T07:06:48.000Z</time>
      </trkpt>
      <trkpt lat="42.81902" lon="0.4188">
        <ele>1059</ele>
        <time>2019-08-08T07:06:49.000Z</time>
      </trkpt>
      <trkpt lat="42.81899" lon="0.41883">
        <ele>1059</ele>
        <time>2019-08-08T07:06:50.000Z</time>
      </trkpt>
      <trkpt lat="42.81897" lon="0.41885">
        <ele>1059</ele>
        <time>2019-08-08T07:06:51.000Z</time>
      </trkpt>
      <trkpt lat="42.81895" lon="0.41887">
        <ele>1060</ele>
        <time>2019-08-08T07:06:52.000Z</time>
      </trkpt>
      <trkpt lat="42.81892" lon="0.41888">
        <ele>1060</ele>
        <time>2019-08-08T07:06:53.000Z</time>
      </trkpt>
      <trkpt lat="42.81889" lon="0.4189">
        <ele>1060</ele>
        <time>2019-08-08T07:06:54.000Z</time>
      </trkpt>
      <trkpt lat="42.81887" lon="0.41891">
        <ele>1060</ele>
        <time>2019-08-08T07:06:55.000Z</time>
      </trkpt>
      <trkpt lat="42.81884" lon="0.41892">
        <ele>1061</ele>
        <time>2019-08-08T07:06:56.000Z</time>
      </trkpt>
      <trkpt lat="42.81881" lon="0.41894">
        <ele>1061</ele>
        <time>2019-08-08T07:06:57.000Z</time>
      </trkpt>
      <trkpt lat="42.81878" lon="0.41895">
        <ele>1061</ele>
        <time>2019-08-08T07:06:58.000Z</time>
      </trkpt>
      <trkpt lat="42.81876" lon="0.41896">
        <ele>1062</ele>
        <time>2019-08-08T07:06:59.000Z</time>
      </trkpt>
      <trkpt lat="42.81873" lon="0.41897">
        <ele>1062</ele>
        <time>2019-08-08T07:07:00.000Z</time>
      </trkpt>
      <trkpt lat="42.8187" lon="0.41898">
        <ele>1062</ele>
        <time>2019-08-08T07:07:01.000Z</time>
      </trkpt>
      <trkpt lat="42.81867" lon="0.419">
        <ele>1062</ele>
        <time>2019-08-08T07:07:02.000Z</time>
      </trkpt>
      <trkpt lat="42.81864" lon="0.41902">
        <ele>1062</ele>
        <time>2019-08-08T07:07:03.000Z</time>
      </trkpt>
      <trkpt lat="42.81862" lon="0.41903">
        <ele>1063</ele>
        <time>2019-08-08T07:07:04.000Z</time>
      </trkpt>
      <trkpt lat="42.81859" lon="0.41904">
        <ele>1063</ele>
        <time>2019-08-08T07:07:05.000Z</time>
      </trkpt>
      <trkpt lat="42.81856" lon="0.41906">
        <ele>1063</ele>
        <time>2019-08-08T07:07:06.000Z</time>
      </trkpt>
      <trkpt lat="42.81854" lon="0.41907">
        <ele>1063</ele>
        <time>2019-08-08T07:07:07.000Z</time>
      </trkpt>
      <trkpt lat="42.81851" lon="0.41909">
        <ele>1063</ele>
        <time>2019-08-08T07:07:08.000Z</time>
      </trkpt>
      <trkpt lat="42.81848" lon="0.41911">
        <ele>1063</ele>
        <time>2019-08-08T07:07:09.000Z</time>
      </trkpt>
      <trkpt lat="42.81845" lon="0.41913">
        <ele>1063</ele>
        <time>2019-08-08T07:07:10.000Z</time>
      </trkpt>
      <trkpt lat="42.81843" lon="0.41914">
        <ele>1063</ele>
        <time>2019-08-08T07:07:11.000Z</time>
      </trkpt>
      <trkpt lat="42.81841" lon="0.41915">
        <ele>1063</ele>
        <time>2019-08-08T07:07:12.000Z</time>
      </trkpt>
      <trkpt lat="42.81838" lon="0.41916">
        <ele>1064</ele>
        <time>2019-08-08T07:07:13.000Z</time>
      </trkpt>
      <trkpt lat="42.81836" lon="0.41917">
        <ele>1064</ele>
        <time>2019-08-08T07:07:14.000Z</time>
      </trkpt>
      <trkpt lat="42.81833" lon="0.41918">
        <ele>1065</ele>
        <time>2019-08-08T07:07:15.000Z</time>
      </trkpt>
      <trkpt lat="42.8183" lon="0.4192">
        <ele>1065</ele>
        <time>2019-08-08T07:07:16.000Z</time>
      </trkpt>
      <trkpt lat="42.81828" lon="0.41921">
        <ele>1065</ele>
        <time>2019-08-08T07:07:17.000Z</time>
      </trkpt>
      <trkpt lat="42.81825" lon="0.41922">
        <ele>1065</ele>
        <time>2019-08-08T07:07:18.000Z</time>
      </trkpt>
      <trkpt lat="42.81822" lon="0.41923">
        <ele>1066</ele>
        <time>2019-08-08T07:07:19.000Z</time>
      </trkpt>
      <trkpt lat="42.8182" lon="0.41924">
        <ele>1066</ele>
        <time>2019-08-08T07:07:20.000Z</time>
      </trkpt>
      <trkpt lat="42.81817" lon="0.41926">
        <ele>1067</ele>
        <time>2019-08-08T07:07:21.000Z</time>
      </trkpt>
      <trkpt lat="42.81815" lon="0.41927">
        <ele>1067</ele>
        <time>2019-08-08T07:07:22.000Z</time>
      </trkpt>
      <trkpt lat="42.81812" lon="0.41928">
        <ele>1067</ele>
        <time>2019-08-08T07:07:23.000Z</time>
      </trkpt>
      <trkpt lat="42.81809" lon="0.41929">
        <ele>1067</ele>
        <time>2019-08-08T07:07:24.000Z</time>
      </trkpt>
      <trkpt lat="42.81807" lon="0.41929">
        <ele>1068</ele>
        <time>2019-08-08T07:07:25.000Z</time>
      </trkpt>
      <trkpt lat="42.81804" lon="0.41931">
        <ele>1068</ele>
        <time>2019-08-08T07:07:26.000Z</time>
      </trkpt>
      <trkpt lat="42.81801" lon="0.41932">
        <ele>1068</ele>
        <time>2019-08-08T07:07:27.000Z</time>
      </trkpt>
      <trkpt lat="42.81799" lon="0.41933">
        <ele>1068</ele>
        <time>2019-08-08T07:07:28.000Z</time>
      </trkpt>
      <trkpt lat="42.81796" lon="0.41934">
        <ele>1069</ele>
        <time>2019-08-08T07:07:29.000Z</time>
      </trkpt>
      <trkpt lat="42.81793" lon="0.41936">
        <ele>1069</ele>
        <time>2019-08-08T07:07:30.000Z</time>
      </trkpt>
      <trkpt lat="42.81791" lon="0.41937">
        <ele>1069</ele>
        <time>2019-08-08T07:07:31.000Z</time>
      </trkpt>
      <trkpt lat="42.81788" lon="0.41939">
        <ele>1070</ele>
        <time>2019-08-08T07:07:32.000Z</time>
      </trkpt>
      <trkpt lat="42.81786" lon="0.4194">
        <ele>1070</ele>
        <time>2019-08-08T07:07:33.000Z</time>
      </trkpt>
      <trkpt lat="42.81783" lon="0.41941">
        <ele>1071</ele>
        <time>2019-08-08T07:07:34.000Z</time>
      </trkpt>
      <trkpt lat="42.8178" lon="0.41941">
        <ele>1071</ele>
        <time>2019-08-08T07:07:35.000Z</time>
      </trkpt>
      <trkpt lat="42.81777" lon="0.41942">
        <ele>1071</ele>
        <time>2019-08-08T07:07:36.000Z</time>
      </trkpt>
      <trkpt lat="42.81775" lon="0.41943">
        <ele>1071</ele>
        <time>2019-08-08T07:07:37.000Z</time>
      </trkpt>
      <trkpt lat="42.81772" lon="0.41944">
        <ele>1071</ele>
        <time>2019-08-08T07:07:38.000Z</time>
      </trkpt>
      <trkpt lat="42.8177" lon="0.41945">
        <ele>1071</ele>
        <time>2019-08-08T07:07:39.000Z</time>
      </trkpt>
      <trkpt lat="42.8177" lon="0.41945">
        <ele>1072</ele>
        <time>2019-08-08T07:07:40.000Z</time>
      </trkpt>
      <trkpt lat="42.8177" lon="0.41945">
        <ele>1072</ele>
        <time>2019-08-08T07:07:41.000Z</time>
      </trkpt>
      <trkpt lat="42.81762" lon="0.41949">
        <ele>1072</ele>
        <time>2019-08-08T07:07:42.000Z</time>
      </trkpt>
      <trkpt lat="42.81759" lon="0.4195">
        <ele>1072</ele>
        <time>2019-08-08T07:07:43.000Z</time>
      </trkpt>
      <trkpt lat="42.81756" lon="0.41951">
        <ele>1073</ele>
        <time>2019-08-08T07:07:44.000Z</time>
      </trkpt>
      <trkpt lat="42.81753" lon="0.41953">
        <ele>1073</ele>
        <time>2019-08-08T07:07:45.000Z</time>
      </trkpt>
      <trkpt lat="42.81751" lon="0.41954">
        <ele>1074</ele>
        <time>2019-08-08T07:07:46.000Z</time>
      </trkpt>
      <trkpt lat="42.81748" lon="0.41955">
        <ele>1074</ele>
        <time>2019-08-08T07:07:47.000Z</time>
      </trkpt>
      <trkpt lat="42.81745" lon="0.41956">
        <ele>1074</ele>
        <time>2019-08-08T07:07:48.000Z</time>
      </trkpt>
      <trkpt lat="42.81742" lon="0.41957">
        <ele>1074</ele>
        <time>2019-08-08T07:07:49.000Z</time>
      </trkpt>
      <trkpt lat="42.8174" lon="0.41958">
        <ele>1076</ele>
        <time>2019-08-08T07:07:50.000Z</time>
      </trkpt>
      <trkpt lat="42.81737" lon="0.41959">
        <ele>1076</ele>
        <time>2019-08-08T07:07:51.000Z</time>
      </trkpt>
      <trkpt lat="42.81735" lon="0.41961">
        <ele>1076</ele>
        <time>2019-08-08T07:07:52.000Z</time>
      </trkpt>
      <trkpt lat="42.81732" lon="0.41963">
        <ele>1076</ele>
        <time>2019-08-08T07:07:53.000Z</time>
      </trkpt>
      <trkpt lat="42.81729" lon="0.41964">
        <ele>1076</ele>
        <time>2019-08-08T07:07:54.000Z</time>
      </trkpt>
      <trkpt lat="42.81726" lon="0.41965">
        <ele>1076</ele>
        <time>2019-08-08T07:07:55.000Z</time>
      </trkpt>
      <trkpt lat="42.81724" lon="0.41966">
        <ele>1076</ele>
        <time>2019-08-08T07:07:56.000Z</time>
      </trkpt>
      <trkpt lat="42.81721" lon="0.41967">
        <ele>1076</ele>
        <time>2019-08-08T07:07:57.000Z</time>
      </trkpt>
      <trkpt lat="42.81719" lon="0.41968">
        <ele>1076</ele>
        <time>2019-08-08T07:07:58.000Z</time>
      </trkpt>
      <trkpt lat="42.81716" lon="0.4197">
        <ele>1077</ele>
        <time>2019-08-08T07:07:59.000Z</time>
      </trkpt>
      <trkpt lat="42.81714" lon="0.41971">
        <ele>1077</ele>
        <time>2019-08-08T07:08:00.000Z</time>
      </trkpt>
      <trkpt lat="42.81711" lon="0.41971">
        <ele>1078</ele>
        <time>2019-08-08T07:08:01.000Z</time>
      </trkpt>
      <trkpt lat="42.81709" lon="0.41972">
        <ele>1078</ele>
        <time>2019-08-08T07:08:02.000Z</time>
      </trkpt>
      <trkpt lat="42.81706" lon="0.41973">
        <ele>1078</ele>
        <time>2019-08-08T07:08:03.000Z</time>
      </trkpt>
      <trkpt lat="42.81703" lon="0.41974">
        <ele>1078</ele>
        <time>2019-08-08T07:08:04.000Z</time>
      </trkpt>
      <trkpt lat="42.81701" lon="0.41976">
        <ele>1079</ele>
        <time>2019-08-08T07:08:05.000Z</time>
      </trkpt>
      <trkpt lat="42.81698" lon="0.41978">
        <ele>1079</ele>
        <time>2019-08-08T07:08:06.000Z</time>
      </trkpt>
      <trkpt lat="42.81695" lon="0.4198">
        <ele>1079</ele>
        <time>2019-08-08T07:08:07.000Z</time>
      </trkpt>
      <trkpt lat="42.81693" lon="0.41982">
        <ele>1079</ele>
        <time>2019-08-08T07:08:08.000Z</time>
      </trkpt>
      <trkpt lat="42.8169" lon="0.41984">
        <ele>1079</ele>
        <time>2019-08-08T07:08:09.000Z</time>
      </trkpt>
      <trkpt lat="42.81688" lon="0.41985">
        <ele>1079</ele>
        <time>2019-08-08T07:08:10.000Z</time>
      </trkpt>
      <trkpt lat="42.81685" lon="0.41987">
        <ele>1079</ele>
        <time>2019-08-08T07:08:11.000Z</time>
      </trkpt>
      <trkpt lat="42.81683" lon="0.41989">
        <ele>1080</ele>
        <time>2019-08-08T07:08:12.000Z</time>
      </trkpt>
      <trkpt lat="42.8168" lon="0.4199">
        <ele>1080</ele>
        <time>2019-08-08T07:08:13.000Z</time>
      </trkpt>
      <trkpt lat="42.81678" lon="0.41993">
        <ele>1081</ele>
        <time>2019-08-08T07:08:14.000Z</time>
      </trkpt>
      <trkpt lat="42.81675" lon="0.41995">
        <ele>1081</ele>
        <time>2019-08-08T07:08:15.000Z</time>
      </trkpt>
      <trkpt lat="42.81673" lon="0.41997">
        <ele>1081</ele>
        <time>2019-08-08T07:08:16.000Z</time>
      </trkpt>
      <trkpt lat="42.81671" lon="0.41999">
        <ele>1081</ele>
        <time>2019-08-08T07:08:17.000Z</time>
      </trkpt>
      <trkpt lat="42.81669" lon="0.42001">
        <ele>1082</ele>
        <time>2019-08-08T07:08:18.000Z</time>
      </trkpt>
      <trkpt lat="42.81666" lon="0.42003">
        <ele>1082</ele>
        <time>2019-08-08T07:08:19.000Z</time>
      </trkpt>
      <trkpt lat="42.81664" lon="0.42005">
        <ele>1083</ele>
        <time>2019-08-08T07:08:20.000Z</time>
      </trkpt>
      <trkpt lat="42.81662" lon="0.42008">
        <ele>1083</ele>
        <time>2019-08-08T07:08:21.000Z</time>
      </trkpt>
      <trkpt lat="42.8166" lon="0.4201">
        <ele>1083</ele>
        <time>2019-08-08T07:08:22.000Z</time>
      </trkpt>
      <trkpt lat="42.81658" lon="0.42012">
        <ele>1083</ele>
        <time>2019-08-08T07:08:23.000Z</time>
      </trkpt>
      <trkpt lat="42.81655" lon="0.42015">
        <ele>1083</ele>
        <time>2019-08-08T07:08:24.000Z</time>
      </trkpt>
      <trkpt lat="42.81653" lon="0.42017">
        <ele>1083</ele>
        <time>2019-08-08T07:08:25.000Z</time>
      </trkpt>
      <trkpt lat="42.81651" lon="0.42019">
        <ele>1084</ele>
        <time>2019-08-08T07:08:26.000Z</time>
      </trkpt>
      <trkpt lat="42.81649" lon="0.42021">
        <ele>1084</ele>
        <time>2019-08-08T07:08:27.000Z</time>
      </trkpt>
      <trkpt lat="42.81647" lon="0.42023">
        <ele>1084</ele>
        <time>2019-08-08T07:08:28.000Z</time>
      </trkpt>
      <trkpt lat="42.81645" lon="0.42026">
        <ele>1084</ele>
        <time>2019-08-08T07:08:29.000Z</time>
      </trkpt>
      <trkpt lat="42.81643" lon="0.42028">
        <ele>1084</ele>
        <time>2019-08-08T07:08:30.000Z</time>
      </trkpt>
      <trkpt lat="42.81641" lon="0.4203">
        <ele>1085</ele>
        <time>2019-08-08T07:08:31.000Z</time>
      </trkpt>
      <trkpt lat="42.81639" lon="0.42032">
        <ele>1085</ele>
        <time>2019-08-08T07:08:32.000Z</time>
      </trkpt>
      <trkpt lat="42.81637" lon="0.42034">
        <ele>1086</ele>
        <time>2019-08-08T07:08:33.000Z</time>
      </trkpt>
      <trkpt lat="42.81635" lon="0.42037">
        <ele>1086</ele>
        <time>2019-08-08T07:08:34.000Z</time>
      </trkpt>
      <trkpt lat="42.81632" lon="0.42039">
        <ele>1086</ele>
        <time>2019-08-08T07:08:35.000Z</time>
      </trkpt>
      <trkpt lat="42.8163" lon="0.42042">
        <ele>1086</ele>
        <time>2019-08-08T07:08:36.000Z</time>
      </trkpt>
      <trkpt lat="42.81628" lon="0.42044">
        <ele>1087</ele>
        <time>2019-08-08T07:08:37.000Z</time>
      </trkpt>
      <trkpt lat="42.81625" lon="0.42047">
        <ele>1087</ele>
        <time>2019-08-08T07:08:38.000Z</time>
      </trkpt>
      <trkpt lat="42.81623" lon="0.4205">
        <ele>1087</ele>
        <time>2019-08-08T07:08:39.000Z</time>
      </trkpt>
      <trkpt lat="42.81621" lon="0.42052">
        <ele>1087</ele>
        <time>2019-08-08T07:08:40.000Z</time>
      </trkpt>
      <trkpt lat="42.81618" lon="0.42055">
        <ele>1088</ele>
        <time>2019-08-08T07:08:41.000Z</time>
      </trkpt>
      <trkpt lat="42.81616" lon="0.42057">
        <ele>1088</ele>
        <time>2019-08-08T07:08:42.000Z</time>
      </trkpt>
      <trkpt lat="42.81614" lon="0.4206">
        <ele>1088</ele>
        <time>2019-08-08T07:08:43.000Z</time>
      </trkpt>
      <trkpt lat="42.81612" lon="0.42063">
        <ele>1088</ele>
        <time>2019-08-08T07:08:44.000Z</time>
      </trkpt>
      <trkpt lat="42.8161" lon="0.42066">
        <ele>1089</ele>
        <time>2019-08-08T07:08:45.000Z</time>
      </trkpt>
      <trkpt lat="42.81609" lon="0.42069">
        <ele>1089</ele>
        <time>2019-08-08T07:08:46.000Z</time>
      </trkpt>
      <trkpt lat="42.81607" lon="0.42072">
        <ele>1089</ele>
        <time>2019-08-08T07:08:47.000Z</time>
      </trkpt>
      <trkpt lat="42.81604" lon="0.42074">
        <ele>1089</ele>
        <time>2019-08-08T07:08:48.000Z</time>
      </trkpt>
      <trkpt lat="42.81602" lon="0.42076">
        <ele>1089</ele>
        <time>2019-08-08T07:08:49.000Z</time>
      </trkpt>
      <trkpt lat="42.816" lon="0.42078">
        <ele>1090</ele>
        <time>2019-08-08T07:08:50.000Z</time>
      </trkpt>
      <trkpt lat="42.81597" lon="0.4208">
        <ele>1090</ele>
        <time>2019-08-08T07:08:51.000Z</time>
      </trkpt>
      <trkpt lat="42.81595" lon="0.42083">
        <ele>1090</ele>
        <time>2019-08-08T07:08:52.000Z</time>
      </trkpt>
      <trkpt lat="42.81592" lon="0.42085">
        <ele>1090</ele>
        <time>2019-08-08T07:08:53.000Z</time>
      </trkpt>
      <trkpt lat="42.8159" lon="0.42087">
        <ele>1091</ele>
        <time>2019-08-08T07:08:54.000Z</time>
      </trkpt>
      <trkpt lat="42.81587" lon="0.42088">
        <ele>1091</ele>
        <time>2019-08-08T07:08:55.000Z</time>
      </trkpt>
      <trkpt lat="42.81584" lon="0.42089">
        <ele>1091</ele>
        <time>2019-08-08T07:08:56.000Z</time>
      </trkpt>
      <trkpt lat="42.8158" lon="0.4209">
        <ele>1091</ele>
        <time>2019-08-08T07:08:57.000Z</time>
      </trkpt>
      <trkpt lat="42.81577" lon="0.42092">
        <ele>1093</ele>
        <time>2019-08-08T07:08:58.000Z</time>
      </trkpt>
      <trkpt lat="42.81573" lon="0.42093">
        <ele>1093</ele>
        <time>2019-08-08T07:08:59.000Z</time>
      </trkpt>
      <trkpt lat="42.8157" lon="0.42094">
        <ele>1094</ele>
        <time>2019-08-08T07:09:00.000Z</time>
      </trkpt>
      <trkpt lat="42.81567" lon="0.42095">
        <ele>1094</ele>
        <time>2019-08-08T07:09:01.000Z</time>
      </trkpt>
      <trkpt lat="42.81564" lon="0.42096">
        <ele>1094</ele>
        <time>2019-08-08T07:09:02.000Z</time>
      </trkpt>
      <trkpt lat="42.81561" lon="0.42097">
        <ele>1094</ele>
        <time>2019-08-08T07:09:03.000Z</time>
      </trkpt>
      <trkpt lat="42.81559" lon="0.42098">
        <ele>1094</ele>
        <time>2019-08-08T07:09:04.000Z</time>
      </trkpt>
      <trkpt lat="42.81556" lon="0.42098">
        <ele>1094</ele>
        <time>2019-08-08T07:09:05.000Z</time>
      </trkpt>
      <trkpt lat="42.81553" lon="0.42099">
        <ele>1094</ele>
        <time>2019-08-08T07:09:06.000Z</time>
      </trkpt>
      <trkpt lat="42.81551" lon="0.42099">
        <ele>1095</ele>
        <time>2019-08-08T07:09:07.000Z</time>
      </trkpt>
      <trkpt lat="42.81548" lon="0.42099">
        <ele>1095</ele>
        <time>2019-08-08T07:09:08.000Z</time>
      </trkpt>
      <trkpt lat="42.81546" lon="0.42101">
        <ele>1096</ele>
        <time>2019-08-08T07:09:09.000Z</time>
      </trkpt>
      <trkpt lat="42.81543" lon="0.42102">
        <ele>1096</ele>
        <time>2019-08-08T07:09:10.000Z</time>
      </trkpt>
      <trkpt lat="42.8154" lon="0.42103">
        <ele>1096</ele>
        <time>2019-08-08T07:09:11.000Z</time>
      </trkpt>
      <trkpt lat="42.81538" lon="0.42104">
        <ele>1096</ele>
        <time>2019-08-08T07:09:12.000Z</time>
      </trkpt>
      <trkpt lat="42.81536" lon="0.42105">
        <ele>1096</ele>
        <time>2019-08-08T07:09:13.000Z</time>
      </trkpt>
      <trkpt lat="42.81533" lon="0.42107">
        <ele>1096</ele>
        <time>2019-08-08T07:09:14.000Z</time>
      </trkpt>
      <trkpt lat="42.8153" lon="0.42108">
        <ele>1097</ele>
        <time>2019-08-08T07:09:15.000Z</time>
      </trkpt>
      <trkpt lat="42.81528" lon="0.4211">
        <ele>1097</ele>
        <time>2019-08-08T07:09:16.000Z</time>
      </trkpt>
      <trkpt lat="42.81525" lon="0.42111">
        <ele>1097</ele>
        <time>2019-08-08T07:09:17.000Z</time>
      </trkpt>
      <trkpt lat="42.81523" lon="0.42112">
        <ele>1097</ele>
        <time>2019-08-08T07:09:18.000Z</time>
      </trkpt>
      <trkpt lat="42.8152" lon="0.42114">
        <ele>1097</ele>
        <time>2019-08-08T07:09:19.000Z</time>
      </trkpt>
      <trkpt lat="42.81518" lon="0.42115">
        <ele>1097</ele>
        <time>2019-08-08T07:09:20.000Z</time>
      </trkpt>
      <trkpt lat="42.81515" lon="0.42116">
        <ele>1098</ele>
        <time>2019-08-08T07:09:21.000Z</time>
      </trkpt>
      <trkpt lat="42.81512" lon="0.42117">
        <ele>1098</ele>
        <time>2019-08-08T07:09:22.000Z</time>
      </trkpt>
      <trkpt lat="42.8151" lon="0.42118">
        <ele>1099</ele>
        <time>2019-08-08T07:09:23.000Z</time>
      </trkpt>
      <trkpt lat="42.81506" lon="0.4212">
        <ele>1099</ele>
        <time>2019-08-08T07:09:24.000Z</time>
      </trkpt>
      <trkpt lat="42.81505" lon="0.42121">
        <ele>1099</ele>
        <time>2019-08-08T07:09:25.000Z</time>
      </trkpt>
      <trkpt lat="42.81502" lon="0.42121">
        <ele>1099</ele>
        <time>2019-08-08T07:09:26.000Z</time>
      </trkpt>
      <trkpt lat="42.81499" lon="0.42122">
        <ele>1099</ele>
        <time>2019-08-08T07:09:27.000Z</time>
      </trkpt>
      <trkpt lat="42.81496" lon="0.42124">
        <ele>1099</ele>
        <time>2019-08-08T07:09:28.000Z</time>
      </trkpt>
      <trkpt lat="42.81493" lon="0.42126">
        <ele>1100</ele>
        <time>2019-08-08T07:09:29.000Z</time>
      </trkpt>
      <trkpt lat="42.8149" lon="0.42127">
        <ele>1100</ele>
        <time>2019-08-08T07:09:30.000Z</time>
      </trkpt>
      <trkpt lat="42.81488" lon="0.42128">
        <ele>1101</ele>
        <time>2019-08-08T07:09:31.000Z</time>
      </trkpt>
      <trkpt lat="42.81485" lon="0.4213">
        <ele>1101</ele>
        <time>2019-08-08T07:09:32.000Z</time>
      </trkpt>
      <trkpt lat="42.81482" lon="0.42131">
        <ele>1101</ele>
        <time>2019-08-08T07:09:33.000Z</time>
      </trkpt>
      <trkpt lat="42.81479" lon="0.42133">
        <ele>1101</ele>
        <time>2019-08-08T07:09:34.000Z</time>
      </trkpt>
      <trkpt lat="42.81477" lon="0.42134">
        <ele>1102</ele>
        <time>2019-08-08T07:09:35.000Z</time>
      </trkpt>
      <trkpt lat="42.81474" lon="0.42136">
        <ele>1102</ele>
        <time>2019-08-08T07:09:36.000Z</time>
      </trkpt>
      <trkpt lat="42.81471" lon="0.42137">
        <ele>1102</ele>
        <time>2019-08-08T07:09:37.000Z</time>
      </trkpt>
      <trkpt lat="42.81468" lon="0.42139">
        <ele>1102</ele>
        <time>2019-08-08T07:09:38.000Z</time>
      </trkpt>
      <trkpt lat="42.81466" lon="0.4214">
        <ele>1103</ele>
        <time>2019-08-08T07:09:39.000Z</time>
      </trkpt>
      <trkpt lat="42.81463" lon="0.42142">
        <ele>1103</ele>
        <time>2019-08-08T07:09:40.000Z</time>
      </trkpt>
      <trkpt lat="42.8146" lon="0.42144">
        <ele>1103</ele>
        <time>2019-08-08T07:09:41.000Z</time>
      </trkpt>
      <trkpt lat="42.81458" lon="0.42146">
        <ele>1103</ele>
        <time>2019-08-08T07:09:42.000Z</time>
      </trkpt>
      <trkpt lat="42.81455" lon="0.42148">
        <ele>1104</ele>
        <time>2019-08-08T07:09:43.000Z</time>
      </trkpt>
      <trkpt lat="42.81453" lon="0.4215">
        <ele>1104</ele>
        <time>2019-08-08T07:09:44.000Z</time>
      </trkpt>
      <trkpt lat="42.8145" lon="0.42152">
        <ele>1104</ele>
        <time>2019-08-08T07:09:45.000Z</time>
      </trkpt>
      <trkpt lat="42.81448" lon="0.42155">
        <ele>1104</ele>
        <time>2019-08-08T07:09:46.000Z</time>
      </trkpt>
      <trkpt lat="42.81445" lon="0.42157">
        <ele>1104</ele>
        <time>2019-08-08T07:09:47.000Z</time>
      </trkpt>
      <trkpt lat="42.81443" lon="0.4216">
        <ele>1105</ele>
        <time>2019-08-08T07:09:48.000Z</time>
      </trkpt>
      <trkpt lat="42.81441" lon="0.42162">
        <ele>1105</ele>
        <time>2019-08-08T07:09:49.000Z</time>
      </trkpt>
      <trkpt lat="42.81439" lon="0.42165">
        <ele>1105</ele>
        <time>2019-08-08T07:09:50.000Z</time>
      </trkpt>
      <trkpt lat="42.81437" lon="0.42168">
        <ele>1105</ele>
        <time>2019-08-08T07:09:51.000Z</time>
      </trkpt>
      <trkpt lat="42.81435" lon="0.4217">
        <ele>1106</ele>
        <time>2019-08-08T07:09:52.000Z</time>
      </trkpt>
      <trkpt lat="42.81433" lon="0.42173">
        <ele>1106</ele>
        <time>2019-08-08T07:09:53.000Z</time>
      </trkpt>
      <trkpt lat="42.8143" lon="0.42175">
        <ele>1106</ele>
        <time>2019-08-08T07:09:54.000Z</time>
      </trkpt>
      <trkpt lat="42.81428" lon="0.42178">
        <ele>1107</ele>
        <time>2019-08-08T07:09:55.000Z</time>
      </trkpt>
      <trkpt lat="42.81427" lon="0.42181">
        <ele>1107</ele>
        <time>2019-08-08T07:09:56.000Z</time>
      </trkpt>
      <trkpt lat="42.81425" lon="0.42183">
        <ele>1107</ele>
        <time>2019-08-08T07:09:57.000Z</time>
      </trkpt>
      <trkpt lat="42.81423" lon="0.42186">
        <ele>1107</ele>
        <time>2019-08-08T07:09:58.000Z</time>
      </trkpt>
      <trkpt lat="42.81421" lon="0.42189">
        <ele>1108</ele>
        <time>2019-08-08T07:09:59.000Z</time>
      </trkpt>
      <trkpt lat="42.8142" lon="0.42192">
        <ele>1108</ele>
        <time>2019-08-08T07:10:00.000Z</time>
      </trkpt>
      <trkpt lat="42.81418" lon="0.42195">
        <ele>1109</ele>
        <time>2019-08-08T07:10:01.000Z</time>
      </trkpt>
      <trkpt lat="42.81416" lon="0.42198">
        <ele>1109</ele>
        <time>2019-08-08T07:10:02.000Z</time>
      </trkpt>
      <trkpt lat="42.81414" lon="0.42201">
        <ele>1109</ele>
        <time>2019-08-08T07:10:03.000Z</time>
      </trkpt>
      <trkpt lat="42.81413" lon="0.42204">
        <ele>1109</ele>
        <time>2019-08-08T07:10:04.000Z</time>
      </trkpt>
      <trkpt lat="42.81411" lon="0.42208">
        <ele>1109</ele>
        <time>2019-08-08T07:10:05.000Z</time>
      </trkpt>
      <trkpt lat="42.81409" lon="0.42211">
        <ele>1109</ele>
        <time>2019-08-08T07:10:06.000Z</time>
      </trkpt>
      <trkpt lat="42.81408" lon="0.42214">
        <ele>1109</ele>
        <time>2019-08-08T07:10:07.000Z</time>
      </trkpt>
      <trkpt lat="42.81406" lon="0.42217">
        <ele>1109</ele>
        <time>2019-08-08T07:10:08.000Z</time>
      </trkpt>
      <trkpt lat="42.81405" lon="0.4222">
        <ele>1110</ele>
        <time>2019-08-08T07:10:09.000Z</time>
      </trkpt>
      <trkpt lat="42.81404" lon="0.42223">
        <ele>1110</ele>
        <time>2019-08-08T07:10:10.000Z</time>
      </trkpt>
      <trkpt lat="42.81402" lon="0.42226">
        <ele>1110</ele>
        <time>2019-08-08T07:10:11.000Z</time>
      </trkpt>
      <trkpt lat="42.81401" lon="0.42229">
        <ele>1110</ele>
        <time>2019-08-08T07:10:12.000Z</time>
      </trkpt>
      <trkpt lat="42.814" lon="0.42232">
        <ele>1111</ele>
        <time>2019-08-08T07:10:13.000Z</time>
      </trkpt>
      <trkpt lat="42.81398" lon="0.42236">
        <ele>1111</ele>
        <time>2019-08-08T07:10:14.000Z</time>
      </trkpt>
      <trkpt lat="42.81396" lon="0.42239">
        <ele>1111</ele>
        <time>2019-08-08T07:10:15.000Z</time>
      </trkpt>
      <trkpt lat="42.81395" lon="0.42242">
        <ele>1111</ele>
        <time>2019-08-08T07:10:16.000Z</time>
      </trkpt>
      <trkpt lat="42.81394" lon="0.42245">
        <ele>1111</ele>
        <time>2019-08-08T07:10:17.000Z</time>
      </trkpt>
      <trkpt lat="42.81392" lon="0.42249">
        <ele>1111</ele>
        <time>2019-08-08T07:10:18.000Z</time>
      </trkpt>
      <trkpt lat="42.81391" lon="0.42252">
        <ele>1111</ele>
        <time>2019-08-08T07:10:19.000Z</time>
      </trkpt>
      <trkpt lat="42.8139" lon="0.42255">
        <ele>1112</ele>
        <time>2019-08-08T07:10:20.000Z</time>
      </trkpt>
      <trkpt lat="42.81388" lon="0.42258">
        <ele>1112</ele>
        <time>2019-08-08T07:10:21.000Z</time>
      </trkpt>
      <trkpt lat="42.81387" lon="0.42261">
        <ele>1112</ele>
        <time>2019-08-08T07:10:22.000Z</time>
      </trkpt>
      <trkpt lat="42.81386" lon="0.42264">
        <ele>1113</ele>
        <time>2019-08-08T07:10:23.000Z</time>
      </trkpt>
      <trkpt lat="42.81385" lon="0.42267">
        <ele>1113</ele>
        <time>2019-08-08T07:10:24.000Z</time>
      </trkpt>
      <trkpt lat="42.81383" lon="0.4227">
        <ele>1113</ele>
        <time>2019-08-08T07:10:25.000Z</time>
      </trkpt>
      <trkpt lat="42.81381" lon="0.42274">
        <ele>1113</ele>
        <time>2019-08-08T07:10:26.000Z</time>
      </trkpt>
      <trkpt lat="42.8138" lon="0.42277">
        <ele>1113</ele>
        <time>2019-08-08T07:10:27.000Z</time>
      </trkpt>
      <trkpt lat="42.81378" lon="0.4228">
        <ele>1113</ele>
        <time>2019-08-08T07:10:28.000Z</time>
      </trkpt>
      <trkpt lat="42.81376" lon="0.42283">
        <ele>1114</ele>
        <time>2019-08-08T07:10:29.000Z</time>
      </trkpt>
      <trkpt lat="42.81375" lon="0.42286">
        <ele>1114</ele>
        <time>2019-08-08T07:10:30.000Z</time>
      </trkpt>
      <trkpt lat="42.81374" lon="0.42289">
        <ele>1115</ele>
        <time>2019-08-08T07:10:31.000Z</time>
      </trkpt>
      <trkpt lat="42.81373" lon="0.42293">
        <ele>1115</ele>
        <time>2019-08-08T07:10:32.000Z</time>
      </trkpt>
      <trkpt lat="42.81371" lon="0.42296">
        <ele>1115</ele>
        <time>2019-08-08T07:10:33.000Z</time>
      </trkpt>
      <trkpt lat="42.8137" lon="0.42299">
        <ele>1115</ele>
        <time>2019-08-08T07:10:34.000Z</time>
      </trkpt>
      <trkpt lat="42.81368" lon="0.42303">
        <ele>1115</ele>
        <time>2019-08-08T07:10:35.000Z</time>
      </trkpt>
      <trkpt lat="42.81367" lon="0.42306">
        <ele>1116</ele>
        <time>2019-08-08T07:10:36.000Z</time>
      </trkpt>
      <trkpt lat="42.81365" lon="0.42309">
        <ele>1116</ele>
        <time>2019-08-08T07:10:37.000Z</time>
      </trkpt>
      <trkpt lat="42.81364" lon="0.42312">
        <ele>1117</ele>
        <time>2019-08-08T07:10:38.000Z</time>
      </trkpt>
      <trkpt lat="42.81362" lon="0.42316">
        <ele>1117</ele>
        <time>2019-08-08T07:10:39.000Z</time>
      </trkpt>
      <trkpt lat="42.81361" lon="0.42319">
        <ele>1117</ele>
        <time>2019-08-08T07:10:40.000Z</time>
      </trkpt>
      <trkpt lat="42.8136" lon="0.42322">
        <ele>1117</ele>
        <time>2019-08-08T07:10:41.000Z</time>
      </trkpt>
      <trkpt lat="42.81358" lon="0.42325">
        <ele>1117</ele>
        <time>2019-08-08T07:10:42.000Z</time>
      </trkpt>
      <trkpt lat="42.81357" lon="0.42328">
        <ele>1118</ele>
        <time>2019-08-08T07:10:43.000Z</time>
      </trkpt>
      <trkpt lat="42.81355" lon="0.42331">
        <ele>1118</ele>
        <time>2019-08-08T07:10:44.000Z</time>
      </trkpt>
      <trkpt lat="42.81353" lon="0.42334">
        <ele>1118</ele>
        <time>2019-08-08T07:10:45.000Z</time>
      </trkpt>
      <trkpt lat="42.81351" lon="0.42337">
        <ele>1118</ele>
        <time>2019-08-08T07:10:46.000Z</time>
      </trkpt>
      <trkpt lat="42.8135" lon="0.4234">
        <ele>1119</ele>
        <time>2019-08-08T07:10:47.000Z</time>
      </trkpt>
      <trkpt lat="42.81347" lon="0.42343">
        <ele>1119</ele>
        <time>2019-08-08T07:10:48.000Z</time>
      </trkpt>
      <trkpt lat="42.81345" lon="0.42346">
        <ele>1119</ele>
        <time>2019-08-08T07:10:49.000Z</time>
      </trkpt>
      <trkpt lat="42.81343" lon="0.42348">
        <ele>1120</ele>
        <time>2019-08-08T07:10:50.000Z</time>
      </trkpt>
      <trkpt lat="42.81341" lon="0.42351">
        <ele>1120</ele>
        <time>2019-08-08T07:10:51.000Z</time>
      </trkpt>
      <trkpt lat="42.81339" lon="0.42353">
        <ele>1121</ele>
        <time>2019-08-08T07:10:52.000Z</time>
      </trkpt>
      <trkpt lat="42.81337" lon="0.42355">
        <ele>1121</ele>
        <time>2019-08-08T07:10:53.000Z</time>
      </trkpt>
      <trkpt lat="42.81335" lon="0.42357">
        <ele>1122</ele>
        <time>2019-08-08T07:10:54.000Z</time>
      </trkpt>
      <trkpt lat="42.81332" lon="0.42359">
        <ele>1122</ele>
        <time>2019-08-08T07:10:55.000Z</time>
      </trkpt>
      <trkpt lat="42.8133" lon="0.4236">
        <ele>1122</ele>
        <time>2019-08-08T07:10:56.000Z</time>
      </trkpt>
      <trkpt lat="42.81327" lon="0.42361">
        <ele>1122</ele>
        <time>2019-08-08T07:10:57.000Z</time>
      </trkpt>
      <trkpt lat="42.81325" lon="0.42362">
        <ele>1123</ele>
        <time>2019-08-08T07:10:58.000Z</time>
      </trkpt>
      <trkpt lat="42.81322" lon="0.42362">
        <ele>1123</ele>
        <time>2019-08-08T07:10:59.000Z</time>
      </trkpt>
      <trkpt lat="42.81319" lon="0.42361">
        <ele>1124</ele>
        <time>2019-08-08T07:11:00.000Z</time>
      </trkpt>
      <trkpt lat="42.81316" lon="0.42361">
        <ele>1124</ele>
        <time>2019-08-08T07:11:01.000Z</time>
      </trkpt>
      <trkpt lat="42.81314" lon="0.42361">
        <ele>1124</ele>
        <time>2019-08-08T07:11:02.000Z</time>
      </trkpt>
      <trkpt lat="42.81311" lon="0.42361">
        <ele>1124</ele>
        <time>2019-08-08T07:11:03.000Z</time>
      </trkpt>
      <trkpt lat="42.81308" lon="0.42361">
        <ele>1124</ele>
        <time>2019-08-08T07:11:04.000Z</time>
      </trkpt>
      <trkpt lat="42.81306" lon="0.4236">
        <ele>1124</ele>
        <time>2019-08-08T07:11:05.000Z</time>
      </trkpt>
      <trkpt lat="42.81303" lon="0.42359">
        <ele>1125</ele>
        <time>2019-08-08T07:11:06.000Z</time>
      </trkpt>
      <trkpt lat="42.81301" lon="0.42357">
        <ele>1125</ele>
        <time>2019-08-08T07:11:07.000Z</time>
      </trkpt>
      <trkpt lat="42.81298" lon="0.42356">
        <ele>1126</ele>
        <time>2019-08-08T07:11:08.000Z</time>
      </trkpt>
      <trkpt lat="42.81296" lon="0.42354">
        <ele>1126</ele>
        <time>2019-08-08T07:11:09.000Z</time>
      </trkpt>
      <trkpt lat="42.81293" lon="0.42352">
        <ele>1126</ele>
        <time>2019-08-08T07:11:10.000Z</time>
      </trkpt>
      <trkpt lat="42.8129" lon="0.4235">
        <ele>1126</ele>
        <time>2019-08-08T07:11:11.000Z</time>
      </trkpt>
      <trkpt lat="42.81288" lon="0.42348">
        <ele>1126</ele>
        <time>2019-08-08T07:11:12.000Z</time>
      </trkpt>
      <trkpt lat="42.81285" lon="0.42347">
        <ele>1126</ele>
        <time>2019-08-08T07:11:13.000Z</time>
      </trkpt>
      <trkpt lat="42.81282" lon="0.42345">
        <ele>1126</ele>
        <time>2019-08-08T07:11:14.000Z</time>
      </trkpt>
      <trkpt lat="42.8128" lon="0.42343">
        <ele>1126</ele>
        <time>2019-08-08T07:11:15.000Z</time>
      </trkpt>
      <trkpt lat="42.81277" lon="0.42342">
        <ele>1127</ele>
        <time>2019-08-08T07:11:16.000Z</time>
      </trkpt>
      <trkpt lat="42.81274" lon="0.42341">
        <ele>1127</ele>
        <time>2019-08-08T07:11:17.000Z</time>
      </trkpt>
      <trkpt lat="42.81271" lon="0.42339">
        <ele>1128</ele>
        <time>2019-08-08T07:11:18.000Z</time>
      </trkpt>
      <trkpt lat="42.81268" lon="0.42338">
        <ele>1128</ele>
        <time>2019-08-08T07:11:19.000Z</time>
      </trkpt>
      <trkpt lat="42.81266" lon="0.42336">
        <ele>1128</ele>
        <time>2019-08-08T07:11:20.000Z</time>
      </trkpt>
      <trkpt lat="42.81263" lon="0.42335">
        <ele>1128</ele>
        <time>2019-08-08T07:11:21.000Z</time>
      </trkpt>
      <trkpt lat="42.8126" lon="0.42333">
        <ele>1128</ele>
        <time>2019-08-08T07:11:22.000Z</time>
      </trkpt>
      <trkpt lat="42.81258" lon="0.42332">
        <ele>1129</ele>
        <time>2019-08-08T07:11:23.000Z</time>
      </trkpt>
      <trkpt lat="42.81255" lon="0.42331">
        <ele>1129</ele>
        <time>2019-08-08T07:11:24.000Z</time>
      </trkpt>
      <trkpt lat="42.81252" lon="0.42329">
        <ele>1129</ele>
        <time>2019-08-08T07:11:25.000Z</time>
      </trkpt>
      <trkpt lat="42.8125" lon="0.42328">
        <ele>1130</ele>
        <time>2019-08-08T07:11:26.000Z</time>
      </trkpt>
      <trkpt lat="42.81247" lon="0.42327">
        <ele>1130</ele>
        <time>2019-08-08T07:11:27.000Z</time>
      </trkpt>
      <trkpt lat="42.81244" lon="0.42326">
        <ele>1131</ele>
        <time>2019-08-08T07:11:28.000Z</time>
      </trkpt>
      <trkpt lat="42.81242" lon="0.42325">
        <ele>1131</ele>
        <time>2019-08-08T07:11:29.000Z</time>
      </trkpt>
      <trkpt lat="42.81239" lon="0.42324">
        <ele>1131</ele>
        <time>2019-08-08T07:11:30.000Z</time>
      </trkpt>
      <trkpt lat="42.81236" lon="0.42322">
        <ele>1131</ele>
        <time>2019-08-08T07:11:31.000Z</time>
      </trkpt>
      <trkpt lat="42.81234" lon="0.42321">
        <ele>1132</ele>
        <time>2019-08-08T07:11:32.000Z</time>
      </trkpt>
      <trkpt lat="42.81231" lon="0.4232">
        <ele>1132</ele>
        <time>2019-08-08T07:11:33.000Z</time>
      </trkpt>
      <trkpt lat="42.81228" lon="0.42319">
        <ele>1132</ele>
        <time>2019-08-08T07:11:34.000Z</time>
      </trkpt>
      <trkpt lat="42.81225" lon="0.42318">
        <ele>1132</ele>
        <time>2019-08-08T07:11:35.000Z</time>
      </trkpt>
      <trkpt lat="42.81223" lon="0.42317">
        <ele>1132</ele>
        <time>2019-08-08T07:11:36.000Z</time>
      </trkpt>
      <trkpt lat="42.8122" lon="0.42315">
        <ele>1132</ele>
        <time>2019-08-08T07:11:37.000Z</time>
      </trkpt>
      <trkpt lat="42.81217" lon="0.42314">
        <ele>1132</ele>
        <time>2019-08-08T07:11:38.000Z</time>
      </trkpt>
      <trkpt lat="42.81215" lon="0.42313">
        <ele>1133</ele>
        <time>2019-08-08T07:11:39.000Z</time>
      </trkpt>
      <trkpt lat="42.81212" lon="0.42312">
        <ele>1133</ele>
        <time>2019-08-08T07:11:40.000Z</time>
      </trkpt>
      <trkpt lat="42.8121" lon="0.42311">
        <ele>1134</ele>
        <time>2019-08-08T07:11:41.000Z</time>
      </trkpt>
      <trkpt lat="42.81207" lon="0.42309">
        <ele>1134</ele>
        <time>2019-08-08T07:11:42.000Z</time>
      </trkpt>
      <trkpt lat="42.81205" lon="0.42308">
        <ele>1134</ele>
        <time>2019-08-08T07:11:43.000Z</time>
      </trkpt>
      <trkpt lat="42.81202" lon="0.42307">
        <ele>1134</ele>
        <time>2019-08-08T07:11:44.000Z</time>
      </trkpt>
      <trkpt lat="42.812" lon="0.42306">
        <ele>1135</ele>
        <time>2019-08-08T07:11:45.000Z</time>
      </trkpt>
      <trkpt lat="42.81197" lon="0.42305">
        <ele>1135</ele>
        <time>2019-08-08T07:11:46.000Z</time>
      </trkpt>
      <trkpt lat="42.81194" lon="0.42304">
        <ele>1135</ele>
        <time>2019-08-08T07:11:47.000Z</time>
      </trkpt>
      <trkpt lat="42.81192" lon="0.42302">
        <ele>1135</ele>
        <time>2019-08-08T07:11:48.000Z</time>
      </trkpt>
      <trkpt lat="42.81189" lon="0.42301">
        <ele>1135</ele>
        <time>2019-08-08T07:11:49.000Z</time>
      </trkpt>
      <trkpt lat="42.81187" lon="0.423">
        <ele>1135</ele>
        <time>2019-08-08T07:11:50.000Z</time>
      </trkpt>
      <trkpt lat="42.81184" lon="0.42299">
        <ele>1136</ele>
        <time>2019-08-08T07:11:51.000Z</time>
      </trkpt>
      <trkpt lat="42.81182" lon="0.42298">
        <ele>1136</ele>
        <time>2019-08-08T07:11:52.000Z</time>
      </trkpt>
      <trkpt lat="42.81179" lon="0.42297">
        <ele>1136</ele>
        <time>2019-08-08T07:11:53.000Z</time>
      </trkpt>
      <trkpt lat="42.81176" lon="0.42296">
        <ele>1136</ele>
        <time>2019-08-08T07:11:54.000Z</time>
      </trkpt>
      <trkpt lat="42.81173" lon="0.42295">
        <ele>1136</ele>
        <time>2019-08-08T07:11:55.000Z</time>
      </trkpt>
      <trkpt lat="42.81171" lon="0.42295">
        <ele>1138</ele>
        <time>2019-08-08T07:11:56.000Z</time>
      </trkpt>
      <trkpt lat="42.81169" lon="0.42294">
        <ele>1138</ele>
        <time>2019-08-08T07:11:57.000Z</time>
      </trkpt>
      <trkpt lat="42.81166" lon="0.42293">
        <ele>1138</ele>
        <time>2019-08-08T07:11:58.000Z</time>
      </trkpt>
      <trkpt lat="42.81163" lon="0.42292">
        <ele>1138</ele>
        <time>2019-08-08T07:11:59.000Z</time>
      </trkpt>
      <trkpt lat="42.81161" lon="0.42291">
        <ele>1139</ele>
        <time>2019-08-08T07:12:00.000Z</time>
      </trkpt>
      <trkpt lat="42.81158" lon="0.4229">
        <ele>1139</ele>
        <time>2019-08-08T07:12:01.000Z</time>
      </trkpt>
      <trkpt lat="42.81156" lon="0.42289">
        <ele>1139</ele>
        <time>2019-08-08T07:12:02.000Z</time>
      </trkpt>
      <trkpt lat="42.81153" lon="0.42287">
        <ele>1139</ele>
        <time>2019-08-08T07:12:03.000Z</time>
      </trkpt>
      <trkpt lat="42.81151" lon="0.42286">
        <ele>1139</ele>
        <time>2019-08-08T07:12:04.000Z</time>
      </trkpt>
      <trkpt lat="42.81148" lon="0.42284">
        <ele>1139</ele>
        <time>2019-08-08T07:12:05.000Z</time>
      </trkpt>
      <trkpt lat="42.81146" lon="0.42283">
        <ele>1140</ele>
        <time>2019-08-08T07:12:06.000Z</time>
      </trkpt>
      <trkpt lat="42.81143" lon="0.42281">
        <ele>1140</ele>
        <time>2019-08-08T07:12:07.000Z</time>
      </trkpt>
      <trkpt lat="42.81141" lon="0.4228">
        <ele>1140</ele>
        <time>2019-08-08T07:12:08.000Z</time>
      </trkpt>
      <trkpt lat="42.81138" lon="0.42278">
        <ele>1140</ele>
        <time>2019-08-08T07:12:09.000Z</time>
      </trkpt>
      <trkpt lat="42.81136" lon="0.42276">
        <ele>1141</ele>
        <time>2019-08-08T07:12:10.000Z</time>
      </trkpt>
      <trkpt lat="42.81133" lon="0.42275">
        <ele>1141</ele>
        <time>2019-08-08T07:12:11.000Z</time>
      </trkpt>
      <trkpt lat="42.8113" lon="0.42274">
        <ele>1141</ele>
        <time>2019-08-08T07:12:12.000Z</time>
      </trkpt>
      <trkpt lat="42.81128" lon="0.42272">
        <ele>1142</ele>
        <time>2019-08-08T07:12:13.000Z</time>
      </trkpt>
      <trkpt lat="42.81125" lon="0.42271">
        <ele>1142</ele>
        <time>2019-08-08T07:12:14.000Z</time>
      </trkpt>
      <trkpt lat="42.81123" lon="0.42269">
        <ele>1142</ele>
        <time>2019-08-08T07:12:15.000Z</time>
      </trkpt>
      <trkpt lat="42.81121" lon="0.42267">
        <ele>1142</ele>
        <time>2019-08-08T07:12:16.000Z</time>
      </trkpt>
      <trkpt lat="42.81119" lon="0.42265">
        <ele>1142</ele>
        <time>2019-08-08T07:12:17.000Z</time>
      </trkpt>
      <trkpt lat="42.81116" lon="0.42263">
        <ele>1142</ele>
        <time>2019-08-08T07:12:18.000Z</time>
      </trkpt>
      <trkpt lat="42.81114" lon="0.42261">
        <ele>1142</ele>
        <time>2019-08-08T07:12:19.000Z</time>
      </trkpt>
      <trkpt lat="42.81114" lon="0.42261">
        <ele>1142</ele>
        <time>2019-08-08T07:12:20.000Z</time>
      </trkpt>
      <trkpt lat="42.81109" lon="0.42258">
        <ele>1142</ele>
        <time>2019-08-08T07:12:21.000Z</time>
      </trkpt>
      <trkpt lat="42.81107" lon="0.42256">
        <ele>1143</ele>
        <time>2019-08-08T07:12:22.000Z</time>
      </trkpt>
      <trkpt lat="42.81104" lon="0.42254">
        <ele>1143</ele>
        <time>2019-08-08T07:12:23.000Z</time>
      </trkpt>
      <trkpt lat="42.81102" lon="0.42253">
        <ele>1143</ele>
        <time>2019-08-08T07:12:24.000Z</time>
      </trkpt>
      <trkpt lat="42.81099" lon="0.42251">
        <ele>1143</ele>
        <time>2019-08-08T07:12:25.000Z</time>
      </trkpt>
      <trkpt lat="42.81097" lon="0.42249">
        <ele>1144</ele>
        <time>2019-08-08T07:12:26.000Z</time>
      </trkpt>
      <trkpt lat="42.81097" lon="0.42249">
        <ele>1144</ele>
        <time>2019-08-08T07:12:27.000Z</time>
      </trkpt>
      <trkpt lat="42.81092" lon="0.42246">
        <ele>1144</ele>
        <time>2019-08-08T07:12:28.000Z</time>
      </trkpt>
      <trkpt lat="42.8109" lon="0.42244">
        <ele>1144</ele>
        <time>2019-08-08T07:12:29.000Z</time>
      </trkpt>
      <trkpt lat="42.81088" lon="0.42243">
        <ele>1145</ele>
        <time>2019-08-08T07:12:30.000Z</time>
      </trkpt>
      <trkpt lat="42.81086" lon="0.42242">
        <ele>1145</ele>
        <time>2019-08-08T07:12:31.000Z</time>
      </trkpt>
      <trkpt lat="42.81084" lon="0.4224">
        <ele>1146</ele>
        <time>2019-08-08T07:12:32.000Z</time>
      </trkpt>
      <trkpt lat="42.81082" lon="0.42239">
        <ele>1146</ele>
        <time>2019-08-08T07:12:33.000Z</time>
      </trkpt>
      <trkpt lat="42.81079" lon="0.42237">
        <ele>1146</ele>
        <time>2019-08-08T07:12:34.000Z</time>
      </trkpt>
      <trkpt lat="42.81077" lon="0.42235">
        <ele>1146</ele>
        <time>2019-08-08T07:12:35.000Z</time>
      </trkpt>
      <trkpt lat="42.81075" lon="0.42233">
        <ele>1146</ele>
        <time>2019-08-08T07:12:36.000Z</time>
      </trkpt>
      <trkpt lat="42.81072" lon="0.42231">
        <ele>1147</ele>
        <time>2019-08-08T07:12:37.000Z</time>
      </trkpt>
      <trkpt lat="42.81069" lon="0.42229">
        <ele>1147</ele>
        <time>2019-08-08T07:12:38.000Z</time>
      </trkpt>
      <trkpt lat="42.81067" lon="0.42227">
        <ele>1147</ele>
        <time>2019-08-08T07:12:39.000Z</time>
      </trkpt>
      <trkpt lat="42.81064" lon="0.42226">
        <ele>1147</ele>
        <time>2019-08-08T07:12:40.000Z</time>
      </trkpt>
      <trkpt lat="42.81062" lon="0.42224">
        <ele>1147</ele>
        <time>2019-08-08T07:12:41.000Z</time>
      </trkpt>
      <trkpt lat="42.81059" lon="0.42222">
        <ele>1147</ele>
        <time>2019-08-08T07:12:42.000Z</time>
      </trkpt>
      <trkpt lat="42.81057" lon="0.4222">
        <ele>1148</ele>
        <time>2019-08-08T07:12:43.000Z</time>
      </trkpt>
      <trkpt lat="42.81055" lon="0.42218">
        <ele>1148</ele>
        <time>2019-08-08T07:12:44.000Z</time>
      </trkpt>
      <trkpt lat="42.81052" lon="0.42216">
        <ele>1148</ele>
        <time>2019-08-08T07:12:45.000Z</time>
      </trkpt>
      <trkpt lat="42.8105" lon="0.42214">
        <ele>1148</ele>
        <time>2019-08-08T07:12:46.000Z</time>
      </trkpt>
      <trkpt lat="42.81047" lon="0.42213">
        <ele>1148</ele>
        <time>2019-08-08T07:12:47.000Z</time>
      </trkpt>
      <trkpt lat="42.81045" lon="0.4221">
        <ele>1149</ele>
        <time>2019-08-08T07:12:48.000Z</time>
      </trkpt>
      <trkpt lat="42.81042" lon="0.42208">
        <ele>1149</ele>
        <time>2019-08-08T07:12:49.000Z</time>
      </trkpt>
      <trkpt lat="42.8104" lon="0.42206">
        <ele>1150</ele>
        <time>2019-08-08T07:12:50.000Z</time>
      </trkpt>
      <trkpt lat="42.8104" lon="0.42206">
        <ele>1150</ele>
        <time>2019-08-08T07:12:51.000Z</time>
      </trkpt>
      <trkpt lat="42.81033" lon="0.422">
        <ele>1150</ele>
        <time>2019-08-08T07:12:53.000Z</time>
      </trkpt>
      <trkpt lat="42.81031" lon="0.42198">
        <ele>1150</ele>
        <time>2019-08-08T07:12:54.000Z</time>
      </trkpt>
      <trkpt lat="42.81028" lon="0.42197">
        <ele>1151</ele>
        <time>2019-08-08T07:12:55.000Z</time>
      </trkpt>
      <trkpt lat="42.81026" lon="0.42195">
        <ele>1151</ele>
        <time>2019-08-08T07:12:56.000Z</time>
      </trkpt>
      <trkpt lat="42.81024" lon="0.42194">
        <ele>1152</ele>
        <time>2019-08-08T07:12:57.000Z</time>
      </trkpt>
      <trkpt lat="42.81021" lon="0.42192">
        <ele>1152</ele>
        <time>2019-08-08T07:12:58.000Z</time>
      </trkpt>
      <trkpt lat="42.81019" lon="0.42191">
        <ele>1153</ele>
        <time>2019-08-08T07:12:59.000Z</time>
      </trkpt>
      <trkpt lat="42.81017" lon="0.42189">
        <ele>1153</ele>
        <time>2019-08-08T07:13:00.000Z</time>
      </trkpt>
      <trkpt lat="42.81014" lon="0.42188">
        <ele>1153</ele>
        <time>2019-08-08T07:13:01.000Z</time>
      </trkpt>
      <trkpt lat="42.81012" lon="0.42187">
        <ele>1153</ele>
        <time>2019-08-08T07:13:02.000Z</time>
      </trkpt>
      <trkpt lat="42.81009" lon="0.42186">
        <ele>1153</ele>
        <time>2019-08-08T07:13:03.000Z</time>
      </trkpt>
      <trkpt lat="42.81006" lon="0.42185">
        <ele>1153</ele>
        <time>2019-08-08T07:13:04.000Z</time>
      </trkpt>
      <trkpt lat="42.81004" lon="0.42184">
        <ele>1153</ele>
        <time>2019-08-08T07:13:05.000Z</time>
      </trkpt>
      <trkpt lat="42.81001" lon="0.42183">
        <ele>1153</ele>
        <time>2019-08-08T07:13:06.000Z</time>
      </trkpt>
      <trkpt lat="42.80998" lon="0.42182">
        <ele>1153</ele>
        <time>2019-08-08T07:13:07.000Z</time>
      </trkpt>
      <trkpt lat="42.80996" lon="0.42181">
        <ele>1154</ele>
        <time>2019-08-08T07:13:08.000Z</time>
      </trkpt>
      <trkpt lat="42.80993" lon="0.42181">
        <ele>1154</ele>
        <time>2019-08-08T07:13:09.000Z</time>
      </trkpt>
      <trkpt lat="42.80991" lon="0.4218">
        <ele>1154</ele>
        <time>2019-08-08T07:13:10.000Z</time>
      </trkpt>
      <trkpt lat="42.80989" lon="0.42179">
        <ele>1155</ele>
        <time>2019-08-08T07:13:11.000Z</time>
      </trkpt>
      <trkpt lat="42.80986" lon="0.42178">
        <ele>1155</ele>
        <time>2019-08-08T07:13:12.000Z</time>
      </trkpt>
      <trkpt lat="42.80984" lon="0.42178">
        <ele>1155</ele>
        <time>2019-08-08T07:13:13.000Z</time>
      </trkpt>
      <trkpt lat="42.80981" lon="0.42177">
        <ele>1155</ele>
        <time>2019-08-08T07:13:14.000Z</time>
      </trkpt>
      <trkpt lat="42.80978" lon="0.42177">
        <ele>1155</ele>
        <time>2019-08-08T07:13:15.000Z</time>
      </trkpt>
      <trkpt lat="42.80976" lon="0.42177">
        <ele>1156</ele>
        <time>2019-08-08T07:13:16.000Z</time>
      </trkpt>
      <trkpt lat="42.80973" lon="0.42176">
        <ele>1156</ele>
        <time>2019-08-08T07:13:17.000Z</time>
      </trkpt>
      <trkpt lat="42.80971" lon="0.42176">
        <ele>1156</ele>
        <time>2019-08-08T07:13:18.000Z</time>
      </trkpt>
      <trkpt lat="42.80968" lon="0.42176">
        <ele>1157</ele>
        <time>2019-08-08T07:13:19.000Z</time>
      </trkpt>
      <trkpt lat="42.80966" lon="0.42176">
        <ele>1157</ele>
        <time>2019-08-08T07:13:20.000Z</time>
      </trkpt>
      <trkpt lat="42.80963" lon="0.42176">
        <ele>1157</ele>
        <time>2019-08-08T07:13:21.000Z</time>
      </trkpt>
      <trkpt lat="42.8096" lon="0.42175">
        <ele>1157</ele>
        <time>2019-08-08T07:13:22.000Z</time>
      </trkpt>
      <trkpt lat="42.80958" lon="0.42175">
        <ele>1158</ele>
        <time>2019-08-08T07:13:23.000Z</time>
      </trkpt>
      <trkpt lat="42.80955" lon="0.42175">
        <ele>1158</ele>
        <time>2019-08-08T07:13:24.000Z</time>
      </trkpt>
      <trkpt lat="42.80953" lon="0.42175">
        <ele>1158</ele>
        <time>2019-08-08T07:13:25.000Z</time>
      </trkpt>
      <trkpt lat="42.8095" lon="0.42175">
        <ele>1158</ele>
        <time>2019-08-08T07:13:26.000Z</time>
      </trkpt>
      <trkpt lat="42.80947" lon="0.42175">
        <ele>1158</ele>
        <time>2019-08-08T07:13:27.000Z</time>
      </trkpt>
      <trkpt lat="42.80945" lon="0.42175">
        <ele>1158</ele>
        <time>2019-08-08T07:13:28.000Z</time>
      </trkpt>
      <trkpt lat="42.80942" lon="0.42174">
        <ele>1158</ele>
        <time>2019-08-08T07:13:29.000Z</time>
      </trkpt>
      <trkpt lat="42.8094" lon="0.42174">
        <ele>1158</ele>
        <time>2019-08-08T07:13:30.000Z</time>
      </trkpt>
      <trkpt lat="42.80937" lon="0.42174">
        <ele>1158</ele>
        <time>2019-08-08T07:13:31.000Z</time>
      </trkpt>
      <trkpt lat="42.80934" lon="0.42173">
        <ele>1158</ele>
        <time>2019-08-08T07:13:32.000Z</time>
      </trkpt>
      <trkpt lat="42.80932" lon="0.42173">
        <ele>1158</ele>
        <time>2019-08-08T07:13:33.000Z</time>
      </trkpt>
      <trkpt lat="42.80929" lon="0.42172">
        <ele>1160</ele>
        <time>2019-08-08T07:13:34.000Z</time>
      </trkpt>
      <trkpt lat="42.80926" lon="0.42172">
        <ele>1160</ele>
        <time>2019-08-08T07:13:35.000Z</time>
      </trkpt>
      <trkpt lat="42.80924" lon="0.42171">
        <ele>1160</ele>
        <time>2019-08-08T07:13:36.000Z</time>
      </trkpt>
      <trkpt lat="42.80921" lon="0.42169">
        <ele>1160</ele>
        <time>2019-08-08T07:13:37.000Z</time>
      </trkpt>
      <trkpt lat="42.80919" lon="0.42167">
        <ele>1161</ele>
        <time>2019-08-08T07:13:38.000Z</time>
      </trkpt>
      <trkpt lat="42.80916" lon="0.42165">
        <ele>1161</ele>
        <time>2019-08-08T07:13:39.000Z</time>
      </trkpt>
      <trkpt lat="42.80914" lon="0.42163">
        <ele>1161</ele>
        <time>2019-08-08T07:13:40.000Z</time>
      </trkpt>
      <trkpt lat="42.80912" lon="0.4216">
        <ele>1161</ele>
        <time>2019-08-08T07:13:41.000Z</time>
      </trkpt>
      <trkpt lat="42.8091" lon="0.42158">
        <ele>1162</ele>
        <time>2019-08-08T07:13:42.000Z</time>
      </trkpt>
      <trkpt lat="42.80908" lon="0.42155">
        <ele>1162</ele>
        <time>2019-08-08T07:13:43.000Z</time>
      </trkpt>
      <trkpt lat="42.80907" lon="0.42152">
        <ele>1162</ele>
        <time>2019-08-08T07:13:44.000Z</time>
      </trkpt>
      <trkpt lat="42.80905" lon="0.42149">
        <ele>1162</ele>
        <time>2019-08-08T07:13:45.000Z</time>
      </trkpt>
      <trkpt lat="42.80904" lon="0.42146">
        <ele>1163</ele>
        <time>2019-08-08T07:13:46.000Z</time>
      </trkpt>
      <trkpt lat="42.80902" lon="0.42143">
        <ele>1163</ele>
        <time>2019-08-08T07:13:47.000Z</time>
      </trkpt>
      <trkpt lat="42.809" lon="0.4214">
        <ele>1164</ele>
        <time>2019-08-08T07:13:48.000Z</time>
      </trkpt>
      <trkpt lat="42.80899" lon="0.42138">
        <ele>1164</ele>
        <time>2019-08-08T07:13:49.000Z</time>
      </trkpt>
      <trkpt lat="42.80897" lon="0.42135">
        <ele>1164</ele>
        <time>2019-08-08T07:13:50.000Z</time>
      </trkpt>
      <trkpt lat="42.80894" lon="0.42134">
        <ele>1164</ele>
        <time>2019-08-08T07:13:51.000Z</time>
      </trkpt>
      <trkpt lat="42.80892" lon="0.42133">
        <ele>1164</ele>
        <time>2019-08-08T07:13:52.000Z</time>
      </trkpt>
      <trkpt lat="42.80889" lon="0.42134">
        <ele>1164</ele>
        <time>2019-08-08T07:13:53.000Z</time>
      </trkpt>
      <trkpt lat="42.80886" lon="0.42136">
        <ele>1164</ele>
        <time>2019-08-08T07:13:54.000Z</time>
      </trkpt>
      <trkpt lat="42.80884" lon="0.42138">
        <ele>1165</ele>
        <time>2019-08-08T07:13:55.000Z</time>
      </trkpt>
      <trkpt lat="42.80883" lon="0.42141">
        <ele>1165</ele>
        <time>2019-08-08T07:13:56.000Z</time>
      </trkpt>
      <trkpt lat="42.80882" lon="0.42144">
        <ele>1166</ele>
        <time>2019-08-08T07:13:57.000Z</time>
      </trkpt>
      <trkpt lat="42.80882" lon="0.42147">
        <ele>1166</ele>
        <time>2019-08-08T07:13:58.000Z</time>
      </trkpt>
      <trkpt lat="42.80882" lon="0.42151">
        <ele>1166</ele>
        <time>2019-08-08T07:13:59.000Z</time>
      </trkpt>
      <trkpt lat="42.80882" lon="0.42154">
        <ele>1166</ele>
        <time>2019-08-08T07:14:00.000Z</time>
      </trkpt>
      <trkpt lat="42.80883" lon="0.42157">
        <ele>1167</ele>
        <time>2019-08-08T07:14:01.000Z</time>
      </trkpt>
      <trkpt lat="42.80884" lon="0.4216">
        <ele>1167</ele>
        <time>2019-08-08T07:14:02.000Z</time>
      </trkpt>
      <trkpt lat="42.80886" lon="0.42163">
        <ele>1168</ele>
        <time>2019-08-08T07:14:03.000Z</time>
      </trkpt>
      <trkpt lat="42.80887" lon="0.42166">
        <ele>1168</ele>
        <time>2019-08-08T07:14:04.000Z</time>
      </trkpt>
      <trkpt lat="42.80889" lon="0.42168">
        <ele>1168</ele>
        <time>2019-08-08T07:14:05.000Z</time>
      </trkpt>
      <trkpt lat="42.80891" lon="0.42171">
        <ele>1168</ele>
        <time>2019-08-08T07:14:06.000Z</time>
      </trkpt>
      <trkpt lat="42.80893" lon="0.42174">
        <ele>1168</ele>
        <time>2019-08-08T07:14:07.000Z</time>
      </trkpt>
      <trkpt lat="42.80895" lon="0.42176">
        <ele>1169</ele>
        <time>2019-08-08T07:14:08.000Z</time>
      </trkpt>
      <trkpt lat="42.80896" lon="0.42179">
        <ele>1169</ele>
        <time>2019-08-08T07:14:09.000Z</time>
      </trkpt>
      <trkpt lat="42.80899" lon="0.42181">
        <ele>1170</ele>
        <time>2019-08-08T07:14:10.000Z</time>
      </trkpt>
      <trkpt lat="42.80901" lon="0.42183">
        <ele>1170</ele>
        <time>2019-08-08T07:14:11.000Z</time>
      </trkpt>
      <trkpt lat="42.80903" lon="0.42186">
        <ele>1170</ele>
        <time>2019-08-08T07:14:12.000Z</time>
      </trkpt>
      <trkpt lat="42.80905" lon="0.42188">
        <ele>1170</ele>
        <time>2019-08-08T07:14:13.000Z</time>
      </trkpt>
      <trkpt lat="42.80907" lon="0.4219">
        <ele>1170</ele>
        <time>2019-08-08T07:14:14.000Z</time>
      </trkpt>
      <trkpt lat="42.8091" lon="0.42192">
        <ele>1170</ele>
        <time>2019-08-08T07:14:15.000Z</time>
      </trkpt>
      <trkpt lat="42.80912" lon="0.42195">
        <ele>1170</ele>
        <time>2019-08-08T07:14:16.000Z</time>
      </trkpt>
      <trkpt lat="42.80914" lon="0.42197">
        <ele>1170</ele>
        <time>2019-08-08T07:14:17.000Z</time>
      </trkpt>
      <trkpt lat="42.80916" lon="0.42199">
        <ele>1171</ele>
        <time>2019-08-08T07:14:18.000Z</time>
      </trkpt>
      <trkpt lat="42.80918" lon="0.42201">
        <ele>1171</ele>
        <time>2019-08-08T07:14:19.000Z</time>
      </trkpt>
      <trkpt lat="42.8092" lon="0.42203">
        <ele>1171</ele>
        <time>2019-08-08T07:14:20.000Z</time>
      </trkpt>
      <trkpt lat="42.80922" lon="0.42205">
        <ele>1171</ele>
        <time>2019-08-08T07:14:21.000Z</time>
      </trkpt>
      <trkpt lat="42.80925" lon="0.42207">
        <ele>1172</ele>
        <time>2019-08-08T07:14:22.000Z</time>
      </trkpt>
      <trkpt lat="42.80927" lon="0.42209">
        <ele>1172</ele>
        <time>2019-08-08T07:14:23.000Z</time>
      </trkpt>
      <trkpt lat="42.80929" lon="0.42211">
        <ele>1172</ele>
        <time>2019-08-08T07:14:24.000Z</time>
      </trkpt>
      <trkpt lat="42.80931" lon="0.42213">
        <ele>1172</ele>
        <time>2019-08-08T07:14:25.000Z</time>
      </trkpt>
      <trkpt lat="42.80934" lon="0.42215">
        <ele>1172</ele>
        <time>2019-08-08T07:14:26.000Z</time>
      </trkpt>
      <trkpt lat="42.80936" lon="0.42216">
        <ele>1173</ele>
        <time>2019-08-08T07:14:27.000Z</time>
      </trkpt>
      <trkpt lat="42.80938" lon="0.42218">
        <ele>1173</ele>
        <time>2019-08-08T07:14:28.000Z</time>
      </trkpt>
      <trkpt lat="42.80941" lon="0.42219">
        <ele>1173</ele>
        <time>2019-08-08T07:14:29.000Z</time>
      </trkpt>
      <trkpt lat="42.80943" lon="0.42221">
        <ele>1173</ele>
        <time>2019-08-08T07:14:30.000Z</time>
      </trkpt>
      <trkpt lat="42.80945" lon="0.42223">
        <ele>1173</ele>
        <time>2019-08-08T07:14:31.000Z</time>
      </trkpt>
      <trkpt lat="42.80947" lon="0.42225">
        <ele>1173</ele>
        <time>2019-08-08T07:14:32.000Z</time>
      </trkpt>
      <trkpt lat="42.80949" lon="0.42228">
        <ele>1174</ele>
        <time>2019-08-08T07:14:33.000Z</time>
      </trkpt>
      <trkpt lat="42.80951" lon="0.42229">
        <ele>1174</ele>
        <time>2019-08-08T07:14:34.000Z</time>
      </trkpt>
      <trkpt lat="42.80953" lon="0.42231">
        <ele>1174</ele>
        <time>2019-08-08T07:14:35.000Z</time>
      </trkpt>
      <trkpt lat="42.80955" lon="0.42232">
        <ele>1174</ele>
        <time>2019-08-08T07:14:36.000Z</time>
      </trkpt>
      <trkpt lat="42.80958" lon="0.42234">
        <ele>1175</ele>
        <time>2019-08-08T07:14:37.000Z</time>
      </trkpt>
      <trkpt lat="42.8096" lon="0.42236">
        <ele>1175</ele>
        <time>2019-08-08T07:14:38.000Z</time>
      </trkpt>
      <trkpt lat="42.80962" lon="0.42238">
        <ele>1176</ele>
        <time>2019-08-08T07:14:39.000Z</time>
      </trkpt>
      <trkpt lat="42.80964" lon="0.4224">
        <ele>1176</ele>
        <time>2019-08-08T07:14:40.000Z</time>
      </trkpt>
      <trkpt lat="42.80967" lon="0.42242">
        <ele>1176</ele>
        <time>2019-08-08T07:14:41.000Z</time>
      </trkpt>
      <trkpt lat="42.80969" lon="0.42244">
        <ele>1176</ele>
        <time>2019-08-08T07:14:42.000Z</time>
      </trkpt>
      <trkpt lat="42.80971" lon="0.42246">
        <ele>1176</ele>
        <time>2019-08-08T07:14:43.000Z</time>
      </trkpt>
      <trkpt lat="42.80973" lon="0.42248">
        <ele>1176</ele>
        <time>2019-08-08T07:14:44.000Z</time>
      </trkpt>
      <trkpt lat="42.80975" lon="0.4225">
        <ele>1176</ele>
        <time>2019-08-08T07:14:45.000Z</time>
      </trkpt>
      <trkpt lat="42.80977" lon="0.42252">
        <ele>1177</ele>
        <time>2019-08-08T07:14:46.000Z</time>
      </trkpt>
      <trkpt lat="42.80979" lon="0.42255">
        <ele>1177</ele>
        <time>2019-08-08T07:14:47.000Z</time>
      </trkpt>
      <trkpt lat="42.80981" lon="0.42257">
        <ele>1178</ele>
        <time>2019-08-08T07:14:48.000Z</time>
      </trkpt>
      <trkpt lat="42.80983" lon="0.4226">
        <ele>1178</ele>
        <time>2019-08-08T07:14:49.000Z</time>
      </trkpt>
      <trkpt lat="42.80985" lon="0.42262">
        <ele>1178</ele>
        <time>2019-08-08T07:14:50.000Z</time>
      </trkpt>
      <trkpt lat="42.80986" lon="0.42265">
        <ele>1178</ele>
        <time>2019-08-08T07:14:51.000Z</time>
      </trkpt>
      <trkpt lat="42.80988" lon="0.42268">
        <ele>1179</ele>
        <time>2019-08-08T07:14:52.000Z</time>
      </trkpt>
      <trkpt lat="42.8099" lon="0.42271">
        <ele>1179</ele>
        <time>2019-08-08T07:14:53.000Z</time>
      </trkpt>
      <trkpt lat="42.80991" lon="0.42274">
        <ele>1179</ele>
        <time>2019-08-08T07:14:54.000Z</time>
      </trkpt>
      <trkpt lat="42.80993" lon="0.42277">
        <ele>1179</ele>
        <time>2019-08-08T07:14:55.000Z</time>
      </trkpt>
      <trkpt lat="42.80994" lon="0.4228">
        <ele>1180</ele>
        <time>2019-08-08T07:14:56.000Z</time>
      </trkpt>
      <trkpt lat="42.80996" lon="0.42283">
        <ele>1180</ele>
        <time>2019-08-08T07:14:57.000Z</time>
      </trkpt>
      <trkpt lat="42.80997" lon="0.42286">
        <ele>1180</ele>
        <time>2019-08-08T07:14:58.000Z</time>
      </trkpt>
      <trkpt lat="42.80998" lon="0.4229">
        <ele>1180</ele>
        <time>2019-08-08T07:14:59.000Z</time>
      </trkpt>
      <trkpt lat="42.81" lon="0.42293">
        <ele>1180</ele>
        <time>2019-08-08T07:15:00.000Z</time>
      </trkpt>
      <trkpt lat="42.81001" lon="0.42296">
        <ele>1180</ele>
        <time>2019-08-08T07:15:01.000Z</time>
      </trkpt>
      <trkpt lat="42.81003" lon="0.42299">
        <ele>1180</ele>
        <time>2019-08-08T07:15:02.000Z</time>
      </trkpt>
      <trkpt lat="42.81004" lon="0.42302">
        <ele>1180</ele>
        <time>2019-08-08T07:15:03.000Z</time>
      </trkpt>
      <trkpt lat="42.81005" lon="0.42304">
        <ele>1181</ele>
        <time>2019-08-08T07:15:04.000Z</time>
      </trkpt>
      <trkpt lat="42.81007" lon="0.42308">
        <ele>1181</ele>
        <time>2019-08-08T07:15:05.000Z</time>
      </trkpt>
      <trkpt lat="42.81008" lon="0.42311">
        <ele>1182</ele>
        <time>2019-08-08T07:15:06.000Z</time>
      </trkpt>
      <trkpt lat="42.81009" lon="0.42314">
        <ele>1182</ele>
        <time>2019-08-08T07:15:07.000Z</time>
      </trkpt>
      <trkpt lat="42.81011" lon="0.42317">
        <ele>1182</ele>
        <time>2019-08-08T07:15:08.000Z</time>
      </trkpt>
      <trkpt lat="42.81012" lon="0.4232">
        <ele>1182</ele>
        <time>2019-08-08T07:15:09.000Z</time>
      </trkpt>
      <trkpt lat="42.81013" lon="0.42323">
        <ele>1183</ele>
        <time>2019-08-08T07:15:10.000Z</time>
      </trkpt>
      <trkpt lat="42.81014" lon="0.42326">
        <ele>1183</ele>
        <time>2019-08-08T07:15:11.000Z</time>
      </trkpt>
      <trkpt lat="42.81016" lon="0.42328">
        <ele>1183</ele>
        <time>2019-08-08T07:15:12.000Z</time>
      </trkpt>
      <trkpt lat="42.81017" lon="0.42331">
        <ele>1183</ele>
        <time>2019-08-08T07:15:13.000Z</time>
      </trkpt>
      <trkpt lat="42.81019" lon="0.42334">
        <ele>1184</ele>
        <time>2019-08-08T07:15:14.000Z</time>
      </trkpt>
      <trkpt lat="42.8102" lon="0.42337">
        <ele>1184</ele>
        <time>2019-08-08T07:15:15.000Z</time>
      </trkpt>
      <trkpt lat="42.81022" lon="0.4234">
        <ele>1184</ele>
        <time>2019-08-08T07:15:16.000Z</time>
      </trkpt>
      <trkpt lat="42.81023" lon="0.42343">
        <ele>1184</ele>
        <time>2019-08-08T07:15:17.000Z</time>
      </trkpt>
      <trkpt lat="42.81025" lon="0.42346">
        <ele>1185</ele>
        <time>2019-08-08T07:15:18.000Z</time>
      </trkpt>
      <trkpt lat="42.81026" lon="0.42349">
        <ele>1185</ele>
        <time>2019-08-08T07:15:19.000Z</time>
      </trkpt>
      <trkpt lat="42.81027" lon="0.42352">
        <ele>1186</ele>
        <time>2019-08-08T07:15:20.000Z</time>
      </trkpt>
      <trkpt lat="42.81028" lon="0.42355">
        <ele>1186</ele>
        <time>2019-08-08T07:15:21.000Z</time>
      </trkpt>
      <trkpt lat="42.81029" lon="0.42357">
        <ele>1186</ele>
        <time>2019-08-08T07:15:22.000Z</time>
      </trkpt>
      <trkpt lat="42.81031" lon="0.4236">
        <ele>1186</ele>
        <time>2019-08-08T07:15:23.000Z</time>
      </trkpt>
      <trkpt lat="42.81032" lon="0.42363">
        <ele>1186</ele>
        <time>2019-08-08T07:15:24.000Z</time>
      </trkpt>
      <trkpt lat="42.81034" lon="0.42365">
        <ele>1186</ele>
        <time>2019-08-08T07:15:25.000Z</time>
      </trkpt>
      <trkpt lat="42.81035" lon="0.42368">
        <ele>1186</ele>
        <time>2019-08-08T07:15:26.000Z</time>
      </trkpt>
      <trkpt lat="42.81036" lon="0.42371">
        <ele>1187</ele>
        <time>2019-08-08T07:15:27.000Z</time>
      </trkpt>
      <trkpt lat="42.81038" lon="0.42374">
        <ele>1187</ele>
        <time>2019-08-08T07:15:28.000Z</time>
      </trkpt>
      <trkpt lat="42.81039" lon="0.42377">
        <ele>1187</ele>
        <time>2019-08-08T07:15:29.000Z</time>
      </trkpt>
      <trkpt lat="42.81041" lon="0.4238">
        <ele>1187</ele>
        <time>2019-08-08T07:15:30.000Z</time>
      </trkpt>
      <trkpt lat="42.81042" lon="0.42383">
        <ele>1187</ele>
        <time>2019-08-08T07:15:31.000Z</time>
      </trkpt>
      <trkpt lat="42.81044" lon="0.42385">
        <ele>1189</ele>
        <time>2019-08-08T07:15:32.000Z</time>
      </trkpt>
      <trkpt lat="42.81045" lon="0.42388">
        <ele>1189</ele>
        <time>2019-08-08T07:15:33.000Z</time>
      </trkpt>
      <trkpt lat="42.81047" lon="0.42391">
        <ele>1189</ele>
        <time>2019-08-08T07:15:34.000Z</time>
      </trkpt>
      <trkpt lat="42.81048" lon="0.42394">
        <ele>1189</ele>
        <time>2019-08-08T07:15:35.000Z</time>
      </trkpt>
      <trkpt lat="42.8105" lon="0.42396">
        <ele>1189</ele>
        <time>2019-08-08T07:15:36.000Z</time>
      </trkpt>
      <trkpt lat="42.81051" lon="0.42399">
        <ele>1189</ele>
        <time>2019-08-08T07:15:37.000Z</time>
      </trkpt>
      <trkpt lat="42.81052" lon="0.42402">
        <ele>1189</ele>
        <time>2019-08-08T07:15:38.000Z</time>
      </trkpt>
      <trkpt lat="42.81054" lon="0.42405">
        <ele>1189</ele>
        <time>2019-08-08T07:15:39.000Z</time>
      </trkpt>
      <trkpt lat="42.81055" lon="0.42408">
        <ele>1189</ele>
        <time>2019-08-08T07:15:40.000Z</time>
      </trkpt>
      <trkpt lat="42.81057" lon="0.42411">
        <ele>1189</ele>
        <time>2019-08-08T07:15:41.000Z</time>
      </trkpt>
      <trkpt lat="42.81058" lon="0.42414">
        <ele>1190</ele>
        <time>2019-08-08T07:15:42.000Z</time>
      </trkpt>
      <trkpt lat="42.81059" lon="0.42417">
        <ele>1190</ele>
        <time>2019-08-08T07:15:43.000Z</time>
      </trkpt>
      <trkpt lat="42.81061" lon="0.4242">
        <ele>1190</ele>
        <time>2019-08-08T07:15:44.000Z</time>
      </trkpt>
      <trkpt lat="42.81062" lon="0.42423">
        <ele>1191</ele>
        <time>2019-08-08T07:15:45.000Z</time>
      </trkpt>
      <trkpt lat="42.81063" lon="0.42426">
        <ele>1191</ele>
        <time>2019-08-08T07:15:46.000Z</time>
      </trkpt>
      <trkpt lat="42.81064" lon="0.42429">
        <ele>1191</ele>
        <time>2019-08-08T07:15:47.000Z</time>
      </trkpt>
      <trkpt lat="42.81065" lon="0.42432">
        <ele>1192</ele>
        <time>2019-08-08T07:15:48.000Z</time>
      </trkpt>
      <trkpt lat="42.81066" lon="0.42436">
        <ele>1192</ele>
        <time>2019-08-08T07:15:49.000Z</time>
      </trkpt>
      <trkpt lat="42.81066" lon="0.42439">
        <ele>1192</ele>
        <time>2019-08-08T07:15:50.000Z</time>
      </trkpt>
      <trkpt lat="42.81067" lon="0.42443">
        <ele>1192</ele>
        <time>2019-08-08T07:15:51.000Z</time>
      </trkpt>
      <trkpt lat="42.81067" lon="0.42446">
        <ele>1193</ele>
        <time>2019-08-08T07:15:52.000Z</time>
      </trkpt>
      <trkpt lat="42.81067" lon="0.4245">
        <ele>1193</ele>
        <time>2019-08-08T07:15:53.000Z</time>
      </trkpt>
      <trkpt lat="42.81067" lon="0.42454">
        <ele>1194</ele>
        <time>2019-08-08T07:15:54.000Z</time>
      </trkpt>
      <trkpt lat="42.81068" lon="0.42457">
        <ele>1194</ele>
        <time>2019-08-08T07:15:55.000Z</time>
      </trkpt>
      <trkpt lat="42.81068" lon="0.42461">
        <ele>1194</ele>
        <time>2019-08-08T07:15:56.000Z</time>
      </trkpt>
      <trkpt lat="42.81068" lon="0.42465">
        <ele>1194</ele>
        <time>2019-08-08T07:15:57.000Z</time>
      </trkpt>
      <trkpt lat="42.81068" lon="0.42465">
        <ele>1194</ele>
        <time>2019-08-08T07:15:58.000Z</time>
      </trkpt>
      <trkpt lat="42.81068" lon="0.42465">
        <ele>1194</ele>
        <time>2019-08-08T07:15:59.000Z</time>
      </trkpt>
      <trkpt lat="42.8107" lon="0.42477">
        <ele>1195</ele>
        <time>2019-08-08T07:16:00.000Z</time>
      </trkpt>
      <trkpt lat="42.81071" lon="0.42481">
        <ele>1195</ele>
        <time>2019-08-08T07:16:01.000Z</time>
      </trkpt>
      <trkpt lat="42.81071" lon="0.42485">
        <ele>1195</ele>
        <time>2019-08-08T07:16:02.000Z</time>
      </trkpt>
      <trkpt lat="42.81072" lon="0.42488">
        <ele>1196</ele>
        <time>2019-08-08T07:16:03.000Z</time>
      </trkpt>
      <trkpt lat="42.81072" lon="0.42488">
        <ele>1196</ele>
        <time>2019-08-08T07:16:04.000Z</time>
      </trkpt>
      <trkpt lat="42.81074" lon="0.42495">
        <ele>1196</ele>
        <time>2019-08-08T07:16:05.000Z</time>
      </trkpt>
      <trkpt lat="42.81075" lon="0.42498">
        <ele>1196</ele>
        <time>2019-08-08T07:16:06.000Z</time>
      </trkpt>
      <trkpt lat="42.81075" lon="0.42498">
        <ele>1196</ele>
        <time>2019-08-08T07:16:07.000Z</time>
      </trkpt>
      <trkpt lat="42.81075" lon="0.42498">
        <ele>1197</ele>
        <time>2019-08-08T07:16:08.000Z</time>
      </trkpt>
      <trkpt lat="42.81075" lon="0.42498">
        <ele>1197</ele>
        <time>2019-08-08T07:16:09.000Z</time>
      </trkpt>
      <trkpt lat="42.81075" lon="0.42498">
        <ele>1197</ele>
        <time>2019-08-08T07:16:10.000Z</time>
      </trkpt>
      <trkpt lat="42.81083" lon="0.42507">
        <ele>1197</ele>
        <time>2019-08-08T07:16:11.000Z</time>
      </trkpt>
      <trkpt lat="42.81083" lon="0.42507">
        <ele>1198</ele>
        <time>2019-08-08T07:16:12.000Z</time>
      </trkpt>
      <trkpt lat="42.81087" lon="0.42509">
        <ele>1198</ele>
        <time>2019-08-08T07:16:13.000Z</time>
      </trkpt>
      <trkpt lat="42.81087" lon="0.42509">
        <ele>1198</ele>
        <time>2019-08-08T07:16:14.000Z</time>
      </trkpt>
      <trkpt lat="42.81093" lon="0.42512">
        <ele>1198</ele>
        <time>2019-08-08T07:16:15.000Z</time>
      </trkpt>
      <trkpt lat="42.81095" lon="0.42514">
        <ele>1198</ele>
        <time>2019-08-08T07:16:16.000Z</time>
      </trkpt>
      <trkpt lat="42.81098" lon="0.42516">
        <ele>1198</ele>
        <time>2019-08-08T07:16:17.000Z</time>
      </trkpt>
      <trkpt lat="42.81098" lon="0.42516">
        <ele>1199</ele>
        <time>2019-08-08T07:16:18.000Z</time>
      </trkpt>
      <trkpt lat="42.81103" lon="0.42518">
        <ele>1199</ele>
        <time>2019-08-08T07:16:19.000Z</time>
      </trkpt>
      <trkpt lat="42.81106" lon="0.42519">
        <ele>1199</ele>
        <time>2019-08-08T07:16:20.000Z</time>
      </trkpt>
      <trkpt lat="42.81109" lon="0.42519">
        <ele>1199</ele>
        <time>2019-08-08T07:16:21.000Z</time>
      </trkpt>
      <trkpt lat="42.81111" lon="0.4252">
        <ele>1199</ele>
        <time>2019-08-08T07:16:22.000Z</time>
      </trkpt>
      <trkpt lat="42.81114" lon="0.42521">
        <ele>1199</ele>
        <time>2019-08-08T07:16:23.000Z</time>
      </trkpt>
      <trkpt lat="42.81116" lon="0.42521">
        <ele>1199</ele>
        <time>2019-08-08T07:16:24.000Z</time>
      </trkpt>
      <trkpt lat="42.81119" lon="0.42522">
        <ele>1200</ele>
        <time>2019-08-08T07:16:25.000Z</time>
      </trkpt>
      <trkpt lat="42.81121" lon="0.42523">
        <ele>1200</ele>
        <time>2019-08-08T07:16:26.000Z</time>
      </trkpt>
      <trkpt lat="42.81124" lon="0.42524">
        <ele>1201</ele>
        <time>2019-08-08T07:16:27.000Z</time>
      </trkpt>
      <trkpt lat="42.81126" lon="0.42525">
        <ele>1201</ele>
        <time>2019-08-08T07:16:28.000Z</time>
      </trkpt>
      <trkpt lat="42.81129" lon="0.42526">
        <ele>1202</ele>
        <time>2019-08-08T07:16:29.000Z</time>
      </trkpt>
      <trkpt lat="42.81131" lon="0.42528">
        <ele>1202</ele>
        <time>2019-08-08T07:16:30.000Z</time>
      </trkpt>
      <trkpt lat="42.81134" lon="0.42529">
        <ele>1202</ele>
        <time>2019-08-08T07:16:31.000Z</time>
      </trkpt>
      <trkpt lat="42.81136" lon="0.4253">
        <ele>1202</ele>
        <time>2019-08-08T07:16:32.000Z</time>
      </trkpt>
      <trkpt lat="42.81138" lon="0.42532">
        <ele>1203</ele>
        <time>2019-08-08T07:16:33.000Z</time>
      </trkpt>
      <trkpt lat="42.8114" lon="0.42534">
        <ele>1203</ele>
        <time>2019-08-08T07:16:34.000Z</time>
      </trkpt>
      <trkpt lat="42.81142" lon="0.42537">
        <ele>1203</ele>
        <time>2019-08-08T07:16:35.000Z</time>
      </trkpt>
      <trkpt lat="42.81144" lon="0.42539">
        <ele>1203</ele>
        <time>2019-08-08T07:16:36.000Z</time>
      </trkpt>
      <trkpt lat="42.81146" lon="0.42541">
        <ele>1204</ele>
        <time>2019-08-08T07:16:37.000Z</time>
      </trkpt>
      <trkpt lat="42.81148" lon="0.42543">
        <ele>1204</ele>
        <time>2019-08-08T07:16:38.000Z</time>
      </trkpt>
      <trkpt lat="42.8115" lon="0.42545">
        <ele>1204</ele>
        <time>2019-08-08T07:16:39.000Z</time>
      </trkpt>
      <trkpt lat="42.81152" lon="0.42548">
        <ele>1204</ele>
        <time>2019-08-08T07:16:40.000Z</time>
      </trkpt>
      <trkpt lat="42.81154" lon="0.42551">
        <ele>1204</ele>
        <time>2019-08-08T07:16:41.000Z</time>
      </trkpt>
      <trkpt lat="42.81155" lon="0.42554">
        <ele>1204</ele>
        <time>2019-08-08T07:16:42.000Z</time>
      </trkpt>
      <trkpt lat="42.81157" lon="0.42557">
        <ele>1205</ele>
        <time>2019-08-08T07:16:43.000Z</time>
      </trkpt>
      <trkpt lat="42.81158" lon="0.4256">
        <ele>1205</ele>
        <time>2019-08-08T07:16:44.000Z</time>
      </trkpt>
      <trkpt lat="42.8116" lon="0.42563">
        <ele>1205</ele>
        <time>2019-08-08T07:16:45.000Z</time>
      </trkpt>
      <trkpt lat="42.81161" lon="0.42567">
        <ele>1205</ele>
        <time>2019-08-08T07:16:46.000Z</time>
      </trkpt>
      <trkpt lat="42.81162" lon="0.4257">
        <ele>1205</ele>
        <time>2019-08-08T07:16:47.000Z</time>
      </trkpt>
      <trkpt lat="42.81163" lon="0.42573">
        <ele>1205</ele>
        <time>2019-08-08T07:16:48.000Z</time>
      </trkpt>
      <trkpt lat="42.81165" lon="0.42576">
        <ele>1206</ele>
        <time>2019-08-08T07:16:49.000Z</time>
      </trkpt>
      <trkpt lat="42.81166" lon="0.4258">
        <ele>1206</ele>
        <time>2019-08-08T07:16:50.000Z</time>
      </trkpt>
      <trkpt lat="42.81167" lon="0.42583">
        <ele>1206</ele>
        <time>2019-08-08T07:16:51.000Z</time>
      </trkpt>
      <trkpt lat="42.81168" lon="0.42586">
        <ele>1206</ele>
        <time>2019-08-08T07:16:52.000Z</time>
      </trkpt>
      <trkpt lat="42.81169" lon="0.4259">
        <ele>1207</ele>
        <time>2019-08-08T07:16:53.000Z</time>
      </trkpt>
      <trkpt lat="42.8117" lon="0.42593">
        <ele>1207</ele>
        <time>2019-08-08T07:16:54.000Z</time>
      </trkpt>
      <trkpt lat="42.81171" lon="0.42596">
        <ele>1207</ele>
        <time>2019-08-08T07:16:55.000Z</time>
      </trkpt>
      <trkpt lat="42.81172" lon="0.426">
        <ele>1207</ele>
        <time>2019-08-08T07:16:56.000Z</time>
      </trkpt>
      <trkpt lat="42.81173" lon="0.42603">
        <ele>1208</ele>
        <time>2019-08-08T07:16:57.000Z</time>
      </trkpt>
      <trkpt lat="42.81174" lon="0.42606">
        <ele>1208</ele>
        <time>2019-08-08T07:16:58.000Z</time>
      </trkpt>
      <trkpt lat="42.81175" lon="0.4261">
        <ele>1209</ele>
        <time>2019-08-08T07:16:59.000Z</time>
      </trkpt>
      <trkpt lat="42.81175" lon="0.42613">
        <ele>1209</ele>
        <time>2019-08-08T07:17:00.000Z</time>
      </trkpt>
      <trkpt lat="42.81176" lon="0.42617">
        <ele>1209</ele>
        <time>2019-08-08T07:17:01.000Z</time>
      </trkpt>
      <trkpt lat="42.81177" lon="0.4262">
        <ele>1209</ele>
        <time>2019-08-08T07:17:02.000Z</time>
      </trkpt>
      <trkpt lat="42.81177" lon="0.42624">
        <ele>1209</ele>
        <time>2019-08-08T07:17:03.000Z</time>
      </trkpt>
      <trkpt lat="42.81178" lon="0.42627">
        <ele>1209</ele>
        <time>2019-08-08T07:17:04.000Z</time>
      </trkpt>
      <trkpt lat="42.81178" lon="0.4263">
        <ele>1209</ele>
        <time>2019-08-08T07:17:05.000Z</time>
      </trkpt>
      <trkpt lat="42.81179" lon="0.42634">
        <ele>1210</ele>
        <time>2019-08-08T07:17:06.000Z</time>
      </trkpt>
      <trkpt lat="42.8118" lon="0.42637">
        <ele>1210</ele>
        <time>2019-08-08T07:17:07.000Z</time>
      </trkpt>
      <trkpt lat="42.8118" lon="0.42641">
        <ele>1210</ele>
        <time>2019-08-08T07:17:08.000Z</time>
      </trkpt>
      <trkpt lat="42.81181" lon="0.42644">
        <ele>1210</ele>
        <time>2019-08-08T07:17:09.000Z</time>
      </trkpt>
      <trkpt lat="42.81182" lon="0.42647">
        <ele>1211</ele>
        <time>2019-08-08T07:17:10.000Z</time>
      </trkpt>
      <trkpt lat="42.81182" lon="0.42651">
        <ele>1211</ele>
        <time>2019-08-08T07:17:11.000Z</time>
      </trkpt>
      <trkpt lat="42.81183" lon="0.42654">
        <ele>1212</ele>
        <time>2019-08-08T07:17:12.000Z</time>
      </trkpt>
      <trkpt lat="42.81184" lon="0.42658">
        <ele>1212</ele>
        <time>2019-08-08T07:17:13.000Z</time>
      </trkpt>
      <trkpt lat="42.81184" lon="0.42661">
        <ele>1212</ele>
        <time>2019-08-08T07:17:14.000Z</time>
      </trkpt>
      <trkpt lat="42.81185" lon="0.42665">
        <ele>1212</ele>
        <time>2019-08-08T07:17:15.000Z</time>
      </trkpt>
      <trkpt lat="42.81185" lon="0.42668">
        <ele>1212</ele>
        <time>2019-08-08T07:17:16.000Z</time>
      </trkpt>
      <trkpt lat="42.81186" lon="0.42672">
        <ele>1212</ele>
        <time>2019-08-08T07:17:17.000Z</time>
      </trkpt>
      <trkpt lat="42.81186" lon="0.42675">
        <ele>1212</ele>
        <time>2019-08-08T07:17:18.000Z</time>
      </trkpt>
      <trkpt lat="42.81187" lon="0.42678">
        <ele>1212</ele>
        <time>2019-08-08T07:17:19.000Z</time>
      </trkpt>
      <trkpt lat="42.81188" lon="0.42682">
        <ele>1212</ele>
        <time>2019-08-08T07:17:20.000Z</time>
      </trkpt>
      <trkpt lat="42.81189" lon="0.42685">
        <ele>1213</ele>
        <time>2019-08-08T07:17:21.000Z</time>
      </trkpt>
      <trkpt lat="42.8119" lon="0.42688">
        <ele>1213</ele>
        <time>2019-08-08T07:17:22.000Z</time>
      </trkpt>
      <trkpt lat="42.81191" lon="0.42691">
        <ele>1214</ele>
        <time>2019-08-08T07:17:23.000Z</time>
      </trkpt>
      <trkpt lat="42.81192" lon="0.42695">
        <ele>1214</ele>
        <time>2019-08-08T07:17:24.000Z</time>
      </trkpt>
      <trkpt lat="42.81193" lon="0.42698">
        <ele>1214</ele>
        <time>2019-08-08T07:17:25.000Z</time>
      </trkpt>
      <trkpt lat="42.81195" lon="0.42701">
        <ele>1214</ele>
        <time>2019-08-08T07:17:26.000Z</time>
      </trkpt>
      <trkpt lat="42.81196" lon="0.42704">
        <ele>1216</ele>
        <time>2019-08-08T07:17:27.000Z</time>
      </trkpt>
      <trkpt lat="42.81198" lon="0.42706">
        <ele>1216</ele>
        <time>2019-08-08T07:17:28.000Z</time>
      </trkpt>
      <trkpt lat="42.81199" lon="0.42709">
        <ele>1216</ele>
        <time>2019-08-08T07:17:29.000Z</time>
      </trkpt>
      <trkpt lat="42.81201" lon="0.42712">
        <ele>1216</ele>
        <time>2019-08-08T07:17:30.000Z</time>
      </trkpt>
      <trkpt lat="42.81203" lon="0.42714">
        <ele>1217</ele>
        <time>2019-08-08T07:17:31.000Z</time>
      </trkpt>
      <trkpt lat="42.81204" lon="0.42717">
        <ele>1217</ele>
        <time>2019-08-08T07:17:32.000Z</time>
      </trkpt>
      <trkpt lat="42.81206" lon="0.4272">
        <ele>1217</ele>
        <time>2019-08-08T07:17:33.000Z</time>
      </trkpt>
      <trkpt lat="42.81208" lon="0.42722">
        <ele>1217</ele>
        <time>2019-08-08T07:17:34.000Z</time>
      </trkpt>
      <trkpt lat="42.8121" lon="0.42725">
        <ele>1217</ele>
        <time>2019-08-08T07:17:35.000Z</time>
      </trkpt>
      <trkpt lat="42.81211" lon="0.42728">
        <ele>1217</ele>
        <time>2019-08-08T07:17:36.000Z</time>
      </trkpt>
      <trkpt lat="42.81213" lon="0.42731">
        <ele>1218</ele>
        <time>2019-08-08T07:17:37.000Z</time>
      </trkpt>
      <trkpt lat="42.81214" lon="0.42734">
        <ele>1218</ele>
        <time>2019-08-08T07:17:38.000Z</time>
      </trkpt>
      <trkpt lat="42.81216" lon="0.42736">
        <ele>1218</ele>
        <time>2019-08-08T07:17:39.000Z</time>
      </trkpt>
      <trkpt lat="42.81217" lon="0.42739">
        <ele>1218</ele>
        <time>2019-08-08T07:17:40.000Z</time>
      </trkpt>
      <trkpt lat="42.81219" lon="0.42742">
        <ele>1218</ele>
        <time>2019-08-08T07:17:41.000Z</time>
      </trkpt>
      <trkpt lat="42.81221" lon="0.42745">
        <ele>1219</ele>
        <time>2019-08-08T07:17:42.000Z</time>
      </trkpt>
      <trkpt lat="42.81223" lon="0.42747">
        <ele>1219</ele>
        <time>2019-08-08T07:17:43.000Z</time>
      </trkpt>
      <trkpt lat="42.81225" lon="0.4275">
        <ele>1219</ele>
        <time>2019-08-08T07:17:44.000Z</time>
      </trkpt>
      <trkpt lat="42.81226" lon="0.42752">
        <ele>1219</ele>
        <time>2019-08-08T07:17:45.000Z</time>
      </trkpt>
      <trkpt lat="42.81228" lon="0.42755">
        <ele>1220</ele>
        <time>2019-08-08T07:17:46.000Z</time>
      </trkpt>
      <trkpt lat="42.8123" lon="0.42758">
        <ele>1220</ele>
        <time>2019-08-08T07:17:47.000Z</time>
      </trkpt>
      <trkpt lat="42.81232" lon="0.4276">
        <ele>1220</ele>
        <time>2019-08-08T07:17:48.000Z</time>
      </trkpt>
      <trkpt lat="42.81234" lon="0.42763">
        <ele>1220</ele>
        <time>2019-08-08T07:17:49.000Z</time>
      </trkpt>
      <trkpt lat="42.81236" lon="0.42765">
        <ele>1220</ele>
        <time>2019-08-08T07:17:50.000Z</time>
      </trkpt>
      <trkpt lat="42.81238" lon="0.42768">
        <ele>1220</ele>
        <time>2019-08-08T07:17:51.000Z</time>
      </trkpt>
      <trkpt lat="42.8124" lon="0.4277">
        <ele>1220</ele>
        <time>2019-08-08T07:17:52.000Z</time>
      </trkpt>
      <trkpt lat="42.81241" lon="0.42773">
        <ele>1220</ele>
        <time>2019-08-08T07:17:53.000Z</time>
      </trkpt>
      <trkpt lat="42.81243" lon="0.42775">
        <ele>1221</ele>
        <time>2019-08-08T07:17:54.000Z</time>
      </trkpt>
      <trkpt lat="42.81245" lon="0.42777">
        <ele>1221</ele>
        <time>2019-08-08T07:17:55.000Z</time>
      </trkpt>
      <trkpt lat="42.81248" lon="0.42779">
        <ele>1221</ele>
        <time>2019-08-08T07:17:56.000Z</time>
      </trkpt>
      <trkpt lat="42.8125" lon="0.42781">
        <ele>1221</ele>
        <time>2019-08-08T07:17:57.000Z</time>
      </trkpt>
      <trkpt lat="42.81252" lon="0.42783">
        <ele>1221</ele>
        <time>2019-08-08T07:17:58.000Z</time>
      </trkpt>
      <trkpt lat="42.81254" lon="0.42785">
        <ele>1221</ele>
        <time>2019-08-08T07:17:59.000Z</time>
      </trkpt>
      <trkpt lat="42.81257" lon="0.42786">
        <ele>1222</ele>
        <time>2019-08-08T07:18:00.000Z</time>
      </trkpt>
      <trkpt lat="42.81259" lon="0.42788">
        <ele>1222</ele>
        <time>2019-08-08T07:18:01.000Z</time>
      </trkpt>
      <trkpt lat="42.81262" lon="0.42789">
        <ele>1222</ele>
        <time>2019-08-08T07:18:02.000Z</time>
      </trkpt>
      <trkpt lat="42.81264" lon="0.4279">
        <ele>1222</ele>
        <time>2019-08-08T07:18:03.000Z</time>
      </trkpt>
      <trkpt lat="42.81266" lon="0.42791">
        <ele>1223</ele>
        <time>2019-08-08T07:18:04.000Z</time>
      </trkpt>
      <trkpt lat="42.81269" lon="0.42791">
        <ele>1223</ele>
        <time>2019-08-08T07:18:05.000Z</time>
      </trkpt>
      <trkpt lat="42.81271" lon="0.42792">
        <ele>1224</ele>
        <time>2019-08-08T07:18:06.000Z</time>
      </trkpt>
      <trkpt lat="42.81274" lon="0.42793">
        <ele>1224</ele>
        <time>2019-08-08T07:18:07.000Z</time>
      </trkpt>
      <trkpt lat="42.81276" lon="0.42794">
        <ele>1224</ele>
        <time>2019-08-08T07:18:08.000Z</time>
      </trkpt>
      <trkpt lat="42.81279" lon="0.42794">
        <ele>1224</ele>
        <time>2019-08-08T07:18:09.000Z</time>
      </trkpt>
      <trkpt lat="42.81282" lon="0.42794">
        <ele>1225</ele>
        <time>2019-08-08T07:18:10.000Z</time>
      </trkpt>
      <trkpt lat="42.81284" lon="0.42794">
        <ele>1225</ele>
        <time>2019-08-08T07:18:11.000Z</time>
      </trkpt>
      <trkpt lat="42.81287" lon="0.42794">
        <ele>1225</ele>
        <time>2019-08-08T07:18:12.000Z</time>
      </trkpt>
      <trkpt lat="42.81289" lon="0.42795">
        <ele>1225</ele>
        <time>2019-08-08T07:18:13.000Z</time>
      </trkpt>
      <trkpt lat="42.81292" lon="0.42795">
        <ele>1226</ele>
        <time>2019-08-08T07:18:14.000Z</time>
      </trkpt>
      <trkpt lat="42.81296" lon="0.42797">
        <ele>1226</ele>
        <time>2019-08-08T07:18:15.000Z</time>
      </trkpt>
      <trkpt lat="42.81297" lon="0.42797">
        <ele>1226</ele>
        <time>2019-08-08T07:18:16.000Z</time>
      </trkpt>
      <trkpt lat="42.813" lon="0.42799">
        <ele>1226</ele>
        <time>2019-08-08T07:18:17.000Z</time>
      </trkpt>
      <trkpt lat="42.81302" lon="0.42801">
        <ele>1226</ele>
        <time>2019-08-08T07:18:18.000Z</time>
      </trkpt>
      <trkpt lat="42.81304" lon="0.42803">
        <ele>1226</ele>
        <time>2019-08-08T07:18:19.000Z</time>
      </trkpt>
      <trkpt lat="42.81306" lon="0.42805">
        <ele>1226</ele>
        <time>2019-08-08T07:18:20.000Z</time>
      </trkpt>
      <trkpt lat="42.81307" lon="0.42808">
        <ele>1226</ele>
        <time>2019-08-08T07:18:21.000Z</time>
      </trkpt>
      <trkpt lat="42.81308" lon="0.42811">
        <ele>1226</ele>
        <time>2019-08-08T07:18:22.000Z</time>
      </trkpt>
      <trkpt lat="42.81309" lon="0.42814">
        <ele>1226</ele>
        <time>2019-08-08T07:18:23.000Z</time>
      </trkpt>
      <trkpt lat="42.8131" lon="0.42817">
        <ele>1227</ele>
        <time>2019-08-08T07:18:24.000Z</time>
      </trkpt>
      <trkpt lat="42.8131" lon="0.42821">
        <ele>1227</ele>
        <time>2019-08-08T07:18:25.000Z</time>
      </trkpt>
      <trkpt lat="42.81309" lon="0.42824">
        <ele>1228</ele>
        <time>2019-08-08T07:18:26.000Z</time>
      </trkpt>
      <trkpt lat="42.81308" lon="0.42827">
        <ele>1228</ele>
        <time>2019-08-08T07:18:27.000Z</time>
      </trkpt>
      <trkpt lat="42.81307" lon="0.42829">
        <ele>1228</ele>
        <time>2019-08-08T07:18:28.000Z</time>
      </trkpt>
      <trkpt lat="42.81306" lon="0.42832">
        <ele>1228</ele>
        <time>2019-08-08T07:18:29.000Z</time>
      </trkpt>
      <trkpt lat="42.81304" lon="0.42834">
        <ele>1229</ele>
        <time>2019-08-08T07:18:30.000Z</time>
      </trkpt>
      <trkpt lat="42.81302" lon="0.42836">
        <ele>1229</ele>
        <time>2019-08-08T07:18:31.000Z</time>
      </trkpt>
      <trkpt lat="42.813" lon="0.42837">
        <ele>1230</ele>
        <time>2019-08-08T07:18:32.000Z</time>
      </trkpt>
      <trkpt lat="42.81297" lon="0.42839">
        <ele>1230</ele>
        <time>2019-08-08T07:18:33.000Z</time>
      </trkpt>
      <trkpt lat="42.81294" lon="0.4284">
        <ele>1230</ele>
        <time>2019-08-08T07:18:34.000Z</time>
      </trkpt>
      <trkpt lat="42.81293" lon="0.42841">
        <ele>1230</ele>
        <time>2019-08-08T07:18:35.000Z</time>
      </trkpt>
      <trkpt lat="42.8129" lon="0.42842">
        <ele>1231</ele>
        <time>2019-08-08T07:18:36.000Z</time>
      </trkpt>
      <trkpt lat="42.81287" lon="0.42841">
        <ele>1231</ele>
        <time>2019-08-08T07:18:37.000Z</time>
      </trkpt>
      <trkpt lat="42.81284" lon="0.42841">
        <ele>1231</ele>
        <time>2019-08-08T07:18:38.000Z</time>
      </trkpt>
      <trkpt lat="42.81281" lon="0.42841">
        <ele>1231</ele>
        <time>2019-08-08T07:18:39.000Z</time>
      </trkpt>
      <trkpt lat="42.81278" lon="0.42841">
        <ele>1232</ele>
        <time>2019-08-08T07:18:40.000Z</time>
      </trkpt>
      <trkpt lat="42.81273" lon="0.4284">
        <ele>1232</ele>
        <time>2019-08-08T07:18:41.000Z</time>
      </trkpt>
      <trkpt lat="42.81272" lon="0.4284">
        <ele>1232</ele>
        <time>2019-08-08T07:18:42.000Z</time>
      </trkpt>
      <trkpt lat="42.8127" lon="0.42839">
        <ele>1232</ele>
        <time>2019-08-08T07:18:43.000Z</time>
      </trkpt>
      <trkpt lat="42.81263" lon="0.42838">
        <ele>1233</ele>
        <time>2019-08-08T07:18:44.000Z</time>
      </trkpt>
      <trkpt lat="42.81261" lon="0.42837">
        <ele>1233</ele>
        <time>2019-08-08T07:18:45.000Z</time>
      </trkpt>
      <trkpt lat="42.81259" lon="0.42837">
        <ele>1233</ele>
        <time>2019-08-08T07:18:46.000Z</time>
      </trkpt>
      <trkpt lat="42.81251" lon="0.42835">
        <ele>1233</ele>
        <time>2019-08-08T07:18:47.000Z</time>
      </trkpt>
      <trkpt lat="42.81249" lon="0.42835">
        <ele>1235</ele>
        <time>2019-08-08T07:18:48.000Z</time>
      </trkpt>
      <trkpt lat="42.81247" lon="0.42835">
        <ele>1235</ele>
        <time>2019-08-08T07:18:49.000Z</time>
      </trkpt>
      <trkpt lat="42.81241" lon="0.42834">
        <ele>1235</ele>
        <time>2019-08-08T07:18:50.000Z</time>
      </trkpt>
      <trkpt lat="42.81241" lon="0.42834">
        <ele>1235</ele>
        <time>2019-08-08T07:18:51.000Z</time>
      </trkpt>
      <trkpt lat="42.81241" lon="0.42834">
        <ele>1235</ele>
        <time>2019-08-08T07:18:52.000Z</time>
      </trkpt>
      <trkpt lat="42.81232" lon="0.4283">
        <ele>1235</ele>
        <time>2019-08-08T07:18:53.000Z</time>
      </trkpt>
      <trkpt lat="42.81232" lon="0.4283">
        <ele>1236</ele>
        <time>2019-08-08T07:18:54.000Z</time>
      </trkpt>
      <trkpt lat="42.81225" lon="0.42827">
        <ele>1236</ele>
        <time>2019-08-08T07:18:55.000Z</time>
      </trkpt>
      <trkpt lat="42.81222" lon="0.42825">
        <ele>1236</ele>
        <time>2019-08-08T07:18:56.000Z</time>
      </trkpt>
      <trkpt lat="42.81219" lon="0.42823">
        <ele>1236</ele>
        <time>2019-08-08T07:18:57.000Z</time>
      </trkpt>
      <trkpt lat="42.81216" lon="0.42821">
        <ele>1236</ele>
        <time>2019-08-08T07:18:58.000Z</time>
      </trkpt>
      <trkpt lat="42.81213" lon="0.4282">
        <ele>1236</ele>
        <time>2019-08-08T07:18:59.000Z</time>
      </trkpt>
      <trkpt lat="42.8121" lon="0.42818">
        <ele>1236</ele>
        <time>2019-08-08T07:19:00.000Z</time>
      </trkpt>
      <trkpt lat="42.81207" lon="0.42817">
        <ele>1237</ele>
        <time>2019-08-08T07:19:01.000Z</time>
      </trkpt>
      <trkpt lat="42.81203" lon="0.42816">
        <ele>1237</ele>
        <time>2019-08-08T07:19:02.000Z</time>
      </trkpt>
      <trkpt lat="42.812" lon="0.42815">
        <ele>1238</ele>
        <time>2019-08-08T07:19:03.000Z</time>
      </trkpt>
      <trkpt lat="42.81197" lon="0.42812">
        <ele>1238</ele>
        <time>2019-08-08T07:19:04.000Z</time>
      </trkpt>
      <trkpt lat="42.81194" lon="0.42811">
        <ele>1238</ele>
        <time>2019-08-08T07:19:05.000Z</time>
      </trkpt>
      <trkpt lat="42.81191" lon="0.42809">
        <ele>1239</ele>
        <time>2019-08-08T07:19:06.000Z</time>
      </trkpt>
      <trkpt lat="42.81188" lon="0.42807">
        <ele>1239</ele>
        <time>2019-08-08T07:19:07.000Z</time>
      </trkpt>
      <trkpt lat="42.81185" lon="0.42805">
        <ele>1240</ele>
        <time>2019-08-08T07:19:08.000Z</time>
      </trkpt>
      <trkpt lat="42.81181" lon="0.42803">
        <ele>1240</ele>
        <time>2019-08-08T07:19:09.000Z</time>
      </trkpt>
      <trkpt lat="42.81178" lon="0.42801">
        <ele>1240</ele>
        <time>2019-08-08T07:19:10.000Z</time>
      </trkpt>
      <trkpt lat="42.81175" lon="0.42799">
        <ele>1240</ele>
        <time>2019-08-08T07:19:11.000Z</time>
      </trkpt>
      <trkpt lat="42.81172" lon="0.42797">
        <ele>1240</ele>
        <time>2019-08-08T07:19:12.000Z</time>
      </trkpt>
      <trkpt lat="42.81169" lon="0.42795">
        <ele>1240</ele>
        <time>2019-08-08T07:19:13.000Z</time>
      </trkpt>
      <trkpt lat="42.81165" lon="0.42793">
        <ele>1240</ele>
        <time>2019-08-08T07:19:14.000Z</time>
      </trkpt>
      <trkpt lat="42.81162" lon="0.42791">
        <ele>1241</ele>
        <time>2019-08-08T07:19:15.000Z</time>
      </trkpt>
      <trkpt lat="42.81159" lon="0.42788">
        <ele>1241</ele>
        <time>2019-08-08T07:19:16.000Z</time>
      </trkpt>
      <trkpt lat="42.81156" lon="0.42785">
        <ele>1242</ele>
        <time>2019-08-08T07:19:17.000Z</time>
      </trkpt>
      <trkpt lat="42.81153" lon="0.42782">
        <ele>1242</ele>
        <time>2019-08-08T07:19:18.000Z</time>
      </trkpt>
      <trkpt lat="42.8115" lon="0.42779">
        <ele>1243</ele>
        <time>2019-08-08T07:19:19.000Z</time>
      </trkpt>
      <trkpt lat="42.81147" lon="0.42777">
        <ele>1243</ele>
        <time>2019-08-08T07:19:20.000Z</time>
      </trkpt>
      <trkpt lat="42.81145" lon="0.42775">
        <ele>1243</ele>
        <time>2019-08-08T07:19:21.000Z</time>
      </trkpt>
      <trkpt lat="42.81142" lon="0.42773">
        <ele>1244</ele>
        <time>2019-08-08T07:19:22.000Z</time>
      </trkpt>
      <trkpt lat="42.8114" lon="0.42771">
        <ele>1244</ele>
        <time>2019-08-08T07:19:23.000Z</time>
      </trkpt>
      <trkpt lat="42.81137" lon="0.42769">
        <ele>1244</ele>
        <time>2019-08-08T07:19:24.000Z</time>
      </trkpt>
      <trkpt lat="42.81134" lon="0.42767">
        <ele>1244</ele>
        <time>2019-08-08T07:19:25.000Z</time>
      </trkpt>
      <trkpt lat="42.81132" lon="0.42765">
        <ele>1245</ele>
        <time>2019-08-08T07:19:26.000Z</time>
      </trkpt>
      <trkpt lat="42.81129" lon="0.42763">
        <ele>1245</ele>
        <time>2019-08-08T07:19:27.000Z</time>
      </trkpt>
      <trkpt lat="42.81127" lon="0.4276">
        <ele>1245</ele>
        <time>2019-08-08T07:19:28.000Z</time>
      </trkpt>
      <trkpt lat="42.81124" lon="0.42758">
        <ele>1245</ele>
        <time>2019-08-08T07:19:29.000Z</time>
      </trkpt>
      <trkpt lat="42.81121" lon="0.42756">
        <ele>1245</ele>
        <time>2019-08-08T07:19:30.000Z</time>
      </trkpt>
      <trkpt lat="42.81119" lon="0.42754">
        <ele>1245</ele>
        <time>2019-08-08T07:19:31.000Z</time>
      </trkpt>
      <trkpt lat="42.81116" lon="0.42752">
        <ele>1246</ele>
        <time>2019-08-08T07:19:32.000Z</time>
      </trkpt>
      <trkpt lat="42.81113" lon="0.4275">
        <ele>1246</ele>
        <time>2019-08-08T07:19:33.000Z</time>
      </trkpt>
      <trkpt lat="42.81111" lon="0.42748">
        <ele>1246</ele>
        <time>2019-08-08T07:19:34.000Z</time>
      </trkpt>
      <trkpt lat="42.81107" lon="0.42746">
        <ele>1246</ele>
        <time>2019-08-08T07:19:35.000Z</time>
      </trkpt>
      <trkpt lat="42.81106" lon="0.42745">
        <ele>1247</ele>
        <time>2019-08-08T07:19:36.000Z</time>
      </trkpt>
      <trkpt lat="42.81103" lon="0.42744">
        <ele>1247</ele>
        <time>2019-08-08T07:19:37.000Z</time>
      </trkpt>
      <trkpt lat="42.81101" lon="0.42742">
        <ele>1248</ele>
        <time>2019-08-08T07:19:38.000Z</time>
      </trkpt>
      <trkpt lat="42.81098" lon="0.42741">
        <ele>1248</ele>
        <time>2019-08-08T07:19:39.000Z</time>
      </trkpt>
      <trkpt lat="42.81095" lon="0.42739">
        <ele>1249</ele>
        <time>2019-08-08T07:19:40.000Z</time>
      </trkpt>
      <trkpt lat="42.81093" lon="0.42738">
        <ele>1249</ele>
        <time>2019-08-08T07:19:41.000Z</time>
      </trkpt>
      <trkpt lat="42.8109" lon="0.42737">
        <ele>1249</ele>
        <time>2019-08-08T07:19:42.000Z</time>
      </trkpt>
      <trkpt lat="42.81087" lon="0.42735">
        <ele>1249</ele>
        <time>2019-08-08T07:19:43.000Z</time>
      </trkpt>
      <trkpt lat="42.81085" lon="0.42733">
        <ele>1250</ele>
        <time>2019-08-08T07:19:44.000Z</time>
      </trkpt>
      <trkpt lat="42.81082" lon="0.42732">
        <ele>1250</ele>
        <time>2019-08-08T07:19:45.000Z</time>
      </trkpt>
      <trkpt lat="42.81079" lon="0.42731">
        <ele>1250</ele>
        <time>2019-08-08T07:19:46.000Z</time>
      </trkpt>
      <trkpt lat="42.81077" lon="0.42729">
        <ele>1250</ele>
        <time>2019-08-08T07:19:47.000Z</time>
      </trkpt>
      <trkpt lat="42.81074" lon="0.42728">
        <ele>1251</ele>
        <time>2019-08-08T07:19:48.000Z</time>
      </trkpt>
      <trkpt lat="42.81071" lon="0.42727">
        <ele>1251</ele>
        <time>2019-08-08T07:19:49.000Z</time>
      </trkpt>
      <trkpt lat="42.81068" lon="0.42726">
        <ele>1251</ele>
        <time>2019-08-08T07:19:50.000Z</time>
      </trkpt>
      <trkpt lat="42.81066" lon="0.42725">
        <ele>1251</ele>
        <time>2019-08-08T07:19:51.000Z</time>
      </trkpt>
      <trkpt lat="42.81063" lon="0.42724">
        <ele>1251</ele>
        <time>2019-08-08T07:19:52.000Z</time>
      </trkpt>
      <trkpt lat="42.8106" lon="0.42724">
        <ele>1251</ele>
        <time>2019-08-08T07:19:53.000Z</time>
      </trkpt>
      <trkpt lat="42.81057" lon="0.42723">
        <ele>1251</ele>
        <time>2019-08-08T07:19:54.000Z</time>
      </trkpt>
      <trkpt lat="42.81055" lon="0.42722">
        <ele>1252</ele>
        <time>2019-08-08T07:19:55.000Z</time>
      </trkpt>
      <trkpt lat="42.81052" lon="0.42721">
        <ele>1252</ele>
        <time>2019-08-08T07:19:56.000Z</time>
      </trkpt>
      <trkpt lat="42.81049" lon="0.42719">
        <ele>1252</ele>
        <time>2019-08-08T07:19:57.000Z</time>
      </trkpt>
      <trkpt lat="42.81046" lon="0.42718">
        <ele>1252</ele>
        <time>2019-08-08T07:19:58.000Z</time>
      </trkpt>
      <trkpt lat="42.81043" lon="0.42717">
        <ele>1253</ele>
        <time>2019-08-08T07:19:59.000Z</time>
      </trkpt>
      <trkpt lat="42.8104" lon="0.42716">
        <ele>1253</ele>
        <time>2019-08-08T07:20:00.000Z</time>
      </trkpt>
      <trkpt lat="42.81037" lon="0.42715">
        <ele>1253</ele>
        <time>2019-08-08T07:20:01.000Z</time>
      </trkpt>
      <trkpt lat="42.81037" lon="0.42715">
        <ele>1253</ele>
        <time>2019-08-08T07:20:02.000Z</time>
      </trkpt>
      <trkpt lat="42.81037" lon="0.42715">
        <ele>1254</ele>
        <time>2019-08-08T07:20:03.000Z</time>
      </trkpt>
      <trkpt lat="42.81037" lon="0.42715">
        <ele>1254</ele>
        <time>2019-08-08T07:20:04.000Z</time>
      </trkpt>
      <trkpt lat="42.81026" lon="0.4271">
        <ele>1255</ele>
        <time>2019-08-08T07:20:05.000Z</time>
      </trkpt>
      <trkpt lat="42.81025" lon="0.42709">
        <ele>1255</ele>
        <time>2019-08-08T07:20:06.000Z</time>
      </trkpt>
      <trkpt lat="42.81024" lon="0.42708">
        <ele>1255</ele>
        <time>2019-08-08T07:20:07.000Z</time>
      </trkpt>
      <trkpt lat="42.81023" lon="0.42707">
        <ele>1255</ele>
        <time>2019-08-08T07:20:08.000Z</time>
      </trkpt>
      <trkpt lat="42.81018" lon="0.42704">
        <ele>1256</ele>
        <time>2019-08-08T07:20:09.000Z</time>
      </trkpt>
      <trkpt lat="42.81018" lon="0.42704">
        <ele>1256</ele>
        <time>2019-08-08T07:20:10.000Z</time>
      </trkpt>
      <trkpt lat="42.81018" lon="0.42704">
        <ele>1256</ele>
        <time>2019-08-08T07:20:11.000Z</time>
      </trkpt>
      <trkpt lat="42.8101" lon="0.42698">
        <ele>1257</ele>
        <time>2019-08-08T07:20:12.000Z</time>
      </trkpt>
      <trkpt lat="42.8101" lon="0.42698">
        <ele>1257</ele>
        <time>2019-08-08T07:20:13.000Z</time>
      </trkpt>
      <trkpt lat="42.8101" lon="0.42698">
        <ele>1258</ele>
        <time>2019-08-08T07:20:14.000Z</time>
      </trkpt>
      <trkpt lat="42.81" lon="0.42691">
        <ele>1258</ele>
        <time>2019-08-08T07:20:15.000Z</time>
      </trkpt>
      <trkpt lat="42.80999" lon="0.42689">
        <ele>1258</ele>
        <time>2019-08-08T07:20:16.000Z</time>
      </trkpt>
      <trkpt lat="42.80998" lon="0.42688">
        <ele>1258</ele>
        <time>2019-08-08T07:20:17.000Z</time>
      </trkpt>
      <trkpt lat="42.80997" lon="0.42687">
        <ele>1258</ele>
        <time>2019-08-08T07:20:18.000Z</time>
      </trkpt>
      <trkpt lat="42.80992" lon="0.42682">
        <ele>1258</ele>
        <time>2019-08-08T07:20:19.000Z</time>
      </trkpt>
      <trkpt lat="42.80992" lon="0.42682">
        <ele>1258</ele>
        <time>2019-08-08T07:20:20.000Z</time>
      </trkpt>
      <trkpt lat="42.80992" lon="0.42682">
        <ele>1258</ele>
        <time>2019-08-08T07:20:21.000Z</time>
      </trkpt>
      <trkpt lat="42.80984" lon="0.42674">
        <ele>1259</ele>
        <time>2019-08-08T07:20:22.000Z</time>
      </trkpt>
      <trkpt lat="42.80984" lon="0.42674">
        <ele>1259</ele>
        <time>2019-08-08T07:20:23.000Z</time>
      </trkpt>
      <trkpt lat="42.80984" lon="0.42674">
        <ele>1260</ele>
        <time>2019-08-08T07:20:24.000Z</time>
      </trkpt>
      <trkpt lat="42.80976" lon="0.42667">
        <ele>1260</ele>
        <time>2019-08-08T07:20:25.000Z</time>
      </trkpt>
      <trkpt lat="42.80976" lon="0.42667">
        <ele>1261</ele>
        <time>2019-08-08T07:20:26.000Z</time>
      </trkpt>
      <trkpt lat="42.80976" lon="0.42667">
        <ele>1261</ele>
        <time>2019-08-08T07:20:27.000Z</time>
      </trkpt>
      <trkpt lat="42.80966" lon="0.42661">
        <ele>1261.6</ele>
        <time>2019-08-08T07:20:29.000Z</time>
      </trkpt>
      <trkpt lat="42.80963" lon="0.4266">
        <ele>1262</ele>
        <time>2019-08-08T07:20:30.000Z</time>
      </trkpt>
      <trkpt lat="42.8096" lon="0.42658">
        <ele>1262</ele>
        <time>2019-08-08T07:20:31.000Z</time>
      </trkpt>
      <trkpt lat="42.80957" lon="0.42657">
        <ele>1262</ele>
        <time>2019-08-08T07:20:32.000Z</time>
      </trkpt>
      <trkpt lat="42.80954" lon="0.42656">
        <ele>1263</ele>
        <time>2019-08-08T07:20:33.000Z</time>
      </trkpt>
      <trkpt lat="42.80951" lon="0.42655">
        <ele>1263</ele>
        <time>2019-08-08T07:20:34.000Z</time>
      </trkpt>
      <trkpt lat="42.80949" lon="0.42653">
        <ele>1263</ele>
        <time>2019-08-08T07:20:35.000Z</time>
      </trkpt>
      <trkpt lat="42.80946" lon="0.42652">
        <ele>1263</ele>
        <time>2019-08-08T07:20:36.000Z</time>
      </trkpt>
      <trkpt lat="42.80943" lon="0.4265">
        <ele>1264</ele>
        <time>2019-08-08T07:20:37.000Z</time>
      </trkpt>
      <trkpt lat="42.80941" lon="0.4265">
        <ele>1264</ele>
        <time>2019-08-08T07:20:38.000Z</time>
      </trkpt>
      <trkpt lat="42.80938" lon="0.42649">
        <ele>1264</ele>
        <time>2019-08-08T07:20:39.000Z</time>
      </trkpt>
      <trkpt lat="42.80935" lon="0.42648">
        <ele>1264</ele>
        <time>2019-08-08T07:20:40.000Z</time>
      </trkpt>
      <trkpt lat="42.80933" lon="0.42647">
        <ele>1264</ele>
        <time>2019-08-08T07:20:41.000Z</time>
      </trkpt>
      <trkpt lat="42.80933" lon="0.42647">
        <ele>1264</ele>
        <time>2019-08-08T07:20:42.000Z</time>
      </trkpt>
      <trkpt lat="42.80933" lon="0.42647">
        <ele>1265</ele>
        <time>2019-08-08T07:20:43.000Z</time>
      </trkpt>
      <trkpt lat="42.80927" lon="0.4264">
        <ele>1265</ele>
        <time>2019-08-08T07:20:44.000Z</time>
      </trkpt>
      <trkpt lat="42.80925" lon="0.42637">
        <ele>1265</ele>
        <time>2019-08-08T07:20:45.000Z</time>
      </trkpt>
      <trkpt lat="42.80924" lon="0.42634">
        <ele>1266</ele>
        <time>2019-08-08T07:20:46.000Z</time>
      </trkpt>
      <trkpt lat="42.80923" lon="0.42631">
        <ele>1266</ele>
        <time>2019-08-08T07:20:47.000Z</time>
      </trkpt>
      <trkpt lat="42.80922" lon="0.42628">
        <ele>1267</ele>
        <time>2019-08-08T07:20:48.000Z</time>
      </trkpt>
      <trkpt lat="42.8092" lon="0.42625">
        <ele>1267</ele>
        <time>2019-08-08T07:20:49.000Z</time>
      </trkpt>
      <trkpt lat="42.80918" lon="0.42622">
        <ele>1267</ele>
        <time>2019-08-08T07:20:50.000Z</time>
      </trkpt>
      <trkpt lat="42.80917" lon="0.4262">
        <ele>1267</ele>
        <time>2019-08-08T07:20:51.000Z</time>
      </trkpt>
      <trkpt lat="42.80915" lon="0.42617">
        <ele>1267</ele>
        <time>2019-08-08T07:20:52.000Z</time>
      </trkpt>
      <trkpt lat="42.80914" lon="0.42614">
        <ele>1267</ele>
        <time>2019-08-08T07:20:53.000Z</time>
      </trkpt>
      <trkpt lat="42.80912" lon="0.42611">
        <ele>1267</ele>
        <time>2019-08-08T07:20:54.000Z</time>
      </trkpt>
      <trkpt lat="42.8091" lon="0.42609">
        <ele>1267</ele>
        <time>2019-08-08T07:20:55.000Z</time>
      </trkpt>
      <trkpt lat="42.80908" lon="0.42606">
        <ele>1267</ele>
        <time>2019-08-08T07:20:56.000Z</time>
      </trkpt>
      <trkpt lat="42.80906" lon="0.42604">
        <ele>1268</ele>
        <time>2019-08-08T07:20:57.000Z</time>
      </trkpt>
      <trkpt lat="42.80904" lon="0.42601">
        <ele>1268</ele>
        <time>2019-08-08T07:20:58.000Z</time>
      </trkpt>
      <trkpt lat="42.80902" lon="0.42599">
        <ele>1268</ele>
        <time>2019-08-08T07:20:59.000Z</time>
      </trkpt>
      <trkpt lat="42.809" lon="0.42596">
        <ele>1268</ele>
        <time>2019-08-08T07:21:00.000Z</time>
      </trkpt>
      <trkpt lat="42.80898" lon="0.42594">
        <ele>1268</ele>
        <time>2019-08-08T07:21:01.000Z</time>
      </trkpt>
      <trkpt lat="42.80896" lon="0.42591">
        <ele>1269</ele>
        <time>2019-08-08T07:21:02.000Z</time>
      </trkpt>
      <trkpt lat="42.80895" lon="0.42588">
        <ele>1269</ele>
        <time>2019-08-08T07:21:03.000Z</time>
      </trkpt>
      <trkpt lat="42.80893" lon="0.42585">
        <ele>1269</ele>
        <time>2019-08-08T07:21:04.000Z</time>
      </trkpt>
      <trkpt lat="42.80891" lon="0.42582">
        <ele>1270</ele>
        <time>2019-08-08T07:21:05.000Z</time>
      </trkpt>
      <trkpt lat="42.80889" lon="0.42579">
        <ele>1270</ele>
        <time>2019-08-08T07:21:06.000Z</time>
      </trkpt>
      <trkpt lat="42.80887" lon="0.42577">
        <ele>1270</ele>
        <time>2019-08-08T07:21:07.000Z</time>
      </trkpt>
      <trkpt lat="42.80885" lon="0.42575">
        <ele>1270</ele>
        <time>2019-08-08T07:21:08.000Z</time>
      </trkpt>
      <trkpt lat="42.80883" lon="0.42572">
        <ele>1270</ele>
        <time>2019-08-08T07:21:09.000Z</time>
      </trkpt>
      <trkpt lat="42.80881" lon="0.4257">
        <ele>1271</ele>
        <time>2019-08-08T07:21:10.000Z</time>
      </trkpt>
      <trkpt lat="42.80879" lon="0.42567">
        <ele>1271</ele>
        <time>2019-08-08T07:21:11.000Z</time>
      </trkpt>
      <trkpt lat="42.80877" lon="0.42565">
        <ele>1272</ele>
        <time>2019-08-08T07:21:12.000Z</time>
      </trkpt>
      <trkpt lat="42.80875" lon="0.42562">
        <ele>1272</ele>
        <time>2019-08-08T07:21:13.000Z</time>
      </trkpt>
      <trkpt lat="42.80873" lon="0.42559">
        <ele>1272</ele>
        <time>2019-08-08T07:21:14.000Z</time>
      </trkpt>
      <trkpt lat="42.80871" lon="0.42557">
        <ele>1272</ele>
        <time>2019-08-08T07:21:15.000Z</time>
      </trkpt>
      <trkpt lat="42.80869" lon="0.42555">
        <ele>1273</ele>
        <time>2019-08-08T07:21:16.000Z</time>
      </trkpt>
      <trkpt lat="42.80867" lon="0.42553">
        <ele>1273</ele>
        <time>2019-08-08T07:21:17.000Z</time>
      </trkpt>
      <trkpt lat="42.80864" lon="0.42552">
        <ele>1274</ele>
        <time>2019-08-08T07:21:18.000Z</time>
      </trkpt>
      <trkpt lat="42.80862" lon="0.4255">
        <ele>1274</ele>
        <time>2019-08-08T07:21:19.000Z</time>
      </trkpt>
      <trkpt lat="42.80859" lon="0.42548">
        <ele>1274</ele>
        <time>2019-08-08T07:21:20.000Z</time>
      </trkpt>
      <trkpt lat="42.80857" lon="0.42546">
        <ele>1274</ele>
        <time>2019-08-08T07:21:21.000Z</time>
      </trkpt>
      <trkpt lat="42.80854" lon="0.42545">
        <ele>1275</ele>
        <time>2019-08-08T07:21:22.000Z</time>
      </trkpt>
      <trkpt lat="42.80852" lon="0.42544">
        <ele>1275</ele>
        <time>2019-08-08T07:21:23.000Z</time>
      </trkpt>
      <trkpt lat="42.80849" lon="0.42542">
        <ele>1275</ele>
        <time>2019-08-08T07:21:24.000Z</time>
      </trkpt>
      <trkpt lat="42.80847" lon="0.42541">
        <ele>1275</ele>
        <time>2019-08-08T07:21:25.000Z</time>
      </trkpt>
      <trkpt lat="42.80844" lon="0.4254">
        <ele>1276</ele>
        <time>2019-08-08T07:21:26.000Z</time>
      </trkpt>
      <trkpt lat="42.80842" lon="0.42539">
        <ele>1276</ele>
        <time>2019-08-08T07:21:27.000Z</time>
      </trkpt>
      <trkpt lat="42.80839" lon="0.42538">
        <ele>1276</ele>
        <time>2019-08-08T07:21:28.000Z</time>
      </trkpt>
      <trkpt lat="42.80837" lon="0.42536">
        <ele>1276</ele>
        <time>2019-08-08T07:21:29.000Z</time>
      </trkpt>
      <trkpt lat="42.80834" lon="0.42535">
        <ele>1276</ele>
        <time>2019-08-08T07:21:30.000Z</time>
      </trkpt>
      <trkpt lat="42.80831" lon="0.42535">
        <ele>1276</ele>
        <time>2019-08-08T07:21:31.000Z</time>
      </trkpt>
      <trkpt lat="42.80829" lon="0.42534">
        <ele>1276</ele>
        <time>2019-08-08T07:21:32.000Z</time>
      </trkpt>
      <trkpt lat="42.80826" lon="0.42533">
        <ele>1277</ele>
        <time>2019-08-08T07:21:33.000Z</time>
      </trkpt>
      <trkpt lat="42.80823" lon="0.42532">
        <ele>1277</ele>
        <time>2019-08-08T07:21:34.000Z</time>
      </trkpt>
      <trkpt lat="42.80821" lon="0.42531">
        <ele>1277</ele>
        <time>2019-08-08T07:21:35.000Z</time>
      </trkpt>
      <trkpt lat="42.80818" lon="0.4253">
        <ele>1277</ele>
        <time>2019-08-08T07:21:36.000Z</time>
      </trkpt>
      <trkpt lat="42.80816" lon="0.42529">
        <ele>1278</ele>
        <time>2019-08-08T07:21:37.000Z</time>
      </trkpt>
      <trkpt lat="42.80813" lon="0.42528">
        <ele>1278</ele>
        <time>2019-08-08T07:21:38.000Z</time>
      </trkpt>
      <trkpt lat="42.8081" lon="0.42528">
        <ele>1278</ele>
        <time>2019-08-08T07:21:39.000Z</time>
      </trkpt>
      <trkpt lat="42.80807" lon="0.42528">
        <ele>1278</ele>
        <time>2019-08-08T07:21:40.000Z</time>
      </trkpt>
      <trkpt lat="42.80805" lon="0.42527">
        <ele>1279</ele>
        <time>2019-08-08T07:21:41.000Z</time>
      </trkpt>
      <trkpt lat="42.80802" lon="0.42526">
        <ele>1279</ele>
        <time>2019-08-08T07:21:42.000Z</time>
      </trkpt>
      <trkpt lat="42.808" lon="0.42525">
        <ele>1280</ele>
        <time>2019-08-08T07:21:43.000Z</time>
      </trkpt>
      <trkpt lat="42.80797" lon="0.42524">
        <ele>1280</ele>
        <time>2019-08-08T07:21:44.000Z</time>
      </trkpt>
      <trkpt lat="42.80794" lon="0.42523">
        <ele>1281</ele>
        <time>2019-08-08T07:21:45.000Z</time>
      </trkpt>
      <trkpt lat="42.80792" lon="0.42522">
        <ele>1281</ele>
        <time>2019-08-08T07:21:46.000Z</time>
      </trkpt>
      <trkpt lat="42.80789" lon="0.42521">
        <ele>1281</ele>
        <time>2019-08-08T07:21:47.000Z</time>
      </trkpt>
      <trkpt lat="42.80786" lon="0.4252">
        <ele>1281</ele>
        <time>2019-08-08T07:21:48.000Z</time>
      </trkpt>
      <trkpt lat="42.80784" lon="0.42519">
        <ele>1281</ele>
        <time>2019-08-08T07:21:49.000Z</time>
      </trkpt>
      <trkpt lat="42.80781" lon="0.42518">
        <ele>1281</ele>
        <time>2019-08-08T07:21:50.000Z</time>
      </trkpt>
      <trkpt lat="42.80779" lon="0.42517">
        <ele>1281</ele>
        <time>2019-08-08T07:21:51.000Z</time>
      </trkpt>
      <trkpt lat="42.80776" lon="0.42516">
        <ele>1281</ele>
        <time>2019-08-08T07:21:52.000Z</time>
      </trkpt>
      <trkpt lat="42.80773" lon="0.42515">
        <ele>1282</ele>
        <time>2019-08-08T07:21:53.000Z</time>
      </trkpt>
      <trkpt lat="42.80771" lon="0.42513">
        <ele>1282</ele>
        <time>2019-08-08T07:21:54.000Z</time>
      </trkpt>
      <trkpt lat="42.80768" lon="0.42512">
        <ele>1283</ele>
        <time>2019-08-08T07:21:55.000Z</time>
      </trkpt>
      <trkpt lat="42.80765" lon="0.42511">
        <ele>1283</ele>
        <time>2019-08-08T07:21:56.000Z</time>
      </trkpt>
      <trkpt lat="42.80763" lon="0.4251">
        <ele>1283</ele>
        <time>2019-08-08T07:21:57.000Z</time>
      </trkpt>
      <trkpt lat="42.8076" lon="0.42509">
        <ele>1283</ele>
        <time>2019-08-08T07:21:58.000Z</time>
      </trkpt>
      <trkpt lat="42.80757" lon="0.42508">
        <ele>1283</ele>
        <time>2019-08-08T07:21:59.000Z</time>
      </trkpt>
      <trkpt lat="42.80755" lon="0.42507">
        <ele>1283</ele>
        <time>2019-08-08T07:22:00.000Z</time>
      </trkpt>
      <trkpt lat="42.80752" lon="0.42506">
        <ele>1283</ele>
        <time>2019-08-08T07:22:01.000Z</time>
      </trkpt>
      <trkpt lat="42.8075" lon="0.42505">
        <ele>1284</ele>
        <time>2019-08-08T07:22:02.000Z</time>
      </trkpt>
      <trkpt lat="42.80747" lon="0.42504">
        <ele>1284</ele>
        <time>2019-08-08T07:22:03.000Z</time>
      </trkpt>
      <trkpt lat="42.80744" lon="0.42503">
        <ele>1284</ele>
        <time>2019-08-08T07:22:04.000Z</time>
      </trkpt>
      <trkpt lat="42.80741" lon="0.42502">
        <ele>1284</ele>
        <time>2019-08-08T07:22:05.000Z</time>
      </trkpt>
      <trkpt lat="42.80739" lon="0.425">
        <ele>1284</ele>
        <time>2019-08-08T07:22:06.000Z</time>
      </trkpt>
      <trkpt lat="42.80736" lon="0.42499">
        <ele>1285</ele>
        <time>2019-08-08T07:22:07.000Z</time>
      </trkpt>
      <trkpt lat="42.80733" lon="0.42498">
        <ele>1285</ele>
        <time>2019-08-08T07:22:08.000Z</time>
      </trkpt>
      <trkpt lat="42.80731" lon="0.42497">
        <ele>1285</ele>
        <time>2019-08-08T07:22:09.000Z</time>
      </trkpt>
      <trkpt lat="42.80728" lon="0.42496">
        <ele>1285</ele>
        <time>2019-08-08T07:22:10.000Z</time>
      </trkpt>
      <trkpt lat="42.80725" lon="0.42495">
        <ele>1286</ele>
        <time>2019-08-08T07:22:11.000Z</time>
      </trkpt>
      <trkpt lat="42.80722" lon="0.42494">
        <ele>1286</ele>
        <time>2019-08-08T07:22:12.000Z</time>
      </trkpt>
      <trkpt lat="42.8072" lon="0.42493">
        <ele>1286</ele>
        <time>2019-08-08T07:22:13.000Z</time>
      </trkpt>
      <trkpt lat="42.80717" lon="0.42492">
        <ele>1286</ele>
        <time>2019-08-08T07:22:14.000Z</time>
      </trkpt>
      <trkpt lat="42.80714" lon="0.42491">
        <ele>1287</ele>
        <time>2019-08-08T07:22:15.000Z</time>
      </trkpt>
      <trkpt lat="42.80712" lon="0.4249">
        <ele>1287</ele>
        <time>2019-08-08T07:22:16.000Z</time>
      </trkpt>
      <trkpt lat="42.80709" lon="0.4249">
        <ele>1287</ele>
        <time>2019-08-08T07:22:17.000Z</time>
      </trkpt>
      <trkpt lat="42.80706" lon="0.42489">
        <ele>1287</ele>
        <time>2019-08-08T07:22:18.000Z</time>
      </trkpt>
      <trkpt lat="42.80704" lon="0.42488">
        <ele>1288</ele>
        <time>2019-08-08T07:22:19.000Z</time>
      </trkpt>
      <trkpt lat="42.80701" lon="0.42488">
        <ele>1288</ele>
        <time>2019-08-08T07:22:20.000Z</time>
      </trkpt>
      <trkpt lat="42.80698" lon="0.42488">
        <ele>1288</ele>
        <time>2019-08-08T07:22:21.000Z</time>
      </trkpt>
      <trkpt lat="42.80695" lon="0.42487">
        <ele>1288</ele>
        <time>2019-08-08T07:22:22.000Z</time>
      </trkpt>
      <trkpt lat="42.80692" lon="0.42487">
        <ele>1289</ele>
        <time>2019-08-08T07:22:23.000Z</time>
      </trkpt>
      <trkpt lat="42.8069" lon="0.42486">
        <ele>1289</ele>
        <time>2019-08-08T07:22:24.000Z</time>
      </trkpt>
      <trkpt lat="42.80687" lon="0.42486">
        <ele>1289</ele>
        <time>2019-08-08T07:22:25.000Z</time>
      </trkpt>
      <trkpt lat="42.80684" lon="0.42485">
        <ele>1290</ele>
        <time>2019-08-08T07:22:26.000Z</time>
      </trkpt>
      <trkpt lat="42.80681" lon="0.42485">
        <ele>1290</ele>
        <time>2019-08-08T07:22:27.000Z</time>
      </trkpt>
      <trkpt lat="42.80679" lon="0.42485">
        <ele>1290</ele>
        <time>2019-08-08T07:22:28.000Z</time>
      </trkpt>
      <trkpt lat="42.80676" lon="0.42484">
        <ele>1290</ele>
        <time>2019-08-08T07:22:29.000Z</time>
      </trkpt>
      <trkpt lat="42.80673" lon="0.42484">
        <ele>1291</ele>
        <time>2019-08-08T07:22:30.000Z</time>
      </trkpt>
      <trkpt lat="42.80671" lon="0.42483">
        <ele>1291</ele>
        <time>2019-08-08T07:22:31.000Z</time>
      </trkpt>
      <trkpt lat="42.80668" lon="0.42483">
        <ele>1291</ele>
        <time>2019-08-08T07:22:32.000Z</time>
      </trkpt>
      <trkpt lat="42.80665" lon="0.42482">
        <ele>1291</ele>
        <time>2019-08-08T07:22:33.000Z</time>
      </trkpt>
      <trkpt lat="42.80663" lon="0.42482">
        <ele>1292</ele>
        <time>2019-08-08T07:22:34.000Z</time>
      </trkpt>
      <trkpt lat="42.8066" lon="0.42481">
        <ele>1292</ele>
        <time>2019-08-08T07:22:35.000Z</time>
      </trkpt>
      <trkpt lat="42.80657" lon="0.42481">
        <ele>1292</ele>
        <time>2019-08-08T07:22:36.000Z</time>
      </trkpt>
      <trkpt lat="42.80654" lon="0.4248">
        <ele>1292</ele>
        <time>2019-08-08T07:22:37.000Z</time>
      </trkpt>
      <trkpt lat="42.80652" lon="0.4248">
        <ele>1293</ele>
        <time>2019-08-08T07:22:38.000Z</time>
      </trkpt>
      <trkpt lat="42.80649" lon="0.4248">
        <ele>1293</ele>
        <time>2019-08-08T07:22:39.000Z</time>
      </trkpt>
      <trkpt lat="42.80646" lon="0.4248">
        <ele>1293</ele>
        <time>2019-08-08T07:22:40.000Z</time>
      </trkpt>
      <trkpt lat="42.80644" lon="0.42479">
        <ele>1293</ele>
        <time>2019-08-08T07:22:41.000Z</time>
      </trkpt>
      <trkpt lat="42.80641" lon="0.42479">
        <ele>1294</ele>
        <time>2019-08-08T07:22:42.000Z</time>
      </trkpt>
      <trkpt lat="42.80638" lon="0.42478">
        <ele>1294</ele>
        <time>2019-08-08T07:22:43.000Z</time>
      </trkpt>
      <trkpt lat="42.80636" lon="0.42478">
        <ele>1294</ele>
        <time>2019-08-08T07:22:44.000Z</time>
      </trkpt>
      <trkpt lat="42.80633" lon="0.42477">
        <ele>1295</ele>
        <time>2019-08-08T07:22:45.000Z</time>
      </trkpt>
      <trkpt lat="42.8063" lon="0.42477">
        <ele>1295</ele>
        <time>2019-08-08T07:22:46.000Z</time>
      </trkpt>
      <trkpt lat="42.80628" lon="0.42476">
        <ele>1295</ele>
        <time>2019-08-08T07:22:47.000Z</time>
      </trkpt>
      <trkpt lat="42.80625" lon="0.42476">
        <ele>1295</ele>
        <time>2019-08-08T07:22:48.000Z</time>
      </trkpt>
      <trkpt lat="42.80623" lon="0.42476">
        <ele>1296</ele>
        <time>2019-08-08T07:22:49.000Z</time>
      </trkpt>
      <trkpt lat="42.8062" lon="0.42476">
        <ele>1296</ele>
        <time>2019-08-08T07:22:50.000Z</time>
      </trkpt>
      <trkpt lat="42.80617" lon="0.42475">
        <ele>1296</ele>
        <time>2019-08-08T07:22:51.000Z</time>
      </trkpt>
      <trkpt lat="42.80614" lon="0.42475">
        <ele>1296</ele>
        <time>2019-08-08T07:22:52.000Z</time>
      </trkpt>
      <trkpt lat="42.80612" lon="0.42475">
        <ele>1296</ele>
        <time>2019-08-08T07:22:53.000Z</time>
      </trkpt>
      <trkpt lat="42.80609" lon="0.42475">
        <ele>1296</ele>
        <time>2019-08-08T07:22:54.000Z</time>
      </trkpt>
      <trkpt lat="42.80606" lon="0.42474">
        <ele>1296</ele>
        <time>2019-08-08T07:22:55.000Z</time>
      </trkpt>
      <trkpt lat="42.80604" lon="0.42474">
        <ele>1297</ele>
        <time>2019-08-08T07:22:56.000Z</time>
      </trkpt>
      <trkpt lat="42.80601" lon="0.42473">
        <ele>1297</ele>
        <time>2019-08-08T07:22:57.000Z</time>
      </trkpt>
      <trkpt lat="42.80598" lon="0.42472">
        <ele>1297</ele>
        <time>2019-08-08T07:22:58.000Z</time>
      </trkpt>
      <trkpt lat="42.80596" lon="0.42472">
        <ele>1297</ele>
        <time>2019-08-08T07:22:59.000Z</time>
      </trkpt>
      <trkpt lat="42.80593" lon="0.42471">
        <ele>1297</ele>
        <time>2019-08-08T07:23:00.000Z</time>
      </trkpt>
      <trkpt lat="42.8059" lon="0.42471">
        <ele>1299</ele>
        <time>2019-08-08T07:23:01.000Z</time>
      </trkpt>
      <trkpt lat="42.80588" lon="0.4247">
        <ele>1299</ele>
        <time>2019-08-08T07:23:02.000Z</time>
      </trkpt>
      <trkpt lat="42.80585" lon="0.4247">
        <ele>1299</ele>
        <time>2019-08-08T07:23:03.000Z</time>
      </trkpt>
      <trkpt lat="42.80582" lon="0.42469">
        <ele>1299</ele>
        <time>2019-08-08T07:23:04.000Z</time>
      </trkpt>
      <trkpt lat="42.8058" lon="0.42469">
        <ele>1299</ele>
        <time>2019-08-08T07:23:05.000Z</time>
      </trkpt>
      <trkpt lat="42.80577" lon="0.42469">
        <ele>1299</ele>
        <time>2019-08-08T07:23:06.000Z</time>
      </trkpt>
      <trkpt lat="42.80574" lon="0.42469">
        <ele>1299</ele>
        <time>2019-08-08T07:23:07.000Z</time>
      </trkpt>
      <trkpt lat="42.80572" lon="0.42469">
        <ele>1299</ele>
        <time>2019-08-08T07:23:08.000Z</time>
      </trkpt>
      <trkpt lat="42.80569" lon="0.42469">
        <ele>1299</ele>
        <time>2019-08-08T07:23:09.000Z</time>
      </trkpt>
      <trkpt lat="42.80566" lon="0.42468">
        <ele>1299</ele>
        <time>2019-08-08T07:23:10.000Z</time>
      </trkpt>
      <trkpt lat="42.80564" lon="0.42468">
        <ele>1300</ele>
        <time>2019-08-08T07:23:11.000Z</time>
      </trkpt>
      <trkpt lat="42.80561" lon="0.42469">
        <ele>1300</ele>
        <time>2019-08-08T07:23:12.000Z</time>
      </trkpt>
      <trkpt lat="42.80558" lon="0.42468">
        <ele>1300</ele>
        <time>2019-08-08T07:23:13.000Z</time>
      </trkpt>
      <trkpt lat="42.80555" lon="0.42468">
        <ele>1301</ele>
        <time>2019-08-08T07:23:14.000Z</time>
      </trkpt>
      <trkpt lat="42.80553" lon="0.42469">
        <ele>1301</ele>
        <time>2019-08-08T07:23:15.000Z</time>
      </trkpt>
      <trkpt lat="42.8055" lon="0.42469">
        <ele>1302</ele>
        <time>2019-08-08T07:23:16.000Z</time>
      </trkpt>
      <trkpt lat="42.80547" lon="0.42468">
        <ele>1302</ele>
        <time>2019-08-08T07:23:17.000Z</time>
      </trkpt>
      <trkpt lat="42.80545" lon="0.42468">
        <ele>1302</ele>
        <time>2019-08-08T07:23:18.000Z</time>
      </trkpt>
      <trkpt lat="42.80542" lon="0.42468">
        <ele>1302</ele>
        <time>2019-08-08T07:23:19.000Z</time>
      </trkpt>
      <trkpt lat="42.80539" lon="0.42468">
        <ele>1302</ele>
        <time>2019-08-08T07:23:20.000Z</time>
      </trkpt>
      <trkpt lat="42.80537" lon="0.42469">
        <ele>1302</ele>
        <time>2019-08-08T07:23:21.000Z</time>
      </trkpt>
      <trkpt lat="42.80534" lon="0.42469">
        <ele>1302</ele>
        <time>2019-08-08T07:23:22.000Z</time>
      </trkpt>
      <trkpt lat="42.80532" lon="0.42468">
        <ele>1304</ele>
        <time>2019-08-08T07:23:23.000Z</time>
      </trkpt>
      <trkpt lat="42.80529" lon="0.42468">
        <ele>1304</ele>
        <time>2019-08-08T07:23:24.000Z</time>
      </trkpt>
      <trkpt lat="42.80527" lon="0.42467">
        <ele>1304</ele>
        <time>2019-08-08T07:23:25.000Z</time>
      </trkpt>
      <trkpt lat="42.80524" lon="0.42466">
        <ele>1304</ele>
        <time>2019-08-08T07:23:26.000Z</time>
      </trkpt>
      <trkpt lat="42.80521" lon="0.42466">
        <ele>1304</ele>
        <time>2019-08-08T07:23:27.000Z</time>
      </trkpt>
      <trkpt lat="42.80519" lon="0.42466">
        <ele>1304</ele>
        <time>2019-08-08T07:23:28.000Z</time>
      </trkpt>
      <trkpt lat="42.80516" lon="0.42466">
        <ele>1305</ele>
        <time>2019-08-08T07:23:29.000Z</time>
      </trkpt>
      <trkpt lat="42.80513" lon="0.42466">
        <ele>1305</ele>
        <time>2019-08-08T07:23:30.000Z</time>
      </trkpt>
      <trkpt lat="42.80511" lon="0.42466">
        <ele>1305</ele>
        <time>2019-08-08T07:23:31.000Z</time>
      </trkpt>
      <trkpt lat="42.80508" lon="0.42465">
        <ele>1305</ele>
        <time>2019-08-08T07:23:32.000Z</time>
      </trkpt>
      <trkpt lat="42.80505" lon="0.42465">
        <ele>1305</ele>
        <time>2019-08-08T07:23:33.000Z</time>
      </trkpt>
      <trkpt lat="42.80503" lon="0.42465">
        <ele>1306</ele>
        <time>2019-08-08T07:23:34.000Z</time>
      </trkpt>
      <trkpt lat="42.805" lon="0.42464">
        <ele>1306</ele>
        <time>2019-08-08T07:23:35.000Z</time>
      </trkpt>
      <trkpt lat="42.80498" lon="0.42464">
        <ele>1306</ele>
        <time>2019-08-08T07:23:36.000Z</time>
      </trkpt>
      <trkpt lat="42.80495" lon="0.42464">
        <ele>1306</ele>
        <time>2019-08-08T07:23:37.000Z</time>
      </trkpt>
      <trkpt lat="42.80492" lon="0.42464">
        <ele>1306</ele>
        <time>2019-08-08T07:23:38.000Z</time>
      </trkpt>
      <trkpt lat="42.8049" lon="0.42463">
        <ele>1306</ele>
        <time>2019-08-08T07:23:39.000Z</time>
      </trkpt>
      <trkpt lat="42.80487" lon="0.42463">
        <ele>1306</ele>
        <time>2019-08-08T07:23:40.000Z</time>
      </trkpt>
      <trkpt lat="42.80484" lon="0.42463">
        <ele>1308</ele>
        <time>2019-08-08T07:23:41.000Z</time>
      </trkpt>
      <trkpt lat="42.80482" lon="0.42463">
        <ele>1308</ele>
        <time>2019-08-08T07:23:42.000Z</time>
      </trkpt>
      <trkpt lat="42.80479" lon="0.42463">
        <ele>1308</ele>
        <time>2019-08-08T07:23:43.000Z</time>
      </trkpt>
      <trkpt lat="42.80477" lon="0.42462">
        <ele>1308</ele>
        <time>2019-08-08T07:23:44.000Z</time>
      </trkpt>
      <trkpt lat="42.80475" lon="0.42461">
        <ele>1309</ele>
        <time>2019-08-08T07:23:45.000Z</time>
      </trkpt>
      <trkpt lat="42.80472" lon="0.4246">
        <ele>1309</ele>
        <time>2019-08-08T07:23:46.000Z</time>
      </trkpt>
      <trkpt lat="42.80469" lon="0.4246">
        <ele>1309</ele>
        <time>2019-08-08T07:23:47.000Z</time>
      </trkpt>
      <trkpt lat="42.80466" lon="0.42459">
        <ele>1309</ele>
        <time>2019-08-08T07:23:48.000Z</time>
      </trkpt>
      <trkpt lat="42.80464" lon="0.42459">
        <ele>1309</ele>
        <time>2019-08-08T07:23:49.000Z</time>
      </trkpt>
      <trkpt lat="42.80461" lon="0.42459">
        <ele>1309</ele>
        <time>2019-08-08T07:23:50.000Z</time>
      </trkpt>
      <trkpt lat="42.80458" lon="0.42458">
        <ele>1309</ele>
        <time>2019-08-08T07:23:51.000Z</time>
      </trkpt>
      <trkpt lat="42.80456" lon="0.42458">
        <ele>1310</ele>
        <time>2019-08-08T07:23:52.000Z</time>
      </trkpt>
      <trkpt lat="42.80453" lon="0.42457">
        <ele>1310</ele>
        <time>2019-08-08T07:23:53.000Z</time>
      </trkpt>
      <trkpt lat="42.8045" lon="0.42456">
        <ele>1311</ele>
        <time>2019-08-08T07:23:54.000Z</time>
      </trkpt>
      <trkpt lat="42.80448" lon="0.42456">
        <ele>1311</ele>
        <time>2019-08-08T07:23:55.000Z</time>
      </trkpt>
      <trkpt lat="42.80445" lon="0.42455">
        <ele>1311</ele>
        <time>2019-08-08T07:23:56.000Z</time>
      </trkpt>
      <trkpt lat="42.80442" lon="0.42455">
        <ele>1311</ele>
        <time>2019-08-08T07:23:57.000Z</time>
      </trkpt>
      <trkpt lat="42.8044" lon="0.42455">
        <ele>1312</ele>
        <time>2019-08-08T07:23:58.000Z</time>
      </trkpt>
      <trkpt lat="42.80437" lon="0.42455">
        <ele>1312</ele>
        <time>2019-08-08T07:23:59.000Z</time>
      </trkpt>
      <trkpt lat="42.80434" lon="0.42454">
        <ele>1312</ele>
        <time>2019-08-08T07:24:00.000Z</time>
      </trkpt>
      <trkpt lat="42.80431" lon="0.42454">
        <ele>1312</ele>
        <time>2019-08-08T07:24:01.000Z</time>
      </trkpt>
      <trkpt lat="42.80428" lon="0.42454">
        <ele>1312</ele>
        <time>2019-08-08T07:24:02.000Z</time>
      </trkpt>
      <trkpt lat="42.80426" lon="0.42454">
        <ele>1313</ele>
        <time>2019-08-08T07:24:03.000Z</time>
      </trkpt>
      <trkpt lat="42.80423" lon="0.42454">
        <ele>1313</ele>
        <time>2019-08-08T07:24:04.000Z</time>
      </trkpt>
      <trkpt lat="42.8042" lon="0.42454">
        <ele>1314</ele>
        <time>2019-08-08T07:24:05.000Z</time>
      </trkpt>
      <trkpt lat="42.80418" lon="0.42454">
        <ele>1314</ele>
        <time>2019-08-08T07:24:06.000Z</time>
      </trkpt>
      <trkpt lat="42.80415" lon="0.42454">
        <ele>1314</ele>
        <time>2019-08-08T07:24:07.000Z</time>
      </trkpt>
      <trkpt lat="42.80412" lon="0.42454">
        <ele>1314</ele>
        <time>2019-08-08T07:24:08.000Z</time>
      </trkpt>
      <trkpt lat="42.8041" lon="0.42454">
        <ele>1314</ele>
        <time>2019-08-08T07:24:09.000Z</time>
      </trkpt>
      <trkpt lat="42.80407" lon="0.42455">
        <ele>1314</ele>
        <time>2019-08-08T07:24:10.000Z</time>
      </trkpt>
      <trkpt lat="42.80404" lon="0.42455">
        <ele>1314</ele>
        <time>2019-08-08T07:24:11.000Z</time>
      </trkpt>
      <trkpt lat="42.80401" lon="0.42456">
        <ele>1314</ele>
        <time>2019-08-08T07:24:12.000Z</time>
      </trkpt>
      <trkpt lat="42.80399" lon="0.42457">
        <ele>1315</ele>
        <time>2019-08-08T07:24:13.000Z</time>
      </trkpt>
      <trkpt lat="42.80396" lon="0.42458">
        <ele>1315</ele>
        <time>2019-08-08T07:24:14.000Z</time>
      </trkpt>
      <trkpt lat="42.80394" lon="0.42459">
        <ele>1315</ele>
        <time>2019-08-08T07:24:15.000Z</time>
      </trkpt>
      <trkpt lat="42.80391" lon="0.4246">
        <ele>1315</ele>
        <time>2019-08-08T07:24:16.000Z</time>
      </trkpt>
      <trkpt lat="42.80388" lon="0.42461">
        <ele>1316</ele>
        <time>2019-08-08T07:24:17.000Z</time>
      </trkpt>
      <trkpt lat="42.80386" lon="0.42462">
        <ele>1316</ele>
        <time>2019-08-08T07:24:18.000Z</time>
      </trkpt>
      <trkpt lat="42.80383" lon="0.42463">
        <ele>1316</ele>
        <time>2019-08-08T07:24:19.000Z</time>
      </trkpt>
      <trkpt lat="42.80381" lon="0.42464">
        <ele>1316</ele>
        <time>2019-08-08T07:24:20.000Z</time>
      </trkpt>
      <trkpt lat="42.80378" lon="0.42466">
        <ele>1317</ele>
        <time>2019-08-08T07:24:21.000Z</time>
      </trkpt>
      <trkpt lat="42.80376" lon="0.42467">
        <ele>1317</ele>
        <time>2019-08-08T07:24:22.000Z</time>
      </trkpt>
      <trkpt lat="42.80373" lon="0.42468">
        <ele>1317</ele>
        <time>2019-08-08T07:24:23.000Z</time>
      </trkpt>
      <trkpt lat="42.80371" lon="0.42469">
        <ele>1317</ele>
        <time>2019-08-08T07:24:24.000Z</time>
      </trkpt>
      <trkpt lat="42.80368" lon="0.42471">
        <ele>1319</ele>
        <time>2019-08-08T07:24:25.000Z</time>
      </trkpt>
      <trkpt lat="42.80365" lon="0.42472">
        <ele>1319</ele>
        <time>2019-08-08T07:24:26.000Z</time>
      </trkpt>
      <trkpt lat="42.80363" lon="0.42473">
        <ele>1319</ele>
        <time>2019-08-08T07:24:27.000Z</time>
      </trkpt>
      <trkpt lat="42.8036" lon="0.42474">
        <ele>1319</ele>
        <time>2019-08-08T07:24:28.000Z</time>
      </trkpt>
      <trkpt lat="42.80358" lon="0.42476">
        <ele>1319</ele>
        <time>2019-08-08T07:24:29.000Z</time>
      </trkpt>
      <trkpt lat="42.80355" lon="0.42477">
        <ele>1320</ele>
        <time>2019-08-08T07:24:30.000Z</time>
      </trkpt>
      <trkpt lat="42.80353" lon="0.42479">
        <ele>1320</ele>
        <time>2019-08-08T07:24:31.000Z</time>
      </trkpt>
      <trkpt lat="42.8035" lon="0.42481">
        <ele>1320</ele>
        <time>2019-08-08T07:24:32.000Z</time>
      </trkpt>
      <trkpt lat="42.80348" lon="0.42483">
        <ele>1320</ele>
        <time>2019-08-08T07:24:33.000Z</time>
      </trkpt>
      <trkpt lat="42.80345" lon="0.42485">
        <ele>1321</ele>
        <time>2019-08-08T07:24:34.000Z</time>
      </trkpt>
      <trkpt lat="42.80343" lon="0.42487">
        <ele>1321</ele>
        <time>2019-08-08T07:24:35.000Z</time>
      </trkpt>
      <trkpt lat="42.80339" lon="0.42489">
        <ele>1321</ele>
        <time>2019-08-08T07:24:36.000Z</time>
      </trkpt>
      <trkpt lat="42.80337" lon="0.4249">
        <ele>1321</ele>
        <time>2019-08-08T07:24:37.000Z</time>
      </trkpt>
      <trkpt lat="42.80335" lon="0.42491">
        <ele>1321</ele>
        <time>2019-08-08T07:24:38.000Z</time>
      </trkpt>
      <trkpt lat="42.80332" lon="0.42493">
        <ele>1322</ele>
        <time>2019-08-08T07:24:39.000Z</time>
      </trkpt>
      <trkpt lat="42.8033" lon="0.42495">
        <ele>1322</ele>
        <time>2019-08-08T07:24:40.000Z</time>
      </trkpt>
      <trkpt lat="42.80328" lon="0.42497">
        <ele>1322</ele>
        <time>2019-08-08T07:24:41.000Z</time>
      </trkpt>
      <trkpt lat="42.80325" lon="0.42499">
        <ele>1322</ele>
        <time>2019-08-08T07:24:42.000Z</time>
      </trkpt>
      <trkpt lat="42.80323" lon="0.42501">
        <ele>1323</ele>
        <time>2019-08-08T07:24:43.000Z</time>
      </trkpt>
      <trkpt lat="42.80321" lon="0.42503">
        <ele>1323</ele>
        <time>2019-08-08T07:24:44.000Z</time>
      </trkpt>
      <trkpt lat="42.80319" lon="0.42505">
        <ele>1323</ele>
        <time>2019-08-08T07:24:45.000Z</time>
      </trkpt>
      <trkpt lat="42.80316" lon="0.42507">
        <ele>1324</ele>
        <time>2019-08-08T07:24:46.000Z</time>
      </trkpt>
      <trkpt lat="42.80314" lon="0.42508">
        <ele>1324</ele>
        <time>2019-08-08T07:24:47.000Z</time>
      </trkpt>
      <trkpt lat="42.80312" lon="0.4251">
        <ele>1325</ele>
        <time>2019-08-08T07:24:48.000Z</time>
      </trkpt>
      <trkpt lat="42.80309" lon="0.42512">
        <ele>1325</ele>
        <time>2019-08-08T07:24:49.000Z</time>
      </trkpt>
      <trkpt lat="42.80307" lon="0.42514">
        <ele>1325</ele>
        <time>2019-08-08T07:24:50.000Z</time>
      </trkpt>
      <trkpt lat="42.80305" lon="0.42516">
        <ele>1325</ele>
        <time>2019-08-08T07:24:51.000Z</time>
      </trkpt>
      <trkpt lat="42.80302" lon="0.42518">
        <ele>1325</ele>
        <time>2019-08-08T07:24:52.000Z</time>
      </trkpt>
      <trkpt lat="42.803" lon="0.42519">
        <ele>1325</ele>
        <time>2019-08-08T07:24:53.000Z</time>
      </trkpt>
      <trkpt lat="42.80298" lon="0.42521">
        <ele>1325</ele>
        <time>2019-08-08T07:24:54.000Z</time>
      </trkpt>
      <trkpt lat="42.80295" lon="0.42523">
        <ele>1326</ele>
        <time>2019-08-08T07:24:55.000Z</time>
      </trkpt>
      <trkpt lat="42.80293" lon="0.42524">
        <ele>1326</ele>
        <time>2019-08-08T07:24:56.000Z</time>
      </trkpt>
      <trkpt lat="42.8029" lon="0.42526">
        <ele>1326</ele>
        <time>2019-08-08T07:24:57.000Z</time>
      </trkpt>
      <trkpt lat="42.80288" lon="0.42528">
        <ele>1327</ele>
        <time>2019-08-08T07:24:58.000Z</time>
      </trkpt>
      <trkpt lat="42.80286" lon="0.42529">
        <ele>1327</ele>
        <time>2019-08-08T07:24:59.000Z</time>
      </trkpt>
      <trkpt lat="42.80283" lon="0.42531">
        <ele>1327</ele>
        <time>2019-08-08T07:25:00.000Z</time>
      </trkpt>
      <trkpt lat="42.80281" lon="0.42533">
        <ele>1327</ele>
        <time>2019-08-08T07:25:01.000Z</time>
      </trkpt>
      <trkpt lat="42.80279" lon="0.42535">
        <ele>1327</ele>
        <time>2019-08-08T07:25:02.000Z</time>
      </trkpt>
      <trkpt lat="42.80277" lon="0.42537">
        <ele>1327</ele>
        <time>2019-08-08T07:25:03.000Z</time>
      </trkpt>
      <trkpt lat="42.80274" lon="0.42538">
        <ele>1328</ele>
        <time>2019-08-08T07:25:04.000Z</time>
      </trkpt>
      <trkpt lat="42.80272" lon="0.4254">
        <ele>1328</ele>
        <time>2019-08-08T07:25:05.000Z</time>
      </trkpt>
      <trkpt lat="42.8027" lon="0.42542">
        <ele>1329</ele>
        <time>2019-08-08T07:25:06.000Z</time>
      </trkpt>
      <trkpt lat="42.80268" lon="0.42544">
        <ele>1329</ele>
        <time>2019-08-08T07:25:07.000Z</time>
      </trkpt>
      <trkpt lat="42.80266" lon="0.42546">
        <ele>1329</ele>
        <time>2019-08-08T07:25:08.000Z</time>
      </trkpt>
      <trkpt lat="42.80264" lon="0.42549">
        <ele>1329</ele>
        <time>2019-08-08T07:25:09.000Z</time>
      </trkpt>
      <trkpt lat="42.80263" lon="0.42552">
        <ele>1330</ele>
        <time>2019-08-08T07:25:10.000Z</time>
      </trkpt>
      <trkpt lat="42.80261" lon="0.42554">
        <ele>1330</ele>
        <time>2019-08-08T07:25:11.000Z</time>
      </trkpt>
      <trkpt lat="42.80259" lon="0.42557">
        <ele>1330</ele>
        <time>2019-08-08T07:25:12.000Z</time>
      </trkpt>
      <trkpt lat="42.80258" lon="0.4256">
        <ele>1330</ele>
        <time>2019-08-08T07:25:13.000Z</time>
      </trkpt>
      <trkpt lat="42.80256" lon="0.42563">
        <ele>1330</ele>
        <time>2019-08-08T07:25:14.000Z</time>
      </trkpt>
      <trkpt lat="42.80255" lon="0.42567">
        <ele>1330</ele>
        <time>2019-08-08T07:25:15.000Z</time>
      </trkpt>
      <trkpt lat="42.80254" lon="0.4257">
        <ele>1330</ele>
        <time>2019-08-08T07:25:16.000Z</time>
      </trkpt>
      <trkpt lat="42.80252" lon="0.42573">
        <ele>1331</ele>
        <time>2019-08-08T07:25:17.000Z</time>
      </trkpt>
      <trkpt lat="42.80252" lon="0.42576">
        <ele>1331</ele>
        <time>2019-08-08T07:25:18.000Z</time>
      </trkpt>
      <trkpt lat="42.80251" lon="0.4258">
        <ele>1331</ele>
        <time>2019-08-08T07:25:19.000Z</time>
      </trkpt>
      <trkpt lat="42.8025" lon="0.42583">
        <ele>1331</ele>
        <time>2019-08-08T07:25:20.000Z</time>
      </trkpt>
      <trkpt lat="42.80249" lon="0.42586">
        <ele>1331</ele>
        <time>2019-08-08T07:25:21.000Z</time>
      </trkpt>
      <trkpt lat="42.80248" lon="0.4259">
        <ele>1332</ele>
        <time>2019-08-08T07:25:22.000Z</time>
      </trkpt>
      <trkpt lat="42.80247" lon="0.42593">
        <ele>1332</ele>
        <time>2019-08-08T07:25:23.000Z</time>
      </trkpt>
      <trkpt lat="42.80247" lon="0.42597">
        <ele>1332</ele>
        <time>2019-08-08T07:25:24.000Z</time>
      </trkpt>
      <trkpt lat="42.80246" lon="0.42601">
        <ele>1332</ele>
        <time>2019-08-08T07:25:25.000Z</time>
      </trkpt>
      <trkpt lat="42.80246" lon="0.42604">
        <ele>1332</ele>
        <time>2019-08-08T07:25:26.000Z</time>
      </trkpt>
      <trkpt lat="42.80245" lon="0.42607">
        <ele>1333</ele>
        <time>2019-08-08T07:25:27.000Z</time>
      </trkpt>
      <trkpt lat="42.80244" lon="0.42611">
        <ele>1333</ele>
        <time>2019-08-08T07:25:28.000Z</time>
      </trkpt>
      <trkpt lat="42.80243" lon="0.42614">
        <ele>1334</ele>
        <time>2019-08-08T07:25:29.000Z</time>
      </trkpt>
      <trkpt lat="42.80242" lon="0.42618">
        <ele>1334</ele>
        <time>2019-08-08T07:25:30.000Z</time>
      </trkpt>
      <trkpt lat="42.8024" lon="0.42621">
        <ele>1335</ele>
        <time>2019-08-08T07:25:31.000Z</time>
      </trkpt>
      <trkpt lat="42.8024" lon="0.42624">
        <ele>1335</ele>
        <time>2019-08-08T07:25:32.000Z</time>
      </trkpt>
      <trkpt lat="42.80239" lon="0.42628">
        <ele>1335</ele>
        <time>2019-08-08T07:25:33.000Z</time>
      </trkpt>
      <trkpt lat="42.80238" lon="0.42631">
        <ele>1335</ele>
        <time>2019-08-08T07:25:34.000Z</time>
      </trkpt>
      <trkpt lat="42.80237" lon="0.42635">
        <ele>1335</ele>
        <time>2019-08-08T07:25:35.000Z</time>
      </trkpt>
      <trkpt lat="42.80236" lon="0.42638">
        <ele>1335</ele>
        <time>2019-08-08T07:25:36.000Z</time>
      </trkpt>
      <trkpt lat="42.80235" lon="0.42642">
        <ele>1335</ele>
        <time>2019-08-08T07:25:37.000Z</time>
      </trkpt>
      <trkpt lat="42.80234" lon="0.42645">
        <ele>1336</ele>
        <time>2019-08-08T07:25:38.000Z</time>
      </trkpt>
      <trkpt lat="42.80232" lon="0.42649">
        <ele>1336</ele>
        <time>2019-08-08T07:25:39.000Z</time>
      </trkpt>
      <trkpt lat="42.80231" lon="0.42652">
        <ele>1336</ele>
        <time>2019-08-08T07:25:40.000Z</time>
      </trkpt>
      <trkpt lat="42.8023" lon="0.42655">
        <ele>1336</ele>
        <time>2019-08-08T07:25:41.000Z</time>
      </trkpt>
      <trkpt lat="42.80229" lon="0.42659">
        <ele>1337</ele>
        <time>2019-08-08T07:25:42.000Z</time>
      </trkpt>
      <trkpt lat="42.80228" lon="0.42662">
        <ele>1337</ele>
        <time>2019-08-08T07:25:43.000Z</time>
      </trkpt>
      <trkpt lat="42.80227" lon="0.42665">
        <ele>1338</ele>
        <time>2019-08-08T07:25:44.000Z</time>
      </trkpt>
      <trkpt lat="42.80226" lon="0.42669">
        <ele>1338</ele>
        <time>2019-08-08T07:25:45.000Z</time>
      </trkpt>
      <trkpt lat="42.80225" lon="0.42672">
        <ele>1338</ele>
        <time>2019-08-08T07:25:46.000Z</time>
      </trkpt>
      <trkpt lat="42.80224" lon="0.42675">
        <ele>1338</ele>
        <time>2019-08-08T07:25:47.000Z</time>
      </trkpt>
      <trkpt lat="42.80222" lon="0.42678">
        <ele>1339</ele>
        <time>2019-08-08T07:25:48.000Z</time>
      </trkpt>
      <trkpt lat="42.80221" lon="0.42681">
        <ele>1339</ele>
        <time>2019-08-08T07:25:49.000Z</time>
      </trkpt>
      <trkpt lat="42.8022" lon="0.42685">
        <ele>1340</ele>
        <time>2019-08-08T07:25:50.000Z</time>
      </trkpt>
      <trkpt lat="42.80219" lon="0.42688">
        <ele>1340</ele>
        <time>2019-08-08T07:25:51.000Z</time>
      </trkpt>
      <trkpt lat="42.80219" lon="0.42691">
        <ele>1340</ele>
        <time>2019-08-08T07:25:52.000Z</time>
      </trkpt>
      <trkpt lat="42.80218" lon="0.42695">
        <ele>1340</ele>
        <time>2019-08-08T07:25:53.000Z</time>
      </trkpt>
      <trkpt lat="42.80217" lon="0.42698">
        <ele>1340</ele>
        <time>2019-08-08T07:25:54.000Z</time>
      </trkpt>
      <trkpt lat="42.80217" lon="0.42701">
        <ele>1341</ele>
        <time>2019-08-08T07:25:55.000Z</time>
      </trkpt>
      <trkpt lat="42.80216" lon="0.42705">
        <ele>1341</ele>
        <time>2019-08-08T07:25:56.000Z</time>
      </trkpt>
      <trkpt lat="42.80216" lon="0.42708">
        <ele>1342</ele>
        <time>2019-08-08T07:25:57.000Z</time>
      </trkpt>
      <trkpt lat="42.80215" lon="0.42712">
        <ele>1342</ele>
        <time>2019-08-08T07:25:58.000Z</time>
      </trkpt>
      <trkpt lat="42.80215" lon="0.42715">
        <ele>1342</ele>
        <time>2019-08-08T07:25:59.000Z</time>
      </trkpt>
      <trkpt lat="42.80214" lon="0.42719">
        <ele>1343</ele>
        <time>2019-08-08T07:26:00.000Z</time>
      </trkpt>
      <trkpt lat="42.80214" lon="0.42722">
        <ele>1343</ele>
        <time>2019-08-08T07:26:01.000Z</time>
      </trkpt>
      <trkpt lat="42.80213" lon="0.42726">
        <ele>1343</ele>
        <time>2019-08-08T07:26:02.000Z</time>
      </trkpt>
      <trkpt lat="42.80213" lon="0.4273">
        <ele>1343</ele>
        <time>2019-08-08T07:26:03.000Z</time>
      </trkpt>
      <trkpt lat="42.80213" lon="0.42734">
        <ele>1344</ele>
        <time>2019-08-08T07:26:04.000Z</time>
      </trkpt>
      <trkpt lat="42.80212" lon="0.42738">
        <ele>1344</ele>
        <time>2019-08-08T07:26:05.000Z</time>
      </trkpt>
      <trkpt lat="42.80212" lon="0.42741">
        <ele>1344</ele>
        <time>2019-08-08T07:26:06.000Z</time>
      </trkpt>
      <trkpt lat="42.80211" lon="0.42745">
        <ele>1344</ele>
        <time>2019-08-08T07:26:07.000Z</time>
      </trkpt>
      <trkpt lat="42.80211" lon="0.42749">
        <ele>1344</ele>
        <time>2019-08-08T07:26:08.000Z</time>
      </trkpt>
      <trkpt lat="42.80211" lon="0.42752">
        <ele>1344</ele>
        <time>2019-08-08T07:26:09.000Z</time>
      </trkpt>
      <trkpt lat="42.80211" lon="0.42756">
        <ele>1345</ele>
        <time>2019-08-08T07:26:10.000Z</time>
      </trkpt>
      <trkpt lat="42.80211" lon="0.4276">
        <ele>1345</ele>
        <time>2019-08-08T07:26:11.000Z</time>
      </trkpt>
      <trkpt lat="42.8021" lon="0.42764">
        <ele>1345</ele>
        <time>2019-08-08T07:26:12.000Z</time>
      </trkpt>
      <trkpt lat="42.8021" lon="0.42768">
        <ele>1345</ele>
        <time>2019-08-08T07:26:13.000Z</time>
      </trkpt>
      <trkpt lat="42.8021" lon="0.42772">
        <ele>1345</ele>
        <time>2019-08-08T07:26:14.000Z</time>
      </trkpt>
      <trkpt lat="42.8021" lon="0.42776">
        <ele>1346</ele>
        <time>2019-08-08T07:26:15.000Z</time>
      </trkpt>
      <trkpt lat="42.8021" lon="0.4278">
        <ele>1346</ele>
        <time>2019-08-08T07:26:16.000Z</time>
      </trkpt>
      <trkpt lat="42.80209" lon="0.42783">
        <ele>1346</ele>
        <time>2019-08-08T07:26:17.000Z</time>
      </trkpt>
      <trkpt lat="42.80208" lon="0.42787">
        <ele>1346</ele>
        <time>2019-08-08T07:26:18.000Z</time>
      </trkpt>
      <trkpt lat="42.80207" lon="0.42791">
        <ele>1346</ele>
        <time>2019-08-08T07:26:19.000Z</time>
      </trkpt>
      <trkpt lat="42.80207" lon="0.42794">
        <ele>1346</ele>
        <time>2019-08-08T07:26:20.000Z</time>
      </trkpt>
      <trkpt lat="42.80206" lon="0.42797">
        <ele>1347</ele>
        <time>2019-08-08T07:26:21.000Z</time>
      </trkpt>
      <trkpt lat="42.80205" lon="0.42801">
        <ele>1347</ele>
        <time>2019-08-08T07:26:22.000Z</time>
      </trkpt>
      <trkpt lat="42.80204" lon="0.42804">
        <ele>1347</ele>
        <time>2019-08-08T07:26:23.000Z</time>
      </trkpt>
      <trkpt lat="42.80204" lon="0.42808">
        <ele>1347</ele>
        <time>2019-08-08T07:26:24.000Z</time>
      </trkpt>
      <trkpt lat="42.80203" lon="0.42811">
        <ele>1348</ele>
        <time>2019-08-08T07:26:25.000Z</time>
      </trkpt>
      <trkpt lat="42.80202" lon="0.42815">
        <ele>1348</ele>
        <time>2019-08-08T07:26:26.000Z</time>
      </trkpt>
      <trkpt lat="42.80201" lon="0.42818">
        <ele>1348</ele>
        <time>2019-08-08T07:26:27.000Z</time>
      </trkpt>
      <trkpt lat="42.80201" lon="0.42821">
        <ele>1348</ele>
        <time>2019-08-08T07:26:28.000Z</time>
      </trkpt>
      <trkpt lat="42.802" lon="0.42825">
        <ele>1348</ele>
        <time>2019-08-08T07:26:29.000Z</time>
      </trkpt>
      <trkpt lat="42.80198" lon="0.42828">
        <ele>1348</ele>
        <time>2019-08-08T07:26:30.000Z</time>
      </trkpt>
      <trkpt lat="42.80197" lon="0.42831">
        <ele>1348</ele>
        <time>2019-08-08T07:26:31.000Z</time>
      </trkpt>
      <trkpt lat="42.80196" lon="0.42834">
        <ele>1349</ele>
        <time>2019-08-08T07:26:32.000Z</time>
      </trkpt>
      <trkpt lat="42.80195" lon="0.42838">
        <ele>1349</ele>
        <time>2019-08-08T07:26:33.000Z</time>
      </trkpt>
      <trkpt lat="42.80194" lon="0.42841">
        <ele>1350</ele>
        <time>2019-08-08T07:26:34.000Z</time>
      </trkpt>
      <trkpt lat="42.80193" lon="0.42845">
        <ele>1350</ele>
        <time>2019-08-08T07:26:35.000Z</time>
      </trkpt>
      <trkpt lat="42.80191" lon="0.42848">
        <ele>1351</ele>
        <time>2019-08-08T07:26:36.000Z</time>
      </trkpt>
      <trkpt lat="42.8019" lon="0.42852">
        <ele>1351</ele>
        <time>2019-08-08T07:26:37.000Z</time>
      </trkpt>
      <trkpt lat="42.80189" lon="0.42855">
        <ele>1351</ele>
        <time>2019-08-08T07:26:38.000Z</time>
      </trkpt>
      <trkpt lat="42.80188" lon="0.4286">
        <ele>1351</ele>
        <time>2019-08-08T07:26:39.000Z</time>
      </trkpt>
      <trkpt lat="42.80187" lon="0.42864">
        <ele>1351</ele>
        <time>2019-08-08T07:26:40.000Z</time>
      </trkpt>
      <trkpt lat="42.80187" lon="0.42868">
        <ele>1351</ele>
        <time>2019-08-08T07:26:41.000Z</time>
      </trkpt>
      <trkpt lat="42.80186" lon="0.42873">
        <ele>1351</ele>
        <time>2019-08-08T07:26:42.000Z</time>
      </trkpt>
      <trkpt lat="42.80186" lon="0.42877">
        <ele>1352</ele>
        <time>2019-08-08T07:26:43.000Z</time>
      </trkpt>
      <trkpt lat="42.80185" lon="0.42882">
        <ele>1352</ele>
        <time>2019-08-08T07:26:44.000Z</time>
      </trkpt>
      <trkpt lat="42.80185" lon="0.42886">
        <ele>1353</ele>
        <time>2019-08-08T07:26:45.000Z</time>
      </trkpt>
      <trkpt lat="42.80184" lon="0.42891">
        <ele>1353</ele>
        <time>2019-08-08T07:26:46.000Z</time>
      </trkpt>
      <trkpt lat="42.80184" lon="0.42896">
        <ele>1353</ele>
        <time>2019-08-08T07:26:47.000Z</time>
      </trkpt>
      <trkpt lat="42.80183" lon="0.42901">
        <ele>1353</ele>
        <time>2019-08-08T07:26:48.000Z</time>
      </trkpt>
      <trkpt lat="42.80183" lon="0.42906">
        <ele>1353</ele>
        <time>2019-08-08T07:26:49.000Z</time>
      </trkpt>
      <trkpt lat="42.80182" lon="0.42911">
        <ele>1353</ele>
        <time>2019-08-08T07:26:50.000Z</time>
      </trkpt>
      <trkpt lat="42.80181" lon="0.42916">
        <ele>1354</ele>
        <time>2019-08-08T07:26:51.000Z</time>
      </trkpt>
      <trkpt lat="42.80181" lon="0.4292">
        <ele>1354</ele>
        <time>2019-08-08T07:26:52.000Z</time>
      </trkpt>
      <trkpt lat="42.8018" lon="0.42925">
        <ele>1354</ele>
        <time>2019-08-08T07:26:53.000Z</time>
      </trkpt>
      <trkpt lat="42.8018" lon="0.4293">
        <ele>1354</ele>
        <time>2019-08-08T07:26:54.000Z</time>
      </trkpt>
      <trkpt lat="42.80179" lon="0.42935">
        <ele>1354</ele>
        <time>2019-08-08T07:26:55.000Z</time>
      </trkpt>
      <trkpt lat="42.80179" lon="0.4294">
        <ele>1354</ele>
        <time>2019-08-08T07:26:56.000Z</time>
      </trkpt>
      <trkpt lat="42.80178" lon="0.42945">
        <ele>1354</ele>
        <time>2019-08-08T07:26:57.000Z</time>
      </trkpt>
      <trkpt lat="42.80178" lon="0.4295">
        <ele>1355</ele>
        <time>2019-08-08T07:26:58.000Z</time>
      </trkpt>
      <trkpt lat="42.80177" lon="0.42955">
        <ele>1355</ele>
        <time>2019-08-08T07:26:59.000Z</time>
      </trkpt>
      <trkpt lat="42.80177" lon="0.4296">
        <ele>1355</ele>
        <time>2019-08-08T07:27:00.000Z</time>
      </trkpt>
      <trkpt lat="42.80178" lon="0.42965">
        <ele>1355</ele>
        <time>2019-08-08T07:27:01.000Z</time>
      </trkpt>
      <trkpt lat="42.80178" lon="0.4297">
        <ele>1356</ele>
        <time>2019-08-08T07:27:02.000Z</time>
      </trkpt>
      <trkpt lat="42.80178" lon="0.42975">
        <ele>1356</ele>
        <time>2019-08-08T07:27:03.000Z</time>
      </trkpt>
      <trkpt lat="42.80178" lon="0.42979">
        <ele>1356</ele>
        <time>2019-08-08T07:27:04.000Z</time>
      </trkpt>
      <trkpt lat="42.80178" lon="0.42984">
        <ele>1356</ele>
        <time>2019-08-08T07:27:05.000Z</time>
      </trkpt>
      <trkpt lat="42.80179" lon="0.4299">
        <ele>1356</ele>
        <time>2019-08-08T07:27:06.000Z</time>
      </trkpt>
      <trkpt lat="42.80179" lon="0.42992">
        <ele>1357</ele>
        <time>2019-08-08T07:27:07.000Z</time>
      </trkpt>
      <trkpt lat="42.80179" lon="0.42995">
        <ele>1357</ele>
        <time>2019-08-08T07:27:08.000Z</time>
      </trkpt>
      <trkpt lat="42.8018" lon="0.43002">
        <ele>1357</ele>
        <time>2019-08-08T07:27:09.000Z</time>
      </trkpt>
      <trkpt lat="42.80179" lon="0.43006">
        <ele>1357</ele>
        <time>2019-08-08T07:27:10.000Z</time>
      </trkpt>
      <trkpt lat="42.80179" lon="0.43011">
        <ele>1357</ele>
        <time>2019-08-08T07:27:11.000Z</time>
      </trkpt>
      <trkpt lat="42.80179" lon="0.43016">
        <ele>1357</ele>
        <time>2019-08-08T07:27:12.000Z</time>
      </trkpt>
      <trkpt lat="42.80179" lon="0.43021">
        <ele>1357</ele>
        <time>2019-08-08T07:27:13.000Z</time>
      </trkpt>
      <trkpt lat="42.80178" lon="0.43026">
        <ele>1357</ele>
        <time>2019-08-08T07:27:14.000Z</time>
      </trkpt>
      <trkpt lat="42.80178" lon="0.43031">
        <ele>1357</ele>
        <time>2019-08-08T07:27:15.000Z</time>
      </trkpt>
      <trkpt lat="42.80177" lon="0.43037">
        <ele>1357</ele>
        <time>2019-08-08T07:27:16.000Z</time>
      </trkpt>
      <trkpt lat="42.80176" lon="0.43042">
        <ele>1358</ele>
        <time>2019-08-08T07:27:17.000Z</time>
      </trkpt>
      <trkpt lat="42.80175" lon="0.43047">
        <ele>1358</ele>
        <time>2019-08-08T07:27:18.000Z</time>
      </trkpt>
      <trkpt lat="42.80173" lon="0.43052">
        <ele>1358</ele>
        <time>2019-08-08T07:27:19.000Z</time>
      </trkpt>
      <trkpt lat="42.80172" lon="0.43057">
        <ele>1358</ele>
        <time>2019-08-08T07:27:20.000Z</time>
      </trkpt>
      <trkpt lat="42.80172" lon="0.43062">
        <ele>1358</ele>
        <time>2019-08-08T07:27:21.000Z</time>
      </trkpt>
      <trkpt lat="42.80171" lon="0.43067">
        <ele>1358</ele>
        <time>2019-08-08T07:27:22.000Z</time>
      </trkpt>
      <trkpt lat="42.8017" lon="0.43071">
        <ele>1359</ele>
        <time>2019-08-08T07:27:23.000Z</time>
      </trkpt>
      <trkpt lat="42.80169" lon="0.43076">
        <ele>1359</ele>
        <time>2019-08-08T07:27:24.000Z</time>
      </trkpt>
      <trkpt lat="42.80167" lon="0.4308">
        <ele>1359</ele>
        <time>2019-08-08T07:27:25.000Z</time>
      </trkpt>
      <trkpt lat="42.80165" lon="0.43084">
        <ele>1359</ele>
        <time>2019-08-08T07:27:26.000Z</time>
      </trkpt>
      <trkpt lat="42.80163" lon="0.43087">
        <ele>1359</ele>
        <time>2019-08-08T07:27:27.000Z</time>
      </trkpt>
      <trkpt lat="42.80161" lon="0.43091">
        <ele>1359</ele>
        <time>2019-08-08T07:27:28.000Z</time>
      </trkpt>
      <trkpt lat="42.8016" lon="0.43096">
        <ele>1359</ele>
        <time>2019-08-08T07:27:29.000Z</time>
      </trkpt>
      <trkpt lat="42.80158" lon="0.431">
        <ele>1361</ele>
        <time>2019-08-08T07:27:30.000Z</time>
      </trkpt>
      <trkpt lat="42.80158" lon="0.431">
        <ele>1361</ele>
        <time>2019-08-08T07:27:31.000Z</time>
      </trkpt>
      <trkpt lat="42.80155" lon="0.43108">
        <ele>1361</ele>
        <time>2019-08-08T07:27:32.000Z</time>
      </trkpt>
      <trkpt lat="42.80153" lon="0.43112">
        <ele>1361</ele>
        <time>2019-08-08T07:27:33.000Z</time>
      </trkpt>
      <trkpt lat="42.80152" lon="0.43116">
        <ele>1361</ele>
        <time>2019-08-08T07:27:34.000Z</time>
      </trkpt>
      <trkpt lat="42.8015" lon="0.43121">
        <ele>1361</ele>
        <time>2019-08-08T07:27:35.000Z</time>
      </trkpt>
      <trkpt lat="42.80149" lon="0.43126">
        <ele>1361</ele>
        <time>2019-08-08T07:27:36.000Z</time>
      </trkpt>
      <trkpt lat="42.80148" lon="0.4313">
        <ele>1361</ele>
        <time>2019-08-08T07:27:37.000Z</time>
      </trkpt>
      <trkpt lat="42.80147" lon="0.43135">
        <ele>1361</ele>
        <time>2019-08-08T07:27:38.000Z</time>
      </trkpt>
      <trkpt lat="42.80146" lon="0.43139">
        <ele>1361</ele>
        <time>2019-08-08T07:27:39.000Z</time>
      </trkpt>
      <trkpt lat="42.80145" lon="0.43144">
        <ele>1362</ele>
        <time>2019-08-08T07:27:40.000Z</time>
      </trkpt>
      <trkpt lat="42.80144" lon="0.43148">
        <ele>1362</ele>
        <time>2019-08-08T07:27:41.000Z</time>
      </trkpt>
      <trkpt lat="42.80143" lon="0.43153">
        <ele>1362</ele>
        <time>2019-08-08T07:27:42.000Z</time>
      </trkpt>
      <trkpt lat="42.80143" lon="0.43157">
        <ele>1362</ele>
        <time>2019-08-08T07:27:43.000Z</time>
      </trkpt>
      <trkpt lat="42.80142" lon="0.43162">
        <ele>1362</ele>
        <time>2019-08-08T07:27:44.000Z</time>
      </trkpt>
      <trkpt lat="42.80141" lon="0.43167">
        <ele>1362</ele>
        <time>2019-08-08T07:27:45.000Z</time>
      </trkpt>
      <trkpt lat="42.80141" lon="0.43172">
        <ele>1363</ele>
        <time>2019-08-08T07:27:46.000Z</time>
      </trkpt>
      <trkpt lat="42.80141" lon="0.43176">
        <ele>1363</ele>
        <time>2019-08-08T07:27:47.000Z</time>
      </trkpt>
      <trkpt lat="42.8014" lon="0.43181">
        <ele>1363</ele>
        <time>2019-08-08T07:27:48.000Z</time>
      </trkpt>
      <trkpt lat="42.8014" lon="0.43186">
        <ele>1364</ele>
        <time>2019-08-08T07:27:49.000Z</time>
      </trkpt>
      <trkpt lat="42.80139" lon="0.4319">
        <ele>1364</ele>
        <time>2019-08-08T07:27:50.000Z</time>
      </trkpt>
      <trkpt lat="42.80139" lon="0.43195">
        <ele>1364</ele>
        <time>2019-08-08T07:27:51.000Z</time>
      </trkpt>
      <trkpt lat="42.80138" lon="0.432">
        <ele>1364</ele>
        <time>2019-08-08T07:27:52.000Z</time>
      </trkpt>
      <trkpt lat="42.80138" lon="0.43204">
        <ele>1364</ele>
        <time>2019-08-08T07:27:53.000Z</time>
      </trkpt>
      <trkpt lat="42.80138" lon="0.43209">
        <ele>1364</ele>
        <time>2019-08-08T07:27:54.000Z</time>
      </trkpt>
      <trkpt lat="42.80137" lon="0.43214">
        <ele>1365</ele>
        <time>2019-08-08T07:27:55.000Z</time>
      </trkpt>
      <trkpt lat="42.80137" lon="0.43218">
        <ele>1365</ele>
        <time>2019-08-08T07:27:56.000Z</time>
      </trkpt>
      <trkpt lat="42.80137" lon="0.43223">
        <ele>1366</ele>
        <time>2019-08-08T07:27:57.000Z</time>
      </trkpt>
      <trkpt lat="42.80136" lon="0.43228">
        <ele>1366</ele>
        <time>2019-08-08T07:27:58.000Z</time>
      </trkpt>
      <trkpt lat="42.80136" lon="0.43232">
        <ele>1366</ele>
        <time>2019-08-08T07:27:59.000Z</time>
      </trkpt>
      <trkpt lat="42.80137" lon="0.43237">
        <ele>1366</ele>
        <time>2019-08-08T07:28:00.000Z</time>
      </trkpt>
      <trkpt lat="42.80137" lon="0.43242">
        <ele>1367</ele>
        <time>2019-08-08T07:28:01.000Z</time>
      </trkpt>
      <trkpt lat="42.80137" lon="0.43246">
        <ele>1367</ele>
        <time>2019-08-08T07:28:02.000Z</time>
      </trkpt>
      <trkpt lat="42.80137" lon="0.43251">
        <ele>1367</ele>
        <time>2019-08-08T07:28:03.000Z</time>
      </trkpt>
      <trkpt lat="42.80137" lon="0.43255">
        <ele>1367</ele>
        <time>2019-08-08T07:28:04.000Z</time>
      </trkpt>
      <trkpt lat="42.80137" lon="0.4326">
        <ele>1367</ele>
        <time>2019-08-08T07:28:05.000Z</time>
      </trkpt>
      <trkpt lat="42.80137" lon="0.43264">
        <ele>1367</ele>
        <time>2019-08-08T07:28:06.000Z</time>
      </trkpt>
      <trkpt lat="42.80137" lon="0.43269">
        <ele>1367</ele>
        <time>2019-08-08T07:28:07.000Z</time>
      </trkpt>
      <trkpt lat="42.80137" lon="0.43273">
        <ele>1368</ele>
        <time>2019-08-08T07:28:08.000Z</time>
      </trkpt>
      <trkpt lat="42.80137" lon="0.43278">
        <ele>1368</ele>
        <time>2019-08-08T07:28:09.000Z</time>
      </trkpt>
      <trkpt lat="42.80137" lon="0.43282">
        <ele>1369</ele>
        <time>2019-08-08T07:28:10.000Z</time>
      </trkpt>
      <trkpt lat="42.80137" lon="0.43287">
        <ele>1369</ele>
        <time>2019-08-08T07:28:11.000Z</time>
      </trkpt>
      <trkpt lat="42.80137" lon="0.43291">
        <ele>1369</ele>
        <time>2019-08-08T07:28:12.000Z</time>
      </trkpt>
      <trkpt lat="42.80137" lon="0.43296">
        <ele>1369</ele>
        <time>2019-08-08T07:28:13.000Z</time>
      </trkpt>
      <trkpt lat="42.80137" lon="0.433">
        <ele>1369</ele>
        <time>2019-08-08T07:28:14.000Z</time>
      </trkpt>
      <trkpt lat="42.80137" lon="0.43304">
        <ele>1369</ele>
        <time>2019-08-08T07:28:15.000Z</time>
      </trkpt>
      <trkpt lat="42.80137" lon="0.43309">
        <ele>1369</ele>
        <time>2019-08-08T07:28:16.000Z</time>
      </trkpt>
      <trkpt lat="42.80136" lon="0.43313">
        <ele>1369</ele>
        <time>2019-08-08T07:28:17.000Z</time>
      </trkpt>
      <trkpt lat="42.80136" lon="0.43317">
        <ele>1371</ele>
        <time>2019-08-08T07:28:18.000Z</time>
      </trkpt>
      <trkpt lat="42.80135" lon="0.43321">
        <ele>1371</ele>
        <time>2019-08-08T07:28:19.000Z</time>
      </trkpt>
      <trkpt lat="42.80135" lon="0.43325">
        <ele>1372</ele>
        <time>2019-08-08T07:28:20.000Z</time>
      </trkpt>
      <trkpt lat="42.80135" lon="0.4333">
        <ele>1372</ele>
        <time>2019-08-08T07:28:21.000Z</time>
      </trkpt>
      <trkpt lat="42.80134" lon="0.43334">
        <ele>1372</ele>
        <time>2019-08-08T07:28:22.000Z</time>
      </trkpt>
      <trkpt lat="42.80134" lon="0.43338">
        <ele>1372</ele>
        <time>2019-08-08T07:28:23.000Z</time>
      </trkpt>
      <trkpt lat="42.80134" lon="0.43342">
        <ele>1372</ele>
        <time>2019-08-08T07:28:24.000Z</time>
      </trkpt>
      <trkpt lat="42.80133" lon="0.43347">
        <ele>1372</ele>
        <time>2019-08-08T07:28:25.000Z</time>
      </trkpt>
      <trkpt lat="42.80133" lon="0.43351">
        <ele>1372</ele>
        <time>2019-08-08T07:28:26.000Z</time>
      </trkpt>
      <trkpt lat="42.80132" lon="0.43355">
        <ele>1373</ele>
        <time>2019-08-08T07:28:27.000Z</time>
      </trkpt>
      <trkpt lat="42.80131" lon="0.43359">
        <ele>1373</ele>
        <time>2019-08-08T07:28:28.000Z</time>
      </trkpt>
      <trkpt lat="42.80131" lon="0.43363">
        <ele>1373</ele>
        <time>2019-08-08T07:28:29.000Z</time>
      </trkpt>
      <trkpt lat="42.8013" lon="0.43367">
        <ele>1373</ele>
        <time>2019-08-08T07:28:30.000Z</time>
      </trkpt>
      <trkpt lat="42.8013" lon="0.43371">
        <ele>1373</ele>
        <time>2019-08-08T07:28:31.000Z</time>
      </trkpt>
      <trkpt lat="42.80129" lon="0.43375">
        <ele>1373</ele>
        <time>2019-08-08T07:28:32.000Z</time>
      </trkpt>
      <trkpt lat="42.80128" lon="0.43379">
        <ele>1374</ele>
        <time>2019-08-08T07:28:33.000Z</time>
      </trkpt>
      <trkpt lat="42.80128" lon="0.43383">
        <ele>1374</ele>
        <time>2019-08-08T07:28:34.000Z</time>
      </trkpt>
      <trkpt lat="42.80127" lon="0.43388">
        <ele>1375</ele>
        <time>2019-08-08T07:28:35.000Z</time>
      </trkpt>
      <trkpt lat="42.80126" lon="0.43392">
        <ele>1375</ele>
        <time>2019-08-08T07:28:36.000Z</time>
      </trkpt>
      <trkpt lat="42.80125" lon="0.43396">
        <ele>1375</ele>
        <time>2019-08-08T07:28:37.000Z</time>
      </trkpt>
      <trkpt lat="42.80124" lon="0.434">
        <ele>1375</ele>
        <time>2019-08-08T07:28:38.000Z</time>
      </trkpt>
      <trkpt lat="42.80124" lon="0.43404">
        <ele>1376</ele>
        <time>2019-08-08T07:28:39.000Z</time>
      </trkpt>
      <trkpt lat="42.80123" lon="0.43408">
        <ele>1376</ele>
        <time>2019-08-08T07:28:40.000Z</time>
      </trkpt>
      <trkpt lat="42.80122" lon="0.43412">
        <ele>1376</ele>
        <time>2019-08-08T07:28:41.000Z</time>
      </trkpt>
      <trkpt lat="42.80121" lon="0.43416">
        <ele>1376</ele>
        <time>2019-08-08T07:28:42.000Z</time>
      </trkpt>
      <trkpt lat="42.8012" lon="0.4342">
        <ele>1376</ele>
        <time>2019-08-08T07:28:43.000Z</time>
      </trkpt>
      <trkpt lat="42.8012" lon="0.43424">
        <ele>1376</ele>
        <time>2019-08-08T07:28:44.000Z</time>
      </trkpt>
      <trkpt lat="42.80119" lon="0.43428">
        <ele>1377</ele>
        <time>2019-08-08T07:28:45.000Z</time>
      </trkpt>
      <trkpt lat="42.80119" lon="0.43432">
        <ele>1377</ele>
        <time>2019-08-08T07:28:46.000Z</time>
      </trkpt>
      <trkpt lat="42.80119" lon="0.43436">
        <ele>1377</ele>
        <time>2019-08-08T07:28:47.000Z</time>
      </trkpt>
      <trkpt lat="42.80119" lon="0.4344">
        <ele>1377</ele>
        <time>2019-08-08T07:28:48.000Z</time>
      </trkpt>
      <trkpt lat="42.80118" lon="0.43444">
        <ele>1377</ele>
        <time>2019-08-08T07:28:49.000Z</time>
      </trkpt>
      <trkpt lat="42.80118" lon="0.43448">
        <ele>1377</ele>
        <time>2019-08-08T07:28:50.000Z</time>
      </trkpt>
      <trkpt lat="42.80117" lon="0.43453">
        <ele>1377</ele>
        <time>2019-08-08T07:28:51.000Z</time>
      </trkpt>
      <trkpt lat="42.80117" lon="0.43457">
        <ele>1377</ele>
        <time>2019-08-08T07:28:52.000Z</time>
      </trkpt>
      <trkpt lat="42.80116" lon="0.43461">
        <ele>1378</ele>
        <time>2019-08-08T07:28:53.000Z</time>
      </trkpt>
      <trkpt lat="42.80115" lon="0.43465">
        <ele>1378</ele>
        <time>2019-08-08T07:28:54.000Z</time>
      </trkpt>
      <trkpt lat="42.80115" lon="0.43469">
        <ele>1378</ele>
        <time>2019-08-08T07:28:55.000Z</time>
      </trkpt>
      <trkpt lat="42.80114" lon="0.43473">
        <ele>1378</ele>
        <time>2019-08-08T07:28:56.000Z</time>
      </trkpt>
      <trkpt lat="42.80113" lon="0.43478">
        <ele>1378</ele>
        <time>2019-08-08T07:28:57.000Z</time>
      </trkpt>
      <trkpt lat="42.80113" lon="0.43482">
        <ele>1378</ele>
        <time>2019-08-08T07:28:58.000Z</time>
      </trkpt>
      <trkpt lat="42.80114" lon="0.43487">
        <ele>1379</ele>
        <time>2019-08-08T07:28:59.000Z</time>
      </trkpt>
      <trkpt lat="42.80114" lon="0.43491">
        <ele>1379</ele>
        <time>2019-08-08T07:29:00.000Z</time>
      </trkpt>
      <trkpt lat="42.80113" lon="0.43496">
        <ele>1379</ele>
        <time>2019-08-08T07:29:01.000Z</time>
      </trkpt>
      <trkpt lat="42.80113" lon="0.435">
        <ele>1379</ele>
        <time>2019-08-08T07:29:02.000Z</time>
      </trkpt>
      <trkpt lat="42.80112" lon="0.43504">
        <ele>1379</ele>
        <time>2019-08-08T07:29:03.000Z</time>
      </trkpt>
      <trkpt lat="42.80111" lon="0.43508">
        <ele>1380</ele>
        <time>2019-08-08T07:29:04.000Z</time>
      </trkpt>
      <trkpt lat="42.80111" lon="0.43513">
        <ele>1380</ele>
        <time>2019-08-08T07:29:05.000Z</time>
      </trkpt>
      <trkpt lat="42.8011" lon="0.43517">
        <ele>1381</ele>
        <time>2019-08-08T07:29:06.000Z</time>
      </trkpt>
      <trkpt lat="42.80109" lon="0.43521">
        <ele>1381</ele>
        <time>2019-08-08T07:29:07.000Z</time>
      </trkpt>
      <trkpt lat="42.80109" lon="0.43525">
        <ele>1381</ele>
        <time>2019-08-08T07:29:08.000Z</time>
      </trkpt>
      <trkpt lat="42.80108" lon="0.43529">
        <ele>1381</ele>
        <time>2019-08-08T07:29:09.000Z</time>
      </trkpt>
      <trkpt lat="42.80108" lon="0.43533">
        <ele>1382</ele>
        <time>2019-08-08T07:29:10.000Z</time>
      </trkpt>
      <trkpt lat="42.80107" lon="0.43537">
        <ele>1382</ele>
        <time>2019-08-08T07:29:11.000Z</time>
      </trkpt>
      <trkpt lat="42.80106" lon="0.4354">
        <ele>1383</ele>
        <time>2019-08-08T07:29:12.000Z</time>
      </trkpt>
      <trkpt lat="42.80105" lon="0.43544">
        <ele>1383</ele>
        <time>2019-08-08T07:29:13.000Z</time>
      </trkpt>
      <trkpt lat="42.80104" lon="0.43548">
        <ele>1383</ele>
        <time>2019-08-08T07:29:14.000Z</time>
      </trkpt>
      <trkpt lat="42.80103" lon="0.43552">
        <ele>1383</ele>
        <time>2019-08-08T07:29:15.000Z</time>
      </trkpt>
      <trkpt lat="42.80101" lon="0.43556">
        <ele>1383</ele>
        <time>2019-08-08T07:29:16.000Z</time>
      </trkpt>
      <trkpt lat="42.801" lon="0.4356">
        <ele>1383</ele>
        <time>2019-08-08T07:29:17.000Z</time>
      </trkpt>
      <trkpt lat="42.80099" lon="0.43564">
        <ele>1384</ele>
        <time>2019-08-08T07:29:18.000Z</time>
      </trkpt>
      <trkpt lat="42.80098" lon="0.43568">
        <ele>1384</ele>
        <time>2019-08-08T07:29:19.000Z</time>
      </trkpt>
      <trkpt lat="42.80097" lon="0.43574">
        <ele>1384</ele>
        <time>2019-08-08T07:29:20.000Z</time>
      </trkpt>
      <trkpt lat="42.80096" lon="0.43576">
        <ele>1384</ele>
        <time>2019-08-08T07:29:21.000Z</time>
      </trkpt>
      <trkpt lat="42.80095" lon="0.4358">
        <ele>1384</ele>
        <time>2019-08-08T07:29:22.000Z</time>
      </trkpt>
      <trkpt lat="42.80095" lon="0.43584">
        <ele>1385</ele>
        <time>2019-08-08T07:29:23.000Z</time>
      </trkpt>
      <trkpt lat="42.80094" lon="0.4359">
        <ele>1385</ele>
        <time>2019-08-08T07:29:24.000Z</time>
      </trkpt>
      <trkpt lat="42.80094" lon="0.43592">
        <ele>1385</ele>
        <time>2019-08-08T07:29:25.000Z</time>
      </trkpt>
      <trkpt lat="42.80093" lon="0.43594">
        <ele>1385</ele>
        <time>2019-08-08T07:29:26.000Z</time>
      </trkpt>
      <trkpt lat="42.80093" lon="0.43596">
        <ele>1386</ele>
        <time>2019-08-08T07:29:27.000Z</time>
      </trkpt>
      <trkpt lat="42.80092" lon="0.43604">
        <ele>1386</ele>
        <time>2019-08-08T07:29:28.000Z</time>
      </trkpt>
      <trkpt lat="42.80092" lon="0.43604">
        <ele>1386</ele>
        <time>2019-08-08T07:29:29.000Z</time>
      </trkpt>
      <trkpt lat="42.8009" lon="0.43612">
        <ele>1386</ele>
        <time>2019-08-08T07:29:30.000Z</time>
      </trkpt>
      <trkpt lat="42.80089" lon="0.43616">
        <ele>1387</ele>
        <time>2019-08-08T07:29:31.000Z</time>
      </trkpt>
      <trkpt lat="42.80089" lon="0.4362">
        <ele>1387</ele>
        <time>2019-08-08T07:29:32.000Z</time>
      </trkpt>
      <trkpt lat="42.80088" lon="0.43624">
        <ele>1388</ele>
        <time>2019-08-08T07:29:33.000Z</time>
      </trkpt>
      <trkpt lat="42.80087" lon="0.43628">
        <ele>1388</ele>
        <time>2019-08-08T07:29:34.000Z</time>
      </trkpt>
      <trkpt lat="42.80086" lon="0.43632">
        <ele>1388</ele>
        <time>2019-08-08T07:29:35.000Z</time>
      </trkpt>
      <trkpt lat="42.80086" lon="0.43636">
        <ele>1388</ele>
        <time>2019-08-08T07:29:36.000Z</time>
      </trkpt>
      <trkpt lat="42.80085" lon="0.4364">
        <ele>1388</ele>
        <time>2019-08-08T07:29:37.000Z</time>
      </trkpt>
      <trkpt lat="42.80085" lon="0.43644">
        <ele>1388</ele>
        <time>2019-08-08T07:29:38.000Z</time>
      </trkpt>
      <trkpt lat="42.80085" lon="0.43649">
        <ele>1388</ele>
        <time>2019-08-08T07:29:39.000Z</time>
      </trkpt>
      <trkpt lat="42.80085" lon="0.43653">
        <ele>1389</ele>
        <time>2019-08-08T07:29:40.000Z</time>
      </trkpt>
      <trkpt lat="42.80084" lon="0.43657">
        <ele>1389</ele>
        <time>2019-08-08T07:29:41.000Z</time>
      </trkpt>
      <trkpt lat="42.80084" lon="0.43661">
        <ele>1389</ele>
        <time>2019-08-08T07:29:42.000Z</time>
      </trkpt>
      <trkpt lat="42.80084" lon="0.43666">
        <ele>1389</ele>
        <time>2019-08-08T07:29:43.000Z</time>
      </trkpt>
      <trkpt lat="42.80084" lon="0.4367">
        <ele>1390</ele>
        <time>2019-08-08T07:29:44.000Z</time>
      </trkpt>
      <trkpt lat="42.80084" lon="0.43674">
        <ele>1390</ele>
        <time>2019-08-08T07:29:45.000Z</time>
      </trkpt>
      <trkpt lat="42.80084" lon="0.43678">
        <ele>1390</ele>
        <time>2019-08-08T07:29:46.000Z</time>
      </trkpt>
      <trkpt lat="42.80084" lon="0.43682">
        <ele>1390</ele>
        <time>2019-08-08T07:29:47.000Z</time>
      </trkpt>
      <trkpt lat="42.80084" lon="0.43687">
        <ele>1391</ele>
        <time>2019-08-08T07:29:48.000Z</time>
      </trkpt>
      <trkpt lat="42.80084" lon="0.43691">
        <ele>1391</ele>
        <time>2019-08-08T07:29:49.000Z</time>
      </trkpt>
      <trkpt lat="42.80084" lon="0.43695">
        <ele>1391</ele>
        <time>2019-08-08T07:29:50.000Z</time>
      </trkpt>
      <trkpt lat="42.80085" lon="0.43699">
        <ele>1391</ele>
        <time>2019-08-08T07:29:51.000Z</time>
      </trkpt>
      <trkpt lat="42.80085" lon="0.43703">
        <ele>1391</ele>
        <time>2019-08-08T07:29:52.000Z</time>
      </trkpt>
      <trkpt lat="42.80086" lon="0.43707">
        <ele>1391</ele>
        <time>2019-08-08T07:29:53.000Z</time>
      </trkpt>
      <trkpt lat="42.80086" lon="0.43711">
        <ele>1391</ele>
        <time>2019-08-08T07:29:54.000Z</time>
      </trkpt>
      <trkpt lat="42.80086" lon="0.43716">
        <ele>1391</ele>
        <time>2019-08-08T07:29:55.000Z</time>
      </trkpt>
      <trkpt lat="42.80086" lon="0.4372">
        <ele>1392</ele>
        <time>2019-08-08T07:29:56.000Z</time>
      </trkpt>
      <trkpt lat="42.80087" lon="0.43724">
        <ele>1392</ele>
        <time>2019-08-08T07:29:57.000Z</time>
      </trkpt>
      <trkpt lat="42.80087" lon="0.43728">
        <ele>1393</ele>
        <time>2019-08-08T07:29:58.000Z</time>
      </trkpt>
      <trkpt lat="42.80087" lon="0.43732">
        <ele>1393</ele>
        <time>2019-08-08T07:29:59.000Z</time>
      </trkpt>
      <trkpt lat="42.80087" lon="0.43736">
        <ele>1393</ele>
        <time>2019-08-08T07:30:00.000Z</time>
      </trkpt>
      <trkpt lat="42.80087" lon="0.4374">
        <ele>1393</ele>
        <time>2019-08-08T07:30:01.000Z</time>
      </trkpt>
      <trkpt lat="42.80088" lon="0.43744">
        <ele>1393</ele>
        <time>2019-08-08T07:30:02.000Z</time>
      </trkpt>
      <trkpt lat="42.80088" lon="0.43748">
        <ele>1393</ele>
        <time>2019-08-08T07:30:03.000Z</time>
      </trkpt>
      <trkpt lat="42.80088" lon="0.43752">
        <ele>1393</ele>
        <time>2019-08-08T07:30:04.000Z</time>
      </trkpt>
      <trkpt lat="42.80088" lon="0.43757">
        <ele>1393</ele>
        <time>2019-08-08T07:30:05.000Z</time>
      </trkpt>
      <trkpt lat="42.80089" lon="0.43761">
        <ele>1393</ele>
        <time>2019-08-08T07:30:06.000Z</time>
      </trkpt>
      <trkpt lat="42.80089" lon="0.43765">
        <ele>1394</ele>
        <time>2019-08-08T07:30:07.000Z</time>
      </trkpt>
      <trkpt lat="42.80089" lon="0.43769">
        <ele>1394</ele>
        <time>2019-08-08T07:30:08.000Z</time>
      </trkpt>
      <trkpt lat="42.80089" lon="0.43773">
        <ele>1394</ele>
        <time>2019-08-08T07:30:09.000Z</time>
      </trkpt>
      <trkpt lat="42.80089" lon="0.43777">
        <ele>1394</ele>
        <time>2019-08-08T07:30:10.000Z</time>
      </trkpt>
      <trkpt lat="42.80089" lon="0.43782">
        <ele>1395</ele>
        <time>2019-08-08T07:30:11.000Z</time>
      </trkpt>
      <trkpt lat="42.80089" lon="0.43786">
        <ele>1395</ele>
        <time>2019-08-08T07:30:12.000Z</time>
      </trkpt>
      <trkpt lat="42.80089" lon="0.4379">
        <ele>1395</ele>
        <time>2019-08-08T07:30:13.000Z</time>
      </trkpt>
      <trkpt lat="42.80089" lon="0.43794">
        <ele>1395</ele>
        <time>2019-08-08T07:30:14.000Z</time>
      </trkpt>
      <trkpt lat="42.80089" lon="0.43798">
        <ele>1396</ele>
        <time>2019-08-08T07:30:15.000Z</time>
      </trkpt>
      <trkpt lat="42.80089" lon="0.43802">
        <ele>1396</ele>
        <time>2019-08-08T07:30:16.000Z</time>
      </trkpt>
      <trkpt lat="42.80089" lon="0.43806">
        <ele>1396</ele>
        <time>2019-08-08T07:30:17.000Z</time>
      </trkpt>
      <trkpt lat="42.80089" lon="0.43811">
        <ele>1396</ele>
        <time>2019-08-08T07:30:18.000Z</time>
      </trkpt>
      <trkpt lat="42.80089" lon="0.43815">
        <ele>1396</ele>
        <time>2019-08-08T07:30:19.000Z</time>
      </trkpt>
      <trkpt lat="42.80089" lon="0.43819">
        <ele>1396</ele>
        <time>2019-08-08T07:30:20.000Z</time>
      </trkpt>
      <trkpt lat="42.80089" lon="0.43823">
        <ele>1397</ele>
        <time>2019-08-08T07:30:21.000Z</time>
      </trkpt>
      <trkpt lat="42.80089" lon="0.43827">
        <ele>1397</ele>
        <time>2019-08-08T07:30:22.000Z</time>
      </trkpt>
      <trkpt lat="42.80089" lon="0.43831">
        <ele>1397</ele>
        <time>2019-08-08T07:30:23.000Z</time>
      </trkpt>
      <trkpt lat="42.80089" lon="0.43835">
        <ele>1397</ele>
        <time>2019-08-08T07:30:24.000Z</time>
      </trkpt>
      <trkpt lat="42.80088" lon="0.43839">
        <ele>1399</ele>
        <time>2019-08-08T07:30:25.000Z</time>
      </trkpt>
      <trkpt lat="42.80088" lon="0.43843">
        <ele>1399</ele>
        <time>2019-08-08T07:30:26.000Z</time>
      </trkpt>
      <trkpt lat="42.80088" lon="0.43847">
        <ele>1399</ele>
        <time>2019-08-08T07:30:27.000Z</time>
      </trkpt>
      <trkpt lat="42.80088" lon="0.43851">
        <ele>1399</ele>
        <time>2019-08-08T07:30:28.000Z</time>
      </trkpt>
      <trkpt lat="42.80088" lon="0.43856">
        <ele>1399</ele>
        <time>2019-08-08T07:30:29.000Z</time>
      </trkpt>
      <trkpt lat="42.80088" lon="0.4386">
        <ele>1399</ele>
        <time>2019-08-08T07:30:30.000Z</time>
      </trkpt>
      <trkpt lat="42.80088" lon="0.43864">
        <ele>1400</ele>
        <time>2019-08-08T07:30:31.000Z</time>
      </trkpt>
      <trkpt lat="42.80088" lon="0.43868">
        <ele>1400</ele>
        <time>2019-08-08T07:30:32.000Z</time>
      </trkpt>
      <trkpt lat="42.80088" lon="0.43872">
        <ele>1400</ele>
        <time>2019-08-08T07:30:33.000Z</time>
      </trkpt>
      <trkpt lat="42.80089" lon="0.43876">
        <ele>1400</ele>
        <time>2019-08-08T07:30:34.000Z</time>
      </trkpt>
      <trkpt lat="42.80089" lon="0.4388">
        <ele>1401</ele>
        <time>2019-08-08T07:30:35.000Z</time>
      </trkpt>
      <trkpt lat="42.80089" lon="0.43884">
        <ele>1401</ele>
        <time>2019-08-08T07:30:36.000Z</time>
      </trkpt>
      <trkpt lat="42.8009" lon="0.43889">
        <ele>1401</ele>
        <time>2019-08-08T07:30:37.000Z</time>
      </trkpt>
      <trkpt lat="42.8009" lon="0.43893">
        <ele>1401</ele>
        <time>2019-08-08T07:30:38.000Z</time>
      </trkpt>
      <trkpt lat="42.80091" lon="0.43897">
        <ele>1401</ele>
        <time>2019-08-08T07:30:39.000Z</time>
      </trkpt>
      <trkpt lat="42.80091" lon="0.43901">
        <ele>1402</ele>
        <time>2019-08-08T07:30:40.000Z</time>
      </trkpt>
      <trkpt lat="42.80092" lon="0.43906">
        <ele>1402</ele>
        <time>2019-08-08T07:30:41.000Z</time>
      </trkpt>
      <trkpt lat="42.80092" lon="0.4391">
        <ele>1402</ele>
        <time>2019-08-08T07:30:42.000Z</time>
      </trkpt>
      <trkpt lat="42.80092" lon="0.43914">
        <ele>1402</ele>
        <time>2019-08-08T07:30:43.000Z</time>
      </trkpt>
      <trkpt lat="42.80092" lon="0.43918">
        <ele>1402</ele>
        <time>2019-08-08T07:30:44.000Z</time>
      </trkpt>
      <trkpt lat="42.80093" lon="0.43922">
        <ele>1402</ele>
        <time>2019-08-08T07:30:45.000Z</time>
      </trkpt>
      <trkpt lat="42.80093" lon="0.43927">
        <ele>1403</ele>
        <time>2019-08-08T07:30:46.000Z</time>
      </trkpt>
      <trkpt lat="42.80093" lon="0.43931">
        <ele>1403</ele>
        <time>2019-08-08T07:30:47.000Z</time>
      </trkpt>
      <trkpt lat="42.80093" lon="0.43935">
        <ele>1403</ele>
        <time>2019-08-08T07:30:48.000Z</time>
      </trkpt>
      <trkpt lat="42.80094" lon="0.43939">
        <ele>1403</ele>
        <time>2019-08-08T07:30:49.000Z</time>
      </trkpt>
      <trkpt lat="42.80094" lon="0.43944">
        <ele>1404</ele>
        <time>2019-08-08T07:30:50.000Z</time>
      </trkpt>
      <trkpt lat="42.80094" lon="0.43948">
        <ele>1404</ele>
        <time>2019-08-08T07:30:51.000Z</time>
      </trkpt>
      <trkpt lat="42.80095" lon="0.43952">
        <ele>1404</ele>
        <time>2019-08-08T07:30:52.000Z</time>
      </trkpt>
      <trkpt lat="42.80095" lon="0.43956">
        <ele>1404</ele>
        <time>2019-08-08T07:30:53.000Z</time>
      </trkpt>
      <trkpt lat="42.80096" lon="0.4396">
        <ele>1405</ele>
        <time>2019-08-08T07:30:54.000Z</time>
      </trkpt>
      <trkpt lat="42.80096" lon="0.43964">
        <ele>1405</ele>
        <time>2019-08-08T07:30:55.000Z</time>
      </trkpt>
      <trkpt lat="42.80097" lon="0.43968">
        <ele>1405</ele>
        <time>2019-08-08T07:30:56.000Z</time>
      </trkpt>
      <trkpt lat="42.80098" lon="0.43972">
        <ele>1405</ele>
        <time>2019-08-08T07:30:57.000Z</time>
      </trkpt>
      <trkpt lat="42.80098" lon="0.43976">
        <ele>1406</ele>
        <time>2019-08-08T07:30:58.000Z</time>
      </trkpt>
      <trkpt lat="42.80099" lon="0.4398">
        <ele>1406</ele>
        <time>2019-08-08T07:30:59.000Z</time>
      </trkpt>
      <trkpt lat="42.801" lon="0.43984">
        <ele>1406</ele>
        <time>2019-08-08T07:31:00.000Z</time>
      </trkpt>
      <trkpt lat="42.80101" lon="0.43988">
        <ele>1406</ele>
        <time>2019-08-08T07:31:01.000Z</time>
      </trkpt>
      <trkpt lat="42.80102" lon="0.43993">
        <ele>1406</ele>
        <time>2019-08-08T07:31:02.000Z</time>
      </trkpt>
      <trkpt lat="42.80103" lon="0.43997">
        <ele>1406</ele>
        <time>2019-08-08T07:31:03.000Z</time>
      </trkpt>
      <trkpt lat="42.80103" lon="0.44001">
        <ele>1406</ele>
        <time>2019-08-08T07:31:04.000Z</time>
      </trkpt>
      <trkpt lat="42.80104" lon="0.44005">
        <ele>1407</ele>
        <time>2019-08-08T07:31:05.000Z</time>
      </trkpt>
      <trkpt lat="42.80104" lon="0.4401">
        <ele>1407</ele>
        <time>2019-08-08T07:31:06.000Z</time>
      </trkpt>
      <trkpt lat="42.80105" lon="0.44014">
        <ele>1407</ele>
        <time>2019-08-08T07:31:07.000Z</time>
      </trkpt>
      <trkpt lat="42.80105" lon="0.44019">
        <ele>1407</ele>
        <time>2019-08-08T07:31:08.000Z</time>
      </trkpt>
      <trkpt lat="42.80106" lon="0.44023">
        <ele>1408</ele>
        <time>2019-08-08T07:31:09.000Z</time>
      </trkpt>
      <trkpt lat="42.80106" lon="0.44028">
        <ele>1408</ele>
        <time>2019-08-08T07:31:10.000Z</time>
      </trkpt>
      <trkpt lat="42.80106" lon="0.44032">
        <ele>1408</ele>
        <time>2019-08-08T07:31:11.000Z</time>
      </trkpt>
      <trkpt lat="42.80107" lon="0.44037">
        <ele>1408</ele>
        <time>2019-08-08T07:31:12.000Z</time>
      </trkpt>
      <trkpt lat="42.80107" lon="0.44041">
        <ele>1408</ele>
        <time>2019-08-08T07:31:13.000Z</time>
      </trkpt>
      <trkpt lat="42.80107" lon="0.44046">
        <ele>1408</ele>
        <time>2019-08-08T07:31:14.000Z</time>
      </trkpt>
      <trkpt lat="42.80107" lon="0.4405">
        <ele>1408</ele>
        <time>2019-08-08T07:31:15.000Z</time>
      </trkpt>
      <trkpt lat="42.80107" lon="0.44055">
        <ele>1408</ele>
        <time>2019-08-08T07:31:16.000Z</time>
      </trkpt>
      <trkpt lat="42.80107" lon="0.44059">
        <ele>1408</ele>
        <time>2019-08-08T07:31:17.000Z</time>
      </trkpt>
      <trkpt lat="42.80107" lon="0.44064">
        <ele>1409</ele>
        <time>2019-08-08T07:31:18.000Z</time>
      </trkpt>
      <trkpt lat="42.80107" lon="0.44068">
        <ele>1409</ele>
        <time>2019-08-08T07:31:19.000Z</time>
      </trkpt>
      <trkpt lat="42.80107" lon="0.44073">
        <ele>1409</ele>
        <time>2019-08-08T07:31:20.000Z</time>
      </trkpt>
      <trkpt lat="42.80107" lon="0.44077">
        <ele>1409</ele>
        <time>2019-08-08T07:31:21.000Z</time>
      </trkpt>
      <trkpt lat="42.80107" lon="0.44082">
        <ele>1410</ele>
        <time>2019-08-08T07:31:22.000Z</time>
      </trkpt>
      <trkpt lat="42.80107" lon="0.44087">
        <ele>1410</ele>
        <time>2019-08-08T07:31:23.000Z</time>
      </trkpt>
      <trkpt lat="42.80107" lon="0.44091">
        <ele>1410</ele>
        <time>2019-08-08T07:31:24.000Z</time>
      </trkpt>
      <trkpt lat="42.80107" lon="0.44095">
        <ele>1410</ele>
        <time>2019-08-08T07:31:25.000Z</time>
      </trkpt>
      <trkpt lat="42.80107" lon="0.441">
        <ele>1412</ele>
        <time>2019-08-08T07:31:26.000Z</time>
      </trkpt>
      <trkpt lat="42.80108" lon="0.44104">
        <ele>1412</ele>
        <time>2019-08-08T07:31:27.000Z</time>
      </trkpt>
      <trkpt lat="42.80108" lon="0.44109">
        <ele>1412</ele>
        <time>2019-08-08T07:31:28.000Z</time>
      </trkpt>
      <trkpt lat="42.80109" lon="0.44113">
        <ele>1412</ele>
        <time>2019-08-08T07:31:29.000Z</time>
      </trkpt>
      <trkpt lat="42.8011" lon="0.44117">
        <ele>1412</ele>
        <time>2019-08-08T07:31:30.000Z</time>
      </trkpt>
      <trkpt lat="42.80111" lon="0.44122">
        <ele>1412</ele>
        <time>2019-08-08T07:31:31.000Z</time>
      </trkpt>
      <trkpt lat="42.80112" lon="0.44126">
        <ele>1413</ele>
        <time>2019-08-08T07:31:32.000Z</time>
      </trkpt>
      <trkpt lat="42.80113" lon="0.44131">
        <ele>1413</ele>
        <time>2019-08-08T07:31:33.000Z</time>
      </trkpt>
      <trkpt lat="42.80114" lon="0.44135">
        <ele>1413</ele>
        <time>2019-08-08T07:31:34.000Z</time>
      </trkpt>
      <trkpt lat="42.80116" lon="0.44139">
        <ele>1413</ele>
        <time>2019-08-08T07:31:35.000Z</time>
      </trkpt>
      <trkpt lat="42.80117" lon="0.44143">
        <ele>1414</ele>
        <time>2019-08-08T07:31:36.000Z</time>
      </trkpt>
      <trkpt lat="42.80119" lon="0.44147">
        <ele>1414</ele>
        <time>2019-08-08T07:31:37.000Z</time>
      </trkpt>
      <trkpt lat="42.8012" lon="0.44151">
        <ele>1414</ele>
        <time>2019-08-08T07:31:38.000Z</time>
      </trkpt>
      <trkpt lat="42.80123" lon="0.44155">
        <ele>1414</ele>
        <time>2019-08-08T07:31:39.000Z</time>
      </trkpt>
      <trkpt lat="42.80125" lon="0.44158">
        <ele>1415</ele>
        <time>2019-08-08T07:31:40.000Z</time>
      </trkpt>
      <trkpt lat="42.80128" lon="0.44162">
        <ele>1415</ele>
        <time>2019-08-08T07:31:41.000Z</time>
      </trkpt>
      <trkpt lat="42.80131" lon="0.44166">
        <ele>1415</ele>
        <time>2019-08-08T07:31:42.000Z</time>
      </trkpt>
      <trkpt lat="42.80133" lon="0.4417">
        <ele>1416</ele>
        <time>2019-08-08T07:31:43.000Z</time>
      </trkpt>
      <trkpt lat="42.80136" lon="0.44174">
        <ele>1417</ele>
        <time>2019-08-08T07:31:44.000Z</time>
      </trkpt>
      <trkpt lat="42.80138" lon="0.44177">
        <ele>1417</ele>
        <time>2019-08-08T07:31:45.000Z</time>
      </trkpt>
      <trkpt lat="42.8014" lon="0.44181">
        <ele>1417</ele>
        <time>2019-08-08T07:31:46.000Z</time>
      </trkpt>
      <trkpt lat="42.80142" lon="0.44185">
        <ele>1417</ele>
        <time>2019-08-08T07:31:47.000Z</time>
      </trkpt>
      <trkpt lat="42.80143" lon="0.44189">
        <ele>1418</ele>
        <time>2019-08-08T07:31:48.000Z</time>
      </trkpt>
      <trkpt lat="42.80144" lon="0.44193">
        <ele>1418</ele>
        <time>2019-08-08T07:31:49.000Z</time>
      </trkpt>
      <trkpt lat="42.80146" lon="0.44199">
        <ele>1418</ele>
        <time>2019-08-08T07:31:50.000Z</time>
      </trkpt>
      <trkpt lat="42.80147" lon="0.44201">
        <ele>1418</ele>
        <time>2019-08-08T07:31:51.000Z</time>
      </trkpt>
      <trkpt lat="42.80147" lon="0.44203">
        <ele>1418</ele>
        <time>2019-08-08T07:31:52.000Z</time>
      </trkpt>
      <trkpt lat="42.80147" lon="0.44205">
        <ele>1418</ele>
        <time>2019-08-08T07:31:53.000Z</time>
      </trkpt>
      <trkpt lat="42.80148" lon="0.44212">
        <ele>1419</ele>
        <time>2019-08-08T07:31:54.000Z</time>
      </trkpt>
      <trkpt lat="42.80148" lon="0.44212">
        <ele>1419</ele>
        <time>2019-08-08T07:31:55.000Z</time>
      </trkpt>
      <trkpt lat="42.80148" lon="0.44212">
        <ele>1419</ele>
        <time>2019-08-08T07:31:56.000Z</time>
      </trkpt>
      <trkpt lat="42.80149" lon="0.44224">
        <ele>1419</ele>
        <time>2019-08-08T07:31:57.000Z</time>
      </trkpt>
      <trkpt lat="42.8015" lon="0.44228">
        <ele>1419</ele>
        <time>2019-08-08T07:31:58.000Z</time>
      </trkpt>
      <trkpt lat="42.8015" lon="0.44232">
        <ele>1419</ele>
        <time>2019-08-08T07:31:59.000Z</time>
      </trkpt>
      <trkpt lat="42.8015" lon="0.44236">
        <ele>1420</ele>
        <time>2019-08-08T07:32:00.000Z</time>
      </trkpt>
      <trkpt lat="42.80151" lon="0.4424">
        <ele>1420</ele>
        <time>2019-08-08T07:32:01.000Z</time>
      </trkpt>
      <trkpt lat="42.80151" lon="0.44244">
        <ele>1420</ele>
        <time>2019-08-08T07:32:02.000Z</time>
      </trkpt>
      <trkpt lat="42.80152" lon="0.44248">
        <ele>1420</ele>
        <time>2019-08-08T07:32:03.000Z</time>
      </trkpt>
      <trkpt lat="42.80152" lon="0.44252">
        <ele>1420</ele>
        <time>2019-08-08T07:32:04.000Z</time>
      </trkpt>
      <trkpt lat="42.80153" lon="0.44256">
        <ele>1420</ele>
        <time>2019-08-08T07:32:05.000Z</time>
      </trkpt>
      <trkpt lat="42.80153" lon="0.4426">
        <ele>1422</ele>
        <time>2019-08-08T07:32:06.000Z</time>
      </trkpt>
      <trkpt lat="42.80154" lon="0.44264">
        <ele>1422</ele>
        <time>2019-08-08T07:32:07.000Z</time>
      </trkpt>
      <trkpt lat="42.80155" lon="0.44267">
        <ele>1423</ele>
        <time>2019-08-08T07:32:08.000Z</time>
      </trkpt>
      <trkpt lat="42.80155" lon="0.44271">
        <ele>1423</ele>
        <time>2019-08-08T07:32:09.000Z</time>
      </trkpt>
      <trkpt lat="42.80156" lon="0.44275">
        <ele>1423</ele>
        <time>2019-08-08T07:32:10.000Z</time>
      </trkpt>
      <trkpt lat="42.80156" lon="0.44279">
        <ele>1423</ele>
        <time>2019-08-08T07:32:11.000Z</time>
      </trkpt>
      <trkpt lat="42.80157" lon="0.44283">
        <ele>1423</ele>
        <time>2019-08-08T07:32:12.000Z</time>
      </trkpt>
      <trkpt lat="42.80158" lon="0.44286">
        <ele>1423</ele>
        <time>2019-08-08T07:32:13.000Z</time>
      </trkpt>
      <trkpt lat="42.80159" lon="0.4429">
        <ele>1423</ele>
        <time>2019-08-08T07:32:14.000Z</time>
      </trkpt>
      <trkpt lat="42.80159" lon="0.44294">
        <ele>1424</ele>
        <time>2019-08-08T07:32:15.000Z</time>
      </trkpt>
      <trkpt lat="42.8016" lon="0.44297">
        <ele>1424</ele>
        <time>2019-08-08T07:32:16.000Z</time>
      </trkpt>
      <trkpt lat="42.80161" lon="0.44301">
        <ele>1424</ele>
        <time>2019-08-08T07:32:17.000Z</time>
      </trkpt>
      <trkpt lat="42.80162" lon="0.44304">
        <ele>1424</ele>
        <time>2019-08-08T07:32:18.000Z</time>
      </trkpt>
      <trkpt lat="42.80163" lon="0.44308">
        <ele>1424</ele>
        <time>2019-08-08T07:32:19.000Z</time>
      </trkpt>
      <trkpt lat="42.80164" lon="0.44311">
        <ele>1424</ele>
        <time>2019-08-08T07:32:20.000Z</time>
      </trkpt>
      <trkpt lat="42.80165" lon="0.44315">
        <ele>1424</ele>
        <time>2019-08-08T07:32:21.000Z</time>
      </trkpt>
      <trkpt lat="42.80166" lon="0.44318">
        <ele>1424</ele>
        <time>2019-08-08T07:32:22.000Z</time>
      </trkpt>
      <trkpt lat="42.80168" lon="0.44322">
        <ele>1425</ele>
        <time>2019-08-08T07:32:23.000Z</time>
      </trkpt>
      <trkpt lat="42.80169" lon="0.44325">
        <ele>1425</ele>
        <time>2019-08-08T07:32:24.000Z</time>
      </trkpt>
      <trkpt lat="42.80171" lon="0.44328">
        <ele>1425</ele>
        <time>2019-08-08T07:32:25.000Z</time>
      </trkpt>
      <trkpt lat="42.80172" lon="0.44332">
        <ele>1426</ele>
        <time>2019-08-08T07:32:26.000Z</time>
      </trkpt>
      <trkpt lat="42.80174" lon="0.44335">
        <ele>1426</ele>
        <time>2019-08-08T07:32:27.000Z</time>
      </trkpt>
      <trkpt lat="42.80176" lon="0.44338">
        <ele>1427</ele>
        <time>2019-08-08T07:32:28.000Z</time>
      </trkpt>
      <trkpt lat="42.80177" lon="0.44341">
        <ele>1427</ele>
        <time>2019-08-08T07:32:29.000Z</time>
      </trkpt>
      <trkpt lat="42.80179" lon="0.44344">
        <ele>1428</ele>
        <time>2019-08-08T07:32:30.000Z</time>
      </trkpt>
      <trkpt lat="42.8018" lon="0.44347">
        <ele>1428</ele>
        <time>2019-08-08T07:32:31.000Z</time>
      </trkpt>
      <trkpt lat="42.80182" lon="0.4435">
        <ele>1428</ele>
        <time>2019-08-08T07:32:32.000Z</time>
      </trkpt>
      <trkpt lat="42.80184" lon="0.44353">
        <ele>1428</ele>
        <time>2019-08-08T07:32:33.000Z</time>
      </trkpt>
      <trkpt lat="42.80186" lon="0.44356">
        <ele>1428</ele>
        <time>2019-08-08T07:32:34.000Z</time>
      </trkpt>
      <trkpt lat="42.80188" lon="0.44359">
        <ele>1428</ele>
        <time>2019-08-08T07:32:35.000Z</time>
      </trkpt>
      <trkpt lat="42.8019" lon="0.44362">
        <ele>1428</ele>
        <time>2019-08-08T07:32:36.000Z</time>
      </trkpt>
      <trkpt lat="42.80191" lon="0.44365">
        <ele>1428</ele>
        <time>2019-08-08T07:32:37.000Z</time>
      </trkpt>
      <trkpt lat="42.80193" lon="0.44368">
        <ele>1430</ele>
        <time>2019-08-08T07:32:38.000Z</time>
      </trkpt>
      <trkpt lat="42.80195" lon="0.44372">
        <ele>1430</ele>
        <time>2019-08-08T07:32:39.000Z</time>
      </trkpt>
      <trkpt lat="42.80197" lon="0.44375">
        <ele>1430</ele>
        <time>2019-08-08T07:32:40.000Z</time>
      </trkpt>
      <trkpt lat="42.80198" lon="0.44378">
        <ele>1430</ele>
        <time>2019-08-08T07:32:41.000Z</time>
      </trkpt>
      <trkpt lat="42.802" lon="0.44381">
        <ele>1430</ele>
        <time>2019-08-08T07:32:42.000Z</time>
      </trkpt>
      <trkpt lat="42.80202" lon="0.44384">
        <ele>1430</ele>
        <time>2019-08-08T07:32:43.000Z</time>
      </trkpt>
      <trkpt lat="42.80203" lon="0.44388">
        <ele>1430</ele>
        <time>2019-08-08T07:32:44.000Z</time>
      </trkpt>
      <trkpt lat="42.80205" lon="0.44391">
        <ele>1430</ele>
        <time>2019-08-08T07:32:45.000Z</time>
      </trkpt>
      <trkpt lat="42.80206" lon="0.44395">
        <ele>1432</ele>
        <time>2019-08-08T07:32:46.000Z</time>
      </trkpt>
      <trkpt lat="42.80208" lon="0.44398">
        <ele>1432</ele>
        <time>2019-08-08T07:32:47.000Z</time>
      </trkpt>
      <trkpt lat="42.80209" lon="0.44402">
        <ele>1432</ele>
        <time>2019-08-08T07:32:48.000Z</time>
      </trkpt>
      <trkpt lat="42.8021" lon="0.44405">
        <ele>1432</ele>
        <time>2019-08-08T07:32:49.000Z</time>
      </trkpt>
      <trkpt lat="42.80212" lon="0.44409">
        <ele>1433</ele>
        <time>2019-08-08T07:32:50.000Z</time>
      </trkpt>
      <trkpt lat="42.80213" lon="0.44412">
        <ele>1433</ele>
        <time>2019-08-08T07:32:51.000Z</time>
      </trkpt>
      <trkpt lat="42.80214" lon="0.44416">
        <ele>1433</ele>
        <time>2019-08-08T07:32:52.000Z</time>
      </trkpt>
      <trkpt lat="42.80213" lon="0.4442">
        <ele>1434</ele>
        <time>2019-08-08T07:32:53.000Z</time>
      </trkpt>
      <trkpt lat="42.80213" lon="0.44424">
        <ele>1434</ele>
        <time>2019-08-08T07:32:54.000Z</time>
      </trkpt>
      <trkpt lat="42.80211" lon="0.44427">
        <ele>1434</ele>
        <time>2019-08-08T07:32:55.000Z</time>
      </trkpt>
      <trkpt lat="42.8021" lon="0.44431">
        <ele>1434</ele>
        <time>2019-08-08T07:32:56.000Z</time>
      </trkpt>
      <trkpt lat="42.80208" lon="0.44434">
        <ele>1434</ele>
        <time>2019-08-08T07:32:57.000Z</time>
      </trkpt>
      <trkpt lat="42.80207" lon="0.44437">
        <ele>1434</ele>
        <time>2019-08-08T07:32:58.000Z</time>
      </trkpt>
      <trkpt lat="42.80206" lon="0.4444">
        <ele>1434</ele>
        <time>2019-08-08T07:32:59.000Z</time>
      </trkpt>
      <trkpt lat="42.80205" lon="0.44444">
        <ele>1434</ele>
        <time>2019-08-08T07:33:00.000Z</time>
      </trkpt>
      <trkpt lat="42.80204" lon="0.44447">
        <ele>1434</ele>
        <time>2019-08-08T07:33:01.000Z</time>
      </trkpt>
      <trkpt lat="42.80204" lon="0.44451">
        <ele>1435</ele>
        <time>2019-08-08T07:33:02.000Z</time>
      </trkpt>
      <trkpt lat="42.80203" lon="0.44454">
        <ele>1435</ele>
        <time>2019-08-08T07:33:03.000Z</time>
      </trkpt>
      <trkpt lat="42.80202" lon="0.44458">
        <ele>1436</ele>
        <time>2019-08-08T07:33:04.000Z</time>
      </trkpt>
      <trkpt lat="42.80202" lon="0.44461">
        <ele>1436</ele>
        <time>2019-08-08T07:33:05.000Z</time>
      </trkpt>
      <trkpt lat="42.80201" lon="0.44465">
        <ele>1437</ele>
        <time>2019-08-08T07:33:06.000Z</time>
      </trkpt>
      <trkpt lat="42.80201" lon="0.44469">
        <ele>1437</ele>
        <time>2019-08-08T07:33:07.000Z</time>
      </trkpt>
      <trkpt lat="42.80201" lon="0.44473">
        <ele>1437</ele>
        <time>2019-08-08T07:33:08.000Z</time>
      </trkpt>
      <trkpt lat="42.80201" lon="0.44477">
        <ele>1437</ele>
        <time>2019-08-08T07:33:09.000Z</time>
      </trkpt>
      <trkpt lat="42.80201" lon="0.44483">
        <ele>1437</ele>
        <time>2019-08-08T07:33:10.000Z</time>
      </trkpt>
      <trkpt lat="42.80201" lon="0.44485">
        <ele>1438</ele>
        <time>2019-08-08T07:33:11.000Z</time>
      </trkpt>
      <trkpt lat="42.80201" lon="0.44488">
        <ele>1438</ele>
        <time>2019-08-08T07:33:12.000Z</time>
      </trkpt>
      <trkpt lat="42.802" lon="0.44492">
        <ele>1439</ele>
        <time>2019-08-08T07:33:13.000Z</time>
      </trkpt>
      <trkpt lat="42.802" lon="0.44496">
        <ele>1439</ele>
        <time>2019-08-08T07:33:14.000Z</time>
      </trkpt>
      <trkpt lat="42.802" lon="0.445">
        <ele>1439</ele>
        <time>2019-08-08T07:33:15.000Z</time>
      </trkpt>
      <trkpt lat="42.802" lon="0.44504">
        <ele>1439</ele>
        <time>2019-08-08T07:33:16.000Z</time>
      </trkpt>
      <trkpt lat="42.802" lon="0.44508">
        <ele>1439</ele>
        <time>2019-08-08T07:33:17.000Z</time>
      </trkpt>
      <trkpt lat="42.802" lon="0.44511">
        <ele>1439</ele>
        <time>2019-08-08T07:33:18.000Z</time>
      </trkpt>
      <trkpt lat="42.802" lon="0.44515">
        <ele>1441</ele>
        <time>2019-08-08T07:33:19.000Z</time>
      </trkpt>
      <trkpt lat="42.802" lon="0.44519">
        <ele>1441</ele>
        <time>2019-08-08T07:33:20.000Z</time>
      </trkpt>
      <trkpt lat="42.802" lon="0.44523">
        <ele>1441</ele>
        <time>2019-08-08T07:33:21.000Z</time>
      </trkpt>
      <trkpt lat="42.802" lon="0.44527">
        <ele>1441</ele>
        <time>2019-08-08T07:33:22.000Z</time>
      </trkpt>
      <trkpt lat="42.802" lon="0.4453">
        <ele>1442</ele>
        <time>2019-08-08T07:33:23.000Z</time>
      </trkpt>
      <trkpt lat="42.802" lon="0.44534">
        <ele>1442</ele>
        <time>2019-08-08T07:33:24.000Z</time>
      </trkpt>
      <trkpt lat="42.802" lon="0.44538">
        <ele>1441</ele>
        <time>2019-08-08T07:33:25.000Z</time>
      </trkpt>
      <trkpt lat="42.80199" lon="0.44542">
        <ele>1441</ele>
        <time>2019-08-08T07:33:26.000Z</time>
      </trkpt>
      <trkpt lat="42.80199" lon="0.44546">
        <ele>1442</ele>
        <time>2019-08-08T07:33:27.000Z</time>
      </trkpt>
      <trkpt lat="42.80199" lon="0.4455">
        <ele>1442</ele>
        <time>2019-08-08T07:33:28.000Z</time>
      </trkpt>
      <trkpt lat="42.80198" lon="0.44555">
        <ele>1442</ele>
        <time>2019-08-08T07:33:29.000Z</time>
      </trkpt>
      <trkpt lat="42.80198" lon="0.44557">
        <ele>1444</ele>
        <time>2019-08-08T07:33:30.000Z</time>
      </trkpt>
      <trkpt lat="42.80198" lon="0.44559">
        <ele>1444</ele>
        <time>2019-08-08T07:33:31.000Z</time>
      </trkpt>
      <trkpt lat="42.80198" lon="0.44561">
        <ele>1444</ele>
        <time>2019-08-08T07:33:32.000Z</time>
      </trkpt>
      <trkpt lat="42.80197" lon="0.44569">
        <ele>1444</ele>
        <time>2019-08-08T07:33:33.000Z</time>
      </trkpt>
      <trkpt lat="42.80197" lon="0.44569">
        <ele>1444</ele>
        <time>2019-08-08T07:33:34.000Z</time>
      </trkpt>
      <trkpt lat="42.80197" lon="0.44569">
        <ele>1444</ele>
        <time>2019-08-08T07:33:35.000Z</time>
      </trkpt>
      <trkpt lat="42.80197" lon="0.4458">
        <ele>1445</ele>
        <time>2019-08-08T07:33:36.000Z</time>
      </trkpt>
      <trkpt lat="42.80196" lon="0.44584">
        <ele>1445</ele>
        <time>2019-08-08T07:33:37.000Z</time>
      </trkpt>
      <trkpt lat="42.80196" lon="0.44584">
        <ele>1445</ele>
        <time>2019-08-08T07:33:38.000Z</time>
      </trkpt>
      <trkpt lat="42.80196" lon="0.44584">
        <ele>1445</ele>
        <time>2019-08-08T07:33:39.000Z</time>
      </trkpt>
      <trkpt lat="42.80194" lon="0.44597">
        <ele>1445</ele>
        <time>2019-08-08T07:33:40.000Z</time>
      </trkpt>
      <trkpt lat="42.80194" lon="0.44597">
        <ele>1445</ele>
        <time>2019-08-08T07:33:41.000Z</time>
      </trkpt>
      <trkpt lat="42.80194" lon="0.44597">
        <ele>1446</ele>
        <time>2019-08-08T07:33:42.000Z</time>
      </trkpt>
      <trkpt lat="42.80194" lon="0.44607">
        <ele>1446</ele>
        <time>2019-08-08T07:33:43.000Z</time>
      </trkpt>
      <trkpt lat="42.80194" lon="0.44607">
        <ele>1447</ele>
        <time>2019-08-08T07:33:44.000Z</time>
      </trkpt>
      <trkpt lat="42.80194" lon="0.44614">
        <ele>1447</ele>
        <time>2019-08-08T07:33:45.000Z</time>
      </trkpt>
      <trkpt lat="42.80194" lon="0.44618">
        <ele>1447</ele>
        <time>2019-08-08T07:33:46.000Z</time>
      </trkpt>
      <trkpt lat="42.80194" lon="0.44621">
        <ele>1447</ele>
        <time>2019-08-08T07:33:47.000Z</time>
      </trkpt>
      <trkpt lat="42.80193" lon="0.44625">
        <ele>1447</ele>
        <time>2019-08-08T07:33:48.000Z</time>
      </trkpt>
      <trkpt lat="42.80193" lon="0.44628">
        <ele>1448</ele>
        <time>2019-08-08T07:33:49.000Z</time>
      </trkpt>
      <trkpt lat="42.80193" lon="0.44632">
        <ele>1448</ele>
        <time>2019-08-08T07:33:50.000Z</time>
      </trkpt>
      <trkpt lat="42.80194" lon="0.44635">
        <ele>1448</ele>
        <time>2019-08-08T07:33:51.000Z</time>
      </trkpt>
      <trkpt lat="42.80194" lon="0.44639">
        <ele>1448</ele>
        <time>2019-08-08T07:33:52.000Z</time>
      </trkpt>
      <trkpt lat="42.80194" lon="0.44642">
        <ele>1449</ele>
        <time>2019-08-08T07:33:53.000Z</time>
      </trkpt>
      <trkpt lat="42.80194" lon="0.44646">
        <ele>1449</ele>
        <time>2019-08-08T07:33:54.000Z</time>
      </trkpt>
      <trkpt lat="42.80193" lon="0.44649">
        <ele>1450</ele>
        <time>2019-08-08T07:33:55.000Z</time>
      </trkpt>
      <trkpt lat="42.80193" lon="0.44653">
        <ele>1450</ele>
        <time>2019-08-08T07:33:56.000Z</time>
      </trkpt>
      <trkpt lat="42.80193" lon="0.44656">
        <ele>1450</ele>
        <time>2019-08-08T07:33:57.000Z</time>
      </trkpt>
      <trkpt lat="42.80194" lon="0.4466">
        <ele>1450</ele>
        <time>2019-08-08T07:33:58.000Z</time>
      </trkpt>
      <trkpt lat="42.80194" lon="0.44663">
        <ele>1451</ele>
        <time>2019-08-08T07:33:59.000Z</time>
      </trkpt>
      <trkpt lat="42.80194" lon="0.44667">
        <ele>1451</ele>
        <time>2019-08-08T07:34:00.000Z</time>
      </trkpt>
      <trkpt lat="42.80194" lon="0.4467">
        <ele>1451</ele>
        <time>2019-08-08T07:34:01.000Z</time>
      </trkpt>
      <trkpt lat="42.80193" lon="0.44674">
        <ele>1451</ele>
        <time>2019-08-08T07:34:02.000Z</time>
      </trkpt>
      <trkpt lat="42.80193" lon="0.44677">
        <ele>1452</ele>
        <time>2019-08-08T07:34:03.000Z</time>
      </trkpt>
      <trkpt lat="42.80193" lon="0.44681">
        <ele>1452</ele>
        <time>2019-08-08T07:34:04.000Z</time>
      </trkpt>
      <trkpt lat="42.80193" lon="0.44684">
        <ele>1452</ele>
        <time>2019-08-08T07:34:05.000Z</time>
      </trkpt>
      <trkpt lat="42.80193" lon="0.44688">
        <ele>1452</ele>
        <time>2019-08-08T07:34:06.000Z</time>
      </trkpt>
      <trkpt lat="42.80193" lon="0.44688">
        <ele>1452</ele>
        <time>2019-08-08T07:34:07.000Z</time>
      </trkpt>
      <trkpt lat="42.80193" lon="0.44688">
        <ele>1452</ele>
        <time>2019-08-08T07:34:08.000Z</time>
      </trkpt>
      <trkpt lat="42.80191" lon="0.447">
        <ele>1452</ele>
        <time>2019-08-08T07:34:09.000Z</time>
      </trkpt>
      <trkpt lat="42.80191" lon="0.447">
        <ele>1452</ele>
        <time>2019-08-08T07:34:10.000Z</time>
      </trkpt>
      <trkpt lat="42.8019" lon="0.44708">
        <ele>1453</ele>
        <time>2019-08-08T07:34:11.000Z</time>
      </trkpt>
      <trkpt lat="42.8019" lon="0.44712">
        <ele>1453</ele>
        <time>2019-08-08T07:34:12.000Z</time>
      </trkpt>
      <trkpt lat="42.8019" lon="0.44716">
        <ele>1453</ele>
        <time>2019-08-08T07:34:13.000Z</time>
      </trkpt>
      <trkpt lat="42.80189" lon="0.44719">
        <ele>1453</ele>
        <time>2019-08-08T07:34:14.000Z</time>
      </trkpt>
      <trkpt lat="42.80189" lon="0.44723">
        <ele>1454</ele>
        <time>2019-08-08T07:34:15.000Z</time>
      </trkpt>
      <trkpt lat="42.80189" lon="0.44726">
        <ele>1454</ele>
        <time>2019-08-08T07:34:16.000Z</time>
      </trkpt>
      <trkpt lat="42.80189" lon="0.4473">
        <ele>1454</ele>
        <time>2019-08-08T07:34:17.000Z</time>
      </trkpt>
      <trkpt lat="42.80189" lon="0.44733">
        <ele>1454</ele>
        <time>2019-08-08T07:34:18.000Z</time>
      </trkpt>
      <trkpt lat="42.80189" lon="0.44733">
        <ele>1455</ele>
        <time>2019-08-08T07:34:19.000Z</time>
      </trkpt>
      <trkpt lat="42.80188" lon="0.4474">
        <ele>1455</ele>
        <time>2019-08-08T07:34:20.000Z</time>
      </trkpt>
      <trkpt lat="42.80188" lon="0.4474">
        <ele>1455</ele>
        <time>2019-08-08T07:34:21.000Z</time>
      </trkpt>
      <trkpt lat="42.80188" lon="0.4474">
        <ele>1455</ele>
        <time>2019-08-08T07:34:22.000Z</time>
      </trkpt>
      <trkpt lat="42.80188" lon="0.4474">
        <ele>1456</ele>
        <time>2019-08-08T07:34:23.000Z</time>
      </trkpt>
      <trkpt lat="42.80187" lon="0.44753">
        <ele>1456</ele>
        <time>2019-08-08T07:34:24.000Z</time>
      </trkpt>
      <trkpt lat="42.80187" lon="0.44753">
        <ele>1456</ele>
        <time>2019-08-08T07:34:25.000Z</time>
      </trkpt>
      <trkpt lat="42.80187" lon="0.44753">
        <ele>1456</ele>
        <time>2019-08-08T07:34:26.000Z</time>
      </trkpt>
      <trkpt lat="42.80187" lon="0.44753">
        <ele>1457</ele>
        <time>2019-08-08T07:34:27.000Z</time>
      </trkpt>
      <trkpt lat="42.80187" lon="0.44766">
        <ele>1457</ele>
        <time>2019-08-08T07:34:28.000Z</time>
      </trkpt>
      <trkpt lat="42.80187" lon="0.4477">
        <ele>1457</ele>
        <time>2019-08-08T07:34:29.000Z</time>
      </trkpt>
      <trkpt lat="42.80187" lon="0.44774">
        <ele>1457</ele>
        <time>2019-08-08T07:34:30.000Z</time>
      </trkpt>
      <trkpt lat="42.80186" lon="0.44777">
        <ele>1457</ele>
        <time>2019-08-08T07:34:31.000Z</time>
      </trkpt>
      <trkpt lat="42.80186" lon="0.44781">
        <ele>1457</ele>
        <time>2019-08-08T07:34:32.000Z</time>
      </trkpt>
      <trkpt lat="42.80185" lon="0.44785">
        <ele>1458</ele>
        <time>2019-08-08T07:34:33.000Z</time>
      </trkpt>
      <trkpt lat="42.80185" lon="0.44789">
        <ele>1458</ele>
        <time>2019-08-08T07:34:34.000Z</time>
      </trkpt>
      <trkpt lat="42.80185" lon="0.44792">
        <ele>1459</ele>
        <time>2019-08-08T07:34:35.000Z</time>
      </trkpt>
      <trkpt lat="42.80185" lon="0.44796">
        <ele>1459</ele>
        <time>2019-08-08T07:34:36.000Z</time>
      </trkpt>
      <trkpt lat="42.80185" lon="0.448">
        <ele>1459</ele>
        <time>2019-08-08T07:34:37.000Z</time>
      </trkpt>
      <trkpt lat="42.80185" lon="0.44803">
        <ele>1459</ele>
        <time>2019-08-08T07:34:38.000Z</time>
      </trkpt>
      <trkpt lat="42.80185" lon="0.44807">
        <ele>1459</ele>
        <time>2019-08-08T07:34:39.000Z</time>
      </trkpt>
      <trkpt lat="42.80185" lon="0.44807">
        <ele>1459</ele>
        <time>2019-08-08T07:34:40.000Z</time>
      </trkpt>
      <trkpt lat="42.80185" lon="0.44807">
        <ele>1460</ele>
        <time>2019-08-08T07:34:41.000Z</time>
      </trkpt>
      <trkpt lat="42.80185" lon="0.44817">
        <ele>1460</ele>
        <time>2019-08-08T07:34:42.000Z</time>
      </trkpt>
      <trkpt lat="42.80184" lon="0.44822">
        <ele>1460</ele>
        <time>2019-08-08T07:34:43.000Z</time>
      </trkpt>
      <trkpt lat="42.80184" lon="0.44824">
        <ele>1461</ele>
        <time>2019-08-08T07:34:44.000Z</time>
      </trkpt>
      <trkpt lat="42.80183" lon="0.44827">
        <ele>1461</ele>
        <time>2019-08-08T07:34:45.000Z</time>
      </trkpt>
      <trkpt lat="42.80183" lon="0.4483">
        <ele>1461</ele>
        <time>2019-08-08T07:34:46.000Z</time>
      </trkpt>
      <trkpt lat="42.80183" lon="0.44834">
        <ele>1461</ele>
        <time>2019-08-08T07:34:47.000Z</time>
      </trkpt>
      <trkpt lat="42.80183" lon="0.44837">
        <ele>1462</ele>
        <time>2019-08-08T07:34:48.000Z</time>
      </trkpt>
      <trkpt lat="42.80182" lon="0.4484">
        <ele>1462</ele>
        <time>2019-08-08T07:34:49.000Z</time>
      </trkpt>
      <trkpt lat="42.80182" lon="0.44844">
        <ele>1462</ele>
        <time>2019-08-08T07:34:50.000Z</time>
      </trkpt>
      <trkpt lat="42.80181" lon="0.44847">
        <ele>1462</ele>
        <time>2019-08-08T07:34:51.000Z</time>
      </trkpt>
      <trkpt lat="42.80181" lon="0.4485">
        <ele>1462</ele>
        <time>2019-08-08T07:34:52.000Z</time>
      </trkpt>
      <trkpt lat="42.80181" lon="0.44854">
        <ele>1462</ele>
        <time>2019-08-08T07:34:53.000Z</time>
      </trkpt>
      <trkpt lat="42.80181" lon="0.44857">
        <ele>1463</ele>
        <time>2019-08-08T07:34:54.000Z</time>
      </trkpt>
      <trkpt lat="42.80181" lon="0.44861">
        <ele>1463</ele>
        <time>2019-08-08T07:34:55.000Z</time>
      </trkpt>
      <trkpt lat="42.80181" lon="0.44864">
        <ele>1464</ele>
        <time>2019-08-08T07:34:56.000Z</time>
      </trkpt>
      <trkpt lat="42.80181" lon="0.44868">
        <ele>1464</ele>
        <time>2019-08-08T07:34:57.000Z</time>
      </trkpt>
      <trkpt lat="42.8018" lon="0.44871">
        <ele>1464</ele>
        <time>2019-08-08T07:34:58.000Z</time>
      </trkpt>
      <trkpt lat="42.8018" lon="0.44874">
        <ele>1464</ele>
        <time>2019-08-08T07:34:59.000Z</time>
      </trkpt>
      <trkpt lat="42.8018" lon="0.44878">
        <ele>1465</ele>
        <time>2019-08-08T07:35:00.000Z</time>
      </trkpt>
      <trkpt lat="42.80179" lon="0.44881">
        <ele>1465</ele>
        <time>2019-08-08T07:35:01.000Z</time>
      </trkpt>
      <trkpt lat="42.80179" lon="0.44884">
        <ele>1465</ele>
        <time>2019-08-08T07:35:02.000Z</time>
      </trkpt>
      <trkpt lat="42.8018" lon="0.44888">
        <ele>1465</ele>
        <time>2019-08-08T07:35:03.000Z</time>
      </trkpt>
      <trkpt lat="42.8018" lon="0.44891">
        <ele>1465</ele>
        <time>2019-08-08T07:35:04.000Z</time>
      </trkpt>
      <trkpt lat="42.8018" lon="0.44894">
        <ele>1465</ele>
        <time>2019-08-08T07:35:05.000Z</time>
      </trkpt>
      <trkpt lat="42.80179" lon="0.44898">
        <ele>1466</ele>
        <time>2019-08-08T07:35:06.000Z</time>
      </trkpt>
      <trkpt lat="42.80179" lon="0.44901">
        <ele>1466</ele>
        <time>2019-08-08T07:35:07.000Z</time>
      </trkpt>
      <trkpt lat="42.80179" lon="0.44905">
        <ele>1467</ele>
        <time>2019-08-08T07:35:08.000Z</time>
      </trkpt>
      <trkpt lat="42.80179" lon="0.44908">
        <ele>1467</ele>
        <time>2019-08-08T07:35:09.000Z</time>
      </trkpt>
      <trkpt lat="42.8018" lon="0.44912">
        <ele>1467</ele>
        <time>2019-08-08T07:35:10.000Z</time>
      </trkpt>
      <trkpt lat="42.8018" lon="0.44915">
        <ele>1467</ele>
        <time>2019-08-08T07:35:11.000Z</time>
      </trkpt>
      <trkpt lat="42.80181" lon="0.44918">
        <ele>1467</ele>
        <time>2019-08-08T07:35:12.000Z</time>
      </trkpt>
      <trkpt lat="42.80181" lon="0.44922">
        <ele>1467</ele>
        <time>2019-08-08T07:35:13.000Z</time>
      </trkpt>
      <trkpt lat="42.80181" lon="0.44925">
        <ele>1468</ele>
        <time>2019-08-08T07:35:14.000Z</time>
      </trkpt>
      <trkpt lat="42.80181" lon="0.44928">
        <ele>1468</ele>
        <time>2019-08-08T07:35:15.000Z</time>
      </trkpt>
      <trkpt lat="42.80181" lon="0.44932">
        <ele>1469</ele>
        <time>2019-08-08T07:35:16.000Z</time>
      </trkpt>
      <trkpt lat="42.80181" lon="0.44935">
        <ele>1469</ele>
        <time>2019-08-08T07:35:17.000Z</time>
      </trkpt>
      <trkpt lat="42.80182" lon="0.44939">
        <ele>1470</ele>
        <time>2019-08-08T07:35:18.000Z</time>
      </trkpt>
      <trkpt lat="42.80182" lon="0.44942">
        <ele>1470</ele>
        <time>2019-08-08T07:35:19.000Z</time>
      </trkpt>
      <trkpt lat="42.80184" lon="0.44947">
        <ele>1470</ele>
        <time>2019-08-08T07:35:20.000Z</time>
      </trkpt>
      <trkpt lat="42.80184" lon="0.44948">
        <ele>1470</ele>
        <time>2019-08-08T07:35:21.000Z</time>
      </trkpt>
      <trkpt lat="42.80184" lon="0.44949">
        <ele>1470</ele>
        <time>2019-08-08T07:35:22.000Z</time>
      </trkpt>
      <trkpt lat="42.80184" lon="0.44951">
        <ele>1470</ele>
        <time>2019-08-08T07:35:23.000Z</time>
      </trkpt>
      <trkpt lat="42.80185" lon="0.44952">
        <ele>1470</ele>
        <time>2019-08-08T07:35:24.000Z</time>
      </trkpt>
      <trkpt lat="42.80186" lon="0.44959">
        <ele>1471</ele>
        <time>2019-08-08T07:35:25.000Z</time>
      </trkpt>
      <trkpt lat="42.80186" lon="0.44959">
        <ele>1471</ele>
        <time>2019-08-08T07:35:26.000Z</time>
      </trkpt>
      <trkpt lat="42.80188" lon="0.44966">
        <ele>1472</ele>
        <time>2019-08-08T07:35:27.000Z</time>
      </trkpt>
      <trkpt lat="42.80189" lon="0.44969">
        <ele>1472</ele>
        <time>2019-08-08T07:35:28.000Z</time>
      </trkpt>
      <trkpt lat="42.8019" lon="0.44972">
        <ele>1472</ele>
        <time>2019-08-08T07:35:29.000Z</time>
      </trkpt>
      <trkpt lat="42.80191" lon="0.44975">
        <ele>1472</ele>
        <time>2019-08-08T07:35:30.000Z</time>
      </trkpt>
      <trkpt lat="42.80192" lon="0.44978">
        <ele>1472</ele>
        <time>2019-08-08T07:35:31.000Z</time>
      </trkpt>
      <trkpt lat="42.80193" lon="0.44982">
        <ele>1472</ele>
        <time>2019-08-08T07:35:32.000Z</time>
      </trkpt>
      <trkpt lat="42.80194" lon="0.44986">
        <ele>1472</ele>
        <time>2019-08-08T07:35:33.000Z</time>
      </trkpt>
      <trkpt lat="42.80195" lon="0.44989">
        <ele>1472</ele>
        <time>2019-08-08T07:35:34.000Z</time>
      </trkpt>
      <trkpt lat="42.80196" lon="0.44992">
        <ele>1473</ele>
        <time>2019-08-08T07:35:35.000Z</time>
      </trkpt>
      <trkpt lat="42.80197" lon="0.44996">
        <ele>1473</ele>
        <time>2019-08-08T07:35:36.000Z</time>
      </trkpt>
      <trkpt lat="42.80198" lon="0.45">
        <ele>1474</ele>
        <time>2019-08-08T07:35:37.000Z</time>
      </trkpt>
      <trkpt lat="42.80199" lon="0.45003">
        <ele>1474</ele>
        <time>2019-08-08T07:35:38.000Z</time>
      </trkpt>
      <trkpt lat="42.80201" lon="0.45006">
        <ele>1474</ele>
        <time>2019-08-08T07:35:39.000Z</time>
      </trkpt>
      <trkpt lat="42.80202" lon="0.45009">
        <ele>1474</ele>
        <time>2019-08-08T07:35:40.000Z</time>
      </trkpt>
      <trkpt lat="42.80203" lon="0.45012">
        <ele>1474</ele>
        <time>2019-08-08T07:35:41.000Z</time>
      </trkpt>
      <trkpt lat="42.80205" lon="0.45015">
        <ele>1474</ele>
        <time>2019-08-08T07:35:42.000Z</time>
      </trkpt>
      <trkpt lat="42.80206" lon="0.45018">
        <ele>1474</ele>
        <time>2019-08-08T07:35:43.000Z</time>
      </trkpt>
      <trkpt lat="42.80207" lon="0.45021">
        <ele>1474</ele>
        <time>2019-08-08T07:35:44.000Z</time>
      </trkpt>
      <trkpt lat="42.80208" lon="0.45025">
        <ele>1475</ele>
        <time>2019-08-08T07:35:45.000Z</time>
      </trkpt>
      <trkpt lat="42.80209" lon="0.45028">
        <ele>1475</ele>
        <time>2019-08-08T07:35:46.000Z</time>
      </trkpt>
      <trkpt lat="42.8021" lon="0.45031">
        <ele>1476</ele>
        <time>2019-08-08T07:35:47.000Z</time>
      </trkpt>
      <trkpt lat="42.80211" lon="0.45035">
        <ele>1476</ele>
        <time>2019-08-08T07:35:48.000Z</time>
      </trkpt>
      <trkpt lat="42.80212" lon="0.45038">
        <ele>1476</ele>
        <time>2019-08-08T07:35:49.000Z</time>
      </trkpt>
      <trkpt lat="42.80213" lon="0.45041">
        <ele>1476</ele>
        <time>2019-08-08T07:35:50.000Z</time>
      </trkpt>
      <trkpt lat="42.80213" lon="0.45045">
        <ele>1477</ele>
        <time>2019-08-08T07:35:51.000Z</time>
      </trkpt>
      <trkpt lat="42.80214" lon="0.45048">
        <ele>1477</ele>
        <time>2019-08-08T07:35:52.000Z</time>
      </trkpt>
      <trkpt lat="42.80215" lon="0.45052">
        <ele>1477</ele>
        <time>2019-08-08T07:35:53.000Z</time>
      </trkpt>
      <trkpt lat="42.80215" lon="0.45055">
        <ele>1477</ele>
        <time>2019-08-08T07:35:54.000Z</time>
      </trkpt>
      <trkpt lat="42.80216" lon="0.45059">
        <ele>1477</ele>
        <time>2019-08-08T07:35:55.000Z</time>
      </trkpt>
      <trkpt lat="42.80217" lon="0.45062">
        <ele>1477</ele>
        <time>2019-08-08T07:35:56.000Z</time>
      </trkpt>
      <trkpt lat="42.80217" lon="0.45066">
        <ele>1478</ele>
        <time>2019-08-08T07:35:57.000Z</time>
      </trkpt>
      <trkpt lat="42.80218" lon="0.45069">
        <ele>1478</ele>
        <time>2019-08-08T07:35:58.000Z</time>
      </trkpt>
      <trkpt lat="42.80218" lon="0.45073">
        <ele>1478</ele>
        <time>2019-08-08T07:35:59.000Z</time>
      </trkpt>
      <trkpt lat="42.80219" lon="0.45076">
        <ele>1478</ele>
        <time>2019-08-08T07:36:00.000Z</time>
      </trkpt>
      <trkpt lat="42.80219" lon="0.45076">
        <ele>1478</ele>
        <time>2019-08-08T07:36:01.000Z</time>
      </trkpt>
      <trkpt lat="42.80221" lon="0.45083">
        <ele>1478</ele>
        <time>2019-08-08T07:36:02.000Z</time>
      </trkpt>
      <trkpt lat="42.80222" lon="0.45087">
        <ele>1479</ele>
        <time>2019-08-08T07:36:03.000Z</time>
      </trkpt>
      <trkpt lat="42.80223" lon="0.4509">
        <ele>1479</ele>
        <time>2019-08-08T07:36:04.000Z</time>
      </trkpt>
      <trkpt lat="42.80224" lon="0.45093">
        <ele>1480</ele>
        <time>2019-08-08T07:36:05.000Z</time>
      </trkpt>
      <trkpt lat="42.80225" lon="0.45097">
        <ele>1480</ele>
        <time>2019-08-08T07:36:06.000Z</time>
      </trkpt>
      <trkpt lat="42.80225" lon="0.451">
        <ele>1480</ele>
        <time>2019-08-08T07:36:07.000Z</time>
      </trkpt>
      <trkpt lat="42.80226" lon="0.45104">
        <ele>1480</ele>
        <time>2019-08-08T07:36:08.000Z</time>
      </trkpt>
      <trkpt lat="42.80226" lon="0.45107">
        <ele>1480</ele>
        <time>2019-08-08T07:36:09.000Z</time>
      </trkpt>
      <trkpt lat="42.80227" lon="0.45111">
        <ele>1480</ele>
        <time>2019-08-08T07:36:10.000Z</time>
      </trkpt>
      <trkpt lat="42.80227" lon="0.45114">
        <ele>1480</ele>
        <time>2019-08-08T07:36:11.000Z</time>
      </trkpt>
      <trkpt lat="42.80227" lon="0.45118">
        <ele>1480</ele>
        <time>2019-08-08T07:36:12.000Z</time>
      </trkpt>
      <trkpt lat="42.80228" lon="0.45122">
        <ele>1481</ele>
        <time>2019-08-08T07:36:13.000Z</time>
      </trkpt>
      <trkpt lat="42.80228" lon="0.45126">
        <ele>1481</ele>
        <time>2019-08-08T07:36:14.000Z</time>
      </trkpt>
      <trkpt lat="42.80228" lon="0.4513">
        <ele>1481</ele>
        <time>2019-08-08T07:36:15.000Z</time>
      </trkpt>
      <trkpt lat="42.80229" lon="0.45134">
        <ele>1481</ele>
        <time>2019-08-08T07:36:16.000Z</time>
      </trkpt>
      <trkpt lat="42.8023" lon="0.45137">
        <ele>1482</ele>
        <time>2019-08-08T07:36:17.000Z</time>
      </trkpt>
      <trkpt lat="42.80231" lon="0.45141">
        <ele>1482</ele>
        <time>2019-08-08T07:36:18.000Z</time>
      </trkpt>
      <trkpt lat="42.80232" lon="0.45144">
        <ele>1483</ele>
        <time>2019-08-08T07:36:19.000Z</time>
      </trkpt>
      <trkpt lat="42.80233" lon="0.45148">
        <ele>1483</ele>
        <time>2019-08-08T07:36:20.000Z</time>
      </trkpt>
      <trkpt lat="42.80233" lon="0.45151">
        <ele>1483</ele>
        <time>2019-08-08T07:36:21.000Z</time>
      </trkpt>
      <trkpt lat="42.80233" lon="0.45155">
        <ele>1484</ele>
        <time>2019-08-08T07:36:22.000Z</time>
      </trkpt>
      <trkpt lat="42.80233" lon="0.45159">
        <ele>1484</ele>
        <time>2019-08-08T07:36:23.000Z</time>
      </trkpt>
      <trkpt lat="42.80233" lon="0.45163">
        <ele>1484</ele>
        <time>2019-08-08T07:36:24.000Z</time>
      </trkpt>
      <trkpt lat="42.80233" lon="0.45167">
        <ele>1484</ele>
        <time>2019-08-08T07:36:25.000Z</time>
      </trkpt>
      <trkpt lat="42.80234" lon="0.45171">
        <ele>1485</ele>
        <time>2019-08-08T07:36:26.000Z</time>
      </trkpt>
      <trkpt lat="42.80233" lon="0.45175">
        <ele>1485</ele>
        <time>2019-08-08T07:36:27.000Z</time>
      </trkpt>
      <trkpt lat="42.80233" lon="0.4518">
        <ele>1485</ele>
        <time>2019-08-08T07:36:28.000Z</time>
      </trkpt>
      <trkpt lat="42.80233" lon="0.45184">
        <ele>1485</ele>
        <time>2019-08-08T07:36:29.000Z</time>
      </trkpt>
      <trkpt lat="42.80233" lon="0.45188">
        <ele>1486</ele>
        <time>2019-08-08T07:36:30.000Z</time>
      </trkpt>
      <trkpt lat="42.80232" lon="0.45192">
        <ele>1486</ele>
        <time>2019-08-08T07:36:31.000Z</time>
      </trkpt>
      <trkpt lat="42.80232" lon="0.45196">
        <ele>1487</ele>
        <time>2019-08-08T07:36:32.000Z</time>
      </trkpt>
      <trkpt lat="42.80232" lon="0.452">
        <ele>1487</ele>
        <time>2019-08-08T07:36:33.000Z</time>
      </trkpt>
      <trkpt lat="42.80231" lon="0.45203">
        <ele>1487</ele>
        <time>2019-08-08T07:36:34.000Z</time>
      </trkpt>
      <trkpt lat="42.80231" lon="0.45208">
        <ele>1487</ele>
        <time>2019-08-08T07:36:35.000Z</time>
      </trkpt>
      <trkpt lat="42.80231" lon="0.45211">
        <ele>1488</ele>
        <time>2019-08-08T07:36:36.000Z</time>
      </trkpt>
      <trkpt lat="42.80231" lon="0.45215">
        <ele>1488</ele>
        <time>2019-08-08T07:36:37.000Z</time>
      </trkpt>
      <trkpt lat="42.80231" lon="0.4522">
        <ele>1488</ele>
        <time>2019-08-08T07:36:38.000Z</time>
      </trkpt>
      <trkpt lat="42.80232" lon="0.45224">
        <ele>1488</ele>
        <time>2019-08-08T07:36:39.000Z</time>
      </trkpt>
      <trkpt lat="42.80232" lon="0.45228">
        <ele>1488</ele>
        <time>2019-08-08T07:36:40.000Z</time>
      </trkpt>
      <trkpt lat="42.80233" lon="0.45232">
        <ele>1489</ele>
        <time>2019-08-08T07:36:41.000Z</time>
      </trkpt>
      <trkpt lat="42.80234" lon="0.45236">
        <ele>1489</ele>
        <time>2019-08-08T07:36:42.000Z</time>
      </trkpt>
      <trkpt lat="42.80234" lon="0.4524">
        <ele>1490</ele>
        <time>2019-08-08T07:36:43.000Z</time>
      </trkpt>
      <trkpt lat="42.80235" lon="0.45243">
        <ele>1490</ele>
        <time>2019-08-08T07:36:44.000Z</time>
      </trkpt>
      <trkpt lat="42.80235" lon="0.45247">
        <ele>1490</ele>
        <time>2019-08-08T07:36:45.000Z</time>
      </trkpt>
      <trkpt lat="42.80235" lon="0.45251">
        <ele>1490</ele>
        <time>2019-08-08T07:36:46.000Z</time>
      </trkpt>
      <trkpt lat="42.80235" lon="0.45256">
        <ele>1491</ele>
        <time>2019-08-08T07:36:47.000Z</time>
      </trkpt>
      <trkpt lat="42.80235" lon="0.45259">
        <ele>1491</ele>
        <time>2019-08-08T07:36:48.000Z</time>
      </trkpt>
      <trkpt lat="42.80235" lon="0.45263">
        <ele>1492</ele>
        <time>2019-08-08T07:36:49.000Z</time>
      </trkpt>
      <trkpt lat="42.80234" lon="0.45266">
        <ele>1492</ele>
        <time>2019-08-08T07:36:50.000Z</time>
      </trkpt>
      <trkpt lat="42.80232" lon="0.45269">
        <ele>1492</ele>
        <time>2019-08-08T07:36:51.000Z</time>
      </trkpt>
      <trkpt lat="42.80231" lon="0.45272">
        <ele>1492</ele>
        <time>2019-08-08T07:36:52.000Z</time>
      </trkpt>
      <trkpt lat="42.80229" lon="0.45275">
        <ele>1492</ele>
        <time>2019-08-08T07:36:53.000Z</time>
      </trkpt>
      <trkpt lat="42.80228" lon="0.45278">
        <ele>1492</ele>
        <time>2019-08-08T07:36:54.000Z</time>
      </trkpt>
      <trkpt lat="42.80226" lon="0.45281">
        <ele>1493</ele>
        <time>2019-08-08T07:36:55.000Z</time>
      </trkpt>
      <trkpt lat="42.80225" lon="0.45285">
        <ele>1493</ele>
        <time>2019-08-08T07:36:56.000Z</time>
      </trkpt>
      <trkpt lat="42.80223" lon="0.45288">
        <ele>1493</ele>
        <time>2019-08-08T07:36:57.000Z</time>
      </trkpt>
      <trkpt lat="42.80222" lon="0.45291">
        <ele>1493</ele>
        <time>2019-08-08T07:36:58.000Z</time>
      </trkpt>
      <trkpt lat="42.8022" lon="0.45293">
        <ele>1495</ele>
        <time>2019-08-08T07:36:59.000Z</time>
      </trkpt>
      <trkpt lat="42.80218" lon="0.45296">
        <ele>1495</ele>
        <time>2019-08-08T07:37:00.000Z</time>
      </trkpt>
      <trkpt lat="42.80217" lon="0.45299">
        <ele>1495</ele>
        <time>2019-08-08T07:37:01.000Z</time>
      </trkpt>
      <trkpt lat="42.80216" lon="0.45302">
        <ele>1495</ele>
        <time>2019-08-08T07:37:02.000Z</time>
      </trkpt>
      <trkpt lat="42.80214" lon="0.45305">
        <ele>1496</ele>
        <time>2019-08-08T07:37:03.000Z</time>
      </trkpt>
      <trkpt lat="42.80213" lon="0.45308">
        <ele>1496</ele>
        <time>2019-08-08T07:37:04.000Z</time>
      </trkpt>
      <trkpt lat="42.80211" lon="0.45311">
        <ele>1496</ele>
        <time>2019-08-08T07:37:05.000Z</time>
      </trkpt>
      <trkpt lat="42.8021" lon="0.45314">
        <ele>1496</ele>
        <time>2019-08-08T07:37:06.000Z</time>
      </trkpt>
      <trkpt lat="42.80209" lon="0.45318">
        <ele>1497</ele>
        <time>2019-08-08T07:37:07.000Z</time>
      </trkpt>
      <trkpt lat="42.80208" lon="0.45322">
        <ele>1497</ele>
        <time>2019-08-08T07:37:08.000Z</time>
      </trkpt>
      <trkpt lat="42.80207" lon="0.45325">
        <ele>1497</ele>
        <time>2019-08-08T07:37:09.000Z</time>
      </trkpt>
      <trkpt lat="42.80205" lon="0.45329">
        <ele>1497</ele>
        <time>2019-08-08T07:37:10.000Z</time>
      </trkpt>
      <trkpt lat="42.80204" lon="0.45332">
        <ele>1498</ele>
        <time>2019-08-08T07:37:11.000Z</time>
      </trkpt>
      <trkpt lat="42.80203" lon="0.45335">
        <ele>1498</ele>
        <time>2019-08-08T07:37:12.000Z</time>
      </trkpt>
      <trkpt lat="42.80203" lon="0.45339">
        <ele>1498</ele>
        <time>2019-08-08T07:37:13.000Z</time>
      </trkpt>
      <trkpt lat="42.80202" lon="0.45343">
        <ele>1498</ele>
        <time>2019-08-08T07:37:14.000Z</time>
      </trkpt>
      <trkpt lat="42.80202" lon="0.45346">
        <ele>1498</ele>
        <time>2019-08-08T07:37:15.000Z</time>
      </trkpt>
      <trkpt lat="42.80202" lon="0.4535">
        <ele>1498</ele>
        <time>2019-08-08T07:37:16.000Z</time>
      </trkpt>
      <trkpt lat="42.80202" lon="0.45354">
        <ele>1498</ele>
        <time>2019-08-08T07:37:17.000Z</time>
      </trkpt>
      <trkpt lat="42.80202" lon="0.45358">
        <ele>1499</ele>
        <time>2019-08-08T07:37:18.000Z</time>
      </trkpt>
      <trkpt lat="42.80201" lon="0.45362">
        <ele>1499</ele>
        <time>2019-08-08T07:37:19.000Z</time>
      </trkpt>
      <trkpt lat="42.80201" lon="0.45366">
        <ele>1499</ele>
        <time>2019-08-08T07:37:20.000Z</time>
      </trkpt>
      <trkpt lat="42.80202" lon="0.4537">
        <ele>1499</ele>
        <time>2019-08-08T07:37:21.000Z</time>
      </trkpt>
      <trkpt lat="42.80202" lon="0.45374">
        <ele>1500</ele>
        <time>2019-08-08T07:37:22.000Z</time>
      </trkpt>
      <trkpt lat="42.80202" lon="0.45378">
        <ele>1500</ele>
        <time>2019-08-08T07:37:23.000Z</time>
      </trkpt>
      <trkpt lat="42.80202" lon="0.45381">
        <ele>1500</ele>
        <time>2019-08-08T07:37:24.000Z</time>
      </trkpt>
      <trkpt lat="42.80202" lon="0.45385">
        <ele>1500</ele>
        <time>2019-08-08T07:37:25.000Z</time>
      </trkpt>
      <trkpt lat="42.80202" lon="0.45389">
        <ele>1501</ele>
        <time>2019-08-08T07:37:26.000Z</time>
      </trkpt>
      <trkpt lat="42.80202" lon="0.45393">
        <ele>1501</ele>
        <time>2019-08-08T07:37:27.000Z</time>
      </trkpt>
      <trkpt lat="42.80203" lon="0.45397">
        <ele>1501</ele>
        <time>2019-08-08T07:37:28.000Z</time>
      </trkpt>
      <trkpt lat="42.80203" lon="0.45401">
        <ele>1501</ele>
        <time>2019-08-08T07:37:29.000Z</time>
      </trkpt>
      <trkpt lat="42.80203" lon="0.45405">
        <ele>1502</ele>
        <time>2019-08-08T07:37:30.000Z</time>
      </trkpt>
      <trkpt lat="42.80204" lon="0.45409">
        <ele>1502</ele>
        <time>2019-08-08T07:37:31.000Z</time>
      </trkpt>
      <trkpt lat="42.80204" lon="0.45413">
        <ele>1503</ele>
        <time>2019-08-08T07:37:32.000Z</time>
      </trkpt>
      <trkpt lat="42.80204" lon="0.45417">
        <ele>1503</ele>
        <time>2019-08-08T07:37:33.000Z</time>
      </trkpt>
      <trkpt lat="42.80204" lon="0.45421">
        <ele>1503</ele>
        <time>2019-08-08T07:37:34.000Z</time>
      </trkpt>
      <trkpt lat="42.80204" lon="0.45425">
        <ele>1503</ele>
        <time>2019-08-08T07:37:35.000Z</time>
      </trkpt>
      <trkpt lat="42.80204" lon="0.45429">
        <ele>1504</ele>
        <time>2019-08-08T07:37:36.000Z</time>
      </trkpt>
      <trkpt lat="42.80204" lon="0.45433">
        <ele>1504</ele>
        <time>2019-08-08T07:37:37.000Z</time>
      </trkpt>
      <trkpt lat="42.80203" lon="0.45437">
        <ele>1504</ele>
        <time>2019-08-08T07:37:38.000Z</time>
      </trkpt>
      <trkpt lat="42.80203" lon="0.4544">
        <ele>1504</ele>
        <time>2019-08-08T07:37:39.000Z</time>
      </trkpt>
      <trkpt lat="42.80203" lon="0.45444">
        <ele>1504</ele>
        <time>2019-08-08T07:37:40.000Z</time>
      </trkpt>
      <trkpt lat="42.80203" lon="0.45448">
        <ele>1504</ele>
        <time>2019-08-08T07:37:41.000Z</time>
      </trkpt>
      <trkpt lat="42.80202" lon="0.45452">
        <ele>1505</ele>
        <time>2019-08-08T07:37:42.000Z</time>
      </trkpt>
      <trkpt lat="42.80202" lon="0.45456">
        <ele>1505</ele>
        <time>2019-08-08T07:37:43.000Z</time>
      </trkpt>
      <trkpt lat="42.80201" lon="0.4546">
        <ele>1506</ele>
        <time>2019-08-08T07:37:44.000Z</time>
      </trkpt>
      <trkpt lat="42.80201" lon="0.45463">
        <ele>1506</ele>
        <time>2019-08-08T07:37:45.000Z</time>
      </trkpt>
      <trkpt lat="42.802" lon="0.45467">
        <ele>1507</ele>
        <time>2019-08-08T07:37:46.000Z</time>
      </trkpt>
      <trkpt lat="42.802" lon="0.45471">
        <ele>1507</ele>
        <time>2019-08-08T07:37:47.000Z</time>
      </trkpt>
      <trkpt lat="42.80199" lon="0.45475">
        <ele>1508</ele>
        <time>2019-08-08T07:37:48.000Z</time>
      </trkpt>
      <trkpt lat="42.80198" lon="0.45478">
        <ele>1508</ele>
        <time>2019-08-08T07:37:49.000Z</time>
      </trkpt>
      <trkpt lat="42.80197" lon="0.45482">
        <ele>1508</ele>
        <time>2019-08-08T07:37:50.000Z</time>
      </trkpt>
      <trkpt lat="42.80196" lon="0.45485">
        <ele>1508</ele>
        <time>2019-08-08T07:37:51.000Z</time>
      </trkpt>
      <trkpt lat="42.80195" lon="0.45489">
        <ele>1508</ele>
        <time>2019-08-08T07:37:52.000Z</time>
      </trkpt>
      <trkpt lat="42.80194" lon="0.45493">
        <ele>1508</ele>
        <time>2019-08-08T07:37:53.000Z</time>
      </trkpt>
      <trkpt lat="42.80194" lon="0.45496">
        <ele>1509</ele>
        <time>2019-08-08T07:37:54.000Z</time>
      </trkpt>
      <trkpt lat="42.80193" lon="0.455">
        <ele>1509</ele>
        <time>2019-08-08T07:37:55.000Z</time>
      </trkpt>
      <trkpt lat="42.80192" lon="0.45504">
        <ele>1510</ele>
        <time>2019-08-08T07:37:56.000Z</time>
      </trkpt>
      <trkpt lat="42.80191" lon="0.45508">
        <ele>1510</ele>
        <time>2019-08-08T07:37:57.000Z</time>
      </trkpt>
      <trkpt lat="42.8019" lon="0.45511">
        <ele>1510</ele>
        <time>2019-08-08T07:37:58.000Z</time>
      </trkpt>
      <trkpt lat="42.8019" lon="0.45515">
        <ele>1510</ele>
        <time>2019-08-08T07:37:59.000Z</time>
      </trkpt>
      <trkpt lat="42.80189" lon="0.45519">
        <ele>1510</ele>
        <time>2019-08-08T07:38:00.000Z</time>
      </trkpt>
      <trkpt lat="42.80189" lon="0.45523">
        <ele>1510</ele>
        <time>2019-08-08T07:38:01.000Z</time>
      </trkpt>
      <trkpt lat="42.80188" lon="0.45527">
        <ele>1511</ele>
        <time>2019-08-08T07:38:02.000Z</time>
      </trkpt>
      <trkpt lat="42.80188" lon="0.45531">
        <ele>1511</ele>
        <time>2019-08-08T07:38:03.000Z</time>
      </trkpt>
      <trkpt lat="42.80187" lon="0.45535">
        <ele>1512</ele>
        <time>2019-08-08T07:38:04.000Z</time>
      </trkpt>
      <trkpt lat="42.80187" lon="0.45539">
        <ele>1512</ele>
        <time>2019-08-08T07:38:05.000Z</time>
      </trkpt>
      <trkpt lat="42.80187" lon="0.45543">
        <ele>1512</ele>
        <time>2019-08-08T07:38:06.000Z</time>
      </trkpt>
      <trkpt lat="42.80187" lon="0.45547">
        <ele>1512</ele>
        <time>2019-08-08T07:38:07.000Z</time>
      </trkpt>
      <trkpt lat="42.80186" lon="0.4555">
        <ele>1513</ele>
        <time>2019-08-08T07:38:08.000Z</time>
      </trkpt>
      <trkpt lat="42.80186" lon="0.45554">
        <ele>1513</ele>
        <time>2019-08-08T07:38:09.000Z</time>
      </trkpt>
      <trkpt lat="42.80186" lon="0.45558">
        <ele>1513</ele>
        <time>2019-08-08T07:38:10.000Z</time>
      </trkpt>
      <trkpt lat="42.80185" lon="0.45561">
        <ele>1513</ele>
        <time>2019-08-08T07:38:11.000Z</time>
      </trkpt>
      <trkpt lat="42.80185" lon="0.45565">
        <ele>1514</ele>
        <time>2019-08-08T07:38:12.000Z</time>
      </trkpt>
      <trkpt lat="42.80185" lon="0.45569">
        <ele>1514</ele>
        <time>2019-08-08T07:38:13.000Z</time>
      </trkpt>
      <trkpt lat="42.80186" lon="0.45572">
        <ele>1514</ele>
        <time>2019-08-08T07:38:14.000Z</time>
      </trkpt>
      <trkpt lat="42.80186" lon="0.45576">
        <ele>1514</ele>
        <time>2019-08-08T07:38:15.000Z</time>
      </trkpt>
      <trkpt lat="42.80186" lon="0.45579">
        <ele>1515</ele>
        <time>2019-08-08T07:38:16.000Z</time>
      </trkpt>
      <trkpt lat="42.80185" lon="0.45583">
        <ele>1515</ele>
        <time>2019-08-08T07:38:17.000Z</time>
      </trkpt>
      <trkpt lat="42.80184" lon="0.45587">
        <ele>1515</ele>
        <time>2019-08-08T07:38:18.000Z</time>
      </trkpt>
      <trkpt lat="42.80184" lon="0.4559">
        <ele>1515</ele>
        <time>2019-08-08T07:38:19.000Z</time>
      </trkpt>
      <trkpt lat="42.80184" lon="0.45594">
        <ele>1515</ele>
        <time>2019-08-08T07:38:20.000Z</time>
      </trkpt>
      <trkpt lat="42.80183" lon="0.45598">
        <ele>1515</ele>
        <time>2019-08-08T07:38:21.000Z</time>
      </trkpt>
      <trkpt lat="42.80183" lon="0.45602">
        <ele>1516</ele>
        <time>2019-08-08T07:38:22.000Z</time>
      </trkpt>
      <trkpt lat="42.80183" lon="0.45605">
        <ele>1516</ele>
        <time>2019-08-08T07:38:23.000Z</time>
      </trkpt>
      <trkpt lat="42.80182" lon="0.45609">
        <ele>1517</ele>
        <time>2019-08-08T07:38:24.000Z</time>
      </trkpt>
      <trkpt lat="42.80182" lon="0.45612">
        <ele>1517</ele>
        <time>2019-08-08T07:38:25.000Z</time>
      </trkpt>
      <trkpt lat="42.80182" lon="0.45616">
        <ele>1517</ele>
        <time>2019-08-08T07:38:26.000Z</time>
      </trkpt>
      <trkpt lat="42.80181" lon="0.45619">
        <ele>1517</ele>
        <time>2019-08-08T07:38:27.000Z</time>
      </trkpt>
      <trkpt lat="42.80181" lon="0.45623">
        <ele>1517</ele>
        <time>2019-08-08T07:38:28.000Z</time>
      </trkpt>
      <trkpt lat="42.80181" lon="0.45626">
        <ele>1517</ele>
        <time>2019-08-08T07:38:29.000Z</time>
      </trkpt>
      <trkpt lat="42.8018" lon="0.45629">
        <ele>1517</ele>
        <time>2019-08-08T07:38:30.000Z</time>
      </trkpt>
      <trkpt lat="42.80179" lon="0.45633">
        <ele>1517</ele>
        <time>2019-08-08T07:38:31.000Z</time>
      </trkpt>
      <trkpt lat="42.80179" lon="0.45636">
        <ele>1518</ele>
        <time>2019-08-08T07:38:32.000Z</time>
      </trkpt>
      <trkpt lat="42.80178" lon="0.4564">
        <ele>1518</ele>
        <time>2019-08-08T07:38:33.000Z</time>
      </trkpt>
      <trkpt lat="42.80178" lon="0.45643">
        <ele>1518</ele>
        <time>2019-08-08T07:38:34.000Z</time>
      </trkpt>
      <trkpt lat="42.80177" lon="0.45646">
        <ele>1518</ele>
        <time>2019-08-08T07:38:35.000Z</time>
      </trkpt>
      <trkpt lat="42.80177" lon="0.4565">
        <ele>1518</ele>
        <time>2019-08-08T07:38:36.000Z</time>
      </trkpt>
      <trkpt lat="42.80176" lon="0.45653">
        <ele>1519</ele>
        <time>2019-08-08T07:38:37.000Z</time>
      </trkpt>
      <trkpt lat="42.80175" lon="0.45656">
        <ele>1519</ele>
        <time>2019-08-08T07:38:38.000Z</time>
      </trkpt>
      <trkpt lat="42.80175" lon="0.45659">
        <ele>1519</ele>
        <time>2019-08-08T07:38:39.000Z</time>
      </trkpt>
      <trkpt lat="42.80174" lon="0.45663">
        <ele>1519</ele>
        <time>2019-08-08T07:38:40.000Z</time>
      </trkpt>
      <trkpt lat="42.80173" lon="0.45666">
        <ele>1520</ele>
        <time>2019-08-08T07:38:41.000Z</time>
      </trkpt>
      <trkpt lat="42.80173" lon="0.45669">
        <ele>1520</ele>
        <time>2019-08-08T07:38:42.000Z</time>
      </trkpt>
      <trkpt lat="42.80172" lon="0.45672">
        <ele>1520</ele>
        <time>2019-08-08T07:38:43.000Z</time>
      </trkpt>
      <trkpt lat="42.80172" lon="0.45676">
        <ele>1520</ele>
        <time>2019-08-08T07:38:44.000Z</time>
      </trkpt>
      <trkpt lat="42.80172" lon="0.45679">
        <ele>1520</ele>
        <time>2019-08-08T07:38:45.000Z</time>
      </trkpt>
      <trkpt lat="42.80171" lon="0.45682">
        <ele>1522</ele>
        <time>2019-08-08T07:38:46.000Z</time>
      </trkpt>
      <trkpt lat="42.80171" lon="0.45686">
        <ele>1522</ele>
        <time>2019-08-08T07:38:47.000Z</time>
      </trkpt>
      <trkpt lat="42.8017" lon="0.45689">
        <ele>1522</ele>
        <time>2019-08-08T07:38:48.000Z</time>
      </trkpt>
      <trkpt lat="42.8017" lon="0.45692">
        <ele>1522</ele>
        <time>2019-08-08T07:38:49.000Z</time>
      </trkpt>
      <trkpt lat="42.80169" lon="0.45696">
        <ele>1523</ele>
        <time>2019-08-08T07:38:50.000Z</time>
      </trkpt>
      <trkpt lat="42.80169" lon="0.45699">
        <ele>1523</ele>
        <time>2019-08-08T07:38:51.000Z</time>
      </trkpt>
      <trkpt lat="42.80169" lon="0.45702">
        <ele>1523</ele>
        <time>2019-08-08T07:38:52.000Z</time>
      </trkpt>
      <trkpt lat="42.80169" lon="0.45706">
        <ele>1523</ele>
        <time>2019-08-08T07:38:53.000Z</time>
      </trkpt>
      <trkpt lat="42.80168" lon="0.45709">
        <ele>1523</ele>
        <time>2019-08-08T07:38:54.000Z</time>
      </trkpt>
      <trkpt lat="42.80168" lon="0.45713">
        <ele>1524</ele>
        <time>2019-08-08T07:38:55.000Z</time>
      </trkpt>
      <trkpt lat="42.80168" lon="0.45716">
        <ele>1524</ele>
        <time>2019-08-08T07:38:56.000Z</time>
      </trkpt>
      <trkpt lat="42.80168" lon="0.45719">
        <ele>1524</ele>
        <time>2019-08-08T07:38:57.000Z</time>
      </trkpt>
      <trkpt lat="42.80168" lon="0.45723">
        <ele>1524</ele>
        <time>2019-08-08T07:38:58.000Z</time>
      </trkpt>
      <trkpt lat="42.80168" lon="0.45726">
        <ele>1524</ele>
        <time>2019-08-08T07:38:59.000Z</time>
      </trkpt>
      <trkpt lat="42.80168" lon="0.4573">
        <ele>1525</ele>
        <time>2019-08-08T07:39:00.000Z</time>
      </trkpt>
      <trkpt lat="42.80168" lon="0.45733">
        <ele>1525</ele>
        <time>2019-08-08T07:39:01.000Z</time>
      </trkpt>
      <trkpt lat="42.80169" lon="0.45737">
        <ele>1525</ele>
        <time>2019-08-08T07:39:02.000Z</time>
      </trkpt>
      <trkpt lat="42.80169" lon="0.4574">
        <ele>1525</ele>
        <time>2019-08-08T07:39:03.000Z</time>
      </trkpt>
      <trkpt lat="42.8017" lon="0.45743">
        <ele>1526</ele>
        <time>2019-08-08T07:39:04.000Z</time>
      </trkpt>
      <trkpt lat="42.80171" lon="0.45747">
        <ele>1526</ele>
        <time>2019-08-08T07:39:05.000Z</time>
      </trkpt>
      <trkpt lat="42.80172" lon="0.4575">
        <ele>1526</ele>
        <time>2019-08-08T07:39:06.000Z</time>
      </trkpt>
      <trkpt lat="42.80172" lon="0.45753">
        <ele>1526</ele>
        <time>2019-08-08T07:39:07.000Z</time>
      </trkpt>
      <trkpt lat="42.80173" lon="0.45756">
        <ele>1527</ele>
        <time>2019-08-08T07:39:08.000Z</time>
      </trkpt>
      <trkpt lat="42.80174" lon="0.4576">
        <ele>1527</ele>
        <time>2019-08-08T07:39:09.000Z</time>
      </trkpt>
      <trkpt lat="42.80175" lon="0.45763">
        <ele>1527</ele>
        <time>2019-08-08T07:39:10.000Z</time>
      </trkpt>
      <trkpt lat="42.80176" lon="0.45766">
        <ele>1527</ele>
        <time>2019-08-08T07:39:11.000Z</time>
      </trkpt>
      <trkpt lat="42.80176" lon="0.45769">
        <ele>1527</ele>
        <time>2019-08-08T07:39:12.000Z</time>
      </trkpt>
      <trkpt lat="42.80177" lon="0.45772">
        <ele>1527</ele>
        <time>2019-08-08T07:39:13.000Z</time>
      </trkpt>
      <trkpt lat="42.80177" lon="0.45776">
        <ele>1527</ele>
        <time>2019-08-08T07:39:14.000Z</time>
      </trkpt>
      <trkpt lat="42.80178" lon="0.45779">
        <ele>1528</ele>
        <time>2019-08-08T07:39:15.000Z</time>
      </trkpt>
      <trkpt lat="42.80178" lon="0.45782">
        <ele>1528</ele>
        <time>2019-08-08T07:39:16.000Z</time>
      </trkpt>
      <trkpt lat="42.80178" lon="0.45786">
        <ele>1528</ele>
        <time>2019-08-08T07:39:17.000Z</time>
      </trkpt>
      <trkpt lat="42.80178" lon="0.45789">
        <ele>1528</ele>
        <time>2019-08-08T07:39:18.000Z</time>
      </trkpt>
      <trkpt lat="42.80179" lon="0.45792">
        <ele>1528</ele>
        <time>2019-08-08T07:39:19.000Z</time>
      </trkpt>
      <trkpt lat="42.8018" lon="0.45795">
        <ele>1529</ele>
        <time>2019-08-08T07:39:20.000Z</time>
      </trkpt>
      <trkpt lat="42.8018" lon="0.45798">
        <ele>1529</ele>
        <time>2019-08-08T07:39:21.000Z</time>
      </trkpt>
      <trkpt lat="42.8018" lon="0.45801">
        <ele>1530</ele>
        <time>2019-08-08T07:39:22.000Z</time>
      </trkpt>
      <trkpt lat="42.8018" lon="0.45804">
        <ele>1530</ele>
        <time>2019-08-08T07:39:23.000Z</time>
      </trkpt>
      <trkpt lat="42.80181" lon="0.45807">
        <ele>1531</ele>
        <time>2019-08-08T07:39:24.000Z</time>
      </trkpt>
      <trkpt lat="42.80182" lon="0.4581">
        <ele>1531</ele>
        <time>2019-08-08T07:39:25.000Z</time>
      </trkpt>
      <trkpt lat="42.80182" lon="0.45813">
        <ele>1531</ele>
        <time>2019-08-08T07:39:26.000Z</time>
      </trkpt>
      <trkpt lat="42.80183" lon="0.45816">
        <ele>1531</ele>
        <time>2019-08-08T07:39:27.000Z</time>
      </trkpt>
      <trkpt lat="42.80182" lon="0.45819">
        <ele>1531</ele>
        <time>2019-08-08T07:39:28.000Z</time>
      </trkpt>
      <trkpt lat="42.80182" lon="0.45822">
        <ele>1531</ele>
        <time>2019-08-08T07:39:29.000Z</time>
      </trkpt>
      <trkpt lat="42.80182" lon="0.45825">
        <ele>1531</ele>
        <time>2019-08-08T07:39:30.000Z</time>
      </trkpt>
      <trkpt lat="42.80182" lon="0.45828">
        <ele>1531</ele>
        <time>2019-08-08T07:39:31.000Z</time>
      </trkpt>
      <trkpt lat="42.80182" lon="0.45831">
        <ele>1532</ele>
        <time>2019-08-08T07:39:32.000Z</time>
      </trkpt>
      <trkpt lat="42.80182" lon="0.45835">
        <ele>1532</ele>
        <time>2019-08-08T07:39:33.000Z</time>
      </trkpt>
      <trkpt lat="42.80182" lon="0.45838">
        <ele>1532</ele>
        <time>2019-08-08T07:39:34.000Z</time>
      </trkpt>
      <trkpt lat="42.80183" lon="0.4584">
        <ele>1532</ele>
        <time>2019-08-08T07:39:35.000Z</time>
      </trkpt>
      <trkpt lat="42.80183" lon="0.45843">
        <ele>1533</ele>
        <time>2019-08-08T07:39:36.000Z</time>
      </trkpt>
      <trkpt lat="42.80184" lon="0.45846">
        <ele>1533</ele>
        <time>2019-08-08T07:39:37.000Z</time>
      </trkpt>
      <trkpt lat="42.80184" lon="0.4585">
        <ele>1533</ele>
        <time>2019-08-08T07:39:38.000Z</time>
      </trkpt>
      <trkpt lat="42.80184" lon="0.45853">
        <ele>1533</ele>
        <time>2019-08-08T07:39:39.000Z</time>
      </trkpt>
      <trkpt lat="42.80184" lon="0.45856">
        <ele>1534</ele>
        <time>2019-08-08T07:39:40.000Z</time>
      </trkpt>
      <trkpt lat="42.80184" lon="0.45859">
        <ele>1534</ele>
        <time>2019-08-08T07:39:41.000Z</time>
      </trkpt>
      <trkpt lat="42.80185" lon="0.45862">
        <ele>1534</ele>
        <time>2019-08-08T07:39:42.000Z</time>
      </trkpt>
      <trkpt lat="42.80185" lon="0.45865">
        <ele>1534</ele>
        <time>2019-08-08T07:39:43.000Z</time>
      </trkpt>
      <trkpt lat="42.80185" lon="0.45868">
        <ele>1536</ele>
        <time>2019-08-08T07:39:44.000Z</time>
      </trkpt>
      <trkpt lat="42.80185" lon="0.45871">
        <ele>1536</ele>
        <time>2019-08-08T07:39:45.000Z</time>
      </trkpt>
      <trkpt lat="42.80185" lon="0.45874">
        <ele>1536</ele>
        <time>2019-08-08T07:39:46.000Z</time>
      </trkpt>
      <trkpt lat="42.80186" lon="0.45877">
        <ele>1536</ele>
        <time>2019-08-08T07:39:47.000Z</time>
      </trkpt>
      <trkpt lat="42.80186" lon="0.4588">
        <ele>1536</ele>
        <time>2019-08-08T07:39:48.000Z</time>
      </trkpt>
      <trkpt lat="42.80186" lon="0.45883">
        <ele>1536</ele>
        <time>2019-08-08T07:39:49.000Z</time>
      </trkpt>
      <trkpt lat="42.80186" lon="0.45886">
        <ele>1536</ele>
        <time>2019-08-08T07:39:50.000Z</time>
      </trkpt>
      <trkpt lat="42.80186" lon="0.45889">
        <ele>1537</ele>
        <time>2019-08-08T07:39:51.000Z</time>
      </trkpt>
      <trkpt lat="42.80186" lon="0.45893">
        <ele>1537</ele>
        <time>2019-08-08T07:39:52.000Z</time>
      </trkpt>
      <trkpt lat="42.80186" lon="0.45897">
        <ele>1537</ele>
        <time>2019-08-08T07:39:53.000Z</time>
      </trkpt>
      <trkpt lat="42.80186" lon="0.45901">
        <ele>1537</ele>
        <time>2019-08-08T07:39:54.000Z</time>
      </trkpt>
      <trkpt lat="42.80186" lon="0.45905">
        <ele>1537</ele>
        <time>2019-08-08T07:39:55.000Z</time>
      </trkpt>
      <trkpt lat="42.80186" lon="0.45909">
        <ele>1537</ele>
        <time>2019-08-08T07:39:56.000Z</time>
      </trkpt>
      <trkpt lat="42.80187" lon="0.45913">
        <ele>1537</ele>
        <time>2019-08-08T07:39:57.000Z</time>
      </trkpt>
      <trkpt lat="42.80187" lon="0.45916">
        <ele>1538</ele>
        <time>2019-08-08T07:39:58.000Z</time>
      </trkpt>
      <trkpt lat="42.80187" lon="0.4592">
        <ele>1538</ele>
        <time>2019-08-08T07:39:59.000Z</time>
      </trkpt>
      <trkpt lat="42.80188" lon="0.45924">
        <ele>1538</ele>
        <time>2019-08-08T07:40:00.000Z</time>
      </trkpt>
      <trkpt lat="42.80188" lon="0.45928">
        <ele>1538</ele>
        <time>2019-08-08T07:40:01.000Z</time>
      </trkpt>
      <trkpt lat="42.80188" lon="0.45932">
        <ele>1538</ele>
        <time>2019-08-08T07:40:02.000Z</time>
      </trkpt>
      <trkpt lat="42.80189" lon="0.45936">
        <ele>1538</ele>
        <time>2019-08-08T07:40:03.000Z</time>
      </trkpt>
      <trkpt lat="42.80189" lon="0.4594">
        <ele>1539</ele>
        <time>2019-08-08T07:40:04.000Z</time>
      </trkpt>
      <trkpt lat="42.80189" lon="0.45945">
        <ele>1539</ele>
        <time>2019-08-08T07:40:05.000Z</time>
      </trkpt>
      <trkpt lat="42.8019" lon="0.4595">
        <ele>1540</ele>
        <time>2019-08-08T07:40:06.000Z</time>
      </trkpt>
      <trkpt lat="42.8019" lon="0.45954">
        <ele>1540</ele>
        <time>2019-08-08T07:40:07.000Z</time>
      </trkpt>
      <trkpt lat="42.80191" lon="0.45959">
        <ele>1540</ele>
        <time>2019-08-08T07:40:08.000Z</time>
      </trkpt>
      <trkpt lat="42.80191" lon="0.45964">
        <ele>1541</ele>
        <time>2019-08-08T07:40:09.000Z</time>
      </trkpt>
      <trkpt lat="42.80192" lon="0.45968">
        <ele>1541</ele>
        <time>2019-08-08T07:40:10.000Z</time>
      </trkpt>
      <trkpt lat="42.80193" lon="0.45973">
        <ele>1541</ele>
        <time>2019-08-08T07:40:11.000Z</time>
      </trkpt>
      <trkpt lat="42.80194" lon="0.45977">
        <ele>1541</ele>
        <time>2019-08-08T07:40:12.000Z</time>
      </trkpt>
      <trkpt lat="42.80194" lon="0.45981">
        <ele>1542</ele>
        <time>2019-08-08T07:40:13.000Z</time>
      </trkpt>
      <trkpt lat="42.80195" lon="0.45986">
        <ele>1542</ele>
        <time>2019-08-08T07:40:14.000Z</time>
      </trkpt>
      <trkpt lat="42.80196" lon="0.45991">
        <ele>1542</ele>
        <time>2019-08-08T07:40:15.000Z</time>
      </trkpt>
      <trkpt lat="42.80196" lon="0.45995">
        <ele>1542</ele>
        <time>2019-08-08T07:40:16.000Z</time>
      </trkpt>
      <trkpt lat="42.80196" lon="0.46">
        <ele>1543</ele>
        <time>2019-08-08T07:40:17.000Z</time>
      </trkpt>
      <trkpt lat="42.80197" lon="0.46004">
        <ele>1543</ele>
        <time>2019-08-08T07:40:18.000Z</time>
      </trkpt>
      <trkpt lat="42.80197" lon="0.46009">
        <ele>1543</ele>
        <time>2019-08-08T07:40:19.000Z</time>
      </trkpt>
      <trkpt lat="42.80197" lon="0.46013">
        <ele>1543</ele>
        <time>2019-08-08T07:40:20.000Z</time>
      </trkpt>
      <trkpt lat="42.80198" lon="0.46018">
        <ele>1543</ele>
        <time>2019-08-08T07:40:21.000Z</time>
      </trkpt>
      <trkpt lat="42.80198" lon="0.46023">
        <ele>1544</ele>
        <time>2019-08-08T07:40:22.000Z</time>
      </trkpt>
      <trkpt lat="42.80199" lon="0.46027">
        <ele>1544</ele>
        <time>2019-08-08T07:40:23.000Z</time>
      </trkpt>
      <trkpt lat="42.80199" lon="0.46032">
        <ele>1544</ele>
        <time>2019-08-08T07:40:24.000Z</time>
      </trkpt>
      <trkpt lat="42.802" lon="0.46036">
        <ele>1545</ele>
        <time>2019-08-08T07:40:25.000Z</time>
      </trkpt>
      <trkpt lat="42.802" lon="0.46041">
        <ele>1545</ele>
        <time>2019-08-08T07:40:26.000Z</time>
      </trkpt>
      <trkpt lat="42.80201" lon="0.46045">
        <ele>1545</ele>
        <time>2019-08-08T07:40:27.000Z</time>
      </trkpt>
      <trkpt lat="42.80201" lon="0.4605">
        <ele>1546</ele>
        <time>2019-08-08T07:40:28.000Z</time>
      </trkpt>
      <trkpt lat="42.80202" lon="0.46054">
        <ele>1546</ele>
        <time>2019-08-08T07:40:29.000Z</time>
      </trkpt>
      <trkpt lat="42.80202" lon="0.46059">
        <ele>1546</ele>
        <time>2019-08-08T07:40:30.000Z</time>
      </trkpt>
      <trkpt lat="42.80203" lon="0.46064">
        <ele>1546</ele>
        <time>2019-08-08T07:40:31.000Z</time>
      </trkpt>
      <trkpt lat="42.80203" lon="0.46068">
        <ele>1546</ele>
        <time>2019-08-08T07:40:32.000Z</time>
      </trkpt>
      <trkpt lat="42.80204" lon="0.46073">
        <ele>1546</ele>
        <time>2019-08-08T07:40:33.000Z</time>
      </trkpt>
      <trkpt lat="42.80205" lon="0.46077">
        <ele>1547</ele>
        <time>2019-08-08T07:40:34.000Z</time>
      </trkpt>
      <trkpt lat="42.80205" lon="0.46081">
        <ele>1547</ele>
        <time>2019-08-08T07:40:35.000Z</time>
      </trkpt>
      <trkpt lat="42.80206" lon="0.46085">
        <ele>1547</ele>
        <time>2019-08-08T07:40:36.000Z</time>
      </trkpt>
      <trkpt lat="42.80207" lon="0.46089">
        <ele>1547</ele>
        <time>2019-08-08T07:40:37.000Z</time>
      </trkpt>
      <trkpt lat="42.80208" lon="0.46093">
        <ele>1547</ele>
        <time>2019-08-08T07:40:38.000Z</time>
      </trkpt>
      <trkpt lat="42.80209" lon="0.46096">
        <ele>1547</ele>
        <time>2019-08-08T07:40:39.000Z</time>
      </trkpt>
      <trkpt lat="42.8021" lon="0.46101">
        <ele>1547</ele>
        <time>2019-08-08T07:40:40.000Z</time>
      </trkpt>
      <trkpt lat="42.8021" lon="0.46106">
        <ele>1547</ele>
        <time>2019-08-08T07:40:41.000Z</time>
      </trkpt>
      <trkpt lat="42.8021" lon="0.4611">
        <ele>1548</ele>
        <time>2019-08-08T07:40:42.000Z</time>
      </trkpt>
      <trkpt lat="42.8021" lon="0.46115">
        <ele>1548</ele>
        <time>2019-08-08T07:40:43.000Z</time>
      </trkpt>
      <trkpt lat="42.80211" lon="0.4612">
        <ele>1548</ele>
        <time>2019-08-08T07:40:44.000Z</time>
      </trkpt>
      <trkpt lat="42.80211" lon="0.46125">
        <ele>1548</ele>
        <time>2019-08-08T07:40:45.000Z</time>
      </trkpt>
      <trkpt lat="42.80212" lon="0.46129">
        <ele>1548</ele>
        <time>2019-08-08T07:40:46.000Z</time>
      </trkpt>
      <trkpt lat="42.80213" lon="0.46134">
        <ele>1548</ele>
        <time>2019-08-08T07:40:47.000Z</time>
      </trkpt>
      <trkpt lat="42.80214" lon="0.46139">
        <ele>1548</ele>
        <time>2019-08-08T07:40:48.000Z</time>
      </trkpt>
      <trkpt lat="42.80215" lon="0.46144">
        <ele>1548</ele>
        <time>2019-08-08T07:40:49.000Z</time>
      </trkpt>
      <trkpt lat="42.80215" lon="0.46148">
        <ele>1548</ele>
        <time>2019-08-08T07:40:50.000Z</time>
      </trkpt>
      <trkpt lat="42.80216" lon="0.46153">
        <ele>1548</ele>
        <time>2019-08-08T07:40:51.000Z</time>
      </trkpt>
      <trkpt lat="42.80217" lon="0.46158">
        <ele>1549</ele>
        <time>2019-08-08T07:40:52.000Z</time>
      </trkpt>
      <trkpt lat="42.80218" lon="0.46163">
        <ele>1549</ele>
        <time>2019-08-08T07:40:53.000Z</time>
      </trkpt>
      <trkpt lat="42.80219" lon="0.46168">
        <ele>1549</ele>
        <time>2019-08-08T07:40:54.000Z</time>
      </trkpt>
      <trkpt lat="42.8022" lon="0.46173">
        <ele>1549</ele>
        <time>2019-08-08T07:40:55.000Z</time>
      </trkpt>
      <trkpt lat="42.8022" lon="0.46178">
        <ele>1550</ele>
        <time>2019-08-08T07:40:56.000Z</time>
      </trkpt>
      <trkpt lat="42.80221" lon="0.46183">
        <ele>1550</ele>
        <time>2019-08-08T07:40:57.000Z</time>
      </trkpt>
      <trkpt lat="42.80221" lon="0.46188">
        <ele>1550</ele>
        <time>2019-08-08T07:40:58.000Z</time>
      </trkpt>
      <trkpt lat="42.80221" lon="0.46193">
        <ele>1550</ele>
        <time>2019-08-08T07:40:59.000Z</time>
      </trkpt>
      <trkpt lat="42.80222" lon="0.46198">
        <ele>1550</ele>
        <time>2019-08-08T07:41:00.000Z</time>
      </trkpt>
      <trkpt lat="42.80222" lon="0.46203">
        <ele>1550</ele>
        <time>2019-08-08T07:41:01.000Z</time>
      </trkpt>
      <trkpt lat="42.80222" lon="0.46208">
        <ele>1550</ele>
        <time>2019-08-08T07:41:02.000Z</time>
      </trkpt>
      <trkpt lat="42.80222" lon="0.46213">
        <ele>1550</ele>
        <time>2019-08-08T07:41:03.000Z</time>
      </trkpt>
      <trkpt lat="42.80223" lon="0.46218">
        <ele>1550</ele>
        <time>2019-08-08T07:41:04.000Z</time>
      </trkpt>
      <trkpt lat="42.80224" lon="0.46223">
        <ele>1551</ele>
        <time>2019-08-08T07:41:05.000Z</time>
      </trkpt>
      <trkpt lat="42.80224" lon="0.46228">
        <ele>1551</ele>
        <time>2019-08-08T07:41:06.000Z</time>
      </trkpt>
      <trkpt lat="42.80224" lon="0.46233">
        <ele>1551</ele>
        <time>2019-08-08T07:41:07.000Z</time>
      </trkpt>
      <trkpt lat="42.80225" lon="0.46238">
        <ele>1551</ele>
        <time>2019-08-08T07:41:08.000Z</time>
      </trkpt>
      <trkpt lat="42.80225" lon="0.46243">
        <ele>1551</ele>
        <time>2019-08-08T07:41:09.000Z</time>
      </trkpt>
      <trkpt lat="42.80225" lon="0.46248">
        <ele>1551</ele>
        <time>2019-08-08T07:41:10.000Z</time>
      </trkpt>
      <trkpt lat="42.80225" lon="0.46253">
        <ele>1551</ele>
        <time>2019-08-08T07:41:11.000Z</time>
      </trkpt>
      <trkpt lat="42.80225" lon="0.46257">
        <ele>1551</ele>
        <time>2019-08-08T07:41:12.000Z</time>
      </trkpt>
      <trkpt lat="42.80226" lon="0.46261">
        <ele>1551</ele>
        <time>2019-08-08T07:41:13.000Z</time>
      </trkpt>
      <trkpt lat="42.80227" lon="0.46265">
        <ele>1551</ele>
        <time>2019-08-08T07:41:14.000Z</time>
      </trkpt>
      <trkpt lat="42.80227" lon="0.46268">
        <ele>1551</ele>
        <time>2019-08-08T07:41:15.000Z</time>
      </trkpt>
      <trkpt lat="42.80227" lon="0.46271">
        <ele>1551</ele>
        <time>2019-08-08T07:41:16.000Z</time>
      </trkpt>
      <trkpt lat="42.80227" lon="0.46275">
        <ele>1551</ele>
        <time>2019-08-08T07:41:17.000Z</time>
      </trkpt>
      <trkpt lat="42.80227" lon="0.46278">
        <ele>1551</ele>
        <time>2019-08-08T07:41:18.000Z</time>
      </trkpt>
      <trkpt lat="42.80228" lon="0.46282">
        <ele>1551</ele>
        <time>2019-08-08T07:41:19.000Z</time>
      </trkpt>
      <trkpt lat="42.80229" lon="0.46285">
        <ele>1551</ele>
        <time>2019-08-08T07:41:20.000Z</time>
      </trkpt>
      <trkpt lat="42.80229" lon="0.46289">
        <ele>1551</ele>
        <time>2019-08-08T07:41:21.000Z</time>
      </trkpt>
      <trkpt lat="42.80229" lon="0.46293">
        <ele>1551</ele>
        <time>2019-08-08T07:41:22.000Z</time>
      </trkpt>
      <trkpt lat="42.80229" lon="0.46297">
        <ele>1551</ele>
        <time>2019-08-08T07:41:23.000Z</time>
      </trkpt>
      <trkpt lat="42.80229" lon="0.46301">
        <ele>1551</ele>
        <time>2019-08-08T07:41:24.000Z</time>
      </trkpt>
      <trkpt lat="42.80229" lon="0.46306">
        <ele>1551</ele>
        <time>2019-08-08T07:41:25.000Z</time>
      </trkpt>
      <trkpt lat="42.80229" lon="0.4631">
        <ele>1551</ele>
        <time>2019-08-08T07:41:26.000Z</time>
      </trkpt>
      <trkpt lat="42.80229" lon="0.46315">
        <ele>1551</ele>
        <time>2019-08-08T07:41:27.000Z</time>
      </trkpt>
      <trkpt lat="42.80229" lon="0.4632">
        <ele>1551</ele>
        <time>2019-08-08T07:41:28.000Z</time>
      </trkpt>
      <trkpt lat="42.8023" lon="0.46325">
        <ele>1551</ele>
        <time>2019-08-08T07:41:29.000Z</time>
      </trkpt>
      <trkpt lat="42.8023" lon="0.46331">
        <ele>1551</ele>
        <time>2019-08-08T07:41:30.000Z</time>
      </trkpt>
      <trkpt lat="42.8023" lon="0.46337">
        <ele>1551</ele>
        <time>2019-08-08T07:41:31.000Z</time>
      </trkpt>
      <trkpt lat="42.8023" lon="0.46344">
        <ele>1551</ele>
        <time>2019-08-08T07:41:32.000Z</time>
      </trkpt>
      <trkpt lat="42.8023" lon="0.46351">
        <ele>1550</ele>
        <time>2019-08-08T07:41:33.000Z</time>
      </trkpt>
      <trkpt lat="42.8023" lon="0.46358">
        <ele>1550</ele>
        <time>2019-08-08T07:41:34.000Z</time>
      </trkpt>
      <trkpt lat="42.8023" lon="0.46366">
        <ele>1549</ele>
        <time>2019-08-08T07:41:35.000Z</time>
      </trkpt>
      <trkpt lat="42.8023" lon="0.46373">
        <ele>1549</ele>
        <time>2019-08-08T07:41:36.000Z</time>
      </trkpt>
      <trkpt lat="42.8023" lon="0.4638">
        <ele>1548</ele>
        <time>2019-08-08T07:41:37.000Z</time>
      </trkpt>
      <trkpt lat="42.8023" lon="0.46388">
        <ele>1548</ele>
        <time>2019-08-08T07:41:38.000Z</time>
      </trkpt>
      <trkpt lat="42.8023" lon="0.46396">
        <ele>1547</ele>
        <time>2019-08-08T07:41:39.000Z</time>
      </trkpt>
      <trkpt lat="42.8023" lon="0.46404">
        <ele>1547</ele>
        <time>2019-08-08T07:41:40.000Z</time>
      </trkpt>
      <trkpt lat="42.8023" lon="0.46415">
        <ele>1547</ele>
        <time>2019-08-08T07:41:41.000Z</time>
      </trkpt>
      <trkpt lat="42.80231" lon="0.46418">
        <ele>1546</ele>
        <time>2019-08-08T07:41:42.000Z</time>
      </trkpt>
      <trkpt lat="42.80232" lon="0.46423">
        <ele>1545</ele>
        <time>2019-08-08T07:41:43.000Z</time>
      </trkpt>
      <trkpt lat="42.80235" lon="0.46427">
        <ele>1545</ele>
        <time>2019-08-08T07:41:44.000Z</time>
      </trkpt>
      <trkpt lat="42.80236" lon="0.46429">
        <ele>1545</ele>
        <time>2019-08-08T07:41:45.000Z</time>
      </trkpt>
      <trkpt lat="42.80238" lon="0.46431">
        <ele>1545</ele>
        <time>2019-08-08T07:41:46.000Z</time>
      </trkpt>
      <trkpt lat="42.80239" lon="0.46433">
        <ele>1545</ele>
        <time>2019-08-08T07:41:47.000Z</time>
      </trkpt>
      <trkpt lat="42.80241" lon="0.46435">
        <ele>1545</ele>
        <time>2019-08-08T07:41:48.000Z</time>
      </trkpt>
      <trkpt lat="42.80242" lon="0.46437">
        <ele>1545</ele>
        <time>2019-08-08T07:41:49.000Z</time>
      </trkpt>
      <trkpt lat="42.80244" lon="0.46438">
        <ele>1545</ele>
        <time>2019-08-08T07:41:50.000Z</time>
      </trkpt>
      <trkpt lat="42.80245" lon="0.4644">
        <ele>1546</ele>
        <time>2019-08-08T07:41:51.000Z</time>
      </trkpt>
      <trkpt lat="42.80247" lon="0.46442">
        <ele>1546</ele>
        <time>2019-08-08T07:41:52.000Z</time>
      </trkpt>
      <trkpt lat="42.80248" lon="0.46444">
        <ele>1549</ele>
        <time>2019-08-08T07:43:47.000Z</time>
      </trkpt>
      <trkpt lat="42.8025" lon="0.46446">
        <ele>1549</ele>
        <time>2019-08-08T07:43:48.000Z</time>
      </trkpt>
      <trkpt lat="42.80251" lon="0.46447">
        <ele>1549</ele>
        <time>2019-08-08T07:43:49.000Z</time>
      </trkpt>
      <trkpt lat="42.80252" lon="0.46451">
        <ele>1548</ele>
        <time>2019-08-08T07:43:50.000Z</time>
      </trkpt>
      <trkpt lat="42.80253" lon="0.46456">
        <ele>1547</ele>
        <time>2019-08-08T07:43:51.000Z</time>
      </trkpt>
      <trkpt lat="42.80254" lon="0.46461">
        <ele>1547</ele>
        <time>2019-08-08T07:43:52.000Z</time>
      </trkpt>
      <trkpt lat="42.80256" lon="0.46466">
        <ele>1547</ele>
        <time>2019-08-08T07:43:53.000Z</time>
      </trkpt>
      <trkpt lat="42.80258" lon="0.46472">
        <ele>1547</ele>
        <time>2019-08-08T07:43:54.000Z</time>
      </trkpt>
      <trkpt lat="42.8026" lon="0.46479">
        <ele>1547</ele>
        <time>2019-08-08T07:43:55.000Z</time>
      </trkpt>
      <trkpt lat="42.80261" lon="0.46487">
        <ele>1546</ele>
        <time>2019-08-08T07:43:56.000Z</time>
      </trkpt>
      <trkpt lat="42.80263" lon="0.46496">
        <ele>1546</ele>
        <time>2019-08-08T07:43:57.000Z</time>
      </trkpt>
      <trkpt lat="42.80266" lon="0.46506">
        <ele>1545</ele>
        <time>2019-08-08T07:43:58.000Z</time>
      </trkpt>
      <trkpt lat="42.80268" lon="0.46515">
        <ele>1544</ele>
        <time>2019-08-08T07:43:59.000Z</time>
      </trkpt>
      <trkpt lat="42.80271" lon="0.46525">
        <ele>1544</ele>
        <time>2019-08-08T07:44:00.000Z</time>
      </trkpt>
      <trkpt lat="42.80275" lon="0.46535">
        <ele>1544</ele>
        <time>2019-08-08T07:44:01.000Z</time>
      </trkpt>
      <trkpt lat="42.80278" lon="0.46545">
        <ele>1543</ele>
        <time>2019-08-08T07:44:02.000Z</time>
      </trkpt>
      <trkpt lat="42.80281" lon="0.46556">
        <ele>1542</ele>
        <time>2019-08-08T07:44:03.000Z</time>
      </trkpt>
      <trkpt lat="42.80284" lon="0.46567">
        <ele>1541</ele>
        <time>2019-08-08T07:44:04.000Z</time>
      </trkpt>
      <trkpt lat="42.80286" lon="0.46579">
        <ele>1540</ele>
        <time>2019-08-08T07:44:05.000Z</time>
      </trkpt>
      <trkpt lat="42.8029" lon="0.4659">
        <ele>1539</ele>
        <time>2019-08-08T07:44:06.000Z</time>
      </trkpt>
      <trkpt lat="42.80293" lon="0.46602">
        <ele>1538</ele>
        <time>2019-08-08T07:44:07.000Z</time>
      </trkpt>
      <trkpt lat="42.80296" lon="0.46614">
        <ele>1538</ele>
        <time>2019-08-08T07:44:08.000Z</time>
      </trkpt>
      <trkpt lat="42.803" lon="0.46626">
        <ele>1537</ele>
        <time>2019-08-08T07:44:09.000Z</time>
      </trkpt>
      <trkpt lat="42.80305" lon="0.46638">
        <ele>1537</ele>
        <time>2019-08-08T07:44:10.000Z</time>
      </trkpt>
      <trkpt lat="42.8031" lon="0.4665">
        <ele>1534</ele>
        <time>2019-08-08T07:44:11.000Z</time>
      </trkpt>
      <trkpt lat="42.80317" lon="0.46662">
        <ele>1532</ele>
        <time>2019-08-08T07:44:12.000Z</time>
      </trkpt>
      <trkpt lat="42.80324" lon="0.46673">
        <ele>1532</ele>
        <time>2019-08-08T07:44:13.000Z</time>
      </trkpt>
      <trkpt lat="42.80331" lon="0.46685">
        <ele>1531</ele>
        <time>2019-08-08T07:44:14.000Z</time>
      </trkpt>
      <trkpt lat="42.80339" lon="0.46697">
        <ele>1531</ele>
        <time>2019-08-08T07:44:15.000Z</time>
      </trkpt>
      <trkpt lat="42.80347" lon="0.46708">
        <ele>1528</ele>
        <time>2019-08-08T07:44:16.000Z</time>
      </trkpt>
      <trkpt lat="42.80355" lon="0.4672">
        <ele>1528</ele>
        <time>2019-08-08T07:44:17.000Z</time>
      </trkpt>
      <trkpt lat="42.80363" lon="0.46732">
        <ele>1527</ele>
        <time>2019-08-08T07:44:18.000Z</time>
      </trkpt>
      <trkpt lat="42.80372" lon="0.46744">
        <ele>1527</ele>
        <time>2019-08-08T07:44:19.000Z</time>
      </trkpt>
      <trkpt lat="42.8038" lon="0.46756">
        <ele>1524</ele>
        <time>2019-08-08T07:44:20.000Z</time>
      </trkpt>
      <trkpt lat="42.80389" lon="0.46768">
        <ele>1524</ele>
        <time>2019-08-08T07:44:21.000Z</time>
      </trkpt>
      <trkpt lat="42.80397" lon="0.4678">
        <ele>1522</ele>
        <time>2019-08-08T07:44:22.000Z</time>
      </trkpt>
      <trkpt lat="42.80406" lon="0.46791">
        <ele>1522</ele>
        <time>2019-08-08T07:44:23.000Z</time>
      </trkpt>
      <trkpt lat="42.80415" lon="0.46802">
        <ele>1520</ele>
        <time>2019-08-08T07:44:24.000Z</time>
      </trkpt>
      <trkpt lat="42.80427" lon="0.46819">
        <ele>1520</ele>
        <time>2019-08-08T07:44:25.000Z</time>
      </trkpt>
      <trkpt lat="42.80431" lon="0.46825">
        <ele>1520</ele>
        <time>2019-08-08T07:44:26.000Z</time>
      </trkpt>
      <trkpt lat="42.8044" lon="0.46836">
        <ele>1520</ele>
        <time>2019-08-08T07:44:27.000Z</time>
      </trkpt>
      <trkpt lat="42.80448" lon="0.46846">
        <ele>1516</ele>
        <time>2019-08-08T07:44:28.000Z</time>
      </trkpt>
      <trkpt lat="42.80456" lon="0.46852">
        <ele>1516</ele>
        <time>2019-08-08T07:44:29.000Z</time>
      </trkpt>
      <trkpt lat="42.80464" lon="0.46857">
        <ele>1514</ele>
        <time>2019-08-08T07:44:30.000Z</time>
      </trkpt>
      <trkpt lat="42.80471" lon="0.46862">
        <ele>1514</ele>
        <time>2019-08-08T07:44:31.000Z</time>
      </trkpt>
      <trkpt lat="42.80475" lon="0.4687">
        <ele>1514</ele>
        <time>2019-08-08T07:44:32.000Z</time>
      </trkpt>
      <trkpt lat="42.80476" lon="0.46879">
        <ele>1514</ele>
        <time>2019-08-08T07:44:33.000Z</time>
      </trkpt>
      <trkpt lat="42.80473" lon="0.46885">
        <ele>1513</ele>
        <time>2019-08-08T07:44:34.000Z</time>
      </trkpt>
      <trkpt lat="42.80467" lon="0.46886">
        <ele>1513</ele>
        <time>2019-08-08T07:44:35.000Z</time>
      </trkpt>
      <trkpt lat="42.80461" lon="0.46882">
        <ele>1512</ele>
        <time>2019-08-08T07:44:36.000Z</time>
      </trkpt>
      <trkpt lat="42.80455" lon="0.46874">
        <ele>1512</ele>
        <time>2019-08-08T07:44:37.000Z</time>
      </trkpt>
      <trkpt lat="42.80448" lon="0.46867">
        <ele>1512</ele>
        <time>2019-08-08T07:44:38.000Z</time>
      </trkpt>
      <trkpt lat="42.80441" lon="0.46861">
        <ele>1512</ele>
        <time>2019-08-08T07:44:39.000Z</time>
      </trkpt>
      <trkpt lat="42.80434" lon="0.46854">
        <ele>1509</ele>
        <time>2019-08-08T07:44:40.000Z</time>
      </trkpt>
      <trkpt lat="42.80425" lon="0.46847">
        <ele>1509</ele>
        <time>2019-08-08T07:44:41.000Z</time>
      </trkpt>
      <trkpt lat="42.80416" lon="0.46841">
        <ele>1508</ele>
        <time>2019-08-08T07:44:42.000Z</time>
      </trkpt>
      <trkpt lat="42.80407" lon="0.46834">
        <ele>1508</ele>
        <time>2019-08-08T07:44:43.000Z</time>
      </trkpt>
      <trkpt lat="42.80397" lon="0.46826">
        <ele>1506</ele>
        <time>2019-08-08T07:44:44.000Z</time>
      </trkpt>
      <trkpt lat="42.80387" lon="0.46819">
        <ele>1506</ele>
        <time>2019-08-08T07:44:45.000Z</time>
      </trkpt>
      <trkpt lat="42.80377" lon="0.46811">
        <ele>1506</ele>
        <time>2019-08-08T07:44:46.000Z</time>
      </trkpt>
      <trkpt lat="42.80366" lon="0.46804">
        <ele>1502</ele>
        <time>2019-08-08T07:44:47.000Z</time>
      </trkpt>
      <trkpt lat="42.80355" lon="0.46796">
        <ele>1502</ele>
        <time>2019-08-08T07:44:48.000Z</time>
      </trkpt>
      <trkpt lat="42.80343" lon="0.46788">
        <ele>1499</ele>
        <time>2019-08-08T07:44:49.000Z</time>
      </trkpt>
      <trkpt lat="42.80331" lon="0.46779">
        <ele>1499</ele>
        <time>2019-08-08T07:44:50.000Z</time>
      </trkpt>
      <trkpt lat="42.80319" lon="0.46771">
        <ele>1499</ele>
        <time>2019-08-08T07:44:51.000Z</time>
      </trkpt>
      <trkpt lat="42.80307" lon="0.46762">
        <ele>1495</ele>
        <time>2019-08-08T07:44:52.000Z</time>
      </trkpt>
      <trkpt lat="42.80294" lon="0.46753">
        <ele>1495</ele>
        <time>2019-08-08T07:44:53.000Z</time>
      </trkpt>
      <trkpt lat="42.80282" lon="0.46745">
        <ele>1492</ele>
        <time>2019-08-08T07:44:54.000Z</time>
      </trkpt>
      <trkpt lat="42.8027" lon="0.46737">
        <ele>1492</ele>
        <time>2019-08-08T07:44:55.000Z</time>
      </trkpt>
      <trkpt lat="42.80258" lon="0.4673">
        <ele>1490</ele>
        <time>2019-08-08T07:44:56.000Z</time>
      </trkpt>
      <trkpt lat="42.80246" lon="0.46723">
        <ele>1490</ele>
        <time>2019-08-08T07:44:57.000Z</time>
      </trkpt>
      <trkpt lat="42.80234" lon="0.46718">
        <ele>1488</ele>
        <time>2019-08-08T07:44:58.000Z</time>
      </trkpt>
      <trkpt lat="42.80222" lon="0.46712">
        <ele>1488</ele>
        <time>2019-08-08T07:44:59.000Z</time>
      </trkpt>
      <trkpt lat="42.80211" lon="0.46708">
        <ele>1486</ele>
        <time>2019-08-08T07:45:00.000Z</time>
      </trkpt>
      <trkpt lat="42.802" lon="0.46704">
        <ele>1486</ele>
        <time>2019-08-08T07:45:01.000Z</time>
      </trkpt>
      <trkpt lat="42.8019" lon="0.467">
        <ele>1486</ele>
        <time>2019-08-08T07:45:02.000Z</time>
      </trkpt>
      <trkpt lat="42.80177" lon="0.46699">
        <ele>1486</ele>
        <time>2019-08-08T07:45:03.000Z</time>
      </trkpt>
      <trkpt lat="42.80173" lon="0.46701">
        <ele>1485.6</ele>
        <time>2019-08-08T07:45:04.000Z</time>
      </trkpt>
      <trkpt lat="42.80164" lon="0.46704">
        <ele>1485</ele>
        <time>2019-08-08T07:45:05.000Z</time>
      </trkpt>
      <trkpt lat="42.80161" lon="0.46713">
        <ele>1485</ele>
        <time>2019-08-08T07:45:06.000Z</time>
      </trkpt>
      <trkpt lat="42.80161" lon="0.46724">
        <ele>1484</ele>
        <time>2019-08-08T07:45:07.000Z</time>
      </trkpt>
      <trkpt lat="42.80166" lon="0.46733">
        <ele>1484</ele>
        <time>2019-08-08T07:45:08.000Z</time>
      </trkpt>
      <trkpt lat="42.80174" lon="0.46737">
        <ele>1484</ele>
        <time>2019-08-08T07:45:09.000Z</time>
      </trkpt>
      <trkpt lat="42.80183" lon="0.46737">
        <ele>1483</ele>
        <time>2019-08-08T07:45:10.000Z</time>
      </trkpt>
      <trkpt lat="42.80193" lon="0.46737">
        <ele>1483</ele>
        <time>2019-08-08T07:45:11.000Z</time>
      </trkpt>
      <trkpt lat="42.80203" lon="0.46738">
        <ele>1480</ele>
        <time>2019-08-08T07:45:12.000Z</time>
      </trkpt>
      <trkpt lat="42.80213" lon="0.46741">
        <ele>1480</ele>
        <time>2019-08-08T07:45:13.000Z</time>
      </trkpt>
      <trkpt lat="42.80223" lon="0.46747">
        <ele>1476</ele>
        <time>2019-08-08T07:45:14.000Z</time>
      </trkpt>
      <trkpt lat="42.80232" lon="0.46754">
        <ele>1476</ele>
        <time>2019-08-08T07:45:15.000Z</time>
      </trkpt>
      <trkpt lat="42.80242" lon="0.46762">
        <ele>1475</ele>
        <time>2019-08-08T07:45:16.000Z</time>
      </trkpt>
      <trkpt lat="42.80251" lon="0.46772">
        <ele>1475</ele>
        <time>2019-08-08T07:45:17.000Z</time>
      </trkpt>
      <trkpt lat="42.80261" lon="0.46782">
        <ele>1474</ele>
        <time>2019-08-08T07:45:18.000Z</time>
      </trkpt>
      <trkpt lat="42.8027" lon="0.46794">
        <ele>1474</ele>
        <time>2019-08-08T07:45:19.000Z</time>
      </trkpt>
      <trkpt lat="42.8028" lon="0.46807">
        <ele>1471</ele>
        <time>2019-08-08T07:45:20.000Z</time>
      </trkpt>
      <trkpt lat="42.80289" lon="0.4682">
        <ele>1471</ele>
        <time>2019-08-08T07:45:21.000Z</time>
      </trkpt>
      <trkpt lat="42.80304" lon="0.4684">
        <ele>1471</ele>
        <time>2019-08-08T07:45:22.000Z</time>
      </trkpt>
      <trkpt lat="42.80309" lon="0.46846">
        <ele>1468</ele>
        <time>2019-08-08T07:45:23.000Z</time>
      </trkpt>
      <trkpt lat="42.80319" lon="0.46858">
        <ele>1468</ele>
        <time>2019-08-08T07:45:24.000Z</time>
      </trkpt>
      <trkpt lat="42.8033" lon="0.46871">
        <ele>1468</ele>
        <time>2019-08-08T07:45:25.000Z</time>
      </trkpt>
      <trkpt lat="42.8034" lon="0.46883">
        <ele>1464</ele>
        <time>2019-08-08T07:45:26.000Z</time>
      </trkpt>
      <trkpt lat="42.8035" lon="0.46895">
        <ele>1464</ele>
        <time>2019-08-08T07:45:27.000Z</time>
      </trkpt>
      <trkpt lat="42.80359" lon="0.46906">
        <ele>1460</ele>
        <time>2019-08-08T07:45:28.000Z</time>
      </trkpt>
      <trkpt lat="42.80367" lon="0.46916">
        <ele>1460</ele>
        <time>2019-08-08T07:45:29.000Z</time>
      </trkpt>
      <trkpt lat="42.80375" lon="0.46924">
        <ele>1459</ele>
        <time>2019-08-08T07:45:30.000Z</time>
      </trkpt>
      <trkpt lat="42.80383" lon="0.46931">
        <ele>1459</ele>
        <time>2019-08-08T07:45:31.000Z</time>
      </trkpt>
      <trkpt lat="42.80389" lon="0.46939">
        <ele>1459</ele>
        <time>2019-08-08T07:45:32.000Z</time>
      </trkpt>
      <trkpt lat="42.80391" lon="0.46948">
        <ele>1459</ele>
        <time>2019-08-08T07:45:33.000Z</time>
      </trkpt>
      <trkpt lat="42.80389" lon="0.46956">
        <ele>1458</ele>
        <time>2019-08-08T07:45:34.000Z</time>
      </trkpt>
      <trkpt lat="42.80383" lon="0.46959">
        <ele>1458</ele>
        <time>2019-08-08T07:45:35.000Z</time>
      </trkpt>
      <trkpt lat="42.80376" lon="0.46955">
        <ele>1456</ele>
        <time>2019-08-08T07:45:36.000Z</time>
      </trkpt>
      <trkpt lat="42.80371" lon="0.46947">
        <ele>1456</ele>
        <time>2019-08-08T07:45:37.000Z</time>
      </trkpt>
      <trkpt lat="42.80365" lon="0.46939">
        <ele>1455</ele>
        <time>2019-08-08T07:45:38.000Z</time>
      </trkpt>
      <trkpt lat="42.80359" lon="0.4693">
        <ele>1455</ele>
        <time>2019-08-08T07:45:39.000Z</time>
      </trkpt>
      <trkpt lat="42.80352" lon="0.46922">
        <ele>1453</ele>
        <time>2019-08-08T07:45:40.000Z</time>
      </trkpt>
      <trkpt lat="42.80344" lon="0.46916">
        <ele>1453</ele>
        <time>2019-08-08T07:45:41.000Z</time>
      </trkpt>
      <trkpt lat="42.80335" lon="0.46911">
        <ele>1453</ele>
        <time>2019-08-08T07:45:42.000Z</time>
      </trkpt>
      <trkpt lat="42.80325" lon="0.46907">
        <ele>1452</ele>
        <time>2019-08-08T07:45:43.000Z</time>
      </trkpt>
      <trkpt lat="42.80315" lon="0.46902">
        <ele>1452</ele>
        <time>2019-08-08T07:45:44.000Z</time>
      </trkpt>
      <trkpt lat="42.80304" lon="0.46898">
        <ele>1449</ele>
        <time>2019-08-08T07:45:45.000Z</time>
      </trkpt>
      <trkpt lat="42.80293" lon="0.46896">
        <ele>1449</ele>
        <time>2019-08-08T07:45:46.000Z</time>
      </trkpt>
      <trkpt lat="42.80281" lon="0.46894">
        <ele>1447</ele>
        <time>2019-08-08T07:45:47.000Z</time>
      </trkpt>
      <trkpt lat="42.80269" lon="0.46893">
        <ele>1447</ele>
        <time>2019-08-08T07:45:48.000Z</time>
      </trkpt>
      <trkpt lat="42.80256" lon="0.46893">
        <ele>1444</ele>
        <time>2019-08-08T07:45:49.000Z</time>
      </trkpt>
      <trkpt lat="42.80243" lon="0.46894">
        <ele>1444</ele>
        <time>2019-08-08T07:45:50.000Z</time>
      </trkpt>
      <trkpt lat="42.80231" lon="0.46897">
        <ele>1442</ele>
        <time>2019-08-08T07:45:51.000Z</time>
      </trkpt>
      <trkpt lat="42.80219" lon="0.46901">
        <ele>1442</ele>
        <time>2019-08-08T07:45:52.000Z</time>
      </trkpt>
      <trkpt lat="42.80207" lon="0.46905">
        <ele>1440</ele>
        <time>2019-08-08T07:45:53.000Z</time>
      </trkpt>
      <trkpt lat="42.80195" lon="0.46911">
        <ele>1440</ele>
        <time>2019-08-08T07:45:54.000Z</time>
      </trkpt>
      <trkpt lat="42.80185" lon="0.46919">
        <ele>1439</ele>
        <time>2019-08-08T07:45:55.000Z</time>
      </trkpt>
      <trkpt lat="42.80178" lon="0.46932">
        <ele>1439</ele>
        <time>2019-08-08T07:45:56.000Z</time>
      </trkpt>
      <trkpt lat="42.80173" lon="0.46948">
        <ele>1435</ele>
        <time>2019-08-08T07:45:57.000Z</time>
      </trkpt>
      <trkpt lat="42.80171" lon="0.46965">
        <ele>1435</ele>
        <time>2019-08-08T07:45:58.000Z</time>
      </trkpt>
      <trkpt lat="42.80169" lon="0.46983">
        <ele>1433</ele>
        <time>2019-08-08T07:45:59.000Z</time>
      </trkpt>
      <trkpt lat="42.80168" lon="0.47001">
        <ele>1433</ele>
        <time>2019-08-08T07:46:00.000Z</time>
      </trkpt>
      <trkpt lat="42.80167" lon="0.47019">
        <ele>1430</ele>
        <time>2019-08-08T07:46:01.000Z</time>
      </trkpt>
      <trkpt lat="42.80164" lon="0.47038">
        <ele>1430</ele>
        <time>2019-08-08T07:46:02.000Z</time>
      </trkpt>
      <trkpt lat="42.80161" lon="0.47056">
        <ele>1430</ele>
        <time>2019-08-08T07:46:03.000Z</time>
      </trkpt>
      <trkpt lat="42.80157" lon="0.47075">
        <ele>1427</ele>
        <time>2019-08-08T07:46:04.000Z</time>
      </trkpt>
      <trkpt lat="42.80152" lon="0.47093">
        <ele>1427</ele>
        <time>2019-08-08T07:46:05.000Z</time>
      </trkpt>
      <trkpt lat="42.80148" lon="0.47112">
        <ele>1425</ele>
        <time>2019-08-08T07:46:06.000Z</time>
      </trkpt>
      <trkpt lat="42.80144" lon="0.47131">
        <ele>1425</ele>
        <time>2019-08-08T07:46:07.000Z</time>
      </trkpt>
      <trkpt lat="42.80142" lon="0.47151">
        <ele>1420</ele>
        <time>2019-08-08T07:46:08.000Z</time>
      </trkpt>
      <trkpt lat="42.80143" lon="0.47172">
        <ele>1420</ele>
        <time>2019-08-08T07:46:09.000Z</time>
      </trkpt>
      <trkpt lat="42.80146" lon="0.47192">
        <ele>1418</ele>
        <time>2019-08-08T07:46:10.000Z</time>
      </trkpt>
      <trkpt lat="42.80149" lon="0.47212">
        <ele>1418</ele>
        <time>2019-08-08T07:46:11.000Z</time>
      </trkpt>
      <trkpt lat="42.80155" lon="0.47231">
        <ele>1414</ele>
        <time>2019-08-08T07:46:12.000Z</time>
      </trkpt>
      <trkpt lat="42.80163" lon="0.47249">
        <ele>1414</ele>
        <time>2019-08-08T07:46:13.000Z</time>
      </trkpt>
      <trkpt lat="42.80173" lon="0.47265">
        <ele>1414</ele>
        <time>2019-08-08T07:46:14.000Z</time>
      </trkpt>
      <trkpt lat="42.80184" lon="0.47279">
        <ele>1412</ele>
        <time>2019-08-08T07:46:15.000Z</time>
      </trkpt>
      <trkpt lat="42.80195" lon="0.47292">
        <ele>1412</ele>
        <time>2019-08-08T07:46:16.000Z</time>
      </trkpt>
      <trkpt lat="42.80205" lon="0.47305">
        <ele>1409</ele>
        <time>2019-08-08T07:46:17.000Z</time>
      </trkpt>
      <trkpt lat="42.80214" lon="0.4732">
        <ele>1409</ele>
        <time>2019-08-08T07:46:18.000Z</time>
      </trkpt>
      <trkpt lat="42.80225" lon="0.47345">
        <ele>1409</ele>
        <time>2019-08-08T07:46:19.000Z</time>
      </trkpt>
      <trkpt lat="42.80228" lon="0.47354">
        <ele>1408</ele>
        <time>2019-08-08T07:46:20.000Z</time>
      </trkpt>
      <trkpt lat="42.80233" lon="0.47373">
        <ele>1408</ele>
        <time>2019-08-08T07:46:21.000Z</time>
      </trkpt>
      <trkpt lat="42.80239" lon="0.4739">
        <ele>1405</ele>
        <time>2019-08-08T07:46:22.000Z</time>
      </trkpt>
      <trkpt lat="42.80247" lon="0.47407">
        <ele>1405</ele>
        <time>2019-08-08T07:46:23.000Z</time>
      </trkpt>
      <trkpt lat="42.80256" lon="0.47422">
        <ele>1402</ele>
        <time>2019-08-08T07:46:24.000Z</time>
      </trkpt>
      <trkpt lat="42.80265" lon="0.47438">
        <ele>1402</ele>
        <time>2019-08-08T07:46:25.000Z</time>
      </trkpt>
      <trkpt lat="42.80274" lon="0.47454">
        <ele>1399</ele>
        <time>2019-08-08T07:46:26.000Z</time>
      </trkpt>
      <trkpt lat="42.80284" lon="0.47468">
        <ele>1399</ele>
        <time>2019-08-08T07:46:27.000Z</time>
      </trkpt>
      <trkpt lat="42.80295" lon="0.47481">
        <ele>1398</ele>
        <time>2019-08-08T07:46:28.000Z</time>
      </trkpt>
      <trkpt lat="42.80307" lon="0.47494">
        <ele>1398</ele>
        <time>2019-08-08T07:46:29.000Z</time>
      </trkpt>
      <trkpt lat="42.80319" lon="0.47506">
        <ele>1397</ele>
        <time>2019-08-08T07:46:30.000Z</time>
      </trkpt>
      <trkpt lat="42.80331" lon="0.47518">
        <ele>1397</ele>
        <time>2019-08-08T07:46:31.000Z</time>
      </trkpt>
      <trkpt lat="42.80343" lon="0.47531">
        <ele>1397</ele>
        <time>2019-08-08T07:46:32.000Z</time>
      </trkpt>
      <trkpt lat="42.80354" lon="0.47544">
        <ele>1392</ele>
        <time>2019-08-08T07:46:33.000Z</time>
      </trkpt>
      <trkpt lat="42.80366" lon="0.47557">
        <ele>1392</ele>
        <time>2019-08-08T07:46:34.000Z</time>
      </trkpt>
      <trkpt lat="42.80377" lon="0.47572">
        <ele>1388</ele>
        <time>2019-08-08T07:46:35.000Z</time>
      </trkpt>
      <trkpt lat="42.80387" lon="0.47588">
        <ele>1388</ele>
        <time>2019-08-08T07:46:36.000Z</time>
      </trkpt>
      <trkpt lat="42.80396" lon="0.47604">
        <ele>1387</ele>
        <time>2019-08-08T07:46:37.000Z</time>
      </trkpt>
      <trkpt lat="42.80405" lon="0.47621">
        <ele>1387</ele>
        <time>2019-08-08T07:46:38.000Z</time>
      </trkpt>
      <trkpt lat="42.80412" lon="0.4764">
        <ele>1382</ele>
        <time>2019-08-08T07:46:39.000Z</time>
      </trkpt>
      <trkpt lat="42.8042" lon="0.47658">
        <ele>1382</ele>
        <time>2019-08-08T07:46:40.000Z</time>
      </trkpt>
      <trkpt lat="42.80427" lon="0.47677">
        <ele>1382</ele>
        <time>2019-08-08T07:46:41.000Z</time>
      </trkpt>
      <trkpt lat="42.80435" lon="0.47696">
        <ele>1379</ele>
        <time>2019-08-08T07:46:42.000Z</time>
      </trkpt>
      <trkpt lat="42.80442" lon="0.47715">
        <ele>1379</ele>
        <time>2019-08-08T07:46:43.000Z</time>
      </trkpt>
      <trkpt lat="42.80449" lon="0.47734">
        <ele>1375</ele>
        <time>2019-08-08T07:46:44.000Z</time>
      </trkpt>
      <trkpt lat="42.80456" lon="0.47754">
        <ele>1375</ele>
        <time>2019-08-08T07:46:45.000Z</time>
      </trkpt>
      <trkpt lat="42.80465" lon="0.47784">
        <ele>1375</ele>
        <time>2019-08-08T07:46:46.000Z</time>
      </trkpt>
      <trkpt lat="42.80467" lon="0.47794">
        <ele>1372</ele>
        <time>2019-08-08T07:46:47.000Z</time>
      </trkpt>
      <trkpt lat="42.80472" lon="0.47815">
        <ele>1372</ele>
        <time>2019-08-08T07:46:48.000Z</time>
      </trkpt>
      <trkpt lat="42.80476" lon="0.47836">
        <ele>1369</ele>
        <time>2019-08-08T07:46:49.000Z</time>
      </trkpt>
      <trkpt lat="42.80479" lon="0.47857">
        <ele>1369</ele>
        <time>2019-08-08T07:46:50.000Z</time>
      </trkpt>
      <trkpt lat="42.80484" lon="0.47878">
        <ele>1367</ele>
        <time>2019-08-08T07:46:51.000Z</time>
      </trkpt>
      <trkpt lat="42.80489" lon="0.47898">
        <ele>1367</ele>
        <time>2019-08-08T07:46:52.000Z</time>
      </trkpt>
      <trkpt lat="42.80495" lon="0.47918">
        <ele>1366</ele>
        <time>2019-08-08T07:46:53.000Z</time>
      </trkpt>
      <trkpt lat="42.80502" lon="0.47938">
        <ele>1366</ele>
        <time>2019-08-08T07:46:54.000Z</time>
      </trkpt>
      <trkpt lat="42.80508" lon="0.47958">
        <ele>1362</ele>
        <time>2019-08-08T07:46:55.000Z</time>
      </trkpt>
      <trkpt lat="42.80513" lon="0.47977">
        <ele>1362</ele>
        <time>2019-08-08T07:46:56.000Z</time>
      </trkpt>
      <trkpt lat="42.80519" lon="0.47996">
        <ele>1360</ele>
        <time>2019-08-08T07:46:57.000Z</time>
      </trkpt>
      <trkpt lat="42.80525" lon="0.48014">
        <ele>1360</ele>
        <time>2019-08-08T07:46:58.000Z</time>
      </trkpt>
      <trkpt lat="42.80533" lon="0.4803">
        <ele>1360</ele>
        <time>2019-08-08T07:46:59.000Z</time>
      </trkpt>
      <trkpt lat="42.80541" lon="0.48044">
        <ele>1358</ele>
        <time>2019-08-08T07:47:00.000Z</time>
      </trkpt>
      <trkpt lat="42.8055" lon="0.48056">
        <ele>1358</ele>
        <time>2019-08-08T07:47:01.000Z</time>
      </trkpt>
      <trkpt lat="42.80559" lon="0.48069">
        <ele>1356</ele>
        <time>2019-08-08T07:47:02.000Z</time>
      </trkpt>
      <trkpt lat="42.80568" lon="0.48081">
        <ele>1356</ele>
        <time>2019-08-08T07:47:03.000Z</time>
      </trkpt>
      <trkpt lat="42.80576" lon="0.48094">
        <ele>1353</ele>
        <time>2019-08-08T07:47:04.000Z</time>
      </trkpt>
      <trkpt lat="42.80584" lon="0.48107">
        <ele>1353</ele>
        <time>2019-08-08T07:47:05.000Z</time>
      </trkpt>
      <trkpt lat="42.80592" lon="0.4812">
        <ele>1351</ele>
        <time>2019-08-08T07:47:06.000Z</time>
      </trkpt>
      <trkpt lat="42.80601" lon="0.48133">
        <ele>1351</ele>
        <time>2019-08-08T07:47:07.000Z</time>
      </trkpt>
      <trkpt lat="42.80609" lon="0.48144">
        <ele>1351</ele>
        <time>2019-08-08T07:47:08.000Z</time>
      </trkpt>
      <trkpt lat="42.80618" lon="0.48156">
        <ele>1351</ele>
        <time>2019-08-08T07:47:09.000Z</time>
      </trkpt>
      <trkpt lat="42.80626" lon="0.48166">
        <ele>1350</ele>
        <time>2019-08-08T07:47:10.000Z</time>
      </trkpt>
      <trkpt lat="42.80633" lon="0.48176">
        <ele>1350</ele>
        <time>2019-08-08T07:47:11.000Z</time>
      </trkpt>
      <trkpt lat="42.80639" lon="0.48184">
        <ele>1349</ele>
        <time>2019-08-08T07:47:12.000Z</time>
      </trkpt>
      <trkpt lat="42.80646" lon="0.48193">
        <ele>1349</ele>
        <time>2019-08-08T07:47:13.000Z</time>
      </trkpt>
      <trkpt lat="42.80654" lon="0.48202">
        <ele>1347</ele>
        <time>2019-08-08T07:47:14.000Z</time>
      </trkpt>
      <trkpt lat="42.80661" lon="0.48211">
        <ele>1347</ele>
        <time>2019-08-08T07:47:15.000Z</time>
      </trkpt>
      <trkpt lat="42.80673" lon="0.48225">
        <ele>1347</ele>
        <time>2019-08-08T07:47:16.000Z</time>
      </trkpt>
      <trkpt lat="42.80677" lon="0.48231">
        <ele>1346</ele>
        <time>2019-08-08T07:47:17.000Z</time>
      </trkpt>
      <trkpt lat="42.80685" lon="0.48241">
        <ele>1346</ele>
        <time>2019-08-08T07:47:18.000Z</time>
      </trkpt>
      <trkpt lat="42.80693" lon="0.48253">
        <ele>1343</ele>
        <time>2019-08-08T07:47:19.000Z</time>
      </trkpt>
      <trkpt lat="42.80701" lon="0.48265">
        <ele>1343</ele>
        <time>2019-08-08T07:47:20.000Z</time>
      </trkpt>
      <trkpt lat="42.80709" lon="0.48278">
        <ele>1340</ele>
        <time>2019-08-08T07:47:21.000Z</time>
      </trkpt>
      <trkpt lat="42.80717" lon="0.48291">
        <ele>1340</ele>
        <time>2019-08-08T07:47:22.000Z</time>
      </trkpt>
      <trkpt lat="42.80724" lon="0.48304">
        <ele>1337</ele>
        <time>2019-08-08T07:47:23.000Z</time>
      </trkpt>
      <trkpt lat="42.80732" lon="0.48318">
        <ele>1337</ele>
        <time>2019-08-08T07:47:24.000Z</time>
      </trkpt>
      <trkpt lat="42.80739" lon="0.48333">
        <ele>1337</ele>
        <time>2019-08-08T07:47:25.000Z</time>
      </trkpt>
      <trkpt lat="42.80746" lon="0.4835">
        <ele>1335</ele>
        <time>2019-08-08T07:47:26.000Z</time>
      </trkpt>
      <trkpt lat="42.80751" lon="0.48367">
        <ele>1335</ele>
        <time>2019-08-08T07:47:27.000Z</time>
      </trkpt>
      <trkpt lat="42.80756" lon="0.48385">
        <ele>1333</ele>
        <time>2019-08-08T07:47:28.000Z</time>
      </trkpt>
      <trkpt lat="42.80759" lon="0.48403">
        <ele>1333</ele>
        <time>2019-08-08T07:47:29.000Z</time>
      </trkpt>
      <trkpt lat="42.80762" lon="0.48422">
        <ele>1330</ele>
        <time>2019-08-08T07:47:30.000Z</time>
      </trkpt>
      <trkpt lat="42.80765" lon="0.48441">
        <ele>1330</ele>
        <time>2019-08-08T07:47:31.000Z</time>
      </trkpt>
      <trkpt lat="42.80766" lon="0.4846">
        <ele>1328</ele>
        <time>2019-08-08T07:47:32.000Z</time>
      </trkpt>
      <trkpt lat="42.80767" lon="0.48479">
        <ele>1328</ele>
        <time>2019-08-08T07:47:33.000Z</time>
      </trkpt>
      <trkpt lat="42.80767" lon="0.48499">
        <ele>1325</ele>
        <time>2019-08-08T07:47:34.000Z</time>
      </trkpt>
      <trkpt lat="42.80767" lon="0.48529">
        <ele>1325</ele>
        <time>2019-08-08T07:47:35.000Z</time>
      </trkpt>
      <trkpt lat="42.80766" lon="0.48539">
        <ele>1324</ele>
        <time>2019-08-08T07:47:36.000Z</time>
      </trkpt>
      <trkpt lat="42.80766" lon="0.48559">
        <ele>1323</ele>
        <time>2019-08-08T07:47:37.000Z</time>
      </trkpt>
      <trkpt lat="42.80765" lon="0.48579">
        <ele>1323</ele>
        <time>2019-08-08T07:47:38.000Z</time>
      </trkpt>
      <trkpt lat="42.80764" lon="0.48599">
        <ele>1320</ele>
        <time>2019-08-08T07:47:39.000Z</time>
      </trkpt>
      <trkpt lat="42.80763" lon="0.48619">
        <ele>1320</ele>
        <time>2019-08-08T07:47:40.000Z</time>
      </trkpt>
      <trkpt lat="42.80762" lon="0.48639">
        <ele>1316</ele>
        <time>2019-08-08T07:47:41.000Z</time>
      </trkpt>
      <trkpt lat="42.80761" lon="0.4866">
        <ele>1316</ele>
        <time>2019-08-08T07:47:42.000Z</time>
      </trkpt>
      <trkpt lat="42.80761" lon="0.48681">
        <ele>1315</ele>
        <time>2019-08-08T07:47:43.000Z</time>
      </trkpt>
      <trkpt lat="42.80762" lon="0.48702">
        <ele>1315</ele>
        <time>2019-08-08T07:47:44.000Z</time>
      </trkpt>
      <trkpt lat="42.80762" lon="0.48723">
        <ele>1311</ele>
        <time>2019-08-08T07:47:45.000Z</time>
      </trkpt>
      <trkpt lat="42.80762" lon="0.48744">
        <ele>1311</ele>
        <time>2019-08-08T07:47:46.000Z</time>
      </trkpt>
      <trkpt lat="42.80762" lon="0.48765">
        <ele>1307</ele>
        <time>2019-08-08T07:47:47.000Z</time>
      </trkpt>
      <trkpt lat="42.80762" lon="0.48786">
        <ele>1307</ele>
        <time>2019-08-08T07:47:48.000Z</time>
      </trkpt>
      <trkpt lat="42.80761" lon="0.48807">
        <ele>1305</ele>
        <time>2019-08-08T07:47:49.000Z</time>
      </trkpt>
      <trkpt lat="42.8076" lon="0.48828">
        <ele>1305</ele>
        <time>2019-08-08T07:47:50.000Z</time>
      </trkpt>
      <trkpt lat="42.80757" lon="0.48849">
        <ele>1304</ele>
        <time>2019-08-08T07:47:51.000Z</time>
      </trkpt>
      <trkpt lat="42.80754" lon="0.48869">
        <ele>1304</ele>
        <time>2019-08-08T07:47:52.000Z</time>
      </trkpt>
      <trkpt lat="42.8075" lon="0.4889">
        <ele>1301</ele>
        <time>2019-08-08T07:47:53.000Z</time>
      </trkpt>
      <trkpt lat="42.80747" lon="0.4891">
        <ele>1301</ele>
        <time>2019-08-08T07:47:54.000Z</time>
      </trkpt>
      <trkpt lat="42.80742" lon="0.48941">
        <ele>1300</ele>
        <time>2019-08-08T07:47:55.000Z</time>
      </trkpt>
      <trkpt lat="42.8074" lon="0.48952">
        <ele>1300</ele>
        <time>2019-08-08T07:47:56.000Z</time>
      </trkpt>
      <trkpt lat="42.80737" lon="0.48972">
        <ele>1300</ele>
        <time>2019-08-08T07:47:57.000Z</time>
      </trkpt>
      <trkpt lat="42.80733" lon="0.48993">
        <ele>1296</ele>
        <time>2019-08-08T07:47:58.000Z</time>
      </trkpt>
      <trkpt lat="42.80729" lon="0.49013">
        <ele>1296</ele>
        <time>2019-08-08T07:47:59.000Z</time>
      </trkpt>
      <trkpt lat="42.80724" lon="0.49033">
        <ele>1292</ele>
        <time>2019-08-08T07:48:00.000Z</time>
      </trkpt>
      <trkpt lat="42.8072" lon="0.49054">
        <ele>1292</ele>
        <time>2019-08-08T07:48:01.000Z</time>
      </trkpt>
      <trkpt lat="42.80716" lon="0.49074">
        <ele>1290</ele>
        <time>2019-08-08T07:48:02.000Z</time>
      </trkpt>
      <trkpt lat="42.80712" lon="0.49096">
        <ele>1290</ele>
        <time>2019-08-08T07:48:03.000Z</time>
      </trkpt>
      <trkpt lat="42.80709" lon="0.49117">
        <ele>1287</ele>
        <time>2019-08-08T07:48:04.000Z</time>
      </trkpt>
      <trkpt lat="42.80705" lon="0.49138">
        <ele>1287</ele>
        <time>2019-08-08T07:48:05.000Z</time>
      </trkpt>
      <trkpt lat="42.80702" lon="0.49159">
        <ele>1283</ele>
        <time>2019-08-08T07:48:06.000Z</time>
      </trkpt>
      <trkpt lat="42.80698" lon="0.4918">
        <ele>1283</ele>
        <time>2019-08-08T07:48:07.000Z</time>
      </trkpt>
      <trkpt lat="42.80694" lon="0.49201">
        <ele>1282</ele>
        <time>2019-08-08T07:48:08.000Z</time>
      </trkpt>
      <trkpt lat="42.80691" lon="0.49222">
        <ele>1282</ele>
        <time>2019-08-08T07:48:09.000Z</time>
      </trkpt>
      <trkpt lat="42.80687" lon="0.49243">
        <ele>1278</ele>
        <time>2019-08-08T07:48:10.000Z</time>
      </trkpt>
      <trkpt lat="42.80684" lon="0.49265">
        <ele>1278</ele>
        <time>2019-08-08T07:48:11.000Z</time>
      </trkpt>
      <trkpt lat="42.80681" lon="0.49287">
        <ele>1274</ele>
        <time>2019-08-08T07:48:12.000Z</time>
      </trkpt>
      <trkpt lat="42.80676" lon="0.4932">
        <ele>1274</ele>
        <time>2019-08-08T07:48:13.000Z</time>
      </trkpt>
      <trkpt lat="42.80674" lon="0.49331">
        <ele>1273.6</ele>
        <time>2019-08-08T07:48:14.000Z</time>
      </trkpt>
      <trkpt lat="42.8067" lon="0.49354">
        <ele>1273</ele>
        <time>2019-08-08T07:48:15.000Z</time>
      </trkpt>
      <trkpt lat="42.80667" lon="0.49376">
        <ele>1266</ele>
        <time>2019-08-08T07:48:16.000Z</time>
      </trkpt>
      <trkpt lat="42.80663" lon="0.49399">
        <ele>1266</ele>
        <time>2019-08-08T07:48:17.000Z</time>
      </trkpt>
      <trkpt lat="42.80659" lon="0.49421">
        <ele>1263</ele>
        <time>2019-08-08T07:48:18.000Z</time>
      </trkpt>
      <trkpt lat="42.80655" lon="0.49444">
        <ele>1263</ele>
        <time>2019-08-08T07:48:19.000Z</time>
      </trkpt>
      <trkpt lat="42.8065" lon="0.49467">
        <ele>1261</ele>
        <time>2019-08-08T07:48:20.000Z</time>
      </trkpt>
      <trkpt lat="42.80645" lon="0.49489">
        <ele>1261</ele>
        <time>2019-08-08T07:48:21.000Z</time>
      </trkpt>
      <trkpt lat="42.80641" lon="0.49512">
        <ele>1257</ele>
        <time>2019-08-08T07:48:22.000Z</time>
      </trkpt>
      <trkpt lat="42.80638" lon="0.49535">
        <ele>1257</ele>
        <time>2019-08-08T07:48:23.000Z</time>
      </trkpt>
      <trkpt lat="42.80636" lon="0.49558">
        <ele>1257</ele>
        <time>2019-08-08T07:48:24.000Z</time>
      </trkpt>
      <trkpt lat="42.80634" lon="0.49581">
        <ele>1252</ele>
        <time>2019-08-08T07:48:25.000Z</time>
      </trkpt>
      <trkpt lat="42.80632" lon="0.49603">
        <ele>1252</ele>
        <time>2019-08-08T07:48:26.000Z</time>
      </trkpt>
      <trkpt lat="42.80631" lon="0.49623">
        <ele>1251</ele>
        <time>2019-08-08T07:48:27.000Z</time>
      </trkpt>
      <trkpt lat="42.8063" lon="0.49642">
        <ele>1251</ele>
        <time>2019-08-08T07:48:28.000Z</time>
      </trkpt>
      <trkpt lat="42.80628" lon="0.49659">
        <ele>1250</ele>
        <time>2019-08-08T07:48:29.000Z</time>
      </trkpt>
      <trkpt lat="42.80627" lon="0.49677">
        <ele>1250</ele>
        <time>2019-08-08T07:48:30.000Z</time>
      </trkpt>
      <trkpt lat="42.80628" lon="0.49694">
        <ele>1247</ele>
        <time>2019-08-08T07:48:31.000Z</time>
      </trkpt>
      <trkpt lat="42.80635" lon="0.4972">
        <ele>1247</ele>
        <time>2019-08-08T07:48:32.000Z</time>
      </trkpt>
      <trkpt lat="42.80638" lon="0.49728">
        <ele>1246</ele>
        <time>2019-08-08T07:48:33.000Z</time>
      </trkpt>
      <trkpt lat="42.80647" lon="0.49752">
        <ele>1245</ele>
        <time>2019-08-08T07:48:34.000Z</time>
      </trkpt>
      <trkpt lat="42.80651" lon="0.4976">
        <ele>1245</ele>
        <time>2019-08-08T07:48:35.000Z</time>
      </trkpt>
      <trkpt lat="42.80657" lon="0.49776">
        <ele>1241</ele>
        <time>2019-08-08T07:48:36.000Z</time>
      </trkpt>
      <trkpt lat="42.80662" lon="0.49793">
        <ele>1241</ele>
        <time>2019-08-08T07:48:37.000Z</time>
      </trkpt>
      <trkpt lat="42.80664" lon="0.49811">
        <ele>1239</ele>
        <time>2019-08-08T07:48:38.000Z</time>
      </trkpt>
      <trkpt lat="42.80665" lon="0.4983">
        <ele>1239</ele>
        <time>2019-08-08T07:48:39.000Z</time>
      </trkpt>
      <trkpt lat="42.80664" lon="0.49849">
        <ele>1238</ele>
        <time>2019-08-08T07:48:40.000Z</time>
      </trkpt>
      <trkpt lat="42.80664" lon="0.49867">
        <ele>1238</ele>
        <time>2019-08-08T07:48:41.000Z</time>
      </trkpt>
      <trkpt lat="42.80663" lon="0.49886">
        <ele>1235</ele>
        <time>2019-08-08T07:48:42.000Z</time>
      </trkpt>
      <trkpt lat="42.80662" lon="0.49904">
        <ele>1235</ele>
        <time>2019-08-08T07:48:43.000Z</time>
      </trkpt>
      <trkpt lat="42.80659" lon="0.49922">
        <ele>1233</ele>
        <time>2019-08-08T07:48:44.000Z</time>
      </trkpt>
      <trkpt lat="42.80654" lon="0.49939">
        <ele>1233</ele>
        <time>2019-08-08T07:48:45.000Z</time>
      </trkpt>
      <trkpt lat="42.80648" lon="0.49955">
        <ele>1230</ele>
        <time>2019-08-08T07:48:46.000Z</time>
      </trkpt>
      <trkpt lat="42.8064" lon="0.49971">
        <ele>1230</ele>
        <time>2019-08-08T07:48:47.000Z</time>
      </trkpt>
      <trkpt lat="42.80633" lon="0.49986">
        <ele>1228</ele>
        <time>2019-08-08T07:48:48.000Z</time>
      </trkpt>
      <trkpt lat="42.80626" lon="0.50002">
        <ele>1228</ele>
        <time>2019-08-08T07:48:49.000Z</time>
      </trkpt>
      <trkpt lat="42.80619" lon="0.50018">
        <ele>1226</ele>
        <time>2019-08-08T07:48:50.000Z</time>
      </trkpt>
      <trkpt lat="42.80608" lon="0.50042">
        <ele>1226</ele>
        <time>2019-08-08T07:48:51.000Z</time>
      </trkpt>
      <trkpt lat="42.80604" lon="0.5005">
        <ele>1225.6</ele>
        <time>2019-08-08T07:48:52.000Z</time>
      </trkpt>
      <trkpt lat="42.80597" lon="0.50067">
        <ele>1225</ele>
        <time>2019-08-08T07:48:53.000Z</time>
      </trkpt>
      <trkpt lat="42.80589" lon="0.50083">
        <ele>1225</ele>
        <time>2019-08-08T07:48:54.000Z</time>
      </trkpt>
      <trkpt lat="42.80582" lon="0.50101">
        <ele>1221</ele>
        <time>2019-08-08T07:48:55.000Z</time>
      </trkpt>
      <trkpt lat="42.80574" lon="0.50119">
        <ele>1221</ele>
        <time>2019-08-08T07:48:56.000Z</time>
      </trkpt>
      <trkpt lat="42.80567" lon="0.50137">
        <ele>1215</ele>
        <time>2019-08-08T07:48:57.000Z</time>
      </trkpt>
      <trkpt lat="42.8056" lon="0.50155">
        <ele>1215</ele>
        <time>2019-08-08T07:48:58.000Z</time>
      </trkpt>
      <trkpt lat="42.80554" lon="0.50173">
        <ele>1213</ele>
        <time>2019-08-08T07:48:59.000Z</time>
      </trkpt>
      <trkpt lat="42.8055" lon="0.50191">
        <ele>1213</ele>
        <time>2019-08-08T07:49:00.000Z</time>
      </trkpt>
      <trkpt lat="42.80547" lon="0.50207">
        <ele>1213</ele>
        <time>2019-08-08T07:49:01.000Z</time>
      </trkpt>
      <trkpt lat="42.80547" lon="0.50224">
        <ele>1213</ele>
        <time>2019-08-08T07:49:02.000Z</time>
      </trkpt>
      <trkpt lat="42.80549" lon="0.50239">
        <ele>1213</ele>
        <time>2019-08-08T07:49:03.000Z</time>
      </trkpt>
      <trkpt lat="42.80554" lon="0.50253">
        <ele>1212</ele>
        <time>2019-08-08T07:49:04.000Z</time>
      </trkpt>
      <trkpt lat="42.80561" lon="0.50264">
        <ele>1210</ele>
        <time>2019-08-08T07:49:05.000Z</time>
      </trkpt>
      <trkpt lat="42.80569" lon="0.50274">
        <ele>1210</ele>
        <time>2019-08-08T07:49:06.000Z</time>
      </trkpt>
      <trkpt lat="42.80579" lon="0.50282">
        <ele>1210</ele>
        <time>2019-08-08T07:49:07.000Z</time>
      </trkpt>
      <trkpt lat="42.80589" lon="0.50291">
        <ele>1210</ele>
        <time>2019-08-08T07:49:08.000Z</time>
      </trkpt>
      <trkpt lat="42.806" lon="0.503">
        <ele>1206</ele>
        <time>2019-08-08T07:49:09.000Z</time>
      </trkpt>
      <trkpt lat="42.80615" lon="0.50315">
        <ele>1206</ele>
        <time>2019-08-08T07:49:10.000Z</time>
      </trkpt>
      <trkpt lat="42.80621" lon="0.5032">
        <ele>1205</ele>
        <time>2019-08-08T07:49:11.000Z</time>
      </trkpt>
      <trkpt lat="42.80631" lon="0.5033">
        <ele>1204</ele>
        <time>2019-08-08T07:49:12.000Z</time>
      </trkpt>
      <trkpt lat="42.80642" lon="0.50343">
        <ele>1200</ele>
        <time>2019-08-08T07:49:13.000Z</time>
      </trkpt>
      <trkpt lat="42.80651" lon="0.50356">
        <ele>1200</ele>
        <time>2019-08-08T07:49:14.000Z</time>
      </trkpt>
      <trkpt lat="42.8066" lon="0.50371">
        <ele>1198</ele>
        <time>2019-08-08T07:49:15.000Z</time>
      </trkpt>
      <trkpt lat="42.80667" lon="0.50387">
        <ele>1198</ele>
        <time>2019-08-08T07:49:16.000Z</time>
      </trkpt>
      <trkpt lat="42.80673" lon="0.50413">
        <ele>1198</ele>
        <time>2019-08-08T07:49:17.000Z</time>
      </trkpt>
      <trkpt lat="42.80675" lon="0.50422">
        <ele>1195</ele>
        <time>2019-08-08T07:49:18.000Z</time>
      </trkpt>
      <trkpt lat="42.80677" lon="0.50439">
        <ele>1194</ele>
        <time>2019-08-08T07:49:19.000Z</time>
      </trkpt>
      <trkpt lat="42.80678" lon="0.50453">
        <ele>1194</ele>
        <time>2019-08-08T07:49:20.000Z</time>
      </trkpt>
      <trkpt lat="42.80678" lon="0.50466">
        <ele>1193</ele>
        <time>2019-08-08T07:49:21.000Z</time>
      </trkpt>
      <trkpt lat="42.80676" lon="0.50475">
        <ele>1193</ele>
        <time>2019-08-08T07:49:22.000Z</time>
      </trkpt>
      <trkpt lat="42.80673" lon="0.50482">
        <ele>1193</ele>
        <time>2019-08-08T07:49:23.000Z</time>
      </trkpt>
      <trkpt lat="42.80671" lon="0.50488">
        <ele>1193</ele>
        <time>2019-08-08T07:49:24.000Z</time>
      </trkpt>
      <trkpt lat="42.80671" lon="0.50494">
        <ele>1193</ele>
        <time>2019-08-08T07:49:25.000Z</time>
      </trkpt>
      <trkpt lat="42.80673" lon="0.505">
        <ele>1193</ele>
        <time>2019-08-08T07:49:26.000Z</time>
      </trkpt>
      <trkpt lat="42.80676" lon="0.50506">
        <ele>1193</ele>
        <time>2019-08-08T07:49:27.000Z</time>
      </trkpt>
      <trkpt lat="42.8068" lon="0.50512">
        <ele>1193</ele>
        <time>2019-08-08T07:49:28.000Z</time>
      </trkpt>
      <trkpt lat="42.80684" lon="0.5052">
        <ele>1190</ele>
        <time>2019-08-08T07:49:29.000Z</time>
      </trkpt>
      <trkpt lat="42.80687" lon="0.50529">
        <ele>1190</ele>
        <time>2019-08-08T07:49:30.000Z</time>
      </trkpt>
      <trkpt lat="42.80689" lon="0.5054">
        <ele>1188</ele>
        <time>2019-08-08T07:49:31.000Z</time>
      </trkpt>
      <trkpt lat="42.80691" lon="0.50551">
        <ele>1188</ele>
        <time>2019-08-08T07:49:32.000Z</time>
      </trkpt>
      <trkpt lat="42.80693" lon="0.50563">
        <ele>1187</ele>
        <time>2019-08-08T07:49:33.000Z</time>
      </trkpt>
      <trkpt lat="42.80695" lon="0.50576">
        <ele>1187</ele>
        <time>2019-08-08T07:49:34.000Z</time>
      </trkpt>
      <trkpt lat="42.80696" lon="0.50589">
        <ele>1187</ele>
        <time>2019-08-08T07:49:35.000Z</time>
      </trkpt>
      <trkpt lat="42.80698" lon="0.50603">
        <ele>1187</ele>
        <time>2019-08-08T07:49:36.000Z</time>
      </trkpt>
      <trkpt lat="42.807" lon="0.50617">
        <ele>1183</ele>
        <time>2019-08-08T07:49:37.000Z</time>
      </trkpt>
      <trkpt lat="42.80702" lon="0.50632">
        <ele>1183</ele>
        <time>2019-08-08T07:49:38.000Z</time>
      </trkpt>
      <trkpt lat="42.80704" lon="0.50647">
        <ele>1179</ele>
        <time>2019-08-08T07:49:39.000Z</time>
      </trkpt>
      <trkpt lat="42.80706" lon="0.50663">
        <ele>1179</ele>
        <time>2019-08-08T07:49:40.000Z</time>
      </trkpt>
      <trkpt lat="42.80708" lon="0.50679">
        <ele>1179</ele>
        <time>2019-08-08T07:49:41.000Z</time>
      </trkpt>
      <trkpt lat="42.8071" lon="0.50694">
        <ele>1179</ele>
        <time>2019-08-08T07:49:42.000Z</time>
      </trkpt>
      <trkpt lat="42.80712" lon="0.50706">
        <ele>1179</ele>
        <time>2019-08-08T07:49:43.000Z</time>
      </trkpt>
      <trkpt lat="42.80713" lon="0.50716">
        <ele>1179</ele>
        <time>2019-08-08T07:49:44.000Z</time>
      </trkpt>
      <trkpt lat="42.80714" lon="0.50724">
        <ele>1178</ele>
        <time>2019-08-08T07:49:45.000Z</time>
      </trkpt>
      <trkpt lat="42.80715" lon="0.5073">
        <ele>1178</ele>
        <time>2019-08-08T07:49:46.000Z</time>
      </trkpt>
      <trkpt lat="42.80715" lon="0.50735">
        <ele>1177</ele>
        <time>2019-08-08T07:49:47.000Z</time>
      </trkpt>
      <trkpt lat="42.80715" lon="0.50738">
        <ele>1177</ele>
        <time>2019-08-08T07:49:48.000Z</time>
      </trkpt>
      <trkpt lat="42.80715" lon="0.50741">
        <ele>1177</ele>
        <time>2019-08-08T07:49:49.000Z</time>
      </trkpt>
      <trkpt lat="42.80716" lon="0.50744">
        <ele>1177</ele>
        <time>2019-08-08T07:49:50.000Z</time>
      </trkpt>
      <trkpt lat="42.80717" lon="0.5075">
        <ele>1177</ele>
        <time>2019-08-08T07:49:51.000Z</time>
      </trkpt>
      <trkpt lat="42.80719" lon="0.50756">
        <ele>1176</ele>
        <time>2019-08-08T07:49:52.000Z</time>
      </trkpt>
      <trkpt lat="42.80721" lon="0.50764">
        <ele>1176</ele>
        <time>2019-08-08T07:49:53.000Z</time>
      </trkpt>
      <trkpt lat="42.80723" lon="0.50773">
        <ele>1175</ele>
        <time>2019-08-08T07:49:54.000Z</time>
      </trkpt>
      <trkpt lat="42.80725" lon="0.50783">
        <ele>1175</ele>
        <time>2019-08-08T07:49:55.000Z</time>
      </trkpt>
      <trkpt lat="42.80728" lon="0.50795">
        <ele>1174</ele>
        <time>2019-08-08T07:49:56.000Z</time>
      </trkpt>
      <trkpt lat="42.80731" lon="0.50807">
        <ele>1174</ele>
        <time>2019-08-08T07:49:57.000Z</time>
      </trkpt>
      <trkpt lat="42.80734" lon="0.5082">
        <ele>1170</ele>
        <time>2019-08-08T07:49:58.000Z</time>
      </trkpt>
      <trkpt lat="42.80737" lon="0.50834">
        <ele>1170</ele>
        <time>2019-08-08T07:49:59.000Z</time>
      </trkpt>
      <trkpt lat="42.80741" lon="0.50848">
        <ele>1167</ele>
        <time>2019-08-08T07:50:00.000Z</time>
      </trkpt>
      <trkpt lat="42.80745" lon="0.50862">
        <ele>1167</ele>
        <time>2019-08-08T07:50:01.000Z</time>
      </trkpt>
      <trkpt lat="42.80749" lon="0.50877">
        <ele>1166</ele>
        <time>2019-08-08T07:50:02.000Z</time>
      </trkpt>
      <trkpt lat="42.80753" lon="0.50892">
        <ele>1166</ele>
        <time>2019-08-08T07:50:03.000Z</time>
      </trkpt>
      <trkpt lat="42.80757" lon="0.50907">
        <ele>1163</ele>
        <time>2019-08-08T07:50:04.000Z</time>
      </trkpt>
      <trkpt lat="42.80762" lon="0.50923">
        <ele>1163</ele>
        <time>2019-08-08T07:50:05.000Z</time>
      </trkpt>
      <trkpt lat="42.80766" lon="0.50938">
        <ele>1163</ele>
        <time>2019-08-08T07:50:06.000Z</time>
      </trkpt>
      <trkpt lat="42.80772" lon="0.50962">
        <ele>1163</ele>
        <time>2019-08-08T07:50:07.000Z</time>
      </trkpt>
      <trkpt lat="42.80774" lon="0.50969">
        <ele>1163</ele>
        <time>2019-08-08T07:50:08.000Z</time>
      </trkpt>
      <trkpt lat="42.80778" lon="0.50985">
        <ele>1161</ele>
        <time>2019-08-08T07:50:09.000Z</time>
      </trkpt>
      <trkpt lat="42.80782" lon="0.51">
        <ele>1161</ele>
        <time>2019-08-08T07:50:10.000Z</time>
      </trkpt>
      <trkpt lat="42.80787" lon="0.51015">
        <ele>1160</ele>
        <time>2019-08-08T07:50:11.000Z</time>
      </trkpt>
      <trkpt lat="42.80791" lon="0.5103">
        <ele>1160</ele>
        <time>2019-08-08T07:50:12.000Z</time>
      </trkpt>
      <trkpt lat="42.80795" lon="0.51046">
        <ele>1158</ele>
        <time>2019-08-08T07:50:13.000Z</time>
      </trkpt>
      <trkpt lat="42.80799" lon="0.51062">
        <ele>1158</ele>
        <time>2019-08-08T07:50:14.000Z</time>
      </trkpt>
      <trkpt lat="42.80803" lon="0.51079">
        <ele>1156</ele>
        <time>2019-08-08T07:50:15.000Z</time>
      </trkpt>
      <trkpt lat="42.80806" lon="0.51097">
        <ele>1156</ele>
        <time>2019-08-08T07:50:16.000Z</time>
      </trkpt>
      <trkpt lat="42.80808" lon="0.51115">
        <ele>1152</ele>
        <time>2019-08-08T07:50:17.000Z</time>
      </trkpt>
      <trkpt lat="42.8081" lon="0.51133">
        <ele>1152</ele>
        <time>2019-08-08T07:50:18.000Z</time>
      </trkpt>
      <trkpt lat="42.80813" lon="0.51152">
        <ele>1150</ele>
        <time>2019-08-08T07:50:19.000Z</time>
      </trkpt>
      <trkpt lat="42.80817" lon="0.51171">
        <ele>1148</ele>
        <time>2019-08-08T07:50:20.000Z</time>
      </trkpt>
      <trkpt lat="42.80822" lon="0.5119">
        <ele>1148</ele>
        <time>2019-08-08T07:50:21.000Z</time>
      </trkpt>
      <trkpt lat="42.80825" lon="0.5121">
        <ele>1147</ele>
        <time>2019-08-08T07:50:22.000Z</time>
      </trkpt>
      <trkpt lat="42.80827" lon="0.51231">
        <ele>1147</ele>
        <time>2019-08-08T07:50:23.000Z</time>
      </trkpt>
      <trkpt lat="42.80824" lon="0.51262">
        <ele>1147</ele>
        <time>2019-08-08T07:50:24.000Z</time>
      </trkpt>
      <trkpt lat="42.80823" lon="0.51272">
        <ele>1143</ele>
        <time>2019-08-08T07:50:25.000Z</time>
      </trkpt>
      <trkpt lat="42.80821" lon="0.51292">
        <ele>1143</ele>
        <time>2019-08-08T07:50:26.000Z</time>
      </trkpt>
      <trkpt lat="42.80819" lon="0.51312">
        <ele>1138</ele>
        <time>2019-08-08T07:50:27.000Z</time>
      </trkpt>
      <trkpt lat="42.80817" lon="0.51333">
        <ele>1138</ele>
        <time>2019-08-08T07:50:28.000Z</time>
      </trkpt>
      <trkpt lat="42.80814" lon="0.51354">
        <ele>1134</ele>
        <time>2019-08-08T07:50:29.000Z</time>
      </trkpt>
      <trkpt lat="42.80812" lon="0.51374">
        <ele>1134</ele>
        <time>2019-08-08T07:50:30.000Z</time>
      </trkpt>
      <trkpt lat="42.8081" lon="0.51394">
        <ele>1132</ele>
        <time>2019-08-08T07:50:31.000Z</time>
      </trkpt>
      <trkpt lat="42.80809" lon="0.51412">
        <ele>1132</ele>
        <time>2019-08-08T07:50:32.000Z</time>
      </trkpt>
      <trkpt lat="42.80809" lon="0.5143">
        <ele>1131</ele>
        <time>2019-08-08T07:50:33.000Z</time>
      </trkpt>
      <trkpt lat="42.8081" lon="0.51446">
        <ele>1131</ele>
        <time>2019-08-08T07:50:34.000Z</time>
      </trkpt>
      <trkpt lat="42.80813" lon="0.51461">
        <ele>1130</ele>
        <time>2019-08-08T07:50:35.000Z</time>
      </trkpt>
      <trkpt lat="42.80819" lon="0.51474">
        <ele>1130</ele>
        <time>2019-08-08T07:50:36.000Z</time>
      </trkpt>
      <trkpt lat="42.80826" lon="0.51485">
        <ele>1128</ele>
        <time>2019-08-08T07:50:37.000Z</time>
      </trkpt>
      <trkpt lat="42.80835" lon="0.51495">
        <ele>1128</ele>
        <time>2019-08-08T07:50:38.000Z</time>
      </trkpt>
      <trkpt lat="42.80845" lon="0.51504">
        <ele>1126</ele>
        <time>2019-08-08T07:50:39.000Z</time>
      </trkpt>
      <trkpt lat="42.80854" lon="0.51511">
        <ele>1126</ele>
        <time>2019-08-08T07:50:40.000Z</time>
      </trkpt>
      <trkpt lat="42.80863" lon="0.51519">
        <ele>1125</ele>
        <time>2019-08-08T07:50:41.000Z</time>
      </trkpt>
      <trkpt lat="42.80869" lon="0.51529">
        <ele>1125</ele>
        <time>2019-08-08T07:50:42.000Z</time>
      </trkpt>
      <trkpt lat="42.80872" lon="0.51542">
        <ele>1124</ele>
        <time>2019-08-08T07:50:43.000Z</time>
      </trkpt>
      <trkpt lat="42.80874" lon="0.51555">
        <ele>1124</ele>
        <time>2019-08-08T07:50:44.000Z</time>
      </trkpt>
      <trkpt lat="42.80875" lon="0.51568">
        <ele>1124</ele>
        <time>2019-08-08T07:50:45.000Z</time>
      </trkpt>
      <trkpt lat="42.80876" lon="0.51581">
        <ele>1124</ele>
        <time>2019-08-08T07:50:46.000Z</time>
      </trkpt>
      <trkpt lat="42.80876" lon="0.51595">
        <ele>1124</ele>
        <time>2019-08-08T07:50:47.000Z</time>
      </trkpt>
      <trkpt lat="42.80877" lon="0.51608">
        <ele>1124</ele>
        <time>2019-08-08T07:50:48.000Z</time>
      </trkpt>
      <trkpt lat="42.80878" lon="0.51623">
        <ele>1124</ele>
        <time>2019-08-08T07:50:49.000Z</time>
      </trkpt>
      <trkpt lat="42.80878" lon="0.51637">
        <ele>1123</ele>
        <time>2019-08-08T07:50:50.000Z</time>
      </trkpt>
      <trkpt lat="42.80879" lon="0.51652">
        <ele>1123</ele>
        <time>2019-08-08T07:50:51.000Z</time>
      </trkpt>
      <trkpt lat="42.80881" lon="0.51666">
        <ele>1123</ele>
        <time>2019-08-08T07:50:52.000Z</time>
      </trkpt>
      <trkpt lat="42.80881" lon="0.51682">
        <ele>1123</ele>
        <time>2019-08-08T07:50:53.000Z</time>
      </trkpt>
      <trkpt lat="42.80882" lon="0.51697">
        <ele>1122</ele>
        <time>2019-08-08T07:50:54.000Z</time>
      </trkpt>
      <trkpt lat="42.80883" lon="0.51713">
        <ele>1122</ele>
        <time>2019-08-08T07:50:55.000Z</time>
      </trkpt>
      <trkpt lat="42.80883" lon="0.51729">
        <ele>1120</ele>
        <time>2019-08-08T07:50:56.000Z</time>
      </trkpt>
      <trkpt lat="42.80885" lon="0.51744">
        <ele>1120</ele>
        <time>2019-08-08T07:50:57.000Z</time>
      </trkpt>
      <trkpt lat="42.80885" lon="0.5176">
        <ele>1119</ele>
        <time>2019-08-08T07:50:58.000Z</time>
      </trkpt>
      <trkpt lat="42.80885" lon="0.51775">
        <ele>1119</ele>
        <time>2019-08-08T07:50:59.000Z</time>
      </trkpt>
      <trkpt lat="42.80884" lon="0.5179">
        <ele>1117</ele>
        <time>2019-08-08T07:51:00.000Z</time>
      </trkpt>
      <trkpt lat="42.80882" lon="0.51804">
        <ele>1117</ele>
        <time>2019-08-08T07:51:01.000Z</time>
      </trkpt>
      <trkpt lat="42.8088" lon="0.51818">
        <ele>1116</ele>
        <time>2019-08-08T07:51:02.000Z</time>
      </trkpt>
      <trkpt lat="42.80879" lon="0.51833">
        <ele>1116</ele>
        <time>2019-08-08T07:51:03.000Z</time>
      </trkpt>
      <trkpt lat="42.80877" lon="0.51847">
        <ele>1116</ele>
        <time>2019-08-08T07:51:04.000Z</time>
      </trkpt>
      <trkpt lat="42.80875" lon="0.51861">
        <ele>1116</ele>
        <time>2019-08-08T07:51:05.000Z</time>
      </trkpt>
      <trkpt lat="42.80872" lon="0.51874">
        <ele>1116</ele>
        <time>2019-08-08T07:51:06.000Z</time>
      </trkpt>
      <trkpt lat="42.80868" lon="0.51887">
        <ele>1116</ele>
        <time>2019-08-08T07:51:07.000Z</time>
      </trkpt>
      <trkpt lat="42.80862" lon="0.519">
        <ele>1116</ele>
        <time>2019-08-08T07:51:08.000Z</time>
      </trkpt>
      <trkpt lat="42.80855" lon="0.51912">
        <ele>1115</ele>
        <time>2019-08-08T07:51:09.000Z</time>
      </trkpt>
      <trkpt lat="42.80847" lon="0.51924">
        <ele>1115</ele>
        <time>2019-08-08T07:51:10.000Z</time>
      </trkpt>
      <trkpt lat="42.80838" lon="0.51935">
        <ele>1111</ele>
        <time>2019-08-08T07:51:11.000Z</time>
      </trkpt>
      <trkpt lat="42.80828" lon="0.51944">
        <ele>1111</ele>
        <time>2019-08-08T07:51:12.000Z</time>
      </trkpt>
      <trkpt lat="42.80816" lon="0.51951">
        <ele>1109</ele>
        <time>2019-08-08T07:51:13.000Z</time>
      </trkpt>
      <trkpt lat="42.80803" lon="0.51955">
        <ele>1109</ele>
        <time>2019-08-08T07:51:14.000Z</time>
      </trkpt>
      <trkpt lat="42.80789" lon="0.51956">
        <ele>1109</ele>
        <time>2019-08-08T07:51:15.000Z</time>
      </trkpt>
      <trkpt lat="42.80776" lon="0.51956">
        <ele>1105</ele>
        <time>2019-08-08T07:51:16.000Z</time>
      </trkpt>
      <trkpt lat="42.80763" lon="0.51955">
        <ele>1105</ele>
        <time>2019-08-08T07:51:17.000Z</time>
      </trkpt>
      <trkpt lat="42.80749" lon="0.51955">
        <ele>1101</ele>
        <time>2019-08-08T07:51:18.000Z</time>
      </trkpt>
      <trkpt lat="42.80734" lon="0.51955">
        <ele>1101</ele>
        <time>2019-08-08T07:51:19.000Z</time>
      </trkpt>
      <trkpt lat="42.8072" lon="0.51957">
        <ele>1099</ele>
        <time>2019-08-08T07:51:20.000Z</time>
      </trkpt>
      <trkpt lat="42.80706" lon="0.51962">
        <ele>1099</ele>
        <time>2019-08-08T07:51:21.000Z</time>
      </trkpt>
      <trkpt lat="42.80692" lon="0.51969">
        <ele>1094</ele>
        <time>2019-08-08T07:51:22.000Z</time>
      </trkpt>
      <trkpt lat="42.80675" lon="0.51986">
        <ele>1094</ele>
        <time>2019-08-08T07:51:23.000Z</time>
      </trkpt>
      <trkpt lat="42.8067" lon="0.51993">
        <ele>1093</ele>
        <time>2019-08-08T07:51:24.000Z</time>
      </trkpt>
      <trkpt lat="42.8066" lon="0.52008">
        <ele>1092</ele>
        <time>2019-08-08T07:51:25.000Z</time>
      </trkpt>
      <trkpt lat="42.80651" lon="0.52023">
        <ele>1092</ele>
        <time>2019-08-08T07:51:26.000Z</time>
      </trkpt>
      <trkpt lat="42.80645" lon="0.52041">
        <ele>1087</ele>
        <time>2019-08-08T07:51:27.000Z</time>
      </trkpt>
      <trkpt lat="42.8064" lon="0.5206">
        <ele>1087</ele>
        <time>2019-08-08T07:51:28.000Z</time>
      </trkpt>
      <trkpt lat="42.80635" lon="0.52079">
        <ele>1084</ele>
        <time>2019-08-08T07:51:29.000Z</time>
      </trkpt>
      <trkpt lat="42.80629" lon="0.52099">
        <ele>1084</ele>
        <time>2019-08-08T07:51:30.000Z</time>
      </trkpt>
      <trkpt lat="42.80622" lon="0.52118">
        <ele>1080</ele>
        <time>2019-08-08T07:51:31.000Z</time>
      </trkpt>
      <trkpt lat="42.80614" lon="0.52138">
        <ele>1080</ele>
        <time>2019-08-08T07:51:32.000Z</time>
      </trkpt>
      <trkpt lat="42.80607" lon="0.52158">
        <ele>1076</ele>
        <time>2019-08-08T07:51:33.000Z</time>
      </trkpt>
      <trkpt lat="42.80601" lon="0.52176">
        <ele>1076</ele>
        <time>2019-08-08T07:51:34.000Z</time>
      </trkpt>
      <trkpt lat="42.80596" lon="0.52194">
        <ele>1074</ele>
        <time>2019-08-08T07:51:35.000Z</time>
      </trkpt>
      <trkpt lat="42.80594" lon="0.52212">
        <ele>1074</ele>
        <time>2019-08-08T07:51:36.000Z</time>
      </trkpt>
      <trkpt lat="42.80594" lon="0.52231">
        <ele>1072</ele>
        <time>2019-08-08T07:51:37.000Z</time>
      </trkpt>
      <trkpt lat="42.80596" lon="0.52252">
        <ele>1072</ele>
        <time>2019-08-08T07:51:38.000Z</time>
      </trkpt>
      <trkpt lat="42.80598" lon="0.52272">
        <ele>1068</ele>
        <time>2019-08-08T07:51:39.000Z</time>
      </trkpt>
      <trkpt lat="42.80601" lon="0.52292">
        <ele>1068</ele>
        <time>2019-08-08T07:51:40.000Z</time>
      </trkpt>
      <trkpt lat="42.80603" lon="0.52313">
        <ele>1065</ele>
        <time>2019-08-08T07:51:41.000Z</time>
      </trkpt>
      <trkpt lat="42.80604" lon="0.52334">
        <ele>1065</ele>
        <time>2019-08-08T07:51:42.000Z</time>
      </trkpt>
      <trkpt lat="42.80606" lon="0.52353">
        <ele>1063</ele>
        <time>2019-08-08T07:51:43.000Z</time>
      </trkpt>
      <trkpt lat="42.80606" lon="0.52372">
        <ele>1063</ele>
        <time>2019-08-08T07:51:44.000Z</time>
      </trkpt>
      <trkpt lat="42.80606" lon="0.52391">
        <ele>1063</ele>
        <time>2019-08-08T07:51:45.000Z</time>
      </trkpt>
      <trkpt lat="42.80606" lon="0.52409">
        <ele>1058</ele>
        <time>2019-08-08T07:51:46.000Z</time>
      </trkpt>
      <trkpt lat="42.80605" lon="0.52427">
        <ele>1058</ele>
        <time>2019-08-08T07:51:47.000Z</time>
      </trkpt>
      <trkpt lat="42.80604" lon="0.52445">
        <ele>1055</ele>
        <time>2019-08-08T07:51:48.000Z</time>
      </trkpt>
      <trkpt lat="42.80603" lon="0.52463">
        <ele>1055</ele>
        <time>2019-08-08T07:51:49.000Z</time>
      </trkpt>
      <trkpt lat="42.80602" lon="0.52483">
        <ele>1053</ele>
        <time>2019-08-08T07:51:50.000Z</time>
      </trkpt>
      <trkpt lat="42.80603" lon="0.52502">
        <ele>1053</ele>
        <time>2019-08-08T07:51:51.000Z</time>
      </trkpt>
      <trkpt lat="42.80605" lon="0.52522">
        <ele>1052</ele>
        <time>2019-08-08T07:51:52.000Z</time>
      </trkpt>
      <trkpt lat="42.80608" lon="0.52542">
        <ele>1052</ele>
        <time>2019-08-08T07:51:53.000Z</time>
      </trkpt>
      <trkpt lat="42.80612" lon="0.52561">
        <ele>1049</ele>
        <time>2019-08-08T07:51:54.000Z</time>
      </trkpt>
      <trkpt lat="42.80616" lon="0.52581">
        <ele>1049</ele>
        <time>2019-08-08T07:51:55.000Z</time>
      </trkpt>
      <trkpt lat="42.8062" lon="0.52601">
        <ele>1043</ele>
        <time>2019-08-08T07:51:56.000Z</time>
      </trkpt>
      <trkpt lat="42.80625" lon="0.52621">
        <ele>1043</ele>
        <time>2019-08-08T07:51:57.000Z</time>
      </trkpt>
      <trkpt lat="42.8063" lon="0.52641">
        <ele>1040</ele>
        <time>2019-08-08T07:51:58.000Z</time>
      </trkpt>
      <trkpt lat="42.80636" lon="0.52661">
        <ele>1040</ele>
        <time>2019-08-08T07:51:59.000Z</time>
      </trkpt>
      <trkpt lat="42.80641" lon="0.52681">
        <ele>1036</ele>
        <time>2019-08-08T07:52:00.000Z</time>
      </trkpt>
      <trkpt lat="42.80645" lon="0.52701">
        <ele>1036</ele>
        <time>2019-08-08T07:52:01.000Z</time>
      </trkpt>
      <trkpt lat="42.8065" lon="0.52722">
        <ele>1033</ele>
        <time>2019-08-08T07:52:02.000Z</time>
      </trkpt>
      <trkpt lat="42.80655" lon="0.52741">
        <ele>1033</ele>
        <time>2019-08-08T07:52:03.000Z</time>
      </trkpt>
      <trkpt lat="42.8066" lon="0.52761">
        <ele>1028</ele>
        <time>2019-08-08T07:52:04.000Z</time>
      </trkpt>
      <trkpt lat="42.80667" lon="0.5278">
        <ele>1028</ele>
        <time>2019-08-08T07:52:05.000Z</time>
      </trkpt>
      <trkpt lat="42.80674" lon="0.52799">
        <ele>1028</ele>
        <time>2019-08-08T07:52:06.000Z</time>
      </trkpt>
      <trkpt lat="42.80681" lon="0.52818">
        <ele>1024</ele>
        <time>2019-08-08T07:52:07.000Z</time>
      </trkpt>
      <trkpt lat="42.80688" lon="0.52836">
        <ele>1024</ele>
        <time>2019-08-08T07:52:08.000Z</time>
      </trkpt>
      <trkpt lat="42.80695" lon="0.52854">
        <ele>1022</ele>
        <time>2019-08-08T07:52:09.000Z</time>
      </trkpt>
      <trkpt lat="42.80702" lon="0.52871">
        <ele>1022</ele>
        <time>2019-08-08T07:52:10.000Z</time>
      </trkpt>
      <trkpt lat="42.80709" lon="0.52887">
        <ele>1021</ele>
        <time>2019-08-08T07:52:11.000Z</time>
      </trkpt>
      <trkpt lat="42.80715" lon="0.52904">
        <ele>1021</ele>
        <time>2019-08-08T07:52:12.000Z</time>
      </trkpt>
      <trkpt lat="42.80721" lon="0.52921">
        <ele>1016</ele>
        <time>2019-08-08T07:52:13.000Z</time>
      </trkpt>
      <trkpt lat="42.80726" lon="0.52938">
        <ele>1016</ele>
        <time>2019-08-08T07:52:14.000Z</time>
      </trkpt>
      <trkpt lat="42.8073" lon="0.52956">
        <ele>1014</ele>
        <time>2019-08-08T07:52:15.000Z</time>
      </trkpt>
      <trkpt lat="42.80733" lon="0.52974">
        <ele>1014</ele>
        <time>2019-08-08T07:52:16.000Z</time>
      </trkpt>
      <trkpt lat="42.80735" lon="0.52991">
        <ele>1013</ele>
        <time>2019-08-08T07:52:17.000Z</time>
      </trkpt>
      <trkpt lat="42.80737" lon="0.53007">
        <ele>1013</ele>
        <time>2019-08-08T07:52:18.000Z</time>
      </trkpt>
      <trkpt lat="42.80738" lon="0.53022">
        <ele>1010</ele>
        <time>2019-08-08T07:52:19.000Z</time>
      </trkpt>
      <trkpt lat="42.80738" lon="0.53036">
        <ele>1010</ele>
        <time>2019-08-08T07:52:20.000Z</time>
      </trkpt>
      <trkpt lat="42.80738" lon="0.53053">
        <ele>1008</ele>
        <time>2019-08-08T07:52:21.000Z</time>
      </trkpt>
      <trkpt lat="42.80738" lon="0.53058">
        <ele>1008</ele>
        <time>2019-08-08T07:52:22.000Z</time>
      </trkpt>
      <trkpt lat="42.80737" lon="0.53069">
        <ele>1008</ele>
        <time>2019-08-08T07:52:23.000Z</time>
      </trkpt>
      <trkpt lat="42.80735" lon="0.5308">
        <ele>1006</ele>
        <time>2019-08-08T07:52:24.000Z</time>
      </trkpt>
      <trkpt lat="42.80733" lon="0.53091">
        <ele>1006</ele>
        <time>2019-08-08T07:52:25.000Z</time>
      </trkpt>
      <trkpt lat="42.80731" lon="0.53104">
        <ele>1003</ele>
        <time>2019-08-08T07:52:26.000Z</time>
      </trkpt>
      <trkpt lat="42.80728" lon="0.53116">
        <ele>1003</ele>
        <time>2019-08-08T07:52:27.000Z</time>
      </trkpt>
      <trkpt lat="42.80725" lon="0.5313">
        <ele>1002</ele>
        <time>2019-08-08T07:52:28.000Z</time>
      </trkpt>
      <trkpt lat="42.80723" lon="0.53144">
        <ele>1002</ele>
        <time>2019-08-08T07:52:29.000Z</time>
      </trkpt>
      <trkpt lat="42.8072" lon="0.53158">
        <ele>1000</ele>
        <time>2019-08-08T07:52:30.000Z</time>
      </trkpt>
      <trkpt lat="42.80717" lon="0.53173">
        <ele>1000</ele>
        <time>2019-08-08T07:52:31.000Z</time>
      </trkpt>
      <trkpt lat="42.80715" lon="0.53188">
        <ele>998</ele>
        <time>2019-08-08T07:52:32.000Z</time>
      </trkpt>
      <trkpt lat="42.80712" lon="0.53204">
        <ele>998</ele>
        <time>2019-08-08T07:52:33.000Z</time>
      </trkpt>
      <trkpt lat="42.80709" lon="0.5322">
        <ele>995</ele>
        <time>2019-08-08T07:52:34.000Z</time>
      </trkpt>
      <trkpt lat="42.80705" lon="0.53236">
        <ele>995</ele>
        <time>2019-08-08T07:52:35.000Z</time>
      </trkpt>
      <trkpt lat="42.80701" lon="0.53252">
        <ele>994</ele>
        <time>2019-08-08T07:52:36.000Z</time>
      </trkpt>
      <trkpt lat="42.80697" lon="0.53269">
        <ele>994</ele>
        <time>2019-08-08T07:52:37.000Z</time>
      </trkpt>
      <trkpt lat="42.80692" lon="0.53285">
        <ele>991</ele>
        <time>2019-08-08T07:52:38.000Z</time>
      </trkpt>
      <trkpt lat="42.80688" lon="0.53302">
        <ele>991</ele>
        <time>2019-08-08T07:52:39.000Z</time>
      </trkpt>
      <trkpt lat="42.80685" lon="0.53319">
        <ele>990</ele>
        <time>2019-08-08T07:52:40.000Z</time>
      </trkpt>
      <trkpt lat="42.80683" lon="0.53337">
        <ele>990</ele>
        <time>2019-08-08T07:52:41.000Z</time>
      </trkpt>
      <trkpt lat="42.80682" lon="0.53355">
        <ele>990</ele>
        <time>2019-08-08T07:52:42.000Z</time>
      </trkpt>
      <trkpt lat="42.80683" lon="0.53372">
        <ele>988</ele>
        <time>2019-08-08T07:52:43.000Z</time>
      </trkpt>
      <trkpt lat="42.80685" lon="0.53389">
        <ele>988</ele>
        <time>2019-08-08T07:52:44.000Z</time>
      </trkpt>
      <trkpt lat="42.80686" lon="0.53405">
        <ele>987</ele>
        <time>2019-08-08T07:52:45.000Z</time>
      </trkpt>
      <trkpt lat="42.80687" lon="0.53422">
        <ele>987</ele>
        <time>2019-08-08T07:52:46.000Z</time>
      </trkpt>
      <trkpt lat="42.80687" lon="0.53439">
        <ele>985</ele>
        <time>2019-08-08T07:52:47.000Z</time>
      </trkpt>
      <trkpt lat="42.80686" lon="0.53455">
        <ele>985</ele>
        <time>2019-08-08T07:52:48.000Z</time>
      </trkpt>
      <trkpt lat="42.80684" lon="0.53471">
        <ele>984</ele>
        <time>2019-08-08T07:52:49.000Z</time>
      </trkpt>
      <trkpt lat="42.80681" lon="0.53487">
        <ele>984</ele>
        <time>2019-08-08T07:52:50.000Z</time>
      </trkpt>
      <trkpt lat="42.80678" lon="0.53503">
        <ele>983</ele>
        <time>2019-08-08T07:52:51.000Z</time>
      </trkpt>
      <trkpt lat="42.80674" lon="0.53519">
        <ele>983</ele>
        <time>2019-08-08T07:52:52.000Z</time>
      </trkpt>
      <trkpt lat="42.80671" lon="0.53534">
        <ele>982</ele>
        <time>2019-08-08T07:52:53.000Z</time>
      </trkpt>
      <trkpt lat="42.80668" lon="0.5355">
        <ele>982</ele>
        <time>2019-08-08T07:52:54.000Z</time>
      </trkpt>
      <trkpt lat="42.80666" lon="0.53565">
        <ele>982</ele>
        <time>2019-08-08T07:52:55.000Z</time>
      </trkpt>
      <trkpt lat="42.80663" lon="0.53581">
        <ele>981</ele>
        <time>2019-08-08T07:52:56.000Z</time>
      </trkpt>
      <trkpt lat="42.80661" lon="0.53596">
        <ele>981</ele>
        <time>2019-08-08T07:52:57.000Z</time>
      </trkpt>
      <trkpt lat="42.80659" lon="0.5361">
        <ele>980</ele>
        <time>2019-08-08T07:52:58.000Z</time>
      </trkpt>
      <trkpt lat="42.80658" lon="0.53625">
        <ele>980</ele>
        <time>2019-08-08T07:52:59.000Z</time>
      </trkpt>
      <trkpt lat="42.80657" lon="0.53639">
        <ele>980</ele>
        <time>2019-08-08T07:53:00.000Z</time>
      </trkpt>
      <trkpt lat="42.80657" lon="0.53653">
        <ele>980</ele>
        <time>2019-08-08T07:53:01.000Z</time>
      </trkpt>
      <trkpt lat="42.80657" lon="0.53666">
        <ele>980</ele>
        <time>2019-08-08T07:53:02.000Z</time>
      </trkpt>
      <trkpt lat="42.80658" lon="0.5368">
        <ele>979</ele>
        <time>2019-08-08T07:53:03.000Z</time>
      </trkpt>
      <trkpt lat="42.80658" lon="0.53693">
        <ele>979</ele>
        <time>2019-08-08T07:53:04.000Z</time>
      </trkpt>
      <trkpt lat="42.80658" lon="0.53707">
        <ele>979</ele>
        <time>2019-08-08T07:53:05.000Z</time>
      </trkpt>
      <trkpt lat="42.80658" lon="0.53721">
        <ele>979</ele>
        <time>2019-08-08T07:53:06.000Z</time>
      </trkpt>
      <trkpt lat="42.80658" lon="0.53734">
        <ele>979</ele>
        <time>2019-08-08T07:53:07.000Z</time>
      </trkpt>
      <trkpt lat="42.80658" lon="0.53748">
        <ele>979</ele>
        <time>2019-08-08T07:53:08.000Z</time>
      </trkpt>
      <trkpt lat="42.80658" lon="0.53762">
        <ele>979</ele>
        <time>2019-08-08T07:53:09.000Z</time>
      </trkpt>
      <trkpt lat="42.80658" lon="0.53776">
        <ele>979</ele>
        <time>2019-08-08T07:53:10.000Z</time>
      </trkpt>
      <trkpt lat="42.80657" lon="0.5379">
        <ele>978</ele>
        <time>2019-08-08T07:53:11.000Z</time>
      </trkpt>
      <trkpt lat="42.80656" lon="0.53805">
        <ele>978</ele>
        <time>2019-08-08T07:53:12.000Z</time>
      </trkpt>
      <trkpt lat="42.80654" lon="0.53819">
        <ele>978</ele>
        <time>2019-08-08T07:53:13.000Z</time>
      </trkpt>
      <trkpt lat="42.80653" lon="0.53833">
        <ele>976</ele>
        <time>2019-08-08T07:53:14.000Z</time>
      </trkpt>
      <trkpt lat="42.80651" lon="0.53847">
        <ele>976</ele>
        <time>2019-08-08T07:53:15.000Z</time>
      </trkpt>
      <trkpt lat="42.80649" lon="0.53861">
        <ele>975</ele>
        <time>2019-08-08T07:53:16.000Z</time>
      </trkpt>
      <trkpt lat="42.80647" lon="0.53875">
        <ele>975</ele>
        <time>2019-08-08T07:53:17.000Z</time>
      </trkpt>
      <trkpt lat="42.80645" lon="0.53889">
        <ele>975</ele>
        <time>2019-08-08T07:53:18.000Z</time>
      </trkpt>
      <trkpt lat="42.80644" lon="0.53903">
        <ele>975</ele>
        <time>2019-08-08T07:53:19.000Z</time>
      </trkpt>
      <trkpt lat="42.80641" lon="0.53918">
        <ele>975</ele>
        <time>2019-08-08T07:53:20.000Z</time>
      </trkpt>
      <trkpt lat="42.80639" lon="0.53932">
        <ele>973</ele>
        <time>2019-08-08T07:53:21.000Z</time>
      </trkpt>
      <trkpt lat="42.80637" lon="0.53946">
        <ele>973</ele>
        <time>2019-08-08T07:53:22.000Z</time>
      </trkpt>
      <trkpt lat="42.80634" lon="0.53961">
        <ele>972</ele>
        <time>2019-08-08T07:53:23.000Z</time>
      </trkpt>
      <trkpt lat="42.80632" lon="0.53976">
        <ele>972</ele>
        <time>2019-08-08T07:53:24.000Z</time>
      </trkpt>
      <trkpt lat="42.8063" lon="0.53992">
        <ele>970</ele>
        <time>2019-08-08T07:53:25.000Z</time>
      </trkpt>
      <trkpt lat="42.80628" lon="0.54007">
        <ele>970</ele>
        <time>2019-08-08T07:53:26.000Z</time>
      </trkpt>
      <trkpt lat="42.80626" lon="0.54023">
        <ele>970</ele>
        <time>2019-08-08T07:53:27.000Z</time>
      </trkpt>
      <trkpt lat="42.80625" lon="0.54039">
        <ele>970</ele>
        <time>2019-08-08T07:53:28.000Z</time>
      </trkpt>
      <trkpt lat="42.80623" lon="0.54056">
        <ele>967</ele>
        <time>2019-08-08T07:53:29.000Z</time>
      </trkpt>
      <trkpt lat="42.80621" lon="0.54072">
        <ele>967</ele>
        <time>2019-08-08T07:53:30.000Z</time>
      </trkpt>
      <trkpt lat="42.80619" lon="0.54089">
        <ele>965</ele>
        <time>2019-08-08T07:53:31.000Z</time>
      </trkpt>
      <trkpt lat="42.80618" lon="0.54106">
        <ele>965</ele>
        <time>2019-08-08T07:53:32.000Z</time>
      </trkpt>
      <trkpt lat="42.80617" lon="0.54124">
        <ele>964</ele>
        <time>2019-08-08T07:53:33.000Z</time>
      </trkpt>
      <trkpt lat="42.80617" lon="0.54141">
        <ele>964</ele>
        <time>2019-08-08T07:53:34.000Z</time>
      </trkpt>
      <trkpt lat="42.80616" lon="0.54158">
        <ele>962</ele>
        <time>2019-08-08T07:53:35.000Z</time>
      </trkpt>
      <trkpt lat="42.80616" lon="0.54176">
        <ele>962</ele>
        <time>2019-08-08T07:53:36.000Z</time>
      </trkpt>
      <trkpt lat="42.80616" lon="0.54193">
        <ele>961</ele>
        <time>2019-08-08T07:53:37.000Z</time>
      </trkpt>
      <trkpt lat="42.80616" lon="0.5421">
        <ele>961</ele>
        <time>2019-08-08T07:53:38.000Z</time>
      </trkpt>
      <trkpt lat="42.80617" lon="0.54228">
        <ele>961</ele>
        <time>2019-08-08T07:53:39.000Z</time>
      </trkpt>
      <trkpt lat="42.80617" lon="0.54245">
        <ele>958</ele>
        <time>2019-08-08T07:53:40.000Z</time>
      </trkpt>
      <trkpt lat="42.80617" lon="0.54262">
        <ele>957</ele>
        <time>2019-08-08T07:53:41.000Z</time>
      </trkpt>
      <trkpt lat="42.80618" lon="0.54279">
        <ele>957</ele>
        <time>2019-08-08T07:53:42.000Z</time>
      </trkpt>
      <trkpt lat="42.80619" lon="0.54297">
        <ele>957</ele>
        <time>2019-08-08T07:53:43.000Z</time>
      </trkpt>
      <trkpt lat="42.8062" lon="0.54314">
        <ele>957</ele>
        <time>2019-08-08T07:53:44.000Z</time>
      </trkpt>
      <trkpt lat="42.80622" lon="0.54331">
        <ele>955</ele>
        <time>2019-08-08T07:53:45.000Z</time>
      </trkpt>
      <trkpt lat="42.80625" lon="0.54348">
        <ele>955</ele>
        <time>2019-08-08T07:53:46.000Z</time>
      </trkpt>
      <trkpt lat="42.80629" lon="0.54365">
        <ele>952</ele>
        <time>2019-08-08T07:53:47.000Z</time>
      </trkpt>
      <trkpt lat="42.80632" lon="0.54381">
        <ele>952</ele>
        <time>2019-08-08T07:53:48.000Z</time>
      </trkpt>
      <trkpt lat="42.80635" lon="0.54396">
        <ele>951</ele>
        <time>2019-08-08T07:53:49.000Z</time>
      </trkpt>
      <trkpt lat="42.80639" lon="0.5441">
        <ele>951</ele>
        <time>2019-08-08T07:53:50.000Z</time>
      </trkpt>
      <trkpt lat="42.80642" lon="0.54425">
        <ele>950</ele>
        <time>2019-08-08T07:53:51.000Z</time>
      </trkpt>
      <trkpt lat="42.80644" lon="0.5444">
        <ele>950</ele>
        <time>2019-08-08T07:53:52.000Z</time>
      </trkpt>
      <trkpt lat="42.80645" lon="0.54455">
        <ele>949</ele>
        <time>2019-08-08T07:53:53.000Z</time>
      </trkpt>
      <trkpt lat="42.80645" lon="0.5447">
        <ele>949</ele>
        <time>2019-08-08T07:53:54.000Z</time>
      </trkpt>
      <trkpt lat="42.80646" lon="0.54486">
        <ele>947</ele>
        <time>2019-08-08T07:53:55.000Z</time>
      </trkpt>
      <trkpt lat="42.80646" lon="0.54502">
        <ele>947</ele>
        <time>2019-08-08T07:53:56.000Z</time>
      </trkpt>
      <trkpt lat="42.80645" lon="0.54518">
        <ele>947</ele>
        <time>2019-08-08T07:53:57.000Z</time>
      </trkpt>
      <trkpt lat="42.80645" lon="0.54533">
        <ele>945</ele>
        <time>2019-08-08T07:53:58.000Z</time>
      </trkpt>
      <trkpt lat="42.80645" lon="0.54549">
        <ele>945</ele>
        <time>2019-08-08T07:53:59.000Z</time>
      </trkpt>
      <trkpt lat="42.80646" lon="0.54564">
        <ele>945</ele>
        <time>2019-08-08T07:54:00.000Z</time>
      </trkpt>
      <trkpt lat="42.80647" lon="0.54579">
        <ele>945</ele>
        <time>2019-08-08T07:54:01.000Z</time>
      </trkpt>
      <trkpt lat="42.80649" lon="0.54594">
        <ele>944</ele>
        <time>2019-08-08T07:54:02.000Z</time>
      </trkpt>
      <trkpt lat="42.80652" lon="0.54609">
        <ele>944</ele>
        <time>2019-08-08T07:54:03.000Z</time>
      </trkpt>
      <trkpt lat="42.80654" lon="0.54623">
        <ele>943</ele>
        <time>2019-08-08T07:54:04.000Z</time>
      </trkpt>
      <trkpt lat="42.80656" lon="0.54637">
        <ele>943</ele>
        <time>2019-08-08T07:54:05.000Z</time>
      </trkpt>
      <trkpt lat="42.80658" lon="0.54651">
        <ele>943</ele>
        <time>2019-08-08T07:54:06.000Z</time>
      </trkpt>
      <trkpt lat="42.80659" lon="0.54665">
        <ele>943</ele>
        <time>2019-08-08T07:54:07.000Z</time>
      </trkpt>
      <trkpt lat="42.80659" lon="0.54679">
        <ele>943</ele>
        <time>2019-08-08T07:54:08.000Z</time>
      </trkpt>
      <trkpt lat="42.80659" lon="0.54693">
        <ele>943</ele>
        <time>2019-08-08T07:54:09.000Z</time>
      </trkpt>
      <trkpt lat="42.80658" lon="0.54708">
        <ele>941</ele>
        <time>2019-08-08T07:54:10.000Z</time>
      </trkpt>
      <trkpt lat="42.80658" lon="0.54722">
        <ele>941</ele>
        <time>2019-08-08T07:54:11.000Z</time>
      </trkpt>
      <trkpt lat="42.80657" lon="0.54736">
        <ele>940</ele>
        <time>2019-08-08T07:54:12.000Z</time>
      </trkpt>
      <trkpt lat="42.80656" lon="0.54751">
        <ele>940</ele>
        <time>2019-08-08T07:54:13.000Z</time>
      </trkpt>
      <trkpt lat="42.80654" lon="0.54766">
        <ele>939</ele>
        <time>2019-08-08T07:54:14.000Z</time>
      </trkpt>
      <trkpt lat="42.80653" lon="0.5478">
        <ele>939</ele>
        <time>2019-08-08T07:54:15.000Z</time>
      </trkpt>
      <trkpt lat="42.80651" lon="0.54794">
        <ele>936</ele>
        <time>2019-08-08T07:54:16.000Z</time>
      </trkpt>
      <trkpt lat="42.80647" lon="0.54807">
        <ele>936</ele>
        <time>2019-08-08T07:54:17.000Z</time>
      </trkpt>
      <trkpt lat="42.80641" lon="0.54821">
        <ele>935</ele>
        <time>2019-08-08T07:54:18.000Z</time>
      </trkpt>
      <trkpt lat="42.80636" lon="0.54835">
        <ele>935</ele>
        <time>2019-08-08T07:54:19.000Z</time>
      </trkpt>
      <trkpt lat="42.80632" lon="0.5485">
        <ele>933</ele>
        <time>2019-08-08T07:54:20.000Z</time>
      </trkpt>
      <trkpt lat="42.8063" lon="0.54865">
        <ele>933</ele>
        <time>2019-08-08T07:54:21.000Z</time>
      </trkpt>
      <trkpt lat="42.80629" lon="0.54882">
        <ele>931</ele>
        <time>2019-08-08T07:54:22.000Z</time>
      </trkpt>
      <trkpt lat="42.8063" lon="0.54898">
        <ele>931</ele>
        <time>2019-08-08T07:54:23.000Z</time>
      </trkpt>
      <trkpt lat="42.8063" lon="0.54915">
        <ele>929</ele>
        <time>2019-08-08T07:54:24.000Z</time>
      </trkpt>
      <trkpt lat="42.80631" lon="0.54932">
        <ele>929</ele>
        <time>2019-08-08T07:54:25.000Z</time>
      </trkpt>
      <trkpt lat="42.80632" lon="0.54948">
        <ele>927</ele>
        <time>2019-08-08T07:54:26.000Z</time>
      </trkpt>
      <trkpt lat="42.80633" lon="0.54964">
        <ele>927</ele>
        <time>2019-08-08T07:54:27.000Z</time>
      </trkpt>
      <trkpt lat="42.80633" lon="0.54981">
        <ele>926</ele>
        <time>2019-08-08T07:54:28.000Z</time>
      </trkpt>
      <trkpt lat="42.80632" lon="0.54996">
        <ele>926</ele>
        <time>2019-08-08T07:54:29.000Z</time>
      </trkpt>
      <trkpt lat="42.8063" lon="0.55012">
        <ele>925</ele>
        <time>2019-08-08T07:54:30.000Z</time>
      </trkpt>
      <trkpt lat="42.80629" lon="0.55027">
        <ele>925</ele>
        <time>2019-08-08T07:54:31.000Z</time>
      </trkpt>
      <trkpt lat="42.80627" lon="0.55043">
        <ele>922</ele>
        <time>2019-08-08T07:54:32.000Z</time>
      </trkpt>
      <trkpt lat="42.80623" lon="0.55068">
        <ele>922</ele>
        <time>2019-08-08T07:54:33.000Z</time>
      </trkpt>
      <trkpt lat="42.80622" lon="0.55076">
        <ele>921.6</ele>
        <time>2019-08-08T07:54:34.000Z</time>
      </trkpt>
      <trkpt lat="42.80619" lon="0.55093">
        <ele>921</ele>
        <time>2019-08-08T07:54:35.000Z</time>
      </trkpt>
      <trkpt lat="42.80616" lon="0.5511">
        <ele>917</ele>
        <time>2019-08-08T07:54:36.000Z</time>
      </trkpt>
      <trkpt lat="42.80613" lon="0.55128">
        <ele>917</ele>
        <time>2019-08-08T07:54:37.000Z</time>
      </trkpt>
      <trkpt lat="42.80611" lon="0.55145">
        <ele>915</ele>
        <time>2019-08-08T07:54:38.000Z</time>
      </trkpt>
      <trkpt lat="42.80608" lon="0.55163">
        <ele>915</ele>
        <time>2019-08-08T07:54:39.000Z</time>
      </trkpt>
      <trkpt lat="42.80605" lon="0.5518">
        <ele>912</ele>
        <time>2019-08-08T07:54:40.000Z</time>
      </trkpt>
      <trkpt lat="42.80603" lon="0.55198">
        <ele>912</ele>
        <time>2019-08-08T07:54:41.000Z</time>
      </trkpt>
      <trkpt lat="42.806" lon="0.55216">
        <ele>911</ele>
        <time>2019-08-08T07:54:42.000Z</time>
      </trkpt>
      <trkpt lat="42.80598" lon="0.55235">
        <ele>911</ele>
        <time>2019-08-08T07:54:43.000Z</time>
      </trkpt>
      <trkpt lat="42.80596" lon="0.55253">
        <ele>908</ele>
        <time>2019-08-08T07:54:44.000Z</time>
      </trkpt>
      <trkpt lat="42.80595" lon="0.55271">
        <ele>908</ele>
        <time>2019-08-08T07:54:45.000Z</time>
      </trkpt>
      <trkpt lat="42.80595" lon="0.55288">
        <ele>906</ele>
        <time>2019-08-08T07:54:46.000Z</time>
      </trkpt>
      <trkpt lat="42.80595" lon="0.55306">
        <ele>906</ele>
        <time>2019-08-08T07:54:47.000Z</time>
      </trkpt>
      <trkpt lat="42.80595" lon="0.55324">
        <ele>902</ele>
        <time>2019-08-08T07:54:48.000Z</time>
      </trkpt>
      <trkpt lat="42.80596" lon="0.55342">
        <ele>902</ele>
        <time>2019-08-08T07:54:49.000Z</time>
      </trkpt>
      <trkpt lat="42.80597" lon="0.5536">
        <ele>900</ele>
        <time>2019-08-08T07:54:50.000Z</time>
      </trkpt>
      <trkpt lat="42.80599" lon="0.55377">
        <ele>900</ele>
        <time>2019-08-08T07:54:51.000Z</time>
      </trkpt>
      <trkpt lat="42.80603" lon="0.55404">
        <ele>900</ele>
        <time>2019-08-08T07:54:52.000Z</time>
      </trkpt>
      <trkpt lat="42.80604" lon="0.55412">
        <ele>897.6</ele>
        <time>2019-08-08T07:54:53.000Z</time>
      </trkpt>
      <trkpt lat="42.80606" lon="0.5543">
        <ele>895</ele>
        <time>2019-08-08T07:54:54.000Z</time>
      </trkpt>
      <trkpt lat="42.80608" lon="0.55448">
        <ele>892</ele>
        <time>2019-08-08T07:54:55.000Z</time>
      </trkpt>
      <trkpt lat="42.8061" lon="0.55467">
        <ele>892</ele>
        <time>2019-08-08T07:54:56.000Z</time>
      </trkpt>
      <trkpt lat="42.80611" lon="0.55485">
        <ele>891</ele>
        <time>2019-08-08T07:54:57.000Z</time>
      </trkpt>
      <trkpt lat="42.80612" lon="0.55503">
        <ele>891</ele>
        <time>2019-08-08T07:54:58.000Z</time>
      </trkpt>
      <trkpt lat="42.80612" lon="0.55522">
        <ele>888</ele>
        <time>2019-08-08T07:54:59.000Z</time>
      </trkpt>
      <trkpt lat="42.80612" lon="0.55539">
        <ele>888</ele>
        <time>2019-08-08T07:55:00.000Z</time>
      </trkpt>
      <trkpt lat="42.80612" lon="0.55557">
        <ele>886</ele>
        <time>2019-08-08T07:55:01.000Z</time>
      </trkpt>
      <trkpt lat="42.8061" lon="0.55574">
        <ele>886</ele>
        <time>2019-08-08T07:55:02.000Z</time>
      </trkpt>
      <trkpt lat="42.80608" lon="0.55591">
        <ele>885</ele>
        <time>2019-08-08T07:55:03.000Z</time>
      </trkpt>
      <trkpt lat="42.80605" lon="0.55608">
        <ele>885</ele>
        <time>2019-08-08T07:55:04.000Z</time>
      </trkpt>
      <trkpt lat="42.80603" lon="0.55625">
        <ele>883</ele>
        <time>2019-08-08T07:55:05.000Z</time>
      </trkpt>
      <trkpt lat="42.806" lon="0.55643">
        <ele>883</ele>
        <time>2019-08-08T07:55:06.000Z</time>
      </trkpt>
      <trkpt lat="42.80598" lon="0.55661">
        <ele>880</ele>
        <time>2019-08-08T07:55:07.000Z</time>
      </trkpt>
      <trkpt lat="42.80595" lon="0.55679">
        <ele>880</ele>
        <time>2019-08-08T07:55:08.000Z</time>
      </trkpt>
      <trkpt lat="42.80592" lon="0.55695">
        <ele>878</ele>
        <time>2019-08-08T07:55:09.000Z</time>
      </trkpt>
      <trkpt lat="42.80587" lon="0.55712">
        <ele>878</ele>
        <time>2019-08-08T07:55:10.000Z</time>
      </trkpt>
      <trkpt lat="42.8058" lon="0.55736">
        <ele>878</ele>
        <time>2019-08-08T07:55:11.000Z</time>
      </trkpt>
      <trkpt lat="42.80578" lon="0.55744">
        <ele>876</ele>
        <time>2019-08-08T07:55:12.000Z</time>
      </trkpt>
      <trkpt lat="42.80573" lon="0.5576">
        <ele>876</ele>
        <time>2019-08-08T07:55:13.000Z</time>
      </trkpt>
      <trkpt lat="42.80569" lon="0.55775">
        <ele>871</ele>
        <time>2019-08-08T07:55:14.000Z</time>
      </trkpt>
      <trkpt lat="42.80564" lon="0.5579">
        <ele>871</ele>
        <time>2019-08-08T07:55:15.000Z</time>
      </trkpt>
      <trkpt lat="42.80559" lon="0.55805">
        <ele>867</ele>
        <time>2019-08-08T07:55:16.000Z</time>
      </trkpt>
      <trkpt lat="42.80555" lon="0.5582">
        <ele>867</ele>
        <time>2019-08-08T07:55:17.000Z</time>
      </trkpt>
      <trkpt lat="42.80551" lon="0.55834">
        <ele>866</ele>
        <time>2019-08-08T07:55:18.000Z</time>
      </trkpt>
      <trkpt lat="42.80548" lon="0.5585">
        <ele>866</ele>
        <time>2019-08-08T07:55:19.000Z</time>
      </trkpt>
      <trkpt lat="42.80547" lon="0.55865">
        <ele>865</ele>
        <time>2019-08-08T07:55:20.000Z</time>
      </trkpt>
      <trkpt lat="42.80549" lon="0.55881">
        <ele>865</ele>
        <time>2019-08-08T07:55:21.000Z</time>
      </trkpt>
      <trkpt lat="42.80553" lon="0.55895">
        <ele>861</ele>
        <time>2019-08-08T07:55:22.000Z</time>
      </trkpt>
      <trkpt lat="42.80561" lon="0.55908">
        <ele>861</ele>
        <time>2019-08-08T07:55:23.000Z</time>
      </trkpt>
      <trkpt lat="42.8057" lon="0.55917">
        <ele>859</ele>
        <time>2019-08-08T07:55:24.000Z</time>
      </trkpt>
      <trkpt lat="42.8058" lon="0.55926">
        <ele>859</ele>
        <time>2019-08-08T07:55:25.000Z</time>
      </trkpt>
      <trkpt lat="42.8059" lon="0.55933">
        <ele>859</ele>
        <time>2019-08-08T07:55:26.000Z</time>
      </trkpt>
      <trkpt lat="42.806" lon="0.5594">
        <ele>857</ele>
        <time>2019-08-08T07:55:27.000Z</time>
      </trkpt>
      <trkpt lat="42.80609" lon="0.55945">
        <ele>857</ele>
        <time>2019-08-08T07:55:28.000Z</time>
      </trkpt>
      <trkpt lat="42.80617" lon="0.5595">
        <ele>855</ele>
        <time>2019-08-08T07:55:29.000Z</time>
      </trkpt>
      <trkpt lat="42.80626" lon="0.55952">
        <ele>855</ele>
        <time>2019-08-08T07:55:30.000Z</time>
      </trkpt>
      <trkpt lat="42.80634" lon="0.55954">
        <ele>853</ele>
        <time>2019-08-08T07:55:31.000Z</time>
      </trkpt>
      <trkpt lat="42.80642" lon="0.55956">
        <ele>853</ele>
        <time>2019-08-08T07:55:32.000Z</time>
      </trkpt>
      <trkpt lat="42.8065" lon="0.5596">
        <ele>853</ele>
        <time>2019-08-08T07:55:33.000Z</time>
      </trkpt>
      <trkpt lat="42.80656" lon="0.55967">
        <ele>852</ele>
        <time>2019-08-08T07:55:34.000Z</time>
      </trkpt>
      <trkpt lat="42.80659" lon="0.55976">
        <ele>852</ele>
        <time>2019-08-08T07:55:35.000Z</time>
      </trkpt>
      <trkpt lat="42.80654" lon="0.55987">
        <ele>851</ele>
        <time>2019-08-08T07:55:36.000Z</time>
      </trkpt>
      <trkpt lat="42.8065" lon="0.55989">
        <ele>851</ele>
        <time>2019-08-08T07:55:37.000Z</time>
      </trkpt>
      <trkpt lat="42.80644" lon="0.55993">
        <ele>850</ele>
        <time>2019-08-08T07:55:38.000Z</time>
      </trkpt>
      <trkpt lat="42.80636" lon="0.5599">
        <ele>850</ele>
        <time>2019-08-08T07:55:39.000Z</time>
      </trkpt>
      <trkpt lat="42.80628" lon="0.55984">
        <ele>850</ele>
        <time>2019-08-08T07:55:40.000Z</time>
      </trkpt>
      <trkpt lat="42.8062" lon="0.55978">
        <ele>850</ele>
        <time>2019-08-08T07:55:41.000Z</time>
      </trkpt>
      <trkpt lat="42.80611" lon="0.55973">
        <ele>848</ele>
        <time>2019-08-08T07:55:42.000Z</time>
      </trkpt>
      <trkpt lat="42.80601" lon="0.55968">
        <ele>848</ele>
        <time>2019-08-08T07:55:43.000Z</time>
      </trkpt>
      <trkpt lat="42.80591" lon="0.55967">
        <ele>847</ele>
        <time>2019-08-08T07:55:44.000Z</time>
      </trkpt>
      <trkpt lat="42.8058" lon="0.55966">
        <ele>847</ele>
        <time>2019-08-08T07:55:45.000Z</time>
      </trkpt>
      <trkpt lat="42.80569" lon="0.55965">
        <ele>845</ele>
        <time>2019-08-08T07:55:46.000Z</time>
      </trkpt>
      <trkpt lat="42.80557" lon="0.55965">
        <ele>845</ele>
        <time>2019-08-08T07:55:47.000Z</time>
      </trkpt>
      <trkpt lat="42.80545" lon="0.55965">
        <ele>840</ele>
        <time>2019-08-08T07:55:48.000Z</time>
      </trkpt>
      <trkpt lat="42.80533" lon="0.55968">
        <ele>840</ele>
        <time>2019-08-08T07:55:49.000Z</time>
      </trkpt>
      <trkpt lat="42.80522" lon="0.55973">
        <ele>839</ele>
        <time>2019-08-08T07:55:50.000Z</time>
      </trkpt>
      <trkpt lat="42.80512" lon="0.5598">
        <ele>839</ele>
        <time>2019-08-08T07:55:51.000Z</time>
      </trkpt>
      <trkpt lat="42.80502" lon="0.55987">
        <ele>839</ele>
        <time>2019-08-08T07:55:52.000Z</time>
      </trkpt>
      <trkpt lat="42.80493" lon="0.55991">
        <ele>837</ele>
        <time>2019-08-08T07:55:53.000Z</time>
      </trkpt>
      <trkpt lat="42.80484" lon="0.55993">
        <ele>837</ele>
        <time>2019-08-08T07:55:54.000Z</time>
      </trkpt>
      <trkpt lat="42.80475" lon="0.55993">
        <ele>836</ele>
        <time>2019-08-08T07:55:55.000Z</time>
      </trkpt>
      <trkpt lat="42.80467" lon="0.55996">
        <ele>836</ele>
        <time>2019-08-08T07:55:56.000Z</time>
      </trkpt>
      <trkpt lat="42.80461" lon="0.56003">
        <ele>836</ele>
        <time>2019-08-08T07:55:57.000Z</time>
      </trkpt>
      <trkpt lat="42.80458" lon="0.56012">
        <ele>836</ele>
        <time>2019-08-08T07:55:58.000Z</time>
      </trkpt>
      <trkpt lat="42.8046" lon="0.56023">
        <ele>835</ele>
        <time>2019-08-08T07:55:59.000Z</time>
      </trkpt>
      <trkpt lat="42.80466" lon="0.5603">
        <ele>835</ele>
        <time>2019-08-08T07:56:00.000Z</time>
      </trkpt>
      <trkpt lat="42.80474" lon="0.56033">
        <ele>833</ele>
        <time>2019-08-08T07:56:01.000Z</time>
      </trkpt>
      <trkpt lat="42.80484" lon="0.56029">
        <ele>833</ele>
        <time>2019-08-08T07:56:02.000Z</time>
      </trkpt>
      <trkpt lat="42.80491" lon="0.56023">
        <ele>832</ele>
        <time>2019-08-08T07:56:03.000Z</time>
      </trkpt>
      <trkpt lat="42.80499" lon="0.56015">
        <ele>832</ele>
        <time>2019-08-08T07:56:04.000Z</time>
      </trkpt>
      <trkpt lat="42.80508" lon="0.56009">
        <ele>831</ele>
        <time>2019-08-08T07:56:05.000Z</time>
      </trkpt>
      <trkpt lat="42.80517" lon="0.56004">
        <ele>831</ele>
        <time>2019-08-08T07:56:06.000Z</time>
      </trkpt>
      <trkpt lat="42.80526" lon="0.56003">
        <ele>831</ele>
        <time>2019-08-08T07:56:07.000Z</time>
      </trkpt>
      <trkpt lat="42.80536" lon="0.56004">
        <ele>831</ele>
        <time>2019-08-08T07:56:08.000Z</time>
      </trkpt>
      <trkpt lat="42.80546" lon="0.56007">
        <ele>828</ele>
        <time>2019-08-08T07:56:09.000Z</time>
      </trkpt>
      <trkpt lat="42.80555" lon="0.5601">
        <ele>828</ele>
        <time>2019-08-08T07:56:10.000Z</time>
      </trkpt>
      <trkpt lat="42.80565" lon="0.56013">
        <ele>825</ele>
        <time>2019-08-08T07:56:11.000Z</time>
      </trkpt>
      <trkpt lat="42.80576" lon="0.56016">
        <ele>825</ele>
        <time>2019-08-08T07:56:12.000Z</time>
      </trkpt>
      <trkpt lat="42.80586" lon="0.56021">
        <ele>824</ele>
        <time>2019-08-08T07:56:13.000Z</time>
      </trkpt>
      <trkpt lat="42.80596" lon="0.56026">
        <ele>824</ele>
        <time>2019-08-08T07:56:14.000Z</time>
      </trkpt>
      <trkpt lat="42.80607" lon="0.56033">
        <ele>824</ele>
        <time>2019-08-08T07:56:15.000Z</time>
      </trkpt>
      <trkpt lat="42.80616" lon="0.5604">
        <ele>823</ele>
        <time>2019-08-08T07:56:16.000Z</time>
      </trkpt>
      <trkpt lat="42.80624" lon="0.56049">
        <ele>823</ele>
        <time>2019-08-08T07:56:17.000Z</time>
      </trkpt>
      <trkpt lat="42.80632" lon="0.56065">
        <ele>822</ele>
        <time>2019-08-08T07:56:18.000Z</time>
      </trkpt>
      <trkpt lat="42.80633" lon="0.56071">
        <ele>822</ele>
        <time>2019-08-08T07:56:19.000Z</time>
      </trkpt>
      <trkpt lat="42.80634" lon="0.56086">
        <ele>822</ele>
        <time>2019-08-08T07:56:20.000Z</time>
      </trkpt>
      <trkpt lat="42.80632" lon="0.56091">
        <ele>822</ele>
        <time>2019-08-08T07:56:21.000Z</time>
      </trkpt>
      <trkpt lat="42.80627" lon="0.56101">
        <ele>822</ele>
        <time>2019-08-08T07:56:22.000Z</time>
      </trkpt>
      <trkpt lat="42.80616" lon="0.56103">
        <ele>822</ele>
        <time>2019-08-08T07:56:23.000Z</time>
      </trkpt>
      <trkpt lat="42.80603" lon="0.56102">
        <ele>820</ele>
        <time>2019-08-08T07:56:24.000Z</time>
      </trkpt>
      <trkpt lat="42.80591" lon="0.56101">
        <ele>820</ele>
        <time>2019-08-08T07:56:25.000Z</time>
      </trkpt>
      <trkpt lat="42.80579" lon="0.56102">
        <ele>817</ele>
        <time>2019-08-08T07:56:26.000Z</time>
      </trkpt>
      <trkpt lat="42.80566" lon="0.56103">
        <ele>817</ele>
        <time>2019-08-08T07:56:27.000Z</time>
      </trkpt>
      <trkpt lat="42.80553" lon="0.56105">
        <ele>815</ele>
        <time>2019-08-08T07:56:28.000Z</time>
      </trkpt>
      <trkpt lat="42.80541" lon="0.56109">
        <ele>815</ele>
        <time>2019-08-08T07:56:29.000Z</time>
      </trkpt>
      <trkpt lat="42.80529" lon="0.56116">
        <ele>812</ele>
        <time>2019-08-08T07:56:30.000Z</time>
      </trkpt>
      <trkpt lat="42.80517" lon="0.56124">
        <ele>812</ele>
        <time>2019-08-08T07:56:31.000Z</time>
      </trkpt>
      <trkpt lat="42.80505" lon="0.56132">
        <ele>812</ele>
        <time>2019-08-08T07:56:32.000Z</time>
      </trkpt>
      <trkpt lat="42.80493" lon="0.56141">
        <ele>809</ele>
        <time>2019-08-08T07:56:33.000Z</time>
      </trkpt>
      <trkpt lat="42.8048" lon="0.5615">
        <ele>809</ele>
        <time>2019-08-08T07:56:34.000Z</time>
      </trkpt>
      <trkpt lat="42.80468" lon="0.56158">
        <ele>804</ele>
        <time>2019-08-08T07:56:35.000Z</time>
      </trkpt>
      <trkpt lat="42.80455" lon="0.56166">
        <ele>804</ele>
        <time>2019-08-08T07:56:36.000Z</time>
      </trkpt>
      <trkpt lat="42.80442" lon="0.56173">
        <ele>803</ele>
        <time>2019-08-08T07:56:37.000Z</time>
      </trkpt>
      <trkpt lat="42.80428" lon="0.5618">
        <ele>803</ele>
        <time>2019-08-08T07:56:38.000Z</time>
      </trkpt>
      <trkpt lat="42.80415" lon="0.56186">
        <ele>800</ele>
        <time>2019-08-08T07:56:39.000Z</time>
      </trkpt>
      <trkpt lat="42.80401" lon="0.5619">
        <ele>800</ele>
        <time>2019-08-08T07:56:40.000Z</time>
      </trkpt>
      <trkpt lat="42.80386" lon="0.56191">
        <ele>798</ele>
        <time>2019-08-08T07:56:41.000Z</time>
      </trkpt>
      <trkpt lat="42.80373" lon="0.56191">
        <ele>798</ele>
        <time>2019-08-08T07:56:42.000Z</time>
      </trkpt>
      <trkpt lat="42.80359" lon="0.56191">
        <ele>795</ele>
        <time>2019-08-08T07:56:43.000Z</time>
      </trkpt>
      <trkpt lat="42.80346" lon="0.56193">
        <ele>795</ele>
        <time>2019-08-08T07:56:44.000Z</time>
      </trkpt>
      <trkpt lat="42.80334" lon="0.562">
        <ele>795</ele>
        <time>2019-08-08T07:56:45.000Z</time>
      </trkpt>
      <trkpt lat="42.80323" lon="0.56208">
        <ele>795</ele>
        <time>2019-08-08T07:56:46.000Z</time>
      </trkpt>
      <trkpt lat="42.80313" lon="0.56221">
        <ele>792</ele>
        <time>2019-08-08T07:56:47.000Z</time>
      </trkpt>
      <trkpt lat="42.80306" lon="0.56235">
        <ele>792</ele>
        <time>2019-08-08T07:56:48.000Z</time>
      </trkpt>
      <trkpt lat="42.803" lon="0.5625">
        <ele>792</ele>
        <time>2019-08-08T07:56:49.000Z</time>
      </trkpt>
      <trkpt lat="42.80293" lon="0.56265">
        <ele>789</ele>
        <time>2019-08-08T07:56:50.000Z</time>
      </trkpt>
      <trkpt lat="42.80285" lon="0.56281">
        <ele>789</ele>
        <time>2019-08-08T07:56:51.000Z</time>
      </trkpt>
      <trkpt lat="42.80277" lon="0.56295">
        <ele>788</ele>
        <time>2019-08-08T07:56:52.000Z</time>
      </trkpt>
      <trkpt lat="42.80268" lon="0.56308">
        <ele>788</ele>
        <time>2019-08-08T07:56:53.000Z</time>
      </trkpt>
      <trkpt lat="42.80258" lon="0.56321">
        <ele>786</ele>
        <time>2019-08-08T07:56:54.000Z</time>
      </trkpt>
      <trkpt lat="42.80249" lon="0.56333">
        <ele>786</ele>
        <time>2019-08-08T07:56:55.000Z</time>
      </trkpt>
      <trkpt lat="42.8024" lon="0.56344">
        <ele>785</ele>
        <time>2019-08-08T07:56:56.000Z</time>
      </trkpt>
      <trkpt lat="42.80231" lon="0.56356">
        <ele>785</ele>
        <time>2019-08-08T07:56:57.000Z</time>
      </trkpt>
      <trkpt lat="42.80223" lon="0.56367">
        <ele>784</ele>
        <time>2019-08-08T07:56:58.000Z</time>
      </trkpt>
      <trkpt lat="42.80215" lon="0.56378">
        <ele>784</ele>
        <time>2019-08-08T07:56:59.000Z</time>
      </trkpt>
      <trkpt lat="42.80206" lon="0.56389">
        <ele>783</ele>
        <time>2019-08-08T07:57:00.000Z</time>
      </trkpt>
      <trkpt lat="42.80198" lon="0.56401">
        <ele>783</ele>
        <time>2019-08-08T07:57:01.000Z</time>
      </trkpt>
      <trkpt lat="42.8019" lon="0.56412">
        <ele>781</ele>
        <time>2019-08-08T07:57:02.000Z</time>
      </trkpt>
      <trkpt lat="42.80181" lon="0.56423">
        <ele>781</ele>
        <time>2019-08-08T07:57:03.000Z</time>
      </trkpt>
      <trkpt lat="42.80173" lon="0.56434">
        <ele>779</ele>
        <time>2019-08-08T07:57:04.000Z</time>
      </trkpt>
      <trkpt lat="42.80164" lon="0.56446">
        <ele>779</ele>
        <time>2019-08-08T07:57:05.000Z</time>
      </trkpt>
      <trkpt lat="42.80155" lon="0.56457">
        <ele>779</ele>
        <time>2019-08-08T07:57:06.000Z</time>
      </trkpt>
      <trkpt lat="42.80146" lon="0.56467">
        <ele>779</ele>
        <time>2019-08-08T07:57:07.000Z</time>
      </trkpt>
      <trkpt lat="42.80137" lon="0.56478">
        <ele>777</ele>
        <time>2019-08-08T07:57:08.000Z</time>
      </trkpt>
      <trkpt lat="42.80127" lon="0.56487">
        <ele>777</ele>
        <time>2019-08-08T07:57:09.000Z</time>
      </trkpt>
      <trkpt lat="42.80116" lon="0.56497">
        <ele>774</ele>
        <time>2019-08-08T07:57:10.000Z</time>
      </trkpt>
      <trkpt lat="42.80105" lon="0.56506">
        <ele>774</ele>
        <time>2019-08-08T07:57:11.000Z</time>
      </trkpt>
      <trkpt lat="42.80094" lon="0.56514">
        <ele>773</ele>
        <time>2019-08-08T07:57:12.000Z</time>
      </trkpt>
      <trkpt lat="42.80083" lon="0.56521">
        <ele>773</ele>
        <time>2019-08-08T07:57:13.000Z</time>
      </trkpt>
      <trkpt lat="42.80071" lon="0.56527">
        <ele>773</ele>
        <time>2019-08-08T07:57:14.000Z</time>
      </trkpt>
      <trkpt lat="42.80059" lon="0.56532">
        <ele>773</ele>
        <time>2019-08-08T07:57:15.000Z</time>
      </trkpt>
      <trkpt lat="42.80048" lon="0.56536">
        <ele>773</ele>
        <time>2019-08-08T07:57:16.000Z</time>
      </trkpt>
      <trkpt lat="42.80038" lon="0.5654">
        <ele>773</ele>
        <time>2019-08-08T07:57:17.000Z</time>
      </trkpt>
      <trkpt lat="42.80027" lon="0.56544">
        <ele>774</ele>
        <time>2019-08-08T07:57:18.000Z</time>
      </trkpt>
      <trkpt lat="42.80016" lon="0.56547">
        <ele>774</ele>
        <time>2019-08-08T07:57:19.000Z</time>
      </trkpt>
      <trkpt lat="42.80005" lon="0.56549">
        <ele>774</ele>
        <time>2019-08-08T07:57:20.000Z</time>
      </trkpt>
      <trkpt lat="42.79995" lon="0.56551">
        <ele>774</ele>
        <time>2019-08-08T07:57:21.000Z</time>
      </trkpt>
      <trkpt lat="42.79981" lon="0.56556">
        <ele>774</ele>
        <time>2019-08-08T07:57:22.000Z</time>
      </trkpt>
      <trkpt lat="42.79977" lon="0.56558">
        <ele>774</ele>
        <time>2019-08-08T07:57:23.000Z</time>
      </trkpt>
      <trkpt lat="42.79969" lon="0.56561">
        <ele>775</ele>
        <time>2019-08-08T07:57:24.000Z</time>
      </trkpt>
      <trkpt lat="42.7996" lon="0.56564">
        <ele>775</ele>
        <time>2019-08-08T07:57:25.000Z</time>
      </trkpt>
      <trkpt lat="42.79948" lon="0.56572">
        <ele>775</ele>
        <time>2019-08-08T07:57:26.000Z</time>
      </trkpt>
      <trkpt lat="42.79944" lon="0.56576">
        <ele>775</ele>
        <time>2019-08-08T07:57:27.000Z</time>
      </trkpt>
      <trkpt lat="42.79934" lon="0.56586">
        <ele>775</ele>
        <time>2019-08-08T07:57:28.000Z</time>
      </trkpt>
      <trkpt lat="42.7993" lon="0.56589">
        <ele>776</ele>
        <time>2019-08-08T07:57:29.000Z</time>
      </trkpt>
      <trkpt lat="42.7992" lon="0.56598">
        <ele>776</ele>
        <time>2019-08-08T07:57:30.000Z</time>
      </trkpt>
      <trkpt lat="42.79916" lon="0.56602">
        <ele>777</ele>
        <time>2019-08-08T07:57:31.000Z</time>
      </trkpt>
      <trkpt lat="42.79906" lon="0.56611">
        <ele>777</ele>
        <time>2019-08-08T07:57:32.000Z</time>
      </trkpt>
      <trkpt lat="42.79903" lon="0.56614">
        <ele>777</ele>
        <time>2019-08-08T07:57:33.000Z</time>
      </trkpt>
      <trkpt lat="42.79892" lon="0.56622">
        <ele>777</ele>
        <time>2019-08-08T07:57:34.000Z</time>
      </trkpt>
      <trkpt lat="42.79889" lon="0.56624">
        <ele>777</ele>
        <time>2019-08-08T07:57:35.000Z</time>
      </trkpt>
      <trkpt lat="42.79878" lon="0.56631">
        <ele>777</ele>
        <time>2019-08-08T07:57:36.000Z</time>
      </trkpt>
      <trkpt lat="42.79875" lon="0.56633">
        <ele>777</ele>
        <time>2019-08-08T07:57:37.000Z</time>
      </trkpt>
      <trkpt lat="42.79866" lon="0.56638">
        <ele>777</ele>
        <time>2019-08-08T07:57:38.000Z</time>
      </trkpt>
      <trkpt lat="42.79862" lon="0.56639">
        <ele>778</ele>
        <time>2019-08-08T07:57:39.000Z</time>
      </trkpt>
      <trkpt lat="42.79852" lon="0.56642">
        <ele>778</ele>
        <time>2019-08-08T07:57:40.000Z</time>
      </trkpt>
      <trkpt lat="42.79849" lon="0.56644">
        <ele>779</ele>
        <time>2019-08-08T07:57:41.000Z</time>
      </trkpt>
      <trkpt lat="42.79839" lon="0.56647">
        <ele>779</ele>
        <time>2019-08-08T07:57:42.000Z</time>
      </trkpt>
      <trkpt lat="42.79836" lon="0.56649">
        <ele>779</ele>
        <time>2019-08-08T07:57:43.000Z</time>
      </trkpt>
      <trkpt lat="42.79827" lon="0.56652">
        <ele>779</ele>
        <time>2019-08-08T07:57:44.000Z</time>
      </trkpt>
      <trkpt lat="42.79824" lon="0.56653">
        <ele>780</ele>
        <time>2019-08-08T07:57:45.000Z</time>
      </trkpt>
      <trkpt lat="42.79816" lon="0.56654">
        <ele>780</ele>
        <time>2019-08-08T07:57:46.000Z</time>
      </trkpt>
      <trkpt lat="42.79813" lon="0.56654">
        <ele>780</ele>
        <time>2019-08-08T07:57:47.000Z</time>
      </trkpt>
      <trkpt lat="42.79805" lon="0.56654">
        <ele>780</ele>
        <time>2019-08-08T07:57:48.000Z</time>
      </trkpt>
      <trkpt lat="42.79801" lon="0.56653">
        <ele>780</ele>
        <time>2019-08-08T07:57:49.000Z</time>
      </trkpt>
      <trkpt lat="42.79795" lon="0.56652">
        <ele>780</ele>
        <time>2019-08-08T07:57:50.000Z</time>
      </trkpt>
      <trkpt lat="42.79788" lon="0.56651">
        <ele>780</ele>
        <time>2019-08-08T07:57:51.000Z</time>
      </trkpt>
      <trkpt lat="42.79782" lon="0.56653">
        <ele>780</ele>
        <time>2019-08-08T07:57:52.000Z</time>
      </trkpt>
      <trkpt lat="42.79773" lon="0.56658">
        <ele>780</ele>
        <time>2019-08-08T07:57:53.000Z</time>
      </trkpt>
      <trkpt lat="42.79769" lon="0.56661">
        <ele>780</ele>
        <time>2019-08-08T07:57:54.000Z</time>
      </trkpt>
      <trkpt lat="42.7976" lon="0.5667">
        <ele>779</ele>
        <time>2019-08-08T07:57:55.000Z</time>
      </trkpt>
      <trkpt lat="42.79757" lon="0.56675">
        <ele>779</ele>
        <time>2019-08-08T07:57:56.000Z</time>
      </trkpt>
      <trkpt lat="42.79751" lon="0.56683">
        <ele>778</ele>
        <time>2019-08-08T07:57:57.000Z</time>
      </trkpt>
      <trkpt lat="42.79746" lon="0.56692">
        <ele>778</ele>
        <time>2019-08-08T07:57:58.000Z</time>
      </trkpt>
      <trkpt lat="42.79741" lon="0.56708">
        <ele>777</ele>
        <time>2019-08-08T07:57:59.000Z</time>
      </trkpt>
      <trkpt lat="42.79739" lon="0.56713">
        <ele>777</ele>
        <time>2019-08-08T07:58:00.000Z</time>
      </trkpt>
      <trkpt lat="42.79736" lon="0.56724">
        <ele>777</ele>
        <time>2019-08-08T07:58:01.000Z</time>
      </trkpt>
      <trkpt lat="42.79733" lon="0.56736">
        <ele>777</ele>
        <time>2019-08-08T07:58:02.000Z</time>
      </trkpt>
      <trkpt lat="42.79729" lon="0.56748">
        <ele>776</ele>
        <time>2019-08-08T07:58:03.000Z</time>
      </trkpt>
      <trkpt lat="42.79725" lon="0.5676">
        <ele>776</ele>
        <time>2019-08-08T07:58:04.000Z</time>
      </trkpt>
      <trkpt lat="42.79719" lon="0.56775">
        <ele>775</ele>
        <time>2019-08-08T07:58:05.000Z</time>
      </trkpt>
      <trkpt lat="42.79717" lon="0.56779">
        <ele>775</ele>
        <time>2019-08-08T07:58:06.000Z</time>
      </trkpt>
      <trkpt lat="42.79712" lon="0.56788">
        <ele>774</ele>
        <time>2019-08-08T07:58:07.000Z</time>
      </trkpt>
      <trkpt lat="42.79706" lon="0.56797">
        <ele>774</ele>
        <time>2019-08-08T07:58:08.000Z</time>
      </trkpt>
      <trkpt lat="42.797" lon="0.56807">
        <ele>774</ele>
        <time>2019-08-08T07:58:09.000Z</time>
      </trkpt>
      <trkpt lat="42.79694" lon="0.56818">
        <ele>774</ele>
        <time>2019-08-08T07:58:10.000Z</time>
      </trkpt>
      <trkpt lat="42.79689" lon="0.56829">
        <ele>774</ele>
        <time>2019-08-08T07:58:11.000Z</time>
      </trkpt>
      <trkpt lat="42.79684" lon="0.5684">
        <ele>774</ele>
        <time>2019-08-08T07:58:12.000Z</time>
      </trkpt>
      <trkpt lat="42.79679" lon="0.56851">
        <ele>774</ele>
        <time>2019-08-08T07:58:13.000Z</time>
      </trkpt>
      <trkpt lat="42.79674" lon="0.56861">
        <ele>774</ele>
        <time>2019-08-08T07:58:14.000Z</time>
      </trkpt>
      <trkpt lat="42.79669" lon="0.56872">
        <ele>772</ele>
        <time>2019-08-08T07:58:15.000Z</time>
      </trkpt>
      <trkpt lat="42.79665" lon="0.56884">
        <ele>772</ele>
        <time>2019-08-08T07:58:16.000Z</time>
      </trkpt>
      <trkpt lat="42.79661" lon="0.56896">
        <ele>771</ele>
        <time>2019-08-08T07:58:17.000Z</time>
      </trkpt>
      <trkpt lat="42.79658" lon="0.56908">
        <ele>771</ele>
        <time>2019-08-08T07:58:18.000Z</time>
      </trkpt>
      <trkpt lat="42.79654" lon="0.5692">
        <ele>771</ele>
        <time>2019-08-08T07:58:19.000Z</time>
      </trkpt>
      <trkpt lat="42.7965" lon="0.56932">
        <ele>771</ele>
        <time>2019-08-08T07:58:20.000Z</time>
      </trkpt>
      <trkpt lat="42.79646" lon="0.56944">
        <ele>771</ele>
        <time>2019-08-08T07:58:21.000Z</time>
      </trkpt>
      <trkpt lat="42.79642" lon="0.56956">
        <ele>771</ele>
        <time>2019-08-08T07:58:22.000Z</time>
      </trkpt>
      <trkpt lat="42.79639" lon="0.56967">
        <ele>771</ele>
        <time>2019-08-08T07:58:23.000Z</time>
      </trkpt>
      <trkpt lat="42.79635" lon="0.56979">
        <ele>771</ele>
        <time>2019-08-08T07:58:24.000Z</time>
      </trkpt>
      <trkpt lat="42.79632" lon="0.56991">
        <ele>771</ele>
        <time>2019-08-08T07:58:25.000Z</time>
      </trkpt>
      <trkpt lat="42.79629" lon="0.57003">
        <ele>770</ele>
        <time>2019-08-08T07:58:26.000Z</time>
      </trkpt>
      <trkpt lat="42.79625" lon="0.57015">
        <ele>769</ele>
        <time>2019-08-08T07:58:27.000Z</time>
      </trkpt>
      <trkpt lat="42.79622" lon="0.57034">
        <ele>769</ele>
        <time>2019-08-08T07:58:28.000Z</time>
      </trkpt>
      <trkpt lat="42.79622" lon="0.5704">
        <ele>769</ele>
        <time>2019-08-08T07:58:29.000Z</time>
      </trkpt>
      <trkpt lat="42.7962" lon="0.57052">
        <ele>769</ele>
        <time>2019-08-08T07:58:30.000Z</time>
      </trkpt>
      <trkpt lat="42.79622" lon="0.57064">
        <ele>769</ele>
        <time>2019-08-08T07:58:31.000Z</time>
      </trkpt>
      <trkpt lat="42.79625" lon="0.57076">
        <ele>768</ele>
        <time>2019-08-08T07:58:32.000Z</time>
      </trkpt>
      <trkpt lat="42.79628" lon="0.57088">
        <ele>768</ele>
        <time>2019-08-08T07:58:33.000Z</time>
      </trkpt>
      <trkpt lat="42.79632" lon="0.571">
        <ele>768</ele>
        <time>2019-08-08T07:58:34.000Z</time>
      </trkpt>
      <trkpt lat="42.79638" lon="0.5712">
        <ele>768</ele>
        <time>2019-08-08T07:58:35.000Z</time>
      </trkpt>
      <trkpt lat="42.7964" lon="0.57126">
        <ele>766</ele>
        <time>2019-08-08T07:58:36.000Z</time>
      </trkpt>
      <trkpt lat="42.79644" lon="0.57139">
        <ele>765</ele>
        <time>2019-08-08T07:58:37.000Z</time>
      </trkpt>
      <trkpt lat="42.79648" lon="0.57153">
        <ele>765</ele>
        <time>2019-08-08T07:58:38.000Z</time>
      </trkpt>
      <trkpt lat="42.79651" lon="0.57167">
        <ele>764</ele>
        <time>2019-08-08T07:58:39.000Z</time>
      </trkpt>
      <trkpt lat="42.79654" lon="0.57182">
        <ele>764</ele>
        <time>2019-08-08T07:58:40.000Z</time>
      </trkpt>
      <trkpt lat="42.79655" lon="0.57198">
        <ele>762</ele>
        <time>2019-08-08T07:58:41.000Z</time>
      </trkpt>
      <trkpt lat="42.79656" lon="0.57214">
        <ele>762</ele>
        <time>2019-08-08T07:58:42.000Z</time>
      </trkpt>
      <trkpt lat="42.79655" lon="0.57231">
        <ele>762</ele>
        <time>2019-08-08T07:58:43.000Z</time>
      </trkpt>
      <trkpt lat="42.79654" lon="0.57247">
        <ele>759</ele>
        <time>2019-08-08T07:58:44.000Z</time>
      </trkpt>
      <trkpt lat="42.79652" lon="0.57263">
        <ele>759</ele>
        <time>2019-08-08T07:58:45.000Z</time>
      </trkpt>
      <trkpt lat="42.7965" lon="0.57279">
        <ele>755</ele>
        <time>2019-08-08T07:58:46.000Z</time>
      </trkpt>
      <trkpt lat="42.79647" lon="0.57295">
        <ele>755</ele>
        <time>2019-08-08T07:58:47.000Z</time>
      </trkpt>
      <trkpt lat="42.79644" lon="0.5731">
        <ele>754</ele>
        <time>2019-08-08T07:58:48.000Z</time>
      </trkpt>
      <trkpt lat="42.79642" lon="0.57327">
        <ele>754</ele>
        <time>2019-08-08T07:58:49.000Z</time>
      </trkpt>
      <trkpt lat="42.79639" lon="0.57344">
        <ele>754</ele>
        <time>2019-08-08T07:58:50.000Z</time>
      </trkpt>
      <trkpt lat="42.79636" lon="0.5736">
        <ele>754</ele>
        <time>2019-08-08T07:58:51.000Z</time>
      </trkpt>
      <trkpt lat="42.79631" lon="0.57376">
        <ele>750</ele>
        <time>2019-08-08T07:58:52.000Z</time>
      </trkpt>
      <trkpt lat="42.79626" lon="0.57394">
        <ele>750</ele>
        <time>2019-08-08T07:58:53.000Z</time>
      </trkpt>
      <trkpt lat="42.79622" lon="0.5741">
        <ele>749</ele>
        <time>2019-08-08T07:58:54.000Z</time>
      </trkpt>
      <trkpt lat="42.79617" lon="0.57427">
        <ele>749</ele>
        <time>2019-08-08T07:58:55.000Z</time>
      </trkpt>
      <trkpt lat="42.79612" lon="0.57444">
        <ele>744</ele>
        <time>2019-08-08T07:58:56.000Z</time>
      </trkpt>
      <trkpt lat="42.79608" lon="0.57462">
        <ele>742</ele>
        <time>2019-08-08T07:58:57.000Z</time>
      </trkpt>
      <trkpt lat="42.79604" lon="0.5748">
        <ele>742</ele>
        <time>2019-08-08T07:58:58.000Z</time>
      </trkpt>
      <trkpt lat="42.79598" lon="0.57508">
        <ele>742</ele>
        <time>2019-08-08T07:58:59.000Z</time>
      </trkpt>
      <trkpt lat="42.79596" lon="0.57517">
        <ele>741</ele>
        <time>2019-08-08T07:59:00.000Z</time>
      </trkpt>
      <trkpt lat="42.79591" lon="0.57536">
        <ele>741</ele>
        <time>2019-08-08T07:59:01.000Z</time>
      </trkpt>
      <trkpt lat="42.79586" lon="0.57555">
        <ele>738</ele>
        <time>2019-08-08T07:59:02.000Z</time>
      </trkpt>
      <trkpt lat="42.79583" lon="0.57573">
        <ele>738</ele>
        <time>2019-08-08T07:59:03.000Z</time>
      </trkpt>
      <trkpt lat="42.79583" lon="0.5759">
        <ele>735</ele>
        <time>2019-08-08T07:59:04.000Z</time>
      </trkpt>
      <trkpt lat="42.79585" lon="0.57608">
        <ele>735</ele>
        <time>2019-08-08T07:59:05.000Z</time>
      </trkpt>
      <trkpt lat="42.79585" lon="0.57626">
        <ele>734</ele>
        <time>2019-08-08T07:59:06.000Z</time>
      </trkpt>
      <trkpt lat="42.79585" lon="0.57644">
        <ele>734</ele>
        <time>2019-08-08T07:59:07.000Z</time>
      </trkpt>
      <trkpt lat="42.79584" lon="0.57662">
        <ele>731</ele>
        <time>2019-08-08T07:59:08.000Z</time>
      </trkpt>
      <trkpt lat="42.79582" lon="0.5768">
        <ele>731</ele>
        <time>2019-08-08T07:59:09.000Z</time>
      </trkpt>
      <trkpt lat="42.79581" lon="0.57699">
        <ele>729</ele>
        <time>2019-08-08T07:59:10.000Z</time>
      </trkpt>
      <trkpt lat="42.79578" lon="0.57718">
        <ele>729</ele>
        <time>2019-08-08T07:59:11.000Z</time>
      </trkpt>
      <trkpt lat="42.79573" lon="0.57737">
        <ele>725</ele>
        <time>2019-08-08T07:59:12.000Z</time>
      </trkpt>
      <trkpt lat="42.79566" lon="0.57754">
        <ele>725</ele>
        <time>2019-08-08T07:59:13.000Z</time>
      </trkpt>
      <trkpt lat="42.79557" lon="0.57771">
        <ele>722</ele>
        <time>2019-08-08T07:59:14.000Z</time>
      </trkpt>
      <trkpt lat="42.79548" lon="0.57789">
        <ele>722</ele>
        <time>2019-08-08T07:59:15.000Z</time>
      </trkpt>
      <trkpt lat="42.7954" lon="0.57806">
        <ele>721</ele>
        <time>2019-08-08T07:59:16.000Z</time>
      </trkpt>
      <trkpt lat="42.79531" lon="0.57823">
        <ele>721</ele>
        <time>2019-08-08T07:59:17.000Z</time>
      </trkpt>
      <trkpt lat="42.79523" lon="0.5784">
        <ele>721</ele>
        <time>2019-08-08T07:59:18.000Z</time>
      </trkpt>
      <trkpt lat="42.79514" lon="0.57856">
        <ele>716</ele>
        <time>2019-08-08T07:59:19.000Z</time>
      </trkpt>
      <trkpt lat="42.79504" lon="0.5787">
        <ele>716</ele>
        <time>2019-08-08T07:59:20.000Z</time>
      </trkpt>
      <trkpt lat="42.79494" lon="0.57885">
        <ele>716</ele>
        <time>2019-08-08T07:59:21.000Z</time>
      </trkpt>
      <trkpt lat="42.79484" lon="0.57898">
        <ele>712</ele>
        <time>2019-08-08T07:59:22.000Z</time>
      </trkpt>
      <trkpt lat="42.79474" lon="0.57912">
        <ele>712</ele>
        <time>2019-08-08T07:59:23.000Z</time>
      </trkpt>
      <trkpt lat="42.79464" lon="0.57925">
        <ele>708</ele>
        <time>2019-08-08T07:59:24.000Z</time>
      </trkpt>
      <trkpt lat="42.79456" lon="0.57939">
        <ele>708</ele>
        <time>2019-08-08T07:59:25.000Z</time>
      </trkpt>
      <trkpt lat="42.7945" lon="0.57955">
        <ele>708</ele>
        <time>2019-08-08T07:59:26.000Z</time>
      </trkpt>
      <trkpt lat="42.79445" lon="0.57972">
        <ele>705</ele>
        <time>2019-08-08T07:59:27.000Z</time>
      </trkpt>
      <trkpt lat="42.79442" lon="0.5799">
        <ele>705</ele>
        <time>2019-08-08T07:59:28.000Z</time>
      </trkpt>
      <trkpt lat="42.79438" lon="0.58007">
        <ele>702</ele>
        <time>2019-08-08T07:59:29.000Z</time>
      </trkpt>
      <trkpt lat="42.79434" lon="0.58025">
        <ele>702</ele>
        <time>2019-08-08T07:59:30.000Z</time>
      </trkpt>
      <trkpt lat="42.79431" lon="0.58043">
        <ele>700</ele>
        <time>2019-08-08T07:59:31.000Z</time>
      </trkpt>
      <trkpt lat="42.79428" lon="0.58062">
        <ele>700</ele>
        <time>2019-08-08T07:59:32.000Z</time>
      </trkpt>
      <trkpt lat="42.79426" lon="0.5808">
        <ele>698</ele>
        <time>2019-08-08T07:59:33.000Z</time>
      </trkpt>
      <trkpt lat="42.79424" lon="0.58099">
        <ele>698</ele>
        <time>2019-08-08T07:59:34.000Z</time>
      </trkpt>
      <trkpt lat="42.79423" lon="0.58117">
        <ele>698</ele>
        <time>2019-08-08T07:59:35.000Z</time>
      </trkpt>
      <trkpt lat="42.79422" lon="0.58136">
        <ele>695</ele>
        <time>2019-08-08T07:59:36.000Z</time>
      </trkpt>
      <trkpt lat="42.79422" lon="0.58165">
        <ele>695</ele>
        <time>2019-08-08T07:59:37.000Z</time>
      </trkpt>
      <trkpt lat="42.79422" lon="0.58175">
        <ele>693</ele>
        <time>2019-08-08T07:59:38.000Z</time>
      </trkpt>
      <trkpt lat="42.79423" lon="0.58194">
        <ele>691</ele>
        <time>2019-08-08T07:59:39.000Z</time>
      </trkpt>
      <trkpt lat="42.79423" lon="0.58213">
        <ele>691</ele>
        <time>2019-08-08T07:59:40.000Z</time>
      </trkpt>
      <trkpt lat="42.79423" lon="0.58232">
        <ele>688</ele>
        <time>2019-08-08T07:59:41.000Z</time>
      </trkpt>
      <trkpt lat="42.79424" lon="0.58251">
        <ele>688</ele>
        <time>2019-08-08T07:59:42.000Z</time>
      </trkpt>
      <trkpt lat="42.79423" lon="0.5827">
        <ele>686</ele>
        <time>2019-08-08T07:59:43.000Z</time>
      </trkpt>
      <trkpt lat="42.79421" lon="0.5829">
        <ele>686</ele>
        <time>2019-08-08T07:59:44.000Z</time>
      </trkpt>
      <trkpt lat="42.79418" lon="0.58309">
        <ele>684</ele>
        <time>2019-08-08T07:59:45.000Z</time>
      </trkpt>
      <trkpt lat="42.79414" lon="0.58328">
        <ele>684</ele>
        <time>2019-08-08T07:59:46.000Z</time>
      </trkpt>
      <trkpt lat="42.79409" lon="0.58347">
        <ele>680</ele>
        <time>2019-08-08T07:59:47.000Z</time>
      </trkpt>
      <trkpt lat="42.79405" lon="0.58367">
        <ele>680</ele>
        <time>2019-08-08T07:59:48.000Z</time>
      </trkpt>
      <trkpt lat="42.79402" lon="0.58386">
        <ele>677</ele>
        <time>2019-08-08T07:59:49.000Z</time>
      </trkpt>
      <trkpt lat="42.79401" lon="0.58405">
        <ele>677</ele>
        <time>2019-08-08T07:59:50.000Z</time>
      </trkpt>
      <trkpt lat="42.794" lon="0.58423">
        <ele>675</ele>
        <time>2019-08-08T07:59:51.000Z</time>
      </trkpt>
      <trkpt lat="42.79398" lon="0.58442">
        <ele>675</ele>
        <time>2019-08-08T07:59:52.000Z</time>
      </trkpt>
      <trkpt lat="42.79395" lon="0.58462">
        <ele>674</ele>
        <time>2019-08-08T07:59:53.000Z</time>
      </trkpt>
      <trkpt lat="42.79391" lon="0.58481">
        <ele>674</ele>
        <time>2019-08-08T07:59:54.000Z</time>
      </trkpt>
      <trkpt lat="42.79386" lon="0.585">
        <ele>673</ele>
        <time>2019-08-08T07:59:55.000Z</time>
      </trkpt>
      <trkpt lat="42.79381" lon="0.58519">
        <ele>673</ele>
        <time>2019-08-08T07:59:56.000Z</time>
      </trkpt>
      <trkpt lat="42.79376" lon="0.58538">
        <ele>669</ele>
        <time>2019-08-08T07:59:57.000Z</time>
      </trkpt>
      <trkpt lat="42.7937" lon="0.58555">
        <ele>669</ele>
        <time>2019-08-08T07:59:58.000Z</time>
      </trkpt>
      <trkpt lat="42.79364" lon="0.58573">
        <ele>665</ele>
        <time>2019-08-08T07:59:59.000Z</time>
      </trkpt>
      <trkpt lat="42.79358" lon="0.5859">
        <ele>665</ele>
        <time>2019-08-08T08:00:00.000Z</time>
      </trkpt>
      <trkpt lat="42.79351" lon="0.58607">
        <ele>663</ele>
        <time>2019-08-08T08:00:01.000Z</time>
      </trkpt>
      <trkpt lat="42.79345" lon="0.58625">
        <ele>663</ele>
        <time>2019-08-08T08:00:02.000Z</time>
      </trkpt>
      <trkpt lat="42.79341" lon="0.58643">
        <ele>662</ele>
        <time>2019-08-08T08:00:03.000Z</time>
      </trkpt>
      <trkpt lat="42.79339" lon="0.58661">
        <ele>662</ele>
        <time>2019-08-08T08:00:04.000Z</time>
      </trkpt>
      <trkpt lat="42.79338" lon="0.58679">
        <ele>661</ele>
        <time>2019-08-08T08:00:05.000Z</time>
      </trkpt>
      <trkpt lat="42.79339" lon="0.58696">
        <ele>661</ele>
        <time>2019-08-08T08:00:06.000Z</time>
      </trkpt>
      <trkpt lat="42.79341" lon="0.58712">
        <ele>661</ele>
        <time>2019-08-08T08:00:07.000Z</time>
      </trkpt>
      <trkpt lat="42.79342" lon="0.58729">
        <ele>661</ele>
        <time>2019-08-08T08:00:08.000Z</time>
      </trkpt>
      <trkpt lat="42.79344" lon="0.58744">
        <ele>660</ele>
        <time>2019-08-08T08:00:09.000Z</time>
      </trkpt>
      <trkpt lat="42.79345" lon="0.5876">
        <ele>660</ele>
        <time>2019-08-08T08:00:10.000Z</time>
      </trkpt>
      <trkpt lat="42.79345" lon="0.58775">
        <ele>661</ele>
        <time>2019-08-08T08:00:11.000Z</time>
      </trkpt>
      <trkpt lat="42.79347" lon="0.58789">
        <ele>661</ele>
        <time>2019-08-08T08:00:12.000Z</time>
      </trkpt>
      <trkpt lat="42.79348" lon="0.58804">
        <ele>661</ele>
        <time>2019-08-08T08:00:13.000Z</time>
      </trkpt>
      <trkpt lat="42.7935" lon="0.58817">
        <ele>661</ele>
        <time>2019-08-08T08:00:14.000Z</time>
      </trkpt>
      <trkpt lat="42.79352" lon="0.58831">
        <ele>660</ele>
        <time>2019-08-08T08:00:15.000Z</time>
      </trkpt>
      <trkpt lat="42.79354" lon="0.58844">
        <ele>660</ele>
        <time>2019-08-08T08:00:16.000Z</time>
      </trkpt>
      <trkpt lat="42.79356" lon="0.58856">
        <ele>660</ele>
        <time>2019-08-08T08:00:17.000Z</time>
      </trkpt>
      <trkpt lat="42.79357" lon="0.58866">
        <ele>660</ele>
        <time>2019-08-08T08:00:18.000Z</time>
      </trkpt>
      <trkpt lat="42.79358" lon="0.58875">
        <ele>660</ele>
        <time>2019-08-08T08:00:19.000Z</time>
      </trkpt>
      <trkpt lat="42.79359" lon="0.58883">
        <ele>660</ele>
        <time>2019-08-08T08:00:20.000Z</time>
      </trkpt>
      <trkpt lat="42.7936" lon="0.58889">
        <ele>660</ele>
        <time>2019-08-08T08:00:21.000Z</time>
      </trkpt>
      <trkpt lat="42.79362" lon="0.58894">
        <ele>661</ele>
        <time>2019-08-08T08:00:22.000Z</time>
      </trkpt>
      <trkpt lat="42.79364" lon="0.58895">
        <ele>661</ele>
        <time>2019-08-08T08:00:23.000Z</time>
      </trkpt>
      <trkpt lat="42.79367" lon="0.58895">
        <ele>661</ele>
        <time>2019-08-08T08:00:24.000Z</time>
      </trkpt>
      <trkpt lat="42.79367" lon="0.58895">
        <ele>662</ele>
        <time>2019-08-08T08:00:25.000Z</time>
      </trkpt>
      <trkpt lat="42.79367" lon="0.58895">
        <ele>662</ele>
        <time>2019-08-08T08:00:26.000Z</time>
      </trkpt>
      <trkpt lat="42.7937" lon="0.589">
        <ele>662</ele>
        <time>2019-08-08T08:00:27.000Z</time>
      </trkpt>
      <trkpt lat="42.7937" lon="0.589">
        <ele>662</ele>
        <time>2019-08-08T08:00:28.000Z</time>
      </trkpt>
      <trkpt lat="42.7937" lon="0.589">
        <ele>661</ele>
        <time>2019-08-08T08:00:29.000Z</time>
      </trkpt>
      <trkpt lat="42.7937" lon="0.589">
        <ele>661</ele>
        <time>2019-08-08T08:00:30.000Z</time>
      </trkpt>
      <trkpt lat="42.7937" lon="0.589">
        <ele>661</ele>
        <time>2019-08-08T08:00:31.000Z</time>
      </trkpt>
      <trkpt lat="42.7937" lon="0.589">
        <ele>661</ele>
        <time>2019-08-08T08:00:32.000Z</time>
      </trkpt>
      <trkpt lat="42.7937" lon="0.589">
        <ele>661</ele>
        <time>2019-08-08T08:00:33.000Z</time>
      </trkpt>
      <trkpt lat="42.7937" lon="0.589">
        <ele>661</ele>
        <time>2019-08-08T08:00:34.000Z</time>
      </trkpt>
      <trkpt lat="42.7937" lon="0.589">
        <ele>662</ele>
        <time>2019-08-08T08:00:35.000Z</time>
      </trkpt>
      <trkpt lat="42.7937" lon="0.58902">
        <ele>662</ele>
        <time>2019-08-08T08:00:36.000Z</time>
      </trkpt>
      <trkpt lat="42.7937" lon="0.58902">
        <ele>662</ele>
        <time>2019-08-08T08:00:37.000Z</time>
      </trkpt>
      <trkpt lat="42.7937" lon="0.58902">
        <ele>662</ele>
        <time>2019-08-08T08:00:38.000Z</time>
      </trkpt>
      <trkpt lat="42.7937" lon="0.58902">
        <ele>662</ele>
        <time>2019-08-08T08:00:39.000Z</time>
      </trkpt>
      <trkpt lat="42.79372" lon="0.589">
        <ele>661</ele>
        <time>2019-08-08T08:00:40.000Z</time>
      </trkpt>
      <trkpt lat="42.79372" lon="0.589">
        <ele>661</ele>
        <time>2019-08-08T08:00:41.000Z</time>
      </trkpt>
      <trkpt lat="42.79372" lon="0.589">
        <ele>661</ele>
        <time>2019-08-08T08:00:42.000Z</time>
      </trkpt>
      <trkpt lat="42.79374" lon="0.58898">
        <ele>661</ele>
        <time>2019-08-08T08:00:43.000Z</time>
      </trkpt>
      <trkpt lat="42.79374" lon="0.58898">
        <ele>661</ele>
        <time>2019-08-08T08:00:44.000Z</time>
      </trkpt>
      <trkpt lat="42.79374" lon="0.58898">
        <ele>661</ele>
        <time>2019-08-08T08:00:45.000Z</time>
      </trkpt>
      <trkpt lat="42.79375" lon="0.58896">
        <ele>662</ele>
        <time>2019-08-08T08:00:46.000Z</time>
      </trkpt>
      <trkpt lat="42.79375" lon="0.58896">
        <ele>662</ele>
        <time>2019-08-08T08:00:47.000Z</time>
      </trkpt>
      <trkpt lat="42.79375" lon="0.58896">
        <ele>662</ele>
        <time>2019-08-08T08:00:48.000Z</time>
      </trkpt>
      <trkpt lat="42.79375" lon="0.58897">
        <ele>662</ele>
        <time>2019-08-08T08:00:49.000Z</time>
      </trkpt>
      <trkpt lat="42.79375" lon="0.58897">
        <ele>662</ele>
        <time>2019-08-08T08:01:34.000Z</time>
      </trkpt>
      <trkpt lat="42.79375" lon="0.58897">
        <ele>662</ele>
        <time>2019-08-08T08:01:35.000Z</time>
      </trkpt>
      <trkpt lat="42.79375" lon="0.58897">
        <ele>662</ele>
        <time>2019-08-08T08:01:36.000Z</time>
      </trkpt>
      <trkpt lat="42.79375" lon="0.58897">
        <ele>662</ele>
        <time>2019-08-08T08:01:37.000Z</time>
      </trkpt>
      <trkpt lat="42.79375" lon="0.58897">
        <ele>662</ele>
        <time>2019-08-08T08:01:38.000Z</time>
      </trkpt>
      <trkpt lat="42.79375" lon="0.58897">
        <ele>662</ele>
        <time>2019-08-08T08:01:39.000Z</time>
      </trkpt>
      <trkpt lat="42.79374" lon="0.58898">
        <ele>662</ele>
        <time>2019-08-08T08:01:40.000Z</time>
      </trkpt>
      <trkpt lat="42.79374" lon="0.58898">
        <ele>663</ele>
        <time>2019-08-08T08:01:41.000Z</time>
      </trkpt>
      <trkpt lat="42.79366" lon="0.58889">
        <ele>663</ele>
        <time>2019-08-08T08:01:42.000Z</time>
      </trkpt>
      <trkpt lat="42.79366" lon="0.58889">
        <ele>662</ele>
        <time>2019-08-08T08:01:43.000Z</time>
      </trkpt>
      <trkpt lat="42.79363" lon="0.58889">
        <ele>662</ele>
        <time>2019-08-08T08:01:44.000Z</time>
      </trkpt>
      <trkpt lat="42.79363" lon="0.58889">
        <ele>662</ele>
        <time>2019-08-08T08:01:45.000Z</time>
      </trkpt>
      <trkpt lat="42.7936" lon="0.5889">
        <ele>662</ele>
        <time>2019-08-08T08:01:46.000Z</time>
      </trkpt>
      <trkpt lat="42.79359" lon="0.58893">
        <ele>662</ele>
        <time>2019-08-08T08:01:47.000Z</time>
      </trkpt>
      <trkpt lat="42.79359" lon="0.58896">
        <ele>662</ele>
        <time>2019-08-08T08:01:48.000Z</time>
      </trkpt>
      <trkpt lat="42.79359" lon="0.58901">
        <ele>662</ele>
        <time>2019-08-08T08:01:49.000Z</time>
      </trkpt>
      <trkpt lat="42.7936" lon="0.58905">
        <ele>662</ele>
        <time>2019-08-08T08:01:50.000Z</time>
      </trkpt>
      <trkpt lat="42.79361" lon="0.58911">
        <ele>662</ele>
        <time>2019-08-08T08:01:51.000Z</time>
      </trkpt>
      <trkpt lat="42.79361" lon="0.58917">
        <ele>662</ele>
        <time>2019-08-08T08:01:52.000Z</time>
      </trkpt>
      <trkpt lat="42.79362" lon="0.58923">
        <ele>662</ele>
        <time>2019-08-08T08:01:53.000Z</time>
      </trkpt>
      <trkpt lat="42.79363" lon="0.5893">
        <ele>662</ele>
        <time>2019-08-08T08:01:54.000Z</time>
      </trkpt>
      <trkpt lat="42.79365" lon="0.58936">
        <ele>662</ele>
        <time>2019-08-08T08:01:55.000Z</time>
      </trkpt>
      <trkpt lat="42.79366" lon="0.58943">
        <ele>662</ele>
        <time>2019-08-08T08:01:56.000Z</time>
      </trkpt>
      <trkpt lat="42.79367" lon="0.58951">
        <ele>662</ele>
        <time>2019-08-08T08:01:57.000Z</time>
      </trkpt>
      <trkpt lat="42.79369" lon="0.58958">
        <ele>662</ele>
        <time>2019-08-08T08:01:58.000Z</time>
      </trkpt>
      <trkpt lat="42.7937" lon="0.58966">
        <ele>661</ele>
        <time>2019-08-08T08:01:59.000Z</time>
      </trkpt>
      <trkpt lat="42.79371" lon="0.58974">
        <ele>660</ele>
        <time>2019-08-08T08:02:00.000Z</time>
      </trkpt>
      <trkpt lat="42.79372" lon="0.58982">
        <ele>660</ele>
        <time>2019-08-08T08:02:01.000Z</time>
      </trkpt>
      <trkpt lat="42.79373" lon="0.5899">
        <ele>660</ele>
        <time>2019-08-08T08:02:02.000Z</time>
      </trkpt>
      <trkpt lat="42.79374" lon="0.58998">
        <ele>660</ele>
        <time>2019-08-08T08:02:03.000Z</time>
      </trkpt>
      <trkpt lat="42.79376" lon="0.59008">
        <ele>660</ele>
        <time>2019-08-08T08:02:04.000Z</time>
      </trkpt>
      <trkpt lat="42.79376" lon="0.59017">
        <ele>660</ele>
        <time>2019-08-08T08:02:05.000Z</time>
      </trkpt>
      <trkpt lat="42.79377" lon="0.59026">
        <ele>660</ele>
        <time>2019-08-08T08:02:06.000Z</time>
      </trkpt>
      <trkpt lat="42.79377" lon="0.59036">
        <ele>660</ele>
        <time>2019-08-08T08:02:07.000Z</time>
      </trkpt>
      <trkpt lat="42.79377" lon="0.59046">
        <ele>660</ele>
        <time>2019-08-08T08:02:08.000Z</time>
      </trkpt>
      <trkpt lat="42.79377" lon="0.59056">
        <ele>660</ele>
        <time>2019-08-08T08:02:09.000Z</time>
      </trkpt>
      <trkpt lat="42.79377" lon="0.59066">
        <ele>660</ele>
        <time>2019-08-08T08:02:10.000Z</time>
      </trkpt>
      <trkpt lat="42.79376" lon="0.59076">
        <ele>660</ele>
        <time>2019-08-08T08:02:11.000Z</time>
      </trkpt>
      <trkpt lat="42.79375" lon="0.59086">
        <ele>660</ele>
        <time>2019-08-08T08:02:12.000Z</time>
      </trkpt>
      <trkpt lat="42.79373" lon="0.59102">
        <ele>660</ele>
        <time>2019-08-08T08:02:13.000Z</time>
      </trkpt>
      <trkpt lat="42.79373" lon="0.59107">
        <ele>660</ele>
        <time>2019-08-08T08:02:14.000Z</time>
      </trkpt>
      <trkpt lat="42.79372" lon="0.59117">
        <ele>659</ele>
        <time>2019-08-08T08:02:15.000Z</time>
      </trkpt>
      <trkpt lat="42.79372" lon="0.59127">
        <ele>659</ele>
        <time>2019-08-08T08:02:16.000Z</time>
      </trkpt>
      <trkpt lat="42.79373" lon="0.59137">
        <ele>658</ele>
        <time>2019-08-08T08:02:17.000Z</time>
      </trkpt>
      <trkpt lat="42.79375" lon="0.59147">
        <ele>658</ele>
        <time>2019-08-08T08:02:18.000Z</time>
      </trkpt>
      <trkpt lat="42.79377" lon="0.59157">
        <ele>658</ele>
        <time>2019-08-08T08:02:19.000Z</time>
      </trkpt>
      <trkpt lat="42.7938" lon="0.59167">
        <ele>658</ele>
        <time>2019-08-08T08:02:20.000Z</time>
      </trkpt>
      <trkpt lat="42.79383" lon="0.59176">
        <ele>658</ele>
        <time>2019-08-08T08:02:21.000Z</time>
      </trkpt>
      <trkpt lat="42.79387" lon="0.59186">
        <ele>658</ele>
        <time>2019-08-08T08:02:22.000Z</time>
      </trkpt>
      <trkpt lat="42.79392" lon="0.59195">
        <ele>658</ele>
        <time>2019-08-08T08:02:23.000Z</time>
      </trkpt>
      <trkpt lat="42.79397" lon="0.59204">
        <ele>658</ele>
        <time>2019-08-08T08:02:24.000Z</time>
      </trkpt>
      <trkpt lat="42.79401" lon="0.59213">
        <ele>658</ele>
        <time>2019-08-08T08:02:25.000Z</time>
      </trkpt>
      <trkpt lat="42.79408" lon="0.59226">
        <ele>658</ele>
        <time>2019-08-08T08:02:26.000Z</time>
      </trkpt>
      <trkpt lat="42.79411" lon="0.5923">
        <ele>658</ele>
        <time>2019-08-08T08:02:27.000Z</time>
      </trkpt>
      <trkpt lat="42.79418" lon="0.59243">
        <ele>657</ele>
        <time>2019-08-08T08:02:28.000Z</time>
      </trkpt>
      <trkpt lat="42.7942" lon="0.59247">
        <ele>657</ele>
        <time>2019-08-08T08:02:29.000Z</time>
      </trkpt>
      <trkpt lat="42.79428" lon="0.59259">
        <ele>657</ele>
        <time>2019-08-08T08:02:30.000Z</time>
      </trkpt>
      <trkpt lat="42.7943" lon="0.59263">
        <ele>657</ele>
        <time>2019-08-08T08:02:31.000Z</time>
      </trkpt>
      <trkpt lat="42.79435" lon="0.59272">
        <ele>657</ele>
        <time>2019-08-08T08:02:32.000Z</time>
      </trkpt>
      <trkpt lat="42.7944" lon="0.59279">
        <ele>657</ele>
        <time>2019-08-08T08:02:33.000Z</time>
      </trkpt>
      <trkpt lat="42.79445" lon="0.59287">
        <ele>657</ele>
        <time>2019-08-08T08:02:34.000Z</time>
      </trkpt>
      <trkpt lat="42.7945" lon="0.59295">
        <ele>657</ele>
        <time>2019-08-08T08:02:35.000Z</time>
      </trkpt>
      <trkpt lat="42.79455" lon="0.59304">
        <ele>656</ele>
        <time>2019-08-08T08:02:36.000Z</time>
      </trkpt>
      <trkpt lat="42.79461" lon="0.59313">
        <ele>656</ele>
        <time>2019-08-08T08:02:37.000Z</time>
      </trkpt>
      <trkpt lat="42.79466" lon="0.59322">
        <ele>656</ele>
        <time>2019-08-08T08:02:38.000Z</time>
      </trkpt>
      <trkpt lat="42.79471" lon="0.59332">
        <ele>656</ele>
        <time>2019-08-08T08:02:39.000Z</time>
      </trkpt>
      <trkpt lat="42.79476" lon="0.59342">
        <ele>656</ele>
        <time>2019-08-08T08:02:40.000Z</time>
      </trkpt>
      <trkpt lat="42.7948" lon="0.59351">
        <ele>656</ele>
        <time>2019-08-08T08:02:41.000Z</time>
      </trkpt>
      <trkpt lat="42.79486" lon="0.59365">
        <ele>655</ele>
        <time>2019-08-08T08:02:42.000Z</time>
      </trkpt>
      <trkpt lat="42.79487" lon="0.59369">
        <ele>655</ele>
        <time>2019-08-08T08:02:43.000Z</time>
      </trkpt>
      <trkpt lat="42.7949" lon="0.59378">
        <ele>654</ele>
        <time>2019-08-08T08:02:44.000Z</time>
      </trkpt>
      <trkpt lat="42.79488" lon="0.59387">
        <ele>654</ele>
        <time>2019-08-08T08:02:45.000Z</time>
      </trkpt>
      <trkpt lat="42.79484" lon="0.59394">
        <ele>654</ele>
        <time>2019-08-08T08:02:46.000Z</time>
      </trkpt>
      <trkpt lat="42.79478" lon="0.59397">
        <ele>654</ele>
        <time>2019-08-08T08:02:47.000Z</time>
      </trkpt>
      <trkpt lat="42.79471" lon="0.59397">
        <ele>654</ele>
        <time>2019-08-08T08:02:48.000Z</time>
      </trkpt>
      <trkpt lat="42.79465" lon="0.59393">
        <ele>654</ele>
        <time>2019-08-08T08:02:49.000Z</time>
      </trkpt>
      <trkpt lat="42.7946" lon="0.59388">
        <ele>654</ele>
        <time>2019-08-08T08:02:50.000Z</time>
      </trkpt>
      <trkpt lat="42.79454" lon="0.59383">
        <ele>654</ele>
        <time>2019-08-08T08:02:51.000Z</time>
      </trkpt>
      <trkpt lat="42.79448" lon="0.59377">
        <ele>654</ele>
        <time>2019-08-08T08:02:52.000Z</time>
      </trkpt>
      <trkpt lat="42.79442" lon="0.59371">
        <ele>654</ele>
        <time>2019-08-08T08:02:53.000Z</time>
      </trkpt>
      <trkpt lat="42.79434" lon="0.59363">
        <ele>654</ele>
        <time>2019-08-08T08:02:54.000Z</time>
      </trkpt>
      <trkpt lat="42.79431" lon="0.5936">
        <ele>655</ele>
        <time>2019-08-08T08:02:55.000Z</time>
      </trkpt>
      <trkpt lat="42.79423" lon="0.59352">
        <ele>655</ele>
        <time>2019-08-08T08:02:56.000Z</time>
      </trkpt>
      <trkpt lat="42.7942" lon="0.59349">
        <ele>655</ele>
        <time>2019-08-08T08:02:57.000Z</time>
      </trkpt>
      <trkpt lat="42.79412" lon="0.59341">
        <ele>655</ele>
        <time>2019-08-08T08:02:58.000Z</time>
      </trkpt>
      <trkpt lat="42.79409" lon="0.59338">
        <ele>655</ele>
        <time>2019-08-08T08:02:59.000Z</time>
      </trkpt>
      <trkpt lat="42.79401" lon="0.5933">
        <ele>655</ele>
        <time>2019-08-08T08:03:00.000Z</time>
      </trkpt>
      <trkpt lat="42.79398" lon="0.59328">
        <ele>655</ele>
        <time>2019-08-08T08:03:01.000Z</time>
      </trkpt>
      <trkpt lat="42.7939" lon="0.5932">
        <ele>655</ele>
        <time>2019-08-08T08:03:02.000Z</time>
      </trkpt>
      <trkpt lat="42.79388" lon="0.59318">
        <ele>656</ele>
        <time>2019-08-08T08:03:03.000Z</time>
      </trkpt>
      <trkpt lat="42.79382" lon="0.59313">
        <ele>656</ele>
        <time>2019-08-08T08:03:04.000Z</time>
      </trkpt>
      <trkpt lat="42.79377" lon="0.59309">
        <ele>656</ele>
        <time>2019-08-08T08:03:05.000Z</time>
      </trkpt>
      <trkpt lat="42.79373" lon="0.59304">
        <ele>656</ele>
        <time>2019-08-08T08:03:06.000Z</time>
      </trkpt>
      <trkpt lat="42.79367" lon="0.59299">
        <ele>656</ele>
        <time>2019-08-08T08:03:07.000Z</time>
      </trkpt>
      <trkpt lat="42.79359" lon="0.59291">
        <ele>656</ele>
        <time>2019-08-08T08:03:08.000Z</time>
      </trkpt>
      <trkpt lat="42.79355" lon="0.59288">
        <ele>655.6</ele>
        <time>2019-08-08T08:03:09.000Z</time>
      </trkpt>
      <trkpt lat="42.79349" lon="0.59283">
        <ele>655</ele>
        <time>2019-08-08T08:03:10.000Z</time>
      </trkpt>
      <trkpt lat="42.79343" lon="0.59277">
        <ele>655</ele>
        <time>2019-08-08T08:03:11.000Z</time>
      </trkpt>
      <trkpt lat="42.79334" lon="0.59269">
        <ele>655</ele>
        <time>2019-08-08T08:03:12.000Z</time>
      </trkpt>
      <trkpt lat="42.79331" lon="0.59266">
        <ele>656</ele>
        <time>2019-08-08T08:03:13.000Z</time>
      </trkpt>
      <trkpt lat="42.79323" lon="0.59258">
        <ele>656</ele>
        <time>2019-08-08T08:03:14.000Z</time>
      </trkpt>
      <trkpt lat="42.7932" lon="0.59256">
        <ele>656</ele>
        <time>2019-08-08T08:03:15.000Z</time>
      </trkpt>
      <trkpt lat="42.79314" lon="0.59251">
        <ele>656</ele>
        <time>2019-08-08T08:03:16.000Z</time>
      </trkpt>
      <trkpt lat="42.79308" lon="0.59245">
        <ele>656</ele>
        <time>2019-08-08T08:03:17.000Z</time>
      </trkpt>
      <trkpt lat="42.793" lon="0.59236">
        <ele>656</ele>
        <time>2019-08-08T08:03:18.000Z</time>
      </trkpt>
      <trkpt lat="42.79297" lon="0.59233">
        <ele>655</ele>
        <time>2019-08-08T08:03:19.000Z</time>
      </trkpt>
      <trkpt lat="42.79289" lon="0.59224">
        <ele>655</ele>
        <time>2019-08-08T08:03:20.000Z</time>
      </trkpt>
      <trkpt lat="42.79286" lon="0.59221">
        <ele>656</ele>
        <time>2019-08-08T08:03:21.000Z</time>
      </trkpt>
      <trkpt lat="42.79277" lon="0.59212">
        <ele>656</ele>
        <time>2019-08-08T08:03:22.000Z</time>
      </trkpt>
      <trkpt lat="42.79274" lon="0.59209">
        <ele>657</ele>
        <time>2019-08-08T08:03:23.000Z</time>
      </trkpt>
      <trkpt lat="42.79265" lon="0.59201">
        <ele>657</ele>
        <time>2019-08-08T08:03:24.000Z</time>
      </trkpt>
      <trkpt lat="42.79262" lon="0.59199">
        <ele>657</ele>
        <time>2019-08-08T08:03:25.000Z</time>
      </trkpt>
      <trkpt lat="42.79253" lon="0.59191">
        <ele>657</ele>
        <time>2019-08-08T08:03:26.000Z</time>
      </trkpt>
      <trkpt lat="42.7925" lon="0.59188">
        <ele>657</ele>
        <time>2019-08-08T08:03:27.000Z</time>
      </trkpt>
      <trkpt lat="42.79245" lon="0.59183">
        <ele>657</ele>
        <time>2019-08-08T08:03:28.000Z</time>
      </trkpt>
      <trkpt lat="42.79236" lon="0.59175">
        <ele>657</ele>
        <time>2019-08-08T08:03:29.000Z</time>
      </trkpt>
      <trkpt lat="42.79233" lon="0.59173">
        <ele>657</ele>
        <time>2019-08-08T08:03:30.000Z</time>
      </trkpt>
      <trkpt lat="42.79225" lon="0.59165">
        <ele>657</ele>
        <time>2019-08-08T08:03:31.000Z</time>
      </trkpt>
      <trkpt lat="42.79223" lon="0.59163">
        <ele>657</ele>
        <time>2019-08-08T08:03:32.000Z</time>
      </trkpt>
      <trkpt lat="42.79218" lon="0.59158">
        <ele>657</ele>
        <time>2019-08-08T08:03:33.000Z</time>
      </trkpt>
      <trkpt lat="42.79213" lon="0.59154">
        <ele>658</ele>
        <time>2019-08-08T08:03:34.000Z</time>
      </trkpt>
      <trkpt lat="42.79208" lon="0.59149">
        <ele>658</ele>
        <time>2019-08-08T08:03:35.000Z</time>
      </trkpt>
      <trkpt lat="42.79204" lon="0.59144">
        <ele>658</ele>
        <time>2019-08-08T08:03:36.000Z</time>
      </trkpt>
      <trkpt lat="42.792" lon="0.59138">
        <ele>658</ele>
        <time>2019-08-08T08:03:37.000Z</time>
      </trkpt>
      <trkpt lat="42.79195" lon="0.59134">
        <ele>658</ele>
        <time>2019-08-08T08:03:38.000Z</time>
      </trkpt>
      <trkpt lat="42.79188" lon="0.59128">
        <ele>658</ele>
        <time>2019-08-08T08:03:39.000Z</time>
      </trkpt>
      <trkpt lat="42.79186" lon="0.59125">
        <ele>658</ele>
        <time>2019-08-08T08:03:40.000Z</time>
      </trkpt>
      <trkpt lat="42.79179" lon="0.59118">
        <ele>658</ele>
        <time>2019-08-08T08:03:41.000Z</time>
      </trkpt>
      <trkpt lat="42.79176" lon="0.59117">
        <ele>658</ele>
        <time>2019-08-08T08:03:42.000Z</time>
      </trkpt>
      <trkpt lat="42.7917" lon="0.59114">
        <ele>658</ele>
        <time>2019-08-08T08:03:43.000Z</time>
      </trkpt>
      <trkpt lat="42.7916" lon="0.59112">
        <ele>658</ele>
        <time>2019-08-08T08:03:44.000Z</time>
      </trkpt>
      <trkpt lat="42.79157" lon="0.59112">
        <ele>658</ele>
        <time>2019-08-08T08:03:45.000Z</time>
      </trkpt>
      <trkpt lat="42.79151" lon="0.59111">
        <ele>658</ele>
        <time>2019-08-08T08:03:46.000Z</time>
      </trkpt>
      <trkpt lat="42.79151" lon="0.59111">
        <ele>659</ele>
        <time>2019-08-08T08:03:47.000Z</time>
      </trkpt>
      <trkpt lat="42.7914" lon="0.59111">
        <ele>659</ele>
        <time>2019-08-08T08:03:48.000Z</time>
      </trkpt>
      <trkpt lat="42.79139" lon="0.59111">
        <ele>659</ele>
        <time>2019-08-08T08:03:49.000Z</time>
      </trkpt>
      <trkpt lat="42.79137" lon="0.59111">
        <ele>659</ele>
        <time>2019-08-08T08:03:50.000Z</time>
      </trkpt>
      <trkpt lat="42.79136" lon="0.59111">
        <ele>659</ele>
        <time>2019-08-08T08:03:51.000Z</time>
      </trkpt>
      <trkpt lat="42.79131" lon="0.59109">
        <ele>659</ele>
        <time>2019-08-08T08:03:52.000Z</time>
      </trkpt>
      <trkpt lat="42.79131" lon="0.59109">
        <ele>659</ele>
        <time>2019-08-08T08:03:53.000Z</time>
      </trkpt>
      <trkpt lat="42.79131" lon="0.59109">
        <ele>659</ele>
        <time>2019-08-08T08:03:54.000Z</time>
      </trkpt>
      <trkpt lat="42.79126" lon="0.59103">
        <ele>659</ele>
        <time>2019-08-08T08:03:55.000Z</time>
      </trkpt>
      <trkpt lat="42.79126" lon="0.59103">
        <ele>659</ele>
        <time>2019-08-08T08:03:56.000Z</time>
      </trkpt>
      <trkpt lat="42.79126" lon="0.59103">
        <ele>659</ele>
        <time>2019-08-08T08:03:57.000Z</time>
      </trkpt>
      <trkpt lat="42.79126" lon="0.59103">
        <ele>659</ele>
        <time>2019-08-08T08:03:58.000Z</time>
      </trkpt>
      <trkpt lat="42.79129" lon="0.59091">
        <ele>659</ele>
        <time>2019-08-08T08:03:59.000Z</time>
      </trkpt>
      <trkpt lat="42.79129" lon="0.59091">
        <ele>659</ele>
        <time>2019-08-08T08:04:00.000Z</time>
      </trkpt>
      <trkpt lat="42.79129" lon="0.59091">
        <ele>659</ele>
        <time>2019-08-08T08:04:01.000Z</time>
      </trkpt>
      <trkpt lat="42.7913" lon="0.59076">
        <ele>659</ele>
        <time>2019-08-08T08:04:02.000Z</time>
      </trkpt>
      <trkpt lat="42.7913" lon="0.59075">
        <ele>660</ele>
        <time>2019-08-08T08:04:03.000Z</time>
      </trkpt>
      <trkpt lat="42.7913" lon="0.59074">
        <ele>660</ele>
        <time>2019-08-08T08:04:04.000Z</time>
      </trkpt>
      <trkpt lat="42.7913" lon="0.59074">
        <ele>657</ele>
        <time>2019-08-08T08:11:27.000Z</time>
      </trkpt>
      <trkpt lat="42.7913" lon="0.59073">
        <ele>657</ele>
        <time>2019-08-08T08:11:28.000Z</time>
      </trkpt>
      <trkpt lat="42.79129" lon="0.59072">
        <ele>657</ele>
        <time>2019-08-08T08:11:29.000Z</time>
      </trkpt>
      <trkpt lat="42.79129" lon="0.59072">
        <ele>657</ele>
        <time>2019-08-08T08:11:30.000Z</time>
      </trkpt>
      <trkpt lat="42.79129" lon="0.59071">
        <ele>657</ele>
        <time>2019-08-08T08:11:31.000Z</time>
      </trkpt>
      <trkpt lat="42.79129" lon="0.5907">
        <ele>657</ele>
        <time>2019-08-08T08:11:32.000Z</time>
      </trkpt>
      <trkpt lat="42.79129" lon="0.5907">
        <ele>657</ele>
        <time>2019-08-08T08:11:33.000Z</time>
      </trkpt>
      <trkpt lat="42.79129" lon="0.59069">
        <ele>657</ele>
        <time>2019-08-08T08:11:34.000Z</time>
      </trkpt>
      <trkpt lat="42.79129" lon="0.59068">
        <ele>657</ele>
        <time>2019-08-08T08:11:35.000Z</time>
      </trkpt>
      <trkpt lat="42.79129" lon="0.59068">
        <ele>657</ele>
        <time>2019-08-08T08:11:36.000Z</time>
      </trkpt>
      <trkpt lat="42.79129" lon="0.59067">
        <ele>656</ele>
        <time>2019-08-08T08:11:37.000Z</time>
      </trkpt>
      <trkpt lat="42.79129" lon="0.59066">
        <ele>656</ele>
        <time>2019-08-08T08:11:38.000Z</time>
      </trkpt>
      <trkpt lat="42.79129" lon="0.59066">
        <ele>656</ele>
        <time>2019-08-08T08:11:39.000Z</time>
      </trkpt>
      <trkpt lat="42.79127" lon="0.59076">
        <ele>656</ele>
        <time>2019-08-08T08:11:40.000Z</time>
      </trkpt>
      <trkpt lat="42.79126" lon="0.59079">
        <ele>656</ele>
        <time>2019-08-08T08:11:41.000Z</time>
      </trkpt>
      <trkpt lat="42.79125" lon="0.59083">
        <ele>656</ele>
        <time>2019-08-08T08:11:42.000Z</time>
      </trkpt>
      <trkpt lat="42.79124" lon="0.59087">
        <ele>656</ele>
        <time>2019-08-08T08:11:43.000Z</time>
      </trkpt>
      <trkpt lat="42.79124" lon="0.59087">
        <ele>656</ele>
        <time>2019-08-08T08:11:44.000Z</time>
      </trkpt>
      <trkpt lat="42.79124" lon="0.59087">
        <ele>656</ele>
        <time>2019-08-08T08:11:45.000Z</time>
      </trkpt>
      <trkpt lat="42.79124" lon="0.59087">
        <ele>656</ele>
        <time>2019-08-08T08:11:46.000Z</time>
      </trkpt>
      <trkpt lat="42.79124" lon="0.59087">
        <ele>656</ele>
        <time>2019-08-08T08:11:47.000Z</time>
      </trkpt>
      <trkpt lat="42.79124" lon="0.59087">
        <ele>656</ele>
        <time>2019-08-08T08:11:48.000Z</time>
      </trkpt>
      <trkpt lat="42.79124" lon="0.59087">
        <ele>656</ele>
        <time>2019-08-08T08:11:49.000Z</time>
      </trkpt>
      <trkpt lat="42.79124" lon="0.59087">
        <ele>655</ele>
        <time>2019-08-08T08:11:50.000Z</time>
      </trkpt>
      <trkpt lat="42.79137" lon="0.59095">
        <ele>655</ele>
        <time>2019-08-08T08:11:51.000Z</time>
      </trkpt>
      <trkpt lat="42.7914" lon="0.59097">
        <ele>655</ele>
        <time>2019-08-08T08:11:52.000Z</time>
      </trkpt>
      <trkpt lat="42.79148" lon="0.59103">
        <ele>655</ele>
        <time>2019-08-08T08:11:53.000Z</time>
      </trkpt>
      <trkpt lat="42.79151" lon="0.59105">
        <ele>655</ele>
        <time>2019-08-08T08:11:54.000Z</time>
      </trkpt>
      <trkpt lat="42.79159" lon="0.59109">
        <ele>655</ele>
        <time>2019-08-08T08:11:55.000Z</time>
      </trkpt>
      <trkpt lat="42.79162" lon="0.59109">
        <ele>655</ele>
        <time>2019-08-08T08:11:56.000Z</time>
      </trkpt>
      <trkpt lat="42.7917" lon="0.59109">
        <ele>655</ele>
        <time>2019-08-08T08:11:57.000Z</time>
      </trkpt>
      <trkpt lat="42.79173" lon="0.5911">
        <ele>655</ele>
        <time>2019-08-08T08:11:58.000Z</time>
      </trkpt>
      <trkpt lat="42.79178" lon="0.59111">
        <ele>655</ele>
        <time>2019-08-08T08:11:59.000Z</time>
      </trkpt>
      <trkpt lat="42.79178" lon="0.59111">
        <ele>655</ele>
        <time>2019-08-08T08:12:00.000Z</time>
      </trkpt>
      <trkpt lat="42.79188" lon="0.5912">
        <ele>655</ele>
        <time>2019-08-08T08:12:01.000Z</time>
      </trkpt>
      <trkpt lat="42.7919" lon="0.59122">
        <ele>655</ele>
        <time>2019-08-08T08:12:02.000Z</time>
      </trkpt>
      <trkpt lat="42.79198" lon="0.5913">
        <ele>655</ele>
        <time>2019-08-08T08:12:03.000Z</time>
      </trkpt>
      <trkpt lat="42.79201" lon="0.59134">
        <ele>655</ele>
        <time>2019-08-08T08:12:04.000Z</time>
      </trkpt>
      <trkpt lat="42.79208" lon="0.59141">
        <ele>655</ele>
        <time>2019-08-08T08:12:05.000Z</time>
      </trkpt>
      <trkpt lat="42.79214" lon="0.59148">
        <ele>655</ele>
        <time>2019-08-08T08:12:06.000Z</time>
      </trkpt>
      <trkpt lat="42.79221" lon="0.59155">
        <ele>655</ele>
        <time>2019-08-08T08:12:07.000Z</time>
      </trkpt>
      <trkpt lat="42.79226" lon="0.5916">
        <ele>655</ele>
        <time>2019-08-08T08:12:08.000Z</time>
      </trkpt>
      <trkpt lat="42.79232" lon="0.59166">
        <ele>655</ele>
        <time>2019-08-08T08:12:09.000Z</time>
      </trkpt>
      <trkpt lat="42.79239" lon="0.59172">
        <ele>654</ele>
        <time>2019-08-08T08:12:10.000Z</time>
      </trkpt>
      <trkpt lat="42.79245" lon="0.59179">
        <ele>654</ele>
        <time>2019-08-08T08:12:11.000Z</time>
      </trkpt>
      <trkpt lat="42.79255" lon="0.59189">
        <ele>654</ele>
        <time>2019-08-08T08:12:12.000Z</time>
      </trkpt>
      <trkpt lat="42.79259" lon="0.59193">
        <ele>654</ele>
        <time>2019-08-08T08:12:13.000Z</time>
      </trkpt>
      <trkpt lat="42.79266" lon="0.59201">
        <ele>653</ele>
        <time>2019-08-08T08:12:14.000Z</time>
      </trkpt>
      <trkpt lat="42.79272" lon="0.59208">
        <ele>653</ele>
        <time>2019-08-08T08:12:15.000Z</time>
      </trkpt>
      <trkpt lat="42.79279" lon="0.59214">
        <ele>653</ele>
        <time>2019-08-08T08:12:16.000Z</time>
      </trkpt>
      <trkpt lat="42.79285" lon="0.59219">
        <ele>653</ele>
        <time>2019-08-08T08:12:17.000Z</time>
      </trkpt>
      <trkpt lat="42.79292" lon="0.59226">
        <ele>653</ele>
        <time>2019-08-08T08:12:18.000Z</time>
      </trkpt>
      <trkpt lat="42.79299" lon="0.59233">
        <ele>653</ele>
        <time>2019-08-08T08:12:19.000Z</time>
      </trkpt>
      <trkpt lat="42.79306" lon="0.5924">
        <ele>653</ele>
        <time>2019-08-08T08:12:20.000Z</time>
      </trkpt>
      <trkpt lat="42.79312" lon="0.59246">
        <ele>653</ele>
        <time>2019-08-08T08:12:21.000Z</time>
      </trkpt>
      <trkpt lat="42.79318" lon="0.59253">
        <ele>653</ele>
        <time>2019-08-08T08:12:22.000Z</time>
      </trkpt>
      <trkpt lat="42.79325" lon="0.59259">
        <ele>653</ele>
        <time>2019-08-08T08:12:23.000Z</time>
      </trkpt>
      <trkpt lat="42.79331" lon="0.59265">
        <ele>652</ele>
        <time>2019-08-08T08:12:24.000Z</time>
      </trkpt>
      <trkpt lat="42.79337" lon="0.5927">
        <ele>652</ele>
        <time>2019-08-08T08:12:25.000Z</time>
      </trkpt>
      <trkpt lat="42.79343" lon="0.59276">
        <ele>652</ele>
        <time>2019-08-08T08:12:26.000Z</time>
      </trkpt>
      <trkpt lat="42.7935" lon="0.59282">
        <ele>652</ele>
        <time>2019-08-08T08:12:27.000Z</time>
      </trkpt>
      <trkpt lat="42.79356" lon="0.59288">
        <ele>652</ele>
        <time>2019-08-08T08:12:28.000Z</time>
      </trkpt>
      <trkpt lat="42.79363" lon="0.59294">
        <ele>652</ele>
        <time>2019-08-08T08:12:29.000Z</time>
      </trkpt>
      <trkpt lat="42.79369" lon="0.593">
        <ele>652</ele>
        <time>2019-08-08T08:12:30.000Z</time>
      </trkpt>
      <trkpt lat="42.79375" lon="0.59306">
        <ele>652</ele>
        <time>2019-08-08T08:12:31.000Z</time>
      </trkpt>
      <trkpt lat="42.7938" lon="0.59312">
        <ele>652</ele>
        <time>2019-08-08T08:12:32.000Z</time>
      </trkpt>
      <trkpt lat="42.79386" lon="0.59316">
        <ele>652</ele>
        <time>2019-08-08T08:12:33.000Z</time>
      </trkpt>
      <trkpt lat="42.79391" lon="0.59321">
        <ele>652</ele>
        <time>2019-08-08T08:12:34.000Z</time>
      </trkpt>
      <trkpt lat="42.79397" lon="0.59326">
        <ele>652</ele>
        <time>2019-08-08T08:12:35.000Z</time>
      </trkpt>
      <trkpt lat="42.79403" lon="0.59331">
        <ele>652</ele>
        <time>2019-08-08T08:12:36.000Z</time>
      </trkpt>
      <trkpt lat="42.79408" lon="0.59336">
        <ele>652</ele>
        <time>2019-08-08T08:12:37.000Z</time>
      </trkpt>
      <trkpt lat="42.79415" lon="0.59342">
        <ele>651</ele>
        <time>2019-08-08T08:12:38.000Z</time>
      </trkpt>
      <trkpt lat="42.79421" lon="0.59348">
        <ele>651</ele>
        <time>2019-08-08T08:12:39.000Z</time>
      </trkpt>
      <trkpt lat="42.79427" lon="0.59354">
        <ele>651</ele>
        <time>2019-08-08T08:12:40.000Z</time>
      </trkpt>
      <trkpt lat="42.79433" lon="0.59359">
        <ele>651</ele>
        <time>2019-08-08T08:12:41.000Z</time>
      </trkpt>
      <trkpt lat="42.79438" lon="0.59364">
        <ele>651</ele>
        <time>2019-08-08T08:12:42.000Z</time>
      </trkpt>
      <trkpt lat="42.79444" lon="0.59367">
        <ele>651</ele>
        <time>2019-08-08T08:12:43.000Z</time>
      </trkpt>
      <trkpt lat="42.79446" lon="0.59368">
        <ele>650.4</ele>
        <time>2019-08-08T08:12:44.000Z</time>
      </trkpt>
      <trkpt lat="42.7945" lon="0.59371">
        <ele>650</ele>
        <time>2019-08-08T08:12:45.000Z</time>
      </trkpt>
      <trkpt lat="42.79455" lon="0.59376">
        <ele>650</ele>
        <time>2019-08-08T08:12:46.000Z</time>
      </trkpt>
      <trkpt lat="42.79461" lon="0.59382">
        <ele>650</ele>
        <time>2019-08-08T08:12:47.000Z</time>
      </trkpt>
      <trkpt lat="42.79466" lon="0.59388">
        <ele>650</ele>
        <time>2019-08-08T08:12:48.000Z</time>
      </trkpt>
      <trkpt lat="42.79471" lon="0.59392">
        <ele>650</ele>
        <time>2019-08-08T08:12:49.000Z</time>
      </trkpt>
      <trkpt lat="42.79476" lon="0.59396">
        <ele>650</ele>
        <time>2019-08-08T08:12:50.000Z</time>
      </trkpt>
      <trkpt lat="42.79482" lon="0.59403">
        <ele>650</ele>
        <time>2019-08-08T08:12:51.000Z</time>
      </trkpt>
      <trkpt lat="42.79487" lon="0.5941">
        <ele>650</ele>
        <time>2019-08-08T08:12:52.000Z</time>
      </trkpt>
      <trkpt lat="42.79492" lon="0.5942">
        <ele>650</ele>
        <time>2019-08-08T08:12:53.000Z</time>
      </trkpt>
      <trkpt lat="42.79495" lon="0.5943">
        <ele>650</ele>
        <time>2019-08-08T08:12:54.000Z</time>
      </trkpt>
      <trkpt lat="42.79498" lon="0.5944">
        <ele>650</ele>
        <time>2019-08-08T08:12:55.000Z</time>
      </trkpt>
      <trkpt lat="42.79501" lon="0.59451">
        <ele>649</ele>
        <time>2019-08-08T08:12:56.000Z</time>
      </trkpt>
      <trkpt lat="42.79503" lon="0.59461">
        <ele>649</ele>
        <time>2019-08-08T08:12:57.000Z</time>
      </trkpt>
      <trkpt lat="42.79505" lon="0.59473">
        <ele>649</ele>
        <time>2019-08-08T08:12:58.000Z</time>
      </trkpt>
      <trkpt lat="42.79506" lon="0.59485">
        <ele>649</ele>
        <time>2019-08-08T08:12:59.000Z</time>
      </trkpt>
      <trkpt lat="42.79507" lon="0.59497">
        <ele>649</ele>
        <time>2019-08-08T08:13:00.000Z</time>
      </trkpt>
      <trkpt lat="42.79507" lon="0.59509">
        <ele>649</ele>
        <time>2019-08-08T08:13:01.000Z</time>
      </trkpt>
      <trkpt lat="42.79508" lon="0.59521">
        <ele>648</ele>
        <time>2019-08-08T08:13:02.000Z</time>
      </trkpt>
      <trkpt lat="42.79509" lon="0.59532">
        <ele>648</ele>
        <time>2019-08-08T08:13:03.000Z</time>
      </trkpt>
      <trkpt lat="42.7951" lon="0.59543">
        <ele>648</ele>
        <time>2019-08-08T08:13:04.000Z</time>
      </trkpt>
      <trkpt lat="42.79511" lon="0.59554">
        <ele>648</ele>
        <time>2019-08-08T08:13:05.000Z</time>
      </trkpt>
      <trkpt lat="42.79512" lon="0.59564">
        <ele>647</ele>
        <time>2019-08-08T08:13:06.000Z</time>
      </trkpt>
      <trkpt lat="42.79512" lon="0.59575">
        <ele>647</ele>
        <time>2019-08-08T08:13:07.000Z</time>
      </trkpt>
      <trkpt lat="42.79512" lon="0.59587">
        <ele>647</ele>
        <time>2019-08-08T08:13:08.000Z</time>
      </trkpt>
      <trkpt lat="42.79512" lon="0.59598">
        <ele>647</ele>
        <time>2019-08-08T08:13:09.000Z</time>
      </trkpt>
      <trkpt lat="42.79512" lon="0.5961">
        <ele>647</ele>
        <time>2019-08-08T08:13:10.000Z</time>
      </trkpt>
      <trkpt lat="42.79512" lon="0.59621">
        <ele>647</ele>
        <time>2019-08-08T08:13:11.000Z</time>
      </trkpt>
      <trkpt lat="42.79514" lon="0.59632">
        <ele>647</ele>
        <time>2019-08-08T08:13:12.000Z</time>
      </trkpt>
      <trkpt lat="42.79515" lon="0.59643">
        <ele>647</ele>
        <time>2019-08-08T08:13:13.000Z</time>
      </trkpt>
      <trkpt lat="42.79518" lon="0.59654">
        <ele>647</ele>
        <time>2019-08-08T08:13:14.000Z</time>
      </trkpt>
      <trkpt lat="42.79522" lon="0.59663">
        <ele>647</ele>
        <time>2019-08-08T08:13:15.000Z</time>
      </trkpt>
      <trkpt lat="42.79528" lon="0.59671">
        <ele>647</ele>
        <time>2019-08-08T08:13:16.000Z</time>
      </trkpt>
      <trkpt lat="42.79535" lon="0.59677">
        <ele>647</ele>
        <time>2019-08-08T08:13:17.000Z</time>
      </trkpt>
      <trkpt lat="42.79543" lon="0.59681">
        <ele>647</ele>
        <time>2019-08-08T08:13:18.000Z</time>
      </trkpt>
      <trkpt lat="42.79551" lon="0.59682">
        <ele>647</ele>
        <time>2019-08-08T08:13:19.000Z</time>
      </trkpt>
      <trkpt lat="42.7956" lon="0.59683">
        <ele>646</ele>
        <time>2019-08-08T08:13:20.000Z</time>
      </trkpt>
      <trkpt lat="42.79573" lon="0.59684">
        <ele>646</ele>
        <time>2019-08-08T08:13:21.000Z</time>
      </trkpt>
      <trkpt lat="42.79577" lon="0.59685">
        <ele>646</ele>
        <time>2019-08-08T08:13:22.000Z</time>
      </trkpt>
      <trkpt lat="42.79585" lon="0.59685">
        <ele>646</ele>
        <time>2019-08-08T08:13:23.000Z</time>
      </trkpt>
      <trkpt lat="42.79594" lon="0.59687">
        <ele>645</ele>
        <time>2019-08-08T08:13:24.000Z</time>
      </trkpt>
      <trkpt lat="42.79604" lon="0.59689">
        <ele>645</ele>
        <time>2019-08-08T08:13:25.000Z</time>
      </trkpt>
      <trkpt lat="42.79613" lon="0.5969">
        <ele>645</ele>
        <time>2019-08-08T08:13:26.000Z</time>
      </trkpt>
      <trkpt lat="42.79622" lon="0.59691">
        <ele>644</ele>
        <time>2019-08-08T08:13:27.000Z</time>
      </trkpt>
      <trkpt lat="42.79632" lon="0.59693">
        <ele>644</ele>
        <time>2019-08-08T08:13:28.000Z</time>
      </trkpt>
      <trkpt lat="42.79641" lon="0.59694">
        <ele>644</ele>
        <time>2019-08-08T08:13:29.000Z</time>
      </trkpt>
      <trkpt lat="42.7965" lon="0.59696">
        <ele>644</ele>
        <time>2019-08-08T08:13:30.000Z</time>
      </trkpt>
      <trkpt lat="42.79659" lon="0.59697">
        <ele>644</ele>
        <time>2019-08-08T08:13:31.000Z</time>
      </trkpt>
      <trkpt lat="42.79668" lon="0.59698">
        <ele>644</ele>
        <time>2019-08-08T08:13:32.000Z</time>
      </trkpt>
      <trkpt lat="42.79677" lon="0.59699">
        <ele>644</ele>
        <time>2019-08-08T08:13:33.000Z</time>
      </trkpt>
      <trkpt lat="42.79686" lon="0.597">
        <ele>643</ele>
        <time>2019-08-08T08:13:34.000Z</time>
      </trkpt>
      <trkpt lat="42.79696" lon="0.59702">
        <ele>643</ele>
        <time>2019-08-08T08:13:35.000Z</time>
      </trkpt>
      <trkpt lat="42.79705" lon="0.59703">
        <ele>642</ele>
        <time>2019-08-08T08:13:36.000Z</time>
      </trkpt>
      <trkpt lat="42.79714" lon="0.59704">
        <ele>642</ele>
        <time>2019-08-08T08:13:37.000Z</time>
      </trkpt>
      <trkpt lat="42.79723" lon="0.59705">
        <ele>642</ele>
        <time>2019-08-08T08:13:38.000Z</time>
      </trkpt>
      <trkpt lat="42.79732" lon="0.59706">
        <ele>642</ele>
        <time>2019-08-08T08:13:39.000Z</time>
      </trkpt>
      <trkpt lat="42.79741" lon="0.59707">
        <ele>642</ele>
        <time>2019-08-08T08:13:40.000Z</time>
      </trkpt>
      <trkpt lat="42.7975" lon="0.59709">
        <ele>642</ele>
        <time>2019-08-08T08:13:41.000Z</time>
      </trkpt>
      <trkpt lat="42.79759" lon="0.5971">
        <ele>642</ele>
        <time>2019-08-08T08:13:42.000Z</time>
      </trkpt>
      <trkpt lat="42.79769" lon="0.59711">
        <ele>642</ele>
        <time>2019-08-08T08:13:43.000Z</time>
      </trkpt>
      <trkpt lat="42.79778" lon="0.59713">
        <ele>642</ele>
        <time>2019-08-08T08:13:44.000Z</time>
      </trkpt>
      <trkpt lat="42.79787" lon="0.59714">
        <ele>642</ele>
        <time>2019-08-08T08:13:45.000Z</time>
      </trkpt>
      <trkpt lat="42.79797" lon="0.59715">
        <ele>642</ele>
        <time>2019-08-08T08:13:46.000Z</time>
      </trkpt>
      <trkpt lat="42.79806" lon="0.59717">
        <ele>642</ele>
        <time>2019-08-08T08:13:47.000Z</time>
      </trkpt>
      <trkpt lat="42.79816" lon="0.59718">
        <ele>641</ele>
        <time>2019-08-08T08:13:48.000Z</time>
      </trkpt>
      <trkpt lat="42.79826" lon="0.59719">
        <ele>641</ele>
        <time>2019-08-08T08:13:49.000Z</time>
      </trkpt>
      <trkpt lat="42.79835" lon="0.5972">
        <ele>641</ele>
        <time>2019-08-08T08:13:50.000Z</time>
      </trkpt>
      <trkpt lat="42.79845" lon="0.59721">
        <ele>641</ele>
        <time>2019-08-08T08:13:51.000Z</time>
      </trkpt>
      <trkpt lat="42.79854" lon="0.59722">
        <ele>640</ele>
        <time>2019-08-08T08:13:52.000Z</time>
      </trkpt>
      <trkpt lat="42.79864" lon="0.59724">
        <ele>640</ele>
        <time>2019-08-08T08:13:53.000Z</time>
      </trkpt>
      <trkpt lat="42.79873" lon="0.59725">
        <ele>640</ele>
        <time>2019-08-08T08:13:54.000Z</time>
      </trkpt>
      <trkpt lat="42.79883" lon="0.59726">
        <ele>640</ele>
        <time>2019-08-08T08:13:55.000Z</time>
      </trkpt>
      <trkpt lat="42.79892" lon="0.59728">
        <ele>640</ele>
        <time>2019-08-08T08:13:56.000Z</time>
      </trkpt>
      <trkpt lat="42.79901" lon="0.59729">
        <ele>640</ele>
        <time>2019-08-08T08:13:57.000Z</time>
      </trkpt>
      <trkpt lat="42.7991" lon="0.59731">
        <ele>639</ele>
        <time>2019-08-08T08:13:58.000Z</time>
      </trkpt>
      <trkpt lat="42.79924" lon="0.59732">
        <ele>639</ele>
        <time>2019-08-08T08:13:59.000Z</time>
      </trkpt>
      <trkpt lat="42.79929" lon="0.59733">
        <ele>639</ele>
        <time>2019-08-08T08:14:00.000Z</time>
      </trkpt>
      <trkpt lat="42.79938" lon="0.59734">
        <ele>639</ele>
        <time>2019-08-08T08:14:01.000Z</time>
      </trkpt>
      <trkpt lat="42.79947" lon="0.59735">
        <ele>639</ele>
        <time>2019-08-08T08:14:02.000Z</time>
      </trkpt>
      <trkpt lat="42.79957" lon="0.59735">
        <ele>639</ele>
        <time>2019-08-08T08:14:03.000Z</time>
      </trkpt>
      <trkpt lat="42.79966" lon="0.59736">
        <ele>639</ele>
        <time>2019-08-08T08:14:04.000Z</time>
      </trkpt>
      <trkpt lat="42.79976" lon="0.59738">
        <ele>639</ele>
        <time>2019-08-08T08:14:05.000Z</time>
      </trkpt>
      <trkpt lat="42.79985" lon="0.59739">
        <ele>639</ele>
        <time>2019-08-08T08:14:06.000Z</time>
      </trkpt>
      <trkpt lat="42.79994" lon="0.5974">
        <ele>639</ele>
        <time>2019-08-08T08:14:07.000Z</time>
      </trkpt>
      <trkpt lat="42.80004" lon="0.5974">
        <ele>639</ele>
        <time>2019-08-08T08:14:08.000Z</time>
      </trkpt>
      <trkpt lat="42.80013" lon="0.59741">
        <ele>639</ele>
        <time>2019-08-08T08:14:09.000Z</time>
      </trkpt>
      <trkpt lat="42.80023" lon="0.59742">
        <ele>639</ele>
        <time>2019-08-08T08:14:10.000Z</time>
      </trkpt>
      <trkpt lat="42.80033" lon="0.59743">
        <ele>639</ele>
        <time>2019-08-08T08:14:11.000Z</time>
      </trkpt>
      <trkpt lat="42.80042" lon="0.59744">
        <ele>639</ele>
        <time>2019-08-08T08:14:12.000Z</time>
      </trkpt>
      <trkpt lat="42.80052" lon="0.59744">
        <ele>638</ele>
        <time>2019-08-08T08:14:13.000Z</time>
      </trkpt>
      <trkpt lat="42.80062" lon="0.59744">
        <ele>638</ele>
        <time>2019-08-08T08:14:14.000Z</time>
      </trkpt>
      <trkpt lat="42.80072" lon="0.59744">
        <ele>638</ele>
        <time>2019-08-08T08:14:15.000Z</time>
      </trkpt>
      <trkpt lat="42.80081" lon="0.59745">
        <ele>638</ele>
        <time>2019-08-08T08:14:16.000Z</time>
      </trkpt>
      <trkpt lat="42.8009" lon="0.59745">
        <ele>638</ele>
        <time>2019-08-08T08:14:17.000Z</time>
      </trkpt>
      <trkpt lat="42.80099" lon="0.59746">
        <ele>638</ele>
        <time>2019-08-08T08:14:18.000Z</time>
      </trkpt>
      <trkpt lat="42.80108" lon="0.59746">
        <ele>638</ele>
        <time>2019-08-08T08:14:19.000Z</time>
      </trkpt>
      <trkpt lat="42.80117" lon="0.59747">
        <ele>638</ele>
        <time>2019-08-08T08:14:20.000Z</time>
      </trkpt>
      <trkpt lat="42.80126" lon="0.59748">
        <ele>638</ele>
        <time>2019-08-08T08:14:21.000Z</time>
      </trkpt>
      <trkpt lat="42.80135" lon="0.59749">
        <ele>638</ele>
        <time>2019-08-08T08:14:22.000Z</time>
      </trkpt>
      <trkpt lat="42.80145" lon="0.59751">
        <ele>638</ele>
        <time>2019-08-08T08:14:23.000Z</time>
      </trkpt>
      <trkpt lat="42.80154" lon="0.59753">
        <ele>637</ele>
        <time>2019-08-08T08:14:24.000Z</time>
      </trkpt>
      <trkpt lat="42.80163" lon="0.59756">
        <ele>637</ele>
        <time>2019-08-08T08:14:25.000Z</time>
      </trkpt>
      <trkpt lat="42.80172" lon="0.59758">
        <ele>637</ele>
        <time>2019-08-08T08:14:26.000Z</time>
      </trkpt>
      <trkpt lat="42.80181" lon="0.59761">
        <ele>637</ele>
        <time>2019-08-08T08:14:27.000Z</time>
      </trkpt>
      <trkpt lat="42.8019" lon="0.59764">
        <ele>637</ele>
        <time>2019-08-08T08:14:28.000Z</time>
      </trkpt>
      <trkpt lat="42.80199" lon="0.59768">
        <ele>636</ele>
        <time>2019-08-08T08:14:29.000Z</time>
      </trkpt>
      <trkpt lat="42.80208" lon="0.59771">
        <ele>636</ele>
        <time>2019-08-08T08:14:30.000Z</time>
      </trkpt>
      <trkpt lat="42.80217" lon="0.59775">
        <ele>636</ele>
        <time>2019-08-08T08:14:31.000Z</time>
      </trkpt>
      <trkpt lat="42.80226" lon="0.59779">
        <ele>636</ele>
        <time>2019-08-08T08:14:32.000Z</time>
      </trkpt>
      <trkpt lat="42.80235" lon="0.59783">
        <ele>636</ele>
        <time>2019-08-08T08:14:33.000Z</time>
      </trkpt>
      <trkpt lat="42.80244" lon="0.59788">
        <ele>636</ele>
        <time>2019-08-08T08:14:34.000Z</time>
      </trkpt>
      <trkpt lat="42.80252" lon="0.59794">
        <ele>636</ele>
        <time>2019-08-08T08:14:35.000Z</time>
      </trkpt>
      <trkpt lat="42.80261" lon="0.59799">
        <ele>636</ele>
        <time>2019-08-08T08:14:36.000Z</time>
      </trkpt>
      <trkpt lat="42.80269" lon="0.59805">
        <ele>636</ele>
        <time>2019-08-08T08:14:37.000Z</time>
      </trkpt>
      <trkpt lat="42.80277" lon="0.59811">
        <ele>636</ele>
        <time>2019-08-08T08:14:38.000Z</time>
      </trkpt>
      <trkpt lat="42.80285" lon="0.59817">
        <ele>636</ele>
        <time>2019-08-08T08:14:39.000Z</time>
      </trkpt>
      <trkpt lat="42.80293" lon="0.59824">
        <ele>636</ele>
        <time>2019-08-08T08:14:40.000Z</time>
      </trkpt>
      <trkpt lat="42.80301" lon="0.5983">
        <ele>636</ele>
        <time>2019-08-08T08:14:41.000Z</time>
      </trkpt>
      <trkpt lat="42.80309" lon="0.59836">
        <ele>635</ele>
        <time>2019-08-08T08:14:42.000Z</time>
      </trkpt>
      <trkpt lat="42.80317" lon="0.59842">
        <ele>635</ele>
        <time>2019-08-08T08:14:43.000Z</time>
      </trkpt>
      <trkpt lat="42.80325" lon="0.59849">
        <ele>635</ele>
        <time>2019-08-08T08:14:44.000Z</time>
      </trkpt>
      <trkpt lat="42.80333" lon="0.59855">
        <ele>635</ele>
        <time>2019-08-08T08:14:45.000Z</time>
      </trkpt>
      <trkpt lat="42.80341" lon="0.59862">
        <ele>635</ele>
        <time>2019-08-08T08:14:46.000Z</time>
      </trkpt>
      <trkpt lat="42.80349" lon="0.59867">
        <ele>635</ele>
        <time>2019-08-08T08:14:47.000Z</time>
      </trkpt>
      <trkpt lat="42.80357" lon="0.59874">
        <ele>635</ele>
        <time>2019-08-08T08:14:48.000Z</time>
      </trkpt>
      <trkpt lat="42.80365" lon="0.5988">
        <ele>635</ele>
        <time>2019-08-08T08:14:49.000Z</time>
      </trkpt>
      <trkpt lat="42.80373" lon="0.59886">
        <ele>635</ele>
        <time>2019-08-08T08:14:50.000Z</time>
      </trkpt>
      <trkpt lat="42.80381" lon="0.59893">
        <ele>635</ele>
        <time>2019-08-08T08:14:51.000Z</time>
      </trkpt>
      <trkpt lat="42.80388" lon="0.59899">
        <ele>634</ele>
        <time>2019-08-08T08:14:52.000Z</time>
      </trkpt>
      <trkpt lat="42.80396" lon="0.59905">
        <ele>634</ele>
        <time>2019-08-08T08:14:53.000Z</time>
      </trkpt>
      <trkpt lat="42.80404" lon="0.59911">
        <ele>634</ele>
        <time>2019-08-08T08:14:54.000Z</time>
      </trkpt>
      <trkpt lat="42.80412" lon="0.59918">
        <ele>634</ele>
        <time>2019-08-08T08:14:55.000Z</time>
      </trkpt>
      <trkpt lat="42.80419" lon="0.59924">
        <ele>634</ele>
        <time>2019-08-08T08:14:56.000Z</time>
      </trkpt>
      <trkpt lat="42.80427" lon="0.59931">
        <ele>634</ele>
        <time>2019-08-08T08:14:57.000Z</time>
      </trkpt>
      <trkpt lat="42.80435" lon="0.59937">
        <ele>634</ele>
        <time>2019-08-08T08:14:58.000Z</time>
      </trkpt>
      <trkpt lat="42.80443" lon="0.59943">
        <ele>634</ele>
        <time>2019-08-08T08:14:59.000Z</time>
      </trkpt>
      <trkpt lat="42.8045" lon="0.59949">
        <ele>633</ele>
        <time>2019-08-08T08:15:00.000Z</time>
      </trkpt>
      <trkpt lat="42.80458" lon="0.59956">
        <ele>633</ele>
        <time>2019-08-08T08:15:01.000Z</time>
      </trkpt>
      <trkpt lat="42.80466" lon="0.59962">
        <ele>633</ele>
        <time>2019-08-08T08:15:02.000Z</time>
      </trkpt>
      <trkpt lat="42.80474" lon="0.59969">
        <ele>633</ele>
        <time>2019-08-08T08:15:03.000Z</time>
      </trkpt>
      <trkpt lat="42.80481" lon="0.59975">
        <ele>633</ele>
        <time>2019-08-08T08:15:04.000Z</time>
      </trkpt>
      <trkpt lat="42.80489" lon="0.59982">
        <ele>633</ele>
        <time>2019-08-08T08:15:05.000Z</time>
      </trkpt>
      <trkpt lat="42.80496" lon="0.59989">
        <ele>633</ele>
        <time>2019-08-08T08:15:06.000Z</time>
      </trkpt>
      <trkpt lat="42.80503" lon="0.59997">
        <ele>633</ele>
        <time>2019-08-08T08:15:07.000Z</time>
      </trkpt>
      <trkpt lat="42.80509" lon="0.60005">
        <ele>633</ele>
        <time>2019-08-08T08:15:08.000Z</time>
      </trkpt>
      <trkpt lat="42.80515" lon="0.60014">
        <ele>633</ele>
        <time>2019-08-08T08:15:09.000Z</time>
      </trkpt>
      <trkpt lat="42.8052" lon="0.60022">
        <ele>633</ele>
        <time>2019-08-08T08:15:10.000Z</time>
      </trkpt>
      <trkpt lat="42.80527" lon="0.60029">
        <ele>633</ele>
        <time>2019-08-08T08:15:11.000Z</time>
      </trkpt>
      <trkpt lat="42.80534" lon="0.60033">
        <ele>634</ele>
        <time>2019-08-08T08:15:12.000Z</time>
      </trkpt>
      <trkpt lat="42.80542" lon="0.60032">
        <ele>634</ele>
        <time>2019-08-08T08:15:13.000Z</time>
      </trkpt>
      <trkpt lat="42.8055" lon="0.60031">
        <ele>634</ele>
        <time>2019-08-08T08:15:14.000Z</time>
      </trkpt>
      <trkpt lat="42.80564" lon="0.60032">
        <ele>634</ele>
        <time>2019-08-08T08:15:15.000Z</time>
      </trkpt>
      <trkpt lat="42.80568" lon="0.60032">
        <ele>634</ele>
        <time>2019-08-08T08:15:16.000Z</time>
      </trkpt>
      <trkpt lat="42.80577" lon="0.60034">
        <ele>634</ele>
        <time>2019-08-08T08:15:17.000Z</time>
      </trkpt>
      <trkpt lat="42.80585" lon="0.60036">
        <ele>634</ele>
        <time>2019-08-08T08:15:18.000Z</time>
      </trkpt>
      <trkpt lat="42.80594" lon="0.60038">
        <ele>633</ele>
        <time>2019-08-08T08:15:19.000Z</time>
      </trkpt>
      <trkpt lat="42.80602" lon="0.60039">
        <ele>633</ele>
        <time>2019-08-08T08:15:20.000Z</time>
      </trkpt>
      <trkpt lat="42.8061" lon="0.6004">
        <ele>632</ele>
        <time>2019-08-08T08:15:21.000Z</time>
      </trkpt>
      <trkpt lat="42.80618" lon="0.6004">
        <ele>632</ele>
        <time>2019-08-08T08:15:22.000Z</time>
      </trkpt>
      <trkpt lat="42.80626" lon="0.60041">
        <ele>632</ele>
        <time>2019-08-08T08:15:23.000Z</time>
      </trkpt>
      <trkpt lat="42.80634" lon="0.60042">
        <ele>632</ele>
        <time>2019-08-08T08:15:24.000Z</time>
      </trkpt>
      <trkpt lat="42.80643" lon="0.60043">
        <ele>632</ele>
        <time>2019-08-08T08:15:25.000Z</time>
      </trkpt>
      <trkpt lat="42.80652" lon="0.60045">
        <ele>632</ele>
        <time>2019-08-08T08:15:26.000Z</time>
      </trkpt>
      <trkpt lat="42.80662" lon="0.60048">
        <ele>632</ele>
        <time>2019-08-08T08:15:27.000Z</time>
      </trkpt>
      <trkpt lat="42.80675" lon="0.6005">
        <ele>632</ele>
        <time>2019-08-08T08:15:28.000Z</time>
      </trkpt>
      <trkpt lat="42.8068" lon="0.60051">
        <ele>632</ele>
        <time>2019-08-08T08:15:29.000Z</time>
      </trkpt>
      <trkpt lat="42.80693" lon="0.60055">
        <ele>632</ele>
        <time>2019-08-08T08:15:30.000Z</time>
      </trkpt>
      <trkpt lat="42.80698" lon="0.60056">
        <ele>631</ele>
        <time>2019-08-08T08:15:31.000Z</time>
      </trkpt>
      <trkpt lat="42.80707" lon="0.60058">
        <ele>631</ele>
        <time>2019-08-08T08:15:32.000Z</time>
      </trkpt>
      <trkpt lat="42.80724" lon="0.60063">
        <ele>631</ele>
        <time>2019-08-08T08:15:33.000Z</time>
      </trkpt>
      <trkpt lat="42.80733" lon="0.60065">
        <ele>631</ele>
        <time>2019-08-08T08:15:35.000Z</time>
      </trkpt>
      <trkpt lat="42.80742" lon="0.60068">
        <ele>631</ele>
        <time>2019-08-08T08:15:36.000Z</time>
      </trkpt>
      <trkpt lat="42.80742" lon="0.60068">
        <ele>631</ele>
        <time>2019-08-08T08:15:37.000Z</time>
      </trkpt>
      <trkpt lat="42.80759" lon="0.60072">
        <ele>631</ele>
        <time>2019-08-08T08:15:38.000Z</time>
      </trkpt>
      <trkpt lat="42.80772" lon="0.60076">
        <ele>631</ele>
        <time>2019-08-08T08:15:39.000Z</time>
      </trkpt>
      <trkpt lat="42.80776" lon="0.60077">
        <ele>631</ele>
        <time>2019-08-08T08:15:40.000Z</time>
      </trkpt>
      <trkpt lat="42.80785" lon="0.60079">
        <ele>631</ele>
        <time>2019-08-08T08:15:41.000Z</time>
      </trkpt>
      <trkpt lat="42.80794" lon="0.60081">
        <ele>630</ele>
        <time>2019-08-08T08:15:42.000Z</time>
      </trkpt>
      <trkpt lat="42.80803" lon="0.60083">
        <ele>630</ele>
        <time>2019-08-08T08:15:43.000Z</time>
      </trkpt>
      <trkpt lat="42.80811" lon="0.60085">
        <ele>630</ele>
        <time>2019-08-08T08:15:44.000Z</time>
      </trkpt>
      <trkpt lat="42.8082" lon="0.60088">
        <ele>630</ele>
        <time>2019-08-08T08:15:45.000Z</time>
      </trkpt>
      <trkpt lat="42.80829" lon="0.6009">
        <ele>630</ele>
        <time>2019-08-08T08:15:46.000Z</time>
      </trkpt>
      <trkpt lat="42.80837" lon="0.60092">
        <ele>631</ele>
        <time>2019-08-08T08:15:47.000Z</time>
      </trkpt>
      <trkpt lat="42.80846" lon="0.60094">
        <ele>631</ele>
        <time>2019-08-08T08:15:48.000Z</time>
      </trkpt>
      <trkpt lat="42.80859" lon="0.60096">
        <ele>631</ele>
        <time>2019-08-08T08:15:49.000Z</time>
      </trkpt>
      <trkpt lat="42.80863" lon="0.60097">
        <ele>631</ele>
        <time>2019-08-08T08:15:50.000Z</time>
      </trkpt>
      <trkpt lat="42.80876" lon="0.60101">
        <ele>631</ele>
        <time>2019-08-08T08:15:51.000Z</time>
      </trkpt>
      <trkpt lat="42.80881" lon="0.60102">
        <ele>631</ele>
        <time>2019-08-08T08:15:52.000Z</time>
      </trkpt>
      <trkpt lat="42.80894" lon="0.60105">
        <ele>631</ele>
        <time>2019-08-08T08:15:53.000Z</time>
      </trkpt>
      <trkpt lat="42.80898" lon="0.60106">
        <ele>631</ele>
        <time>2019-08-08T08:15:54.000Z</time>
      </trkpt>
      <trkpt lat="42.80907" lon="0.60108">
        <ele>631</ele>
        <time>2019-08-08T08:15:55.000Z</time>
      </trkpt>
      <trkpt lat="42.80916" lon="0.6011">
        <ele>630</ele>
        <time>2019-08-08T08:15:56.000Z</time>
      </trkpt>
      <trkpt lat="42.80929" lon="0.60113">
        <ele>630</ele>
        <time>2019-08-08T08:15:57.000Z</time>
      </trkpt>
      <trkpt lat="42.80933" lon="0.60114">
        <ele>630</ele>
        <time>2019-08-08T08:15:58.000Z</time>
      </trkpt>
      <trkpt lat="42.80942" lon="0.60116">
        <ele>630</ele>
        <time>2019-08-08T08:15:59.000Z</time>
      </trkpt>
      <trkpt lat="42.8095" lon="0.60118">
        <ele>630</ele>
        <time>2019-08-08T08:16:00.000Z</time>
      </trkpt>
      <trkpt lat="42.80958" lon="0.6012">
        <ele>630</ele>
        <time>2019-08-08T08:16:01.000Z</time>
      </trkpt>
      <trkpt lat="42.80967" lon="0.60121">
        <ele>630</ele>
        <time>2019-08-08T08:16:02.000Z</time>
      </trkpt>
      <trkpt lat="42.80975" lon="0.60123">
        <ele>630</ele>
        <time>2019-08-08T08:16:03.000Z</time>
      </trkpt>
      <trkpt lat="42.80983" lon="0.60125">
        <ele>630</ele>
        <time>2019-08-08T08:16:04.000Z</time>
      </trkpt>
      <trkpt lat="42.80992" lon="0.60127">
        <ele>630</ele>
        <time>2019-08-08T08:16:05.000Z</time>
      </trkpt>
      <trkpt lat="42.81" lon="0.60129">
        <ele>630</ele>
        <time>2019-08-08T08:16:06.000Z</time>
      </trkpt>
      <trkpt lat="42.81009" lon="0.6013">
        <ele>630</ele>
        <time>2019-08-08T08:16:07.000Z</time>
      </trkpt>
      <trkpt lat="42.81017" lon="0.60132">
        <ele>630</ele>
        <time>2019-08-08T08:16:08.000Z</time>
      </trkpt>
      <trkpt lat="42.81025" lon="0.60134">
        <ele>629</ele>
        <time>2019-08-08T08:16:09.000Z</time>
      </trkpt>
      <trkpt lat="42.81034" lon="0.60136">
        <ele>629</ele>
        <time>2019-08-08T08:16:10.000Z</time>
      </trkpt>
      <trkpt lat="42.81042" lon="0.60137">
        <ele>630</ele>
        <time>2019-08-08T08:16:11.000Z</time>
      </trkpt>
      <trkpt lat="42.81055" lon="0.6014">
        <ele>630</ele>
        <time>2019-08-08T08:16:12.000Z</time>
      </trkpt>
      <trkpt lat="42.81059" lon="0.60141">
        <ele>630</ele>
        <time>2019-08-08T08:16:13.000Z</time>
      </trkpt>
      <trkpt lat="42.81067" lon="0.60143">
        <ele>630</ele>
        <time>2019-08-08T08:16:14.000Z</time>
      </trkpt>
      <trkpt lat="42.81075" lon="0.60145">
        <ele>630</ele>
        <time>2019-08-08T08:16:15.000Z</time>
      </trkpt>
      <trkpt lat="42.81084" lon="0.60148">
        <ele>630</ele>
        <time>2019-08-08T08:16:16.000Z</time>
      </trkpt>
      <trkpt lat="42.81092" lon="0.60149">
        <ele>630</ele>
        <time>2019-08-08T08:16:17.000Z</time>
      </trkpt>
      <trkpt lat="42.811" lon="0.60151">
        <ele>630</ele>
        <time>2019-08-08T08:16:18.000Z</time>
      </trkpt>
      <trkpt lat="42.81108" lon="0.60153">
        <ele>629</ele>
        <time>2019-08-08T08:16:19.000Z</time>
      </trkpt>
      <trkpt lat="42.81116" lon="0.60155">
        <ele>629</ele>
        <time>2019-08-08T08:16:20.000Z</time>
      </trkpt>
      <trkpt lat="42.81124" lon="0.60157">
        <ele>629</ele>
        <time>2019-08-08T08:16:21.000Z</time>
      </trkpt>
      <trkpt lat="42.81132" lon="0.60159">
        <ele>629</ele>
        <time>2019-08-08T08:16:22.000Z</time>
      </trkpt>
      <trkpt lat="42.81141" lon="0.60161">
        <ele>629</ele>
        <time>2019-08-08T08:16:23.000Z</time>
      </trkpt>
      <trkpt lat="42.81149" lon="0.60163">
        <ele>629</ele>
        <time>2019-08-08T08:16:24.000Z</time>
      </trkpt>
      <trkpt lat="42.81157" lon="0.60164">
        <ele>629</ele>
        <time>2019-08-08T08:16:25.000Z</time>
      </trkpt>
      <trkpt lat="42.81165" lon="0.60166">
        <ele>629</ele>
        <time>2019-08-08T08:16:26.000Z</time>
      </trkpt>
      <trkpt lat="42.81173" lon="0.60168">
        <ele>629</ele>
        <time>2019-08-08T08:16:27.000Z</time>
      </trkpt>
      <trkpt lat="42.81181" lon="0.6017">
        <ele>629</ele>
        <time>2019-08-08T08:16:28.000Z</time>
      </trkpt>
      <trkpt lat="42.8119" lon="0.60171">
        <ele>629</ele>
        <time>2019-08-08T08:16:29.000Z</time>
      </trkpt>
      <trkpt lat="42.81198" lon="0.60173">
        <ele>629</ele>
        <time>2019-08-08T08:16:30.000Z</time>
      </trkpt>
      <trkpt lat="42.81206" lon="0.60174">
        <ele>629</ele>
        <time>2019-08-08T08:16:31.000Z</time>
      </trkpt>
      <trkpt lat="42.81214" lon="0.60176">
        <ele>628</ele>
        <time>2019-08-08T08:16:32.000Z</time>
      </trkpt>
      <trkpt lat="42.81222" lon="0.60177">
        <ele>628</ele>
        <time>2019-08-08T08:16:33.000Z</time>
      </trkpt>
      <trkpt lat="42.8123" lon="0.60179">
        <ele>629</ele>
        <time>2019-08-08T08:16:34.000Z</time>
      </trkpt>
      <trkpt lat="42.81238" lon="0.6018">
        <ele>629</ele>
        <time>2019-08-08T08:16:35.000Z</time>
      </trkpt>
      <trkpt lat="42.81246" lon="0.60182">
        <ele>629</ele>
        <time>2019-08-08T08:16:36.000Z</time>
      </trkpt>
      <trkpt lat="42.81254" lon="0.60184">
        <ele>629</ele>
        <time>2019-08-08T08:16:37.000Z</time>
      </trkpt>
      <trkpt lat="42.81262" lon="0.60186">
        <ele>629</ele>
        <time>2019-08-08T08:16:38.000Z</time>
      </trkpt>
      <trkpt lat="42.8127" lon="0.60187">
        <ele>629</ele>
        <time>2019-08-08T08:16:39.000Z</time>
      </trkpt>
      <trkpt lat="42.81278" lon="0.60189">
        <ele>629</ele>
        <time>2019-08-08T08:16:40.000Z</time>
      </trkpt>
      <trkpt lat="42.81286" lon="0.60191">
        <ele>629</ele>
        <time>2019-08-08T08:16:41.000Z</time>
      </trkpt>
      <trkpt lat="42.81294" lon="0.60192">
        <ele>629</ele>
        <time>2019-08-08T08:16:42.000Z</time>
      </trkpt>
      <trkpt lat="42.81303" lon="0.60194">
        <ele>629</ele>
        <time>2019-08-08T08:16:43.000Z</time>
      </trkpt>
      <trkpt lat="42.81311" lon="0.60197">
        <ele>628</ele>
        <time>2019-08-08T08:16:44.000Z</time>
      </trkpt>
      <trkpt lat="42.81319" lon="0.602">
        <ele>628</ele>
        <time>2019-08-08T08:16:45.000Z</time>
      </trkpt>
      <trkpt lat="42.81328" lon="0.60202">
        <ele>628</ele>
        <time>2019-08-08T08:16:46.000Z</time>
      </trkpt>
      <trkpt lat="42.81336" lon="0.60204">
        <ele>628</ele>
        <time>2019-08-08T08:16:47.000Z</time>
      </trkpt>
      <trkpt lat="42.81344" lon="0.60206">
        <ele>628</ele>
        <time>2019-08-08T08:16:48.000Z</time>
      </trkpt>
      <trkpt lat="42.81353" lon="0.60208">
        <ele>628</ele>
        <time>2019-08-08T08:16:49.000Z</time>
      </trkpt>
      <trkpt lat="42.81361" lon="0.6021">
        <ele>628</ele>
        <time>2019-08-08T08:16:50.000Z</time>
      </trkpt>
      <trkpt lat="42.8137" lon="0.60212">
        <ele>628</ele>
        <time>2019-08-08T08:16:51.000Z</time>
      </trkpt>
      <trkpt lat="42.81378" lon="0.60214">
        <ele>627</ele>
        <time>2019-08-08T08:16:52.000Z</time>
      </trkpt>
      <trkpt lat="42.81386" lon="0.60216">
        <ele>627</ele>
        <time>2019-08-08T08:16:53.000Z</time>
      </trkpt>
      <trkpt lat="42.81395" lon="0.60218">
        <ele>627</ele>
        <time>2019-08-08T08:16:54.000Z</time>
      </trkpt>
      <trkpt lat="42.81403" lon="0.6022">
        <ele>627</ele>
        <time>2019-08-08T08:16:55.000Z</time>
      </trkpt>
      <trkpt lat="42.81412" lon="0.60222">
        <ele>627</ele>
        <time>2019-08-08T08:16:56.000Z</time>
      </trkpt>
      <trkpt lat="42.8142" lon="0.60224">
        <ele>627</ele>
        <time>2019-08-08T08:16:57.000Z</time>
      </trkpt>
      <trkpt lat="42.81429" lon="0.60225">
        <ele>627</ele>
        <time>2019-08-08T08:16:58.000Z</time>
      </trkpt>
      <trkpt lat="42.81437" lon="0.60227">
        <ele>627</ele>
        <time>2019-08-08T08:16:59.000Z</time>
      </trkpt>
      <trkpt lat="42.81445" lon="0.60229">
        <ele>627</ele>
        <time>2019-08-08T08:17:00.000Z</time>
      </trkpt>
      <trkpt lat="42.81454" lon="0.60231">
        <ele>627</ele>
        <time>2019-08-08T08:17:01.000Z</time>
      </trkpt>
      <trkpt lat="42.81462" lon="0.60233">
        <ele>627</ele>
        <time>2019-08-08T08:17:02.000Z</time>
      </trkpt>
      <trkpt lat="42.81471" lon="0.60235">
        <ele>627</ele>
        <time>2019-08-08T08:17:03.000Z</time>
      </trkpt>
      <trkpt lat="42.81479" lon="0.60237">
        <ele>627</ele>
        <time>2019-08-08T08:17:04.000Z</time>
      </trkpt>
      <trkpt lat="42.81488" lon="0.60239">
        <ele>627</ele>
        <time>2019-08-08T08:17:05.000Z</time>
      </trkpt>
      <trkpt lat="42.81496" lon="0.60241">
        <ele>627</ele>
        <time>2019-08-08T08:17:06.000Z</time>
      </trkpt>
      <trkpt lat="42.81505" lon="0.60242">
        <ele>627</ele>
        <time>2019-08-08T08:17:07.000Z</time>
      </trkpt>
      <trkpt lat="42.81513" lon="0.60244">
        <ele>627</ele>
        <time>2019-08-08T08:17:08.000Z</time>
      </trkpt>
      <trkpt lat="42.81521" lon="0.60246">
        <ele>626</ele>
        <time>2019-08-08T08:17:09.000Z</time>
      </trkpt>
      <trkpt lat="42.8153" lon="0.60248">
        <ele>626</ele>
        <time>2019-08-08T08:17:10.000Z</time>
      </trkpt>
      <trkpt lat="42.81538" lon="0.60249">
        <ele>626</ele>
        <time>2019-08-08T08:17:11.000Z</time>
      </trkpt>
      <trkpt lat="42.81546" lon="0.60251">
        <ele>626</ele>
        <time>2019-08-08T08:17:12.000Z</time>
      </trkpt>
      <trkpt lat="42.81555" lon="0.60253">
        <ele>626</ele>
        <time>2019-08-08T08:17:13.000Z</time>
      </trkpt>
      <trkpt lat="42.81563" lon="0.60255">
        <ele>626</ele>
        <time>2019-08-08T08:17:14.000Z</time>
      </trkpt>
      <trkpt lat="42.81571" lon="0.60256">
        <ele>627</ele>
        <time>2019-08-08T08:17:15.000Z</time>
      </trkpt>
      <trkpt lat="42.8158" lon="0.60258">
        <ele>627</ele>
        <time>2019-08-08T08:17:16.000Z</time>
      </trkpt>
      <trkpt lat="42.81588" lon="0.6026">
        <ele>627</ele>
        <time>2019-08-08T08:17:17.000Z</time>
      </trkpt>
      <trkpt lat="42.81596" lon="0.60262">
        <ele>627</ele>
        <time>2019-08-08T08:17:18.000Z</time>
      </trkpt>
      <trkpt lat="42.81604" lon="0.60264">
        <ele>626</ele>
        <time>2019-08-08T08:17:19.000Z</time>
      </trkpt>
      <trkpt lat="42.81613" lon="0.60266">
        <ele>626</ele>
        <time>2019-08-08T08:17:20.000Z</time>
      </trkpt>
      <trkpt lat="42.81621" lon="0.60267">
        <ele>626</ele>
        <time>2019-08-08T08:17:21.000Z</time>
      </trkpt>
      <trkpt lat="42.81629" lon="0.60269">
        <ele>626</ele>
        <time>2019-08-08T08:17:22.000Z</time>
      </trkpt>
      <trkpt lat="42.81638" lon="0.6027">
        <ele>626</ele>
        <time>2019-08-08T08:17:23.000Z</time>
      </trkpt>
      <trkpt lat="42.81646" lon="0.60272">
        <ele>626</ele>
        <time>2019-08-08T08:17:24.000Z</time>
      </trkpt>
      <trkpt lat="42.81654" lon="0.60274">
        <ele>626</ele>
        <time>2019-08-08T08:17:25.000Z</time>
      </trkpt>
      <trkpt lat="42.81663" lon="0.60276">
        <ele>626</ele>
        <time>2019-08-08T08:17:26.000Z</time>
      </trkpt>
      <trkpt lat="42.81671" lon="0.60278">
        <ele>626</ele>
        <time>2019-08-08T08:17:27.000Z</time>
      </trkpt>
      <trkpt lat="42.81679" lon="0.6028">
        <ele>626</ele>
        <time>2019-08-08T08:17:28.000Z</time>
      </trkpt>
      <trkpt lat="42.81688" lon="0.60282">
        <ele>626</ele>
        <time>2019-08-08T08:17:29.000Z</time>
      </trkpt>
      <trkpt lat="42.81696" lon="0.60284">
        <ele>626</ele>
        <time>2019-08-08T08:17:30.000Z</time>
      </trkpt>
      <trkpt lat="42.81704" lon="0.60286">
        <ele>626</ele>
        <time>2019-08-08T08:17:31.000Z</time>
      </trkpt>
      <trkpt lat="42.81713" lon="0.60288">
        <ele>626</ele>
        <time>2019-08-08T08:17:32.000Z</time>
      </trkpt>
      <trkpt lat="42.81721" lon="0.6029">
        <ele>626</ele>
        <time>2019-08-08T08:17:33.000Z</time>
      </trkpt>
      <trkpt lat="42.81729" lon="0.60292">
        <ele>625</ele>
        <time>2019-08-08T08:17:34.000Z</time>
      </trkpt>
      <trkpt lat="42.81738" lon="0.60294">
        <ele>625</ele>
        <time>2019-08-08T08:17:35.000Z</time>
      </trkpt>
      <trkpt lat="42.81746" lon="0.60296">
        <ele>625</ele>
        <time>2019-08-08T08:17:36.000Z</time>
      </trkpt>
      <trkpt lat="42.81754" lon="0.60297">
        <ele>625</ele>
        <time>2019-08-08T08:17:37.000Z</time>
      </trkpt>
      <trkpt lat="42.81763" lon="0.60299">
        <ele>625</ele>
        <time>2019-08-08T08:17:38.000Z</time>
      </trkpt>
      <trkpt lat="42.81771" lon="0.60301">
        <ele>625</ele>
        <time>2019-08-08T08:17:39.000Z</time>
      </trkpt>
      <trkpt lat="42.81779" lon="0.60303">
        <ele>625</ele>
        <time>2019-08-08T08:17:40.000Z</time>
      </trkpt>
      <trkpt lat="42.81788" lon="0.60305">
        <ele>625</ele>
        <time>2019-08-08T08:17:41.000Z</time>
      </trkpt>
      <trkpt lat="42.81796" lon="0.60307">
        <ele>625</ele>
        <time>2019-08-08T08:17:42.000Z</time>
      </trkpt>
      <trkpt lat="42.81804" lon="0.60309">
        <ele>625</ele>
        <time>2019-08-08T08:17:43.000Z</time>
      </trkpt>
      <trkpt lat="42.81813" lon="0.60311">
        <ele>625</ele>
        <time>2019-08-08T08:17:44.000Z</time>
      </trkpt>
      <trkpt lat="42.81821" lon="0.60313">
        <ele>625</ele>
        <time>2019-08-08T08:17:45.000Z</time>
      </trkpt>
      <trkpt lat="42.81829" lon="0.60315">
        <ele>625</ele>
        <time>2019-08-08T08:17:46.000Z</time>
      </trkpt>
      <trkpt lat="42.81841" lon="0.60317">
        <ele>625</ele>
        <time>2019-08-08T08:17:47.000Z</time>
      </trkpt>
      <trkpt lat="42.81845" lon="0.60318">
        <ele>625</ele>
        <time>2019-08-08T08:17:48.000Z</time>
      </trkpt>
      <trkpt lat="42.81854" lon="0.6032">
        <ele>625</ele>
        <time>2019-08-08T08:17:49.000Z</time>
      </trkpt>
      <trkpt lat="42.81862" lon="0.60322">
        <ele>625</ele>
        <time>2019-08-08T08:17:50.000Z</time>
      </trkpt>
      <trkpt lat="42.8187" lon="0.60324">
        <ele>625</ele>
        <time>2019-08-08T08:17:51.000Z</time>
      </trkpt>
      <trkpt lat="42.81878" lon="0.60326">
        <ele>625</ele>
        <time>2019-08-08T08:17:52.000Z</time>
      </trkpt>
      <trkpt lat="42.81886" lon="0.60328">
        <ele>625</ele>
        <time>2019-08-08T08:17:53.000Z</time>
      </trkpt>
      <trkpt lat="42.81894" lon="0.6033">
        <ele>625</ele>
        <time>2019-08-08T08:17:54.000Z</time>
      </trkpt>
      <trkpt lat="42.81902" lon="0.60332">
        <ele>625</ele>
        <time>2019-08-08T08:17:55.000Z</time>
      </trkpt>
      <trkpt lat="42.81911" lon="0.60333">
        <ele>625</ele>
        <time>2019-08-08T08:17:56.000Z</time>
      </trkpt>
      <trkpt lat="42.81919" lon="0.60335">
        <ele>625</ele>
        <time>2019-08-08T08:17:57.000Z</time>
      </trkpt>
      <trkpt lat="42.81927" lon="0.60337">
        <ele>624</ele>
        <time>2019-08-08T08:17:58.000Z</time>
      </trkpt>
      <trkpt lat="42.81935" lon="0.60339">
        <ele>624</ele>
        <time>2019-08-08T08:17:59.000Z</time>
      </trkpt>
      <trkpt lat="42.81943" lon="0.60341">
        <ele>624</ele>
        <time>2019-08-08T08:18:00.000Z</time>
      </trkpt>
      <trkpt lat="42.81951" lon="0.60342">
        <ele>624</ele>
        <time>2019-08-08T08:18:01.000Z</time>
      </trkpt>
      <trkpt lat="42.81959" lon="0.60344">
        <ele>624</ele>
        <time>2019-08-08T08:18:02.000Z</time>
      </trkpt>
      <trkpt lat="42.81967" lon="0.60346">
        <ele>624</ele>
        <time>2019-08-08T08:18:03.000Z</time>
      </trkpt>
      <trkpt lat="42.81975" lon="0.60347">
        <ele>624</ele>
        <time>2019-08-08T08:18:04.000Z</time>
      </trkpt>
      <trkpt lat="42.81983" lon="0.60349">
        <ele>624</ele>
        <time>2019-08-08T08:18:05.000Z</time>
      </trkpt>
      <trkpt lat="42.81995" lon="0.60351">
        <ele>624</ele>
        <time>2019-08-08T08:18:06.000Z</time>
      </trkpt>
      <trkpt lat="42.81999" lon="0.60351">
        <ele>624</ele>
        <time>2019-08-08T08:18:07.000Z</time>
      </trkpt>
      <trkpt lat="42.82007" lon="0.60353">
        <ele>624</ele>
        <time>2019-08-08T08:18:08.000Z</time>
      </trkpt>
      <trkpt lat="42.82015" lon="0.60354">
        <ele>624</ele>
        <time>2019-08-08T08:18:09.000Z</time>
      </trkpt>
      <trkpt lat="42.82023" lon="0.60355">
        <ele>624</ele>
        <time>2019-08-08T08:18:10.000Z</time>
      </trkpt>
      <trkpt lat="42.82032" lon="0.60357">
        <ele>624</ele>
        <time>2019-08-08T08:18:11.000Z</time>
      </trkpt>
      <trkpt lat="42.8204" lon="0.60358">
        <ele>624</ele>
        <time>2019-08-08T08:18:12.000Z</time>
      </trkpt>
      <trkpt lat="42.82048" lon="0.60359">
        <ele>624</ele>
        <time>2019-08-08T08:18:13.000Z</time>
      </trkpt>
      <trkpt lat="42.82056" lon="0.60359">
        <ele>624</ele>
        <time>2019-08-08T08:18:14.000Z</time>
      </trkpt>
      <trkpt lat="42.82065" lon="0.60361">
        <ele>624</ele>
        <time>2019-08-08T08:18:15.000Z</time>
      </trkpt>
      <trkpt lat="42.82073" lon="0.60364">
        <ele>624</ele>
        <time>2019-08-08T08:18:16.000Z</time>
      </trkpt>
      <trkpt lat="42.82082" lon="0.60366">
        <ele>623</ele>
        <time>2019-08-08T08:18:17.000Z</time>
      </trkpt>
      <trkpt lat="42.8209" lon="0.60369">
        <ele>623</ele>
        <time>2019-08-08T08:18:18.000Z</time>
      </trkpt>
      <trkpt lat="42.82103" lon="0.60372">
        <ele>623</ele>
        <time>2019-08-08T08:18:19.000Z</time>
      </trkpt>
      <trkpt lat="42.82107" lon="0.60373">
        <ele>623</ele>
        <time>2019-08-08T08:18:20.000Z</time>
      </trkpt>
      <trkpt lat="42.82115" lon="0.60376">
        <ele>623</ele>
        <time>2019-08-08T08:18:21.000Z</time>
      </trkpt>
      <trkpt lat="42.82124" lon="0.60378">
        <ele>623</ele>
        <time>2019-08-08T08:18:22.000Z</time>
      </trkpt>
      <trkpt lat="42.82132" lon="0.60379">
        <ele>623</ele>
        <time>2019-08-08T08:18:23.000Z</time>
      </trkpt>
      <trkpt lat="42.82145" lon="0.60381">
        <ele>623</ele>
        <time>2019-08-08T08:18:24.000Z</time>
      </trkpt>
      <trkpt lat="42.82149" lon="0.60381">
        <ele>623</ele>
        <time>2019-08-08T08:18:25.000Z</time>
      </trkpt>
      <trkpt lat="42.82161" lon="0.60382">
        <ele>623</ele>
        <time>2019-08-08T08:18:26.000Z</time>
      </trkpt>
      <trkpt lat="42.82166" lon="0.60383">
        <ele>623</ele>
        <time>2019-08-08T08:18:27.000Z</time>
      </trkpt>
      <trkpt lat="42.82178" lon="0.60383">
        <ele>623</ele>
        <time>2019-08-08T08:18:28.000Z</time>
      </trkpt>
      <trkpt lat="42.82182" lon="0.60383">
        <ele>623</ele>
        <time>2019-08-08T08:18:29.000Z</time>
      </trkpt>
      <trkpt lat="42.82195" lon="0.60383">
        <ele>623</ele>
        <time>2019-08-08T08:18:30.000Z</time>
      </trkpt>
      <trkpt lat="42.82199" lon="0.60384">
        <ele>623</ele>
        <time>2019-08-08T08:18:31.000Z</time>
      </trkpt>
      <trkpt lat="42.82207" lon="0.60385">
        <ele>623</ele>
        <time>2019-08-08T08:18:32.000Z</time>
      </trkpt>
      <trkpt lat="42.82215" lon="0.60385">
        <ele>622</ele>
        <time>2019-08-08T08:18:33.000Z</time>
      </trkpt>
      <trkpt lat="42.82223" lon="0.60385">
        <ele>622</ele>
        <time>2019-08-08T08:18:34.000Z</time>
      </trkpt>
      <trkpt lat="42.82236" lon="0.60385">
        <ele>622</ele>
        <time>2019-08-08T08:18:35.000Z</time>
      </trkpt>
      <trkpt lat="42.8224" lon="0.60385">
        <ele>622</ele>
        <time>2019-08-08T08:18:36.000Z</time>
      </trkpt>
      <trkpt lat="42.82248" lon="0.60385">
        <ele>622</ele>
        <time>2019-08-08T08:18:37.000Z</time>
      </trkpt>
      <trkpt lat="42.82256" lon="0.60384">
        <ele>622</ele>
        <time>2019-08-08T08:18:38.000Z</time>
      </trkpt>
      <trkpt lat="42.82264" lon="0.60384">
        <ele>622</ele>
        <time>2019-08-08T08:18:39.000Z</time>
      </trkpt>
      <trkpt lat="42.82273" lon="0.60383">
        <ele>622</ele>
        <time>2019-08-08T08:18:40.000Z</time>
      </trkpt>
      <trkpt lat="42.82281" lon="0.60382">
        <ele>622</ele>
        <time>2019-08-08T08:18:41.000Z</time>
      </trkpt>
      <trkpt lat="42.82289" lon="0.60381">
        <ele>622</ele>
        <time>2019-08-08T08:18:42.000Z</time>
      </trkpt>
      <trkpt lat="42.82297" lon="0.6038">
        <ele>622</ele>
        <time>2019-08-08T08:18:43.000Z</time>
      </trkpt>
      <trkpt lat="42.82306" lon="0.60378">
        <ele>622</ele>
        <time>2019-08-08T08:18:44.000Z</time>
      </trkpt>
      <trkpt lat="42.82314" lon="0.60377">
        <ele>622</ele>
        <time>2019-08-08T08:18:45.000Z</time>
      </trkpt>
      <trkpt lat="42.82322" lon="0.60375">
        <ele>622</ele>
        <time>2019-08-08T08:18:46.000Z</time>
      </trkpt>
      <trkpt lat="42.8233" lon="0.60373">
        <ele>622</ele>
        <time>2019-08-08T08:18:47.000Z</time>
      </trkpt>
      <trkpt lat="42.82338" lon="0.60371">
        <ele>622</ele>
        <time>2019-08-08T08:18:48.000Z</time>
      </trkpt>
      <trkpt lat="42.82347" lon="0.60369">
        <ele>622</ele>
        <time>2019-08-08T08:18:49.000Z</time>
      </trkpt>
      <trkpt lat="42.82355" lon="0.60367">
        <ele>622</ele>
        <time>2019-08-08T08:18:50.000Z</time>
      </trkpt>
      <trkpt lat="42.82363" lon="0.60365">
        <ele>622</ele>
        <time>2019-08-08T08:18:51.000Z</time>
      </trkpt>
      <trkpt lat="42.82371" lon="0.60362">
        <ele>622</ele>
        <time>2019-08-08T08:18:52.000Z</time>
      </trkpt>
      <trkpt lat="42.82379" lon="0.60359">
        <ele>622</ele>
        <time>2019-08-08T08:18:53.000Z</time>
      </trkpt>
      <trkpt lat="42.82387" lon="0.60357">
        <ele>622</ele>
        <time>2019-08-08T08:18:54.000Z</time>
      </trkpt>
      <trkpt lat="42.82395" lon="0.60354">
        <ele>622</ele>
        <time>2019-08-08T08:18:55.000Z</time>
      </trkpt>
      <trkpt lat="42.82403" lon="0.60351">
        <ele>622</ele>
        <time>2019-08-08T08:18:56.000Z</time>
      </trkpt>
      <trkpt lat="42.82411" lon="0.60348">
        <ele>622</ele>
        <time>2019-08-08T08:18:57.000Z</time>
      </trkpt>
      <trkpt lat="42.82419" lon="0.60344">
        <ele>621</ele>
        <time>2019-08-08T08:18:58.000Z</time>
      </trkpt>
      <trkpt lat="42.82427" lon="0.60341">
        <ele>621</ele>
        <time>2019-08-08T08:18:59.000Z</time>
      </trkpt>
      <trkpt lat="42.82435" lon="0.60338">
        <ele>621</ele>
        <time>2019-08-08T08:19:00.000Z</time>
      </trkpt>
      <trkpt lat="42.82443" lon="0.60334">
        <ele>621</ele>
        <time>2019-08-08T08:19:01.000Z</time>
      </trkpt>
      <trkpt lat="42.82451" lon="0.60331">
        <ele>621</ele>
        <time>2019-08-08T08:19:02.000Z</time>
      </trkpt>
      <trkpt lat="42.82459" lon="0.60327">
        <ele>621</ele>
        <time>2019-08-08T08:19:03.000Z</time>
      </trkpt>
      <trkpt lat="42.82467" lon="0.60322">
        <ele>621</ele>
        <time>2019-08-08T08:19:04.000Z</time>
      </trkpt>
      <trkpt lat="42.82475" lon="0.60318">
        <ele>621</ele>
        <time>2019-08-08T08:19:05.000Z</time>
      </trkpt>
      <trkpt lat="42.82483" lon="0.60314">
        <ele>621</ele>
        <time>2019-08-08T08:19:06.000Z</time>
      </trkpt>
      <trkpt lat="42.82492" lon="0.60311">
        <ele>621</ele>
        <time>2019-08-08T08:19:07.000Z</time>
      </trkpt>
      <trkpt lat="42.82499" lon="0.60307">
        <ele>621</ele>
        <time>2019-08-08T08:19:08.000Z</time>
      </trkpt>
      <trkpt lat="42.82507" lon="0.60303">
        <ele>621</ele>
        <time>2019-08-08T08:19:09.000Z</time>
      </trkpt>
      <trkpt lat="42.82515" lon="0.60299">
        <ele>621</ele>
        <time>2019-08-08T08:19:10.000Z</time>
      </trkpt>
      <trkpt lat="42.82523" lon="0.60296">
        <ele>621</ele>
        <time>2019-08-08T08:19:11.000Z</time>
      </trkpt>
      <trkpt lat="42.82532" lon="0.60292">
        <ele>621</ele>
        <time>2019-08-08T08:19:12.000Z</time>
      </trkpt>
      <trkpt lat="42.8254" lon="0.60288">
        <ele>621</ele>
        <time>2019-08-08T08:19:13.000Z</time>
      </trkpt>
      <trkpt lat="42.82548" lon="0.60285">
        <ele>621</ele>
        <time>2019-08-08T08:19:14.000Z</time>
      </trkpt>
      <trkpt lat="42.82556" lon="0.60281">
        <ele>621</ele>
        <time>2019-08-08T08:19:15.000Z</time>
      </trkpt>
      <trkpt lat="42.82564" lon="0.60277">
        <ele>621</ele>
        <time>2019-08-08T08:19:16.000Z</time>
      </trkpt>
      <trkpt lat="42.82572" lon="0.60274">
        <ele>621</ele>
        <time>2019-08-08T08:19:17.000Z</time>
      </trkpt>
      <trkpt lat="42.8258" lon="0.6027">
        <ele>621</ele>
        <time>2019-08-08T08:19:18.000Z</time>
      </trkpt>
      <trkpt lat="42.82588" lon="0.60266">
        <ele>621</ele>
        <time>2019-08-08T08:19:19.000Z</time>
      </trkpt>
      <trkpt lat="42.82596" lon="0.60263">
        <ele>621</ele>
        <time>2019-08-08T08:19:20.000Z</time>
      </trkpt>
      <trkpt lat="42.82604" lon="0.60259">
        <ele>621</ele>
        <time>2019-08-08T08:19:21.000Z</time>
      </trkpt>
      <trkpt lat="42.82612" lon="0.60255">
        <ele>621</ele>
        <time>2019-08-08T08:19:22.000Z</time>
      </trkpt>
      <trkpt lat="42.8262" lon="0.60251">
        <ele>621</ele>
        <time>2019-08-08T08:19:23.000Z</time>
      </trkpt>
      <trkpt lat="42.82628" lon="0.60248">
        <ele>621</ele>
        <time>2019-08-08T08:19:24.000Z</time>
      </trkpt>
      <trkpt lat="42.82636" lon="0.60244">
        <ele>621</ele>
        <time>2019-08-08T08:19:25.000Z</time>
      </trkpt>
      <trkpt lat="42.82644" lon="0.6024">
        <ele>621</ele>
        <time>2019-08-08T08:19:26.000Z</time>
      </trkpt>
      <trkpt lat="42.82652" lon="0.60237">
        <ele>620</ele>
        <time>2019-08-08T08:19:27.000Z</time>
      </trkpt>
      <trkpt lat="42.8266" lon="0.60233">
        <ele>620</ele>
        <time>2019-08-08T08:19:28.000Z</time>
      </trkpt>
      <trkpt lat="42.82668" lon="0.6023">
        <ele>620</ele>
        <time>2019-08-08T08:19:29.000Z</time>
      </trkpt>
      <trkpt lat="42.82675" lon="0.60227">
        <ele>620</ele>
        <time>2019-08-08T08:19:30.000Z</time>
      </trkpt>
      <trkpt lat="42.82683" lon="0.60224">
        <ele>620</ele>
        <time>2019-08-08T08:19:31.000Z</time>
      </trkpt>
      <trkpt lat="42.82691" lon="0.60221">
        <ele>621</ele>
        <time>2019-08-08T08:19:32.000Z</time>
      </trkpt>
      <trkpt lat="42.82699" lon="0.60218">
        <ele>621</ele>
        <time>2019-08-08T08:19:33.000Z</time>
      </trkpt>
      <trkpt lat="42.82707" lon="0.60215">
        <ele>621</ele>
        <time>2019-08-08T08:19:34.000Z</time>
      </trkpt>
      <trkpt lat="42.82715" lon="0.60212">
        <ele>621</ele>
        <time>2019-08-08T08:19:35.000Z</time>
      </trkpt>
      <trkpt lat="42.82723" lon="0.6021">
        <ele>621</ele>
        <time>2019-08-08T08:19:36.000Z</time>
      </trkpt>
      <trkpt lat="42.8273" lon="0.60208">
        <ele>621</ele>
        <time>2019-08-08T08:19:37.000Z</time>
      </trkpt>
      <trkpt lat="42.82738" lon="0.60206">
        <ele>621</ele>
        <time>2019-08-08T08:19:38.000Z</time>
      </trkpt>
      <trkpt lat="42.82746" lon="0.60205">
        <ele>621</ele>
        <time>2019-08-08T08:19:39.000Z</time>
      </trkpt>
      <trkpt lat="42.82753" lon="0.60203">
        <ele>621</ele>
        <time>2019-08-08T08:19:40.000Z</time>
      </trkpt>
      <trkpt lat="42.82761" lon="0.60202">
        <ele>621</ele>
        <time>2019-08-08T08:19:41.000Z</time>
      </trkpt>
      <trkpt lat="42.82768" lon="0.602">
        <ele>621</ele>
        <time>2019-08-08T08:19:42.000Z</time>
      </trkpt>
      <trkpt lat="42.82775" lon="0.60199">
        <ele>621</ele>
        <time>2019-08-08T08:19:43.000Z</time>
      </trkpt>
      <trkpt lat="42.82783" lon="0.60198">
        <ele>621</ele>
        <time>2019-08-08T08:19:44.000Z</time>
      </trkpt>
      <trkpt lat="42.8279" lon="0.60196">
        <ele>621</ele>
        <time>2019-08-08T08:19:45.000Z</time>
      </trkpt>
      <trkpt lat="42.82797" lon="0.60194">
        <ele>622</ele>
        <time>2019-08-08T08:19:46.000Z</time>
      </trkpt>
      <trkpt lat="42.82804" lon="0.60193">
        <ele>622</ele>
        <time>2019-08-08T08:19:47.000Z</time>
      </trkpt>
      <trkpt lat="42.82812" lon="0.60192">
        <ele>622</ele>
        <time>2019-08-08T08:19:48.000Z</time>
      </trkpt>
      <trkpt lat="42.82819" lon="0.60191">
        <ele>622</ele>
        <time>2019-08-08T08:19:49.000Z</time>
      </trkpt>
      <trkpt lat="42.82826" lon="0.60189">
        <ele>622</ele>
        <time>2019-08-08T08:19:50.000Z</time>
      </trkpt>
      <trkpt lat="42.82833" lon="0.60188">
        <ele>622</ele>
        <time>2019-08-08T08:19:51.000Z</time>
      </trkpt>
      <trkpt lat="42.8284" lon="0.60186">
        <ele>622</ele>
        <time>2019-08-08T08:19:52.000Z</time>
      </trkpt>
      <trkpt lat="42.82847" lon="0.60184">
        <ele>622</ele>
        <time>2019-08-08T08:19:53.000Z</time>
      </trkpt>
      <trkpt lat="42.82854" lon="0.60182">
        <ele>622</ele>
        <time>2019-08-08T08:19:54.000Z</time>
      </trkpt>
      <trkpt lat="42.82861" lon="0.6018">
        <ele>622</ele>
        <time>2019-08-08T08:19:55.000Z</time>
      </trkpt>
      <trkpt lat="42.82868" lon="0.60179">
        <ele>622</ele>
        <time>2019-08-08T08:19:56.000Z</time>
      </trkpt>
      <trkpt lat="42.82876" lon="0.60178">
        <ele>622</ele>
        <time>2019-08-08T08:19:57.000Z</time>
      </trkpt>
      <trkpt lat="42.82883" lon="0.60178">
        <ele>622</ele>
        <time>2019-08-08T08:19:58.000Z</time>
      </trkpt>
      <trkpt lat="42.8289" lon="0.60179">
        <ele>622</ele>
        <time>2019-08-08T08:19:59.000Z</time>
      </trkpt>
      <trkpt lat="42.82897" lon="0.60181">
        <ele>622</ele>
        <time>2019-08-08T08:20:00.000Z</time>
      </trkpt>
      <trkpt lat="42.82904" lon="0.60182">
        <ele>622</ele>
        <time>2019-08-08T08:20:01.000Z</time>
      </trkpt>
      <trkpt lat="42.82912" lon="0.6018">
        <ele>622</ele>
        <time>2019-08-08T08:20:02.000Z</time>
      </trkpt>
      <trkpt lat="42.82919" lon="0.60176">
        <ele>622</ele>
        <time>2019-08-08T08:20:03.000Z</time>
      </trkpt>
      <trkpt lat="42.82926" lon="0.60171">
        <ele>622</ele>
        <time>2019-08-08T08:20:04.000Z</time>
      </trkpt>
      <trkpt lat="42.82933" lon="0.60168">
        <ele>622</ele>
        <time>2019-08-08T08:20:05.000Z</time>
      </trkpt>
      <trkpt lat="42.8294" lon="0.60166">
        <ele>622</ele>
        <time>2019-08-08T08:20:06.000Z</time>
      </trkpt>
      <trkpt lat="42.82948" lon="0.60165">
        <ele>622</ele>
        <time>2019-08-08T08:20:07.000Z</time>
      </trkpt>
      <trkpt lat="42.82956" lon="0.60165">
        <ele>622</ele>
        <time>2019-08-08T08:20:08.000Z</time>
      </trkpt>
      <trkpt lat="42.82964" lon="0.60165">
        <ele>622</ele>
        <time>2019-08-08T08:20:09.000Z</time>
      </trkpt>
      <trkpt lat="42.82973" lon="0.60164">
        <ele>622</ele>
        <time>2019-08-08T08:20:10.000Z</time>
      </trkpt>
      <trkpt lat="42.82981" lon="0.60164">
        <ele>622</ele>
        <time>2019-08-08T08:20:11.000Z</time>
      </trkpt>
      <trkpt lat="42.8299" lon="0.60165">
        <ele>620</ele>
        <time>2019-08-08T08:20:12.000Z</time>
      </trkpt>
      <trkpt lat="42.82998" lon="0.60166">
        <ele>620</ele>
        <time>2019-08-08T08:20:13.000Z</time>
      </trkpt>
      <trkpt lat="42.83007" lon="0.60167">
        <ele>620</ele>
        <time>2019-08-08T08:20:14.000Z</time>
      </trkpt>
      <trkpt lat="42.83016" lon="0.60169">
        <ele>620</ele>
        <time>2019-08-08T08:20:15.000Z</time>
      </trkpt>
      <trkpt lat="42.83025" lon="0.6017">
        <ele>620</ele>
        <time>2019-08-08T08:20:16.000Z</time>
      </trkpt>
      <trkpt lat="42.83033" lon="0.60173">
        <ele>619</ele>
        <time>2019-08-08T08:20:17.000Z</time>
      </trkpt>
      <trkpt lat="42.83042" lon="0.60175">
        <ele>619</ele>
        <time>2019-08-08T08:20:18.000Z</time>
      </trkpt>
      <trkpt lat="42.83051" lon="0.60177">
        <ele>620</ele>
        <time>2019-08-08T08:20:19.000Z</time>
      </trkpt>
      <trkpt lat="42.83059" lon="0.6018">
        <ele>620</ele>
        <time>2019-08-08T08:20:20.000Z</time>
      </trkpt>
      <trkpt lat="42.83068" lon="0.60182">
        <ele>620</ele>
        <time>2019-08-08T08:20:21.000Z</time>
      </trkpt>
      <trkpt lat="42.83076" lon="0.60184">
        <ele>620</ele>
        <time>2019-08-08T08:20:22.000Z</time>
      </trkpt>
      <trkpt lat="42.83084" lon="0.60186">
        <ele>620</ele>
        <time>2019-08-08T08:20:23.000Z</time>
      </trkpt>
      <trkpt lat="42.83092" lon="0.60189">
        <ele>620</ele>
        <time>2019-08-08T08:20:24.000Z</time>
      </trkpt>
      <trkpt lat="42.831" lon="0.60191">
        <ele>620</ele>
        <time>2019-08-08T08:20:25.000Z</time>
      </trkpt>
      <trkpt lat="42.83108" lon="0.60193">
        <ele>620</ele>
        <time>2019-08-08T08:20:26.000Z</time>
      </trkpt>
      <trkpt lat="42.83115" lon="0.60195">
        <ele>621</ele>
        <time>2019-08-08T08:20:27.000Z</time>
      </trkpt>
      <trkpt lat="42.83123" lon="0.60197">
        <ele>621</ele>
        <time>2019-08-08T08:20:28.000Z</time>
      </trkpt>
      <trkpt lat="42.83131" lon="0.602">
        <ele>622</ele>
        <time>2019-08-08T08:20:29.000Z</time>
      </trkpt>
      <trkpt lat="42.83138" lon="0.60202">
        <ele>622</ele>
        <time>2019-08-08T08:20:30.000Z</time>
      </trkpt>
      <trkpt lat="42.83146" lon="0.60204">
        <ele>622</ele>
        <time>2019-08-08T08:20:31.000Z</time>
      </trkpt>
      <trkpt lat="42.83153" lon="0.60206">
        <ele>622</ele>
        <time>2019-08-08T08:20:32.000Z</time>
      </trkpt>
      <trkpt lat="42.83161" lon="0.60208">
        <ele>622</ele>
        <time>2019-08-08T08:20:33.000Z</time>
      </trkpt>
      <trkpt lat="42.83168" lon="0.6021">
        <ele>622</ele>
        <time>2019-08-08T08:20:34.000Z</time>
      </trkpt>
      <trkpt lat="42.83176" lon="0.60212">
        <ele>622</ele>
        <time>2019-08-08T08:20:35.000Z</time>
      </trkpt>
      <trkpt lat="42.83183" lon="0.60214">
        <ele>622</ele>
        <time>2019-08-08T08:20:36.000Z</time>
      </trkpt>
      <trkpt lat="42.8319" lon="0.60216">
        <ele>622</ele>
        <time>2019-08-08T08:20:37.000Z</time>
      </trkpt>
      <trkpt lat="42.83198" lon="0.60218">
        <ele>622</ele>
        <time>2019-08-08T08:20:38.000Z</time>
      </trkpt>
      <trkpt lat="42.83205" lon="0.60219">
        <ele>622</ele>
        <time>2019-08-08T08:20:39.000Z</time>
      </trkpt>
      <trkpt lat="42.83212" lon="0.60222">
        <ele>622</ele>
        <time>2019-08-08T08:20:40.000Z</time>
      </trkpt>
      <trkpt lat="42.8322" lon="0.60225">
        <ele>622</ele>
        <time>2019-08-08T08:20:41.000Z</time>
      </trkpt>
      <trkpt lat="42.83228" lon="0.60227">
        <ele>622</ele>
        <time>2019-08-08T08:20:42.000Z</time>
      </trkpt>
      <trkpt lat="42.83236" lon="0.60229">
        <ele>622</ele>
        <time>2019-08-08T08:20:43.000Z</time>
      </trkpt>
      <trkpt lat="42.83244" lon="0.60231">
        <ele>623</ele>
        <time>2019-08-08T08:20:44.000Z</time>
      </trkpt>
      <trkpt lat="42.83252" lon="0.60234">
        <ele>623</ele>
        <time>2019-08-08T08:20:45.000Z</time>
      </trkpt>
      <trkpt lat="42.8326" lon="0.60236">
        <ele>622</ele>
        <time>2019-08-08T08:20:46.000Z</time>
      </trkpt>
      <trkpt lat="42.83268" lon="0.60238">
        <ele>622</ele>
        <time>2019-08-08T08:20:47.000Z</time>
      </trkpt>
      <trkpt lat="42.83276" lon="0.6024">
        <ele>622</ele>
        <time>2019-08-08T08:20:48.000Z</time>
      </trkpt>
      <trkpt lat="42.83284" lon="0.60243">
        <ele>622</ele>
        <time>2019-08-08T08:20:49.000Z</time>
      </trkpt>
      <trkpt lat="42.83292" lon="0.60245">
        <ele>621</ele>
        <time>2019-08-08T08:20:50.000Z</time>
      </trkpt>
      <trkpt lat="42.83299" lon="0.60247">
        <ele>621</ele>
        <time>2019-08-08T08:20:51.000Z</time>
      </trkpt>
      <trkpt lat="42.83307" lon="0.60249">
        <ele>621</ele>
        <time>2019-08-08T08:20:52.000Z</time>
      </trkpt>
      <trkpt lat="42.83315" lon="0.60251">
        <ele>621</ele>
        <time>2019-08-08T08:20:53.000Z</time>
      </trkpt>
      <trkpt lat="42.83323" lon="0.60254">
        <ele>621</ele>
        <time>2019-08-08T08:20:54.000Z</time>
      </trkpt>
      <trkpt lat="42.83331" lon="0.60256">
        <ele>620</ele>
        <time>2019-08-08T08:20:55.000Z</time>
      </trkpt>
      <trkpt lat="42.83339" lon="0.60258">
        <ele>620</ele>
        <time>2019-08-08T08:20:56.000Z</time>
      </trkpt>
      <trkpt lat="42.83348" lon="0.6026">
        <ele>620</ele>
        <time>2019-08-08T08:20:57.000Z</time>
      </trkpt>
      <trkpt lat="42.8336" lon="0.60264">
        <ele>620</ele>
        <time>2019-08-08T08:20:58.000Z</time>
      </trkpt>
      <trkpt lat="42.83365" lon="0.60265">
        <ele>620</ele>
        <time>2019-08-08T08:20:59.000Z</time>
      </trkpt>
      <trkpt lat="42.83373" lon="0.60267">
        <ele>620</ele>
        <time>2019-08-08T08:21:00.000Z</time>
      </trkpt>
      <trkpt lat="42.83382" lon="0.60269">
        <ele>620</ele>
        <time>2019-08-08T08:21:01.000Z</time>
      </trkpt>
      <trkpt lat="42.83391" lon="0.60271">
        <ele>618</ele>
        <time>2019-08-08T08:21:02.000Z</time>
      </trkpt>
      <trkpt lat="42.834" lon="0.60274">
        <ele>618</ele>
        <time>2019-08-08T08:21:03.000Z</time>
      </trkpt>
      <trkpt lat="42.83413" lon="0.60277">
        <ele>617</ele>
        <time>2019-08-08T08:21:04.000Z</time>
      </trkpt>
      <trkpt lat="42.83418" lon="0.60278">
        <ele>617</ele>
        <time>2019-08-08T08:21:05.000Z</time>
      </trkpt>
      <trkpt lat="42.83426" lon="0.60279">
        <ele>617</ele>
        <time>2019-08-08T08:21:06.000Z</time>
      </trkpt>
      <trkpt lat="42.83435" lon="0.60282">
        <ele>617</ele>
        <time>2019-08-08T08:21:07.000Z</time>
      </trkpt>
      <trkpt lat="42.83444" lon="0.60284">
        <ele>617</ele>
        <time>2019-08-08T08:21:08.000Z</time>
      </trkpt>
      <trkpt lat="42.83453" lon="0.60287">
        <ele>617</ele>
        <time>2019-08-08T08:21:09.000Z</time>
      </trkpt>
      <trkpt lat="42.83462" lon="0.6029">
        <ele>617</ele>
        <time>2019-08-08T08:21:10.000Z</time>
      </trkpt>
      <trkpt lat="42.8347" lon="0.60293">
        <ele>617</ele>
        <time>2019-08-08T08:21:11.000Z</time>
      </trkpt>
      <trkpt lat="42.83479" lon="0.60295">
        <ele>617</ele>
        <time>2019-08-08T08:21:12.000Z</time>
      </trkpt>
      <trkpt lat="42.83488" lon="0.60298">
        <ele>617</ele>
        <time>2019-08-08T08:21:13.000Z</time>
      </trkpt>
      <trkpt lat="42.83497" lon="0.60301">
        <ele>617</ele>
        <time>2019-08-08T08:21:14.000Z</time>
      </trkpt>
      <trkpt lat="42.83509" lon="0.60304">
        <ele>617</ele>
        <time>2019-08-08T08:21:15.000Z</time>
      </trkpt>
      <trkpt lat="42.83514" lon="0.60305">
        <ele>617</ele>
        <time>2019-08-08T08:21:16.000Z</time>
      </trkpt>
      <trkpt lat="42.83522" lon="0.60307">
        <ele>617</ele>
        <time>2019-08-08T08:21:17.000Z</time>
      </trkpt>
      <trkpt lat="42.83531" lon="0.6031">
        <ele>616</ele>
        <time>2019-08-08T08:21:18.000Z</time>
      </trkpt>
      <trkpt lat="42.83539" lon="0.60312">
        <ele>616</ele>
        <time>2019-08-08T08:21:19.000Z</time>
      </trkpt>
      <trkpt lat="42.83547" lon="0.60315">
        <ele>616</ele>
        <time>2019-08-08T08:21:20.000Z</time>
      </trkpt>
      <trkpt lat="42.83556" lon="0.60318">
        <ele>616</ele>
        <time>2019-08-08T08:21:21.000Z</time>
      </trkpt>
      <trkpt lat="42.83564" lon="0.60321">
        <ele>616</ele>
        <time>2019-08-08T08:21:22.000Z</time>
      </trkpt>
      <trkpt lat="42.83572" lon="0.60324">
        <ele>616</ele>
        <time>2019-08-08T08:21:23.000Z</time>
      </trkpt>
      <trkpt lat="42.83581" lon="0.60327">
        <ele>617</ele>
        <time>2019-08-08T08:21:24.000Z</time>
      </trkpt>
      <trkpt lat="42.83589" lon="0.6033">
        <ele>617</ele>
        <time>2019-08-08T08:21:25.000Z</time>
      </trkpt>
      <trkpt lat="42.83597" lon="0.60332">
        <ele>617</ele>
        <time>2019-08-08T08:21:26.000Z</time>
      </trkpt>
      <trkpt lat="42.83605" lon="0.60334">
        <ele>617</ele>
        <time>2019-08-08T08:21:27.000Z</time>
      </trkpt>
      <trkpt lat="42.83613" lon="0.60337">
        <ele>617</ele>
        <time>2019-08-08T08:21:28.000Z</time>
      </trkpt>
      <trkpt lat="42.83621" lon="0.6034">
        <ele>616</ele>
        <time>2019-08-08T08:21:29.000Z</time>
      </trkpt>
      <trkpt lat="42.83629" lon="0.60342">
        <ele>616</ele>
        <time>2019-08-08T08:21:30.000Z</time>
      </trkpt>
      <trkpt lat="42.83641" lon="0.60345">
        <ele>617</ele>
        <time>2019-08-08T08:21:31.000Z</time>
      </trkpt>
      <trkpt lat="42.83645" lon="0.60346">
        <ele>617</ele>
        <time>2019-08-08T08:21:32.000Z</time>
      </trkpt>
      <trkpt lat="42.83653" lon="0.60349">
        <ele>617</ele>
        <time>2019-08-08T08:21:33.000Z</time>
      </trkpt>
      <trkpt lat="42.83661" lon="0.60351">
        <ele>617</ele>
        <time>2019-08-08T08:21:34.000Z</time>
      </trkpt>
      <trkpt lat="42.83668" lon="0.60354">
        <ele>618</ele>
        <time>2019-08-08T08:21:35.000Z</time>
      </trkpt>
      <trkpt lat="42.83675" lon="0.60356">
        <ele>618</ele>
        <time>2019-08-08T08:21:36.000Z</time>
      </trkpt>
      <trkpt lat="42.83686" lon="0.60359">
        <ele>619</ele>
        <time>2019-08-08T08:21:37.000Z</time>
      </trkpt>
      <trkpt lat="42.8369" lon="0.6036">
        <ele>619</ele>
        <time>2019-08-08T08:21:38.000Z</time>
      </trkpt>
      <trkpt lat="42.837" lon="0.60363">
        <ele>619</ele>
        <time>2019-08-08T08:21:39.000Z</time>
      </trkpt>
      <trkpt lat="42.83703" lon="0.60364">
        <ele>620</ele>
        <time>2019-08-08T08:21:40.000Z</time>
      </trkpt>
      <trkpt lat="42.83712" lon="0.60367">
        <ele>620</ele>
        <time>2019-08-08T08:21:41.000Z</time>
      </trkpt>
      <trkpt lat="42.83715" lon="0.60368">
        <ele>620</ele>
        <time>2019-08-08T08:21:42.000Z</time>
      </trkpt>
      <trkpt lat="42.83724" lon="0.60371">
        <ele>621</ele>
        <time>2019-08-08T08:21:43.000Z</time>
      </trkpt>
      <trkpt lat="42.83727" lon="0.60372">
        <ele>621</ele>
        <time>2019-08-08T08:21:44.000Z</time>
      </trkpt>
      <trkpt lat="42.83736" lon="0.60375">
        <ele>621</ele>
        <time>2019-08-08T08:21:45.000Z</time>
      </trkpt>
      <trkpt lat="42.83738" lon="0.60375">
        <ele>621</ele>
        <time>2019-08-08T08:21:46.000Z</time>
      </trkpt>
      <trkpt lat="42.83747" lon="0.60378">
        <ele>621</ele>
        <time>2019-08-08T08:21:47.000Z</time>
      </trkpt>
      <trkpt lat="42.83749" lon="0.60379">
        <ele>621</ele>
        <time>2019-08-08T08:21:48.000Z</time>
      </trkpt>
      <trkpt lat="42.83757" lon="0.60381">
        <ele>621</ele>
        <time>2019-08-08T08:21:49.000Z</time>
      </trkpt>
      <trkpt lat="42.8376" lon="0.60382">
        <ele>621</ele>
        <time>2019-08-08T08:21:50.000Z</time>
      </trkpt>
      <trkpt lat="42.83768" lon="0.60384">
        <ele>623</ele>
        <time>2019-08-08T08:21:51.000Z</time>
      </trkpt>
      <trkpt lat="42.8377" lon="0.60385">
        <ele>623</ele>
        <time>2019-08-08T08:21:52.000Z</time>
      </trkpt>
      <trkpt lat="42.83778" lon="0.60387">
        <ele>623</ele>
        <time>2019-08-08T08:21:53.000Z</time>
      </trkpt>
      <trkpt lat="42.83781" lon="0.60388">
        <ele>623</ele>
        <time>2019-08-08T08:21:54.000Z</time>
      </trkpt>
      <trkpt lat="42.83789" lon="0.60391">
        <ele>623</ele>
        <time>2019-08-08T08:21:55.000Z</time>
      </trkpt>
      <trkpt lat="42.83792" lon="0.60392">
        <ele>623</ele>
        <time>2019-08-08T08:21:56.000Z</time>
      </trkpt>
      <trkpt lat="42.838" lon="0.60394">
        <ele>623</ele>
        <time>2019-08-08T08:21:57.000Z</time>
      </trkpt>
      <trkpt lat="42.83802" lon="0.60395">
        <ele>623</ele>
        <time>2019-08-08T08:21:58.000Z</time>
      </trkpt>
      <trkpt lat="42.83811" lon="0.60397">
        <ele>624</ele>
        <time>2019-08-08T08:21:59.000Z</time>
      </trkpt>
      <trkpt lat="42.83813" lon="0.60398">
        <ele>624</ele>
        <time>2019-08-08T08:22:00.000Z</time>
      </trkpt>
      <trkpt lat="42.83822" lon="0.60401">
        <ele>624</ele>
        <time>2019-08-08T08:22:01.000Z</time>
      </trkpt>
      <trkpt lat="42.83825" lon="0.60401">
        <ele>624</ele>
        <time>2019-08-08T08:22:02.000Z</time>
      </trkpt>
      <trkpt lat="42.83834" lon="0.60404">
        <ele>624</ele>
        <time>2019-08-08T08:22:03.000Z</time>
      </trkpt>
      <trkpt lat="42.83837" lon="0.60405">
        <ele>624</ele>
        <time>2019-08-08T08:22:04.000Z</time>
      </trkpt>
      <trkpt lat="42.83847" lon="0.60407">
        <ele>624</ele>
        <time>2019-08-08T08:22:05.000Z</time>
      </trkpt>
      <trkpt lat="42.8385" lon="0.60408">
        <ele>625</ele>
        <time>2019-08-08T08:22:06.000Z</time>
      </trkpt>
      <trkpt lat="42.83859" lon="0.6041">
        <ele>625</ele>
        <time>2019-08-08T08:22:07.000Z</time>
      </trkpt>
      <trkpt lat="42.83862" lon="0.60411">
        <ele>625</ele>
        <time>2019-08-08T08:22:08.000Z</time>
      </trkpt>
      <trkpt lat="42.83872" lon="0.60414">
        <ele>625</ele>
        <time>2019-08-08T08:22:09.000Z</time>
      </trkpt>
      <trkpt lat="42.83875" lon="0.60414">
        <ele>625</ele>
        <time>2019-08-08T08:22:10.000Z</time>
      </trkpt>
      <trkpt lat="42.83882" lon="0.60416">
        <ele>625</ele>
        <time>2019-08-08T08:22:11.000Z</time>
      </trkpt>
      <trkpt lat="42.83895" lon="0.60419">
        <ele>625</ele>
        <time>2019-08-08T08:22:13.000Z</time>
      </trkpt>
      <trkpt lat="42.83895" lon="0.60419">
        <ele>625</ele>
        <time>2019-08-08T08:22:14.000Z</time>
      </trkpt>
      <trkpt lat="42.83911" lon="0.60424">
        <ele>625</ele>
        <time>2019-08-08T08:22:15.000Z</time>
      </trkpt>
      <trkpt lat="42.83915" lon="0.60425">
        <ele>624</ele>
        <time>2019-08-08T08:22:16.000Z</time>
      </trkpt>
      <trkpt lat="42.83925" lon="0.60428">
        <ele>624</ele>
        <time>2019-08-08T08:22:17.000Z</time>
      </trkpt>
      <trkpt lat="42.83929" lon="0.60429">
        <ele>624</ele>
        <time>2019-08-08T08:22:18.000Z</time>
      </trkpt>
      <trkpt lat="42.8394" lon="0.60432">
        <ele>624</ele>
        <time>2019-08-08T08:22:19.000Z</time>
      </trkpt>
      <trkpt lat="42.83944" lon="0.60433">
        <ele>625</ele>
        <time>2019-08-08T08:22:20.000Z</time>
      </trkpt>
      <trkpt lat="42.83955" lon="0.60436">
        <ele>625</ele>
        <time>2019-08-08T08:22:21.000Z</time>
      </trkpt>
      <trkpt lat="42.83959" lon="0.60438">
        <ele>623</ele>
        <time>2019-08-08T08:22:22.000Z</time>
      </trkpt>
      <trkpt lat="42.83971" lon="0.60441">
        <ele>623</ele>
        <time>2019-08-08T08:22:23.000Z</time>
      </trkpt>
      <trkpt lat="42.83976" lon="0.60442">
        <ele>623</ele>
        <time>2019-08-08T08:22:24.000Z</time>
      </trkpt>
      <trkpt lat="42.83984" lon="0.60444">
        <ele>623</ele>
        <time>2019-08-08T08:22:25.000Z</time>
      </trkpt>
      <trkpt lat="42.83993" lon="0.60446">
        <ele>623</ele>
        <time>2019-08-08T08:22:26.000Z</time>
      </trkpt>
      <trkpt lat="42.84003" lon="0.60448">
        <ele>623</ele>
        <time>2019-08-08T08:22:27.000Z</time>
      </trkpt>
      <trkpt lat="42.84012" lon="0.60451">
        <ele>623</ele>
        <time>2019-08-08T08:22:28.000Z</time>
      </trkpt>
      <trkpt lat="42.84022" lon="0.60454">
        <ele>623</ele>
        <time>2019-08-08T08:22:29.000Z</time>
      </trkpt>
      <trkpt lat="42.84032" lon="0.60457">
        <ele>623</ele>
        <time>2019-08-08T08:22:30.000Z</time>
      </trkpt>
      <trkpt lat="42.84043" lon="0.60461">
        <ele>620</ele>
        <time>2019-08-08T08:22:31.000Z</time>
      </trkpt>
      <trkpt lat="42.84054" lon="0.60464">
        <ele>620</ele>
        <time>2019-08-08T08:22:32.000Z</time>
      </trkpt>
      <trkpt lat="42.84065" lon="0.60466">
        <ele>619</ele>
        <time>2019-08-08T08:22:33.000Z</time>
      </trkpt>
      <trkpt lat="42.84077" lon="0.60468">
        <ele>619</ele>
        <time>2019-08-08T08:22:34.000Z</time>
      </trkpt>
      <trkpt lat="42.84089" lon="0.60469">
        <ele>619</ele>
        <time>2019-08-08T08:22:35.000Z</time>
      </trkpt>
      <trkpt lat="42.841" lon="0.60469">
        <ele>616</ele>
        <time>2019-08-08T08:22:36.000Z</time>
      </trkpt>
      <trkpt lat="42.84112" lon="0.60469">
        <ele>616</ele>
        <time>2019-08-08T08:22:37.000Z</time>
      </trkpt>
      <trkpt lat="42.84124" lon="0.60468">
        <ele>615</ele>
        <time>2019-08-08T08:22:38.000Z</time>
      </trkpt>
      <trkpt lat="42.84136" lon="0.60466">
        <ele>615</ele>
        <time>2019-08-08T08:22:39.000Z</time>
      </trkpt>
      <trkpt lat="42.84147" lon="0.60463">
        <ele>615</ele>
        <time>2019-08-08T08:22:40.000Z</time>
      </trkpt>
      <trkpt lat="42.84159" lon="0.6046">
        <ele>615</ele>
        <time>2019-08-08T08:22:41.000Z</time>
      </trkpt>
      <trkpt lat="42.8417" lon="0.60456">
        <ele>615</ele>
        <time>2019-08-08T08:22:42.000Z</time>
      </trkpt>
      <trkpt lat="42.84182" lon="0.60452">
        <ele>615</ele>
        <time>2019-08-08T08:22:43.000Z</time>
      </trkpt>
      <trkpt lat="42.84193" lon="0.60448">
        <ele>615</ele>
        <time>2019-08-08T08:22:44.000Z</time>
      </trkpt>
      <trkpt lat="42.84204" lon="0.60444">
        <ele>615</ele>
        <time>2019-08-08T08:22:45.000Z</time>
      </trkpt>
      <trkpt lat="42.84214" lon="0.6044">
        <ele>615</ele>
        <time>2019-08-08T08:22:46.000Z</time>
      </trkpt>
      <trkpt lat="42.84225" lon="0.60435">
        <ele>615</ele>
        <time>2019-08-08T08:22:47.000Z</time>
      </trkpt>
      <trkpt lat="42.84235" lon="0.60431">
        <ele>615</ele>
        <time>2019-08-08T08:22:48.000Z</time>
      </trkpt>
      <trkpt lat="42.84246" lon="0.60427">
        <ele>615</ele>
        <time>2019-08-08T08:22:49.000Z</time>
      </trkpt>
      <trkpt lat="42.84256" lon="0.60424">
        <ele>615</ele>
        <time>2019-08-08T08:22:50.000Z</time>
      </trkpt>
      <trkpt lat="42.84267" lon="0.60421">
        <ele>615</ele>
        <time>2019-08-08T08:22:51.000Z</time>
      </trkpt>
      <trkpt lat="42.84277" lon="0.60419">
        <ele>615</ele>
        <time>2019-08-08T08:22:52.000Z</time>
      </trkpt>
      <trkpt lat="42.84287" lon="0.60416">
        <ele>615</ele>
        <time>2019-08-08T08:22:53.000Z</time>
      </trkpt>
      <trkpt lat="42.84297" lon="0.60414">
        <ele>615</ele>
        <time>2019-08-08T08:22:54.000Z</time>
      </trkpt>
      <trkpt lat="42.84307" lon="0.60412">
        <ele>616</ele>
        <time>2019-08-08T08:22:55.000Z</time>
      </trkpt>
      <trkpt lat="42.84317" lon="0.6041">
        <ele>616</ele>
        <time>2019-08-08T08:22:56.000Z</time>
      </trkpt>
      <trkpt lat="42.84326" lon="0.60408">
        <ele>617</ele>
        <time>2019-08-08T08:22:57.000Z</time>
      </trkpt>
      <trkpt lat="42.84335" lon="0.60407">
        <ele>617</ele>
        <time>2019-08-08T08:22:58.000Z</time>
      </trkpt>
      <trkpt lat="42.84349" lon="0.60405">
        <ele>617</ele>
        <time>2019-08-08T08:22:59.000Z</time>
      </trkpt>
      <trkpt lat="42.84353" lon="0.60404">
        <ele>617</ele>
        <time>2019-08-08T08:23:00.000Z</time>
      </trkpt>
      <trkpt lat="42.84366" lon="0.60401">
        <ele>618</ele>
        <time>2019-08-08T08:23:01.000Z</time>
      </trkpt>
      <trkpt lat="42.8437" lon="0.604">
        <ele>618</ele>
        <time>2019-08-08T08:23:02.000Z</time>
      </trkpt>
      <trkpt lat="42.84383" lon="0.60398">
        <ele>618</ele>
        <time>2019-08-08T08:23:03.000Z</time>
      </trkpt>
      <trkpt lat="42.84387" lon="0.60397">
        <ele>618</ele>
        <time>2019-08-08T08:23:04.000Z</time>
      </trkpt>
      <trkpt lat="42.84399" lon="0.60395">
        <ele>619</ele>
        <time>2019-08-08T08:23:05.000Z</time>
      </trkpt>
      <trkpt lat="42.84403" lon="0.60394">
        <ele>619</ele>
        <time>2019-08-08T08:23:06.000Z</time>
      </trkpt>
      <trkpt lat="42.84416" lon="0.60392">
        <ele>619</ele>
        <time>2019-08-08T08:23:07.000Z</time>
      </trkpt>
      <trkpt lat="42.8442" lon="0.60391">
        <ele>619</ele>
        <time>2019-08-08T08:23:08.000Z</time>
      </trkpt>
      <trkpt lat="42.84432" lon="0.60388">
        <ele>619</ele>
        <time>2019-08-08T08:23:09.000Z</time>
      </trkpt>
      <trkpt lat="42.84436" lon="0.60387">
        <ele>619</ele>
        <time>2019-08-08T08:23:10.000Z</time>
      </trkpt>
      <trkpt lat="42.84448" lon="0.60384">
        <ele>619</ele>
        <time>2019-08-08T08:23:11.000Z</time>
      </trkpt>
      <trkpt lat="42.84452" lon="0.60383">
        <ele>619</ele>
        <time>2019-08-08T08:23:12.000Z</time>
      </trkpt>
      <trkpt lat="42.84465" lon="0.60381">
        <ele>619</ele>
        <time>2019-08-08T08:23:13.000Z</time>
      </trkpt>
      <trkpt lat="42.84469" lon="0.6038">
        <ele>619</ele>
        <time>2019-08-08T08:23:14.000Z</time>
      </trkpt>
      <trkpt lat="42.84481" lon="0.60377">
        <ele>619</ele>
        <time>2019-08-08T08:23:15.000Z</time>
      </trkpt>
      <trkpt lat="42.84485" lon="0.60376">
        <ele>619</ele>
        <time>2019-08-08T08:23:16.000Z</time>
      </trkpt>
      <trkpt lat="42.84497" lon="0.60374">
        <ele>619</ele>
        <time>2019-08-08T08:23:17.000Z</time>
      </trkpt>
      <trkpt lat="42.84502" lon="0.60373">
        <ele>619</ele>
        <time>2019-08-08T08:23:18.000Z</time>
      </trkpt>
      <trkpt lat="42.84514" lon="0.60371">
        <ele>619</ele>
        <time>2019-08-08T08:23:19.000Z</time>
      </trkpt>
      <trkpt lat="42.84518" lon="0.60371">
        <ele>619</ele>
        <time>2019-08-08T08:23:20.000Z</time>
      </trkpt>
      <trkpt lat="42.84531" lon="0.60369">
        <ele>618</ele>
        <time>2019-08-08T08:23:21.000Z</time>
      </trkpt>
      <trkpt lat="42.84535" lon="0.60368">
        <ele>618</ele>
        <time>2019-08-08T08:23:22.000Z</time>
      </trkpt>
      <trkpt lat="42.84548" lon="0.60366">
        <ele>617</ele>
        <time>2019-08-08T08:23:23.000Z</time>
      </trkpt>
      <trkpt lat="42.84552" lon="0.60365">
        <ele>617</ele>
        <time>2019-08-08T08:23:24.000Z</time>
      </trkpt>
      <trkpt lat="42.84564" lon="0.60362">
        <ele>617</ele>
        <time>2019-08-08T08:23:25.000Z</time>
      </trkpt>
      <trkpt lat="42.84568" lon="0.60361">
        <ele>617</ele>
        <time>2019-08-08T08:23:26.000Z</time>
      </trkpt>
      <trkpt lat="42.84581" lon="0.60358">
        <ele>617</ele>
        <time>2019-08-08T08:23:27.000Z</time>
      </trkpt>
      <trkpt lat="42.84585" lon="0.60356">
        <ele>617</ele>
        <time>2019-08-08T08:23:28.000Z</time>
      </trkpt>
      <trkpt lat="42.84597" lon="0.60353">
        <ele>617</ele>
        <time>2019-08-08T08:23:29.000Z</time>
      </trkpt>
      <trkpt lat="42.84601" lon="0.60352">
        <ele>617</ele>
        <time>2019-08-08T08:23:30.000Z</time>
      </trkpt>
      <trkpt lat="42.84613" lon="0.60349">
        <ele>617</ele>
        <time>2019-08-08T08:23:31.000Z</time>
      </trkpt>
      <trkpt lat="42.84617" lon="0.60348">
        <ele>617</ele>
        <time>2019-08-08T08:23:32.000Z</time>
      </trkpt>
      <trkpt lat="42.84629" lon="0.60345">
        <ele>617</ele>
        <time>2019-08-08T08:23:33.000Z</time>
      </trkpt>
      <trkpt lat="42.84633" lon="0.60344">
        <ele>616</ele>
        <time>2019-08-08T08:23:34.000Z</time>
      </trkpt>
      <trkpt lat="42.84645" lon="0.60341">
        <ele>616</ele>
        <time>2019-08-08T08:23:35.000Z</time>
      </trkpt>
      <trkpt lat="42.84649" lon="0.6034">
        <ele>616</ele>
        <time>2019-08-08T08:23:36.000Z</time>
      </trkpt>
      <trkpt lat="42.84661" lon="0.60336">
        <ele>616</ele>
        <time>2019-08-08T08:23:37.000Z</time>
      </trkpt>
      <trkpt lat="42.84665" lon="0.60335">
        <ele>616</ele>
        <time>2019-08-08T08:23:38.000Z</time>
      </trkpt>
      <trkpt lat="42.84677" lon="0.60331">
        <ele>616</ele>
        <time>2019-08-08T08:23:39.000Z</time>
      </trkpt>
      <trkpt lat="42.84681" lon="0.6033">
        <ele>616</ele>
        <time>2019-08-08T08:23:40.000Z</time>
      </trkpt>
      <trkpt lat="42.84694" lon="0.60326">
        <ele>616</ele>
        <time>2019-08-08T08:23:41.000Z</time>
      </trkpt>
      <trkpt lat="42.84698" lon="0.60325">
        <ele>615</ele>
        <time>2019-08-08T08:23:42.000Z</time>
      </trkpt>
      <trkpt lat="42.8471" lon="0.60322">
        <ele>615</ele>
        <time>2019-08-08T08:23:43.000Z</time>
      </trkpt>
      <trkpt lat="42.84714" lon="0.60321">
        <ele>614</ele>
        <time>2019-08-08T08:23:44.000Z</time>
      </trkpt>
      <trkpt lat="42.84726" lon="0.60317">
        <ele>614</ele>
        <time>2019-08-08T08:23:45.000Z</time>
      </trkpt>
      <trkpt lat="42.8473" lon="0.60316">
        <ele>614</ele>
        <time>2019-08-08T08:23:46.000Z</time>
      </trkpt>
      <trkpt lat="42.84743" lon="0.60314">
        <ele>614</ele>
        <time>2019-08-08T08:23:47.000Z</time>
      </trkpt>
      <trkpt lat="42.84747" lon="0.60313">
        <ele>614</ele>
        <time>2019-08-08T08:23:48.000Z</time>
      </trkpt>
      <trkpt lat="42.8476" lon="0.60311">
        <ele>614</ele>
        <time>2019-08-08T08:23:49.000Z</time>
      </trkpt>
      <trkpt lat="42.84764" lon="0.60311">
        <ele>614</ele>
        <time>2019-08-08T08:23:50.000Z</time>
      </trkpt>
      <trkpt lat="42.84776" lon="0.60309">
        <ele>614</ele>
        <time>2019-08-08T08:23:51.000Z</time>
      </trkpt>
      <trkpt lat="42.8478" lon="0.60308">
        <ele>614</ele>
        <time>2019-08-08T08:23:52.000Z</time>
      </trkpt>
      <trkpt lat="42.84792" lon="0.60305">
        <ele>614</ele>
        <time>2019-08-08T08:23:53.000Z</time>
      </trkpt>
      <trkpt lat="42.84796" lon="0.60304">
        <ele>614</ele>
        <time>2019-08-08T08:23:54.000Z</time>
      </trkpt>
      <trkpt lat="42.84808" lon="0.60302">
        <ele>614</ele>
        <time>2019-08-08T08:23:55.000Z</time>
      </trkpt>
      <trkpt lat="42.84812" lon="0.60301">
        <ele>614</ele>
        <time>2019-08-08T08:23:56.000Z</time>
      </trkpt>
      <trkpt lat="42.84825" lon="0.60299">
        <ele>613</ele>
        <time>2019-08-08T08:23:57.000Z</time>
      </trkpt>
      <trkpt lat="42.84829" lon="0.60298">
        <ele>613</ele>
        <time>2019-08-08T08:23:58.000Z</time>
      </trkpt>
      <trkpt lat="42.84841" lon="0.60295">
        <ele>613</ele>
        <time>2019-08-08T08:23:59.000Z</time>
      </trkpt>
      <trkpt lat="42.84845" lon="0.60294">
        <ele>613</ele>
        <time>2019-08-08T08:24:00.000Z</time>
      </trkpt>
      <trkpt lat="42.84858" lon="0.60291">
        <ele>613</ele>
        <time>2019-08-08T08:24:01.000Z</time>
      </trkpt>
      <trkpt lat="42.84862" lon="0.6029">
        <ele>613</ele>
        <time>2019-08-08T08:24:02.000Z</time>
      </trkpt>
      <trkpt lat="42.84874" lon="0.60286">
        <ele>612</ele>
        <time>2019-08-08T08:24:03.000Z</time>
      </trkpt>
      <trkpt lat="42.84879" lon="0.60285">
        <ele>612</ele>
        <time>2019-08-08T08:24:04.000Z</time>
      </trkpt>
      <trkpt lat="42.84891" lon="0.60282">
        <ele>612</ele>
        <time>2019-08-08T08:24:05.000Z</time>
      </trkpt>
      <trkpt lat="42.84895" lon="0.60281">
        <ele>612</ele>
        <time>2019-08-08T08:24:06.000Z</time>
      </trkpt>
      <trkpt lat="42.84906" lon="0.60279">
        <ele>612</ele>
        <time>2019-08-08T08:24:07.000Z</time>
      </trkpt>
      <trkpt lat="42.84909" lon="0.60278">
        <ele>612</ele>
        <time>2019-08-08T08:24:08.000Z</time>
      </trkpt>
      <trkpt lat="42.84912" lon="0.60277">
        <ele>612</ele>
        <time>2019-08-08T08:24:09.000Z</time>
      </trkpt>
      <trkpt lat="42.8492" lon="0.60275">
        <ele>612</ele>
        <time>2019-08-08T08:24:10.000Z</time>
      </trkpt>
      <trkpt lat="42.84941" lon="0.6027">
        <ele>612</ele>
        <time>2019-08-08T08:24:11.000Z</time>
      </trkpt>
      <trkpt lat="42.84945" lon="0.6027">
        <ele>612</ele>
        <time>2019-08-08T08:24:12.000Z</time>
      </trkpt>
      <trkpt lat="42.84957" lon="0.60267">
        <ele>612</ele>
        <time>2019-08-08T08:24:13.000Z</time>
      </trkpt>
      <trkpt lat="42.84961" lon="0.60266">
        <ele>612</ele>
        <time>2019-08-08T08:24:14.000Z</time>
      </trkpt>
      <trkpt lat="42.84973" lon="0.60263">
        <ele>612</ele>
        <time>2019-08-08T08:24:15.000Z</time>
      </trkpt>
      <trkpt lat="42.84977" lon="0.60262">
        <ele>612</ele>
        <time>2019-08-08T08:24:16.000Z</time>
      </trkpt>
      <trkpt lat="42.84989" lon="0.6026">
        <ele>612</ele>
        <time>2019-08-08T08:24:17.000Z</time>
      </trkpt>
      <trkpt lat="42.84993" lon="0.60259">
        <ele>612</ele>
        <time>2019-08-08T08:24:18.000Z</time>
      </trkpt>
      <trkpt lat="42.85005" lon="0.60258">
        <ele>612</ele>
        <time>2019-08-08T08:24:19.000Z</time>
      </trkpt>
      <trkpt lat="42.85009" lon="0.60258">
        <ele>612</ele>
        <time>2019-08-08T08:24:20.000Z</time>
      </trkpt>
      <trkpt lat="42.85021" lon="0.60258">
        <ele>612</ele>
        <time>2019-08-08T08:24:21.000Z</time>
      </trkpt>
      <trkpt lat="42.85025" lon="0.60258">
        <ele>612</ele>
        <time>2019-08-08T08:24:22.000Z</time>
      </trkpt>
      <trkpt lat="42.85038" lon="0.60258">
        <ele>612</ele>
        <time>2019-08-08T08:24:23.000Z</time>
      </trkpt>
      <trkpt lat="42.85041" lon="0.60258">
        <ele>612</ele>
        <time>2019-08-08T08:24:24.000Z</time>
      </trkpt>
      <trkpt lat="42.85053" lon="0.60258">
        <ele>612</ele>
        <time>2019-08-08T08:24:25.000Z</time>
      </trkpt>
      <trkpt lat="42.85057" lon="0.60258">
        <ele>612</ele>
        <time>2019-08-08T08:24:26.000Z</time>
      </trkpt>
      <trkpt lat="42.85069" lon="0.60258">
        <ele>613</ele>
        <time>2019-08-08T08:24:27.000Z</time>
      </trkpt>
      <trkpt lat="42.85073" lon="0.60258">
        <ele>613</ele>
        <time>2019-08-08T08:24:28.000Z</time>
      </trkpt>
      <trkpt lat="42.85085" lon="0.60258">
        <ele>613</ele>
        <time>2019-08-08T08:24:29.000Z</time>
      </trkpt>
      <trkpt lat="42.85089" lon="0.60258">
        <ele>613</ele>
        <time>2019-08-08T08:24:30.000Z</time>
      </trkpt>
      <trkpt lat="42.85101" lon="0.60258">
        <ele>613</ele>
        <time>2019-08-08T08:24:31.000Z</time>
      </trkpt>
      <trkpt lat="42.85104" lon="0.60258">
        <ele>613</ele>
        <time>2019-08-08T08:24:32.000Z</time>
      </trkpt>
      <trkpt lat="42.85116" lon="0.60258">
        <ele>613</ele>
        <time>2019-08-08T08:24:33.000Z</time>
      </trkpt>
      <trkpt lat="42.8512" lon="0.60258">
        <ele>613</ele>
        <time>2019-08-08T08:24:34.000Z</time>
      </trkpt>
      <trkpt lat="42.85131" lon="0.60258">
        <ele>613</ele>
        <time>2019-08-08T08:24:35.000Z</time>
      </trkpt>
      <trkpt lat="42.85135" lon="0.60258">
        <ele>613</ele>
        <time>2019-08-08T08:24:36.000Z</time>
      </trkpt>
      <trkpt lat="42.85146" lon="0.60259">
        <ele>614</ele>
        <time>2019-08-08T08:24:37.000Z</time>
      </trkpt>
      <trkpt lat="42.8515" lon="0.60259">
        <ele>614</ele>
        <time>2019-08-08T08:24:38.000Z</time>
      </trkpt>
      <trkpt lat="42.85161" lon="0.60259">
        <ele>614</ele>
        <time>2019-08-08T08:24:39.000Z</time>
      </trkpt>
      <trkpt lat="42.85165" lon="0.60259">
        <ele>614</ele>
        <time>2019-08-08T08:24:40.000Z</time>
      </trkpt>
      <trkpt lat="42.85176" lon="0.6026">
        <ele>614</ele>
        <time>2019-08-08T08:24:41.000Z</time>
      </trkpt>
      <trkpt lat="42.85179" lon="0.6026">
        <ele>614</ele>
        <time>2019-08-08T08:24:42.000Z</time>
      </trkpt>
      <trkpt lat="42.8519" lon="0.60262">
        <ele>614</ele>
        <time>2019-08-08T08:24:43.000Z</time>
      </trkpt>
      <trkpt lat="42.85194" lon="0.60263">
        <ele>614</ele>
        <time>2019-08-08T08:24:44.000Z</time>
      </trkpt>
      <trkpt lat="42.85205" lon="0.60267">
        <ele>614</ele>
        <time>2019-08-08T08:24:45.000Z</time>
      </trkpt>
      <trkpt lat="42.85209" lon="0.60268">
        <ele>614</ele>
        <time>2019-08-08T08:24:46.000Z</time>
      </trkpt>
      <trkpt lat="42.8522" lon="0.60271">
        <ele>614</ele>
        <time>2019-08-08T08:24:47.000Z</time>
      </trkpt>
      <trkpt lat="42.85223" lon="0.60273">
        <ele>614</ele>
        <time>2019-08-08T08:24:48.000Z</time>
      </trkpt>
      <trkpt lat="42.85234" lon="0.60278">
        <ele>614</ele>
        <time>2019-08-08T08:24:49.000Z</time>
      </trkpt>
      <trkpt lat="42.85237" lon="0.60279">
        <ele>614</ele>
        <time>2019-08-08T08:24:50.000Z</time>
      </trkpt>
      <trkpt lat="42.85248" lon="0.60286">
        <ele>614</ele>
        <time>2019-08-08T08:24:51.000Z</time>
      </trkpt>
      <trkpt lat="42.85252" lon="0.60288">
        <ele>614</ele>
        <time>2019-08-08T08:24:52.000Z</time>
      </trkpt>
      <trkpt lat="42.85263" lon="0.60296">
        <ele>613</ele>
        <time>2019-08-08T08:24:53.000Z</time>
      </trkpt>
      <trkpt lat="42.85266" lon="0.60299">
        <ele>613</ele>
        <time>2019-08-08T08:24:54.000Z</time>
      </trkpt>
      <trkpt lat="42.85277" lon="0.60307">
        <ele>613</ele>
        <time>2019-08-08T08:24:55.000Z</time>
      </trkpt>
      <trkpt lat="42.8528" lon="0.6031">
        <ele>613</ele>
        <time>2019-08-08T08:24:56.000Z</time>
      </trkpt>
      <trkpt lat="42.85291" lon="0.6032">
        <ele>613</ele>
        <time>2019-08-08T08:24:57.000Z</time>
      </trkpt>
      <trkpt lat="42.85294" lon="0.60324">
        <ele>612</ele>
        <time>2019-08-08T08:24:58.000Z</time>
      </trkpt>
      <trkpt lat="42.85304" lon="0.60335">
        <ele>612</ele>
        <time>2019-08-08T08:24:59.000Z</time>
      </trkpt>
      <trkpt lat="42.85308" lon="0.60339">
        <ele>612</ele>
        <time>2019-08-08T08:25:00.000Z</time>
      </trkpt>
      <trkpt lat="42.85317" lon="0.6035">
        <ele>612</ele>
        <time>2019-08-08T08:25:01.000Z</time>
      </trkpt>
      <trkpt lat="42.8532" lon="0.60354">
        <ele>612</ele>
        <time>2019-08-08T08:25:02.000Z</time>
      </trkpt>
      <trkpt lat="42.85329" lon="0.60366">
        <ele>612</ele>
        <time>2019-08-08T08:25:03.000Z</time>
      </trkpt>
      <trkpt lat="42.85332" lon="0.6037">
        <ele>612</ele>
        <time>2019-08-08T08:25:04.000Z</time>
      </trkpt>
      <trkpt lat="42.85341" lon="0.60381">
        <ele>612</ele>
        <time>2019-08-08T08:25:05.000Z</time>
      </trkpt>
      <trkpt lat="42.85344" lon="0.60385">
        <ele>612</ele>
        <time>2019-08-08T08:25:06.000Z</time>
      </trkpt>
      <trkpt lat="42.85353" lon="0.60397">
        <ele>612</ele>
        <time>2019-08-08T08:25:07.000Z</time>
      </trkpt>
      <trkpt lat="42.85356" lon="0.60402">
        <ele>611</ele>
        <time>2019-08-08T08:25:08.000Z</time>
      </trkpt>
      <trkpt lat="42.85365" lon="0.60414">
        <ele>611</ele>
        <time>2019-08-08T08:25:09.000Z</time>
      </trkpt>
      <trkpt lat="42.85368" lon="0.60418">
        <ele>611</ele>
        <time>2019-08-08T08:25:10.000Z</time>
      </trkpt>
      <trkpt lat="42.85377" lon="0.60429">
        <ele>611</ele>
        <time>2019-08-08T08:25:11.000Z</time>
      </trkpt>
      <trkpt lat="42.8538" lon="0.60433">
        <ele>611</ele>
        <time>2019-08-08T08:25:12.000Z</time>
      </trkpt>
      <trkpt lat="42.85389" lon="0.60445">
        <ele>611</ele>
        <time>2019-08-08T08:25:13.000Z</time>
      </trkpt>
      <trkpt lat="42.85392" lon="0.60448">
        <ele>611</ele>
        <time>2019-08-08T08:25:14.000Z</time>
      </trkpt>
      <trkpt lat="42.85398" lon="0.60455">
        <ele>611</ele>
        <time>2019-08-08T08:25:15.000Z</time>
      </trkpt>
      <trkpt lat="42.85407" lon="0.60465">
        <ele>612</ele>
        <time>2019-08-08T08:25:16.000Z</time>
      </trkpt>
      <trkpt lat="42.85411" lon="0.60468">
        <ele>612</ele>
        <time>2019-08-08T08:25:17.000Z</time>
      </trkpt>
      <trkpt lat="42.8542" lon="0.60477">
        <ele>612</ele>
        <time>2019-08-08T08:25:18.000Z</time>
      </trkpt>
      <trkpt lat="42.85423" lon="0.6048">
        <ele>612</ele>
        <time>2019-08-08T08:25:19.000Z</time>
      </trkpt>
      <trkpt lat="42.85433" lon="0.60488">
        <ele>612</ele>
        <time>2019-08-08T08:25:20.000Z</time>
      </trkpt>
      <trkpt lat="42.85437" lon="0.6049">
        <ele>612</ele>
        <time>2019-08-08T08:25:21.000Z</time>
      </trkpt>
      <trkpt lat="42.85447" lon="0.60498">
        <ele>612</ele>
        <time>2019-08-08T08:25:22.000Z</time>
      </trkpt>
      <trkpt lat="42.85451" lon="0.605">
        <ele>612</ele>
        <time>2019-08-08T08:25:23.000Z</time>
      </trkpt>
      <trkpt lat="42.85462" lon="0.60506">
        <ele>612</ele>
        <time>2019-08-08T08:25:24.000Z</time>
      </trkpt>
      <trkpt lat="42.85465" lon="0.60508">
        <ele>612</ele>
        <time>2019-08-08T08:25:25.000Z</time>
      </trkpt>
      <trkpt lat="42.85476" lon="0.60514">
        <ele>612</ele>
        <time>2019-08-08T08:25:26.000Z</time>
      </trkpt>
      <trkpt lat="42.8548" lon="0.60516">
        <ele>612</ele>
        <time>2019-08-08T08:25:27.000Z</time>
      </trkpt>
      <trkpt lat="42.85492" lon="0.60523">
        <ele>612</ele>
        <time>2019-08-08T08:25:28.000Z</time>
      </trkpt>
      <trkpt lat="42.85496" lon="0.60525">
        <ele>612</ele>
        <time>2019-08-08T08:25:29.000Z</time>
      </trkpt>
      <trkpt lat="42.85511" lon="0.60533">
        <ele>612</ele>
        <time>2019-08-08T08:25:30.000Z</time>
      </trkpt>
      <trkpt lat="42.85519" lon="0.60537">
        <ele>612</ele>
        <time>2019-08-08T08:25:32.000Z</time>
      </trkpt>
      <trkpt lat="42.85519" lon="0.60537">
        <ele>612</ele>
        <time>2019-08-08T08:25:33.000Z</time>
      </trkpt>
      <trkpt lat="42.85539" lon="0.60548">
        <ele>612</ele>
        <time>2019-08-08T08:25:34.000Z</time>
      </trkpt>
      <trkpt lat="42.85543" lon="0.6055">
        <ele>612</ele>
        <time>2019-08-08T08:25:35.000Z</time>
      </trkpt>
      <trkpt lat="42.85551" lon="0.60555">
        <ele>612</ele>
        <time>2019-08-08T08:25:36.000Z</time>
      </trkpt>
      <trkpt lat="42.85563" lon="0.60562">
        <ele>612</ele>
        <time>2019-08-08T08:25:37.000Z</time>
      </trkpt>
      <trkpt lat="42.85567" lon="0.60565">
        <ele>612</ele>
        <time>2019-08-08T08:25:38.000Z</time>
      </trkpt>
      <trkpt lat="42.85579" lon="0.60571">
        <ele>612</ele>
        <time>2019-08-08T08:25:39.000Z</time>
      </trkpt>
      <trkpt lat="42.85583" lon="0.60574">
        <ele>611</ele>
        <time>2019-08-08T08:25:40.000Z</time>
      </trkpt>
      <trkpt lat="42.85598" lon="0.60582">
        <ele>611</ele>
        <time>2019-08-08T08:25:41.000Z</time>
      </trkpt>
      <trkpt lat="42.85606" lon="0.60586">
        <ele>611</ele>
        <time>2019-08-08T08:25:43.000Z</time>
      </trkpt>
      <trkpt lat="42.85606" lon="0.60586">
        <ele>611</ele>
        <time>2019-08-08T08:25:44.000Z</time>
      </trkpt>
      <trkpt lat="42.85626" lon="0.60594">
        <ele>611</ele>
        <time>2019-08-08T08:25:45.000Z</time>
      </trkpt>
      <trkpt lat="42.8563" lon="0.60595">
        <ele>611</ele>
        <time>2019-08-08T08:25:46.000Z</time>
      </trkpt>
      <trkpt lat="42.85643" lon="0.60598">
        <ele>611</ele>
        <time>2019-08-08T08:25:47.000Z</time>
      </trkpt>
      <trkpt lat="42.85647" lon="0.60598">
        <ele>611</ele>
        <time>2019-08-08T08:25:48.000Z</time>
      </trkpt>
      <trkpt lat="42.85656" lon="0.606">
        <ele>611</ele>
        <time>2019-08-08T08:25:49.000Z</time>
      </trkpt>
      <trkpt lat="42.85669" lon="0.60601">
        <ele>611</ele>
        <time>2019-08-08T08:25:50.000Z</time>
      </trkpt>
      <trkpt lat="42.85674" lon="0.60601">
        <ele>612</ele>
        <time>2019-08-08T08:25:51.000Z</time>
      </trkpt>
      <trkpt lat="42.85682" lon="0.60601">
        <ele>612</ele>
        <time>2019-08-08T08:25:52.000Z</time>
      </trkpt>
      <trkpt lat="42.85695" lon="0.606">
        <ele>612</ele>
        <time>2019-08-08T08:25:53.000Z</time>
      </trkpt>
      <trkpt lat="42.85699" lon="0.60599">
        <ele>612</ele>
        <time>2019-08-08T08:25:54.000Z</time>
      </trkpt>
      <trkpt lat="42.85708" lon="0.60597">
        <ele>612</ele>
        <time>2019-08-08T08:25:55.000Z</time>
      </trkpt>
      <trkpt lat="42.85716" lon="0.60596">
        <ele>612</ele>
        <time>2019-08-08T08:25:56.000Z</time>
      </trkpt>
      <trkpt lat="42.85725" lon="0.60594">
        <ele>612</ele>
        <time>2019-08-08T08:25:57.000Z</time>
      </trkpt>
      <trkpt lat="42.85737" lon="0.60592">
        <ele>612</ele>
        <time>2019-08-08T08:25:58.000Z</time>
      </trkpt>
      <trkpt lat="42.85742" lon="0.6059">
        <ele>611</ele>
        <time>2019-08-08T08:25:59.000Z</time>
      </trkpt>
      <trkpt lat="42.85758" lon="0.60585">
        <ele>611</ele>
        <time>2019-08-08T08:26:00.000Z</time>
      </trkpt>
      <trkpt lat="42.85767" lon="0.60582">
        <ele>611</ele>
        <time>2019-08-08T08:26:02.000Z</time>
      </trkpt>
      <trkpt lat="42.85767" lon="0.60582">
        <ele>611</ele>
        <time>2019-08-08T08:26:03.000Z</time>
      </trkpt>
      <trkpt lat="42.85787" lon="0.60574">
        <ele>611</ele>
        <time>2019-08-08T08:26:04.000Z</time>
      </trkpt>
      <trkpt lat="42.85791" lon="0.60573">
        <ele>611</ele>
        <time>2019-08-08T08:26:05.000Z</time>
      </trkpt>
      <trkpt lat="42.85803" lon="0.60568">
        <ele>611</ele>
        <time>2019-08-08T08:26:06.000Z</time>
      </trkpt>
      <trkpt lat="42.85807" lon="0.60567">
        <ele>611</ele>
        <time>2019-08-08T08:26:07.000Z</time>
      </trkpt>
      <trkpt lat="42.85819" lon="0.60562">
        <ele>611</ele>
        <time>2019-08-08T08:26:08.000Z</time>
      </trkpt>
      <trkpt lat="42.85824" lon="0.6056">
        <ele>611</ele>
        <time>2019-08-08T08:26:09.000Z</time>
      </trkpt>
      <trkpt lat="42.85836" lon="0.60557">
        <ele>611</ele>
        <time>2019-08-08T08:26:10.000Z</time>
      </trkpt>
      <trkpt lat="42.8584" lon="0.60556">
        <ele>611</ele>
        <time>2019-08-08T08:26:11.000Z</time>
      </trkpt>
      <trkpt lat="42.85852" lon="0.60555">
        <ele>611</ele>
        <time>2019-08-08T08:26:12.000Z</time>
      </trkpt>
      <trkpt lat="42.85857" lon="0.60555">
        <ele>611</ele>
        <time>2019-08-08T08:26:13.000Z</time>
      </trkpt>
      <trkpt lat="42.85869" lon="0.60555">
        <ele>611</ele>
        <time>2019-08-08T08:26:14.000Z</time>
      </trkpt>
      <trkpt lat="42.85874" lon="0.60555">
        <ele>611</ele>
        <time>2019-08-08T08:26:15.000Z</time>
      </trkpt>
      <trkpt lat="42.85886" lon="0.60555">
        <ele>611</ele>
        <time>2019-08-08T08:26:16.000Z</time>
      </trkpt>
      <trkpt lat="42.8589" lon="0.60555">
        <ele>611</ele>
        <time>2019-08-08T08:26:17.000Z</time>
      </trkpt>
      <trkpt lat="42.85902" lon="0.60555">
        <ele>611</ele>
        <time>2019-08-08T08:26:18.000Z</time>
      </trkpt>
      <trkpt lat="42.85906" lon="0.60555">
        <ele>611</ele>
        <time>2019-08-08T08:26:19.000Z</time>
      </trkpt>
      <trkpt lat="42.85918" lon="0.60556">
        <ele>611</ele>
        <time>2019-08-08T08:26:20.000Z</time>
      </trkpt>
      <trkpt lat="42.85922" lon="0.60556">
        <ele>611</ele>
        <time>2019-08-08T08:26:21.000Z</time>
      </trkpt>
      <trkpt lat="42.85934" lon="0.60558">
        <ele>611</ele>
        <time>2019-08-08T08:26:22.000Z</time>
      </trkpt>
      <trkpt lat="42.85938" lon="0.60559">
        <ele>611</ele>
        <time>2019-08-08T08:26:23.000Z</time>
      </trkpt>
      <trkpt lat="42.8595" lon="0.60563">
        <ele>611</ele>
        <time>2019-08-08T08:26:24.000Z</time>
      </trkpt>
      <trkpt lat="42.85954" lon="0.60565">
        <ele>610</ele>
        <time>2019-08-08T08:26:25.000Z</time>
      </trkpt>
      <trkpt lat="42.85966" lon="0.6057">
        <ele>610</ele>
        <time>2019-08-08T08:26:26.000Z</time>
      </trkpt>
      <trkpt lat="42.8597" lon="0.60571">
        <ele>611</ele>
        <time>2019-08-08T08:26:27.000Z</time>
      </trkpt>
      <trkpt lat="42.85983" lon="0.60576">
        <ele>611</ele>
        <time>2019-08-08T08:26:28.000Z</time>
      </trkpt>
      <trkpt lat="42.85987" lon="0.60577">
        <ele>611</ele>
        <time>2019-08-08T08:26:29.000Z</time>
      </trkpt>
      <trkpt lat="42.85999" lon="0.6058">
        <ele>611</ele>
        <time>2019-08-08T08:26:30.000Z</time>
      </trkpt>
      <trkpt lat="42.86003" lon="0.60581">
        <ele>611</ele>
        <time>2019-08-08T08:26:31.000Z</time>
      </trkpt>
      <trkpt lat="42.86015" lon="0.60583">
        <ele>611</ele>
        <time>2019-08-08T08:26:32.000Z</time>
      </trkpt>
      <trkpt lat="42.86019" lon="0.60583">
        <ele>611</ele>
        <time>2019-08-08T08:26:33.000Z</time>
      </trkpt>
      <trkpt lat="42.86031" lon="0.60583">
        <ele>611</ele>
        <time>2019-08-08T08:26:34.000Z</time>
      </trkpt>
      <trkpt lat="42.86035" lon="0.60583">
        <ele>611</ele>
        <time>2019-08-08T08:26:35.000Z</time>
      </trkpt>
      <trkpt lat="42.86048" lon="0.60581">
        <ele>611</ele>
        <time>2019-08-08T08:26:36.000Z</time>
      </trkpt>
      <trkpt lat="42.86052" lon="0.6058">
        <ele>611</ele>
        <time>2019-08-08T08:26:37.000Z</time>
      </trkpt>
      <trkpt lat="42.86064" lon="0.60577">
        <ele>611</ele>
        <time>2019-08-08T08:26:38.000Z</time>
      </trkpt>
      <trkpt lat="42.86068" lon="0.60576">
        <ele>610</ele>
        <time>2019-08-08T08:26:39.000Z</time>
      </trkpt>
      <trkpt lat="42.86081" lon="0.60571">
        <ele>610</ele>
        <time>2019-08-08T08:26:40.000Z</time>
      </trkpt>
      <trkpt lat="42.86085" lon="0.6057">
        <ele>609</ele>
        <time>2019-08-08T08:26:41.000Z</time>
      </trkpt>
      <trkpt lat="42.86098" lon="0.60565">
        <ele>609</ele>
        <time>2019-08-08T08:26:42.000Z</time>
      </trkpt>
      <trkpt lat="42.86102" lon="0.60564">
        <ele>609</ele>
        <time>2019-08-08T08:26:43.000Z</time>
      </trkpt>
      <trkpt lat="42.86114" lon="0.6056">
        <ele>609</ele>
        <time>2019-08-08T08:26:44.000Z</time>
      </trkpt>
      <trkpt lat="42.86119" lon="0.60559">
        <ele>609</ele>
        <time>2019-08-08T08:26:45.000Z</time>
      </trkpt>
      <trkpt lat="42.86131" lon="0.60555">
        <ele>609</ele>
        <time>2019-08-08T08:26:46.000Z</time>
      </trkpt>
      <trkpt lat="42.86136" lon="0.60554">
        <ele>609</ele>
        <time>2019-08-08T08:26:47.000Z</time>
      </trkpt>
      <trkpt lat="42.86148" lon="0.60551">
        <ele>609</ele>
        <time>2019-08-08T08:26:48.000Z</time>
      </trkpt>
      <trkpt lat="42.86152" lon="0.6055">
        <ele>610</ele>
        <time>2019-08-08T08:26:49.000Z</time>
      </trkpt>
      <trkpt lat="42.86165" lon="0.60546">
        <ele>610</ele>
        <time>2019-08-08T08:26:50.000Z</time>
      </trkpt>
      <trkpt lat="42.86169" lon="0.60544">
        <ele>610</ele>
        <time>2019-08-08T08:26:51.000Z</time>
      </trkpt>
      <trkpt lat="42.86181" lon="0.60541">
        <ele>610</ele>
        <time>2019-08-08T08:26:52.000Z</time>
      </trkpt>
      <trkpt lat="42.86185" lon="0.60539">
        <ele>609</ele>
        <time>2019-08-08T08:26:53.000Z</time>
      </trkpt>
      <trkpt lat="42.86197" lon="0.60535">
        <ele>609</ele>
        <time>2019-08-08T08:26:54.000Z</time>
      </trkpt>
      <trkpt lat="42.86201" lon="0.60534">
        <ele>609</ele>
        <time>2019-08-08T08:26:55.000Z</time>
      </trkpt>
      <trkpt lat="42.86213" lon="0.6053">
        <ele>609</ele>
        <time>2019-08-08T08:26:56.000Z</time>
      </trkpt>
      <trkpt lat="42.86217" lon="0.60528">
        <ele>609</ele>
        <time>2019-08-08T08:26:57.000Z</time>
      </trkpt>
      <trkpt lat="42.8623" lon="0.60524">
        <ele>609</ele>
        <time>2019-08-08T08:26:58.000Z</time>
      </trkpt>
      <trkpt lat="42.86234" lon="0.60523">
        <ele>609</ele>
        <time>2019-08-08T08:26:59.000Z</time>
      </trkpt>
      <trkpt lat="42.86246" lon="0.60519">
        <ele>609</ele>
        <time>2019-08-08T08:27:00.000Z</time>
      </trkpt>
      <trkpt lat="42.8625" lon="0.60518">
        <ele>609</ele>
        <time>2019-08-08T08:27:01.000Z</time>
      </trkpt>
      <trkpt lat="42.86262" lon="0.60514">
        <ele>609</ele>
        <time>2019-08-08T08:27:02.000Z</time>
      </trkpt>
      <trkpt lat="42.86266" lon="0.60513">
        <ele>609</ele>
        <time>2019-08-08T08:27:03.000Z</time>
      </trkpt>
      <trkpt lat="42.86278" lon="0.60511">
        <ele>609</ele>
        <time>2019-08-08T08:27:04.000Z</time>
      </trkpt>
      <trkpt lat="42.86282" lon="0.6051">
        <ele>609</ele>
        <time>2019-08-08T08:27:05.000Z</time>
      </trkpt>
      <trkpt lat="42.86294" lon="0.60509">
        <ele>609</ele>
        <time>2019-08-08T08:27:06.000Z</time>
      </trkpt>
      <trkpt lat="42.86298" lon="0.60509">
        <ele>610</ele>
        <time>2019-08-08T08:27:07.000Z</time>
      </trkpt>
      <trkpt lat="42.86309" lon="0.60509">
        <ele>610</ele>
        <time>2019-08-08T08:27:08.000Z</time>
      </trkpt>
      <trkpt lat="42.86312" lon="0.60509">
        <ele>611</ele>
        <time>2019-08-08T08:27:09.000Z</time>
      </trkpt>
      <trkpt lat="42.86323" lon="0.60511">
        <ele>611</ele>
        <time>2019-08-08T08:27:10.000Z</time>
      </trkpt>
      <trkpt lat="42.86326" lon="0.60512">
        <ele>611</ele>
        <time>2019-08-08T08:27:11.000Z</time>
      </trkpt>
      <trkpt lat="42.86336" lon="0.60514">
        <ele>611</ele>
        <time>2019-08-08T08:27:12.000Z</time>
      </trkpt>
      <trkpt lat="42.86339" lon="0.60514">
        <ele>611</ele>
        <time>2019-08-08T08:27:13.000Z</time>
      </trkpt>
      <trkpt lat="42.86349" lon="0.60516">
        <ele>611</ele>
        <time>2019-08-08T08:27:14.000Z</time>
      </trkpt>
      <trkpt lat="42.86352" lon="0.60516">
        <ele>612</ele>
        <time>2019-08-08T08:27:15.000Z</time>
      </trkpt>
      <trkpt lat="42.86361" lon="0.60518">
        <ele>612</ele>
        <time>2019-08-08T08:27:16.000Z</time>
      </trkpt>
      <trkpt lat="42.86365" lon="0.60519">
        <ele>613</ele>
        <time>2019-08-08T08:27:17.000Z</time>
      </trkpt>
      <trkpt lat="42.86374" lon="0.60522">
        <ele>613</ele>
        <time>2019-08-08T08:27:18.000Z</time>
      </trkpt>
      <trkpt lat="42.86377" lon="0.60523">
        <ele>613</ele>
        <time>2019-08-08T08:27:19.000Z</time>
      </trkpt>
      <trkpt lat="42.86385" lon="0.60527">
        <ele>613</ele>
        <time>2019-08-08T08:27:20.000Z</time>
      </trkpt>
      <trkpt lat="42.86388" lon="0.60529">
        <ele>614</ele>
        <time>2019-08-08T08:27:21.000Z</time>
      </trkpt>
      <trkpt lat="42.86394" lon="0.60531">
        <ele>614</ele>
        <time>2019-08-08T08:27:22.000Z</time>
      </trkpt>
      <trkpt lat="42.86399" lon="0.60534">
        <ele>614</ele>
        <time>2019-08-08T08:27:23.000Z</time>
      </trkpt>
      <trkpt lat="42.86405" lon="0.60537">
        <ele>614</ele>
        <time>2019-08-08T08:27:24.000Z</time>
      </trkpt>
      <trkpt lat="42.8641" lon="0.6054">
        <ele>614</ele>
        <time>2019-08-08T08:27:25.000Z</time>
      </trkpt>
      <trkpt lat="42.86416" lon="0.60544">
        <ele>614</ele>
        <time>2019-08-08T08:27:26.000Z</time>
      </trkpt>
      <trkpt lat="42.86422" lon="0.60547">
        <ele>614</ele>
        <time>2019-08-08T08:27:27.000Z</time>
      </trkpt>
      <trkpt lat="42.86428" lon="0.60551">
        <ele>614</ele>
        <time>2019-08-08T08:27:28.000Z</time>
      </trkpt>
      <trkpt lat="42.86434" lon="0.60556">
        <ele>615</ele>
        <time>2019-08-08T08:27:29.000Z</time>
      </trkpt>
      <trkpt lat="42.86439" lon="0.6056">
        <ele>615</ele>
        <time>2019-08-08T08:27:30.000Z</time>
      </trkpt>
      <trkpt lat="42.86445" lon="0.60564">
        <ele>615</ele>
        <time>2019-08-08T08:27:31.000Z</time>
      </trkpt>
      <trkpt lat="42.8645" lon="0.60568">
        <ele>615</ele>
        <time>2019-08-08T08:27:32.000Z</time>
      </trkpt>
      <trkpt lat="42.86456" lon="0.60572">
        <ele>615</ele>
        <time>2019-08-08T08:27:33.000Z</time>
      </trkpt>
      <trkpt lat="42.86461" lon="0.60577">
        <ele>615</ele>
        <time>2019-08-08T08:27:34.000Z</time>
      </trkpt>
      <trkpt lat="42.86466" lon="0.60582">
        <ele>616</ele>
        <time>2019-08-08T08:27:35.000Z</time>
      </trkpt>
      <trkpt lat="42.86474" lon="0.60588">
        <ele>616</ele>
        <time>2019-08-08T08:27:36.000Z</time>
      </trkpt>
      <trkpt lat="42.86476" lon="0.60591">
        <ele>616</ele>
        <time>2019-08-08T08:27:37.000Z</time>
      </trkpt>
      <trkpt lat="42.86481" lon="0.60595">
        <ele>616</ele>
        <time>2019-08-08T08:27:38.000Z</time>
      </trkpt>
      <trkpt lat="42.86486" lon="0.606">
        <ele>617</ele>
        <time>2019-08-08T08:27:39.000Z</time>
      </trkpt>
      <trkpt lat="42.86491" lon="0.60604">
        <ele>617</ele>
        <time>2019-08-08T08:27:40.000Z</time>
      </trkpt>
      <trkpt lat="42.86496" lon="0.60609">
        <ele>617</ele>
        <time>2019-08-08T08:27:41.000Z</time>
      </trkpt>
      <trkpt lat="42.86502" lon="0.60614">
        <ele>617</ele>
        <time>2019-08-08T08:27:42.000Z</time>
      </trkpt>
      <trkpt lat="42.86507" lon="0.60619">
        <ele>617</ele>
        <time>2019-08-08T08:27:43.000Z</time>
      </trkpt>
      <trkpt lat="42.86512" lon="0.60623">
        <ele>617</ele>
        <time>2019-08-08T08:27:44.000Z</time>
      </trkpt>
      <trkpt lat="42.86518" lon="0.60628">
        <ele>618</ele>
        <time>2019-08-08T08:27:45.000Z</time>
      </trkpt>
      <trkpt lat="42.86523" lon="0.60633">
        <ele>618</ele>
        <time>2019-08-08T08:27:46.000Z</time>
      </trkpt>
      <trkpt lat="42.86528" lon="0.60637">
        <ele>618</ele>
        <time>2019-08-08T08:27:47.000Z</time>
      </trkpt>
      <trkpt lat="42.86533" lon="0.60642">
        <ele>618</ele>
        <time>2019-08-08T08:27:48.000Z</time>
      </trkpt>
      <trkpt lat="42.86539" lon="0.60647">
        <ele>618</ele>
        <time>2019-08-08T08:27:49.000Z</time>
      </trkpt>
      <trkpt lat="42.86544" lon="0.60651">
        <ele>618</ele>
        <time>2019-08-08T08:27:50.000Z</time>
      </trkpt>
      <trkpt lat="42.8655" lon="0.60656">
        <ele>618</ele>
        <time>2019-08-08T08:27:51.000Z</time>
      </trkpt>
      <trkpt lat="42.86555" lon="0.60661">
        <ele>618</ele>
        <time>2019-08-08T08:27:52.000Z</time>
      </trkpt>
      <trkpt lat="42.86561" lon="0.60666">
        <ele>618</ele>
        <time>2019-08-08T08:27:53.000Z</time>
      </trkpt>
      <trkpt lat="42.86567" lon="0.60671">
        <ele>618</ele>
        <time>2019-08-08T08:27:54.000Z</time>
      </trkpt>
      <trkpt lat="42.86573" lon="0.60676">
        <ele>618</ele>
        <time>2019-08-08T08:27:55.000Z</time>
      </trkpt>
      <trkpt lat="42.86579" lon="0.60682">
        <ele>618</ele>
        <time>2019-08-08T08:27:56.000Z</time>
      </trkpt>
      <trkpt lat="42.86585" lon="0.60687">
        <ele>617</ele>
        <time>2019-08-08T08:27:57.000Z</time>
      </trkpt>
      <trkpt lat="42.86591" lon="0.60693">
        <ele>617</ele>
        <time>2019-08-08T08:27:58.000Z</time>
      </trkpt>
      <trkpt lat="42.86598" lon="0.60699">
        <ele>618</ele>
        <time>2019-08-08T08:27:59.000Z</time>
      </trkpt>
      <trkpt lat="42.86604" lon="0.60704">
        <ele>618</ele>
        <time>2019-08-08T08:28:00.000Z</time>
      </trkpt>
      <trkpt lat="42.86611" lon="0.6071">
        <ele>617</ele>
        <time>2019-08-08T08:28:01.000Z</time>
      </trkpt>
      <trkpt lat="42.86617" lon="0.60716">
        <ele>617</ele>
        <time>2019-08-08T08:28:02.000Z</time>
      </trkpt>
      <trkpt lat="42.86624" lon="0.60722">
        <ele>616</ele>
        <time>2019-08-08T08:28:03.000Z</time>
      </trkpt>
      <trkpt lat="42.86631" lon="0.60729">
        <ele>616</ele>
        <time>2019-08-08T08:28:04.000Z</time>
      </trkpt>
      <trkpt lat="42.86641" lon="0.60738">
        <ele>616</ele>
        <time>2019-08-08T08:28:05.000Z</time>
      </trkpt>
      <trkpt lat="42.86645" lon="0.60741">
        <ele>616</ele>
        <time>2019-08-08T08:28:06.000Z</time>
      </trkpt>
      <trkpt lat="42.86655" lon="0.60751">
        <ele>616</ele>
        <time>2019-08-08T08:28:07.000Z</time>
      </trkpt>
      <trkpt lat="42.86658" lon="0.60754">
        <ele>616</ele>
        <time>2019-08-08T08:28:08.000Z</time>
      </trkpt>
      <trkpt lat="42.86665" lon="0.60761">
        <ele>615</ele>
        <time>2019-08-08T08:28:09.000Z</time>
      </trkpt>
      <trkpt lat="42.86672" lon="0.60767">
        <ele>615</ele>
        <time>2019-08-08T08:28:10.000Z</time>
      </trkpt>
      <trkpt lat="42.86678" lon="0.60775">
        <ele>615</ele>
        <time>2019-08-08T08:28:11.000Z</time>
      </trkpt>
      <trkpt lat="42.86685" lon="0.60783">
        <ele>615</ele>
        <time>2019-08-08T08:28:12.000Z</time>
      </trkpt>
      <trkpt lat="42.86691" lon="0.60791">
        <ele>615</ele>
        <time>2019-08-08T08:28:13.000Z</time>
      </trkpt>
      <trkpt lat="42.86697" lon="0.60799">
        <ele>615</ele>
        <time>2019-08-08T08:28:14.000Z</time>
      </trkpt>
      <trkpt lat="42.86704" lon="0.60806">
        <ele>615</ele>
        <time>2019-08-08T08:28:15.000Z</time>
      </trkpt>
      <trkpt lat="42.8671" lon="0.60814">
        <ele>615</ele>
        <time>2019-08-08T08:28:16.000Z</time>
      </trkpt>
      <trkpt lat="42.86716" lon="0.60822">
        <ele>614</ele>
        <time>2019-08-08T08:28:17.000Z</time>
      </trkpt>
      <trkpt lat="42.86722" lon="0.6083">
        <ele>614</ele>
        <time>2019-08-08T08:28:18.000Z</time>
      </trkpt>
      <trkpt lat="42.86728" lon="0.60837">
        <ele>614</ele>
        <time>2019-08-08T08:28:19.000Z</time>
      </trkpt>
      <trkpt lat="42.86734" lon="0.60845">
        <ele>614</ele>
        <time>2019-08-08T08:28:20.000Z</time>
      </trkpt>
      <trkpt lat="42.8674" lon="0.60853">
        <ele>614</ele>
        <time>2019-08-08T08:28:21.000Z</time>
      </trkpt>
      <trkpt lat="42.86746" lon="0.6086">
        <ele>614</ele>
        <time>2019-08-08T08:28:22.000Z</time>
      </trkpt>
      <trkpt lat="42.86751" lon="0.60867">
        <ele>614</ele>
        <time>2019-08-08T08:28:23.000Z</time>
      </trkpt>
      <trkpt lat="42.8676" lon="0.60878">
        <ele>615</ele>
        <time>2019-08-08T08:28:24.000Z</time>
      </trkpt>
      <trkpt lat="42.86763" lon="0.60881">
        <ele>615</ele>
        <time>2019-08-08T08:28:25.000Z</time>
      </trkpt>
      <trkpt lat="42.86771" lon="0.60892">
        <ele>615</ele>
        <time>2019-08-08T08:28:26.000Z</time>
      </trkpt>
      <trkpt lat="42.86773" lon="0.60895">
        <ele>615</ele>
        <time>2019-08-08T08:28:27.000Z</time>
      </trkpt>
      <trkpt lat="42.86782" lon="0.60905">
        <ele>615</ele>
        <time>2019-08-08T08:28:28.000Z</time>
      </trkpt>
      <trkpt lat="42.86784" lon="0.60909">
        <ele>616</ele>
        <time>2019-08-08T08:28:29.000Z</time>
      </trkpt>
      <trkpt lat="42.86793" lon="0.60918">
        <ele>616</ele>
        <time>2019-08-08T08:28:30.000Z</time>
      </trkpt>
      <trkpt lat="42.86796" lon="0.60921">
        <ele>616</ele>
        <time>2019-08-08T08:28:31.000Z</time>
      </trkpt>
      <trkpt lat="42.86805" lon="0.6093">
        <ele>616</ele>
        <time>2019-08-08T08:28:32.000Z</time>
      </trkpt>
      <trkpt lat="42.86809" lon="0.60933">
        <ele>616</ele>
        <time>2019-08-08T08:28:33.000Z</time>
      </trkpt>
      <trkpt lat="42.86819" lon="0.6094">
        <ele>616</ele>
        <time>2019-08-08T08:28:34.000Z</time>
      </trkpt>
      <trkpt lat="42.86822" lon="0.60943">
        <ele>616</ele>
        <time>2019-08-08T08:28:35.000Z</time>
      </trkpt>
      <trkpt lat="42.86833" lon="0.6095">
        <ele>615</ele>
        <time>2019-08-08T08:28:36.000Z</time>
      </trkpt>
      <trkpt lat="42.86836" lon="0.60952">
        <ele>615</ele>
        <time>2019-08-08T08:28:37.000Z</time>
      </trkpt>
      <trkpt lat="42.86847" lon="0.60958">
        <ele>615</ele>
        <time>2019-08-08T08:28:38.000Z</time>
      </trkpt>
      <trkpt lat="42.86851" lon="0.6096">
        <ele>615</ele>
        <time>2019-08-08T08:28:39.000Z</time>
      </trkpt>
      <trkpt lat="42.86862" lon="0.60965">
        <ele>617</ele>
        <time>2019-08-08T08:28:40.000Z</time>
      </trkpt>
      <trkpt lat="42.86866" lon="0.60966">
        <ele>617</ele>
        <time>2019-08-08T08:28:41.000Z</time>
      </trkpt>
      <trkpt lat="42.86879" lon="0.6097">
        <ele>617</ele>
        <time>2019-08-08T08:28:42.000Z</time>
      </trkpt>
      <trkpt lat="42.86883" lon="0.60971">
        <ele>617</ele>
        <time>2019-08-08T08:28:43.000Z</time>
      </trkpt>
      <trkpt lat="42.86892" lon="0.60974">
        <ele>617</ele>
        <time>2019-08-08T08:28:44.000Z</time>
      </trkpt>
      <trkpt lat="42.86901" lon="0.60976">
        <ele>617</ele>
        <time>2019-08-08T08:28:45.000Z</time>
      </trkpt>
      <trkpt lat="42.86911" lon="0.60979">
        <ele>615</ele>
        <time>2019-08-08T08:28:46.000Z</time>
      </trkpt>
      <trkpt lat="42.8692" lon="0.60982">
        <ele>615</ele>
        <time>2019-08-08T08:28:47.000Z</time>
      </trkpt>
      <trkpt lat="42.8693" lon="0.60985">
        <ele>614</ele>
        <time>2019-08-08T08:28:48.000Z</time>
      </trkpt>
      <trkpt lat="42.8694" lon="0.60988">
        <ele>614</ele>
        <time>2019-08-08T08:28:49.000Z</time>
      </trkpt>
      <trkpt lat="42.8695" lon="0.60991">
        <ele>612</ele>
        <time>2019-08-08T08:28:50.000Z</time>
      </trkpt>
      <trkpt lat="42.86961" lon="0.60995">
        <ele>612</ele>
        <time>2019-08-08T08:28:51.000Z</time>
      </trkpt>
      <trkpt lat="42.86977" lon="0.61001">
        <ele>612</ele>
        <time>2019-08-08T08:28:52.000Z</time>
      </trkpt>
      <trkpt lat="42.86983" lon="0.61003">
        <ele>609</ele>
        <time>2019-08-08T08:28:53.000Z</time>
      </trkpt>
      <trkpt lat="42.86993" lon="0.61008">
        <ele>607</ele>
        <time>2019-08-08T08:28:54.000Z</time>
      </trkpt>
      <trkpt lat="42.87004" lon="0.61014">
        <ele>607</ele>
        <time>2019-08-08T08:28:55.000Z</time>
      </trkpt>
      <trkpt lat="42.87016" lon="0.61022">
        <ele>607</ele>
        <time>2019-08-08T08:28:56.000Z</time>
      </trkpt>
      <trkpt lat="42.87027" lon="0.61029">
        <ele>607</ele>
        <time>2019-08-08T08:28:57.000Z</time>
      </trkpt>
      <trkpt lat="42.87038" lon="0.61037">
        <ele>604</ele>
        <time>2019-08-08T08:28:58.000Z</time>
      </trkpt>
      <trkpt lat="42.87049" lon="0.61045">
        <ele>604</ele>
        <time>2019-08-08T08:28:59.000Z</time>
      </trkpt>
      <trkpt lat="42.87061" lon="0.61054">
        <ele>603</ele>
        <time>2019-08-08T08:29:00.000Z</time>
      </trkpt>
      <trkpt lat="42.87073" lon="0.61062">
        <ele>603</ele>
        <time>2019-08-08T08:29:01.000Z</time>
      </trkpt>
      <trkpt lat="42.87085" lon="0.6107">
        <ele>600</ele>
        <time>2019-08-08T08:29:02.000Z</time>
      </trkpt>
      <trkpt lat="42.87098" lon="0.61078">
        <ele>600</ele>
        <time>2019-08-08T08:29:03.000Z</time>
      </trkpt>
      <trkpt lat="42.87111" lon="0.61084">
        <ele>598</ele>
        <time>2019-08-08T08:29:04.000Z</time>
      </trkpt>
      <trkpt lat="42.87125" lon="0.6109">
        <ele>597</ele>
        <time>2019-08-08T08:29:05.000Z</time>
      </trkpt>
      <trkpt lat="42.87138" lon="0.61095">
        <ele>597</ele>
        <time>2019-08-08T08:29:06.000Z</time>
      </trkpt>
      <trkpt lat="42.87152" lon="0.611">
        <ele>597</ele>
        <time>2019-08-08T08:29:07.000Z</time>
      </trkpt>
      <trkpt lat="42.87165" lon="0.61104">
        <ele>597</ele>
        <time>2019-08-08T08:29:08.000Z</time>
      </trkpt>
      <trkpt lat="42.87178" lon="0.61109">
        <ele>596</ele>
        <time>2019-08-08T08:29:09.000Z</time>
      </trkpt>
      <trkpt lat="42.8719" lon="0.61114">
        <ele>596</ele>
        <time>2019-08-08T08:29:10.000Z</time>
      </trkpt>
      <trkpt lat="42.87208" lon="0.61121">
        <ele>596</ele>
        <time>2019-08-08T08:29:11.000Z</time>
      </trkpt>
      <trkpt lat="42.87214" lon="0.61124">
        <ele>595</ele>
        <time>2019-08-08T08:29:12.000Z</time>
      </trkpt>
      <trkpt lat="42.87225" lon="0.61129">
        <ele>595</ele>
        <time>2019-08-08T08:29:13.000Z</time>
      </trkpt>
      <trkpt lat="42.87236" lon="0.61136">
        <ele>597</ele>
        <time>2019-08-08T08:29:14.000Z</time>
      </trkpt>
      <trkpt lat="42.87245" lon="0.61142">
        <ele>597</ele>
        <time>2019-08-08T08:29:15.000Z</time>
      </trkpt>
      <trkpt lat="42.87254" lon="0.61148">
        <ele>597</ele>
        <time>2019-08-08T08:29:16.000Z</time>
      </trkpt>
      <trkpt lat="42.87263" lon="0.61154">
        <ele>597</ele>
        <time>2019-08-08T08:29:17.000Z</time>
      </trkpt>
      <trkpt lat="42.87272" lon="0.6116">
        <ele>597</ele>
        <time>2019-08-08T08:29:18.000Z</time>
      </trkpt>
      <trkpt lat="42.8728" lon="0.61167">
        <ele>597</ele>
        <time>2019-08-08T08:29:19.000Z</time>
      </trkpt>
      <trkpt lat="42.87288" lon="0.61173">
        <ele>597</ele>
        <time>2019-08-08T08:29:20.000Z</time>
      </trkpt>
      <trkpt lat="42.87297" lon="0.61179">
        <ele>597</ele>
        <time>2019-08-08T08:29:21.000Z</time>
      </trkpt>
      <trkpt lat="42.87305" lon="0.61184">
        <ele>597</ele>
        <time>2019-08-08T08:29:22.000Z</time>
      </trkpt>
      <trkpt lat="42.87313" lon="0.61189">
        <ele>597</ele>
        <time>2019-08-08T08:29:23.000Z</time>
      </trkpt>
      <trkpt lat="42.87321" lon="0.61195">
        <ele>597</ele>
        <time>2019-08-08T08:29:24.000Z</time>
      </trkpt>
      <trkpt lat="42.87329" lon="0.61201">
        <ele>597</ele>
        <time>2019-08-08T08:29:25.000Z</time>
      </trkpt>
      <trkpt lat="42.87337" lon="0.61206">
        <ele>597</ele>
        <time>2019-08-08T08:29:26.000Z</time>
      </trkpt>
      <trkpt lat="42.87346" lon="0.61212">
        <ele>598</ele>
        <time>2019-08-08T08:29:27.000Z</time>
      </trkpt>
      <trkpt lat="42.87354" lon="0.61217">
        <ele>598</ele>
        <time>2019-08-08T08:29:28.000Z</time>
      </trkpt>
      <trkpt lat="42.87363" lon="0.61222">
        <ele>598</ele>
        <time>2019-08-08T08:29:29.000Z</time>
      </trkpt>
      <trkpt lat="42.87371" lon="0.61227">
        <ele>598</ele>
        <time>2019-08-08T08:29:30.000Z</time>
      </trkpt>
      <trkpt lat="42.8738" lon="0.61231">
        <ele>597</ele>
        <time>2019-08-08T08:29:31.000Z</time>
      </trkpt>
      <trkpt lat="42.87389" lon="0.61235">
        <ele>597</ele>
        <time>2019-08-08T08:29:32.000Z</time>
      </trkpt>
      <trkpt lat="42.87397" lon="0.6124">
        <ele>597</ele>
        <time>2019-08-08T08:29:33.000Z</time>
      </trkpt>
      <trkpt lat="42.8741" lon="0.61246">
        <ele>597</ele>
        <time>2019-08-08T08:29:34.000Z</time>
      </trkpt>
      <trkpt lat="42.87414" lon="0.61248">
        <ele>597</ele>
        <time>2019-08-08T08:29:35.000Z</time>
      </trkpt>
      <trkpt lat="42.87427" lon="0.61254">
        <ele>596</ele>
        <time>2019-08-08T08:29:36.000Z</time>
      </trkpt>
      <trkpt lat="42.87431" lon="0.61256">
        <ele>596</ele>
        <time>2019-08-08T08:29:37.000Z</time>
      </trkpt>
      <trkpt lat="42.87444" lon="0.61261">
        <ele>596</ele>
        <time>2019-08-08T08:29:38.000Z</time>
      </trkpt>
      <trkpt lat="42.87448" lon="0.61263">
        <ele>596</ele>
        <time>2019-08-08T08:29:39.000Z</time>
      </trkpt>
      <trkpt lat="42.87461" lon="0.61269">
        <ele>596</ele>
        <time>2019-08-08T08:29:40.000Z</time>
      </trkpt>
      <trkpt lat="42.87465" lon="0.61271">
        <ele>596</ele>
        <time>2019-08-08T08:29:41.000Z</time>
      </trkpt>
      <trkpt lat="42.87478" lon="0.61277">
        <ele>596</ele>
        <time>2019-08-08T08:29:42.000Z</time>
      </trkpt>
      <trkpt lat="42.87482" lon="0.61279">
        <ele>596</ele>
        <time>2019-08-08T08:29:43.000Z</time>
      </trkpt>
      <trkpt lat="42.87494" lon="0.61285">
        <ele>596</ele>
        <time>2019-08-08T08:29:44.000Z</time>
      </trkpt>
      <trkpt lat="42.87498" lon="0.61287">
        <ele>596</ele>
        <time>2019-08-08T08:29:45.000Z</time>
      </trkpt>
      <trkpt lat="42.87511" lon="0.61292">
        <ele>596</ele>
        <time>2019-08-08T08:29:46.000Z</time>
      </trkpt>
      <trkpt lat="42.87515" lon="0.61294">
        <ele>596</ele>
        <time>2019-08-08T08:29:47.000Z</time>
      </trkpt>
      <trkpt lat="42.87531" lon="0.61301">
        <ele>595</ele>
        <time>2019-08-08T08:29:48.000Z</time>
      </trkpt>
      <trkpt lat="42.87539" lon="0.61305">
        <ele>595</ele>
        <time>2019-08-08T08:29:50.000Z</time>
      </trkpt>
      <trkpt lat="42.87539" lon="0.61305">
        <ele>595</ele>
        <time>2019-08-08T08:29:51.000Z</time>
      </trkpt>
      <trkpt lat="42.87559" lon="0.61316">
        <ele>595</ele>
        <time>2019-08-08T08:29:52.000Z</time>
      </trkpt>
      <trkpt lat="42.87563" lon="0.61317">
        <ele>595</ele>
        <time>2019-08-08T08:29:53.000Z</time>
      </trkpt>
      <trkpt lat="42.87571" lon="0.61321">
        <ele>595</ele>
        <time>2019-08-08T08:29:54.000Z</time>
      </trkpt>
      <trkpt lat="42.87579" lon="0.61324">
        <ele>595</ele>
        <time>2019-08-08T08:29:55.000Z</time>
      </trkpt>
      <trkpt lat="42.87587" lon="0.61327">
        <ele>595</ele>
        <time>2019-08-08T08:29:56.000Z</time>
      </trkpt>
      <trkpt lat="42.87599" lon="0.61332">
        <ele>595</ele>
        <time>2019-08-08T08:29:57.000Z</time>
      </trkpt>
      <trkpt lat="42.87603" lon="0.61334">
        <ele>595</ele>
        <time>2019-08-08T08:29:58.000Z</time>
      </trkpt>
      <trkpt lat="42.87616" lon="0.61338">
        <ele>595</ele>
        <time>2019-08-08T08:29:59.000Z</time>
      </trkpt>
      <trkpt lat="42.8762" lon="0.6134">
        <ele>595</ele>
        <time>2019-08-08T08:30:00.000Z</time>
      </trkpt>
      <trkpt lat="42.87632" lon="0.61345">
        <ele>595</ele>
        <time>2019-08-08T08:30:01.000Z</time>
      </trkpt>
      <trkpt lat="42.87636" lon="0.61347">
        <ele>595</ele>
        <time>2019-08-08T08:30:02.000Z</time>
      </trkpt>
      <trkpt lat="42.87649" lon="0.61352">
        <ele>595</ele>
        <time>2019-08-08T08:30:03.000Z</time>
      </trkpt>
      <trkpt lat="42.87653" lon="0.61354">
        <ele>595</ele>
        <time>2019-08-08T08:30:04.000Z</time>
      </trkpt>
      <trkpt lat="42.87661" lon="0.61358">
        <ele>594</ele>
        <time>2019-08-08T08:30:05.000Z</time>
      </trkpt>
      <trkpt lat="42.87673" lon="0.61364">
        <ele>594</ele>
        <time>2019-08-08T08:30:06.000Z</time>
      </trkpt>
      <trkpt lat="42.87677" lon="0.61366">
        <ele>595</ele>
        <time>2019-08-08T08:30:07.000Z</time>
      </trkpt>
      <trkpt lat="42.87689" lon="0.61372">
        <ele>595</ele>
        <time>2019-08-08T08:30:08.000Z</time>
      </trkpt>
      <trkpt lat="42.87692" lon="0.61374">
        <ele>595</ele>
        <time>2019-08-08T08:30:09.000Z</time>
      </trkpt>
      <trkpt lat="42.87704" lon="0.61379">
        <ele>595</ele>
        <time>2019-08-08T08:30:10.000Z</time>
      </trkpt>
      <trkpt lat="42.87708" lon="0.61381">
        <ele>595</ele>
        <time>2019-08-08T08:30:11.000Z</time>
      </trkpt>
      <trkpt lat="42.87721" lon="0.61387">
        <ele>595</ele>
        <time>2019-08-08T08:30:12.000Z</time>
      </trkpt>
      <trkpt lat="42.87725" lon="0.6139">
        <ele>595</ele>
        <time>2019-08-08T08:30:13.000Z</time>
      </trkpt>
      <trkpt lat="42.87733" lon="0.61397">
        <ele>594</ele>
        <time>2019-08-08T08:30:14.000Z</time>
      </trkpt>
      <trkpt lat="42.87746" lon="0.61403">
        <ele>594</ele>
        <time>2019-08-08T08:30:15.000Z</time>
      </trkpt>
      <trkpt lat="42.8775" lon="0.61405">
        <ele>594</ele>
        <time>2019-08-08T08:30:16.000Z</time>
      </trkpt>
      <trkpt lat="42.87757" lon="0.61409">
        <ele>594</ele>
        <time>2019-08-08T08:30:17.000Z</time>
      </trkpt>
      <trkpt lat="42.87766" lon="0.61411">
        <ele>594</ele>
        <time>2019-08-08T08:30:18.000Z</time>
      </trkpt>
      <trkpt lat="42.87774" lon="0.61413">
        <ele>594</ele>
        <time>2019-08-08T08:30:19.000Z</time>
      </trkpt>
      <trkpt lat="42.87782" lon="0.61414">
        <ele>594</ele>
        <time>2019-08-08T08:30:20.000Z</time>
      </trkpt>
      <trkpt lat="42.87791" lon="0.61414">
        <ele>594</ele>
        <time>2019-08-08T08:30:21.000Z</time>
      </trkpt>
      <trkpt lat="42.87799" lon="0.61414">
        <ele>593</ele>
        <time>2019-08-08T08:30:22.000Z</time>
      </trkpt>
      <trkpt lat="42.87812" lon="0.61413">
        <ele>593</ele>
        <time>2019-08-08T08:30:23.000Z</time>
      </trkpt>
      <trkpt lat="42.87816" lon="0.61412">
        <ele>593</ele>
        <time>2019-08-08T08:30:24.000Z</time>
      </trkpt>
      <trkpt lat="42.87829" lon="0.61409">
        <ele>593</ele>
        <time>2019-08-08T08:30:25.000Z</time>
      </trkpt>
      <trkpt lat="42.87834" lon="0.61408">
        <ele>593</ele>
        <time>2019-08-08T08:30:26.000Z</time>
      </trkpt>
      <trkpt lat="42.87842" lon="0.61405">
        <ele>593</ele>
        <time>2019-08-08T08:30:27.000Z</time>
      </trkpt>
      <trkpt lat="42.87851" lon="0.61401">
        <ele>593</ele>
        <time>2019-08-08T08:30:28.000Z</time>
      </trkpt>
      <trkpt lat="42.8786" lon="0.61398">
        <ele>593</ele>
        <time>2019-08-08T08:30:29.000Z</time>
      </trkpt>
      <trkpt lat="42.87868" lon="0.61394">
        <ele>593</ele>
        <time>2019-08-08T08:30:30.000Z</time>
      </trkpt>
      <trkpt lat="42.87877" lon="0.6139">
        <ele>593</ele>
        <time>2019-08-08T08:30:31.000Z</time>
      </trkpt>
      <trkpt lat="42.87886" lon="0.61386">
        <ele>593</ele>
        <time>2019-08-08T08:30:32.000Z</time>
      </trkpt>
      <trkpt lat="42.87894" lon="0.61383">
        <ele>592</ele>
        <time>2019-08-08T08:30:33.000Z</time>
      </trkpt>
      <trkpt lat="42.87903" lon="0.61379">
        <ele>592</ele>
        <time>2019-08-08T08:30:34.000Z</time>
      </trkpt>
      <trkpt lat="42.87912" lon="0.61375">
        <ele>592</ele>
        <time>2019-08-08T08:30:35.000Z</time>
      </trkpt>
      <trkpt lat="42.87921" lon="0.61372">
        <ele>592</ele>
        <time>2019-08-08T08:30:36.000Z</time>
      </trkpt>
      <trkpt lat="42.8793" lon="0.6137">
        <ele>592</ele>
        <time>2019-08-08T08:30:37.000Z</time>
      </trkpt>
      <trkpt lat="42.87939" lon="0.61368">
        <ele>591</ele>
        <time>2019-08-08T08:30:38.000Z</time>
      </trkpt>
      <trkpt lat="42.87948" lon="0.61365">
        <ele>591</ele>
        <time>2019-08-08T08:30:39.000Z</time>
      </trkpt>
      <trkpt lat="42.87958" lon="0.61362">
        <ele>591</ele>
        <time>2019-08-08T08:30:40.000Z</time>
      </trkpt>
      <trkpt lat="42.87967" lon="0.61359">
        <ele>591</ele>
        <time>2019-08-08T08:30:41.000Z</time>
      </trkpt>
      <trkpt lat="42.87976" lon="0.61357">
        <ele>591</ele>
        <time>2019-08-08T08:30:42.000Z</time>
      </trkpt>
      <trkpt lat="42.87985" lon="0.61355">
        <ele>591</ele>
        <time>2019-08-08T08:30:43.000Z</time>
      </trkpt>
      <trkpt lat="42.87994" lon="0.61353">
        <ele>591</ele>
        <time>2019-08-08T08:30:44.000Z</time>
      </trkpt>
      <trkpt lat="42.88004" lon="0.61352">
        <ele>591</ele>
        <time>2019-08-08T08:30:45.000Z</time>
      </trkpt>
      <trkpt lat="42.88018" lon="0.61353">
        <ele>591</ele>
        <time>2019-08-08T08:30:46.000Z</time>
      </trkpt>
      <trkpt lat="42.88023" lon="0.61353">
        <ele>590.4</ele>
        <time>2019-08-08T08:30:47.000Z</time>
      </trkpt>
      <trkpt lat="42.88032" lon="0.61354">
        <ele>590</ele>
        <time>2019-08-08T08:30:48.000Z</time>
      </trkpt>
      <trkpt lat="42.88042" lon="0.61356">
        <ele>590</ele>
        <time>2019-08-08T08:30:49.000Z</time>
      </trkpt>
      <trkpt lat="42.88051" lon="0.61358">
        <ele>590</ele>
        <time>2019-08-08T08:30:50.000Z</time>
      </trkpt>
      <trkpt lat="42.88061" lon="0.61359">
        <ele>590</ele>
        <time>2019-08-08T08:30:51.000Z</time>
      </trkpt>
      <trkpt lat="42.88071" lon="0.61361">
        <ele>589</ele>
        <time>2019-08-08T08:30:52.000Z</time>
      </trkpt>
      <trkpt lat="42.88081" lon="0.61363">
        <ele>589</ele>
        <time>2019-08-08T08:30:53.000Z</time>
      </trkpt>
      <trkpt lat="42.88091" lon="0.61364">
        <ele>589</ele>
        <time>2019-08-08T08:30:54.000Z</time>
      </trkpt>
      <trkpt lat="42.88101" lon="0.61366">
        <ele>589</ele>
        <time>2019-08-08T08:30:55.000Z</time>
      </trkpt>
      <trkpt lat="42.88111" lon="0.61368">
        <ele>589</ele>
        <time>2019-08-08T08:30:56.000Z</time>
      </trkpt>
      <trkpt lat="42.88121" lon="0.61369">
        <ele>588</ele>
        <time>2019-08-08T08:30:57.000Z</time>
      </trkpt>
      <trkpt lat="42.8813" lon="0.61371">
        <ele>588</ele>
        <time>2019-08-08T08:30:58.000Z</time>
      </trkpt>
      <trkpt lat="42.8814" lon="0.61372">
        <ele>588</ele>
        <time>2019-08-08T08:30:59.000Z</time>
      </trkpt>
      <trkpt lat="42.88149" lon="0.61374">
        <ele>587</ele>
        <time>2019-08-08T08:31:00.000Z</time>
      </trkpt>
      <trkpt lat="42.8816" lon="0.61375">
        <ele>587</ele>
        <time>2019-08-08T08:31:01.000Z</time>
      </trkpt>
      <trkpt lat="42.8817" lon="0.61377">
        <ele>587</ele>
        <time>2019-08-08T08:31:02.000Z</time>
      </trkpt>
      <trkpt lat="42.8818" lon="0.61379">
        <ele>587</ele>
        <time>2019-08-08T08:31:03.000Z</time>
      </trkpt>
      <trkpt lat="42.88191" lon="0.61381">
        <ele>587</ele>
        <time>2019-08-08T08:31:04.000Z</time>
      </trkpt>
      <trkpt lat="42.88201" lon="0.61382">
        <ele>587</ele>
        <time>2019-08-08T08:31:05.000Z</time>
      </trkpt>
      <trkpt lat="42.88211" lon="0.61384">
        <ele>587</ele>
        <time>2019-08-08T08:31:06.000Z</time>
      </trkpt>
      <trkpt lat="42.88221" lon="0.61386">
        <ele>587</ele>
        <time>2019-08-08T08:31:07.000Z</time>
      </trkpt>
      <trkpt lat="42.88231" lon="0.61388">
        <ele>587</ele>
        <time>2019-08-08T08:31:08.000Z</time>
      </trkpt>
      <trkpt lat="42.88242" lon="0.6139">
        <ele>587</ele>
        <time>2019-08-08T08:31:09.000Z</time>
      </trkpt>
      <trkpt lat="42.88252" lon="0.61393">
        <ele>586</ele>
        <time>2019-08-08T08:31:10.000Z</time>
      </trkpt>
      <trkpt lat="42.88262" lon="0.61396">
        <ele>586</ele>
        <time>2019-08-08T08:31:11.000Z</time>
      </trkpt>
      <trkpt lat="42.88272" lon="0.614">
        <ele>586</ele>
        <time>2019-08-08T08:31:12.000Z</time>
      </trkpt>
      <trkpt lat="42.88281" lon="0.61404">
        <ele>586</ele>
        <time>2019-08-08T08:31:13.000Z</time>
      </trkpt>
      <trkpt lat="42.88289" lon="0.6141">
        <ele>586</ele>
        <time>2019-08-08T08:31:14.000Z</time>
      </trkpt>
      <trkpt lat="42.88297" lon="0.61417">
        <ele>586</ele>
        <time>2019-08-08T08:31:15.000Z</time>
      </trkpt>
      <trkpt lat="42.88305" lon="0.61426">
        <ele>586</ele>
        <time>2019-08-08T08:31:16.000Z</time>
      </trkpt>
      <trkpt lat="42.88312" lon="0.61434">
        <ele>586</ele>
        <time>2019-08-08T08:31:17.000Z</time>
      </trkpt>
      <trkpt lat="42.88319" lon="0.61443">
        <ele>585</ele>
        <time>2019-08-08T08:31:18.000Z</time>
      </trkpt>
      <trkpt lat="42.88325" lon="0.61454">
        <ele>585</ele>
        <time>2019-08-08T08:31:19.000Z</time>
      </trkpt>
      <trkpt lat="42.88331" lon="0.61466">
        <ele>584</ele>
        <time>2019-08-08T08:31:20.000Z</time>
      </trkpt>
      <trkpt lat="42.88336" lon="0.61478">
        <ele>584</ele>
        <time>2019-08-08T08:31:21.000Z</time>
      </trkpt>
      <trkpt lat="42.88342" lon="0.6149">
        <ele>584</ele>
        <time>2019-08-08T08:31:22.000Z</time>
      </trkpt>
      <trkpt lat="42.88347" lon="0.61502">
        <ele>584</ele>
        <time>2019-08-08T08:31:23.000Z</time>
      </trkpt>
      <trkpt lat="42.88352" lon="0.61514">
        <ele>585</ele>
        <time>2019-08-08T08:31:24.000Z</time>
      </trkpt>
      <trkpt lat="42.88357" lon="0.61525">
        <ele>585</ele>
        <time>2019-08-08T08:31:25.000Z</time>
      </trkpt>
      <trkpt lat="42.88363" lon="0.61536">
        <ele>585</ele>
        <time>2019-08-08T08:31:26.000Z</time>
      </trkpt>
      <trkpt lat="42.88368" lon="0.61547">
        <ele>585</ele>
        <time>2019-08-08T08:31:27.000Z</time>
      </trkpt>
      <trkpt lat="42.88373" lon="0.61558">
        <ele>585</ele>
        <time>2019-08-08T08:31:28.000Z</time>
      </trkpt>
      <trkpt lat="42.88379" lon="0.61568">
        <ele>583</ele>
        <time>2019-08-08T08:31:29.000Z</time>
      </trkpt>
      <trkpt lat="42.88384" lon="0.61578">
        <ele>583</ele>
        <time>2019-08-08T08:31:30.000Z</time>
      </trkpt>
      <trkpt lat="42.88391" lon="0.61589">
        <ele>582</ele>
        <time>2019-08-08T08:31:31.000Z</time>
      </trkpt>
      <trkpt lat="42.88397" lon="0.61599">
        <ele>582</ele>
        <time>2019-08-08T08:31:32.000Z</time>
      </trkpt>
      <trkpt lat="42.88404" lon="0.61609">
        <ele>582</ele>
        <time>2019-08-08T08:31:33.000Z</time>
      </trkpt>
      <trkpt lat="42.8841" lon="0.61619">
        <ele>582</ele>
        <time>2019-08-08T08:31:34.000Z</time>
      </trkpt>
      <trkpt lat="42.88418" lon="0.61629">
        <ele>582</ele>
        <time>2019-08-08T08:31:35.000Z</time>
      </trkpt>
      <trkpt lat="42.88425" lon="0.61637">
        <ele>582</ele>
        <time>2019-08-08T08:31:36.000Z</time>
      </trkpt>
      <trkpt lat="42.88434" lon="0.61645">
        <ele>581</ele>
        <time>2019-08-08T08:31:37.000Z</time>
      </trkpt>
      <trkpt lat="42.88442" lon="0.61652">
        <ele>581</ele>
        <time>2019-08-08T08:31:38.000Z</time>
      </trkpt>
      <trkpt lat="42.88451" lon="0.61658">
        <ele>580</ele>
        <time>2019-08-08T08:31:39.000Z</time>
      </trkpt>
      <trkpt lat="42.88461" lon="0.61663">
        <ele>580</ele>
        <time>2019-08-08T08:31:40.000Z</time>
      </trkpt>
      <trkpt lat="42.8847" lon="0.61668">
        <ele>580</ele>
        <time>2019-08-08T08:31:41.000Z</time>
      </trkpt>
      <trkpt lat="42.8848" lon="0.61674">
        <ele>580</ele>
        <time>2019-08-08T08:31:42.000Z</time>
      </trkpt>
      <trkpt lat="42.8849" lon="0.61679">
        <ele>578</ele>
        <time>2019-08-08T08:31:43.000Z</time>
      </trkpt>
      <trkpt lat="42.885" lon="0.61686">
        <ele>578</ele>
        <time>2019-08-08T08:31:44.000Z</time>
      </trkpt>
      <trkpt lat="42.88508" lon="0.61694">
        <ele>576</ele>
        <time>2019-08-08T08:31:45.000Z</time>
      </trkpt>
      <trkpt lat="42.88517" lon="0.61704">
        <ele>576</ele>
        <time>2019-08-08T08:31:46.000Z</time>
      </trkpt>
      <trkpt lat="42.88525" lon="0.61715">
        <ele>575</ele>
        <time>2019-08-08T08:31:47.000Z</time>
      </trkpt>
      <trkpt lat="42.88532" lon="0.61726">
        <ele>575</ele>
        <time>2019-08-08T08:31:48.000Z</time>
      </trkpt>
      <trkpt lat="42.88539" lon="0.61737">
        <ele>575</ele>
        <time>2019-08-08T08:31:49.000Z</time>
      </trkpt>
      <trkpt lat="42.88545" lon="0.61749">
        <ele>575</ele>
        <time>2019-08-08T08:31:50.000Z</time>
      </trkpt>
      <trkpt lat="42.88552" lon="0.6176">
        <ele>575</ele>
        <time>2019-08-08T08:31:51.000Z</time>
      </trkpt>
      <trkpt lat="42.88558" lon="0.61772">
        <ele>575</ele>
        <time>2019-08-08T08:31:52.000Z</time>
      </trkpt>
      <trkpt lat="42.88565" lon="0.61784">
        <ele>575</ele>
        <time>2019-08-08T08:31:53.000Z</time>
      </trkpt>
      <trkpt lat="42.88572" lon="0.61795">
        <ele>574</ele>
        <time>2019-08-08T08:31:54.000Z</time>
      </trkpt>
      <trkpt lat="42.88579" lon="0.61805">
        <ele>574</ele>
        <time>2019-08-08T08:31:55.000Z</time>
      </trkpt>
      <trkpt lat="42.88587" lon="0.61815">
        <ele>573</ele>
        <time>2019-08-08T08:31:56.000Z</time>
      </trkpt>
      <trkpt lat="42.88595" lon="0.61824">
        <ele>573</ele>
        <time>2019-08-08T08:31:57.000Z</time>
      </trkpt>
      <trkpt lat="42.88604" lon="0.61832">
        <ele>572</ele>
        <time>2019-08-08T08:31:58.000Z</time>
      </trkpt>
      <trkpt lat="42.88614" lon="0.61839">
        <ele>572</ele>
        <time>2019-08-08T08:31:59.000Z</time>
      </trkpt>
      <trkpt lat="42.88624" lon="0.61846">
        <ele>571</ele>
        <time>2019-08-08T08:32:00.000Z</time>
      </trkpt>
      <trkpt lat="42.88634" lon="0.61853">
        <ele>571</ele>
        <time>2019-08-08T08:32:01.000Z</time>
      </trkpt>
      <trkpt lat="42.88644" lon="0.6186">
        <ele>570</ele>
        <time>2019-08-08T08:32:02.000Z</time>
      </trkpt>
      <trkpt lat="42.88653" lon="0.61867">
        <ele>570</ele>
        <time>2019-08-08T08:32:03.000Z</time>
      </trkpt>
      <trkpt lat="42.88663" lon="0.61875">
        <ele>570</ele>
        <time>2019-08-08T08:32:04.000Z</time>
      </trkpt>
      <trkpt lat="42.88672" lon="0.61883">
        <ele>570</ele>
        <time>2019-08-08T08:32:05.000Z</time>
      </trkpt>
      <trkpt lat="42.88681" lon="0.61892">
        <ele>570</ele>
        <time>2019-08-08T08:32:06.000Z</time>
      </trkpt>
      <trkpt lat="42.8869" lon="0.61901">
        <ele>570</ele>
        <time>2019-08-08T08:32:07.000Z</time>
      </trkpt>
      <trkpt lat="42.88698" lon="0.6191">
        <ele>570</ele>
        <time>2019-08-08T08:32:08.000Z</time>
      </trkpt>
      <trkpt lat="42.88707" lon="0.61919">
        <ele>570</ele>
        <time>2019-08-08T08:32:09.000Z</time>
      </trkpt>
      <trkpt lat="42.88715" lon="0.61928">
        <ele>570</ele>
        <time>2019-08-08T08:32:10.000Z</time>
      </trkpt>
      <trkpt lat="42.88723" lon="0.61937">
        <ele>569</ele>
        <time>2019-08-08T08:32:11.000Z</time>
      </trkpt>
      <trkpt lat="42.88732" lon="0.61945">
        <ele>569</ele>
        <time>2019-08-08T08:32:12.000Z</time>
      </trkpt>
      <trkpt lat="42.8874" lon="0.61953">
        <ele>568</ele>
        <time>2019-08-08T08:32:13.000Z</time>
      </trkpt>
      <trkpt lat="42.88749" lon="0.61959">
        <ele>568</ele>
        <time>2019-08-08T08:32:14.000Z</time>
      </trkpt>
      <trkpt lat="42.88759" lon="0.61963">
        <ele>568</ele>
        <time>2019-08-08T08:32:15.000Z</time>
      </trkpt>
      <trkpt lat="42.88769" lon="0.61967">
        <ele>568</ele>
        <time>2019-08-08T08:32:16.000Z</time>
      </trkpt>
      <trkpt lat="42.88779" lon="0.6197">
        <ele>568</ele>
        <time>2019-08-08T08:32:17.000Z</time>
      </trkpt>
      <trkpt lat="42.8879" lon="0.61973">
        <ele>568</ele>
        <time>2019-08-08T08:32:18.000Z</time>
      </trkpt>
      <trkpt lat="42.888" lon="0.61975">
        <ele>567</ele>
        <time>2019-08-08T08:32:19.000Z</time>
      </trkpt>
      <trkpt lat="42.88811" lon="0.61978">
        <ele>567</ele>
        <time>2019-08-08T08:32:20.000Z</time>
      </trkpt>
      <trkpt lat="42.88821" lon="0.6198">
        <ele>565</ele>
        <time>2019-08-08T08:32:21.000Z</time>
      </trkpt>
      <trkpt lat="42.88831" lon="0.61982">
        <ele>565</ele>
        <time>2019-08-08T08:32:22.000Z</time>
      </trkpt>
      <trkpt lat="42.88842" lon="0.61984">
        <ele>564</ele>
        <time>2019-08-08T08:32:23.000Z</time>
      </trkpt>
      <trkpt lat="42.88857" lon="0.61987">
        <ele>564</ele>
        <time>2019-08-08T08:32:24.000Z</time>
      </trkpt>
      <trkpt lat="42.88862" lon="0.61988">
        <ele>564</ele>
        <time>2019-08-08T08:32:25.000Z</time>
      </trkpt>
      <trkpt lat="42.88873" lon="0.6199">
        <ele>564</ele>
        <time>2019-08-08T08:32:26.000Z</time>
      </trkpt>
      <trkpt lat="42.88883" lon="0.61991">
        <ele>563</ele>
        <time>2019-08-08T08:32:27.000Z</time>
      </trkpt>
      <trkpt lat="42.88893" lon="0.61993">
        <ele>563</ele>
        <time>2019-08-08T08:32:28.000Z</time>
      </trkpt>
      <trkpt lat="42.88903" lon="0.61995">
        <ele>563</ele>
        <time>2019-08-08T08:32:29.000Z</time>
      </trkpt>
      <trkpt lat="42.88913" lon="0.61996">
        <ele>563</ele>
        <time>2019-08-08T08:32:30.000Z</time>
      </trkpt>
      <trkpt lat="42.88924" lon="0.61997">
        <ele>563</ele>
        <time>2019-08-08T08:32:31.000Z</time>
      </trkpt>
      <trkpt lat="42.88934" lon="0.62">
        <ele>563</ele>
        <time>2019-08-08T08:32:32.000Z</time>
      </trkpt>
      <trkpt lat="42.88945" lon="0.62001">
        <ele>563</ele>
        <time>2019-08-08T08:32:33.000Z</time>
      </trkpt>
      <trkpt lat="42.88955" lon="0.62001">
        <ele>563</ele>
        <time>2019-08-08T08:32:34.000Z</time>
      </trkpt>
      <trkpt lat="42.88965" lon="0.62002">
        <ele>563</ele>
        <time>2019-08-08T08:32:35.000Z</time>
      </trkpt>
      <trkpt lat="42.88975" lon="0.62003">
        <ele>563</ele>
        <time>2019-08-08T08:32:36.000Z</time>
      </trkpt>
      <trkpt lat="42.88986" lon="0.62005">
        <ele>562</ele>
        <time>2019-08-08T08:32:37.000Z</time>
      </trkpt>
      <trkpt lat="42.88996" lon="0.62005">
        <ele>562</ele>
        <time>2019-08-08T08:32:38.000Z</time>
      </trkpt>
      <trkpt lat="42.89005" lon="0.62003">
        <ele>563</ele>
        <time>2019-08-08T08:32:39.000Z</time>
      </trkpt>
      <trkpt lat="42.8902" lon="0.61998">
        <ele>563</ele>
        <time>2019-08-08T08:32:40.000Z</time>
      </trkpt>
      <trkpt lat="42.89025" lon="0.61996">
        <ele>563</ele>
        <time>2019-08-08T08:32:41.000Z</time>
      </trkpt>
      <trkpt lat="42.89035" lon="0.61992">
        <ele>563</ele>
        <time>2019-08-08T08:32:42.000Z</time>
      </trkpt>
      <trkpt lat="42.89044" lon="0.61989">
        <ele>563</ele>
        <time>2019-08-08T08:32:43.000Z</time>
      </trkpt>
      <trkpt lat="42.89055" lon="0.61993">
        <ele>563</ele>
        <time>2019-08-08T08:32:44.000Z</time>
      </trkpt>
      <trkpt lat="42.89064" lon="0.61998">
        <ele>563</ele>
        <time>2019-08-08T08:32:45.000Z</time>
      </trkpt>
      <trkpt lat="42.89071" lon="0.62009">
        <ele>562</ele>
        <time>2019-08-08T08:32:46.000Z</time>
      </trkpt>
      <trkpt lat="42.89077" lon="0.6202">
        <ele>562</ele>
        <time>2019-08-08T08:32:47.000Z</time>
      </trkpt>
      <trkpt lat="42.89083" lon="0.62033">
        <ele>562</ele>
        <time>2019-08-08T08:32:48.000Z</time>
      </trkpt>
      <trkpt lat="42.89088" lon="0.62045">
        <ele>562</ele>
        <time>2019-08-08T08:32:49.000Z</time>
      </trkpt>
      <trkpt lat="42.89093" lon="0.62057">
        <ele>561</ele>
        <time>2019-08-08T08:32:50.000Z</time>
      </trkpt>
      <trkpt lat="42.89098" lon="0.62069">
        <ele>561</ele>
        <time>2019-08-08T08:32:51.000Z</time>
      </trkpt>
      <trkpt lat="42.89103" lon="0.62081">
        <ele>560</ele>
        <time>2019-08-08T08:32:52.000Z</time>
      </trkpt>
      <trkpt lat="42.89107" lon="0.62093">
        <ele>560</ele>
        <time>2019-08-08T08:32:53.000Z</time>
      </trkpt>
      <trkpt lat="42.89112" lon="0.62105">
        <ele>560</ele>
        <time>2019-08-08T08:32:54.000Z</time>
      </trkpt>
      <trkpt lat="42.89116" lon="0.62117">
        <ele>560</ele>
        <time>2019-08-08T08:32:55.000Z</time>
      </trkpt>
      <trkpt lat="42.89121" lon="0.62128">
        <ele>560</ele>
        <time>2019-08-08T08:32:56.000Z</time>
      </trkpt>
      <trkpt lat="42.89126" lon="0.62139">
        <ele>560</ele>
        <time>2019-08-08T08:32:57.000Z</time>
      </trkpt>
      <trkpt lat="42.89133" lon="0.62148">
        <ele>560</ele>
        <time>2019-08-08T08:32:58.000Z</time>
      </trkpt>
      <trkpt lat="42.89141" lon="0.62155">
        <ele>560</ele>
        <time>2019-08-08T08:32:59.000Z</time>
      </trkpt>
      <trkpt lat="42.8915" lon="0.62159">
        <ele>560</ele>
        <time>2019-08-08T08:33:00.000Z</time>
      </trkpt>
      <trkpt lat="42.89159" lon="0.62161">
        <ele>559</ele>
        <time>2019-08-08T08:33:01.000Z</time>
      </trkpt>
      <trkpt lat="42.89169" lon="0.62161">
        <ele>559</ele>
        <time>2019-08-08T08:33:02.000Z</time>
      </trkpt>
      <trkpt lat="42.89178" lon="0.62158">
        <ele>559</ele>
        <time>2019-08-08T08:33:03.000Z</time>
      </trkpt>
      <trkpt lat="42.89187" lon="0.62154">
        <ele>559</ele>
        <time>2019-08-08T08:33:04.000Z</time>
      </trkpt>
      <trkpt lat="42.89195" lon="0.62149">
        <ele>559</ele>
        <time>2019-08-08T08:33:05.000Z</time>
      </trkpt>
      <trkpt lat="42.89203" lon="0.62143">
        <ele>559</ele>
        <time>2019-08-08T08:33:06.000Z</time>
      </trkpt>
      <trkpt lat="42.89212" lon="0.62138">
        <ele>560</ele>
        <time>2019-08-08T08:33:07.000Z</time>
      </trkpt>
      <trkpt lat="42.8922" lon="0.62133">
        <ele>560</ele>
        <time>2019-08-08T08:33:08.000Z</time>
      </trkpt>
      <trkpt lat="42.89231" lon="0.62126">
        <ele>561</ele>
        <time>2019-08-08T08:33:09.000Z</time>
      </trkpt>
      <trkpt lat="42.89235" lon="0.62124">
        <ele>561</ele>
        <time>2019-08-08T08:33:10.000Z</time>
      </trkpt>
      <trkpt lat="42.89246" lon="0.62117">
        <ele>561</ele>
        <time>2019-08-08T08:33:11.000Z</time>
      </trkpt>
      <trkpt lat="42.8925" lon="0.62115">
        <ele>561</ele>
        <time>2019-08-08T08:33:12.000Z</time>
      </trkpt>
      <trkpt lat="42.8926" lon="0.62108">
        <ele>561</ele>
        <time>2019-08-08T08:33:13.000Z</time>
      </trkpt>
      <trkpt lat="42.89264" lon="0.62106">
        <ele>561</ele>
        <time>2019-08-08T08:33:14.000Z</time>
      </trkpt>
      <trkpt lat="42.89273" lon="0.62099">
        <ele>562</ele>
        <time>2019-08-08T08:33:15.000Z</time>
      </trkpt>
      <trkpt lat="42.89277" lon="0.62097">
        <ele>562</ele>
        <time>2019-08-08T08:33:16.000Z</time>
      </trkpt>
      <trkpt lat="42.89287" lon="0.62091">
        <ele>562</ele>
        <time>2019-08-08T08:33:17.000Z</time>
      </trkpt>
      <trkpt lat="42.8929" lon="0.62089">
        <ele>562</ele>
        <time>2019-08-08T08:33:18.000Z</time>
      </trkpt>
      <trkpt lat="42.89301" lon="0.62086">
        <ele>562</ele>
        <time>2019-08-08T08:33:19.000Z</time>
      </trkpt>
      <trkpt lat="42.89305" lon="0.62086">
        <ele>562</ele>
        <time>2019-08-08T08:33:20.000Z</time>
      </trkpt>
      <trkpt lat="42.89317" lon="0.62089">
        <ele>562</ele>
        <time>2019-08-08T08:33:21.000Z</time>
      </trkpt>
      <trkpt lat="42.89321" lon="0.62091">
        <ele>562</ele>
        <time>2019-08-08T08:33:22.000Z</time>
      </trkpt>
      <trkpt lat="42.89333" lon="0.62098">
        <ele>561</ele>
        <time>2019-08-08T08:33:23.000Z</time>
      </trkpt>
      <trkpt lat="42.89336" lon="0.621">
        <ele>561</ele>
        <time>2019-08-08T08:33:24.000Z</time>
      </trkpt>
      <trkpt lat="42.89347" lon="0.62108">
        <ele>561</ele>
        <time>2019-08-08T08:33:25.000Z</time>
      </trkpt>
      <trkpt lat="42.89351" lon="0.62111">
        <ele>561</ele>
        <time>2019-08-08T08:33:26.000Z</time>
      </trkpt>
      <trkpt lat="42.89362" lon="0.62119">
        <ele>561</ele>
        <time>2019-08-08T08:33:27.000Z</time>
      </trkpt>
      <trkpt lat="42.89366" lon="0.62122">
        <ele>561</ele>
        <time>2019-08-08T08:33:28.000Z</time>
      </trkpt>
      <trkpt lat="42.89377" lon="0.6213">
        <ele>561</ele>
        <time>2019-08-08T08:33:29.000Z</time>
      </trkpt>
      <trkpt lat="42.89381" lon="0.62133">
        <ele>561</ele>
        <time>2019-08-08T08:33:30.000Z</time>
      </trkpt>
      <trkpt lat="42.89392" lon="0.6214">
        <ele>561</ele>
        <time>2019-08-08T08:33:31.000Z</time>
      </trkpt>
      <trkpt lat="42.89396" lon="0.62143">
        <ele>561</ele>
        <time>2019-08-08T08:33:32.000Z</time>
      </trkpt>
      <trkpt lat="42.89404" lon="0.62148">
        <ele>561</ele>
        <time>2019-08-08T08:33:33.000Z</time>
      </trkpt>
      <trkpt lat="42.89412" lon="0.62153">
        <ele>561</ele>
        <time>2019-08-08T08:33:34.000Z</time>
      </trkpt>
      <trkpt lat="42.89419" lon="0.62157">
        <ele>561</ele>
        <time>2019-08-08T08:33:35.000Z</time>
      </trkpt>
      <trkpt lat="42.89427" lon="0.62163">
        <ele>561</ele>
        <time>2019-08-08T08:33:36.000Z</time>
      </trkpt>
      <trkpt lat="42.89435" lon="0.62168">
        <ele>561</ele>
        <time>2019-08-08T08:33:37.000Z</time>
      </trkpt>
      <trkpt lat="42.89446" lon="0.62176">
        <ele>562</ele>
        <time>2019-08-08T08:33:38.000Z</time>
      </trkpt>
      <trkpt lat="42.8945" lon="0.62179">
        <ele>561</ele>
        <time>2019-08-08T08:33:39.000Z</time>
      </trkpt>
      <trkpt lat="42.89461" lon="0.62188">
        <ele>561</ele>
        <time>2019-08-08T08:33:40.000Z</time>
      </trkpt>
      <trkpt lat="42.89465" lon="0.62191">
        <ele>561</ele>
        <time>2019-08-08T08:33:41.000Z</time>
      </trkpt>
      <trkpt lat="42.89476" lon="0.622">
        <ele>561</ele>
        <time>2019-08-08T08:33:42.000Z</time>
      </trkpt>
      <trkpt lat="42.89479" lon="0.62203">
        <ele>561</ele>
        <time>2019-08-08T08:33:43.000Z</time>
      </trkpt>
      <trkpt lat="42.89486" lon="0.62209">
        <ele>561</ele>
        <time>2019-08-08T08:33:44.000Z</time>
      </trkpt>
      <trkpt lat="42.89494" lon="0.62216">
        <ele>561</ele>
        <time>2019-08-08T08:33:45.000Z</time>
      </trkpt>
      <trkpt lat="42.89501" lon="0.62223">
        <ele>561</ele>
        <time>2019-08-08T08:33:46.000Z</time>
      </trkpt>
      <trkpt lat="42.89508" lon="0.62232">
        <ele>561</ele>
        <time>2019-08-08T08:33:47.000Z</time>
      </trkpt>
      <trkpt lat="42.89514" lon="0.62241">
        <ele>561</ele>
        <time>2019-08-08T08:33:48.000Z</time>
      </trkpt>
      <trkpt lat="42.8952" lon="0.6225">
        <ele>561</ele>
        <time>2019-08-08T08:33:49.000Z</time>
      </trkpt>
      <trkpt lat="42.89526" lon="0.62259">
        <ele>560</ele>
        <time>2019-08-08T08:33:50.000Z</time>
      </trkpt>
      <trkpt lat="42.89531" lon="0.62268">
        <ele>560</ele>
        <time>2019-08-08T08:33:51.000Z</time>
      </trkpt>
      <trkpt lat="42.89537" lon="0.62278">
        <ele>559</ele>
        <time>2019-08-08T08:33:52.000Z</time>
      </trkpt>
      <trkpt lat="42.89543" lon="0.62287">
        <ele>559</ele>
        <time>2019-08-08T08:33:53.000Z</time>
      </trkpt>
      <trkpt lat="42.8955" lon="0.62296">
        <ele>560</ele>
        <time>2019-08-08T08:33:54.000Z</time>
      </trkpt>
      <trkpt lat="42.89558" lon="0.62304">
        <ele>560</ele>
        <time>2019-08-08T08:33:55.000Z</time>
      </trkpt>
      <trkpt lat="42.89566" lon="0.62312">
        <ele>560</ele>
        <time>2019-08-08T08:33:56.000Z</time>
      </trkpt>
      <trkpt lat="42.89574" lon="0.6232">
        <ele>560</ele>
        <time>2019-08-08T08:33:57.000Z</time>
      </trkpt>
      <trkpt lat="42.89582" lon="0.62327">
        <ele>560</ele>
        <time>2019-08-08T08:33:58.000Z</time>
      </trkpt>
      <trkpt lat="42.89591" lon="0.62335">
        <ele>559</ele>
        <time>2019-08-08T08:33:59.000Z</time>
      </trkpt>
      <trkpt lat="42.89599" lon="0.62342">
        <ele>559</ele>
        <time>2019-08-08T08:34:00.000Z</time>
      </trkpt>
      <trkpt lat="42.89607" lon="0.6235">
        <ele>557</ele>
        <time>2019-08-08T08:34:01.000Z</time>
      </trkpt>
      <trkpt lat="42.89615" lon="0.62356">
        <ele>557</ele>
        <time>2019-08-08T08:34:02.000Z</time>
      </trkpt>
      <trkpt lat="42.89623" lon="0.62363">
        <ele>556</ele>
        <time>2019-08-08T08:34:03.000Z</time>
      </trkpt>
      <trkpt lat="42.89631" lon="0.6237">
        <ele>556</ele>
        <time>2019-08-08T08:34:04.000Z</time>
      </trkpt>
      <trkpt lat="42.8964" lon="0.62377">
        <ele>556</ele>
        <time>2019-08-08T08:34:05.000Z</time>
      </trkpt>
      <trkpt lat="42.89648" lon="0.62384">
        <ele>556</ele>
        <time>2019-08-08T08:34:06.000Z</time>
      </trkpt>
      <trkpt lat="42.89656" lon="0.62391">
        <ele>555</ele>
        <time>2019-08-08T08:34:07.000Z</time>
      </trkpt>
      <trkpt lat="42.89663" lon="0.62398">
        <ele>555</ele>
        <time>2019-08-08T08:34:08.000Z</time>
      </trkpt>
      <trkpt lat="42.89671" lon="0.62405">
        <ele>555</ele>
        <time>2019-08-08T08:34:09.000Z</time>
      </trkpt>
      <trkpt lat="42.89678" lon="0.62412">
        <ele>555</ele>
        <time>2019-08-08T08:34:10.000Z</time>
      </trkpt>
      <trkpt lat="42.89686" lon="0.62418">
        <ele>555</ele>
        <time>2019-08-08T08:34:11.000Z</time>
      </trkpt>
      <trkpt lat="42.89694" lon="0.62425">
        <ele>555</ele>
        <time>2019-08-08T08:34:12.000Z</time>
      </trkpt>
      <trkpt lat="42.89702" lon="0.62432">
        <ele>554</ele>
        <time>2019-08-08T08:34:13.000Z</time>
      </trkpt>
      <trkpt lat="42.8971" lon="0.62439">
        <ele>554</ele>
        <time>2019-08-08T08:34:14.000Z</time>
      </trkpt>
      <trkpt lat="42.89717" lon="0.62446">
        <ele>554</ele>
        <time>2019-08-08T08:34:15.000Z</time>
      </trkpt>
      <trkpt lat="42.89725" lon="0.62453">
        <ele>554</ele>
        <time>2019-08-08T08:34:16.000Z</time>
      </trkpt>
      <trkpt lat="42.89732" lon="0.6246">
        <ele>554</ele>
        <time>2019-08-08T08:34:17.000Z</time>
      </trkpt>
      <trkpt lat="42.8974" lon="0.62467">
        <ele>554</ele>
        <time>2019-08-08T08:34:18.000Z</time>
      </trkpt>
      <trkpt lat="42.89747" lon="0.62475">
        <ele>554</ele>
        <time>2019-08-08T08:34:19.000Z</time>
      </trkpt>
      <trkpt lat="42.89754" lon="0.62482">
        <ele>553</ele>
        <time>2019-08-08T08:34:20.000Z</time>
      </trkpt>
      <trkpt lat="42.89761" lon="0.62489">
        <ele>553</ele>
        <time>2019-08-08T08:34:21.000Z</time>
      </trkpt>
      <trkpt lat="42.89769" lon="0.62498">
        <ele>551</ele>
        <time>2019-08-08T08:34:22.000Z</time>
      </trkpt>
      <trkpt lat="42.89776" lon="0.62508">
        <ele>551</ele>
        <time>2019-08-08T08:34:23.000Z</time>
      </trkpt>
      <trkpt lat="42.89782" lon="0.62518">
        <ele>550</ele>
        <time>2019-08-08T08:34:24.000Z</time>
      </trkpt>
      <trkpt lat="42.89786" lon="0.6253">
        <ele>550</ele>
        <time>2019-08-08T08:34:25.000Z</time>
      </trkpt>
      <trkpt lat="42.89789" lon="0.62543">
        <ele>550</ele>
        <time>2019-08-08T08:34:26.000Z</time>
      </trkpt>
      <trkpt lat="42.8979" lon="0.62556">
        <ele>550</ele>
        <time>2019-08-08T08:34:27.000Z</time>
      </trkpt>
      <trkpt lat="42.89792" lon="0.62569">
        <ele>550</ele>
        <time>2019-08-08T08:34:28.000Z</time>
      </trkpt>
      <trkpt lat="42.89796" lon="0.62581">
        <ele>550</ele>
        <time>2019-08-08T08:34:29.000Z</time>
      </trkpt>
      <trkpt lat="42.89802" lon="0.62591">
        <ele>550</ele>
        <time>2019-08-08T08:34:30.000Z</time>
      </trkpt>
      <trkpt lat="42.89809" lon="0.62601">
        <ele>550</ele>
        <time>2019-08-08T08:34:31.000Z</time>
      </trkpt>
      <trkpt lat="42.89816" lon="0.62611">
        <ele>549</ele>
        <time>2019-08-08T08:34:32.000Z</time>
      </trkpt>
      <trkpt lat="42.89823" lon="0.62622">
        <ele>549</ele>
        <time>2019-08-08T08:34:33.000Z</time>
      </trkpt>
      <trkpt lat="42.89829" lon="0.62633">
        <ele>549</ele>
        <time>2019-08-08T08:34:34.000Z</time>
      </trkpt>
      <trkpt lat="42.89836" lon="0.62644">
        <ele>549</ele>
        <time>2019-08-08T08:34:35.000Z</time>
      </trkpt>
      <trkpt lat="42.89841" lon="0.62655">
        <ele>548</ele>
        <time>2019-08-08T08:34:36.000Z</time>
      </trkpt>
      <trkpt lat="42.89847" lon="0.62668">
        <ele>548</ele>
        <time>2019-08-08T08:34:37.000Z</time>
      </trkpt>
      <trkpt lat="42.89852" lon="0.6268">
        <ele>547</ele>
        <time>2019-08-08T08:34:38.000Z</time>
      </trkpt>
      <trkpt lat="42.89857" lon="0.62693">
        <ele>547</ele>
        <time>2019-08-08T08:34:39.000Z</time>
      </trkpt>
      <trkpt lat="42.89861" lon="0.62706">
        <ele>545</ele>
        <time>2019-08-08T08:34:40.000Z</time>
      </trkpt>
      <trkpt lat="42.89866" lon="0.6272">
        <ele>545</ele>
        <time>2019-08-08T08:34:41.000Z</time>
      </trkpt>
      <trkpt lat="42.8987" lon="0.62733">
        <ele>544</ele>
        <time>2019-08-08T08:34:42.000Z</time>
      </trkpt>
      <trkpt lat="42.89874" lon="0.62747">
        <ele>544</ele>
        <time>2019-08-08T08:34:43.000Z</time>
      </trkpt>
      <trkpt lat="42.89878" lon="0.62761">
        <ele>544</ele>
        <time>2019-08-08T08:34:44.000Z</time>
      </trkpt>
      <trkpt lat="42.89882" lon="0.62775">
        <ele>544</ele>
        <time>2019-08-08T08:34:45.000Z</time>
      </trkpt>
      <trkpt lat="42.89886" lon="0.62789">
        <ele>543</ele>
        <time>2019-08-08T08:34:46.000Z</time>
      </trkpt>
      <trkpt lat="42.8989" lon="0.62804">
        <ele>543</ele>
        <time>2019-08-08T08:34:47.000Z</time>
      </trkpt>
      <trkpt lat="42.89894" lon="0.62818">
        <ele>541</ele>
        <time>2019-08-08T08:34:48.000Z</time>
      </trkpt>
      <trkpt lat="42.89898" lon="0.62833">
        <ele>541</ele>
        <time>2019-08-08T08:34:49.000Z</time>
      </trkpt>
      <trkpt lat="42.89902" lon="0.62848">
        <ele>540</ele>
        <time>2019-08-08T08:34:50.000Z</time>
      </trkpt>
      <trkpt lat="42.89906" lon="0.62863">
        <ele>540</ele>
        <time>2019-08-08T08:34:51.000Z</time>
      </trkpt>
      <trkpt lat="42.89909" lon="0.62878">
        <ele>540</ele>
        <time>2019-08-08T08:34:52.000Z</time>
      </trkpt>
      <trkpt lat="42.89913" lon="0.62893">
        <ele>540</ele>
        <time>2019-08-08T08:34:53.000Z</time>
      </trkpt>
      <trkpt lat="42.89917" lon="0.62908">
        <ele>539</ele>
        <time>2019-08-08T08:34:54.000Z</time>
      </trkpt>
      <trkpt lat="42.89921" lon="0.62922">
        <ele>539</ele>
        <time>2019-08-08T08:34:55.000Z</time>
      </trkpt>
      <trkpt lat="42.89925" lon="0.62936">
        <ele>539</ele>
        <time>2019-08-08T08:34:56.000Z</time>
      </trkpt>
      <trkpt lat="42.89929" lon="0.6295">
        <ele>538</ele>
        <time>2019-08-08T08:34:57.000Z</time>
      </trkpt>
      <trkpt lat="42.89934" lon="0.62963">
        <ele>537</ele>
        <time>2019-08-08T08:34:58.000Z</time>
      </trkpt>
      <trkpt lat="42.89938" lon="0.62976">
        <ele>537</ele>
        <time>2019-08-08T08:34:59.000Z</time>
      </trkpt>
      <trkpt lat="42.89942" lon="0.6299">
        <ele>537</ele>
        <time>2019-08-08T08:35:00.000Z</time>
      </trkpt>
      <trkpt lat="42.89945" lon="0.63003">
        <ele>537</ele>
        <time>2019-08-08T08:35:01.000Z</time>
      </trkpt>
      <trkpt lat="42.89944" lon="0.63017">
        <ele>537</ele>
        <time>2019-08-08T08:35:02.000Z</time>
      </trkpt>
      <trkpt lat="42.89942" lon="0.6303">
        <ele>537</ele>
        <time>2019-08-08T08:35:03.000Z</time>
      </trkpt>
      <trkpt lat="42.89937" lon="0.63041">
        <ele>537</ele>
        <time>2019-08-08T08:35:04.000Z</time>
      </trkpt>
      <trkpt lat="42.89931" lon="0.63051">
        <ele>537</ele>
        <time>2019-08-08T08:35:05.000Z</time>
      </trkpt>
      <trkpt lat="42.89925" lon="0.63061">
        <ele>537</ele>
        <time>2019-08-08T08:35:06.000Z</time>
      </trkpt>
      <trkpt lat="42.89921" lon="0.63072">
        <ele>538</ele>
        <time>2019-08-08T08:35:07.000Z</time>
      </trkpt>
      <trkpt lat="42.89919" lon="0.63084">
        <ele>538</ele>
        <time>2019-08-08T08:35:08.000Z</time>
      </trkpt>
      <trkpt lat="42.89918" lon="0.63095">
        <ele>538</ele>
        <time>2019-08-08T08:35:09.000Z</time>
      </trkpt>
      <trkpt lat="42.89919" lon="0.63112">
        <ele>538</ele>
        <time>2019-08-08T08:35:10.000Z</time>
      </trkpt>
      <trkpt lat="42.89919" lon="0.63118">
        <ele>538.4</ele>
        <time>2019-08-08T08:35:11.000Z</time>
      </trkpt>
      <trkpt lat="42.89919" lon="0.63129">
        <ele>539</ele>
        <time>2019-08-08T08:35:12.000Z</time>
      </trkpt>
      <trkpt lat="42.89919" lon="0.6314">
        <ele>541</ele>
        <time>2019-08-08T08:35:13.000Z</time>
      </trkpt>
      <trkpt lat="42.89919" lon="0.6315">
        <ele>541</ele>
        <time>2019-08-08T08:35:14.000Z</time>
      </trkpt>
      <trkpt lat="42.89919" lon="0.63161">
        <ele>541</ele>
        <time>2019-08-08T08:35:15.000Z</time>
      </trkpt>
      <trkpt lat="42.8992" lon="0.63171">
        <ele>541</ele>
        <time>2019-08-08T08:35:16.000Z</time>
      </trkpt>
      <trkpt lat="42.8992" lon="0.63181">
        <ele>542</ele>
        <time>2019-08-08T08:35:17.000Z</time>
      </trkpt>
      <trkpt lat="42.8992" lon="0.6319">
        <ele>542</ele>
        <time>2019-08-08T08:35:18.000Z</time>
      </trkpt>
      <trkpt lat="42.8992" lon="0.63199">
        <ele>542</ele>
        <time>2019-08-08T08:35:19.000Z</time>
      </trkpt>
      <trkpt lat="42.89921" lon="0.63208">
        <ele>542</ele>
        <time>2019-08-08T08:35:20.000Z</time>
      </trkpt>
      <trkpt lat="42.89922" lon="0.63217">
        <ele>542</ele>
        <time>2019-08-08T08:35:21.000Z</time>
      </trkpt>
      <trkpt lat="42.89923" lon="0.63225">
        <ele>542</ele>
        <time>2019-08-08T08:35:22.000Z</time>
      </trkpt>
      <trkpt lat="42.89924" lon="0.63233">
        <ele>543</ele>
        <time>2019-08-08T08:35:23.000Z</time>
      </trkpt>
      <trkpt lat="42.89927" lon="0.63245">
        <ele>543</ele>
        <time>2019-08-08T08:35:24.000Z</time>
      </trkpt>
      <trkpt lat="42.89928" lon="0.63249">
        <ele>543</ele>
        <time>2019-08-08T08:35:25.000Z</time>
      </trkpt>
      <trkpt lat="42.8993" lon="0.63257">
        <ele>543</ele>
        <time>2019-08-08T08:35:26.000Z</time>
      </trkpt>
      <trkpt lat="42.89933" lon="0.63265">
        <ele>543</ele>
        <time>2019-08-08T08:35:27.000Z</time>
      </trkpt>
      <trkpt lat="42.89935" lon="0.63272">
        <ele>543</ele>
        <time>2019-08-08T08:35:28.000Z</time>
      </trkpt>
      <trkpt lat="42.89939" lon="0.63279">
        <ele>544</ele>
        <time>2019-08-08T08:35:29.000Z</time>
      </trkpt>
      <trkpt lat="42.89942" lon="0.63286">
        <ele>544</ele>
        <time>2019-08-08T08:35:30.000Z</time>
      </trkpt>
      <trkpt lat="42.89946" lon="0.63292">
        <ele>544</ele>
        <time>2019-08-08T08:35:31.000Z</time>
      </trkpt>
      <trkpt lat="42.89951" lon="0.63298">
        <ele>544</ele>
        <time>2019-08-08T08:35:32.000Z</time>
      </trkpt>
      <trkpt lat="42.89957" lon="0.63302">
        <ele>544</ele>
        <time>2019-08-08T08:35:33.000Z</time>
      </trkpt>
      <trkpt lat="42.89962" lon="0.63307">
        <ele>544</ele>
        <time>2019-08-08T08:35:34.000Z</time>
      </trkpt>
      <trkpt lat="42.89968" lon="0.6331">
        <ele>545</ele>
        <time>2019-08-08T08:35:35.000Z</time>
      </trkpt>
      <trkpt lat="42.89975" lon="0.63314">
        <ele>545</ele>
        <time>2019-08-08T08:35:36.000Z</time>
      </trkpt>
      <trkpt lat="42.89981" lon="0.63317">
        <ele>544</ele>
        <time>2019-08-08T08:35:37.000Z</time>
      </trkpt>
      <trkpt lat="42.8999" lon="0.6332">
        <ele>544</ele>
        <time>2019-08-08T08:35:38.000Z</time>
      </trkpt>
      <trkpt lat="42.89994" lon="0.63321">
        <ele>544</ele>
        <time>2019-08-08T08:35:39.000Z</time>
      </trkpt>
      <trkpt lat="42.90004" lon="0.63323">
        <ele>543</ele>
        <time>2019-08-08T08:35:40.000Z</time>
      </trkpt>
      <trkpt lat="42.90008" lon="0.63324">
        <ele>543</ele>
        <time>2019-08-08T08:35:41.000Z</time>
      </trkpt>
      <trkpt lat="42.9002" lon="0.63327">
        <ele>543</ele>
        <time>2019-08-08T08:35:42.000Z</time>
      </trkpt>
      <trkpt lat="42.90024" lon="0.63328">
        <ele>543</ele>
        <time>2019-08-08T08:35:43.000Z</time>
      </trkpt>
      <trkpt lat="42.90036" lon="0.63332">
        <ele>542</ele>
        <time>2019-08-08T08:35:44.000Z</time>
      </trkpt>
      <trkpt lat="42.9004" lon="0.63333">
        <ele>541</ele>
        <time>2019-08-08T08:35:45.000Z</time>
      </trkpt>
      <trkpt lat="42.90053" lon="0.63338">
        <ele>541</ele>
        <time>2019-08-08T08:35:46.000Z</time>
      </trkpt>
      <trkpt lat="42.90058" lon="0.63339">
        <ele>540</ele>
        <time>2019-08-08T08:35:47.000Z</time>
      </trkpt>
      <trkpt lat="42.90066" lon="0.63342">
        <ele>540</ele>
        <time>2019-08-08T08:35:48.000Z</time>
      </trkpt>
      <trkpt lat="42.90076" lon="0.63345">
        <ele>539</ele>
        <time>2019-08-08T08:35:49.000Z</time>
      </trkpt>
      <trkpt lat="42.90085" lon="0.63349">
        <ele>539</ele>
        <time>2019-08-08T08:35:50.000Z</time>
      </trkpt>
      <trkpt lat="42.90094" lon="0.63352">
        <ele>538</ele>
        <time>2019-08-08T08:35:51.000Z</time>
      </trkpt>
      <trkpt lat="42.90103" lon="0.63356">
        <ele>538</ele>
        <time>2019-08-08T08:35:52.000Z</time>
      </trkpt>
      <trkpt lat="42.90112" lon="0.6336">
        <ele>538</ele>
        <time>2019-08-08T08:35:53.000Z</time>
      </trkpt>
      <trkpt lat="42.90121" lon="0.63364">
        <ele>537</ele>
        <time>2019-08-08T08:35:54.000Z</time>
      </trkpt>
      <trkpt lat="42.9013" lon="0.63369">
        <ele>537</ele>
        <time>2019-08-08T08:35:55.000Z</time>
      </trkpt>
      <trkpt lat="42.90138" lon="0.63375">
        <ele>536</ele>
        <time>2019-08-08T08:35:56.000Z</time>
      </trkpt>
      <trkpt lat="42.90147" lon="0.6338">
        <ele>536</ele>
        <time>2019-08-08T08:35:57.000Z</time>
      </trkpt>
      <trkpt lat="42.90156" lon="0.63385">
        <ele>536</ele>
        <time>2019-08-08T08:35:58.000Z</time>
      </trkpt>
      <trkpt lat="42.90164" lon="0.6339">
        <ele>536</ele>
        <time>2019-08-08T08:35:59.000Z</time>
      </trkpt>
      <trkpt lat="42.90173" lon="0.63394">
        <ele>535</ele>
        <time>2019-08-08T08:36:00.000Z</time>
      </trkpt>
      <trkpt lat="42.90182" lon="0.63396">
        <ele>535</ele>
        <time>2019-08-08T08:36:01.000Z</time>
      </trkpt>
      <trkpt lat="42.90192" lon="0.63398">
        <ele>534</ele>
        <time>2019-08-08T08:36:02.000Z</time>
      </trkpt>
      <trkpt lat="42.90201" lon="0.63398">
        <ele>534</ele>
        <time>2019-08-08T08:36:03.000Z</time>
      </trkpt>
      <trkpt lat="42.90211" lon="0.63396">
        <ele>533</ele>
        <time>2019-08-08T08:36:04.000Z</time>
      </trkpt>
      <trkpt lat="42.9022" lon="0.63392">
        <ele>533</ele>
        <time>2019-08-08T08:36:05.000Z</time>
      </trkpt>
      <trkpt lat="42.90228" lon="0.63387">
        <ele>533</ele>
        <time>2019-08-08T08:36:06.000Z</time>
      </trkpt>
      <trkpt lat="42.90236" lon="0.6338">
        <ele>533</ele>
        <time>2019-08-08T08:36:07.000Z</time>
      </trkpt>
      <trkpt lat="42.90244" lon="0.63372">
        <ele>531</ele>
        <time>2019-08-08T08:36:08.000Z</time>
      </trkpt>
      <trkpt lat="42.90251" lon="0.63362">
        <ele>531</ele>
        <time>2019-08-08T08:36:09.000Z</time>
      </trkpt>
      <trkpt lat="42.90258" lon="0.63353">
        <ele>530</ele>
        <time>2019-08-08T08:36:10.000Z</time>
      </trkpt>
      <trkpt lat="42.90266" lon="0.63344">
        <ele>530</ele>
        <time>2019-08-08T08:36:11.000Z</time>
      </trkpt>
      <trkpt lat="42.90273" lon="0.63336">
        <ele>529</ele>
        <time>2019-08-08T08:36:12.000Z</time>
      </trkpt>
      <trkpt lat="42.9028" lon="0.63327">
        <ele>529</ele>
        <time>2019-08-08T08:36:13.000Z</time>
      </trkpt>
      <trkpt lat="42.90288" lon="0.63319">
        <ele>528</ele>
        <time>2019-08-08T08:36:14.000Z</time>
      </trkpt>
      <trkpt lat="42.90296" lon="0.63311">
        <ele>528</ele>
        <time>2019-08-08T08:36:15.000Z</time>
      </trkpt>
      <trkpt lat="42.90304" lon="0.63305">
        <ele>528</ele>
        <time>2019-08-08T08:36:16.000Z</time>
      </trkpt>
      <trkpt lat="42.90313" lon="0.63295">
        <ele>528</ele>
        <time>2019-08-08T08:36:17.000Z</time>
      </trkpt>
      <trkpt lat="42.90322" lon="0.6329">
        <ele>527</ele>
        <time>2019-08-08T08:36:18.000Z</time>
      </trkpt>
      <trkpt lat="42.90332" lon="0.63286">
        <ele>527</ele>
        <time>2019-08-08T08:36:19.000Z</time>
      </trkpt>
      <trkpt lat="42.90343" lon="0.63284">
        <ele>526</ele>
        <time>2019-08-08T08:36:20.000Z</time>
      </trkpt>
      <trkpt lat="42.90354" lon="0.63282">
        <ele>526</ele>
        <time>2019-08-08T08:36:21.000Z</time>
      </trkpt>
      <trkpt lat="42.90365" lon="0.63282">
        <ele>526</ele>
        <time>2019-08-08T08:36:22.000Z</time>
      </trkpt>
      <trkpt lat="42.90376" lon="0.63283">
        <ele>526</ele>
        <time>2019-08-08T08:36:23.000Z</time>
      </trkpt>
      <trkpt lat="42.90386" lon="0.63285">
        <ele>524</ele>
        <time>2019-08-08T08:36:24.000Z</time>
      </trkpt>
      <trkpt lat="42.90397" lon="0.63289">
        <ele>524</ele>
        <time>2019-08-08T08:36:25.000Z</time>
      </trkpt>
      <trkpt lat="42.90407" lon="0.63294">
        <ele>524</ele>
        <time>2019-08-08T08:36:26.000Z</time>
      </trkpt>
      <trkpt lat="42.90416" lon="0.633">
        <ele>523</ele>
        <time>2019-08-08T08:36:27.000Z</time>
      </trkpt>
      <trkpt lat="42.90424" lon="0.63307">
        <ele>523</ele>
        <time>2019-08-08T08:36:28.000Z</time>
      </trkpt>
      <trkpt lat="42.90433" lon="0.63316">
        <ele>523</ele>
        <time>2019-08-08T08:36:29.000Z</time>
      </trkpt>
      <trkpt lat="42.90441" lon="0.63326">
        <ele>523</ele>
        <time>2019-08-08T08:36:30.000Z</time>
      </trkpt>
      <trkpt lat="42.90448" lon="0.63337">
        <ele>523</ele>
        <time>2019-08-08T08:36:31.000Z</time>
      </trkpt>
      <trkpt lat="42.90456" lon="0.6335">
        <ele>523</ele>
        <time>2019-08-08T08:36:32.000Z</time>
      </trkpt>
      <trkpt lat="42.90462" lon="0.63363">
        <ele>521</ele>
        <time>2019-08-08T08:36:33.000Z</time>
      </trkpt>
      <trkpt lat="42.90469" lon="0.63375">
        <ele>521</ele>
        <time>2019-08-08T08:36:34.000Z</time>
      </trkpt>
      <trkpt lat="42.90475" lon="0.63387">
        <ele>520</ele>
        <time>2019-08-08T08:36:35.000Z</time>
      </trkpt>
      <trkpt lat="42.9048" lon="0.63399">
        <ele>520</ele>
        <time>2019-08-08T08:36:36.000Z</time>
      </trkpt>
      <trkpt lat="42.90486" lon="0.63412">
        <ele>520</ele>
        <time>2019-08-08T08:36:37.000Z</time>
      </trkpt>
      <trkpt lat="42.90491" lon="0.63424">
        <ele>520</ele>
        <time>2019-08-08T08:36:38.000Z</time>
      </trkpt>
      <trkpt lat="42.90497" lon="0.63435">
        <ele>520</ele>
        <time>2019-08-08T08:36:39.000Z</time>
      </trkpt>
      <trkpt lat="42.90504" lon="0.6345">
        <ele>520</ele>
        <time>2019-08-08T08:36:40.000Z</time>
      </trkpt>
      <trkpt lat="42.90507" lon="0.63454">
        <ele>519</ele>
        <time>2019-08-08T08:36:41.000Z</time>
      </trkpt>
      <trkpt lat="42.90513" lon="0.63463">
        <ele>519</ele>
        <time>2019-08-08T08:36:42.000Z</time>
      </trkpt>
      <trkpt lat="42.90521" lon="0.63473">
        <ele>518</ele>
        <time>2019-08-08T08:36:43.000Z</time>
      </trkpt>
      <trkpt lat="42.90529" lon="0.63484">
        <ele>518</ele>
        <time>2019-08-08T08:36:44.000Z</time>
      </trkpt>
      <trkpt lat="42.90538" lon="0.63493">
        <ele>517</ele>
        <time>2019-08-08T08:36:45.000Z</time>
      </trkpt>
      <trkpt lat="42.90547" lon="0.63502">
        <ele>517</ele>
        <time>2019-08-08T08:36:46.000Z</time>
      </trkpt>
      <trkpt lat="42.90556" lon="0.63511">
        <ele>517</ele>
        <time>2019-08-08T08:36:47.000Z</time>
      </trkpt>
      <trkpt lat="42.90571" lon="0.63523">
        <ele>517</ele>
        <time>2019-08-08T08:36:48.000Z</time>
      </trkpt>
      <trkpt lat="42.90575" lon="0.63527">
        <ele>517</ele>
        <time>2019-08-08T08:36:49.000Z</time>
      </trkpt>
      <trkpt lat="42.90585" lon="0.63535">
        <ele>515</ele>
        <time>2019-08-08T08:36:50.000Z</time>
      </trkpt>
      <trkpt lat="42.90595" lon="0.63543">
        <ele>515</ele>
        <time>2019-08-08T08:36:51.000Z</time>
      </trkpt>
      <trkpt lat="42.90605" lon="0.63551">
        <ele>515</ele>
        <time>2019-08-08T08:36:52.000Z</time>
      </trkpt>
      <trkpt lat="42.90615" lon="0.63558">
        <ele>515</ele>
        <time>2019-08-08T08:36:53.000Z</time>
      </trkpt>
      <trkpt lat="42.90624" lon="0.63565">
        <ele>515</ele>
        <time>2019-08-08T08:36:54.000Z</time>
      </trkpt>
      <trkpt lat="42.90634" lon="0.63572">
        <ele>515</ele>
        <time>2019-08-08T08:36:55.000Z</time>
      </trkpt>
      <trkpt lat="42.90643" lon="0.63579">
        <ele>514</ele>
        <time>2019-08-08T08:36:56.000Z</time>
      </trkpt>
      <trkpt lat="42.90652" lon="0.63586">
        <ele>514</ele>
        <time>2019-08-08T08:36:57.000Z</time>
      </trkpt>
      <trkpt lat="42.90662" lon="0.63592">
        <ele>513</ele>
        <time>2019-08-08T08:36:58.000Z</time>
      </trkpt>
      <trkpt lat="42.90671" lon="0.63599">
        <ele>513</ele>
        <time>2019-08-08T08:36:59.000Z</time>
      </trkpt>
      <trkpt lat="42.90681" lon="0.63605">
        <ele>513</ele>
        <time>2019-08-08T08:37:00.000Z</time>
      </trkpt>
      <trkpt lat="42.90691" lon="0.63611">
        <ele>513</ele>
        <time>2019-08-08T08:37:01.000Z</time>
      </trkpt>
      <trkpt lat="42.90701" lon="0.63616">
        <ele>512</ele>
        <time>2019-08-08T08:37:02.000Z</time>
      </trkpt>
      <trkpt lat="42.90711" lon="0.63622">
        <ele>512</ele>
        <time>2019-08-08T08:37:03.000Z</time>
      </trkpt>
      <trkpt lat="42.90721" lon="0.63627">
        <ele>511</ele>
        <time>2019-08-08T08:37:04.000Z</time>
      </trkpt>
      <trkpt lat="42.90731" lon="0.63632">
        <ele>511</ele>
        <time>2019-08-08T08:37:05.000Z</time>
      </trkpt>
      <trkpt lat="42.90741" lon="0.63637">
        <ele>511</ele>
        <time>2019-08-08T08:37:06.000Z</time>
      </trkpt>
      <trkpt lat="42.90751" lon="0.63642">
        <ele>511</ele>
        <time>2019-08-08T08:37:07.000Z</time>
      </trkpt>
      <trkpt lat="42.9076" lon="0.63647">
        <ele>511</ele>
        <time>2019-08-08T08:37:08.000Z</time>
      </trkpt>
      <trkpt lat="42.9077" lon="0.63652">
        <ele>511</ele>
        <time>2019-08-08T08:37:09.000Z</time>
      </trkpt>
      <trkpt lat="42.90779" lon="0.63657">
        <ele>511</ele>
        <time>2019-08-08T08:37:10.000Z</time>
      </trkpt>
      <trkpt lat="42.90788" lon="0.63662">
        <ele>511</ele>
        <time>2019-08-08T08:37:11.000Z</time>
      </trkpt>
      <trkpt lat="42.90797" lon="0.63666">
        <ele>511</ele>
        <time>2019-08-08T08:37:12.000Z</time>
      </trkpt>
      <trkpt lat="42.90807" lon="0.63672">
        <ele>511</ele>
        <time>2019-08-08T08:37:13.000Z</time>
      </trkpt>
      <trkpt lat="42.90816" lon="0.63677">
        <ele>511</ele>
        <time>2019-08-08T08:37:14.000Z</time>
      </trkpt>
      <trkpt lat="42.90825" lon="0.63682">
        <ele>511</ele>
        <time>2019-08-08T08:37:15.000Z</time>
      </trkpt>
      <trkpt lat="42.90834" lon="0.63686">
        <ele>511</ele>
        <time>2019-08-08T08:37:16.000Z</time>
      </trkpt>
      <trkpt lat="42.90843" lon="0.63691">
        <ele>511</ele>
        <time>2019-08-08T08:37:17.000Z</time>
      </trkpt>
      <trkpt lat="42.90851" lon="0.63696">
        <ele>511</ele>
        <time>2019-08-08T08:37:18.000Z</time>
      </trkpt>
      <trkpt lat="42.9086" lon="0.63701">
        <ele>511</ele>
        <time>2019-08-08T08:37:19.000Z</time>
      </trkpt>
      <trkpt lat="42.90869" lon="0.63707">
        <ele>511</ele>
        <time>2019-08-08T08:37:20.000Z</time>
      </trkpt>
      <trkpt lat="42.90877" lon="0.63713">
        <ele>511</ele>
        <time>2019-08-08T08:37:21.000Z</time>
      </trkpt>
      <trkpt lat="42.90885" lon="0.63719">
        <ele>511</ele>
        <time>2019-08-08T08:37:22.000Z</time>
      </trkpt>
      <trkpt lat="42.90894" lon="0.63725">
        <ele>511</ele>
        <time>2019-08-08T08:37:23.000Z</time>
      </trkpt>
      <trkpt lat="42.90902" lon="0.63732">
        <ele>511</ele>
        <time>2019-08-08T08:37:24.000Z</time>
      </trkpt>
      <trkpt lat="42.90909" lon="0.63739">
        <ele>511</ele>
        <time>2019-08-08T08:37:25.000Z</time>
      </trkpt>
      <trkpt lat="42.90921" lon="0.63749">
        <ele>511</ele>
        <time>2019-08-08T08:37:26.000Z</time>
      </trkpt>
      <trkpt lat="42.90925" lon="0.63753">
        <ele>511</ele>
        <time>2019-08-08T08:37:27.000Z</time>
      </trkpt>
      <trkpt lat="42.90932" lon="0.63759">
        <ele>511</ele>
        <time>2019-08-08T08:37:28.000Z</time>
      </trkpt>
      <trkpt lat="42.90939" lon="0.63765">
        <ele>512</ele>
        <time>2019-08-08T08:37:29.000Z</time>
      </trkpt>
      <trkpt lat="42.90946" lon="0.63772">
        <ele>512</ele>
        <time>2019-08-08T08:37:30.000Z</time>
      </trkpt>
      <trkpt lat="42.90953" lon="0.63779">
        <ele>512</ele>
        <time>2019-08-08T08:37:31.000Z</time>
      </trkpt>
      <trkpt lat="42.9096" lon="0.63786">
        <ele>512</ele>
        <time>2019-08-08T08:37:32.000Z</time>
      </trkpt>
      <trkpt lat="42.90966" lon="0.63793">
        <ele>512</ele>
        <time>2019-08-08T08:37:33.000Z</time>
      </trkpt>
      <trkpt lat="42.90975" lon="0.63803">
        <ele>512</ele>
        <time>2019-08-08T08:37:34.000Z</time>
      </trkpt>
      <trkpt lat="42.90978" lon="0.63807">
        <ele>512</ele>
        <time>2019-08-08T08:37:35.000Z</time>
      </trkpt>
      <trkpt lat="42.90985" lon="0.63814">
        <ele>512</ele>
        <time>2019-08-08T08:37:36.000Z</time>
      </trkpt>
      <trkpt lat="42.90991" lon="0.63823">
        <ele>512</ele>
        <time>2019-08-08T08:37:37.000Z</time>
      </trkpt>
      <trkpt lat="42.90998" lon="0.63832">
        <ele>512</ele>
        <time>2019-08-08T08:37:38.000Z</time>
      </trkpt>
      <trkpt lat="42.91005" lon="0.6384">
        <ele>512</ele>
        <time>2019-08-08T08:37:39.000Z</time>
      </trkpt>
      <trkpt lat="42.91011" lon="0.63848">
        <ele>512</ele>
        <time>2019-08-08T08:37:40.000Z</time>
      </trkpt>
      <trkpt lat="42.9102" lon="0.6386">
        <ele>512</ele>
        <time>2019-08-08T08:37:41.000Z</time>
      </trkpt>
      <trkpt lat="42.91023" lon="0.63864">
        <ele>512</ele>
        <time>2019-08-08T08:37:42.000Z</time>
      </trkpt>
      <trkpt lat="42.91029" lon="0.63872">
        <ele>512</ele>
        <time>2019-08-08T08:37:43.000Z</time>
      </trkpt>
      <trkpt lat="42.91035" lon="0.63881">
        <ele>512</ele>
        <time>2019-08-08T08:37:44.000Z</time>
      </trkpt>
      <trkpt lat="42.91042" lon="0.63889">
        <ele>512</ele>
        <time>2019-08-08T08:37:45.000Z</time>
      </trkpt>
      <trkpt lat="42.91048" lon="0.63898">
        <ele>512</ele>
        <time>2019-08-08T08:37:46.000Z</time>
      </trkpt>
      <trkpt lat="42.91053" lon="0.63908">
        <ele>512</ele>
        <time>2019-08-08T08:37:47.000Z</time>
      </trkpt>
      <trkpt lat="42.91061" lon="0.63921">
        <ele>512</ele>
        <time>2019-08-08T08:37:48.000Z</time>
      </trkpt>
      <trkpt lat="42.91064" lon="0.63926">
        <ele>511</ele>
        <time>2019-08-08T08:37:49.000Z</time>
      </trkpt>
      <trkpt lat="42.9107" lon="0.63936">
        <ele>511</ele>
        <time>2019-08-08T08:37:50.000Z</time>
      </trkpt>
      <trkpt lat="42.91076" lon="0.63947">
        <ele>511</ele>
        <time>2019-08-08T08:37:51.000Z</time>
      </trkpt>
      <trkpt lat="42.91083" lon="0.63958">
        <ele>511</ele>
        <time>2019-08-08T08:37:52.000Z</time>
      </trkpt>
      <trkpt lat="42.91089" lon="0.63969">
        <ele>511</ele>
        <time>2019-08-08T08:37:53.000Z</time>
      </trkpt>
      <trkpt lat="42.91095" lon="0.6398">
        <ele>511</ele>
        <time>2019-08-08T08:37:54.000Z</time>
      </trkpt>
      <trkpt lat="42.91101" lon="0.63992">
        <ele>510</ele>
        <time>2019-08-08T08:37:55.000Z</time>
      </trkpt>
      <trkpt lat="42.91107" lon="0.64003">
        <ele>510</ele>
        <time>2019-08-08T08:37:56.000Z</time>
      </trkpt>
      <trkpt lat="42.91112" lon="0.64015">
        <ele>510</ele>
        <time>2019-08-08T08:37:57.000Z</time>
      </trkpt>
      <trkpt lat="42.91117" lon="0.64027">
        <ele>510</ele>
        <time>2019-08-08T08:37:58.000Z</time>
      </trkpt>
      <trkpt lat="42.91122" lon="0.64039">
        <ele>509</ele>
        <time>2019-08-08T08:37:59.000Z</time>
      </trkpt>
      <trkpt lat="42.91127" lon="0.64051">
        <ele>509</ele>
        <time>2019-08-08T08:38:00.000Z</time>
      </trkpt>
      <trkpt lat="42.91132" lon="0.64063">
        <ele>509</ele>
        <time>2019-08-08T08:38:01.000Z</time>
      </trkpt>
      <trkpt lat="42.91137" lon="0.64076">
        <ele>508</ele>
        <time>2019-08-08T08:38:02.000Z</time>
      </trkpt>
      <trkpt lat="42.91141" lon="0.64089">
        <ele>508</ele>
        <time>2019-08-08T08:38:03.000Z</time>
      </trkpt>
      <trkpt lat="42.91146" lon="0.64102">
        <ele>508</ele>
        <time>2019-08-08T08:38:04.000Z</time>
      </trkpt>
      <trkpt lat="42.9115" lon="0.64115">
        <ele>508</ele>
        <time>2019-08-08T08:38:05.000Z</time>
      </trkpt>
      <trkpt lat="42.91154" lon="0.64127">
        <ele>506</ele>
        <time>2019-08-08T08:38:06.000Z</time>
      </trkpt>
      <trkpt lat="42.91158" lon="0.64141">
        <ele>506</ele>
        <time>2019-08-08T08:38:07.000Z</time>
      </trkpt>
      <trkpt lat="42.91162" lon="0.64154">
        <ele>505</ele>
        <time>2019-08-08T08:38:08.000Z</time>
      </trkpt>
      <trkpt lat="42.91166" lon="0.64167">
        <ele>505</ele>
        <time>2019-08-08T08:38:09.000Z</time>
      </trkpt>
      <trkpt lat="42.9117" lon="0.64181">
        <ele>505</ele>
        <time>2019-08-08T08:38:10.000Z</time>
      </trkpt>
      <trkpt lat="42.91174" lon="0.64194">
        <ele>505</ele>
        <time>2019-08-08T08:38:11.000Z</time>
      </trkpt>
      <trkpt lat="42.91178" lon="0.64207">
        <ele>505</ele>
        <time>2019-08-08T08:38:12.000Z</time>
      </trkpt>
      <trkpt lat="42.91182" lon="0.64221">
        <ele>505</ele>
        <time>2019-08-08T08:38:13.000Z</time>
      </trkpt>
      <trkpt lat="42.91186" lon="0.64234">
        <ele>505</ele>
        <time>2019-08-08T08:38:14.000Z</time>
      </trkpt>
      <trkpt lat="42.9119" lon="0.64247">
        <ele>505</ele>
        <time>2019-08-08T08:38:15.000Z</time>
      </trkpt>
      <trkpt lat="42.91193" lon="0.6426">
        <ele>505</ele>
        <time>2019-08-08T08:38:16.000Z</time>
      </trkpt>
      <trkpt lat="42.91197" lon="0.64273">
        <ele>505</ele>
        <time>2019-08-08T08:38:17.000Z</time>
      </trkpt>
      <trkpt lat="42.91201" lon="0.64285">
        <ele>505</ele>
        <time>2019-08-08T08:38:18.000Z</time>
      </trkpt>
      <trkpt lat="42.91204" lon="0.64298">
        <ele>506</ele>
        <time>2019-08-08T08:38:19.000Z</time>
      </trkpt>
      <trkpt lat="42.91208" lon="0.6431">
        <ele>506</ele>
        <time>2019-08-08T08:38:20.000Z</time>
      </trkpt>
      <trkpt lat="42.91211" lon="0.64322">
        <ele>506</ele>
        <time>2019-08-08T08:38:21.000Z</time>
      </trkpt>
      <trkpt lat="42.91215" lon="0.64334">
        <ele>506</ele>
        <time>2019-08-08T08:38:22.000Z</time>
      </trkpt>
      <trkpt lat="42.91218" lon="0.64346">
        <ele>506</ele>
        <time>2019-08-08T08:38:23.000Z</time>
      </trkpt>
      <trkpt lat="42.91222" lon="0.64358">
        <ele>506</ele>
        <time>2019-08-08T08:38:24.000Z</time>
      </trkpt>
      <trkpt lat="42.91225" lon="0.6437">
        <ele>506</ele>
        <time>2019-08-08T08:38:25.000Z</time>
      </trkpt>
      <trkpt lat="42.91228" lon="0.64381">
        <ele>506</ele>
        <time>2019-08-08T08:38:26.000Z</time>
      </trkpt>
      <trkpt lat="42.91231" lon="0.64393">
        <ele>506</ele>
        <time>2019-08-08T08:38:27.000Z</time>
      </trkpt>
      <trkpt lat="42.91233" lon="0.64404">
        <ele>506</ele>
        <time>2019-08-08T08:38:28.000Z</time>
      </trkpt>
      <trkpt lat="42.91235" lon="0.64416">
        <ele>507</ele>
        <time>2019-08-08T08:38:29.000Z</time>
      </trkpt>
      <trkpt lat="42.91238" lon="0.64428">
        <ele>507</ele>
        <time>2019-08-08T08:38:30.000Z</time>
      </trkpt>
      <trkpt lat="42.9124" lon="0.64439">
        <ele>507</ele>
        <time>2019-08-08T08:38:31.000Z</time>
      </trkpt>
      <trkpt lat="42.91241" lon="0.6445">
        <ele>507</ele>
        <time>2019-08-08T08:38:32.000Z</time>
      </trkpt>
      <trkpt lat="42.91243" lon="0.64462">
        <ele>507</ele>
        <time>2019-08-08T08:38:33.000Z</time>
      </trkpt>
      <trkpt lat="42.91244" lon="0.64473">
        <ele>507</ele>
        <time>2019-08-08T08:38:34.000Z</time>
      </trkpt>
      <trkpt lat="42.91246" lon="0.64485">
        <ele>506</ele>
        <time>2019-08-08T08:38:35.000Z</time>
      </trkpt>
      <trkpt lat="42.91248" lon="0.64496">
        <ele>506</ele>
        <time>2019-08-08T08:38:36.000Z</time>
      </trkpt>
      <trkpt lat="42.9125" lon="0.64508">
        <ele>505</ele>
        <time>2019-08-08T08:38:37.000Z</time>
      </trkpt>
      <trkpt lat="42.91252" lon="0.6452">
        <ele>505</ele>
        <time>2019-08-08T08:38:38.000Z</time>
      </trkpt>
      <trkpt lat="42.91254" lon="0.64531">
        <ele>505</ele>
        <time>2019-08-08T08:38:39.000Z</time>
      </trkpt>
      <trkpt lat="42.91256" lon="0.64542">
        <ele>505</ele>
        <time>2019-08-08T08:38:40.000Z</time>
      </trkpt>
      <trkpt lat="42.91259" lon="0.64553">
        <ele>505</ele>
        <time>2019-08-08T08:38:41.000Z</time>
      </trkpt>
      <trkpt lat="42.91262" lon="0.64564">
        <ele>505</ele>
        <time>2019-08-08T08:38:42.000Z</time>
      </trkpt>
      <trkpt lat="42.91265" lon="0.64575">
        <ele>505</ele>
        <time>2019-08-08T08:38:43.000Z</time>
      </trkpt>
      <trkpt lat="42.91271" lon="0.64592">
        <ele>505</ele>
        <time>2019-08-08T08:38:44.000Z</time>
      </trkpt>
      <trkpt lat="42.91273" lon="0.64597">
        <ele>504</ele>
        <time>2019-08-08T08:38:45.000Z</time>
      </trkpt>
      <trkpt lat="42.91277" lon="0.64608">
        <ele>506</ele>
        <time>2019-08-08T08:38:46.000Z</time>
      </trkpt>
      <trkpt lat="42.91282" lon="0.64619">
        <ele>506</ele>
        <time>2019-08-08T08:38:47.000Z</time>
      </trkpt>
      <trkpt lat="42.91287" lon="0.64629">
        <ele>506</ele>
        <time>2019-08-08T08:38:48.000Z</time>
      </trkpt>
      <trkpt lat="42.91292" lon="0.6464">
        <ele>506</ele>
        <time>2019-08-08T08:38:49.000Z</time>
      </trkpt>
      <trkpt lat="42.91299" lon="0.6465">
        <ele>506</ele>
        <time>2019-08-08T08:38:50.000Z</time>
      </trkpt>
      <trkpt lat="42.91305" lon="0.6466">
        <ele>505</ele>
        <time>2019-08-08T08:38:51.000Z</time>
      </trkpt>
      <trkpt lat="42.91312" lon="0.64669">
        <ele>505</ele>
        <time>2019-08-08T08:38:52.000Z</time>
      </trkpt>
      <trkpt lat="42.91319" lon="0.64678">
        <ele>504</ele>
        <time>2019-08-08T08:38:53.000Z</time>
      </trkpt>
      <trkpt lat="42.91327" lon="0.64687">
        <ele>504</ele>
        <time>2019-08-08T08:38:54.000Z</time>
      </trkpt>
      <trkpt lat="42.91335" lon="0.64695">
        <ele>504</ele>
        <time>2019-08-08T08:38:55.000Z</time>
      </trkpt>
      <trkpt lat="42.91343" lon="0.64702">
        <ele>504</ele>
        <time>2019-08-08T08:38:56.000Z</time>
      </trkpt>
      <trkpt lat="42.91352" lon="0.64709">
        <ele>503</ele>
        <time>2019-08-08T08:38:57.000Z</time>
      </trkpt>
      <trkpt lat="42.91361" lon="0.64715">
        <ele>503</ele>
        <time>2019-08-08T08:38:58.000Z</time>
      </trkpt>
      <trkpt lat="42.9137" lon="0.64721">
        <ele>503</ele>
        <time>2019-08-08T08:38:59.000Z</time>
      </trkpt>
      <trkpt lat="42.91384" lon="0.64728">
        <ele>503</ele>
        <time>2019-08-08T08:39:00.000Z</time>
      </trkpt>
      <trkpt lat="42.91388" lon="0.6473">
        <ele>503</ele>
        <time>2019-08-08T08:39:01.000Z</time>
      </trkpt>
      <trkpt lat="42.91388" lon="0.6473">
        <ele>503</ele>
        <time>2019-08-08T08:39:02.000Z</time>
      </trkpt>
      <trkpt lat="42.91406" lon="0.64739">
        <ele>503</ele>
        <time>2019-08-08T08:39:03.000Z</time>
      </trkpt>
      <trkpt lat="42.91414" lon="0.64744">
        <ele>503</ele>
        <time>2019-08-08T08:39:04.000Z</time>
      </trkpt>
      <trkpt lat="42.9142" lon="0.64749">
        <ele>503</ele>
        <time>2019-08-08T08:39:05.000Z</time>
      </trkpt>
      <trkpt lat="42.91425" lon="0.64756">
        <ele>503</ele>
        <time>2019-08-08T08:39:06.000Z</time>
      </trkpt>
      <trkpt lat="42.91428" lon="0.64766">
        <ele>503</ele>
        <time>2019-08-08T08:39:07.000Z</time>
      </trkpt>
      <trkpt lat="42.91429" lon="0.64777">
        <ele>501</ele>
        <time>2019-08-08T08:39:08.000Z</time>
      </trkpt>
      <trkpt lat="42.91428" lon="0.64788">
        <ele>501</ele>
        <time>2019-08-08T08:39:09.000Z</time>
      </trkpt>
      <trkpt lat="42.91427" lon="0.648">
        <ele>501</ele>
        <time>2019-08-08T08:39:10.000Z</time>
      </trkpt>
      <trkpt lat="42.91425" lon="0.64812">
        <ele>501</ele>
        <time>2019-08-08T08:39:11.000Z</time>
      </trkpt>
      <trkpt lat="42.91423" lon="0.64823">
        <ele>501</ele>
        <time>2019-08-08T08:39:12.000Z</time>
      </trkpt>
      <trkpt lat="42.91421" lon="0.64834">
        <ele>501</ele>
        <time>2019-08-08T08:39:13.000Z</time>
      </trkpt>
      <trkpt lat="42.91419" lon="0.64845">
        <ele>501</ele>
        <time>2019-08-08T08:39:14.000Z</time>
      </trkpt>
      <trkpt lat="42.91417" lon="0.64856">
        <ele>501</ele>
        <time>2019-08-08T08:39:15.000Z</time>
      </trkpt>
      <trkpt lat="42.91416" lon="0.64867">
        <ele>501</ele>
        <time>2019-08-08T08:39:16.000Z</time>
      </trkpt>
      <trkpt lat="42.91414" lon="0.64878">
        <ele>501</ele>
        <time>2019-08-08T08:39:17.000Z</time>
      </trkpt>
      <trkpt lat="42.91412" lon="0.64889">
        <ele>502</ele>
        <time>2019-08-08T08:39:18.000Z</time>
      </trkpt>
      <trkpt lat="42.91411" lon="0.64899">
        <ele>502</ele>
        <time>2019-08-08T08:39:19.000Z</time>
      </trkpt>
      <trkpt lat="42.91409" lon="0.6491">
        <ele>502</ele>
        <time>2019-08-08T08:39:20.000Z</time>
      </trkpt>
      <trkpt lat="42.91407" lon="0.64921">
        <ele>503</ele>
        <time>2019-08-08T08:39:21.000Z</time>
      </trkpt>
      <trkpt lat="42.91406" lon="0.64931">
        <ele>503</ele>
        <time>2019-08-08T08:39:22.000Z</time>
      </trkpt>
      <trkpt lat="42.91405" lon="0.64942">
        <ele>503</ele>
        <time>2019-08-08T08:39:23.000Z</time>
      </trkpt>
      <trkpt lat="42.91403" lon="0.64952">
        <ele>503</ele>
        <time>2019-08-08T08:39:24.000Z</time>
      </trkpt>
      <trkpt lat="42.91402" lon="0.64963">
        <ele>503</ele>
        <time>2019-08-08T08:39:25.000Z</time>
      </trkpt>
      <trkpt lat="42.91401" lon="0.64972">
        <ele>503</ele>
        <time>2019-08-08T08:39:26.000Z</time>
      </trkpt>
      <trkpt lat="42.914" lon="0.64982">
        <ele>504</ele>
        <time>2019-08-08T08:39:27.000Z</time>
      </trkpt>
      <trkpt lat="42.91398" lon="0.64991">
        <ele>504</ele>
        <time>2019-08-08T08:39:28.000Z</time>
      </trkpt>
      <trkpt lat="42.91397" lon="0.65">
        <ele>505</ele>
        <time>2019-08-08T08:39:29.000Z</time>
      </trkpt>
      <trkpt lat="42.91396" lon="0.65009">
        <ele>505</ele>
        <time>2019-08-08T08:39:30.000Z</time>
      </trkpt>
      <trkpt lat="42.91395" lon="0.65017">
        <ele>505</ele>
        <time>2019-08-08T08:39:31.000Z</time>
      </trkpt>
      <trkpt lat="42.91395" lon="0.65026">
        <ele>506</ele>
        <time>2019-08-08T08:39:32.000Z</time>
      </trkpt>
      <trkpt lat="42.91395" lon="0.65034">
        <ele>506</ele>
        <time>2019-08-08T08:39:33.000Z</time>
      </trkpt>
      <trkpt lat="42.91394" lon="0.65041">
        <ele>506</ele>
        <time>2019-08-08T08:39:34.000Z</time>
      </trkpt>
      <trkpt lat="42.91394" lon="0.65048">
        <ele>506</ele>
        <time>2019-08-08T08:39:35.000Z</time>
      </trkpt>
      <trkpt lat="42.91393" lon="0.65055">
        <ele>507</ele>
        <time>2019-08-08T08:39:36.000Z</time>
      </trkpt>
      <trkpt lat="42.91393" lon="0.65062">
        <ele>506</ele>
        <time>2019-08-08T08:39:37.000Z</time>
      </trkpt>
      <trkpt lat="42.91392" lon="0.65069">
        <ele>506</ele>
        <time>2019-08-08T08:39:38.000Z</time>
      </trkpt>
      <trkpt lat="42.91391" lon="0.65076">
        <ele>506</ele>
        <time>2019-08-08T08:39:39.000Z</time>
      </trkpt>
      <trkpt lat="42.91391" lon="0.65083">
        <ele>506</ele>
        <time>2019-08-08T08:39:40.000Z</time>
      </trkpt>
      <trkpt lat="42.9139" lon="0.6509">
        <ele>506</ele>
        <time>2019-08-08T08:39:41.000Z</time>
      </trkpt>
      <trkpt lat="42.91389" lon="0.65097">
        <ele>506</ele>
        <time>2019-08-08T08:39:42.000Z</time>
      </trkpt>
      <trkpt lat="42.91388" lon="0.65103">
        <ele>506</ele>
        <time>2019-08-08T08:39:43.000Z</time>
      </trkpt>
      <trkpt lat="42.91387" lon="0.6511">
        <ele>506</ele>
        <time>2019-08-08T08:39:44.000Z</time>
      </trkpt>
      <trkpt lat="42.91386" lon="0.65117">
        <ele>507</ele>
        <time>2019-08-08T08:39:45.000Z</time>
      </trkpt>
      <trkpt lat="42.91385" lon="0.65123">
        <ele>507</ele>
        <time>2019-08-08T08:39:46.000Z</time>
      </trkpt>
      <trkpt lat="42.91384" lon="0.6513">
        <ele>507</ele>
        <time>2019-08-08T08:39:47.000Z</time>
      </trkpt>
      <trkpt lat="42.91382" lon="0.65137">
        <ele>507</ele>
        <time>2019-08-08T08:39:48.000Z</time>
      </trkpt>
      <trkpt lat="42.91381" lon="0.65144">
        <ele>508</ele>
        <time>2019-08-08T08:39:49.000Z</time>
      </trkpt>
      <trkpt lat="42.91381" lon="0.65151">
        <ele>508</ele>
        <time>2019-08-08T08:39:50.000Z</time>
      </trkpt>
      <trkpt lat="42.9138" lon="0.65158">
        <ele>509</ele>
        <time>2019-08-08T08:39:51.000Z</time>
      </trkpt>
      <trkpt lat="42.91379" lon="0.65165">
        <ele>509</ele>
        <time>2019-08-08T08:39:52.000Z</time>
      </trkpt>
      <trkpt lat="42.91378" lon="0.65172">
        <ele>509</ele>
        <time>2019-08-08T08:39:53.000Z</time>
      </trkpt>
      <trkpt lat="42.91376" lon="0.65179">
        <ele>509</ele>
        <time>2019-08-08T08:39:54.000Z</time>
      </trkpt>
      <trkpt lat="42.91375" lon="0.65185">
        <ele>509</ele>
        <time>2019-08-08T08:39:55.000Z</time>
      </trkpt>
      <trkpt lat="42.91374" lon="0.65192">
        <ele>509</ele>
        <time>2019-08-08T08:39:56.000Z</time>
      </trkpt>
      <trkpt lat="42.91373" lon="0.65199">
        <ele>508</ele>
        <time>2019-08-08T08:39:57.000Z</time>
      </trkpt>
      <trkpt lat="42.91372" lon="0.65205">
        <ele>508</ele>
        <time>2019-08-08T08:39:58.000Z</time>
      </trkpt>
      <trkpt lat="42.91371" lon="0.65212">
        <ele>508</ele>
        <time>2019-08-08T08:39:59.000Z</time>
      </trkpt>
      <trkpt lat="42.9137" lon="0.65219">
        <ele>509</ele>
        <time>2019-08-08T08:40:00.000Z</time>
      </trkpt>
      <trkpt lat="42.91368" lon="0.65226">
        <ele>509</ele>
        <time>2019-08-08T08:40:01.000Z</time>
      </trkpt>
      <trkpt lat="42.91367" lon="0.65233">
        <ele>510</ele>
        <time>2019-08-08T08:40:02.000Z</time>
      </trkpt>
      <trkpt lat="42.91366" lon="0.65239">
        <ele>510</ele>
        <time>2019-08-08T08:40:03.000Z</time>
      </trkpt>
      <trkpt lat="42.91365" lon="0.65246">
        <ele>510</ele>
        <time>2019-08-08T08:40:04.000Z</time>
      </trkpt>
      <trkpt lat="42.91365" lon="0.65253">
        <ele>510</ele>
        <time>2019-08-08T08:40:05.000Z</time>
      </trkpt>
      <trkpt lat="42.91365" lon="0.6526">
        <ele>510</ele>
        <time>2019-08-08T08:40:06.000Z</time>
      </trkpt>
      <trkpt lat="42.91364" lon="0.65267">
        <ele>510</ele>
        <time>2019-08-08T08:40:07.000Z</time>
      </trkpt>
      <trkpt lat="42.91362" lon="0.65274">
        <ele>511</ele>
        <time>2019-08-08T08:40:08.000Z</time>
      </trkpt>
      <trkpt lat="42.9136" lon="0.6528">
        <ele>511</ele>
        <time>2019-08-08T08:40:09.000Z</time>
      </trkpt>
      <trkpt lat="42.91359" lon="0.65287">
        <ele>511</ele>
        <time>2019-08-08T08:40:10.000Z</time>
      </trkpt>
      <trkpt lat="42.91359" lon="0.65294">
        <ele>511</ele>
        <time>2019-08-08T08:40:11.000Z</time>
      </trkpt>
      <trkpt lat="42.91358" lon="0.65301">
        <ele>512</ele>
        <time>2019-08-08T08:40:12.000Z</time>
      </trkpt>
      <trkpt lat="42.91357" lon="0.65308">
        <ele>512</ele>
        <time>2019-08-08T08:40:13.000Z</time>
      </trkpt>
      <trkpt lat="42.91356" lon="0.65314">
        <ele>512</ele>
        <time>2019-08-08T08:40:14.000Z</time>
      </trkpt>
      <trkpt lat="42.91354" lon="0.65321">
        <ele>512</ele>
        <time>2019-08-08T08:40:15.000Z</time>
      </trkpt>
      <trkpt lat="42.91353" lon="0.65328">
        <ele>512</ele>
        <time>2019-08-08T08:40:16.000Z</time>
      </trkpt>
      <trkpt lat="42.91352" lon="0.65335">
        <ele>511</ele>
        <time>2019-08-08T08:40:17.000Z</time>
      </trkpt>
      <trkpt lat="42.91351" lon="0.65341">
        <ele>512</ele>
        <time>2019-08-08T08:40:18.000Z</time>
      </trkpt>
      <trkpt lat="42.9135" lon="0.65348">
        <ele>512</ele>
        <time>2019-08-08T08:40:19.000Z</time>
      </trkpt>
      <trkpt lat="42.91349" lon="0.65354">
        <ele>513</ele>
        <time>2019-08-08T08:40:20.000Z</time>
      </trkpt>
      <trkpt lat="42.91348" lon="0.65361">
        <ele>513</ele>
        <time>2019-08-08T08:40:21.000Z</time>
      </trkpt>
      <trkpt lat="42.91347" lon="0.65368">
        <ele>513</ele>
        <time>2019-08-08T08:40:22.000Z</time>
      </trkpt>
      <trkpt lat="42.91346" lon="0.65375">
        <ele>513</ele>
        <time>2019-08-08T08:40:23.000Z</time>
      </trkpt>
      <trkpt lat="42.91345" lon="0.65382">
        <ele>513</ele>
        <time>2019-08-08T08:40:24.000Z</time>
      </trkpt>
      <trkpt lat="42.91344" lon="0.65389">
        <ele>513</ele>
        <time>2019-08-08T08:40:25.000Z</time>
      </trkpt>
      <trkpt lat="42.91343" lon="0.65396">
        <ele>513</ele>
        <time>2019-08-08T08:40:26.000Z</time>
      </trkpt>
      <trkpt lat="42.91343" lon="0.65403">
        <ele>515</ele>
        <time>2019-08-08T08:40:27.000Z</time>
      </trkpt>
      <trkpt lat="42.91341" lon="0.6541">
        <ele>515</ele>
        <time>2019-08-08T08:40:28.000Z</time>
      </trkpt>
      <trkpt lat="42.9134" lon="0.65416">
        <ele>516</ele>
        <time>2019-08-08T08:40:29.000Z</time>
      </trkpt>
      <trkpt lat="42.9134" lon="0.65423">
        <ele>516</ele>
        <time>2019-08-08T08:40:30.000Z</time>
      </trkpt>
      <trkpt lat="42.91339" lon="0.6543">
        <ele>516</ele>
        <time>2019-08-08T08:40:31.000Z</time>
      </trkpt>
      <trkpt lat="42.91338" lon="0.65436">
        <ele>516</ele>
        <time>2019-08-08T08:40:32.000Z</time>
      </trkpt>
      <trkpt lat="42.91337" lon="0.65443">
        <ele>516</ele>
        <time>2019-08-08T08:40:33.000Z</time>
      </trkpt>
      <trkpt lat="42.91336" lon="0.6545">
        <ele>516</ele>
        <time>2019-08-08T08:40:34.000Z</time>
      </trkpt>
      <trkpt lat="42.91335" lon="0.65457">
        <ele>516</ele>
        <time>2019-08-08T08:40:35.000Z</time>
      </trkpt>
      <trkpt lat="42.91334" lon="0.65464">
        <ele>517</ele>
        <time>2019-08-08T08:40:36.000Z</time>
      </trkpt>
      <trkpt lat="42.91334" lon="0.65471">
        <ele>517</ele>
        <time>2019-08-08T08:40:37.000Z</time>
      </trkpt>
      <trkpt lat="42.91333" lon="0.65477">
        <ele>517</ele>
        <time>2019-08-08T08:40:38.000Z</time>
      </trkpt>
      <trkpt lat="42.91332" lon="0.65484">
        <ele>517</ele>
        <time>2019-08-08T08:40:39.000Z</time>
      </trkpt>
      <trkpt lat="42.91331" lon="0.6549">
        <ele>518</ele>
        <time>2019-08-08T08:40:40.000Z</time>
      </trkpt>
      <trkpt lat="42.91331" lon="0.65497">
        <ele>518</ele>
        <time>2019-08-08T08:40:41.000Z</time>
      </trkpt>
      <trkpt lat="42.91331" lon="0.65504">
        <ele>518</ele>
        <time>2019-08-08T08:40:42.000Z</time>
      </trkpt>
      <trkpt lat="42.91331" lon="0.6551">
        <ele>518</ele>
        <time>2019-08-08T08:40:43.000Z</time>
      </trkpt>
      <trkpt lat="42.91331" lon="0.65517">
        <ele>518</ele>
        <time>2019-08-08T08:40:44.000Z</time>
      </trkpt>
      <trkpt lat="42.91331" lon="0.65524">
        <ele>518</ele>
        <time>2019-08-08T08:40:45.000Z</time>
      </trkpt>
      <trkpt lat="42.91331" lon="0.6553">
        <ele>519</ele>
        <time>2019-08-08T08:40:46.000Z</time>
      </trkpt>
      <trkpt lat="42.91331" lon="0.65537">
        <ele>519</ele>
        <time>2019-08-08T08:40:47.000Z</time>
      </trkpt>
      <trkpt lat="42.91331" lon="0.65544">
        <ele>520</ele>
        <time>2019-08-08T08:40:48.000Z</time>
      </trkpt>
      <trkpt lat="42.91331" lon="0.65551">
        <ele>520</ele>
        <time>2019-08-08T08:40:49.000Z</time>
      </trkpt>
      <trkpt lat="42.91331" lon="0.65558">
        <ele>519</ele>
        <time>2019-08-08T08:40:50.000Z</time>
      </trkpt>
      <trkpt lat="42.91332" lon="0.65565">
        <ele>519</ele>
        <time>2019-08-08T08:40:51.000Z</time>
      </trkpt>
      <trkpt lat="42.91332" lon="0.65572">
        <ele>519</ele>
        <time>2019-08-08T08:40:52.000Z</time>
      </trkpt>
      <trkpt lat="42.91333" lon="0.65579">
        <ele>519</ele>
        <time>2019-08-08T08:40:53.000Z</time>
      </trkpt>
      <trkpt lat="42.91333" lon="0.65586">
        <ele>519</ele>
        <time>2019-08-08T08:40:54.000Z</time>
      </trkpt>
      <trkpt lat="42.91333" lon="0.65592">
        <ele>520</ele>
        <time>2019-08-08T08:40:55.000Z</time>
      </trkpt>
      <trkpt lat="42.91333" lon="0.65599">
        <ele>520</ele>
        <time>2019-08-08T08:40:56.000Z</time>
      </trkpt>
      <trkpt lat="42.91334" lon="0.65606">
        <ele>520</ele>
        <time>2019-08-08T08:40:57.000Z</time>
      </trkpt>
      <trkpt lat="42.91335" lon="0.65612">
        <ele>521</ele>
        <time>2019-08-08T08:40:58.000Z</time>
      </trkpt>
      <trkpt lat="42.91335" lon="0.65619">
        <ele>521</ele>
        <time>2019-08-08T08:40:59.000Z</time>
      </trkpt>
      <trkpt lat="42.91336" lon="0.65625">
        <ele>521</ele>
        <time>2019-08-08T08:41:00.000Z</time>
      </trkpt>
      <trkpt lat="42.91336" lon="0.65633">
        <ele>521</ele>
        <time>2019-08-08T08:41:01.000Z</time>
      </trkpt>
      <trkpt lat="42.91336" lon="0.6564">
        <ele>521</ele>
        <time>2019-08-08T08:41:02.000Z</time>
      </trkpt>
      <trkpt lat="42.91337" lon="0.65647">
        <ele>521</ele>
        <time>2019-08-08T08:41:03.000Z</time>
      </trkpt>
      <trkpt lat="42.91338" lon="0.65654">
        <ele>521</ele>
        <time>2019-08-08T08:41:04.000Z</time>
      </trkpt>
      <trkpt lat="42.91339" lon="0.65661">
        <ele>521</ele>
        <time>2019-08-08T08:41:05.000Z</time>
      </trkpt>
      <trkpt lat="42.9134" lon="0.65668">
        <ele>522</ele>
        <time>2019-08-08T08:41:06.000Z</time>
      </trkpt>
      <trkpt lat="42.9134" lon="0.65676">
        <ele>522</ele>
        <time>2019-08-08T08:41:07.000Z</time>
      </trkpt>
      <trkpt lat="42.9134" lon="0.65683">
        <ele>522</ele>
        <time>2019-08-08T08:41:08.000Z</time>
      </trkpt>
      <trkpt lat="42.9134" lon="0.65691">
        <ele>522</ele>
        <time>2019-08-08T08:41:09.000Z</time>
      </trkpt>
      <trkpt lat="42.9134" lon="0.65698">
        <ele>522</ele>
        <time>2019-08-08T08:41:10.000Z</time>
      </trkpt>
      <trkpt lat="42.9134" lon="0.65706">
        <ele>522</ele>
        <time>2019-08-08T08:41:11.000Z</time>
      </trkpt>
      <trkpt lat="42.91339" lon="0.65714">
        <ele>523</ele>
        <time>2019-08-08T08:41:12.000Z</time>
      </trkpt>
      <trkpt lat="42.91339" lon="0.65722">
        <ele>523</ele>
        <time>2019-08-08T08:41:13.000Z</time>
      </trkpt>
      <trkpt lat="42.91338" lon="0.6573">
        <ele>523</ele>
        <time>2019-08-08T08:41:14.000Z</time>
      </trkpt>
      <trkpt lat="42.91337" lon="0.65737">
        <ele>523</ele>
        <time>2019-08-08T08:41:15.000Z</time>
      </trkpt>
      <trkpt lat="42.91336" lon="0.65745">
        <ele>523</ele>
        <time>2019-08-08T08:41:16.000Z</time>
      </trkpt>
      <trkpt lat="42.91336" lon="0.65753">
        <ele>523</ele>
        <time>2019-08-08T08:41:17.000Z</time>
      </trkpt>
      <trkpt lat="42.91335" lon="0.65761">
        <ele>523</ele>
        <time>2019-08-08T08:41:18.000Z</time>
      </trkpt>
      <trkpt lat="42.91335" lon="0.65768">
        <ele>524</ele>
        <time>2019-08-08T08:41:19.000Z</time>
      </trkpt>
      <trkpt lat="42.91334" lon="0.65776">
        <ele>524</ele>
        <time>2019-08-08T08:41:20.000Z</time>
      </trkpt>
      <trkpt lat="42.91334" lon="0.65784">
        <ele>524</ele>
        <time>2019-08-08T08:41:21.000Z</time>
      </trkpt>
      <trkpt lat="42.91334" lon="0.65791">
        <ele>524</ele>
        <time>2019-08-08T08:41:22.000Z</time>
      </trkpt>
      <trkpt lat="42.91334" lon="0.65799">
        <ele>524</ele>
        <time>2019-08-08T08:41:23.000Z</time>
      </trkpt>
      <trkpt lat="42.91334" lon="0.65806">
        <ele>524</ele>
        <time>2019-08-08T08:41:24.000Z</time>
      </trkpt>
      <trkpt lat="42.91335" lon="0.65814">
        <ele>524</ele>
        <time>2019-08-08T08:41:25.000Z</time>
      </trkpt>
      <trkpt lat="42.91336" lon="0.65821">
        <ele>524</ele>
        <time>2019-08-08T08:41:26.000Z</time>
      </trkpt>
      <trkpt lat="42.91337" lon="0.65829">
        <ele>524</ele>
        <time>2019-08-08T08:41:27.000Z</time>
      </trkpt>
      <trkpt lat="42.91338" lon="0.65837">
        <ele>524</ele>
        <time>2019-08-08T08:41:28.000Z</time>
      </trkpt>
      <trkpt lat="42.9134" lon="0.65845">
        <ele>524</ele>
        <time>2019-08-08T08:41:29.000Z</time>
      </trkpt>
      <trkpt lat="42.91343" lon="0.65853">
        <ele>524</ele>
        <time>2019-08-08T08:41:30.000Z</time>
      </trkpt>
      <trkpt lat="42.91345" lon="0.65861">
        <ele>524</ele>
        <time>2019-08-08T08:41:31.000Z</time>
      </trkpt>
      <trkpt lat="42.91348" lon="0.65869">
        <ele>524</ele>
        <time>2019-08-08T08:41:32.000Z</time>
      </trkpt>
      <trkpt lat="42.9135" lon="0.65877">
        <ele>524</ele>
        <time>2019-08-08T08:41:33.000Z</time>
      </trkpt>
      <trkpt lat="42.91353" lon="0.65884">
        <ele>524</ele>
        <time>2019-08-08T08:41:34.000Z</time>
      </trkpt>
      <trkpt lat="42.91356" lon="0.65892">
        <ele>524</ele>
        <time>2019-08-08T08:41:35.000Z</time>
      </trkpt>
      <trkpt lat="42.91359" lon="0.65899">
        <ele>524</ele>
        <time>2019-08-08T08:41:36.000Z</time>
      </trkpt>
      <trkpt lat="42.91362" lon="0.65906">
        <ele>524</ele>
        <time>2019-08-08T08:41:37.000Z</time>
      </trkpt>
      <trkpt lat="42.91366" lon="0.65913">
        <ele>524</ele>
        <time>2019-08-08T08:41:38.000Z</time>
      </trkpt>
      <trkpt lat="42.91369" lon="0.65921">
        <ele>524</ele>
        <time>2019-08-08T08:41:39.000Z</time>
      </trkpt>
      <trkpt lat="42.91372" lon="0.6593">
        <ele>524</ele>
        <time>2019-08-08T08:41:40.000Z</time>
      </trkpt>
      <trkpt lat="42.91375" lon="0.65939">
        <ele>524</ele>
        <time>2019-08-08T08:41:41.000Z</time>
      </trkpt>
      <trkpt lat="42.91378" lon="0.65949">
        <ele>522</ele>
        <time>2019-08-08T08:41:42.000Z</time>
      </trkpt>
      <trkpt lat="42.91381" lon="0.65959">
        <ele>522</ele>
        <time>2019-08-08T08:41:43.000Z</time>
      </trkpt>
      <trkpt lat="42.91384" lon="0.65969">
        <ele>521</ele>
        <time>2019-08-08T08:41:44.000Z</time>
      </trkpt>
      <trkpt lat="42.91386" lon="0.65979">
        <ele>521</ele>
        <time>2019-08-08T08:41:45.000Z</time>
      </trkpt>
      <trkpt lat="42.91388" lon="0.65989">
        <ele>520</ele>
        <time>2019-08-08T08:41:46.000Z</time>
      </trkpt>
      <trkpt lat="42.91391" lon="0.65999">
        <ele>520</ele>
        <time>2019-08-08T08:41:47.000Z</time>
      </trkpt>
      <trkpt lat="42.91393" lon="0.66009">
        <ele>520</ele>
        <time>2019-08-08T08:41:48.000Z</time>
      </trkpt>
      <trkpt lat="42.91396" lon="0.66019">
        <ele>520</ele>
        <time>2019-08-08T08:41:49.000Z</time>
      </trkpt>
      <trkpt lat="42.91399" lon="0.66029">
        <ele>519</ele>
        <time>2019-08-08T08:41:50.000Z</time>
      </trkpt>
      <trkpt lat="42.91401" lon="0.6604">
        <ele>519</ele>
        <time>2019-08-08T08:41:51.000Z</time>
      </trkpt>
      <trkpt lat="42.91403" lon="0.6605">
        <ele>519</ele>
        <time>2019-08-08T08:41:52.000Z</time>
      </trkpt>
      <trkpt lat="42.91405" lon="0.66061">
        <ele>519</ele>
        <time>2019-08-08T08:41:53.000Z</time>
      </trkpt>
      <trkpt lat="42.91408" lon="0.66071">
        <ele>518</ele>
        <time>2019-08-08T08:41:54.000Z</time>
      </trkpt>
      <trkpt lat="42.9141" lon="0.66082">
        <ele>518</ele>
        <time>2019-08-08T08:41:55.000Z</time>
      </trkpt>
      <trkpt lat="42.91412" lon="0.66092">
        <ele>517</ele>
        <time>2019-08-08T08:41:56.000Z</time>
      </trkpt>
      <trkpt lat="42.91415" lon="0.66103">
        <ele>517</ele>
        <time>2019-08-08T08:41:57.000Z</time>
      </trkpt>
      <trkpt lat="42.91417" lon="0.66113">
        <ele>516</ele>
        <time>2019-08-08T08:41:58.000Z</time>
      </trkpt>
      <trkpt lat="42.91419" lon="0.66124">
        <ele>516</ele>
        <time>2019-08-08T08:41:59.000Z</time>
      </trkpt>
      <trkpt lat="42.91421" lon="0.66135">
        <ele>515</ele>
        <time>2019-08-08T08:42:00.000Z</time>
      </trkpt>
      <trkpt lat="42.91424" lon="0.66146">
        <ele>515</ele>
        <time>2019-08-08T08:42:01.000Z</time>
      </trkpt>
      <trkpt lat="42.91426" lon="0.66158">
        <ele>514</ele>
        <time>2019-08-08T08:42:02.000Z</time>
      </trkpt>
      <trkpt lat="42.91428" lon="0.66169">
        <ele>514</ele>
        <time>2019-08-08T08:42:03.000Z</time>
      </trkpt>
      <trkpt lat="42.91431" lon="0.66181">
        <ele>514</ele>
        <time>2019-08-08T08:42:04.000Z</time>
      </trkpt>
      <trkpt lat="42.91433" lon="0.66193">
        <ele>513</ele>
        <time>2019-08-08T08:42:05.000Z</time>
      </trkpt>
      <trkpt lat="42.91436" lon="0.66205">
        <ele>513</ele>
        <time>2019-08-08T08:42:06.000Z</time>
      </trkpt>
      <trkpt lat="42.91439" lon="0.66217">
        <ele>513</ele>
        <time>2019-08-08T08:42:07.000Z</time>
      </trkpt>
      <trkpt lat="42.91442" lon="0.66229">
        <ele>513</ele>
        <time>2019-08-08T08:42:08.000Z</time>
      </trkpt>
      <trkpt lat="42.91445" lon="0.66242">
        <ele>511</ele>
        <time>2019-08-08T08:42:09.000Z</time>
      </trkpt>
      <trkpt lat="42.91448" lon="0.66254">
        <ele>511</ele>
        <time>2019-08-08T08:42:10.000Z</time>
      </trkpt>
      <trkpt lat="42.91452" lon="0.66267">
        <ele>510</ele>
        <time>2019-08-08T08:42:11.000Z</time>
      </trkpt>
      <trkpt lat="42.91455" lon="0.6628">
        <ele>510</ele>
        <time>2019-08-08T08:42:12.000Z</time>
      </trkpt>
      <trkpt lat="42.91457" lon="0.66293">
        <ele>510</ele>
        <time>2019-08-08T08:42:13.000Z</time>
      </trkpt>
      <trkpt lat="42.9146" lon="0.66306">
        <ele>509</ele>
        <time>2019-08-08T08:42:14.000Z</time>
      </trkpt>
      <trkpt lat="42.91462" lon="0.6632">
        <ele>509</ele>
        <time>2019-08-08T08:42:15.000Z</time>
      </trkpt>
      <trkpt lat="42.91465" lon="0.66333">
        <ele>508</ele>
        <time>2019-08-08T08:42:16.000Z</time>
      </trkpt>
      <trkpt lat="42.91467" lon="0.66347">
        <ele>508</ele>
        <time>2019-08-08T08:42:17.000Z</time>
      </trkpt>
      <trkpt lat="42.9147" lon="0.6636">
        <ele>508</ele>
        <time>2019-08-08T08:42:18.000Z</time>
      </trkpt>
      <trkpt lat="42.91472" lon="0.66374">
        <ele>508</ele>
        <time>2019-08-08T08:42:19.000Z</time>
      </trkpt>
      <trkpt lat="42.91475" lon="0.66388">
        <ele>507</ele>
        <time>2019-08-08T08:42:20.000Z</time>
      </trkpt>
      <trkpt lat="42.91477" lon="0.66402">
        <ele>507</ele>
        <time>2019-08-08T08:42:21.000Z</time>
      </trkpt>
      <trkpt lat="42.9148" lon="0.66416">
        <ele>507</ele>
        <time>2019-08-08T08:42:22.000Z</time>
      </trkpt>
      <trkpt lat="42.91481" lon="0.66431">
        <ele>507</ele>
        <time>2019-08-08T08:42:23.000Z</time>
      </trkpt>
      <trkpt lat="42.91481" lon="0.66445">
        <ele>506</ele>
        <time>2019-08-08T08:42:24.000Z</time>
      </trkpt>
      <trkpt lat="42.91481" lon="0.6646">
        <ele>506</ele>
        <time>2019-08-08T08:42:25.000Z</time>
      </trkpt>
      <trkpt lat="42.91481" lon="0.66474">
        <ele>506</ele>
        <time>2019-08-08T08:42:26.000Z</time>
      </trkpt>
      <trkpt lat="42.91481" lon="0.66488">
        <ele>506</ele>
        <time>2019-08-08T08:42:27.000Z</time>
      </trkpt>
      <trkpt lat="42.9148" lon="0.66501">
        <ele>506</ele>
        <time>2019-08-08T08:42:28.000Z</time>
      </trkpt>
      <trkpt lat="42.91481" lon="0.66515">
        <ele>506</ele>
        <time>2019-08-08T08:42:29.000Z</time>
      </trkpt>
      <trkpt lat="42.91482" lon="0.66529">
        <ele>506</ele>
        <time>2019-08-08T08:42:30.000Z</time>
      </trkpt>
      <trkpt lat="42.91483" lon="0.66542">
        <ele>506</ele>
        <time>2019-08-08T08:42:31.000Z</time>
      </trkpt>
      <trkpt lat="42.91485" lon="0.66555">
        <ele>506</ele>
        <time>2019-08-08T08:42:32.000Z</time>
      </trkpt>
      <trkpt lat="42.91488" lon="0.66568">
        <ele>506</ele>
        <time>2019-08-08T08:42:33.000Z</time>
      </trkpt>
      <trkpt lat="42.9149" lon="0.66581">
        <ele>506</ele>
        <time>2019-08-08T08:42:34.000Z</time>
      </trkpt>
      <trkpt lat="42.91493" lon="0.66593">
        <ele>506</ele>
        <time>2019-08-08T08:42:35.000Z</time>
      </trkpt>
      <trkpt lat="42.91495" lon="0.66605">
        <ele>506</ele>
        <time>2019-08-08T08:42:36.000Z</time>
      </trkpt>
      <trkpt lat="42.91499" lon="0.66622">
        <ele>506</ele>
        <time>2019-08-08T08:42:37.000Z</time>
      </trkpt>
      <trkpt lat="42.915" lon="0.66628">
        <ele>506</ele>
        <time>2019-08-08T08:42:38.000Z</time>
      </trkpt>
      <trkpt lat="42.91502" lon="0.66639">
        <ele>507</ele>
        <time>2019-08-08T08:42:39.000Z</time>
      </trkpt>
      <trkpt lat="42.91505" lon="0.66649">
        <ele>507</ele>
        <time>2019-08-08T08:42:40.000Z</time>
      </trkpt>
      <trkpt lat="42.91507" lon="0.6666">
        <ele>508</ele>
        <time>2019-08-08T08:42:41.000Z</time>
      </trkpt>
      <trkpt lat="42.91508" lon="0.66674">
        <ele>508</ele>
        <time>2019-08-08T08:42:42.000Z</time>
      </trkpt>
      <trkpt lat="42.91508" lon="0.66678">
        <ele>508</ele>
        <time>2019-08-08T08:42:43.000Z</time>
      </trkpt>
      <trkpt lat="42.91507" lon="0.6669">
        <ele>508</ele>
        <time>2019-08-08T08:42:44.000Z</time>
      </trkpt>
      <trkpt lat="42.91507" lon="0.66694">
        <ele>509</ele>
        <time>2019-08-08T08:42:45.000Z</time>
      </trkpt>
      <trkpt lat="42.91507" lon="0.66705">
        <ele>509</ele>
        <time>2019-08-08T08:42:46.000Z</time>
      </trkpt>
      <trkpt lat="42.91507" lon="0.66709">
        <ele>509</ele>
        <time>2019-08-08T08:42:47.000Z</time>
      </trkpt>
      <trkpt lat="42.91508" lon="0.66721">
        <ele>509</ele>
        <time>2019-08-08T08:42:48.000Z</time>
      </trkpt>
      <trkpt lat="42.91508" lon="0.66724">
        <ele>510</ele>
        <time>2019-08-08T08:42:49.000Z</time>
      </trkpt>
      <trkpt lat="42.91508" lon="0.66727">
        <ele>510</ele>
        <time>2019-08-08T08:42:50.000Z</time>
      </trkpt>
      <trkpt lat="42.91508" lon="0.66737">
        <ele>510</ele>
        <time>2019-08-08T08:42:51.000Z</time>
      </trkpt>
      <trkpt lat="42.91505" lon="0.66762">
        <ele>511</ele>
        <time>2019-08-08T08:42:52.000Z</time>
      </trkpt>
      <trkpt lat="42.91505" lon="0.66768">
        <ele>511</ele>
        <time>2019-08-08T08:42:53.000Z</time>
      </trkpt>
      <trkpt lat="42.91506" lon="0.6678">
        <ele>511</ele>
        <time>2019-08-08T08:42:54.000Z</time>
      </trkpt>
      <trkpt lat="42.91507" lon="0.66799">
        <ele>511</ele>
        <time>2019-08-08T08:42:55.000Z</time>
      </trkpt>
      <trkpt lat="42.91508" lon="0.66805">
        <ele>510</ele>
        <time>2019-08-08T08:42:56.000Z</time>
      </trkpt>
      <trkpt lat="42.9151" lon="0.66821">
        <ele>510</ele>
        <time>2019-08-08T08:42:57.000Z</time>
      </trkpt>
      <trkpt lat="42.91511" lon="0.66827">
        <ele>509</ele>
        <time>2019-08-08T08:42:58.000Z</time>
      </trkpt>
      <trkpt lat="42.91513" lon="0.66837">
        <ele>509</ele>
        <time>2019-08-08T08:42:59.000Z</time>
      </trkpt>
      <trkpt lat="42.91521" lon="0.66852">
        <ele>508</ele>
        <time>2019-08-08T08:43:00.000Z</time>
      </trkpt>
      <trkpt lat="42.91523" lon="0.66856">
        <ele>508</ele>
        <time>2019-08-08T08:43:01.000Z</time>
      </trkpt>
      <trkpt lat="42.91531" lon="0.6687">
        <ele>506</ele>
        <time>2019-08-08T08:43:02.000Z</time>
      </trkpt>
      <trkpt lat="42.91534" lon="0.66874">
        <ele>506</ele>
        <time>2019-08-08T08:43:03.000Z</time>
      </trkpt>
      <trkpt lat="42.9154" lon="0.66883">
        <ele>506</ele>
        <time>2019-08-08T08:43:04.000Z</time>
      </trkpt>
      <trkpt lat="42.91547" lon="0.66894">
        <ele>506</ele>
        <time>2019-08-08T08:43:05.000Z</time>
      </trkpt>
      <trkpt lat="42.91554" lon="0.66904">
        <ele>506</ele>
        <time>2019-08-08T08:43:06.000Z</time>
      </trkpt>
      <trkpt lat="42.91566" lon="0.6692">
        <ele>506</ele>
        <time>2019-08-08T08:43:07.000Z</time>
      </trkpt>
      <trkpt lat="42.9157" lon="0.66925">
        <ele>505.6</ele>
        <time>2019-08-08T08:43:08.000Z</time>
      </trkpt>
      <trkpt lat="42.91579" lon="0.66937">
        <ele>505</ele>
        <time>2019-08-08T08:43:09.000Z</time>
      </trkpt>
      <trkpt lat="42.91587" lon="0.66949">
        <ele>505</ele>
        <time>2019-08-08T08:43:10.000Z</time>
      </trkpt>
      <trkpt lat="42.91593" lon="0.66962">
        <ele>504</ele>
        <time>2019-08-08T08:43:11.000Z</time>
      </trkpt>
      <trkpt lat="42.91598" lon="0.66974">
        <ele>504</ele>
        <time>2019-08-08T08:43:12.000Z</time>
      </trkpt>
      <trkpt lat="42.91602" lon="0.66986">
        <ele>503</ele>
        <time>2019-08-08T08:43:13.000Z</time>
      </trkpt>
      <trkpt lat="42.91606" lon="0.66998">
        <ele>503</ele>
        <time>2019-08-08T08:43:14.000Z</time>
      </trkpt>
      <trkpt lat="42.91609" lon="0.6701">
        <ele>503</ele>
        <time>2019-08-08T08:43:15.000Z</time>
      </trkpt>
      <trkpt lat="42.91612" lon="0.67022">
        <ele>503</ele>
        <time>2019-08-08T08:43:16.000Z</time>
      </trkpt>
      <trkpt lat="42.91615" lon="0.67034">
        <ele>503</ele>
        <time>2019-08-08T08:43:17.000Z</time>
      </trkpt>
      <trkpt lat="42.91619" lon="0.67052">
        <ele>503</ele>
        <time>2019-08-08T08:43:18.000Z</time>
      </trkpt>
      <trkpt lat="42.9162" lon="0.67058">
        <ele>504</ele>
        <time>2019-08-08T08:43:19.000Z</time>
      </trkpt>
      <trkpt lat="42.91624" lon="0.67075">
        <ele>504</ele>
        <time>2019-08-08T08:43:20.000Z</time>
      </trkpt>
      <trkpt lat="42.91626" lon="0.6708">
        <ele>504</ele>
        <time>2019-08-08T08:43:21.000Z</time>
      </trkpt>
      <trkpt lat="42.9163" lon="0.67097">
        <ele>504</ele>
        <time>2019-08-08T08:43:22.000Z</time>
      </trkpt>
      <trkpt lat="42.91632" lon="0.67103">
        <ele>504</ele>
        <time>2019-08-08T08:43:23.000Z</time>
      </trkpt>
      <trkpt lat="42.91637" lon="0.67119">
        <ele>504</ele>
        <time>2019-08-08T08:43:24.000Z</time>
      </trkpt>
      <trkpt lat="42.91638" lon="0.67125">
        <ele>504</ele>
        <time>2019-08-08T08:43:25.000Z</time>
      </trkpt>
      <trkpt lat="42.91643" lon="0.67141">
        <ele>504</ele>
        <time>2019-08-08T08:43:26.000Z</time>
      </trkpt>
      <trkpt lat="42.91645" lon="0.67146">
        <ele>504</ele>
        <time>2019-08-08T08:43:27.000Z</time>
      </trkpt>
      <trkpt lat="42.91651" lon="0.67163">
        <ele>504</ele>
        <time>2019-08-08T08:43:28.000Z</time>
      </trkpt>
      <trkpt lat="42.91653" lon="0.67168">
        <ele>504</ele>
        <time>2019-08-08T08:43:29.000Z</time>
      </trkpt>
      <trkpt lat="42.91658" lon="0.67185">
        <ele>504</ele>
        <time>2019-08-08T08:43:30.000Z</time>
      </trkpt>
      <trkpt lat="42.9166" lon="0.6719">
        <ele>504</ele>
        <time>2019-08-08T08:43:31.000Z</time>
      </trkpt>
      <trkpt lat="42.91666" lon="0.67207">
        <ele>504</ele>
        <time>2019-08-08T08:43:32.000Z</time>
      </trkpt>
      <trkpt lat="42.91667" lon="0.67212">
        <ele>505</ele>
        <time>2019-08-08T08:43:33.000Z</time>
      </trkpt>
      <trkpt lat="42.91671" lon="0.67229">
        <ele>505</ele>
        <time>2019-08-08T08:43:34.000Z</time>
      </trkpt>
      <trkpt lat="42.91673" lon="0.67235">
        <ele>505</ele>
        <time>2019-08-08T08:43:35.000Z</time>
      </trkpt>
      <trkpt lat="42.91676" lon="0.67252">
        <ele>505</ele>
        <time>2019-08-08T08:43:36.000Z</time>
      </trkpt>
      <trkpt lat="42.91676" lon="0.67258">
        <ele>504</ele>
        <time>2019-08-08T08:43:37.000Z</time>
      </trkpt>
      <trkpt lat="42.91678" lon="0.67275">
        <ele>504</ele>
        <time>2019-08-08T08:43:38.000Z</time>
      </trkpt>
      <trkpt lat="42.91679" lon="0.6728">
        <ele>504</ele>
        <time>2019-08-08T08:43:39.000Z</time>
      </trkpt>
      <trkpt lat="42.91679" lon="0.67297">
        <ele>504</ele>
        <time>2019-08-08T08:43:40.000Z</time>
      </trkpt>
      <trkpt lat="42.91678" lon="0.67302">
        <ele>504</ele>
        <time>2019-08-08T08:43:41.000Z</time>
      </trkpt>
      <trkpt lat="42.91677" lon="0.67317">
        <ele>504</ele>
        <time>2019-08-08T08:43:42.000Z</time>
      </trkpt>
      <trkpt lat="42.91676" lon="0.67323">
        <ele>504</ele>
        <time>2019-08-08T08:43:43.000Z</time>
      </trkpt>
      <trkpt lat="42.91673" lon="0.67338">
        <ele>504</ele>
        <time>2019-08-08T08:43:44.000Z</time>
      </trkpt>
      <trkpt lat="42.91671" lon="0.67343">
        <ele>504</ele>
        <time>2019-08-08T08:43:45.000Z</time>
      </trkpt>
      <trkpt lat="42.91665" lon="0.67357">
        <ele>504</ele>
        <time>2019-08-08T08:43:46.000Z</time>
      </trkpt>
      <trkpt lat="42.91663" lon="0.67362">
        <ele>504</ele>
        <time>2019-08-08T08:43:47.000Z</time>
      </trkpt>
      <trkpt lat="42.9166" lon="0.67377">
        <ele>504</ele>
        <time>2019-08-08T08:43:48.000Z</time>
      </trkpt>
      <trkpt lat="42.91661" lon="0.67383">
        <ele>504</ele>
        <time>2019-08-08T08:43:49.000Z</time>
      </trkpt>
      <trkpt lat="42.91664" lon="0.674">
        <ele>504</ele>
        <time>2019-08-08T08:43:50.000Z</time>
      </trkpt>
      <trkpt lat="42.91665" lon="0.67405">
        <ele>505</ele>
        <time>2019-08-08T08:43:51.000Z</time>
      </trkpt>
      <trkpt lat="42.91668" lon="0.67421">
        <ele>505</ele>
        <time>2019-08-08T08:43:52.000Z</time>
      </trkpt>
      <trkpt lat="42.91668" lon="0.67426">
        <ele>505</ele>
        <time>2019-08-08T08:43:53.000Z</time>
      </trkpt>
      <trkpt lat="42.91671" lon="0.67439">
        <ele>505</ele>
        <time>2019-08-08T08:43:54.000Z</time>
      </trkpt>
      <trkpt lat="42.91672" lon="0.67443">
        <ele>506</ele>
        <time>2019-08-08T08:43:55.000Z</time>
      </trkpt>
      <trkpt lat="42.91675" lon="0.67455">
        <ele>506</ele>
        <time>2019-08-08T08:43:56.000Z</time>
      </trkpt>
      <trkpt lat="42.91676" lon="0.67459">
        <ele>507</ele>
        <time>2019-08-08T08:43:57.000Z</time>
      </trkpt>
      <trkpt lat="42.91681" lon="0.67471">
        <ele>507</ele>
        <time>2019-08-08T08:43:58.000Z</time>
      </trkpt>
      <trkpt lat="42.91682" lon="0.67475">
        <ele>507</ele>
        <time>2019-08-08T08:43:59.000Z</time>
      </trkpt>
      <trkpt lat="42.91687" lon="0.67489">
        <ele>507</ele>
        <time>2019-08-08T08:44:00.000Z</time>
      </trkpt>
      <trkpt lat="42.91688" lon="0.67494">
        <ele>507</ele>
        <time>2019-08-08T08:44:01.000Z</time>
      </trkpt>
      <trkpt lat="42.91692" lon="0.67509">
        <ele>507</ele>
        <time>2019-08-08T08:44:02.000Z</time>
      </trkpt>
      <trkpt lat="42.91693" lon="0.67514">
        <ele>506</ele>
        <time>2019-08-08T08:44:03.000Z</time>
      </trkpt>
      <trkpt lat="42.91694" lon="0.67529">
        <ele>506</ele>
        <time>2019-08-08T08:44:04.000Z</time>
      </trkpt>
      <trkpt lat="42.91694" lon="0.67535">
        <ele>506</ele>
        <time>2019-08-08T08:44:05.000Z</time>
      </trkpt>
      <trkpt lat="42.91694" lon="0.67551">
        <ele>506</ele>
        <time>2019-08-08T08:44:06.000Z</time>
      </trkpt>
      <trkpt lat="42.91694" lon="0.67557">
        <ele>506</ele>
        <time>2019-08-08T08:44:07.000Z</time>
      </trkpt>
      <trkpt lat="42.91693" lon="0.67574">
        <ele>505</ele>
        <time>2019-08-08T08:44:08.000Z</time>
      </trkpt>
      <trkpt lat="42.91692" lon="0.67579">
        <ele>505</ele>
        <time>2019-08-08T08:44:09.000Z</time>
      </trkpt>
      <trkpt lat="42.91691" lon="0.6759">
        <ele>504</ele>
        <time>2019-08-08T08:44:10.000Z</time>
      </trkpt>
      <trkpt lat="42.91692" lon="0.67608">
        <ele>504</ele>
        <time>2019-08-08T08:44:11.000Z</time>
      </trkpt>
      <trkpt lat="42.91692" lon="0.67614">
        <ele>504</ele>
        <time>2019-08-08T08:44:12.000Z</time>
      </trkpt>
      <trkpt lat="42.91693" lon="0.67626">
        <ele>504</ele>
        <time>2019-08-08T08:44:13.000Z</time>
      </trkpt>
      <trkpt lat="42.91694" lon="0.67638">
        <ele>504</ele>
        <time>2019-08-08T08:44:14.000Z</time>
      </trkpt>
      <trkpt lat="42.91696" lon="0.67656">
        <ele>504</ele>
        <time>2019-08-08T08:44:15.000Z</time>
      </trkpt>
      <trkpt lat="42.91696" lon="0.67662">
        <ele>504</ele>
        <time>2019-08-08T08:44:16.000Z</time>
      </trkpt>
      <trkpt lat="42.91698" lon="0.67679">
        <ele>504</ele>
        <time>2019-08-08T08:44:17.000Z</time>
      </trkpt>
      <trkpt lat="42.91699" lon="0.67684">
        <ele>504</ele>
        <time>2019-08-08T08:44:18.000Z</time>
      </trkpt>
      <trkpt lat="42.91701" lon="0.677">
        <ele>504</ele>
        <time>2019-08-08T08:44:19.000Z</time>
      </trkpt>
      <trkpt lat="42.91701" lon="0.67706">
        <ele>504</ele>
        <time>2019-08-08T08:44:20.000Z</time>
      </trkpt>
      <trkpt lat="42.91704" lon="0.67721">
        <ele>504</ele>
        <time>2019-08-08T08:44:21.000Z</time>
      </trkpt>
      <trkpt lat="42.91704" lon="0.67726">
        <ele>504</ele>
        <time>2019-08-08T08:44:22.000Z</time>
      </trkpt>
      <trkpt lat="42.91706" lon="0.67741">
        <ele>504</ele>
        <time>2019-08-08T08:44:23.000Z</time>
      </trkpt>
      <trkpt lat="42.91707" lon="0.67747">
        <ele>504</ele>
        <time>2019-08-08T08:44:24.000Z</time>
      </trkpt>
      <trkpt lat="42.91708" lon="0.67752">
        <ele>504</ele>
        <time>2019-08-08T08:44:25.000Z</time>
      </trkpt>
      <trkpt lat="42.9171" lon="0.67772">
        <ele>504</ele>
        <time>2019-08-08T08:44:26.000Z</time>
      </trkpt>
      <trkpt lat="42.91711" lon="0.67777">
        <ele>504</ele>
        <time>2019-08-08T08:44:27.000Z</time>
      </trkpt>
      <trkpt lat="42.91712" lon="0.67792">
        <ele>504</ele>
        <time>2019-08-08T08:44:28.000Z</time>
      </trkpt>
      <trkpt lat="42.91713" lon="0.67797">
        <ele>504</ele>
        <time>2019-08-08T08:44:29.000Z</time>
      </trkpt>
      <trkpt lat="42.91715" lon="0.67811">
        <ele>504</ele>
        <time>2019-08-08T08:44:30.000Z</time>
      </trkpt>
      <trkpt lat="42.91715" lon="0.67816">
        <ele>504</ele>
        <time>2019-08-08T08:44:31.000Z</time>
      </trkpt>
      <trkpt lat="42.91717" lon="0.67831">
        <ele>504</ele>
        <time>2019-08-08T08:44:32.000Z</time>
      </trkpt>
      <trkpt lat="42.91718" lon="0.67836">
        <ele>504</ele>
        <time>2019-08-08T08:44:33.000Z</time>
      </trkpt>
      <trkpt lat="42.91719" lon="0.67851">
        <ele>504</ele>
        <time>2019-08-08T08:44:34.000Z</time>
      </trkpt>
      <trkpt lat="42.9172" lon="0.67856">
        <ele>504</ele>
        <time>2019-08-08T08:44:35.000Z</time>
      </trkpt>
      <trkpt lat="42.91722" lon="0.67871">
        <ele>504</ele>
        <time>2019-08-08T08:44:36.000Z</time>
      </trkpt>
      <trkpt lat="42.91722" lon="0.67876">
        <ele>505</ele>
        <time>2019-08-08T08:44:37.000Z</time>
      </trkpt>
      <trkpt lat="42.91723" lon="0.6789">
        <ele>505</ele>
        <time>2019-08-08T08:44:38.000Z</time>
      </trkpt>
      <trkpt lat="42.91724" lon="0.67895">
        <ele>505</ele>
        <time>2019-08-08T08:44:39.000Z</time>
      </trkpt>
      <trkpt lat="42.91725" lon="0.6791">
        <ele>505</ele>
        <time>2019-08-08T08:44:40.000Z</time>
      </trkpt>
      <trkpt lat="42.91725" lon="0.67915">
        <ele>505</ele>
        <time>2019-08-08T08:44:41.000Z</time>
      </trkpt>
      <trkpt lat="42.91726" lon="0.67931">
        <ele>505</ele>
        <time>2019-08-08T08:44:42.000Z</time>
      </trkpt>
      <trkpt lat="42.91727" lon="0.67936">
        <ele>504</ele>
        <time>2019-08-08T08:44:43.000Z</time>
      </trkpt>
      <trkpt lat="42.91728" lon="0.67952">
        <ele>504</ele>
        <time>2019-08-08T08:44:44.000Z</time>
      </trkpt>
      <trkpt lat="42.91727" lon="0.67957">
        <ele>504</ele>
        <time>2019-08-08T08:44:45.000Z</time>
      </trkpt>
      <trkpt lat="42.91725" lon="0.67972">
        <ele>504</ele>
        <time>2019-08-08T08:44:46.000Z</time>
      </trkpt>
      <trkpt lat="42.91723" lon="0.67977">
        <ele>504</ele>
        <time>2019-08-08T08:44:47.000Z</time>
      </trkpt>
      <trkpt lat="42.91719" lon="0.67986">
        <ele>505</ele>
        <time>2019-08-08T08:44:48.000Z</time>
      </trkpt>
      <trkpt lat="42.9172" lon="0.68004">
        <ele>505</ele>
        <time>2019-08-08T08:44:49.000Z</time>
      </trkpt>
      <trkpt lat="42.91718" lon="0.68009">
        <ele>505</ele>
        <time>2019-08-08T08:44:50.000Z</time>
      </trkpt>
      <trkpt lat="42.91715" lon="0.68025">
        <ele>505</ele>
        <time>2019-08-08T08:44:51.000Z</time>
      </trkpt>
      <trkpt lat="42.91715" lon="0.6803">
        <ele>505</ele>
        <time>2019-08-08T08:44:52.000Z</time>
      </trkpt>
      <trkpt lat="42.91715" lon="0.68047">
        <ele>505</ele>
        <time>2019-08-08T08:44:53.000Z</time>
      </trkpt>
      <trkpt lat="42.91716" lon="0.68052">
        <ele>505</ele>
        <time>2019-08-08T08:44:54.000Z</time>
      </trkpt>
      <trkpt lat="42.91718" lon="0.68063">
        <ele>505</ele>
        <time>2019-08-08T08:44:55.000Z</time>
      </trkpt>
      <trkpt lat="42.91724" lon="0.68082">
        <ele>505</ele>
        <time>2019-08-08T08:44:56.000Z</time>
      </trkpt>
      <trkpt lat="42.91725" lon="0.68087">
        <ele>505</ele>
        <time>2019-08-08T08:44:57.000Z</time>
      </trkpt>
      <trkpt lat="42.9173" lon="0.68103">
        <ele>505</ele>
        <time>2019-08-08T08:44:58.000Z</time>
      </trkpt>
      <trkpt lat="42.91731" lon="0.68108">
        <ele>505</ele>
        <time>2019-08-08T08:44:59.000Z</time>
      </trkpt>
      <trkpt lat="42.91735" lon="0.68123">
        <ele>505</ele>
        <time>2019-08-08T08:45:00.000Z</time>
      </trkpt>
      <trkpt lat="42.91736" lon="0.68128">
        <ele>505</ele>
        <time>2019-08-08T08:45:01.000Z</time>
      </trkpt>
      <trkpt lat="42.91739" lon="0.68142">
        <ele>506</ele>
        <time>2019-08-08T08:45:02.000Z</time>
      </trkpt>
      <trkpt lat="42.9174" lon="0.68147">
        <ele>506</ele>
        <time>2019-08-08T08:45:03.000Z</time>
      </trkpt>
      <trkpt lat="42.91743" lon="0.68161">
        <ele>506</ele>
        <time>2019-08-08T08:45:04.000Z</time>
      </trkpt>
      <trkpt lat="42.91743" lon="0.68166">
        <ele>506</ele>
        <time>2019-08-08T08:45:05.000Z</time>
      </trkpt>
      <trkpt lat="42.91745" lon="0.68181">
        <ele>506</ele>
        <time>2019-08-08T08:45:06.000Z</time>
      </trkpt>
      <trkpt lat="42.91746" lon="0.68186">
        <ele>506</ele>
        <time>2019-08-08T08:45:07.000Z</time>
      </trkpt>
      <trkpt lat="42.91748" lon="0.682">
        <ele>506</ele>
        <time>2019-08-08T08:45:08.000Z</time>
      </trkpt>
      <trkpt lat="42.91748" lon="0.68205">
        <ele>507</ele>
        <time>2019-08-08T08:45:09.000Z</time>
      </trkpt>
      <trkpt lat="42.9175" lon="0.68219">
        <ele>507</ele>
        <time>2019-08-08T08:45:10.000Z</time>
      </trkpt>
      <trkpt lat="42.9175" lon="0.68224">
        <ele>507</ele>
        <time>2019-08-08T08:45:11.000Z</time>
      </trkpt>
      <trkpt lat="42.9175" lon="0.68238">
        <ele>507</ele>
        <time>2019-08-08T08:45:12.000Z</time>
      </trkpt>
      <trkpt lat="42.9175" lon="0.68243">
        <ele>507</ele>
        <time>2019-08-08T08:45:13.000Z</time>
      </trkpt>
      <trkpt lat="42.9175" lon="0.68257">
        <ele>507</ele>
        <time>2019-08-08T08:45:14.000Z</time>
      </trkpt>
      <trkpt lat="42.9175" lon="0.68262">
        <ele>508</ele>
        <time>2019-08-08T08:45:15.000Z</time>
      </trkpt>
      <trkpt lat="42.91749" lon="0.68276">
        <ele>508</ele>
        <time>2019-08-08T08:45:16.000Z</time>
      </trkpt>
      <trkpt lat="42.91749" lon="0.68281">
        <ele>508</ele>
        <time>2019-08-08T08:45:17.000Z</time>
      </trkpt>
      <trkpt lat="42.91748" lon="0.68294">
        <ele>508</ele>
        <time>2019-08-08T08:45:18.000Z</time>
      </trkpt>
      <trkpt lat="42.91747" lon="0.68299">
        <ele>508</ele>
        <time>2019-08-08T08:45:19.000Z</time>
      </trkpt>
      <trkpt lat="42.91746" lon="0.68311">
        <ele>508</ele>
        <time>2019-08-08T08:45:20.000Z</time>
      </trkpt>
      <trkpt lat="42.91746" lon="0.68314">
        <ele>509</ele>
        <time>2019-08-08T08:45:21.000Z</time>
      </trkpt>
      <trkpt lat="42.91746" lon="0.68317">
        <ele>509</ele>
        <time>2019-08-08T08:45:22.000Z</time>
      </trkpt>
      <trkpt lat="42.91745" lon="0.68327">
        <ele>509</ele>
        <time>2019-08-08T08:45:23.000Z</time>
      </trkpt>
      <trkpt lat="42.91743" lon="0.68351">
        <ele>509</ele>
        <time>2019-08-08T08:45:24.000Z</time>
      </trkpt>
      <trkpt lat="42.91742" lon="0.68357">
        <ele>509</ele>
        <time>2019-08-08T08:45:25.000Z</time>
      </trkpt>
      <trkpt lat="42.91741" lon="0.68372">
        <ele>509</ele>
        <time>2019-08-08T08:45:26.000Z</time>
      </trkpt>
      <trkpt lat="42.9174" lon="0.68377">
        <ele>509</ele>
        <time>2019-08-08T08:45:27.000Z</time>
      </trkpt>
      <trkpt lat="42.9174" lon="0.68391">
        <ele>510</ele>
        <time>2019-08-08T08:45:28.000Z</time>
      </trkpt>
      <trkpt lat="42.9174" lon="0.68396">
        <ele>510</ele>
        <time>2019-08-08T08:45:29.000Z</time>
      </trkpt>
      <trkpt lat="42.91738" lon="0.6841">
        <ele>511</ele>
        <time>2019-08-08T08:45:30.000Z</time>
      </trkpt>
      <trkpt lat="42.91737" lon="0.68415">
        <ele>511</ele>
        <time>2019-08-08T08:45:31.000Z</time>
      </trkpt>
      <trkpt lat="42.91735" lon="0.6843">
        <ele>511</ele>
        <time>2019-08-08T08:45:32.000Z</time>
      </trkpt>
      <trkpt lat="42.91735" lon="0.68435">
        <ele>511</ele>
        <time>2019-08-08T08:45:33.000Z</time>
      </trkpt>
      <trkpt lat="42.91734" lon="0.6845">
        <ele>511</ele>
        <time>2019-08-08T08:45:34.000Z</time>
      </trkpt>
      <trkpt lat="42.91734" lon="0.68455">
        <ele>511</ele>
        <time>2019-08-08T08:45:35.000Z</time>
      </trkpt>
      <trkpt lat="42.91733" lon="0.6847">
        <ele>511</ele>
        <time>2019-08-08T08:45:36.000Z</time>
      </trkpt>
      <trkpt lat="42.91732" lon="0.68474">
        <ele>511</ele>
        <time>2019-08-08T08:45:37.000Z</time>
      </trkpt>
      <trkpt lat="42.91731" lon="0.68484">
        <ele>511</ele>
        <time>2019-08-08T08:45:38.000Z</time>
      </trkpt>
      <trkpt lat="42.91729" lon="0.68503">
        <ele>511</ele>
        <time>2019-08-08T08:45:40.000Z</time>
      </trkpt>
      <trkpt lat="42.91729" lon="0.68503">
        <ele>511</ele>
        <time>2019-08-08T08:45:41.000Z</time>
      </trkpt>
      <trkpt lat="42.91726" lon="0.68526">
        <ele>511</ele>
        <time>2019-08-08T08:45:42.000Z</time>
      </trkpt>
      <trkpt lat="42.91724" lon="0.68531">
        <ele>511</ele>
        <time>2019-08-08T08:45:43.000Z</time>
      </trkpt>
      <trkpt lat="42.9172" lon="0.68544">
        <ele>511</ele>
        <time>2019-08-08T08:45:44.000Z</time>
      </trkpt>
      <trkpt lat="42.91718" lon="0.68549">
        <ele>511</ele>
        <time>2019-08-08T08:45:45.000Z</time>
      </trkpt>
      <trkpt lat="42.91714" lon="0.68562">
        <ele>511</ele>
        <time>2019-08-08T08:45:46.000Z</time>
      </trkpt>
      <trkpt lat="42.91712" lon="0.68566">
        <ele>511</ele>
        <time>2019-08-08T08:45:47.000Z</time>
      </trkpt>
      <trkpt lat="42.91708" lon="0.68579">
        <ele>511</ele>
        <time>2019-08-08T08:45:48.000Z</time>
      </trkpt>
      <trkpt lat="42.91706" lon="0.68584">
        <ele>511</ele>
        <time>2019-08-08T08:45:49.000Z</time>
      </trkpt>
      <trkpt lat="42.91702" lon="0.68597">
        <ele>511</ele>
        <time>2019-08-08T08:45:50.000Z</time>
      </trkpt>
      <trkpt lat="42.917" lon="0.68601">
        <ele>511</ele>
        <time>2019-08-08T08:45:51.000Z</time>
      </trkpt>
      <trkpt lat="42.91694" lon="0.68613">
        <ele>511</ele>
        <time>2019-08-08T08:45:52.000Z</time>
      </trkpt>
      <trkpt lat="42.91692" lon="0.68618">
        <ele>511</ele>
        <time>2019-08-08T08:45:53.000Z</time>
      </trkpt>
      <trkpt lat="42.91686" lon="0.68631">
        <ele>511</ele>
        <time>2019-08-08T08:45:54.000Z</time>
      </trkpt>
      <trkpt lat="42.91685" lon="0.68635">
        <ele>511</ele>
        <time>2019-08-08T08:45:55.000Z</time>
      </trkpt>
      <trkpt lat="42.91681" lon="0.6865">
        <ele>510</ele>
        <time>2019-08-08T08:45:56.000Z</time>
      </trkpt>
      <trkpt lat="42.9168" lon="0.68654">
        <ele>510</ele>
        <time>2019-08-08T08:45:57.000Z</time>
      </trkpt>
      <trkpt lat="42.91677" lon="0.68669">
        <ele>510</ele>
        <time>2019-08-08T08:45:58.000Z</time>
      </trkpt>
      <trkpt lat="42.91676" lon="0.68673">
        <ele>510</ele>
        <time>2019-08-08T08:45:59.000Z</time>
      </trkpt>
      <trkpt lat="42.91673" lon="0.68687">
        <ele>510</ele>
        <time>2019-08-08T08:46:00.000Z</time>
      </trkpt>
      <trkpt lat="42.91672" lon="0.68692">
        <ele>510</ele>
        <time>2019-08-08T08:46:01.000Z</time>
      </trkpt>
      <trkpt lat="42.9167" lon="0.68706">
        <ele>510</ele>
        <time>2019-08-08T08:46:02.000Z</time>
      </trkpt>
      <trkpt lat="42.91669" lon="0.68711">
        <ele>510</ele>
        <time>2019-08-08T08:46:03.000Z</time>
      </trkpt>
      <trkpt lat="42.91666" lon="0.68726">
        <ele>510</ele>
        <time>2019-08-08T08:46:04.000Z</time>
      </trkpt>
      <trkpt lat="42.91666" lon="0.68731">
        <ele>510</ele>
        <time>2019-08-08T08:46:05.000Z</time>
      </trkpt>
      <trkpt lat="42.91665" lon="0.68746">
        <ele>511</ele>
        <time>2019-08-08T08:46:06.000Z</time>
      </trkpt>
      <trkpt lat="42.91665" lon="0.68751">
        <ele>511</ele>
        <time>2019-08-08T08:46:07.000Z</time>
      </trkpt>
      <trkpt lat="42.91664" lon="0.68766">
        <ele>512</ele>
        <time>2019-08-08T08:46:08.000Z</time>
      </trkpt>
      <trkpt lat="42.91664" lon="0.6877">
        <ele>512</ele>
        <time>2019-08-08T08:46:09.000Z</time>
      </trkpt>
      <trkpt lat="42.91664" lon="0.68784">
        <ele>512</ele>
        <time>2019-08-08T08:46:10.000Z</time>
      </trkpt>
      <trkpt lat="42.91665" lon="0.68788">
        <ele>512</ele>
        <time>2019-08-08T08:46:11.000Z</time>
      </trkpt>
      <trkpt lat="42.91666" lon="0.68803">
        <ele>511</ele>
        <time>2019-08-08T08:46:12.000Z</time>
      </trkpt>
      <trkpt lat="42.91667" lon="0.68807">
        <ele>511</ele>
        <time>2019-08-08T08:46:13.000Z</time>
      </trkpt>
      <trkpt lat="42.91668" lon="0.68822">
        <ele>511</ele>
        <time>2019-08-08T08:46:14.000Z</time>
      </trkpt>
      <trkpt lat="42.91669" lon="0.68827">
        <ele>511</ele>
        <time>2019-08-08T08:46:15.000Z</time>
      </trkpt>
      <trkpt lat="42.9167" lon="0.68841">
        <ele>511</ele>
        <time>2019-08-08T08:46:16.000Z</time>
      </trkpt>
      <trkpt lat="42.9167" lon="0.68846">
        <ele>511</ele>
        <time>2019-08-08T08:46:17.000Z</time>
      </trkpt>
      <trkpt lat="42.9167" lon="0.68861">
        <ele>511</ele>
        <time>2019-08-08T08:46:18.000Z</time>
      </trkpt>
      <trkpt lat="42.91669" lon="0.68865">
        <ele>511</ele>
        <time>2019-08-08T08:46:19.000Z</time>
      </trkpt>
      <trkpt lat="42.91667" lon="0.6888">
        <ele>511</ele>
        <time>2019-08-08T08:46:20.000Z</time>
      </trkpt>
      <trkpt lat="42.91666" lon="0.68885">
        <ele>511</ele>
        <time>2019-08-08T08:46:21.000Z</time>
      </trkpt>
      <trkpt lat="42.91663" lon="0.68899">
        <ele>511</ele>
        <time>2019-08-08T08:46:22.000Z</time>
      </trkpt>
      <trkpt lat="42.91661" lon="0.68903">
        <ele>511</ele>
        <time>2019-08-08T08:46:23.000Z</time>
      </trkpt>
      <trkpt lat="42.91657" lon="0.68916">
        <ele>511</ele>
        <time>2019-08-08T08:46:24.000Z</time>
      </trkpt>
      <trkpt lat="42.91654" lon="0.68921">
        <ele>511</ele>
        <time>2019-08-08T08:46:25.000Z</time>
      </trkpt>
      <trkpt lat="42.91648" lon="0.68933">
        <ele>511</ele>
        <time>2019-08-08T08:46:26.000Z</time>
      </trkpt>
      <trkpt lat="42.91646" lon="0.68938">
        <ele>511</ele>
        <time>2019-08-08T08:46:27.000Z</time>
      </trkpt>
      <trkpt lat="42.91641" lon="0.68951">
        <ele>511</ele>
        <time>2019-08-08T08:46:28.000Z</time>
      </trkpt>
      <trkpt lat="42.91639" lon="0.68955">
        <ele>511</ele>
        <time>2019-08-08T08:46:29.000Z</time>
      </trkpt>
      <trkpt lat="42.91632" lon="0.68968">
        <ele>511</ele>
        <time>2019-08-08T08:46:30.000Z</time>
      </trkpt>
      <trkpt lat="42.91631" lon="0.68972">
        <ele>511</ele>
        <time>2019-08-08T08:46:31.000Z</time>
      </trkpt>
      <trkpt lat="42.91625" lon="0.68986">
        <ele>510</ele>
        <time>2019-08-08T08:46:32.000Z</time>
      </trkpt>
      <trkpt lat="42.91623" lon="0.68991">
        <ele>510</ele>
        <time>2019-08-08T08:46:33.000Z</time>
      </trkpt>
      <trkpt lat="42.91617" lon="0.69004">
        <ele>510</ele>
        <time>2019-08-08T08:46:34.000Z</time>
      </trkpt>
      <trkpt lat="42.91615" lon="0.69009">
        <ele>510</ele>
        <time>2019-08-08T08:46:35.000Z</time>
      </trkpt>
      <trkpt lat="42.91613" lon="0.69013">
        <ele>510</ele>
        <time>2019-08-08T08:46:36.000Z</time>
      </trkpt>
      <trkpt lat="42.91605" lon="0.69031">
        <ele>511</ele>
        <time>2019-08-08T08:46:37.000Z</time>
      </trkpt>
      <trkpt lat="42.91603" lon="0.69035">
        <ele>511</ele>
        <time>2019-08-08T08:46:38.000Z</time>
      </trkpt>
      <trkpt lat="42.91597" lon="0.69049">
        <ele>511</ele>
        <time>2019-08-08T08:46:39.000Z</time>
      </trkpt>
      <trkpt lat="42.91596" lon="0.69053">
        <ele>511</ele>
        <time>2019-08-08T08:46:40.000Z</time>
      </trkpt>
      <trkpt lat="42.9159" lon="0.69066">
        <ele>511</ele>
        <time>2019-08-08T08:46:41.000Z</time>
      </trkpt>
      <trkpt lat="42.91588" lon="0.69071">
        <ele>511</ele>
        <time>2019-08-08T08:46:42.000Z</time>
      </trkpt>
      <trkpt lat="42.91582" lon="0.69084">
        <ele>511</ele>
        <time>2019-08-08T08:46:43.000Z</time>
      </trkpt>
      <trkpt lat="42.9158" lon="0.69088">
        <ele>510</ele>
        <time>2019-08-08T08:46:44.000Z</time>
      </trkpt>
      <trkpt lat="42.91576" lon="0.69102">
        <ele>510</ele>
        <time>2019-08-08T08:46:45.000Z</time>
      </trkpt>
      <trkpt lat="42.91574" lon="0.69106">
        <ele>511</ele>
        <time>2019-08-08T08:46:46.000Z</time>
      </trkpt>
      <trkpt lat="42.9157" lon="0.69119">
        <ele>511</ele>
        <time>2019-08-08T08:46:47.000Z</time>
      </trkpt>
      <trkpt lat="42.91568" lon="0.69124">
        <ele>511</ele>
        <time>2019-08-08T08:46:48.000Z</time>
      </trkpt>
      <trkpt lat="42.91562" lon="0.69137">
        <ele>511</ele>
        <time>2019-08-08T08:46:49.000Z</time>
      </trkpt>
      <trkpt lat="42.9156" lon="0.69142">
        <ele>511</ele>
        <time>2019-08-08T08:46:50.000Z</time>
      </trkpt>
      <trkpt lat="42.91555" lon="0.69156">
        <ele>511</ele>
        <time>2019-08-08T08:46:51.000Z</time>
      </trkpt>
      <trkpt lat="42.91553" lon="0.6916">
        <ele>511</ele>
        <time>2019-08-08T08:46:52.000Z</time>
      </trkpt>
      <trkpt lat="42.91548" lon="0.69172">
        <ele>511</ele>
        <time>2019-08-08T08:46:53.000Z</time>
      </trkpt>
      <trkpt lat="42.91546" lon="0.69176">
        <ele>511</ele>
        <time>2019-08-08T08:46:54.000Z</time>
      </trkpt>
      <trkpt lat="42.91542" lon="0.69185">
        <ele>511</ele>
        <time>2019-08-08T08:46:55.000Z</time>
      </trkpt>
      <trkpt lat="42.91541" lon="0.69187">
        <ele>511</ele>
        <time>2019-08-08T08:46:56.000Z</time>
      </trkpt>
      <trkpt lat="42.91541" lon="0.69188">
        <ele>511</ele>
        <time>2019-08-08T08:46:57.000Z</time>
      </trkpt>
      <trkpt lat="42.9154" lon="0.6919">
        <ele>512</ele>
        <time>2019-08-08T08:46:58.000Z</time>
      </trkpt>
      <trkpt lat="42.91538" lon="0.69197">
        <ele>512</ele>
        <time>2019-08-08T08:46:59.000Z</time>
      </trkpt>
      <trkpt lat="42.91538" lon="0.69197">
        <ele>512</ele>
        <time>2019-08-08T08:47:00.000Z</time>
      </trkpt>
      <trkpt lat="42.91538" lon="0.69197">
        <ele>512</ele>
        <time>2019-08-08T08:47:01.000Z</time>
      </trkpt>
      <trkpt lat="42.91538" lon="0.69197">
        <ele>512</ele>
        <time>2019-08-08T08:47:02.000Z</time>
      </trkpt>
      <trkpt lat="42.91531" lon="0.69212">
        <ele>512</ele>
        <time>2019-08-08T08:47:03.000Z</time>
      </trkpt>
      <trkpt lat="42.91529" lon="0.69215">
        <ele>512</ele>
        <time>2019-08-08T08:47:04.000Z</time>
      </trkpt>
      <trkpt lat="42.91524" lon="0.69224">
        <ele>511</ele>
        <time>2019-08-08T08:47:05.000Z</time>
      </trkpt>
      <trkpt lat="42.91522" lon="0.69227">
        <ele>511</ele>
        <time>2019-08-08T08:47:06.000Z</time>
      </trkpt>
      <trkpt lat="42.91516" lon="0.69237">
        <ele>511</ele>
        <time>2019-08-08T08:47:07.000Z</time>
      </trkpt>
      <trkpt lat="42.91513" lon="0.6924">
        <ele>511</ele>
        <time>2019-08-08T08:47:08.000Z</time>
      </trkpt>
      <trkpt lat="42.91506" lon="0.69251">
        <ele>511</ele>
        <time>2019-08-08T08:47:09.000Z</time>
      </trkpt>
      <trkpt lat="42.91504" lon="0.69255">
        <ele>511</ele>
        <time>2019-08-08T08:47:10.000Z</time>
      </trkpt>
      <trkpt lat="42.91499" lon="0.69266">
        <ele>511</ele>
        <time>2019-08-08T08:47:11.000Z</time>
      </trkpt>
      <trkpt lat="42.91496" lon="0.69268">
        <ele>511</ele>
        <time>2019-08-08T08:47:12.000Z</time>
      </trkpt>
      <trkpt lat="42.91489" lon="0.69275">
        <ele>511</ele>
        <time>2019-08-08T08:47:13.000Z</time>
      </trkpt>
      <trkpt lat="42.91487" lon="0.69277">
        <ele>511</ele>
        <time>2019-08-08T08:47:14.000Z</time>
      </trkpt>
      <trkpt lat="42.91486" lon="0.69278">
        <ele>511</ele>
        <time>2019-08-08T08:47:15.000Z</time>
      </trkpt>
      <trkpt lat="42.91481" lon="0.69283">
        <ele>511</ele>
        <time>2019-08-08T08:47:16.000Z</time>
      </trkpt>
      <trkpt lat="42.91481" lon="0.69283">
        <ele>511</ele>
        <time>2019-08-08T08:47:17.000Z</time>
      </trkpt>
      <trkpt lat="42.91481" lon="0.69283">
        <ele>511</ele>
        <time>2019-08-08T08:47:18.000Z</time>
      </trkpt>
      <trkpt lat="42.91472" lon="0.69291">
        <ele>511</ele>
        <time>2019-08-08T08:47:19.000Z</time>
      </trkpt>
      <trkpt lat="42.9147" lon="0.69291">
        <ele>511</ele>
        <time>2019-08-08T08:47:20.000Z</time>
      </trkpt>
      <trkpt lat="42.91469" lon="0.69291">
        <ele>511</ele>
        <time>2019-08-08T08:47:21.000Z</time>
      </trkpt>
      <trkpt lat="42.91467" lon="0.69291">
        <ele>511</ele>
        <time>2019-08-08T08:47:22.000Z</time>
      </trkpt>
      <trkpt lat="42.91465" lon="0.69291">
        <ele>511</ele>
        <time>2019-08-08T08:47:23.000Z</time>
      </trkpt>
      <trkpt lat="42.91464" lon="0.6929">
        <ele>511</ele>
        <time>2019-08-08T08:47:24.000Z</time>
      </trkpt>
      <trkpt lat="42.91462" lon="0.6929">
        <ele>511</ele>
        <time>2019-08-08T08:47:25.000Z</time>
      </trkpt>
      <trkpt lat="42.9146" lon="0.6929">
        <ele>511</ele>
        <time>2019-08-08T08:47:26.000Z</time>
      </trkpt>
      <trkpt lat="42.91459" lon="0.6929">
        <ele>511</ele>
        <time>2019-08-08T08:47:27.000Z</time>
      </trkpt>
      <trkpt lat="42.91457" lon="0.6929">
        <ele>512</ele>
        <time>2019-08-08T08:53:53.000Z</time>
      </trkpt>
      <trkpt lat="42.91455" lon="0.6929">
        <ele>512</ele>
        <time>2019-08-08T08:53:54.000Z</time>
      </trkpt>
      <trkpt lat="42.91454" lon="0.6929">
        <ele>512</ele>
        <time>2019-08-08T08:53:55.000Z</time>
      </trkpt>
      <trkpt lat="42.91447" lon="0.69293">
        <ele>512</ele>
        <time>2019-08-08T08:53:56.000Z</time>
      </trkpt>
      <trkpt lat="42.91445" lon="0.69294">
        <ele>512</ele>
        <time>2019-08-08T08:53:57.000Z</time>
      </trkpt>
      <trkpt lat="42.91443" lon="0.69295">
        <ele>512</ele>
        <time>2019-08-08T08:53:58.000Z</time>
      </trkpt>
      <trkpt lat="42.91437" lon="0.69299">
        <ele>512</ele>
        <time>2019-08-08T08:53:59.000Z</time>
      </trkpt>
      <trkpt lat="42.91436" lon="0.693">
        <ele>512</ele>
        <time>2019-08-08T08:54:00.000Z</time>
      </trkpt>
      <trkpt lat="42.91434" lon="0.69301">
        <ele>512</ele>
        <time>2019-08-08T08:54:01.000Z</time>
      </trkpt>
      <trkpt lat="42.91428" lon="0.69305">
        <ele>512</ele>
        <time>2019-08-08T08:54:02.000Z</time>
      </trkpt>
      <trkpt lat="42.91426" lon="0.69306">
        <ele>512</ele>
        <time>2019-08-08T08:54:03.000Z</time>
      </trkpt>
      <trkpt lat="42.91424" lon="0.69306">
        <ele>512</ele>
        <time>2019-08-08T08:54:04.000Z</time>
      </trkpt>
      <trkpt lat="42.91419" lon="0.69308">
        <ele>512</ele>
        <time>2019-08-08T08:54:05.000Z</time>
      </trkpt>
      <trkpt lat="42.91419" lon="0.69308">
        <ele>512</ele>
        <time>2019-08-08T08:54:06.000Z</time>
      </trkpt>
      <trkpt lat="42.91406" lon="0.69306">
        <ele>512</ele>
        <time>2019-08-08T08:54:07.000Z</time>
      </trkpt>
      <trkpt lat="42.91403" lon="0.69305">
        <ele>512</ele>
        <time>2019-08-08T08:54:08.000Z</time>
      </trkpt>
      <trkpt lat="42.91395" lon="0.69301">
        <ele>512</ele>
        <time>2019-08-08T08:54:09.000Z</time>
      </trkpt>
      <trkpt lat="42.91392" lon="0.69299">
        <ele>512</ele>
        <time>2019-08-08T08:54:10.000Z</time>
      </trkpt>
      <trkpt lat="42.91384" lon="0.69296">
        <ele>512</ele>
        <time>2019-08-08T08:54:11.000Z</time>
      </trkpt>
      <trkpt lat="42.91381" lon="0.69295">
        <ele>512</ele>
        <time>2019-08-08T08:54:12.000Z</time>
      </trkpt>
      <trkpt lat="42.91376" lon="0.69294">
        <ele>512</ele>
        <time>2019-08-08T08:54:13.000Z</time>
      </trkpt>
      <trkpt lat="42.91376" lon="0.69294">
        <ele>512</ele>
        <time>2019-08-08T08:54:14.000Z</time>
      </trkpt>
      <trkpt lat="42.91367" lon="0.69289">
        <ele>511</ele>
        <time>2019-08-08T08:54:15.000Z</time>
      </trkpt>
      <trkpt lat="42.91367" lon="0.69289">
        <ele>511</ele>
        <time>2019-08-08T08:54:16.000Z</time>
      </trkpt>
      <trkpt lat="42.91357" lon="0.69282">
        <ele>511</ele>
        <time>2019-08-08T08:54:17.000Z</time>
      </trkpt>
      <trkpt lat="42.91355" lon="0.69281">
        <ele>511</ele>
        <time>2019-08-08T08:54:18.000Z</time>
      </trkpt>
      <trkpt lat="42.91353" lon="0.6928">
        <ele>511</ele>
        <time>2019-08-08T08:54:19.000Z</time>
      </trkpt>
      <trkpt lat="42.91344" lon="0.69276">
        <ele>511</ele>
        <time>2019-08-08T08:54:20.000Z</time>
      </trkpt>
      <trkpt lat="42.91342" lon="0.69275">
        <ele>511</ele>
        <time>2019-08-08T08:54:21.000Z</time>
      </trkpt>
      <trkpt lat="42.91334" lon="0.69269">
        <ele>511</ele>
        <time>2019-08-08T08:54:22.000Z</time>
      </trkpt>
      <trkpt lat="42.91332" lon="0.69267">
        <ele>512</ele>
        <time>2019-08-08T08:54:23.000Z</time>
      </trkpt>
      <trkpt lat="42.91325" lon="0.6926">
        <ele>512</ele>
        <time>2019-08-08T08:54:24.000Z</time>
      </trkpt>
      <trkpt lat="42.91322" lon="0.69258">
        <ele>512</ele>
        <time>2019-08-08T08:54:25.000Z</time>
      </trkpt>
      <trkpt lat="42.91316" lon="0.69251">
        <ele>512</ele>
        <time>2019-08-08T08:54:26.000Z</time>
      </trkpt>
      <trkpt lat="42.91313" lon="0.69248">
        <ele>512</ele>
        <time>2019-08-08T08:54:27.000Z</time>
      </trkpt>
      <trkpt lat="42.91308" lon="0.69243">
        <ele>512</ele>
        <time>2019-08-08T08:54:28.000Z</time>
      </trkpt>
      <trkpt lat="42.91302" lon="0.69235">
        <ele>512</ele>
        <time>2019-08-08T08:54:29.000Z</time>
      </trkpt>
      <trkpt lat="42.91299" lon="0.69233">
        <ele>512</ele>
        <time>2019-08-08T08:54:30.000Z</time>
      </trkpt>
      <trkpt lat="42.91295" lon="0.69228">
        <ele>512</ele>
        <time>2019-08-08T08:54:31.000Z</time>
      </trkpt>
      <trkpt lat="42.9129" lon="0.69223">
        <ele>512</ele>
        <time>2019-08-08T08:54:32.000Z</time>
      </trkpt>
      <trkpt lat="42.91285" lon="0.69219">
        <ele>512</ele>
        <time>2019-08-08T08:54:33.000Z</time>
      </trkpt>
      <trkpt lat="42.91281" lon="0.69214">
        <ele>512</ele>
        <time>2019-08-08T08:54:34.000Z</time>
      </trkpt>
      <trkpt lat="42.91274" lon="0.69207">
        <ele>512</ele>
        <time>2019-08-08T08:54:35.000Z</time>
      </trkpt>
      <trkpt lat="42.91272" lon="0.69205">
        <ele>512</ele>
        <time>2019-08-08T08:54:36.000Z</time>
      </trkpt>
      <trkpt lat="42.91268" lon="0.692">
        <ele>513</ele>
        <time>2019-08-08T08:54:37.000Z</time>
      </trkpt>
      <trkpt lat="42.91264" lon="0.69196">
        <ele>513</ele>
        <time>2019-08-08T08:54:38.000Z</time>
      </trkpt>
      <trkpt lat="42.9126" lon="0.69193">
        <ele>513</ele>
        <time>2019-08-08T08:54:39.000Z</time>
      </trkpt>
      <trkpt lat="42.91256" lon="0.69189">
        <ele>513</ele>
        <time>2019-08-08T08:54:40.000Z</time>
      </trkpt>
      <trkpt lat="42.91253" lon="0.69185">
        <ele>514</ele>
        <time>2019-08-08T08:54:41.000Z</time>
      </trkpt>
      <trkpt lat="42.9125" lon="0.69182">
        <ele>514</ele>
        <time>2019-08-08T08:54:42.000Z</time>
      </trkpt>
      <trkpt lat="42.9125" lon="0.69182">
        <ele>514</ele>
        <time>2019-08-08T08:54:43.000Z</time>
      </trkpt>
      <trkpt lat="42.91245" lon="0.69179">
        <ele>514</ele>
        <time>2019-08-08T08:54:44.000Z</time>
      </trkpt>
      <trkpt lat="42.91244" lon="0.69178">
        <ele>514</ele>
        <time>2019-08-08T08:54:45.000Z</time>
      </trkpt>
      <trkpt lat="42.91242" lon="0.69178">
        <ele>514</ele>
        <time>2019-08-08T08:54:46.000Z</time>
      </trkpt>
      <trkpt lat="42.91241" lon="0.69181">
        <ele>514</ele>
        <time>2019-08-08T08:54:47.000Z</time>
      </trkpt>
      <trkpt lat="42.91242" lon="0.69186">
        <ele>514</ele>
        <time>2019-08-08T08:54:48.000Z</time>
      </trkpt>
      <trkpt lat="42.91242" lon="0.69186">
        <ele>514</ele>
        <time>2019-08-08T08:54:49.000Z</time>
      </trkpt>
      <trkpt lat="42.91241" lon="0.69194">
        <ele>514</ele>
        <time>2019-08-08T08:54:50.000Z</time>
      </trkpt>
      <trkpt lat="42.91241" lon="0.69194">
        <ele>514</ele>
        <time>2019-08-08T08:54:51.000Z</time>
      </trkpt>
      <trkpt lat="42.91237" lon="0.69205">
        <ele>514</ele>
        <time>2019-08-08T08:54:52.000Z</time>
      </trkpt>
      <trkpt lat="42.91236" lon="0.6921">
        <ele>514</ele>
        <time>2019-08-08T08:54:53.000Z</time>
      </trkpt>
      <trkpt lat="42.91235" lon="0.69214">
        <ele>514</ele>
        <time>2019-08-08T08:54:54.000Z</time>
      </trkpt>
      <trkpt lat="42.91233" lon="0.69219">
        <ele>514</ele>
        <time>2019-08-08T08:54:55.000Z</time>
      </trkpt>
      <trkpt lat="42.91232" lon="0.69224">
        <ele>514</ele>
        <time>2019-08-08T08:54:56.000Z</time>
      </trkpt>
      <trkpt lat="42.9123" lon="0.6923">
        <ele>514</ele>
        <time>2019-08-08T08:54:57.000Z</time>
      </trkpt>
      <trkpt lat="42.91229" lon="0.69236">
        <ele>514</ele>
        <time>2019-08-08T08:54:58.000Z</time>
      </trkpt>
      <trkpt lat="42.91227" lon="0.69241">
        <ele>514</ele>
        <time>2019-08-08T08:54:59.000Z</time>
      </trkpt>
      <trkpt lat="42.91225" lon="0.69246">
        <ele>514</ele>
        <time>2019-08-08T08:55:00.000Z</time>
      </trkpt>
      <trkpt lat="42.91223" lon="0.6925">
        <ele>513</ele>
        <time>2019-08-08T08:55:01.000Z</time>
      </trkpt>
      <trkpt lat="42.91221" lon="0.69252">
        <ele>514</ele>
        <time>2019-08-08T08:55:02.000Z</time>
      </trkpt>
      <trkpt lat="42.91219" lon="0.69251">
        <ele>514</ele>
        <time>2019-08-08T08:55:03.000Z</time>
      </trkpt>
      <trkpt lat="42.91218" lon="0.69249">
        <ele>514</ele>
        <time>2019-08-08T08:55:04.000Z</time>
      </trkpt>
      <trkpt lat="42.91218" lon="0.69249">
        <ele>514</ele>
        <time>2019-08-08T08:55:05.000Z</time>
      </trkpt>
      <trkpt lat="42.91218" lon="0.69249">
        <ele>514</ele>
        <time>2019-08-08T08:55:06.000Z</time>
      </trkpt>
      <trkpt lat="42.91218" lon="0.69249">
        <ele>514</ele>
        <time>2019-08-08T08:55:07.000Z</time>
      </trkpt>
      <trkpt lat="42.91218" lon="0.69249">
        <ele>514</ele>
        <time>2019-08-08T08:55:08.000Z</time>
      </trkpt>
      <trkpt lat="42.91218" lon="0.69249">
        <ele>514</ele>
        <time>2019-08-08T08:55:09.000Z</time>
      </trkpt>
      <trkpt lat="42.91218" lon="0.69249">
        <ele>514</ele>
        <time>2019-08-08T08:55:10.000Z</time>
      </trkpt>
      <trkpt lat="42.91218" lon="0.69249">
        <ele>514</ele>
        <time>2019-08-08T08:55:11.000Z</time>
      </trkpt>
      <trkpt lat="42.91218" lon="0.69249">
        <ele>514</ele>
        <time>2019-08-08T08:55:12.000Z</time>
      </trkpt>
      <trkpt lat="42.91221" lon="0.69251">
        <ele>514</ele>
        <time>2019-08-08T08:55:13.000Z</time>
      </trkpt>
      <trkpt lat="42.91221" lon="0.69251">
        <ele>514</ele>
        <time>2019-08-08T08:55:14.000Z</time>
      </trkpt>
      <trkpt lat="42.91222" lon="0.69253">
        <ele>514</ele>
        <time>2019-08-08T08:55:15.000Z</time>
      </trkpt>
      <trkpt lat="42.91222" lon="0.69256">
        <ele>514</ele>
        <time>2019-08-08T08:55:16.000Z</time>
      </trkpt>
      <trkpt lat="42.91221" lon="0.69259">
        <ele>514</ele>
        <time>2019-08-08T08:55:17.000Z</time>
      </trkpt>
      <trkpt lat="42.91221" lon="0.69263">
        <ele>514</ele>
        <time>2019-08-08T08:55:18.000Z</time>
      </trkpt>
      <trkpt lat="42.91219" lon="0.69267">
        <ele>514</ele>
        <time>2019-08-08T08:55:19.000Z</time>
      </trkpt>
      <trkpt lat="42.91218" lon="0.69272">
        <ele>513</ele>
        <time>2019-08-08T08:55:20.000Z</time>
      </trkpt>
      <trkpt lat="42.91216" lon="0.69278">
        <ele>513</ele>
        <time>2019-08-08T08:55:21.000Z</time>
      </trkpt>
      <trkpt lat="42.91214" lon="0.69283">
        <ele>513</ele>
        <time>2019-08-08T08:55:22.000Z</time>
      </trkpt>
      <trkpt lat="42.91211" lon="0.69292">
        <ele>513</ele>
        <time>2019-08-08T08:55:23.000Z</time>
      </trkpt>
      <trkpt lat="42.9121" lon="0.69295">
        <ele>513</ele>
        <time>2019-08-08T08:55:24.000Z</time>
      </trkpt>
      <trkpt lat="42.91207" lon="0.69305">
        <ele>513</ele>
        <time>2019-08-08T08:55:25.000Z</time>
      </trkpt>
      <trkpt lat="42.91206" lon="0.69308">
        <ele>513</ele>
        <time>2019-08-08T08:55:26.000Z</time>
      </trkpt>
      <trkpt lat="42.91204" lon="0.69315">
        <ele>513</ele>
        <time>2019-08-08T08:55:27.000Z</time>
      </trkpt>
      <trkpt lat="42.91201" lon="0.69322">
        <ele>513</ele>
        <time>2019-08-08T08:55:28.000Z</time>
      </trkpt>
      <trkpt lat="42.91199" lon="0.69329">
        <ele>513</ele>
        <time>2019-08-08T08:55:29.000Z</time>
      </trkpt>
      <trkpt lat="42.91197" lon="0.69336">
        <ele>513</ele>
        <time>2019-08-08T08:55:30.000Z</time>
      </trkpt>
      <trkpt lat="42.91194" lon="0.69345">
        <ele>513</ele>
        <time>2019-08-08T08:55:31.000Z</time>
      </trkpt>
      <trkpt lat="42.91191" lon="0.69353">
        <ele>513</ele>
        <time>2019-08-08T08:55:32.000Z</time>
      </trkpt>
      <trkpt lat="42.91189" lon="0.69361">
        <ele>514</ele>
        <time>2019-08-08T08:55:33.000Z</time>
      </trkpt>
      <trkpt lat="42.91186" lon="0.69369">
        <ele>514</ele>
        <time>2019-08-08T08:55:34.000Z</time>
      </trkpt>
      <trkpt lat="42.91184" lon="0.69377">
        <ele>514</ele>
        <time>2019-08-08T08:55:35.000Z</time>
      </trkpt>
      <trkpt lat="42.91182" lon="0.69385">
        <ele>514</ele>
        <time>2019-08-08T08:55:36.000Z</time>
      </trkpt>
      <trkpt lat="42.91179" lon="0.69393">
        <ele>514</ele>
        <time>2019-08-08T08:55:37.000Z</time>
      </trkpt>
      <trkpt lat="42.91177" lon="0.694">
        <ele>514</ele>
        <time>2019-08-08T08:55:38.000Z</time>
      </trkpt>
      <trkpt lat="42.91174" lon="0.69408">
        <ele>514</ele>
        <time>2019-08-08T08:55:39.000Z</time>
      </trkpt>
      <trkpt lat="42.91172" lon="0.69416">
        <ele>514</ele>
        <time>2019-08-08T08:55:40.000Z</time>
      </trkpt>
      <trkpt lat="42.91169" lon="0.69427">
        <ele>514</ele>
        <time>2019-08-08T08:55:41.000Z</time>
      </trkpt>
      <trkpt lat="42.91167" lon="0.69431">
        <ele>514</ele>
        <time>2019-08-08T08:55:42.000Z</time>
      </trkpt>
      <trkpt lat="42.91165" lon="0.69439">
        <ele>514</ele>
        <time>2019-08-08T08:55:43.000Z</time>
      </trkpt>
      <trkpt lat="42.91163" lon="0.69446">
        <ele>514</ele>
        <time>2019-08-08T08:55:44.000Z</time>
      </trkpt>
      <trkpt lat="42.9116" lon="0.69454">
        <ele>514</ele>
        <time>2019-08-08T08:55:45.000Z</time>
      </trkpt>
      <trkpt lat="42.91158" lon="0.69462">
        <ele>514</ele>
        <time>2019-08-08T08:55:46.000Z</time>
      </trkpt>
      <trkpt lat="42.91155" lon="0.69473">
        <ele>514</ele>
        <time>2019-08-08T08:55:47.000Z</time>
      </trkpt>
      <trkpt lat="42.91154" lon="0.69477">
        <ele>514</ele>
        <time>2019-08-08T08:55:48.000Z</time>
      </trkpt>
      <trkpt lat="42.91153" lon="0.69484">
        <ele>515</ele>
        <time>2019-08-08T08:55:49.000Z</time>
      </trkpt>
      <trkpt lat="42.91151" lon="0.6949">
        <ele>515</ele>
        <time>2019-08-08T08:55:50.000Z</time>
      </trkpt>
      <trkpt lat="42.9115" lon="0.69497">
        <ele>515</ele>
        <time>2019-08-08T08:55:51.000Z</time>
      </trkpt>
      <trkpt lat="42.91148" lon="0.69503">
        <ele>515</ele>
        <time>2019-08-08T08:55:52.000Z</time>
      </trkpt>
      <trkpt lat="42.91145" lon="0.69508">
        <ele>516</ele>
        <time>2019-08-08T08:55:53.000Z</time>
      </trkpt>
      <trkpt lat="42.91143" lon="0.69512">
        <ele>516</ele>
        <time>2019-08-08T08:55:54.000Z</time>
      </trkpt>
      <trkpt lat="42.91142" lon="0.69515">
        <ele>516</ele>
        <time>2019-08-08T08:55:55.000Z</time>
      </trkpt>
      <trkpt lat="42.91142" lon="0.69515">
        <ele>516</ele>
        <time>2019-08-08T08:55:56.000Z</time>
      </trkpt>
      <trkpt lat="42.91142" lon="0.69515">
        <ele>517</ele>
        <time>2019-08-08T08:55:57.000Z</time>
      </trkpt>
      <trkpt lat="42.91142" lon="0.69515">
        <ele>517</ele>
        <time>2019-08-08T08:55:58.000Z</time>
      </trkpt>
      <trkpt lat="42.91142" lon="0.69515">
        <ele>517</ele>
        <time>2019-08-08T08:55:59.000Z</time>
      </trkpt>
      <trkpt lat="42.91145" lon="0.69517">
        <ele>517</ele>
        <time>2019-08-08T08:56:00.000Z</time>
      </trkpt>
      <trkpt lat="42.91147" lon="0.69518">
        <ele>517</ele>
        <time>2019-08-08T08:56:01.000Z</time>
      </trkpt>
      <trkpt lat="42.91147" lon="0.69518">
        <ele>518</ele>
        <time>2019-08-08T08:57:41.000Z</time>
      </trkpt>
      <trkpt lat="42.91138" lon="0.69561">
        <ele>518</ele>
        <time>2019-08-08T08:57:42.000Z</time>
      </trkpt>
      <trkpt lat="42.91137" lon="0.69565">
        <ele>518</ele>
        <time>2019-08-08T08:57:43.000Z</time>
      </trkpt>
      <trkpt lat="42.91136" lon="0.69568">
        <ele>518</ele>
        <time>2019-08-08T08:57:44.000Z</time>
      </trkpt>
      <trkpt lat="42.91135" lon="0.69571">
        <ele>518</ele>
        <time>2019-08-08T08:57:45.000Z</time>
      </trkpt>
      <trkpt lat="42.91134" lon="0.69574">
        <ele>519</ele>
        <time>2019-08-08T08:57:46.000Z</time>
      </trkpt>
      <trkpt lat="42.91133" lon="0.69577">
        <ele>519</ele>
        <time>2019-08-08T08:57:47.000Z</time>
      </trkpt>
      <trkpt lat="42.91133" lon="0.69581">
        <ele>520</ele>
        <time>2019-08-08T08:57:48.000Z</time>
      </trkpt>
      <trkpt lat="42.91132" lon="0.69584">
        <ele>520</ele>
        <time>2019-08-08T08:57:49.000Z</time>
      </trkpt>
      <trkpt lat="42.91132" lon="0.69587">
        <ele>520</ele>
        <time>2019-08-08T08:57:50.000Z</time>
      </trkpt>
      <trkpt lat="42.91132" lon="0.6959">
        <ele>520</ele>
        <time>2019-08-08T08:57:51.000Z</time>
      </trkpt>
      <trkpt lat="42.91132" lon="0.69594">
        <ele>520</ele>
        <time>2019-08-08T08:57:52.000Z</time>
      </trkpt>
      <trkpt lat="42.91131" lon="0.69599">
        <ele>521</ele>
        <time>2019-08-08T08:57:53.000Z</time>
      </trkpt>
      <trkpt lat="42.91132" lon="0.69603">
        <ele>521</ele>
        <time>2019-08-08T08:57:54.000Z</time>
      </trkpt>
      <trkpt lat="42.91133" lon="0.69607">
        <ele>522</ele>
        <time>2019-08-08T08:57:55.000Z</time>
      </trkpt>
      <trkpt lat="42.91133" lon="0.69612">
        <ele>522</ele>
        <time>2019-08-08T08:57:56.000Z</time>
      </trkpt>
      <trkpt lat="42.91134" lon="0.69616">
        <ele>522</ele>
        <time>2019-08-08T08:57:57.000Z</time>
      </trkpt>
      <trkpt lat="42.91135" lon="0.6962">
        <ele>522</ele>
        <time>2019-08-08T08:57:58.000Z</time>
      </trkpt>
      <trkpt lat="42.91137" lon="0.69623">
        <ele>523</ele>
        <time>2019-08-08T08:57:59.000Z</time>
      </trkpt>
      <trkpt lat="42.91138" lon="0.69627">
        <ele>523</ele>
        <time>2019-08-08T08:58:00.000Z</time>
      </trkpt>
      <trkpt lat="42.91139" lon="0.6963">
        <ele>523</ele>
        <time>2019-08-08T08:58:01.000Z</time>
      </trkpt>
      <trkpt lat="42.9114" lon="0.69634">
        <ele>523</ele>
        <time>2019-08-08T08:58:02.000Z</time>
      </trkpt>
      <trkpt lat="42.91141" lon="0.69638">
        <ele>523</ele>
        <time>2019-08-08T08:58:03.000Z</time>
      </trkpt>
      <trkpt lat="42.91142" lon="0.69642">
        <ele>523</ele>
        <time>2019-08-08T08:58:04.000Z</time>
      </trkpt>
      <trkpt lat="42.91143" lon="0.69646">
        <ele>524</ele>
        <time>2019-08-08T08:58:05.000Z</time>
      </trkpt>
      <trkpt lat="42.91144" lon="0.6965">
        <ele>524</ele>
        <time>2019-08-08T08:58:06.000Z</time>
      </trkpt>
      <trkpt lat="42.91145" lon="0.69653">
        <ele>524</ele>
        <time>2019-08-08T08:58:07.000Z</time>
      </trkpt>
      <trkpt lat="42.91146" lon="0.69657">
        <ele>524</ele>
        <time>2019-08-08T08:58:08.000Z</time>
      </trkpt>
      <trkpt lat="42.91147" lon="0.69661">
        <ele>525</ele>
        <time>2019-08-08T08:58:09.000Z</time>
      </trkpt>
      <trkpt lat="42.91148" lon="0.69664">
        <ele>525</ele>
        <time>2019-08-08T08:58:10.000Z</time>
      </trkpt>
      <trkpt lat="42.91148" lon="0.69668">
        <ele>526</ele>
        <time>2019-08-08T08:58:11.000Z</time>
      </trkpt>
      <trkpt lat="42.91149" lon="0.69672">
        <ele>526</ele>
        <time>2019-08-08T08:58:12.000Z</time>
      </trkpt>
      <trkpt lat="42.9115" lon="0.69675">
        <ele>526</ele>
        <time>2019-08-08T08:58:13.000Z</time>
      </trkpt>
      <trkpt lat="42.91151" lon="0.69679">
        <ele>526</ele>
        <time>2019-08-08T08:58:14.000Z</time>
      </trkpt>
      <trkpt lat="42.91151" lon="0.69682">
        <ele>527</ele>
        <time>2019-08-08T08:58:15.000Z</time>
      </trkpt>
      <trkpt lat="42.91152" lon="0.69685">
        <ele>527</ele>
        <time>2019-08-08T08:58:16.000Z</time>
      </trkpt>
      <trkpt lat="42.91152" lon="0.69689">
        <ele>528</ele>
        <time>2019-08-08T08:58:17.000Z</time>
      </trkpt>
      <trkpt lat="42.91152" lon="0.69692">
        <ele>528</ele>
        <time>2019-08-08T08:58:18.000Z</time>
      </trkpt>
      <trkpt lat="42.91152" lon="0.69696">
        <ele>529</ele>
        <time>2019-08-08T08:58:19.000Z</time>
      </trkpt>
      <trkpt lat="42.91153" lon="0.69699">
        <ele>529</ele>
        <time>2019-08-08T08:58:20.000Z</time>
      </trkpt>
      <trkpt lat="42.91153" lon="0.69702">
        <ele>529</ele>
        <time>2019-08-08T08:58:21.000Z</time>
      </trkpt>
      <trkpt lat="42.91152" lon="0.69706">
        <ele>529</ele>
        <time>2019-08-08T08:58:22.000Z</time>
      </trkpt>
      <trkpt lat="42.91152" lon="0.69709">
        <ele>530</ele>
        <time>2019-08-08T08:58:23.000Z</time>
      </trkpt>
      <trkpt lat="42.91152" lon="0.69712">
        <ele>530</ele>
        <time>2019-08-08T08:58:24.000Z</time>
      </trkpt>
      <trkpt lat="42.91151" lon="0.69716">
        <ele>530</ele>
        <time>2019-08-08T08:58:25.000Z</time>
      </trkpt>
      <trkpt lat="42.91151" lon="0.69719">
        <ele>530</ele>
        <time>2019-08-08T08:58:26.000Z</time>
      </trkpt>
      <trkpt lat="42.91151" lon="0.69722">
        <ele>530</ele>
        <time>2019-08-08T08:58:27.000Z</time>
      </trkpt>
      <trkpt lat="42.9115" lon="0.69725">
        <ele>530</ele>
        <time>2019-08-08T08:58:28.000Z</time>
      </trkpt>
      <trkpt lat="42.9115" lon="0.69728">
        <ele>530</ele>
        <time>2019-08-08T08:58:29.000Z</time>
      </trkpt>
      <trkpt lat="42.91149" lon="0.69731">
        <ele>531</ele>
        <time>2019-08-08T08:58:30.000Z</time>
      </trkpt>
      <trkpt lat="42.91148" lon="0.69734">
        <ele>531</ele>
        <time>2019-08-08T08:58:31.000Z</time>
      </trkpt>
      <trkpt lat="42.91148" lon="0.69734">
        <ele>532</ele>
        <time>2019-08-08T08:58:32.000Z</time>
      </trkpt>
      <trkpt lat="42.91146" lon="0.6974">
        <ele>532</ele>
        <time>2019-08-08T08:58:33.000Z</time>
      </trkpt>
      <trkpt lat="42.91145" lon="0.69743">
        <ele>532</ele>
        <time>2019-08-08T08:58:34.000Z</time>
      </trkpt>
      <trkpt lat="42.91144" lon="0.69746">
        <ele>532</ele>
        <time>2019-08-08T08:58:35.000Z</time>
      </trkpt>
      <trkpt lat="42.91142" lon="0.6975">
        <ele>533</ele>
        <time>2019-08-08T08:58:36.000Z</time>
      </trkpt>
      <trkpt lat="42.91141" lon="0.69753">
        <ele>533</ele>
        <time>2019-08-08T08:58:37.000Z</time>
      </trkpt>
      <trkpt lat="42.91139" lon="0.69756">
        <ele>533</ele>
        <time>2019-08-08T08:58:38.000Z</time>
      </trkpt>
      <trkpt lat="42.91138" lon="0.69759">
        <ele>533</ele>
        <time>2019-08-08T08:58:39.000Z</time>
      </trkpt>
      <trkpt lat="42.91136" lon="0.69763">
        <ele>534</ele>
        <time>2019-08-08T08:58:40.000Z</time>
      </trkpt>
      <trkpt lat="42.91135" lon="0.69766">
        <ele>534</ele>
        <time>2019-08-08T08:58:41.000Z</time>
      </trkpt>
      <trkpt lat="42.91133" lon="0.69769">
        <ele>534</ele>
        <time>2019-08-08T08:58:42.000Z</time>
      </trkpt>
      <trkpt lat="42.91132" lon="0.69772">
        <ele>534</ele>
        <time>2019-08-08T08:58:43.000Z</time>
      </trkpt>
      <trkpt lat="42.91131" lon="0.69775">
        <ele>535</ele>
        <time>2019-08-08T08:58:44.000Z</time>
      </trkpt>
      <trkpt lat="42.91129" lon="0.69778">
        <ele>535</ele>
        <time>2019-08-08T08:58:45.000Z</time>
      </trkpt>
      <trkpt lat="42.91128" lon="0.69781">
        <ele>535</ele>
        <time>2019-08-08T08:58:46.000Z</time>
      </trkpt>
      <trkpt lat="42.91127" lon="0.69784">
        <ele>535</ele>
        <time>2019-08-08T08:58:47.000Z</time>
      </trkpt>
      <trkpt lat="42.91126" lon="0.69787">
        <ele>536</ele>
        <time>2019-08-08T08:58:48.000Z</time>
      </trkpt>
      <trkpt lat="42.91125" lon="0.6979">
        <ele>536</ele>
        <time>2019-08-08T08:58:49.000Z</time>
      </trkpt>
      <trkpt lat="42.91124" lon="0.69792">
        <ele>538</ele>
        <time>2019-08-08T08:58:50.000Z</time>
      </trkpt>
      <trkpt lat="42.91123" lon="0.69795">
        <ele>538</ele>
        <time>2019-08-08T08:58:51.000Z</time>
      </trkpt>
      <trkpt lat="42.91122" lon="0.69799">
        <ele>538</ele>
        <time>2019-08-08T08:58:52.000Z</time>
      </trkpt>
      <trkpt lat="42.91121" lon="0.69802">
        <ele>538</ele>
        <time>2019-08-08T08:58:53.000Z</time>
      </trkpt>
      <trkpt lat="42.9112" lon="0.69805">
        <ele>538</ele>
        <time>2019-08-08T08:58:54.000Z</time>
      </trkpt>
      <trkpt lat="42.91119" lon="0.69808">
        <ele>538</ele>
        <time>2019-08-08T08:58:55.000Z</time>
      </trkpt>
      <trkpt lat="42.91118" lon="0.69811">
        <ele>538</ele>
        <time>2019-08-08T08:58:56.000Z</time>
      </trkpt>
      <trkpt lat="42.91117" lon="0.69814">
        <ele>538</ele>
        <time>2019-08-08T08:58:57.000Z</time>
      </trkpt>
      <trkpt lat="42.91117" lon="0.69818">
        <ele>539</ele>
        <time>2019-08-08T08:58:58.000Z</time>
      </trkpt>
      <trkpt lat="42.91116" lon="0.69821">
        <ele>539</ele>
        <time>2019-08-08T08:58:59.000Z</time>
      </trkpt>
      <trkpt lat="42.91115" lon="0.69825">
        <ele>538</ele>
        <time>2019-08-08T08:59:00.000Z</time>
      </trkpt>
      <trkpt lat="42.91115" lon="0.69829">
        <ele>538</ele>
        <time>2019-08-08T08:59:01.000Z</time>
      </trkpt>
      <trkpt lat="42.91115" lon="0.69832">
        <ele>539</ele>
        <time>2019-08-08T08:59:02.000Z</time>
      </trkpt>
      <trkpt lat="42.91114" lon="0.69836">
        <ele>539</ele>
        <time>2019-08-08T08:59:03.000Z</time>
      </trkpt>
      <trkpt lat="42.91114" lon="0.69839">
        <ele>540</ele>
        <time>2019-08-08T08:59:04.000Z</time>
      </trkpt>
      <trkpt lat="42.91114" lon="0.69843">
        <ele>540</ele>
        <time>2019-08-08T08:59:05.000Z</time>
      </trkpt>
      <trkpt lat="42.91114" lon="0.69847">
        <ele>540</ele>
        <time>2019-08-08T08:59:06.000Z</time>
      </trkpt>
      <trkpt lat="42.91113" lon="0.6985">
        <ele>541</ele>
        <time>2019-08-08T08:59:07.000Z</time>
      </trkpt>
      <trkpt lat="42.91113" lon="0.69854">
        <ele>541</ele>
        <time>2019-08-08T08:59:08.000Z</time>
      </trkpt>
      <trkpt lat="42.91113" lon="0.69857">
        <ele>541</ele>
        <time>2019-08-08T08:59:09.000Z</time>
      </trkpt>
      <trkpt lat="42.91113" lon="0.6986">
        <ele>541</ele>
        <time>2019-08-08T08:59:10.000Z</time>
      </trkpt>
      <trkpt lat="42.91113" lon="0.69864">
        <ele>542</ele>
        <time>2019-08-08T08:59:11.000Z</time>
      </trkpt>
      <trkpt lat="42.91113" lon="0.69867">
        <ele>542</ele>
        <time>2019-08-08T08:59:12.000Z</time>
      </trkpt>
      <trkpt lat="42.91113" lon="0.6987">
        <ele>542</ele>
        <time>2019-08-08T08:59:13.000Z</time>
      </trkpt>
      <trkpt lat="42.91113" lon="0.69874">
        <ele>542</ele>
        <time>2019-08-08T08:59:14.000Z</time>
      </trkpt>
      <trkpt lat="42.91112" lon="0.69878">
        <ele>542</ele>
        <time>2019-08-08T08:59:15.000Z</time>
      </trkpt>
      <trkpt lat="42.91112" lon="0.69882">
        <ele>542</ele>
        <time>2019-08-08T08:59:16.000Z</time>
      </trkpt>
      <trkpt lat="42.91112" lon="0.69885">
        <ele>543</ele>
        <time>2019-08-08T08:59:17.000Z</time>
      </trkpt>
      <trkpt lat="42.91111" lon="0.69889">
        <ele>543</ele>
        <time>2019-08-08T08:59:18.000Z</time>
      </trkpt>
      <trkpt lat="42.9111" lon="0.69892">
        <ele>543</ele>
        <time>2019-08-08T08:59:19.000Z</time>
      </trkpt>
      <trkpt lat="42.9111" lon="0.69895">
        <ele>543</ele>
        <time>2019-08-08T08:59:20.000Z</time>
      </trkpt>
      <trkpt lat="42.91109" lon="0.69898">
        <ele>543</ele>
        <time>2019-08-08T08:59:21.000Z</time>
      </trkpt>
      <trkpt lat="42.91109" lon="0.69898">
        <ele>545</ele>
        <time>2019-08-08T08:59:22.000Z</time>
      </trkpt>
      <trkpt lat="42.91108" lon="0.69904">
        <ele>545</ele>
        <time>2019-08-08T08:59:23.000Z</time>
      </trkpt>
      <trkpt lat="42.91108" lon="0.69904">
        <ele>545</ele>
        <time>2019-08-08T08:59:24.000Z</time>
      </trkpt>
      <trkpt lat="42.91108" lon="0.69904">
        <ele>545</ele>
        <time>2019-08-08T08:59:25.000Z</time>
      </trkpt>
      <trkpt lat="42.91106" lon="0.69916">
        <ele>545</ele>
        <time>2019-08-08T08:59:26.000Z</time>
      </trkpt>
      <trkpt lat="42.91105" lon="0.6992">
        <ele>546</ele>
        <time>2019-08-08T08:59:27.000Z</time>
      </trkpt>
      <trkpt lat="42.91104" lon="0.69924">
        <ele>546</ele>
        <time>2019-08-08T08:59:28.000Z</time>
      </trkpt>
      <trkpt lat="42.91104" lon="0.69927">
        <ele>546</ele>
        <time>2019-08-08T08:59:29.000Z</time>
      </trkpt>
      <trkpt lat="42.91103" lon="0.6993">
        <ele>546</ele>
        <time>2019-08-08T08:59:30.000Z</time>
      </trkpt>
      <trkpt lat="42.91102" lon="0.69933">
        <ele>547</ele>
        <time>2019-08-08T08:59:31.000Z</time>
      </trkpt>
      <trkpt lat="42.911" lon="0.69937">
        <ele>547</ele>
        <time>2019-08-08T08:59:32.000Z</time>
      </trkpt>
      <trkpt lat="42.91099" lon="0.6994">
        <ele>548</ele>
        <time>2019-08-08T08:59:33.000Z</time>
      </trkpt>
      <trkpt lat="42.91098" lon="0.69944">
        <ele>548</ele>
        <time>2019-08-08T08:59:34.000Z</time>
      </trkpt>
      <trkpt lat="42.91096" lon="0.69947">
        <ele>549</ele>
        <time>2019-08-08T08:59:35.000Z</time>
      </trkpt>
      <trkpt lat="42.91096" lon="0.69951">
        <ele>549</ele>
        <time>2019-08-08T08:59:36.000Z</time>
      </trkpt>
      <trkpt lat="42.91095" lon="0.69955">
        <ele>549</ele>
        <time>2019-08-08T08:59:37.000Z</time>
      </trkpt>
      <trkpt lat="42.91095" lon="0.69959">
        <ele>549</ele>
        <time>2019-08-08T08:59:38.000Z</time>
      </trkpt>
      <trkpt lat="42.91095" lon="0.69963">
        <ele>549</ele>
        <time>2019-08-08T08:59:39.000Z</time>
      </trkpt>
      <trkpt lat="42.91095" lon="0.69966">
        <ele>550</ele>
        <time>2019-08-08T08:59:40.000Z</time>
      </trkpt>
      <trkpt lat="42.91096" lon="0.6997">
        <ele>550</ele>
        <time>2019-08-08T08:59:41.000Z</time>
      </trkpt>
      <trkpt lat="42.91096" lon="0.69974">
        <ele>551</ele>
        <time>2019-08-08T08:59:42.000Z</time>
      </trkpt>
      <trkpt lat="42.91096" lon="0.69977">
        <ele>551</ele>
        <time>2019-08-08T08:59:43.000Z</time>
      </trkpt>
      <trkpt lat="42.91096" lon="0.69981">
        <ele>551</ele>
        <time>2019-08-08T08:59:44.000Z</time>
      </trkpt>
      <trkpt lat="42.91096" lon="0.69985">
        <ele>551</ele>
        <time>2019-08-08T08:59:45.000Z</time>
      </trkpt>
      <trkpt lat="42.91096" lon="0.69989">
        <ele>551</ele>
        <time>2019-08-08T08:59:46.000Z</time>
      </trkpt>
      <trkpt lat="42.91096" lon="0.69993">
        <ele>551</ele>
        <time>2019-08-08T08:59:47.000Z</time>
      </trkpt>
      <trkpt lat="42.91096" lon="0.69997">
        <ele>551</ele>
        <time>2019-08-08T08:59:48.000Z</time>
      </trkpt>
      <trkpt lat="42.91095" lon="0.7">
        <ele>551</ele>
        <time>2019-08-08T08:59:49.000Z</time>
      </trkpt>
      <trkpt lat="42.91095" lon="0.70004">
        <ele>552</ele>
        <time>2019-08-08T08:59:50.000Z</time>
      </trkpt>
      <trkpt lat="42.91095" lon="0.70008">
        <ele>552</ele>
        <time>2019-08-08T08:59:51.000Z</time>
      </trkpt>
      <trkpt lat="42.91095" lon="0.70012">
        <ele>552</ele>
        <time>2019-08-08T08:59:52.000Z</time>
      </trkpt>
      <trkpt lat="42.91095" lon="0.70016">
        <ele>552</ele>
        <time>2019-08-08T08:59:53.000Z</time>
      </trkpt>
      <trkpt lat="42.91094" lon="0.70019">
        <ele>553</ele>
        <time>2019-08-08T08:59:54.000Z</time>
      </trkpt>
      <trkpt lat="42.91093" lon="0.70023">
        <ele>553</ele>
        <time>2019-08-08T08:59:55.000Z</time>
      </trkpt>
      <trkpt lat="42.91092" lon="0.70026">
        <ele>553</ele>
        <time>2019-08-08T08:59:56.000Z</time>
      </trkpt>
      <trkpt lat="42.91091" lon="0.70031">
        <ele>553</ele>
        <time>2019-08-08T08:59:57.000Z</time>
      </trkpt>
      <trkpt lat="42.9109" lon="0.70033">
        <ele>554</ele>
        <time>2019-08-08T08:59:58.000Z</time>
      </trkpt>
      <trkpt lat="42.9109" lon="0.70035">
        <ele>554</ele>
        <time>2019-08-08T08:59:59.000Z</time>
      </trkpt>
      <trkpt lat="42.91089" lon="0.70037">
        <ele>555</ele>
        <time>2019-08-08T09:00:00.000Z</time>
      </trkpt>
      <trkpt lat="42.91087" lon="0.70045">
        <ele>555</ele>
        <time>2019-08-08T09:00:01.000Z</time>
      </trkpt>
      <trkpt lat="42.91086" lon="0.70047">
        <ele>555</ele>
        <time>2019-08-08T09:00:02.000Z</time>
      </trkpt>
      <trkpt lat="42.91085" lon="0.70049">
        <ele>555</ele>
        <time>2019-08-08T09:00:03.000Z</time>
      </trkpt>
      <trkpt lat="42.91085" lon="0.70051">
        <ele>556</ele>
        <time>2019-08-08T09:00:04.000Z</time>
      </trkpt>
      <trkpt lat="42.91083" lon="0.70057">
        <ele>556</ele>
        <time>2019-08-08T09:00:05.000Z</time>
      </trkpt>
      <trkpt lat="42.91082" lon="0.70061">
        <ele>556</ele>
        <time>2019-08-08T09:00:06.000Z</time>
      </trkpt>
      <trkpt lat="42.9108" lon="0.70064">
        <ele>556</ele>
        <time>2019-08-08T09:00:07.000Z</time>
      </trkpt>
      <trkpt lat="42.91079" lon="0.70067">
        <ele>556</ele>
        <time>2019-08-08T09:00:08.000Z</time>
      </trkpt>
      <trkpt lat="42.91078" lon="0.70071">
        <ele>556</ele>
        <time>2019-08-08T09:00:09.000Z</time>
      </trkpt>
      <trkpt lat="42.91077" lon="0.70074">
        <ele>557</ele>
        <time>2019-08-08T09:00:10.000Z</time>
      </trkpt>
      <trkpt lat="42.91077" lon="0.70074">
        <ele>557</ele>
        <time>2019-08-08T09:00:11.000Z</time>
      </trkpt>
      <trkpt lat="42.91075" lon="0.70081">
        <ele>557</ele>
        <time>2019-08-08T09:00:12.000Z</time>
      </trkpt>
      <trkpt lat="42.91074" lon="0.70085">
        <ele>557</ele>
        <time>2019-08-08T09:00:13.000Z</time>
      </trkpt>
      <trkpt lat="42.91073" lon="0.70088">
        <ele>557</ele>
        <time>2019-08-08T09:00:14.000Z</time>
      </trkpt>
      <trkpt lat="42.91072" lon="0.70091">
        <ele>558</ele>
        <time>2019-08-08T09:00:15.000Z</time>
      </trkpt>
      <trkpt lat="42.9107" lon="0.70095">
        <ele>558</ele>
        <time>2019-08-08T09:00:16.000Z</time>
      </trkpt>
      <trkpt lat="42.91069" lon="0.70098">
        <ele>558</ele>
        <time>2019-08-08T09:00:17.000Z</time>
      </trkpt>
      <trkpt lat="42.91068" lon="0.70101">
        <ele>558</ele>
        <time>2019-08-08T09:00:18.000Z</time>
      </trkpt>
      <trkpt lat="42.91068" lon="0.70101">
        <ele>559</ele>
        <time>2019-08-08T09:00:19.000Z</time>
      </trkpt>
      <trkpt lat="42.91066" lon="0.70107">
        <ele>559</ele>
        <time>2019-08-08T09:00:20.000Z</time>
      </trkpt>
      <trkpt lat="42.91065" lon="0.7011">
        <ele>559</ele>
        <time>2019-08-08T09:00:21.000Z</time>
      </trkpt>
      <trkpt lat="42.91063" lon="0.70113">
        <ele>559</ele>
        <time>2019-08-08T09:00:22.000Z</time>
      </trkpt>
      <trkpt lat="42.91061" lon="0.70118">
        <ele>560</ele>
        <time>2019-08-08T09:00:23.000Z</time>
      </trkpt>
      <trkpt lat="42.9106" lon="0.70119">
        <ele>560</ele>
        <time>2019-08-08T09:00:24.000Z</time>
      </trkpt>
      <trkpt lat="42.91059" lon="0.70121">
        <ele>561</ele>
        <time>2019-08-08T09:00:25.000Z</time>
      </trkpt>
      <trkpt lat="42.91058" lon="0.70122">
        <ele>561</ele>
        <time>2019-08-08T09:00:26.000Z</time>
      </trkpt>
      <trkpt lat="42.91055" lon="0.70128">
        <ele>561</ele>
        <time>2019-08-08T09:00:27.000Z</time>
      </trkpt>
      <trkpt lat="42.91053" lon="0.7013">
        <ele>561</ele>
        <time>2019-08-08T09:00:28.000Z</time>
      </trkpt>
      <trkpt lat="42.91052" lon="0.70133">
        <ele>561</ele>
        <time>2019-08-08T09:00:29.000Z</time>
      </trkpt>
      <trkpt lat="42.91051" lon="0.70136">
        <ele>561</ele>
        <time>2019-08-08T09:00:30.000Z</time>
      </trkpt>
      <trkpt lat="42.9105" lon="0.70138">
        <ele>561</ele>
        <time>2019-08-08T09:00:31.000Z</time>
      </trkpt>
      <trkpt lat="42.91049" lon="0.70141">
        <ele>562</ele>
        <time>2019-08-08T09:00:32.000Z</time>
      </trkpt>
      <trkpt lat="42.91049" lon="0.70141">
        <ele>562</ele>
        <time>2019-08-08T09:00:33.000Z</time>
      </trkpt>
      <trkpt lat="42.91049" lon="0.70141">
        <ele>563</ele>
        <time>2019-08-08T09:00:34.000Z</time>
      </trkpt>
      <trkpt lat="42.91046" lon="0.7015">
        <ele>563</ele>
        <time>2019-08-08T09:00:35.000Z</time>
      </trkpt>
      <trkpt lat="42.91046" lon="0.70153">
        <ele>563</ele>
        <time>2019-08-08T09:00:36.000Z</time>
      </trkpt>
      <trkpt lat="42.91045" lon="0.70156">
        <ele>563</ele>
        <time>2019-08-08T09:00:37.000Z</time>
      </trkpt>
      <trkpt lat="42.91045" lon="0.70159">
        <ele>563</ele>
        <time>2019-08-08T09:00:38.000Z</time>
      </trkpt>
      <trkpt lat="42.91044" lon="0.70163">
        <ele>564</ele>
        <time>2019-08-08T09:00:39.000Z</time>
      </trkpt>
      <trkpt lat="42.91044" lon="0.70166">
        <ele>565</ele>
        <time>2019-08-08T09:00:40.000Z</time>
      </trkpt>
      <trkpt lat="42.91044" lon="0.70166">
        <ele>565</ele>
        <time>2019-08-08T09:00:41.000Z</time>
      </trkpt>
      <trkpt lat="42.91044" lon="0.70171">
        <ele>566</ele>
        <time>2019-08-08T09:00:42.000Z</time>
      </trkpt>
      <trkpt lat="42.91044" lon="0.70173">
        <ele>566</ele>
        <time>2019-08-08T09:00:43.000Z</time>
      </trkpt>
      <trkpt lat="42.91044" lon="0.70176">
        <ele>566</ele>
        <time>2019-08-08T09:00:44.000Z</time>
      </trkpt>
      <trkpt lat="42.91044" lon="0.70179">
        <ele>567</ele>
        <time>2019-08-08T09:00:45.000Z</time>
      </trkpt>
      <trkpt lat="42.91044" lon="0.70182">
        <ele>567</ele>
        <time>2019-08-08T09:00:46.000Z</time>
      </trkpt>
      <trkpt lat="42.91043" lon="0.70185">
        <ele>567</ele>
        <time>2019-08-08T09:00:47.000Z</time>
      </trkpt>
      <trkpt lat="42.91043" lon="0.70188">
        <ele>568</ele>
        <time>2019-08-08T09:00:48.000Z</time>
      </trkpt>
      <trkpt lat="42.91044" lon="0.70191">
        <ele>568</ele>
        <time>2019-08-08T09:00:49.000Z</time>
      </trkpt>
      <trkpt lat="42.91044" lon="0.70195">
        <ele>567</ele>
        <time>2019-08-08T09:00:50.000Z</time>
      </trkpt>
      <trkpt lat="42.91044" lon="0.70198">
        <ele>568</ele>
        <time>2019-08-08T09:00:51.000Z</time>
      </trkpt>
      <trkpt lat="42.91045" lon="0.70201">
        <ele>569</ele>
        <time>2019-08-08T09:00:52.000Z</time>
      </trkpt>
      <trkpt lat="42.91045" lon="0.70204">
        <ele>569</ele>
        <time>2019-08-08T09:00:53.000Z</time>
      </trkpt>
      <trkpt lat="42.91046" lon="0.70207">
        <ele>569</ele>
        <time>2019-08-08T09:00:54.000Z</time>
      </trkpt>
      <trkpt lat="42.91047" lon="0.7021">
        <ele>569</ele>
        <time>2019-08-08T09:00:55.000Z</time>
      </trkpt>
      <trkpt lat="42.91047" lon="0.70214">
        <ele>569</ele>
        <time>2019-08-08T09:00:56.000Z</time>
      </trkpt>
      <trkpt lat="42.91048" lon="0.70217">
        <ele>569</ele>
        <time>2019-08-08T09:00:57.000Z</time>
      </trkpt>
      <trkpt lat="42.9105" lon="0.7022">
        <ele>569</ele>
        <time>2019-08-08T09:00:58.000Z</time>
      </trkpt>
      <trkpt lat="42.91051" lon="0.70224">
        <ele>570</ele>
        <time>2019-08-08T09:00:59.000Z</time>
      </trkpt>
      <trkpt lat="42.91052" lon="0.70227">
        <ele>570</ele>
        <time>2019-08-08T09:01:00.000Z</time>
      </trkpt>
      <trkpt lat="42.91053" lon="0.70231">
        <ele>570</ele>
        <time>2019-08-08T09:01:01.000Z</time>
      </trkpt>
      <trkpt lat="42.91054" lon="0.70235">
        <ele>571</ele>
        <time>2019-08-08T09:01:02.000Z</time>
      </trkpt>
      <trkpt lat="42.91055" lon="0.70238">
        <ele>571</ele>
        <time>2019-08-08T09:01:03.000Z</time>
      </trkpt>
      <trkpt lat="42.91056" lon="0.70242">
        <ele>572</ele>
        <time>2019-08-08T09:01:04.000Z</time>
      </trkpt>
      <trkpt lat="42.91056" lon="0.70245">
        <ele>572</ele>
        <time>2019-08-08T09:01:05.000Z</time>
      </trkpt>
      <trkpt lat="42.91057" lon="0.70248">
        <ele>572</ele>
        <time>2019-08-08T09:01:06.000Z</time>
      </trkpt>
      <trkpt lat="42.91057" lon="0.70252">
        <ele>572</ele>
        <time>2019-08-08T09:01:07.000Z</time>
      </trkpt>
      <trkpt lat="42.91058" lon="0.70256">
        <ele>573</ele>
        <time>2019-08-08T09:01:08.000Z</time>
      </trkpt>
      <trkpt lat="42.91058" lon="0.70259">
        <ele>573</ele>
        <time>2019-08-08T09:01:09.000Z</time>
      </trkpt>
      <trkpt lat="42.91058" lon="0.70262">
        <ele>574</ele>
        <time>2019-08-08T09:01:10.000Z</time>
      </trkpt>
      <trkpt lat="42.91059" lon="0.70266">
        <ele>574</ele>
        <time>2019-08-08T09:01:11.000Z</time>
      </trkpt>
      <trkpt lat="42.91059" lon="0.70269">
        <ele>574</ele>
        <time>2019-08-08T09:01:12.000Z</time>
      </trkpt>
      <trkpt lat="42.9106" lon="0.70273">
        <ele>574</ele>
        <time>2019-08-08T09:01:13.000Z</time>
      </trkpt>
      <trkpt lat="42.9106" lon="0.70276">
        <ele>574</ele>
        <time>2019-08-08T09:01:14.000Z</time>
      </trkpt>
      <trkpt lat="42.91061" lon="0.7028">
        <ele>574</ele>
        <time>2019-08-08T09:01:15.000Z</time>
      </trkpt>
      <trkpt lat="42.91061" lon="0.70283">
        <ele>574</ele>
        <time>2019-08-08T09:01:16.000Z</time>
      </trkpt>
      <trkpt lat="42.91062" lon="0.70287">
        <ele>574</ele>
        <time>2019-08-08T09:01:17.000Z</time>
      </trkpt>
      <trkpt lat="42.91062" lon="0.7029">
        <ele>574</ele>
        <time>2019-08-08T09:01:18.000Z</time>
      </trkpt>
      <trkpt lat="42.91063" lon="0.70293">
        <ele>575</ele>
        <time>2019-08-08T09:01:19.000Z</time>
      </trkpt>
      <trkpt lat="42.91064" lon="0.70296">
        <ele>575</ele>
        <time>2019-08-08T09:01:20.000Z</time>
      </trkpt>
      <trkpt lat="42.91065" lon="0.70299">
        <ele>576</ele>
        <time>2019-08-08T09:01:21.000Z</time>
      </trkpt>
      <trkpt lat="42.91066" lon="0.70302">
        <ele>576</ele>
        <time>2019-08-08T09:01:22.000Z</time>
      </trkpt>
      <trkpt lat="42.91066" lon="0.70305">
        <ele>576</ele>
        <time>2019-08-08T09:01:23.000Z</time>
      </trkpt>
      <trkpt lat="42.91067" lon="0.70308">
        <ele>576</ele>
        <time>2019-08-08T09:01:24.000Z</time>
      </trkpt>
      <trkpt lat="42.91068" lon="0.70312">
        <ele>576</ele>
        <time>2019-08-08T09:01:25.000Z</time>
      </trkpt>
      <trkpt lat="42.91069" lon="0.70314">
        <ele>577</ele>
        <time>2019-08-08T09:01:26.000Z</time>
      </trkpt>
      <trkpt lat="42.9107" lon="0.70317">
        <ele>577</ele>
        <time>2019-08-08T09:01:27.000Z</time>
      </trkpt>
      <trkpt lat="42.91071" lon="0.7032">
        <ele>578</ele>
        <time>2019-08-08T09:01:28.000Z</time>
      </trkpt>
      <trkpt lat="42.91073" lon="0.70323">
        <ele>578</ele>
        <time>2019-08-08T09:01:29.000Z</time>
      </trkpt>
      <trkpt lat="42.91074" lon="0.70325">
        <ele>578</ele>
        <time>2019-08-08T09:01:30.000Z</time>
      </trkpt>
      <trkpt lat="42.91075" lon="0.70328">
        <ele>578</ele>
        <time>2019-08-08T09:01:31.000Z</time>
      </trkpt>
      <trkpt lat="42.91076" lon="0.70331">
        <ele>578</ele>
        <time>2019-08-08T09:01:32.000Z</time>
      </trkpt>
      <trkpt lat="42.91078" lon="0.70333">
        <ele>579</ele>
        <time>2019-08-08T09:01:33.000Z</time>
      </trkpt>
      <trkpt lat="42.91079" lon="0.70336">
        <ele>579</ele>
        <time>2019-08-08T09:01:34.000Z</time>
      </trkpt>
      <trkpt lat="42.9108" lon="0.70338">
        <ele>580</ele>
        <time>2019-08-08T09:01:35.000Z</time>
      </trkpt>
      <trkpt lat="42.91082" lon="0.7034">
        <ele>580</ele>
        <time>2019-08-08T09:01:36.000Z</time>
      </trkpt>
      <trkpt lat="42.91083" lon="0.70343">
        <ele>580</ele>
        <time>2019-08-08T09:01:37.000Z</time>
      </trkpt>
      <trkpt lat="42.91085" lon="0.70345">
        <ele>580</ele>
        <time>2019-08-08T09:01:38.000Z</time>
      </trkpt>
      <trkpt lat="42.91086" lon="0.70348">
        <ele>580</ele>
        <time>2019-08-08T09:01:39.000Z</time>
      </trkpt>
      <trkpt lat="42.91088" lon="0.7035">
        <ele>580</ele>
        <time>2019-08-08T09:01:40.000Z</time>
      </trkpt>
      <trkpt lat="42.91089" lon="0.70352">
        <ele>580</ele>
        <time>2019-08-08T09:01:41.000Z</time>
      </trkpt>
      <trkpt lat="42.9109" lon="0.70355">
        <ele>580</ele>
        <time>2019-08-08T09:01:42.000Z</time>
      </trkpt>
      <trkpt lat="42.91092" lon="0.70357">
        <ele>581</ele>
        <time>2019-08-08T09:01:43.000Z</time>
      </trkpt>
      <trkpt lat="42.91093" lon="0.7036">
        <ele>581</ele>
        <time>2019-08-08T09:01:44.000Z</time>
      </trkpt>
      <trkpt lat="42.91094" lon="0.70362">
        <ele>582</ele>
        <time>2019-08-08T09:01:45.000Z</time>
      </trkpt>
      <trkpt lat="42.91095" lon="0.70365">
        <ele>582</ele>
        <time>2019-08-08T09:01:46.000Z</time>
      </trkpt>
      <trkpt lat="42.91096" lon="0.70368">
        <ele>582</ele>
        <time>2019-08-08T09:01:47.000Z</time>
      </trkpt>
      <trkpt lat="42.91097" lon="0.7037">
        <ele>582</ele>
        <time>2019-08-08T09:01:48.000Z</time>
      </trkpt>
      <trkpt lat="42.91097" lon="0.70373">
        <ele>582</ele>
        <time>2019-08-08T09:01:49.000Z</time>
      </trkpt>
      <trkpt lat="42.91098" lon="0.70376">
        <ele>582</ele>
        <time>2019-08-08T09:01:50.000Z</time>
      </trkpt>
      <trkpt lat="42.91098" lon="0.70379">
        <ele>582</ele>
        <time>2019-08-08T09:01:51.000Z</time>
      </trkpt>
      <trkpt lat="42.91098" lon="0.70382">
        <ele>583</ele>
        <time>2019-08-08T09:01:52.000Z</time>
      </trkpt>
      <trkpt lat="42.91099" lon="0.70384">
        <ele>583</ele>
        <time>2019-08-08T09:01:53.000Z</time>
      </trkpt>
      <trkpt lat="42.91099" lon="0.70387">
        <ele>584</ele>
        <time>2019-08-08T09:01:54.000Z</time>
      </trkpt>
      <trkpt lat="42.911" lon="0.7039">
        <ele>584</ele>
        <time>2019-08-08T09:01:55.000Z</time>
      </trkpt>
      <trkpt lat="42.911" lon="0.70393">
        <ele>584</ele>
        <time>2019-08-08T09:01:56.000Z</time>
      </trkpt>
      <trkpt lat="42.911" lon="0.70396">
        <ele>584</ele>
        <time>2019-08-08T09:01:57.000Z</time>
      </trkpt>
      <trkpt lat="42.911" lon="0.704">
        <ele>585</ele>
        <time>2019-08-08T09:01:58.000Z</time>
      </trkpt>
      <trkpt lat="42.911" lon="0.70403">
        <ele>585</ele>
        <time>2019-08-08T09:01:59.000Z</time>
      </trkpt>
      <trkpt lat="42.911" lon="0.70406">
        <ele>586</ele>
        <time>2019-08-08T09:02:00.000Z</time>
      </trkpt>
      <trkpt lat="42.911" lon="0.70409">
        <ele>586</ele>
        <time>2019-08-08T09:02:01.000Z</time>
      </trkpt>
      <trkpt lat="42.911" lon="0.70413">
        <ele>586</ele>
        <time>2019-08-08T09:02:02.000Z</time>
      </trkpt>
      <trkpt lat="42.911" lon="0.70416">
        <ele>586</ele>
        <time>2019-08-08T09:02:03.000Z</time>
      </trkpt>
      <trkpt lat="42.911" lon="0.7042">
        <ele>587</ele>
        <time>2019-08-08T09:02:04.000Z</time>
      </trkpt>
      <trkpt lat="42.911" lon="0.70423">
        <ele>587</ele>
        <time>2019-08-08T09:02:05.000Z</time>
      </trkpt>
      <trkpt lat="42.911" lon="0.70426">
        <ele>587</ele>
        <time>2019-08-08T09:02:06.000Z</time>
      </trkpt>
      <trkpt lat="42.911" lon="0.7043">
        <ele>587</ele>
        <time>2019-08-08T09:02:07.000Z</time>
      </trkpt>
      <trkpt lat="42.91101" lon="0.70433">
        <ele>587</ele>
        <time>2019-08-08T09:02:08.000Z</time>
      </trkpt>
      <trkpt lat="42.91101" lon="0.70436">
        <ele>587</ele>
        <time>2019-08-08T09:02:09.000Z</time>
      </trkpt>
      <trkpt lat="42.91101" lon="0.70439">
        <ele>587</ele>
        <time>2019-08-08T09:02:10.000Z</time>
      </trkpt>
      <trkpt lat="42.91101" lon="0.70443">
        <ele>588</ele>
        <time>2019-08-08T09:02:11.000Z</time>
      </trkpt>
      <trkpt lat="42.91102" lon="0.70446">
        <ele>588</ele>
        <time>2019-08-08T09:02:12.000Z</time>
      </trkpt>
      <trkpt lat="42.91102" lon="0.70449">
        <ele>588</ele>
        <time>2019-08-08T09:02:13.000Z</time>
      </trkpt>
      <trkpt lat="42.91103" lon="0.70453">
        <ele>588</ele>
        <time>2019-08-08T09:02:14.000Z</time>
      </trkpt>
      <trkpt lat="42.91104" lon="0.70456">
        <ele>589</ele>
        <time>2019-08-08T09:02:15.000Z</time>
      </trkpt>
      <trkpt lat="42.91104" lon="0.70459">
        <ele>589</ele>
        <time>2019-08-08T09:02:16.000Z</time>
      </trkpt>
      <trkpt lat="42.91104" lon="0.70462">
        <ele>589</ele>
        <time>2019-08-08T09:02:17.000Z</time>
      </trkpt>
      <trkpt lat="42.91104" lon="0.70464">
        <ele>589</ele>
        <time>2019-08-08T09:02:18.000Z</time>
      </trkpt>
      <trkpt lat="42.91105" lon="0.70467">
        <ele>590</ele>
        <time>2019-08-08T09:02:19.000Z</time>
      </trkpt>
      <trkpt lat="42.91105" lon="0.70471">
        <ele>590</ele>
        <time>2019-08-08T09:02:20.000Z</time>
      </trkpt>
      <trkpt lat="42.91106" lon="0.70474">
        <ele>590</ele>
        <time>2019-08-08T09:02:21.000Z</time>
      </trkpt>
      <trkpt lat="42.91106" lon="0.70477">
        <ele>590</ele>
        <time>2019-08-08T09:02:22.000Z</time>
      </trkpt>
      <trkpt lat="42.91107" lon="0.7048">
        <ele>590</ele>
        <time>2019-08-08T09:02:23.000Z</time>
      </trkpt>
      <trkpt lat="42.91107" lon="0.70484">
        <ele>591</ele>
        <time>2019-08-08T09:02:24.000Z</time>
      </trkpt>
      <trkpt lat="42.91107" lon="0.70487">
        <ele>591</ele>
        <time>2019-08-08T09:02:25.000Z</time>
      </trkpt>
      <trkpt lat="42.91107" lon="0.7049">
        <ele>591</ele>
        <time>2019-08-08T09:02:26.000Z</time>
      </trkpt>
      <trkpt lat="42.91108" lon="0.70493">
        <ele>593</ele>
        <time>2019-08-08T09:02:27.000Z</time>
      </trkpt>
      <trkpt lat="42.91108" lon="0.70496">
        <ele>593</ele>
        <time>2019-08-08T09:02:28.000Z</time>
      </trkpt>
      <trkpt lat="42.91108" lon="0.70499">
        <ele>593</ele>
        <time>2019-08-08T09:02:29.000Z</time>
      </trkpt>
      <trkpt lat="42.91109" lon="0.70502">
        <ele>593</ele>
        <time>2019-08-08T09:02:30.000Z</time>
      </trkpt>
      <trkpt lat="42.91109" lon="0.70506">
        <ele>593</ele>
        <time>2019-08-08T09:02:31.000Z</time>
      </trkpt>
      <trkpt lat="42.91109" lon="0.70509">
        <ele>593</ele>
        <time>2019-08-08T09:02:32.000Z</time>
      </trkpt>
      <trkpt lat="42.91109" lon="0.70513">
        <ele>593</ele>
        <time>2019-08-08T09:02:33.000Z</time>
      </trkpt>
      <trkpt lat="42.9111" lon="0.70516">
        <ele>594</ele>
        <time>2019-08-08T09:02:34.000Z</time>
      </trkpt>
      <trkpt lat="42.9111" lon="0.7052">
        <ele>594</ele>
        <time>2019-08-08T09:02:35.000Z</time>
      </trkpt>
      <trkpt lat="42.9111" lon="0.70523">
        <ele>594</ele>
        <time>2019-08-08T09:02:36.000Z</time>
      </trkpt>
      <trkpt lat="42.91111" lon="0.70526">
        <ele>594</ele>
        <time>2019-08-08T09:02:37.000Z</time>
      </trkpt>
      <trkpt lat="42.91111" lon="0.7053">
        <ele>595</ele>
        <time>2019-08-08T09:02:38.000Z</time>
      </trkpt>
      <trkpt lat="42.91111" lon="0.70533">
        <ele>595</ele>
        <time>2019-08-08T09:02:39.000Z</time>
      </trkpt>
      <trkpt lat="42.91112" lon="0.70536">
        <ele>595</ele>
        <time>2019-08-08T09:02:40.000Z</time>
      </trkpt>
      <trkpt lat="42.91112" lon="0.70539">
        <ele>595</ele>
        <time>2019-08-08T09:02:41.000Z</time>
      </trkpt>
      <trkpt lat="42.91113" lon="0.70543">
        <ele>596</ele>
        <time>2019-08-08T09:02:42.000Z</time>
      </trkpt>
      <trkpt lat="42.91113" lon="0.70546">
        <ele>596</ele>
        <time>2019-08-08T09:02:43.000Z</time>
      </trkpt>
      <trkpt lat="42.91113" lon="0.70549">
        <ele>596</ele>
        <time>2019-08-08T09:02:44.000Z</time>
      </trkpt>
      <trkpt lat="42.91114" lon="0.70552">
        <ele>596</ele>
        <time>2019-08-08T09:02:45.000Z</time>
      </trkpt>
      <trkpt lat="42.91114" lon="0.70555">
        <ele>596</ele>
        <time>2019-08-08T09:02:46.000Z</time>
      </trkpt>
      <trkpt lat="42.91114" lon="0.70558">
        <ele>596</ele>
        <time>2019-08-08T09:02:47.000Z</time>
      </trkpt>
      <trkpt lat="42.91114" lon="0.70561">
        <ele>597</ele>
        <time>2019-08-08T09:02:48.000Z</time>
      </trkpt>
      <trkpt lat="42.91115" lon="0.70564">
        <ele>597</ele>
        <time>2019-08-08T09:02:49.000Z</time>
      </trkpt>
      <trkpt lat="42.91116" lon="0.70567">
        <ele>598</ele>
        <time>2019-08-08T09:02:50.000Z</time>
      </trkpt>
      <trkpt lat="42.91116" lon="0.7057">
        <ele>598</ele>
        <time>2019-08-08T09:02:51.000Z</time>
      </trkpt>
      <trkpt lat="42.91117" lon="0.70573">
        <ele>598</ele>
        <time>2019-08-08T09:02:52.000Z</time>
      </trkpt>
      <trkpt lat="42.91117" lon="0.70576">
        <ele>599</ele>
        <time>2019-08-08T09:02:53.000Z</time>
      </trkpt>
      <trkpt lat="42.91118" lon="0.70579">
        <ele>599</ele>
        <time>2019-08-08T09:02:54.000Z</time>
      </trkpt>
      <trkpt lat="42.91118" lon="0.70582">
        <ele>599</ele>
        <time>2019-08-08T09:02:55.000Z</time>
      </trkpt>
      <trkpt lat="42.91119" lon="0.70585">
        <ele>599</ele>
        <time>2019-08-08T09:02:56.000Z</time>
      </trkpt>
      <trkpt lat="42.9112" lon="0.70588">
        <ele>599</ele>
        <time>2019-08-08T09:02:57.000Z</time>
      </trkpt>
      <trkpt lat="42.91121" lon="0.70591">
        <ele>600</ele>
        <time>2019-08-08T09:02:58.000Z</time>
      </trkpt>
      <trkpt lat="42.91122" lon="0.70594">
        <ele>599</ele>
        <time>2019-08-08T09:02:59.000Z</time>
      </trkpt>
      <trkpt lat="42.91122" lon="0.70597">
        <ele>600</ele>
        <time>2019-08-08T09:03:00.000Z</time>
      </trkpt>
      <trkpt lat="42.91123" lon="0.706">
        <ele>600</ele>
        <time>2019-08-08T09:03:01.000Z</time>
      </trkpt>
      <trkpt lat="42.91124" lon="0.70604">
        <ele>601</ele>
        <time>2019-08-08T09:03:02.000Z</time>
      </trkpt>
      <trkpt lat="42.91125" lon="0.70607">
        <ele>601</ele>
        <time>2019-08-08T09:03:03.000Z</time>
      </trkpt>
      <trkpt lat="42.91126" lon="0.7061">
        <ele>602</ele>
        <time>2019-08-08T09:03:04.000Z</time>
      </trkpt>
      <trkpt lat="42.91128" lon="0.70615">
        <ele>602</ele>
        <time>2019-08-08T09:03:05.000Z</time>
      </trkpt>
      <trkpt lat="42.91129" lon="0.70616">
        <ele>602</ele>
        <time>2019-08-08T09:03:06.000Z</time>
      </trkpt>
      <trkpt lat="42.9113" lon="0.70619">
        <ele>602</ele>
        <time>2019-08-08T09:03:07.000Z</time>
      </trkpt>
      <trkpt lat="42.91131" lon="0.70622">
        <ele>603</ele>
        <time>2019-08-08T09:03:08.000Z</time>
      </trkpt>
      <trkpt lat="42.91133" lon="0.70626">
        <ele>603</ele>
        <time>2019-08-08T09:03:09.000Z</time>
      </trkpt>
      <trkpt lat="42.91134" lon="0.70629">
        <ele>603</ele>
        <time>2019-08-08T09:03:10.000Z</time>
      </trkpt>
      <trkpt lat="42.91136" lon="0.70631">
        <ele>603</ele>
        <time>2019-08-08T09:03:11.000Z</time>
      </trkpt>
      <trkpt lat="42.91137" lon="0.70634">
        <ele>604</ele>
        <time>2019-08-08T09:03:12.000Z</time>
      </trkpt>
      <trkpt lat="42.91139" lon="0.70637">
        <ele>604</ele>
        <time>2019-08-08T09:03:13.000Z</time>
      </trkpt>
      <trkpt lat="42.9114" lon="0.7064">
        <ele>604</ele>
        <time>2019-08-08T09:03:14.000Z</time>
      </trkpt>
      <trkpt lat="42.91142" lon="0.70643">
        <ele>604</ele>
        <time>2019-08-08T09:03:15.000Z</time>
      </trkpt>
      <trkpt lat="42.91143" lon="0.70645">
        <ele>605</ele>
        <time>2019-08-08T09:03:16.000Z</time>
      </trkpt>
      <trkpt lat="42.91145" lon="0.70648">
        <ele>605</ele>
        <time>2019-08-08T09:03:17.000Z</time>
      </trkpt>
      <trkpt lat="42.91147" lon="0.70651">
        <ele>605</ele>
        <time>2019-08-08T09:03:18.000Z</time>
      </trkpt>
      <trkpt lat="42.91148" lon="0.70654">
        <ele>605</ele>
        <time>2019-08-08T09:03:19.000Z</time>
      </trkpt>
      <trkpt lat="42.91149" lon="0.70657">
        <ele>606</ele>
        <time>2019-08-08T09:03:20.000Z</time>
      </trkpt>
      <trkpt lat="42.9115" lon="0.70659">
        <ele>606</ele>
        <time>2019-08-08T09:03:21.000Z</time>
      </trkpt>
      <trkpt lat="42.91152" lon="0.70662">
        <ele>606</ele>
        <time>2019-08-08T09:03:22.000Z</time>
      </trkpt>
      <trkpt lat="42.91153" lon="0.70665">
        <ele>606</ele>
        <time>2019-08-08T09:03:23.000Z</time>
      </trkpt>
      <trkpt lat="42.91155" lon="0.70668">
        <ele>605</ele>
        <time>2019-08-08T09:03:24.000Z</time>
      </trkpt>
      <trkpt lat="42.91156" lon="0.7067">
        <ele>606</ele>
        <time>2019-08-08T09:03:25.000Z</time>
      </trkpt>
      <trkpt lat="42.91157" lon="0.70673">
        <ele>606</ele>
        <time>2019-08-08T09:03:26.000Z</time>
      </trkpt>
      <trkpt lat="42.91159" lon="0.70675">
        <ele>606</ele>
        <time>2019-08-08T09:03:27.000Z</time>
      </trkpt>
      <trkpt lat="42.9116" lon="0.70678">
        <ele>607</ele>
        <time>2019-08-08T09:03:28.000Z</time>
      </trkpt>
      <trkpt lat="42.91162" lon="0.70681">
        <ele>607</ele>
        <time>2019-08-08T09:03:29.000Z</time>
      </trkpt>
      <trkpt lat="42.91163" lon="0.70684">
        <ele>607</ele>
        <time>2019-08-08T09:03:30.000Z</time>
      </trkpt>
      <trkpt lat="42.91164" lon="0.70686">
        <ele>607</ele>
        <time>2019-08-08T09:03:31.000Z</time>
      </trkpt>
      <trkpt lat="42.91166" lon="0.70689">
        <ele>608</ele>
        <time>2019-08-08T09:03:32.000Z</time>
      </trkpt>
      <trkpt lat="42.91167" lon="0.70692">
        <ele>608</ele>
        <time>2019-08-08T09:03:33.000Z</time>
      </trkpt>
      <trkpt lat="42.91168" lon="0.70695">
        <ele>609</ele>
        <time>2019-08-08T09:03:34.000Z</time>
      </trkpt>
      <trkpt lat="42.91169" lon="0.70697">
        <ele>609</ele>
        <time>2019-08-08T09:03:35.000Z</time>
      </trkpt>
      <trkpt lat="42.91171" lon="0.707">
        <ele>610</ele>
        <time>2019-08-08T09:03:36.000Z</time>
      </trkpt>
      <trkpt lat="42.91172" lon="0.70703">
        <ele>610</ele>
        <time>2019-08-08T09:03:37.000Z</time>
      </trkpt>
      <trkpt lat="42.91173" lon="0.70706">
        <ele>610</ele>
        <time>2019-08-08T09:03:38.000Z</time>
      </trkpt>
      <trkpt lat="42.91174" lon="0.70709">
        <ele>610</ele>
        <time>2019-08-08T09:03:39.000Z</time>
      </trkpt>
      <trkpt lat="42.91175" lon="0.70712">
        <ele>610</ele>
        <time>2019-08-08T09:03:40.000Z</time>
      </trkpt>
      <trkpt lat="42.91176" lon="0.70716">
        <ele>610</ele>
        <time>2019-08-08T09:03:41.000Z</time>
      </trkpt>
      <trkpt lat="42.91177" lon="0.70719">
        <ele>610</ele>
        <time>2019-08-08T09:03:42.000Z</time>
      </trkpt>
      <trkpt lat="42.91178" lon="0.70722">
        <ele>610</ele>
        <time>2019-08-08T09:03:43.000Z</time>
      </trkpt>
      <trkpt lat="42.91179" lon="0.70725">
        <ele>611</ele>
        <time>2019-08-08T09:03:44.000Z</time>
      </trkpt>
      <trkpt lat="42.9118" lon="0.70728">
        <ele>611</ele>
        <time>2019-08-08T09:03:45.000Z</time>
      </trkpt>
      <trkpt lat="42.91181" lon="0.70732">
        <ele>612</ele>
        <time>2019-08-08T09:03:46.000Z</time>
      </trkpt>
      <trkpt lat="42.91181" lon="0.70735">
        <ele>612</ele>
        <time>2019-08-08T09:03:47.000Z</time>
      </trkpt>
      <trkpt lat="42.91182" lon="0.70738">
        <ele>612</ele>
        <time>2019-08-08T09:03:48.000Z</time>
      </trkpt>
      <trkpt lat="42.91183" lon="0.70741">
        <ele>612</ele>
        <time>2019-08-08T09:03:49.000Z</time>
      </trkpt>
      <trkpt lat="42.91183" lon="0.70744">
        <ele>612</ele>
        <time>2019-08-08T09:03:50.000Z</time>
      </trkpt>
      <trkpt lat="42.91184" lon="0.70747">
        <ele>613</ele>
        <time>2019-08-08T09:03:51.000Z</time>
      </trkpt>
      <trkpt lat="42.91184" lon="0.7075">
        <ele>613</ele>
        <time>2019-08-08T09:03:52.000Z</time>
      </trkpt>
      <trkpt lat="42.91185" lon="0.70754">
        <ele>613</ele>
        <time>2019-08-08T09:03:53.000Z</time>
      </trkpt>
      <trkpt lat="42.91186" lon="0.70757">
        <ele>613</ele>
        <time>2019-08-08T09:03:54.000Z</time>
      </trkpt>
      <trkpt lat="42.91186" lon="0.7076">
        <ele>614</ele>
        <time>2019-08-08T09:03:55.000Z</time>
      </trkpt>
      <trkpt lat="42.91187" lon="0.70763">
        <ele>614</ele>
        <time>2019-08-08T09:03:56.000Z</time>
      </trkpt>
      <trkpt lat="42.91187" lon="0.70766">
        <ele>615</ele>
        <time>2019-08-08T09:03:57.000Z</time>
      </trkpt>
      <trkpt lat="42.91188" lon="0.70769">
        <ele>615</ele>
        <time>2019-08-08T09:03:58.000Z</time>
      </trkpt>
      <trkpt lat="42.91189" lon="0.70772">
        <ele>615</ele>
        <time>2019-08-08T09:03:59.000Z</time>
      </trkpt>
      <trkpt lat="42.9119" lon="0.70775">
        <ele>615</ele>
        <time>2019-08-08T09:04:00.000Z</time>
      </trkpt>
      <trkpt lat="42.91191" lon="0.70778">
        <ele>615</ele>
        <time>2019-08-08T09:04:01.000Z</time>
      </trkpt>
      <trkpt lat="42.91191" lon="0.70782">
        <ele>615</ele>
        <time>2019-08-08T09:04:02.000Z</time>
      </trkpt>
      <trkpt lat="42.91192" lon="0.70785">
        <ele>616</ele>
        <time>2019-08-08T09:04:03.000Z</time>
      </trkpt>
      <trkpt lat="42.91193" lon="0.70788">
        <ele>616</ele>
        <time>2019-08-08T09:04:04.000Z</time>
      </trkpt>
      <trkpt lat="42.91193" lon="0.70791">
        <ele>615</ele>
        <time>2019-08-08T09:04:05.000Z</time>
      </trkpt>
      <trkpt lat="42.91194" lon="0.70794">
        <ele>617</ele>
        <time>2019-08-08T09:04:06.000Z</time>
      </trkpt>
      <trkpt lat="42.91195" lon="0.70797">
        <ele>617</ele>
        <time>2019-08-08T09:04:07.000Z</time>
      </trkpt>
      <trkpt lat="42.91196" lon="0.708">
        <ele>617</ele>
        <time>2019-08-08T09:04:08.000Z</time>
      </trkpt>
      <trkpt lat="42.91197" lon="0.70802">
        <ele>617</ele>
        <time>2019-08-08T09:04:09.000Z</time>
      </trkpt>
      <trkpt lat="42.91198" lon="0.70805">
        <ele>617</ele>
        <time>2019-08-08T09:04:10.000Z</time>
      </trkpt>
      <trkpt lat="42.91199" lon="0.70808">
        <ele>617</ele>
        <time>2019-08-08T09:04:11.000Z</time>
      </trkpt>
      <trkpt lat="42.91201" lon="0.70811">
        <ele>618</ele>
        <time>2019-08-08T09:04:12.000Z</time>
      </trkpt>
      <trkpt lat="42.91202" lon="0.70813">
        <ele>618</ele>
        <time>2019-08-08T09:04:13.000Z</time>
      </trkpt>
      <trkpt lat="42.91204" lon="0.70816">
        <ele>619</ele>
        <time>2019-08-08T09:04:14.000Z</time>
      </trkpt>
      <trkpt lat="42.91206" lon="0.70818">
        <ele>619</ele>
        <time>2019-08-08T09:04:15.000Z</time>
      </trkpt>
      <trkpt lat="42.91208" lon="0.7082">
        <ele>619</ele>
        <time>2019-08-08T09:04:16.000Z</time>
      </trkpt>
      <trkpt lat="42.9121" lon="0.70822">
        <ele>619</ele>
        <time>2019-08-08T09:04:17.000Z</time>
      </trkpt>
      <trkpt lat="42.91212" lon="0.70824">
        <ele>620</ele>
        <time>2019-08-08T09:04:18.000Z</time>
      </trkpt>
      <trkpt lat="42.91214" lon="0.70826">
        <ele>620</ele>
        <time>2019-08-08T09:04:19.000Z</time>
      </trkpt>
      <trkpt lat="42.91216" lon="0.70827">
        <ele>620</ele>
        <time>2019-08-08T09:04:20.000Z</time>
      </trkpt>
      <trkpt lat="42.91218" lon="0.70828">
        <ele>620</ele>
        <time>2019-08-08T09:04:21.000Z</time>
      </trkpt>
      <trkpt lat="42.9122" lon="0.70829">
        <ele>620</ele>
        <time>2019-08-08T09:04:22.000Z</time>
      </trkpt>
      <trkpt lat="42.91223" lon="0.7083">
        <ele>620</ele>
        <time>2019-08-08T09:04:23.000Z</time>
      </trkpt>
      <trkpt lat="42.91225" lon="0.70831">
        <ele>620</ele>
        <time>2019-08-08T09:04:24.000Z</time>
      </trkpt>
      <trkpt lat="42.91227" lon="0.70832">
        <ele>620</ele>
        <time>2019-08-08T09:04:25.000Z</time>
      </trkpt>
      <trkpt lat="42.9123" lon="0.70833">
        <ele>620</ele>
        <time>2019-08-08T09:04:26.000Z</time>
      </trkpt>
      <trkpt lat="42.91232" lon="0.70834">
        <ele>620</ele>
        <time>2019-08-08T09:04:27.000Z</time>
      </trkpt>
      <trkpt lat="42.91234" lon="0.70835">
        <ele>620</ele>
        <time>2019-08-08T09:04:28.000Z</time>
      </trkpt>
      <trkpt lat="42.91237" lon="0.70835">
        <ele>622</ele>
        <time>2019-08-08T09:04:29.000Z</time>
      </trkpt>
      <trkpt lat="42.91239" lon="0.70836">
        <ele>622</ele>
        <time>2019-08-08T09:04:30.000Z</time>
      </trkpt>
      <trkpt lat="42.91241" lon="0.70837">
        <ele>622</ele>
        <time>2019-08-08T09:04:31.000Z</time>
      </trkpt>
      <trkpt lat="42.91243" lon="0.70838">
        <ele>622</ele>
        <time>2019-08-08T09:04:32.000Z</time>
      </trkpt>
      <trkpt lat="42.91245" lon="0.70838">
        <ele>622</ele>
        <time>2019-08-08T09:04:33.000Z</time>
      </trkpt>
      <trkpt lat="42.91247" lon="0.70839">
        <ele>622</ele>
        <time>2019-08-08T09:04:34.000Z</time>
      </trkpt>
      <trkpt lat="42.91249" lon="0.7084">
        <ele>623</ele>
        <time>2019-08-08T09:04:35.000Z</time>
      </trkpt>
      <trkpt lat="42.91251" lon="0.70842">
        <ele>623</ele>
        <time>2019-08-08T09:04:36.000Z</time>
      </trkpt>
      <trkpt lat="42.91252" lon="0.70843">
        <ele>624</ele>
        <time>2019-08-08T09:04:37.000Z</time>
      </trkpt>
      <trkpt lat="42.91254" lon="0.70845">
        <ele>624</ele>
        <time>2019-08-08T09:04:38.000Z</time>
      </trkpt>
      <trkpt lat="42.91255" lon="0.70846">
        <ele>624</ele>
        <time>2019-08-08T09:04:39.000Z</time>
      </trkpt>
      <trkpt lat="42.91257" lon="0.70848">
        <ele>624</ele>
        <time>2019-08-08T09:04:40.000Z</time>
      </trkpt>
      <trkpt lat="42.91258" lon="0.7085">
        <ele>625</ele>
        <time>2019-08-08T09:04:41.000Z</time>
      </trkpt>
      <trkpt lat="42.9126" lon="0.70853">
        <ele>625</ele>
        <time>2019-08-08T09:04:42.000Z</time>
      </trkpt>
      <trkpt lat="42.91261" lon="0.70855">
        <ele>626</ele>
        <time>2019-08-08T09:04:43.000Z</time>
      </trkpt>
      <trkpt lat="42.91262" lon="0.70858">
        <ele>626</ele>
        <time>2019-08-08T09:04:44.000Z</time>
      </trkpt>
      <trkpt lat="42.91264" lon="0.70861">
        <ele>627</ele>
        <time>2019-08-08T09:04:45.000Z</time>
      </trkpt>
      <trkpt lat="42.91264" lon="0.70864">
        <ele>627</ele>
        <time>2019-08-08T09:04:46.000Z</time>
      </trkpt>
      <trkpt lat="42.91265" lon="0.70866">
        <ele>627</ele>
        <time>2019-08-08T09:04:47.000Z</time>
      </trkpt>
      <trkpt lat="42.91266" lon="0.70869">
        <ele>627</ele>
        <time>2019-08-08T09:04:48.000Z</time>
      </trkpt>
      <trkpt lat="42.91266" lon="0.70872">
        <ele>628</ele>
        <time>2019-08-08T09:04:49.000Z</time>
      </trkpt>
      <trkpt lat="42.91266" lon="0.70875">
        <ele>628</ele>
        <time>2019-08-08T09:04:50.000Z</time>
      </trkpt>
      <trkpt lat="42.91266" lon="0.70878">
        <ele>628</ele>
        <time>2019-08-08T09:04:51.000Z</time>
      </trkpt>
      <trkpt lat="42.91265" lon="0.70881">
        <ele>628</ele>
        <time>2019-08-08T09:04:52.000Z</time>
      </trkpt>
      <trkpt lat="42.91265" lon="0.70884">
        <ele>628</ele>
        <time>2019-08-08T09:04:53.000Z</time>
      </trkpt>
      <trkpt lat="42.91264" lon="0.70887">
        <ele>628</ele>
        <time>2019-08-08T09:04:54.000Z</time>
      </trkpt>
      <trkpt lat="42.91263" lon="0.7089">
        <ele>629</ele>
        <time>2019-08-08T09:04:55.000Z</time>
      </trkpt>
      <trkpt lat="42.91262" lon="0.70893">
        <ele>629</ele>
        <time>2019-08-08T09:04:56.000Z</time>
      </trkpt>
      <trkpt lat="42.91261" lon="0.70896">
        <ele>629</ele>
        <time>2019-08-08T09:04:57.000Z</time>
      </trkpt>
      <trkpt lat="42.9126" lon="0.70899">
        <ele>629</ele>
        <time>2019-08-08T09:04:58.000Z</time>
      </trkpt>
      <trkpt lat="42.91259" lon="0.70902">
        <ele>629</ele>
        <time>2019-08-08T09:04:59.000Z</time>
      </trkpt>
      <trkpt lat="42.91259" lon="0.70905">
        <ele>629</ele>
        <time>2019-08-08T09:05:00.000Z</time>
      </trkpt>
      <trkpt lat="42.91258" lon="0.70907">
        <ele>630</ele>
        <time>2019-08-08T09:05:01.000Z</time>
      </trkpt>
      <trkpt lat="42.91257" lon="0.7091">
        <ele>630</ele>
        <time>2019-08-08T09:05:02.000Z</time>
      </trkpt>
      <trkpt lat="42.91257" lon="0.70914">
        <ele>630</ele>
        <time>2019-08-08T09:05:03.000Z</time>
      </trkpt>
      <trkpt lat="42.91256" lon="0.70917">
        <ele>630</ele>
        <time>2019-08-08T09:05:04.000Z</time>
      </trkpt>
      <trkpt lat="42.91255" lon="0.7092">
        <ele>631</ele>
        <time>2019-08-08T09:05:05.000Z</time>
      </trkpt>
      <trkpt lat="42.91254" lon="0.70923">
        <ele>631</ele>
        <time>2019-08-08T09:05:06.000Z</time>
      </trkpt>
      <trkpt lat="42.91254" lon="0.70925">
        <ele>632</ele>
        <time>2019-08-08T09:05:07.000Z</time>
      </trkpt>
      <trkpt lat="42.91253" lon="0.70927">
        <ele>632</ele>
        <time>2019-08-08T09:05:08.000Z</time>
      </trkpt>
      <trkpt lat="42.91253" lon="0.7093">
        <ele>633</ele>
        <time>2019-08-08T09:05:09.000Z</time>
      </trkpt>
      <trkpt lat="42.91252" lon="0.70933">
        <ele>633</ele>
        <time>2019-08-08T09:05:10.000Z</time>
      </trkpt>
      <trkpt lat="42.91251" lon="0.70935">
        <ele>634</ele>
        <time>2019-08-08T09:05:11.000Z</time>
      </trkpt>
      <trkpt lat="42.91251" lon="0.70938">
        <ele>634</ele>
        <time>2019-08-08T09:05:12.000Z</time>
      </trkpt>
      <trkpt lat="42.9125" lon="0.7094">
        <ele>634</ele>
        <time>2019-08-08T09:05:13.000Z</time>
      </trkpt>
      <trkpt lat="42.91249" lon="0.70943">
        <ele>634</ele>
        <time>2019-08-08T09:05:14.000Z</time>
      </trkpt>
      <trkpt lat="42.91249" lon="0.70946">
        <ele>634</ele>
        <time>2019-08-08T09:05:15.000Z</time>
      </trkpt>
      <trkpt lat="42.91248" lon="0.70949">
        <ele>634</ele>
        <time>2019-08-08T09:05:16.000Z</time>
      </trkpt>
      <trkpt lat="42.91248" lon="0.70953">
        <ele>635</ele>
        <time>2019-08-08T09:05:17.000Z</time>
      </trkpt>
      <trkpt lat="42.91248" lon="0.70956">
        <ele>635</ele>
        <time>2019-08-08T09:05:18.000Z</time>
      </trkpt>
      <trkpt lat="42.91248" lon="0.70959">
        <ele>636</ele>
        <time>2019-08-08T09:05:19.000Z</time>
      </trkpt>
      <trkpt lat="42.91247" lon="0.70962">
        <ele>636</ele>
        <time>2019-08-08T09:05:20.000Z</time>
      </trkpt>
      <trkpt lat="42.91247" lon="0.70966">
        <ele>636</ele>
        <time>2019-08-08T09:05:21.000Z</time>
      </trkpt>
      <trkpt lat="42.91247" lon="0.70969">
        <ele>637</ele>
        <time>2019-08-08T09:05:22.000Z</time>
      </trkpt>
      <trkpt lat="42.91247" lon="0.70973">
        <ele>637</ele>
        <time>2019-08-08T09:05:23.000Z</time>
      </trkpt>
      <trkpt lat="42.91247" lon="0.70976">
        <ele>637</ele>
        <time>2019-08-08T09:05:24.000Z</time>
      </trkpt>
      <trkpt lat="42.91247" lon="0.70979">
        <ele>637</ele>
        <time>2019-08-08T09:05:25.000Z</time>
      </trkpt>
      <trkpt lat="42.91247" lon="0.70983">
        <ele>638</ele>
        <time>2019-08-08T09:05:26.000Z</time>
      </trkpt>
      <trkpt lat="42.91248" lon="0.70986">
        <ele>638</ele>
        <time>2019-08-08T09:05:27.000Z</time>
      </trkpt>
      <trkpt lat="42.91248" lon="0.70989">
        <ele>638</ele>
        <time>2019-08-08T09:05:28.000Z</time>
      </trkpt>
      <trkpt lat="42.91249" lon="0.70992">
        <ele>638</ele>
        <time>2019-08-08T09:05:29.000Z</time>
      </trkpt>
      <trkpt lat="42.91249" lon="0.70995">
        <ele>638</ele>
        <time>2019-08-08T09:05:30.000Z</time>
      </trkpt>
      <trkpt lat="42.9125" lon="0.70998">
        <ele>638</ele>
        <time>2019-08-08T09:05:31.000Z</time>
      </trkpt>
      <trkpt lat="42.9125" lon="0.71001">
        <ele>638</ele>
        <time>2019-08-08T09:05:32.000Z</time>
      </trkpt>
      <trkpt lat="42.9125" lon="0.71004">
        <ele>638</ele>
        <time>2019-08-08T09:05:33.000Z</time>
      </trkpt>
      <trkpt lat="42.9125" lon="0.71007">
        <ele>639</ele>
        <time>2019-08-08T09:05:34.000Z</time>
      </trkpt>
      <trkpt lat="42.91251" lon="0.71009">
        <ele>639</ele>
        <time>2019-08-08T09:05:35.000Z</time>
      </trkpt>
      <trkpt lat="42.91251" lon="0.71012">
        <ele>640</ele>
        <time>2019-08-08T09:05:36.000Z</time>
      </trkpt>
      <trkpt lat="42.91251" lon="0.71015">
        <ele>640</ele>
        <time>2019-08-08T09:05:37.000Z</time>
      </trkpt>
      <trkpt lat="42.91252" lon="0.71018">
        <ele>640</ele>
        <time>2019-08-08T09:05:38.000Z</time>
      </trkpt>
      <trkpt lat="42.91252" lon="0.71022">
        <ele>640</ele>
        <time>2019-08-08T09:05:39.000Z</time>
      </trkpt>
      <trkpt lat="42.91252" lon="0.71025">
        <ele>640</ele>
        <time>2019-08-08T09:05:40.000Z</time>
      </trkpt>
      <trkpt lat="42.91253" lon="0.71029">
        <ele>641</ele>
        <time>2019-08-08T09:05:41.000Z</time>
      </trkpt>
      <trkpt lat="42.91253" lon="0.71033">
        <ele>641</ele>
        <time>2019-08-08T09:05:42.000Z</time>
      </trkpt>
      <trkpt lat="42.91254" lon="0.71036">
        <ele>641</ele>
        <time>2019-08-08T09:05:43.000Z</time>
      </trkpt>
      <trkpt lat="42.91254" lon="0.7104">
        <ele>641</ele>
        <time>2019-08-08T09:05:44.000Z</time>
      </trkpt>
      <trkpt lat="42.91255" lon="0.71043">
        <ele>643</ele>
        <time>2019-08-08T09:05:45.000Z</time>
      </trkpt>
      <trkpt lat="42.91255" lon="0.71047">
        <ele>643</ele>
        <time>2019-08-08T09:05:46.000Z</time>
      </trkpt>
      <trkpt lat="42.91256" lon="0.7105">
        <ele>643</ele>
        <time>2019-08-08T09:05:47.000Z</time>
      </trkpt>
      <trkpt lat="42.91257" lon="0.71054">
        <ele>643</ele>
        <time>2019-08-08T09:05:48.000Z</time>
      </trkpt>
      <trkpt lat="42.91257" lon="0.71057">
        <ele>643</ele>
        <time>2019-08-08T09:05:49.000Z</time>
      </trkpt>
      <trkpt lat="42.91257" lon="0.7106">
        <ele>643</ele>
        <time>2019-08-08T09:05:50.000Z</time>
      </trkpt>
      <trkpt lat="42.91258" lon="0.71063">
        <ele>644</ele>
        <time>2019-08-08T09:05:51.000Z</time>
      </trkpt>
      <trkpt lat="42.91259" lon="0.71066">
        <ele>644</ele>
        <time>2019-08-08T09:05:52.000Z</time>
      </trkpt>
      <trkpt lat="42.91259" lon="0.7107">
        <ele>644</ele>
        <time>2019-08-08T09:05:53.000Z</time>
      </trkpt>
      <trkpt lat="42.9126" lon="0.71073">
        <ele>644</ele>
        <time>2019-08-08T09:05:54.000Z</time>
      </trkpt>
      <trkpt lat="42.9126" lon="0.71076">
        <ele>645</ele>
        <time>2019-08-08T09:05:55.000Z</time>
      </trkpt>
      <trkpt lat="42.91261" lon="0.7108">
        <ele>645</ele>
        <time>2019-08-08T09:05:56.000Z</time>
      </trkpt>
      <trkpt lat="42.91261" lon="0.71083">
        <ele>646</ele>
        <time>2019-08-08T09:05:57.000Z</time>
      </trkpt>
      <trkpt lat="42.91261" lon="0.71086">
        <ele>646</ele>
        <time>2019-08-08T09:05:58.000Z</time>
      </trkpt>
      <trkpt lat="42.91262" lon="0.7109">
        <ele>646</ele>
        <time>2019-08-08T09:05:59.000Z</time>
      </trkpt>
      <trkpt lat="42.91262" lon="0.71093">
        <ele>646</ele>
        <time>2019-08-08T09:06:00.000Z</time>
      </trkpt>
      <trkpt lat="42.91263" lon="0.71096">
        <ele>646</ele>
        <time>2019-08-08T09:06:01.000Z</time>
      </trkpt>
      <trkpt lat="42.91263" lon="0.71099">
        <ele>647</ele>
        <time>2019-08-08T09:06:02.000Z</time>
      </trkpt>
      <trkpt lat="42.91264" lon="0.71102">
        <ele>647</ele>
        <time>2019-08-08T09:06:03.000Z</time>
      </trkpt>
      <trkpt lat="42.91264" lon="0.71105">
        <ele>647</ele>
        <time>2019-08-08T09:06:04.000Z</time>
      </trkpt>
      <trkpt lat="42.91265" lon="0.71108">
        <ele>647</ele>
        <time>2019-08-08T09:06:05.000Z</time>
      </trkpt>
      <trkpt lat="42.91266" lon="0.71111">
        <ele>647</ele>
        <time>2019-08-08T09:06:06.000Z</time>
      </trkpt>
      <trkpt lat="42.91267" lon="0.71114">
        <ele>647</ele>
        <time>2019-08-08T09:06:07.000Z</time>
      </trkpt>
      <trkpt lat="42.91268" lon="0.71117">
        <ele>648</ele>
        <time>2019-08-08T09:06:08.000Z</time>
      </trkpt>
      <trkpt lat="42.91269" lon="0.7112">
        <ele>648</ele>
        <time>2019-08-08T09:06:09.000Z</time>
      </trkpt>
      <trkpt lat="42.9127" lon="0.71123">
        <ele>649</ele>
        <time>2019-08-08T09:06:10.000Z</time>
      </trkpt>
      <trkpt lat="42.91272" lon="0.71126">
        <ele>649</ele>
        <time>2019-08-08T09:06:11.000Z</time>
      </trkpt>
      <trkpt lat="42.91273" lon="0.71128">
        <ele>649</ele>
        <time>2019-08-08T09:06:12.000Z</time>
      </trkpt>
      <trkpt lat="42.91274" lon="0.71131">
        <ele>649</ele>
        <time>2019-08-08T09:06:13.000Z</time>
      </trkpt>
      <trkpt lat="42.91276" lon="0.71133">
        <ele>650</ele>
        <time>2019-08-08T09:06:14.000Z</time>
      </trkpt>
      <trkpt lat="42.91278" lon="0.71136">
        <ele>650</ele>
        <time>2019-08-08T09:06:15.000Z</time>
      </trkpt>
      <trkpt lat="42.91279" lon="0.71138">
        <ele>650</ele>
        <time>2019-08-08T09:06:16.000Z</time>
      </trkpt>
      <trkpt lat="42.91281" lon="0.7114">
        <ele>650</ele>
        <time>2019-08-08T09:06:17.000Z</time>
      </trkpt>
      <trkpt lat="42.91283" lon="0.71142">
        <ele>650</ele>
        <time>2019-08-08T09:06:18.000Z</time>
      </trkpt>
      <trkpt lat="42.91285" lon="0.71144">
        <ele>651</ele>
        <time>2019-08-08T09:06:19.000Z</time>
      </trkpt>
      <trkpt lat="42.91287" lon="0.71146">
        <ele>651</ele>
        <time>2019-08-08T09:06:20.000Z</time>
      </trkpt>
      <trkpt lat="42.91289" lon="0.71149">
        <ele>652</ele>
        <time>2019-08-08T09:06:21.000Z</time>
      </trkpt>
      <trkpt lat="42.91291" lon="0.71151">
        <ele>652</ele>
        <time>2019-08-08T09:06:22.000Z</time>
      </trkpt>
      <trkpt lat="42.91293" lon="0.71153">
        <ele>653</ele>
        <time>2019-08-08T09:06:23.000Z</time>
      </trkpt>
      <trkpt lat="42.91295" lon="0.71155">
        <ele>653</ele>
        <time>2019-08-08T09:06:24.000Z</time>
      </trkpt>
      <trkpt lat="42.91297" lon="0.71157">
        <ele>654</ele>
        <time>2019-08-08T09:06:25.000Z</time>
      </trkpt>
      <trkpt lat="42.91298" lon="0.7116">
        <ele>654</ele>
        <time>2019-08-08T09:06:26.000Z</time>
      </trkpt>
      <trkpt lat="42.913" lon="0.71162">
        <ele>654</ele>
        <time>2019-08-08T09:06:27.000Z</time>
      </trkpt>
      <trkpt lat="42.91302" lon="0.71165">
        <ele>654</ele>
        <time>2019-08-08T09:06:28.000Z</time>
      </trkpt>
      <trkpt lat="42.91304" lon="0.71167">
        <ele>654</ele>
        <time>2019-08-08T09:06:29.000Z</time>
      </trkpt>
      <trkpt lat="42.91306" lon="0.7117">
        <ele>654</ele>
        <time>2019-08-08T09:06:30.000Z</time>
      </trkpt>
      <trkpt lat="42.91309" lon="0.71172">
        <ele>654</ele>
        <time>2019-08-08T09:06:31.000Z</time>
      </trkpt>
      <trkpt lat="42.91311" lon="0.71175">
        <ele>654</ele>
        <time>2019-08-08T09:06:32.000Z</time>
      </trkpt>
      <trkpt lat="42.91313" lon="0.71177">
        <ele>655</ele>
        <time>2019-08-08T09:06:33.000Z</time>
      </trkpt>
      <trkpt lat="42.91317" lon="0.71181">
        <ele>655</ele>
        <time>2019-08-08T09:06:34.000Z</time>
      </trkpt>
      <trkpt lat="42.91318" lon="0.71182">
        <ele>655</ele>
        <time>2019-08-08T09:06:35.000Z</time>
      </trkpt>
      <trkpt lat="42.91321" lon="0.71185">
        <ele>655</ele>
        <time>2019-08-08T09:06:36.000Z</time>
      </trkpt>
      <trkpt lat="42.91323" lon="0.71187">
        <ele>656</ele>
        <time>2019-08-08T09:06:37.000Z</time>
      </trkpt>
      <trkpt lat="42.91325" lon="0.7119">
        <ele>656</ele>
        <time>2019-08-08T09:06:38.000Z</time>
      </trkpt>
      <trkpt lat="42.91327" lon="0.71193">
        <ele>656</ele>
        <time>2019-08-08T09:06:39.000Z</time>
      </trkpt>
      <trkpt lat="42.91329" lon="0.71196">
        <ele>656</ele>
        <time>2019-08-08T09:06:40.000Z</time>
      </trkpt>
      <trkpt lat="42.91332" lon="0.71199">
        <ele>656</ele>
        <time>2019-08-08T09:06:41.000Z</time>
      </trkpt>
      <trkpt lat="42.91334" lon="0.71202">
        <ele>656</ele>
        <time>2019-08-08T09:06:42.000Z</time>
      </trkpt>
      <trkpt lat="42.91336" lon="0.71204">
        <ele>656</ele>
        <time>2019-08-08T09:06:43.000Z</time>
      </trkpt>
      <trkpt lat="42.91339" lon="0.71207">
        <ele>656</ele>
        <time>2019-08-08T09:06:44.000Z</time>
      </trkpt>
      <trkpt lat="42.91341" lon="0.7121">
        <ele>657</ele>
        <time>2019-08-08T09:06:45.000Z</time>
      </trkpt>
      <trkpt lat="42.91344" lon="0.71212">
        <ele>657</ele>
        <time>2019-08-08T09:06:46.000Z</time>
      </trkpt>
      <trkpt lat="42.91346" lon="0.71215">
        <ele>657</ele>
        <time>2019-08-08T09:06:47.000Z</time>
      </trkpt>
      <trkpt lat="42.91348" lon="0.71218">
        <ele>657</ele>
        <time>2019-08-08T09:06:48.000Z</time>
      </trkpt>
      <trkpt lat="42.91351" lon="0.71221">
        <ele>658</ele>
        <time>2019-08-08T09:06:49.000Z</time>
      </trkpt>
      <trkpt lat="42.91353" lon="0.71224">
        <ele>658</ele>
        <time>2019-08-08T09:06:50.000Z</time>
      </trkpt>
      <trkpt lat="42.91355" lon="0.71227">
        <ele>659</ele>
        <time>2019-08-08T09:06:51.000Z</time>
      </trkpt>
      <trkpt lat="42.91358" lon="0.7123">
        <ele>659</ele>
        <time>2019-08-08T09:06:52.000Z</time>
      </trkpt>
      <trkpt lat="42.9136" lon="0.71232">
        <ele>659</ele>
        <time>2019-08-08T09:06:53.000Z</time>
      </trkpt>
      <trkpt lat="42.91362" lon="0.71235">
        <ele>659</ele>
        <time>2019-08-08T09:06:54.000Z</time>
      </trkpt>
      <trkpt lat="42.91364" lon="0.71238">
        <ele>659</ele>
        <time>2019-08-08T09:06:55.000Z</time>
      </trkpt>
      <trkpt lat="42.91366" lon="0.71241">
        <ele>659</ele>
        <time>2019-08-08T09:06:56.000Z</time>
      </trkpt>
      <trkpt lat="42.91368" lon="0.71245">
        <ele>659</ele>
        <time>2019-08-08T09:06:57.000Z</time>
      </trkpt>
      <trkpt lat="42.9137" lon="0.71248">
        <ele>660</ele>
        <time>2019-08-08T09:06:58.000Z</time>
      </trkpt>
      <trkpt lat="42.91372" lon="0.71251">
        <ele>660</ele>
        <time>2019-08-08T09:06:59.000Z</time>
      </trkpt>
      <trkpt lat="42.91373" lon="0.71255">
        <ele>661</ele>
        <time>2019-08-08T09:07:00.000Z</time>
      </trkpt>
      <trkpt lat="42.91375" lon="0.71258">
        <ele>661</ele>
        <time>2019-08-08T09:07:01.000Z</time>
      </trkpt>
      <trkpt lat="42.91377" lon="0.71261">
        <ele>662</ele>
        <time>2019-08-08T09:07:02.000Z</time>
      </trkpt>
      <trkpt lat="42.91378" lon="0.71264">
        <ele>662</ele>
        <time>2019-08-08T09:07:03.000Z</time>
      </trkpt>
      <trkpt lat="42.9138" lon="0.71268">
        <ele>662</ele>
        <time>2019-08-08T09:07:04.000Z</time>
      </trkpt>
      <trkpt lat="42.91382" lon="0.71271">
        <ele>662</ele>
        <time>2019-08-08T09:07:05.000Z</time>
      </trkpt>
      <trkpt lat="42.91383" lon="0.71274">
        <ele>663</ele>
        <time>2019-08-08T09:07:06.000Z</time>
      </trkpt>
      <trkpt lat="42.91385" lon="0.71278">
        <ele>663</ele>
        <time>2019-08-08T09:07:07.000Z</time>
      </trkpt>
      <trkpt lat="42.91387" lon="0.71281">
        <ele>663</ele>
        <time>2019-08-08T09:07:08.000Z</time>
      </trkpt>
      <trkpt lat="42.91389" lon="0.71284">
        <ele>663</ele>
        <time>2019-08-08T09:07:09.000Z</time>
      </trkpt>
      <trkpt lat="42.9139" lon="0.71287">
        <ele>664</ele>
        <time>2019-08-08T09:07:10.000Z</time>
      </trkpt>
      <trkpt lat="42.91392" lon="0.7129">
        <ele>664</ele>
        <time>2019-08-08T09:07:11.000Z</time>
      </trkpt>
      <trkpt lat="42.91394" lon="0.71293">
        <ele>665</ele>
        <time>2019-08-08T09:07:12.000Z</time>
      </trkpt>
      <trkpt lat="42.91395" lon="0.71297">
        <ele>665</ele>
        <time>2019-08-08T09:07:13.000Z</time>
      </trkpt>
      <trkpt lat="42.91397" lon="0.713">
        <ele>665</ele>
        <time>2019-08-08T09:07:14.000Z</time>
      </trkpt>
      <trkpt lat="42.91398" lon="0.71303">
        <ele>665</ele>
        <time>2019-08-08T09:07:15.000Z</time>
      </trkpt>
      <trkpt lat="42.914" lon="0.71306">
        <ele>665</ele>
        <time>2019-08-08T09:07:16.000Z</time>
      </trkpt>
      <trkpt lat="42.91402" lon="0.71308">
        <ele>666</ele>
        <time>2019-08-08T09:07:17.000Z</time>
      </trkpt>
      <trkpt lat="42.91404" lon="0.7131">
        <ele>666</ele>
        <time>2019-08-08T09:07:18.000Z</time>
      </trkpt>
      <trkpt lat="42.91406" lon="0.71313">
        <ele>667</ele>
        <time>2019-08-08T09:07:19.000Z</time>
      </trkpt>
      <trkpt lat="42.91408" lon="0.71315">
        <ele>667</ele>
        <time>2019-08-08T09:07:20.000Z</time>
      </trkpt>
      <trkpt lat="42.91411" lon="0.71318">
        <ele>667</ele>
        <time>2019-08-08T09:07:21.000Z</time>
      </trkpt>
      <trkpt lat="42.91413" lon="0.7132">
        <ele>667</ele>
        <time>2019-08-08T09:07:22.000Z</time>
      </trkpt>
      <trkpt lat="42.91415" lon="0.71322">
        <ele>667</ele>
        <time>2019-08-08T09:07:23.000Z</time>
      </trkpt>
      <trkpt lat="42.91417" lon="0.71324">
        <ele>667</ele>
        <time>2019-08-08T09:07:24.000Z</time>
      </trkpt>
      <trkpt lat="42.9142" lon="0.71327">
        <ele>667</ele>
        <time>2019-08-08T09:07:25.000Z</time>
      </trkpt>
      <trkpt lat="42.91422" lon="0.71329">
        <ele>668</ele>
        <time>2019-08-08T09:07:26.000Z</time>
      </trkpt>
      <trkpt lat="42.91424" lon="0.7133">
        <ele>668</ele>
        <time>2019-08-08T09:07:27.000Z</time>
      </trkpt>
      <trkpt lat="42.91427" lon="0.71332">
        <ele>669</ele>
        <time>2019-08-08T09:07:28.000Z</time>
      </trkpt>
      <trkpt lat="42.9143" lon="0.71334">
        <ele>669</ele>
        <time>2019-08-08T09:07:29.000Z</time>
      </trkpt>
      <trkpt lat="42.91432" lon="0.71336">
        <ele>670</ele>
        <time>2019-08-08T09:07:30.000Z</time>
      </trkpt>
      <trkpt lat="42.91435" lon="0.71337">
        <ele>670</ele>
        <time>2019-08-08T09:07:31.000Z</time>
      </trkpt>
      <trkpt lat="42.91438" lon="0.71339">
        <ele>671</ele>
        <time>2019-08-08T09:07:32.000Z</time>
      </trkpt>
      <trkpt lat="42.9144" lon="0.71341">
        <ele>671</ele>
        <time>2019-08-08T09:07:33.000Z</time>
      </trkpt>
      <trkpt lat="42.91443" lon="0.71342">
        <ele>672</ele>
        <time>2019-08-08T09:07:34.000Z</time>
      </trkpt>
      <trkpt lat="42.91445" lon="0.71344">
        <ele>672</ele>
        <time>2019-08-08T09:07:35.000Z</time>
      </trkpt>
      <trkpt lat="42.91448" lon="0.71346">
        <ele>672</ele>
        <time>2019-08-08T09:07:36.000Z</time>
      </trkpt>
      <trkpt lat="42.9145" lon="0.71348">
        <ele>672</ele>
        <time>2019-08-08T09:07:37.000Z</time>
      </trkpt>
      <trkpt lat="42.91453" lon="0.7135">
        <ele>672</ele>
        <time>2019-08-08T09:07:38.000Z</time>
      </trkpt>
      <trkpt lat="42.91455" lon="0.71351">
        <ele>673</ele>
        <time>2019-08-08T09:07:39.000Z</time>
      </trkpt>
      <trkpt lat="42.91458" lon="0.71353">
        <ele>673</ele>
        <time>2019-08-08T09:07:40.000Z</time>
      </trkpt>
      <trkpt lat="42.9146" lon="0.71354">
        <ele>673</ele>
        <time>2019-08-08T09:07:41.000Z</time>
      </trkpt>
      <trkpt lat="42.91463" lon="0.71355">
        <ele>673</ele>
        <time>2019-08-08T09:07:42.000Z</time>
      </trkpt>
      <trkpt lat="42.91465" lon="0.71357">
        <ele>673</ele>
        <time>2019-08-08T09:07:43.000Z</time>
      </trkpt>
      <trkpt lat="42.91468" lon="0.71358">
        <ele>673</ele>
        <time>2019-08-08T09:07:44.000Z</time>
      </trkpt>
      <trkpt lat="42.91471" lon="0.71359">
        <ele>674</ele>
        <time>2019-08-08T09:07:45.000Z</time>
      </trkpt>
      <trkpt lat="42.91473" lon="0.7136">
        <ele>674</ele>
        <time>2019-08-08T09:07:46.000Z</time>
      </trkpt>
      <trkpt lat="42.91476" lon="0.71361">
        <ele>674</ele>
        <time>2019-08-08T09:07:47.000Z</time>
      </trkpt>
      <trkpt lat="42.91479" lon="0.71363">
        <ele>674</ele>
        <time>2019-08-08T09:07:48.000Z</time>
      </trkpt>
      <trkpt lat="42.91481" lon="0.71364">
        <ele>674</ele>
        <time>2019-08-08T09:07:49.000Z</time>
      </trkpt>
      <trkpt lat="42.91484" lon="0.71365">
        <ele>674</ele>
        <time>2019-08-08T09:07:50.000Z</time>
      </trkpt>
      <trkpt lat="42.91487" lon="0.71366">
        <ele>675</ele>
        <time>2019-08-08T09:07:51.000Z</time>
      </trkpt>
      <trkpt lat="42.91489" lon="0.71367">
        <ele>675</ele>
        <time>2019-08-08T09:07:52.000Z</time>
      </trkpt>
      <trkpt lat="42.91492" lon="0.71368">
        <ele>676</ele>
        <time>2019-08-08T09:07:53.000Z</time>
      </trkpt>
      <trkpt lat="42.91495" lon="0.71369">
        <ele>676</ele>
        <time>2019-08-08T09:07:54.000Z</time>
      </trkpt>
      <trkpt lat="42.91498" lon="0.71371">
        <ele>676</ele>
        <time>2019-08-08T09:07:55.000Z</time>
      </trkpt>
      <trkpt lat="42.915" lon="0.71372">
        <ele>676</ele>
        <time>2019-08-08T09:07:56.000Z</time>
      </trkpt>
      <trkpt lat="42.91503" lon="0.71374">
        <ele>677</ele>
        <time>2019-08-08T09:07:57.000Z</time>
      </trkpt>
      <trkpt lat="42.91506" lon="0.71375">
        <ele>677</ele>
        <time>2019-08-08T09:07:58.000Z</time>
      </trkpt>
      <trkpt lat="42.91509" lon="0.71377">
        <ele>677</ele>
        <time>2019-08-08T09:07:59.000Z</time>
      </trkpt>
      <trkpt lat="42.91512" lon="0.71378">
        <ele>677</ele>
        <time>2019-08-08T09:08:00.000Z</time>
      </trkpt>
      <trkpt lat="42.91515" lon="0.71379">
        <ele>678</ele>
        <time>2019-08-08T09:08:01.000Z</time>
      </trkpt>
      <trkpt lat="42.91518" lon="0.7138">
        <ele>678</ele>
        <time>2019-08-08T09:08:02.000Z</time>
      </trkpt>
      <trkpt lat="42.91521" lon="0.71382">
        <ele>678</ele>
        <time>2019-08-08T09:08:03.000Z</time>
      </trkpt>
      <trkpt lat="42.91523" lon="0.71383">
        <ele>678</ele>
        <time>2019-08-08T09:08:04.000Z</time>
      </trkpt>
      <trkpt lat="42.91526" lon="0.71384">
        <ele>679</ele>
        <time>2019-08-08T09:08:05.000Z</time>
      </trkpt>
      <trkpt lat="42.91529" lon="0.71385">
        <ele>679</ele>
        <time>2019-08-08T09:08:06.000Z</time>
      </trkpt>
      <trkpt lat="42.91531" lon="0.71387">
        <ele>680</ele>
        <time>2019-08-08T09:08:07.000Z</time>
      </trkpt>
      <trkpt lat="42.91534" lon="0.71388">
        <ele>680</ele>
        <time>2019-08-08T09:08:08.000Z</time>
      </trkpt>
      <trkpt lat="42.91536" lon="0.7139">
        <ele>681</ele>
        <time>2019-08-08T09:08:09.000Z</time>
      </trkpt>
      <trkpt lat="42.91539" lon="0.71392">
        <ele>681</ele>
        <time>2019-08-08T09:08:10.000Z</time>
      </trkpt>
      <trkpt lat="42.91542" lon="0.71393">
        <ele>681</ele>
        <time>2019-08-08T09:08:11.000Z</time>
      </trkpt>
      <trkpt lat="42.91545" lon="0.71395">
        <ele>681</ele>
        <time>2019-08-08T09:08:12.000Z</time>
      </trkpt>
      <trkpt lat="42.91547" lon="0.71397">
        <ele>682</ele>
        <time>2019-08-08T09:08:13.000Z</time>
      </trkpt>
      <trkpt lat="42.9155" lon="0.71399">
        <ele>682</ele>
        <time>2019-08-08T09:08:14.000Z</time>
      </trkpt>
      <trkpt lat="42.91553" lon="0.71401">
        <ele>682</ele>
        <time>2019-08-08T09:08:15.000Z</time>
      </trkpt>
      <trkpt lat="42.91555" lon="0.71402">
        <ele>682</ele>
        <time>2019-08-08T09:08:16.000Z</time>
      </trkpt>
      <trkpt lat="42.91558" lon="0.71403">
        <ele>683</ele>
        <time>2019-08-08T09:08:17.000Z</time>
      </trkpt>
      <trkpt lat="42.91561" lon="0.71405">
        <ele>683</ele>
        <time>2019-08-08T09:08:18.000Z</time>
      </trkpt>
      <trkpt lat="42.91561" lon="0.71405">
        <ele>683</ele>
        <time>2019-08-08T09:08:19.000Z</time>
      </trkpt>
      <trkpt lat="42.91561" lon="0.71405">
        <ele>683</ele>
        <time>2019-08-08T09:08:20.000Z</time>
      </trkpt>
      <trkpt lat="42.91568" lon="0.71413">
        <ele>683</ele>
        <time>2019-08-08T09:08:21.000Z</time>
      </trkpt>
      <trkpt lat="42.91568" lon="0.71413">
        <ele>683</ele>
        <time>2019-08-08T09:08:22.000Z</time>
      </trkpt>
      <trkpt lat="42.91572" lon="0.71418">
        <ele>684</ele>
        <time>2019-08-08T09:08:23.000Z</time>
      </trkpt>
      <trkpt lat="42.91575" lon="0.71421">
        <ele>684</ele>
        <time>2019-08-08T09:08:24.000Z</time>
      </trkpt>
      <trkpt lat="42.91577" lon="0.71423">
        <ele>684</ele>
        <time>2019-08-08T09:08:25.000Z</time>
      </trkpt>
      <trkpt lat="42.91579" lon="0.71425">
        <ele>684</ele>
        <time>2019-08-08T09:08:26.000Z</time>
      </trkpt>
      <trkpt lat="42.91582" lon="0.71428">
        <ele>684</ele>
        <time>2019-08-08T09:08:27.000Z</time>
      </trkpt>
      <trkpt lat="42.91582" lon="0.71428">
        <ele>685</ele>
        <time>2019-08-08T09:08:28.000Z</time>
      </trkpt>
      <trkpt lat="42.91582" lon="0.71428">
        <ele>685</ele>
        <time>2019-08-08T09:08:29.000Z</time>
      </trkpt>
      <trkpt lat="42.9159" lon="0.71434">
        <ele>685</ele>
        <time>2019-08-08T09:08:30.000Z</time>
      </trkpt>
      <trkpt lat="42.9159" lon="0.71434">
        <ele>686</ele>
        <time>2019-08-08T09:08:31.000Z</time>
      </trkpt>
      <trkpt lat="42.9159" lon="0.71434">
        <ele>686</ele>
        <time>2019-08-08T09:08:32.000Z</time>
      </trkpt>
      <trkpt lat="42.91601" lon="0.71442">
        <ele>686</ele>
        <time>2019-08-08T09:08:33.000Z</time>
      </trkpt>
      <trkpt lat="42.91602" lon="0.71443">
        <ele>686</ele>
        <time>2019-08-08T09:08:34.000Z</time>
      </trkpt>
      <trkpt lat="42.91603" lon="0.71444">
        <ele>687</ele>
        <time>2019-08-08T09:08:35.000Z</time>
      </trkpt>
      <trkpt lat="42.91604" lon="0.71445">
        <ele>687</ele>
        <time>2019-08-08T09:08:36.000Z</time>
      </trkpt>
      <trkpt lat="42.91609" lon="0.7145">
        <ele>688</ele>
        <time>2019-08-08T09:08:37.000Z</time>
      </trkpt>
      <trkpt lat="42.91609" lon="0.7145">
        <ele>688</ele>
        <time>2019-08-08T09:08:38.000Z</time>
      </trkpt>
      <trkpt lat="42.91609" lon="0.7145">
        <ele>689</ele>
        <time>2019-08-08T09:08:39.000Z</time>
      </trkpt>
      <trkpt lat="42.91616" lon="0.71458">
        <ele>689</ele>
        <time>2019-08-08T09:08:40.000Z</time>
      </trkpt>
      <trkpt lat="42.91616" lon="0.71458">
        <ele>689</ele>
        <time>2019-08-08T09:08:41.000Z</time>
      </trkpt>
      <trkpt lat="42.91616" lon="0.71458">
        <ele>689</ele>
        <time>2019-08-08T09:08:42.000Z</time>
      </trkpt>
      <trkpt lat="42.91621" lon="0.71468">
        <ele>690</ele>
        <time>2019-08-08T09:08:43.000Z</time>
      </trkpt>
      <trkpt lat="42.91621" lon="0.71468">
        <ele>690</ele>
        <time>2019-08-08T09:08:44.000Z</time>
      </trkpt>
      <trkpt lat="42.91624" lon="0.71476">
        <ele>690</ele>
        <time>2019-08-08T09:08:45.000Z</time>
      </trkpt>
      <trkpt lat="42.91625" lon="0.7148">
        <ele>690</ele>
        <time>2019-08-08T09:08:46.000Z</time>
      </trkpt>
      <trkpt lat="42.91626" lon="0.71485">
        <ele>691</ele>
        <time>2019-08-08T09:08:47.000Z</time>
      </trkpt>
      <trkpt lat="42.91627" lon="0.7149">
        <ele>691</ele>
        <time>2019-08-08T09:08:48.000Z</time>
      </trkpt>
      <trkpt lat="42.91627" lon="0.7149">
        <ele>691</ele>
        <time>2019-08-08T09:08:49.000Z</time>
      </trkpt>
      <trkpt lat="42.91627" lon="0.7149">
        <ele>691</ele>
        <time>2019-08-08T09:08:50.000Z</time>
      </trkpt>
      <trkpt lat="42.91629" lon="0.71504">
        <ele>691</ele>
        <time>2019-08-08T09:08:51.000Z</time>
      </trkpt>
      <trkpt lat="42.91629" lon="0.71504">
        <ele>692</ele>
        <time>2019-08-08T09:08:52.000Z</time>
      </trkpt>
      <trkpt lat="42.9163" lon="0.71513">
        <ele>692</ele>
        <time>2019-08-08T09:08:53.000Z</time>
      </trkpt>
      <trkpt lat="42.9163" lon="0.71513">
        <ele>692</ele>
        <time>2019-08-08T09:08:54.000Z</time>
      </trkpt>
      <trkpt lat="42.9163" lon="0.71513">
        <ele>692</ele>
        <time>2019-08-08T09:08:55.000Z</time>
      </trkpt>
      <trkpt lat="42.91633" lon="0.71526">
        <ele>692</ele>
        <time>2019-08-08T09:08:56.000Z</time>
      </trkpt>
      <trkpt lat="42.91633" lon="0.71526">
        <ele>692</ele>
        <time>2019-08-08T09:08:57.000Z</time>
      </trkpt>
      <trkpt lat="42.91634" lon="0.71535">
        <ele>692</ele>
        <time>2019-08-08T09:08:58.000Z</time>
      </trkpt>
      <trkpt lat="42.91634" lon="0.71535">
        <ele>693</ele>
        <time>2019-08-08T09:08:59.000Z</time>
      </trkpt>
      <trkpt lat="42.91635" lon="0.71544">
        <ele>693</ele>
        <time>2019-08-08T09:09:00.000Z</time>
      </trkpt>
      <trkpt lat="42.91636" lon="0.71548">
        <ele>694</ele>
        <time>2019-08-08T09:09:01.000Z</time>
      </trkpt>
      <trkpt lat="42.91636" lon="0.71548">
        <ele>694</ele>
        <time>2019-08-08T09:09:02.000Z</time>
      </trkpt>
      <trkpt lat="42.91638" lon="0.71556">
        <ele>694</ele>
        <time>2019-08-08T09:09:03.000Z</time>
      </trkpt>
      <trkpt lat="42.91639" lon="0.71561">
        <ele>695</ele>
        <time>2019-08-08T09:09:04.000Z</time>
      </trkpt>
      <trkpt lat="42.9164" lon="0.71565">
        <ele>695</ele>
        <time>2019-08-08T09:09:05.000Z</time>
      </trkpt>
      <trkpt lat="42.9164" lon="0.71565">
        <ele>696</ele>
        <time>2019-08-08T09:09:06.000Z</time>
      </trkpt>
      <trkpt lat="42.91643" lon="0.71573">
        <ele>696</ele>
        <time>2019-08-08T09:09:07.000Z</time>
      </trkpt>
      <trkpt lat="42.91645" lon="0.71577">
        <ele>696</ele>
        <time>2019-08-08T09:09:08.000Z</time>
      </trkpt>
      <trkpt lat="42.91646" lon="0.71581">
        <ele>697</ele>
        <time>2019-08-08T09:09:09.000Z</time>
      </trkpt>
      <trkpt lat="42.91648" lon="0.71585">
        <ele>697</ele>
        <time>2019-08-08T09:09:10.000Z</time>
      </trkpt>
      <trkpt lat="42.9165" lon="0.71589">
        <ele>697</ele>
        <time>2019-08-08T09:09:11.000Z</time>
      </trkpt>
      <trkpt lat="42.91651" lon="0.71593">
        <ele>697</ele>
        <time>2019-08-08T09:09:12.000Z</time>
      </trkpt>
      <trkpt lat="42.91653" lon="0.71597">
        <ele>696</ele>
        <time>2019-08-08T09:09:13.000Z</time>
      </trkpt>
      <trkpt lat="42.91654" lon="0.71601">
        <ele>696</ele>
        <time>2019-08-08T09:09:14.000Z</time>
      </trkpt>
      <trkpt lat="42.91656" lon="0.71605">
        <ele>698</ele>
        <time>2019-08-08T09:09:15.000Z</time>
      </trkpt>
      <trkpt lat="42.91657" lon="0.71609">
        <ele>698</ele>
        <time>2019-08-08T09:09:16.000Z</time>
      </trkpt>
      <trkpt lat="42.91659" lon="0.71613">
        <ele>699</ele>
        <time>2019-08-08T09:09:17.000Z</time>
      </trkpt>
      <trkpt lat="42.91661" lon="0.71617">
        <ele>699</ele>
        <time>2019-08-08T09:09:18.000Z</time>
      </trkpt>
      <trkpt lat="42.91662" lon="0.71621">
        <ele>699</ele>
        <time>2019-08-08T09:09:19.000Z</time>
      </trkpt>
      <trkpt lat="42.91664" lon="0.71625">
        <ele>699</ele>
        <time>2019-08-08T09:09:20.000Z</time>
      </trkpt>
      <trkpt lat="42.91665" lon="0.71629">
        <ele>700</ele>
        <time>2019-08-08T09:09:21.000Z</time>
      </trkpt>
      <trkpt lat="42.91667" lon="0.71633">
        <ele>700</ele>
        <time>2019-08-08T09:09:22.000Z</time>
      </trkpt>
      <trkpt lat="42.91668" lon="0.71637">
        <ele>700</ele>
        <time>2019-08-08T09:09:23.000Z</time>
      </trkpt>
      <trkpt lat="42.9167" lon="0.71641">
        <ele>700</ele>
        <time>2019-08-08T09:09:24.000Z</time>
      </trkpt>
      <trkpt lat="42.91672" lon="0.71645">
        <ele>701</ele>
        <time>2019-08-08T09:09:25.000Z</time>
      </trkpt>
      <trkpt lat="42.91674" lon="0.71649">
        <ele>701</ele>
        <time>2019-08-08T09:09:26.000Z</time>
      </trkpt>
      <trkpt lat="42.91675" lon="0.71654">
        <ele>701</ele>
        <time>2019-08-08T09:09:27.000Z</time>
      </trkpt>
      <trkpt lat="42.91677" lon="0.71658">
        <ele>701</ele>
        <time>2019-08-08T09:09:28.000Z</time>
      </trkpt>
      <trkpt lat="42.91679" lon="0.71663">
        <ele>701</ele>
        <time>2019-08-08T09:09:29.000Z</time>
      </trkpt>
      <trkpt lat="42.9168" lon="0.71667">
        <ele>701</ele>
        <time>2019-08-08T09:09:30.000Z</time>
      </trkpt>
      <trkpt lat="42.91682" lon="0.71672">
        <ele>701</ele>
        <time>2019-08-08T09:09:31.000Z</time>
      </trkpt>
      <trkpt lat="42.91684" lon="0.71676">
        <ele>701</ele>
        <time>2019-08-08T09:09:32.000Z</time>
      </trkpt>
      <trkpt lat="42.91686" lon="0.71681">
        <ele>701</ele>
        <time>2019-08-08T09:09:33.000Z</time>
      </trkpt>
      <trkpt lat="42.91688" lon="0.71685">
        <ele>702</ele>
        <time>2019-08-08T09:09:34.000Z</time>
      </trkpt>
      <trkpt lat="42.9169" lon="0.7169">
        <ele>702</ele>
        <time>2019-08-08T09:09:35.000Z</time>
      </trkpt>
      <trkpt lat="42.91692" lon="0.71694">
        <ele>702</ele>
        <time>2019-08-08T09:09:36.000Z</time>
      </trkpt>
      <trkpt lat="42.91694" lon="0.71699">
        <ele>702</ele>
        <time>2019-08-08T09:09:37.000Z</time>
      </trkpt>
      <trkpt lat="42.91695" lon="0.71703">
        <ele>702</ele>
        <time>2019-08-08T09:09:38.000Z</time>
      </trkpt>
      <trkpt lat="42.91697" lon="0.71707">
        <ele>702</ele>
        <time>2019-08-08T09:09:39.000Z</time>
      </trkpt>
      <trkpt lat="42.91699" lon="0.71711">
        <ele>702</ele>
        <time>2019-08-08T09:09:40.000Z</time>
      </trkpt>
      <trkpt lat="42.91701" lon="0.71715">
        <ele>703</ele>
        <time>2019-08-08T09:09:41.000Z</time>
      </trkpt>
      <trkpt lat="42.91702" lon="0.71719">
        <ele>703</ele>
        <time>2019-08-08T09:09:42.000Z</time>
      </trkpt>
      <trkpt lat="42.91703" lon="0.71722">
        <ele>704</ele>
        <time>2019-08-08T09:09:43.000Z</time>
      </trkpt>
      <trkpt lat="42.91704" lon="0.71726">
        <ele>704</ele>
        <time>2019-08-08T09:09:44.000Z</time>
      </trkpt>
      <trkpt lat="42.91706" lon="0.7173">
        <ele>705</ele>
        <time>2019-08-08T09:09:45.000Z</time>
      </trkpt>
      <trkpt lat="42.91707" lon="0.71733">
        <ele>705</ele>
        <time>2019-08-08T09:09:46.000Z</time>
      </trkpt>
      <trkpt lat="42.91708" lon="0.71737">
        <ele>705</ele>
        <time>2019-08-08T09:09:47.000Z</time>
      </trkpt>
      <trkpt lat="42.9171" lon="0.7174">
        <ele>705</ele>
        <time>2019-08-08T09:09:48.000Z</time>
      </trkpt>
      <trkpt lat="42.91712" lon="0.71745">
        <ele>705</ele>
        <time>2019-08-08T09:09:49.000Z</time>
      </trkpt>
      <trkpt lat="42.91712" lon="0.71747">
        <ele>705</ele>
        <time>2019-08-08T09:09:50.000Z</time>
      </trkpt>
      <trkpt lat="42.91713" lon="0.71748">
        <ele>706</ele>
        <time>2019-08-08T09:09:51.000Z</time>
      </trkpt>
      <trkpt lat="42.91714" lon="0.7175">
        <ele>706</ele>
        <time>2019-08-08T09:09:52.000Z</time>
      </trkpt>
      <trkpt lat="42.91716" lon="0.71756">
        <ele>706</ele>
        <time>2019-08-08T09:09:53.000Z</time>
      </trkpt>
      <trkpt lat="42.91717" lon="0.71759">
        <ele>707</ele>
        <time>2019-08-08T09:09:54.000Z</time>
      </trkpt>
      <trkpt lat="42.91719" lon="0.71763">
        <ele>707</ele>
        <time>2019-08-08T09:09:55.000Z</time>
      </trkpt>
      <trkpt lat="42.9172" lon="0.71766">
        <ele>708</ele>
        <time>2019-08-08T09:09:56.000Z</time>
      </trkpt>
      <trkpt lat="42.91721" lon="0.71769">
        <ele>708</ele>
        <time>2019-08-08T09:09:57.000Z</time>
      </trkpt>
      <trkpt lat="42.91723" lon="0.71772">
        <ele>709</ele>
        <time>2019-08-08T09:09:58.000Z</time>
      </trkpt>
      <trkpt lat="42.91725" lon="0.71774">
        <ele>709</ele>
        <time>2019-08-08T09:09:59.000Z</time>
      </trkpt>
      <trkpt lat="42.91725" lon="0.71774">
        <ele>709</ele>
        <time>2019-08-08T09:10:00.000Z</time>
      </trkpt>
      <trkpt lat="42.91725" lon="0.71774">
        <ele>709</ele>
        <time>2019-08-08T09:10:01.000Z</time>
      </trkpt>
      <trkpt lat="42.91725" lon="0.71774">
        <ele>709</ele>
        <time>2019-08-08T09:10:02.000Z</time>
      </trkpt>
      <trkpt lat="42.91733" lon="0.71785">
        <ele>709</ele>
        <time>2019-08-08T09:10:03.000Z</time>
      </trkpt>
      <trkpt lat="42.91734" lon="0.71786">
        <ele>710</ele>
        <time>2019-08-08T09:10:04.000Z</time>
      </trkpt>
      <trkpt lat="42.91735" lon="0.71787">
        <ele>710</ele>
        <time>2019-08-08T09:10:05.000Z</time>
      </trkpt>
      <trkpt lat="42.91736" lon="0.71788">
        <ele>710</ele>
        <time>2019-08-08T09:10:06.000Z</time>
      </trkpt>
      <trkpt lat="42.91741" lon="0.71792">
        <ele>711</ele>
        <time>2019-08-08T09:10:07.000Z</time>
      </trkpt>
      <trkpt lat="42.91741" lon="0.71792">
        <ele>711</ele>
        <time>2019-08-08T09:10:08.000Z</time>
      </trkpt>
      <trkpt lat="42.91741" lon="0.71792">
        <ele>712</ele>
        <time>2019-08-08T09:10:09.000Z</time>
      </trkpt>
      <trkpt lat="42.91748" lon="0.71796">
        <ele>712</ele>
        <time>2019-08-08T09:10:10.000Z</time>
      </trkpt>
      <trkpt lat="42.91751" lon="0.71797">
        <ele>712</ele>
        <time>2019-08-08T09:10:11.000Z</time>
      </trkpt>
      <trkpt lat="42.91754" lon="0.71798">
        <ele>712</ele>
        <time>2019-08-08T09:10:12.000Z</time>
      </trkpt>
      <trkpt lat="42.91756" lon="0.71798">
        <ele>713</ele>
        <time>2019-08-08T09:10:13.000Z</time>
      </trkpt>
      <trkpt lat="42.91759" lon="0.718">
        <ele>713</ele>
        <time>2019-08-08T09:10:14.000Z</time>
      </trkpt>
      <trkpt lat="42.91762" lon="0.71801">
        <ele>713</ele>
        <time>2019-08-08T09:10:15.000Z</time>
      </trkpt>
      <trkpt lat="42.91764" lon="0.71802">
        <ele>713</ele>
        <time>2019-08-08T09:10:16.000Z</time>
      </trkpt>
      <trkpt lat="42.91767" lon="0.71802">
        <ele>713</ele>
        <time>2019-08-08T09:10:17.000Z</time>
      </trkpt>
      <trkpt lat="42.9177" lon="0.71803">
        <ele>713</ele>
        <time>2019-08-08T09:10:18.000Z</time>
      </trkpt>
      <trkpt lat="42.91772" lon="0.71804">
        <ele>714</ele>
        <time>2019-08-08T09:10:19.000Z</time>
      </trkpt>
      <trkpt lat="42.91775" lon="0.71805">
        <ele>714</ele>
        <time>2019-08-08T09:10:20.000Z</time>
      </trkpt>
      <trkpt lat="42.91778" lon="0.71805">
        <ele>715</ele>
        <time>2019-08-08T09:10:21.000Z</time>
      </trkpt>
      <trkpt lat="42.9178" lon="0.71806">
        <ele>715</ele>
        <time>2019-08-08T09:10:22.000Z</time>
      </trkpt>
      <trkpt lat="42.91783" lon="0.71806">
        <ele>715</ele>
        <time>2019-08-08T09:10:23.000Z</time>
      </trkpt>
      <trkpt lat="42.91786" lon="0.71807">
        <ele>715</ele>
        <time>2019-08-08T09:10:24.000Z</time>
      </trkpt>
      <trkpt lat="42.91786" lon="0.71807">
        <ele>715</ele>
        <time>2019-08-08T09:10:25.000Z</time>
      </trkpt>
      <trkpt lat="42.91791" lon="0.71807">
        <ele>716</ele>
        <time>2019-08-08T09:10:26.000Z</time>
      </trkpt>
      <trkpt lat="42.91794" lon="0.71808">
        <ele>716</ele>
        <time>2019-08-08T09:10:27.000Z</time>
      </trkpt>
      <trkpt lat="42.91797" lon="0.71809">
        <ele>716</ele>
        <time>2019-08-08T09:10:28.000Z</time>
      </trkpt>
      <trkpt lat="42.918" lon="0.71809">
        <ele>716</ele>
        <time>2019-08-08T09:10:29.000Z</time>
      </trkpt>
      <trkpt lat="42.91803" lon="0.71809">
        <ele>716</ele>
        <time>2019-08-08T09:10:30.000Z</time>
      </trkpt>
      <trkpt lat="42.91806" lon="0.71809">
        <ele>716</ele>
        <time>2019-08-08T09:10:31.000Z</time>
      </trkpt>
      <trkpt lat="42.9181" lon="0.7181">
        <ele>716</ele>
        <time>2019-08-08T09:10:32.000Z</time>
      </trkpt>
      <trkpt lat="42.91813" lon="0.7181">
        <ele>717</ele>
        <time>2019-08-08T09:10:33.000Z</time>
      </trkpt>
      <trkpt lat="42.91816" lon="0.7181">
        <ele>717</ele>
        <time>2019-08-08T09:10:34.000Z</time>
      </trkpt>
      <trkpt lat="42.9182" lon="0.7181">
        <ele>717</ele>
        <time>2019-08-08T09:10:35.000Z</time>
      </trkpt>
      <trkpt lat="42.91823" lon="0.7181">
        <ele>717</ele>
        <time>2019-08-08T09:10:36.000Z</time>
      </trkpt>
      <trkpt lat="42.91826" lon="0.7181">
        <ele>717</ele>
        <time>2019-08-08T09:10:37.000Z</time>
      </trkpt>
      <trkpt lat="42.9183" lon="0.71809">
        <ele>717</ele>
        <time>2019-08-08T09:10:38.000Z</time>
      </trkpt>
      <trkpt lat="42.91833" lon="0.71807">
        <ele>717</ele>
        <time>2019-08-08T09:10:39.000Z</time>
      </trkpt>
      <trkpt lat="42.91838" lon="0.71806">
        <ele>717</ele>
        <time>2019-08-08T09:10:40.000Z</time>
      </trkpt>
      <trkpt lat="42.91841" lon="0.71804">
        <ele>718</ele>
        <time>2019-08-08T09:10:41.000Z</time>
      </trkpt>
      <trkpt lat="42.91845" lon="0.71802">
        <ele>718</ele>
        <time>2019-08-08T09:10:42.000Z</time>
      </trkpt>
      <trkpt lat="42.9185" lon="0.718">
        <ele>718</ele>
        <time>2019-08-08T09:10:43.000Z</time>
      </trkpt>
      <trkpt lat="42.91854" lon="0.71798">
        <ele>718</ele>
        <time>2019-08-08T09:10:44.000Z</time>
      </trkpt>
      <trkpt lat="42.91859" lon="0.71796">
        <ele>718</ele>
        <time>2019-08-08T09:10:45.000Z</time>
      </trkpt>
      <trkpt lat="42.91863" lon="0.71794">
        <ele>718</ele>
        <time>2019-08-08T09:10:46.000Z</time>
      </trkpt>
      <trkpt lat="42.91868" lon="0.71793">
        <ele>718</ele>
        <time>2019-08-08T09:10:47.000Z</time>
      </trkpt>
      <trkpt lat="42.91872" lon="0.71793">
        <ele>718</ele>
        <time>2019-08-08T09:10:48.000Z</time>
      </trkpt>
      <trkpt lat="42.91876" lon="0.71793">
        <ele>718</ele>
        <time>2019-08-08T09:10:49.000Z</time>
      </trkpt>
      <trkpt lat="42.9188" lon="0.71794">
        <ele>718</ele>
        <time>2019-08-08T09:10:50.000Z</time>
      </trkpt>
      <trkpt lat="42.91884" lon="0.71795">
        <ele>718</ele>
        <time>2019-08-08T09:10:51.000Z</time>
      </trkpt>
      <trkpt lat="42.91887" lon="0.71796">
        <ele>719</ele>
        <time>2019-08-08T09:10:52.000Z</time>
      </trkpt>
      <trkpt lat="42.91891" lon="0.71796">
        <ele>719</ele>
        <time>2019-08-08T09:10:53.000Z</time>
      </trkpt>
      <trkpt lat="42.91894" lon="0.71797">
        <ele>719</ele>
        <time>2019-08-08T09:10:54.000Z</time>
      </trkpt>
      <trkpt lat="42.91897" lon="0.71798">
        <ele>719</ele>
        <time>2019-08-08T09:10:55.000Z</time>
      </trkpt>
      <trkpt lat="42.91899" lon="0.71799">
        <ele>719</ele>
        <time>2019-08-08T09:10:56.000Z</time>
      </trkpt>
      <trkpt lat="42.91902" lon="0.718">
        <ele>719</ele>
        <time>2019-08-08T09:10:57.000Z</time>
      </trkpt>
      <trkpt lat="42.91905" lon="0.718">
        <ele>720</ele>
        <time>2019-08-08T09:10:58.000Z</time>
      </trkpt>
      <trkpt lat="42.91908" lon="0.718">
        <ele>720</ele>
        <time>2019-08-08T09:10:59.000Z</time>
      </trkpt>
      <trkpt lat="42.91911" lon="0.71801">
        <ele>720</ele>
        <time>2019-08-08T09:11:00.000Z</time>
      </trkpt>
      <trkpt lat="42.91914" lon="0.71801">
        <ele>720</ele>
        <time>2019-08-08T09:11:01.000Z</time>
      </trkpt>
      <trkpt lat="42.91916" lon="0.71801">
        <ele>720</ele>
        <time>2019-08-08T09:11:02.000Z</time>
      </trkpt>
      <trkpt lat="42.91919" lon="0.71802">
        <ele>722</ele>
        <time>2019-08-08T09:11:03.000Z</time>
      </trkpt>
      <trkpt lat="42.91922" lon="0.71803">
        <ele>722</ele>
        <time>2019-08-08T09:11:04.000Z</time>
      </trkpt>
      <trkpt lat="42.91925" lon="0.71804">
        <ele>722</ele>
        <time>2019-08-08T09:11:05.000Z</time>
      </trkpt>
      <trkpt lat="42.91927" lon="0.71805">
        <ele>722</ele>
        <time>2019-08-08T09:11:06.000Z</time>
      </trkpt>
      <trkpt lat="42.9193" lon="0.71806">
        <ele>723</ele>
        <time>2019-08-08T09:11:07.000Z</time>
      </trkpt>
      <trkpt lat="42.91933" lon="0.71808">
        <ele>723</ele>
        <time>2019-08-08T09:11:08.000Z</time>
      </trkpt>
      <trkpt lat="42.91936" lon="0.71809">
        <ele>724</ele>
        <time>2019-08-08T09:11:09.000Z</time>
      </trkpt>
      <trkpt lat="42.91938" lon="0.7181">
        <ele>724</ele>
        <time>2019-08-08T09:11:10.000Z</time>
      </trkpt>
      <trkpt lat="42.91938" lon="0.7181">
        <ele>724</ele>
        <time>2019-08-08T09:11:11.000Z</time>
      </trkpt>
      <trkpt lat="42.91938" lon="0.7181">
        <ele>724</ele>
        <time>2019-08-08T09:11:12.000Z</time>
      </trkpt>
      <trkpt lat="42.91946" lon="0.71814">
        <ele>725</ele>
        <time>2019-08-08T09:11:13.000Z</time>
      </trkpt>
      <trkpt lat="42.91949" lon="0.71815">
        <ele>725</ele>
        <time>2019-08-08T09:11:14.000Z</time>
      </trkpt>
      <trkpt lat="42.91951" lon="0.71816">
        <ele>726</ele>
        <time>2019-08-08T09:11:15.000Z</time>
      </trkpt>
      <trkpt lat="42.91954" lon="0.71818">
        <ele>726</ele>
        <time>2019-08-08T09:11:16.000Z</time>
      </trkpt>
      <trkpt lat="42.91956" lon="0.71819">
        <ele>726</ele>
        <time>2019-08-08T09:11:17.000Z</time>
      </trkpt>
      <trkpt lat="42.91958" lon="0.7182">
        <ele>726</ele>
        <time>2019-08-08T09:11:18.000Z</time>
      </trkpt>
      <trkpt lat="42.91961" lon="0.71822">
        <ele>727</ele>
        <time>2019-08-08T09:11:19.000Z</time>
      </trkpt>
      <trkpt lat="42.91963" lon="0.71824">
        <ele>727</ele>
        <time>2019-08-08T09:11:20.000Z</time>
      </trkpt>
      <trkpt lat="42.91965" lon="0.71825">
        <ele>727</ele>
        <time>2019-08-08T09:11:21.000Z</time>
      </trkpt>
      <trkpt lat="42.91965" lon="0.71825">
        <ele>727</ele>
        <time>2019-08-08T09:11:22.000Z</time>
      </trkpt>
      <trkpt lat="42.91965" lon="0.71825">
        <ele>728</ele>
        <time>2019-08-08T09:11:23.000Z</time>
      </trkpt>
      <trkpt lat="42.91972" lon="0.7183">
        <ele>728</ele>
        <time>2019-08-08T09:11:24.000Z</time>
      </trkpt>
      <trkpt lat="42.91972" lon="0.7183">
        <ele>728</ele>
        <time>2019-08-08T09:11:25.000Z</time>
      </trkpt>
      <trkpt lat="42.91972" lon="0.7183">
        <ele>728</ele>
        <time>2019-08-08T09:11:26.000Z</time>
      </trkpt>
      <trkpt lat="42.91979" lon="0.71835">
        <ele>729</ele>
        <time>2019-08-08T09:11:27.000Z</time>
      </trkpt>
      <trkpt lat="42.91979" lon="0.71835">
        <ele>729</ele>
        <time>2019-08-08T09:11:28.000Z</time>
      </trkpt>
      <trkpt lat="42.91984" lon="0.71837">
        <ele>730</ele>
        <time>2019-08-08T09:11:29.000Z</time>
      </trkpt>
      <trkpt lat="42.91986" lon="0.71839">
        <ele>730</ele>
        <time>2019-08-08T09:11:30.000Z</time>
      </trkpt>
      <trkpt lat="42.91988" lon="0.71841">
        <ele>730</ele>
        <time>2019-08-08T09:11:31.000Z</time>
      </trkpt>
      <trkpt lat="42.91992" lon="0.71844">
        <ele>730</ele>
        <time>2019-08-08T09:11:32.000Z</time>
      </trkpt>
      <trkpt lat="42.91993" lon="0.71845">
        <ele>730</ele>
        <time>2019-08-08T09:11:33.000Z</time>
      </trkpt>
      <trkpt lat="42.91994" lon="0.71845">
        <ele>730</ele>
        <time>2019-08-08T09:11:34.000Z</time>
      </trkpt>
      <trkpt lat="42.91995" lon="0.71846">
        <ele>731</ele>
        <time>2019-08-08T09:11:35.000Z</time>
      </trkpt>
      <trkpt lat="42.91999" lon="0.7185">
        <ele>731</ele>
        <time>2019-08-08T09:11:36.000Z</time>
      </trkpt>
      <trkpt lat="42.91999" lon="0.7185">
        <ele>732</ele>
        <time>2019-08-08T09:11:37.000Z</time>
      </trkpt>
      <trkpt lat="42.91999" lon="0.7185">
        <ele>732</ele>
        <time>2019-08-08T09:11:38.000Z</time>
      </trkpt>
      <trkpt lat="42.91999" lon="0.7185">
        <ele>732</ele>
        <time>2019-08-08T09:11:39.000Z</time>
      </trkpt>
      <trkpt lat="42.92007" lon="0.71857">
        <ele>732</ele>
        <time>2019-08-08T09:11:40.000Z</time>
      </trkpt>
      <trkpt lat="42.92007" lon="0.71857">
        <ele>733</ele>
        <time>2019-08-08T09:11:41.000Z</time>
      </trkpt>
      <trkpt lat="42.9201" lon="0.71862">
        <ele>733</ele>
        <time>2019-08-08T09:11:42.000Z</time>
      </trkpt>
      <trkpt lat="42.92012" lon="0.71864">
        <ele>734</ele>
        <time>2019-08-08T09:11:43.000Z</time>
      </trkpt>
      <trkpt lat="42.92014" lon="0.71867">
        <ele>734</ele>
        <time>2019-08-08T09:11:44.000Z</time>
      </trkpt>
      <trkpt lat="42.92014" lon="0.71867">
        <ele>734</ele>
        <time>2019-08-08T09:11:45.000Z</time>
      </trkpt>
      <trkpt lat="42.92017" lon="0.71872">
        <ele>734</ele>
        <time>2019-08-08T09:11:46.000Z</time>
      </trkpt>
      <trkpt lat="42.92019" lon="0.71874">
        <ele>735</ele>
        <time>2019-08-08T09:11:47.000Z</time>
      </trkpt>
      <trkpt lat="42.92021" lon="0.71877">
        <ele>735</ele>
        <time>2019-08-08T09:11:48.000Z</time>
      </trkpt>
      <trkpt lat="42.92022" lon="0.7188">
        <ele>736</ele>
        <time>2019-08-08T09:11:49.000Z</time>
      </trkpt>
      <trkpt lat="42.92024" lon="0.71882">
        <ele>736</ele>
        <time>2019-08-08T09:11:50.000Z</time>
      </trkpt>
      <trkpt lat="42.92026" lon="0.71885">
        <ele>736</ele>
        <time>2019-08-08T09:11:51.000Z</time>
      </trkpt>
      <trkpt lat="42.92027" lon="0.71887">
        <ele>736</ele>
        <time>2019-08-08T09:11:52.000Z</time>
      </trkpt>
      <trkpt lat="42.92029" lon="0.7189">
        <ele>736</ele>
        <time>2019-08-08T09:11:53.000Z</time>
      </trkpt>
      <trkpt lat="42.9203" lon="0.71893">
        <ele>736</ele>
        <time>2019-08-08T09:11:54.000Z</time>
      </trkpt>
      <trkpt lat="42.92032" lon="0.71895">
        <ele>737</ele>
        <time>2019-08-08T09:11:55.000Z</time>
      </trkpt>
      <trkpt lat="42.92033" lon="0.71898">
        <ele>737</ele>
        <time>2019-08-08T09:11:56.000Z</time>
      </trkpt>
      <trkpt lat="42.92034" lon="0.71901">
        <ele>737</ele>
        <time>2019-08-08T09:11:57.000Z</time>
      </trkpt>
      <trkpt lat="42.92036" lon="0.71904">
        <ele>737</ele>
        <time>2019-08-08T09:11:58.000Z</time>
      </trkpt>
      <trkpt lat="42.92037" lon="0.71906">
        <ele>737</ele>
        <time>2019-08-08T09:11:59.000Z</time>
      </trkpt>
      <trkpt lat="42.92038" lon="0.71909">
        <ele>737</ele>
        <time>2019-08-08T09:12:00.000Z</time>
      </trkpt>
      <trkpt lat="42.9204" lon="0.71912">
        <ele>738</ele>
        <time>2019-08-08T09:12:01.000Z</time>
      </trkpt>
      <trkpt lat="42.92041" lon="0.71915">
        <ele>738</ele>
        <time>2019-08-08T09:12:02.000Z</time>
      </trkpt>
      <trkpt lat="42.92043" lon="0.71917">
        <ele>739</ele>
        <time>2019-08-08T09:12:03.000Z</time>
      </trkpt>
      <trkpt lat="42.92044" lon="0.7192">
        <ele>739</ele>
        <time>2019-08-08T09:12:04.000Z</time>
      </trkpt>
      <trkpt lat="42.92046" lon="0.71923">
        <ele>740</ele>
        <time>2019-08-08T09:12:05.000Z</time>
      </trkpt>
      <trkpt lat="42.92047" lon="0.71926">
        <ele>740</ele>
        <time>2019-08-08T09:12:06.000Z</time>
      </trkpt>
      <trkpt lat="42.92048" lon="0.71929">
        <ele>740</ele>
        <time>2019-08-08T09:12:07.000Z</time>
      </trkpt>
      <trkpt lat="42.92049" lon="0.71931">
        <ele>740</ele>
        <time>2019-08-08T09:12:08.000Z</time>
      </trkpt>
      <trkpt lat="42.9205" lon="0.71935">
        <ele>740</ele>
        <time>2019-08-08T09:12:09.000Z</time>
      </trkpt>
      <trkpt lat="42.92051" lon="0.71938">
        <ele>740</ele>
        <time>2019-08-08T09:12:10.000Z</time>
      </trkpt>
      <trkpt lat="42.92052" lon="0.71941">
        <ele>742</ele>
        <time>2019-08-08T09:12:11.000Z</time>
      </trkpt>
      <trkpt lat="42.92054" lon="0.71943">
        <ele>742</ele>
        <time>2019-08-08T09:12:12.000Z</time>
      </trkpt>
      <trkpt lat="42.92055" lon="0.71946">
        <ele>743</ele>
        <time>2019-08-08T09:12:13.000Z</time>
      </trkpt>
      <trkpt lat="42.92056" lon="0.71949">
        <ele>743</ele>
        <time>2019-08-08T09:12:14.000Z</time>
      </trkpt>
      <trkpt lat="42.92058" lon="0.71952">
        <ele>743</ele>
        <time>2019-08-08T09:12:15.000Z</time>
      </trkpt>
      <trkpt lat="42.92059" lon="0.71954">
        <ele>743</ele>
        <time>2019-08-08T09:12:16.000Z</time>
      </trkpt>
      <trkpt lat="42.92061" lon="0.71957">
        <ele>744</ele>
        <time>2019-08-08T09:12:17.000Z</time>
      </trkpt>
      <trkpt lat="42.92062" lon="0.7196">
        <ele>744</ele>
        <time>2019-08-08T09:12:18.000Z</time>
      </trkpt>
      <trkpt lat="42.92063" lon="0.71963">
        <ele>745</ele>
        <time>2019-08-08T09:12:19.000Z</time>
      </trkpt>
      <trkpt lat="42.92065" lon="0.71966">
        <ele>745</ele>
        <time>2019-08-08T09:12:20.000Z</time>
      </trkpt>
      <trkpt lat="42.92066" lon="0.71969">
        <ele>745</ele>
        <time>2019-08-08T09:12:21.000Z</time>
      </trkpt>
      <trkpt lat="42.92068" lon="0.71971">
        <ele>745</ele>
        <time>2019-08-08T09:12:22.000Z</time>
      </trkpt>
      <trkpt lat="42.92069" lon="0.71974">
        <ele>745</ele>
        <time>2019-08-08T09:12:23.000Z</time>
      </trkpt>
      <trkpt lat="42.92071" lon="0.71977">
        <ele>745</ele>
        <time>2019-08-08T09:12:24.000Z</time>
      </trkpt>
      <trkpt lat="42.92073" lon="0.71979">
        <ele>745</ele>
        <time>2019-08-08T09:12:25.000Z</time>
      </trkpt>
      <trkpt lat="42.92074" lon="0.71982">
        <ele>745</ele>
        <time>2019-08-08T09:12:26.000Z</time>
      </trkpt>
      <trkpt lat="42.92075" lon="0.71985">
        <ele>746</ele>
        <time>2019-08-08T09:12:27.000Z</time>
      </trkpt>
      <trkpt lat="42.92076" lon="0.71988">
        <ele>746</ele>
        <time>2019-08-08T09:12:28.000Z</time>
      </trkpt>
      <trkpt lat="42.92077" lon="0.7199">
        <ele>746</ele>
        <time>2019-08-08T09:12:29.000Z</time>
      </trkpt>
      <trkpt lat="42.92078" lon="0.71993">
        <ele>746</ele>
        <time>2019-08-08T09:12:30.000Z</time>
      </trkpt>
      <trkpt lat="42.92079" lon="0.71996">
        <ele>746</ele>
        <time>2019-08-08T09:12:31.000Z</time>
      </trkpt>
      <trkpt lat="42.9208" lon="0.71999">
        <ele>746</ele>
        <time>2019-08-08T09:12:32.000Z</time>
      </trkpt>
      <trkpt lat="42.92081" lon="0.72003">
        <ele>747</ele>
        <time>2019-08-08T09:12:33.000Z</time>
      </trkpt>
      <trkpt lat="42.92082" lon="0.72006">
        <ele>747</ele>
        <time>2019-08-08T09:12:34.000Z</time>
      </trkpt>
      <trkpt lat="42.92084" lon="0.72009">
        <ele>747</ele>
        <time>2019-08-08T09:12:35.000Z</time>
      </trkpt>
      <trkpt lat="42.92084" lon="0.72012">
        <ele>747</ele>
        <time>2019-08-08T09:12:36.000Z</time>
      </trkpt>
      <trkpt lat="42.92085" lon="0.72016">
        <ele>748</ele>
        <time>2019-08-08T09:12:37.000Z</time>
      </trkpt>
      <trkpt lat="42.92086" lon="0.72019">
        <ele>748</ele>
        <time>2019-08-08T09:12:38.000Z</time>
      </trkpt>
      <trkpt lat="42.92087" lon="0.72022">
        <ele>749</ele>
        <time>2019-08-08T09:12:39.000Z</time>
      </trkpt>
      <trkpt lat="42.92088" lon="0.72026">
        <ele>749</ele>
        <time>2019-08-08T09:12:40.000Z</time>
      </trkpt>
      <trkpt lat="42.92088" lon="0.7203">
        <ele>749</ele>
        <time>2019-08-08T09:12:41.000Z</time>
      </trkpt>
      <trkpt lat="42.92089" lon="0.72033">
        <ele>749</ele>
        <time>2019-08-08T09:12:42.000Z</time>
      </trkpt>
      <trkpt lat="42.92089" lon="0.72037">
        <ele>750</ele>
        <time>2019-08-08T09:12:43.000Z</time>
      </trkpt>
      <trkpt lat="42.92089" lon="0.72041">
        <ele>750</ele>
        <time>2019-08-08T09:12:44.000Z</time>
      </trkpt>
      <trkpt lat="42.92089" lon="0.72045">
        <ele>751</ele>
        <time>2019-08-08T09:12:45.000Z</time>
      </trkpt>
      <trkpt lat="42.92089" lon="0.72048">
        <ele>751</ele>
        <time>2019-08-08T09:12:46.000Z</time>
      </trkpt>
      <trkpt lat="42.92089" lon="0.72052">
        <ele>751</ele>
        <time>2019-08-08T09:12:47.000Z</time>
      </trkpt>
      <trkpt lat="42.92089" lon="0.72055">
        <ele>751</ele>
        <time>2019-08-08T09:12:48.000Z</time>
      </trkpt>
      <trkpt lat="42.92089" lon="0.72059">
        <ele>751</ele>
        <time>2019-08-08T09:12:49.000Z</time>
      </trkpt>
      <trkpt lat="42.92088" lon="0.72062">
        <ele>751</ele>
        <time>2019-08-08T09:12:50.000Z</time>
      </trkpt>
      <trkpt lat="42.92088" lon="0.72066">
        <ele>753</ele>
        <time>2019-08-08T09:12:51.000Z</time>
      </trkpt>
      <trkpt lat="42.92087" lon="0.72069">
        <ele>753</ele>
        <time>2019-08-08T09:12:52.000Z</time>
      </trkpt>
      <trkpt lat="42.92086" lon="0.72073">
        <ele>753</ele>
        <time>2019-08-08T09:12:53.000Z</time>
      </trkpt>
      <trkpt lat="42.92085" lon="0.72076">
        <ele>753</ele>
        <time>2019-08-08T09:12:54.000Z</time>
      </trkpt>
      <trkpt lat="42.92084" lon="0.72079">
        <ele>754</ele>
        <time>2019-08-08T09:12:55.000Z</time>
      </trkpt>
      <trkpt lat="42.92084" lon="0.72083">
        <ele>754</ele>
        <time>2019-08-08T09:12:56.000Z</time>
      </trkpt>
      <trkpt lat="42.92083" lon="0.72086">
        <ele>755</ele>
        <time>2019-08-08T09:12:57.000Z</time>
      </trkpt>
      <trkpt lat="42.92082" lon="0.72089">
        <ele>755</ele>
        <time>2019-08-08T09:12:58.000Z</time>
      </trkpt>
      <trkpt lat="42.9208" lon="0.72092">
        <ele>755</ele>
        <time>2019-08-08T09:12:59.000Z</time>
      </trkpt>
      <trkpt lat="42.92079" lon="0.72095">
        <ele>755</ele>
        <time>2019-08-08T09:13:00.000Z</time>
      </trkpt>
      <trkpt lat="42.92078" lon="0.72098">
        <ele>755</ele>
        <time>2019-08-08T09:13:01.000Z</time>
      </trkpt>
      <trkpt lat="42.92076" lon="0.72101">
        <ele>755</ele>
        <time>2019-08-08T09:13:02.000Z</time>
      </trkpt>
      <trkpt lat="42.92075" lon="0.72104">
        <ele>756</ele>
        <time>2019-08-08T09:13:03.000Z</time>
      </trkpt>
      <trkpt lat="42.92073" lon="0.72107">
        <ele>756</ele>
        <time>2019-08-08T09:13:04.000Z</time>
      </trkpt>
      <trkpt lat="42.92072" lon="0.7211">
        <ele>756</ele>
        <time>2019-08-08T09:13:05.000Z</time>
      </trkpt>
      <trkpt lat="42.9207" lon="0.72112">
        <ele>756</ele>
        <time>2019-08-08T09:13:06.000Z</time>
      </trkpt>
      <trkpt lat="42.92069" lon="0.72115">
        <ele>756</ele>
        <time>2019-08-08T09:13:07.000Z</time>
      </trkpt>
      <trkpt lat="42.92067" lon="0.72117">
        <ele>756</ele>
        <time>2019-08-08T09:13:08.000Z</time>
      </trkpt>
      <trkpt lat="42.92065" lon="0.7212">
        <ele>757</ele>
        <time>2019-08-08T09:13:09.000Z</time>
      </trkpt>
      <trkpt lat="42.92063" lon="0.72123">
        <ele>757</ele>
        <time>2019-08-08T09:13:10.000Z</time>
      </trkpt>
      <trkpt lat="42.92061" lon="0.72126">
        <ele>758</ele>
        <time>2019-08-08T09:13:11.000Z</time>
      </trkpt>
      <trkpt lat="42.92059" lon="0.72128">
        <ele>758</ele>
        <time>2019-08-08T09:13:12.000Z</time>
      </trkpt>
      <trkpt lat="42.92057" lon="0.7213">
        <ele>758</ele>
        <time>2019-08-08T09:13:13.000Z</time>
      </trkpt>
      <trkpt lat="42.92055" lon="0.72132">
        <ele>758</ele>
        <time>2019-08-08T09:13:14.000Z</time>
      </trkpt>
      <trkpt lat="42.92054" lon="0.72134">
        <ele>758</ele>
        <time>2019-08-08T09:13:15.000Z</time>
      </trkpt>
      <trkpt lat="42.92052" lon="0.72137">
        <ele>758</ele>
        <time>2019-08-08T09:13:16.000Z</time>
      </trkpt>
      <trkpt lat="42.92052" lon="0.72137">
        <ele>758</ele>
        <time>2019-08-08T09:13:17.000Z</time>
      </trkpt>
      <trkpt lat="42.92052" lon="0.72137">
        <ele>758</ele>
        <time>2019-08-08T09:13:18.000Z</time>
      </trkpt>
      <trkpt lat="42.92046" lon="0.72144">
        <ele>759</ele>
        <time>2019-08-08T09:13:19.000Z</time>
      </trkpt>
      <trkpt lat="42.92044" lon="0.72146">
        <ele>759</ele>
        <time>2019-08-08T09:13:20.000Z</time>
      </trkpt>
      <trkpt lat="42.92042" lon="0.72149">
        <ele>759</ele>
        <time>2019-08-08T09:13:21.000Z</time>
      </trkpt>
      <trkpt lat="42.9204" lon="0.72151">
        <ele>759</ele>
        <time>2019-08-08T09:13:22.000Z</time>
      </trkpt>
      <trkpt lat="42.92038" lon="0.72153">
        <ele>760</ele>
        <time>2019-08-08T09:13:23.000Z</time>
      </trkpt>
      <trkpt lat="42.92035" lon="0.72156">
        <ele>760</ele>
        <time>2019-08-08T09:13:24.000Z</time>
      </trkpt>
      <trkpt lat="42.92034" lon="0.72159">
        <ele>760</ele>
        <time>2019-08-08T09:13:25.000Z</time>
      </trkpt>
      <trkpt lat="42.92032" lon="0.72163">
        <ele>760</ele>
        <time>2019-08-08T09:13:26.000Z</time>
      </trkpt>
      <trkpt lat="42.92031" lon="0.72166">
        <ele>760</ele>
        <time>2019-08-08T09:13:27.000Z</time>
      </trkpt>
      <trkpt lat="42.92031" lon="0.72169">
        <ele>760</ele>
        <time>2019-08-08T09:13:28.000Z</time>
      </trkpt>
      <trkpt lat="42.92031" lon="0.72172">
        <ele>760</ele>
        <time>2019-08-08T09:13:29.000Z</time>
      </trkpt>
      <trkpt lat="42.92031" lon="0.72175">
        <ele>762</ele>
        <time>2019-08-08T09:13:30.000Z</time>
      </trkpt>
      <trkpt lat="42.92032" lon="0.72179">
        <ele>762</ele>
        <time>2019-08-08T09:13:31.000Z</time>
      </trkpt>
      <trkpt lat="42.92033" lon="0.72182">
        <ele>763</ele>
        <time>2019-08-08T09:13:32.000Z</time>
      </trkpt>
      <trkpt lat="42.92035" lon="0.72185">
        <ele>763</ele>
        <time>2019-08-08T09:13:33.000Z</time>
      </trkpt>
      <trkpt lat="42.92036" lon="0.72187">
        <ele>763</ele>
        <time>2019-08-08T09:13:34.000Z</time>
      </trkpt>
      <trkpt lat="42.92036" lon="0.72187">
        <ele>763</ele>
        <time>2019-08-08T09:13:35.000Z</time>
      </trkpt>
      <trkpt lat="42.92036" lon="0.72187">
        <ele>763</ele>
        <time>2019-08-08T09:13:36.000Z</time>
      </trkpt>
      <trkpt lat="42.92042" lon="0.7219">
        <ele>764</ele>
        <time>2019-08-08T09:13:37.000Z</time>
      </trkpt>
      <trkpt lat="42.92045" lon="0.7219">
        <ele>764</ele>
        <time>2019-08-08T09:13:38.000Z</time>
      </trkpt>
      <trkpt lat="42.92047" lon="0.72191">
        <ele>764</ele>
        <time>2019-08-08T09:13:39.000Z</time>
      </trkpt>
      <trkpt lat="42.9205" lon="0.72191">
        <ele>764</ele>
        <time>2019-08-08T09:13:40.000Z</time>
      </trkpt>
      <trkpt lat="42.92052" lon="0.7219">
        <ele>764</ele>
        <time>2019-08-08T09:13:41.000Z</time>
      </trkpt>
      <trkpt lat="42.92054" lon="0.7219">
        <ele>764</ele>
        <time>2019-08-08T09:13:42.000Z</time>
      </trkpt>
      <trkpt lat="42.92057" lon="0.72191">
        <ele>764</ele>
        <time>2019-08-08T09:13:43.000Z</time>
      </trkpt>
      <trkpt lat="42.92059" lon="0.72191">
        <ele>764</ele>
        <time>2019-08-08T09:13:44.000Z</time>
      </trkpt>
      <trkpt lat="42.92062" lon="0.72191">
        <ele>765</ele>
        <time>2019-08-08T09:13:45.000Z</time>
      </trkpt>
      <trkpt lat="42.92065" lon="0.72191">
        <ele>765</ele>
        <time>2019-08-08T09:13:46.000Z</time>
      </trkpt>
      <trkpt lat="42.92065" lon="0.72191">
        <ele>766</ele>
        <time>2019-08-08T09:13:47.000Z</time>
      </trkpt>
      <trkpt lat="42.92065" lon="0.72191">
        <ele>766</ele>
        <time>2019-08-08T09:13:48.000Z</time>
      </trkpt>
      <trkpt lat="42.92065" lon="0.72191">
        <ele>766</ele>
        <time>2019-08-08T09:13:49.000Z</time>
      </trkpt>
      <trkpt lat="42.92074" lon="0.72188">
        <ele>766</ele>
        <time>2019-08-08T09:13:50.000Z</time>
      </trkpt>
      <trkpt lat="42.92074" lon="0.72188">
        <ele>767</ele>
        <time>2019-08-08T09:13:51.000Z</time>
      </trkpt>
      <trkpt lat="42.92074" lon="0.72188">
        <ele>767</ele>
        <time>2019-08-08T09:13:52.000Z</time>
      </trkpt>
      <trkpt lat="42.92074" lon="0.72188">
        <ele>768</ele>
        <time>2019-08-08T09:13:53.000Z</time>
      </trkpt>
      <trkpt lat="42.92084" lon="0.72189">
        <ele>768</ele>
        <time>2019-08-08T09:13:54.000Z</time>
      </trkpt>
      <trkpt lat="42.92084" lon="0.72189">
        <ele>768</ele>
        <time>2019-08-08T09:13:55.000Z</time>
      </trkpt>
      <trkpt lat="42.92084" lon="0.72189">
        <ele>768</ele>
        <time>2019-08-08T09:13:56.000Z</time>
      </trkpt>
      <trkpt lat="42.92084" lon="0.72189">
        <ele>768</ele>
        <time>2019-08-08T09:13:57.000Z</time>
      </trkpt>
      <trkpt lat="42.92094" lon="0.72187">
        <ele>768</ele>
        <time>2019-08-08T09:13:58.000Z</time>
      </trkpt>
      <trkpt lat="42.92096" lon="0.72186">
        <ele>769</ele>
        <time>2019-08-08T09:13:59.000Z</time>
      </trkpt>
      <trkpt lat="42.92098" lon="0.72185">
        <ele>769</ele>
        <time>2019-08-08T09:14:00.000Z</time>
      </trkpt>
      <trkpt lat="42.92101" lon="0.72184">
        <ele>770</ele>
        <time>2019-08-08T09:14:01.000Z</time>
      </trkpt>
      <trkpt lat="42.92103" lon="0.72184">
        <ele>770</ele>
        <time>2019-08-08T09:14:02.000Z</time>
      </trkpt>
      <trkpt lat="42.92106" lon="0.72183">
        <ele>770</ele>
        <time>2019-08-08T09:14:03.000Z</time>
      </trkpt>
      <trkpt lat="42.92108" lon="0.72182">
        <ele>770</ele>
        <time>2019-08-08T09:14:04.000Z</time>
      </trkpt>
      <trkpt lat="42.92111" lon="0.72181">
        <ele>771</ele>
        <time>2019-08-08T09:14:05.000Z</time>
      </trkpt>
      <trkpt lat="42.92113" lon="0.7218">
        <ele>771</ele>
        <time>2019-08-08T09:14:06.000Z</time>
      </trkpt>
      <trkpt lat="42.92115" lon="0.7218">
        <ele>772</ele>
        <time>2019-08-08T09:14:07.000Z</time>
      </trkpt>
      <trkpt lat="42.92118" lon="0.72179">
        <ele>772</ele>
        <time>2019-08-08T09:14:08.000Z</time>
      </trkpt>
      <trkpt lat="42.9212" lon="0.72178">
        <ele>772</ele>
        <time>2019-08-08T09:14:09.000Z</time>
      </trkpt>
      <trkpt lat="42.92122" lon="0.72177">
        <ele>772</ele>
        <time>2019-08-08T09:14:10.000Z</time>
      </trkpt>
      <trkpt lat="42.92125" lon="0.72177">
        <ele>773</ele>
        <time>2019-08-08T09:14:11.000Z</time>
      </trkpt>
      <trkpt lat="42.92127" lon="0.72176">
        <ele>773</ele>
        <time>2019-08-08T09:14:12.000Z</time>
      </trkpt>
      <trkpt lat="42.92129" lon="0.72174">
        <ele>773</ele>
        <time>2019-08-08T09:14:13.000Z</time>
      </trkpt>
      <trkpt lat="42.92132" lon="0.72173">
        <ele>773</ele>
        <time>2019-08-08T09:14:14.000Z</time>
      </trkpt>
      <trkpt lat="42.92134" lon="0.72172">
        <ele>773</ele>
        <time>2019-08-08T09:14:15.000Z</time>
      </trkpt>
      <trkpt lat="42.92137" lon="0.72171">
        <ele>773</ele>
        <time>2019-08-08T09:14:16.000Z</time>
      </trkpt>
      <trkpt lat="42.92139" lon="0.7217">
        <ele>773</ele>
        <time>2019-08-08T09:14:17.000Z</time>
      </trkpt>
      <trkpt lat="42.92142" lon="0.72169">
        <ele>774</ele>
        <time>2019-08-08T09:14:18.000Z</time>
      </trkpt>
      <trkpt lat="42.92144" lon="0.72168">
        <ele>774</ele>
        <time>2019-08-08T09:14:19.000Z</time>
      </trkpt>
      <trkpt lat="42.92146" lon="0.72167">
        <ele>774</ele>
        <time>2019-08-08T09:14:20.000Z</time>
      </trkpt>
      <trkpt lat="42.92149" lon="0.72165">
        <ele>774</ele>
        <time>2019-08-08T09:14:21.000Z</time>
      </trkpt>
      <trkpt lat="42.92151" lon="0.72164">
        <ele>775</ele>
        <time>2019-08-08T09:14:22.000Z</time>
      </trkpt>
      <trkpt lat="42.92153" lon="0.72163">
        <ele>775</ele>
        <time>2019-08-08T09:14:23.000Z</time>
      </trkpt>
      <trkpt lat="42.92157" lon="0.72161">
        <ele>776</ele>
        <time>2019-08-08T09:14:24.000Z</time>
      </trkpt>
      <trkpt lat="42.92158" lon="0.7216">
        <ele>776</ele>
        <time>2019-08-08T09:14:25.000Z</time>
      </trkpt>
      <trkpt lat="42.92161" lon="0.72159">
        <ele>776</ele>
        <time>2019-08-08T09:14:26.000Z</time>
      </trkpt>
      <trkpt lat="42.92163" lon="0.72157">
        <ele>776</ele>
        <time>2019-08-08T09:14:27.000Z</time>
      </trkpt>
      <trkpt lat="42.92165" lon="0.72155">
        <ele>776</ele>
        <time>2019-08-08T09:14:28.000Z</time>
      </trkpt>
      <trkpt lat="42.92167" lon="0.72153">
        <ele>776</ele>
        <time>2019-08-08T09:14:29.000Z</time>
      </trkpt>
      <trkpt lat="42.92169" lon="0.72151">
        <ele>776</ele>
        <time>2019-08-08T09:14:30.000Z</time>
      </trkpt>
      <trkpt lat="42.92172" lon="0.72149">
        <ele>776</ele>
        <time>2019-08-08T09:14:31.000Z</time>
      </trkpt>
      <trkpt lat="42.92174" lon="0.72147">
        <ele>777</ele>
        <time>2019-08-08T09:14:32.000Z</time>
      </trkpt>
      <trkpt lat="42.92176" lon="0.72145">
        <ele>777</ele>
        <time>2019-08-08T09:14:33.000Z</time>
      </trkpt>
      <trkpt lat="42.92178" lon="0.72143">
        <ele>778</ele>
        <time>2019-08-08T09:14:34.000Z</time>
      </trkpt>
      <trkpt lat="42.9218" lon="0.72141">
        <ele>778</ele>
        <time>2019-08-08T09:14:35.000Z</time>
      </trkpt>
      <trkpt lat="42.92183" lon="0.72139">
        <ele>780</ele>
        <time>2019-08-08T09:14:36.000Z</time>
      </trkpt>
      <trkpt lat="42.92183" lon="0.72139">
        <ele>780</ele>
        <time>2019-08-08T09:14:37.000Z</time>
      </trkpt>
      <trkpt lat="42.92187" lon="0.72136">
        <ele>780</ele>
        <time>2019-08-08T09:14:38.000Z</time>
      </trkpt>
      <trkpt lat="42.92189" lon="0.72134">
        <ele>780</ele>
        <time>2019-08-08T09:14:39.000Z</time>
      </trkpt>
      <trkpt lat="42.92191" lon="0.72132">
        <ele>780</ele>
        <time>2019-08-08T09:14:40.000Z</time>
      </trkpt>
      <trkpt lat="42.92194" lon="0.72131">
        <ele>780</ele>
        <time>2019-08-08T09:14:41.000Z</time>
      </trkpt>
      <trkpt lat="42.92196" lon="0.72129">
        <ele>781</ele>
        <time>2019-08-08T09:14:42.000Z</time>
      </trkpt>
      <trkpt lat="42.92198" lon="0.72127">
        <ele>781</ele>
        <time>2019-08-08T09:14:43.000Z</time>
      </trkpt>
      <trkpt lat="42.922" lon="0.72126">
        <ele>781</ele>
        <time>2019-08-08T09:14:44.000Z</time>
      </trkpt>
      <trkpt lat="42.92202" lon="0.72124">
        <ele>781</ele>
        <time>2019-08-08T09:14:45.000Z</time>
      </trkpt>
      <trkpt lat="42.92204" lon="0.72123">
        <ele>782</ele>
        <time>2019-08-08T09:14:46.000Z</time>
      </trkpt>
      <trkpt lat="42.92206" lon="0.72121">
        <ele>782</ele>
        <time>2019-08-08T09:14:47.000Z</time>
      </trkpt>
      <trkpt lat="42.92208" lon="0.72119">
        <ele>782</ele>
        <time>2019-08-08T09:14:48.000Z</time>
      </trkpt>
      <trkpt lat="42.9221" lon="0.72117">
        <ele>782</ele>
        <time>2019-08-08T09:14:49.000Z</time>
      </trkpt>
      <trkpt lat="42.92212" lon="0.72115">
        <ele>782</ele>
        <time>2019-08-08T09:14:50.000Z</time>
      </trkpt>
      <trkpt lat="42.92214" lon="0.72113">
        <ele>782</ele>
        <time>2019-08-08T09:14:51.000Z</time>
      </trkpt>
      <trkpt lat="42.92216" lon="0.7211">
        <ele>782</ele>
        <time>2019-08-08T09:14:52.000Z</time>
      </trkpt>
      <trkpt lat="42.92217" lon="0.72107">
        <ele>782</ele>
        <time>2019-08-08T09:14:53.000Z</time>
      </trkpt>
      <trkpt lat="42.92218" lon="0.72104">
        <ele>782</ele>
        <time>2019-08-08T09:14:54.000Z</time>
      </trkpt>
      <trkpt lat="42.9222" lon="0.72101">
        <ele>782</ele>
        <time>2019-08-08T09:14:55.000Z</time>
      </trkpt>
      <trkpt lat="42.92221" lon="0.72098">
        <ele>783</ele>
        <time>2019-08-08T09:14:56.000Z</time>
      </trkpt>
      <trkpt lat="42.92222" lon="0.72096">
        <ele>783</ele>
        <time>2019-08-08T09:14:57.000Z</time>
      </trkpt>
      <trkpt lat="42.92223" lon="0.72093">
        <ele>784</ele>
        <time>2019-08-08T09:14:58.000Z</time>
      </trkpt>
      <trkpt lat="42.92224" lon="0.72089">
        <ele>784</ele>
        <time>2019-08-08T09:14:59.000Z</time>
      </trkpt>
      <trkpt lat="42.92225" lon="0.72085">
        <ele>784</ele>
        <time>2019-08-08T09:15:00.000Z</time>
      </trkpt>
      <trkpt lat="42.92225" lon="0.72081">
        <ele>784</ele>
        <time>2019-08-08T09:15:01.000Z</time>
      </trkpt>
      <trkpt lat="42.92225" lon="0.72078">
        <ele>785</ele>
        <time>2019-08-08T09:15:02.000Z</time>
      </trkpt>
      <trkpt lat="42.92225" lon="0.72074">
        <ele>785</ele>
        <time>2019-08-08T09:15:03.000Z</time>
      </trkpt>
      <trkpt lat="42.92226" lon="0.7207">
        <ele>785</ele>
        <time>2019-08-08T09:15:04.000Z</time>
      </trkpt>
      <trkpt lat="42.92226" lon="0.72067">
        <ele>785</ele>
        <time>2019-08-08T09:15:05.000Z</time>
      </trkpt>
      <trkpt lat="42.92226" lon="0.72063">
        <ele>786</ele>
        <time>2019-08-08T09:15:06.000Z</time>
      </trkpt>
      <trkpt lat="42.92226" lon="0.7206">
        <ele>786</ele>
        <time>2019-08-08T09:15:07.000Z</time>
      </trkpt>
      <trkpt lat="42.92225" lon="0.72056">
        <ele>786</ele>
        <time>2019-08-08T09:15:08.000Z</time>
      </trkpt>
      <trkpt lat="42.92225" lon="0.72052">
        <ele>786</ele>
        <time>2019-08-08T09:15:09.000Z</time>
      </trkpt>
      <trkpt lat="42.92225" lon="0.72052">
        <ele>786</ele>
        <time>2019-08-08T09:15:10.000Z</time>
      </trkpt>
      <trkpt lat="42.92225" lon="0.72052">
        <ele>786</ele>
        <time>2019-08-08T09:15:11.000Z</time>
      </trkpt>
      <trkpt lat="42.92225" lon="0.72041">
        <ele>787</ele>
        <time>2019-08-08T09:15:12.000Z</time>
      </trkpt>
      <trkpt lat="42.92225" lon="0.72038">
        <ele>787</ele>
        <time>2019-08-08T09:15:13.000Z</time>
      </trkpt>
      <trkpt lat="42.92226" lon="0.72034">
        <ele>788</ele>
        <time>2019-08-08T09:15:14.000Z</time>
      </trkpt>
      <trkpt lat="42.92227" lon="0.7203">
        <ele>788</ele>
        <time>2019-08-08T09:15:15.000Z</time>
      </trkpt>
      <trkpt lat="42.92227" lon="0.72027">
        <ele>788</ele>
        <time>2019-08-08T09:15:16.000Z</time>
      </trkpt>
      <trkpt lat="42.92228" lon="0.72023">
        <ele>788</ele>
        <time>2019-08-08T09:15:17.000Z</time>
      </trkpt>
      <trkpt lat="42.9223" lon="0.7202">
        <ele>789</ele>
        <time>2019-08-08T09:15:18.000Z</time>
      </trkpt>
      <trkpt lat="42.92231" lon="0.72017">
        <ele>789</ele>
        <time>2019-08-08T09:15:19.000Z</time>
      </trkpt>
      <trkpt lat="42.92233" lon="0.72013">
        <ele>789</ele>
        <time>2019-08-08T09:15:20.000Z</time>
      </trkpt>
      <trkpt lat="42.92233" lon="0.72013">
        <ele>789</ele>
        <time>2019-08-08T09:15:21.000Z</time>
      </trkpt>
      <trkpt lat="42.92237" lon="0.72008">
        <ele>789</ele>
        <time>2019-08-08T09:15:22.000Z</time>
      </trkpt>
      <trkpt lat="42.92239" lon="0.72006">
        <ele>789</ele>
        <time>2019-08-08T09:15:23.000Z</time>
      </trkpt>
      <trkpt lat="42.92242" lon="0.72004">
        <ele>789</ele>
        <time>2019-08-08T09:15:24.000Z</time>
      </trkpt>
      <trkpt lat="42.92244" lon="0.72002">
        <ele>789</ele>
        <time>2019-08-08T09:15:25.000Z</time>
      </trkpt>
      <trkpt lat="42.92246" lon="0.72">
        <ele>789</ele>
        <time>2019-08-08T09:15:26.000Z</time>
      </trkpt>
      <trkpt lat="42.92249" lon="0.71998">
        <ele>791</ele>
        <time>2019-08-08T09:15:27.000Z</time>
      </trkpt>
      <trkpt lat="42.92252" lon="0.71997">
        <ele>791</ele>
        <time>2019-08-08T09:15:28.000Z</time>
      </trkpt>
      <trkpt lat="42.92254" lon="0.71996">
        <ele>791</ele>
        <time>2019-08-08T09:15:29.000Z</time>
      </trkpt>
      <trkpt lat="42.92257" lon="0.71996">
        <ele>791</ele>
        <time>2019-08-08T09:15:30.000Z</time>
      </trkpt>
      <trkpt lat="42.9226" lon="0.71996">
        <ele>791</ele>
        <time>2019-08-08T09:15:31.000Z</time>
      </trkpt>
      <trkpt lat="42.92263" lon="0.71997">
        <ele>791</ele>
        <time>2019-08-08T09:15:32.000Z</time>
      </trkpt>
      <trkpt lat="42.92266" lon="0.71999">
        <ele>791</ele>
        <time>2019-08-08T09:15:33.000Z</time>
      </trkpt>
      <trkpt lat="42.92268" lon="0.72001">
        <ele>791</ele>
        <time>2019-08-08T09:15:34.000Z</time>
      </trkpt>
      <trkpt lat="42.9227" lon="0.72003">
        <ele>791</ele>
        <time>2019-08-08T09:15:35.000Z</time>
      </trkpt>
      <trkpt lat="42.92272" lon="0.72006">
        <ele>793</ele>
        <time>2019-08-08T09:15:36.000Z</time>
      </trkpt>
      <trkpt lat="42.92273" lon="0.72009">
        <ele>793</ele>
        <time>2019-08-08T09:15:37.000Z</time>
      </trkpt>
      <trkpt lat="42.92274" lon="0.72012">
        <ele>793</ele>
        <time>2019-08-08T09:15:38.000Z</time>
      </trkpt>
      <trkpt lat="42.92274" lon="0.72015">
        <ele>793</ele>
        <time>2019-08-08T09:15:39.000Z</time>
      </trkpt>
      <trkpt lat="42.92274" lon="0.72019">
        <ele>793</ele>
        <time>2019-08-08T09:15:40.000Z</time>
      </trkpt>
      <trkpt lat="42.92273" lon="0.72023">
        <ele>793</ele>
        <time>2019-08-08T09:15:41.000Z</time>
      </trkpt>
      <trkpt lat="42.92273" lon="0.72026">
        <ele>794</ele>
        <time>2019-08-08T09:15:42.000Z</time>
      </trkpt>
      <trkpt lat="42.92274" lon="0.72029">
        <ele>794</ele>
        <time>2019-08-08T09:15:43.000Z</time>
      </trkpt>
      <trkpt lat="42.92274" lon="0.72033">
        <ele>794</ele>
        <time>2019-08-08T09:15:44.000Z</time>
      </trkpt>
      <trkpt lat="42.92275" lon="0.72036">
        <ele>794</ele>
        <time>2019-08-08T09:15:45.000Z</time>
      </trkpt>
      <trkpt lat="42.92275" lon="0.72039">
        <ele>795</ele>
        <time>2019-08-08T09:15:46.000Z</time>
      </trkpt>
      <trkpt lat="42.92275" lon="0.72043">
        <ele>795</ele>
        <time>2019-08-08T09:15:47.000Z</time>
      </trkpt>
      <trkpt lat="42.92276" lon="0.72046">
        <ele>795</ele>
        <time>2019-08-08T09:15:48.000Z</time>
      </trkpt>
      <trkpt lat="42.92276" lon="0.72049">
        <ele>796</ele>
        <time>2019-08-08T09:15:49.000Z</time>
      </trkpt>
      <trkpt lat="42.92277" lon="0.72053">
        <ele>796</ele>
        <time>2019-08-08T09:15:50.000Z</time>
      </trkpt>
      <trkpt lat="42.92277" lon="0.72056">
        <ele>797</ele>
        <time>2019-08-08T09:15:51.000Z</time>
      </trkpt>
      <trkpt lat="42.92278" lon="0.7206">
        <ele>797</ele>
        <time>2019-08-08T09:15:52.000Z</time>
      </trkpt>
      <trkpt lat="42.92278" lon="0.72063">
        <ele>798</ele>
        <time>2019-08-08T09:15:53.000Z</time>
      </trkpt>
      <trkpt lat="42.92279" lon="0.72066">
        <ele>798</ele>
        <time>2019-08-08T09:15:54.000Z</time>
      </trkpt>
      <trkpt lat="42.92279" lon="0.7207">
        <ele>798</ele>
        <time>2019-08-08T09:15:55.000Z</time>
      </trkpt>
      <trkpt lat="42.9228" lon="0.72073">
        <ele>798</ele>
        <time>2019-08-08T09:15:56.000Z</time>
      </trkpt>
      <trkpt lat="42.9228" lon="0.72077">
        <ele>798</ele>
        <time>2019-08-08T09:15:57.000Z</time>
      </trkpt>
      <trkpt lat="42.9228" lon="0.7208">
        <ele>798</ele>
        <time>2019-08-08T09:15:58.000Z</time>
      </trkpt>
      <trkpt lat="42.9228" lon="0.72084">
        <ele>799</ele>
        <time>2019-08-08T09:15:59.000Z</time>
      </trkpt>
      <trkpt lat="42.92281" lon="0.72087">
        <ele>799</ele>
        <time>2019-08-08T09:16:00.000Z</time>
      </trkpt>
      <trkpt lat="42.92281" lon="0.7209">
        <ele>800</ele>
        <time>2019-08-08T09:16:01.000Z</time>
      </trkpt>
      <trkpt lat="42.92282" lon="0.72094">
        <ele>800</ele>
        <time>2019-08-08T09:16:02.000Z</time>
      </trkpt>
      <trkpt lat="42.92282" lon="0.72097">
        <ele>800</ele>
        <time>2019-08-08T09:16:03.000Z</time>
      </trkpt>
      <trkpt lat="42.92282" lon="0.721">
        <ele>800</ele>
        <time>2019-08-08T09:16:04.000Z</time>
      </trkpt>
      <trkpt lat="42.92282" lon="0.72104">
        <ele>801</ele>
        <time>2019-08-08T09:16:05.000Z</time>
      </trkpt>
      <trkpt lat="42.92282" lon="0.72107">
        <ele>801</ele>
        <time>2019-08-08T09:16:06.000Z</time>
      </trkpt>
      <trkpt lat="42.92282" lon="0.7211">
        <ele>801</ele>
        <time>2019-08-08T09:16:07.000Z</time>
      </trkpt>
      <trkpt lat="42.92282" lon="0.72113">
        <ele>801</ele>
        <time>2019-08-08T09:16:08.000Z</time>
      </trkpt>
      <trkpt lat="42.92282" lon="0.72117">
        <ele>801</ele>
        <time>2019-08-08T09:16:09.000Z</time>
      </trkpt>
      <trkpt lat="42.92282" lon="0.7212">
        <ele>802</ele>
        <time>2019-08-08T09:16:10.000Z</time>
      </trkpt>
      <trkpt lat="42.92281" lon="0.72123">
        <ele>802</ele>
        <time>2019-08-08T09:16:11.000Z</time>
      </trkpt>
      <trkpt lat="42.9228" lon="0.72126">
        <ele>803</ele>
        <time>2019-08-08T09:16:12.000Z</time>
      </trkpt>
      <trkpt lat="42.92279" lon="0.72129">
        <ele>803</ele>
        <time>2019-08-08T09:16:13.000Z</time>
      </trkpt>
      <trkpt lat="42.92278" lon="0.72132">
        <ele>803</ele>
        <time>2019-08-08T09:16:14.000Z</time>
      </trkpt>
      <trkpt lat="42.92277" lon="0.72135">
        <ele>803</ele>
        <time>2019-08-08T09:16:15.000Z</time>
      </trkpt>
      <trkpt lat="42.92275" lon="0.72138">
        <ele>804</ele>
        <time>2019-08-08T09:16:16.000Z</time>
      </trkpt>
      <trkpt lat="42.92273" lon="0.7214">
        <ele>804</ele>
        <time>2019-08-08T09:16:17.000Z</time>
      </trkpt>
      <trkpt lat="42.92272" lon="0.72143">
        <ele>804</ele>
        <time>2019-08-08T09:16:18.000Z</time>
      </trkpt>
      <trkpt lat="42.9227" lon="0.72146">
        <ele>804</ele>
        <time>2019-08-08T09:16:19.000Z</time>
      </trkpt>
      <trkpt lat="42.92268" lon="0.72148">
        <ele>805</ele>
        <time>2019-08-08T09:16:20.000Z</time>
      </trkpt>
      <trkpt lat="42.92266" lon="0.72151">
        <ele>805</ele>
        <time>2019-08-08T09:16:21.000Z</time>
      </trkpt>
      <trkpt lat="42.92264" lon="0.72153">
        <ele>805</ele>
        <time>2019-08-08T09:16:22.000Z</time>
      </trkpt>
      <trkpt lat="42.92262" lon="0.72155">
        <ele>805</ele>
        <time>2019-08-08T09:16:23.000Z</time>
      </trkpt>
      <trkpt lat="42.92261" lon="0.72158">
        <ele>805</ele>
        <time>2019-08-08T09:16:24.000Z</time>
      </trkpt>
      <trkpt lat="42.92259" lon="0.7216">
        <ele>805</ele>
        <time>2019-08-08T09:16:25.000Z</time>
      </trkpt>
      <trkpt lat="42.92257" lon="0.72162">
        <ele>805</ele>
        <time>2019-08-08T09:16:26.000Z</time>
      </trkpt>
      <trkpt lat="42.92255" lon="0.72164">
        <ele>807</ele>
        <time>2019-08-08T09:16:27.000Z</time>
      </trkpt>
      <trkpt lat="42.92252" lon="0.72166">
        <ele>807</ele>
        <time>2019-08-08T09:16:28.000Z</time>
      </trkpt>
      <trkpt lat="42.92251" lon="0.72169">
        <ele>807</ele>
        <time>2019-08-08T09:16:29.000Z</time>
      </trkpt>
      <trkpt lat="42.92249" lon="0.72171">
        <ele>807</ele>
        <time>2019-08-08T09:16:30.000Z</time>
      </trkpt>
      <trkpt lat="42.92247" lon="0.72174">
        <ele>807</ele>
        <time>2019-08-08T09:16:31.000Z</time>
      </trkpt>
      <trkpt lat="42.92246" lon="0.72177">
        <ele>808</ele>
        <time>2019-08-08T09:16:32.000Z</time>
      </trkpt>
      <trkpt lat="42.92244" lon="0.7218">
        <ele>808</ele>
        <time>2019-08-08T09:16:33.000Z</time>
      </trkpt>
      <trkpt lat="42.92243" lon="0.72183">
        <ele>809</ele>
        <time>2019-08-08T09:16:34.000Z</time>
      </trkpt>
      <trkpt lat="42.92241" lon="0.72186">
        <ele>809</ele>
        <time>2019-08-08T09:16:35.000Z</time>
      </trkpt>
      <trkpt lat="42.9224" lon="0.72188">
        <ele>809</ele>
        <time>2019-08-08T09:16:36.000Z</time>
      </trkpt>
      <trkpt lat="42.92238" lon="0.7219">
        <ele>809</ele>
        <time>2019-08-08T09:16:37.000Z</time>
      </trkpt>
      <trkpt lat="42.92236" lon="0.72193">
        <ele>810</ele>
        <time>2019-08-08T09:16:38.000Z</time>
      </trkpt>
      <trkpt lat="42.92235" lon="0.72195">
        <ele>810</ele>
        <time>2019-08-08T09:16:39.000Z</time>
      </trkpt>
      <trkpt lat="42.92233" lon="0.72197">
        <ele>810</ele>
        <time>2019-08-08T09:16:40.000Z</time>
      </trkpt>
      <trkpt lat="42.92232" lon="0.722">
        <ele>810</ele>
        <time>2019-08-08T09:16:41.000Z</time>
      </trkpt>
      <trkpt lat="42.9223" lon="0.72204">
        <ele>810</ele>
        <time>2019-08-08T09:16:42.000Z</time>
      </trkpt>
      <trkpt lat="42.92229" lon="0.72205">
        <ele>810</ele>
        <time>2019-08-08T09:16:43.000Z</time>
      </trkpt>
      <trkpt lat="42.92227" lon="0.72207">
        <ele>810</ele>
        <time>2019-08-08T09:16:44.000Z</time>
      </trkpt>
      <trkpt lat="42.92225" lon="0.72209">
        <ele>811</ele>
        <time>2019-08-08T09:16:45.000Z</time>
      </trkpt>
      <trkpt lat="42.92224" lon="0.72211">
        <ele>811</ele>
        <time>2019-08-08T09:16:46.000Z</time>
      </trkpt>
      <trkpt lat="42.92222" lon="0.72214">
        <ele>811</ele>
        <time>2019-08-08T09:16:47.000Z</time>
      </trkpt>
      <trkpt lat="42.92219" lon="0.72216">
        <ele>811</ele>
        <time>2019-08-08T09:16:48.000Z</time>
      </trkpt>
      <trkpt lat="42.92217" lon="0.72217">
        <ele>811</ele>
        <time>2019-08-08T09:16:49.000Z</time>
      </trkpt>
      <trkpt lat="42.92214" lon="0.72219">
        <ele>812</ele>
        <time>2019-08-08T09:16:50.000Z</time>
      </trkpt>
      <trkpt lat="42.92212" lon="0.72221">
        <ele>812</ele>
        <time>2019-08-08T09:16:51.000Z</time>
      </trkpt>
      <trkpt lat="42.9221" lon="0.72223">
        <ele>812</ele>
        <time>2019-08-08T09:16:52.000Z</time>
      </trkpt>
      <trkpt lat="42.92207" lon="0.72224">
        <ele>812</ele>
        <time>2019-08-08T09:16:53.000Z</time>
      </trkpt>
      <trkpt lat="42.92206" lon="0.72226">
        <ele>813</ele>
        <time>2019-08-08T09:16:54.000Z</time>
      </trkpt>
      <trkpt lat="42.92204" lon="0.72228">
        <ele>813</ele>
        <time>2019-08-08T09:16:55.000Z</time>
      </trkpt>
      <trkpt lat="42.92201" lon="0.7223">
        <ele>814</ele>
        <time>2019-08-08T09:16:56.000Z</time>
      </trkpt>
      <trkpt lat="42.92199" lon="0.72232">
        <ele>814</ele>
        <time>2019-08-08T09:16:57.000Z</time>
      </trkpt>
      <trkpt lat="42.92197" lon="0.72235">
        <ele>814</ele>
        <time>2019-08-08T09:16:58.000Z</time>
      </trkpt>
      <trkpt lat="42.92195" lon="0.72237">
        <ele>814</ele>
        <time>2019-08-08T09:16:59.000Z</time>
      </trkpt>
      <trkpt lat="42.92193" lon="0.72239">
        <ele>814</ele>
        <time>2019-08-08T09:17:00.000Z</time>
      </trkpt>
      <trkpt lat="42.9219" lon="0.72243">
        <ele>814</ele>
        <time>2019-08-08T09:17:01.000Z</time>
      </trkpt>
      <trkpt lat="42.92189" lon="0.72244">
        <ele>814.4</ele>
        <time>2019-08-08T09:17:02.000Z</time>
      </trkpt>
      <trkpt lat="42.92186" lon="0.72246">
        <ele>815</ele>
        <time>2019-08-08T09:17:03.000Z</time>
      </trkpt>
      <trkpt lat="42.92184" lon="0.72248">
        <ele>815</ele>
        <time>2019-08-08T09:17:04.000Z</time>
      </trkpt>
      <trkpt lat="42.92182" lon="0.7225">
        <ele>816</ele>
        <time>2019-08-08T09:17:05.000Z</time>
      </trkpt>
      <trkpt lat="42.92179" lon="0.72253">
        <ele>816</ele>
        <time>2019-08-08T09:17:06.000Z</time>
      </trkpt>
      <trkpt lat="42.92177" lon="0.72255">
        <ele>816</ele>
        <time>2019-08-08T09:17:07.000Z</time>
      </trkpt>
      <trkpt lat="42.92176" lon="0.72258">
        <ele>816</ele>
        <time>2019-08-08T09:17:08.000Z</time>
      </trkpt>
      <trkpt lat="42.92174" lon="0.72261">
        <ele>817</ele>
        <time>2019-08-08T09:17:09.000Z</time>
      </trkpt>
      <trkpt lat="42.92172" lon="0.72264">
        <ele>817</ele>
        <time>2019-08-08T09:17:10.000Z</time>
      </trkpt>
      <trkpt lat="42.92171" lon="0.72267">
        <ele>817</ele>
        <time>2019-08-08T09:17:11.000Z</time>
      </trkpt>
      <trkpt lat="42.9217" lon="0.7227">
        <ele>817</ele>
        <time>2019-08-08T09:17:12.000Z</time>
      </trkpt>
      <trkpt lat="42.92169" lon="0.72274">
        <ele>818</ele>
        <time>2019-08-08T09:17:13.000Z</time>
      </trkpt>
      <trkpt lat="42.92169" lon="0.72277">
        <ele>818</ele>
        <time>2019-08-08T09:17:14.000Z</time>
      </trkpt>
      <trkpt lat="42.92168" lon="0.7228">
        <ele>818</ele>
        <time>2019-08-08T09:17:15.000Z</time>
      </trkpt>
      <trkpt lat="42.92168" lon="0.72283">
        <ele>818</ele>
        <time>2019-08-08T09:17:16.000Z</time>
      </trkpt>
      <trkpt lat="42.92168" lon="0.72286">
        <ele>818</ele>
        <time>2019-08-08T09:17:17.000Z</time>
      </trkpt>
      <trkpt lat="42.92167" lon="0.72289">
        <ele>818</ele>
        <time>2019-08-08T09:17:18.000Z</time>
      </trkpt>
      <trkpt lat="42.92167" lon="0.72292">
        <ele>818</ele>
        <time>2019-08-08T09:17:19.000Z</time>
      </trkpt>
      <trkpt lat="42.92166" lon="0.72295">
        <ele>818</ele>
        <time>2019-08-08T09:17:20.000Z</time>
      </trkpt>
      <trkpt lat="42.92165" lon="0.72298">
        <ele>819</ele>
        <time>2019-08-08T09:17:21.000Z</time>
      </trkpt>
      <trkpt lat="42.92163" lon="0.72301">
        <ele>819</ele>
        <time>2019-08-08T09:17:22.000Z</time>
      </trkpt>
      <trkpt lat="42.92162" lon="0.72304">
        <ele>819</ele>
        <time>2019-08-08T09:17:23.000Z</time>
      </trkpt>
      <trkpt lat="42.9216" lon="0.72307">
        <ele>819</ele>
        <time>2019-08-08T09:17:24.000Z</time>
      </trkpt>
      <trkpt lat="42.92158" lon="0.7231">
        <ele>820</ele>
        <time>2019-08-08T09:17:25.000Z</time>
      </trkpt>
      <trkpt lat="42.92156" lon="0.72312">
        <ele>820</ele>
        <time>2019-08-08T09:17:26.000Z</time>
      </trkpt>
      <trkpt lat="42.92154" lon="0.72314">
        <ele>821</ele>
        <time>2019-08-08T09:17:27.000Z</time>
      </trkpt>
      <trkpt lat="42.92152" lon="0.72316">
        <ele>821</ele>
        <time>2019-08-08T09:17:28.000Z</time>
      </trkpt>
      <trkpt lat="42.9215" lon="0.72319">
        <ele>823</ele>
        <time>2019-08-08T09:17:29.000Z</time>
      </trkpt>
      <trkpt lat="42.92148" lon="0.72321">
        <ele>823</ele>
        <time>2019-08-08T09:17:30.000Z</time>
      </trkpt>
      <trkpt lat="42.92146" lon="0.72324">
        <ele>823</ele>
        <time>2019-08-08T09:17:31.000Z</time>
      </trkpt>
      <trkpt lat="42.92144" lon="0.72326">
        <ele>823</ele>
        <time>2019-08-08T09:17:32.000Z</time>
      </trkpt>
      <trkpt lat="42.92142" lon="0.72329">
        <ele>823</ele>
        <time>2019-08-08T09:17:33.000Z</time>
      </trkpt>
      <trkpt lat="42.92141" lon="0.72332">
        <ele>823</ele>
        <time>2019-08-08T09:17:34.000Z</time>
      </trkpt>
      <trkpt lat="42.92139" lon="0.72334">
        <ele>824</ele>
        <time>2019-08-08T09:17:35.000Z</time>
      </trkpt>
      <trkpt lat="42.92137" lon="0.72337">
        <ele>824</ele>
        <time>2019-08-08T09:17:36.000Z</time>
      </trkpt>
      <trkpt lat="42.92136" lon="0.72339">
        <ele>825</ele>
        <time>2019-08-08T09:17:37.000Z</time>
      </trkpt>
      <trkpt lat="42.92134" lon="0.72342">
        <ele>825</ele>
        <time>2019-08-08T09:17:38.000Z</time>
      </trkpt>
      <trkpt lat="42.92133" lon="0.72345">
        <ele>826</ele>
        <time>2019-08-08T09:17:39.000Z</time>
      </trkpt>
      <trkpt lat="42.92132" lon="0.72347">
        <ele>826</ele>
        <time>2019-08-08T09:17:40.000Z</time>
      </trkpt>
      <trkpt lat="42.92131" lon="0.7235">
        <ele>826</ele>
        <time>2019-08-08T09:17:41.000Z</time>
      </trkpt>
      <trkpt lat="42.9213" lon="0.72354">
        <ele>826</ele>
        <time>2019-08-08T09:17:42.000Z</time>
      </trkpt>
      <trkpt lat="42.92129" lon="0.72357">
        <ele>826</ele>
        <time>2019-08-08T09:17:43.000Z</time>
      </trkpt>
      <trkpt lat="42.92128" lon="0.7236">
        <ele>826</ele>
        <time>2019-08-08T09:17:44.000Z</time>
      </trkpt>
      <trkpt lat="42.92127" lon="0.72363">
        <ele>826</ele>
        <time>2019-08-08T09:17:45.000Z</time>
      </trkpt>
      <trkpt lat="42.92126" lon="0.72366">
        <ele>827</ele>
        <time>2019-08-08T09:17:46.000Z</time>
      </trkpt>
      <trkpt lat="42.92124" lon="0.72369">
        <ele>827</ele>
        <time>2019-08-08T09:17:47.000Z</time>
      </trkpt>
      <trkpt lat="42.92123" lon="0.72372">
        <ele>827</ele>
        <time>2019-08-08T09:17:48.000Z</time>
      </trkpt>
      <trkpt lat="42.92122" lon="0.72375">
        <ele>827</ele>
        <time>2019-08-08T09:17:49.000Z</time>
      </trkpt>
      <trkpt lat="42.92121" lon="0.72378">
        <ele>827</ele>
        <time>2019-08-08T09:17:50.000Z</time>
      </trkpt>
      <trkpt lat="42.9212" lon="0.72381">
        <ele>827</ele>
        <time>2019-08-08T09:17:51.000Z</time>
      </trkpt>
      <trkpt lat="42.92119" lon="0.72384">
        <ele>828</ele>
        <time>2019-08-08T09:17:52.000Z</time>
      </trkpt>
      <trkpt lat="42.92118" lon="0.72387">
        <ele>828</ele>
        <time>2019-08-08T09:17:53.000Z</time>
      </trkpt>
      <trkpt lat="42.92116" lon="0.7239">
        <ele>828</ele>
        <time>2019-08-08T09:17:54.000Z</time>
      </trkpt>
      <trkpt lat="42.92115" lon="0.72393">
        <ele>828</ele>
        <time>2019-08-08T09:17:55.000Z</time>
      </trkpt>
      <trkpt lat="42.92114" lon="0.72396">
        <ele>829</ele>
        <time>2019-08-08T09:17:56.000Z</time>
      </trkpt>
      <trkpt lat="42.92111" lon="0.72399">
        <ele>829</ele>
        <time>2019-08-08T09:17:57.000Z</time>
      </trkpt>
      <trkpt lat="42.9211" lon="0.724">
        <ele>829</ele>
        <time>2019-08-08T09:17:58.000Z</time>
      </trkpt>
      <trkpt lat="42.92109" lon="0.72402">
        <ele>829</ele>
        <time>2019-08-08T09:17:59.000Z</time>
      </trkpt>
      <trkpt lat="42.92107" lon="0.72403">
        <ele>829</ele>
        <time>2019-08-08T09:18:00.000Z</time>
      </trkpt>
      <trkpt lat="42.92102" lon="0.72408">
        <ele>830</ele>
        <time>2019-08-08T09:18:01.000Z</time>
      </trkpt>
      <trkpt lat="42.921" lon="0.72409">
        <ele>830</ele>
        <time>2019-08-08T09:18:02.000Z</time>
      </trkpt>
      <trkpt lat="42.92099" lon="0.7241">
        <ele>831</ele>
        <time>2019-08-08T09:18:03.000Z</time>
      </trkpt>
      <trkpt lat="42.92098" lon="0.7241">
        <ele>831</ele>
        <time>2019-08-08T09:18:04.000Z</time>
      </trkpt>
      <trkpt lat="42.92093" lon="0.72414">
        <ele>832</ele>
        <time>2019-08-08T09:18:05.000Z</time>
      </trkpt>
      <trkpt lat="42.92091" lon="0.72415">
        <ele>832</ele>
        <time>2019-08-08T09:18:06.000Z</time>
      </trkpt>
      <trkpt lat="42.92091" lon="0.72415">
        <ele>832</ele>
        <time>2019-08-08T09:18:07.000Z</time>
      </trkpt>
      <trkpt lat="42.92086" lon="0.72418">
        <ele>832</ele>
        <time>2019-08-08T09:18:08.000Z</time>
      </trkpt>
      <trkpt lat="42.92086" lon="0.72418">
        <ele>833</ele>
        <time>2019-08-08T09:18:09.000Z</time>
      </trkpt>
      <trkpt lat="42.92086" lon="0.72418">
        <ele>833</ele>
        <time>2019-08-08T09:18:10.000Z</time>
      </trkpt>
      <trkpt lat="42.92078" lon="0.7242">
        <ele>833</ele>
        <time>2019-08-08T09:18:11.000Z</time>
      </trkpt>
      <trkpt lat="42.92076" lon="0.72421">
        <ele>833</ele>
        <time>2019-08-08T09:18:12.000Z</time>
      </trkpt>
      <trkpt lat="42.92076" lon="0.72421">
        <ele>833</ele>
        <time>2019-08-08T09:18:13.000Z</time>
      </trkpt>
      <trkpt lat="42.92072" lon="0.72425">
        <ele>834</ele>
        <time>2019-08-08T09:18:14.000Z</time>
      </trkpt>
      <trkpt lat="42.9207" lon="0.72427">
        <ele>834</ele>
        <time>2019-08-08T09:18:15.000Z</time>
      </trkpt>
      <trkpt lat="42.92068" lon="0.72429">
        <ele>834</ele>
        <time>2019-08-08T09:18:16.000Z</time>
      </trkpt>
      <trkpt lat="42.92066" lon="0.72431">
        <ele>835</ele>
        <time>2019-08-08T09:18:17.000Z</time>
      </trkpt>
      <trkpt lat="42.92066" lon="0.72431">
        <ele>835</ele>
        <time>2019-08-08T09:18:18.000Z</time>
      </trkpt>
      <trkpt lat="42.92062" lon="0.72434">
        <ele>835</ele>
        <time>2019-08-08T09:18:19.000Z</time>
      </trkpt>
      <trkpt lat="42.9206" lon="0.72436">
        <ele>836</ele>
        <time>2019-08-08T09:18:20.000Z</time>
      </trkpt>
      <trkpt lat="42.9206" lon="0.72436">
        <ele>836</ele>
        <time>2019-08-08T09:18:21.000Z</time>
      </trkpt>
      <trkpt lat="42.92055" lon="0.7244">
        <ele>836</ele>
        <time>2019-08-08T09:18:22.000Z</time>
      </trkpt>
      <trkpt lat="42.92053" lon="0.72443">
        <ele>836</ele>
        <time>2019-08-08T09:18:23.000Z</time>
      </trkpt>
      <trkpt lat="42.92051" lon="0.72445">
        <ele>836</ele>
        <time>2019-08-08T09:18:24.000Z</time>
      </trkpt>
      <trkpt lat="42.92049" lon="0.72447">
        <ele>836</ele>
        <time>2019-08-08T09:18:25.000Z</time>
      </trkpt>
      <trkpt lat="42.92047" lon="0.72448">
        <ele>836</ele>
        <time>2019-08-08T09:18:26.000Z</time>
      </trkpt>
      <trkpt lat="42.92045" lon="0.7245">
        <ele>837</ele>
        <time>2019-08-08T09:18:27.000Z</time>
      </trkpt>
      <trkpt lat="42.92045" lon="0.7245">
        <ele>837</ele>
        <time>2019-08-08T09:18:28.000Z</time>
      </trkpt>
      <trkpt lat="42.92041" lon="0.72455">
        <ele>837</ele>
        <time>2019-08-08T09:18:29.000Z</time>
      </trkpt>
      <trkpt lat="42.92039" lon="0.72457">
        <ele>837</ele>
        <time>2019-08-08T09:18:30.000Z</time>
      </trkpt>
      <trkpt lat="42.92037" lon="0.72459">
        <ele>838</ele>
        <time>2019-08-08T09:18:31.000Z</time>
      </trkpt>
      <trkpt lat="42.92035" lon="0.72462">
        <ele>838</ele>
        <time>2019-08-08T09:18:32.000Z</time>
      </trkpt>
      <trkpt lat="42.92033" lon="0.72464">
        <ele>839</ele>
        <time>2019-08-08T09:18:33.000Z</time>
      </trkpt>
      <trkpt lat="42.92031" lon="0.72466">
        <ele>839</ele>
        <time>2019-08-08T09:18:34.000Z</time>
      </trkpt>
      <trkpt lat="42.92028" lon="0.72468">
        <ele>839</ele>
        <time>2019-08-08T09:18:35.000Z</time>
      </trkpt>
      <trkpt lat="42.92026" lon="0.72469">
        <ele>839</ele>
        <time>2019-08-08T09:18:36.000Z</time>
      </trkpt>
      <trkpt lat="42.92024" lon="0.72471">
        <ele>840</ele>
        <time>2019-08-08T09:18:37.000Z</time>
      </trkpt>
      <trkpt lat="42.92022" lon="0.72473">
        <ele>840</ele>
        <time>2019-08-08T09:18:38.000Z</time>
      </trkpt>
      <trkpt lat="42.9202" lon="0.72475">
        <ele>840</ele>
        <time>2019-08-08T09:18:39.000Z</time>
      </trkpt>
      <trkpt lat="42.92018" lon="0.72477">
        <ele>840</ele>
        <time>2019-08-08T09:18:40.000Z</time>
      </trkpt>
      <trkpt lat="42.92016" lon="0.72478">
        <ele>840</ele>
        <time>2019-08-08T09:18:41.000Z</time>
      </trkpt>
      <trkpt lat="42.92014" lon="0.7248">
        <ele>841</ele>
        <time>2019-08-08T09:18:42.000Z</time>
      </trkpt>
      <trkpt lat="42.92012" lon="0.72482">
        <ele>841</ele>
        <time>2019-08-08T09:18:43.000Z</time>
      </trkpt>
      <trkpt lat="42.9201" lon="0.72484">
        <ele>842</ele>
        <time>2019-08-08T09:18:44.000Z</time>
      </trkpt>
      <trkpt lat="42.92008" lon="0.72486">
        <ele>842</ele>
        <time>2019-08-08T09:18:45.000Z</time>
      </trkpt>
      <trkpt lat="42.92006" lon="0.72488">
        <ele>844</ele>
        <time>2019-08-08T09:18:46.000Z</time>
      </trkpt>
      <trkpt lat="42.92005" lon="0.7249">
        <ele>844</ele>
        <time>2019-08-08T09:18:47.000Z</time>
      </trkpt>
      <trkpt lat="42.92003" lon="0.72492">
        <ele>844</ele>
        <time>2019-08-08T09:18:48.000Z</time>
      </trkpt>
      <trkpt lat="42.92001" lon="0.72495">
        <ele>844</ele>
        <time>2019-08-08T09:18:49.000Z</time>
      </trkpt>
      <trkpt lat="42.91999" lon="0.72497">
        <ele>844</ele>
        <time>2019-08-08T09:18:50.000Z</time>
      </trkpt>
      <trkpt lat="42.91997" lon="0.72498">
        <ele>844</ele>
        <time>2019-08-08T09:18:51.000Z</time>
      </trkpt>
      <trkpt lat="42.91995" lon="0.725">
        <ele>845</ele>
        <time>2019-08-08T09:18:52.000Z</time>
      </trkpt>
      <trkpt lat="42.91992" lon="0.72502">
        <ele>845</ele>
        <time>2019-08-08T09:18:53.000Z</time>
      </trkpt>
      <trkpt lat="42.9199" lon="0.72504">
        <ele>845</ele>
        <time>2019-08-08T09:18:54.000Z</time>
      </trkpt>
      <trkpt lat="42.91988" lon="0.72506">
        <ele>845</ele>
        <time>2019-08-08T09:18:55.000Z</time>
      </trkpt>
      <trkpt lat="42.91986" lon="0.72508">
        <ele>845</ele>
        <time>2019-08-08T09:18:56.000Z</time>
      </trkpt>
      <trkpt lat="42.91984" lon="0.7251">
        <ele>845</ele>
        <time>2019-08-08T09:18:57.000Z</time>
      </trkpt>
      <trkpt lat="42.91982" lon="0.72512">
        <ele>845</ele>
        <time>2019-08-08T09:18:58.000Z</time>
      </trkpt>
      <trkpt lat="42.9198" lon="0.72515">
        <ele>845</ele>
        <time>2019-08-08T09:18:59.000Z</time>
      </trkpt>
      <trkpt lat="42.91978" lon="0.72517">
        <ele>845</ele>
        <time>2019-08-08T09:19:00.000Z</time>
      </trkpt>
      <trkpt lat="42.91977" lon="0.72519">
        <ele>846</ele>
        <time>2019-08-08T09:19:01.000Z</time>
      </trkpt>
      <trkpt lat="42.91975" lon="0.72522">
        <ele>846</ele>
        <time>2019-08-08T09:19:02.000Z</time>
      </trkpt>
      <trkpt lat="42.91973" lon="0.72525">
        <ele>847</ele>
        <time>2019-08-08T09:19:03.000Z</time>
      </trkpt>
      <trkpt lat="42.91972" lon="0.72527">
        <ele>847</ele>
        <time>2019-08-08T09:19:04.000Z</time>
      </trkpt>
      <trkpt lat="42.9197" lon="0.72529">
        <ele>848</ele>
        <time>2019-08-08T09:19:05.000Z</time>
      </trkpt>
      <trkpt lat="42.91968" lon="0.72531">
        <ele>848</ele>
        <time>2019-08-08T09:19:06.000Z</time>
      </trkpt>
      <trkpt lat="42.91966" lon="0.72533">
        <ele>848</ele>
        <time>2019-08-08T09:19:07.000Z</time>
      </trkpt>
      <trkpt lat="42.91964" lon="0.72536">
        <ele>848</ele>
        <time>2019-08-08T09:19:08.000Z</time>
      </trkpt>
      <trkpt lat="42.91963" lon="0.72538">
        <ele>848</ele>
        <time>2019-08-08T09:19:09.000Z</time>
      </trkpt>
      <trkpt lat="42.91961" lon="0.72541">
        <ele>848</ele>
        <time>2019-08-08T09:19:10.000Z</time>
      </trkpt>
      <trkpt lat="42.91959" lon="0.72543">
        <ele>848</ele>
        <time>2019-08-08T09:19:11.000Z</time>
      </trkpt>
      <trkpt lat="42.91958" lon="0.72546">
        <ele>849</ele>
        <time>2019-08-08T09:19:12.000Z</time>
      </trkpt>
      <trkpt lat="42.91956" lon="0.72549">
        <ele>850</ele>
        <time>2019-08-08T09:19:13.000Z</time>
      </trkpt>
      <trkpt lat="42.91955" lon="0.72551">
        <ele>850</ele>
        <time>2019-08-08T09:19:14.000Z</time>
      </trkpt>
      <trkpt lat="42.91953" lon="0.72554">
        <ele>850</ele>
        <time>2019-08-08T09:19:15.000Z</time>
      </trkpt>
      <trkpt lat="42.91952" lon="0.72557">
        <ele>850</ele>
        <time>2019-08-08T09:19:16.000Z</time>
      </trkpt>
      <trkpt lat="42.9195" lon="0.7256">
        <ele>850</ele>
        <time>2019-08-08T09:19:17.000Z</time>
      </trkpt>
      <trkpt lat="42.91949" lon="0.72563">
        <ele>851</ele>
        <time>2019-08-08T09:19:18.000Z</time>
      </trkpt>
      <trkpt lat="42.91948" lon="0.72565">
        <ele>851</ele>
        <time>2019-08-08T09:19:19.000Z</time>
      </trkpt>
      <trkpt lat="42.91946" lon="0.72568">
        <ele>852</ele>
        <time>2019-08-08T09:19:20.000Z</time>
      </trkpt>
      <trkpt lat="42.91944" lon="0.7257">
        <ele>852</ele>
        <time>2019-08-08T09:19:21.000Z</time>
      </trkpt>
      <trkpt lat="42.91942" lon="0.72572">
        <ele>852</ele>
        <time>2019-08-08T09:19:22.000Z</time>
      </trkpt>
      <trkpt lat="42.9194" lon="0.72574">
        <ele>853</ele>
        <time>2019-08-08T09:19:23.000Z</time>
      </trkpt>
      <trkpt lat="42.91938" lon="0.72577">
        <ele>853</ele>
        <time>2019-08-08T09:19:24.000Z</time>
      </trkpt>
      <trkpt lat="42.91936" lon="0.72579">
        <ele>853</ele>
        <time>2019-08-08T09:19:25.000Z</time>
      </trkpt>
      <trkpt lat="42.91934" lon="0.72582">
        <ele>853</ele>
        <time>2019-08-08T09:19:26.000Z</time>
      </trkpt>
      <trkpt lat="42.91933" lon="0.72585">
        <ele>853</ele>
        <time>2019-08-08T09:19:27.000Z</time>
      </trkpt>
      <trkpt lat="42.91931" lon="0.72588">
        <ele>853</ele>
        <time>2019-08-08T09:19:28.000Z</time>
      </trkpt>
      <trkpt lat="42.9193" lon="0.72591">
        <ele>853</ele>
        <time>2019-08-08T09:19:29.000Z</time>
      </trkpt>
      <trkpt lat="42.91928" lon="0.72594">
        <ele>853</ele>
        <time>2019-08-08T09:19:30.000Z</time>
      </trkpt>
      <trkpt lat="42.91927" lon="0.72596">
        <ele>854</ele>
        <time>2019-08-08T09:19:31.000Z</time>
      </trkpt>
      <trkpt lat="42.91925" lon="0.726">
        <ele>854</ele>
        <time>2019-08-08T09:19:32.000Z</time>
      </trkpt>
      <trkpt lat="42.91924" lon="0.72603">
        <ele>854</ele>
        <time>2019-08-08T09:19:33.000Z</time>
      </trkpt>
      <trkpt lat="42.91922" lon="0.72607">
        <ele>854</ele>
        <time>2019-08-08T09:19:34.000Z</time>
      </trkpt>
      <trkpt lat="42.91921" lon="0.72609">
        <ele>854</ele>
        <time>2019-08-08T09:19:35.000Z</time>
      </trkpt>
      <trkpt lat="42.9192" lon="0.72612">
        <ele>854</ele>
        <time>2019-08-08T09:19:36.000Z</time>
      </trkpt>
      <trkpt lat="42.9192" lon="0.72616">
        <ele>855</ele>
        <time>2019-08-08T09:19:37.000Z</time>
      </trkpt>
      <trkpt lat="42.91919" lon="0.72619">
        <ele>855</ele>
        <time>2019-08-08T09:19:38.000Z</time>
      </trkpt>
      <trkpt lat="42.91918" lon="0.72623">
        <ele>855</ele>
        <time>2019-08-08T09:19:39.000Z</time>
      </trkpt>
      <trkpt lat="42.91917" lon="0.72626">
        <ele>855</ele>
        <time>2019-08-08T09:19:40.000Z</time>
      </trkpt>
      <trkpt lat="42.91916" lon="0.72629">
        <ele>857</ele>
        <time>2019-08-08T09:19:41.000Z</time>
      </trkpt>
      <trkpt lat="42.91916" lon="0.72633">
        <ele>857</ele>
        <time>2019-08-08T09:19:42.000Z</time>
      </trkpt>
      <trkpt lat="42.91915" lon="0.72636">
        <ele>857</ele>
        <time>2019-08-08T09:19:43.000Z</time>
      </trkpt>
      <trkpt lat="42.91914" lon="0.72639">
        <ele>857</ele>
        <time>2019-08-08T09:19:44.000Z</time>
      </trkpt>
      <trkpt lat="42.91914" lon="0.72643">
        <ele>857</ele>
        <time>2019-08-08T09:19:45.000Z</time>
      </trkpt>
      <trkpt lat="42.91913" lon="0.72646">
        <ele>858</ele>
        <time>2019-08-08T09:19:46.000Z</time>
      </trkpt>
      <trkpt lat="42.91913" lon="0.72649">
        <ele>858</ele>
        <time>2019-08-08T09:19:47.000Z</time>
      </trkpt>
      <trkpt lat="42.91913" lon="0.72653">
        <ele>858</ele>
        <time>2019-08-08T09:19:48.000Z</time>
      </trkpt>
      <trkpt lat="42.91912" lon="0.72657">
        <ele>858</ele>
        <time>2019-08-08T09:19:49.000Z</time>
      </trkpt>
      <trkpt lat="42.91912" lon="0.7266">
        <ele>859</ele>
        <time>2019-08-08T09:19:50.000Z</time>
      </trkpt>
      <trkpt lat="42.91911" lon="0.72664">
        <ele>859</ele>
        <time>2019-08-08T09:19:51.000Z</time>
      </trkpt>
      <trkpt lat="42.91911" lon="0.72667">
        <ele>859</ele>
        <time>2019-08-08T09:19:52.000Z</time>
      </trkpt>
      <trkpt lat="42.9191" lon="0.72671">
        <ele>859</ele>
        <time>2019-08-08T09:19:53.000Z</time>
      </trkpt>
      <trkpt lat="42.9191" lon="0.72674">
        <ele>860</ele>
        <time>2019-08-08T09:19:54.000Z</time>
      </trkpt>
      <trkpt lat="42.9191" lon="0.72678">
        <ele>861</ele>
        <time>2019-08-08T09:19:55.000Z</time>
      </trkpt>
      <trkpt lat="42.9191" lon="0.72681">
        <ele>861</ele>
        <time>2019-08-08T09:19:56.000Z</time>
      </trkpt>
      <trkpt lat="42.91909" lon="0.72685">
        <ele>861</ele>
        <time>2019-08-08T09:19:57.000Z</time>
      </trkpt>
      <trkpt lat="42.91909" lon="0.72689">
        <ele>861</ele>
        <time>2019-08-08T09:19:58.000Z</time>
      </trkpt>
      <trkpt lat="42.91909" lon="0.72692">
        <ele>861</ele>
        <time>2019-08-08T09:19:59.000Z</time>
      </trkpt>
      <trkpt lat="42.91909" lon="0.72696">
        <ele>862</ele>
        <time>2019-08-08T09:20:00.000Z</time>
      </trkpt>
      <trkpt lat="42.91909" lon="0.727">
        <ele>862</ele>
        <time>2019-08-08T09:20:01.000Z</time>
      </trkpt>
      <trkpt lat="42.91909" lon="0.72703">
        <ele>862</ele>
        <time>2019-08-08T09:20:02.000Z</time>
      </trkpt>
      <trkpt lat="42.9191" lon="0.72707">
        <ele>862</ele>
        <time>2019-08-08T09:20:03.000Z</time>
      </trkpt>
      <trkpt lat="42.9191" lon="0.72711">
        <ele>862</ele>
        <time>2019-08-08T09:20:04.000Z</time>
      </trkpt>
      <trkpt lat="42.9191" lon="0.72715">
        <ele>862</ele>
        <time>2019-08-08T09:20:05.000Z</time>
      </trkpt>
      <trkpt lat="42.9191" lon="0.7272">
        <ele>863</ele>
        <time>2019-08-08T09:20:06.000Z</time>
      </trkpt>
      <trkpt lat="42.9191" lon="0.72722">
        <ele>863</ele>
        <time>2019-08-08T09:20:07.000Z</time>
      </trkpt>
      <trkpt lat="42.9191" lon="0.72726">
        <ele>863</ele>
        <time>2019-08-08T09:20:08.000Z</time>
      </trkpt>
      <trkpt lat="42.91911" lon="0.7273">
        <ele>863</ele>
        <time>2019-08-08T09:20:09.000Z</time>
      </trkpt>
      <trkpt lat="42.91911" lon="0.72734">
        <ele>863</ele>
        <time>2019-08-08T09:20:10.000Z</time>
      </trkpt>
      <trkpt lat="42.91911" lon="0.72737">
        <ele>863</ele>
        <time>2019-08-08T09:20:11.000Z</time>
      </trkpt>
      <trkpt lat="42.91911" lon="0.72741">
        <ele>864</ele>
        <time>2019-08-08T09:20:12.000Z</time>
      </trkpt>
      <trkpt lat="42.91911" lon="0.72744">
        <ele>864</ele>
        <time>2019-08-08T09:20:13.000Z</time>
      </trkpt>
      <trkpt lat="42.91911" lon="0.72748">
        <ele>864</ele>
        <time>2019-08-08T09:20:14.000Z</time>
      </trkpt>
      <trkpt lat="42.91911" lon="0.72751">
        <ele>864</ele>
        <time>2019-08-08T09:20:15.000Z</time>
      </trkpt>
      <trkpt lat="42.9191" lon="0.72755">
        <ele>864</ele>
        <time>2019-08-08T09:20:16.000Z</time>
      </trkpt>
      <trkpt lat="42.9191" lon="0.72759">
        <ele>864</ele>
        <time>2019-08-08T09:20:17.000Z</time>
      </trkpt>
      <trkpt lat="42.91909" lon="0.72763">
        <ele>864</ele>
        <time>2019-08-08T09:20:18.000Z</time>
      </trkpt>
      <trkpt lat="42.91909" lon="0.72767">
        <ele>864</ele>
        <time>2019-08-08T09:20:19.000Z</time>
      </trkpt>
      <trkpt lat="42.91908" lon="0.72771">
        <ele>865</ele>
        <time>2019-08-08T09:20:20.000Z</time>
      </trkpt>
      <trkpt lat="42.91906" lon="0.72775">
        <ele>865</ele>
        <time>2019-08-08T09:20:21.000Z</time>
      </trkpt>
      <trkpt lat="42.91905" lon="0.72779">
        <ele>866</ele>
        <time>2019-08-08T09:20:22.000Z</time>
      </trkpt>
      <trkpt lat="42.91904" lon="0.72783">
        <ele>866</ele>
        <time>2019-08-08T09:20:23.000Z</time>
      </trkpt>
      <trkpt lat="42.91903" lon="0.72786">
        <ele>866</ele>
        <time>2019-08-08T09:20:24.000Z</time>
      </trkpt>
      <trkpt lat="42.91902" lon="0.7279">
        <ele>866</ele>
        <time>2019-08-08T09:20:25.000Z</time>
      </trkpt>
      <trkpt lat="42.91901" lon="0.72794">
        <ele>866</ele>
        <time>2019-08-08T09:20:26.000Z</time>
      </trkpt>
      <trkpt lat="42.919" lon="0.72798">
        <ele>866</ele>
        <time>2019-08-08T09:20:27.000Z</time>
      </trkpt>
      <trkpt lat="42.91899" lon="0.72803">
        <ele>866</ele>
        <time>2019-08-08T09:20:28.000Z</time>
      </trkpt>
      <trkpt lat="42.91897" lon="0.72806">
        <ele>866</ele>
        <time>2019-08-08T09:20:29.000Z</time>
      </trkpt>
      <trkpt lat="42.91896" lon="0.7281">
        <ele>867</ele>
        <time>2019-08-08T09:20:30.000Z</time>
      </trkpt>
      <trkpt lat="42.91894" lon="0.72814">
        <ele>867</ele>
        <time>2019-08-08T09:20:31.000Z</time>
      </trkpt>
      <trkpt lat="42.91892" lon="0.72818">
        <ele>867</ele>
        <time>2019-08-08T09:20:32.000Z</time>
      </trkpt>
      <trkpt lat="42.91891" lon="0.72822">
        <ele>868</ele>
        <time>2019-08-08T09:20:33.000Z</time>
      </trkpt>
      <trkpt lat="42.91889" lon="0.72826">
        <ele>868</ele>
        <time>2019-08-08T09:20:34.000Z</time>
      </trkpt>
      <trkpt lat="42.91888" lon="0.72829">
        <ele>869</ele>
        <time>2019-08-08T09:20:35.000Z</time>
      </trkpt>
      <trkpt lat="42.91886" lon="0.72832">
        <ele>869</ele>
        <time>2019-08-08T09:20:36.000Z</time>
      </trkpt>
      <trkpt lat="42.91885" lon="0.72836">
        <ele>869</ele>
        <time>2019-08-08T09:20:37.000Z</time>
      </trkpt>
      <trkpt lat="42.91884" lon="0.72839">
        <ele>869</ele>
        <time>2019-08-08T09:20:38.000Z</time>
      </trkpt>
      <trkpt lat="42.91882" lon="0.72844">
        <ele>870</ele>
        <time>2019-08-08T09:20:39.000Z</time>
      </trkpt>
      <trkpt lat="42.91882" lon="0.72846">
        <ele>870</ele>
        <time>2019-08-08T09:20:40.000Z</time>
      </trkpt>
      <trkpt lat="42.91881" lon="0.72849">
        <ele>870</ele>
        <time>2019-08-08T09:20:41.000Z</time>
      </trkpt>
      <trkpt lat="42.9188" lon="0.72852">
        <ele>870</ele>
        <time>2019-08-08T09:20:42.000Z</time>
      </trkpt>
      <trkpt lat="42.91879" lon="0.72855">
        <ele>871</ele>
        <time>2019-08-08T09:20:43.000Z</time>
      </trkpt>
      <trkpt lat="42.91878" lon="0.72859">
        <ele>871</ele>
        <time>2019-08-08T09:20:44.000Z</time>
      </trkpt>
      <trkpt lat="42.91877" lon="0.72862">
        <ele>871</ele>
        <time>2019-08-08T09:20:45.000Z</time>
      </trkpt>
      <trkpt lat="42.91876" lon="0.72865">
        <ele>871</ele>
        <time>2019-08-08T09:20:46.000Z</time>
      </trkpt>
      <trkpt lat="42.91875" lon="0.72868">
        <ele>872</ele>
        <time>2019-08-08T09:20:47.000Z</time>
      </trkpt>
      <trkpt lat="42.91874" lon="0.72872">
        <ele>872</ele>
        <time>2019-08-08T09:20:48.000Z</time>
      </trkpt>
      <trkpt lat="42.91873" lon="0.72875">
        <ele>872</ele>
        <time>2019-08-08T09:20:49.000Z</time>
      </trkpt>
      <trkpt lat="42.91872" lon="0.72878">
        <ele>872</ele>
        <time>2019-08-08T09:20:50.000Z</time>
      </trkpt>
      <trkpt lat="42.91871" lon="0.72881">
        <ele>873</ele>
        <time>2019-08-08T09:20:51.000Z</time>
      </trkpt>
      <trkpt lat="42.9187" lon="0.72884">
        <ele>873</ele>
        <time>2019-08-08T09:20:52.000Z</time>
      </trkpt>
      <trkpt lat="42.91869" lon="0.72888">
        <ele>874</ele>
        <time>2019-08-08T09:20:53.000Z</time>
      </trkpt>
      <trkpt lat="42.91869" lon="0.72891">
        <ele>874</ele>
        <time>2019-08-08T09:20:54.000Z</time>
      </trkpt>
      <trkpt lat="42.91868" lon="0.72894">
        <ele>874</ele>
        <time>2019-08-08T09:20:55.000Z</time>
      </trkpt>
      <trkpt lat="42.91867" lon="0.72897">
        <ele>874</ele>
        <time>2019-08-08T09:20:56.000Z</time>
      </trkpt>
      <trkpt lat="42.91866" lon="0.729">
        <ele>875</ele>
        <time>2019-08-08T09:20:57.000Z</time>
      </trkpt>
      <trkpt lat="42.91865" lon="0.72903">
        <ele>875</ele>
        <time>2019-08-08T09:20:58.000Z</time>
      </trkpt>
      <trkpt lat="42.91864" lon="0.72906">
        <ele>875</ele>
        <time>2019-08-08T09:20:59.000Z</time>
      </trkpt>
      <trkpt lat="42.91863" lon="0.72909">
        <ele>875</ele>
        <time>2019-08-08T09:21:00.000Z</time>
      </trkpt>
      <trkpt lat="42.91862" lon="0.72912">
        <ele>875</ele>
        <time>2019-08-08T09:21:01.000Z</time>
      </trkpt>
      <trkpt lat="42.91861" lon="0.72916">
        <ele>875</ele>
        <time>2019-08-08T09:21:02.000Z</time>
      </trkpt>
      <trkpt lat="42.91859" lon="0.72918">
        <ele>876</ele>
        <time>2019-08-08T09:21:03.000Z</time>
      </trkpt>
      <trkpt lat="42.91858" lon="0.72921">
        <ele>876</ele>
        <time>2019-08-08T09:21:04.000Z</time>
      </trkpt>
      <trkpt lat="42.91857" lon="0.72924">
        <ele>876</ele>
        <time>2019-08-08T09:21:05.000Z</time>
      </trkpt>
      <trkpt lat="42.91856" lon="0.72927">
        <ele>876</ele>
        <time>2019-08-08T09:21:06.000Z</time>
      </trkpt>
      <trkpt lat="42.91855" lon="0.7293">
        <ele>877</ele>
        <time>2019-08-08T09:21:07.000Z</time>
      </trkpt>
      <trkpt lat="42.91854" lon="0.72933">
        <ele>877</ele>
        <time>2019-08-08T09:21:08.000Z</time>
      </trkpt>
      <trkpt lat="42.91852" lon="0.72936">
        <ele>878</ele>
        <time>2019-08-08T09:21:09.000Z</time>
      </trkpt>
      <trkpt lat="42.91851" lon="0.72939">
        <ele>878</ele>
        <time>2019-08-08T09:21:10.000Z</time>
      </trkpt>
      <trkpt lat="42.9185" lon="0.72942">
        <ele>878</ele>
        <time>2019-08-08T09:21:11.000Z</time>
      </trkpt>
      <trkpt lat="42.91849" lon="0.72945">
        <ele>878</ele>
        <time>2019-08-08T09:21:12.000Z</time>
      </trkpt>
      <trkpt lat="42.91848" lon="0.72948">
        <ele>878</ele>
        <time>2019-08-08T09:21:13.000Z</time>
      </trkpt>
      <trkpt lat="42.91848" lon="0.72951">
        <ele>878</ele>
        <time>2019-08-08T09:21:14.000Z</time>
      </trkpt>
      <trkpt lat="42.91847" lon="0.72955">
        <ele>880</ele>
        <time>2019-08-08T09:21:15.000Z</time>
      </trkpt>
      <trkpt lat="42.91846" lon="0.72958">
        <ele>880</ele>
        <time>2019-08-08T09:21:16.000Z</time>
      </trkpt>
      <trkpt lat="42.91845" lon="0.72961">
        <ele>880</ele>
        <time>2019-08-08T09:21:17.000Z</time>
      </trkpt>
      <trkpt lat="42.91844" lon="0.72964">
        <ele>880</ele>
        <time>2019-08-08T09:21:18.000Z</time>
      </trkpt>
      <trkpt lat="42.91844" lon="0.72967">
        <ele>881</ele>
        <time>2019-08-08T09:21:19.000Z</time>
      </trkpt>
      <trkpt lat="42.91843" lon="0.7297">
        <ele>881</ele>
        <time>2019-08-08T09:21:20.000Z</time>
      </trkpt>
      <trkpt lat="42.91843" lon="0.72973">
        <ele>881</ele>
        <time>2019-08-08T09:21:21.000Z</time>
      </trkpt>
      <trkpt lat="42.91843" lon="0.72976">
        <ele>881</ele>
        <time>2019-08-08T09:21:22.000Z</time>
      </trkpt>
      <trkpt lat="42.91843" lon="0.72979">
        <ele>881</ele>
        <time>2019-08-08T09:21:23.000Z</time>
      </trkpt>
      <trkpt lat="42.91842" lon="0.72982">
        <ele>881</ele>
        <time>2019-08-08T09:21:24.000Z</time>
      </trkpt>
      <trkpt lat="42.91842" lon="0.72985">
        <ele>882</ele>
        <time>2019-08-08T09:21:25.000Z</time>
      </trkpt>
      <trkpt lat="42.91841" lon="0.72988">
        <ele>882</ele>
        <time>2019-08-08T09:21:26.000Z</time>
      </trkpt>
      <trkpt lat="42.91841" lon="0.72991">
        <ele>882</ele>
        <time>2019-08-08T09:21:27.000Z</time>
      </trkpt>
      <trkpt lat="42.9184" lon="0.72995">
        <ele>882</ele>
        <time>2019-08-08T09:21:28.000Z</time>
      </trkpt>
      <trkpt lat="42.91839" lon="0.72998">
        <ele>883</ele>
        <time>2019-08-08T09:21:29.000Z</time>
      </trkpt>
      <trkpt lat="42.91839" lon="0.73001">
        <ele>883</ele>
        <time>2019-08-08T09:21:30.000Z</time>
      </trkpt>
      <trkpt lat="42.91838" lon="0.73004">
        <ele>884</ele>
        <time>2019-08-08T09:21:31.000Z</time>
      </trkpt>
      <trkpt lat="42.91837" lon="0.73008">
        <ele>884</ele>
        <time>2019-08-08T09:21:32.000Z</time>
      </trkpt>
      <trkpt lat="42.91837" lon="0.73011">
        <ele>884</ele>
        <time>2019-08-08T09:21:33.000Z</time>
      </trkpt>
      <trkpt lat="42.91837" lon="0.73014">
        <ele>884</ele>
        <time>2019-08-08T09:21:34.000Z</time>
      </trkpt>
      <trkpt lat="42.91836" lon="0.73017">
        <ele>885</ele>
        <time>2019-08-08T09:21:35.000Z</time>
      </trkpt>
      <trkpt lat="42.91836" lon="0.7302">
        <ele>885</ele>
        <time>2019-08-08T09:21:36.000Z</time>
      </trkpt>
      <trkpt lat="42.91835" lon="0.73024">
        <ele>885</ele>
        <time>2019-08-08T09:21:37.000Z</time>
      </trkpt>
      <trkpt lat="42.91835" lon="0.73027">
        <ele>885</ele>
        <time>2019-08-08T09:21:38.000Z</time>
      </trkpt>
      <trkpt lat="42.91834" lon="0.7303">
        <ele>885</ele>
        <time>2019-08-08T09:21:39.000Z</time>
      </trkpt>
      <trkpt lat="42.91833" lon="0.73033">
        <ele>885</ele>
        <time>2019-08-08T09:21:40.000Z</time>
      </trkpt>
      <trkpt lat="42.91832" lon="0.73036">
        <ele>885</ele>
        <time>2019-08-08T09:21:41.000Z</time>
      </trkpt>
      <trkpt lat="42.91832" lon="0.73039">
        <ele>886</ele>
        <time>2019-08-08T09:21:42.000Z</time>
      </trkpt>
      <trkpt lat="42.91831" lon="0.73042">
        <ele>886</ele>
        <time>2019-08-08T09:21:43.000Z</time>
      </trkpt>
      <trkpt lat="42.9183" lon="0.73045">
        <ele>887</ele>
        <time>2019-08-08T09:21:44.000Z</time>
      </trkpt>
      <trkpt lat="42.91829" lon="0.73048">
        <ele>887</ele>
        <time>2019-08-08T09:21:45.000Z</time>
      </trkpt>
      <trkpt lat="42.91828" lon="0.7305">
        <ele>888</ele>
        <time>2019-08-08T09:21:46.000Z</time>
      </trkpt>
      <trkpt lat="42.91827" lon="0.73055">
        <ele>888</ele>
        <time>2019-08-08T09:21:47.000Z</time>
      </trkpt>
      <trkpt lat="42.91826" lon="0.73057">
        <ele>888</ele>
        <time>2019-08-08T09:21:48.000Z</time>
      </trkpt>
      <trkpt lat="42.91826" lon="0.73059">
        <ele>888</ele>
        <time>2019-08-08T09:21:49.000Z</time>
      </trkpt>
      <trkpt lat="42.91825" lon="0.73062">
        <ele>888</ele>
        <time>2019-08-08T09:21:50.000Z</time>
      </trkpt>
      <trkpt lat="42.91825" lon="0.73065">
        <ele>889</ele>
        <time>2019-08-08T09:21:51.000Z</time>
      </trkpt>
      <trkpt lat="42.91824" lon="0.73069">
        <ele>889</ele>
        <time>2019-08-08T09:21:52.000Z</time>
      </trkpt>
      <trkpt lat="42.91823" lon="0.73072">
        <ele>889</ele>
        <time>2019-08-08T09:21:53.000Z</time>
      </trkpt>
      <trkpt lat="42.91823" lon="0.73075">
        <ele>889</ele>
        <time>2019-08-08T09:21:54.000Z</time>
      </trkpt>
      <trkpt lat="42.91822" lon="0.73079">
        <ele>890</ele>
        <time>2019-08-08T09:21:55.000Z</time>
      </trkpt>
      <trkpt lat="42.91821" lon="0.73082">
        <ele>890</ele>
        <time>2019-08-08T09:21:56.000Z</time>
      </trkpt>
      <trkpt lat="42.9182" lon="0.73086">
        <ele>890</ele>
        <time>2019-08-08T09:21:57.000Z</time>
      </trkpt>
      <trkpt lat="42.9182" lon="0.73089">
        <ele>890</ele>
        <time>2019-08-08T09:21:58.000Z</time>
      </trkpt>
      <trkpt lat="42.91819" lon="0.73092">
        <ele>890</ele>
        <time>2019-08-08T09:21:59.000Z</time>
      </trkpt>
      <trkpt lat="42.91819" lon="0.73096">
        <ele>890</ele>
        <time>2019-08-08T09:22:00.000Z</time>
      </trkpt>
      <trkpt lat="42.91818" lon="0.73098">
        <ele>890</ele>
        <time>2019-08-08T09:22:01.000Z</time>
      </trkpt>
      <trkpt lat="42.91818" lon="0.73102">
        <ele>890</ele>
        <time>2019-08-08T09:22:02.000Z</time>
      </trkpt>
      <trkpt lat="42.91817" lon="0.73106">
        <ele>891</ele>
        <time>2019-08-08T09:22:03.000Z</time>
      </trkpt>
      <trkpt lat="42.91816" lon="0.73109">
        <ele>891</ele>
        <time>2019-08-08T09:22:04.000Z</time>
      </trkpt>
      <trkpt lat="42.91815" lon="0.73112">
        <ele>893</ele>
        <time>2019-08-08T09:22:05.000Z</time>
      </trkpt>
      <trkpt lat="42.91814" lon="0.73115">
        <ele>893</ele>
        <time>2019-08-08T09:22:06.000Z</time>
      </trkpt>
      <trkpt lat="42.91814" lon="0.73119">
        <ele>893</ele>
        <time>2019-08-08T09:22:07.000Z</time>
      </trkpt>
      <trkpt lat="42.91813" lon="0.73122">
        <ele>893</ele>
        <time>2019-08-08T09:22:08.000Z</time>
      </trkpt>
      <trkpt lat="42.91813" lon="0.73125">
        <ele>893</ele>
        <time>2019-08-08T09:22:09.000Z</time>
      </trkpt>
      <trkpt lat="42.91812" lon="0.73129">
        <ele>894</ele>
        <time>2019-08-08T09:22:10.000Z</time>
      </trkpt>
      <trkpt lat="42.91811" lon="0.73132">
        <ele>894</ele>
        <time>2019-08-08T09:22:11.000Z</time>
      </trkpt>
      <trkpt lat="42.91811" lon="0.73135">
        <ele>894</ele>
        <time>2019-08-08T09:22:12.000Z</time>
      </trkpt>
      <trkpt lat="42.91811" lon="0.73139">
        <ele>894</ele>
        <time>2019-08-08T09:22:13.000Z</time>
      </trkpt>
      <trkpt lat="42.9181" lon="0.73143">
        <ele>895</ele>
        <time>2019-08-08T09:22:14.000Z</time>
      </trkpt>
      <trkpt lat="42.9181" lon="0.73146">
        <ele>895</ele>
        <time>2019-08-08T09:22:15.000Z</time>
      </trkpt>
      <trkpt lat="42.91809" lon="0.7315">
        <ele>895</ele>
        <time>2019-08-08T09:22:16.000Z</time>
      </trkpt>
      <trkpt lat="42.91808" lon="0.73153">
        <ele>896</ele>
        <time>2019-08-08T09:22:17.000Z</time>
      </trkpt>
      <trkpt lat="42.91808" lon="0.73157">
        <ele>896</ele>
        <time>2019-08-08T09:22:18.000Z</time>
      </trkpt>
      <trkpt lat="42.91807" lon="0.7316">
        <ele>896</ele>
        <time>2019-08-08T09:22:19.000Z</time>
      </trkpt>
      <trkpt lat="42.91806" lon="0.73164">
        <ele>896</ele>
        <time>2019-08-08T09:22:20.000Z</time>
      </trkpt>
      <trkpt lat="42.91806" lon="0.73167">
        <ele>896</ele>
        <time>2019-08-08T09:22:21.000Z</time>
      </trkpt>
      <trkpt lat="42.91805" lon="0.7317">
        <ele>896</ele>
        <time>2019-08-08T09:22:22.000Z</time>
      </trkpt>
      <trkpt lat="42.91804" lon="0.73173">
        <ele>897</ele>
        <time>2019-08-08T09:22:23.000Z</time>
      </trkpt>
      <trkpt lat="42.91804" lon="0.73177">
        <ele>897</ele>
        <time>2019-08-08T09:22:24.000Z</time>
      </trkpt>
      <trkpt lat="42.91803" lon="0.7318">
        <ele>898</ele>
        <time>2019-08-08T09:22:25.000Z</time>
      </trkpt>
      <trkpt lat="42.91803" lon="0.73184">
        <ele>898</ele>
        <time>2019-08-08T09:22:26.000Z</time>
      </trkpt>
      <trkpt lat="42.91802" lon="0.73188">
        <ele>898</ele>
        <time>2019-08-08T09:22:27.000Z</time>
      </trkpt>
      <trkpt lat="42.91801" lon="0.73191">
        <ele>899</ele>
        <time>2019-08-08T09:22:28.000Z</time>
      </trkpt>
      <trkpt lat="42.91801" lon="0.73195">
        <ele>899</ele>
        <time>2019-08-08T09:22:29.000Z</time>
      </trkpt>
      <trkpt lat="42.918" lon="0.73198">
        <ele>899</ele>
        <time>2019-08-08T09:22:30.000Z</time>
      </trkpt>
      <trkpt lat="42.91799" lon="0.73202">
        <ele>899</ele>
        <time>2019-08-08T09:22:31.000Z</time>
      </trkpt>
      <trkpt lat="42.91799" lon="0.73205">
        <ele>899</ele>
        <time>2019-08-08T09:22:32.000Z</time>
      </trkpt>
      <trkpt lat="42.91798" lon="0.73209">
        <ele>899</ele>
        <time>2019-08-08T09:22:33.000Z</time>
      </trkpt>
      <trkpt lat="42.91797" lon="0.73212">
        <ele>900</ele>
        <time>2019-08-08T09:22:34.000Z</time>
      </trkpt>
      <trkpt lat="42.91797" lon="0.73216">
        <ele>900</ele>
        <time>2019-08-08T09:22:35.000Z</time>
      </trkpt>
      <trkpt lat="42.91796" lon="0.7322">
        <ele>901</ele>
        <time>2019-08-08T09:22:36.000Z</time>
      </trkpt>
      <trkpt lat="42.91796" lon="0.73223">
        <ele>901</ele>
        <time>2019-08-08T09:22:37.000Z</time>
      </trkpt>
      <trkpt lat="42.91795" lon="0.73227">
        <ele>901</ele>
        <time>2019-08-08T09:22:38.000Z</time>
      </trkpt>
      <trkpt lat="42.91794" lon="0.7323">
        <ele>901</ele>
        <time>2019-08-08T09:22:39.000Z</time>
      </trkpt>
      <trkpt lat="42.91794" lon="0.73234">
        <ele>902</ele>
        <time>2019-08-08T09:22:40.000Z</time>
      </trkpt>
      <trkpt lat="42.91793" lon="0.73237">
        <ele>902</ele>
        <time>2019-08-08T09:22:41.000Z</time>
      </trkpt>
      <trkpt lat="42.91793" lon="0.7324">
        <ele>902</ele>
        <time>2019-08-08T09:22:42.000Z</time>
      </trkpt>
      <trkpt lat="42.91793" lon="0.73243">
        <ele>902</ele>
        <time>2019-08-08T09:22:43.000Z</time>
      </trkpt>
      <trkpt lat="42.91792" lon="0.73247">
        <ele>902</ele>
        <time>2019-08-08T09:22:44.000Z</time>
      </trkpt>
      <trkpt lat="42.91791" lon="0.7325">
        <ele>902</ele>
        <time>2019-08-08T09:22:45.000Z</time>
      </trkpt>
      <trkpt lat="42.91791" lon="0.73254">
        <ele>903</ele>
        <time>2019-08-08T09:22:46.000Z</time>
      </trkpt>
      <trkpt lat="42.9179" lon="0.73258">
        <ele>903</ele>
        <time>2019-08-08T09:22:47.000Z</time>
      </trkpt>
      <trkpt lat="42.91789" lon="0.73261">
        <ele>903</ele>
        <time>2019-08-08T09:22:48.000Z</time>
      </trkpt>
      <trkpt lat="42.91788" lon="0.73265">
        <ele>903</ele>
        <time>2019-08-08T09:22:49.000Z</time>
      </trkpt>
      <trkpt lat="42.91786" lon="0.73268">
        <ele>904</ele>
        <time>2019-08-08T09:22:50.000Z</time>
      </trkpt>
      <trkpt lat="42.91785" lon="0.73271">
        <ele>904</ele>
        <time>2019-08-08T09:22:51.000Z</time>
      </trkpt>
      <trkpt lat="42.91783" lon="0.73274">
        <ele>904</ele>
        <time>2019-08-08T09:22:52.000Z</time>
      </trkpt>
      <trkpt lat="42.91781" lon="0.73277">
        <ele>904</ele>
        <time>2019-08-08T09:22:53.000Z</time>
      </trkpt>
      <trkpt lat="42.91779" lon="0.7328">
        <ele>905</ele>
        <time>2019-08-08T09:22:54.000Z</time>
      </trkpt>
      <trkpt lat="42.91778" lon="0.73283">
        <ele>905</ele>
        <time>2019-08-08T09:22:55.000Z</time>
      </trkpt>
      <trkpt lat="42.91776" lon="0.73287">
        <ele>905</ele>
        <time>2019-08-08T09:22:56.000Z</time>
      </trkpt>
      <trkpt lat="42.91775" lon="0.73289">
        <ele>905</ele>
        <time>2019-08-08T09:22:57.000Z</time>
      </trkpt>
      <trkpt lat="42.91773" lon="0.73293">
        <ele>905</ele>
        <time>2019-08-08T09:22:58.000Z</time>
      </trkpt>
      <trkpt lat="42.91771" lon="0.73296">
        <ele>905</ele>
        <time>2019-08-08T09:22:59.000Z</time>
      </trkpt>
      <trkpt lat="42.9177" lon="0.73299">
        <ele>907</ele>
        <time>2019-08-08T09:23:00.000Z</time>
      </trkpt>
      <trkpt lat="42.91768" lon="0.73302">
        <ele>907</ele>
        <time>2019-08-08T09:23:01.000Z</time>
      </trkpt>
      <trkpt lat="42.91766" lon="0.73305">
        <ele>907</ele>
        <time>2019-08-08T09:23:02.000Z</time>
      </trkpt>
      <trkpt lat="42.91765" lon="0.73308">
        <ele>907</ele>
        <time>2019-08-08T09:23:03.000Z</time>
      </trkpt>
      <trkpt lat="42.91764" lon="0.73312">
        <ele>907</ele>
        <time>2019-08-08T09:23:04.000Z</time>
      </trkpt>
      <trkpt lat="42.91764" lon="0.73315">
        <ele>908</ele>
        <time>2019-08-08T09:23:05.000Z</time>
      </trkpt>
      <trkpt lat="42.91763" lon="0.73318">
        <ele>908</ele>
        <time>2019-08-08T09:23:06.000Z</time>
      </trkpt>
      <trkpt lat="42.91762" lon="0.73322">
        <ele>908</ele>
        <time>2019-08-08T09:23:07.000Z</time>
      </trkpt>
      <trkpt lat="42.91762" lon="0.73325">
        <ele>908</ele>
        <time>2019-08-08T09:23:08.000Z</time>
      </trkpt>
      <trkpt lat="42.91761" lon="0.73329">
        <ele>909</ele>
        <time>2019-08-08T09:23:09.000Z</time>
      </trkpt>
      <trkpt lat="42.91761" lon="0.73332">
        <ele>909</ele>
        <time>2019-08-08T09:23:10.000Z</time>
      </trkpt>
      <trkpt lat="42.91761" lon="0.73336">
        <ele>910</ele>
        <time>2019-08-08T09:23:11.000Z</time>
      </trkpt>
      <trkpt lat="42.91761" lon="0.73339">
        <ele>910</ele>
        <time>2019-08-08T09:23:12.000Z</time>
      </trkpt>
      <trkpt lat="42.91761" lon="0.73343">
        <ele>911</ele>
        <time>2019-08-08T09:23:13.000Z</time>
      </trkpt>
      <trkpt lat="42.9176" lon="0.73346">
        <ele>911</ele>
        <time>2019-08-08T09:23:14.000Z</time>
      </trkpt>
      <trkpt lat="42.9176" lon="0.7335">
        <ele>911</ele>
        <time>2019-08-08T09:23:15.000Z</time>
      </trkpt>
      <trkpt lat="42.9176" lon="0.73353">
        <ele>911</ele>
        <time>2019-08-08T09:23:16.000Z</time>
      </trkpt>
      <trkpt lat="42.91759" lon="0.73357">
        <ele>911</ele>
        <time>2019-08-08T09:23:17.000Z</time>
      </trkpt>
      <trkpt lat="42.91759" lon="0.7336">
        <ele>911</ele>
        <time>2019-08-08T09:23:18.000Z</time>
      </trkpt>
      <trkpt lat="42.91758" lon="0.73364">
        <ele>911</ele>
        <time>2019-08-08T09:23:19.000Z</time>
      </trkpt>
      <trkpt lat="42.91758" lon="0.73364">
        <ele>911</ele>
        <time>2019-08-08T09:23:20.000Z</time>
      </trkpt>
      <trkpt lat="42.91758" lon="0.73364">
        <ele>912</ele>
        <time>2019-08-08T09:23:21.000Z</time>
      </trkpt>
      <trkpt lat="42.91757" lon="0.73375">
        <ele>912</ele>
        <time>2019-08-08T09:23:22.000Z</time>
      </trkpt>
      <trkpt lat="42.91757" lon="0.73375">
        <ele>913</ele>
        <time>2019-08-08T09:23:23.000Z</time>
      </trkpt>
      <trkpt lat="42.91756" lon="0.73382">
        <ele>913</ele>
        <time>2019-08-08T09:23:24.000Z</time>
      </trkpt>
      <trkpt lat="42.91755" lon="0.73385">
        <ele>913</ele>
        <time>2019-08-08T09:23:25.000Z</time>
      </trkpt>
      <trkpt lat="42.91754" lon="0.73388">
        <ele>913</ele>
        <time>2019-08-08T09:23:26.000Z</time>
      </trkpt>
      <trkpt lat="42.91753" lon="0.73392">
        <ele>914</ele>
        <time>2019-08-08T09:23:27.000Z</time>
      </trkpt>
      <trkpt lat="42.91752" lon="0.73395">
        <ele>914</ele>
        <time>2019-08-08T09:23:28.000Z</time>
      </trkpt>
      <trkpt lat="42.91751" lon="0.73399">
        <ele>914</ele>
        <time>2019-08-08T09:23:29.000Z</time>
      </trkpt>
      <trkpt lat="42.9175" lon="0.73402">
        <ele>914</ele>
        <time>2019-08-08T09:23:30.000Z</time>
      </trkpt>
      <trkpt lat="42.91749" lon="0.73405">
        <ele>915</ele>
        <time>2019-08-08T09:23:31.000Z</time>
      </trkpt>
      <trkpt lat="42.91748" lon="0.73408">
        <ele>915</ele>
        <time>2019-08-08T09:23:32.000Z</time>
      </trkpt>
      <trkpt lat="42.91747" lon="0.73412">
        <ele>916</ele>
        <time>2019-08-08T09:23:33.000Z</time>
      </trkpt>
      <trkpt lat="42.91747" lon="0.73415">
        <ele>916</ele>
        <time>2019-08-08T09:23:34.000Z</time>
      </trkpt>
      <trkpt lat="42.91746" lon="0.73419">
        <ele>916</ele>
        <time>2019-08-08T09:23:35.000Z</time>
      </trkpt>
      <trkpt lat="42.91745" lon="0.73422">
        <ele>916</ele>
        <time>2019-08-08T09:23:36.000Z</time>
      </trkpt>
      <trkpt lat="42.91744" lon="0.73426">
        <ele>916</ele>
        <time>2019-08-08T09:23:37.000Z</time>
      </trkpt>
      <trkpt lat="42.91744" lon="0.7343">
        <ele>916</ele>
        <time>2019-08-08T09:23:38.000Z</time>
      </trkpt>
      <trkpt lat="42.91743" lon="0.73433">
        <ele>916</ele>
        <time>2019-08-08T09:23:39.000Z</time>
      </trkpt>
      <trkpt lat="42.91742" lon="0.73436">
        <ele>916</ele>
        <time>2019-08-08T09:23:40.000Z</time>
      </trkpt>
      <trkpt lat="42.91741" lon="0.7344">
        <ele>917</ele>
        <time>2019-08-08T09:23:41.000Z</time>
      </trkpt>
      <trkpt lat="42.9174" lon="0.73443">
        <ele>917</ele>
        <time>2019-08-08T09:23:42.000Z</time>
      </trkpt>
      <trkpt lat="42.91739" lon="0.73446">
        <ele>918</ele>
        <time>2019-08-08T09:23:43.000Z</time>
      </trkpt>
      <trkpt lat="42.91738" lon="0.7345">
        <ele>918</ele>
        <time>2019-08-08T09:23:44.000Z</time>
      </trkpt>
      <trkpt lat="42.91737" lon="0.73454">
        <ele>919</ele>
        <time>2019-08-08T09:23:45.000Z</time>
      </trkpt>
      <trkpt lat="42.91736" lon="0.73457">
        <ele>919</ele>
        <time>2019-08-08T09:23:46.000Z</time>
      </trkpt>
      <trkpt lat="42.91735" lon="0.73461">
        <ele>919</ele>
        <time>2019-08-08T09:23:47.000Z</time>
      </trkpt>
      <trkpt lat="42.91734" lon="0.73464">
        <ele>919</ele>
        <time>2019-08-08T09:23:48.000Z</time>
      </trkpt>
      <trkpt lat="42.91733" lon="0.73467">
        <ele>920</ele>
        <time>2019-08-08T09:23:49.000Z</time>
      </trkpt>
      <trkpt lat="42.91732" lon="0.73471">
        <ele>920</ele>
        <time>2019-08-08T09:23:50.000Z</time>
      </trkpt>
      <trkpt lat="42.91731" lon="0.73474">
        <ele>920</ele>
        <time>2019-08-08T09:23:51.000Z</time>
      </trkpt>
      <trkpt lat="42.9173" lon="0.73477">
        <ele>920</ele>
        <time>2019-08-08T09:23:52.000Z</time>
      </trkpt>
      <trkpt lat="42.91729" lon="0.73481">
        <ele>920</ele>
        <time>2019-08-08T09:23:53.000Z</time>
      </trkpt>
      <trkpt lat="42.91729" lon="0.73484">
        <ele>920</ele>
        <time>2019-08-08T09:23:54.000Z</time>
      </trkpt>
      <trkpt lat="42.91728" lon="0.73487">
        <ele>920</ele>
        <time>2019-08-08T09:23:55.000Z</time>
      </trkpt>
      <trkpt lat="42.91727" lon="0.73491">
        <ele>920</ele>
        <time>2019-08-08T09:23:56.000Z</time>
      </trkpt>
      <trkpt lat="42.91727" lon="0.73494">
        <ele>920</ele>
        <time>2019-08-08T09:23:57.000Z</time>
      </trkpt>
      <trkpt lat="42.91726" lon="0.73498">
        <ele>920</ele>
        <time>2019-08-08T09:23:58.000Z</time>
      </trkpt>
      <trkpt lat="42.91726" lon="0.73501">
        <ele>921</ele>
        <time>2019-08-08T09:23:59.000Z</time>
      </trkpt>
      <trkpt lat="42.91725" lon="0.73506">
        <ele>921</ele>
        <time>2019-08-08T09:24:00.000Z</time>
      </trkpt>
      <trkpt lat="42.91724" lon="0.73508">
        <ele>921</ele>
        <time>2019-08-08T09:24:01.000Z</time>
      </trkpt>
      <trkpt lat="42.91723" lon="0.73511">
        <ele>922</ele>
        <time>2019-08-08T09:24:02.000Z</time>
      </trkpt>
      <trkpt lat="42.91723" lon="0.73514">
        <ele>922</ele>
        <time>2019-08-08T09:24:03.000Z</time>
      </trkpt>
      <trkpt lat="42.91722" lon="0.73518">
        <ele>923</ele>
        <time>2019-08-08T09:24:04.000Z</time>
      </trkpt>
      <trkpt lat="42.91721" lon="0.73521">
        <ele>923</ele>
        <time>2019-08-08T09:24:05.000Z</time>
      </trkpt>
      <trkpt lat="42.9172" lon="0.73525">
        <ele>923</ele>
        <time>2019-08-08T09:24:06.000Z</time>
      </trkpt>
      <trkpt lat="42.9172" lon="0.73528">
        <ele>923</ele>
        <time>2019-08-08T09:24:07.000Z</time>
      </trkpt>
      <trkpt lat="42.91719" lon="0.73532">
        <ele>924</ele>
        <time>2019-08-08T09:24:08.000Z</time>
      </trkpt>
      <trkpt lat="42.91719" lon="0.73535">
        <ele>924</ele>
        <time>2019-08-08T09:24:09.000Z</time>
      </trkpt>
      <trkpt lat="42.91719" lon="0.73539">
        <ele>925</ele>
        <time>2019-08-08T09:24:10.000Z</time>
      </trkpt>
      <trkpt lat="42.91718" lon="0.73542">
        <ele>925</ele>
        <time>2019-08-08T09:24:11.000Z</time>
      </trkpt>
      <trkpt lat="42.91717" lon="0.73546">
        <ele>925</ele>
        <time>2019-08-08T09:24:12.000Z</time>
      </trkpt>
      <trkpt lat="42.91716" lon="0.73549">
        <ele>925</ele>
        <time>2019-08-08T09:24:13.000Z</time>
      </trkpt>
      <trkpt lat="42.91716" lon="0.73552">
        <ele>925</ele>
        <time>2019-08-08T09:24:14.000Z</time>
      </trkpt>
      <trkpt lat="42.91715" lon="0.73556">
        <ele>925</ele>
        <time>2019-08-08T09:24:15.000Z</time>
      </trkpt>
      <trkpt lat="42.91714" lon="0.73559">
        <ele>926</ele>
        <time>2019-08-08T09:24:16.000Z</time>
      </trkpt>
      <trkpt lat="42.91714" lon="0.73563">
        <ele>926</ele>
        <time>2019-08-08T09:24:17.000Z</time>
      </trkpt>
      <trkpt lat="42.91713" lon="0.73566">
        <ele>927</ele>
        <time>2019-08-08T09:24:18.000Z</time>
      </trkpt>
      <trkpt lat="42.91713" lon="0.7357">
        <ele>927</ele>
        <time>2019-08-08T09:24:19.000Z</time>
      </trkpt>
      <trkpt lat="42.91712" lon="0.73573">
        <ele>927</ele>
        <time>2019-08-08T09:24:20.000Z</time>
      </trkpt>
      <trkpt lat="42.91712" lon="0.73576">
        <ele>927</ele>
        <time>2019-08-08T09:24:21.000Z</time>
      </trkpt>
      <trkpt lat="42.91711" lon="0.7358">
        <ele>928</ele>
        <time>2019-08-08T09:24:22.000Z</time>
      </trkpt>
      <trkpt lat="42.91711" lon="0.73583">
        <ele>928</ele>
        <time>2019-08-08T09:24:23.000Z</time>
      </trkpt>
      <trkpt lat="42.9171" lon="0.73587">
        <ele>928</ele>
        <time>2019-08-08T09:24:24.000Z</time>
      </trkpt>
      <trkpt lat="42.91709" lon="0.7359">
        <ele>928</ele>
        <time>2019-08-08T09:24:25.000Z</time>
      </trkpt>
      <trkpt lat="42.91708" lon="0.73594">
        <ele>929</ele>
        <time>2019-08-08T09:24:26.000Z</time>
      </trkpt>
      <trkpt lat="42.91708" lon="0.73598">
        <ele>929</ele>
        <time>2019-08-08T09:24:27.000Z</time>
      </trkpt>
      <trkpt lat="42.91707" lon="0.73601">
        <ele>929</ele>
        <time>2019-08-08T09:24:28.000Z</time>
      </trkpt>
      <trkpt lat="42.91707" lon="0.73605">
        <ele>929</ele>
        <time>2019-08-08T09:24:29.000Z</time>
      </trkpt>
      <trkpt lat="42.91706" lon="0.73609">
        <ele>929</ele>
        <time>2019-08-08T09:24:30.000Z</time>
      </trkpt>
      <trkpt lat="42.91706" lon="0.73612">
        <ele>929</ele>
        <time>2019-08-08T09:24:31.000Z</time>
      </trkpt>
      <trkpt lat="42.91705" lon="0.73615">
        <ele>930</ele>
        <time>2019-08-08T09:24:32.000Z</time>
      </trkpt>
      <trkpt lat="42.91705" lon="0.7362">
        <ele>930</ele>
        <time>2019-08-08T09:24:33.000Z</time>
      </trkpt>
      <trkpt lat="42.91705" lon="0.73622">
        <ele>930</ele>
        <time>2019-08-08T09:24:34.000Z</time>
      </trkpt>
      <trkpt lat="42.91705" lon="0.73626">
        <ele>930</ele>
        <time>2019-08-08T09:24:35.000Z</time>
      </trkpt>
      <trkpt lat="42.91704" lon="0.73629">
        <ele>931</ele>
        <time>2019-08-08T09:24:36.000Z</time>
      </trkpt>
      <trkpt lat="42.91704" lon="0.73632">
        <ele>931</ele>
        <time>2019-08-08T09:24:37.000Z</time>
      </trkpt>
      <trkpt lat="42.91703" lon="0.73636">
        <ele>932</ele>
        <time>2019-08-08T09:24:38.000Z</time>
      </trkpt>
      <trkpt lat="42.91702" lon="0.73639">
        <ele>932</ele>
        <time>2019-08-08T09:24:39.000Z</time>
      </trkpt>
      <trkpt lat="42.91702" lon="0.73642">
        <ele>932</ele>
        <time>2019-08-08T09:24:40.000Z</time>
      </trkpt>
      <trkpt lat="42.91701" lon="0.73645">
        <ele>932</ele>
        <time>2019-08-08T09:24:41.000Z</time>
      </trkpt>
      <trkpt lat="42.917" lon="0.73648">
        <ele>932</ele>
        <time>2019-08-08T09:24:42.000Z</time>
      </trkpt>
      <trkpt lat="42.91699" lon="0.73651">
        <ele>932</ele>
        <time>2019-08-08T09:24:43.000Z</time>
      </trkpt>
      <trkpt lat="42.91697" lon="0.73654">
        <ele>932</ele>
        <time>2019-08-08T09:24:44.000Z</time>
      </trkpt>
      <trkpt lat="42.91696" lon="0.73656">
        <ele>932</ele>
        <time>2019-08-08T09:24:45.000Z</time>
      </trkpt>
      <trkpt lat="42.91696" lon="0.73659">
        <ele>934</ele>
        <time>2019-08-08T09:24:46.000Z</time>
      </trkpt>
      <trkpt lat="42.91695" lon="0.73661">
        <ele>934</ele>
        <time>2019-08-08T09:24:47.000Z</time>
      </trkpt>
      <trkpt lat="42.91694" lon="0.73663">
        <ele>934</ele>
        <time>2019-08-08T09:24:48.000Z</time>
      </trkpt>
      <trkpt lat="42.91692" lon="0.73665">
        <ele>934</ele>
        <time>2019-08-08T09:24:49.000Z</time>
      </trkpt>
      <trkpt lat="42.91691" lon="0.73668">
        <ele>934</ele>
        <time>2019-08-08T09:24:50.000Z</time>
      </trkpt>
      <trkpt lat="42.91691" lon="0.73668">
        <ele>934</ele>
        <time>2019-08-08T09:24:51.000Z</time>
      </trkpt>
      <trkpt lat="42.91688" lon="0.73671">
        <ele>935</ele>
        <time>2019-08-08T09:24:52.000Z</time>
      </trkpt>
      <trkpt lat="42.91688" lon="0.73671">
        <ele>935</ele>
        <time>2019-08-08T09:24:53.000Z</time>
      </trkpt>
      <trkpt lat="42.91688" lon="0.73671">
        <ele>936</ele>
        <time>2019-08-08T09:24:54.000Z</time>
      </trkpt>
      <trkpt lat="42.91688" lon="0.73671">
        <ele>936</ele>
        <time>2019-08-08T09:24:55.000Z</time>
      </trkpt>
      <trkpt lat="42.9168" lon="0.73679">
        <ele>937</ele>
        <time>2019-08-08T09:24:56.000Z</time>
      </trkpt>
      <trkpt lat="42.91679" lon="0.7368">
        <ele>937</ele>
        <time>2019-08-08T09:24:57.000Z</time>
      </trkpt>
      <trkpt lat="42.91678" lon="0.73681">
        <ele>937</ele>
        <time>2019-08-08T09:24:58.000Z</time>
      </trkpt>
      <trkpt lat="42.91678" lon="0.73682">
        <ele>937</ele>
        <time>2019-08-08T09:24:59.000Z</time>
      </trkpt>
      <trkpt lat="42.91677" lon="0.73683">
        <ele>937</ele>
        <time>2019-08-08T09:25:00.000Z</time>
      </trkpt>
      <trkpt lat="42.91673" lon="0.73689">
        <ele>937</ele>
        <time>2019-08-08T09:25:01.000Z</time>
      </trkpt>
      <trkpt lat="42.91671" lon="0.73691">
        <ele>938</ele>
        <time>2019-08-08T09:25:02.000Z</time>
      </trkpt>
      <trkpt lat="42.9167" lon="0.73693">
        <ele>938</ele>
        <time>2019-08-08T09:25:03.000Z</time>
      </trkpt>
      <trkpt lat="42.91669" lon="0.73696">
        <ele>938</ele>
        <time>2019-08-08T09:25:04.000Z</time>
      </trkpt>
      <trkpt lat="42.91669" lon="0.737">
        <ele>938</ele>
        <time>2019-08-08T09:25:05.000Z</time>
      </trkpt>
      <trkpt lat="42.91668" lon="0.73703">
        <ele>938</ele>
        <time>2019-08-08T09:25:06.000Z</time>
      </trkpt>
      <trkpt lat="42.91667" lon="0.73706">
        <ele>938</ele>
        <time>2019-08-08T09:25:07.000Z</time>
      </trkpt>
      <trkpt lat="42.91667" lon="0.73709">
        <ele>939</ele>
        <time>2019-08-08T09:25:08.000Z</time>
      </trkpt>
      <trkpt lat="42.91667" lon="0.73712">
        <ele>939</ele>
        <time>2019-08-08T09:25:09.000Z</time>
      </trkpt>
      <trkpt lat="42.91668" lon="0.73715">
        <ele>939</ele>
        <time>2019-08-08T09:25:10.000Z</time>
      </trkpt>
      <trkpt lat="42.91668" lon="0.73718">
        <ele>939</ele>
        <time>2019-08-08T09:25:11.000Z</time>
      </trkpt>
      <trkpt lat="42.91668" lon="0.73721">
        <ele>940</ele>
        <time>2019-08-08T09:25:12.000Z</time>
      </trkpt>
      <trkpt lat="42.91669" lon="0.73724">
        <ele>940</ele>
        <time>2019-08-08T09:25:13.000Z</time>
      </trkpt>
      <trkpt lat="42.91669" lon="0.73727">
        <ele>942</ele>
        <time>2019-08-08T09:25:14.000Z</time>
      </trkpt>
      <trkpt lat="42.9167" lon="0.7373">
        <ele>942</ele>
        <time>2019-08-08T09:25:15.000Z</time>
      </trkpt>
      <trkpt lat="42.91671" lon="0.73733">
        <ele>942</ele>
        <time>2019-08-08T09:25:16.000Z</time>
      </trkpt>
      <trkpt lat="42.91672" lon="0.73735">
        <ele>942</ele>
        <time>2019-08-08T09:25:17.000Z</time>
      </trkpt>
      <trkpt lat="42.91674" lon="0.73738">
        <ele>942</ele>
        <time>2019-08-08T09:25:18.000Z</time>
      </trkpt>
      <trkpt lat="42.91675" lon="0.73741">
        <ele>943</ele>
        <time>2019-08-08T09:25:19.000Z</time>
      </trkpt>
      <trkpt lat="42.91676" lon="0.73744">
        <ele>943</ele>
        <time>2019-08-08T09:25:20.000Z</time>
      </trkpt>
      <trkpt lat="42.91677" lon="0.73746">
        <ele>943</ele>
        <time>2019-08-08T09:25:21.000Z</time>
      </trkpt>
      <trkpt lat="42.91678" lon="0.73749">
        <ele>943</ele>
        <time>2019-08-08T09:25:22.000Z</time>
      </trkpt>
      <trkpt lat="42.9168" lon="0.73752">
        <ele>943</ele>
        <time>2019-08-08T09:25:23.000Z</time>
      </trkpt>
      <trkpt lat="42.91681" lon="0.73755">
        <ele>943</ele>
        <time>2019-08-08T09:25:24.000Z</time>
      </trkpt>
      <trkpt lat="42.91683" lon="0.73757">
        <ele>944</ele>
        <time>2019-08-08T09:25:25.000Z</time>
      </trkpt>
      <trkpt lat="42.91684" lon="0.7376">
        <ele>944</ele>
        <time>2019-08-08T09:25:26.000Z</time>
      </trkpt>
      <trkpt lat="42.91686" lon="0.73763">
        <ele>944</ele>
        <time>2019-08-08T09:25:27.000Z</time>
      </trkpt>
      <trkpt lat="42.91687" lon="0.73766">
        <ele>944</ele>
        <time>2019-08-08T09:25:28.000Z</time>
      </trkpt>
      <trkpt lat="42.91689" lon="0.73768">
        <ele>944</ele>
        <time>2019-08-08T09:25:29.000Z</time>
      </trkpt>
      <trkpt lat="42.91689" lon="0.73768">
        <ele>945</ele>
        <time>2019-08-08T09:25:30.000Z</time>
      </trkpt>
      <trkpt lat="42.91689" lon="0.73768">
        <ele>945</ele>
        <time>2019-08-08T09:25:31.000Z</time>
      </trkpt>
      <trkpt lat="42.91693" lon="0.73776">
        <ele>945</ele>
        <time>2019-08-08T09:25:32.000Z</time>
      </trkpt>
      <trkpt lat="42.91694" lon="0.73778">
        <ele>945</ele>
        <time>2019-08-08T09:25:33.000Z</time>
      </trkpt>
      <trkpt lat="42.91696" lon="0.7378">
        <ele>945</ele>
        <time>2019-08-08T09:25:34.000Z</time>
      </trkpt>
      <trkpt lat="42.91697" lon="0.73783">
        <ele>945</ele>
        <time>2019-08-08T09:25:35.000Z</time>
      </trkpt>
      <trkpt lat="42.91698" lon="0.73785">
        <ele>946</ele>
        <time>2019-08-08T09:25:36.000Z</time>
      </trkpt>
      <trkpt lat="42.91699" lon="0.73788">
        <ele>946</ele>
        <time>2019-08-08T09:25:37.000Z</time>
      </trkpt>
      <trkpt lat="42.917" lon="0.7379">
        <ele>946</ele>
        <time>2019-08-08T09:25:38.000Z</time>
      </trkpt>
      <trkpt lat="42.91702" lon="0.73793">
        <ele>946</ele>
        <time>2019-08-08T09:25:39.000Z</time>
      </trkpt>
      <trkpt lat="42.91703" lon="0.73796">
        <ele>946</ele>
        <time>2019-08-08T09:25:40.000Z</time>
      </trkpt>
      <trkpt lat="42.91704" lon="0.73799">
        <ele>946</ele>
        <time>2019-08-08T09:25:41.000Z</time>
      </trkpt>
      <trkpt lat="42.91705" lon="0.73802">
        <ele>948</ele>
        <time>2019-08-08T09:25:42.000Z</time>
      </trkpt>
      <trkpt lat="42.91705" lon="0.73802">
        <ele>948</ele>
        <time>2019-08-08T09:25:43.000Z</time>
      </trkpt>
      <trkpt lat="42.91705" lon="0.73802">
        <ele>948</ele>
        <time>2019-08-08T09:25:44.000Z</time>
      </trkpt>
      <trkpt lat="42.91709" lon="0.73811">
        <ele>948</ele>
        <time>2019-08-08T09:25:45.000Z</time>
      </trkpt>
      <trkpt lat="42.9171" lon="0.73815">
        <ele>949</ele>
        <time>2019-08-08T09:25:46.000Z</time>
      </trkpt>
      <trkpt lat="42.9171" lon="0.73815">
        <ele>949</ele>
        <time>2019-08-08T09:25:47.000Z</time>
      </trkpt>
      <trkpt lat="42.9171" lon="0.73815">
        <ele>949</ele>
        <time>2019-08-08T09:25:48.000Z</time>
      </trkpt>
      <trkpt lat="42.91713" lon="0.73824">
        <ele>949</ele>
        <time>2019-08-08T09:25:49.000Z</time>
      </trkpt>
      <trkpt lat="42.91714" lon="0.73827">
        <ele>949</ele>
        <time>2019-08-08T09:25:50.000Z</time>
      </trkpt>
      <trkpt lat="42.91715" lon="0.7383">
        <ele>949</ele>
        <time>2019-08-08T09:25:51.000Z</time>
      </trkpt>
      <trkpt lat="42.91717" lon="0.73834">
        <ele>949</ele>
        <time>2019-08-08T09:25:52.000Z</time>
      </trkpt>
      <trkpt lat="42.91717" lon="0.73836">
        <ele>949</ele>
        <time>2019-08-08T09:25:53.000Z</time>
      </trkpt>
      <trkpt lat="42.91718" lon="0.73837">
        <ele>950</ele>
        <time>2019-08-08T09:25:54.000Z</time>
      </trkpt>
      <trkpt lat="42.91719" lon="0.73839">
        <ele>950</ele>
        <time>2019-08-08T09:25:55.000Z</time>
      </trkpt>
      <trkpt lat="42.91721" lon="0.73845">
        <ele>950</ele>
        <time>2019-08-08T09:25:56.000Z</time>
      </trkpt>
      <trkpt lat="42.91722" lon="0.73848">
        <ele>950</ele>
        <time>2019-08-08T09:25:57.000Z</time>
      </trkpt>
      <trkpt lat="42.91722" lon="0.73848">
        <ele>950</ele>
        <time>2019-08-08T09:25:58.000Z</time>
      </trkpt>
      <trkpt lat="42.91722" lon="0.73855">
        <ele>951</ele>
        <time>2019-08-08T09:25:59.000Z</time>
      </trkpt>
      <trkpt lat="42.91722" lon="0.73859">
        <ele>951</ele>
        <time>2019-08-08T09:26:00.000Z</time>
      </trkpt>
      <trkpt lat="42.91722" lon="0.73863">
        <ele>951</ele>
        <time>2019-08-08T09:26:01.000Z</time>
      </trkpt>
      <trkpt lat="42.91722" lon="0.73866">
        <ele>951</ele>
        <time>2019-08-08T09:26:02.000Z</time>
      </trkpt>
      <trkpt lat="42.91721" lon="0.73869">
        <ele>951</ele>
        <time>2019-08-08T09:26:03.000Z</time>
      </trkpt>
      <trkpt lat="42.91719" lon="0.73871">
        <ele>952</ele>
        <time>2019-08-08T09:26:04.000Z</time>
      </trkpt>
      <trkpt lat="42.91719" lon="0.73871">
        <ele>952</ele>
        <time>2019-08-08T09:26:05.000Z</time>
      </trkpt>
      <trkpt lat="42.91719" lon="0.73871">
        <ele>953</ele>
        <time>2019-08-08T09:26:06.000Z</time>
      </trkpt>
      <trkpt lat="42.91713" lon="0.73878">
        <ele>953</ele>
        <time>2019-08-08T09:26:07.000Z</time>
      </trkpt>
      <trkpt lat="42.91711" lon="0.7388">
        <ele>953</ele>
        <time>2019-08-08T09:26:08.000Z</time>
      </trkpt>
      <trkpt lat="42.91708" lon="0.73882">
        <ele>953</ele>
        <time>2019-08-08T09:26:09.000Z</time>
      </trkpt>
      <trkpt lat="42.91704" lon="0.73884">
        <ele>954</ele>
        <time>2019-08-08T09:26:10.000Z</time>
      </trkpt>
      <trkpt lat="42.91703" lon="0.73884">
        <ele>954</ele>
        <time>2019-08-08T09:26:11.000Z</time>
      </trkpt>
      <trkpt lat="42.91701" lon="0.73884">
        <ele>955</ele>
        <time>2019-08-08T09:26:12.000Z</time>
      </trkpt>
      <trkpt lat="42.917" lon="0.73884">
        <ele>955</ele>
        <time>2019-08-08T09:26:13.000Z</time>
      </trkpt>
      <trkpt lat="42.91694" lon="0.73884">
        <ele>955</ele>
        <time>2019-08-08T09:26:14.000Z</time>
      </trkpt>
      <trkpt lat="42.91694" lon="0.73884">
        <ele>955</ele>
        <time>2019-08-08T09:26:15.000Z</time>
      </trkpt>
      <trkpt lat="42.91694" lon="0.73884">
        <ele>955</ele>
        <time>2019-08-08T09:26:16.000Z</time>
      </trkpt>
      <trkpt lat="42.91694" lon="0.73884">
        <ele>956</ele>
        <time>2019-08-08T09:26:17.000Z</time>
      </trkpt>
      <trkpt lat="42.91682" lon="0.73882">
        <ele>956</ele>
        <time>2019-08-08T09:26:18.000Z</time>
      </trkpt>
      <trkpt lat="42.91681" lon="0.73881">
        <ele>956</ele>
        <time>2019-08-08T09:26:19.000Z</time>
      </trkpt>
      <trkpt lat="42.91679" lon="0.73881">
        <ele>956</ele>
        <time>2019-08-08T09:26:20.000Z</time>
      </trkpt>
      <trkpt lat="42.91678" lon="0.73881">
        <ele>956</ele>
        <time>2019-08-08T09:26:21.000Z</time>
      </trkpt>
      <trkpt lat="42.91672" lon="0.73879">
        <ele>956</ele>
        <time>2019-08-08T09:26:22.000Z</time>
      </trkpt>
      <trkpt lat="42.91672" lon="0.73879">
        <ele>957</ele>
        <time>2019-08-08T09:26:23.000Z</time>
      </trkpt>
      <trkpt lat="42.91672" lon="0.73879">
        <ele>957</ele>
        <time>2019-08-08T09:26:24.000Z</time>
      </trkpt>
      <trkpt lat="42.91672" lon="0.73879">
        <ele>958</ele>
        <time>2019-08-08T09:26:25.000Z</time>
      </trkpt>
      <trkpt lat="42.91672" lon="0.73879">
        <ele>958</ele>
        <time>2019-08-08T09:26:26.000Z</time>
      </trkpt>
      <trkpt lat="42.91662" lon="0.73878">
        <ele>958</ele>
        <time>2019-08-08T09:26:27.000Z</time>
      </trkpt>
      <trkpt lat="42.91662" lon="0.73878">
        <ele>958</ele>
        <time>2019-08-08T09:26:28.000Z</time>
      </trkpt>
      <trkpt lat="42.91662" lon="0.73878">
        <ele>959</ele>
        <time>2019-08-08T09:26:29.000Z</time>
      </trkpt>
      <trkpt lat="42.91662" lon="0.73878">
        <ele>959</ele>
        <time>2019-08-08T09:26:30.000Z</time>
      </trkpt>
      <trkpt lat="42.91651" lon="0.73874">
        <ele>960</ele>
        <time>2019-08-08T09:26:32.000Z</time>
      </trkpt>
      <trkpt lat="42.91649" lon="0.73874">
        <ele>960</ele>
        <time>2019-08-08T09:26:33.000Z</time>
      </trkpt>
      <trkpt lat="42.91648" lon="0.73873">
        <ele>960</ele>
        <time>2019-08-08T09:26:34.000Z</time>
      </trkpt>
      <trkpt lat="42.91647" lon="0.73873">
        <ele>961</ele>
        <time>2019-08-08T09:26:35.000Z</time>
      </trkpt>
      <trkpt lat="42.91646" lon="0.73872">
        <ele>962</ele>
        <time>2019-08-08T09:26:36.000Z</time>
      </trkpt>
      <trkpt lat="42.91641" lon="0.7387">
        <ele>962</ele>
        <time>2019-08-08T09:26:37.000Z</time>
      </trkpt>
      <trkpt lat="42.91641" lon="0.7387">
        <ele>962</ele>
        <time>2019-08-08T09:26:38.000Z</time>
      </trkpt>
      <trkpt lat="42.91641" lon="0.7387">
        <ele>962</ele>
        <time>2019-08-08T09:26:39.000Z</time>
      </trkpt>
      <trkpt lat="42.91641" lon="0.7387">
        <ele>962</ele>
        <time>2019-08-08T09:26:40.000Z</time>
      </trkpt>
      <trkpt lat="42.91641" lon="0.7387">
        <ele>962</ele>
        <time>2019-08-08T09:26:41.000Z</time>
      </trkpt>
      <trkpt lat="42.91631" lon="0.73869">
        <ele>963</ele>
        <time>2019-08-08T09:26:42.000Z</time>
      </trkpt>
      <trkpt lat="42.9163" lon="0.7387">
        <ele>963</ele>
        <time>2019-08-08T09:26:43.000Z</time>
      </trkpt>
      <trkpt lat="42.91629" lon="0.7387">
        <ele>964</ele>
        <time>2019-08-08T09:26:44.000Z</time>
      </trkpt>
      <trkpt lat="42.91628" lon="0.7387">
        <ele>964</ele>
        <time>2019-08-08T09:26:45.000Z</time>
      </trkpt>
      <trkpt lat="42.91627" lon="0.73871">
        <ele>964</ele>
        <time>2019-08-08T09:26:46.000Z</time>
      </trkpt>
      <trkpt lat="42.91622" lon="0.73873">
        <ele>964</ele>
        <time>2019-08-08T09:26:47.000Z</time>
      </trkpt>
      <trkpt lat="42.9162" lon="0.73875">
        <ele>964</ele>
        <time>2019-08-08T09:26:48.000Z</time>
      </trkpt>
      <trkpt lat="42.91618" lon="0.73876">
        <ele>964</ele>
        <time>2019-08-08T09:26:49.000Z</time>
      </trkpt>
      <trkpt lat="42.91615" lon="0.73878">
        <ele>964</ele>
        <time>2019-08-08T09:26:50.000Z</time>
      </trkpt>
      <trkpt lat="42.91613" lon="0.73879">
        <ele>964</ele>
        <time>2019-08-08T09:26:51.000Z</time>
      </trkpt>
      <trkpt lat="42.91611" lon="0.73882">
        <ele>964</ele>
        <time>2019-08-08T09:26:52.000Z</time>
      </trkpt>
      <trkpt lat="42.91609" lon="0.73884">
        <ele>964</ele>
        <time>2019-08-08T09:26:53.000Z</time>
      </trkpt>
      <trkpt lat="42.91607" lon="0.73887">
        <ele>964</ele>
        <time>2019-08-08T09:26:54.000Z</time>
      </trkpt>
      <trkpt lat="42.91606" lon="0.7389">
        <ele>965</ele>
        <time>2019-08-08T09:26:55.000Z</time>
      </trkpt>
      <trkpt lat="42.91604" lon="0.73893">
        <ele>965</ele>
        <time>2019-08-08T09:26:56.000Z</time>
      </trkpt>
      <trkpt lat="42.91603" lon="0.73896">
        <ele>966</ele>
        <time>2019-08-08T09:26:57.000Z</time>
      </trkpt>
      <trkpt lat="42.91601" lon="0.73898">
        <ele>966</ele>
        <time>2019-08-08T09:26:58.000Z</time>
      </trkpt>
      <trkpt lat="42.916" lon="0.73901">
        <ele>966</ele>
        <time>2019-08-08T09:26:59.000Z</time>
      </trkpt>
      <trkpt lat="42.91599" lon="0.73904">
        <ele>966</ele>
        <time>2019-08-08T09:27:00.000Z</time>
      </trkpt>
      <trkpt lat="42.91597" lon="0.73909">
        <ele>967</ele>
        <time>2019-08-08T09:27:01.000Z</time>
      </trkpt>
      <trkpt lat="42.91597" lon="0.7391">
        <ele>967</ele>
        <time>2019-08-08T09:27:02.000Z</time>
      </trkpt>
      <trkpt lat="42.91596" lon="0.73913">
        <ele>967</ele>
        <time>2019-08-08T09:27:03.000Z</time>
      </trkpt>
      <trkpt lat="42.91595" lon="0.73916">
        <ele>967</ele>
        <time>2019-08-08T09:27:04.000Z</time>
      </trkpt>
      <trkpt lat="42.91594" lon="0.73919">
        <ele>968</ele>
        <time>2019-08-08T09:27:05.000Z</time>
      </trkpt>
      <trkpt lat="42.91593" lon="0.73923">
        <ele>968</ele>
        <time>2019-08-08T09:27:06.000Z</time>
      </trkpt>
      <trkpt lat="42.91592" lon="0.73925">
        <ele>968</ele>
        <time>2019-08-08T09:27:07.000Z</time>
      </trkpt>
      <trkpt lat="42.91591" lon="0.73928">
        <ele>968</ele>
        <time>2019-08-08T09:27:08.000Z</time>
      </trkpt>
      <trkpt lat="42.9159" lon="0.73931">
        <ele>969</ele>
        <time>2019-08-08T09:27:09.000Z</time>
      </trkpt>
      <trkpt lat="42.91588" lon="0.73934">
        <ele>969</ele>
        <time>2019-08-08T09:27:10.000Z</time>
      </trkpt>
      <trkpt lat="42.91587" lon="0.73937">
        <ele>969</ele>
        <time>2019-08-08T09:27:11.000Z</time>
      </trkpt>
      <trkpt lat="42.91586" lon="0.7394">
        <ele>970</ele>
        <time>2019-08-08T09:27:12.000Z</time>
      </trkpt>
      <trkpt lat="42.91585" lon="0.73943">
        <ele>970</ele>
        <time>2019-08-08T09:27:13.000Z</time>
      </trkpt>
      <trkpt lat="42.91584" lon="0.73946">
        <ele>970</ele>
        <time>2019-08-08T09:27:14.000Z</time>
      </trkpt>
      <trkpt lat="42.91583" lon="0.73949">
        <ele>971</ele>
        <time>2019-08-08T09:27:15.000Z</time>
      </trkpt>
      <trkpt lat="42.91582" lon="0.73952">
        <ele>971</ele>
        <time>2019-08-08T09:27:16.000Z</time>
      </trkpt>
      <trkpt lat="42.91582" lon="0.73955">
        <ele>971</ele>
        <time>2019-08-08T09:27:17.000Z</time>
      </trkpt>
      <trkpt lat="42.91581" lon="0.73958">
        <ele>972</ele>
        <time>2019-08-08T09:27:18.000Z</time>
      </trkpt>
      <trkpt lat="42.9158" lon="0.73962">
        <ele>972</ele>
        <time>2019-08-08T09:27:19.000Z</time>
      </trkpt>
      <trkpt lat="42.91579" lon="0.73965">
        <ele>973</ele>
        <time>2019-08-08T09:27:20.000Z</time>
      </trkpt>
      <trkpt lat="42.91578" lon="0.73967">
        <ele>973</ele>
        <time>2019-08-08T09:27:21.000Z</time>
      </trkpt>
      <trkpt lat="42.91577" lon="0.7397">
        <ele>973</ele>
        <time>2019-08-08T09:27:22.000Z</time>
      </trkpt>
      <trkpt lat="42.91576" lon="0.73973">
        <ele>973</ele>
        <time>2019-08-08T09:27:23.000Z</time>
      </trkpt>
      <trkpt lat="42.91575" lon="0.73977">
        <ele>973</ele>
        <time>2019-08-08T09:27:24.000Z</time>
      </trkpt>
      <trkpt lat="42.91575" lon="0.7398">
        <ele>973</ele>
        <time>2019-08-08T09:27:25.000Z</time>
      </trkpt>
      <trkpt lat="42.91574" lon="0.73983">
        <ele>974</ele>
        <time>2019-08-08T09:27:26.000Z</time>
      </trkpt>
      <trkpt lat="42.91573" lon="0.73986">
        <ele>974</ele>
        <time>2019-08-08T09:27:27.000Z</time>
      </trkpt>
      <trkpt lat="42.91572" lon="0.73989">
        <ele>975</ele>
        <time>2019-08-08T09:27:28.000Z</time>
      </trkpt>
      <trkpt lat="42.91572" lon="0.73992">
        <ele>975</ele>
        <time>2019-08-08T09:27:29.000Z</time>
      </trkpt>
      <trkpt lat="42.91571" lon="0.73995">
        <ele>975</ele>
        <time>2019-08-08T09:27:30.000Z</time>
      </trkpt>
      <trkpt lat="42.91571" lon="0.73998">
        <ele>975</ele>
        <time>2019-08-08T09:27:31.000Z</time>
      </trkpt>
      <trkpt lat="42.91572" lon="0.74001">
        <ele>976</ele>
        <time>2019-08-08T09:27:32.000Z</time>
      </trkpt>
      <trkpt lat="42.91572" lon="0.74004">
        <ele>976</ele>
        <time>2019-08-08T09:27:33.000Z</time>
      </trkpt>
      <trkpt lat="42.91573" lon="0.74008">
        <ele>977</ele>
        <time>2019-08-08T09:27:34.000Z</time>
      </trkpt>
      <trkpt lat="42.91573" lon="0.74011">
        <ele>977</ele>
        <time>2019-08-08T09:27:35.000Z</time>
      </trkpt>
      <trkpt lat="42.91574" lon="0.74015">
        <ele>977</ele>
        <time>2019-08-08T09:27:36.000Z</time>
      </trkpt>
      <trkpt lat="42.91575" lon="0.74018">
        <ele>977</ele>
        <time>2019-08-08T09:27:37.000Z</time>
      </trkpt>
      <trkpt lat="42.91576" lon="0.74021">
        <ele>978</ele>
        <time>2019-08-08T09:27:38.000Z</time>
      </trkpt>
      <trkpt lat="42.91577" lon="0.74025">
        <ele>978</ele>
        <time>2019-08-08T09:27:39.000Z</time>
      </trkpt>
      <trkpt lat="42.91577" lon="0.74028">
        <ele>978</ele>
        <time>2019-08-08T09:27:40.000Z</time>
      </trkpt>
      <trkpt lat="42.91578" lon="0.74032">
        <ele>978</ele>
        <time>2019-08-08T09:27:41.000Z</time>
      </trkpt>
      <trkpt lat="42.91579" lon="0.74035">
        <ele>979</ele>
        <time>2019-08-08T09:27:42.000Z</time>
      </trkpt>
      <trkpt lat="42.9158" lon="0.74038">
        <ele>979</ele>
        <time>2019-08-08T09:27:43.000Z</time>
      </trkpt>
      <trkpt lat="42.9158" lon="0.74042">
        <ele>979</ele>
        <time>2019-08-08T09:27:44.000Z</time>
      </trkpt>
      <trkpt lat="42.91581" lon="0.74045">
        <ele>980</ele>
        <time>2019-08-08T09:27:45.000Z</time>
      </trkpt>
      <trkpt lat="42.91581" lon="0.74049">
        <ele>980</ele>
        <time>2019-08-08T09:27:46.000Z</time>
      </trkpt>
      <trkpt lat="42.91582" lon="0.74052">
        <ele>980</ele>
        <time>2019-08-08T09:27:47.000Z</time>
      </trkpt>
      <trkpt lat="42.91583" lon="0.74056">
        <ele>980</ele>
        <time>2019-08-08T09:27:48.000Z</time>
      </trkpt>
      <trkpt lat="42.91584" lon="0.74059">
        <ele>980</ele>
        <time>2019-08-08T09:27:49.000Z</time>
      </trkpt>
      <trkpt lat="42.91584" lon="0.74063">
        <ele>980</ele>
        <time>2019-08-08T09:27:50.000Z</time>
      </trkpt>
      <trkpt lat="42.91585" lon="0.74066">
        <ele>980</ele>
        <time>2019-08-08T09:27:51.000Z</time>
      </trkpt>
      <trkpt lat="42.91585" lon="0.7407">
        <ele>980</ele>
        <time>2019-08-08T09:27:52.000Z</time>
      </trkpt>
      <trkpt lat="42.91586" lon="0.74073">
        <ele>981</ele>
        <time>2019-08-08T09:27:53.000Z</time>
      </trkpt>
      <trkpt lat="42.91586" lon="0.74076">
        <ele>981</ele>
        <time>2019-08-08T09:27:54.000Z</time>
      </trkpt>
      <trkpt lat="42.91587" lon="0.7408">
        <ele>981</ele>
        <time>2019-08-08T09:27:55.000Z</time>
      </trkpt>
      <trkpt lat="42.91588" lon="0.74083">
        <ele>981</ele>
        <time>2019-08-08T09:27:56.000Z</time>
      </trkpt>
      <trkpt lat="42.91588" lon="0.74086">
        <ele>982</ele>
        <time>2019-08-08T09:27:57.000Z</time>
      </trkpt>
      <trkpt lat="42.91589" lon="0.74089">
        <ele>982</ele>
        <time>2019-08-08T09:27:58.000Z</time>
      </trkpt>
      <trkpt lat="42.91589" lon="0.74089">
        <ele>982</ele>
        <time>2019-08-08T09:27:59.000Z</time>
      </trkpt>
      <trkpt lat="42.91591" lon="0.74094">
        <ele>983</ele>
        <time>2019-08-08T09:28:00.000Z</time>
      </trkpt>
      <trkpt lat="42.91592" lon="0.74097">
        <ele>983</ele>
        <time>2019-08-08T09:28:01.000Z</time>
      </trkpt>
      <trkpt lat="42.91592" lon="0.741">
        <ele>983</ele>
        <time>2019-08-08T09:28:02.000Z</time>
      </trkpt>
      <trkpt lat="42.91592" lon="0.741">
        <ele>983</ele>
        <time>2019-08-08T09:28:03.000Z</time>
      </trkpt>
      <trkpt lat="42.91593" lon="0.74107">
        <ele>984</ele>
        <time>2019-08-08T09:28:04.000Z</time>
      </trkpt>
      <trkpt lat="42.91594" lon="0.7411">
        <ele>984</ele>
        <time>2019-08-08T09:28:05.000Z</time>
      </trkpt>
      <trkpt lat="42.91595" lon="0.74113">
        <ele>984</ele>
        <time>2019-08-08T09:28:06.000Z</time>
      </trkpt>
      <trkpt lat="42.91595" lon="0.74116">
        <ele>984</ele>
        <time>2019-08-08T09:28:07.000Z</time>
      </trkpt>
      <trkpt lat="42.91594" lon="0.74119">
        <ele>985</ele>
        <time>2019-08-08T09:28:08.000Z</time>
      </trkpt>
      <trkpt lat="42.91594" lon="0.74122">
        <ele>985</ele>
        <time>2019-08-08T09:28:09.000Z</time>
      </trkpt>
      <trkpt lat="42.91594" lon="0.74125">
        <ele>986</ele>
        <time>2019-08-08T09:28:10.000Z</time>
      </trkpt>
      <trkpt lat="42.91593" lon="0.74129">
        <ele>986</ele>
        <time>2019-08-08T09:28:11.000Z</time>
      </trkpt>
      <trkpt lat="42.91593" lon="0.74132">
        <ele>987</ele>
        <time>2019-08-08T09:28:12.000Z</time>
      </trkpt>
      <trkpt lat="42.91593" lon="0.74132">
        <ele>987</ele>
        <time>2019-08-08T09:28:13.000Z</time>
      </trkpt>
      <trkpt lat="42.91593" lon="0.74132">
        <ele>987</ele>
        <time>2019-08-08T09:28:14.000Z</time>
      </trkpt>
      <trkpt lat="42.91591" lon="0.74142">
        <ele>987</ele>
        <time>2019-08-08T09:28:15.000Z</time>
      </trkpt>
      <trkpt lat="42.91591" lon="0.74146">
        <ele>987</ele>
        <time>2019-08-08T09:28:16.000Z</time>
      </trkpt>
      <trkpt lat="42.9159" lon="0.74149">
        <ele>987</ele>
        <time>2019-08-08T09:28:17.000Z</time>
      </trkpt>
      <trkpt lat="42.91589" lon="0.74152">
        <ele>988</ele>
        <time>2019-08-08T09:28:18.000Z</time>
      </trkpt>
      <trkpt lat="42.91587" lon="0.74154">
        <ele>988</ele>
        <time>2019-08-08T09:28:19.000Z</time>
      </trkpt>
      <trkpt lat="42.91585" lon="0.74157">
        <ele>988</ele>
        <time>2019-08-08T09:28:20.000Z</time>
      </trkpt>
      <trkpt lat="42.91583" lon="0.7416">
        <ele>988</ele>
        <time>2019-08-08T09:28:21.000Z</time>
      </trkpt>
      <trkpt lat="42.9158" lon="0.74162">
        <ele>989</ele>
        <time>2019-08-08T09:28:22.000Z</time>
      </trkpt>
      <trkpt lat="42.91578" lon="0.74163">
        <ele>989</ele>
        <time>2019-08-08T09:28:23.000Z</time>
      </trkpt>
      <trkpt lat="42.91575" lon="0.74164">
        <ele>989</ele>
        <time>2019-08-08T09:28:24.000Z</time>
      </trkpt>
      <trkpt lat="42.91572" lon="0.74165">
        <ele>989</ele>
        <time>2019-08-08T09:28:25.000Z</time>
      </trkpt>
      <trkpt lat="42.9157" lon="0.74166">
        <ele>989</ele>
        <time>2019-08-08T09:28:26.000Z</time>
      </trkpt>
      <trkpt lat="42.91567" lon="0.74166">
        <ele>989</ele>
        <time>2019-08-08T09:28:27.000Z</time>
      </trkpt>
      <trkpt lat="42.91565" lon="0.74166">
        <ele>991</ele>
        <time>2019-08-08T09:28:28.000Z</time>
      </trkpt>
      <trkpt lat="42.91562" lon="0.74166">
        <ele>991</ele>
        <time>2019-08-08T09:28:29.000Z</time>
      </trkpt>
      <trkpt lat="42.91559" lon="0.74167">
        <ele>991</ele>
        <time>2019-08-08T09:28:30.000Z</time>
      </trkpt>
      <trkpt lat="42.91557" lon="0.74168">
        <ele>991</ele>
        <time>2019-08-08T09:28:31.000Z</time>
      </trkpt>
      <trkpt lat="42.91554" lon="0.7417">
        <ele>992</ele>
        <time>2019-08-08T09:28:32.000Z</time>
      </trkpt>
      <trkpt lat="42.91552" lon="0.74172">
        <ele>992</ele>
        <time>2019-08-08T09:28:33.000Z</time>
      </trkpt>
      <trkpt lat="42.9155" lon="0.74174">
        <ele>992</ele>
        <time>2019-08-08T09:28:34.000Z</time>
      </trkpt>
      <trkpt lat="42.91548" lon="0.74177">
        <ele>992</ele>
        <time>2019-08-08T09:28:35.000Z</time>
      </trkpt>
      <trkpt lat="42.91547" lon="0.74179">
        <ele>993</ele>
        <time>2019-08-08T09:28:36.000Z</time>
      </trkpt>
      <trkpt lat="42.91545" lon="0.74182">
        <ele>993</ele>
        <time>2019-08-08T09:28:37.000Z</time>
      </trkpt>
      <trkpt lat="42.91544" lon="0.74185">
        <ele>994</ele>
        <time>2019-08-08T09:28:38.000Z</time>
      </trkpt>
      <trkpt lat="42.91543" lon="0.74189">
        <ele>994</ele>
        <time>2019-08-08T09:28:39.000Z</time>
      </trkpt>
      <trkpt lat="42.91542" lon="0.74192">
        <ele>994</ele>
        <time>2019-08-08T09:28:40.000Z</time>
      </trkpt>
      <trkpt lat="42.9154" lon="0.74195">
        <ele>994</ele>
        <time>2019-08-08T09:28:41.000Z</time>
      </trkpt>
      <trkpt lat="42.91539" lon="0.74198">
        <ele>995</ele>
        <time>2019-08-08T09:28:42.000Z</time>
      </trkpt>
      <trkpt lat="42.91538" lon="0.74201">
        <ele>995</ele>
        <time>2019-08-08T09:28:43.000Z</time>
      </trkpt>
      <trkpt lat="42.91537" lon="0.74204">
        <ele>995</ele>
        <time>2019-08-08T09:28:44.000Z</time>
      </trkpt>
      <trkpt lat="42.91535" lon="0.74208">
        <ele>995</ele>
        <time>2019-08-08T09:28:45.000Z</time>
      </trkpt>
      <trkpt lat="42.91534" lon="0.74211">
        <ele>996</ele>
        <time>2019-08-08T09:28:46.000Z</time>
      </trkpt>
      <trkpt lat="42.91533" lon="0.74214">
        <ele>996</ele>
        <time>2019-08-08T09:28:47.000Z</time>
      </trkpt>
      <trkpt lat="42.91532" lon="0.74217">
        <ele>996</ele>
        <time>2019-08-08T09:28:48.000Z</time>
      </trkpt>
      <trkpt lat="42.91531" lon="0.74221">
        <ele>996</ele>
        <time>2019-08-08T09:28:49.000Z</time>
      </trkpt>
      <trkpt lat="42.9153" lon="0.74224">
        <ele>996</ele>
        <time>2019-08-08T09:28:50.000Z</time>
      </trkpt>
      <trkpt lat="42.91529" lon="0.74227">
        <ele>996</ele>
        <time>2019-08-08T09:28:51.000Z</time>
      </trkpt>
      <trkpt lat="42.91528" lon="0.7423">
        <ele>997</ele>
        <time>2019-08-08T09:28:52.000Z</time>
      </trkpt>
      <trkpt lat="42.91527" lon="0.74233">
        <ele>997</ele>
        <time>2019-08-08T09:28:53.000Z</time>
      </trkpt>
      <trkpt lat="42.91526" lon="0.74235">
        <ele>997</ele>
        <time>2019-08-08T09:28:54.000Z</time>
      </trkpt>
      <trkpt lat="42.91525" lon="0.74238">
        <ele>997</ele>
        <time>2019-08-08T09:28:55.000Z</time>
      </trkpt>
      <trkpt lat="42.91524" lon="0.74241">
        <ele>998</ele>
        <time>2019-08-08T09:28:56.000Z</time>
      </trkpt>
      <trkpt lat="42.91524" lon="0.74244">
        <ele>998</ele>
        <time>2019-08-08T09:28:57.000Z</time>
      </trkpt>
      <trkpt lat="42.91524" lon="0.74249">
        <ele>998</ele>
        <time>2019-08-08T09:28:58.000Z</time>
      </trkpt>
      <trkpt lat="42.91524" lon="0.74251">
        <ele>998</ele>
        <time>2019-08-08T09:28:59.000Z</time>
      </trkpt>
      <trkpt lat="42.91523" lon="0.74255">
        <ele>998</ele>
        <time>2019-08-08T09:29:00.000Z</time>
      </trkpt>
      <trkpt lat="42.91522" lon="0.74258">
        <ele>998</ele>
        <time>2019-08-08T09:29:01.000Z</time>
      </trkpt>
      <trkpt lat="42.91521" lon="0.74261">
        <ele>998</ele>
        <time>2019-08-08T09:29:02.000Z</time>
      </trkpt>
      <trkpt lat="42.9152" lon="0.74265">
        <ele>999</ele>
        <time>2019-08-08T09:29:03.000Z</time>
      </trkpt>
      <trkpt lat="42.91519" lon="0.74269">
        <ele>999</ele>
        <time>2019-08-08T09:29:04.000Z</time>
      </trkpt>
      <trkpt lat="42.91518" lon="0.74272">
        <ele>999</ele>
        <time>2019-08-08T09:29:05.000Z</time>
      </trkpt>
      <trkpt lat="42.91518" lon="0.74275">
        <ele>1000</ele>
        <time>2019-08-08T09:29:06.000Z</time>
      </trkpt>
      <trkpt lat="42.91517" lon="0.74279">
        <ele>1000</ele>
        <time>2019-08-08T09:29:07.000Z</time>
      </trkpt>
      <trkpt lat="42.91517" lon="0.74282">
        <ele>1000</ele>
        <time>2019-08-08T09:29:08.000Z</time>
      </trkpt>
      <trkpt lat="42.91516" lon="0.74286">
        <ele>1000</ele>
        <time>2019-08-08T09:29:09.000Z</time>
      </trkpt>
      <trkpt lat="42.91515" lon="0.7429">
        <ele>1002</ele>
        <time>2019-08-08T09:29:10.000Z</time>
      </trkpt>
      <trkpt lat="42.91515" lon="0.74293">
        <ele>1002</ele>
        <time>2019-08-08T09:29:11.000Z</time>
      </trkpt>
      <trkpt lat="42.91514" lon="0.74296">
        <ele>1003</ele>
        <time>2019-08-08T09:29:12.000Z</time>
      </trkpt>
      <trkpt lat="42.91514" lon="0.743">
        <ele>1003</ele>
        <time>2019-08-08T09:29:13.000Z</time>
      </trkpt>
      <trkpt lat="42.91513" lon="0.74303">
        <ele>1003</ele>
        <time>2019-08-08T09:29:14.000Z</time>
      </trkpt>
      <trkpt lat="42.91513" lon="0.74307">
        <ele>1003</ele>
        <time>2019-08-08T09:29:15.000Z</time>
      </trkpt>
      <trkpt lat="42.91512" lon="0.7431">
        <ele>1003</ele>
        <time>2019-08-08T09:29:16.000Z</time>
      </trkpt>
      <trkpt lat="42.91511" lon="0.74314">
        <ele>1003</ele>
        <time>2019-08-08T09:29:17.000Z</time>
      </trkpt>
      <trkpt lat="42.91511" lon="0.74317">
        <ele>1003</ele>
        <time>2019-08-08T09:29:18.000Z</time>
      </trkpt>
      <trkpt lat="42.9151" lon="0.74321">
        <ele>1003</ele>
        <time>2019-08-08T09:29:19.000Z</time>
      </trkpt>
      <trkpt lat="42.91509" lon="0.74324">
        <ele>1004</ele>
        <time>2019-08-08T09:29:20.000Z</time>
      </trkpt>
      <trkpt lat="42.91509" lon="0.74328">
        <ele>1004</ele>
        <time>2019-08-08T09:29:21.000Z</time>
      </trkpt>
      <trkpt lat="42.91508" lon="0.74331">
        <ele>1005</ele>
        <time>2019-08-08T09:29:22.000Z</time>
      </trkpt>
      <trkpt lat="42.91507" lon="0.74335">
        <ele>1005</ele>
        <time>2019-08-08T09:29:23.000Z</time>
      </trkpt>
      <trkpt lat="42.91507" lon="0.7434">
        <ele>1005</ele>
        <time>2019-08-08T09:29:24.000Z</time>
      </trkpt>
      <trkpt lat="42.91507" lon="0.74342">
        <ele>1005</ele>
        <time>2019-08-08T09:29:25.000Z</time>
      </trkpt>
      <trkpt lat="42.91506" lon="0.74345">
        <ele>1005</ele>
        <time>2019-08-08T09:29:26.000Z</time>
      </trkpt>
      <trkpt lat="42.91506" lon="0.74349">
        <ele>1006</ele>
        <time>2019-08-08T09:29:27.000Z</time>
      </trkpt>
      <trkpt lat="42.91506" lon="0.74352">
        <ele>1006</ele>
        <time>2019-08-08T09:29:28.000Z</time>
      </trkpt>
      <trkpt lat="42.91505" lon="0.74356">
        <ele>1007</ele>
        <time>2019-08-08T09:29:29.000Z</time>
      </trkpt>
      <trkpt lat="42.91505" lon="0.74359">
        <ele>1007</ele>
        <time>2019-08-08T09:29:30.000Z</time>
      </trkpt>
      <trkpt lat="42.91505" lon="0.74363">
        <ele>1007</ele>
        <time>2019-08-08T09:29:31.000Z</time>
      </trkpt>
      <trkpt lat="42.91505" lon="0.74366">
        <ele>1007</ele>
        <time>2019-08-08T09:29:32.000Z</time>
      </trkpt>
      <trkpt lat="42.91504" lon="0.7437">
        <ele>1007</ele>
        <time>2019-08-08T09:29:33.000Z</time>
      </trkpt>
      <trkpt lat="42.91504" lon="0.74373">
        <ele>1007</ele>
        <time>2019-08-08T09:29:34.000Z</time>
      </trkpt>
      <trkpt lat="42.91504" lon="0.74377">
        <ele>1007</ele>
        <time>2019-08-08T09:29:35.000Z</time>
      </trkpt>
      <trkpt lat="42.91504" lon="0.7438">
        <ele>1007</ele>
        <time>2019-08-08T09:29:36.000Z</time>
      </trkpt>
      <trkpt lat="42.91504" lon="0.74384">
        <ele>1008</ele>
        <time>2019-08-08T09:29:37.000Z</time>
      </trkpt>
      <trkpt lat="42.91504" lon="0.74387">
        <ele>1008</ele>
        <time>2019-08-08T09:29:38.000Z</time>
      </trkpt>
      <trkpt lat="42.91504" lon="0.74391">
        <ele>1008</ele>
        <time>2019-08-08T09:29:39.000Z</time>
      </trkpt>
      <trkpt lat="42.91504" lon="0.74394">
        <ele>1008</ele>
        <time>2019-08-08T09:29:40.000Z</time>
      </trkpt>
      <trkpt lat="42.91503" lon="0.74397">
        <ele>1010</ele>
        <time>2019-08-08T09:29:41.000Z</time>
      </trkpt>
      <trkpt lat="42.91502" lon="0.74401">
        <ele>1010</ele>
        <time>2019-08-08T09:29:42.000Z</time>
      </trkpt>
      <trkpt lat="42.91502" lon="0.74404">
        <ele>1010</ele>
        <time>2019-08-08T09:29:43.000Z</time>
      </trkpt>
      <trkpt lat="42.91502" lon="0.74408">
        <ele>1010</ele>
        <time>2019-08-08T09:29:44.000Z</time>
      </trkpt>
      <trkpt lat="42.91502" lon="0.74411">
        <ele>1010</ele>
        <time>2019-08-08T09:29:45.000Z</time>
      </trkpt>
      <trkpt lat="42.91502" lon="0.74414">
        <ele>1010</ele>
        <time>2019-08-08T09:29:46.000Z</time>
      </trkpt>
      <trkpt lat="42.91501" lon="0.74417">
        <ele>1010</ele>
        <time>2019-08-08T09:29:47.000Z</time>
      </trkpt>
      <trkpt lat="42.91501" lon="0.7442">
        <ele>1010</ele>
        <time>2019-08-08T09:29:48.000Z</time>
      </trkpt>
      <trkpt lat="42.91501" lon="0.74423">
        <ele>1011</ele>
        <time>2019-08-08T09:29:49.000Z</time>
      </trkpt>
      <trkpt lat="42.91501" lon="0.74427">
        <ele>1011</ele>
        <time>2019-08-08T09:29:50.000Z</time>
      </trkpt>
      <trkpt lat="42.91501" lon="0.74431">
        <ele>1012</ele>
        <time>2019-08-08T09:29:51.000Z</time>
      </trkpt>
      <trkpt lat="42.91501" lon="0.74434">
        <ele>1012</ele>
        <time>2019-08-08T09:29:52.000Z</time>
      </trkpt>
      <trkpt lat="42.91501" lon="0.74438">
        <ele>1012</ele>
        <time>2019-08-08T09:29:53.000Z</time>
      </trkpt>
      <trkpt lat="42.91501" lon="0.74442">
        <ele>1012</ele>
        <time>2019-08-08T09:29:54.000Z</time>
      </trkpt>
      <trkpt lat="42.915" lon="0.74445">
        <ele>1012</ele>
        <time>2019-08-08T09:29:55.000Z</time>
      </trkpt>
      <trkpt lat="42.91498" lon="0.74448">
        <ele>1012</ele>
        <time>2019-08-08T09:29:56.000Z</time>
      </trkpt>
      <trkpt lat="42.91497" lon="0.74451">
        <ele>1013</ele>
        <time>2019-08-08T09:29:57.000Z</time>
      </trkpt>
      <trkpt lat="42.91496" lon="0.74454">
        <ele>1013</ele>
        <time>2019-08-08T09:29:58.000Z</time>
      </trkpt>
      <trkpt lat="42.91495" lon="0.74457">
        <ele>1015</ele>
        <time>2019-08-08T09:29:59.000Z</time>
      </trkpt>
      <trkpt lat="42.91494" lon="0.7446">
        <ele>1015</ele>
        <time>2019-08-08T09:30:00.000Z</time>
      </trkpt>
      <trkpt lat="42.91493" lon="0.74464">
        <ele>1015</ele>
        <time>2019-08-08T09:30:01.000Z</time>
      </trkpt>
      <trkpt lat="42.91492" lon="0.74467">
        <ele>1015</ele>
        <time>2019-08-08T09:30:02.000Z</time>
      </trkpt>
      <trkpt lat="42.91492" lon="0.7447">
        <ele>1015</ele>
        <time>2019-08-08T09:30:03.000Z</time>
      </trkpt>
      <trkpt lat="42.91491" lon="0.74474">
        <ele>1015</ele>
        <time>2019-08-08T09:30:04.000Z</time>
      </trkpt>
      <trkpt lat="42.91491" lon="0.74477">
        <ele>1016</ele>
        <time>2019-08-08T09:30:05.000Z</time>
      </trkpt>
      <trkpt lat="42.91491" lon="0.74481">
        <ele>1016</ele>
        <time>2019-08-08T09:30:06.000Z</time>
      </trkpt>
      <trkpt lat="42.91491" lon="0.74484">
        <ele>1016</ele>
        <time>2019-08-08T09:30:07.000Z</time>
      </trkpt>
      <trkpt lat="42.91491" lon="0.74487">
        <ele>1017</ele>
        <time>2019-08-08T09:30:08.000Z</time>
      </trkpt>
      <trkpt lat="42.91491" lon="0.74491">
        <ele>1017</ele>
        <time>2019-08-08T09:30:09.000Z</time>
      </trkpt>
      <trkpt lat="42.91491" lon="0.74494">
        <ele>1017</ele>
        <time>2019-08-08T09:30:10.000Z</time>
      </trkpt>
      <trkpt lat="42.91491" lon="0.74497">
        <ele>1017</ele>
        <time>2019-08-08T09:30:11.000Z</time>
      </trkpt>
      <trkpt lat="42.91491" lon="0.74501">
        <ele>1017</ele>
        <time>2019-08-08T09:30:12.000Z</time>
      </trkpt>
      <trkpt lat="42.91491" lon="0.74504">
        <ele>1017</ele>
        <time>2019-08-08T09:30:13.000Z</time>
      </trkpt>
      <trkpt lat="42.91492" lon="0.74508">
        <ele>1017</ele>
        <time>2019-08-08T09:30:14.000Z</time>
      </trkpt>
      <trkpt lat="42.91493" lon="0.74511">
        <ele>1018</ele>
        <time>2019-08-08T09:30:15.000Z</time>
      </trkpt>
      <trkpt lat="42.91494" lon="0.74515">
        <ele>1018</ele>
        <time>2019-08-08T09:30:16.000Z</time>
      </trkpt>
      <trkpt lat="42.91494" lon="0.74518">
        <ele>1019</ele>
        <time>2019-08-08T09:30:17.000Z</time>
      </trkpt>
      <trkpt lat="42.91495" lon="0.74521">
        <ele>1019</ele>
        <time>2019-08-08T09:30:18.000Z</time>
      </trkpt>
      <trkpt lat="42.91495" lon="0.74525">
        <ele>1019</ele>
        <time>2019-08-08T09:30:19.000Z</time>
      </trkpt>
      <trkpt lat="42.91496" lon="0.74527">
        <ele>1019</ele>
        <time>2019-08-08T09:30:20.000Z</time>
      </trkpt>
      <trkpt lat="42.91496" lon="0.74531">
        <ele>1019</ele>
        <time>2019-08-08T09:30:21.000Z</time>
      </trkpt>
      <trkpt lat="42.91496" lon="0.74534">
        <ele>1021</ele>
        <time>2019-08-08T09:30:22.000Z</time>
      </trkpt>
      <trkpt lat="42.91496" lon="0.74538">
        <ele>1021</ele>
        <time>2019-08-08T09:30:23.000Z</time>
      </trkpt>
      <trkpt lat="42.91496" lon="0.74542">
        <ele>1021</ele>
        <time>2019-08-08T09:30:24.000Z</time>
      </trkpt>
      <trkpt lat="42.91496" lon="0.74545">
        <ele>1021</ele>
        <time>2019-08-08T09:30:25.000Z</time>
      </trkpt>
      <trkpt lat="42.91496" lon="0.74548">
        <ele>1021</ele>
        <time>2019-08-08T09:30:26.000Z</time>
      </trkpt>
      <trkpt lat="42.91498" lon="0.74552">
        <ele>1022</ele>
        <time>2019-08-08T09:30:27.000Z</time>
      </trkpt>
      <trkpt lat="42.91498" lon="0.74556">
        <ele>1022</ele>
        <time>2019-08-08T09:30:28.000Z</time>
      </trkpt>
      <trkpt lat="42.915" lon="0.7456">
        <ele>1023</ele>
        <time>2019-08-08T09:30:29.000Z</time>
      </trkpt>
      <trkpt lat="42.91501" lon="0.74563">
        <ele>1023</ele>
        <time>2019-08-08T09:30:30.000Z</time>
      </trkpt>
      <trkpt lat="42.91503" lon="0.74566">
        <ele>1023</ele>
        <time>2019-08-08T09:30:31.000Z</time>
      </trkpt>
      <trkpt lat="42.91506" lon="0.74567">
        <ele>1023</ele>
        <time>2019-08-08T09:30:32.000Z</time>
      </trkpt>
      <trkpt lat="42.91508" lon="0.74565">
        <ele>1023</ele>
        <time>2019-08-08T09:30:33.000Z</time>
      </trkpt>
      <trkpt lat="42.9151" lon="0.74563">
        <ele>1023</ele>
        <time>2019-08-08T09:30:34.000Z</time>
      </trkpt>
      <trkpt lat="42.91511" lon="0.74559">
        <ele>1024</ele>
        <time>2019-08-08T09:30:35.000Z</time>
      </trkpt>
      <trkpt lat="42.91512" lon="0.74556">
        <ele>1024</ele>
        <time>2019-08-08T09:30:36.000Z</time>
      </trkpt>
      <trkpt lat="42.91513" lon="0.74552">
        <ele>1025</ele>
        <time>2019-08-08T09:30:37.000Z</time>
      </trkpt>
      <trkpt lat="42.91513" lon="0.74548">
        <ele>1025</ele>
        <time>2019-08-08T09:30:38.000Z</time>
      </trkpt>
      <trkpt lat="42.91513" lon="0.74544">
        <ele>1025</ele>
        <time>2019-08-08T09:30:39.000Z</time>
      </trkpt>
      <trkpt lat="42.91514" lon="0.7454">
        <ele>1025</ele>
        <time>2019-08-08T09:30:40.000Z</time>
      </trkpt>
      <trkpt lat="42.91514" lon="0.74536">
        <ele>1025</ele>
        <time>2019-08-08T09:30:41.000Z</time>
      </trkpt>
      <trkpt lat="42.91515" lon="0.74531">
        <ele>1025</ele>
        <time>2019-08-08T09:30:42.000Z</time>
      </trkpt>
      <trkpt lat="42.91515" lon="0.74527">
        <ele>1025</ele>
        <time>2019-08-08T09:30:43.000Z</time>
      </trkpt>
      <trkpt lat="42.91515" lon="0.74524">
        <ele>1025</ele>
        <time>2019-08-08T09:30:44.000Z</time>
      </trkpt>
      <trkpt lat="42.91516" lon="0.7452">
        <ele>1025</ele>
        <time>2019-08-08T09:30:45.000Z</time>
      </trkpt>
      <trkpt lat="42.91517" lon="0.74516">
        <ele>1027</ele>
        <time>2019-08-08T09:30:46.000Z</time>
      </trkpt>
      <trkpt lat="42.91517" lon="0.74512">
        <ele>1027</ele>
        <time>2019-08-08T09:30:47.000Z</time>
      </trkpt>
      <trkpt lat="42.91518" lon="0.74509">
        <ele>1027</ele>
        <time>2019-08-08T09:30:48.000Z</time>
      </trkpt>
      <trkpt lat="42.91519" lon="0.74505">
        <ele>1027</ele>
        <time>2019-08-08T09:30:49.000Z</time>
      </trkpt>
      <trkpt lat="42.9152" lon="0.74501">
        <ele>1027</ele>
        <time>2019-08-08T09:30:50.000Z</time>
      </trkpt>
      <trkpt lat="42.91521" lon="0.74498">
        <ele>1027</ele>
        <time>2019-08-08T09:30:51.000Z</time>
      </trkpt>
      <trkpt lat="42.91522" lon="0.74494">
        <ele>1028</ele>
        <time>2019-08-08T09:30:52.000Z</time>
      </trkpt>
      <trkpt lat="42.91523" lon="0.74491">
        <ele>1028</ele>
        <time>2019-08-08T09:30:53.000Z</time>
      </trkpt>
      <trkpt lat="42.91525" lon="0.74487">
        <ele>1028</ele>
        <time>2019-08-08T09:30:54.000Z</time>
      </trkpt>
      <trkpt lat="42.91527" lon="0.74484">
        <ele>1028</ele>
        <time>2019-08-08T09:30:55.000Z</time>
      </trkpt>
      <trkpt lat="42.91528" lon="0.74481">
        <ele>1029</ele>
        <time>2019-08-08T09:30:56.000Z</time>
      </trkpt>
      <trkpt lat="42.9153" lon="0.74478">
        <ele>1029</ele>
        <time>2019-08-08T09:30:57.000Z</time>
      </trkpt>
      <trkpt lat="42.91532" lon="0.74475">
        <ele>1029</ele>
        <time>2019-08-08T09:30:58.000Z</time>
      </trkpt>
      <trkpt lat="42.91534" lon="0.74472">
        <ele>1029</ele>
        <time>2019-08-08T09:30:59.000Z</time>
      </trkpt>
      <trkpt lat="42.91535" lon="0.74469">
        <ele>1030</ele>
        <time>2019-08-08T09:31:00.000Z</time>
      </trkpt>
      <trkpt lat="42.91536" lon="0.74466">
        <ele>1030</ele>
        <time>2019-08-08T09:31:01.000Z</time>
      </trkpt>
      <trkpt lat="42.91538" lon="0.74463">
        <ele>1030</ele>
        <time>2019-08-08T09:31:02.000Z</time>
      </trkpt>
      <trkpt lat="42.91539" lon="0.7446">
        <ele>1031</ele>
        <time>2019-08-08T09:31:03.000Z</time>
      </trkpt>
      <trkpt lat="42.91541" lon="0.74457">
        <ele>1031</ele>
        <time>2019-08-08T09:31:04.000Z</time>
      </trkpt>
      <trkpt lat="42.91542" lon="0.74453">
        <ele>1031</ele>
        <time>2019-08-08T09:31:05.000Z</time>
      </trkpt>
      <trkpt lat="42.91543" lon="0.7445">
        <ele>1032</ele>
        <time>2019-08-08T09:31:06.000Z</time>
      </trkpt>
      <trkpt lat="42.91544" lon="0.74446">
        <ele>1032</ele>
        <time>2019-08-08T09:31:07.000Z</time>
      </trkpt>
      <trkpt lat="42.91545" lon="0.74442">
        <ele>1032</ele>
        <time>2019-08-08T09:31:08.000Z</time>
      </trkpt>
      <trkpt lat="42.91546" lon="0.74438">
        <ele>1032</ele>
        <time>2019-08-08T09:31:09.000Z</time>
      </trkpt>
      <trkpt lat="42.91547" lon="0.74434">
        <ele>1032</ele>
        <time>2019-08-08T09:31:10.000Z</time>
      </trkpt>
      <trkpt lat="42.91548" lon="0.74429">
        <ele>1033</ele>
        <time>2019-08-08T09:31:11.000Z</time>
      </trkpt>
      <trkpt lat="42.91548" lon="0.74425">
        <ele>1033</ele>
        <time>2019-08-08T09:31:12.000Z</time>
      </trkpt>
      <trkpt lat="42.91549" lon="0.74422">
        <ele>1033</ele>
        <time>2019-08-08T09:31:13.000Z</time>
      </trkpt>
      <trkpt lat="42.9155" lon="0.74418">
        <ele>1034</ele>
        <time>2019-08-08T09:31:14.000Z</time>
      </trkpt>
      <trkpt lat="42.91551" lon="0.74414">
        <ele>1034</ele>
        <time>2019-08-08T09:31:15.000Z</time>
      </trkpt>
      <trkpt lat="42.91552" lon="0.7441">
        <ele>1034</ele>
        <time>2019-08-08T09:31:16.000Z</time>
      </trkpt>
      <trkpt lat="42.91553" lon="0.74406">
        <ele>1034</ele>
        <time>2019-08-08T09:31:17.000Z</time>
      </trkpt>
      <trkpt lat="42.91553" lon="0.74402">
        <ele>1034</ele>
        <time>2019-08-08T09:31:18.000Z</time>
      </trkpt>
      <trkpt lat="42.91553" lon="0.74398">
        <ele>1034</ele>
        <time>2019-08-08T09:31:19.000Z</time>
      </trkpt>
      <trkpt lat="42.91553" lon="0.74393">
        <ele>1034</ele>
        <time>2019-08-08T09:31:20.000Z</time>
      </trkpt>
      <trkpt lat="42.91553" lon="0.74389">
        <ele>1036</ele>
        <time>2019-08-08T09:31:21.000Z</time>
      </trkpt>
      <trkpt lat="42.91554" lon="0.74386">
        <ele>1036</ele>
        <time>2019-08-08T09:31:22.000Z</time>
      </trkpt>
      <trkpt lat="42.91556" lon="0.74382">
        <ele>1036</ele>
        <time>2019-08-08T09:31:23.000Z</time>
      </trkpt>
      <trkpt lat="42.91559" lon="0.74381">
        <ele>1036</ele>
        <time>2019-08-08T09:31:24.000Z</time>
      </trkpt>
      <trkpt lat="42.91561" lon="0.7438">
        <ele>1036</ele>
        <time>2019-08-08T09:31:25.000Z</time>
      </trkpt>
      <trkpt lat="42.91564" lon="0.74382">
        <ele>1036</ele>
        <time>2019-08-08T09:31:26.000Z</time>
      </trkpt>
      <trkpt lat="42.91566" lon="0.74384">
        <ele>1037</ele>
        <time>2019-08-08T09:31:27.000Z</time>
      </trkpt>
      <trkpt lat="42.91567" lon="0.74388">
        <ele>1037</ele>
        <time>2019-08-08T09:31:28.000Z</time>
      </trkpt>
      <trkpt lat="42.91568" lon="0.74392">
        <ele>1037</ele>
        <time>2019-08-08T09:31:29.000Z</time>
      </trkpt>
      <trkpt lat="42.91568" lon="0.74395">
        <ele>1037</ele>
        <time>2019-08-08T09:31:30.000Z</time>
      </trkpt>
      <trkpt lat="42.91567" lon="0.74399">
        <ele>1038</ele>
        <time>2019-08-08T09:31:31.000Z</time>
      </trkpt>
      <trkpt lat="42.91566" lon="0.74403">
        <ele>1038</ele>
        <time>2019-08-08T09:31:32.000Z</time>
      </trkpt>
      <trkpt lat="42.91565" lon="0.74408">
        <ele>1038</ele>
        <time>2019-08-08T09:31:33.000Z</time>
      </trkpt>
      <trkpt lat="42.91564" lon="0.74412">
        <ele>1038</ele>
        <time>2019-08-08T09:31:34.000Z</time>
      </trkpt>
      <trkpt lat="42.91563" lon="0.74416">
        <ele>1038</ele>
        <time>2019-08-08T09:31:35.000Z</time>
      </trkpt>
      <trkpt lat="42.91561" lon="0.7442">
        <ele>1038</ele>
        <time>2019-08-08T09:31:36.000Z</time>
      </trkpt>
      <trkpt lat="42.9156" lon="0.74424">
        <ele>1038</ele>
        <time>2019-08-08T09:31:37.000Z</time>
      </trkpt>
      <trkpt lat="42.91559" lon="0.74428">
        <ele>1038</ele>
        <time>2019-08-08T09:31:38.000Z</time>
      </trkpt>
      <trkpt lat="42.91558" lon="0.74432">
        <ele>1038</ele>
        <time>2019-08-08T09:31:39.000Z</time>
      </trkpt>
      <trkpt lat="42.91558" lon="0.74436">
        <ele>1040</ele>
        <time>2019-08-08T09:31:40.000Z</time>
      </trkpt>
      <trkpt lat="42.91557" lon="0.74439">
        <ele>1040</ele>
        <time>2019-08-08T09:31:41.000Z</time>
      </trkpt>
      <trkpt lat="42.91557" lon="0.74443">
        <ele>1041</ele>
        <time>2019-08-08T09:31:42.000Z</time>
      </trkpt>
      <trkpt lat="42.91557" lon="0.74447">
        <ele>1041</ele>
        <time>2019-08-08T09:31:43.000Z</time>
      </trkpt>
      <trkpt lat="42.91557" lon="0.7445">
        <ele>1042</ele>
        <time>2019-08-08T09:31:44.000Z</time>
      </trkpt>
      <trkpt lat="42.91558" lon="0.74454">
        <ele>1042</ele>
        <time>2019-08-08T09:31:45.000Z</time>
      </trkpt>
      <trkpt lat="42.91558" lon="0.74457">
        <ele>1042</ele>
        <time>2019-08-08T09:31:46.000Z</time>
      </trkpt>
      <trkpt lat="42.91558" lon="0.74461">
        <ele>1042</ele>
        <time>2019-08-08T09:31:47.000Z</time>
      </trkpt>
      <trkpt lat="42.91559" lon="0.74464">
        <ele>1043</ele>
        <time>2019-08-08T09:31:48.000Z</time>
      </trkpt>
      <trkpt lat="42.91559" lon="0.74468">
        <ele>1043</ele>
        <time>2019-08-08T09:31:49.000Z</time>
      </trkpt>
      <trkpt lat="42.91559" lon="0.74471">
        <ele>1043</ele>
        <time>2019-08-08T09:31:50.000Z</time>
      </trkpt>
      <trkpt lat="42.91559" lon="0.74475">
        <ele>1043</ele>
        <time>2019-08-08T09:31:51.000Z</time>
      </trkpt>
      <trkpt lat="42.91559" lon="0.74478">
        <ele>1043</ele>
        <time>2019-08-08T09:31:52.000Z</time>
      </trkpt>
      <trkpt lat="42.91559" lon="0.74482">
        <ele>1043</ele>
        <time>2019-08-08T09:31:53.000Z</time>
      </trkpt>
      <trkpt lat="42.91559" lon="0.74486">
        <ele>1043</ele>
        <time>2019-08-08T09:31:54.000Z</time>
      </trkpt>
      <trkpt lat="42.91559" lon="0.74489">
        <ele>1043</ele>
        <time>2019-08-08T09:31:55.000Z</time>
      </trkpt>
      <trkpt lat="42.91558" lon="0.74493">
        <ele>1043</ele>
        <time>2019-08-08T09:31:56.000Z</time>
      </trkpt>
      <trkpt lat="42.91558" lon="0.74497">
        <ele>1045</ele>
        <time>2019-08-08T09:31:57.000Z</time>
      </trkpt>
      <trkpt lat="42.91557" lon="0.74501">
        <ele>1045</ele>
        <time>2019-08-08T09:31:58.000Z</time>
      </trkpt>
      <trkpt lat="42.91557" lon="0.74504">
        <ele>1045</ele>
        <time>2019-08-08T09:31:59.000Z</time>
      </trkpt>
      <trkpt lat="42.91556" lon="0.74508">
        <ele>1045</ele>
        <time>2019-08-08T09:32:00.000Z</time>
      </trkpt>
      <trkpt lat="42.91556" lon="0.74511">
        <ele>1045</ele>
        <time>2019-08-08T09:32:01.000Z</time>
      </trkpt>
      <trkpt lat="42.91556" lon="0.74515">
        <ele>1045</ele>
        <time>2019-08-08T09:32:02.000Z</time>
      </trkpt>
      <trkpt lat="42.91556" lon="0.74519">
        <ele>1046</ele>
        <time>2019-08-08T09:32:03.000Z</time>
      </trkpt>
      <trkpt lat="42.91555" lon="0.74522">
        <ele>1046</ele>
        <time>2019-08-08T09:32:04.000Z</time>
      </trkpt>
      <trkpt lat="42.91555" lon="0.74526">
        <ele>1046</ele>
        <time>2019-08-08T09:32:05.000Z</time>
      </trkpt>
      <trkpt lat="42.91555" lon="0.74529">
        <ele>1046</ele>
        <time>2019-08-08T09:32:06.000Z</time>
      </trkpt>
      <trkpt lat="42.91555" lon="0.74533">
        <ele>1046</ele>
        <time>2019-08-08T09:32:07.000Z</time>
      </trkpt>
      <trkpt lat="42.91555" lon="0.74536">
        <ele>1046</ele>
        <time>2019-08-08T09:32:08.000Z</time>
      </trkpt>
      <trkpt lat="42.91555" lon="0.7454">
        <ele>1048</ele>
        <time>2019-08-08T09:32:09.000Z</time>
      </trkpt>
      <trkpt lat="42.91556" lon="0.74543">
        <ele>1048</ele>
        <time>2019-08-08T09:32:10.000Z</time>
      </trkpt>
      <trkpt lat="42.91556" lon="0.74547">
        <ele>1049</ele>
        <time>2019-08-08T09:32:11.000Z</time>
      </trkpt>
      <trkpt lat="42.91556" lon="0.7455">
        <ele>1049</ele>
        <time>2019-08-08T09:32:12.000Z</time>
      </trkpt>
      <trkpt lat="42.91557" lon="0.74553">
        <ele>1049</ele>
        <time>2019-08-08T09:32:13.000Z</time>
      </trkpt>
      <trkpt lat="42.91557" lon="0.74556">
        <ele>1049</ele>
        <time>2019-08-08T09:32:14.000Z</time>
      </trkpt>
      <trkpt lat="42.91557" lon="0.7456">
        <ele>1049</ele>
        <time>2019-08-08T09:32:15.000Z</time>
      </trkpt>
      <trkpt lat="42.91558" lon="0.74563">
        <ele>1050</ele>
        <time>2019-08-08T09:32:16.000Z</time>
      </trkpt>
      <trkpt lat="42.91558" lon="0.74567">
        <ele>1050</ele>
        <time>2019-08-08T09:32:17.000Z</time>
      </trkpt>
      <trkpt lat="42.91559" lon="0.7457">
        <ele>1051</ele>
        <time>2019-08-08T09:32:18.000Z</time>
      </trkpt>
      <trkpt lat="42.91559" lon="0.74574">
        <ele>1051</ele>
        <time>2019-08-08T09:32:19.000Z</time>
      </trkpt>
      <trkpt lat="42.9156" lon="0.74577">
        <ele>1052</ele>
        <time>2019-08-08T09:32:20.000Z</time>
      </trkpt>
      <trkpt lat="42.91561" lon="0.74581">
        <ele>1052</ele>
        <time>2019-08-08T09:32:21.000Z</time>
      </trkpt>
      <trkpt lat="42.91561" lon="0.74584">
        <ele>1052</ele>
        <time>2019-08-08T09:32:22.000Z</time>
      </trkpt>
      <trkpt lat="42.91561" lon="0.74588">
        <ele>1052</ele>
        <time>2019-08-08T09:32:23.000Z</time>
      </trkpt>
      <trkpt lat="42.91562" lon="0.74591">
        <ele>1052</ele>
        <time>2019-08-08T09:32:24.000Z</time>
      </trkpt>
      <trkpt lat="42.91562" lon="0.74594">
        <ele>1053</ele>
        <time>2019-08-08T09:32:25.000Z</time>
      </trkpt>
      <trkpt lat="42.91562" lon="0.74598">
        <ele>1053</ele>
        <time>2019-08-08T09:32:26.000Z</time>
      </trkpt>
      <trkpt lat="42.91563" lon="0.74601">
        <ele>1054</ele>
        <time>2019-08-08T09:32:27.000Z</time>
      </trkpt>
      <trkpt lat="42.91563" lon="0.74605">
        <ele>1055</ele>
        <time>2019-08-08T09:32:28.000Z</time>
      </trkpt>
      <trkpt lat="42.91563" lon="0.74608">
        <ele>1055</ele>
        <time>2019-08-08T09:32:29.000Z</time>
      </trkpt>
      <trkpt lat="42.91563" lon="0.74611">
        <ele>1056</ele>
        <time>2019-08-08T09:32:30.000Z</time>
      </trkpt>
      <trkpt lat="42.91564" lon="0.74615">
        <ele>1057</ele>
        <time>2019-08-08T09:32:31.000Z</time>
      </trkpt>
      <trkpt lat="42.91564" lon="0.74618">
        <ele>1057</ele>
        <time>2019-08-08T09:32:32.000Z</time>
      </trkpt>
      <trkpt lat="42.91564" lon="0.74621">
        <ele>1057</ele>
        <time>2019-08-08T09:32:33.000Z</time>
      </trkpt>
      <trkpt lat="42.91563" lon="0.74625">
        <ele>1057</ele>
        <time>2019-08-08T09:32:34.000Z</time>
      </trkpt>
      <trkpt lat="42.91563" lon="0.74628">
        <ele>1057</ele>
        <time>2019-08-08T09:32:35.000Z</time>
      </trkpt>
      <trkpt lat="42.91562" lon="0.74632">
        <ele>1057</ele>
        <time>2019-08-08T09:32:36.000Z</time>
      </trkpt>
      <trkpt lat="42.91561" lon="0.74635">
        <ele>1058</ele>
        <time>2019-08-08T09:32:37.000Z</time>
      </trkpt>
      <trkpt lat="42.91559" lon="0.74638">
        <ele>1058</ele>
        <time>2019-08-08T09:32:38.000Z</time>
      </trkpt>
      <trkpt lat="42.91558" lon="0.74641">
        <ele>1059</ele>
        <time>2019-08-08T09:32:39.000Z</time>
      </trkpt>
      <trkpt lat="42.91557" lon="0.74644">
        <ele>1059</ele>
        <time>2019-08-08T09:32:40.000Z</time>
      </trkpt>
      <trkpt lat="42.91555" lon="0.74647">
        <ele>1059</ele>
        <time>2019-08-08T09:32:41.000Z</time>
      </trkpt>
      <trkpt lat="42.91553" lon="0.7465">
        <ele>1059</ele>
        <time>2019-08-08T09:32:42.000Z</time>
      </trkpt>
      <trkpt lat="42.91552" lon="0.74653">
        <ele>1059</ele>
        <time>2019-08-08T09:32:43.000Z</time>
      </trkpt>
      <trkpt lat="42.91551" lon="0.74656">
        <ele>1059</ele>
        <time>2019-08-08T09:32:44.000Z</time>
      </trkpt>
      <trkpt lat="42.91549" lon="0.7466">
        <ele>1060</ele>
        <time>2019-08-08T09:32:45.000Z</time>
      </trkpt>
      <trkpt lat="42.91548" lon="0.74663">
        <ele>1060</ele>
        <time>2019-08-08T09:32:46.000Z</time>
      </trkpt>
      <trkpt lat="42.91547" lon="0.74666">
        <ele>1060</ele>
        <time>2019-08-08T09:32:47.000Z</time>
      </trkpt>
      <trkpt lat="42.91547" lon="0.7467">
        <ele>1060</ele>
        <time>2019-08-08T09:32:48.000Z</time>
      </trkpt>
      <trkpt lat="42.91546" lon="0.74674">
        <ele>1061</ele>
        <time>2019-08-08T09:32:49.000Z</time>
      </trkpt>
      <trkpt lat="42.91546" lon="0.74677">
        <ele>1061</ele>
        <time>2019-08-08T09:32:50.000Z</time>
      </trkpt>
      <trkpt lat="42.91546" lon="0.74681">
        <ele>1062</ele>
        <time>2019-08-08T09:32:51.000Z</time>
      </trkpt>
      <trkpt lat="42.91546" lon="0.74685">
        <ele>1062</ele>
        <time>2019-08-08T09:32:52.000Z</time>
      </trkpt>
      <trkpt lat="42.91546" lon="0.74688">
        <ele>1062</ele>
        <time>2019-08-08T09:32:53.000Z</time>
      </trkpt>
      <trkpt lat="42.91546" lon="0.74692">
        <ele>1062</ele>
        <time>2019-08-08T09:32:54.000Z</time>
      </trkpt>
      <trkpt lat="42.91546" lon="0.74696">
        <ele>1062</ele>
        <time>2019-08-08T09:32:55.000Z</time>
      </trkpt>
      <trkpt lat="42.91546" lon="0.74699">
        <ele>1063</ele>
        <time>2019-08-08T09:32:56.000Z</time>
      </trkpt>
      <trkpt lat="42.91546" lon="0.74703">
        <ele>1063</ele>
        <time>2019-08-08T09:32:57.000Z</time>
      </trkpt>
      <trkpt lat="42.91546" lon="0.74707">
        <ele>1063</ele>
        <time>2019-08-08T09:32:58.000Z</time>
      </trkpt>
      <trkpt lat="42.91546" lon="0.7471">
        <ele>1063</ele>
        <time>2019-08-08T09:32:59.000Z</time>
      </trkpt>
      <trkpt lat="42.91545" lon="0.74714">
        <ele>1063</ele>
        <time>2019-08-08T09:33:00.000Z</time>
      </trkpt>
      <trkpt lat="42.91545" lon="0.74717">
        <ele>1063</ele>
        <time>2019-08-08T09:33:01.000Z</time>
      </trkpt>
      <trkpt lat="42.91545" lon="0.74721">
        <ele>1063</ele>
        <time>2019-08-08T09:33:02.000Z</time>
      </trkpt>
      <trkpt lat="42.91544" lon="0.74724">
        <ele>1063</ele>
        <time>2019-08-08T09:33:03.000Z</time>
      </trkpt>
      <trkpt lat="42.91543" lon="0.74728">
        <ele>1064</ele>
        <time>2019-08-08T09:33:04.000Z</time>
      </trkpt>
      <trkpt lat="42.91542" lon="0.74731">
        <ele>1064</ele>
        <time>2019-08-08T09:33:05.000Z</time>
      </trkpt>
      <trkpt lat="42.91542" lon="0.74734">
        <ele>1065</ele>
        <time>2019-08-08T09:33:06.000Z</time>
      </trkpt>
      <trkpt lat="42.91541" lon="0.74738">
        <ele>1065</ele>
        <time>2019-08-08T09:33:07.000Z</time>
      </trkpt>
      <trkpt lat="42.9154" lon="0.74741">
        <ele>1066</ele>
        <time>2019-08-08T09:33:08.000Z</time>
      </trkpt>
      <trkpt lat="42.9154" lon="0.74744">
        <ele>1066</ele>
        <time>2019-08-08T09:33:09.000Z</time>
      </trkpt>
      <trkpt lat="42.91539" lon="0.74747">
        <ele>1066</ele>
        <time>2019-08-08T09:33:10.000Z</time>
      </trkpt>
      <trkpt lat="42.91539" lon="0.74751">
        <ele>1066</ele>
        <time>2019-08-08T09:33:11.000Z</time>
      </trkpt>
      <trkpt lat="42.91538" lon="0.74754">
        <ele>1066</ele>
        <time>2019-08-08T09:33:12.000Z</time>
      </trkpt>
      <trkpt lat="42.91538" lon="0.74757">
        <ele>1067</ele>
        <time>2019-08-08T09:33:13.000Z</time>
      </trkpt>
      <trkpt lat="42.91537" lon="0.7476">
        <ele>1067</ele>
        <time>2019-08-08T09:33:14.000Z</time>
      </trkpt>
      <trkpt lat="42.91537" lon="0.74764">
        <ele>1067</ele>
        <time>2019-08-08T09:33:15.000Z</time>
      </trkpt>
      <trkpt lat="42.91537" lon="0.74767">
        <ele>1067</ele>
        <time>2019-08-08T09:33:16.000Z</time>
      </trkpt>
      <trkpt lat="42.91537" lon="0.7477">
        <ele>1068</ele>
        <time>2019-08-08T09:33:17.000Z</time>
      </trkpt>
      <trkpt lat="42.91536" lon="0.74774">
        <ele>1068</ele>
        <time>2019-08-08T09:33:18.000Z</time>
      </trkpt>
      <trkpt lat="42.91536" lon="0.74777">
        <ele>1068</ele>
        <time>2019-08-08T09:33:19.000Z</time>
      </trkpt>
      <trkpt lat="42.91536" lon="0.7478">
        <ele>1068</ele>
        <time>2019-08-08T09:33:20.000Z</time>
      </trkpt>
      <trkpt lat="42.91537" lon="0.74783">
        <ele>1068</ele>
        <time>2019-08-08T09:33:21.000Z</time>
      </trkpt>
      <trkpt lat="42.91537" lon="0.74786">
        <ele>1069</ele>
        <time>2019-08-08T09:33:22.000Z</time>
      </trkpt>
      <trkpt lat="42.91537" lon="0.74789">
        <ele>1069</ele>
        <time>2019-08-08T09:33:23.000Z</time>
      </trkpt>
      <trkpt lat="42.91537" lon="0.74793">
        <ele>1069</ele>
        <time>2019-08-08T09:33:24.000Z</time>
      </trkpt>
      <trkpt lat="42.91538" lon="0.74796">
        <ele>1069</ele>
        <time>2019-08-08T09:33:25.000Z</time>
      </trkpt>
      <trkpt lat="42.91538" lon="0.74799">
        <ele>1069</ele>
        <time>2019-08-08T09:33:26.000Z</time>
      </trkpt>
      <trkpt lat="42.91538" lon="0.74803">
        <ele>1070</ele>
        <time>2019-08-08T09:33:27.000Z</time>
      </trkpt>
      <trkpt lat="42.91538" lon="0.74806">
        <ele>1070</ele>
        <time>2019-08-08T09:33:28.000Z</time>
      </trkpt>
      <trkpt lat="42.91538" lon="0.74809">
        <ele>1070</ele>
        <time>2019-08-08T09:33:29.000Z</time>
      </trkpt>
      <trkpt lat="42.91538" lon="0.74812">
        <ele>1071</ele>
        <time>2019-08-08T09:33:30.000Z</time>
      </trkpt>
      <trkpt lat="42.91538" lon="0.74815">
        <ele>1071</ele>
        <time>2019-08-08T09:33:31.000Z</time>
      </trkpt>
      <trkpt lat="42.91538" lon="0.74818">
        <ele>1071</ele>
        <time>2019-08-08T09:33:32.000Z</time>
      </trkpt>
      <trkpt lat="42.91538" lon="0.74822">
        <ele>1071</ele>
        <time>2019-08-08T09:33:33.000Z</time>
      </trkpt>
      <trkpt lat="42.91537" lon="0.74825">
        <ele>1071</ele>
        <time>2019-08-08T09:33:34.000Z</time>
      </trkpt>
      <trkpt lat="42.91537" lon="0.74828">
        <ele>1071</ele>
        <time>2019-08-08T09:33:35.000Z</time>
      </trkpt>
      <trkpt lat="42.91536" lon="0.74831">
        <ele>1072</ele>
        <time>2019-08-08T09:33:36.000Z</time>
      </trkpt>
      <trkpt lat="42.91536" lon="0.74835">
        <ele>1072</ele>
        <time>2019-08-08T09:33:37.000Z</time>
      </trkpt>
      <trkpt lat="42.91536" lon="0.74838">
        <ele>1073</ele>
        <time>2019-08-08T09:33:38.000Z</time>
      </trkpt>
      <trkpt lat="42.91535" lon="0.74841">
        <ele>1073</ele>
        <time>2019-08-08T09:33:39.000Z</time>
      </trkpt>
      <trkpt lat="42.91535" lon="0.74844">
        <ele>1073</ele>
        <time>2019-08-08T09:33:40.000Z</time>
      </trkpt>
      <trkpt lat="42.91534" lon="0.74848">
        <ele>1073</ele>
        <time>2019-08-08T09:33:41.000Z</time>
      </trkpt>
      <trkpt lat="42.91533" lon="0.74852">
        <ele>1074</ele>
        <time>2019-08-08T09:33:42.000Z</time>
      </trkpt>
      <trkpt lat="42.91532" lon="0.74855">
        <ele>1074</ele>
        <time>2019-08-08T09:33:43.000Z</time>
      </trkpt>
      <trkpt lat="42.91531" lon="0.74859">
        <ele>1074</ele>
        <time>2019-08-08T09:33:44.000Z</time>
      </trkpt>
      <trkpt lat="42.91531" lon="0.74862">
        <ele>1074</ele>
        <time>2019-08-08T09:33:45.000Z</time>
      </trkpt>
      <trkpt lat="42.91531" lon="0.74866">
        <ele>1074</ele>
        <time>2019-08-08T09:33:46.000Z</time>
      </trkpt>
      <trkpt lat="42.91531" lon="0.74869">
        <ele>1075</ele>
        <time>2019-08-08T09:33:47.000Z</time>
      </trkpt>
      <trkpt lat="42.9153" lon="0.74873">
        <ele>1076</ele>
        <time>2019-08-08T09:33:48.000Z</time>
      </trkpt>
      <trkpt lat="42.9153" lon="0.74876">
        <ele>1076</ele>
        <time>2019-08-08T09:33:49.000Z</time>
      </trkpt>
      <trkpt lat="42.9153" lon="0.7488">
        <ele>1076</ele>
        <time>2019-08-08T09:33:50.000Z</time>
      </trkpt>
      <trkpt lat="42.9153" lon="0.74883">
        <ele>1076</ele>
        <time>2019-08-08T09:33:51.000Z</time>
      </trkpt>
      <trkpt lat="42.91529" lon="0.74886">
        <ele>1077</ele>
        <time>2019-08-08T09:33:52.000Z</time>
      </trkpt>
      <trkpt lat="42.91529" lon="0.7489">
        <ele>1077</ele>
        <time>2019-08-08T09:33:53.000Z</time>
      </trkpt>
      <trkpt lat="42.91529" lon="0.74893">
        <ele>1077</ele>
        <time>2019-08-08T09:33:54.000Z</time>
      </trkpt>
      <trkpt lat="42.91528" lon="0.74897">
        <ele>1077</ele>
        <time>2019-08-08T09:33:55.000Z</time>
      </trkpt>
      <trkpt lat="42.91528" lon="0.74901">
        <ele>1078</ele>
        <time>2019-08-08T09:33:56.000Z</time>
      </trkpt>
      <trkpt lat="42.91528" lon="0.74905">
        <ele>1078</ele>
        <time>2019-08-08T09:33:57.000Z</time>
      </trkpt>
      <trkpt lat="42.91527" lon="0.74909">
        <ele>1078</ele>
        <time>2019-08-08T09:33:58.000Z</time>
      </trkpt>
      <trkpt lat="42.91527" lon="0.74913">
        <ele>1078</ele>
        <time>2019-08-08T09:33:59.000Z</time>
      </trkpt>
      <trkpt lat="42.91527" lon="0.74916">
        <ele>1078</ele>
        <time>2019-08-08T09:34:00.000Z</time>
      </trkpt>
      <trkpt lat="42.91527" lon="0.7492">
        <ele>1078</ele>
        <time>2019-08-08T09:34:01.000Z</time>
      </trkpt>
      <trkpt lat="42.91526" lon="0.74924">
        <ele>1079</ele>
        <time>2019-08-08T09:34:02.000Z</time>
      </trkpt>
      <trkpt lat="42.91526" lon="0.74927">
        <ele>1079</ele>
        <time>2019-08-08T09:34:03.000Z</time>
      </trkpt>
      <trkpt lat="42.91525" lon="0.74931">
        <ele>1079</ele>
        <time>2019-08-08T09:34:04.000Z</time>
      </trkpt>
      <trkpt lat="42.91526" lon="0.74934">
        <ele>1079</ele>
        <time>2019-08-08T09:34:05.000Z</time>
      </trkpt>
      <trkpt lat="42.91526" lon="0.74937">
        <ele>1079</ele>
        <time>2019-08-08T09:34:06.000Z</time>
      </trkpt>
      <trkpt lat="42.91527" lon="0.7494">
        <ele>1079</ele>
        <time>2019-08-08T09:34:07.000Z</time>
      </trkpt>
      <trkpt lat="42.91527" lon="0.74943">
        <ele>1080</ele>
        <time>2019-08-08T09:34:08.000Z</time>
      </trkpt>
      <trkpt lat="42.91528" lon="0.74946">
        <ele>1080</ele>
        <time>2019-08-08T09:34:09.000Z</time>
      </trkpt>
      <trkpt lat="42.91529" lon="0.74949">
        <ele>1080</ele>
        <time>2019-08-08T09:34:10.000Z</time>
      </trkpt>
      <trkpt lat="42.9153" lon="0.74952">
        <ele>1081</ele>
        <time>2019-08-08T09:34:11.000Z</time>
      </trkpt>
      <trkpt lat="42.9153" lon="0.74955">
        <ele>1081</ele>
        <time>2019-08-08T09:34:12.000Z</time>
      </trkpt>
      <trkpt lat="42.91531" lon="0.74958">
        <ele>1082</ele>
        <time>2019-08-08T09:34:13.000Z</time>
      </trkpt>
      <trkpt lat="42.91531" lon="0.74961">
        <ele>1082</ele>
        <time>2019-08-08T09:34:14.000Z</time>
      </trkpt>
      <trkpt lat="42.91532" lon="0.74964">
        <ele>1082</ele>
        <time>2019-08-08T09:34:15.000Z</time>
      </trkpt>
      <trkpt lat="42.91532" lon="0.74967">
        <ele>1082</ele>
        <time>2019-08-08T09:34:16.000Z</time>
      </trkpt>
      <trkpt lat="42.91532" lon="0.7497">
        <ele>1083</ele>
        <time>2019-08-08T09:34:17.000Z</time>
      </trkpt>
      <trkpt lat="42.91533" lon="0.74973">
        <ele>1083</ele>
        <time>2019-08-08T09:34:18.000Z</time>
      </trkpt>
      <trkpt lat="42.91534" lon="0.74976">
        <ele>1084</ele>
        <time>2019-08-08T09:34:19.000Z</time>
      </trkpt>
      <trkpt lat="42.91535" lon="0.74979">
        <ele>1084</ele>
        <time>2019-08-08T09:34:20.000Z</time>
      </trkpt>
      <trkpt lat="42.91535" lon="0.74983">
        <ele>1084</ele>
        <time>2019-08-08T09:34:21.000Z</time>
      </trkpt>
      <trkpt lat="42.91535" lon="0.74986">
        <ele>1084</ele>
        <time>2019-08-08T09:34:22.000Z</time>
      </trkpt>
      <trkpt lat="42.91535" lon="0.74986">
        <ele>1085</ele>
        <time>2019-08-08T09:34:23.000Z</time>
      </trkpt>
      <trkpt lat="42.91535" lon="0.74986">
        <ele>1085</ele>
        <time>2019-08-08T09:34:24.000Z</time>
      </trkpt>
      <trkpt lat="42.91535" lon="0.74986">
        <ele>1085</ele>
        <time>2019-08-08T09:34:25.000Z</time>
      </trkpt>
      <trkpt lat="42.91531" lon="0.74997">
        <ele>1085</ele>
        <time>2019-08-08T09:34:26.000Z</time>
      </trkpt>
      <trkpt lat="42.91531" lon="0.74997">
        <ele>1085</ele>
        <time>2019-08-08T09:34:27.000Z</time>
      </trkpt>
      <trkpt lat="42.91531" lon="0.74997">
        <ele>1085</ele>
        <time>2019-08-08T09:34:28.000Z</time>
      </trkpt>
      <trkpt lat="42.91528" lon="0.75005">
        <ele>1086</ele>
        <time>2019-08-08T09:34:29.000Z</time>
      </trkpt>
      <trkpt lat="42.91528" lon="0.75009">
        <ele>1086</ele>
        <time>2019-08-08T09:34:30.000Z</time>
      </trkpt>
      <trkpt lat="42.91528" lon="0.75009">
        <ele>1087</ele>
        <time>2019-08-08T09:34:31.000Z</time>
      </trkpt>
      <trkpt lat="42.91528" lon="0.75009">
        <ele>1087</ele>
        <time>2019-08-08T09:34:32.000Z</time>
      </trkpt>
      <trkpt lat="42.9153" lon="0.75019">
        <ele>1088</ele>
        <time>2019-08-08T09:34:33.000Z</time>
      </trkpt>
      <trkpt lat="42.91532" lon="0.75024">
        <ele>1088</ele>
        <time>2019-08-08T09:34:34.000Z</time>
      </trkpt>
      <trkpt lat="42.91532" lon="0.75026">
        <ele>1088</ele>
        <time>2019-08-08T09:34:35.000Z</time>
      </trkpt>
      <trkpt lat="42.91533" lon="0.75028">
        <ele>1088</ele>
        <time>2019-08-08T09:34:36.000Z</time>
      </trkpt>
      <trkpt lat="42.91533" lon="0.7503">
        <ele>1089</ele>
        <time>2019-08-08T09:34:37.000Z</time>
      </trkpt>
      <trkpt lat="42.91535" lon="0.75037">
        <ele>1089</ele>
        <time>2019-08-08T09:34:38.000Z</time>
      </trkpt>
      <trkpt lat="42.91535" lon="0.75037">
        <ele>1089</ele>
        <time>2019-08-08T09:34:39.000Z</time>
      </trkpt>
      <trkpt lat="42.91536" lon="0.75047">
        <ele>1089</ele>
        <time>2019-08-08T09:34:40.000Z</time>
      </trkpt>
      <trkpt lat="42.91536" lon="0.75049">
        <ele>1090</ele>
        <time>2019-08-08T09:34:41.000Z</time>
      </trkpt>
      <trkpt lat="42.91536" lon="0.75051">
        <ele>1090</ele>
        <time>2019-08-08T09:34:42.000Z</time>
      </trkpt>
      <trkpt lat="42.91536" lon="0.75053">
        <ele>1091</ele>
        <time>2019-08-08T09:34:43.000Z</time>
      </trkpt>
      <trkpt lat="42.91537" lon="0.7506">
        <ele>1091</ele>
        <time>2019-08-08T09:34:44.000Z</time>
      </trkpt>
      <trkpt lat="42.91537" lon="0.75064">
        <ele>1091</ele>
        <time>2019-08-08T09:34:45.000Z</time>
      </trkpt>
      <trkpt lat="42.91538" lon="0.75066">
        <ele>1091</ele>
        <time>2019-08-08T09:34:46.000Z</time>
      </trkpt>
      <trkpt lat="42.91539" lon="0.75069">
        <ele>1091</ele>
        <time>2019-08-08T09:34:47.000Z</time>
      </trkpt>
      <trkpt lat="42.9154" lon="0.75073">
        <ele>1091</ele>
        <time>2019-08-08T09:34:48.000Z</time>
      </trkpt>
      <trkpt lat="42.9154" lon="0.75077">
        <ele>1091</ele>
        <time>2019-08-08T09:34:49.000Z</time>
      </trkpt>
      <trkpt lat="42.9154" lon="0.7508">
        <ele>1092</ele>
        <time>2019-08-08T09:34:50.000Z</time>
      </trkpt>
      <trkpt lat="42.91541" lon="0.75084">
        <ele>1092</ele>
        <time>2019-08-08T09:34:51.000Z</time>
      </trkpt>
      <trkpt lat="42.91541" lon="0.75084">
        <ele>1093</ele>
        <time>2019-08-08T09:34:52.000Z</time>
      </trkpt>
      <trkpt lat="42.91541" lon="0.75084">
        <ele>1093</ele>
        <time>2019-08-08T09:34:53.000Z</time>
      </trkpt>
      <trkpt lat="42.91541" lon="0.75084">
        <ele>1093</ele>
        <time>2019-08-08T09:34:54.000Z</time>
      </trkpt>
      <trkpt lat="42.91542" lon="0.75096">
        <ele>1093</ele>
        <time>2019-08-08T09:34:55.000Z</time>
      </trkpt>
      <trkpt lat="42.91542" lon="0.75096">
        <ele>1094</ele>
        <time>2019-08-08T09:34:56.000Z</time>
      </trkpt>
      <trkpt lat="42.91542" lon="0.75096">
        <ele>1094</ele>
        <time>2019-08-08T09:34:57.000Z</time>
      </trkpt>
      <trkpt lat="42.91544" lon="0.75106">
        <ele>1094</ele>
        <time>2019-08-08T09:34:58.000Z</time>
      </trkpt>
      <trkpt lat="42.91545" lon="0.7511">
        <ele>1094</ele>
        <time>2019-08-08T09:34:59.000Z</time>
      </trkpt>
      <trkpt lat="42.91545" lon="0.75114">
        <ele>1094</ele>
        <time>2019-08-08T09:35:00.000Z</time>
      </trkpt>
      <trkpt lat="42.91544" lon="0.75117">
        <ele>1094</ele>
        <time>2019-08-08T09:35:01.000Z</time>
      </trkpt>
      <trkpt lat="42.91544" lon="0.75117">
        <ele>1094</ele>
        <time>2019-08-08T09:35:02.000Z</time>
      </trkpt>
      <trkpt lat="42.91544" lon="0.75117">
        <ele>1094</ele>
        <time>2019-08-08T09:35:03.000Z</time>
      </trkpt>
      <trkpt lat="42.91544" lon="0.75117">
        <ele>1094</ele>
        <time>2019-08-08T09:35:04.000Z</time>
      </trkpt>
      <trkpt lat="42.91541" lon="0.75131">
        <ele>1095</ele>
        <time>2019-08-08T09:35:05.000Z</time>
      </trkpt>
      <trkpt lat="42.91541" lon="0.75133">
        <ele>1095</ele>
        <time>2019-08-08T09:35:06.000Z</time>
      </trkpt>
      <trkpt lat="42.91541" lon="0.75135">
        <ele>1095</ele>
        <time>2019-08-08T09:35:07.000Z</time>
      </trkpt>
      <trkpt lat="42.91541" lon="0.75137">
        <ele>1095</ele>
        <time>2019-08-08T09:35:08.000Z</time>
      </trkpt>
      <trkpt lat="42.9154" lon="0.75147">
        <ele>1096</ele>
        <time>2019-08-08T09:35:09.000Z</time>
      </trkpt>
      <trkpt lat="42.9154" lon="0.75149">
        <ele>1096</ele>
        <time>2019-08-08T09:35:10.000Z</time>
      </trkpt>
      <trkpt lat="42.9154" lon="0.7515">
        <ele>1096</ele>
        <time>2019-08-08T09:35:11.000Z</time>
      </trkpt>
      <trkpt lat="42.9154" lon="0.75152">
        <ele>1096</ele>
        <time>2019-08-08T09:35:12.000Z</time>
      </trkpt>
      <trkpt lat="42.91539" lon="0.75159">
        <ele>1096</ele>
        <time>2019-08-08T09:35:13.000Z</time>
      </trkpt>
      <trkpt lat="42.91539" lon="0.75159">
        <ele>1096</ele>
        <time>2019-08-08T09:35:14.000Z</time>
      </trkpt>
      <trkpt lat="42.91538" lon="0.75165">
        <ele>1097</ele>
        <time>2019-08-08T09:35:15.000Z</time>
      </trkpt>
      <trkpt lat="42.91536" lon="0.75168">
        <ele>1097</ele>
        <time>2019-08-08T09:35:16.000Z</time>
      </trkpt>
      <trkpt lat="42.91536" lon="0.75168">
        <ele>1097</ele>
        <time>2019-08-08T09:35:17.000Z</time>
      </trkpt>
      <trkpt lat="42.91536" lon="0.75168">
        <ele>1097</ele>
        <time>2019-08-08T09:35:18.000Z</time>
      </trkpt>
      <trkpt lat="42.91529" lon="0.75175">
        <ele>1098</ele>
        <time>2019-08-08T09:35:19.000Z</time>
      </trkpt>
      <trkpt lat="42.91527" lon="0.75176">
        <ele>1098</ele>
        <time>2019-08-08T09:35:20.000Z</time>
      </trkpt>
      <trkpt lat="42.91527" lon="0.75176">
        <ele>1099</ele>
        <time>2019-08-08T09:35:21.000Z</time>
      </trkpt>
      <trkpt lat="42.91527" lon="0.75176">
        <ele>1099</ele>
        <time>2019-08-08T09:35:22.000Z</time>
      </trkpt>
      <trkpt lat="42.91518" lon="0.75176">
        <ele>1099</ele>
        <time>2019-08-08T09:35:23.000Z</time>
      </trkpt>
      <trkpt lat="42.91515" lon="0.75176">
        <ele>1099</ele>
        <time>2019-08-08T09:35:24.000Z</time>
      </trkpt>
      <trkpt lat="42.91512" lon="0.75176">
        <ele>1099</ele>
        <time>2019-08-08T09:35:25.000Z</time>
      </trkpt>
      <trkpt lat="42.91509" lon="0.75177">
        <ele>1099</ele>
        <time>2019-08-08T09:35:26.000Z</time>
      </trkpt>
      <trkpt lat="42.91506" lon="0.75177">
        <ele>1099</ele>
        <time>2019-08-08T09:35:27.000Z</time>
      </trkpt>
      <trkpt lat="42.91503" lon="0.75178">
        <ele>1100</ele>
        <time>2019-08-08T09:35:28.000Z</time>
      </trkpt>
      <trkpt lat="42.915" lon="0.75178">
        <ele>1100</ele>
        <time>2019-08-08T09:35:29.000Z</time>
      </trkpt>
      <trkpt lat="42.91498" lon="0.75179">
        <ele>1101</ele>
        <time>2019-08-08T09:35:30.000Z</time>
      </trkpt>
      <trkpt lat="42.91495" lon="0.75179">
        <ele>1101</ele>
        <time>2019-08-08T09:35:31.000Z</time>
      </trkpt>
      <trkpt lat="42.91493" lon="0.7518">
        <ele>1102</ele>
        <time>2019-08-08T09:35:32.000Z</time>
      </trkpt>
      <trkpt lat="42.9149" lon="0.75181">
        <ele>1102</ele>
        <time>2019-08-08T09:35:33.000Z</time>
      </trkpt>
      <trkpt lat="42.91487" lon="0.75181">
        <ele>1102</ele>
        <time>2019-08-08T09:35:34.000Z</time>
      </trkpt>
      <trkpt lat="42.91487" lon="0.75181">
        <ele>1102</ele>
        <time>2019-08-08T09:35:35.000Z</time>
      </trkpt>
      <trkpt lat="42.91482" lon="0.75183">
        <ele>1102</ele>
        <time>2019-08-08T09:35:36.000Z</time>
      </trkpt>
      <trkpt lat="42.91479" lon="0.75185">
        <ele>1102</ele>
        <time>2019-08-08T09:35:37.000Z</time>
      </trkpt>
      <trkpt lat="42.91478" lon="0.75185">
        <ele>1103</ele>
        <time>2019-08-08T09:35:38.000Z</time>
      </trkpt>
      <trkpt lat="42.91476" lon="0.75185">
        <ele>1103</ele>
        <time>2019-08-08T09:35:39.000Z</time>
      </trkpt>
      <trkpt lat="42.91475" lon="0.75186">
        <ele>1104</ele>
        <time>2019-08-08T09:35:40.000Z</time>
      </trkpt>
      <trkpt lat="42.91468" lon="0.75188">
        <ele>1104</ele>
        <time>2019-08-08T09:35:41.000Z</time>
      </trkpt>
      <trkpt lat="42.91467" lon="0.75189">
        <ele>1104</ele>
        <time>2019-08-08T09:35:42.000Z</time>
      </trkpt>
      <trkpt lat="42.91465" lon="0.75189">
        <ele>1104</ele>
        <time>2019-08-08T09:35:43.000Z</time>
      </trkpt>
      <trkpt lat="42.91464" lon="0.7519">
        <ele>1104</ele>
        <time>2019-08-08T09:35:44.000Z</time>
      </trkpt>
      <trkpt lat="42.91459" lon="0.75192">
        <ele>1105</ele>
        <time>2019-08-08T09:35:45.000Z</time>
      </trkpt>
      <trkpt lat="42.91459" lon="0.75192">
        <ele>1105</ele>
        <time>2019-08-08T09:35:46.000Z</time>
      </trkpt>
      <trkpt lat="42.91459" lon="0.75192">
        <ele>1105</ele>
        <time>2019-08-08T09:35:47.000Z</time>
      </trkpt>
      <trkpt lat="42.91459" lon="0.75192">
        <ele>1105</ele>
        <time>2019-08-08T09:35:48.000Z</time>
      </trkpt>
      <trkpt lat="42.91449" lon="0.75195">
        <ele>1106</ele>
        <time>2019-08-08T09:35:49.000Z</time>
      </trkpt>
      <trkpt lat="42.91446" lon="0.75196">
        <ele>1106</ele>
        <time>2019-08-08T09:35:50.000Z</time>
      </trkpt>
      <trkpt lat="42.91443" lon="0.75197">
        <ele>1106</ele>
        <time>2019-08-08T09:35:51.000Z</time>
      </trkpt>
      <trkpt lat="42.91443" lon="0.75197">
        <ele>1106</ele>
        <time>2019-08-08T09:35:52.000Z</time>
      </trkpt>
      <trkpt lat="42.91443" lon="0.75197">
        <ele>1107</ele>
        <time>2019-08-08T09:35:53.000Z</time>
      </trkpt>
      <trkpt lat="42.91433" lon="0.752">
        <ele>1107</ele>
        <time>2019-08-08T09:35:54.000Z</time>
      </trkpt>
      <trkpt lat="42.91432" lon="0.75201">
        <ele>1108</ele>
        <time>2019-08-08T09:35:55.000Z</time>
      </trkpt>
      <trkpt lat="42.9143" lon="0.75201">
        <ele>1108</ele>
        <time>2019-08-08T09:35:56.000Z</time>
      </trkpt>
      <trkpt lat="42.91429" lon="0.75202">
        <ele>1108</ele>
        <time>2019-08-08T09:35:57.000Z</time>
      </trkpt>
      <trkpt lat="42.91422" lon="0.75204">
        <ele>1108</ele>
        <time>2019-08-08T09:35:58.000Z</time>
      </trkpt>
      <trkpt lat="42.91421" lon="0.75205">
        <ele>1108</ele>
        <time>2019-08-08T09:35:59.000Z</time>
      </trkpt>
      <trkpt lat="42.9142" lon="0.75205">
        <ele>1109</ele>
        <time>2019-08-08T09:36:00.000Z</time>
      </trkpt>
      <trkpt lat="42.91419" lon="0.75206">
        <ele>1109</ele>
        <time>2019-08-08T09:36:01.000Z</time>
      </trkpt>
      <trkpt lat="42.91412" lon="0.75209">
        <ele>1109</ele>
        <time>2019-08-08T09:36:02.000Z</time>
      </trkpt>
      <trkpt lat="42.91411" lon="0.7521">
        <ele>1109</ele>
        <time>2019-08-08T09:36:03.000Z</time>
      </trkpt>
      <trkpt lat="42.9141" lon="0.7521">
        <ele>1109</ele>
        <time>2019-08-08T09:36:04.000Z</time>
      </trkpt>
      <trkpt lat="42.91409" lon="0.75211">
        <ele>1110</ele>
        <time>2019-08-08T09:36:05.000Z</time>
      </trkpt>
      <trkpt lat="42.91404" lon="0.75214">
        <ele>1110</ele>
        <time>2019-08-08T09:36:06.000Z</time>
      </trkpt>
      <trkpt lat="42.91404" lon="0.75214">
        <ele>1110</ele>
        <time>2019-08-08T09:36:07.000Z</time>
      </trkpt>
      <trkpt lat="42.91399" lon="0.75218">
        <ele>1110</ele>
        <time>2019-08-08T09:36:08.000Z</time>
      </trkpt>
      <trkpt lat="42.91397" lon="0.75219">
        <ele>1110</ele>
        <time>2019-08-08T09:36:09.000Z</time>
      </trkpt>
      <trkpt lat="42.91396" lon="0.7522">
        <ele>1110</ele>
        <time>2019-08-08T09:36:10.000Z</time>
      </trkpt>
      <trkpt lat="42.91395" lon="0.75221">
        <ele>1110</ele>
        <time>2019-08-08T09:36:11.000Z</time>
      </trkpt>
      <trkpt lat="42.9139" lon="0.75224">
        <ele>1110</ele>
        <time>2019-08-08T09:36:12.000Z</time>
      </trkpt>
      <trkpt lat="42.91387" lon="0.75226">
        <ele>1111</ele>
        <time>2019-08-08T09:36:13.000Z</time>
      </trkpt>
      <trkpt lat="42.91386" lon="0.75227">
        <ele>1111</ele>
        <time>2019-08-08T09:36:14.000Z</time>
      </trkpt>
      <trkpt lat="42.91384" lon="0.7523">
        <ele>1112</ele>
        <time>2019-08-08T09:36:15.000Z</time>
      </trkpt>
      <trkpt lat="42.91382" lon="0.75232">
        <ele>1112</ele>
        <time>2019-08-08T09:36:16.000Z</time>
      </trkpt>
      <trkpt lat="42.9138" lon="0.75234">
        <ele>1113</ele>
        <time>2019-08-08T09:36:17.000Z</time>
      </trkpt>
      <trkpt lat="42.91378" lon="0.75236">
        <ele>1113</ele>
        <time>2019-08-08T09:36:18.000Z</time>
      </trkpt>
      <trkpt lat="42.91376" lon="0.75239">
        <ele>1113</ele>
        <time>2019-08-08T09:36:19.000Z</time>
      </trkpt>
      <trkpt lat="42.91375" lon="0.75241">
        <ele>1113</ele>
        <time>2019-08-08T09:36:20.000Z</time>
      </trkpt>
      <trkpt lat="42.91373" lon="0.75244">
        <ele>1114</ele>
        <time>2019-08-08T09:36:21.000Z</time>
      </trkpt>
      <trkpt lat="42.91371" lon="0.75247">
        <ele>1114</ele>
        <time>2019-08-08T09:36:22.000Z</time>
      </trkpt>
      <trkpt lat="42.9137" lon="0.75249">
        <ele>1114</ele>
        <time>2019-08-08T09:36:23.000Z</time>
      </trkpt>
      <trkpt lat="42.91368" lon="0.75252">
        <ele>1114</ele>
        <time>2019-08-08T09:36:24.000Z</time>
      </trkpt>
      <trkpt lat="42.91367" lon="0.75255">
        <ele>1115</ele>
        <time>2019-08-08T09:36:25.000Z</time>
      </trkpt>
      <trkpt lat="42.91366" lon="0.75258">
        <ele>1115</ele>
        <time>2019-08-08T09:36:26.000Z</time>
      </trkpt>
      <trkpt lat="42.91365" lon="0.75261">
        <ele>1116</ele>
        <time>2019-08-08T09:36:27.000Z</time>
      </trkpt>
      <trkpt lat="42.91363" lon="0.75263">
        <ele>1116</ele>
        <time>2019-08-08T09:36:28.000Z</time>
      </trkpt>
      <trkpt lat="42.91362" lon="0.75266">
        <ele>1116</ele>
        <time>2019-08-08T09:36:29.000Z</time>
      </trkpt>
      <trkpt lat="42.91361" lon="0.75268">
        <ele>1116</ele>
        <time>2019-08-08T09:36:30.000Z</time>
      </trkpt>
      <trkpt lat="42.9136" lon="0.75271">
        <ele>1117</ele>
        <time>2019-08-08T09:36:31.000Z</time>
      </trkpt>
      <trkpt lat="42.91359" lon="0.75273">
        <ele>1117</ele>
        <time>2019-08-08T09:36:32.000Z</time>
      </trkpt>
      <trkpt lat="42.91358" lon="0.75276">
        <ele>1117</ele>
        <time>2019-08-08T09:36:33.000Z</time>
      </trkpt>
      <trkpt lat="42.91357" lon="0.75279">
        <ele>1117</ele>
        <time>2019-08-08T09:36:34.000Z</time>
      </trkpt>
      <trkpt lat="42.91356" lon="0.75282">
        <ele>1118</ele>
        <time>2019-08-08T09:36:35.000Z</time>
      </trkpt>
      <trkpt lat="42.91356" lon="0.75286">
        <ele>1118</ele>
        <time>2019-08-08T09:36:36.000Z</time>
      </trkpt>
      <trkpt lat="42.91355" lon="0.75289">
        <ele>1118</ele>
        <time>2019-08-08T09:36:37.000Z</time>
      </trkpt>
      <trkpt lat="42.91355" lon="0.75293">
        <ele>1119</ele>
        <time>2019-08-08T09:36:38.000Z</time>
      </trkpt>
      <trkpt lat="42.91354" lon="0.75297">
        <ele>1119</ele>
        <time>2019-08-08T09:36:39.000Z</time>
      </trkpt>
      <trkpt lat="42.91354" lon="0.75301">
        <ele>1119</ele>
        <time>2019-08-08T09:36:40.000Z</time>
      </trkpt>
      <trkpt lat="42.91353" lon="0.75304">
        <ele>1119</ele>
        <time>2019-08-08T09:36:41.000Z</time>
      </trkpt>
      <trkpt lat="42.91352" lon="0.75308">
        <ele>1119</ele>
        <time>2019-08-08T09:36:42.000Z</time>
      </trkpt>
      <trkpt lat="42.91352" lon="0.75311">
        <ele>1121</ele>
        <time>2019-08-08T09:36:43.000Z</time>
      </trkpt>
      <trkpt lat="42.91351" lon="0.75314">
        <ele>1121</ele>
        <time>2019-08-08T09:36:44.000Z</time>
      </trkpt>
      <trkpt lat="42.9135" lon="0.75317">
        <ele>1121</ele>
        <time>2019-08-08T09:36:45.000Z</time>
      </trkpt>
      <trkpt lat="42.91349" lon="0.75321">
        <ele>1121</ele>
        <time>2019-08-08T09:36:46.000Z</time>
      </trkpt>
      <trkpt lat="42.91349" lon="0.75324">
        <ele>1121</ele>
        <time>2019-08-08T09:36:47.000Z</time>
      </trkpt>
      <trkpt lat="42.91348" lon="0.75328">
        <ele>1121</ele>
        <time>2019-08-08T09:36:48.000Z</time>
      </trkpt>
      <trkpt lat="42.91347" lon="0.75331">
        <ele>1121</ele>
        <time>2019-08-08T09:36:49.000Z</time>
      </trkpt>
      <trkpt lat="42.91347" lon="0.75334">
        <ele>1122</ele>
        <time>2019-08-08T09:36:50.000Z</time>
      </trkpt>
      <trkpt lat="42.91346" lon="0.75338">
        <ele>1122</ele>
        <time>2019-08-08T09:36:51.000Z</time>
      </trkpt>
      <trkpt lat="42.91346" lon="0.75341">
        <ele>1123</ele>
        <time>2019-08-08T09:36:52.000Z</time>
      </trkpt>
      <trkpt lat="42.91345" lon="0.75345">
        <ele>1123</ele>
        <time>2019-08-08T09:36:53.000Z</time>
      </trkpt>
      <trkpt lat="42.91345" lon="0.75348">
        <ele>1123</ele>
        <time>2019-08-08T09:36:54.000Z</time>
      </trkpt>
      <trkpt lat="42.91343" lon="0.75351">
        <ele>1123</ele>
        <time>2019-08-08T09:36:55.000Z</time>
      </trkpt>
      <trkpt lat="42.91342" lon="0.75354">
        <ele>1124</ele>
        <time>2019-08-08T09:36:56.000Z</time>
      </trkpt>
      <trkpt lat="42.91341" lon="0.75357">
        <ele>1124</ele>
        <time>2019-08-08T09:36:57.000Z</time>
      </trkpt>
      <trkpt lat="42.91341" lon="0.7536">
        <ele>1124</ele>
        <time>2019-08-08T09:36:58.000Z</time>
      </trkpt>
      <trkpt lat="42.9134" lon="0.75363">
        <ele>1124</ele>
        <time>2019-08-08T09:36:59.000Z</time>
      </trkpt>
      <trkpt lat="42.91339" lon="0.75366">
        <ele>1124</ele>
        <time>2019-08-08T09:37:00.000Z</time>
      </trkpt>
      <trkpt lat="42.91338" lon="0.75369">
        <ele>1125</ele>
        <time>2019-08-08T09:37:01.000Z</time>
      </trkpt>
      <trkpt lat="42.91337" lon="0.75372">
        <ele>1125</ele>
        <time>2019-08-08T09:37:02.000Z</time>
      </trkpt>
      <trkpt lat="42.91336" lon="0.75375">
        <ele>1125</ele>
        <time>2019-08-08T09:37:03.000Z</time>
      </trkpt>
      <trkpt lat="42.91335" lon="0.75378">
        <ele>1125</ele>
        <time>2019-08-08T09:37:04.000Z</time>
      </trkpt>
      <trkpt lat="42.91334" lon="0.7538">
        <ele>1125</ele>
        <time>2019-08-08T09:37:05.000Z</time>
      </trkpt>
      <trkpt lat="42.91333" lon="0.75383">
        <ele>1126</ele>
        <time>2019-08-08T09:37:06.000Z</time>
      </trkpt>
      <trkpt lat="42.91332" lon="0.75386">
        <ele>1126</ele>
        <time>2019-08-08T09:37:07.000Z</time>
      </trkpt>
      <trkpt lat="42.91331" lon="0.75388">
        <ele>1126</ele>
        <time>2019-08-08T09:37:08.000Z</time>
      </trkpt>
      <trkpt lat="42.9133" lon="0.75391">
        <ele>1126</ele>
        <time>2019-08-08T09:37:09.000Z</time>
      </trkpt>
      <trkpt lat="42.91328" lon="0.75393">
        <ele>1127</ele>
        <time>2019-08-08T09:37:10.000Z</time>
      </trkpt>
      <trkpt lat="42.91327" lon="0.75395">
        <ele>1127</ele>
        <time>2019-08-08T09:37:11.000Z</time>
      </trkpt>
      <trkpt lat="42.91326" lon="0.75398">
        <ele>1127</ele>
        <time>2019-08-08T09:37:12.000Z</time>
      </trkpt>
      <trkpt lat="42.91326" lon="0.75401">
        <ele>1127</ele>
        <time>2019-08-08T09:37:13.000Z</time>
      </trkpt>
      <trkpt lat="42.91326" lon="0.75404">
        <ele>1127</ele>
        <time>2019-08-08T09:37:14.000Z</time>
      </trkpt>
      <trkpt lat="42.91327" lon="0.75406">
        <ele>1127</ele>
        <time>2019-08-08T09:37:15.000Z</time>
      </trkpt>
      <trkpt lat="42.91328" lon="0.75409">
        <ele>1128</ele>
        <time>2019-08-08T09:37:16.000Z</time>
      </trkpt>
      <trkpt lat="42.9133" lon="0.75411">
        <ele>1128</ele>
        <time>2019-08-08T09:37:17.000Z</time>
      </trkpt>
      <trkpt lat="42.91333" lon="0.75412">
        <ele>1129</ele>
        <time>2019-08-08T09:37:18.000Z</time>
      </trkpt>
      <trkpt lat="42.91337" lon="0.75411">
        <ele>1129</ele>
        <time>2019-08-08T09:37:19.000Z</time>
      </trkpt>
      <trkpt lat="42.91338" lon="0.7541">
        <ele>1129</ele>
        <time>2019-08-08T09:37:20.000Z</time>
      </trkpt>
      <trkpt lat="42.91339" lon="0.75408">
        <ele>1129</ele>
        <time>2019-08-08T09:37:21.000Z</time>
      </trkpt>
      <trkpt lat="42.91341" lon="0.75406">
        <ele>1129</ele>
        <time>2019-08-08T09:37:22.000Z</time>
      </trkpt>
      <trkpt lat="42.91344" lon="0.75404">
        <ele>1129</ele>
        <time>2019-08-08T09:37:23.000Z</time>
      </trkpt>
      <trkpt lat="42.91346" lon="0.75401">
        <ele>1129</ele>
        <time>2019-08-08T09:37:24.000Z</time>
      </trkpt>
      <trkpt lat="42.91349" lon="0.75398">
        <ele>1130</ele>
        <time>2019-08-08T09:37:25.000Z</time>
      </trkpt>
      <trkpt lat="42.91349" lon="0.75398">
        <ele>1130</ele>
        <time>2019-08-08T09:37:26.000Z</time>
      </trkpt>
      <trkpt lat="42.91353" lon="0.75391">
        <ele>1130</ele>
        <time>2019-08-08T09:37:27.000Z</time>
      </trkpt>
      <trkpt lat="42.91355" lon="0.75387">
        <ele>1130</ele>
        <time>2019-08-08T09:37:28.000Z</time>
      </trkpt>
      <trkpt lat="42.91357" lon="0.75384">
        <ele>1130</ele>
        <time>2019-08-08T09:37:29.000Z</time>
      </trkpt>
      <trkpt lat="42.91359" lon="0.7538">
        <ele>1130</ele>
        <time>2019-08-08T09:37:30.000Z</time>
      </trkpt>
      <trkpt lat="42.91361" lon="0.75376">
        <ele>1131</ele>
        <time>2019-08-08T09:37:31.000Z</time>
      </trkpt>
      <trkpt lat="42.91363" lon="0.75373">
        <ele>1131</ele>
        <time>2019-08-08T09:37:32.000Z</time>
      </trkpt>
      <trkpt lat="42.91365" lon="0.7537">
        <ele>1132</ele>
        <time>2019-08-08T09:37:33.000Z</time>
      </trkpt>
      <trkpt lat="42.91367" lon="0.75367">
        <ele>1132</ele>
        <time>2019-08-08T09:37:34.000Z</time>
      </trkpt>
      <trkpt lat="42.91369" lon="0.75364">
        <ele>1132</ele>
        <time>2019-08-08T09:37:35.000Z</time>
      </trkpt>
      <trkpt lat="42.91371" lon="0.75361">
        <ele>1132</ele>
        <time>2019-08-08T09:37:36.000Z</time>
      </trkpt>
      <trkpt lat="42.91374" lon="0.75357">
        <ele>1132</ele>
        <time>2019-08-08T09:37:37.000Z</time>
      </trkpt>
      <trkpt lat="42.91375" lon="0.75356">
        <ele>1132</ele>
        <time>2019-08-08T09:37:38.000Z</time>
      </trkpt>
      <trkpt lat="42.91376" lon="0.75353">
        <ele>1133</ele>
        <time>2019-08-08T09:37:39.000Z</time>
      </trkpt>
      <trkpt lat="42.91378" lon="0.75351">
        <ele>1133</ele>
        <time>2019-08-08T09:37:40.000Z</time>
      </trkpt>
      <trkpt lat="42.9138" lon="0.75348">
        <ele>1133</ele>
        <time>2019-08-08T09:37:41.000Z</time>
      </trkpt>
      <trkpt lat="42.91382" lon="0.75346">
        <ele>1133</ele>
        <time>2019-08-08T09:37:42.000Z</time>
      </trkpt>
      <trkpt lat="42.91384" lon="0.75344">
        <ele>1134</ele>
        <time>2019-08-08T09:37:43.000Z</time>
      </trkpt>
      <trkpt lat="42.91386" lon="0.75341">
        <ele>1134</ele>
        <time>2019-08-08T09:37:44.000Z</time>
      </trkpt>
      <trkpt lat="42.91387" lon="0.75339">
        <ele>1134</ele>
        <time>2019-08-08T09:37:45.000Z</time>
      </trkpt>
      <trkpt lat="42.91389" lon="0.75336">
        <ele>1134</ele>
        <time>2019-08-08T09:37:46.000Z</time>
      </trkpt>
      <trkpt lat="42.91391" lon="0.75333">
        <ele>1135</ele>
        <time>2019-08-08T09:37:47.000Z</time>
      </trkpt>
      <trkpt lat="42.91391" lon="0.75333">
        <ele>1135</ele>
        <time>2019-08-08T09:37:48.000Z</time>
      </trkpt>
      <trkpt lat="42.91395" lon="0.75328">
        <ele>1136</ele>
        <time>2019-08-08T09:37:49.000Z</time>
      </trkpt>
      <trkpt lat="42.91398" lon="0.75324">
        <ele>1136</ele>
        <time>2019-08-08T09:37:50.000Z</time>
      </trkpt>
      <trkpt lat="42.91399" lon="0.75323">
        <ele>1137</ele>
        <time>2019-08-08T09:37:51.000Z</time>
      </trkpt>
      <trkpt lat="42.914" lon="0.75321">
        <ele>1137</ele>
        <time>2019-08-08T09:37:52.000Z</time>
      </trkpt>
      <trkpt lat="42.91401" lon="0.7532">
        <ele>1137</ele>
        <time>2019-08-08T09:37:53.000Z</time>
      </trkpt>
      <trkpt lat="42.91405" lon="0.75314">
        <ele>1137</ele>
        <time>2019-08-08T09:37:54.000Z</time>
      </trkpt>
      <trkpt lat="42.91408" lon="0.75312">
        <ele>1137</ele>
        <time>2019-08-08T09:37:55.000Z</time>
      </trkpt>
      <trkpt lat="42.9141" lon="0.7531">
        <ele>1138</ele>
        <time>2019-08-08T09:37:56.000Z</time>
      </trkpt>
      <trkpt lat="42.91412" lon="0.75308">
        <ele>1138</ele>
        <time>2019-08-08T09:37:57.000Z</time>
      </trkpt>
      <trkpt lat="42.91415" lon="0.75307">
        <ele>1139</ele>
        <time>2019-08-08T09:37:58.000Z</time>
      </trkpt>
      <trkpt lat="42.91418" lon="0.75308">
        <ele>1139</ele>
        <time>2019-08-08T09:37:59.000Z</time>
      </trkpt>
      <trkpt lat="42.9142" lon="0.75309">
        <ele>1139</ele>
        <time>2019-08-08T09:38:00.000Z</time>
      </trkpt>
      <trkpt lat="42.91422" lon="0.75312">
        <ele>1139</ele>
        <time>2019-08-08T09:38:01.000Z</time>
      </trkpt>
      <trkpt lat="42.91423" lon="0.75315">
        <ele>1139</ele>
        <time>2019-08-08T09:38:02.000Z</time>
      </trkpt>
      <trkpt lat="42.91423" lon="0.7532">
        <ele>1139</ele>
        <time>2019-08-08T09:38:03.000Z</time>
      </trkpt>
      <trkpt lat="42.91421" lon="0.75323">
        <ele>1140</ele>
        <time>2019-08-08T09:38:04.000Z</time>
      </trkpt>
      <trkpt lat="42.91419" lon="0.75327">
        <ele>1140</ele>
        <time>2019-08-08T09:38:05.000Z</time>
      </trkpt>
      <trkpt lat="42.91417" lon="0.7533">
        <ele>1140</ele>
        <time>2019-08-08T09:38:06.000Z</time>
      </trkpt>
      <trkpt lat="42.91414" lon="0.75334">
        <ele>1140</ele>
        <time>2019-08-08T09:38:07.000Z</time>
      </trkpt>
      <trkpt lat="42.91412" lon="0.75338">
        <ele>1141</ele>
        <time>2019-08-08T09:38:08.000Z</time>
      </trkpt>
      <trkpt lat="42.9141" lon="0.75343">
        <ele>1141</ele>
        <time>2019-08-08T09:38:09.000Z</time>
      </trkpt>
      <trkpt lat="42.91409" lon="0.75347">
        <ele>1141</ele>
        <time>2019-08-08T09:38:10.000Z</time>
      </trkpt>
      <trkpt lat="42.91407" lon="0.75352">
        <ele>1141</ele>
        <time>2019-08-08T09:38:11.000Z</time>
      </trkpt>
      <trkpt lat="42.91406" lon="0.75356">
        <ele>1141</ele>
        <time>2019-08-08T09:38:12.000Z</time>
      </trkpt>
      <trkpt lat="42.91404" lon="0.7536">
        <ele>1141</ele>
        <time>2019-08-08T09:38:13.000Z</time>
      </trkpt>
      <trkpt lat="42.91404" lon="0.75364">
        <ele>1141</ele>
        <time>2019-08-08T09:38:14.000Z</time>
      </trkpt>
      <trkpt lat="42.91403" lon="0.75368">
        <ele>1142</ele>
        <time>2019-08-08T09:38:15.000Z</time>
      </trkpt>
      <trkpt lat="42.91403" lon="0.75372">
        <ele>1142</ele>
        <time>2019-08-08T09:38:16.000Z</time>
      </trkpt>
      <trkpt lat="42.91404" lon="0.75376">
        <ele>1143</ele>
        <time>2019-08-08T09:38:17.000Z</time>
      </trkpt>
      <trkpt lat="42.91404" lon="0.7538">
        <ele>1143</ele>
        <time>2019-08-08T09:38:18.000Z</time>
      </trkpt>
      <trkpt lat="42.91404" lon="0.75384">
        <ele>1143</ele>
        <time>2019-08-08T09:38:19.000Z</time>
      </trkpt>
      <trkpt lat="42.91404" lon="0.75388">
        <ele>1143</ele>
        <time>2019-08-08T09:38:20.000Z</time>
      </trkpt>
      <trkpt lat="42.91404" lon="0.75392">
        <ele>1143</ele>
        <time>2019-08-08T09:38:21.000Z</time>
      </trkpt>
      <trkpt lat="42.91404" lon="0.75396">
        <ele>1143</ele>
        <time>2019-08-08T09:38:22.000Z</time>
      </trkpt>
      <trkpt lat="42.91404" lon="0.754">
        <ele>1144</ele>
        <time>2019-08-08T09:38:23.000Z</time>
      </trkpt>
      <trkpt lat="42.91404" lon="0.75404">
        <ele>1144</ele>
        <time>2019-08-08T09:38:24.000Z</time>
      </trkpt>
      <trkpt lat="42.91405" lon="0.75407">
        <ele>1144</ele>
        <time>2019-08-08T09:38:25.000Z</time>
      </trkpt>
      <trkpt lat="42.91404" lon="0.75411">
        <ele>1144</ele>
        <time>2019-08-08T09:38:26.000Z</time>
      </trkpt>
      <trkpt lat="42.91404" lon="0.75415">
        <ele>1145</ele>
        <time>2019-08-08T09:38:27.000Z</time>
      </trkpt>
      <trkpt lat="42.91404" lon="0.75419">
        <ele>1145</ele>
        <time>2019-08-08T09:38:28.000Z</time>
      </trkpt>
      <trkpt lat="42.91404" lon="0.75423">
        <ele>1145</ele>
        <time>2019-08-08T09:38:29.000Z</time>
      </trkpt>
      <trkpt lat="42.91403" lon="0.75427">
        <ele>1146</ele>
        <time>2019-08-08T09:38:30.000Z</time>
      </trkpt>
      <trkpt lat="42.91403" lon="0.75431">
        <ele>1146</ele>
        <time>2019-08-08T09:38:31.000Z</time>
      </trkpt>
      <trkpt lat="42.91403" lon="0.75434">
        <ele>1147</ele>
        <time>2019-08-08T09:38:32.000Z</time>
      </trkpt>
      <trkpt lat="42.91403" lon="0.75438">
        <ele>1147</ele>
        <time>2019-08-08T09:38:33.000Z</time>
      </trkpt>
      <trkpt lat="42.91402" lon="0.75442">
        <ele>1148</ele>
        <time>2019-08-08T09:38:34.000Z</time>
      </trkpt>
      <trkpt lat="42.91402" lon="0.75446">
        <ele>1148</ele>
        <time>2019-08-08T09:38:35.000Z</time>
      </trkpt>
      <trkpt lat="42.91401" lon="0.7545">
        <ele>1149</ele>
        <time>2019-08-08T09:38:36.000Z</time>
      </trkpt>
      <trkpt lat="42.914" lon="0.75454">
        <ele>1149</ele>
        <time>2019-08-08T09:38:37.000Z</time>
      </trkpt>
      <trkpt lat="42.91399" lon="0.75457">
        <ele>1149</ele>
        <time>2019-08-08T09:38:38.000Z</time>
      </trkpt>
      <trkpt lat="42.91398" lon="0.7546">
        <ele>1149</ele>
        <time>2019-08-08T09:38:39.000Z</time>
      </trkpt>
      <trkpt lat="42.91397" lon="0.75464">
        <ele>1149</ele>
        <time>2019-08-08T09:38:40.000Z</time>
      </trkpt>
      <trkpt lat="42.91395" lon="0.75467">
        <ele>1149</ele>
        <time>2019-08-08T09:38:41.000Z</time>
      </trkpt>
      <trkpt lat="42.91394" lon="0.7547">
        <ele>1149</ele>
        <time>2019-08-08T09:38:42.000Z</time>
      </trkpt>
      <trkpt lat="42.91391" lon="0.75474">
        <ele>1149</ele>
        <time>2019-08-08T09:38:43.000Z</time>
      </trkpt>
      <trkpt lat="42.9139" lon="0.75475">
        <ele>1150</ele>
        <time>2019-08-08T09:38:44.000Z</time>
      </trkpt>
      <trkpt lat="42.91388" lon="0.75478">
        <ele>1150</ele>
        <time>2019-08-08T09:38:45.000Z</time>
      </trkpt>
      <trkpt lat="42.91386" lon="0.75481">
        <ele>1151</ele>
        <time>2019-08-08T09:38:46.000Z</time>
      </trkpt>
      <trkpt lat="42.91384" lon="0.75485">
        <ele>1151</ele>
        <time>2019-08-08T09:38:47.000Z</time>
      </trkpt>
      <trkpt lat="42.91382" lon="0.75488">
        <ele>1151</ele>
        <time>2019-08-08T09:38:48.000Z</time>
      </trkpt>
      <trkpt lat="42.9138" lon="0.7549">
        <ele>1151</ele>
        <time>2019-08-08T09:38:49.000Z</time>
      </trkpt>
      <trkpt lat="42.91379" lon="0.75493">
        <ele>1151</ele>
        <time>2019-08-08T09:38:50.000Z</time>
      </trkpt>
      <trkpt lat="42.91377" lon="0.75496">
        <ele>1152</ele>
        <time>2019-08-08T09:38:51.000Z</time>
      </trkpt>
      <trkpt lat="42.91376" lon="0.75499">
        <ele>1152</ele>
        <time>2019-08-08T09:38:52.000Z</time>
      </trkpt>
      <trkpt lat="42.91375" lon="0.75503">
        <ele>1152</ele>
        <time>2019-08-08T09:38:53.000Z</time>
      </trkpt>
      <trkpt lat="42.91375" lon="0.75506">
        <ele>1152</ele>
        <time>2019-08-08T09:38:54.000Z</time>
      </trkpt>
      <trkpt lat="42.91375" lon="0.7551">
        <ele>1152</ele>
        <time>2019-08-08T09:38:55.000Z</time>
      </trkpt>
      <trkpt lat="42.91376" lon="0.75514">
        <ele>1152</ele>
        <time>2019-08-08T09:38:56.000Z</time>
      </trkpt>
      <trkpt lat="42.91378" lon="0.75517">
        <ele>1153</ele>
        <time>2019-08-08T09:38:57.000Z</time>
      </trkpt>
      <trkpt lat="42.91381" lon="0.75518">
        <ele>1153</ele>
        <time>2019-08-08T09:38:58.000Z</time>
      </trkpt>
      <trkpt lat="42.91384" lon="0.75518">
        <ele>1153</ele>
        <time>2019-08-08T09:38:59.000Z</time>
      </trkpt>
      <trkpt lat="42.91387" lon="0.75517">
        <ele>1153</ele>
        <time>2019-08-08T09:39:00.000Z</time>
      </trkpt>
      <trkpt lat="42.91389" lon="0.75515">
        <ele>1155</ele>
        <time>2019-08-08T09:39:01.000Z</time>
      </trkpt>
      <trkpt lat="42.91392" lon="0.75513">
        <ele>1155</ele>
        <time>2019-08-08T09:39:02.000Z</time>
      </trkpt>
      <trkpt lat="42.91394" lon="0.7551">
        <ele>1155</ele>
        <time>2019-08-08T09:39:03.000Z</time>
      </trkpt>
      <trkpt lat="42.91397" lon="0.75508">
        <ele>1155</ele>
        <time>2019-08-08T09:39:04.000Z</time>
      </trkpt>
      <trkpt lat="42.91399" lon="0.75505">
        <ele>1156</ele>
        <time>2019-08-08T09:39:05.000Z</time>
      </trkpt>
      <trkpt lat="42.91401" lon="0.75502">
        <ele>1156</ele>
        <time>2019-08-08T09:39:06.000Z</time>
      </trkpt>
      <trkpt lat="42.91403" lon="0.755">
        <ele>1156</ele>
        <time>2019-08-08T09:39:07.000Z</time>
      </trkpt>
      <trkpt lat="42.91406" lon="0.75498">
        <ele>1156</ele>
        <time>2019-08-08T09:39:08.000Z</time>
      </trkpt>
      <trkpt lat="42.91408" lon="0.75495">
        <ele>1156</ele>
        <time>2019-08-08T09:39:09.000Z</time>
      </trkpt>
      <trkpt lat="42.91411" lon="0.75493">
        <ele>1157</ele>
        <time>2019-08-08T09:39:10.000Z</time>
      </trkpt>
      <trkpt lat="42.91413" lon="0.75491">
        <ele>1157</ele>
        <time>2019-08-08T09:39:11.000Z</time>
      </trkpt>
      <trkpt lat="42.91416" lon="0.75489">
        <ele>1157</ele>
        <time>2019-08-08T09:39:12.000Z</time>
      </trkpt>
      <trkpt lat="42.91418" lon="0.75487">
        <ele>1157</ele>
        <time>2019-08-08T09:39:13.000Z</time>
      </trkpt>
      <trkpt lat="42.91421" lon="0.75485">
        <ele>1157</ele>
        <time>2019-08-08T09:39:14.000Z</time>
      </trkpt>
      <trkpt lat="42.91424" lon="0.75483">
        <ele>1157</ele>
        <time>2019-08-08T09:39:15.000Z</time>
      </trkpt>
      <trkpt lat="42.91426" lon="0.75481">
        <ele>1158</ele>
        <time>2019-08-08T09:39:16.000Z</time>
      </trkpt>
      <trkpt lat="42.91429" lon="0.75479">
        <ele>1158</ele>
        <time>2019-08-08T09:39:17.000Z</time>
      </trkpt>
      <trkpt lat="42.91432" lon="0.75477">
        <ele>1158</ele>
        <time>2019-08-08T09:39:18.000Z</time>
      </trkpt>
      <trkpt lat="42.91432" lon="0.75477">
        <ele>1158</ele>
        <time>2019-08-08T09:39:19.000Z</time>
      </trkpt>
      <trkpt lat="42.91432" lon="0.75477">
        <ele>1158</ele>
        <time>2019-08-08T09:39:20.000Z</time>
      </trkpt>
      <trkpt lat="42.91432" lon="0.75477">
        <ele>1159</ele>
        <time>2019-08-08T09:39:21.000Z</time>
      </trkpt>
      <trkpt lat="42.91441" lon="0.7547">
        <ele>1159</ele>
        <time>2019-08-08T09:39:22.000Z</time>
      </trkpt>
      <trkpt lat="42.91443" lon="0.75468">
        <ele>1159</ele>
        <time>2019-08-08T09:39:23.000Z</time>
      </trkpt>
      <trkpt lat="42.91446" lon="0.75465">
        <ele>1160</ele>
        <time>2019-08-08T09:39:24.000Z</time>
      </trkpt>
      <trkpt lat="42.91448" lon="0.75463">
        <ele>1160</ele>
        <time>2019-08-08T09:39:25.000Z</time>
      </trkpt>
      <trkpt lat="42.9145" lon="0.7546">
        <ele>1160</ele>
        <time>2019-08-08T09:39:26.000Z</time>
      </trkpt>
      <trkpt lat="42.91452" lon="0.75457">
        <ele>1160</ele>
        <time>2019-08-08T09:39:27.000Z</time>
      </trkpt>
      <trkpt lat="42.91455" lon="0.75455">
        <ele>1161</ele>
        <time>2019-08-08T09:39:28.000Z</time>
      </trkpt>
      <trkpt lat="42.91457" lon="0.75453">
        <ele>1161</ele>
        <time>2019-08-08T09:39:29.000Z</time>
      </trkpt>
      <trkpt lat="42.9146" lon="0.75451">
        <ele>1161</ele>
        <time>2019-08-08T09:39:30.000Z</time>
      </trkpt>
      <trkpt lat="42.91462" lon="0.7545">
        <ele>1161</ele>
        <time>2019-08-08T09:39:31.000Z</time>
      </trkpt>
      <trkpt lat="42.91465" lon="0.75449">
        <ele>1161</ele>
        <time>2019-08-08T09:39:32.000Z</time>
      </trkpt>
      <trkpt lat="42.91467" lon="0.75451">
        <ele>1161</ele>
        <time>2019-08-08T09:39:33.000Z</time>
      </trkpt>
      <trkpt lat="42.91469" lon="0.75453">
        <ele>1161</ele>
        <time>2019-08-08T09:39:34.000Z</time>
      </trkpt>
      <trkpt lat="42.9147" lon="0.75457">
        <ele>1162</ele>
        <time>2019-08-08T09:39:35.000Z</time>
      </trkpt>
      <trkpt lat="42.91469" lon="0.75462">
        <ele>1162</ele>
        <time>2019-08-08T09:39:36.000Z</time>
      </trkpt>
      <trkpt lat="42.91467" lon="0.75465">
        <ele>1163</ele>
        <time>2019-08-08T09:39:37.000Z</time>
      </trkpt>
      <trkpt lat="42.91464" lon="0.75468">
        <ele>1163</ele>
        <time>2019-08-08T09:39:38.000Z</time>
      </trkpt>
      <trkpt lat="42.91461" lon="0.75471">
        <ele>1163</ele>
        <time>2019-08-08T09:39:39.000Z</time>
      </trkpt>
      <trkpt lat="42.91458" lon="0.75474">
        <ele>1163</ele>
        <time>2019-08-08T09:39:40.000Z</time>
      </trkpt>
      <trkpt lat="42.91455" lon="0.75478">
        <ele>1164</ele>
        <time>2019-08-08T09:39:41.000Z</time>
      </trkpt>
      <trkpt lat="42.91452" lon="0.75482">
        <ele>1164</ele>
        <time>2019-08-08T09:39:42.000Z</time>
      </trkpt>
      <trkpt lat="42.91449" lon="0.75485">
        <ele>1164</ele>
        <time>2019-08-08T09:39:43.000Z</time>
      </trkpt>
      <trkpt lat="42.91447" lon="0.75489">
        <ele>1164</ele>
        <time>2019-08-08T09:39:44.000Z</time>
      </trkpt>
      <trkpt lat="42.91445" lon="0.75493">
        <ele>1165</ele>
        <time>2019-08-08T09:39:45.000Z</time>
      </trkpt>
      <trkpt lat="42.91443" lon="0.75497">
        <ele>1165</ele>
        <time>2019-08-08T09:39:46.000Z</time>
      </trkpt>
      <trkpt lat="42.91442" lon="0.75501">
        <ele>1165</ele>
        <time>2019-08-08T09:39:47.000Z</time>
      </trkpt>
      <trkpt lat="42.91442" lon="0.75505">
        <ele>1166</ele>
        <time>2019-08-08T09:39:48.000Z</time>
      </trkpt>
      <trkpt lat="42.91441" lon="0.75509">
        <ele>1166</ele>
        <time>2019-08-08T09:39:49.000Z</time>
      </trkpt>
      <trkpt lat="42.9144" lon="0.75513">
        <ele>1166</ele>
        <time>2019-08-08T09:39:50.000Z</time>
      </trkpt>
      <trkpt lat="42.91439" lon="0.75519">
        <ele>1166</ele>
        <time>2019-08-08T09:39:51.000Z</time>
      </trkpt>
      <trkpt lat="42.91438" lon="0.75521">
        <ele>1166</ele>
        <time>2019-08-08T09:39:52.000Z</time>
      </trkpt>
      <trkpt lat="42.91437" lon="0.75525">
        <ele>1166</ele>
        <time>2019-08-08T09:39:53.000Z</time>
      </trkpt>
      <trkpt lat="42.91437" lon="0.75529">
        <ele>1166</ele>
        <time>2019-08-08T09:39:54.000Z</time>
      </trkpt>
      <trkpt lat="42.91436" lon="0.75533">
        <ele>1168</ele>
        <time>2019-08-08T09:39:55.000Z</time>
      </trkpt>
      <trkpt lat="42.91436" lon="0.75537">
        <ele>1168</ele>
        <time>2019-08-08T09:39:56.000Z</time>
      </trkpt>
      <trkpt lat="42.91435" lon="0.75541">
        <ele>1168</ele>
        <time>2019-08-08T09:39:57.000Z</time>
      </trkpt>
      <trkpt lat="42.91434" lon="0.75545">
        <ele>1168</ele>
        <time>2019-08-08T09:39:58.000Z</time>
      </trkpt>
      <trkpt lat="42.91433" lon="0.75549">
        <ele>1168</ele>
        <time>2019-08-08T09:39:59.000Z</time>
      </trkpt>
      <trkpt lat="42.91433" lon="0.75553">
        <ele>1169</ele>
        <time>2019-08-08T09:40:00.000Z</time>
      </trkpt>
      <trkpt lat="42.91432" lon="0.75557">
        <ele>1169</ele>
        <time>2019-08-08T09:40:01.000Z</time>
      </trkpt>
      <trkpt lat="42.91432" lon="0.75561">
        <ele>1169</ele>
        <time>2019-08-08T09:40:02.000Z</time>
      </trkpt>
      <trkpt lat="42.91431" lon="0.75566">
        <ele>1169</ele>
        <time>2019-08-08T09:40:03.000Z</time>
      </trkpt>
      <trkpt lat="42.9143" lon="0.75569">
        <ele>1170</ele>
        <time>2019-08-08T09:40:04.000Z</time>
      </trkpt>
      <trkpt lat="42.91429" lon="0.75574">
        <ele>1170</ele>
        <time>2019-08-08T09:40:05.000Z</time>
      </trkpt>
      <trkpt lat="42.91429" lon="0.75578">
        <ele>1170</ele>
        <time>2019-08-08T09:40:06.000Z</time>
      </trkpt>
      <trkpt lat="42.91429" lon="0.75582">
        <ele>1170</ele>
        <time>2019-08-08T09:40:07.000Z</time>
      </trkpt>
      <trkpt lat="42.91429" lon="0.75585">
        <ele>1170</ele>
        <time>2019-08-08T09:40:08.000Z</time>
      </trkpt>
      <trkpt lat="42.91428" lon="0.75592">
        <ele>1170</ele>
        <time>2019-08-08T09:40:09.000Z</time>
      </trkpt>
      <trkpt lat="42.91427" lon="0.75594">
        <ele>1170</ele>
        <time>2019-08-08T09:40:10.000Z</time>
      </trkpt>
      <trkpt lat="42.91427" lon="0.75598">
        <ele>1171</ele>
        <time>2019-08-08T09:40:11.000Z</time>
      </trkpt>
      <trkpt lat="42.91426" lon="0.75602">
        <ele>1171</ele>
        <time>2019-08-08T09:40:12.000Z</time>
      </trkpt>
      <trkpt lat="42.91425" lon="0.75605">
        <ele>1172</ele>
        <time>2019-08-08T09:40:13.000Z</time>
      </trkpt>
      <trkpt lat="42.91424" lon="0.75609">
        <ele>1172</ele>
        <time>2019-08-08T09:40:14.000Z</time>
      </trkpt>
      <trkpt lat="42.91423" lon="0.75613">
        <ele>1173</ele>
        <time>2019-08-08T09:40:15.000Z</time>
      </trkpt>
      <trkpt lat="42.91422" lon="0.75617">
        <ele>1173</ele>
        <time>2019-08-08T09:40:16.000Z</time>
      </trkpt>
      <trkpt lat="42.91421" lon="0.7562">
        <ele>1174</ele>
        <time>2019-08-08T09:40:17.000Z</time>
      </trkpt>
      <trkpt lat="42.91419" lon="0.75624">
        <ele>1174</ele>
        <time>2019-08-08T09:40:18.000Z</time>
      </trkpt>
      <trkpt lat="42.91418" lon="0.75627">
        <ele>1175</ele>
        <time>2019-08-08T09:40:19.000Z</time>
      </trkpt>
      <trkpt lat="42.91417" lon="0.7563">
        <ele>1175</ele>
        <time>2019-08-08T09:40:20.000Z</time>
      </trkpt>
      <trkpt lat="42.91416" lon="0.75633">
        <ele>1175</ele>
        <time>2019-08-08T09:40:21.000Z</time>
      </trkpt>
      <trkpt lat="42.91415" lon="0.75636">
        <ele>1175</ele>
        <time>2019-08-08T09:40:22.000Z</time>
      </trkpt>
      <trkpt lat="42.91413" lon="0.75639">
        <ele>1175</ele>
        <time>2019-08-08T09:40:23.000Z</time>
      </trkpt>
      <trkpt lat="42.91411" lon="0.75643">
        <ele>1175</ele>
        <time>2019-08-08T09:40:24.000Z</time>
      </trkpt>
      <trkpt lat="42.91411" lon="0.75645">
        <ele>1175</ele>
        <time>2019-08-08T09:40:25.000Z</time>
      </trkpt>
      <trkpt lat="42.91409" lon="0.75647">
        <ele>1175</ele>
        <time>2019-08-08T09:40:26.000Z</time>
      </trkpt>
      <trkpt lat="42.91408" lon="0.7565">
        <ele>1176</ele>
        <time>2019-08-08T09:40:27.000Z</time>
      </trkpt>
      <trkpt lat="42.91406" lon="0.75653">
        <ele>1176</ele>
        <time>2019-08-08T09:40:28.000Z</time>
      </trkpt>
      <trkpt lat="42.91405" lon="0.75656">
        <ele>1176</ele>
        <time>2019-08-08T09:40:29.000Z</time>
      </trkpt>
      <trkpt lat="42.91403" lon="0.75659">
        <ele>1178</ele>
        <time>2019-08-08T09:40:30.000Z</time>
      </trkpt>
      <trkpt lat="42.91402" lon="0.75662">
        <ele>1178</ele>
        <time>2019-08-08T09:40:31.000Z</time>
      </trkpt>
      <trkpt lat="42.91401" lon="0.75665">
        <ele>1178</ele>
        <time>2019-08-08T09:40:32.000Z</time>
      </trkpt>
      <trkpt lat="42.91401" lon="0.75669">
        <ele>1178</ele>
        <time>2019-08-08T09:40:33.000Z</time>
      </trkpt>
      <trkpt lat="42.91401" lon="0.75672">
        <ele>1179</ele>
        <time>2019-08-08T09:40:34.000Z</time>
      </trkpt>
      <trkpt lat="42.91401" lon="0.75675">
        <ele>1179</ele>
        <time>2019-08-08T09:40:35.000Z</time>
      </trkpt>
      <trkpt lat="42.91402" lon="0.75679">
        <ele>1180</ele>
        <time>2019-08-08T09:40:36.000Z</time>
      </trkpt>
      <trkpt lat="42.91403" lon="0.75682">
        <ele>1180</ele>
        <time>2019-08-08T09:40:37.000Z</time>
      </trkpt>
      <trkpt lat="42.91406" lon="0.75685">
        <ele>1180</ele>
        <time>2019-08-08T09:40:38.000Z</time>
      </trkpt>
      <trkpt lat="42.91409" lon="0.75686">
        <ele>1180</ele>
        <time>2019-08-08T09:40:39.000Z</time>
      </trkpt>
      <trkpt lat="42.91412" lon="0.75685">
        <ele>1180</ele>
        <time>2019-08-08T09:40:40.000Z</time>
      </trkpt>
      <trkpt lat="42.91415" lon="0.75684">
        <ele>1180</ele>
        <time>2019-08-08T09:40:41.000Z</time>
      </trkpt>
      <trkpt lat="42.91418" lon="0.75682">
        <ele>1181</ele>
        <time>2019-08-08T09:40:42.000Z</time>
      </trkpt>
      <trkpt lat="42.91421" lon="0.7568">
        <ele>1181</ele>
        <time>2019-08-08T09:40:43.000Z</time>
      </trkpt>
      <trkpt lat="42.91424" lon="0.75677">
        <ele>1181</ele>
        <time>2019-08-08T09:40:44.000Z</time>
      </trkpt>
      <trkpt lat="42.91426" lon="0.75674">
        <ele>1181</ele>
        <time>2019-08-08T09:40:45.000Z</time>
      </trkpt>
      <trkpt lat="42.91429" lon="0.75671">
        <ele>1181</ele>
        <time>2019-08-08T09:40:46.000Z</time>
      </trkpt>
      <trkpt lat="42.91432" lon="0.75668">
        <ele>1181</ele>
        <time>2019-08-08T09:40:47.000Z</time>
      </trkpt>
      <trkpt lat="42.91434" lon="0.75665">
        <ele>1181</ele>
        <time>2019-08-08T09:40:48.000Z</time>
      </trkpt>
      <trkpt lat="42.91437" lon="0.75661">
        <ele>1181</ele>
        <time>2019-08-08T09:40:49.000Z</time>
      </trkpt>
      <trkpt lat="42.91439" lon="0.75658">
        <ele>1181</ele>
        <time>2019-08-08T09:40:50.000Z</time>
      </trkpt>
      <trkpt lat="42.91442" lon="0.75655">
        <ele>1182</ele>
        <time>2019-08-08T09:40:51.000Z</time>
      </trkpt>
      <trkpt lat="42.91444" lon="0.75652">
        <ele>1182</ele>
        <time>2019-08-08T09:40:52.000Z</time>
      </trkpt>
      <trkpt lat="42.91447" lon="0.75649">
        <ele>1183</ele>
        <time>2019-08-08T09:40:53.000Z</time>
      </trkpt>
      <trkpt lat="42.91449" lon="0.75646">
        <ele>1183</ele>
        <time>2019-08-08T09:40:54.000Z</time>
      </trkpt>
      <trkpt lat="42.91451" lon="0.75643">
        <ele>1184</ele>
        <time>2019-08-08T09:40:55.000Z</time>
      </trkpt>
      <trkpt lat="42.91453" lon="0.75639">
        <ele>1184</ele>
        <time>2019-08-08T09:40:56.000Z</time>
      </trkpt>
      <trkpt lat="42.91455" lon="0.75636">
        <ele>1184</ele>
        <time>2019-08-08T09:40:57.000Z</time>
      </trkpt>
      <trkpt lat="42.91457" lon="0.75632">
        <ele>1185</ele>
        <time>2019-08-08T09:40:58.000Z</time>
      </trkpt>
      <trkpt lat="42.91458" lon="0.75628">
        <ele>1185</ele>
        <time>2019-08-08T09:40:59.000Z</time>
      </trkpt>
      <trkpt lat="42.9146" lon="0.75624">
        <ele>1185</ele>
        <time>2019-08-08T09:41:00.000Z</time>
      </trkpt>
      <trkpt lat="42.91462" lon="0.75621">
        <ele>1185</ele>
        <time>2019-08-08T09:41:01.000Z</time>
      </trkpt>
      <trkpt lat="42.91464" lon="0.75618">
        <ele>1186</ele>
        <time>2019-08-08T09:41:02.000Z</time>
      </trkpt>
      <trkpt lat="42.91466" lon="0.75615">
        <ele>1186</ele>
        <time>2019-08-08T09:41:03.000Z</time>
      </trkpt>
      <trkpt lat="42.91468" lon="0.75612">
        <ele>1187</ele>
        <time>2019-08-08T09:41:04.000Z</time>
      </trkpt>
      <trkpt lat="42.9147" lon="0.75609">
        <ele>1187</ele>
        <time>2019-08-08T09:41:05.000Z</time>
      </trkpt>
      <trkpt lat="42.91472" lon="0.75606">
        <ele>1188</ele>
        <time>2019-08-08T09:41:06.000Z</time>
      </trkpt>
      <trkpt lat="42.91474" lon="0.75603">
        <ele>1188</ele>
        <time>2019-08-08T09:41:07.000Z</time>
      </trkpt>
      <trkpt lat="42.91476" lon="0.756">
        <ele>1188</ele>
        <time>2019-08-08T09:41:08.000Z</time>
      </trkpt>
      <trkpt lat="42.91478" lon="0.75597">
        <ele>1189</ele>
        <time>2019-08-08T09:41:09.000Z</time>
      </trkpt>
      <trkpt lat="42.9148" lon="0.75595">
        <ele>1189</ele>
        <time>2019-08-08T09:41:10.000Z</time>
      </trkpt>
      <trkpt lat="42.91483" lon="0.75593">
        <ele>1189</ele>
        <time>2019-08-08T09:41:11.000Z</time>
      </trkpt>
      <trkpt lat="42.91485" lon="0.75592">
        <ele>1189</ele>
        <time>2019-08-08T09:41:12.000Z</time>
      </trkpt>
      <trkpt lat="42.91488" lon="0.75592">
        <ele>1190</ele>
        <time>2019-08-08T09:41:13.000Z</time>
      </trkpt>
      <trkpt lat="42.9149" lon="0.75595">
        <ele>1190</ele>
        <time>2019-08-08T09:41:14.000Z</time>
      </trkpt>
      <trkpt lat="42.91491" lon="0.75598">
        <ele>1190</ele>
        <time>2019-08-08T09:41:15.000Z</time>
      </trkpt>
      <trkpt lat="42.91492" lon="0.75603">
        <ele>1190</ele>
        <time>2019-08-08T09:41:16.000Z</time>
      </trkpt>
      <trkpt lat="42.91492" lon="0.75607">
        <ele>1190</ele>
        <time>2019-08-08T09:41:17.000Z</time>
      </trkpt>
      <trkpt lat="42.91491" lon="0.75611">
        <ele>1191</ele>
        <time>2019-08-08T09:41:18.000Z</time>
      </trkpt>
      <trkpt lat="42.91491" lon="0.75616">
        <ele>1191</ele>
        <time>2019-08-08T09:41:19.000Z</time>
      </trkpt>
      <trkpt lat="42.9149" lon="0.7562">
        <ele>1191</ele>
        <time>2019-08-08T09:41:20.000Z</time>
      </trkpt>
      <trkpt lat="42.91489" lon="0.75623">
        <ele>1191</ele>
        <time>2019-08-08T09:41:21.000Z</time>
      </trkpt>
      <trkpt lat="42.91488" lon="0.75627">
        <ele>1192</ele>
        <time>2019-08-08T09:41:22.000Z</time>
      </trkpt>
      <trkpt lat="42.91487" lon="0.75632">
        <ele>1192</ele>
        <time>2019-08-08T09:41:23.000Z</time>
      </trkpt>
      <trkpt lat="42.91486" lon="0.75636">
        <ele>1193</ele>
        <time>2019-08-08T09:41:24.000Z</time>
      </trkpt>
      <trkpt lat="42.91486" lon="0.75641">
        <ele>1193</ele>
        <time>2019-08-08T09:41:25.000Z</time>
      </trkpt>
      <trkpt lat="42.91485" lon="0.75645">
        <ele>1193</ele>
        <time>2019-08-08T09:41:26.000Z</time>
      </trkpt>
      <trkpt lat="42.91485" lon="0.75645">
        <ele>1194</ele>
        <time>2019-08-08T09:41:27.000Z</time>
      </trkpt>
      <trkpt lat="42.91485" lon="0.75654">
        <ele>1194</ele>
        <time>2019-08-08T09:41:28.000Z</time>
      </trkpt>
      <trkpt lat="42.91484" lon="0.75658">
        <ele>1194</ele>
        <time>2019-08-08T09:41:29.000Z</time>
      </trkpt>
      <trkpt lat="42.91484" lon="0.75662">
        <ele>1194</ele>
        <time>2019-08-08T09:41:30.000Z</time>
      </trkpt>
      <trkpt lat="42.91483" lon="0.75666">
        <ele>1195</ele>
        <time>2019-08-08T09:41:31.000Z</time>
      </trkpt>
      <trkpt lat="42.91483" lon="0.7567">
        <ele>1195</ele>
        <time>2019-08-08T09:41:32.000Z</time>
      </trkpt>
      <trkpt lat="42.91482" lon="0.75674">
        <ele>1196</ele>
        <time>2019-08-08T09:41:33.000Z</time>
      </trkpt>
      <trkpt lat="42.91482" lon="0.75678">
        <ele>1196</ele>
        <time>2019-08-08T09:41:34.000Z</time>
      </trkpt>
      <trkpt lat="42.91481" lon="0.75682">
        <ele>1197</ele>
        <time>2019-08-08T09:41:35.000Z</time>
      </trkpt>
      <trkpt lat="42.91481" lon="0.75686">
        <ele>1197</ele>
        <time>2019-08-08T09:41:36.000Z</time>
      </trkpt>
      <trkpt lat="42.9148" lon="0.75689">
        <ele>1197</ele>
        <time>2019-08-08T09:41:37.000Z</time>
      </trkpt>
      <trkpt lat="42.91479" lon="0.75693">
        <ele>1197</ele>
        <time>2019-08-08T09:41:38.000Z</time>
      </trkpt>
      <trkpt lat="42.91478" lon="0.75696">
        <ele>1197</ele>
        <time>2019-08-08T09:41:39.000Z</time>
      </trkpt>
      <trkpt lat="42.91477" lon="0.75699">
        <ele>1197</ele>
        <time>2019-08-08T09:41:40.000Z</time>
      </trkpt>
      <trkpt lat="42.91476" lon="0.75703">
        <ele>1198</ele>
        <time>2019-08-08T09:41:41.000Z</time>
      </trkpt>
      <trkpt lat="42.91474" lon="0.75706">
        <ele>1198</ele>
        <time>2019-08-08T09:41:42.000Z</time>
      </trkpt>
      <trkpt lat="42.91474" lon="0.75709">
        <ele>1199</ele>
        <time>2019-08-08T09:41:43.000Z</time>
      </trkpt>
      <trkpt lat="42.91473" lon="0.75712">
        <ele>1199</ele>
        <time>2019-08-08T09:41:44.000Z</time>
      </trkpt>
      <trkpt lat="42.91473" lon="0.75715">
        <ele>1199</ele>
        <time>2019-08-08T09:41:45.000Z</time>
      </trkpt>
      <trkpt lat="42.91473" lon="0.75718">
        <ele>1199</ele>
        <time>2019-08-08T09:41:46.000Z</time>
      </trkpt>
      <trkpt lat="42.91475" lon="0.75724">
        <ele>1199</ele>
        <time>2019-08-08T09:41:47.000Z</time>
      </trkpt>
      <trkpt lat="42.91475" lon="0.75725">
        <ele>1200</ele>
        <time>2019-08-08T09:41:48.000Z</time>
      </trkpt>
      <trkpt lat="42.91477" lon="0.75727">
        <ele>1200</ele>
        <time>2019-08-08T09:41:49.000Z</time>
      </trkpt>
      <trkpt lat="42.9148" lon="0.75728">
        <ele>1201</ele>
        <time>2019-08-08T09:41:50.000Z</time>
      </trkpt>
      <trkpt lat="42.91483" lon="0.75728">
        <ele>1201</ele>
        <time>2019-08-08T09:41:51.000Z</time>
      </trkpt>
      <trkpt lat="42.91485" lon="0.75727">
        <ele>1202</ele>
        <time>2019-08-08T09:41:52.000Z</time>
      </trkpt>
      <trkpt lat="42.91488" lon="0.75726">
        <ele>1202</ele>
        <time>2019-08-08T09:41:53.000Z</time>
      </trkpt>
      <trkpt lat="42.9149" lon="0.75723">
        <ele>1202</ele>
        <time>2019-08-08T09:41:54.000Z</time>
      </trkpt>
      <trkpt lat="42.91492" lon="0.7572">
        <ele>1202</ele>
        <time>2019-08-08T09:41:55.000Z</time>
      </trkpt>
      <trkpt lat="42.91495" lon="0.75718">
        <ele>1202</ele>
        <time>2019-08-08T09:41:56.000Z</time>
      </trkpt>
      <trkpt lat="42.91497" lon="0.75714">
        <ele>1202</ele>
        <time>2019-08-08T09:41:57.000Z</time>
      </trkpt>
      <trkpt lat="42.91499" lon="0.75711">
        <ele>1202</ele>
        <time>2019-08-08T09:41:58.000Z</time>
      </trkpt>
      <trkpt lat="42.91501" lon="0.75708">
        <ele>1202</ele>
        <time>2019-08-08T09:41:59.000Z</time>
      </trkpt>
      <trkpt lat="42.91503" lon="0.75704">
        <ele>1203</ele>
        <time>2019-08-08T09:42:00.000Z</time>
      </trkpt>
      <trkpt lat="42.91504" lon="0.75699">
        <ele>1203</ele>
        <time>2019-08-08T09:42:01.000Z</time>
      </trkpt>
      <trkpt lat="42.91504" lon="0.75699">
        <ele>1203</ele>
        <time>2019-08-08T09:42:02.000Z</time>
      </trkpt>
      <trkpt lat="42.91507" lon="0.75691">
        <ele>1203</ele>
        <time>2019-08-08T09:42:03.000Z</time>
      </trkpt>
      <trkpt lat="42.91508" lon="0.75687">
        <ele>1204</ele>
        <time>2019-08-08T09:42:04.000Z</time>
      </trkpt>
      <trkpt lat="42.91509" lon="0.75683">
        <ele>1204</ele>
        <time>2019-08-08T09:42:05.000Z</time>
      </trkpt>
      <trkpt lat="42.91511" lon="0.75679">
        <ele>1204</ele>
        <time>2019-08-08T09:42:06.000Z</time>
      </trkpt>
      <trkpt lat="42.91511" lon="0.75679">
        <ele>1204</ele>
        <time>2019-08-08T09:42:07.000Z</time>
      </trkpt>
      <trkpt lat="42.91515" lon="0.75673">
        <ele>1204</ele>
        <time>2019-08-08T09:42:08.000Z</time>
      </trkpt>
      <trkpt lat="42.91517" lon="0.7567">
        <ele>1205</ele>
        <time>2019-08-08T09:42:09.000Z</time>
      </trkpt>
      <trkpt lat="42.91519" lon="0.75668">
        <ele>1205</ele>
        <time>2019-08-08T09:42:10.000Z</time>
      </trkpt>
      <trkpt lat="42.91522" lon="0.75665">
        <ele>1205</ele>
        <time>2019-08-08T09:42:11.000Z</time>
      </trkpt>
      <trkpt lat="42.91524" lon="0.75663">
        <ele>1205</ele>
        <time>2019-08-08T09:42:12.000Z</time>
      </trkpt>
      <trkpt lat="42.91524" lon="0.75663">
        <ele>1206</ele>
        <time>2019-08-08T09:42:13.000Z</time>
      </trkpt>
      <trkpt lat="42.9153" lon="0.75661">
        <ele>1206</ele>
        <time>2019-08-08T09:42:14.000Z</time>
      </trkpt>
      <trkpt lat="42.91533" lon="0.7566">
        <ele>1207</ele>
        <time>2019-08-08T09:42:15.000Z</time>
      </trkpt>
      <trkpt lat="42.91536" lon="0.75661">
        <ele>1207</ele>
        <time>2019-08-08T09:42:16.000Z</time>
      </trkpt>
      <trkpt lat="42.91539" lon="0.75661">
        <ele>1207</ele>
        <time>2019-08-08T09:42:17.000Z</time>
      </trkpt>
      <trkpt lat="42.91542" lon="0.75663">
        <ele>1207</ele>
        <time>2019-08-08T09:42:18.000Z</time>
      </trkpt>
      <trkpt lat="42.91545" lon="0.75665">
        <ele>1207</ele>
        <time>2019-08-08T09:42:19.000Z</time>
      </trkpt>
      <trkpt lat="42.91548" lon="0.75667">
        <ele>1207</ele>
        <time>2019-08-08T09:42:20.000Z</time>
      </trkpt>
      <trkpt lat="42.9155" lon="0.75669">
        <ele>1207</ele>
        <time>2019-08-08T09:42:21.000Z</time>
      </trkpt>
      <trkpt lat="42.91553" lon="0.75672">
        <ele>1207</ele>
        <time>2019-08-08T09:42:22.000Z</time>
      </trkpt>
      <trkpt lat="42.91555" lon="0.75674">
        <ele>1207</ele>
        <time>2019-08-08T09:42:23.000Z</time>
      </trkpt>
      <trkpt lat="42.91555" lon="0.75674">
        <ele>1208</ele>
        <time>2019-08-08T09:42:24.000Z</time>
      </trkpt>
      <trkpt lat="42.91559" lon="0.75681">
        <ele>1208</ele>
        <time>2019-08-08T09:42:25.000Z</time>
      </trkpt>
      <trkpt lat="42.91561" lon="0.75684">
        <ele>1209</ele>
        <time>2019-08-08T09:42:26.000Z</time>
      </trkpt>
      <trkpt lat="42.91562" lon="0.75687">
        <ele>1209</ele>
        <time>2019-08-08T09:42:27.000Z</time>
      </trkpt>
      <trkpt lat="42.91564" lon="0.7569">
        <ele>1209</ele>
        <time>2019-08-08T09:42:28.000Z</time>
      </trkpt>
      <trkpt lat="42.91566" lon="0.75692">
        <ele>1209</ele>
        <time>2019-08-08T09:42:29.000Z</time>
      </trkpt>
      <trkpt lat="42.91567" lon="0.75695">
        <ele>1210</ele>
        <time>2019-08-08T09:42:30.000Z</time>
      </trkpt>
      <trkpt lat="42.91569" lon="0.75698">
        <ele>1210</ele>
        <time>2019-08-08T09:42:31.000Z</time>
      </trkpt>
      <trkpt lat="42.91571" lon="0.757">
        <ele>1210</ele>
        <time>2019-08-08T09:42:32.000Z</time>
      </trkpt>
      <trkpt lat="42.91572" lon="0.75703">
        <ele>1210</ele>
        <time>2019-08-08T09:42:33.000Z</time>
      </trkpt>
      <trkpt lat="42.91574" lon="0.75706">
        <ele>1211</ele>
        <time>2019-08-08T09:42:34.000Z</time>
      </trkpt>
      <trkpt lat="42.91575" lon="0.75708">
        <ele>1211</ele>
        <time>2019-08-08T09:42:35.000Z</time>
      </trkpt>
      <trkpt lat="42.91577" lon="0.75711">
        <ele>1211</ele>
        <time>2019-08-08T09:42:36.000Z</time>
      </trkpt>
      <trkpt lat="42.91579" lon="0.75713">
        <ele>1211</ele>
        <time>2019-08-08T09:42:37.000Z</time>
      </trkpt>
      <trkpt lat="42.91581" lon="0.75715">
        <ele>1212</ele>
        <time>2019-08-08T09:42:38.000Z</time>
      </trkpt>
      <trkpt lat="42.91581" lon="0.75715">
        <ele>1212</ele>
        <time>2019-08-08T09:42:39.000Z</time>
      </trkpt>
      <trkpt lat="42.91584" lon="0.75721">
        <ele>1212</ele>
        <time>2019-08-08T09:42:40.000Z</time>
      </trkpt>
      <trkpt lat="42.91586" lon="0.75723">
        <ele>1212</ele>
        <time>2019-08-08T09:42:41.000Z</time>
      </trkpt>
      <trkpt lat="42.91588" lon="0.75726">
        <ele>1212</ele>
        <time>2019-08-08T09:42:42.000Z</time>
      </trkpt>
      <trkpt lat="42.91588" lon="0.75726">
        <ele>1212</ele>
        <time>2019-08-08T09:42:43.000Z</time>
      </trkpt>
      <trkpt lat="42.91592" lon="0.75731">
        <ele>1212</ele>
        <time>2019-08-08T09:42:44.000Z</time>
      </trkpt>
      <trkpt lat="42.91594" lon="0.75733">
        <ele>1213</ele>
        <time>2019-08-08T09:42:45.000Z</time>
      </trkpt>
      <trkpt lat="42.91594" lon="0.75733">
        <ele>1213</ele>
        <time>2019-08-08T09:42:46.000Z</time>
      </trkpt>
      <trkpt lat="42.91599" lon="0.75737">
        <ele>1213</ele>
        <time>2019-08-08T09:42:47.000Z</time>
      </trkpt>
      <trkpt lat="42.916" lon="0.75739">
        <ele>1213</ele>
        <time>2019-08-08T09:42:48.000Z</time>
      </trkpt>
      <trkpt lat="42.91601" lon="0.7574">
        <ele>1214</ele>
        <time>2019-08-08T09:42:49.000Z</time>
      </trkpt>
      <trkpt lat="42.91602" lon="0.75741">
        <ele>1214</ele>
        <time>2019-08-08T09:42:50.000Z</time>
      </trkpt>
      <trkpt lat="42.91606" lon="0.75746">
        <ele>1215</ele>
        <time>2019-08-08T09:42:51.000Z</time>
      </trkpt>
      <trkpt lat="42.91606" lon="0.75746">
        <ele>1215</ele>
        <time>2019-08-08T09:42:52.000Z</time>
      </trkpt>
      <trkpt lat="42.91606" lon="0.75746">
        <ele>1215</ele>
        <time>2019-08-08T09:42:53.000Z</time>
      </trkpt>
      <trkpt lat="42.91613" lon="0.75751">
        <ele>1215</ele>
        <time>2019-08-08T09:42:54.000Z</time>
      </trkpt>
      <trkpt lat="42.91615" lon="0.75753">
        <ele>1215</ele>
        <time>2019-08-08T09:42:55.000Z</time>
      </trkpt>
      <trkpt lat="42.91615" lon="0.75753">
        <ele>1215</ele>
        <time>2019-08-08T09:42:56.000Z</time>
      </trkpt>
      <trkpt lat="42.91615" lon="0.75753">
        <ele>1215</ele>
        <time>2019-08-08T09:42:57.000Z</time>
      </trkpt>
      <trkpt lat="42.91615" lon="0.75753">
        <ele>1216</ele>
        <time>2019-08-08T09:42:58.000Z</time>
      </trkpt>
      <trkpt lat="42.91625" lon="0.75758">
        <ele>1216</ele>
        <time>2019-08-08T09:42:59.000Z</time>
      </trkpt>
      <trkpt lat="42.91625" lon="0.75758">
        <ele>1217</ele>
        <time>2019-08-08T09:43:00.000Z</time>
      </trkpt>
      <trkpt lat="42.91625" lon="0.75758">
        <ele>1217</ele>
        <time>2019-08-08T09:43:01.000Z</time>
      </trkpt>
      <trkpt lat="42.91633" lon="0.75761">
        <ele>1217</ele>
        <time>2019-08-08T09:43:02.000Z</time>
      </trkpt>
      <trkpt lat="42.91635" lon="0.75763">
        <ele>1217</ele>
        <time>2019-08-08T09:43:03.000Z</time>
      </trkpt>
      <trkpt lat="42.91637" lon="0.75764">
        <ele>1217</ele>
        <time>2019-08-08T09:43:04.000Z</time>
      </trkpt>
      <trkpt lat="42.91641" lon="0.75766">
        <ele>1217</ele>
        <time>2019-08-08T09:43:05.000Z</time>
      </trkpt>
      <trkpt lat="42.91642" lon="0.75766">
        <ele>1217</ele>
        <time>2019-08-08T09:43:06.000Z</time>
      </trkpt>
      <trkpt lat="42.91643" lon="0.75766">
        <ele>1218</ele>
        <time>2019-08-08T09:43:07.000Z</time>
      </trkpt>
      <trkpt lat="42.91645" lon="0.75766">
        <ele>1218</ele>
        <time>2019-08-08T09:43:08.000Z</time>
      </trkpt>
      <trkpt lat="42.91646" lon="0.75766">
        <ele>1219</ele>
        <time>2019-08-08T09:43:09.000Z</time>
      </trkpt>
      <trkpt lat="42.91653" lon="0.75767">
        <ele>1219</ele>
        <time>2019-08-08T09:43:10.000Z</time>
      </trkpt>
      <trkpt lat="42.91654" lon="0.75767">
        <ele>1219</ele>
        <time>2019-08-08T09:43:11.000Z</time>
      </trkpt>
      <trkpt lat="42.91656" lon="0.75768">
        <ele>1219</ele>
        <time>2019-08-08T09:43:12.000Z</time>
      </trkpt>
      <trkpt lat="42.91657" lon="0.75768">
        <ele>1219</ele>
        <time>2019-08-08T09:43:13.000Z</time>
      </trkpt>
      <trkpt lat="42.91663" lon="0.75768">
        <ele>1219</ele>
        <time>2019-08-08T09:43:14.000Z</time>
      </trkpt>
      <trkpt lat="42.91663" lon="0.75768">
        <ele>1220</ele>
        <time>2019-08-08T09:43:15.000Z</time>
      </trkpt>
      <trkpt lat="42.91667" lon="0.75767">
        <ele>1220</ele>
        <time>2019-08-08T09:43:16.000Z</time>
      </trkpt>
      <trkpt lat="42.91669" lon="0.75766">
        <ele>1220</ele>
        <time>2019-08-08T09:43:17.000Z</time>
      </trkpt>
      <trkpt lat="42.91672" lon="0.75765">
        <ele>1221</ele>
        <time>2019-08-08T09:43:18.000Z</time>
      </trkpt>
      <trkpt lat="42.91674" lon="0.75764">
        <ele>1221</ele>
        <time>2019-08-08T09:43:19.000Z</time>
      </trkpt>
      <trkpt lat="42.91677" lon="0.75763">
        <ele>1221</ele>
        <time>2019-08-08T09:43:20.000Z</time>
      </trkpt>
      <trkpt lat="42.91679" lon="0.75761">
        <ele>1221</ele>
        <time>2019-08-08T09:43:21.000Z</time>
      </trkpt>
      <trkpt lat="42.91682" lon="0.75757">
        <ele>1221</ele>
        <time>2019-08-08T09:43:22.000Z</time>
      </trkpt>
      <trkpt lat="42.91683" lon="0.75755">
        <ele>1221</ele>
        <time>2019-08-08T09:43:23.000Z</time>
      </trkpt>
      <trkpt lat="42.91683" lon="0.75754">
        <ele>1221</ele>
        <time>2019-08-08T09:43:24.000Z</time>
      </trkpt>
      <trkpt lat="42.91684" lon="0.75752">
        <ele>1222</ele>
        <time>2019-08-08T09:43:25.000Z</time>
      </trkpt>
      <trkpt lat="42.91687" lon="0.75746">
        <ele>1222</ele>
        <time>2019-08-08T09:43:26.000Z</time>
      </trkpt>
      <trkpt lat="42.91687" lon="0.75742">
        <ele>1223</ele>
        <time>2019-08-08T09:43:27.000Z</time>
      </trkpt>
      <trkpt lat="42.91687" lon="0.75739">
        <ele>1223</ele>
        <time>2019-08-08T09:43:28.000Z</time>
      </trkpt>
      <trkpt lat="42.91687" lon="0.75739">
        <ele>1223</ele>
        <time>2019-08-08T09:43:29.000Z</time>
      </trkpt>
      <trkpt lat="42.91687" lon="0.75731">
        <ele>1223</ele>
        <time>2019-08-08T09:43:30.000Z</time>
      </trkpt>
      <trkpt lat="42.91687" lon="0.75727">
        <ele>1223</ele>
        <time>2019-08-08T09:43:31.000Z</time>
      </trkpt>
      <trkpt lat="42.91687" lon="0.75727">
        <ele>1223</ele>
        <time>2019-08-08T09:43:32.000Z</time>
      </trkpt>
      <trkpt lat="42.91687" lon="0.75727">
        <ele>1224</ele>
        <time>2019-08-08T09:43:33.000Z</time>
      </trkpt>
      <trkpt lat="42.91684" lon="0.75714">
        <ele>1224</ele>
        <time>2019-08-08T09:43:34.000Z</time>
      </trkpt>
      <trkpt lat="42.91682" lon="0.7571">
        <ele>1225</ele>
        <time>2019-08-08T09:43:35.000Z</time>
      </trkpt>
      <trkpt lat="42.91681" lon="0.75706">
        <ele>1225</ele>
        <time>2019-08-08T09:43:36.000Z</time>
      </trkpt>
      <trkpt lat="42.9168" lon="0.75701">
        <ele>1226</ele>
        <time>2019-08-08T09:43:37.000Z</time>
      </trkpt>
      <trkpt lat="42.9168" lon="0.75697">
        <ele>1226</ele>
        <time>2019-08-08T09:43:38.000Z</time>
      </trkpt>
      <trkpt lat="42.9168" lon="0.75692">
        <ele>1226</ele>
        <time>2019-08-08T09:43:39.000Z</time>
      </trkpt>
      <trkpt lat="42.9168" lon="0.75688">
        <ele>1226</ele>
        <time>2019-08-08T09:43:40.000Z</time>
      </trkpt>
      <trkpt lat="42.9168" lon="0.75684">
        <ele>1226</ele>
        <time>2019-08-08T09:43:41.000Z</time>
      </trkpt>
      <trkpt lat="42.9168" lon="0.7568">
        <ele>1226</ele>
        <time>2019-08-08T09:43:42.000Z</time>
      </trkpt>
      <trkpt lat="42.9168" lon="0.75676">
        <ele>1226</ele>
        <time>2019-08-08T09:43:43.000Z</time>
      </trkpt>
      <trkpt lat="42.91681" lon="0.7567">
        <ele>1226</ele>
        <time>2019-08-08T09:43:44.000Z</time>
      </trkpt>
      <trkpt lat="42.91681" lon="0.75668">
        <ele>1226</ele>
        <time>2019-08-08T09:43:45.000Z</time>
      </trkpt>
      <trkpt lat="42.91681" lon="0.75664">
        <ele>1227</ele>
        <time>2019-08-08T09:43:46.000Z</time>
      </trkpt>
      <trkpt lat="42.91681" lon="0.7566">
        <ele>1227</ele>
        <time>2019-08-08T09:43:47.000Z</time>
      </trkpt>
      <trkpt lat="42.91681" lon="0.75656">
        <ele>1227</ele>
        <time>2019-08-08T09:43:48.000Z</time>
      </trkpt>
      <trkpt lat="42.91681" lon="0.75652">
        <ele>1227</ele>
        <time>2019-08-08T09:43:49.000Z</time>
      </trkpt>
      <trkpt lat="42.91681" lon="0.75648">
        <ele>1227</ele>
        <time>2019-08-08T09:43:50.000Z</time>
      </trkpt>
      <trkpt lat="42.9168" lon="0.75644">
        <ele>1228</ele>
        <time>2019-08-08T09:43:51.000Z</time>
      </trkpt>
      <trkpt lat="42.9168" lon="0.7564">
        <ele>1228</ele>
        <time>2019-08-08T09:43:52.000Z</time>
      </trkpt>
      <trkpt lat="42.9168" lon="0.75637">
        <ele>1228</ele>
        <time>2019-08-08T09:43:53.000Z</time>
      </trkpt>
      <trkpt lat="42.91681" lon="0.75633">
        <ele>1228</ele>
        <time>2019-08-08T09:43:54.000Z</time>
      </trkpt>
      <trkpt lat="42.91681" lon="0.7563">
        <ele>1229</ele>
        <time>2019-08-08T09:43:55.000Z</time>
      </trkpt>
      <trkpt lat="42.91681" lon="0.75626">
        <ele>1229</ele>
        <time>2019-08-08T09:43:56.000Z</time>
      </trkpt>
      <trkpt lat="42.91681" lon="0.75622">
        <ele>1229</ele>
        <time>2019-08-08T09:43:57.000Z</time>
      </trkpt>
      <trkpt lat="42.91682" lon="0.75619">
        <ele>1229</ele>
        <time>2019-08-08T09:43:58.000Z</time>
      </trkpt>
      <trkpt lat="42.91684" lon="0.75616">
        <ele>1229</ele>
        <time>2019-08-08T09:43:59.000Z</time>
      </trkpt>
      <trkpt lat="42.91686" lon="0.75614">
        <ele>1230</ele>
        <time>2019-08-08T09:44:00.000Z</time>
      </trkpt>
      <trkpt lat="42.91688" lon="0.75613">
        <ele>1230</ele>
        <time>2019-08-08T09:44:01.000Z</time>
      </trkpt>
      <trkpt lat="42.9169" lon="0.75614">
        <ele>1231</ele>
        <time>2019-08-08T09:44:02.000Z</time>
      </trkpt>
      <trkpt lat="42.91693" lon="0.75616">
        <ele>1231</ele>
        <time>2019-08-08T09:44:03.000Z</time>
      </trkpt>
      <trkpt lat="42.91695" lon="0.7562">
        <ele>1231</ele>
        <time>2019-08-08T09:44:04.000Z</time>
      </trkpt>
      <trkpt lat="42.91696" lon="0.75623">
        <ele>1231</ele>
        <time>2019-08-08T09:44:05.000Z</time>
      </trkpt>
      <trkpt lat="42.91696" lon="0.75628">
        <ele>1231</ele>
        <time>2019-08-08T09:44:06.000Z</time>
      </trkpt>
      <trkpt lat="42.91696" lon="0.75632">
        <ele>1231</ele>
        <time>2019-08-08T09:44:07.000Z</time>
      </trkpt>
      <trkpt lat="42.91696" lon="0.75636">
        <ele>1231</ele>
        <time>2019-08-08T09:44:08.000Z</time>
      </trkpt>
      <trkpt lat="42.91696" lon="0.75636">
        <ele>1231</ele>
        <time>2019-08-08T09:44:09.000Z</time>
      </trkpt>
      <trkpt lat="42.91696" lon="0.75645">
        <ele>1231</ele>
        <time>2019-08-08T09:44:10.000Z</time>
      </trkpt>
      <trkpt lat="42.91695" lon="0.75649">
        <ele>1231</ele>
        <time>2019-08-08T09:44:11.000Z</time>
      </trkpt>
      <trkpt lat="42.91695" lon="0.75653">
        <ele>1231</ele>
        <time>2019-08-08T09:44:12.000Z</time>
      </trkpt>
      <trkpt lat="42.91695" lon="0.75657">
        <ele>1232</ele>
        <time>2019-08-08T09:44:13.000Z</time>
      </trkpt>
      <trkpt lat="42.91695" lon="0.75657">
        <ele>1232</ele>
        <time>2019-08-08T09:44:14.000Z</time>
      </trkpt>
      <trkpt lat="42.91694" lon="0.75665">
        <ele>1232</ele>
        <time>2019-08-08T09:44:15.000Z</time>
      </trkpt>
      <trkpt lat="42.91694" lon="0.75668">
        <ele>1233</ele>
        <time>2019-08-08T09:44:16.000Z</time>
      </trkpt>
      <trkpt lat="42.91694" lon="0.75672">
        <ele>1233</ele>
        <time>2019-08-08T09:44:17.000Z</time>
      </trkpt>
      <trkpt lat="42.91694" lon="0.75672">
        <ele>1234</ele>
        <time>2019-08-08T09:44:18.000Z</time>
      </trkpt>
      <trkpt lat="42.91694" lon="0.75672">
        <ele>1234</ele>
        <time>2019-08-08T09:44:19.000Z</time>
      </trkpt>
      <trkpt lat="42.91695" lon="0.75683">
        <ele>1235</ele>
        <time>2019-08-08T09:44:20.000Z</time>
      </trkpt>
      <trkpt lat="42.91696" lon="0.75686">
        <ele>1235</ele>
        <time>2019-08-08T09:44:21.000Z</time>
      </trkpt>
      <trkpt lat="42.91697" lon="0.7569">
        <ele>1235</ele>
        <time>2019-08-08T09:44:22.000Z</time>
      </trkpt>
      <trkpt lat="42.91699" lon="0.75693">
        <ele>1235</ele>
        <time>2019-08-08T09:44:23.000Z</time>
      </trkpt>
      <trkpt lat="42.917" lon="0.75695">
        <ele>1235</ele>
        <time>2019-08-08T09:44:24.000Z</time>
      </trkpt>
      <trkpt lat="42.91702" lon="0.75698">
        <ele>1235</ele>
        <time>2019-08-08T09:44:25.000Z</time>
      </trkpt>
      <trkpt lat="42.91704" lon="0.75703">
        <ele>1235</ele>
        <time>2019-08-08T09:44:26.000Z</time>
      </trkpt>
      <trkpt lat="42.91704" lon="0.75705">
        <ele>1235</ele>
        <time>2019-08-08T09:44:27.000Z</time>
      </trkpt>
      <trkpt lat="42.91705" lon="0.75706">
        <ele>1236</ele>
        <time>2019-08-08T09:44:28.000Z</time>
      </trkpt>
      <trkpt lat="42.91706" lon="0.75708">
        <ele>1236</ele>
        <time>2019-08-08T09:44:29.000Z</time>
      </trkpt>
      <trkpt lat="42.91709" lon="0.75716">
        <ele>1236</ele>
        <time>2019-08-08T09:44:30.000Z</time>
      </trkpt>
      <trkpt lat="42.9171" lon="0.75717">
        <ele>1236</ele>
        <time>2019-08-08T09:44:31.000Z</time>
      </trkpt>
      <trkpt lat="42.91711" lon="0.75719">
        <ele>1237</ele>
        <time>2019-08-08T09:44:32.000Z</time>
      </trkpt>
      <trkpt lat="42.91712" lon="0.7572">
        <ele>1237</ele>
        <time>2019-08-08T09:44:33.000Z</time>
      </trkpt>
      <trkpt lat="42.91715" lon="0.75726">
        <ele>1237</ele>
        <time>2019-08-08T09:44:34.000Z</time>
      </trkpt>
      <trkpt lat="42.91715" lon="0.75726">
        <ele>1237</ele>
        <time>2019-08-08T09:44:35.000Z</time>
      </trkpt>
      <trkpt lat="42.91715" lon="0.75726">
        <ele>1238</ele>
        <time>2019-08-08T09:44:36.000Z</time>
      </trkpt>
      <trkpt lat="42.9172" lon="0.75737">
        <ele>1238</ele>
        <time>2019-08-08T09:44:37.000Z</time>
      </trkpt>
      <trkpt lat="42.9172" lon="0.75737">
        <ele>1238</ele>
        <time>2019-08-08T09:44:38.000Z</time>
      </trkpt>
      <trkpt lat="42.9172" lon="0.75737">
        <ele>1238</ele>
        <time>2019-08-08T09:44:39.000Z</time>
      </trkpt>
      <trkpt lat="42.91726" lon="0.75748">
        <ele>1239</ele>
        <time>2019-08-08T09:44:40.000Z</time>
      </trkpt>
      <trkpt lat="42.91726" lon="0.75748">
        <ele>1239</ele>
        <time>2019-08-08T09:44:41.000Z</time>
      </trkpt>
      <trkpt lat="42.9173" lon="0.75753">
        <ele>1240</ele>
        <time>2019-08-08T09:44:42.000Z</time>
      </trkpt>
      <trkpt lat="42.9173" lon="0.75753">
        <ele>1240</ele>
        <time>2019-08-08T09:44:43.000Z</time>
      </trkpt>
      <trkpt lat="42.9173" lon="0.75753">
        <ele>1240</ele>
        <time>2019-08-08T09:44:44.000Z</time>
      </trkpt>
      <trkpt lat="42.9173" lon="0.75753">
        <ele>1240</ele>
        <time>2019-08-08T09:44:45.000Z</time>
      </trkpt>
      <trkpt lat="42.91736" lon="0.75766">
        <ele>1240</ele>
        <time>2019-08-08T09:44:46.000Z</time>
      </trkpt>
      <trkpt lat="42.91737" lon="0.75767">
        <ele>1241</ele>
        <time>2019-08-08T09:44:47.000Z</time>
      </trkpt>
      <trkpt lat="42.91738" lon="0.75769">
        <ele>1241</ele>
        <time>2019-08-08T09:44:48.000Z</time>
      </trkpt>
      <trkpt lat="42.91739" lon="0.7577">
        <ele>1241</ele>
        <time>2019-08-08T09:44:49.000Z</time>
      </trkpt>
      <trkpt lat="42.91745" lon="0.75777">
        <ele>1241</ele>
        <time>2019-08-08T09:44:50.000Z</time>
      </trkpt>
      <trkpt lat="42.91745" lon="0.75778">
        <ele>1242</ele>
        <time>2019-08-08T09:44:51.000Z</time>
      </trkpt>
      <trkpt lat="42.91746" lon="0.7578">
        <ele>1242</ele>
        <time>2019-08-08T09:44:52.000Z</time>
      </trkpt>
      <trkpt lat="42.91747" lon="0.75781">
        <ele>1243</ele>
        <time>2019-08-08T09:44:53.000Z</time>
      </trkpt>
      <trkpt lat="42.91751" lon="0.7579">
        <ele>1243</ele>
        <time>2019-08-08T09:44:54.000Z</time>
      </trkpt>
      <trkpt lat="42.91751" lon="0.75792">
        <ele>1243</ele>
        <time>2019-08-08T09:44:55.000Z</time>
      </trkpt>
      <trkpt lat="42.91752" lon="0.75795">
        <ele>1244</ele>
        <time>2019-08-08T09:44:56.000Z</time>
      </trkpt>
      <trkpt lat="42.91754" lon="0.75803">
        <ele>1244</ele>
        <time>2019-08-08T09:44:57.000Z</time>
      </trkpt>
      <trkpt lat="42.91754" lon="0.75805">
        <ele>1245</ele>
        <time>2019-08-08T09:44:58.000Z</time>
      </trkpt>
      <trkpt lat="42.91754" lon="0.75807">
        <ele>1245</ele>
        <time>2019-08-08T09:44:59.000Z</time>
      </trkpt>
      <trkpt lat="42.91755" lon="0.75808">
        <ele>1245</ele>
        <time>2019-08-08T09:45:00.000Z</time>
      </trkpt>
      <trkpt lat="42.91756" lon="0.75815">
        <ele>1245</ele>
        <time>2019-08-08T09:45:01.000Z</time>
      </trkpt>
      <trkpt lat="42.91756" lon="0.7582">
        <ele>1245</ele>
        <time>2019-08-08T09:45:02.000Z</time>
      </trkpt>
      <trkpt lat="42.91756" lon="0.75822">
        <ele>1246</ele>
        <time>2019-08-08T09:45:03.000Z</time>
      </trkpt>
      <trkpt lat="42.91756" lon="0.75824">
        <ele>1246</ele>
        <time>2019-08-08T09:45:04.000Z</time>
      </trkpt>
      <trkpt lat="42.91756" lon="0.75826">
        <ele>1247</ele>
        <time>2019-08-08T09:45:05.000Z</time>
      </trkpt>
      <trkpt lat="42.91757" lon="0.75833">
        <ele>1247</ele>
        <time>2019-08-08T09:45:06.000Z</time>
      </trkpt>
      <trkpt lat="42.91757" lon="0.75833">
        <ele>1247</ele>
        <time>2019-08-08T09:45:07.000Z</time>
      </trkpt>
      <trkpt lat="42.91757" lon="0.75833">
        <ele>1247</ele>
        <time>2019-08-08T09:45:08.000Z</time>
      </trkpt>
      <trkpt lat="42.91757" lon="0.75833">
        <ele>1247</ele>
        <time>2019-08-08T09:45:09.000Z</time>
      </trkpt>
      <trkpt lat="42.91759" lon="0.75846">
        <ele>1247</ele>
        <time>2019-08-08T09:45:10.000Z</time>
      </trkpt>
      <trkpt lat="42.91761" lon="0.75848">
        <ele>1247</ele>
        <time>2019-08-08T09:45:11.000Z</time>
      </trkpt>
      <trkpt lat="42.91761" lon="0.75848">
        <ele>1247</ele>
        <time>2019-08-08T09:45:12.000Z</time>
      </trkpt>
      <trkpt lat="42.91764" lon="0.75854">
        <ele>1248</ele>
        <time>2019-08-08T09:45:13.000Z</time>
      </trkpt>
      <trkpt lat="42.91766" lon="0.75856">
        <ele>1248</ele>
        <time>2019-08-08T09:45:14.000Z</time>
      </trkpt>
      <trkpt lat="42.91769" lon="0.75857">
        <ele>1248</ele>
        <time>2019-08-08T09:45:15.000Z</time>
      </trkpt>
      <trkpt lat="42.91772" lon="0.75856">
        <ele>1249</ele>
        <time>2019-08-08T09:45:16.000Z</time>
      </trkpt>
      <trkpt lat="42.91774" lon="0.75852">
        <ele>1249</ele>
        <time>2019-08-08T09:45:17.000Z</time>
      </trkpt>
      <trkpt lat="42.91775" lon="0.75851">
        <ele>1249</ele>
        <time>2019-08-08T09:45:18.000Z</time>
      </trkpt>
      <trkpt lat="42.91775" lon="0.75849">
        <ele>1249</ele>
        <time>2019-08-08T09:45:19.000Z</time>
      </trkpt>
      <trkpt lat="42.91775" lon="0.75847">
        <ele>1249</ele>
        <time>2019-08-08T09:45:20.000Z</time>
      </trkpt>
      <trkpt lat="42.91777" lon="0.75839">
        <ele>1249</ele>
        <time>2019-08-08T09:45:21.000Z</time>
      </trkpt>
      <trkpt lat="42.91777" lon="0.75839">
        <ele>1250</ele>
        <time>2019-08-08T09:45:22.000Z</time>
      </trkpt>
      <trkpt lat="42.91776" lon="0.7583">
        <ele>1250</ele>
        <time>2019-08-08T09:45:23.000Z</time>
      </trkpt>
      <trkpt lat="42.91775" lon="0.75826">
        <ele>1251</ele>
        <time>2019-08-08T09:45:24.000Z</time>
      </trkpt>
      <trkpt lat="42.91775" lon="0.75821">
        <ele>1251</ele>
        <time>2019-08-08T09:45:25.000Z</time>
      </trkpt>
      <trkpt lat="42.91774" lon="0.75816">
        <ele>1251</ele>
        <time>2019-08-08T09:45:26.000Z</time>
      </trkpt>
      <trkpt lat="42.91773" lon="0.75812">
        <ele>1251</ele>
        <time>2019-08-08T09:45:27.000Z</time>
      </trkpt>
      <trkpt lat="42.91773" lon="0.75808">
        <ele>1251</ele>
        <time>2019-08-08T09:45:28.000Z</time>
      </trkpt>
      <trkpt lat="42.91772" lon="0.75803">
        <ele>1251</ele>
        <time>2019-08-08T09:45:29.000Z</time>
      </trkpt>
      <trkpt lat="42.91771" lon="0.75799">
        <ele>1252</ele>
        <time>2019-08-08T09:45:30.000Z</time>
      </trkpt>
      <trkpt lat="42.91769" lon="0.75792">
        <ele>1252</ele>
        <time>2019-08-08T09:45:31.000Z</time>
      </trkpt>
      <trkpt lat="42.91769" lon="0.7579">
        <ele>1252</ele>
        <time>2019-08-08T09:45:32.000Z</time>
      </trkpt>
      <trkpt lat="42.91768" lon="0.75787">
        <ele>1252</ele>
        <time>2019-08-08T09:45:33.000Z</time>
      </trkpt>
      <trkpt lat="42.91765" lon="0.75778">
        <ele>1253</ele>
        <time>2019-08-08T09:45:34.000Z</time>
      </trkpt>
      <trkpt lat="42.91765" lon="0.75776">
        <ele>1253</ele>
        <time>2019-08-08T09:45:35.000Z</time>
      </trkpt>
      <trkpt lat="42.91764" lon="0.75775">
        <ele>1253</ele>
        <time>2019-08-08T09:45:36.000Z</time>
      </trkpt>
      <trkpt lat="42.91763" lon="0.75773">
        <ele>1253</ele>
        <time>2019-08-08T09:45:37.000Z</time>
      </trkpt>
      <trkpt lat="42.9176" lon="0.75767">
        <ele>1254</ele>
        <time>2019-08-08T09:45:38.000Z</time>
      </trkpt>
      <trkpt lat="42.9176" lon="0.75767">
        <ele>1254</ele>
        <time>2019-08-08T09:45:39.000Z</time>
      </trkpt>
      <trkpt lat="42.9176" lon="0.75767">
        <ele>1255</ele>
        <time>2019-08-08T09:45:40.000Z</time>
      </trkpt>
      <trkpt lat="42.9176" lon="0.75767">
        <ele>1255</ele>
        <time>2019-08-08T09:45:41.000Z</time>
      </trkpt>
      <trkpt lat="42.91758" lon="0.75753">
        <ele>1256</ele>
        <time>2019-08-08T09:45:42.000Z</time>
      </trkpt>
      <trkpt lat="42.91759" lon="0.75752">
        <ele>1256</ele>
        <time>2019-08-08T09:45:43.000Z</time>
      </trkpt>
      <trkpt lat="42.9176" lon="0.75752">
        <ele>1256</ele>
        <time>2019-08-08T09:45:44.000Z</time>
      </trkpt>
      <trkpt lat="42.91761" lon="0.75751">
        <ele>1256</ele>
        <time>2019-08-08T09:45:45.000Z</time>
      </trkpt>
      <trkpt lat="42.91762" lon="0.75751">
        <ele>1256</ele>
        <time>2019-08-08T09:45:46.000Z</time>
      </trkpt>
      <trkpt lat="42.91769" lon="0.7575">
        <ele>1257</ele>
        <time>2019-08-08T09:45:47.000Z</time>
      </trkpt>
      <trkpt lat="42.9177" lon="0.75752">
        <ele>1257</ele>
        <time>2019-08-08T09:45:48.000Z</time>
      </trkpt>
      <trkpt lat="42.91772" lon="0.75754">
        <ele>1257</ele>
        <time>2019-08-08T09:45:49.000Z</time>
      </trkpt>
      <trkpt lat="42.91776" lon="0.75759">
        <ele>1257</ele>
        <time>2019-08-08T09:45:50.000Z</time>
      </trkpt>
      <trkpt lat="42.91778" lon="0.75764">
        <ele>1258</ele>
        <time>2019-08-08T09:45:51.000Z</time>
      </trkpt>
      <trkpt lat="42.91778" lon="0.75764">
        <ele>1258</ele>
        <time>2019-08-08T09:45:52.000Z</time>
      </trkpt>
      <trkpt lat="42.9178" lon="0.75772">
        <ele>1258</ele>
        <time>2019-08-08T09:45:53.000Z</time>
      </trkpt>
      <trkpt lat="42.91781" lon="0.75776">
        <ele>1258</ele>
        <time>2019-08-08T09:45:54.000Z</time>
      </trkpt>
      <trkpt lat="42.91781" lon="0.75776">
        <ele>1258</ele>
        <time>2019-08-08T09:45:55.000Z</time>
      </trkpt>
      <trkpt lat="42.91781" lon="0.75776">
        <ele>1258</ele>
        <time>2019-08-08T09:45:56.000Z</time>
      </trkpt>
      <trkpt lat="42.91784" lon="0.75788">
        <ele>1259</ele>
        <time>2019-08-08T09:45:57.000Z</time>
      </trkpt>
      <trkpt lat="42.91784" lon="0.75788">
        <ele>1259</ele>
        <time>2019-08-08T09:45:58.000Z</time>
      </trkpt>
      <trkpt lat="42.91784" lon="0.75788">
        <ele>1259</ele>
        <time>2019-08-08T09:45:59.000Z</time>
      </trkpt>
      <trkpt lat="42.91788" lon="0.75801">
        <ele>1259</ele>
        <time>2019-08-08T09:46:00.000Z</time>
      </trkpt>
      <trkpt lat="42.91789" lon="0.75803">
        <ele>1259</ele>
        <time>2019-08-08T09:46:01.000Z</time>
      </trkpt>
      <trkpt lat="42.91789" lon="0.75805">
        <ele>1259</ele>
        <time>2019-08-08T09:46:02.000Z</time>
      </trkpt>
      <trkpt lat="42.9179" lon="0.75807">
        <ele>1261</ele>
        <time>2019-08-08T09:46:03.000Z</time>
      </trkpt>
      <trkpt lat="42.91792" lon="0.75816">
        <ele>1261</ele>
        <time>2019-08-08T09:46:04.000Z</time>
      </trkpt>
      <trkpt lat="42.91793" lon="0.75818">
        <ele>1261</ele>
        <time>2019-08-08T09:46:05.000Z</time>
      </trkpt>
      <trkpt lat="42.91793" lon="0.7582">
        <ele>1261</ele>
        <time>2019-08-08T09:46:06.000Z</time>
      </trkpt>
      <trkpt lat="42.91794" lon="0.75821">
        <ele>1261</ele>
        <time>2019-08-08T09:46:07.000Z</time>
      </trkpt>
      <trkpt lat="42.91796" lon="0.75828">
        <ele>1261</ele>
        <time>2019-08-08T09:46:08.000Z</time>
      </trkpt>
      <trkpt lat="42.91796" lon="0.75828">
        <ele>1261</ele>
        <time>2019-08-08T09:46:09.000Z</time>
      </trkpt>
      <trkpt lat="42.91796" lon="0.75828">
        <ele>1261</ele>
        <time>2019-08-08T09:46:10.000Z</time>
      </trkpt>
      <trkpt lat="42.91799" lon="0.75843">
        <ele>1261</ele>
        <time>2019-08-08T09:46:11.000Z</time>
      </trkpt>
      <trkpt lat="42.918" lon="0.75845">
        <ele>1261</ele>
        <time>2019-08-08T09:46:12.000Z</time>
      </trkpt>
      <trkpt lat="42.918" lon="0.75847">
        <ele>1262</ele>
        <time>2019-08-08T09:46:13.000Z</time>
      </trkpt>
      <trkpt lat="42.918" lon="0.75849">
        <ele>1262</ele>
        <time>2019-08-08T09:46:14.000Z</time>
      </trkpt>
      <trkpt lat="42.91801" lon="0.75856">
        <ele>1262</ele>
        <time>2019-08-08T09:46:15.000Z</time>
      </trkpt>
      <trkpt lat="42.91801" lon="0.75856">
        <ele>1262</ele>
        <time>2019-08-08T09:46:16.000Z</time>
      </trkpt>
      <trkpt lat="42.91801" lon="0.75856">
        <ele>1262</ele>
        <time>2019-08-08T09:46:17.000Z</time>
      </trkpt>
      <trkpt lat="42.91804" lon="0.7587">
        <ele>1262</ele>
        <time>2019-08-08T09:46:18.000Z</time>
      </trkpt>
      <trkpt lat="42.91804" lon="0.75872">
        <ele>1262</ele>
        <time>2019-08-08T09:46:19.000Z</time>
      </trkpt>
      <trkpt lat="42.91805" lon="0.75874">
        <ele>1262</ele>
        <time>2019-08-08T09:46:20.000Z</time>
      </trkpt>
      <trkpt lat="42.91805" lon="0.75876">
        <ele>1262</ele>
        <time>2019-08-08T09:46:21.000Z</time>
      </trkpt>
      <trkpt lat="42.91807" lon="0.75886">
        <ele>1262</ele>
        <time>2019-08-08T09:46:22.000Z</time>
      </trkpt>
      <trkpt lat="42.91807" lon="0.75888">
        <ele>1264</ele>
        <time>2019-08-08T09:46:23.000Z</time>
      </trkpt>
      <trkpt lat="42.91807" lon="0.7589">
        <ele>1264</ele>
        <time>2019-08-08T09:46:24.000Z</time>
      </trkpt>
      <trkpt lat="42.91807" lon="0.75892">
        <ele>1265</ele>
        <time>2019-08-08T09:46:25.000Z</time>
      </trkpt>
      <trkpt lat="42.91809" lon="0.75901">
        <ele>1265</ele>
        <time>2019-08-08T09:46:26.000Z</time>
      </trkpt>
      <trkpt lat="42.9181" lon="0.75903">
        <ele>1265</ele>
        <time>2019-08-08T09:46:27.000Z</time>
      </trkpt>
      <trkpt lat="42.91811" lon="0.75904">
        <ele>1265</ele>
        <time>2019-08-08T09:46:28.000Z</time>
      </trkpt>
      <trkpt lat="42.91812" lon="0.75906">
        <ele>1266</ele>
        <time>2019-08-08T09:46:29.000Z</time>
      </trkpt>
      <trkpt lat="42.91815" lon="0.75912">
        <ele>1266</ele>
        <time>2019-08-08T09:46:30.000Z</time>
      </trkpt>
      <trkpt lat="42.91815" lon="0.75912">
        <ele>1267</ele>
        <time>2019-08-08T09:46:31.000Z</time>
      </trkpt>
      <trkpt lat="42.91815" lon="0.75912">
        <ele>1267</ele>
        <time>2019-08-08T09:46:32.000Z</time>
      </trkpt>
      <trkpt lat="42.91815" lon="0.75912">
        <ele>1267</ele>
        <time>2019-08-08T09:46:33.000Z</time>
      </trkpt>
      <trkpt lat="42.91815" lon="0.75912">
        <ele>1267</ele>
        <time>2019-08-08T09:46:34.000Z</time>
      </trkpt>
      <trkpt lat="42.91825" lon="0.7591">
        <ele>1267</ele>
        <time>2019-08-08T09:46:35.000Z</time>
      </trkpt>
      <trkpt lat="42.91825" lon="0.75908">
        <ele>1267</ele>
        <time>2019-08-08T09:46:36.000Z</time>
      </trkpt>
      <trkpt lat="42.91825" lon="0.75906">
        <ele>1268</ele>
        <time>2019-08-08T09:46:37.000Z</time>
      </trkpt>
      <trkpt lat="42.91824" lon="0.75904">
        <ele>1268</ele>
        <time>2019-08-08T09:46:38.000Z</time>
      </trkpt>
      <trkpt lat="42.91824" lon="0.75897">
        <ele>1268</ele>
        <time>2019-08-08T09:46:39.000Z</time>
      </trkpt>
      <trkpt lat="42.91824" lon="0.75897">
        <ele>1268</ele>
        <time>2019-08-08T09:46:40.000Z</time>
      </trkpt>
      <trkpt lat="42.91824" lon="0.75897">
        <ele>1269</ele>
        <time>2019-08-08T09:46:41.000Z</time>
      </trkpt>
      <trkpt lat="42.9182" lon="0.75885">
        <ele>1269</ele>
        <time>2019-08-08T09:46:42.000Z</time>
      </trkpt>
      <trkpt lat="42.9182" lon="0.75885">
        <ele>1269</ele>
        <time>2019-08-08T09:46:43.000Z</time>
      </trkpt>
      <trkpt lat="42.9182" lon="0.75885">
        <ele>1269</ele>
        <time>2019-08-08T09:46:44.000Z</time>
      </trkpt>
      <trkpt lat="42.91817" lon="0.7587">
        <ele>1269</ele>
        <time>2019-08-08T09:46:45.000Z</time>
      </trkpt>
      <trkpt lat="42.91817" lon="0.75868">
        <ele>1269</ele>
        <time>2019-08-08T09:46:46.000Z</time>
      </trkpt>
      <trkpt lat="42.91817" lon="0.75866">
        <ele>1269</ele>
        <time>2019-08-08T09:46:47.000Z</time>
      </trkpt>
      <trkpt lat="42.91816" lon="0.75864">
        <ele>1269</ele>
        <time>2019-08-08T09:46:48.000Z</time>
      </trkpt>
      <trkpt lat="42.91815" lon="0.75856">
        <ele>1269</ele>
        <time>2019-08-08T09:46:49.000Z</time>
      </trkpt>
      <trkpt lat="42.91815" lon="0.75856">
        <ele>1270</ele>
        <time>2019-08-08T09:46:50.000Z</time>
      </trkpt>
      <trkpt lat="42.91815" lon="0.75856">
        <ele>1270</ele>
        <time>2019-08-08T09:46:51.000Z</time>
      </trkpt>
      <trkpt lat="42.91815" lon="0.75842">
        <ele>1270</ele>
        <time>2019-08-08T09:46:52.000Z</time>
      </trkpt>
      <trkpt lat="42.91815" lon="0.75842">
        <ele>1270</ele>
        <time>2019-08-08T09:46:53.000Z</time>
      </trkpt>
      <trkpt lat="42.91815" lon="0.75842">
        <ele>1270</ele>
        <time>2019-08-08T09:46:54.000Z</time>
      </trkpt>
      <trkpt lat="42.91814" lon="0.75827">
        <ele>1271</ele>
        <time>2019-08-08T09:46:55.000Z</time>
      </trkpt>
      <trkpt lat="42.91814" lon="0.75825">
        <ele>1271</ele>
        <time>2019-08-08T09:46:56.000Z</time>
      </trkpt>
      <trkpt lat="42.91814" lon="0.75823">
        <ele>1273</ele>
        <time>2019-08-08T09:46:57.000Z</time>
      </trkpt>
      <trkpt lat="42.91814" lon="0.75822">
        <ele>1273</ele>
        <time>2019-08-08T09:46:58.000Z</time>
      </trkpt>
      <trkpt lat="42.91814" lon="0.75814">
        <ele>1273</ele>
        <time>2019-08-08T09:46:59.000Z</time>
      </trkpt>
      <trkpt lat="42.91814" lon="0.7581">
        <ele>1273</ele>
        <time>2019-08-08T09:47:00.000Z</time>
      </trkpt>
      <trkpt lat="42.91814" lon="0.7581">
        <ele>1273</ele>
        <time>2019-08-08T09:47:01.000Z</time>
      </trkpt>
      <trkpt lat="42.91814" lon="0.75803">
        <ele>1273</ele>
        <time>2019-08-08T09:47:02.000Z</time>
      </trkpt>
      <trkpt lat="42.91814" lon="0.75803">
        <ele>1273</ele>
        <time>2019-08-08T09:47:03.000Z</time>
      </trkpt>
      <trkpt lat="42.91813" lon="0.75797">
        <ele>1274</ele>
        <time>2019-08-08T09:47:04.000Z</time>
      </trkpt>
      <trkpt lat="42.91813" lon="0.75797">
        <ele>1274</ele>
        <time>2019-08-08T09:47:05.000Z</time>
      </trkpt>
      <trkpt lat="42.91813" lon="0.75797">
        <ele>1274</ele>
        <time>2019-08-08T09:47:06.000Z</time>
      </trkpt>
      <trkpt lat="42.91813" lon="0.75797">
        <ele>1275</ele>
        <time>2019-08-08T09:47:07.000Z</time>
      </trkpt>
      <trkpt lat="42.91809" lon="0.75784">
        <ele>1275</ele>
        <time>2019-08-08T09:47:08.000Z</time>
      </trkpt>
      <trkpt lat="42.91809" lon="0.75784">
        <ele>1275</ele>
        <time>2019-08-08T09:47:09.000Z</time>
      </trkpt>
      <trkpt lat="42.91808" lon="0.75777">
        <ele>1275</ele>
        <time>2019-08-08T09:47:10.000Z</time>
      </trkpt>
      <trkpt lat="42.91807" lon="0.75775">
        <ele>1275</ele>
        <time>2019-08-08T09:47:11.000Z</time>
      </trkpt>
      <trkpt lat="42.91806" lon="0.75771">
        <ele>1276</ele>
        <time>2019-08-08T09:47:12.000Z</time>
      </trkpt>
      <trkpt lat="42.91806" lon="0.75771">
        <ele>1276</ele>
        <time>2019-08-08T09:47:13.000Z</time>
      </trkpt>
      <trkpt lat="42.91806" lon="0.75771">
        <ele>1277</ele>
        <time>2019-08-08T09:47:14.000Z</time>
      </trkpt>
      <trkpt lat="42.91806" lon="0.75771">
        <ele>1277</ele>
        <time>2019-08-08T09:47:15.000Z</time>
      </trkpt>
      <trkpt lat="42.91802" lon="0.7576">
        <ele>1277</ele>
        <time>2019-08-08T09:47:16.000Z</time>
      </trkpt>
      <trkpt lat="42.91802" lon="0.7576">
        <ele>1277</ele>
        <time>2019-08-08T09:47:17.000Z</time>
      </trkpt>
      <trkpt lat="42.91802" lon="0.7576">
        <ele>1277</ele>
        <time>2019-08-08T09:47:18.000Z</time>
      </trkpt>
      <trkpt lat="42.91802" lon="0.7576">
        <ele>1278</ele>
        <time>2019-08-08T09:47:19.000Z</time>
      </trkpt>
      <trkpt lat="42.91796" lon="0.75749">
        <ele>1278</ele>
        <time>2019-08-08T09:47:20.000Z</time>
      </trkpt>
      <trkpt lat="42.91796" lon="0.75749">
        <ele>1278</ele>
        <time>2019-08-08T09:47:21.000Z</time>
      </trkpt>
      <trkpt lat="42.91796" lon="0.75749">
        <ele>1278</ele>
        <time>2019-08-08T09:47:22.000Z</time>
      </trkpt>
      <trkpt lat="42.91796" lon="0.75749">
        <ele>1278</ele>
        <time>2019-08-08T09:47:23.000Z</time>
      </trkpt>
      <trkpt lat="42.91792" lon="0.75738">
        <ele>1278</ele>
        <time>2019-08-08T09:47:24.000Z</time>
      </trkpt>
      <trkpt lat="42.91792" lon="0.75738">
        <ele>1278</ele>
        <time>2019-08-08T09:47:25.000Z</time>
      </trkpt>
      <trkpt lat="42.91792" lon="0.75738">
        <ele>1279</ele>
        <time>2019-08-08T09:47:26.000Z</time>
      </trkpt>
      <trkpt lat="42.91792" lon="0.75738">
        <ele>1279</ele>
        <time>2019-08-08T09:47:27.000Z</time>
      </trkpt>
      <trkpt lat="42.91792" lon="0.75738">
        <ele>1279</ele>
        <time>2019-08-08T09:47:28.000Z</time>
      </trkpt>
      <trkpt lat="42.91788" lon="0.75726">
        <ele>1279</ele>
        <time>2019-08-08T09:47:29.000Z</time>
      </trkpt>
      <trkpt lat="42.91788" lon="0.75726">
        <ele>1279</ele>
        <time>2019-08-08T09:47:30.000Z</time>
      </trkpt>
      <trkpt lat="42.91788" lon="0.75726">
        <ele>1280</ele>
        <time>2019-08-08T09:47:31.000Z</time>
      </trkpt>
      <trkpt lat="42.91784" lon="0.75721">
        <ele>1280</ele>
        <time>2019-08-08T09:47:32.000Z</time>
      </trkpt>
      <trkpt lat="42.91783" lon="0.75719">
        <ele>1281</ele>
        <time>2019-08-08T09:47:33.000Z</time>
      </trkpt>
      <trkpt lat="42.91782" lon="0.75717">
        <ele>1281</ele>
        <time>2019-08-08T09:47:34.000Z</time>
      </trkpt>
      <trkpt lat="42.91782" lon="0.75717">
        <ele>1281</ele>
        <time>2019-08-08T09:47:35.000Z</time>
      </trkpt>
      <trkpt lat="42.91782" lon="0.75717">
        <ele>1281</ele>
        <time>2019-08-08T09:47:36.000Z</time>
      </trkpt>
      <trkpt lat="42.91777" lon="0.7571">
        <ele>1281</ele>
        <time>2019-08-08T09:47:37.000Z</time>
      </trkpt>
      <trkpt lat="42.91776" lon="0.75708">
        <ele>1281</ele>
        <time>2019-08-08T09:47:38.000Z</time>
      </trkpt>
      <trkpt lat="42.91774" lon="0.75705">
        <ele>1282</ele>
        <time>2019-08-08T09:47:39.000Z</time>
      </trkpt>
      <trkpt lat="42.91774" lon="0.75705">
        <ele>1282</ele>
        <time>2019-08-08T09:47:40.000Z</time>
      </trkpt>
      <trkpt lat="42.91771" lon="0.75699">
        <ele>1283</ele>
        <time>2019-08-08T09:47:41.000Z</time>
      </trkpt>
      <trkpt lat="42.9177" lon="0.75697">
        <ele>1283</ele>
        <time>2019-08-08T09:47:42.000Z</time>
      </trkpt>
      <trkpt lat="42.91769" lon="0.75692">
        <ele>1283</ele>
        <time>2019-08-08T09:47:43.000Z</time>
      </trkpt>
      <trkpt lat="42.91768" lon="0.7569">
        <ele>1284</ele>
        <time>2019-08-08T09:47:44.000Z</time>
      </trkpt>
      <trkpt lat="42.91768" lon="0.75689">
        <ele>1284</ele>
        <time>2019-08-08T09:47:45.000Z</time>
      </trkpt>
      <trkpt lat="42.91768" lon="0.75687">
        <ele>1284</ele>
        <time>2019-08-08T09:47:46.000Z</time>
      </trkpt>
      <trkpt lat="42.91766" lon="0.7568">
        <ele>1284</ele>
        <time>2019-08-08T09:47:47.000Z</time>
      </trkpt>
      <trkpt lat="42.91766" lon="0.7568">
        <ele>1284</ele>
        <time>2019-08-08T09:47:48.000Z</time>
      </trkpt>
      <trkpt lat="42.91768" lon="0.75674">
        <ele>1285</ele>
        <time>2019-08-08T09:47:49.000Z</time>
      </trkpt>
      <trkpt lat="42.91768" lon="0.75674">
        <ele>1285</ele>
        <time>2019-08-08T09:47:50.000Z</time>
      </trkpt>
      <trkpt lat="42.91772" lon="0.75669">
        <ele>1285</ele>
        <time>2019-08-08T09:47:51.000Z</time>
      </trkpt>
      <trkpt lat="42.91775" lon="0.75669">
        <ele>1285</ele>
        <time>2019-08-08T09:47:52.000Z</time>
      </trkpt>
      <trkpt lat="42.91778" lon="0.7567">
        <ele>1285</ele>
        <time>2019-08-08T09:47:53.000Z</time>
      </trkpt>
      <trkpt lat="42.91781" lon="0.75672">
        <ele>1285</ele>
        <time>2019-08-08T09:47:54.000Z</time>
      </trkpt>
      <trkpt lat="42.91783" lon="0.75675">
        <ele>1285</ele>
        <time>2019-08-08T09:47:55.000Z</time>
      </trkpt>
      <trkpt lat="42.91785" lon="0.75679">
        <ele>1285</ele>
        <time>2019-08-08T09:47:56.000Z</time>
      </trkpt>
      <trkpt lat="42.91786" lon="0.75683">
        <ele>1285</ele>
        <time>2019-08-08T09:47:57.000Z</time>
      </trkpt>
      <trkpt lat="42.91787" lon="0.75687">
        <ele>1286</ele>
        <time>2019-08-08T09:47:58.000Z</time>
      </trkpt>
      <trkpt lat="42.91788" lon="0.75691">
        <ele>1286</ele>
        <time>2019-08-08T09:47:59.000Z</time>
      </trkpt>
      <trkpt lat="42.91789" lon="0.75694">
        <ele>1286</ele>
        <time>2019-08-08T09:48:00.000Z</time>
      </trkpt>
      <trkpt lat="42.9179" lon="0.75697">
        <ele>1286</ele>
        <time>2019-08-08T09:48:01.000Z</time>
      </trkpt>
      <trkpt lat="42.91791" lon="0.757">
        <ele>1286</ele>
        <time>2019-08-08T09:48:02.000Z</time>
      </trkpt>
      <trkpt lat="42.91792" lon="0.75703">
        <ele>1287</ele>
        <time>2019-08-08T09:48:03.000Z</time>
      </trkpt>
      <trkpt lat="42.91793" lon="0.75706">
        <ele>1287</ele>
        <time>2019-08-08T09:48:04.000Z</time>
      </trkpt>
      <trkpt lat="42.91794" lon="0.75709">
        <ele>1287</ele>
        <time>2019-08-08T09:48:05.000Z</time>
      </trkpt>
      <trkpt lat="42.91796" lon="0.75713">
        <ele>1287</ele>
        <time>2019-08-08T09:48:06.000Z</time>
      </trkpt>
      <trkpt lat="42.91798" lon="0.75716">
        <ele>1288</ele>
        <time>2019-08-08T09:48:07.000Z</time>
      </trkpt>
      <trkpt lat="42.918" lon="0.75719">
        <ele>1288</ele>
        <time>2019-08-08T09:48:08.000Z</time>
      </trkpt>
      <trkpt lat="42.91802" lon="0.75722">
        <ele>1288</ele>
        <time>2019-08-08T09:48:09.000Z</time>
      </trkpt>
      <trkpt lat="42.91803" lon="0.75725">
        <ele>1288</ele>
        <time>2019-08-08T09:48:10.000Z</time>
      </trkpt>
      <trkpt lat="42.91805" lon="0.75728">
        <ele>1289</ele>
        <time>2019-08-08T09:48:11.000Z</time>
      </trkpt>
      <trkpt lat="42.91807" lon="0.7573">
        <ele>1289</ele>
        <time>2019-08-08T09:48:12.000Z</time>
      </trkpt>
      <trkpt lat="42.91809" lon="0.75733">
        <ele>1290</ele>
        <time>2019-08-08T09:48:13.000Z</time>
      </trkpt>
      <trkpt lat="42.91813" lon="0.75737">
        <ele>1290</ele>
        <time>2019-08-08T09:48:14.000Z</time>
      </trkpt>
      <trkpt lat="42.91814" lon="0.75738">
        <ele>1290</ele>
        <time>2019-08-08T09:48:15.000Z</time>
      </trkpt>
      <trkpt lat="42.91816" lon="0.7574">
        <ele>1290</ele>
        <time>2019-08-08T09:48:16.000Z</time>
      </trkpt>
      <trkpt lat="42.91818" lon="0.75743">
        <ele>1292</ele>
        <time>2019-08-08T09:48:17.000Z</time>
      </trkpt>
      <trkpt lat="42.9182" lon="0.75746">
        <ele>1292</ele>
        <time>2019-08-08T09:48:18.000Z</time>
      </trkpt>
      <trkpt lat="42.91822" lon="0.75748">
        <ele>1292</ele>
        <time>2019-08-08T09:48:19.000Z</time>
      </trkpt>
      <trkpt lat="42.91825" lon="0.75751">
        <ele>1292</ele>
        <time>2019-08-08T09:48:20.000Z</time>
      </trkpt>
      <trkpt lat="42.91827" lon="0.75754">
        <ele>1293</ele>
        <time>2019-08-08T09:48:21.000Z</time>
      </trkpt>
      <trkpt lat="42.91829" lon="0.75756">
        <ele>1293</ele>
        <time>2019-08-08T09:48:22.000Z</time>
      </trkpt>
      <trkpt lat="42.91831" lon="0.75759">
        <ele>1293</ele>
        <time>2019-08-08T09:48:23.000Z</time>
      </trkpt>
      <trkpt lat="42.91833" lon="0.75761">
        <ele>1294</ele>
        <time>2019-08-08T09:48:24.000Z</time>
      </trkpt>
      <trkpt lat="42.91835" lon="0.75763">
        <ele>1294</ele>
        <time>2019-08-08T09:48:25.000Z</time>
      </trkpt>
      <trkpt lat="42.91835" lon="0.75763">
        <ele>1294</ele>
        <time>2019-08-08T09:48:26.000Z</time>
      </trkpt>
      <trkpt lat="42.91837" lon="0.75766">
        <ele>1294</ele>
        <time>2019-08-08T09:48:27.000Z</time>
      </trkpt>
      <trkpt lat="42.91837" lon="0.75766">
        <ele>1294</ele>
        <time>2019-08-08T09:48:28.000Z</time>
      </trkpt>
      <trkpt lat="42.9184" lon="0.75769">
        <ele>1294</ele>
        <time>2019-08-08T09:48:29.000Z</time>
      </trkpt>
      <trkpt lat="42.91843" lon="0.75771">
        <ele>1294</ele>
        <time>2019-08-08T09:48:30.000Z</time>
      </trkpt>
      <trkpt lat="42.91845" lon="0.75774">
        <ele>1294</ele>
        <time>2019-08-08T09:48:31.000Z</time>
      </trkpt>
      <trkpt lat="42.91847" lon="0.75776">
        <ele>1295</ele>
        <time>2019-08-08T09:48:32.000Z</time>
      </trkpt>
      <trkpt lat="42.91849" lon="0.75779">
        <ele>1295</ele>
        <time>2019-08-08T09:48:33.000Z</time>
      </trkpt>
      <trkpt lat="42.9185" lon="0.75781">
        <ele>1295</ele>
        <time>2019-08-08T09:48:34.000Z</time>
      </trkpt>
      <trkpt lat="42.9185" lon="0.75781">
        <ele>1295</ele>
        <time>2019-08-08T09:48:35.000Z</time>
      </trkpt>
      <trkpt lat="42.91853" lon="0.75786">
        <ele>1296</ele>
        <time>2019-08-08T09:48:36.000Z</time>
      </trkpt>
      <trkpt lat="42.91854" lon="0.75788">
        <ele>1296</ele>
        <time>2019-08-08T09:48:37.000Z</time>
      </trkpt>
      <trkpt lat="42.91856" lon="0.75792">
        <ele>1296</ele>
        <time>2019-08-08T09:48:38.000Z</time>
      </trkpt>
      <trkpt lat="42.91859" lon="0.75797">
        <ele>1296</ele>
        <time>2019-08-08T09:48:39.000Z</time>
      </trkpt>
      <trkpt lat="42.91859" lon="0.75799">
        <ele>1297</ele>
        <time>2019-08-08T09:48:40.000Z</time>
      </trkpt>
      <trkpt lat="42.9186" lon="0.758">
        <ele>1297</ele>
        <time>2019-08-08T09:48:41.000Z</time>
      </trkpt>
      <trkpt lat="42.91861" lon="0.75802">
        <ele>1298</ele>
        <time>2019-08-08T09:48:42.000Z</time>
      </trkpt>
      <trkpt lat="42.91864" lon="0.75811">
        <ele>1298</ele>
        <time>2019-08-08T09:48:43.000Z</time>
      </trkpt>
      <trkpt lat="42.91864" lon="0.75813">
        <ele>1299</ele>
        <time>2019-08-08T09:48:44.000Z</time>
      </trkpt>
      <trkpt lat="42.91864" lon="0.75815">
        <ele>1299</ele>
        <time>2019-08-08T09:48:45.000Z</time>
      </trkpt>
      <trkpt lat="42.91865" lon="0.75817">
        <ele>1299</ele>
        <time>2019-08-08T09:48:46.000Z</time>
      </trkpt>
      <trkpt lat="42.91865" lon="0.75825">
        <ele>1299</ele>
        <time>2019-08-08T09:48:47.000Z</time>
      </trkpt>
      <trkpt lat="42.91865" lon="0.75825">
        <ele>1300</ele>
        <time>2019-08-08T09:48:48.000Z</time>
      </trkpt>
      <trkpt lat="42.91865" lon="0.75825">
        <ele>1300</ele>
        <time>2019-08-08T09:48:49.000Z</time>
      </trkpt>
      <trkpt lat="42.91865" lon="0.75825">
        <ele>1300</ele>
        <time>2019-08-08T09:48:50.000Z</time>
      </trkpt>
      <trkpt lat="42.91868" lon="0.75839">
        <ele>1301</ele>
        <time>2019-08-08T09:48:51.000Z</time>
      </trkpt>
      <trkpt lat="42.91868" lon="0.75839">
        <ele>1301</ele>
        <time>2019-08-08T09:48:52.000Z</time>
      </trkpt>
      <trkpt lat="42.91868" lon="0.75839">
        <ele>1301</ele>
        <time>2019-08-08T09:48:53.000Z</time>
      </trkpt>
      <trkpt lat="42.91868" lon="0.75839">
        <ele>1301</ele>
        <time>2019-08-08T09:48:54.000Z</time>
      </trkpt>
      <trkpt lat="42.91871" lon="0.7585">
        <ele>1302</ele>
        <time>2019-08-08T09:48:55.000Z</time>
      </trkpt>
      <trkpt lat="42.91871" lon="0.7585">
        <ele>1302</ele>
        <time>2019-08-08T09:48:56.000Z</time>
      </trkpt>
      <trkpt lat="42.91871" lon="0.7585">
        <ele>1302</ele>
        <time>2019-08-08T09:48:57.000Z</time>
      </trkpt>
      <trkpt lat="42.91877" lon="0.7586">
        <ele>1302</ele>
        <time>2019-08-08T09:48:58.000Z</time>
      </trkpt>
      <trkpt lat="42.91877" lon="0.7586">
        <ele>1302</ele>
        <time>2019-08-08T09:48:59.000Z</time>
      </trkpt>
      <trkpt lat="42.91877" lon="0.7586">
        <ele>1302</ele>
        <time>2019-08-08T09:49:00.000Z</time>
      </trkpt>
      <trkpt lat="42.91877" lon="0.7586">
        <ele>1302</ele>
        <time>2019-08-08T09:49:01.000Z</time>
      </trkpt>
      <trkpt lat="42.91885" lon="0.7587">
        <ele>1302</ele>
        <time>2019-08-08T09:49:02.000Z</time>
      </trkpt>
      <trkpt lat="42.91886" lon="0.75871">
        <ele>1303</ele>
        <time>2019-08-08T09:49:03.000Z</time>
      </trkpt>
      <trkpt lat="42.91887" lon="0.75872">
        <ele>1303</ele>
        <time>2019-08-08T09:49:04.000Z</time>
      </trkpt>
      <trkpt lat="42.91888" lon="0.75873">
        <ele>1303</ele>
        <time>2019-08-08T09:49:05.000Z</time>
      </trkpt>
      <trkpt lat="42.91892" lon="0.75878">
        <ele>1303</ele>
        <time>2019-08-08T09:49:06.000Z</time>
      </trkpt>
      <trkpt lat="42.91892" lon="0.75878">
        <ele>1304</ele>
        <time>2019-08-08T09:49:07.000Z</time>
      </trkpt>
      <trkpt lat="42.91892" lon="0.75878">
        <ele>1304</ele>
        <time>2019-08-08T09:49:08.000Z</time>
      </trkpt>
      <trkpt lat="42.91892" lon="0.75878">
        <ele>1305</ele>
        <time>2019-08-08T09:49:09.000Z</time>
      </trkpt>
      <trkpt lat="42.91899" lon="0.75888">
        <ele>1305</ele>
        <time>2019-08-08T09:49:10.000Z</time>
      </trkpt>
      <trkpt lat="42.919" lon="0.75889">
        <ele>1305</ele>
        <time>2019-08-08T09:49:11.000Z</time>
      </trkpt>
      <trkpt lat="42.91901" lon="0.75891">
        <ele>1305</ele>
        <time>2019-08-08T09:49:12.000Z</time>
      </trkpt>
      <trkpt lat="42.91901" lon="0.75893">
        <ele>1306</ele>
        <time>2019-08-08T09:49:13.000Z</time>
      </trkpt>
      <trkpt lat="42.91904" lon="0.75899">
        <ele>1306</ele>
        <time>2019-08-08T09:49:14.000Z</time>
      </trkpt>
      <trkpt lat="42.91904" lon="0.75899">
        <ele>1307</ele>
        <time>2019-08-08T09:49:15.000Z</time>
      </trkpt>
      <trkpt lat="42.91904" lon="0.75899">
        <ele>1307</ele>
        <time>2019-08-08T09:49:16.000Z</time>
      </trkpt>
      <trkpt lat="42.91904" lon="0.75899">
        <ele>1307</ele>
        <time>2019-08-08T09:49:17.000Z</time>
      </trkpt>
      <trkpt lat="42.91907" lon="0.75912">
        <ele>1307</ele>
        <time>2019-08-08T09:49:18.000Z</time>
      </trkpt>
      <trkpt lat="42.91907" lon="0.75912">
        <ele>1308</ele>
        <time>2019-08-08T09:49:19.000Z</time>
      </trkpt>
      <trkpt lat="42.91907" lon="0.75912">
        <ele>1308</ele>
        <time>2019-08-08T09:49:20.000Z</time>
      </trkpt>
      <trkpt lat="42.91907" lon="0.75912">
        <ele>1309</ele>
        <time>2019-08-08T09:49:21.000Z</time>
      </trkpt>
      <trkpt lat="42.91907" lon="0.75925">
        <ele>1309</ele>
        <time>2019-08-08T09:49:22.000Z</time>
      </trkpt>
      <trkpt lat="42.91907" lon="0.75928">
        <ele>1309</ele>
        <time>2019-08-08T09:49:23.000Z</time>
      </trkpt>
      <trkpt lat="42.91907" lon="0.75928">
        <ele>1309</ele>
        <time>2019-08-08T09:49:24.000Z</time>
      </trkpt>
      <trkpt lat="42.91907" lon="0.75928">
        <ele>1309</ele>
        <time>2019-08-08T09:49:25.000Z</time>
      </trkpt>
      <trkpt lat="42.91905" lon="0.75938">
        <ele>1309</ele>
        <time>2019-08-08T09:49:26.000Z</time>
      </trkpt>
      <trkpt lat="42.91905" lon="0.75938">
        <ele>1309</ele>
        <time>2019-08-08T09:49:27.000Z</time>
      </trkpt>
      <trkpt lat="42.91905" lon="0.75938">
        <ele>1309</ele>
        <time>2019-08-08T09:49:28.000Z</time>
      </trkpt>
      <trkpt lat="42.91905" lon="0.75938">
        <ele>1309</ele>
        <time>2019-08-08T09:49:29.000Z</time>
      </trkpt>
      <trkpt lat="42.91903" lon="0.75954">
        <ele>1309</ele>
        <time>2019-08-08T09:49:30.000Z</time>
      </trkpt>
      <trkpt lat="42.91902" lon="0.75956">
        <ele>1309</ele>
        <time>2019-08-08T09:49:31.000Z</time>
      </trkpt>
      <trkpt lat="42.91902" lon="0.75957">
        <ele>1309</ele>
        <time>2019-08-08T09:49:32.000Z</time>
      </trkpt>
      <trkpt lat="42.91902" lon="0.75959">
        <ele>1310</ele>
        <time>2019-08-08T09:49:33.000Z</time>
      </trkpt>
      <trkpt lat="42.91901" lon="0.7596">
        <ele>1310</ele>
        <time>2019-08-08T09:49:34.000Z</time>
      </trkpt>
      <trkpt lat="42.919" lon="0.75968">
        <ele>1311</ele>
        <time>2019-08-08T09:49:35.000Z</time>
      </trkpt>
      <trkpt lat="42.919" lon="0.75968">
        <ele>1311</ele>
        <time>2019-08-08T09:49:36.000Z</time>
      </trkpt>
      <trkpt lat="42.919" lon="0.75968">
        <ele>1311</ele>
        <time>2019-08-08T09:49:37.000Z</time>
      </trkpt>
      <trkpt lat="42.919" lon="0.75968">
        <ele>1311</ele>
        <time>2019-08-08T09:49:38.000Z</time>
      </trkpt>
      <trkpt lat="42.91899" lon="0.75982">
        <ele>1312</ele>
        <time>2019-08-08T09:49:39.000Z</time>
      </trkpt>
      <trkpt lat="42.91899" lon="0.75982">
        <ele>1312</ele>
        <time>2019-08-08T09:49:40.000Z</time>
      </trkpt>
      <trkpt lat="42.91899" lon="0.75982">
        <ele>1312</ele>
        <time>2019-08-08T09:49:41.000Z</time>
      </trkpt>
      <trkpt lat="42.91899" lon="0.75982">
        <ele>1312</ele>
        <time>2019-08-08T09:49:42.000Z</time>
      </trkpt>
      <trkpt lat="42.91897" lon="0.75997">
        <ele>1312</ele>
        <time>2019-08-08T09:49:43.000Z</time>
      </trkpt>
      <trkpt lat="42.91897" lon="0.75999">
        <ele>1313</ele>
        <time>2019-08-08T09:49:44.000Z</time>
      </trkpt>
      <trkpt lat="42.91897" lon="0.76001">
        <ele>1313</ele>
        <time>2019-08-08T09:49:45.000Z</time>
      </trkpt>
      <trkpt lat="42.91897" lon="0.76003">
        <ele>1313</ele>
        <time>2019-08-08T09:49:46.000Z</time>
      </trkpt>
      <trkpt lat="42.91897" lon="0.76012">
        <ele>1313</ele>
        <time>2019-08-08T09:49:47.000Z</time>
      </trkpt>
      <trkpt lat="42.91897" lon="0.76014">
        <ele>1314</ele>
        <time>2019-08-08T09:49:48.000Z</time>
      </trkpt>
      <trkpt lat="42.91897" lon="0.76015">
        <ele>1314</ele>
        <time>2019-08-08T09:49:49.000Z</time>
      </trkpt>
      <trkpt lat="42.91898" lon="0.76017">
        <ele>1314</ele>
        <time>2019-08-08T09:49:50.000Z</time>
      </trkpt>
      <trkpt lat="42.91898" lon="0.76024">
        <ele>1315</ele>
        <time>2019-08-08T09:49:51.000Z</time>
      </trkpt>
      <trkpt lat="42.91898" lon="0.76024">
        <ele>1315</ele>
        <time>2019-08-08T09:49:52.000Z</time>
      </trkpt>
      <trkpt lat="42.91898" lon="0.76024">
        <ele>1315</ele>
        <time>2019-08-08T09:49:53.000Z</time>
      </trkpt>
      <trkpt lat="42.919" lon="0.76033">
        <ele>1315</ele>
        <time>2019-08-08T09:49:54.000Z</time>
      </trkpt>
      <trkpt lat="42.919" lon="0.76036">
        <ele>1317</ele>
        <time>2019-08-08T09:49:55.000Z</time>
      </trkpt>
      <trkpt lat="42.919" lon="0.7604">
        <ele>1317</ele>
        <time>2019-08-08T09:49:56.000Z</time>
      </trkpt>
      <trkpt lat="42.91901" lon="0.76043">
        <ele>1317</ele>
        <time>2019-08-08T09:49:57.000Z</time>
      </trkpt>
      <trkpt lat="42.91902" lon="0.76046">
        <ele>1317</ele>
        <time>2019-08-08T09:49:58.000Z</time>
      </trkpt>
      <trkpt lat="42.91903" lon="0.76048">
        <ele>1317</ele>
        <time>2019-08-08T09:49:59.000Z</time>
      </trkpt>
      <trkpt lat="42.91904" lon="0.76052">
        <ele>1317</ele>
        <time>2019-08-08T09:50:00.000Z</time>
      </trkpt>
      <trkpt lat="42.91905" lon="0.76055">
        <ele>1317</ele>
        <time>2019-08-08T09:50:01.000Z</time>
      </trkpt>
      <trkpt lat="42.91906" lon="0.76059">
        <ele>1318</ele>
        <time>2019-08-08T09:50:02.000Z</time>
      </trkpt>
      <trkpt lat="42.91906" lon="0.76061">
        <ele>1318</ele>
        <time>2019-08-08T09:50:03.000Z</time>
      </trkpt>
      <trkpt lat="42.91907" lon="0.76063">
        <ele>1319</ele>
        <time>2019-08-08T09:50:04.000Z</time>
      </trkpt>
      <trkpt lat="42.91907" lon="0.76064">
        <ele>1319</ele>
        <time>2019-08-08T09:50:05.000Z</time>
      </trkpt>
      <trkpt lat="42.91908" lon="0.76071">
        <ele>1320</ele>
        <time>2019-08-08T09:50:06.000Z</time>
      </trkpt>
      <trkpt lat="42.91908" lon="0.76074">
        <ele>1320</ele>
        <time>2019-08-08T09:50:07.000Z</time>
      </trkpt>
      <trkpt lat="42.91908" lon="0.76074">
        <ele>1320</ele>
        <time>2019-08-08T09:50:08.000Z</time>
      </trkpt>
      <trkpt lat="42.91908" lon="0.76074">
        <ele>1320</ele>
        <time>2019-08-08T09:50:09.000Z</time>
      </trkpt>
      <trkpt lat="42.91908" lon="0.76074">
        <ele>1321</ele>
        <time>2019-08-08T09:50:10.000Z</time>
      </trkpt>
      <trkpt lat="42.91912" lon="0.76089">
        <ele>1321</ele>
        <time>2019-08-08T09:50:11.000Z</time>
      </trkpt>
      <trkpt lat="42.91912" lon="0.76091">
        <ele>1321</ele>
        <time>2019-08-08T09:50:12.000Z</time>
      </trkpt>
      <trkpt lat="42.91912" lon="0.76093">
        <ele>1321</ele>
        <time>2019-08-08T09:50:13.000Z</time>
      </trkpt>
      <trkpt lat="42.91913" lon="0.76094">
        <ele>1322</ele>
        <time>2019-08-08T09:50:14.000Z</time>
      </trkpt>
      <trkpt lat="42.91914" lon="0.76101">
        <ele>1322</ele>
        <time>2019-08-08T09:50:15.000Z</time>
      </trkpt>
      <trkpt lat="42.91914" lon="0.76105">
        <ele>1322</ele>
        <time>2019-08-08T09:50:16.000Z</time>
      </trkpt>
      <trkpt lat="42.91914" lon="0.76109">
        <ele>1322</ele>
        <time>2019-08-08T09:50:17.000Z</time>
      </trkpt>
      <trkpt lat="42.91915" lon="0.76113">
        <ele>1322</ele>
        <time>2019-08-08T09:50:18.000Z</time>
      </trkpt>
      <trkpt lat="42.91916" lon="0.76115">
        <ele>1322</ele>
        <time>2019-08-08T09:50:19.000Z</time>
      </trkpt>
      <trkpt lat="42.91917" lon="0.76118">
        <ele>1323</ele>
        <time>2019-08-08T09:50:20.000Z</time>
      </trkpt>
      <trkpt lat="42.91917" lon="0.76118">
        <ele>1323</ele>
        <time>2019-08-08T09:50:21.000Z</time>
      </trkpt>
      <trkpt lat="42.91917" lon="0.76125">
        <ele>1324</ele>
        <time>2019-08-08T09:50:22.000Z</time>
      </trkpt>
      <trkpt lat="42.91917" lon="0.76128">
        <ele>1324</ele>
        <time>2019-08-08T09:50:23.000Z</time>
      </trkpt>
      <trkpt lat="42.91918" lon="0.76132">
        <ele>1325</ele>
        <time>2019-08-08T09:50:24.000Z</time>
      </trkpt>
      <trkpt lat="42.91918" lon="0.76136">
        <ele>1325</ele>
        <time>2019-08-08T09:50:25.000Z</time>
      </trkpt>
      <trkpt lat="42.91918" lon="0.76136">
        <ele>1325</ele>
        <time>2019-08-08T09:50:26.000Z</time>
      </trkpt>
      <trkpt lat="42.91918" lon="0.76136">
        <ele>1325</ele>
        <time>2019-08-08T09:50:27.000Z</time>
      </trkpt>
      <trkpt lat="42.91921" lon="0.76145">
        <ele>1325</ele>
        <time>2019-08-08T09:50:28.000Z</time>
      </trkpt>
      <trkpt lat="42.91923" lon="0.76147">
        <ele>1325</ele>
        <time>2019-08-08T09:50:29.000Z</time>
      </trkpt>
      <trkpt lat="42.91925" lon="0.7615">
        <ele>1326</ele>
        <time>2019-08-08T09:50:30.000Z</time>
      </trkpt>
      <trkpt lat="42.91926" lon="0.76152">
        <ele>1326</ele>
        <time>2019-08-08T09:50:31.000Z</time>
      </trkpt>
      <trkpt lat="42.91928" lon="0.76155">
        <ele>1326</ele>
        <time>2019-08-08T09:50:32.000Z</time>
      </trkpt>
      <trkpt lat="42.91929" lon="0.76157">
        <ele>1326</ele>
        <time>2019-08-08T09:50:33.000Z</time>
      </trkpt>
      <trkpt lat="42.9193" lon="0.7616">
        <ele>1327</ele>
        <time>2019-08-08T09:50:34.000Z</time>
      </trkpt>
      <trkpt lat="42.91931" lon="0.76163">
        <ele>1327</ele>
        <time>2019-08-08T09:50:35.000Z</time>
      </trkpt>
      <trkpt lat="42.91932" lon="0.76165">
        <ele>1327</ele>
        <time>2019-08-08T09:50:36.000Z</time>
      </trkpt>
      <trkpt lat="42.91933" lon="0.76168">
        <ele>1327</ele>
        <time>2019-08-08T09:50:37.000Z</time>
      </trkpt>
      <trkpt lat="42.91934" lon="0.7617">
        <ele>1327</ele>
        <time>2019-08-08T09:50:38.000Z</time>
      </trkpt>
      <trkpt lat="42.91934" lon="0.7617">
        <ele>1327</ele>
        <time>2019-08-08T09:50:39.000Z</time>
      </trkpt>
      <trkpt lat="42.91937" lon="0.76173">
        <ele>1327</ele>
        <time>2019-08-08T09:50:40.000Z</time>
      </trkpt>
      <trkpt lat="42.91937" lon="0.76173">
        <ele>1327</ele>
        <time>2019-08-08T09:50:41.000Z</time>
      </trkpt>
      <trkpt lat="42.9194" lon="0.76173">
        <ele>1327</ele>
        <time>2019-08-08T09:50:42.000Z</time>
      </trkpt>
      <trkpt lat="42.91941" lon="0.76172">
        <ele>1327</ele>
        <time>2019-08-08T09:50:43.000Z</time>
      </trkpt>
      <trkpt lat="42.91943" lon="0.7617">
        <ele>1327</ele>
        <time>2019-08-08T09:50:44.000Z</time>
      </trkpt>
      <trkpt lat="42.91945" lon="0.76169">
        <ele>1328</ele>
        <time>2019-08-08T09:50:45.000Z</time>
      </trkpt>
      <trkpt lat="42.91947" lon="0.76167">
        <ele>1328</ele>
        <time>2019-08-08T09:50:46.000Z</time>
      </trkpt>
      <trkpt lat="42.91949" lon="0.76166">
        <ele>1328</ele>
        <time>2019-08-08T09:50:47.000Z</time>
      </trkpt>
      <trkpt lat="42.91949" lon="0.76166">
        <ele>1328</ele>
        <time>2019-08-08T09:50:48.000Z</time>
      </trkpt>
      <trkpt lat="42.91951" lon="0.76163">
        <ele>1329</ele>
        <time>2019-08-08T09:50:49.000Z</time>
      </trkpt>
      <trkpt lat="42.91951" lon="0.76163">
        <ele>1329</ele>
        <time>2019-08-08T09:50:50.000Z</time>
      </trkpt>
      <trkpt lat="42.91952" lon="0.76158">
        <ele>1329</ele>
        <time>2019-08-08T09:50:51.000Z</time>
      </trkpt>
      <trkpt lat="42.91952" lon="0.76158">
        <ele>1329</ele>
        <time>2019-08-08T09:50:52.000Z</time>
      </trkpt>
      <trkpt lat="42.91952" lon="0.76155">
        <ele>1329</ele>
        <time>2019-08-08T09:50:53.000Z</time>
      </trkpt>
      <trkpt lat="42.91952" lon="0.76155">
        <ele>1330</ele>
        <time>2019-08-08T09:50:54.000Z</time>
      </trkpt>
      <trkpt lat="42.91952" lon="0.76152">
        <ele>1330</ele>
        <time>2019-08-08T09:50:55.000Z</time>
      </trkpt>
      <trkpt lat="42.91952" lon="0.76152">
        <ele>1330</ele>
        <time>2019-08-08T09:50:56.000Z</time>
      </trkpt>
      <trkpt lat="42.91952" lon="0.76152">
        <ele>1330</ele>
        <time>2019-08-08T09:50:57.000Z</time>
      </trkpt>
      <trkpt lat="42.91952" lon="0.76152">
        <ele>1330</ele>
        <time>2019-08-08T09:50:58.000Z</time>
      </trkpt>
      <trkpt lat="42.91952" lon="0.76152">
        <ele>1331</ele>
        <time>2019-08-08T09:50:59.000Z</time>
      </trkpt>
      <trkpt lat="42.91952" lon="0.76152">
        <ele>1331</ele>
        <time>2019-08-08T09:51:00.000Z</time>
      </trkpt>
      <trkpt lat="42.91952" lon="0.76152">
        <ele>1331</ele>
        <time>2019-08-08T09:51:01.000Z</time>
      </trkpt>
      <trkpt lat="42.91953" lon="0.76149">
        <ele>1331</ele>
        <time>2019-08-08T09:51:02.000Z</time>
      </trkpt>
      <trkpt lat="42.91953" lon="0.76149">
        <ele>1331</ele>
        <time>2019-08-08T09:51:03.000Z</time>
      </trkpt>
      <trkpt lat="42.91952" lon="0.76148">
        <ele>1331</ele>
        <time>2019-08-08T09:51:04.000Z</time>
      </trkpt>
      <trkpt lat="42.91951" lon="0.76153">
        <ele>1333</ele>
        <time>2019-08-08T09:53:04.000Z</time>
      </trkpt>
      <trkpt lat="42.91951" lon="0.76153">
        <ele>1333</ele>
        <time>2019-08-08T09:53:05.000Z</time>
      </trkpt>
      <trkpt lat="42.9195" lon="0.76153">
        <ele>1333</ele>
        <time>2019-08-08T09:53:06.000Z</time>
      </trkpt>
      <trkpt lat="42.9195" lon="0.76153">
        <ele>1333</ele>
        <time>2019-08-08T09:53:07.000Z</time>
      </trkpt>
      <trkpt lat="42.91948" lon="0.76154">
        <ele>1333</ele>
        <time>2019-08-08T09:53:08.000Z</time>
      </trkpt>
      <trkpt lat="42.91948" lon="0.76154">
        <ele>1333</ele>
        <time>2019-08-08T09:53:09.000Z</time>
      </trkpt>
      <trkpt lat="42.91946" lon="0.76159">
        <ele>1333</ele>
        <time>2019-08-08T09:53:10.000Z</time>
      </trkpt>
      <trkpt lat="42.91944" lon="0.76162">
        <ele>1332</ele>
        <time>2019-08-08T09:53:11.000Z</time>
      </trkpt>
      <trkpt lat="42.91942" lon="0.76165">
        <ele>1332</ele>
        <time>2019-08-08T09:53:12.000Z</time>
      </trkpt>
      <trkpt lat="42.9194" lon="0.76167">
        <ele>1332</ele>
        <time>2019-08-08T09:53:13.000Z</time>
      </trkpt>
      <trkpt lat="42.91937" lon="0.76171">
        <ele>1331</ele>
        <time>2019-08-08T09:53:14.000Z</time>
      </trkpt>
      <trkpt lat="42.91935" lon="0.76175">
        <ele>1330</ele>
        <time>2019-08-08T09:53:15.000Z</time>
      </trkpt>
      <trkpt lat="42.91934" lon="0.7618">
        <ele>1330</ele>
        <time>2019-08-08T09:53:16.000Z</time>
      </trkpt>
      <trkpt lat="42.91934" lon="0.76185">
        <ele>1330</ele>
        <time>2019-08-08T09:53:17.000Z</time>
      </trkpt>
      <trkpt lat="42.91934" lon="0.7619">
        <ele>1330</ele>
        <time>2019-08-08T09:53:18.000Z</time>
      </trkpt>
      <trkpt lat="42.91935" lon="0.76197">
        <ele>1330</ele>
        <time>2019-08-08T09:53:19.000Z</time>
      </trkpt>
      <trkpt lat="42.91935" lon="0.76203">
        <ele>1329</ele>
        <time>2019-08-08T09:53:20.000Z</time>
      </trkpt>
      <trkpt lat="42.91936" lon="0.76211">
        <ele>1329</ele>
        <time>2019-08-08T09:53:21.000Z</time>
      </trkpt>
      <trkpt lat="42.91936" lon="0.7622">
        <ele>1329</ele>
        <time>2019-08-08T09:53:22.000Z</time>
      </trkpt>
      <trkpt lat="42.91935" lon="0.76229">
        <ele>1329</ele>
        <time>2019-08-08T09:53:23.000Z</time>
      </trkpt>
      <trkpt lat="42.91933" lon="0.76245">
        <ele>1327</ele>
        <time>2019-08-08T09:53:24.000Z</time>
      </trkpt>
      <trkpt lat="42.91932" lon="0.7625">
        <ele>1327</ele>
        <time>2019-08-08T09:53:25.000Z</time>
      </trkpt>
      <trkpt lat="42.91931" lon="0.76262">
        <ele>1327</ele>
        <time>2019-08-08T09:53:26.000Z</time>
      </trkpt>
      <trkpt lat="42.9193" lon="0.76274">
        <ele>1324</ele>
        <time>2019-08-08T09:53:27.000Z</time>
      </trkpt>
      <trkpt lat="42.91928" lon="0.76287">
        <ele>1324</ele>
        <time>2019-08-08T09:53:28.000Z</time>
      </trkpt>
      <trkpt lat="42.91927" lon="0.76301">
        <ele>1322</ele>
        <time>2019-08-08T09:53:29.000Z</time>
      </trkpt>
      <trkpt lat="42.91925" lon="0.76315">
        <ele>1322</ele>
        <time>2019-08-08T09:53:30.000Z</time>
      </trkpt>
      <trkpt lat="42.91924" lon="0.7633">
        <ele>1320</ele>
        <time>2019-08-08T09:53:31.000Z</time>
      </trkpt>
      <trkpt lat="42.91923" lon="0.76345">
        <ele>1320</ele>
        <time>2019-08-08T09:53:32.000Z</time>
      </trkpt>
      <trkpt lat="42.91922" lon="0.7636">
        <ele>1319</ele>
        <time>2019-08-08T09:53:33.000Z</time>
      </trkpt>
      <trkpt lat="42.91921" lon="0.76376">
        <ele>1319</ele>
        <time>2019-08-08T09:53:34.000Z</time>
      </trkpt>
      <trkpt lat="42.9192" lon="0.76391">
        <ele>1318</ele>
        <time>2019-08-08T09:53:35.000Z</time>
      </trkpt>
      <trkpt lat="42.91919" lon="0.76407">
        <ele>1318</ele>
        <time>2019-08-08T09:53:36.000Z</time>
      </trkpt>
      <trkpt lat="42.91918" lon="0.76423">
        <ele>1315</ele>
        <time>2019-08-08T09:53:37.000Z</time>
      </trkpt>
      <trkpt lat="42.91916" lon="0.76439">
        <ele>1315</ele>
        <time>2019-08-08T09:53:38.000Z</time>
      </trkpt>
      <trkpt lat="42.91914" lon="0.76455">
        <ele>1313</ele>
        <time>2019-08-08T09:53:39.000Z</time>
      </trkpt>
      <trkpt lat="42.91912" lon="0.76471">
        <ele>1314</ele>
        <time>2019-08-08T09:53:40.000Z</time>
      </trkpt>
      <trkpt lat="42.9191" lon="0.76488">
        <ele>1313</ele>
        <time>2019-08-08T09:53:41.000Z</time>
      </trkpt>
      <trkpt lat="42.91909" lon="0.76504">
        <ele>1313</ele>
        <time>2019-08-08T09:53:42.000Z</time>
      </trkpt>
      <trkpt lat="42.91909" lon="0.76521">
        <ele>1311</ele>
        <time>2019-08-08T09:53:43.000Z</time>
      </trkpt>
      <trkpt lat="42.91908" lon="0.76538">
        <ele>1311</ele>
        <time>2019-08-08T09:53:44.000Z</time>
      </trkpt>
      <trkpt lat="42.91907" lon="0.76554">
        <ele>1308</ele>
        <time>2019-08-08T09:53:45.000Z</time>
      </trkpt>
      <trkpt lat="42.91906" lon="0.76572">
        <ele>1308</ele>
        <time>2019-08-08T09:53:46.000Z</time>
      </trkpt>
      <trkpt lat="42.91905" lon="0.76589">
        <ele>1306</ele>
        <time>2019-08-08T09:53:47.000Z</time>
      </trkpt>
      <trkpt lat="42.91904" lon="0.76607">
        <ele>1306</ele>
        <time>2019-08-08T09:53:48.000Z</time>
      </trkpt>
      <trkpt lat="42.91903" lon="0.76625">
        <ele>1305</ele>
        <time>2019-08-08T09:53:49.000Z</time>
      </trkpt>
      <trkpt lat="42.91902" lon="0.76643">
        <ele>1305</ele>
        <time>2019-08-08T09:53:50.000Z</time>
      </trkpt>
      <trkpt lat="42.91903" lon="0.76662">
        <ele>1300</ele>
        <time>2019-08-08T09:53:51.000Z</time>
      </trkpt>
      <trkpt lat="42.91903" lon="0.76681">
        <ele>1300</ele>
        <time>2019-08-08T09:53:52.000Z</time>
      </trkpt>
      <trkpt lat="42.91905" lon="0.767">
        <ele>1297</ele>
        <time>2019-08-08T09:53:53.000Z</time>
      </trkpt>
      <trkpt lat="42.91907" lon="0.76718">
        <ele>1297</ele>
        <time>2019-08-08T09:53:54.000Z</time>
      </trkpt>
      <trkpt lat="42.91909" lon="0.76736">
        <ele>1294</ele>
        <time>2019-08-08T09:53:55.000Z</time>
      </trkpt>
      <trkpt lat="42.9191" lon="0.76754">
        <ele>1294</ele>
        <time>2019-08-08T09:53:56.000Z</time>
      </trkpt>
      <trkpt lat="42.91912" lon="0.76772">
        <ele>1293</ele>
        <time>2019-08-08T09:53:57.000Z</time>
      </trkpt>
      <trkpt lat="42.91913" lon="0.76791">
        <ele>1293</ele>
        <time>2019-08-08T09:53:58.000Z</time>
      </trkpt>
      <trkpt lat="42.91913" lon="0.7681">
        <ele>1291</ele>
        <time>2019-08-08T09:53:59.000Z</time>
      </trkpt>
      <trkpt lat="42.91912" lon="0.76829">
        <ele>1290</ele>
        <time>2019-08-08T09:54:00.000Z</time>
      </trkpt>
      <trkpt lat="42.9191" lon="0.76847">
        <ele>1290</ele>
        <time>2019-08-08T09:54:01.000Z</time>
      </trkpt>
      <trkpt lat="42.91905" lon="0.76865">
        <ele>1289</ele>
        <time>2019-08-08T09:54:02.000Z</time>
      </trkpt>
      <trkpt lat="42.91899" lon="0.76881">
        <ele>1289</ele>
        <time>2019-08-08T09:54:03.000Z</time>
      </trkpt>
      <trkpt lat="42.9189" lon="0.76895">
        <ele>1289</ele>
        <time>2019-08-08T09:54:04.000Z</time>
      </trkpt>
      <trkpt lat="42.91879" lon="0.76907">
        <ele>1285</ele>
        <time>2019-08-08T09:54:05.000Z</time>
      </trkpt>
      <trkpt lat="42.91867" lon="0.76916">
        <ele>1285</ele>
        <time>2019-08-08T09:54:06.000Z</time>
      </trkpt>
      <trkpt lat="42.91854" lon="0.76925">
        <ele>1283</ele>
        <time>2019-08-08T09:54:07.000Z</time>
      </trkpt>
      <trkpt lat="42.91842" lon="0.76933">
        <ele>1283</ele>
        <time>2019-08-08T09:54:08.000Z</time>
      </trkpt>
      <trkpt lat="42.91831" lon="0.76941">
        <ele>1280</ele>
        <time>2019-08-08T09:54:09.000Z</time>
      </trkpt>
      <trkpt lat="42.91822" lon="0.76952">
        <ele>1280</ele>
        <time>2019-08-08T09:54:10.000Z</time>
      </trkpt>
      <trkpt lat="42.91815" lon="0.76963">
        <ele>1278</ele>
        <time>2019-08-08T09:54:11.000Z</time>
      </trkpt>
      <trkpt lat="42.91811" lon="0.76977">
        <ele>1278</ele>
        <time>2019-08-08T09:54:12.000Z</time>
      </trkpt>
      <trkpt lat="42.91811" lon="0.76992">
        <ele>1277</ele>
        <time>2019-08-08T09:54:13.000Z</time>
      </trkpt>
      <trkpt lat="42.91814" lon="0.77007">
        <ele>1277</ele>
        <time>2019-08-08T09:54:14.000Z</time>
      </trkpt>
      <trkpt lat="42.91818" lon="0.77022">
        <ele>1275</ele>
        <time>2019-08-08T09:54:15.000Z</time>
      </trkpt>
      <trkpt lat="42.91822" lon="0.77037">
        <ele>1275</ele>
        <time>2019-08-08T09:54:16.000Z</time>
      </trkpt>
      <trkpt lat="42.91825" lon="0.77053">
        <ele>1273</ele>
        <time>2019-08-08T09:54:17.000Z</time>
      </trkpt>
      <trkpt lat="42.91827" lon="0.7707">
        <ele>1273</ele>
        <time>2019-08-08T09:54:18.000Z</time>
      </trkpt>
      <trkpt lat="42.91827" lon="0.77087">
        <ele>1271</ele>
        <time>2019-08-08T09:54:19.000Z</time>
      </trkpt>
      <trkpt lat="42.91827" lon="0.77104">
        <ele>1271</ele>
        <time>2019-08-08T09:54:20.000Z</time>
      </trkpt>
      <trkpt lat="42.91826" lon="0.77122">
        <ele>1268</ele>
        <time>2019-08-08T09:54:21.000Z</time>
      </trkpt>
      <trkpt lat="42.91824" lon="0.77139">
        <ele>1268</ele>
        <time>2019-08-08T09:54:22.000Z</time>
      </trkpt>
      <trkpt lat="42.91824" lon="0.77156">
        <ele>1265</ele>
        <time>2019-08-08T09:54:23.000Z</time>
      </trkpt>
      <trkpt lat="42.91825" lon="0.77172">
        <ele>1265</ele>
        <time>2019-08-08T09:54:24.000Z</time>
      </trkpt>
      <trkpt lat="42.91828" lon="0.77188">
        <ele>1263</ele>
        <time>2019-08-08T09:54:25.000Z</time>
      </trkpt>
      <trkpt lat="42.91833" lon="0.77202">
        <ele>1263</ele>
        <time>2019-08-08T09:54:26.000Z</time>
      </trkpt>
      <trkpt lat="42.91841" lon="0.77214">
        <ele>1261</ele>
        <time>2019-08-08T09:54:27.000Z</time>
      </trkpt>
      <trkpt lat="42.9185" lon="0.77227">
        <ele>1261</ele>
        <time>2019-08-08T09:54:28.000Z</time>
      </trkpt>
      <trkpt lat="42.9186" lon="0.77238">
        <ele>1258</ele>
        <time>2019-08-08T09:54:29.000Z</time>
      </trkpt>
      <trkpt lat="42.9187" lon="0.7725">
        <ele>1258</ele>
        <time>2019-08-08T09:54:30.000Z</time>
      </trkpt>
      <trkpt lat="42.91879" lon="0.77263">
        <ele>1256</ele>
        <time>2019-08-08T09:54:31.000Z</time>
      </trkpt>
      <trkpt lat="42.91887" lon="0.77275">
        <ele>1255</ele>
        <time>2019-08-08T09:54:32.000Z</time>
      </trkpt>
      <trkpt lat="42.91895" lon="0.77289">
        <ele>1255</ele>
        <time>2019-08-08T09:54:33.000Z</time>
      </trkpt>
      <trkpt lat="42.91901" lon="0.77303">
        <ele>1253</ele>
        <time>2019-08-08T09:54:34.000Z</time>
      </trkpt>
      <trkpt lat="42.91907" lon="0.77319">
        <ele>1253</ele>
        <time>2019-08-08T09:54:35.000Z</time>
      </trkpt>
      <trkpt lat="42.9191" lon="0.77336">
        <ele>1250</ele>
        <time>2019-08-08T09:54:36.000Z</time>
      </trkpt>
      <trkpt lat="42.91911" lon="0.77353">
        <ele>1250</ele>
        <time>2019-08-08T09:54:37.000Z</time>
      </trkpt>
      <trkpt lat="42.91911" lon="0.77371">
        <ele>1248</ele>
        <time>2019-08-08T09:54:38.000Z</time>
      </trkpt>
      <trkpt lat="42.91905" lon="0.77398">
        <ele>1248</ele>
        <time>2019-08-08T09:54:39.000Z</time>
      </trkpt>
      <trkpt lat="42.91903" lon="0.77407">
        <ele>1247</ele>
        <time>2019-08-08T09:54:40.000Z</time>
      </trkpt>
      <trkpt lat="42.91898" lon="0.77425">
        <ele>1247</ele>
        <time>2019-08-08T09:54:41.000Z</time>
      </trkpt>
      <trkpt lat="42.91894" lon="0.77443">
        <ele>1243</ele>
        <time>2019-08-08T09:54:42.000Z</time>
      </trkpt>
      <trkpt lat="42.9189" lon="0.7746">
        <ele>1243</ele>
        <time>2019-08-08T09:54:43.000Z</time>
      </trkpt>
      <trkpt lat="42.91889" lon="0.77478">
        <ele>1243</ele>
        <time>2019-08-08T09:54:44.000Z</time>
      </trkpt>
      <trkpt lat="42.91891" lon="0.77496">
        <ele>1240</ele>
        <time>2019-08-08T09:54:45.000Z</time>
      </trkpt>
      <trkpt lat="42.91894" lon="0.77513">
        <ele>1240</ele>
        <time>2019-08-08T09:54:46.000Z</time>
      </trkpt>
      <trkpt lat="42.91899" lon="0.7753">
        <ele>1238</ele>
        <time>2019-08-08T09:54:47.000Z</time>
      </trkpt>
      <trkpt lat="42.91903" lon="0.77546">
        <ele>1238</ele>
        <time>2019-08-08T09:54:48.000Z</time>
      </trkpt>
      <trkpt lat="42.91907" lon="0.7756">
        <ele>1236</ele>
        <time>2019-08-08T09:54:49.000Z</time>
      </trkpt>
      <trkpt lat="42.91911" lon="0.77573">
        <ele>1236</ele>
        <time>2019-08-08T09:54:50.000Z</time>
      </trkpt>
      <trkpt lat="42.91913" lon="0.77584">
        <ele>1235</ele>
        <time>2019-08-08T09:54:51.000Z</time>
      </trkpt>
      <trkpt lat="42.91914" lon="0.77594">
        <ele>1235</ele>
        <time>2019-08-08T09:54:52.000Z</time>
      </trkpt>
      <trkpt lat="42.91909" lon="0.77603">
        <ele>1233</ele>
        <time>2019-08-08T09:54:53.000Z</time>
      </trkpt>
      <trkpt lat="42.91901" lon="0.77606">
        <ele>1233</ele>
        <time>2019-08-08T09:54:54.000Z</time>
      </trkpt>
      <trkpt lat="42.91892" lon="0.77605">
        <ele>1230</ele>
        <time>2019-08-08T09:54:55.000Z</time>
      </trkpt>
      <trkpt lat="42.91883" lon="0.77602">
        <ele>1230</ele>
        <time>2019-08-08T09:54:56.000Z</time>
      </trkpt>
      <trkpt lat="42.91874" lon="0.77599">
        <ele>1229</ele>
        <time>2019-08-08T09:54:57.000Z</time>
      </trkpt>
      <trkpt lat="42.91864" lon="0.77595">
        <ele>1229</ele>
        <time>2019-08-08T09:54:58.000Z</time>
      </trkpt>
      <trkpt lat="42.9185" lon="0.77592">
        <ele>1229</ele>
        <time>2019-08-08T09:54:59.000Z</time>
      </trkpt>
      <trkpt lat="42.91846" lon="0.77591">
        <ele>1227</ele>
        <time>2019-08-08T09:55:00.000Z</time>
      </trkpt>
      <trkpt lat="42.91837" lon="0.77589">
        <ele>1227</ele>
        <time>2019-08-08T09:55:01.000Z</time>
      </trkpt>
      <trkpt lat="42.91828" lon="0.77589">
        <ele>1227</ele>
        <time>2019-08-08T09:55:02.000Z</time>
      </trkpt>
      <trkpt lat="42.91821" lon="0.77593">
        <ele>1227</ele>
        <time>2019-08-08T09:55:03.000Z</time>
      </trkpt>
      <trkpt lat="42.91818" lon="0.77601">
        <ele>1226</ele>
        <time>2019-08-08T09:55:04.000Z</time>
      </trkpt>
      <trkpt lat="42.91819" lon="0.77609">
        <ele>1226</ele>
        <time>2019-08-08T09:55:05.000Z</time>
      </trkpt>
      <trkpt lat="42.91824" lon="0.77616">
        <ele>1226</ele>
        <time>2019-08-08T09:55:06.000Z</time>
      </trkpt>
      <trkpt lat="42.91831" lon="0.77618">
        <ele>1226</ele>
        <time>2019-08-08T09:55:07.000Z</time>
      </trkpt>
      <trkpt lat="42.91839" lon="0.77619">
        <ele>1225</ele>
        <time>2019-08-08T09:55:08.000Z</time>
      </trkpt>
      <trkpt lat="42.91848" lon="0.77621">
        <ele>1225</ele>
        <time>2019-08-08T09:55:09.000Z</time>
      </trkpt>
      <trkpt lat="42.91857" lon="0.77624">
        <ele>1222</ele>
        <time>2019-08-08T09:55:10.000Z</time>
      </trkpt>
      <trkpt lat="42.91865" lon="0.77631">
        <ele>1222</ele>
        <time>2019-08-08T09:55:11.000Z</time>
      </trkpt>
      <trkpt lat="42.91872" lon="0.77641">
        <ele>1219</ele>
        <time>2019-08-08T09:55:12.000Z</time>
      </trkpt>
      <trkpt lat="42.91877" lon="0.77653">
        <ele>1219</ele>
        <time>2019-08-08T09:55:13.000Z</time>
      </trkpt>
      <trkpt lat="42.91883" lon="0.77667">
        <ele>1218</ele>
        <time>2019-08-08T09:55:14.000Z</time>
      </trkpt>
      <trkpt lat="42.91889" lon="0.7768">
        <ele>1218</ele>
        <time>2019-08-08T09:55:15.000Z</time>
      </trkpt>
      <trkpt lat="42.91896" lon="0.77693">
        <ele>1215</ele>
        <time>2019-08-08T09:55:16.000Z</time>
      </trkpt>
      <trkpt lat="42.91904" lon="0.77705">
        <ele>1215</ele>
        <time>2019-08-08T09:55:17.000Z</time>
      </trkpt>
      <trkpt lat="42.91912" lon="0.77719">
        <ele>1212</ele>
        <time>2019-08-08T09:55:18.000Z</time>
      </trkpt>
      <trkpt lat="42.91917" lon="0.77734">
        <ele>1212</ele>
        <time>2019-08-08T09:55:19.000Z</time>
      </trkpt>
      <trkpt lat="42.91922" lon="0.7775">
        <ele>1212</ele>
        <time>2019-08-08T09:55:20.000Z</time>
      </trkpt>
      <trkpt lat="42.91926" lon="0.77767">
        <ele>1208</ele>
        <time>2019-08-08T09:55:21.000Z</time>
      </trkpt>
      <trkpt lat="42.91931" lon="0.77784">
        <ele>1208</ele>
        <time>2019-08-08T09:55:22.000Z</time>
      </trkpt>
      <trkpt lat="42.91936" lon="0.77801">
        <ele>1204</ele>
        <time>2019-08-08T09:55:23.000Z</time>
      </trkpt>
      <trkpt lat="42.9194" lon="0.77818">
        <ele>1204</ele>
        <time>2019-08-08T09:55:24.000Z</time>
      </trkpt>
      <trkpt lat="42.91945" lon="0.77836">
        <ele>1204</ele>
        <time>2019-08-08T09:55:25.000Z</time>
      </trkpt>
      <trkpt lat="42.91949" lon="0.77853">
        <ele>1202</ele>
        <time>2019-08-08T09:55:26.000Z</time>
      </trkpt>
      <trkpt lat="42.91953" lon="0.77871">
        <ele>1202</ele>
        <time>2019-08-08T09:55:27.000Z</time>
      </trkpt>
      <trkpt lat="42.91958" lon="0.77887">
        <ele>1199</ele>
        <time>2019-08-08T09:55:28.000Z</time>
      </trkpt>
      <trkpt lat="42.91963" lon="0.77902">
        <ele>1199</ele>
        <time>2019-08-08T09:55:29.000Z</time>
      </trkpt>
      <trkpt lat="42.91969" lon="0.77916">
        <ele>1197</ele>
        <time>2019-08-08T09:55:30.000Z</time>
      </trkpt>
      <trkpt lat="42.91974" lon="0.77927">
        <ele>1197</ele>
        <time>2019-08-08T09:55:31.000Z</time>
      </trkpt>
      <trkpt lat="42.91979" lon="0.77935">
        <ele>1197</ele>
        <time>2019-08-08T09:55:32.000Z</time>
      </trkpt>
      <trkpt lat="42.91984" lon="0.77942">
        <ele>1197</ele>
        <time>2019-08-08T09:55:33.000Z</time>
      </trkpt>
      <trkpt lat="42.91985" lon="0.7795">
        <ele>1197</ele>
        <time>2019-08-08T09:55:34.000Z</time>
      </trkpt>
      <trkpt lat="42.91981" lon="0.77956">
        <ele>1197</ele>
        <time>2019-08-08T09:55:35.000Z</time>
      </trkpt>
      <trkpt lat="42.91974" lon="0.77951">
        <ele>1197</ele>
        <time>2019-08-08T09:55:36.000Z</time>
      </trkpt>
      <trkpt lat="42.91972" lon="0.77947">
        <ele>1196</ele>
        <time>2019-08-08T09:55:37.000Z</time>
      </trkpt>
      <trkpt lat="42.91967" lon="0.77934">
        <ele>1196</ele>
        <time>2019-08-08T09:55:38.000Z</time>
      </trkpt>
      <trkpt lat="42.91965" lon="0.77929">
        <ele>1196</ele>
        <time>2019-08-08T09:55:39.000Z</time>
      </trkpt>
      <trkpt lat="42.91962" lon="0.7792">
        <ele>1196</ele>
        <time>2019-08-08T09:55:40.000Z</time>
      </trkpt>
      <trkpt lat="42.91958" lon="0.7791">
        <ele>1195</ele>
        <time>2019-08-08T09:55:41.000Z</time>
      </trkpt>
      <trkpt lat="42.91951" lon="0.77896">
        <ele>1195</ele>
        <time>2019-08-08T09:55:42.000Z</time>
      </trkpt>
      <trkpt lat="42.91948" lon="0.77891">
        <ele>1195</ele>
        <time>2019-08-08T09:55:43.000Z</time>
      </trkpt>
      <trkpt lat="42.91943" lon="0.77882">
        <ele>1195</ele>
        <time>2019-08-08T09:55:44.000Z</time>
      </trkpt>
      <trkpt lat="42.91937" lon="0.77872">
        <ele>1192</ele>
        <time>2019-08-08T09:55:45.000Z</time>
      </trkpt>
      <trkpt lat="42.9193" lon="0.77863">
        <ele>1192</ele>
        <time>2019-08-08T09:55:46.000Z</time>
      </trkpt>
      <trkpt lat="42.91923" lon="0.77852">
        <ele>1191</ele>
        <time>2019-08-08T09:55:47.000Z</time>
      </trkpt>
      <trkpt lat="42.91916" lon="0.77841">
        <ele>1191</ele>
        <time>2019-08-08T09:55:48.000Z</time>
      </trkpt>
      <trkpt lat="42.91908" lon="0.77829">
        <ele>1189</ele>
        <time>2019-08-08T09:55:49.000Z</time>
      </trkpt>
      <trkpt lat="42.919" lon="0.77816">
        <ele>1189</ele>
        <time>2019-08-08T09:55:50.000Z</time>
      </trkpt>
      <trkpt lat="42.91892" lon="0.77805">
        <ele>1189</ele>
        <time>2019-08-08T09:55:51.000Z</time>
      </trkpt>
      <trkpt lat="42.91881" lon="0.77797">
        <ele>1186</ele>
        <time>2019-08-08T09:55:52.000Z</time>
      </trkpt>
      <trkpt lat="42.91869" lon="0.77792">
        <ele>1184</ele>
        <time>2019-08-08T09:55:53.000Z</time>
      </trkpt>
      <trkpt lat="42.91857" lon="0.7779">
        <ele>1184</ele>
        <time>2019-08-08T09:55:54.000Z</time>
      </trkpt>
      <trkpt lat="42.91845" lon="0.77788">
        <ele>1183</ele>
        <time>2019-08-08T09:55:55.000Z</time>
      </trkpt>
      <trkpt lat="42.91835" lon="0.77785">
        <ele>1183</ele>
        <time>2019-08-08T09:55:56.000Z</time>
      </trkpt>
      <trkpt lat="42.91826" lon="0.77779">
        <ele>1183</ele>
        <time>2019-08-08T09:55:57.000Z</time>
      </trkpt>
      <trkpt lat="42.91818" lon="0.77776">
        <ele>1182</ele>
        <time>2019-08-08T09:55:58.000Z</time>
      </trkpt>
      <trkpt lat="42.91812" lon="0.77778">
        <ele>1182</ele>
        <time>2019-08-08T09:55:59.000Z</time>
      </trkpt>
      <trkpt lat="42.91809" lon="0.77786">
        <ele>1180</ele>
        <time>2019-08-08T09:56:00.000Z</time>
      </trkpt>
      <trkpt lat="42.91811" lon="0.77795">
        <ele>1180</ele>
        <time>2019-08-08T09:56:01.000Z</time>
      </trkpt>
      <trkpt lat="42.91816" lon="0.77802">
        <ele>1180</ele>
        <time>2019-08-08T09:56:02.000Z</time>
      </trkpt>
      <trkpt lat="42.91823" lon="0.77808">
        <ele>1180</ele>
        <time>2019-08-08T09:56:03.000Z</time>
      </trkpt>
      <trkpt lat="42.91831" lon="0.77813">
        <ele>1180</ele>
        <time>2019-08-08T09:56:04.000Z</time>
      </trkpt>
      <trkpt lat="42.91838" lon="0.77819">
        <ele>1180</ele>
        <time>2019-08-08T09:56:05.000Z</time>
      </trkpt>
      <trkpt lat="42.91846" lon="0.77826">
        <ele>1176</ele>
        <time>2019-08-08T09:56:06.000Z</time>
      </trkpt>
      <trkpt lat="42.91854" lon="0.77834">
        <ele>1176</ele>
        <time>2019-08-08T09:56:07.000Z</time>
      </trkpt>
      <trkpt lat="42.91862" lon="0.77842">
        <ele>1174</ele>
        <time>2019-08-08T09:56:08.000Z</time>
      </trkpt>
      <trkpt lat="42.9187" lon="0.77851">
        <ele>1173</ele>
        <time>2019-08-08T09:56:09.000Z</time>
      </trkpt>
      <trkpt lat="42.91878" lon="0.77859">
        <ele>1173</ele>
        <time>2019-08-08T09:56:10.000Z</time>
      </trkpt>
      <trkpt lat="42.91886" lon="0.77866">
        <ele>1172</ele>
        <time>2019-08-08T09:56:11.000Z</time>
      </trkpt>
      <trkpt lat="42.91894" lon="0.77872">
        <ele>1172</ele>
        <time>2019-08-08T09:56:12.000Z</time>
      </trkpt>
      <trkpt lat="42.919" lon="0.77879">
        <ele>1172</ele>
        <time>2019-08-08T09:56:13.000Z</time>
      </trkpt>
      <trkpt lat="42.91902" lon="0.77887">
        <ele>1172</ele>
        <time>2019-08-08T09:56:14.000Z</time>
      </trkpt>
      <trkpt lat="42.91899" lon="0.77895">
        <ele>1171</ele>
        <time>2019-08-08T09:56:15.000Z</time>
      </trkpt>
      <trkpt lat="42.91893" lon="0.77897">
        <ele>1171</ele>
        <time>2019-08-08T09:56:16.000Z</time>
      </trkpt>
      <trkpt lat="42.91886" lon="0.77894">
        <ele>1171</ele>
        <time>2019-08-08T09:56:17.000Z</time>
      </trkpt>
      <trkpt lat="42.9188" lon="0.77888">
        <ele>1171</ele>
        <time>2019-08-08T09:56:18.000Z</time>
      </trkpt>
      <trkpt lat="42.91873" lon="0.77884">
        <ele>1169</ele>
        <time>2019-08-08T09:56:19.000Z</time>
      </trkpt>
      <trkpt lat="42.91865" lon="0.77882">
        <ele>1168</ele>
        <time>2019-08-08T09:56:20.000Z</time>
      </trkpt>
      <trkpt lat="42.91857" lon="0.77882">
        <ele>1168</ele>
        <time>2019-08-08T09:56:21.000Z</time>
      </trkpt>
      <trkpt lat="42.91848" lon="0.7788">
        <ele>1168</ele>
        <time>2019-08-08T09:56:22.000Z</time>
      </trkpt>
      <trkpt lat="42.9184" lon="0.77877">
        <ele>1168</ele>
        <time>2019-08-08T09:56:23.000Z</time>
      </trkpt>
      <trkpt lat="42.91833" lon="0.77875">
        <ele>1167</ele>
        <time>2019-08-08T09:56:24.000Z</time>
      </trkpt>
      <trkpt lat="42.91828" lon="0.77879">
        <ele>1167</ele>
        <time>2019-08-08T09:56:25.000Z</time>
      </trkpt>
      <trkpt lat="42.91826" lon="0.77886">
        <ele>1165</ele>
        <time>2019-08-08T09:56:26.000Z</time>
      </trkpt>
      <trkpt lat="42.91828" lon="0.77895">
        <ele>1165</ele>
        <time>2019-08-08T09:56:27.000Z</time>
      </trkpt>
      <trkpt lat="42.91834" lon="0.779">
        <ele>1164</ele>
        <time>2019-08-08T09:56:28.000Z</time>
      </trkpt>
      <trkpt lat="42.91841" lon="0.77902">
        <ele>1164</ele>
        <time>2019-08-08T09:56:29.000Z</time>
      </trkpt>
      <trkpt lat="42.91849" lon="0.77905">
        <ele>1164</ele>
        <time>2019-08-08T09:56:30.000Z</time>
      </trkpt>
      <trkpt lat="42.91857" lon="0.77909">
        <ele>1164</ele>
        <time>2019-08-08T09:56:31.000Z</time>
      </trkpt>
      <trkpt lat="42.91866" lon="0.77915">
        <ele>1161</ele>
        <time>2019-08-08T09:56:32.000Z</time>
      </trkpt>
      <trkpt lat="42.91874" lon="0.77921">
        <ele>1160</ele>
        <time>2019-08-08T09:56:33.000Z</time>
      </trkpt>
      <trkpt lat="42.91882" lon="0.77931">
        <ele>1160</ele>
        <time>2019-08-08T09:56:34.000Z</time>
      </trkpt>
      <trkpt lat="42.91889" lon="0.77943">
        <ele>1160</ele>
        <time>2019-08-08T09:56:35.000Z</time>
      </trkpt>
      <trkpt lat="42.91895" lon="0.77957">
        <ele>1156</ele>
        <time>2019-08-08T09:56:36.000Z</time>
      </trkpt>
      <trkpt lat="42.91899" lon="0.77972">
        <ele>1156</ele>
        <time>2019-08-08T09:56:37.000Z</time>
      </trkpt>
      <trkpt lat="42.91904" lon="0.77986">
        <ele>1154</ele>
        <time>2019-08-08T09:56:38.000Z</time>
      </trkpt>
      <trkpt lat="42.9191" lon="0.78001">
        <ele>1154</ele>
        <time>2019-08-08T09:56:39.000Z</time>
      </trkpt>
      <trkpt lat="42.91915" lon="0.78016">
        <ele>1151</ele>
        <time>2019-08-08T09:56:40.000Z</time>
      </trkpt>
      <trkpt lat="42.9192" lon="0.78031">
        <ele>1151</ele>
        <time>2019-08-08T09:56:41.000Z</time>
      </trkpt>
      <trkpt lat="42.91925" lon="0.78047">
        <ele>1149</ele>
        <time>2019-08-08T09:56:42.000Z</time>
      </trkpt>
      <trkpt lat="42.91931" lon="0.78061">
        <ele>1149</ele>
        <time>2019-08-08T09:56:43.000Z</time>
      </trkpt>
      <trkpt lat="42.91938" lon="0.78075">
        <ele>1148</ele>
        <time>2019-08-08T09:56:44.000Z</time>
      </trkpt>
      <trkpt lat="42.91945" lon="0.78088">
        <ele>1148</ele>
        <time>2019-08-08T09:56:45.000Z</time>
      </trkpt>
      <trkpt lat="42.91953" lon="0.78101">
        <ele>1146</ele>
        <time>2019-08-08T09:56:46.000Z</time>
      </trkpt>
      <trkpt lat="42.91961" lon="0.78113">
        <ele>1146</ele>
        <time>2019-08-08T09:56:47.000Z</time>
      </trkpt>
      <trkpt lat="42.91969" lon="0.78126">
        <ele>1141</ele>
        <time>2019-08-08T09:56:48.000Z</time>
      </trkpt>
      <trkpt lat="42.91976" lon="0.78139">
        <ele>1141</ele>
        <time>2019-08-08T09:56:49.000Z</time>
      </trkpt>
      <trkpt lat="42.91983" lon="0.78152">
        <ele>1139</ele>
        <time>2019-08-08T09:56:50.000Z</time>
      </trkpt>
      <trkpt lat="42.91989" lon="0.78165">
        <ele>1139</ele>
        <time>2019-08-08T09:56:51.000Z</time>
      </trkpt>
      <trkpt lat="42.91995" lon="0.78178">
        <ele>1136</ele>
        <time>2019-08-08T09:56:52.000Z</time>
      </trkpt>
      <trkpt lat="42.92001" lon="0.78192">
        <ele>1136</ele>
        <time>2019-08-08T09:56:53.000Z</time>
      </trkpt>
      <trkpt lat="42.92007" lon="0.78205">
        <ele>1133</ele>
        <time>2019-08-08T09:56:54.000Z</time>
      </trkpt>
      <trkpt lat="42.92013" lon="0.78217">
        <ele>1133</ele>
        <time>2019-08-08T09:56:55.000Z</time>
      </trkpt>
      <trkpt lat="42.9202" lon="0.78228">
        <ele>1133</ele>
        <time>2019-08-08T09:56:56.000Z</time>
      </trkpt>
      <trkpt lat="42.92027" lon="0.78237">
        <ele>1133</ele>
        <time>2019-08-08T09:56:57.000Z</time>
      </trkpt>
      <trkpt lat="42.92034" lon="0.78241">
        <ele>1133</ele>
        <time>2019-08-08T09:56:58.000Z</time>
      </trkpt>
      <trkpt lat="42.9204" lon="0.78246">
        <ele>1133</ele>
        <time>2019-08-08T09:56:59.000Z</time>
      </trkpt>
      <trkpt lat="42.92043" lon="0.78252">
        <ele>1132</ele>
        <time>2019-08-08T09:57:00.000Z</time>
      </trkpt>
      <trkpt lat="42.92042" lon="0.78259">
        <ele>1132</ele>
        <time>2019-08-08T09:57:01.000Z</time>
      </trkpt>
      <trkpt lat="42.92037" lon="0.78261">
        <ele>1132</ele>
        <time>2019-08-08T09:57:02.000Z</time>
      </trkpt>
      <trkpt lat="42.92028" lon="0.78255">
        <ele>1132</ele>
        <time>2019-08-08T09:57:03.000Z</time>
      </trkpt>
      <trkpt lat="42.92026" lon="0.78252">
        <ele>1131</ele>
        <time>2019-08-08T09:57:04.000Z</time>
      </trkpt>
      <trkpt lat="42.92017" lon="0.78242">
        <ele>1131</ele>
        <time>2019-08-08T09:57:05.000Z</time>
      </trkpt>
      <trkpt lat="42.92014" lon="0.78239">
        <ele>1130</ele>
        <time>2019-08-08T09:57:06.000Z</time>
      </trkpt>
      <trkpt lat="42.92008" lon="0.78232">
        <ele>1130</ele>
        <time>2019-08-08T09:57:07.000Z</time>
      </trkpt>
      <trkpt lat="42.92001" lon="0.78224">
        <ele>1128</ele>
        <time>2019-08-08T09:57:08.000Z</time>
      </trkpt>
      <trkpt lat="42.91993" lon="0.78216">
        <ele>1128</ele>
        <time>2019-08-08T09:57:09.000Z</time>
      </trkpt>
      <trkpt lat="42.91985" lon="0.78207">
        <ele>1124</ele>
        <time>2019-08-08T09:57:10.000Z</time>
      </trkpt>
      <trkpt lat="42.91978" lon="0.78193">
        <ele>1124</ele>
        <time>2019-08-08T09:57:11.000Z</time>
      </trkpt>
      <trkpt lat="42.91971" lon="0.7818">
        <ele>1123</ele>
        <time>2019-08-08T09:57:12.000Z</time>
      </trkpt>
      <trkpt lat="42.91964" lon="0.7817">
        <ele>1123</ele>
        <time>2019-08-08T09:57:13.000Z</time>
      </trkpt>
      <trkpt lat="42.91956" lon="0.78161">
        <ele>1122</ele>
        <time>2019-08-08T09:57:14.000Z</time>
      </trkpt>
      <trkpt lat="42.91945" lon="0.78152">
        <ele>1122</ele>
        <time>2019-08-08T09:57:15.000Z</time>
      </trkpt>
      <trkpt lat="42.91942" lon="0.78151">
        <ele>1122</ele>
        <time>2019-08-08T09:57:16.000Z</time>
      </trkpt>
      <trkpt lat="42.91935" lon="0.78147">
        <ele>1121</ele>
        <time>2019-08-08T09:57:17.000Z</time>
      </trkpt>
      <trkpt lat="42.9193" lon="0.78151">
        <ele>1121</ele>
        <time>2019-08-08T09:57:18.000Z</time>
      </trkpt>
      <trkpt lat="42.9193" lon="0.78158">
        <ele>1120</ele>
        <time>2019-08-08T09:57:19.000Z</time>
      </trkpt>
      <trkpt lat="42.91934" lon="0.78165">
        <ele>1120</ele>
        <time>2019-08-08T09:57:20.000Z</time>
      </trkpt>
      <trkpt lat="42.91939" lon="0.7817">
        <ele>1119</ele>
        <time>2019-08-08T09:57:21.000Z</time>
      </trkpt>
      <trkpt lat="42.91945" lon="0.78175">
        <ele>1119</ele>
        <time>2019-08-08T09:57:22.000Z</time>
      </trkpt>
      <trkpt lat="42.91951" lon="0.78181">
        <ele>1117</ele>
        <time>2019-08-08T09:57:23.000Z</time>
      </trkpt>
      <trkpt lat="42.91956" lon="0.78188">
        <ele>1117</ele>
        <time>2019-08-08T09:57:24.000Z</time>
      </trkpt>
      <trkpt lat="42.91962" lon="0.78196">
        <ele>1116</ele>
        <time>2019-08-08T09:57:25.000Z</time>
      </trkpt>
      <trkpt lat="42.91966" lon="0.78206">
        <ele>1116</ele>
        <time>2019-08-08T09:57:26.000Z</time>
      </trkpt>
      <trkpt lat="42.91971" lon="0.78216">
        <ele>1115</ele>
        <time>2019-08-08T09:57:27.000Z</time>
      </trkpt>
      <trkpt lat="42.91977" lon="0.78225">
        <ele>1115</ele>
        <time>2019-08-08T09:57:28.000Z</time>
      </trkpt>
      <trkpt lat="42.91984" lon="0.78234">
        <ele>1112</ele>
        <time>2019-08-08T09:57:29.000Z</time>
      </trkpt>
      <trkpt lat="42.91994" lon="0.78249">
        <ele>1112</ele>
        <time>2019-08-08T09:57:30.000Z</time>
      </trkpt>
      <trkpt lat="42.91997" lon="0.78253">
        <ele>1111.6</ele>
        <time>2019-08-08T09:57:31.000Z</time>
      </trkpt>
      <trkpt lat="42.92004" lon="0.78264">
        <ele>1111</ele>
        <time>2019-08-08T09:57:32.000Z</time>
      </trkpt>
      <trkpt lat="42.9201" lon="0.78275">
        <ele>1111</ele>
        <time>2019-08-08T09:57:33.000Z</time>
      </trkpt>
      <trkpt lat="42.92016" lon="0.78287">
        <ele>1108</ele>
        <time>2019-08-08T09:57:34.000Z</time>
      </trkpt>
      <trkpt lat="42.92022" lon="0.78299">
        <ele>1108</ele>
        <time>2019-08-08T09:57:35.000Z</time>
      </trkpt>
      <trkpt lat="42.92029" lon="0.78311">
        <ele>1106</ele>
        <time>2019-08-08T09:57:36.000Z</time>
      </trkpt>
      <trkpt lat="42.92035" lon="0.78324">
        <ele>1105</ele>
        <time>2019-08-08T09:57:37.000Z</time>
      </trkpt>
      <trkpt lat="42.92042" lon="0.78336">
        <ele>1105</ele>
        <time>2019-08-08T09:57:38.000Z</time>
      </trkpt>
      <trkpt lat="42.92047" lon="0.78348">
        <ele>1104</ele>
        <time>2019-08-08T09:57:39.000Z</time>
      </trkpt>
      <trkpt lat="42.92051" lon="0.78362">
        <ele>1104</ele>
        <time>2019-08-08T09:57:40.000Z</time>
      </trkpt>
      <trkpt lat="42.92054" lon="0.78377">
        <ele>1102</ele>
        <time>2019-08-08T09:57:41.000Z</time>
      </trkpt>
      <trkpt lat="42.92056" lon="0.78391">
        <ele>1102</ele>
        <time>2019-08-08T09:57:42.000Z</time>
      </trkpt>
      <trkpt lat="42.92061" lon="0.78406">
        <ele>1100</ele>
        <time>2019-08-08T09:57:43.000Z</time>
      </trkpt>
      <trkpt lat="42.92067" lon="0.7842">
        <ele>1100</ele>
        <time>2019-08-08T09:57:44.000Z</time>
      </trkpt>
      <trkpt lat="42.92075" lon="0.78433">
        <ele>1098</ele>
        <time>2019-08-08T09:57:45.000Z</time>
      </trkpt>
      <trkpt lat="42.92084" lon="0.78446">
        <ele>1098</ele>
        <time>2019-08-08T09:57:46.000Z</time>
      </trkpt>
      <trkpt lat="42.92091" lon="0.7846">
        <ele>1095</ele>
        <time>2019-08-08T09:57:47.000Z</time>
      </trkpt>
      <trkpt lat="42.92097" lon="0.78476">
        <ele>1095</ele>
        <time>2019-08-08T09:57:48.000Z</time>
      </trkpt>
      <trkpt lat="42.92102" lon="0.78502">
        <ele>1095</ele>
        <time>2019-08-08T09:57:49.000Z</time>
      </trkpt>
      <trkpt lat="42.92104" lon="0.78511">
        <ele>1093</ele>
        <time>2019-08-08T09:57:50.000Z</time>
      </trkpt>
      <trkpt lat="42.92107" lon="0.78529">
        <ele>1093</ele>
        <time>2019-08-08T09:57:51.000Z</time>
      </trkpt>
      <trkpt lat="42.92112" lon="0.78546">
        <ele>1088</ele>
        <time>2019-08-08T09:57:52.000Z</time>
      </trkpt>
      <trkpt lat="42.92116" lon="0.78564">
        <ele>1088</ele>
        <time>2019-08-08T09:57:53.000Z</time>
      </trkpt>
      <trkpt lat="42.92121" lon="0.78581">
        <ele>1086</ele>
        <time>2019-08-08T09:57:54.000Z</time>
      </trkpt>
      <trkpt lat="42.92126" lon="0.78598">
        <ele>1086</ele>
        <time>2019-08-08T09:57:55.000Z</time>
      </trkpt>
      <trkpt lat="42.92131" lon="0.78614">
        <ele>1084</ele>
        <time>2019-08-08T09:57:56.000Z</time>
      </trkpt>
      <trkpt lat="42.92135" lon="0.7863">
        <ele>1084</ele>
        <time>2019-08-08T09:57:57.000Z</time>
      </trkpt>
      <trkpt lat="42.92138" lon="0.78645">
        <ele>1082</ele>
        <time>2019-08-08T09:57:58.000Z</time>
      </trkpt>
      <trkpt lat="42.9214" lon="0.78658">
        <ele>1082</ele>
        <time>2019-08-08T09:57:59.000Z</time>
      </trkpt>
      <trkpt lat="42.92144" lon="0.78671">
        <ele>1082</ele>
        <time>2019-08-08T09:58:00.000Z</time>
      </trkpt>
      <trkpt lat="42.92149" lon="0.78686">
        <ele>1082</ele>
        <time>2019-08-08T09:58:01.000Z</time>
      </trkpt>
      <trkpt lat="42.92151" lon="0.78691">
        <ele>1082</ele>
        <time>2019-08-08T09:58:02.000Z</time>
      </trkpt>
      <trkpt lat="42.92152" lon="0.78702">
        <ele>1082</ele>
        <time>2019-08-08T09:58:03.000Z</time>
      </trkpt>
      <trkpt lat="42.9215" lon="0.78705">
        <ele>1081</ele>
        <time>2019-08-08T09:58:04.000Z</time>
      </trkpt>
      <trkpt lat="42.92145" lon="0.78707">
        <ele>1081</ele>
        <time>2019-08-08T09:58:05.000Z</time>
      </trkpt>
      <trkpt lat="42.92143" lon="0.78704">
        <ele>1081</ele>
        <time>2019-08-08T09:58:06.000Z</time>
      </trkpt>
      <trkpt lat="42.92139" lon="0.78698">
        <ele>1081</ele>
        <time>2019-08-08T09:58:07.000Z</time>
      </trkpt>
      <trkpt lat="42.92137" lon="0.78688">
        <ele>1081</ele>
        <time>2019-08-08T09:58:08.000Z</time>
      </trkpt>
      <trkpt lat="42.92135" lon="0.78677">
        <ele>1081</ele>
        <time>2019-08-08T09:58:09.000Z</time>
      </trkpt>
      <trkpt lat="42.92132" lon="0.78666">
        <ele>1081</ele>
        <time>2019-08-08T09:58:10.000Z</time>
      </trkpt>
      <trkpt lat="42.92129" lon="0.78655">
        <ele>1078</ele>
        <time>2019-08-08T09:58:11.000Z</time>
      </trkpt>
      <trkpt lat="42.92125" lon="0.78643">
        <ele>1076</ele>
        <time>2019-08-08T09:58:12.000Z</time>
      </trkpt>
      <trkpt lat="42.9212" lon="0.78631">
        <ele>1076</ele>
        <time>2019-08-08T09:58:13.000Z</time>
      </trkpt>
      <trkpt lat="42.92115" lon="0.78619">
        <ele>1075</ele>
        <time>2019-08-08T09:58:14.000Z</time>
      </trkpt>
      <trkpt lat="42.92109" lon="0.78607">
        <ele>1075</ele>
        <time>2019-08-08T09:58:15.000Z</time>
      </trkpt>
      <trkpt lat="42.92101" lon="0.78597">
        <ele>1072</ele>
        <time>2019-08-08T09:58:16.000Z</time>
      </trkpt>
      <trkpt lat="42.92092" lon="0.78589">
        <ele>1072</ele>
        <time>2019-08-08T09:58:17.000Z</time>
      </trkpt>
      <trkpt lat="42.92082" lon="0.7858">
        <ele>1071</ele>
        <time>2019-08-08T09:58:18.000Z</time>
      </trkpt>
      <trkpt lat="42.92074" lon="0.7857">
        <ele>1071</ele>
        <time>2019-08-08T09:58:19.000Z</time>
      </trkpt>
      <trkpt lat="42.92066" lon="0.78558">
        <ele>1070</ele>
        <time>2019-08-08T09:58:20.000Z</time>
      </trkpt>
      <trkpt lat="42.92061" lon="0.78547">
        <ele>1070</ele>
        <time>2019-08-08T09:58:21.000Z</time>
      </trkpt>
      <trkpt lat="42.92058" lon="0.78536">
        <ele>1070</ele>
        <time>2019-08-08T09:58:22.000Z</time>
      </trkpt>
      <trkpt lat="42.92055" lon="0.78528">
        <ele>1070</ele>
        <time>2019-08-08T09:58:23.000Z</time>
      </trkpt>
      <trkpt lat="42.9205" lon="0.78526">
        <ele>1069</ele>
        <time>2019-08-08T09:58:24.000Z</time>
      </trkpt>
      <trkpt lat="42.92045" lon="0.78529">
        <ele>1069</ele>
        <time>2019-08-08T09:58:25.000Z</time>
      </trkpt>
      <trkpt lat="42.92044" lon="0.78538">
        <ele>1068</ele>
        <time>2019-08-08T09:58:26.000Z</time>
      </trkpt>
      <trkpt lat="42.92046" lon="0.78547">
        <ele>1067</ele>
        <time>2019-08-08T09:58:27.000Z</time>
      </trkpt>
      <trkpt lat="42.9205" lon="0.78556">
        <ele>1067</ele>
        <time>2019-08-08T09:58:28.000Z</time>
      </trkpt>
      <trkpt lat="42.92055" lon="0.78565">
        <ele>1067</ele>
        <time>2019-08-08T09:58:29.000Z</time>
      </trkpt>
      <trkpt lat="42.9206" lon="0.78575">
        <ele>1065</ele>
        <time>2019-08-08T09:58:30.000Z</time>
      </trkpt>
      <trkpt lat="42.92065" lon="0.78585">
        <ele>1065</ele>
        <time>2019-08-08T09:58:31.000Z</time>
      </trkpt>
      <trkpt lat="42.92071" lon="0.78596">
        <ele>1061</ele>
        <time>2019-08-08T09:58:32.000Z</time>
      </trkpt>
      <trkpt lat="42.92077" lon="0.78607">
        <ele>1061</ele>
        <time>2019-08-08T09:58:33.000Z</time>
      </trkpt>
      <trkpt lat="42.92083" lon="0.78619">
        <ele>1061</ele>
        <time>2019-08-08T09:58:34.000Z</time>
      </trkpt>
      <trkpt lat="42.9209" lon="0.78631">
        <ele>1059</ele>
        <time>2019-08-08T09:58:35.000Z</time>
      </trkpt>
      <trkpt lat="42.92096" lon="0.78644">
        <ele>1059</ele>
        <time>2019-08-08T09:58:36.000Z</time>
      </trkpt>
      <trkpt lat="42.92099" lon="0.78659">
        <ele>1055</ele>
        <time>2019-08-08T09:58:37.000Z</time>
      </trkpt>
      <trkpt lat="42.92102" lon="0.78676">
        <ele>1055</ele>
        <time>2019-08-08T09:58:38.000Z</time>
      </trkpt>
      <trkpt lat="42.92104" lon="0.78692">
        <ele>1055</ele>
        <time>2019-08-08T09:58:39.000Z</time>
      </trkpt>
      <trkpt lat="42.92106" lon="0.78709">
        <ele>1053</ele>
        <time>2019-08-08T09:58:40.000Z</time>
      </trkpt>
      <trkpt lat="42.92108" lon="0.78727">
        <ele>1053</ele>
        <time>2019-08-08T09:58:41.000Z</time>
      </trkpt>
      <trkpt lat="42.9211" lon="0.78744">
        <ele>1050</ele>
        <time>2019-08-08T09:58:42.000Z</time>
      </trkpt>
      <trkpt lat="42.92113" lon="0.78762">
        <ele>1050</ele>
        <time>2019-08-08T09:58:43.000Z</time>
      </trkpt>
      <trkpt lat="42.92115" lon="0.7878">
        <ele>1048</ele>
        <time>2019-08-08T09:58:44.000Z</time>
      </trkpt>
      <trkpt lat="42.92119" lon="0.78798">
        <ele>1048</ele>
        <time>2019-08-08T09:58:45.000Z</time>
      </trkpt>
      <trkpt lat="42.92123" lon="0.78816">
        <ele>1045</ele>
        <time>2019-08-08T09:58:46.000Z</time>
      </trkpt>
      <trkpt lat="42.92128" lon="0.78835">
        <ele>1045</ele>
        <time>2019-08-08T09:58:47.000Z</time>
      </trkpt>
      <trkpt lat="42.92131" lon="0.78854">
        <ele>1045</ele>
        <time>2019-08-08T09:58:48.000Z</time>
      </trkpt>
      <trkpt lat="42.92134" lon="0.78874">
        <ele>1040</ele>
        <time>2019-08-08T09:58:49.000Z</time>
      </trkpt>
      <trkpt lat="42.92136" lon="0.78893">
        <ele>1040</ele>
        <time>2019-08-08T09:58:50.000Z</time>
      </trkpt>
      <trkpt lat="42.92138" lon="0.78912">
        <ele>1039</ele>
        <time>2019-08-08T09:58:51.000Z</time>
      </trkpt>
      <trkpt lat="42.92139" lon="0.78931">
        <ele>1039</ele>
        <time>2019-08-08T09:58:52.000Z</time>
      </trkpt>
      <trkpt lat="42.9214" lon="0.78949">
        <ele>1036</ele>
        <time>2019-08-08T09:58:53.000Z</time>
      </trkpt>
      <trkpt lat="42.92141" lon="0.78968">
        <ele>1036</ele>
        <time>2019-08-08T09:58:54.000Z</time>
      </trkpt>
      <trkpt lat="42.92143" lon="0.78986">
        <ele>1034</ele>
        <time>2019-08-08T09:58:55.000Z</time>
      </trkpt>
      <trkpt lat="42.92144" lon="0.79004">
        <ele>1034</ele>
        <time>2019-08-08T09:58:56.000Z</time>
      </trkpt>
      <trkpt lat="42.92146" lon="0.7902">
        <ele>1031</ele>
        <time>2019-08-08T09:58:57.000Z</time>
      </trkpt>
      <trkpt lat="42.92147" lon="0.79035">
        <ele>1031</ele>
        <time>2019-08-08T09:58:58.000Z</time>
      </trkpt>
      <trkpt lat="42.92148" lon="0.79049">
        <ele>1029</ele>
        <time>2019-08-08T09:58:59.000Z</time>
      </trkpt>
      <trkpt lat="42.92149" lon="0.79062">
        <ele>1029</ele>
        <time>2019-08-08T09:59:00.000Z</time>
      </trkpt>
      <trkpt lat="42.92154" lon="0.79076">
        <ele>1029</ele>
        <time>2019-08-08T09:59:01.000Z</time>
      </trkpt>
      <trkpt lat="42.92156" lon="0.7908">
        <ele>1029</ele>
        <time>2019-08-08T09:59:02.000Z</time>
      </trkpt>
      <trkpt lat="42.9216" lon="0.79087">
        <ele>1029</ele>
        <time>2019-08-08T09:59:03.000Z</time>
      </trkpt>
      <trkpt lat="42.9216" lon="0.79095">
        <ele>1029</ele>
        <time>2019-08-08T09:59:04.000Z</time>
      </trkpt>
      <trkpt lat="42.92156" lon="0.79098">
        <ele>1028</ele>
        <time>2019-08-08T09:59:05.000Z</time>
      </trkpt>
      <trkpt lat="42.92151" lon="0.79095">
        <ele>1028</ele>
        <time>2019-08-08T09:59:06.000Z</time>
      </trkpt>
      <trkpt lat="42.92147" lon="0.79087">
        <ele>1028</ele>
        <time>2019-08-08T09:59:07.000Z</time>
      </trkpt>
      <trkpt lat="42.92144" lon="0.79078">
        <ele>1026</ele>
        <time>2019-08-08T09:59:08.000Z</time>
      </trkpt>
      <trkpt lat="42.92141" lon="0.79068">
        <ele>1026</ele>
        <time>2019-08-08T09:59:09.000Z</time>
      </trkpt>
      <trkpt lat="42.92137" lon="0.79057">
        <ele>1025</ele>
        <time>2019-08-08T09:59:10.000Z</time>
      </trkpt>
      <trkpt lat="42.92133" lon="0.79046">
        <ele>1025</ele>
        <time>2019-08-08T09:59:11.000Z</time>
      </trkpt>
      <trkpt lat="42.92128" lon="0.79035">
        <ele>1023</ele>
        <time>2019-08-08T09:59:12.000Z</time>
      </trkpt>
      <trkpt lat="42.92123" lon="0.79024">
        <ele>1023</ele>
        <time>2019-08-08T09:59:13.000Z</time>
      </trkpt>
      <trkpt lat="42.92118" lon="0.79013">
        <ele>1021</ele>
        <time>2019-08-08T09:59:14.000Z</time>
      </trkpt>
      <trkpt lat="42.92114" lon="0.78999">
        <ele>1021</ele>
        <time>2019-08-08T09:59:15.000Z</time>
      </trkpt>
      <trkpt lat="42.92111" lon="0.78985">
        <ele>1021</ele>
        <time>2019-08-08T09:59:16.000Z</time>
      </trkpt>
      <trkpt lat="42.92109" lon="0.78971">
        <ele>1021</ele>
        <time>2019-08-08T09:59:17.000Z</time>
      </trkpt>
      <trkpt lat="42.92107" lon="0.78955">
        <ele>1018</ele>
        <time>2019-08-08T09:59:18.000Z</time>
      </trkpt>
      <trkpt lat="42.92105" lon="0.7894">
        <ele>1018</ele>
        <time>2019-08-08T09:59:19.000Z</time>
      </trkpt>
      <trkpt lat="42.921" lon="0.78927">
        <ele>1015</ele>
        <time>2019-08-08T09:59:20.000Z</time>
      </trkpt>
      <trkpt lat="42.92093" lon="0.78915">
        <ele>1014</ele>
        <time>2019-08-08T09:59:21.000Z</time>
      </trkpt>
      <trkpt lat="42.92084" lon="0.78907">
        <ele>1014</ele>
        <time>2019-08-08T09:59:22.000Z</time>
      </trkpt>
      <trkpt lat="42.92074" lon="0.78898">
        <ele>1013</ele>
        <time>2019-08-08T09:59:23.000Z</time>
      </trkpt>
      <trkpt lat="42.92067" lon="0.78888">
        <ele>1013</ele>
        <time>2019-08-08T09:59:24.000Z</time>
      </trkpt>
      <trkpt lat="42.92063" lon="0.7887">
        <ele>1010</ele>
        <time>2019-08-08T09:59:25.000Z</time>
      </trkpt>
      <trkpt lat="42.92062" lon="0.78865">
        <ele>1010</ele>
        <time>2019-08-08T09:59:26.000Z</time>
      </trkpt>
      <trkpt lat="42.92062" lon="0.78853">
        <ele>1010</ele>
        <time>2019-08-08T09:59:27.000Z</time>
      </trkpt>
      <trkpt lat="42.9206" lon="0.78845">
        <ele>1010</ele>
        <time>2019-08-08T09:59:28.000Z</time>
      </trkpt>
      <trkpt lat="42.92055" lon="0.78841">
        <ele>1010</ele>
        <time>2019-08-08T09:59:29.000Z</time>
      </trkpt>
      <trkpt lat="42.9205" lon="0.78844">
        <ele>1009</ele>
        <time>2019-08-08T09:59:30.000Z</time>
      </trkpt>
      <trkpt lat="42.92045" lon="0.78852">
        <ele>1009</ele>
        <time>2019-08-08T09:59:31.000Z</time>
      </trkpt>
      <trkpt lat="42.92042" lon="0.78862">
        <ele>1008</ele>
        <time>2019-08-08T09:59:32.000Z</time>
      </trkpt>
      <trkpt lat="42.92039" lon="0.78873">
        <ele>1008</ele>
        <time>2019-08-08T09:59:33.000Z</time>
      </trkpt>
      <trkpt lat="42.92036" lon="0.78885">
        <ele>1007</ele>
        <time>2019-08-08T09:59:34.000Z</time>
      </trkpt>
      <trkpt lat="42.92034" lon="0.78897">
        <ele>1007</ele>
        <time>2019-08-08T09:59:35.000Z</time>
      </trkpt>
      <trkpt lat="42.92034" lon="0.7891">
        <ele>1005</ele>
        <time>2019-08-08T09:59:36.000Z</time>
      </trkpt>
      <trkpt lat="42.92037" lon="0.78923">
        <ele>1005</ele>
        <time>2019-08-08T09:59:37.000Z</time>
      </trkpt>
      <trkpt lat="42.9204" lon="0.78937">
        <ele>1004</ele>
        <time>2019-08-08T09:59:38.000Z</time>
      </trkpt>
      <trkpt lat="42.92045" lon="0.7895">
        <ele>1004</ele>
        <time>2019-08-08T09:59:39.000Z</time>
      </trkpt>
      <trkpt lat="42.92049" lon="0.78964">
        <ele>1001</ele>
        <time>2019-08-08T09:59:40.000Z</time>
      </trkpt>
      <trkpt lat="42.92054" lon="0.78978">
        <ele>1001</ele>
        <time>2019-08-08T09:59:41.000Z</time>
      </trkpt>
      <trkpt lat="42.92059" lon="0.78993">
        <ele>999</ele>
        <time>2019-08-08T09:59:42.000Z</time>
      </trkpt>
      <trkpt lat="42.92067" lon="0.79015">
        <ele>999</ele>
        <time>2019-08-08T09:59:43.000Z</time>
      </trkpt>
      <trkpt lat="42.9207" lon="0.79023">
        <ele>997.6</ele>
        <time>2019-08-08T09:59:44.000Z</time>
      </trkpt>
      <trkpt lat="42.92076" lon="0.79038">
        <ele>996</ele>
        <time>2019-08-08T09:59:45.000Z</time>
      </trkpt>
      <trkpt lat="42.92081" lon="0.79053">
        <ele>996</ele>
        <time>2019-08-08T09:59:46.000Z</time>
      </trkpt>
      <trkpt lat="42.92087" lon="0.79069">
        <ele>992</ele>
        <time>2019-08-08T09:59:47.000Z</time>
      </trkpt>
      <trkpt lat="42.92093" lon="0.79085">
        <ele>992</ele>
        <time>2019-08-08T09:59:48.000Z</time>
      </trkpt>
      <trkpt lat="42.92099" lon="0.79101">
        <ele>991</ele>
        <time>2019-08-08T09:59:49.000Z</time>
      </trkpt>
      <trkpt lat="42.92104" lon="0.79117">
        <ele>991</ele>
        <time>2019-08-08T09:59:50.000Z</time>
      </trkpt>
      <trkpt lat="42.92108" lon="0.79132">
        <ele>989</ele>
        <time>2019-08-08T09:59:51.000Z</time>
      </trkpt>
      <trkpt lat="42.9211" lon="0.79149">
        <ele>989</ele>
        <time>2019-08-08T09:59:52.000Z</time>
      </trkpt>
      <trkpt lat="42.92111" lon="0.79166">
        <ele>986</ele>
        <time>2019-08-08T09:59:53.000Z</time>
      </trkpt>
      <trkpt lat="42.92113" lon="0.79183">
        <ele>986</ele>
        <time>2019-08-08T09:59:54.000Z</time>
      </trkpt>
      <trkpt lat="42.92113" lon="0.792">
        <ele>984</ele>
        <time>2019-08-08T09:59:55.000Z</time>
      </trkpt>
      <trkpt lat="42.92114" lon="0.79217">
        <ele>984</ele>
        <time>2019-08-08T09:59:56.000Z</time>
      </trkpt>
      <trkpt lat="42.92116" lon="0.79234">
        <ele>980</ele>
        <time>2019-08-08T09:59:57.000Z</time>
      </trkpt>
      <trkpt lat="42.92117" lon="0.7925">
        <ele>980</ele>
        <time>2019-08-08T09:59:58.000Z</time>
      </trkpt>
      <trkpt lat="42.9212" lon="0.79266">
        <ele>978</ele>
        <time>2019-08-08T09:59:59.000Z</time>
      </trkpt>
      <trkpt lat="42.92124" lon="0.7928">
        <ele>978</ele>
        <time>2019-08-08T10:00:00.000Z</time>
      </trkpt>
      <trkpt lat="42.9213" lon="0.79295">
        <ele>976</ele>
        <time>2019-08-08T10:00:01.000Z</time>
      </trkpt>
      <trkpt lat="42.92137" lon="0.79309">
        <ele>976</ele>
        <time>2019-08-08T10:00:02.000Z</time>
      </trkpt>
      <trkpt lat="42.92143" lon="0.79325">
        <ele>974</ele>
        <time>2019-08-08T10:00:03.000Z</time>
      </trkpt>
      <trkpt lat="42.92149" lon="0.79341">
        <ele>971</ele>
        <time>2019-08-08T10:00:04.000Z</time>
      </trkpt>
      <trkpt lat="42.92153" lon="0.79358">
        <ele>969</ele>
        <time>2019-08-08T10:00:05.000Z</time>
      </trkpt>
      <trkpt lat="42.92157" lon="0.79375">
        <ele>968</ele>
        <time>2019-08-08T10:00:06.000Z</time>
      </trkpt>
      <trkpt lat="42.9216" lon="0.79391">
        <ele>967</ele>
        <time>2019-08-08T10:00:07.000Z</time>
      </trkpt>
      <trkpt lat="42.92164" lon="0.79407">
        <ele>966</ele>
        <time>2019-08-08T10:00:08.000Z</time>
      </trkpt>
      <trkpt lat="42.92168" lon="0.79421">
        <ele>966</ele>
        <time>2019-08-08T10:00:09.000Z</time>
      </trkpt>
      <trkpt lat="42.92172" lon="0.79434">
        <ele>966</ele>
        <time>2019-08-08T10:00:10.000Z</time>
      </trkpt>
      <trkpt lat="42.92177" lon="0.79446">
        <ele>964</ele>
        <time>2019-08-08T10:00:11.000Z</time>
      </trkpt>
      <trkpt lat="42.92184" lon="0.79457">
        <ele>964</ele>
        <time>2019-08-08T10:00:12.000Z</time>
      </trkpt>
      <trkpt lat="42.9219" lon="0.79468">
        <ele>963</ele>
        <time>2019-08-08T10:00:13.000Z</time>
      </trkpt>
      <trkpt lat="42.92197" lon="0.79478">
        <ele>963</ele>
        <time>2019-08-08T10:00:14.000Z</time>
      </trkpt>
      <trkpt lat="42.92202" lon="0.79489">
        <ele>963</ele>
        <time>2019-08-08T10:00:15.000Z</time>
      </trkpt>
      <trkpt lat="42.92207" lon="0.79502">
        <ele>963</ele>
        <time>2019-08-08T10:00:16.000Z</time>
      </trkpt>
      <trkpt lat="42.9221" lon="0.79514">
        <ele>963</ele>
        <time>2019-08-08T10:00:17.000Z</time>
      </trkpt>
      <trkpt lat="42.92213" lon="0.79528">
        <ele>963</ele>
        <time>2019-08-08T10:00:18.000Z</time>
      </trkpt>
      <trkpt lat="42.92215" lon="0.79541">
        <ele>963</ele>
        <time>2019-08-08T10:00:19.000Z</time>
      </trkpt>
      <trkpt lat="42.92217" lon="0.79555">
        <ele>961</ele>
        <time>2019-08-08T10:00:20.000Z</time>
      </trkpt>
      <trkpt lat="42.9222" lon="0.79577">
        <ele>961</ele>
        <time>2019-08-08T10:00:21.000Z</time>
      </trkpt>
      <trkpt lat="42.92221" lon="0.79585">
        <ele>960</ele>
        <time>2019-08-08T10:00:22.000Z</time>
      </trkpt>
      <trkpt lat="42.92223" lon="0.796">
        <ele>959</ele>
        <time>2019-08-08T10:00:23.000Z</time>
      </trkpt>
      <trkpt lat="42.92224" lon="0.79616">
        <ele>959</ele>
        <time>2019-08-08T10:00:24.000Z</time>
      </trkpt>
      <trkpt lat="42.92225" lon="0.79632">
        <ele>955</ele>
        <time>2019-08-08T10:00:25.000Z</time>
      </trkpt>
      <trkpt lat="42.92226" lon="0.79648">
        <ele>955</ele>
        <time>2019-08-08T10:00:26.000Z</time>
      </trkpt>
      <trkpt lat="42.92227" lon="0.79664">
        <ele>953</ele>
        <time>2019-08-08T10:00:27.000Z</time>
      </trkpt>
      <trkpt lat="42.92228" lon="0.7968">
        <ele>953</ele>
        <time>2019-08-08T10:00:28.000Z</time>
      </trkpt>
      <trkpt lat="42.9223" lon="0.79695">
        <ele>952</ele>
        <time>2019-08-08T10:00:29.000Z</time>
      </trkpt>
      <trkpt lat="42.92233" lon="0.79711">
        <ele>952</ele>
        <time>2019-08-08T10:00:30.000Z</time>
      </trkpt>
      <trkpt lat="42.92236" lon="0.79726">
        <ele>951</ele>
        <time>2019-08-08T10:00:31.000Z</time>
      </trkpt>
      <trkpt lat="42.9224" lon="0.79741">
        <ele>951</ele>
        <time>2019-08-08T10:00:32.000Z</time>
      </trkpt>
      <trkpt lat="42.92245" lon="0.79756">
        <ele>948</ele>
        <time>2019-08-08T10:00:33.000Z</time>
      </trkpt>
      <trkpt lat="42.92251" lon="0.79772">
        <ele>948</ele>
        <time>2019-08-08T10:00:34.000Z</time>
      </trkpt>
      <trkpt lat="42.92258" lon="0.79788">
        <ele>946</ele>
        <time>2019-08-08T10:00:35.000Z</time>
      </trkpt>
      <trkpt lat="42.92265" lon="0.79804">
        <ele>946</ele>
        <time>2019-08-08T10:00:36.000Z</time>
      </trkpt>
      <trkpt lat="42.92272" lon="0.7982">
        <ele>946</ele>
        <time>2019-08-08T10:00:37.000Z</time>
      </trkpt>
      <trkpt lat="42.92278" lon="0.79835">
        <ele>941</ele>
        <time>2019-08-08T10:00:38.000Z</time>
      </trkpt>
      <trkpt lat="42.92285" lon="0.7985">
        <ele>941</ele>
        <time>2019-08-08T10:00:39.000Z</time>
      </trkpt>
      <trkpt lat="42.92292" lon="0.79865">
        <ele>937</ele>
        <time>2019-08-08T10:00:40.000Z</time>
      </trkpt>
      <trkpt lat="42.92298" lon="0.7988">
        <ele>937</ele>
        <time>2019-08-08T10:00:41.000Z</time>
      </trkpt>
      <trkpt lat="42.92305" lon="0.79896">
        <ele>935</ele>
        <time>2019-08-08T10:00:42.000Z</time>
      </trkpt>
      <trkpt lat="42.92313" lon="0.79911">
        <ele>935</ele>
        <time>2019-08-08T10:00:43.000Z</time>
      </trkpt>
      <trkpt lat="42.92322" lon="0.79925">
        <ele>935</ele>
        <time>2019-08-08T10:00:44.000Z</time>
      </trkpt>
      <trkpt lat="42.9233" lon="0.7994">
        <ele>932</ele>
        <time>2019-08-08T10:00:45.000Z</time>
      </trkpt>
      <trkpt lat="42.92338" lon="0.79955">
        <ele>932</ele>
        <time>2019-08-08T10:00:46.000Z</time>
      </trkpt>
      <trkpt lat="42.92346" lon="0.7997">
        <ele>929</ele>
        <time>2019-08-08T10:00:47.000Z</time>
      </trkpt>
      <trkpt lat="42.92353" lon="0.79986">
        <ele>929</ele>
        <time>2019-08-08T10:00:48.000Z</time>
      </trkpt>
      <trkpt lat="42.9236" lon="0.80001">
        <ele>928</ele>
        <time>2019-08-08T10:00:49.000Z</time>
      </trkpt>
      <trkpt lat="42.92367" lon="0.80016">
        <ele>928</ele>
        <time>2019-08-08T10:00:50.000Z</time>
      </trkpt>
      <trkpt lat="42.92373" lon="0.80031">
        <ele>928</ele>
        <time>2019-08-08T10:00:51.000Z</time>
      </trkpt>
      <trkpt lat="42.92379" lon="0.80045">
        <ele>925</ele>
        <time>2019-08-08T10:00:52.000Z</time>
      </trkpt>
      <trkpt lat="42.92385" lon="0.8006">
        <ele>925</ele>
        <time>2019-08-08T10:00:53.000Z</time>
      </trkpt>
      <trkpt lat="42.92391" lon="0.80074">
        <ele>925</ele>
        <time>2019-08-08T10:00:54.000Z</time>
      </trkpt>
      <trkpt lat="42.92397" lon="0.80087">
        <ele>921</ele>
        <time>2019-08-08T10:00:55.000Z</time>
      </trkpt>
      <trkpt lat="42.92403" lon="0.80099">
        <ele>921</ele>
        <time>2019-08-08T10:00:56.000Z</time>
      </trkpt>
      <trkpt lat="42.92409" lon="0.80111">
        <ele>918</ele>
        <time>2019-08-08T10:00:57.000Z</time>
      </trkpt>
      <trkpt lat="42.92415" lon="0.8012">
        <ele>918</ele>
        <time>2019-08-08T10:00:58.000Z</time>
      </trkpt>
      <trkpt lat="42.92422" lon="0.80128">
        <ele>917</ele>
        <time>2019-08-08T10:00:59.000Z</time>
      </trkpt>
      <trkpt lat="42.92429" lon="0.80132">
        <ele>917</ele>
        <time>2019-08-08T10:01:00.000Z</time>
      </trkpt>
      <trkpt lat="42.92434" lon="0.80137">
        <ele>917</ele>
        <time>2019-08-08T10:01:01.000Z</time>
      </trkpt>
      <trkpt lat="42.92434" lon="0.80144">
        <ele>916</ele>
        <time>2019-08-08T10:01:02.000Z</time>
      </trkpt>
      <trkpt lat="42.9243" lon="0.8015">
        <ele>916</ele>
        <time>2019-08-08T10:01:03.000Z</time>
      </trkpt>
      <trkpt lat="42.92424" lon="0.80149">
        <ele>914</ele>
        <time>2019-08-08T10:01:04.000Z</time>
      </trkpt>
      <trkpt lat="42.92418" lon="0.80144">
        <ele>914</ele>
        <time>2019-08-08T10:01:05.000Z</time>
      </trkpt>
      <trkpt lat="42.92413" lon="0.80136">
        <ele>914</ele>
        <time>2019-08-08T10:01:06.000Z</time>
      </trkpt>
      <trkpt lat="42.92407" lon="0.80128">
        <ele>914</ele>
        <time>2019-08-08T10:01:07.000Z</time>
      </trkpt>
      <trkpt lat="42.924" lon="0.80121">
        <ele>914</ele>
        <time>2019-08-08T10:01:08.000Z</time>
      </trkpt>
      <trkpt lat="42.92392" lon="0.80113">
        <ele>912</ele>
        <time>2019-08-08T10:01:09.000Z</time>
      </trkpt>
      <trkpt lat="42.92383" lon="0.80105">
        <ele>912</ele>
        <time>2019-08-08T10:01:10.000Z</time>
      </trkpt>
      <trkpt lat="42.92374" lon="0.80097">
        <ele>912</ele>
        <time>2019-08-08T10:01:11.000Z</time>
      </trkpt>
      <trkpt lat="42.92365" lon="0.80089">
        <ele>907</ele>
        <time>2019-08-08T10:01:12.000Z</time>
      </trkpt>
      <trkpt lat="42.92355" lon="0.80079">
        <ele>907</ele>
        <time>2019-08-08T10:01:13.000Z</time>
      </trkpt>
      <trkpt lat="42.92346" lon="0.80069">
        <ele>905</ele>
        <time>2019-08-08T10:01:14.000Z</time>
      </trkpt>
      <trkpt lat="42.92337" lon="0.80058">
        <ele>905</ele>
        <time>2019-08-08T10:01:15.000Z</time>
      </trkpt>
      <trkpt lat="42.92327" lon="0.80045">
        <ele>901</ele>
        <time>2019-08-08T10:01:16.000Z</time>
      </trkpt>
      <trkpt lat="42.92318" lon="0.80034">
        <ele>901</ele>
        <time>2019-08-08T10:01:17.000Z</time>
      </trkpt>
      <trkpt lat="42.92302" lon="0.80017">
        <ele>901</ele>
        <time>2019-08-08T10:01:18.000Z</time>
      </trkpt>
      <trkpt lat="42.92296" lon="0.80012">
        <ele>899</ele>
        <time>2019-08-08T10:01:19.000Z</time>
      </trkpt>
      <trkpt lat="42.92285" lon="0.80002">
        <ele>896</ele>
        <time>2019-08-08T10:01:20.000Z</time>
      </trkpt>
      <trkpt lat="42.92273" lon="0.79992">
        <ele>896</ele>
        <time>2019-08-08T10:01:21.000Z</time>
      </trkpt>
      <trkpt lat="42.92263" lon="0.79983">
        <ele>894</ele>
        <time>2019-08-08T10:01:22.000Z</time>
      </trkpt>
      <trkpt lat="42.92255" lon="0.79972">
        <ele>894</ele>
        <time>2019-08-08T10:01:23.000Z</time>
      </trkpt>
      <trkpt lat="42.92249" lon="0.79961">
        <ele>893</ele>
        <time>2019-08-08T10:01:24.000Z</time>
      </trkpt>
      <trkpt lat="42.92245" lon="0.7995">
        <ele>893</ele>
        <time>2019-08-08T10:01:25.000Z</time>
      </trkpt>
      <trkpt lat="42.92242" lon="0.79939">
        <ele>891</ele>
        <time>2019-08-08T10:01:26.000Z</time>
      </trkpt>
      <trkpt lat="42.92238" lon="0.7993">
        <ele>891</ele>
        <time>2019-08-08T10:01:27.000Z</time>
      </trkpt>
      <trkpt lat="42.92232" lon="0.79928">
        <ele>890</ele>
        <time>2019-08-08T10:01:28.000Z</time>
      </trkpt>
      <trkpt lat="42.92226" lon="0.79932">
        <ele>890</ele>
        <time>2019-08-08T10:01:29.000Z</time>
      </trkpt>
      <trkpt lat="42.92224" lon="0.7994">
        <ele>890</ele>
        <time>2019-08-08T10:01:30.000Z</time>
      </trkpt>
      <trkpt lat="42.92225" lon="0.79951">
        <ele>890</ele>
        <time>2019-08-08T10:01:31.000Z</time>
      </trkpt>
      <trkpt lat="42.92229" lon="0.79962">
        <ele>889</ele>
        <time>2019-08-08T10:01:32.000Z</time>
      </trkpt>
      <trkpt lat="42.92236" lon="0.79978">
        <ele>889</ele>
        <time>2019-08-08T10:01:33.000Z</time>
      </trkpt>
      <trkpt lat="42.92238" lon="0.79983">
        <ele>887</ele>
        <time>2019-08-08T10:01:34.000Z</time>
      </trkpt>
      <trkpt lat="42.92242" lon="0.79993">
        <ele>887</ele>
        <time>2019-08-08T10:01:35.000Z</time>
      </trkpt>
      <trkpt lat="42.92247" lon="0.80004">
        <ele>885</ele>
        <time>2019-08-08T10:01:36.000Z</time>
      </trkpt>
      <trkpt lat="42.92251" lon="0.80015">
        <ele>885</ele>
        <time>2019-08-08T10:01:37.000Z</time>
      </trkpt>
      <trkpt lat="42.92254" lon="0.80026">
        <ele>885</ele>
        <time>2019-08-08T10:01:38.000Z</time>
      </trkpt>
      <trkpt lat="42.92258" lon="0.80038">
        <ele>885</ele>
        <time>2019-08-08T10:01:39.000Z</time>
      </trkpt>
      <trkpt lat="42.92262" lon="0.80049">
        <ele>885</ele>
        <time>2019-08-08T10:01:40.000Z</time>
      </trkpt>
      <trkpt lat="42.92266" lon="0.8006">
        <ele>883</ele>
        <time>2019-08-08T10:01:41.000Z</time>
      </trkpt>
      <trkpt lat="42.9227" lon="0.80071">
        <ele>883</ele>
        <time>2019-08-08T10:01:42.000Z</time>
      </trkpt>
      <trkpt lat="42.92275" lon="0.80082">
        <ele>881</ele>
        <time>2019-08-08T10:01:43.000Z</time>
      </trkpt>
      <trkpt lat="42.92279" lon="0.80094">
        <ele>881</ele>
        <time>2019-08-08T10:01:44.000Z</time>
      </trkpt>
      <trkpt lat="42.92283" lon="0.80106">
        <ele>881</ele>
        <time>2019-08-08T10:01:45.000Z</time>
      </trkpt>
      <trkpt lat="42.92288" lon="0.80118">
        <ele>879</ele>
        <time>2019-08-08T10:01:46.000Z</time>
      </trkpt>
      <trkpt lat="42.92293" lon="0.8013">
        <ele>879</ele>
        <time>2019-08-08T10:01:47.000Z</time>
      </trkpt>
      <trkpt lat="42.92297" lon="0.80143">
        <ele>878</ele>
        <time>2019-08-08T10:01:48.000Z</time>
      </trkpt>
      <trkpt lat="42.92302" lon="0.80156">
        <ele>878</ele>
        <time>2019-08-08T10:01:49.000Z</time>
      </trkpt>
      <trkpt lat="42.92305" lon="0.8017">
        <ele>877</ele>
        <time>2019-08-08T10:01:50.000Z</time>
      </trkpt>
      <trkpt lat="42.92307" lon="0.80183">
        <ele>877</ele>
        <time>2019-08-08T10:01:51.000Z</time>
      </trkpt>
      <trkpt lat="42.92309" lon="0.80196">
        <ele>874</ele>
        <time>2019-08-08T10:01:52.000Z</time>
      </trkpt>
      <trkpt lat="42.92311" lon="0.80209">
        <ele>874</ele>
        <time>2019-08-08T10:01:53.000Z</time>
      </trkpt>
      <trkpt lat="42.92312" lon="0.8022">
        <ele>873</ele>
        <time>2019-08-08T10:01:54.000Z</time>
      </trkpt>
      <trkpt lat="42.92314" lon="0.80232">
        <ele>873</ele>
        <time>2019-08-08T10:01:55.000Z</time>
      </trkpt>
      <trkpt lat="42.92317" lon="0.80243">
        <ele>870</ele>
        <time>2019-08-08T10:01:56.000Z</time>
      </trkpt>
      <trkpt lat="42.92323" lon="0.80252">
        <ele>870</ele>
        <time>2019-08-08T10:01:57.000Z</time>
      </trkpt>
      <trkpt lat="42.92332" lon="0.80258">
        <ele>870</ele>
        <time>2019-08-08T10:01:58.000Z</time>
      </trkpt>
      <trkpt lat="42.92342" lon="0.80262">
        <ele>867</ele>
        <time>2019-08-08T10:01:59.000Z</time>
      </trkpt>
      <trkpt lat="42.92352" lon="0.80265">
        <ele>867</ele>
        <time>2019-08-08T10:02:00.000Z</time>
      </trkpt>
      <trkpt lat="42.92363" lon="0.80268">
        <ele>865</ele>
        <time>2019-08-08T10:02:01.000Z</time>
      </trkpt>
      <trkpt lat="42.92372" lon="0.80271">
        <ele>865</ele>
        <time>2019-08-08T10:02:02.000Z</time>
      </trkpt>
      <trkpt lat="42.92381" lon="0.80274">
        <ele>865</ele>
        <time>2019-08-08T10:02:03.000Z</time>
      </trkpt>
      <trkpt lat="42.92389" lon="0.80273">
        <ele>863</ele>
        <time>2019-08-08T10:02:04.000Z</time>
      </trkpt>
      <trkpt lat="42.92396" lon="0.80271">
        <ele>863</ele>
        <time>2019-08-08T10:02:05.000Z</time>
      </trkpt>
      <trkpt lat="42.92404" lon="0.80271">
        <ele>861</ele>
        <time>2019-08-08T10:02:06.000Z</time>
      </trkpt>
      <trkpt lat="42.9241" lon="0.80275">
        <ele>861</ele>
        <time>2019-08-08T10:02:07.000Z</time>
      </trkpt>
      <trkpt lat="42.92412" lon="0.80281">
        <ele>860</ele>
        <time>2019-08-08T10:02:08.000Z</time>
      </trkpt>
      <trkpt lat="42.9241" lon="0.80288">
        <ele>860</ele>
        <time>2019-08-08T10:02:09.000Z</time>
      </trkpt>
      <trkpt lat="42.92405" lon="0.8029">
        <ele>860</ele>
        <time>2019-08-08T10:02:10.000Z</time>
      </trkpt>
      <trkpt lat="42.92399" lon="0.80291">
        <ele>860</ele>
        <time>2019-08-08T10:02:11.000Z</time>
      </trkpt>
      <trkpt lat="42.92392" lon="0.8029">
        <ele>860</ele>
        <time>2019-08-08T10:02:12.000Z</time>
      </trkpt>
      <trkpt lat="42.92384" lon="0.8029">
        <ele>860</ele>
        <time>2019-08-08T10:02:13.000Z</time>
      </trkpt>
      <trkpt lat="42.92376" lon="0.8029">
        <ele>857</ele>
        <time>2019-08-08T10:02:14.000Z</time>
      </trkpt>
      <trkpt lat="42.92366" lon="0.8029">
        <ele>857</ele>
        <time>2019-08-08T10:02:15.000Z</time>
      </trkpt>
      <trkpt lat="42.92357" lon="0.80291">
        <ele>855</ele>
        <time>2019-08-08T10:02:16.000Z</time>
      </trkpt>
      <trkpt lat="42.92346" lon="0.80293">
        <ele>855</ele>
        <time>2019-08-08T10:02:17.000Z</time>
      </trkpt>
      <trkpt lat="42.92336" lon="0.80295">
        <ele>855</ele>
        <time>2019-08-08T10:02:18.000Z</time>
      </trkpt>
      <trkpt lat="42.92325" lon="0.80296">
        <ele>851</ele>
        <time>2019-08-08T10:02:19.000Z</time>
      </trkpt>
      <trkpt lat="42.92314" lon="0.80296">
        <ele>851</ele>
        <time>2019-08-08T10:02:20.000Z</time>
      </trkpt>
      <trkpt lat="42.92303" lon="0.80296">
        <ele>851</ele>
        <time>2019-08-08T10:02:21.000Z</time>
      </trkpt>
      <trkpt lat="42.92293" lon="0.80299">
        <ele>850</ele>
        <time>2019-08-08T10:02:22.000Z</time>
      </trkpt>
      <trkpt lat="42.92284" lon="0.80303">
        <ele>850</ele>
        <time>2019-08-08T10:02:23.000Z</time>
      </trkpt>
      <trkpt lat="42.92271" lon="0.8031">
        <ele>848</ele>
        <time>2019-08-08T10:02:24.000Z</time>
      </trkpt>
      <trkpt lat="42.92267" lon="0.80311">
        <ele>848</ele>
        <time>2019-08-08T10:02:25.000Z</time>
      </trkpt>
      <trkpt lat="42.92259" lon="0.80312">
        <ele>846</ele>
        <time>2019-08-08T10:02:26.000Z</time>
      </trkpt>
      <trkpt lat="42.92253" lon="0.80304">
        <ele>846</ele>
        <time>2019-08-08T10:02:27.000Z</time>
      </trkpt>
      <trkpt lat="42.92247" lon="0.80293">
        <ele>844</ele>
        <time>2019-08-08T10:02:28.000Z</time>
      </trkpt>
      <trkpt lat="42.92242" lon="0.80281">
        <ele>844</ele>
        <time>2019-08-08T10:02:29.000Z</time>
      </trkpt>
      <trkpt lat="42.92236" lon="0.80268">
        <ele>842</ele>
        <time>2019-08-08T10:02:30.000Z</time>
      </trkpt>
      <trkpt lat="42.92229" lon="0.80256">
        <ele>842</ele>
        <time>2019-08-08T10:02:31.000Z</time>
      </trkpt>
      <trkpt lat="42.92221" lon="0.80246">
        <ele>838</ele>
        <time>2019-08-08T10:02:32.000Z</time>
      </trkpt>
      <trkpt lat="42.92212" lon="0.80239">
        <ele>838</ele>
        <time>2019-08-08T10:02:33.000Z</time>
      </trkpt>
      <trkpt lat="42.92201" lon="0.80229">
        <ele>838</ele>
        <time>2019-08-08T10:02:34.000Z</time>
      </trkpt>
      <trkpt lat="42.92197" lon="0.80226">
        <ele>835</ele>
        <time>2019-08-08T10:02:35.000Z</time>
      </trkpt>
      <trkpt lat="42.9219" lon="0.8022">
        <ele>835</ele>
        <time>2019-08-08T10:02:36.000Z</time>
      </trkpt>
      <trkpt lat="42.92183" lon="0.80219">
        <ele>834</ele>
        <time>2019-08-08T10:02:37.000Z</time>
      </trkpt>
      <trkpt lat="42.92179" lon="0.80224">
        <ele>834</ele>
        <time>2019-08-08T10:02:38.000Z</time>
      </trkpt>
      <trkpt lat="42.92178" lon="0.80232">
        <ele>833</ele>
        <time>2019-08-08T10:02:39.000Z</time>
      </trkpt>
      <trkpt lat="42.92181" lon="0.8024">
        <ele>833</ele>
        <time>2019-08-08T10:02:40.000Z</time>
      </trkpt>
      <trkpt lat="42.92187" lon="0.80246">
        <ele>833</ele>
        <time>2019-08-08T10:02:41.000Z</time>
      </trkpt>
      <trkpt lat="42.92193" lon="0.80253">
        <ele>833</ele>
        <time>2019-08-08T10:02:42.000Z</time>
      </trkpt>
      <trkpt lat="42.92198" lon="0.80262">
        <ele>833</ele>
        <time>2019-08-08T10:02:43.000Z</time>
      </trkpt>
      <trkpt lat="42.92202" lon="0.80273">
        <ele>830</ele>
        <time>2019-08-08T10:02:44.000Z</time>
      </trkpt>
      <trkpt lat="42.92206" lon="0.80286">
        <ele>830</ele>
        <time>2019-08-08T10:02:45.000Z</time>
      </trkpt>
      <trkpt lat="42.9221" lon="0.80298">
        <ele>827</ele>
        <time>2019-08-08T10:02:46.000Z</time>
      </trkpt>
      <trkpt lat="42.92216" lon="0.8031">
        <ele>827</ele>
        <time>2019-08-08T10:02:47.000Z</time>
      </trkpt>
      <trkpt lat="42.92223" lon="0.80321">
        <ele>824</ele>
        <time>2019-08-08T10:02:48.000Z</time>
      </trkpt>
      <trkpt lat="42.9223" lon="0.80333">
        <ele>824</ele>
        <time>2019-08-08T10:02:49.000Z</time>
      </trkpt>
      <trkpt lat="42.92236" lon="0.80346">
        <ele>824</ele>
        <time>2019-08-08T10:02:50.000Z</time>
      </trkpt>
      <trkpt lat="42.92242" lon="0.80359">
        <ele>824</ele>
        <time>2019-08-08T10:02:51.000Z</time>
      </trkpt>
      <trkpt lat="42.92248" lon="0.8037">
        <ele>824</ele>
        <time>2019-08-08T10:02:52.000Z</time>
      </trkpt>
      <trkpt lat="42.92255" lon="0.8038">
        <ele>821</ele>
        <time>2019-08-08T10:02:53.000Z</time>
      </trkpt>
      <trkpt lat="42.92262" lon="0.80388">
        <ele>821</ele>
        <time>2019-08-08T10:02:54.000Z</time>
      </trkpt>
      <trkpt lat="42.92269" lon="0.80393">
        <ele>821</ele>
        <time>2019-08-08T10:02:55.000Z</time>
      </trkpt>
      <trkpt lat="42.92274" lon="0.80399">
        <ele>818</ele>
        <time>2019-08-08T10:02:56.000Z</time>
      </trkpt>
      <trkpt lat="42.92274" lon="0.80399">
        <ele>818</ele>
        <time>2019-08-08T10:02:57.000Z</time>
      </trkpt>
      <trkpt lat="42.92271" lon="0.80408">
        <ele>817</ele>
        <time>2019-08-08T10:02:58.000Z</time>
      </trkpt>
      <trkpt lat="42.92268" lon="0.80406">
        <ele>817</ele>
        <time>2019-08-08T10:02:59.000Z</time>
      </trkpt>
      <trkpt lat="42.92263" lon="0.80403">
        <ele>816</ele>
        <time>2019-08-08T10:03:00.000Z</time>
      </trkpt>
      <trkpt lat="42.92257" lon="0.80396">
        <ele>816</ele>
        <time>2019-08-08T10:03:01.000Z</time>
      </trkpt>
      <trkpt lat="42.92251" lon="0.80389">
        <ele>815</ele>
        <time>2019-08-08T10:03:02.000Z</time>
      </trkpt>
      <trkpt lat="42.92244" lon="0.80382">
        <ele>815</ele>
        <time>2019-08-08T10:03:03.000Z</time>
      </trkpt>
      <trkpt lat="42.92237" lon="0.80375">
        <ele>814</ele>
        <time>2019-08-08T10:03:04.000Z</time>
      </trkpt>
      <trkpt lat="42.92229" lon="0.80367">
        <ele>814</ele>
        <time>2019-08-08T10:03:05.000Z</time>
      </trkpt>
      <trkpt lat="42.92222" lon="0.80358">
        <ele>814</ele>
        <time>2019-08-08T10:03:06.000Z</time>
      </trkpt>
      <trkpt lat="42.92215" lon="0.80348">
        <ele>810</ele>
        <time>2019-08-08T10:03:07.000Z</time>
      </trkpt>
      <trkpt lat="42.92208" lon="0.80339">
        <ele>810</ele>
        <time>2019-08-08T10:03:08.000Z</time>
      </trkpt>
      <trkpt lat="42.92199" lon="0.80331">
        <ele>810</ele>
        <time>2019-08-08T10:03:09.000Z</time>
      </trkpt>
      <trkpt lat="42.9219" lon="0.80325">
        <ele>806</ele>
        <time>2019-08-08T10:03:10.000Z</time>
      </trkpt>
      <trkpt lat="42.92181" lon="0.8032">
        <ele>806</ele>
        <time>2019-08-08T10:03:11.000Z</time>
      </trkpt>
      <trkpt lat="42.92169" lon="0.80319">
        <ele>806</ele>
        <time>2019-08-08T10:03:12.000Z</time>
      </trkpt>
      <trkpt lat="42.92166" lon="0.80321">
        <ele>805</ele>
        <time>2019-08-08T10:03:13.000Z</time>
      </trkpt>
      <trkpt lat="42.92158" lon="0.80328">
        <ele>805</ele>
        <time>2019-08-08T10:03:14.000Z</time>
      </trkpt>
      <trkpt lat="42.92158" lon="0.80333">
        <ele>805</ele>
        <time>2019-08-08T10:03:15.000Z</time>
      </trkpt>
      <trkpt lat="42.92158" lon="0.80346">
        <ele>803</ele>
        <time>2019-08-08T10:03:16.000Z</time>
      </trkpt>
      <trkpt lat="42.92159" lon="0.80351">
        <ele>803</ele>
        <time>2019-08-08T10:03:17.000Z</time>
      </trkpt>
      <trkpt lat="42.92164" lon="0.80364">
        <ele>802</ele>
        <time>2019-08-08T10:03:18.000Z</time>
      </trkpt>
      <trkpt lat="42.92167" lon="0.80368">
        <ele>802</ele>
        <time>2019-08-08T10:03:19.000Z</time>
      </trkpt>
      <trkpt lat="42.92173" lon="0.8038">
        <ele>802</ele>
        <time>2019-08-08T10:03:20.000Z</time>
      </trkpt>
      <trkpt lat="42.92174" lon="0.80385">
        <ele>802</ele>
        <time>2019-08-08T10:03:21.000Z</time>
      </trkpt>
      <trkpt lat="42.92174" lon="0.80399">
        <ele>801</ele>
        <time>2019-08-08T10:03:22.000Z</time>
      </trkpt>
      <trkpt lat="42.92172" lon="0.80404">
        <ele>801</ele>
        <time>2019-08-08T10:03:23.000Z</time>
      </trkpt>
      <trkpt lat="42.92164" lon="0.80413">
        <ele>801</ele>
        <time>2019-08-08T10:03:24.000Z</time>
      </trkpt>
      <trkpt lat="42.9216" lon="0.80414">
        <ele>801</ele>
        <time>2019-08-08T10:03:25.000Z</time>
      </trkpt>
      <trkpt lat="42.92153" lon="0.80415">
        <ele>801</ele>
        <time>2019-08-08T10:03:26.000Z</time>
      </trkpt>
      <trkpt lat="42.92146" lon="0.8041">
        <ele>798</ele>
        <time>2019-08-08T10:03:27.000Z</time>
      </trkpt>
      <trkpt lat="42.92137" lon="0.80404">
        <ele>798</ele>
        <time>2019-08-08T10:03:28.000Z</time>
      </trkpt>
      <trkpt lat="42.92129" lon="0.804">
        <ele>797</ele>
        <time>2019-08-08T10:03:29.000Z</time>
      </trkpt>
      <trkpt lat="42.92119" lon="0.80399">
        <ele>797</ele>
        <time>2019-08-08T10:03:30.000Z</time>
      </trkpt>
      <trkpt lat="42.9211" lon="0.80403">
        <ele>795</ele>
        <time>2019-08-08T10:03:31.000Z</time>
      </trkpt>
      <trkpt lat="42.92101" lon="0.8041">
        <ele>795</ele>
        <time>2019-08-08T10:03:32.000Z</time>
      </trkpt>
      <trkpt lat="42.92093" lon="0.80417">
        <ele>795</ele>
        <time>2019-08-08T10:03:33.000Z</time>
      </trkpt>
      <trkpt lat="42.92087" lon="0.80425">
        <ele>792</ele>
        <time>2019-08-08T10:03:34.000Z</time>
      </trkpt>
      <trkpt lat="42.92084" lon="0.80436">
        <ele>792</ele>
        <time>2019-08-08T10:03:35.000Z</time>
      </trkpt>
      <trkpt lat="42.92085" lon="0.80447">
        <ele>792</ele>
        <time>2019-08-08T10:03:36.000Z</time>
      </trkpt>
      <trkpt lat="42.92089" lon="0.80458">
        <ele>790</ele>
        <time>2019-08-08T10:03:37.000Z</time>
      </trkpt>
      <trkpt lat="42.92096" lon="0.80472">
        <ele>790</ele>
        <time>2019-08-08T10:03:38.000Z</time>
      </trkpt>
      <trkpt lat="42.92098" lon="0.80476">
        <ele>789</ele>
        <time>2019-08-08T10:03:39.000Z</time>
      </trkpt>
      <trkpt lat="42.92102" lon="0.80485">
        <ele>789</ele>
        <time>2019-08-08T10:03:40.000Z</time>
      </trkpt>
      <trkpt lat="42.92106" lon="0.80494">
        <ele>789</ele>
        <time>2019-08-08T10:03:41.000Z</time>
      </trkpt>
      <trkpt lat="42.92111" lon="0.80504">
        <ele>789</ele>
        <time>2019-08-08T10:03:42.000Z</time>
      </trkpt>
      <trkpt lat="42.92115" lon="0.80514">
        <ele>789</ele>
        <time>2019-08-08T10:03:43.000Z</time>
      </trkpt>
      <trkpt lat="42.9212" lon="0.80526">
        <ele>788</ele>
        <time>2019-08-08T10:03:44.000Z</time>
      </trkpt>
      <trkpt lat="42.92124" lon="0.80537">
        <ele>788</ele>
        <time>2019-08-08T10:03:45.000Z</time>
      </trkpt>
      <trkpt lat="42.9213" lon="0.80548">
        <ele>786</ele>
        <time>2019-08-08T10:03:46.000Z</time>
      </trkpt>
      <trkpt lat="42.92137" lon="0.80559">
        <ele>786</ele>
        <time>2019-08-08T10:03:47.000Z</time>
      </trkpt>
      <trkpt lat="42.92145" lon="0.80568">
        <ele>785</ele>
        <time>2019-08-08T10:03:48.000Z</time>
      </trkpt>
      <trkpt lat="42.92154" lon="0.80573">
        <ele>785</ele>
        <time>2019-08-08T10:03:49.000Z</time>
      </trkpt>
      <trkpt lat="42.92166" lon="0.8058">
        <ele>785</ele>
        <time>2019-08-08T10:03:50.000Z</time>
      </trkpt>
      <trkpt lat="42.9217" lon="0.80582">
        <ele>785</ele>
        <time>2019-08-08T10:03:51.000Z</time>
      </trkpt>
      <trkpt lat="42.9218" lon="0.80587">
        <ele>785</ele>
        <time>2019-08-08T10:03:52.000Z</time>
      </trkpt>
      <trkpt lat="42.92182" lon="0.80587">
        <ele>787</ele>
        <time>2019-08-08T10:03:53.000Z</time>
      </trkpt>
      <trkpt lat="42.92189" lon="0.80588">
        <ele>787</ele>
        <time>2019-08-08T10:03:54.000Z</time>
      </trkpt>
      <trkpt lat="42.9219" lon="0.80589">
        <ele>788</ele>
        <time>2019-08-08T10:03:55.000Z</time>
      </trkpt>
      <trkpt lat="42.92192" lon="0.80589">
        <ele>788</ele>
        <time>2019-08-08T10:03:56.000Z</time>
      </trkpt>
      <trkpt lat="42.92193" lon="0.80589">
        <ele>788</ele>
        <time>2019-08-08T10:03:57.000Z</time>
      </trkpt>
      <trkpt lat="42.922" lon="0.80591">
        <ele>788</ele>
        <time>2019-08-08T10:03:58.000Z</time>
      </trkpt>
      <trkpt lat="42.92202" lon="0.80592">
        <ele>790</ele>
        <time>2019-08-08T10:03:59.000Z</time>
      </trkpt>
      <trkpt lat="42.92203" lon="0.80593">
        <ele>790</ele>
        <time>2019-08-08T10:04:00.000Z</time>
      </trkpt>
      <trkpt lat="42.9221" lon="0.806">
        <ele>791</ele>
        <time>2019-08-08T10:04:01.000Z</time>
      </trkpt>
      <trkpt lat="42.92212" lon="0.80602">
        <ele>791</ele>
        <time>2019-08-08T10:04:02.000Z</time>
      </trkpt>
      <trkpt lat="42.92219" lon="0.80609">
        <ele>792</ele>
        <time>2019-08-08T10:04:03.000Z</time>
      </trkpt>
      <trkpt lat="42.9222" lon="0.8061">
        <ele>792</ele>
        <time>2019-08-08T10:04:04.000Z</time>
      </trkpt>
      <trkpt lat="42.92222" lon="0.80611">
        <ele>792</ele>
        <time>2019-08-08T10:04:05.000Z</time>
      </trkpt>
      <trkpt lat="42.92227" lon="0.80615">
        <ele>792</ele>
        <time>2019-08-08T10:04:06.000Z</time>
      </trkpt>
      <trkpt lat="42.92227" lon="0.80615">
        <ele>792</ele>
        <time>2019-08-08T10:04:07.000Z</time>
      </trkpt>
      <trkpt lat="42.92227" lon="0.80615">
        <ele>792</ele>
        <time>2019-08-08T10:04:08.000Z</time>
      </trkpt>
      <trkpt lat="42.92236" lon="0.8062">
        <ele>793</ele>
        <time>2019-08-08T10:04:09.000Z</time>
      </trkpt>
      <trkpt lat="42.92236" lon="0.8062">
        <ele>793</ele>
        <time>2019-08-08T10:04:10.000Z</time>
      </trkpt>
      <trkpt lat="42.92236" lon="0.8062">
        <ele>793</ele>
        <time>2019-08-08T10:04:11.000Z</time>
      </trkpt>
      <trkpt lat="42.92236" lon="0.8062">
        <ele>794</ele>
        <time>2019-08-08T10:04:12.000Z</time>
      </trkpt>
      <trkpt lat="42.92236" lon="0.8062">
        <ele>794</ele>
        <time>2019-08-08T10:04:13.000Z</time>
      </trkpt>
      <trkpt lat="42.92245" lon="0.80623">
        <ele>794</ele>
        <time>2019-08-08T10:04:14.000Z</time>
      </trkpt>
      <trkpt lat="42.92245" lon="0.80623">
        <ele>795</ele>
        <time>2019-08-08T10:04:15.000Z</time>
      </trkpt>
      <trkpt lat="42.92245" lon="0.80623">
        <ele>795</ele>
        <time>2019-08-08T10:04:16.000Z</time>
      </trkpt>
      <trkpt lat="42.92245" lon="0.80623">
        <ele>796</ele>
        <time>2019-08-08T10:04:17.000Z</time>
      </trkpt>
      <trkpt lat="42.92245" lon="0.80623">
        <ele>796</ele>
        <time>2019-08-08T10:04:18.000Z</time>
      </trkpt>
      <trkpt lat="42.92245" lon="0.80623">
        <ele>797</ele>
        <time>2019-08-08T10:04:19.000Z</time>
      </trkpt>
      <trkpt lat="42.92245" lon="0.80623">
        <ele>797</ele>
        <time>2019-08-08T10:04:20.000Z</time>
      </trkpt>
      <trkpt lat="42.92252" lon="0.80614">
        <ele>797</ele>
        <time>2019-08-08T10:04:21.000Z</time>
      </trkpt>
      <trkpt lat="42.92253" lon="0.80614">
        <ele>797</ele>
        <time>2019-08-08T10:04:22.000Z</time>
      </trkpt>
      <trkpt lat="42.92254" lon="0.80614">
        <ele>797</ele>
        <time>2019-08-08T10:04:23.000Z</time>
      </trkpt>
      <trkpt lat="42.92255" lon="0.80614">
        <ele>797</ele>
        <time>2019-08-08T10:04:24.000Z</time>
      </trkpt>
      <trkpt lat="42.92256" lon="0.80614">
        <ele>797</ele>
        <time>2019-08-08T10:04:25.000Z</time>
      </trkpt>
      <trkpt lat="42.92263" lon="0.80616">
        <ele>797</ele>
        <time>2019-08-08T10:04:26.000Z</time>
      </trkpt>
      <trkpt lat="42.92265" lon="0.80617">
        <ele>797</ele>
        <time>2019-08-08T10:04:27.000Z</time>
      </trkpt>
      <trkpt lat="42.92267" lon="0.80618">
        <ele>799</ele>
        <time>2019-08-08T10:04:28.000Z</time>
      </trkpt>
      <trkpt lat="42.92273" lon="0.80622">
        <ele>799</ele>
        <time>2019-08-08T10:04:29.000Z</time>
      </trkpt>
      <trkpt lat="42.92273" lon="0.80622">
        <ele>799</ele>
        <time>2019-08-08T10:04:30.000Z</time>
      </trkpt>
      <trkpt lat="42.92273" lon="0.80622">
        <ele>799</ele>
        <time>2019-08-08T10:04:31.000Z</time>
      </trkpt>
      <trkpt lat="42.92283" lon="0.80623">
        <ele>799</ele>
        <time>2019-08-08T10:04:32.000Z</time>
      </trkpt>
      <trkpt lat="42.92283" lon="0.80623">
        <ele>800</ele>
        <time>2019-08-08T10:04:33.000Z</time>
      </trkpt>
      <trkpt lat="42.92283" lon="0.80623">
        <ele>800</ele>
        <time>2019-08-08T10:04:34.000Z</time>
      </trkpt>
      <trkpt lat="42.92293" lon="0.80619">
        <ele>800</ele>
        <time>2019-08-08T10:04:35.000Z</time>
      </trkpt>
      <trkpt lat="42.92293" lon="0.80619">
        <ele>800</ele>
        <time>2019-08-08T10:04:36.000Z</time>
      </trkpt>
      <trkpt lat="42.92293" lon="0.80619">
        <ele>800</ele>
        <time>2019-08-08T10:04:37.000Z</time>
      </trkpt>
      <trkpt lat="42.92302" lon="0.80619">
        <ele>801</ele>
        <time>2019-08-08T10:04:38.000Z</time>
      </trkpt>
      <trkpt lat="42.92304" lon="0.80619">
        <ele>801</ele>
        <time>2019-08-08T10:04:39.000Z</time>
      </trkpt>
      <trkpt lat="42.92307" lon="0.80618">
        <ele>801</ele>
        <time>2019-08-08T10:04:40.000Z</time>
      </trkpt>
      <trkpt lat="42.92309" lon="0.80617">
        <ele>801</ele>
        <time>2019-08-08T10:04:41.000Z</time>
      </trkpt>
      <trkpt lat="42.92311" lon="0.80615">
        <ele>802</ele>
        <time>2019-08-08T10:04:42.000Z</time>
      </trkpt>
      <trkpt lat="42.92314" lon="0.80615">
        <ele>802</ele>
        <time>2019-08-08T10:04:43.000Z</time>
      </trkpt>
      <trkpt lat="42.92316" lon="0.80614">
        <ele>802</ele>
        <time>2019-08-08T10:04:44.000Z</time>
      </trkpt>
      <trkpt lat="42.92318" lon="0.80614">
        <ele>802</ele>
        <time>2019-08-08T10:04:45.000Z</time>
      </trkpt>
      <trkpt lat="42.92321" lon="0.80614">
        <ele>802</ele>
        <time>2019-08-08T10:04:46.000Z</time>
      </trkpt>
      <trkpt lat="42.92323" lon="0.80613">
        <ele>802</ele>
        <time>2019-08-08T10:04:47.000Z</time>
      </trkpt>
      <trkpt lat="42.92325" lon="0.80612">
        <ele>803</ele>
        <time>2019-08-08T10:04:48.000Z</time>
      </trkpt>
      <trkpt lat="42.92327" lon="0.80612">
        <ele>803</ele>
        <time>2019-08-08T10:04:49.000Z</time>
      </trkpt>
      <trkpt lat="42.9233" lon="0.80611">
        <ele>803</ele>
        <time>2019-08-08T10:04:50.000Z</time>
      </trkpt>
      <trkpt lat="42.92332" lon="0.80611">
        <ele>805</ele>
        <time>2019-08-08T10:04:51.000Z</time>
      </trkpt>
      <trkpt lat="42.92334" lon="0.8061">
        <ele>805</ele>
        <time>2019-08-08T10:04:52.000Z</time>
      </trkpt>
      <trkpt lat="42.92336" lon="0.8061">
        <ele>805</ele>
        <time>2019-08-08T10:04:53.000Z</time>
      </trkpt>
      <trkpt lat="42.92339" lon="0.8061">
        <ele>805</ele>
        <time>2019-08-08T10:04:54.000Z</time>
      </trkpt>
      <trkpt lat="42.92341" lon="0.80609">
        <ele>806</ele>
        <time>2019-08-08T10:04:55.000Z</time>
      </trkpt>
      <trkpt lat="42.92343" lon="0.80609">
        <ele>806</ele>
        <time>2019-08-08T10:04:56.000Z</time>
      </trkpt>
      <trkpt lat="42.92345" lon="0.80608">
        <ele>806</ele>
        <time>2019-08-08T10:04:57.000Z</time>
      </trkpt>
      <trkpt lat="42.92348" lon="0.80607">
        <ele>806</ele>
        <time>2019-08-08T10:04:58.000Z</time>
      </trkpt>
      <trkpt lat="42.9235" lon="0.80606">
        <ele>806</ele>
        <time>2019-08-08T10:04:59.000Z</time>
      </trkpt>
      <trkpt lat="42.92351" lon="0.80605">
        <ele>806</ele>
        <time>2019-08-08T10:05:00.000Z</time>
      </trkpt>
      <trkpt lat="42.92353" lon="0.80604">
        <ele>806</ele>
        <time>2019-08-08T10:05:01.000Z</time>
      </trkpt>
      <trkpt lat="42.92355" lon="0.80603">
        <ele>806</ele>
        <time>2019-08-08T10:05:02.000Z</time>
      </trkpt>
      <trkpt lat="42.92357" lon="0.80602">
        <ele>808</ele>
        <time>2019-08-08T10:05:03.000Z</time>
      </trkpt>
      <trkpt lat="42.9236" lon="0.80602">
        <ele>808</ele>
        <time>2019-08-08T10:05:04.000Z</time>
      </trkpt>
      <trkpt lat="42.92362" lon="0.80601">
        <ele>808</ele>
        <time>2019-08-08T10:05:05.000Z</time>
      </trkpt>
      <trkpt lat="42.92362" lon="0.80601">
        <ele>808</ele>
        <time>2019-08-08T10:05:06.000Z</time>
      </trkpt>
      <trkpt lat="42.92365" lon="0.80599">
        <ele>808</ele>
        <time>2019-08-08T10:05:07.000Z</time>
      </trkpt>
      <trkpt lat="42.92367" lon="0.80598">
        <ele>808</ele>
        <time>2019-08-08T10:05:08.000Z</time>
      </trkpt>
      <trkpt lat="42.92369" lon="0.80598">
        <ele>809</ele>
        <time>2019-08-08T10:05:09.000Z</time>
      </trkpt>
      <trkpt lat="42.92371" lon="0.80597">
        <ele>809</ele>
        <time>2019-08-08T10:05:10.000Z</time>
      </trkpt>
      <trkpt lat="42.92373" lon="0.80595">
        <ele>810</ele>
        <time>2019-08-08T10:05:11.000Z</time>
      </trkpt>
      <trkpt lat="42.92373" lon="0.80595">
        <ele>810</ele>
        <time>2019-08-08T10:05:12.000Z</time>
      </trkpt>
      <trkpt lat="42.92373" lon="0.80595">
        <ele>810</ele>
        <time>2019-08-08T10:05:13.000Z</time>
      </trkpt>
      <trkpt lat="42.92373" lon="0.80595">
        <ele>810</ele>
        <time>2019-08-08T10:05:14.000Z</time>
      </trkpt>
      <trkpt lat="42.92379" lon="0.80586">
        <ele>811</ele>
        <time>2019-08-08T10:05:15.000Z</time>
      </trkpt>
      <trkpt lat="42.92379" lon="0.80586">
        <ele>811</ele>
        <time>2019-08-08T10:05:16.000Z</time>
      </trkpt>
      <trkpt lat="42.92379" lon="0.80586">
        <ele>811</ele>
        <time>2019-08-08T10:05:17.000Z</time>
      </trkpt>
      <trkpt lat="42.92379" lon="0.80586">
        <ele>811</ele>
        <time>2019-08-08T10:05:18.000Z</time>
      </trkpt>
      <trkpt lat="42.92386" lon="0.80577">
        <ele>811</ele>
        <time>2019-08-08T10:05:19.000Z</time>
      </trkpt>
      <trkpt lat="42.92386" lon="0.80577">
        <ele>811</ele>
        <time>2019-08-08T10:05:20.000Z</time>
      </trkpt>
      <trkpt lat="42.92386" lon="0.80577">
        <ele>812</ele>
        <time>2019-08-08T10:05:21.000Z</time>
      </trkpt>
      <trkpt lat="42.92386" lon="0.80577">
        <ele>812</ele>
        <time>2019-08-08T10:05:22.000Z</time>
      </trkpt>
      <trkpt lat="42.9239" lon="0.80563">
        <ele>812</ele>
        <time>2019-08-08T10:05:23.000Z</time>
      </trkpt>
      <trkpt lat="42.92391" lon="0.80561">
        <ele>812</ele>
        <time>2019-08-08T10:05:24.000Z</time>
      </trkpt>
      <trkpt lat="42.92391" lon="0.8056">
        <ele>813</ele>
        <time>2019-08-08T10:05:25.000Z</time>
      </trkpt>
      <trkpt lat="42.92392" lon="0.80558">
        <ele>813</ele>
        <time>2019-08-08T10:05:26.000Z</time>
      </trkpt>
      <trkpt lat="42.92395" lon="0.8055">
        <ele>813</ele>
        <time>2019-08-08T10:05:27.000Z</time>
      </trkpt>
      <trkpt lat="42.92396" lon="0.80549">
        <ele>813</ele>
        <time>2019-08-08T10:05:28.000Z</time>
      </trkpt>
      <trkpt lat="42.92397" lon="0.80548">
        <ele>814</ele>
        <time>2019-08-08T10:05:29.000Z</time>
      </trkpt>
      <trkpt lat="42.92398" lon="0.80546">
        <ele>814</ele>
        <time>2019-08-08T10:05:30.000Z</time>
      </trkpt>
      <trkpt lat="42.92401" lon="0.80541">
        <ele>815</ele>
        <time>2019-08-08T10:05:31.000Z</time>
      </trkpt>
      <trkpt lat="42.92401" lon="0.80541">
        <ele>815</ele>
        <time>2019-08-08T10:05:32.000Z</time>
      </trkpt>
      <trkpt lat="42.92401" lon="0.80541">
        <ele>815</ele>
        <time>2019-08-08T10:05:33.000Z</time>
      </trkpt>
      <trkpt lat="42.92407" lon="0.80534">
        <ele>815</ele>
        <time>2019-08-08T10:05:34.000Z</time>
      </trkpt>
      <trkpt lat="42.92408" lon="0.80531">
        <ele>815</ele>
        <time>2019-08-08T10:05:35.000Z</time>
      </trkpt>
      <trkpt lat="42.9241" lon="0.80527">
        <ele>815</ele>
        <time>2019-08-08T10:05:36.000Z</time>
      </trkpt>
      <trkpt lat="42.92411" lon="0.80524">
        <ele>815</ele>
        <time>2019-08-08T10:05:37.000Z</time>
      </trkpt>
      <trkpt lat="42.92413" lon="0.80521">
        <ele>815</ele>
        <time>2019-08-08T10:05:38.000Z</time>
      </trkpt>
      <trkpt lat="42.92415" lon="0.80518">
        <ele>816</ele>
        <time>2019-08-08T10:05:39.000Z</time>
      </trkpt>
      <trkpt lat="42.92417" lon="0.80516">
        <ele>816</ele>
        <time>2019-08-08T10:05:40.000Z</time>
      </trkpt>
      <trkpt lat="42.92419" lon="0.80513">
        <ele>816</ele>
        <time>2019-08-08T10:05:41.000Z</time>
      </trkpt>
      <trkpt lat="42.92421" lon="0.80511">
        <ele>816</ele>
        <time>2019-08-08T10:05:42.000Z</time>
      </trkpt>
      <trkpt lat="42.92423" lon="0.80509">
        <ele>816</ele>
        <time>2019-08-08T10:05:43.000Z</time>
      </trkpt>
      <trkpt lat="42.92425" lon="0.80507">
        <ele>816</ele>
        <time>2019-08-08T10:05:44.000Z</time>
      </trkpt>
      <trkpt lat="42.92428" lon="0.80506">
        <ele>817</ele>
        <time>2019-08-08T10:05:45.000Z</time>
      </trkpt>
      <trkpt lat="42.9243" lon="0.80505">
        <ele>817</ele>
        <time>2019-08-08T10:05:46.000Z</time>
      </trkpt>
      <trkpt lat="42.92433" lon="0.80504">
        <ele>817</ele>
        <time>2019-08-08T10:05:47.000Z</time>
      </trkpt>
      <trkpt lat="42.92435" lon="0.80504">
        <ele>817</ele>
        <time>2019-08-08T10:05:48.000Z</time>
      </trkpt>
      <trkpt lat="42.92438" lon="0.80503">
        <ele>817</ele>
        <time>2019-08-08T10:05:49.000Z</time>
      </trkpt>
      <trkpt lat="42.92439" lon="0.80502">
        <ele>818</ele>
        <time>2019-08-08T10:05:50.000Z</time>
      </trkpt>
      <trkpt lat="42.92443" lon="0.80503">
        <ele>818</ele>
        <time>2019-08-08T10:05:51.000Z</time>
      </trkpt>
      <trkpt lat="42.92445" lon="0.80503">
        <ele>819</ele>
        <time>2019-08-08T10:05:52.000Z</time>
      </trkpt>
      <trkpt lat="42.92446" lon="0.80503">
        <ele>819</ele>
        <time>2019-08-08T10:05:53.000Z</time>
      </trkpt>
      <trkpt lat="42.92447" lon="0.80504">
        <ele>820</ele>
        <time>2019-08-08T10:05:54.000Z</time>
      </trkpt>
      <trkpt lat="42.92453" lon="0.80505">
        <ele>820</ele>
        <time>2019-08-08T10:05:55.000Z</time>
      </trkpt>
      <trkpt lat="42.92453" lon="0.80505">
        <ele>820</ele>
        <time>2019-08-08T10:05:56.000Z</time>
      </trkpt>
      <trkpt lat="42.92453" lon="0.80505">
        <ele>820</ele>
        <time>2019-08-08T10:05:57.000Z</time>
      </trkpt>
      <trkpt lat="42.92462" lon="0.80506">
        <ele>821</ele>
        <time>2019-08-08T10:05:58.000Z</time>
      </trkpt>
      <trkpt lat="42.92462" lon="0.80506">
        <ele>821</ele>
        <time>2019-08-08T10:05:59.000Z</time>
      </trkpt>
      <trkpt lat="42.9247" lon="0.80509">
        <ele>821</ele>
        <time>2019-08-08T10:06:00.000Z</time>
      </trkpt>
      <trkpt lat="42.92473" lon="0.80509">
        <ele>821</ele>
        <time>2019-08-08T10:06:01.000Z</time>
      </trkpt>
      <trkpt lat="42.92477" lon="0.80508">
        <ele>821</ele>
        <time>2019-08-08T10:06:02.000Z</time>
      </trkpt>
      <trkpt lat="42.9248" lon="0.80508">
        <ele>821</ele>
        <time>2019-08-08T10:06:03.000Z</time>
      </trkpt>
      <trkpt lat="42.92483" lon="0.80507">
        <ele>822</ele>
        <time>2019-08-08T10:06:04.000Z</time>
      </trkpt>
      <trkpt lat="42.92487" lon="0.80507">
        <ele>822</ele>
        <time>2019-08-08T10:06:05.000Z</time>
      </trkpt>
      <trkpt lat="42.9249" lon="0.80507">
        <ele>822</ele>
        <time>2019-08-08T10:06:06.000Z</time>
      </trkpt>
      <trkpt lat="42.92493" lon="0.80506">
        <ele>823</ele>
        <time>2019-08-08T10:06:07.000Z</time>
      </trkpt>
      <trkpt lat="42.92496" lon="0.80507">
        <ele>823</ele>
        <time>2019-08-08T10:06:08.000Z</time>
      </trkpt>
      <trkpt lat="42.92499" lon="0.80507">
        <ele>823</ele>
        <time>2019-08-08T10:06:09.000Z</time>
      </trkpt>
      <trkpt lat="42.92503" lon="0.80507">
        <ele>823</ele>
        <time>2019-08-08T10:06:10.000Z</time>
      </trkpt>
      <trkpt lat="42.92506" lon="0.80508">
        <ele>823</ele>
        <time>2019-08-08T10:06:11.000Z</time>
      </trkpt>
      <trkpt lat="42.92509" lon="0.80509">
        <ele>823</ele>
        <time>2019-08-08T10:06:12.000Z</time>
      </trkpt>
      <trkpt lat="42.92512" lon="0.80511">
        <ele>823</ele>
        <time>2019-08-08T10:06:13.000Z</time>
      </trkpt>
      <trkpt lat="42.92515" lon="0.80513">
        <ele>823</ele>
        <time>2019-08-08T10:06:14.000Z</time>
      </trkpt>
      <trkpt lat="42.92519" lon="0.80515">
        <ele>822</ele>
        <time>2019-08-08T10:06:15.000Z</time>
      </trkpt>
      <trkpt lat="42.92523" lon="0.80518">
        <ele>822</ele>
        <time>2019-08-08T10:06:16.000Z</time>
      </trkpt>
      <trkpt lat="42.92526" lon="0.80522">
        <ele>822</ele>
        <time>2019-08-08T10:06:17.000Z</time>
      </trkpt>
      <trkpt lat="42.9253" lon="0.80526">
        <ele>822</ele>
        <time>2019-08-08T10:06:18.000Z</time>
      </trkpt>
      <trkpt lat="42.92535" lon="0.8053">
        <ele>822</ele>
        <time>2019-08-08T10:06:19.000Z</time>
      </trkpt>
      <trkpt lat="42.9254" lon="0.80535">
        <ele>822</ele>
        <time>2019-08-08T10:06:20.000Z</time>
      </trkpt>
      <trkpt lat="42.92545" lon="0.8054">
        <ele>820</ele>
        <time>2019-08-08T10:06:21.000Z</time>
      </trkpt>
      <trkpt lat="42.9255" lon="0.80546">
        <ele>820</ele>
        <time>2019-08-08T10:06:22.000Z</time>
      </trkpt>
      <trkpt lat="42.92556" lon="0.80553">
        <ele>818</ele>
        <time>2019-08-08T10:06:23.000Z</time>
      </trkpt>
      <trkpt lat="42.92562" lon="0.8056">
        <ele>818</ele>
        <time>2019-08-08T10:06:24.000Z</time>
      </trkpt>
      <trkpt lat="42.92568" lon="0.80568">
        <ele>818</ele>
        <time>2019-08-08T10:06:25.000Z</time>
      </trkpt>
      <trkpt lat="42.92575" lon="0.80576">
        <ele>818</ele>
        <time>2019-08-08T10:06:26.000Z</time>
      </trkpt>
      <trkpt lat="42.92582" lon="0.80585">
        <ele>815</ele>
        <time>2019-08-08T10:06:27.000Z</time>
      </trkpt>
      <trkpt lat="42.92589" lon="0.80594">
        <ele>815</ele>
        <time>2019-08-08T10:06:28.000Z</time>
      </trkpt>
      <trkpt lat="42.92597" lon="0.80604">
        <ele>813</ele>
        <time>2019-08-08T10:06:29.000Z</time>
      </trkpt>
      <trkpt lat="42.92604" lon="0.80615">
        <ele>813</ele>
        <time>2019-08-08T10:06:30.000Z</time>
      </trkpt>
      <trkpt lat="42.92612" lon="0.80625">
        <ele>810</ele>
        <time>2019-08-08T10:06:31.000Z</time>
      </trkpt>
      <trkpt lat="42.9262" lon="0.80637">
        <ele>810</ele>
        <time>2019-08-08T10:06:32.000Z</time>
      </trkpt>
      <trkpt lat="42.92628" lon="0.80648">
        <ele>808</ele>
        <time>2019-08-08T10:06:33.000Z</time>
      </trkpt>
      <trkpt lat="42.92635" lon="0.8066">
        <ele>808</ele>
        <time>2019-08-08T10:06:34.000Z</time>
      </trkpt>
      <trkpt lat="42.92643" lon="0.80673">
        <ele>806</ele>
        <time>2019-08-08T10:06:35.000Z</time>
      </trkpt>
      <trkpt lat="42.9265" lon="0.80687">
        <ele>806</ele>
        <time>2019-08-08T10:06:36.000Z</time>
      </trkpt>
      <trkpt lat="42.92656" lon="0.807">
        <ele>805</ele>
        <time>2019-08-08T10:06:37.000Z</time>
      </trkpt>
      <trkpt lat="42.92662" lon="0.80714">
        <ele>805</ele>
        <time>2019-08-08T10:06:38.000Z</time>
      </trkpt>
      <trkpt lat="42.92667" lon="0.80727">
        <ele>803</ele>
        <time>2019-08-08T10:06:39.000Z</time>
      </trkpt>
      <trkpt lat="42.92673" lon="0.80739">
        <ele>803</ele>
        <time>2019-08-08T10:06:40.000Z</time>
      </trkpt>
      <trkpt lat="42.92685" lon="0.80751">
        <ele>803</ele>
        <time>2019-08-08T10:06:41.000Z</time>
      </trkpt>
      <trkpt lat="42.9269" lon="0.80754">
        <ele>801</ele>
        <time>2019-08-08T10:06:42.000Z</time>
      </trkpt>
      <trkpt lat="42.927" lon="0.80756">
        <ele>801</ele>
        <time>2019-08-08T10:06:43.000Z</time>
      </trkpt>
      <trkpt lat="42.9271" lon="0.80758">
        <ele>797</ele>
        <time>2019-08-08T10:06:44.000Z</time>
      </trkpt>
      <trkpt lat="42.92719" lon="0.80759">
        <ele>797</ele>
        <time>2019-08-08T10:06:45.000Z</time>
      </trkpt>
      <trkpt lat="42.92728" lon="0.80763">
        <ele>796</ele>
        <time>2019-08-08T10:06:46.000Z</time>
      </trkpt>
      <trkpt lat="42.92736" lon="0.8077">
        <ele>796</ele>
        <time>2019-08-08T10:06:47.000Z</time>
      </trkpt>
      <trkpt lat="42.92743" lon="0.8078">
        <ele>794</ele>
        <time>2019-08-08T10:06:48.000Z</time>
      </trkpt>
      <trkpt lat="42.92749" lon="0.8079">
        <ele>794</ele>
        <time>2019-08-08T10:06:49.000Z</time>
      </trkpt>
      <trkpt lat="42.92756" lon="0.80799">
        <ele>793</ele>
        <time>2019-08-08T10:06:50.000Z</time>
      </trkpt>
      <trkpt lat="42.92764" lon="0.80803">
        <ele>793</ele>
        <time>2019-08-08T10:06:51.000Z</time>
      </trkpt>
      <trkpt lat="42.92773" lon="0.80804">
        <ele>791</ele>
        <time>2019-08-08T10:06:52.000Z</time>
      </trkpt>
      <trkpt lat="42.92781" lon="0.808">
        <ele>791</ele>
        <time>2019-08-08T10:06:53.000Z</time>
      </trkpt>
      <trkpt lat="42.92788" lon="0.80792">
        <ele>788</ele>
        <time>2019-08-08T10:06:54.000Z</time>
      </trkpt>
      <trkpt lat="42.92792" lon="0.80781">
        <ele>788</ele>
        <time>2019-08-08T10:06:55.000Z</time>
      </trkpt>
      <trkpt lat="42.92796" lon="0.80768">
        <ele>787</ele>
        <time>2019-08-08T10:06:56.000Z</time>
      </trkpt>
      <trkpt lat="42.92802" lon="0.80756">
        <ele>787</ele>
        <time>2019-08-08T10:06:57.000Z</time>
      </trkpt>
      <trkpt lat="42.92809" lon="0.80745">
        <ele>783</ele>
        <time>2019-08-08T10:06:58.000Z</time>
      </trkpt>
      <trkpt lat="42.92816" lon="0.80733">
        <ele>783</ele>
        <time>2019-08-08T10:06:59.000Z</time>
      </trkpt>
      <trkpt lat="42.92825" lon="0.80722">
        <ele>783</ele>
        <time>2019-08-08T10:07:00.000Z</time>
      </trkpt>
      <trkpt lat="42.92832" lon="0.80709">
        <ele>779</ele>
        <time>2019-08-08T10:07:01.000Z</time>
      </trkpt>
      <trkpt lat="42.9284" lon="0.80695">
        <ele>779</ele>
        <time>2019-08-08T10:07:02.000Z</time>
      </trkpt>
      <trkpt lat="42.92848" lon="0.80683">
        <ele>776</ele>
        <time>2019-08-08T10:07:03.000Z</time>
      </trkpt>
      <trkpt lat="42.92856" lon="0.80671">
        <ele>776</ele>
        <time>2019-08-08T10:07:04.000Z</time>
      </trkpt>
      <trkpt lat="42.92863" lon="0.80661">
        <ele>774</ele>
        <time>2019-08-08T10:07:05.000Z</time>
      </trkpt>
      <trkpt lat="42.92871" lon="0.80654">
        <ele>774</ele>
        <time>2019-08-08T10:07:06.000Z</time>
      </trkpt>
      <trkpt lat="42.92881" lon="0.80652">
        <ele>773</ele>
        <time>2019-08-08T10:07:07.000Z</time>
      </trkpt>
      <trkpt lat="42.92891" lon="0.80657">
        <ele>773</ele>
        <time>2019-08-08T10:07:08.000Z</time>
      </trkpt>
      <trkpt lat="42.929" lon="0.80665">
        <ele>770</ele>
        <time>2019-08-08T10:07:09.000Z</time>
      </trkpt>
      <trkpt lat="42.92909" lon="0.80675">
        <ele>770</ele>
        <time>2019-08-08T10:07:10.000Z</time>
      </trkpt>
      <trkpt lat="42.92918" lon="0.80684">
        <ele>768</ele>
        <time>2019-08-08T10:07:11.000Z</time>
      </trkpt>
      <trkpt lat="42.92928" lon="0.8069">
        <ele>768</ele>
        <time>2019-08-08T10:07:12.000Z</time>
      </trkpt>
      <trkpt lat="42.92937" lon="0.80695">
        <ele>768</ele>
        <time>2019-08-08T10:07:13.000Z</time>
      </trkpt>
      <trkpt lat="42.92948" lon="0.80698">
        <ele>765</ele>
        <time>2019-08-08T10:07:14.000Z</time>
      </trkpt>
      <trkpt lat="42.9296" lon="0.80699">
        <ele>765</ele>
        <time>2019-08-08T10:07:15.000Z</time>
      </trkpt>
      <trkpt lat="42.92971" lon="0.80697">
        <ele>761</ele>
        <time>2019-08-08T10:07:16.000Z</time>
      </trkpt>
      <trkpt lat="42.92983" lon="0.80695">
        <ele>761</ele>
        <time>2019-08-08T10:07:17.000Z</time>
      </trkpt>
      <trkpt lat="42.92993" lon="0.80692">
        <ele>761</ele>
        <time>2019-08-08T10:07:18.000Z</time>
      </trkpt>
      <trkpt lat="42.93004" lon="0.80691">
        <ele>759</ele>
        <time>2019-08-08T10:07:19.000Z</time>
      </trkpt>
      <trkpt lat="42.93015" lon="0.80693">
        <ele>759</ele>
        <time>2019-08-08T10:07:20.000Z</time>
      </trkpt>
      <trkpt lat="42.93027" lon="0.80699">
        <ele>759</ele>
        <time>2019-08-08T10:07:21.000Z</time>
      </trkpt>
      <trkpt lat="42.93038" lon="0.80705">
        <ele>755</ele>
        <time>2019-08-08T10:07:22.000Z</time>
      </trkpt>
      <trkpt lat="42.93047" lon="0.80713">
        <ele>755</ele>
        <time>2019-08-08T10:07:23.000Z</time>
      </trkpt>
      <trkpt lat="42.93056" lon="0.80721">
        <ele>752</ele>
        <time>2019-08-08T10:07:24.000Z</time>
      </trkpt>
      <trkpt lat="42.93066" lon="0.80727">
        <ele>752</ele>
        <time>2019-08-08T10:07:25.000Z</time>
      </trkpt>
      <trkpt lat="42.93077" lon="0.80731">
        <ele>752</ele>
        <time>2019-08-08T10:07:26.000Z</time>
      </trkpt>
      <trkpt lat="42.93088" lon="0.80733">
        <ele>750</ele>
        <time>2019-08-08T10:07:27.000Z</time>
      </trkpt>
      <trkpt lat="42.93099" lon="0.80732">
        <ele>750</ele>
        <time>2019-08-08T10:07:28.000Z</time>
      </trkpt>
      <trkpt lat="42.9311" lon="0.80733">
        <ele>747</ele>
        <time>2019-08-08T10:07:29.000Z</time>
      </trkpt>
      <trkpt lat="42.9312" lon="0.80738">
        <ele>747</ele>
        <time>2019-08-08T10:07:30.000Z</time>
      </trkpt>
      <trkpt lat="42.9313" lon="0.80747">
        <ele>747</ele>
        <time>2019-08-08T10:07:31.000Z</time>
      </trkpt>
      <trkpt lat="42.93137" lon="0.80759">
        <ele>744</ele>
        <time>2019-08-08T10:07:32.000Z</time>
      </trkpt>
      <trkpt lat="42.93143" lon="0.80771">
        <ele>744</ele>
        <time>2019-08-08T10:07:33.000Z</time>
      </trkpt>
      <trkpt lat="42.93151" lon="0.80781">
        <ele>742</ele>
        <time>2019-08-08T10:07:34.000Z</time>
      </trkpt>
      <trkpt lat="42.93159" lon="0.80786">
        <ele>742</ele>
        <time>2019-08-08T10:07:35.000Z</time>
      </trkpt>
      <trkpt lat="42.93169" lon="0.80789">
        <ele>742</ele>
        <time>2019-08-08T10:07:36.000Z</time>
      </trkpt>
      <trkpt lat="42.9318" lon="0.80792">
        <ele>739</ele>
        <time>2019-08-08T10:07:37.000Z</time>
      </trkpt>
      <trkpt lat="42.93194" lon="0.80803">
        <ele>739</ele>
        <time>2019-08-08T10:07:38.000Z</time>
      </trkpt>
      <trkpt lat="42.93198" lon="0.80807">
        <ele>738</ele>
        <time>2019-08-08T10:07:39.000Z</time>
      </trkpt>
      <trkpt lat="42.93206" lon="0.80815">
        <ele>737</ele>
        <time>2019-08-08T10:07:40.000Z</time>
      </trkpt>
      <trkpt lat="42.9321" lon="0.80827">
        <ele>737</ele>
        <time>2019-08-08T10:07:41.000Z</time>
      </trkpt>
      <trkpt lat="42.93212" lon="0.80841">
        <ele>734</ele>
        <time>2019-08-08T10:07:42.000Z</time>
      </trkpt>
      <trkpt lat="42.93214" lon="0.80854">
        <ele>734</ele>
        <time>2019-08-08T10:07:43.000Z</time>
      </trkpt>
      <trkpt lat="42.93219" lon="0.80871">
        <ele>733</ele>
        <time>2019-08-08T10:07:44.000Z</time>
      </trkpt>
      <trkpt lat="42.93221" lon="0.80876">
        <ele>733</ele>
        <time>2019-08-08T10:07:45.000Z</time>
      </trkpt>
      <trkpt lat="42.93225" lon="0.80885">
        <ele>731</ele>
        <time>2019-08-08T10:07:46.000Z</time>
      </trkpt>
      <trkpt lat="42.93234" lon="0.80887">
        <ele>731</ele>
        <time>2019-08-08T10:07:47.000Z</time>
      </trkpt>
      <trkpt lat="42.93237" lon="0.80885">
        <ele>730</ele>
        <time>2019-08-08T10:07:48.000Z</time>
      </trkpt>
      <trkpt lat="42.93242" lon="0.80882">
        <ele>730</ele>
        <time>2019-08-08T10:07:49.000Z</time>
      </trkpt>
      <trkpt lat="42.93244" lon="0.80875">
        <ele>728</ele>
        <time>2019-08-08T10:07:50.000Z</time>
      </trkpt>
      <trkpt lat="42.93243" lon="0.80863">
        <ele>728</ele>
        <time>2019-08-08T10:07:51.000Z</time>
      </trkpt>
      <trkpt lat="42.93243" lon="0.80859">
        <ele>728</ele>
        <time>2019-08-08T10:07:52.000Z</time>
      </trkpt>
      <trkpt lat="42.93241" lon="0.80845">
        <ele>725</ele>
        <time>2019-08-08T10:07:53.000Z</time>
      </trkpt>
      <trkpt lat="42.9324" lon="0.80839">
        <ele>725</ele>
        <time>2019-08-08T10:07:54.000Z</time>
      </trkpt>
      <trkpt lat="42.93238" lon="0.80828">
        <ele>723</ele>
        <time>2019-08-08T10:07:55.000Z</time>
      </trkpt>
      <trkpt lat="42.93237" lon="0.80816">
        <ele>723</ele>
        <time>2019-08-08T10:07:56.000Z</time>
      </trkpt>
      <trkpt lat="42.93237" lon="0.80794">
        <ele>723</ele>
        <time>2019-08-08T10:07:57.000Z</time>
      </trkpt>
      <trkpt lat="42.93237" lon="0.80787">
        <ele>721</ele>
        <time>2019-08-08T10:07:58.000Z</time>
      </trkpt>
      <trkpt lat="42.93237" lon="0.80771">
        <ele>721</ele>
        <time>2019-08-08T10:07:59.000Z</time>
      </trkpt>
      <trkpt lat="42.93237" lon="0.80756">
        <ele>718</ele>
        <time>2019-08-08T10:08:00.000Z</time>
      </trkpt>
      <trkpt lat="42.93238" lon="0.80744">
        <ele>718</ele>
        <time>2019-08-08T10:08:01.000Z</time>
      </trkpt>
      <trkpt lat="42.93238" lon="0.80732">
        <ele>716</ele>
        <time>2019-08-08T10:08:02.000Z</time>
      </trkpt>
      <trkpt lat="42.9324" lon="0.80722">
        <ele>716</ele>
        <time>2019-08-08T10:08:03.000Z</time>
      </trkpt>
      <trkpt lat="42.93247" lon="0.80715">
        <ele>716</ele>
        <time>2019-08-08T10:08:04.000Z</time>
      </trkpt>
      <trkpt lat="42.93255" lon="0.80714">
        <ele>715</ele>
        <time>2019-08-08T10:08:05.000Z</time>
      </trkpt>
      <trkpt lat="42.93264" lon="0.80717">
        <ele>715</ele>
        <time>2019-08-08T10:08:06.000Z</time>
      </trkpt>
      <trkpt lat="42.93272" lon="0.80723">
        <ele>713</ele>
        <time>2019-08-08T10:08:07.000Z</time>
      </trkpt>
      <trkpt lat="42.93281" lon="0.80729">
        <ele>713</ele>
        <time>2019-08-08T10:08:08.000Z</time>
      </trkpt>
      <trkpt lat="42.93289" lon="0.80735">
        <ele>713</ele>
        <time>2019-08-08T10:08:09.000Z</time>
      </trkpt>
      <trkpt lat="42.93297" lon="0.80741">
        <ele>710</ele>
        <time>2019-08-08T10:08:10.000Z</time>
      </trkpt>
      <trkpt lat="42.93307" lon="0.80747">
        <ele>710</ele>
        <time>2019-08-08T10:08:11.000Z</time>
      </trkpt>
      <trkpt lat="42.93318" lon="0.8075">
        <ele>708</ele>
        <time>2019-08-08T10:08:12.000Z</time>
      </trkpt>
      <trkpt lat="42.93331" lon="0.80751">
        <ele>708</ele>
        <time>2019-08-08T10:08:13.000Z</time>
      </trkpt>
      <trkpt lat="42.93342" lon="0.80747">
        <ele>707</ele>
        <time>2019-08-08T10:08:14.000Z</time>
      </trkpt>
      <trkpt lat="42.93354" lon="0.80743">
        <ele>707</ele>
        <time>2019-08-08T10:08:15.000Z</time>
      </trkpt>
      <trkpt lat="42.93372" lon="0.80735">
        <ele>707</ele>
        <time>2019-08-08T10:08:16.000Z</time>
      </trkpt>
      <trkpt lat="42.93378" lon="0.80733">
        <ele>706</ele>
        <time>2019-08-08T10:08:17.000Z</time>
      </trkpt>
      <trkpt lat="42.93392" lon="0.80722">
        <ele>706</ele>
        <time>2019-08-08T10:08:18.000Z</time>
      </trkpt>
      <trkpt lat="42.93394" lon="0.80715">
        <ele>702</ele>
        <time>2019-08-08T10:08:19.000Z</time>
      </trkpt>
      <trkpt lat="42.93398" lon="0.80701">
        <ele>702</ele>
        <time>2019-08-08T10:08:20.000Z</time>
      </trkpt>
      <trkpt lat="42.93394" lon="0.80675">
        <ele>702</ele>
        <time>2019-08-08T10:08:21.000Z</time>
      </trkpt>
      <trkpt lat="42.93395" lon="0.80659">
        <ele>702</ele>
        <time>2019-08-08T10:08:22.000Z</time>
      </trkpt>
      <trkpt lat="42.93396" lon="0.80641">
        <ele>699</ele>
        <time>2019-08-08T10:08:23.000Z</time>
      </trkpt>
      <trkpt lat="42.93397" lon="0.80617">
        <ele>699</ele>
        <time>2019-08-08T10:08:24.000Z</time>
      </trkpt>
      <trkpt lat="42.93397" lon="0.80613">
        <ele>699</ele>
        <time>2019-08-08T10:08:25.000Z</time>
      </trkpt>
      <trkpt lat="42.93399" lon="0.80605">
        <ele>698</ele>
        <time>2019-08-08T10:08:26.000Z</time>
      </trkpt>
      <trkpt lat="42.93414" lon="0.80601">
        <ele>698</ele>
        <time>2019-08-08T10:08:27.000Z</time>
      </trkpt>
      <trkpt lat="42.93426" lon="0.80611">
        <ele>698</ele>
        <time>2019-08-08T10:08:28.000Z</time>
      </trkpt>
      <trkpt lat="42.9343" lon="0.80614">
        <ele>698</ele>
        <time>2019-08-08T10:08:29.000Z</time>
      </trkpt>
      <trkpt lat="42.93438" lon="0.8062">
        <ele>698</ele>
        <time>2019-08-08T10:08:30.000Z</time>
      </trkpt>
      <trkpt lat="42.93446" lon="0.80626">
        <ele>698</ele>
        <time>2019-08-08T10:08:31.000Z</time>
      </trkpt>
      <trkpt lat="42.93455" lon="0.80631">
        <ele>697</ele>
        <time>2019-08-08T10:08:32.000Z</time>
      </trkpt>
      <trkpt lat="42.93463" lon="0.80637">
        <ele>697</ele>
        <time>2019-08-08T10:08:33.000Z</time>
      </trkpt>
      <trkpt lat="42.93471" lon="0.80642">
        <ele>697</ele>
        <time>2019-08-08T10:08:34.000Z</time>
      </trkpt>
      <trkpt lat="42.93484" lon="0.80648">
        <ele>697</ele>
        <time>2019-08-08T10:08:35.000Z</time>
      </trkpt>
      <trkpt lat="42.93489" lon="0.8065">
        <ele>697</ele>
        <time>2019-08-08T10:08:36.000Z</time>
      </trkpt>
      <trkpt lat="42.93498" lon="0.80653">
        <ele>697</ele>
        <time>2019-08-08T10:08:37.000Z</time>
      </trkpt>
      <trkpt lat="42.93512" lon="0.80654">
        <ele>697</ele>
        <time>2019-08-08T10:08:38.000Z</time>
      </trkpt>
      <trkpt lat="42.93516" lon="0.80654">
        <ele>696</ele>
        <time>2019-08-08T10:08:39.000Z</time>
      </trkpt>
      <trkpt lat="42.93525" lon="0.80652">
        <ele>696</ele>
        <time>2019-08-08T10:08:40.000Z</time>
      </trkpt>
      <trkpt lat="42.93538" lon="0.80648">
        <ele>696</ele>
        <time>2019-08-08T10:08:41.000Z</time>
      </trkpt>
      <trkpt lat="42.93542" lon="0.80646">
        <ele>696</ele>
        <time>2019-08-08T10:08:42.000Z</time>
      </trkpt>
      <trkpt lat="42.93553" lon="0.80639">
        <ele>696</ele>
        <time>2019-08-08T10:08:43.000Z</time>
      </trkpt>
      <trkpt lat="42.93557" lon="0.80635">
        <ele>697</ele>
        <time>2019-08-08T10:08:44.000Z</time>
      </trkpt>
      <trkpt lat="42.93567" lon="0.80626">
        <ele>697</ele>
        <time>2019-08-08T10:08:45.000Z</time>
      </trkpt>
      <trkpt lat="42.9357" lon="0.80624">
        <ele>698</ele>
        <time>2019-08-08T10:08:46.000Z</time>
      </trkpt>
      <trkpt lat="42.9358" lon="0.80616">
        <ele>698</ele>
        <time>2019-08-08T10:08:47.000Z</time>
      </trkpt>
      <trkpt lat="42.93583" lon="0.80614">
        <ele>698</ele>
        <time>2019-08-08T10:08:48.000Z</time>
      </trkpt>
      <trkpt lat="42.93593" lon="0.80609">
        <ele>698</ele>
        <time>2019-08-08T10:08:49.000Z</time>
      </trkpt>
      <trkpt lat="42.93595" lon="0.80607">
        <ele>698</ele>
        <time>2019-08-08T10:08:50.000Z</time>
      </trkpt>
      <trkpt lat="42.93604" lon="0.80602">
        <ele>698</ele>
        <time>2019-08-08T10:08:51.000Z</time>
      </trkpt>
      <trkpt lat="42.93606" lon="0.80601">
        <ele>699</ele>
        <time>2019-08-08T10:08:52.000Z</time>
      </trkpt>
      <trkpt lat="42.93612" lon="0.80598">
        <ele>699</ele>
        <time>2019-08-08T10:08:53.000Z</time>
      </trkpt>
      <trkpt lat="42.93623" lon="0.80597">
        <ele>699</ele>
        <time>2019-08-08T10:08:55.000Z</time>
      </trkpt>
      <trkpt lat="42.9363" lon="0.80602">
        <ele>699</ele>
        <time>2019-08-08T10:08:56.000Z</time>
      </trkpt>
      <trkpt lat="42.93638" lon="0.80606">
        <ele>700</ele>
        <time>2019-08-08T10:08:57.000Z</time>
      </trkpt>
      <trkpt lat="42.93649" lon="0.80621">
        <ele>700</ele>
        <time>2019-08-08T10:08:58.000Z</time>
      </trkpt>
      <trkpt lat="42.93652" lon="0.80626">
        <ele>700</ele>
        <time>2019-08-08T10:08:59.000Z</time>
      </trkpt>
      <trkpt lat="42.93658" lon="0.80638">
        <ele>700</ele>
        <time>2019-08-08T10:09:00.000Z</time>
      </trkpt>
      <trkpt lat="42.9366" lon="0.80642">
        <ele>700</ele>
        <time>2019-08-08T10:09:01.000Z</time>
      </trkpt>
      <trkpt lat="42.93665" lon="0.80655">
        <ele>700</ele>
        <time>2019-08-08T10:09:02.000Z</time>
      </trkpt>
      <trkpt lat="42.93666" lon="0.80659">
        <ele>700</ele>
        <time>2019-08-08T10:09:03.000Z</time>
      </trkpt>
      <trkpt lat="42.9367" lon="0.80671">
        <ele>700</ele>
        <time>2019-08-08T10:09:04.000Z</time>
      </trkpt>
      <trkpt lat="42.93671" lon="0.80675">
        <ele>700</ele>
        <time>2019-08-08T10:09:05.000Z</time>
      </trkpt>
      <trkpt lat="42.93676" lon="0.80686">
        <ele>700</ele>
        <time>2019-08-08T10:09:06.000Z</time>
      </trkpt>
      <trkpt lat="42.93678" lon="0.8069">
        <ele>700</ele>
        <time>2019-08-08T10:09:07.000Z</time>
      </trkpt>
      <trkpt lat="42.93683" lon="0.80701">
        <ele>700</ele>
        <time>2019-08-08T10:09:08.000Z</time>
      </trkpt>
      <trkpt lat="42.93686" lon="0.80705">
        <ele>700</ele>
        <time>2019-08-08T10:09:09.000Z</time>
      </trkpt>
      <trkpt lat="42.93694" lon="0.80716">
        <ele>699</ele>
        <time>2019-08-08T10:09:10.000Z</time>
      </trkpt>
      <trkpt lat="42.93696" lon="0.8072">
        <ele>699</ele>
        <time>2019-08-08T10:09:11.000Z</time>
      </trkpt>
      <trkpt lat="42.93704" lon="0.80728">
        <ele>698</ele>
        <time>2019-08-08T10:09:12.000Z</time>
      </trkpt>
      <trkpt lat="42.93707" lon="0.80729">
        <ele>698</ele>
        <time>2019-08-08T10:09:13.000Z</time>
      </trkpt>
      <trkpt lat="42.93715" lon="0.80733">
        <ele>698</ele>
        <time>2019-08-08T10:09:14.000Z</time>
      </trkpt>
      <trkpt lat="42.93718" lon="0.80734">
        <ele>698</ele>
        <time>2019-08-08T10:09:15.000Z</time>
      </trkpt>
      <trkpt lat="42.93723" lon="0.80735">
        <ele>698</ele>
        <time>2019-08-08T10:09:16.000Z</time>
      </trkpt>
      <trkpt lat="42.93723" lon="0.80735">
        <ele>698</ele>
        <time>2019-08-08T10:09:17.000Z</time>
      </trkpt>
      <trkpt lat="42.93736" lon="0.80734">
        <ele>698</ele>
        <time>2019-08-08T10:09:18.000Z</time>
      </trkpt>
      <trkpt lat="42.93738" lon="0.80734">
        <ele>697</ele>
        <time>2019-08-08T10:09:19.000Z</time>
      </trkpt>
      <trkpt lat="42.93747" lon="0.80732">
        <ele>697</ele>
        <time>2019-08-08T10:09:20.000Z</time>
      </trkpt>
      <trkpt lat="42.9375" lon="0.80731">
        <ele>697</ele>
        <time>2019-08-08T10:09:21.000Z</time>
      </trkpt>
      <trkpt lat="42.93761" lon="0.8073">
        <ele>697</ele>
        <time>2019-08-08T10:09:22.000Z</time>
      </trkpt>
      <trkpt lat="42.93765" lon="0.80731">
        <ele>696</ele>
        <time>2019-08-08T10:09:23.000Z</time>
      </trkpt>
      <trkpt lat="42.93778" lon="0.80732">
        <ele>696</ele>
        <time>2019-08-08T10:09:24.000Z</time>
      </trkpt>
      <trkpt lat="42.93782" lon="0.80731">
        <ele>696</ele>
        <time>2019-08-08T10:09:25.000Z</time>
      </trkpt>
      <trkpt lat="42.93795" lon="0.80731">
        <ele>696</ele>
        <time>2019-08-08T10:09:26.000Z</time>
      </trkpt>
      <trkpt lat="42.93799" lon="0.80731">
        <ele>696</ele>
        <time>2019-08-08T10:09:27.000Z</time>
      </trkpt>
      <trkpt lat="42.93808" lon="0.80731">
        <ele>694</ele>
        <time>2019-08-08T10:09:28.000Z</time>
      </trkpt>
      <trkpt lat="42.93816" lon="0.80737">
        <ele>694</ele>
        <time>2019-08-08T10:09:29.000Z</time>
      </trkpt>
      <trkpt lat="42.93823" lon="0.80745">
        <ele>693</ele>
        <time>2019-08-08T10:09:30.000Z</time>
      </trkpt>
      <trkpt lat="42.93829" lon="0.80756">
        <ele>693</ele>
        <time>2019-08-08T10:09:31.000Z</time>
      </trkpt>
      <trkpt lat="42.93832" lon="0.80768">
        <ele>693</ele>
        <time>2019-08-08T10:09:32.000Z</time>
      </trkpt>
      <trkpt lat="42.93835" lon="0.80781">
        <ele>690</ele>
        <time>2019-08-08T10:09:33.000Z</time>
      </trkpt>
      <trkpt lat="42.93837" lon="0.80794">
        <ele>690</ele>
        <time>2019-08-08T10:09:34.000Z</time>
      </trkpt>
      <trkpt lat="42.9384" lon="0.80808">
        <ele>690</ele>
        <time>2019-08-08T10:09:35.000Z</time>
      </trkpt>
      <trkpt lat="42.93842" lon="0.80822">
        <ele>689</ele>
        <time>2019-08-08T10:09:36.000Z</time>
      </trkpt>
      <trkpt lat="42.93844" lon="0.80836">
        <ele>689</ele>
        <time>2019-08-08T10:09:37.000Z</time>
      </trkpt>
      <trkpt lat="42.93847" lon="0.8085">
        <ele>688</ele>
        <time>2019-08-08T10:09:38.000Z</time>
      </trkpt>
      <trkpt lat="42.93851" lon="0.80862">
        <ele>688</ele>
        <time>2019-08-08T10:09:39.000Z</time>
      </trkpt>
      <trkpt lat="42.93856" lon="0.80874">
        <ele>688</ele>
        <time>2019-08-08T10:09:40.000Z</time>
      </trkpt>
      <trkpt lat="42.93861" lon="0.80886">
        <ele>688</ele>
        <time>2019-08-08T10:09:41.000Z</time>
      </trkpt>
      <trkpt lat="42.93866" lon="0.80897">
        <ele>687</ele>
        <time>2019-08-08T10:09:42.000Z</time>
      </trkpt>
      <trkpt lat="42.93874" lon="0.80907">
        <ele>687</ele>
        <time>2019-08-08T10:09:43.000Z</time>
      </trkpt>
      <trkpt lat="42.93883" lon="0.80919">
        <ele>687</ele>
        <time>2019-08-08T10:09:44.000Z</time>
      </trkpt>
      <trkpt lat="42.93887" lon="0.80922">
        <ele>687</ele>
        <time>2019-08-08T10:09:45.000Z</time>
      </trkpt>
      <trkpt lat="42.93893" lon="0.8093">
        <ele>688</ele>
        <time>2019-08-08T10:09:46.000Z</time>
      </trkpt>
      <trkpt lat="42.93908" lon="0.80934">
        <ele>688</ele>
        <time>2019-08-08T10:09:47.000Z</time>
      </trkpt>
      <trkpt lat="42.93912" lon="0.80934">
        <ele>688</ele>
        <time>2019-08-08T10:09:48.000Z</time>
      </trkpt>
      <trkpt lat="42.93924" lon="0.80938">
        <ele>688</ele>
        <time>2019-08-08T10:09:49.000Z</time>
      </trkpt>
      <trkpt lat="42.93928" lon="0.8094">
        <ele>688</ele>
        <time>2019-08-08T10:09:50.000Z</time>
      </trkpt>
      <trkpt lat="42.93937" lon="0.8095">
        <ele>688</ele>
        <time>2019-08-08T10:09:51.000Z</time>
      </trkpt>
      <trkpt lat="42.93938" lon="0.80955">
        <ele>688</ele>
        <time>2019-08-08T10:09:52.000Z</time>
      </trkpt>
      <trkpt lat="42.9394" lon="0.80972">
        <ele>688</ele>
        <time>2019-08-08T10:09:53.000Z</time>
      </trkpt>
      <trkpt lat="42.93939" lon="0.80978">
        <ele>688</ele>
        <time>2019-08-08T10:09:54.000Z</time>
      </trkpt>
      <trkpt lat="42.93938" lon="0.8099">
        <ele>686</ele>
        <time>2019-08-08T10:09:55.000Z</time>
      </trkpt>
      <trkpt lat="42.93938" lon="0.81004">
        <ele>686</ele>
        <time>2019-08-08T10:09:56.000Z</time>
      </trkpt>
      <trkpt lat="42.93938" lon="0.81018">
        <ele>683</ele>
        <time>2019-08-08T10:09:57.000Z</time>
      </trkpt>
      <trkpt lat="42.93939" lon="0.81033">
        <ele>683</ele>
        <time>2019-08-08T10:09:58.000Z</time>
      </trkpt>
      <trkpt lat="42.93942" lon="0.81047">
        <ele>682</ele>
        <time>2019-08-08T10:09:59.000Z</time>
      </trkpt>
      <trkpt lat="42.93948" lon="0.8106">
        <ele>682</ele>
        <time>2019-08-08T10:10:00.000Z</time>
      </trkpt>
      <trkpt lat="42.93954" lon="0.81071">
        <ele>681</ele>
        <time>2019-08-08T10:10:01.000Z</time>
      </trkpt>
      <trkpt lat="42.93961" lon="0.81081">
        <ele>681</ele>
        <time>2019-08-08T10:10:02.000Z</time>
      </trkpt>
      <trkpt lat="42.93972" lon="0.81085">
        <ele>680</ele>
        <time>2019-08-08T10:10:03.000Z</time>
      </trkpt>
      <trkpt lat="42.93983" lon="0.81088">
        <ele>680</ele>
        <time>2019-08-08T10:10:04.000Z</time>
      </trkpt>
      <trkpt lat="42.93995" lon="0.8109">
        <ele>680</ele>
        <time>2019-08-08T10:10:05.000Z</time>
      </trkpt>
      <trkpt lat="42.94006" lon="0.81093">
        <ele>681</ele>
        <time>2019-08-08T10:10:06.000Z</time>
      </trkpt>
      <trkpt lat="42.94015" lon="0.81095">
        <ele>681</ele>
        <time>2019-08-08T10:10:07.000Z</time>
      </trkpt>
      <trkpt lat="42.94025" lon="0.81096">
        <ele>681</ele>
        <time>2019-08-08T10:10:08.000Z</time>
      </trkpt>
      <trkpt lat="42.94042" lon="0.81097">
        <ele>681</ele>
        <time>2019-08-08T10:10:09.000Z</time>
      </trkpt>
      <trkpt lat="42.9405" lon="0.81096">
        <ele>681</ele>
        <time>2019-08-08T10:10:11.000Z</time>
      </trkpt>
      <trkpt lat="42.9405" lon="0.81096">
        <ele>681</ele>
        <time>2019-08-08T10:10:12.000Z</time>
      </trkpt>
      <trkpt lat="42.94067" lon="0.81093">
        <ele>682</ele>
        <time>2019-08-08T10:10:13.000Z</time>
      </trkpt>
      <trkpt lat="42.9407" lon="0.81093">
        <ele>682</ele>
        <time>2019-08-08T10:10:14.000Z</time>
      </trkpt>
      <trkpt lat="42.94081" lon="0.81092">
        <ele>682</ele>
        <time>2019-08-08T10:10:15.000Z</time>
      </trkpt>
      <trkpt lat="42.94084" lon="0.81094">
        <ele>682</ele>
        <time>2019-08-08T10:10:16.000Z</time>
      </trkpt>
      <trkpt lat="42.94096" lon="0.81098">
        <ele>682</ele>
        <time>2019-08-08T10:10:17.000Z</time>
      </trkpt>
      <trkpt lat="42.94099" lon="0.81099">
        <ele>682</ele>
        <time>2019-08-08T10:10:18.000Z</time>
      </trkpt>
      <trkpt lat="42.9411" lon="0.81104">
        <ele>682</ele>
        <time>2019-08-08T10:10:19.000Z</time>
      </trkpt>
      <trkpt lat="42.94114" lon="0.81106">
        <ele>682</ele>
        <time>2019-08-08T10:10:20.000Z</time>
      </trkpt>
      <trkpt lat="42.94125" lon="0.8111">
        <ele>682</ele>
        <time>2019-08-08T10:10:21.000Z</time>
      </trkpt>
      <trkpt lat="42.94128" lon="0.8111">
        <ele>682</ele>
        <time>2019-08-08T10:10:22.000Z</time>
      </trkpt>
      <trkpt lat="42.94138" lon="0.81111">
        <ele>682</ele>
        <time>2019-08-08T10:10:23.000Z</time>
      </trkpt>
      <trkpt lat="42.94141" lon="0.81111">
        <ele>683</ele>
        <time>2019-08-08T10:10:24.000Z</time>
      </trkpt>
      <trkpt lat="42.94151" lon="0.81108">
        <ele>683</ele>
        <time>2019-08-08T10:10:25.000Z</time>
      </trkpt>
      <trkpt lat="42.94155" lon="0.81106">
        <ele>683</ele>
        <time>2019-08-08T10:10:26.000Z</time>
      </trkpt>
      <trkpt lat="42.94166" lon="0.81102">
        <ele>683</ele>
        <time>2019-08-08T10:10:27.000Z</time>
      </trkpt>
      <trkpt lat="42.9417" lon="0.81102">
        <ele>683</ele>
        <time>2019-08-08T10:10:28.000Z</time>
      </trkpt>
      <trkpt lat="42.94177" lon="0.81101">
        <ele>683</ele>
        <time>2019-08-08T10:10:29.000Z</time>
      </trkpt>
      <trkpt lat="42.9419" lon="0.81106">
        <ele>683</ele>
        <time>2019-08-08T10:10:30.000Z</time>
      </trkpt>
      <trkpt lat="42.94193" lon="0.81108">
        <ele>683</ele>
        <time>2019-08-08T10:10:31.000Z</time>
      </trkpt>
      <trkpt lat="42.94203" lon="0.81114">
        <ele>683</ele>
        <time>2019-08-08T10:10:32.000Z</time>
      </trkpt>
      <trkpt lat="42.94206" lon="0.81116">
        <ele>683</ele>
        <time>2019-08-08T10:10:33.000Z</time>
      </trkpt>
      <trkpt lat="42.94211" lon="0.81121">
        <ele>684</ele>
        <time>2019-08-08T10:10:34.000Z</time>
      </trkpt>
      <trkpt lat="42.94217" lon="0.81126">
        <ele>684</ele>
        <time>2019-08-08T10:10:35.000Z</time>
      </trkpt>
      <trkpt lat="42.94225" lon="0.81133">
        <ele>684</ele>
        <time>2019-08-08T10:10:36.000Z</time>
      </trkpt>
      <trkpt lat="42.94227" lon="0.81135">
        <ele>684</ele>
        <time>2019-08-08T10:10:37.000Z</time>
      </trkpt>
      <trkpt lat="42.94236" lon="0.8114">
        <ele>684</ele>
        <time>2019-08-08T10:10:38.000Z</time>
      </trkpt>
      <trkpt lat="42.94238" lon="0.81142">
        <ele>684</ele>
        <time>2019-08-08T10:10:39.000Z</time>
      </trkpt>
      <trkpt lat="42.94247" lon="0.81145">
        <ele>683</ele>
        <time>2019-08-08T10:10:40.000Z</time>
      </trkpt>
      <trkpt lat="42.94251" lon="0.81147">
        <ele>683</ele>
        <time>2019-08-08T10:10:41.000Z</time>
      </trkpt>
      <trkpt lat="42.94261" lon="0.81151">
        <ele>683</ele>
        <time>2019-08-08T10:10:42.000Z</time>
      </trkpt>
      <trkpt lat="42.94264" lon="0.81153">
        <ele>683</ele>
        <time>2019-08-08T10:10:43.000Z</time>
      </trkpt>
      <trkpt lat="42.94275" lon="0.81158">
        <ele>683</ele>
        <time>2019-08-08T10:10:44.000Z</time>
      </trkpt>
      <trkpt lat="42.94278" lon="0.8116">
        <ele>683</ele>
        <time>2019-08-08T10:10:45.000Z</time>
      </trkpt>
      <trkpt lat="42.94288" lon="0.81165">
        <ele>683</ele>
        <time>2019-08-08T10:10:46.000Z</time>
      </trkpt>
      <trkpt lat="42.94291" lon="0.81166">
        <ele>683</ele>
        <time>2019-08-08T10:10:47.000Z</time>
      </trkpt>
      <trkpt lat="42.943" lon="0.8117">
        <ele>683</ele>
        <time>2019-08-08T10:10:48.000Z</time>
      </trkpt>
      <trkpt lat="42.94303" lon="0.81171">
        <ele>683</ele>
        <time>2019-08-08T10:10:49.000Z</time>
      </trkpt>
      <trkpt lat="42.94312" lon="0.81175">
        <ele>682</ele>
        <time>2019-08-08T10:10:50.000Z</time>
      </trkpt>
      <trkpt lat="42.94315" lon="0.81176">
        <ele>682</ele>
        <time>2019-08-08T10:10:51.000Z</time>
      </trkpt>
      <trkpt lat="42.94323" lon="0.81179">
        <ele>682</ele>
        <time>2019-08-08T10:10:52.000Z</time>
      </trkpt>
      <trkpt lat="42.94325" lon="0.81179">
        <ele>682</ele>
        <time>2019-08-08T10:10:53.000Z</time>
      </trkpt>
      <trkpt lat="42.94327" lon="0.81179">
        <ele>682</ele>
        <time>2019-08-08T10:10:54.000Z</time>
      </trkpt>
      <trkpt lat="42.94332" lon="0.81179">
        <ele>682</ele>
        <time>2019-08-08T10:10:55.000Z</time>
      </trkpt>
      <trkpt lat="42.94349" lon="0.81187">
        <ele>682</ele>
        <time>2019-08-08T10:10:56.000Z</time>
      </trkpt>
      <trkpt lat="42.94352" lon="0.81188">
        <ele>681</ele>
        <time>2019-08-08T10:10:57.000Z</time>
      </trkpt>
      <trkpt lat="42.94363" lon="0.81193">
        <ele>681</ele>
        <time>2019-08-08T10:10:58.000Z</time>
      </trkpt>
      <trkpt lat="42.94367" lon="0.81195">
        <ele>680</ele>
        <time>2019-08-08T10:10:59.000Z</time>
      </trkpt>
      <trkpt lat="42.94374" lon="0.81199">
        <ele>680</ele>
        <time>2019-08-08T10:11:00.000Z</time>
      </trkpt>
      <trkpt lat="42.94383" lon="0.81207">
        <ele>680</ele>
        <time>2019-08-08T10:11:01.000Z</time>
      </trkpt>
      <trkpt lat="42.94391" lon="0.81215">
        <ele>680</ele>
        <time>2019-08-08T10:11:02.000Z</time>
      </trkpt>
      <trkpt lat="42.944" lon="0.81227">
        <ele>679</ele>
        <time>2019-08-08T10:11:03.000Z</time>
      </trkpt>
      <trkpt lat="42.94402" lon="0.81231">
        <ele>679</ele>
        <time>2019-08-08T10:11:04.000Z</time>
      </trkpt>
      <trkpt lat="42.94408" lon="0.81244">
        <ele>678</ele>
        <time>2019-08-08T10:11:05.000Z</time>
      </trkpt>
      <trkpt lat="42.9441" lon="0.81249">
        <ele>678</ele>
        <time>2019-08-08T10:11:06.000Z</time>
      </trkpt>
      <trkpt lat="42.94414" lon="0.8126">
        <ele>677</ele>
        <time>2019-08-08T10:11:07.000Z</time>
      </trkpt>
      <trkpt lat="42.94417" lon="0.81276">
        <ele>677</ele>
        <time>2019-08-08T10:11:08.000Z</time>
      </trkpt>
      <trkpt lat="42.94418" lon="0.81282">
        <ele>677</ele>
        <time>2019-08-08T10:11:09.000Z</time>
      </trkpt>
      <trkpt lat="42.94422" lon="0.81299">
        <ele>676</ele>
        <time>2019-08-08T10:11:10.000Z</time>
      </trkpt>
      <trkpt lat="42.94424" lon="0.81304">
        <ele>676</ele>
        <time>2019-08-08T10:11:11.000Z</time>
      </trkpt>
      <trkpt lat="42.9443" lon="0.81319">
        <ele>674</ele>
        <time>2019-08-08T10:11:12.000Z</time>
      </trkpt>
      <trkpt lat="42.94433" lon="0.81323">
        <ele>674</ele>
        <time>2019-08-08T10:11:13.000Z</time>
      </trkpt>
      <trkpt lat="42.94439" lon="0.81332">
        <ele>674</ele>
        <time>2019-08-08T10:11:14.000Z</time>
      </trkpt>
      <trkpt lat="42.94446" lon="0.8134">
        <ele>674</ele>
        <time>2019-08-08T10:11:15.000Z</time>
      </trkpt>
      <trkpt lat="42.94453" lon="0.81349">
        <ele>672</ele>
        <time>2019-08-08T10:11:16.000Z</time>
      </trkpt>
      <trkpt lat="42.94459" lon="0.81357">
        <ele>672</ele>
        <time>2019-08-08T10:11:17.000Z</time>
      </trkpt>
      <trkpt lat="42.94467" lon="0.81364">
        <ele>671</ele>
        <time>2019-08-08T10:11:18.000Z</time>
      </trkpt>
      <trkpt lat="42.94475" lon="0.8137">
        <ele>671</ele>
        <time>2019-08-08T10:11:19.000Z</time>
      </trkpt>
      <trkpt lat="42.94489" lon="0.81373">
        <ele>671</ele>
        <time>2019-08-08T10:11:20.000Z</time>
      </trkpt>
      <trkpt lat="42.94494" lon="0.81373">
        <ele>671</ele>
        <time>2019-08-08T10:11:21.000Z</time>
      </trkpt>
      <trkpt lat="42.94508" lon="0.81372">
        <ele>670</ele>
        <time>2019-08-08T10:11:22.000Z</time>
      </trkpt>
      <trkpt lat="42.94512" lon="0.8137">
        <ele>670</ele>
        <time>2019-08-08T10:11:23.000Z</time>
      </trkpt>
      <trkpt lat="42.94526" lon="0.81364">
        <ele>669</ele>
        <time>2019-08-08T10:11:24.000Z</time>
      </trkpt>
      <trkpt lat="42.94531" lon="0.81363">
        <ele>669</ele>
        <time>2019-08-08T10:11:25.000Z</time>
      </trkpt>
      <trkpt lat="42.9454" lon="0.8136">
        <ele>669</ele>
        <time>2019-08-08T10:11:26.000Z</time>
      </trkpt>
      <trkpt lat="42.94554" lon="0.81355">
        <ele>669</ele>
        <time>2019-08-08T10:11:27.000Z</time>
      </trkpt>
      <trkpt lat="42.94559" lon="0.81353">
        <ele>669</ele>
        <time>2019-08-08T10:11:28.000Z</time>
      </trkpt>
      <trkpt lat="42.94568" lon="0.81349">
        <ele>669</ele>
        <time>2019-08-08T10:11:29.000Z</time>
      </trkpt>
      <trkpt lat="42.94578" lon="0.81346">
        <ele>666</ele>
        <time>2019-08-08T10:11:30.000Z</time>
      </trkpt>
      <trkpt lat="42.94588" lon="0.81342">
        <ele>666</ele>
        <time>2019-08-08T10:11:31.000Z</time>
      </trkpt>
      <trkpt lat="42.94598" lon="0.81341">
        <ele>665</ele>
        <time>2019-08-08T10:11:32.000Z</time>
      </trkpt>
      <trkpt lat="42.94608" lon="0.8134">
        <ele>665</ele>
        <time>2019-08-08T10:11:33.000Z</time>
      </trkpt>
      <trkpt lat="42.94619" lon="0.81347">
        <ele>663</ele>
        <time>2019-08-08T10:11:34.000Z</time>
      </trkpt>
      <trkpt lat="42.94627" lon="0.81358">
        <ele>663</ele>
        <time>2019-08-08T10:11:35.000Z</time>
      </trkpt>
      <trkpt lat="42.94634" lon="0.81371">
        <ele>662</ele>
        <time>2019-08-08T10:11:36.000Z</time>
      </trkpt>
      <trkpt lat="42.9464" lon="0.81383">
        <ele>662</ele>
        <time>2019-08-08T10:11:37.000Z</time>
      </trkpt>
      <trkpt lat="42.94645" lon="0.81396">
        <ele>662</ele>
        <time>2019-08-08T10:11:38.000Z</time>
      </trkpt>
      <trkpt lat="42.9465" lon="0.81409">
        <ele>662</ele>
        <time>2019-08-08T10:11:39.000Z</time>
      </trkpt>
      <trkpt lat="42.94659" lon="0.81424">
        <ele>662</ele>
        <time>2019-08-08T10:11:40.000Z</time>
      </trkpt>
      <trkpt lat="42.94662" lon="0.81427">
        <ele>662</ele>
        <time>2019-08-08T10:11:41.000Z</time>
      </trkpt>
      <trkpt lat="42.94674" lon="0.81432">
        <ele>662</ele>
        <time>2019-08-08T10:11:42.000Z</time>
      </trkpt>
      <trkpt lat="42.94679" lon="0.81431">
        <ele>662</ele>
        <time>2019-08-08T10:11:43.000Z</time>
      </trkpt>
      <trkpt lat="42.94692" lon="0.81428">
        <ele>661</ele>
        <time>2019-08-08T10:11:44.000Z</time>
      </trkpt>
      <trkpt lat="42.94696" lon="0.81426">
        <ele>661</ele>
        <time>2019-08-08T10:11:45.000Z</time>
      </trkpt>
      <trkpt lat="42.94709" lon="0.81423">
        <ele>659</ele>
        <time>2019-08-08T10:11:46.000Z</time>
      </trkpt>
      <trkpt lat="42.94714" lon="0.81425">
        <ele>659</ele>
        <time>2019-08-08T10:11:47.000Z</time>
      </trkpt>
      <trkpt lat="42.94724" lon="0.81428">
        <ele>659</ele>
        <time>2019-08-08T10:11:48.000Z</time>
      </trkpt>
      <trkpt lat="42.94734" lon="0.81438">
        <ele>658</ele>
        <time>2019-08-08T10:11:49.000Z</time>
      </trkpt>
      <trkpt lat="42.94744" lon="0.81445">
        <ele>658</ele>
        <time>2019-08-08T10:11:50.000Z</time>
      </trkpt>
      <trkpt lat="42.94754" lon="0.81452">
        <ele>656</ele>
        <time>2019-08-08T10:11:51.000Z</time>
      </trkpt>
      <trkpt lat="42.94762" lon="0.8146">
        <ele>656</ele>
        <time>2019-08-08T10:11:52.000Z</time>
      </trkpt>
      <trkpt lat="42.9477" lon="0.81468">
        <ele>655</ele>
        <time>2019-08-08T10:11:53.000Z</time>
      </trkpt>
      <trkpt lat="42.94778" lon="0.81476">
        <ele>655</ele>
        <time>2019-08-08T10:11:54.000Z</time>
      </trkpt>
      <trkpt lat="42.94785" lon="0.81485">
        <ele>654</ele>
        <time>2019-08-08T10:11:55.000Z</time>
      </trkpt>
      <trkpt lat="42.94793" lon="0.81495">
        <ele>654</ele>
        <time>2019-08-08T10:11:56.000Z</time>
      </trkpt>
      <trkpt lat="42.94799" lon="0.81506">
        <ele>653</ele>
        <time>2019-08-08T10:11:57.000Z</time>
      </trkpt>
      <trkpt lat="42.94806" lon="0.81517">
        <ele>653</ele>
        <time>2019-08-08T10:11:58.000Z</time>
      </trkpt>
      <trkpt lat="42.94813" lon="0.81528">
        <ele>652</ele>
        <time>2019-08-08T10:11:59.000Z</time>
      </trkpt>
      <trkpt lat="42.94819" lon="0.8154">
        <ele>652</ele>
        <time>2019-08-08T10:12:00.000Z</time>
      </trkpt>
      <trkpt lat="42.94824" lon="0.81553">
        <ele>650</ele>
        <time>2019-08-08T10:12:01.000Z</time>
      </trkpt>
      <trkpt lat="42.94828" lon="0.81566">
        <ele>650</ele>
        <time>2019-08-08T10:12:02.000Z</time>
      </trkpt>
      <trkpt lat="42.94832" lon="0.81579">
        <ele>649</ele>
        <time>2019-08-08T10:12:03.000Z</time>
      </trkpt>
      <trkpt lat="42.94837" lon="0.81592">
        <ele>649</ele>
        <time>2019-08-08T10:12:04.000Z</time>
      </trkpt>
      <trkpt lat="42.94842" lon="0.81605">
        <ele>648</ele>
        <time>2019-08-08T10:12:05.000Z</time>
      </trkpt>
      <trkpt lat="42.94847" lon="0.81616">
        <ele>648</ele>
        <time>2019-08-08T10:12:06.000Z</time>
      </trkpt>
      <trkpt lat="42.94856" lon="0.8163">
        <ele>648</ele>
        <time>2019-08-08T10:12:07.000Z</time>
      </trkpt>
      <trkpt lat="42.9486" lon="0.81633">
        <ele>648</ele>
        <time>2019-08-08T10:12:08.000Z</time>
      </trkpt>
      <trkpt lat="42.94871" lon="0.81642">
        <ele>648</ele>
        <time>2019-08-08T10:12:09.000Z</time>
      </trkpt>
      <trkpt lat="42.94875" lon="0.81643">
        <ele>647</ele>
        <time>2019-08-08T10:12:10.000Z</time>
      </trkpt>
      <trkpt lat="42.94887" lon="0.81648">
        <ele>647</ele>
        <time>2019-08-08T10:12:11.000Z</time>
      </trkpt>
      <trkpt lat="42.9489" lon="0.81649">
        <ele>647</ele>
        <time>2019-08-08T10:12:12.000Z</time>
      </trkpt>
      <trkpt lat="42.94899" lon="0.8165">
        <ele>647</ele>
        <time>2019-08-08T10:12:13.000Z</time>
      </trkpt>
      <trkpt lat="42.94901" lon="0.81648">
        <ele>649</ele>
        <time>2019-08-08T10:12:14.000Z</time>
      </trkpt>
      <trkpt lat="42.94905" lon="0.81643">
        <ele>649</ele>
        <time>2019-08-08T10:12:15.000Z</time>
      </trkpt>
      <trkpt lat="42.94905" lon="0.81643">
        <ele>650</ele>
        <time>2019-08-08T10:12:16.000Z</time>
      </trkpt>
      <trkpt lat="42.94913" lon="0.81636">
        <ele>650</ele>
        <time>2019-08-08T10:12:17.000Z</time>
      </trkpt>
      <trkpt lat="42.94913" lon="0.81636">
        <ele>652</ele>
        <time>2019-08-08T10:12:18.000Z</time>
      </trkpt>
      <trkpt lat="42.94913" lon="0.81636">
        <ele>652</ele>
        <time>2019-08-08T10:12:19.000Z</time>
      </trkpt>
      <trkpt lat="42.94921" lon="0.8163">
        <ele>653</ele>
        <time>2019-08-08T10:12:20.000Z</time>
      </trkpt>
      <trkpt lat="42.94921" lon="0.8163">
        <ele>653</ele>
        <time>2019-08-08T10:12:21.000Z</time>
      </trkpt>
      <trkpt lat="42.94921" lon="0.8163">
        <ele>653</ele>
        <time>2019-08-08T10:12:22.000Z</time>
      </trkpt>
      <trkpt lat="42.94921" lon="0.8163">
        <ele>653</ele>
        <time>2019-08-08T10:12:23.000Z</time>
      </trkpt>
      <trkpt lat="42.9493" lon="0.81624">
        <ele>654</ele>
        <time>2019-08-08T10:12:24.000Z</time>
      </trkpt>
      <trkpt lat="42.9493" lon="0.81624">
        <ele>654</ele>
        <time>2019-08-08T10:12:25.000Z</time>
      </trkpt>
      <trkpt lat="42.9493" lon="0.81624">
        <ele>654</ele>
        <time>2019-08-08T10:12:26.000Z</time>
      </trkpt>
      <trkpt lat="42.9493" lon="0.81624">
        <ele>654</ele>
        <time>2019-08-08T10:12:27.000Z</time>
      </trkpt>
      <trkpt lat="42.9493" lon="0.81624">
        <ele>654</ele>
        <time>2019-08-08T10:12:28.000Z</time>
      </trkpt>
      <trkpt lat="42.94938" lon="0.81614">
        <ele>654</ele>
        <time>2019-08-08T10:12:29.000Z</time>
      </trkpt>
      <trkpt lat="42.94939" lon="0.81614">
        <ele>654</ele>
        <time>2019-08-08T10:12:30.000Z</time>
      </trkpt>
      <trkpt lat="42.9494" lon="0.81613">
        <ele>656</ele>
        <time>2019-08-08T10:12:31.000Z</time>
      </trkpt>
      <trkpt lat="42.94941" lon="0.81613">
        <ele>656</ele>
        <time>2019-08-08T10:12:32.000Z</time>
      </trkpt>
      <trkpt lat="42.94942" lon="0.81613">
        <ele>656</ele>
        <time>2019-08-08T10:12:33.000Z</time>
      </trkpt>
      <trkpt lat="42.94947" lon="0.81612">
        <ele>656</ele>
        <time>2019-08-08T10:12:34.000Z</time>
      </trkpt>
      <trkpt lat="42.94947" lon="0.81612">
        <ele>656</ele>
        <time>2019-08-08T10:12:35.000Z</time>
      </trkpt>
      <trkpt lat="42.94947" lon="0.81612">
        <ele>657</ele>
        <time>2019-08-08T10:12:36.000Z</time>
      </trkpt>
      <trkpt lat="42.94947" lon="0.81612">
        <ele>657</ele>
        <time>2019-08-08T10:12:37.000Z</time>
      </trkpt>
      <trkpt lat="42.94957" lon="0.81612">
        <ele>658</ele>
        <time>2019-08-08T10:12:38.000Z</time>
      </trkpt>
      <trkpt lat="42.94957" lon="0.81612">
        <ele>658</ele>
        <time>2019-08-08T10:12:39.000Z</time>
      </trkpt>
      <trkpt lat="42.94957" lon="0.81612">
        <ele>658</ele>
        <time>2019-08-08T10:12:40.000Z</time>
      </trkpt>
      <trkpt lat="42.94957" lon="0.81612">
        <ele>658</ele>
        <time>2019-08-08T10:12:41.000Z</time>
      </trkpt>
      <trkpt lat="42.94957" lon="0.81612">
        <ele>659</ele>
        <time>2019-08-08T10:12:42.000Z</time>
      </trkpt>
      <trkpt lat="42.94967" lon="0.81615">
        <ele>659</ele>
        <time>2019-08-08T10:12:43.000Z</time>
      </trkpt>
      <trkpt lat="42.94968" lon="0.81615">
        <ele>659</ele>
        <time>2019-08-08T10:12:44.000Z</time>
      </trkpt>
      <trkpt lat="42.94969" lon="0.81615">
        <ele>659</ele>
        <time>2019-08-08T10:12:45.000Z</time>
      </trkpt>
      <trkpt lat="42.9497" lon="0.81616">
        <ele>660</ele>
        <time>2019-08-08T10:12:46.000Z</time>
      </trkpt>
      <trkpt lat="42.94971" lon="0.81616">
        <ele>660</ele>
        <time>2019-08-08T10:12:47.000Z</time>
      </trkpt>
      <trkpt lat="42.94977" lon="0.81617">
        <ele>661</ele>
        <time>2019-08-08T10:12:48.000Z</time>
      </trkpt>
      <trkpt lat="42.94977" lon="0.81617">
        <ele>661</ele>
        <time>2019-08-08T10:12:49.000Z</time>
      </trkpt>
      <trkpt lat="42.94977" lon="0.81617">
        <ele>661</ele>
        <time>2019-08-08T10:12:50.000Z</time>
      </trkpt>
      <trkpt lat="42.94985" lon="0.81622">
        <ele>661</ele>
        <time>2019-08-08T10:12:51.000Z</time>
      </trkpt>
      <trkpt lat="42.94985" lon="0.81622">
        <ele>662</ele>
        <time>2019-08-08T10:12:52.000Z</time>
      </trkpt>
      <trkpt lat="42.94985" lon="0.81622">
        <ele>662</ele>
        <time>2019-08-08T10:12:53.000Z</time>
      </trkpt>
      <trkpt lat="42.94985" lon="0.81622">
        <ele>662</ele>
        <time>2019-08-08T10:12:54.000Z</time>
      </trkpt>
      <trkpt lat="42.94996" lon="0.81628">
        <ele>662</ele>
        <time>2019-08-08T10:12:55.000Z</time>
      </trkpt>
      <trkpt lat="42.94997" lon="0.81629">
        <ele>662</ele>
        <time>2019-08-08T10:12:56.000Z</time>
      </trkpt>
      <trkpt lat="42.94998" lon="0.8163">
        <ele>662</ele>
        <time>2019-08-08T10:12:57.000Z</time>
      </trkpt>
      <trkpt lat="42.94999" lon="0.81631">
        <ele>663</ele>
        <time>2019-08-08T10:12:58.000Z</time>
      </trkpt>
      <trkpt lat="42.95005" lon="0.81637">
        <ele>663</ele>
        <time>2019-08-08T10:12:59.000Z</time>
      </trkpt>
      <trkpt lat="42.95007" lon="0.81638">
        <ele>664</ele>
        <time>2019-08-08T10:13:00.000Z</time>
      </trkpt>
      <trkpt lat="42.95008" lon="0.81639">
        <ele>664</ele>
        <time>2019-08-08T10:13:01.000Z</time>
      </trkpt>
      <trkpt lat="42.95012" lon="0.81644">
        <ele>664</ele>
        <time>2019-08-08T10:13:02.000Z</time>
      </trkpt>
      <trkpt lat="42.95015" lon="0.81646">
        <ele>664</ele>
        <time>2019-08-08T10:13:03.000Z</time>
      </trkpt>
      <trkpt lat="42.95017" lon="0.81648">
        <ele>666</ele>
        <time>2019-08-08T10:13:04.000Z</time>
      </trkpt>
      <trkpt lat="42.95018" lon="0.8165">
        <ele>666</ele>
        <time>2019-08-08T10:13:05.000Z</time>
      </trkpt>
      <trkpt lat="42.95019" lon="0.81653">
        <ele>666</ele>
        <time>2019-08-08T10:13:06.000Z</time>
      </trkpt>
      <trkpt lat="42.9502" lon="0.81656">
        <ele>667</ele>
        <time>2019-08-08T10:13:07.000Z</time>
      </trkpt>
      <trkpt lat="42.95021" lon="0.81659">
        <ele>667</ele>
        <time>2019-08-08T10:13:08.000Z</time>
      </trkpt>
      <trkpt lat="42.95022" lon="0.81662">
        <ele>667</ele>
        <time>2019-08-08T10:13:09.000Z</time>
      </trkpt>
      <trkpt lat="42.95022" lon="0.81665">
        <ele>667</ele>
        <time>2019-08-08T10:13:10.000Z</time>
      </trkpt>
      <trkpt lat="42.95022" lon="0.81668">
        <ele>667</ele>
        <time>2019-08-08T10:13:11.000Z</time>
      </trkpt>
      <trkpt lat="42.95023" lon="0.81671">
        <ele>668</ele>
        <time>2019-08-08T10:13:12.000Z</time>
      </trkpt>
      <trkpt lat="42.95024" lon="0.81674">
        <ele>668</ele>
        <time>2019-08-08T10:13:13.000Z</time>
      </trkpt>
      <trkpt lat="42.95024" lon="0.81677">
        <ele>668</ele>
        <time>2019-08-08T10:13:14.000Z</time>
      </trkpt>
      <trkpt lat="42.95025" lon="0.8168">
        <ele>668</ele>
        <time>2019-08-08T10:13:15.000Z</time>
      </trkpt>
      <trkpt lat="42.95025" lon="0.81683">
        <ele>668</ele>
        <time>2019-08-08T10:13:16.000Z</time>
      </trkpt>
      <trkpt lat="42.95026" lon="0.81686">
        <ele>668</ele>
        <time>2019-08-08T10:13:17.000Z</time>
      </trkpt>
      <trkpt lat="42.95027" lon="0.81689">
        <ele>669</ele>
        <time>2019-08-08T10:13:18.000Z</time>
      </trkpt>
      <trkpt lat="42.95028" lon="0.81691">
        <ele>670</ele>
        <time>2019-08-08T10:13:19.000Z</time>
      </trkpt>
      <trkpt lat="42.95029" lon="0.81694">
        <ele>670</ele>
        <time>2019-08-08T10:13:20.000Z</time>
      </trkpt>
      <trkpt lat="42.95029" lon="0.81697">
        <ele>670</ele>
        <time>2019-08-08T10:13:21.000Z</time>
      </trkpt>
      <trkpt lat="42.9503" lon="0.81699">
        <ele>670</ele>
        <time>2019-08-08T10:13:22.000Z</time>
      </trkpt>
      <trkpt lat="42.95031" lon="0.81702">
        <ele>670</ele>
        <time>2019-08-08T10:13:23.000Z</time>
      </trkpt>
      <trkpt lat="42.95032" lon="0.81705">
        <ele>671</ele>
        <time>2019-08-08T10:13:24.000Z</time>
      </trkpt>
      <trkpt lat="42.95033" lon="0.81708">
        <ele>671</ele>
        <time>2019-08-08T10:13:25.000Z</time>
      </trkpt>
      <trkpt lat="42.95034" lon="0.81711">
        <ele>671</ele>
        <time>2019-08-08T10:13:26.000Z</time>
      </trkpt>
      <trkpt lat="42.95034" lon="0.81713">
        <ele>671</ele>
        <time>2019-08-08T10:13:27.000Z</time>
      </trkpt>
      <trkpt lat="42.95035" lon="0.81716">
        <ele>671</ele>
        <time>2019-08-08T10:13:28.000Z</time>
      </trkpt>
      <trkpt lat="42.95035" lon="0.81719">
        <ele>671</ele>
        <time>2019-08-08T10:13:29.000Z</time>
      </trkpt>
      <trkpt lat="42.95035" lon="0.81722">
        <ele>671</ele>
        <time>2019-08-08T10:13:30.000Z</time>
      </trkpt>
      <trkpt lat="42.95035" lon="0.81724">
        <ele>671</ele>
        <time>2019-08-08T10:13:31.000Z</time>
      </trkpt>
      <trkpt lat="42.95036" lon="0.81727">
        <ele>672</ele>
        <time>2019-08-08T10:13:32.000Z</time>
      </trkpt>
      <trkpt lat="42.95037" lon="0.8173">
        <ele>672</ele>
        <time>2019-08-08T10:13:33.000Z</time>
      </trkpt>
      <trkpt lat="42.95038" lon="0.81732">
        <ele>673</ele>
        <time>2019-08-08T10:13:34.000Z</time>
      </trkpt>
      <trkpt lat="42.95039" lon="0.81734">
        <ele>674</ele>
        <time>2019-08-08T10:13:35.000Z</time>
      </trkpt>
      <trkpt lat="42.9504" lon="0.81737">
        <ele>674</ele>
        <time>2019-08-08T10:13:36.000Z</time>
      </trkpt>
      <trkpt lat="42.9504" lon="0.81739">
        <ele>674</ele>
        <time>2019-08-08T10:13:37.000Z</time>
      </trkpt>
      <trkpt lat="42.95041" lon="0.81742">
        <ele>674</ele>
        <time>2019-08-08T10:13:38.000Z</time>
      </trkpt>
      <trkpt lat="42.95042" lon="0.81744">
        <ele>675</ele>
        <time>2019-08-08T10:13:39.000Z</time>
      </trkpt>
      <trkpt lat="42.95042" lon="0.81746">
        <ele>675</ele>
        <time>2019-08-08T10:13:40.000Z</time>
      </trkpt>
      <trkpt lat="42.95043" lon="0.81749">
        <ele>676</ele>
        <time>2019-08-08T10:13:41.000Z</time>
      </trkpt>
      <trkpt lat="42.95043" lon="0.81752">
        <ele>676</ele>
        <time>2019-08-08T10:13:42.000Z</time>
      </trkpt>
      <trkpt lat="42.95044" lon="0.81755">
        <ele>676</ele>
        <time>2019-08-08T10:13:43.000Z</time>
      </trkpt>
      <trkpt lat="42.95045" lon="0.81757">
        <ele>676</ele>
        <time>2019-08-08T10:13:44.000Z</time>
      </trkpt>
      <trkpt lat="42.95046" lon="0.81759">
        <ele>676</ele>
        <time>2019-08-08T10:13:45.000Z</time>
      </trkpt>
      <trkpt lat="42.95046" lon="0.81761">
        <ele>676</ele>
        <time>2019-08-08T10:13:46.000Z</time>
      </trkpt>
      <trkpt lat="42.95047" lon="0.81764">
        <ele>677</ele>
        <time>2019-08-08T10:13:47.000Z</time>
      </trkpt>
      <trkpt lat="42.95048" lon="0.81767">
        <ele>677</ele>
        <time>2019-08-08T10:13:48.000Z</time>
      </trkpt>
      <trkpt lat="42.95048" lon="0.81769">
        <ele>679</ele>
        <time>2019-08-08T10:13:49.000Z</time>
      </trkpt>
      <trkpt lat="42.95049" lon="0.81772">
        <ele>679</ele>
        <time>2019-08-08T10:13:50.000Z</time>
      </trkpt>
      <trkpt lat="42.95049" lon="0.81775">
        <ele>679</ele>
        <time>2019-08-08T10:13:51.000Z</time>
      </trkpt>
      <trkpt lat="42.9505" lon="0.81778">
        <ele>679</ele>
        <time>2019-08-08T10:13:52.000Z</time>
      </trkpt>
      <trkpt lat="42.95051" lon="0.81781">
        <ele>679</ele>
        <time>2019-08-08T10:13:53.000Z</time>
      </trkpt>
      <trkpt lat="42.95052" lon="0.81783">
        <ele>679</ele>
        <time>2019-08-08T10:13:54.000Z</time>
      </trkpt>
      <trkpt lat="42.95053" lon="0.81785">
        <ele>680</ele>
        <time>2019-08-08T10:13:55.000Z</time>
      </trkpt>
      <trkpt lat="42.95053" lon="0.81788">
        <ele>680</ele>
        <time>2019-08-08T10:13:56.000Z</time>
      </trkpt>
      <trkpt lat="42.95054" lon="0.8179">
        <ele>680</ele>
        <time>2019-08-08T10:13:57.000Z</time>
      </trkpt>
      <trkpt lat="42.95055" lon="0.81793">
        <ele>680</ele>
        <time>2019-08-08T10:13:58.000Z</time>
      </trkpt>
      <trkpt lat="42.95056" lon="0.81796">
        <ele>680</ele>
        <time>2019-08-08T10:13:59.000Z</time>
      </trkpt>
      <trkpt lat="42.95056" lon="0.81798">
        <ele>681</ele>
        <time>2019-08-08T10:14:00.000Z</time>
      </trkpt>
      <trkpt lat="42.95057" lon="0.818">
        <ele>681</ele>
        <time>2019-08-08T10:14:01.000Z</time>
      </trkpt>
      <trkpt lat="42.95058" lon="0.81803">
        <ele>682</ele>
        <time>2019-08-08T10:14:02.000Z</time>
      </trkpt>
      <trkpt lat="42.95058" lon="0.81806">
        <ele>683</ele>
        <time>2019-08-08T10:14:03.000Z</time>
      </trkpt>
      <trkpt lat="42.95059" lon="0.81808">
        <ele>683</ele>
        <time>2019-08-08T10:14:04.000Z</time>
      </trkpt>
      <trkpt lat="42.95059" lon="0.81811">
        <ele>683</ele>
        <time>2019-08-08T10:14:05.000Z</time>
      </trkpt>
      <trkpt lat="42.9506" lon="0.81813">
        <ele>684</ele>
        <time>2019-08-08T10:14:06.000Z</time>
      </trkpt>
      <trkpt lat="42.9506" lon="0.81816">
        <ele>684</ele>
        <time>2019-08-08T10:14:07.000Z</time>
      </trkpt>
      <trkpt lat="42.9506" lon="0.81819">
        <ele>685</ele>
        <time>2019-08-08T10:14:08.000Z</time>
      </trkpt>
      <trkpt lat="42.9506" lon="0.81821">
        <ele>685</ele>
        <time>2019-08-08T10:14:09.000Z</time>
      </trkpt>
      <trkpt lat="42.95058" lon="0.81824">
        <ele>685</ele>
        <time>2019-08-08T10:14:10.000Z</time>
      </trkpt>
      <trkpt lat="42.95058" lon="0.81826">
        <ele>685</ele>
        <time>2019-08-08T10:14:11.000Z</time>
      </trkpt>
      <trkpt lat="42.95056" lon="0.81829">
        <ele>685</ele>
        <time>2019-08-08T10:14:12.000Z</time>
      </trkpt>
      <trkpt lat="42.95054" lon="0.81831">
        <ele>685</ele>
        <time>2019-08-08T10:14:13.000Z</time>
      </trkpt>
      <trkpt lat="42.95052" lon="0.81833">
        <ele>685</ele>
        <time>2019-08-08T10:14:14.000Z</time>
      </trkpt>
      <trkpt lat="42.95051" lon="0.81835">
        <ele>685</ele>
        <time>2019-08-08T10:14:15.000Z</time>
      </trkpt>
      <trkpt lat="42.95049" lon="0.81837">
        <ele>686</ele>
        <time>2019-08-08T10:14:16.000Z</time>
      </trkpt>
      <trkpt lat="42.95047" lon="0.81838">
        <ele>686</ele>
        <time>2019-08-08T10:14:17.000Z</time>
      </trkpt>
      <trkpt lat="42.95045" lon="0.8184">
        <ele>686</ele>
        <time>2019-08-08T10:14:18.000Z</time>
      </trkpt>
      <trkpt lat="42.95043" lon="0.81841">
        <ele>686</ele>
        <time>2019-08-08T10:14:19.000Z</time>
      </trkpt>
      <trkpt lat="42.95041" lon="0.81842">
        <ele>687</ele>
        <time>2019-08-08T10:14:20.000Z</time>
      </trkpt>
      <trkpt lat="42.95039" lon="0.81843">
        <ele>687</ele>
        <time>2019-08-08T10:14:21.000Z</time>
      </trkpt>
      <trkpt lat="42.95037" lon="0.81844">
        <ele>688</ele>
        <time>2019-08-08T10:14:22.000Z</time>
      </trkpt>
      <trkpt lat="42.95036" lon="0.81845">
        <ele>688</ele>
        <time>2019-08-08T10:14:23.000Z</time>
      </trkpt>
      <trkpt lat="42.95034" lon="0.81846">
        <ele>688</ele>
        <time>2019-08-08T10:14:24.000Z</time>
      </trkpt>
      <trkpt lat="42.95032" lon="0.81848">
        <ele>688</ele>
        <time>2019-08-08T10:14:25.000Z</time>
      </trkpt>
      <trkpt lat="42.9503" lon="0.81849">
        <ele>688</ele>
        <time>2019-08-08T10:14:26.000Z</time>
      </trkpt>
      <trkpt lat="42.95028" lon="0.8185">
        <ele>689</ele>
        <time>2019-08-08T10:14:27.000Z</time>
      </trkpt>
      <trkpt lat="42.95026" lon="0.81852">
        <ele>689</ele>
        <time>2019-08-08T10:14:28.000Z</time>
      </trkpt>
      <trkpt lat="42.95024" lon="0.81853">
        <ele>689</ele>
        <time>2019-08-08T10:14:29.000Z</time>
      </trkpt>
      <trkpt lat="42.95022" lon="0.81854">
        <ele>689</ele>
        <time>2019-08-08T10:14:30.000Z</time>
      </trkpt>
      <trkpt lat="42.9502" lon="0.81856">
        <ele>689</ele>
        <time>2019-08-08T10:14:31.000Z</time>
      </trkpt>
      <trkpt lat="42.95018" lon="0.81857">
        <ele>689</ele>
        <time>2019-08-08T10:14:32.000Z</time>
      </trkpt>
      <trkpt lat="42.95016" lon="0.81857">
        <ele>689</ele>
        <time>2019-08-08T10:14:33.000Z</time>
      </trkpt>
      <trkpt lat="42.95014" lon="0.81857">
        <ele>690</ele>
        <time>2019-08-08T10:14:34.000Z</time>
      </trkpt>
      <trkpt lat="42.95012" lon="0.81857">
        <ele>690</ele>
        <time>2019-08-08T10:14:35.000Z</time>
      </trkpt>
      <trkpt lat="42.95009" lon="0.81858">
        <ele>690</ele>
        <time>2019-08-08T10:14:36.000Z</time>
      </trkpt>
      <trkpt lat="42.95007" lon="0.81859">
        <ele>690</ele>
        <time>2019-08-08T10:14:37.000Z</time>
      </trkpt>
      <trkpt lat="42.95005" lon="0.8186">
        <ele>691</ele>
        <time>2019-08-08T10:14:38.000Z</time>
      </trkpt>
      <trkpt lat="42.95003" lon="0.81862">
        <ele>691</ele>
        <time>2019-08-08T10:14:39.000Z</time>
      </trkpt>
      <trkpt lat="42.95001" lon="0.81863">
        <ele>692</ele>
        <time>2019-08-08T10:14:40.000Z</time>
      </trkpt>
      <trkpt lat="42.94999" lon="0.81864">
        <ele>692</ele>
        <time>2019-08-08T10:14:41.000Z</time>
      </trkpt>
      <trkpt lat="42.94997" lon="0.81865">
        <ele>692</ele>
        <time>2019-08-08T10:14:42.000Z</time>
      </trkpt>
      <trkpt lat="42.94995" lon="0.81866">
        <ele>692</ele>
        <time>2019-08-08T10:14:43.000Z</time>
      </trkpt>
      <trkpt lat="42.94993" lon="0.81867">
        <ele>693</ele>
        <time>2019-08-08T10:14:44.000Z</time>
      </trkpt>
      <trkpt lat="42.94991" lon="0.81869">
        <ele>693</ele>
        <time>2019-08-08T10:14:45.000Z</time>
      </trkpt>
      <trkpt lat="42.94989" lon="0.8187">
        <ele>694</ele>
        <time>2019-08-08T10:14:46.000Z</time>
      </trkpt>
      <trkpt lat="42.94987" lon="0.81871">
        <ele>694</ele>
        <time>2019-08-08T10:14:47.000Z</time>
      </trkpt>
      <trkpt lat="42.94984" lon="0.81872">
        <ele>694</ele>
        <time>2019-08-08T10:14:48.000Z</time>
      </trkpt>
      <trkpt lat="42.94982" lon="0.81872">
        <ele>694</ele>
        <time>2019-08-08T10:14:49.000Z</time>
      </trkpt>
      <trkpt lat="42.9498" lon="0.81872">
        <ele>695</ele>
        <time>2019-08-08T10:14:50.000Z</time>
      </trkpt>
      <trkpt lat="42.94978" lon="0.81872">
        <ele>695</ele>
        <time>2019-08-08T10:14:51.000Z</time>
      </trkpt>
      <trkpt lat="42.94976" lon="0.81872">
        <ele>695</ele>
        <time>2019-08-08T10:14:52.000Z</time>
      </trkpt>
      <trkpt lat="42.94973" lon="0.81872">
        <ele>695</ele>
        <time>2019-08-08T10:14:53.000Z</time>
      </trkpt>
      <trkpt lat="42.94971" lon="0.81872">
        <ele>696</ele>
        <time>2019-08-08T10:14:54.000Z</time>
      </trkpt>
      <trkpt lat="42.94969" lon="0.81872">
        <ele>695</ele>
        <time>2019-08-08T10:14:55.000Z</time>
      </trkpt>
      <trkpt lat="42.94967" lon="0.81872">
        <ele>696</ele>
        <time>2019-08-08T10:14:56.000Z</time>
      </trkpt>
      <trkpt lat="42.94965" lon="0.81871">
        <ele>696</ele>
        <time>2019-08-08T10:14:57.000Z</time>
      </trkpt>
      <trkpt lat="42.94963" lon="0.81871">
        <ele>696</ele>
        <time>2019-08-08T10:14:58.000Z</time>
      </trkpt>
      <trkpt lat="42.94961" lon="0.81871">
        <ele>696</ele>
        <time>2019-08-08T10:14:59.000Z</time>
      </trkpt>
      <trkpt lat="42.94958" lon="0.81871">
        <ele>696</ele>
        <time>2019-08-08T10:15:00.000Z</time>
      </trkpt>
      <trkpt lat="42.94956" lon="0.81871">
        <ele>696</ele>
        <time>2019-08-08T10:15:01.000Z</time>
      </trkpt>
      <trkpt lat="42.94954" lon="0.81872">
        <ele>696</ele>
        <time>2019-08-08T10:15:02.000Z</time>
      </trkpt>
      <trkpt lat="42.94952" lon="0.81872">
        <ele>696</ele>
        <time>2019-08-08T10:15:03.000Z</time>
      </trkpt>
      <trkpt lat="42.9495" lon="0.81872">
        <ele>696</ele>
        <time>2019-08-08T10:15:04.000Z</time>
      </trkpt>
      <trkpt lat="42.94948" lon="0.81872">
        <ele>696</ele>
        <time>2019-08-08T10:15:05.000Z</time>
      </trkpt>
      <trkpt lat="42.94946" lon="0.81872">
        <ele>697</ele>
        <time>2019-08-08T10:15:06.000Z</time>
      </trkpt>
      <trkpt lat="42.94943" lon="0.81871">
        <ele>697</ele>
        <time>2019-08-08T10:15:07.000Z</time>
      </trkpt>
      <trkpt lat="42.94941" lon="0.81871">
        <ele>696</ele>
        <time>2019-08-08T10:15:08.000Z</time>
      </trkpt>
      <trkpt lat="42.94939" lon="0.81871">
        <ele>696</ele>
        <time>2019-08-08T10:15:09.000Z</time>
      </trkpt>
      <trkpt lat="42.94937" lon="0.81871">
        <ele>697</ele>
        <time>2019-08-08T10:15:10.000Z</time>
      </trkpt>
      <trkpt lat="42.94935" lon="0.81871">
        <ele>697</ele>
        <time>2019-08-08T10:15:11.000Z</time>
      </trkpt>
      <trkpt lat="42.94933" lon="0.81872">
        <ele>697</ele>
        <time>2019-08-08T10:15:12.000Z</time>
      </trkpt>
      <trkpt lat="42.94931" lon="0.81873">
        <ele>697</ele>
        <time>2019-08-08T10:15:13.000Z</time>
      </trkpt>
      <trkpt lat="42.94929" lon="0.81874">
        <ele>697</ele>
        <time>2019-08-08T10:15:14.000Z</time>
      </trkpt>
      <trkpt lat="42.94927" lon="0.81876">
        <ele>697</ele>
        <time>2019-08-08T10:15:15.000Z</time>
      </trkpt>
      <trkpt lat="42.94926" lon="0.81877">
        <ele>696</ele>
        <time>2019-08-08T10:15:16.000Z</time>
      </trkpt>
      <trkpt lat="42.94924" lon="0.81878">
        <ele>698</ele>
        <time>2019-08-08T10:15:17.000Z</time>
      </trkpt>
      <trkpt lat="42.94924" lon="0.81878">
        <ele>698</ele>
        <time>2019-08-08T10:15:18.000Z</time>
      </trkpt>
      <trkpt lat="42.94921" lon="0.8188">
        <ele>699</ele>
        <time>2019-08-08T10:15:19.000Z</time>
      </trkpt>
      <trkpt lat="42.94919" lon="0.81881">
        <ele>699</ele>
        <time>2019-08-08T10:15:20.000Z</time>
      </trkpt>
      <trkpt lat="42.94917" lon="0.81883">
        <ele>698</ele>
        <time>2019-08-08T10:15:21.000Z</time>
      </trkpt>
      <trkpt lat="42.94915" lon="0.81884">
        <ele>698</ele>
        <time>2019-08-08T10:15:22.000Z</time>
      </trkpt>
      <trkpt lat="42.94913" lon="0.81885">
        <ele>699</ele>
        <time>2019-08-08T10:15:23.000Z</time>
      </trkpt>
      <trkpt lat="42.94913" lon="0.81885">
        <ele>699</ele>
        <time>2019-08-08T10:15:24.000Z</time>
      </trkpt>
      <trkpt lat="42.9491" lon="0.81887">
        <ele>699</ele>
        <time>2019-08-08T10:15:25.000Z</time>
      </trkpt>
      <trkpt lat="42.94908" lon="0.81889">
        <ele>699</ele>
        <time>2019-08-08T10:15:26.000Z</time>
      </trkpt>
      <trkpt lat="42.94907" lon="0.81891">
        <ele>699</ele>
        <time>2019-08-08T10:15:27.000Z</time>
      </trkpt>
      <trkpt lat="42.94905" lon="0.81893">
        <ele>699</ele>
        <time>2019-08-08T10:15:28.000Z</time>
      </trkpt>
      <trkpt lat="42.94903" lon="0.81894">
        <ele>699</ele>
        <time>2019-08-08T10:15:29.000Z</time>
      </trkpt>
      <trkpt lat="42.94902" lon="0.81896">
        <ele>700</ele>
        <time>2019-08-08T10:15:30.000Z</time>
      </trkpt>
      <trkpt lat="42.949" lon="0.81897">
        <ele>700</ele>
        <time>2019-08-08T10:15:31.000Z</time>
      </trkpt>
      <trkpt lat="42.94898" lon="0.81898">
        <ele>701</ele>
        <time>2019-08-08T10:15:32.000Z</time>
      </trkpt>
      <trkpt lat="42.94896" lon="0.819">
        <ele>701</ele>
        <time>2019-08-08T10:15:33.000Z</time>
      </trkpt>
      <trkpt lat="42.94894" lon="0.81901">
        <ele>700</ele>
        <time>2019-08-08T10:15:34.000Z</time>
      </trkpt>
      <trkpt lat="42.94892" lon="0.81902">
        <ele>700</ele>
        <time>2019-08-08T10:15:35.000Z</time>
      </trkpt>
      <trkpt lat="42.9489" lon="0.81903">
        <ele>700</ele>
        <time>2019-08-08T10:15:36.000Z</time>
      </trkpt>
      <trkpt lat="42.94888" lon="0.81904">
        <ele>700</ele>
        <time>2019-08-08T10:15:37.000Z</time>
      </trkpt>
      <trkpt lat="42.94886" lon="0.81905">
        <ele>701</ele>
        <time>2019-08-08T10:15:38.000Z</time>
      </trkpt>
      <trkpt lat="42.94885" lon="0.81906">
        <ele>701</ele>
        <time>2019-08-08T10:15:39.000Z</time>
      </trkpt>
      <trkpt lat="42.94885" lon="0.81906">
        <ele>701</ele>
        <time>2019-08-08T10:15:40.000Z</time>
      </trkpt>
      <trkpt lat="42.94883" lon="0.8191">
        <ele>700</ele>
        <time>2019-08-08T10:15:41.000Z</time>
      </trkpt>
      <trkpt lat="42.94881" lon="0.81913">
        <ele>701</ele>
        <time>2019-08-08T10:15:42.000Z</time>
      </trkpt>
      <trkpt lat="42.9488" lon="0.81916">
        <ele>701</ele>
        <time>2019-08-08T10:15:43.000Z</time>
      </trkpt>
      <trkpt lat="42.94879" lon="0.81919">
        <ele>701</ele>
        <time>2019-08-08T10:15:44.000Z</time>
      </trkpt>
      <trkpt lat="42.94877" lon="0.81922">
        <ele>702</ele>
        <time>2019-08-08T10:15:45.000Z</time>
      </trkpt>
      <trkpt lat="42.94877" lon="0.81922">
        <ele>702</ele>
        <time>2019-08-08T10:15:46.000Z</time>
      </trkpt>
      <trkpt lat="42.94875" lon="0.81928">
        <ele>702</ele>
        <time>2019-08-08T10:15:47.000Z</time>
      </trkpt>
      <trkpt lat="42.94874" lon="0.81931">
        <ele>701</ele>
        <time>2019-08-08T10:15:48.000Z</time>
      </trkpt>
      <trkpt lat="42.94872" lon="0.81933">
        <ele>702</ele>
        <time>2019-08-08T10:15:49.000Z</time>
      </trkpt>
      <trkpt lat="42.9487" lon="0.81936">
        <ele>702</ele>
        <time>2019-08-08T10:15:50.000Z</time>
      </trkpt>
      <trkpt lat="42.94869" lon="0.81938">
        <ele>702</ele>
        <time>2019-08-08T10:15:51.000Z</time>
      </trkpt>
      <trkpt lat="42.94868" lon="0.81941">
        <ele>703</ele>
        <time>2019-08-08T10:15:52.000Z</time>
      </trkpt>
      <trkpt lat="42.94866" lon="0.81944">
        <ele>703</ele>
        <time>2019-08-08T10:15:53.000Z</time>
      </trkpt>
      <trkpt lat="42.94865" lon="0.81947">
        <ele>703</ele>
        <time>2019-08-08T10:15:54.000Z</time>
      </trkpt>
      <trkpt lat="42.94865" lon="0.8195">
        <ele>703</ele>
        <time>2019-08-08T10:15:55.000Z</time>
      </trkpt>
      <trkpt lat="42.94863" lon="0.81953">
        <ele>703</ele>
        <time>2019-08-08T10:15:56.000Z</time>
      </trkpt>
      <trkpt lat="42.94862" lon="0.81956">
        <ele>702</ele>
        <time>2019-08-08T10:15:57.000Z</time>
      </trkpt>
      <trkpt lat="42.94861" lon="0.81959">
        <ele>703</ele>
        <time>2019-08-08T10:15:58.000Z</time>
      </trkpt>
      <trkpt lat="42.9486" lon="0.81962">
        <ele>703</ele>
        <time>2019-08-08T10:15:59.000Z</time>
      </trkpt>
      <trkpt lat="42.9486" lon="0.81965">
        <ele>704</ele>
        <time>2019-08-08T10:16:00.000Z</time>
      </trkpt>
      <trkpt lat="42.94859" lon="0.81968">
        <ele>704</ele>
        <time>2019-08-08T10:16:01.000Z</time>
      </trkpt>
      <trkpt lat="42.94858" lon="0.81971">
        <ele>704</ele>
        <time>2019-08-08T10:16:02.000Z</time>
      </trkpt>
      <trkpt lat="42.94857" lon="0.81975">
        <ele>704</ele>
        <time>2019-08-08T10:16:03.000Z</time>
      </trkpt>
      <trkpt lat="42.94857" lon="0.81979">
        <ele>705</ele>
        <time>2019-08-08T10:16:04.000Z</time>
      </trkpt>
      <trkpt lat="42.94857" lon="0.81984">
        <ele>705</ele>
        <time>2019-08-08T10:16:05.000Z</time>
      </trkpt>
      <trkpt lat="42.94856" lon="0.81986">
        <ele>704</ele>
        <time>2019-08-08T10:16:06.000Z</time>
      </trkpt>
      <trkpt lat="42.94856" lon="0.8199">
        <ele>704</ele>
        <time>2019-08-08T10:16:07.000Z</time>
      </trkpt>
      <trkpt lat="42.94856" lon="0.81993">
        <ele>704</ele>
        <time>2019-08-08T10:16:08.000Z</time>
      </trkpt>
      <trkpt lat="42.94857" lon="0.81996">
        <ele>704</ele>
        <time>2019-08-08T10:16:09.000Z</time>
      </trkpt>
      <trkpt lat="42.94857" lon="0.81999">
        <ele>705</ele>
        <time>2019-08-08T10:16:10.000Z</time>
      </trkpt>
      <trkpt lat="42.94857" lon="0.82002">
        <ele>705</ele>
        <time>2019-08-08T10:16:11.000Z</time>
      </trkpt>
      <trkpt lat="42.94857" lon="0.82005">
        <ele>705</ele>
        <time>2019-08-08T10:16:12.000Z</time>
      </trkpt>
      <trkpt lat="42.94857" lon="0.82008">
        <ele>705</ele>
        <time>2019-08-08T10:16:13.000Z</time>
      </trkpt>
      <trkpt lat="42.94857" lon="0.82011">
        <ele>705</ele>
        <time>2019-08-08T10:16:14.000Z</time>
      </trkpt>
      <trkpt lat="42.94858" lon="0.82014">
        <ele>707</ele>
        <time>2019-08-08T10:16:15.000Z</time>
      </trkpt>
      <trkpt lat="42.94858" lon="0.82017">
        <ele>707</ele>
        <time>2019-08-08T10:16:16.000Z</time>
      </trkpt>
      <trkpt lat="42.94858" lon="0.8202">
        <ele>707</ele>
        <time>2019-08-08T10:16:17.000Z</time>
      </trkpt>
      <trkpt lat="42.94859" lon="0.82023">
        <ele>707</ele>
        <time>2019-08-08T10:16:18.000Z</time>
      </trkpt>
      <trkpt lat="42.94859" lon="0.82026">
        <ele>707</ele>
        <time>2019-08-08T10:16:19.000Z</time>
      </trkpt>
      <trkpt lat="42.94859" lon="0.82029">
        <ele>707</ele>
        <time>2019-08-08T10:16:20.000Z</time>
      </trkpt>
      <trkpt lat="42.94859" lon="0.82029">
        <ele>708</ele>
        <time>2019-08-08T10:16:21.000Z</time>
      </trkpt>
      <trkpt lat="42.94859" lon="0.82029">
        <ele>708</ele>
        <time>2019-08-08T10:16:22.000Z</time>
      </trkpt>
      <trkpt lat="42.94859" lon="0.82029">
        <ele>708</ele>
        <time>2019-08-08T10:16:23.000Z</time>
      </trkpt>
      <trkpt lat="42.94859" lon="0.82029">
        <ele>708</ele>
        <time>2019-08-08T10:16:24.000Z</time>
      </trkpt>
      <trkpt lat="42.9486" lon="0.82042">
        <ele>709</ele>
        <time>2019-08-08T10:16:25.000Z</time>
      </trkpt>
      <trkpt lat="42.9486" lon="0.82042">
        <ele>709</ele>
        <time>2019-08-08T10:16:26.000Z</time>
      </trkpt>
      <trkpt lat="42.9486" lon="0.82042">
        <ele>710</ele>
        <time>2019-08-08T10:16:27.000Z</time>
      </trkpt>
      <trkpt lat="42.9486" lon="0.82042">
        <ele>710</ele>
        <time>2019-08-08T10:16:28.000Z</time>
      </trkpt>
      <trkpt lat="42.9486" lon="0.82056">
        <ele>710</ele>
        <time>2019-08-08T10:16:29.000Z</time>
      </trkpt>
      <trkpt lat="42.9486" lon="0.8206">
        <ele>710</ele>
        <time>2019-08-08T10:16:30.000Z</time>
      </trkpt>
      <trkpt lat="42.9486" lon="0.82061">
        <ele>711</ele>
        <time>2019-08-08T10:16:31.000Z</time>
      </trkpt>
      <trkpt lat="42.9486" lon="0.82063">
        <ele>711</ele>
        <time>2019-08-08T10:16:32.000Z</time>
      </trkpt>
      <trkpt lat="42.9486" lon="0.82064">
        <ele>711</ele>
        <time>2019-08-08T10:16:33.000Z</time>
      </trkpt>
      <trkpt lat="42.9486" lon="0.82066">
        <ele>711</ele>
        <time>2019-08-08T10:16:34.000Z</time>
      </trkpt>
      <trkpt lat="42.94861" lon="0.82073">
        <ele>711</ele>
        <time>2019-08-08T10:16:35.000Z</time>
      </trkpt>
      <trkpt lat="42.94861" lon="0.82073">
        <ele>711</ele>
        <time>2019-08-08T10:16:36.000Z</time>
      </trkpt>
      <trkpt lat="42.94861" lon="0.82073">
        <ele>711</ele>
        <time>2019-08-08T10:16:37.000Z</time>
      </trkpt>
      <trkpt lat="42.94861" lon="0.82073">
        <ele>711</ele>
        <time>2019-08-08T10:16:38.000Z</time>
      </trkpt>
      <trkpt lat="42.94863" lon="0.82085">
        <ele>712</ele>
        <time>2019-08-08T10:16:39.000Z</time>
      </trkpt>
      <trkpt lat="42.94863" lon="0.82085">
        <ele>712</ele>
        <time>2019-08-08T10:16:40.000Z</time>
      </trkpt>
      <trkpt lat="42.94863" lon="0.82085">
        <ele>712</ele>
        <time>2019-08-08T10:16:41.000Z</time>
      </trkpt>
      <trkpt lat="42.94863" lon="0.82085">
        <ele>712</ele>
        <time>2019-08-08T10:16:42.000Z</time>
      </trkpt>
      <trkpt lat="42.94865" lon="0.82099">
        <ele>712</ele>
        <time>2019-08-08T10:16:43.000Z</time>
      </trkpt>
      <trkpt lat="42.94865" lon="0.82099">
        <ele>712</ele>
        <time>2019-08-08T10:16:44.000Z</time>
      </trkpt>
      <trkpt lat="42.94865" lon="0.82099">
        <ele>713</ele>
        <time>2019-08-08T10:16:45.000Z</time>
      </trkpt>
      <trkpt lat="42.94865" lon="0.82099">
        <ele>713</ele>
        <time>2019-08-08T10:16:46.000Z</time>
      </trkpt>
      <trkpt lat="42.94865" lon="0.82099">
        <ele>713</ele>
        <time>2019-08-08T10:16:47.000Z</time>
      </trkpt>
      <trkpt lat="42.94865" lon="0.82112">
        <ele>713</ele>
        <time>2019-08-08T10:16:48.000Z</time>
      </trkpt>
      <trkpt lat="42.94865" lon="0.82112">
        <ele>714</ele>
        <time>2019-08-08T10:16:49.000Z</time>
      </trkpt>
      <trkpt lat="42.94865" lon="0.82112">
        <ele>714</ele>
        <time>2019-08-08T10:16:50.000Z</time>
      </trkpt>
      <trkpt lat="42.94865" lon="0.82112">
        <ele>714</ele>
        <time>2019-08-08T10:16:51.000Z</time>
      </trkpt>
      <trkpt lat="42.94865" lon="0.82112">
        <ele>714</ele>
        <time>2019-08-08T10:16:52.000Z</time>
      </trkpt>
      <trkpt lat="42.94865" lon="0.82112">
        <ele>714</ele>
        <time>2019-08-08T10:16:53.000Z</time>
      </trkpt>
      <trkpt lat="42.94864" lon="0.82127">
        <ele>715</ele>
        <time>2019-08-08T10:16:54.000Z</time>
      </trkpt>
      <trkpt lat="42.94864" lon="0.82129">
        <ele>715</ele>
        <time>2019-08-08T10:16:55.000Z</time>
      </trkpt>
      <trkpt lat="42.94864" lon="0.8213">
        <ele>715</ele>
        <time>2019-08-08T10:16:56.000Z</time>
      </trkpt>
      <trkpt lat="42.94864" lon="0.82132">
        <ele>715</ele>
        <time>2019-08-08T10:16:57.000Z</time>
      </trkpt>
      <trkpt lat="42.94865" lon="0.82139">
        <ele>715</ele>
        <time>2019-08-08T10:16:58.000Z</time>
      </trkpt>
      <trkpt lat="42.94865" lon="0.82139">
        <ele>715</ele>
        <time>2019-08-08T10:16:59.000Z</time>
      </trkpt>
      <trkpt lat="42.94865" lon="0.82139">
        <ele>716</ele>
        <time>2019-08-08T10:17:00.000Z</time>
      </trkpt>
      <trkpt lat="42.94869" lon="0.82151">
        <ele>716</ele>
        <time>2019-08-08T10:17:01.000Z</time>
      </trkpt>
      <trkpt lat="42.94869" lon="0.82151">
        <ele>717</ele>
        <time>2019-08-08T10:17:02.000Z</time>
      </trkpt>
      <trkpt lat="42.94869" lon="0.82151">
        <ele>717</ele>
        <time>2019-08-08T10:17:03.000Z</time>
      </trkpt>
      <trkpt lat="42.94869" lon="0.82151">
        <ele>717</ele>
        <time>2019-08-08T10:17:04.000Z</time>
      </trkpt>
      <trkpt lat="42.9487" lon="0.82165">
        <ele>717</ele>
        <time>2019-08-08T10:17:05.000Z</time>
      </trkpt>
      <trkpt lat="42.9487" lon="0.82165">
        <ele>718</ele>
        <time>2019-08-08T10:17:06.000Z</time>
      </trkpt>
      <trkpt lat="42.9487" lon="0.82165">
        <ele>718</ele>
        <time>2019-08-08T10:17:07.000Z</time>
      </trkpt>
      <trkpt lat="42.94872" lon="0.82178">
        <ele>718</ele>
        <time>2019-08-08T10:17:08.000Z</time>
      </trkpt>
      <trkpt lat="42.94872" lon="0.82178">
        <ele>718</ele>
        <time>2019-08-08T10:17:09.000Z</time>
      </trkpt>
      <trkpt lat="42.94872" lon="0.82178">
        <ele>718</ele>
        <time>2019-08-08T10:17:10.000Z</time>
      </trkpt>
      <trkpt lat="42.94872" lon="0.82178">
        <ele>718</ele>
        <time>2019-08-08T10:17:11.000Z</time>
      </trkpt>
      <trkpt lat="42.94872" lon="0.82178">
        <ele>720</ele>
        <time>2019-08-08T10:17:12.000Z</time>
      </trkpt>
      <trkpt lat="42.94872" lon="0.82178">
        <ele>720</ele>
        <time>2019-08-08T10:17:13.000Z</time>
      </trkpt>
      <trkpt lat="42.94868" lon="0.82192">
        <ele>720</ele>
        <time>2019-08-08T10:17:14.000Z</time>
      </trkpt>
      <trkpt lat="42.94868" lon="0.82194">
        <ele>720</ele>
        <time>2019-08-08T10:17:15.000Z</time>
      </trkpt>
      <trkpt lat="42.94868" lon="0.82196">
        <ele>720</ele>
        <time>2019-08-08T10:17:16.000Z</time>
      </trkpt>
      <trkpt lat="42.94868" lon="0.82197">
        <ele>720</ele>
        <time>2019-08-08T10:17:17.000Z</time>
      </trkpt>
      <trkpt lat="42.94868" lon="0.82199">
        <ele>720</ele>
        <time>2019-08-08T10:17:18.000Z</time>
      </trkpt>
      <trkpt lat="42.94868" lon="0.82207">
        <ele>720</ele>
        <time>2019-08-08T10:17:19.000Z</time>
      </trkpt>
      <trkpt lat="42.94868" lon="0.82207">
        <ele>720</ele>
        <time>2019-08-08T10:17:20.000Z</time>
      </trkpt>
      <trkpt lat="42.94868" lon="0.82207">
        <ele>720</ele>
        <time>2019-08-08T10:17:21.000Z</time>
      </trkpt>
      <trkpt lat="42.94867" lon="0.82223">
        <ele>721</ele>
        <time>2019-08-08T10:17:23.000Z</time>
      </trkpt>
      <trkpt lat="42.94867" lon="0.82223">
        <ele>721</ele>
        <time>2019-08-08T10:17:24.000Z</time>
      </trkpt>
      <trkpt lat="42.94867" lon="0.82223">
        <ele>721</ele>
        <time>2019-08-08T10:17:25.000Z</time>
      </trkpt>
      <trkpt lat="42.94867" lon="0.82223">
        <ele>721</ele>
        <time>2019-08-08T10:17:26.000Z</time>
      </trkpt>
      <trkpt lat="42.94864" lon="0.82235">
        <ele>722</ele>
        <time>2019-08-08T10:17:27.000Z</time>
      </trkpt>
      <trkpt lat="42.94864" lon="0.82235">
        <ele>722</ele>
        <time>2019-08-08T10:17:28.000Z</time>
      </trkpt>
      <trkpt lat="42.94863" lon="0.82241">
        <ele>722</ele>
        <time>2019-08-08T10:17:29.000Z</time>
      </trkpt>
      <trkpt lat="42.94863" lon="0.82244">
        <ele>722</ele>
        <time>2019-08-08T10:17:30.000Z</time>
      </trkpt>
      <trkpt lat="42.94863" lon="0.82244">
        <ele>722</ele>
        <time>2019-08-08T10:17:31.000Z</time>
      </trkpt>
      <trkpt lat="42.94863" lon="0.82244">
        <ele>722</ele>
        <time>2019-08-08T10:17:32.000Z</time>
      </trkpt>
      <trkpt lat="42.94863" lon="0.82244">
        <ele>722</ele>
        <time>2019-08-08T10:17:33.000Z</time>
      </trkpt>
      <trkpt lat="42.94863" lon="0.82244">
        <ele>724</ele>
        <time>2019-08-08T10:17:34.000Z</time>
      </trkpt>
      <trkpt lat="42.94865" lon="0.82256">
        <ele>724</ele>
        <time>2019-08-08T10:17:35.000Z</time>
      </trkpt>
      <trkpt lat="42.94865" lon="0.82256">
        <ele>724</ele>
        <time>2019-08-08T10:17:36.000Z</time>
      </trkpt>
      <trkpt lat="42.94865" lon="0.82256">
        <ele>724</ele>
        <time>2019-08-08T10:17:37.000Z</time>
      </trkpt>
      <trkpt lat="42.94868" lon="0.82266">
        <ele>724</ele>
        <time>2019-08-08T10:17:38.000Z</time>
      </trkpt>
      <trkpt lat="42.94868" lon="0.82268">
        <ele>724</ele>
        <time>2019-08-08T10:17:39.000Z</time>
      </trkpt>
      <trkpt lat="42.94868" lon="0.82268">
        <ele>725</ele>
        <time>2019-08-08T10:17:40.000Z</time>
      </trkpt>
      <trkpt lat="42.94868" lon="0.82268">
        <ele>725</ele>
        <time>2019-08-08T10:17:41.000Z</time>
      </trkpt>
      <trkpt lat="42.94868" lon="0.82268">
        <ele>725</ele>
        <time>2019-08-08T10:17:42.000Z</time>
      </trkpt>
      <trkpt lat="42.94868" lon="0.82268">
        <ele>725</ele>
        <time>2019-08-08T10:17:43.000Z</time>
      </trkpt>
      <trkpt lat="42.94865" lon="0.82283">
        <ele>726</ele>
        <time>2019-08-08T10:17:44.000Z</time>
      </trkpt>
      <trkpt lat="42.94865" lon="0.82284">
        <ele>726</ele>
        <time>2019-08-08T10:17:45.000Z</time>
      </trkpt>
      <trkpt lat="42.94864" lon="0.82286">
        <ele>726</ele>
        <time>2019-08-08T10:17:46.000Z</time>
      </trkpt>
      <trkpt lat="42.94863" lon="0.82287">
        <ele>726</ele>
        <time>2019-08-08T10:17:47.000Z</time>
      </trkpt>
      <trkpt lat="42.9486" lon="0.82293">
        <ele>726</ele>
        <time>2019-08-08T10:17:48.000Z</time>
      </trkpt>
      <trkpt lat="42.94858" lon="0.82295">
        <ele>726</ele>
        <time>2019-08-08T10:17:49.000Z</time>
      </trkpt>
      <trkpt lat="42.94856" lon="0.82297">
        <ele>727</ele>
        <time>2019-08-08T10:17:50.000Z</time>
      </trkpt>
      <trkpt lat="42.94853" lon="0.82299">
        <ele>727</ele>
        <time>2019-08-08T10:17:51.000Z</time>
      </trkpt>
      <trkpt lat="42.94851" lon="0.82301">
        <ele>728</ele>
        <time>2019-08-08T10:17:52.000Z</time>
      </trkpt>
      <trkpt lat="42.94849" lon="0.82303">
        <ele>728</ele>
        <time>2019-08-08T10:17:53.000Z</time>
      </trkpt>
      <trkpt lat="42.94847" lon="0.82305">
        <ele>728</ele>
        <time>2019-08-08T10:17:54.000Z</time>
      </trkpt>
      <trkpt lat="42.94845" lon="0.82307">
        <ele>728</ele>
        <time>2019-08-08T10:17:55.000Z</time>
      </trkpt>
      <trkpt lat="42.94843" lon="0.82308">
        <ele>729</ele>
        <time>2019-08-08T10:17:56.000Z</time>
      </trkpt>
      <trkpt lat="42.94841" lon="0.8231">
        <ele>729</ele>
        <time>2019-08-08T10:17:57.000Z</time>
      </trkpt>
      <trkpt lat="42.9484" lon="0.82312">
        <ele>729</ele>
        <time>2019-08-08T10:17:58.000Z</time>
      </trkpt>
      <trkpt lat="42.94838" lon="0.82314">
        <ele>729</ele>
        <time>2019-08-08T10:17:59.000Z</time>
      </trkpt>
      <trkpt lat="42.94837" lon="0.82316">
        <ele>729</ele>
        <time>2019-08-08T10:18:00.000Z</time>
      </trkpt>
      <trkpt lat="42.94835" lon="0.82319">
        <ele>729</ele>
        <time>2019-08-08T10:18:01.000Z</time>
      </trkpt>
      <trkpt lat="42.94834" lon="0.82322">
        <ele>729</ele>
        <time>2019-08-08T10:18:02.000Z</time>
      </trkpt>
      <trkpt lat="42.94832" lon="0.82325">
        <ele>730</ele>
        <time>2019-08-08T10:18:03.000Z</time>
      </trkpt>
      <trkpt lat="42.94831" lon="0.82328">
        <ele>730</ele>
        <time>2019-08-08T10:18:04.000Z</time>
      </trkpt>
      <trkpt lat="42.9483" lon="0.82331">
        <ele>730</ele>
        <time>2019-08-08T10:18:05.000Z</time>
      </trkpt>
      <trkpt lat="42.94829" lon="0.82333">
        <ele>730</ele>
        <time>2019-08-08T10:18:06.000Z</time>
      </trkpt>
      <trkpt lat="42.94828" lon="0.82336">
        <ele>730</ele>
        <time>2019-08-08T10:18:07.000Z</time>
      </trkpt>
      <trkpt lat="42.94828" lon="0.82339">
        <ele>731</ele>
        <time>2019-08-08T10:18:08.000Z</time>
      </trkpt>
      <trkpt lat="42.94827" lon="0.82342">
        <ele>731</ele>
        <time>2019-08-08T10:18:09.000Z</time>
      </trkpt>
      <trkpt lat="42.94827" lon="0.82345">
        <ele>731</ele>
        <time>2019-08-08T10:18:10.000Z</time>
      </trkpt>
      <trkpt lat="42.94826" lon="0.82348">
        <ele>732</ele>
        <time>2019-08-08T10:18:11.000Z</time>
      </trkpt>
      <trkpt lat="42.94825" lon="0.82351">
        <ele>732</ele>
        <time>2019-08-08T10:18:12.000Z</time>
      </trkpt>
      <trkpt lat="42.94824" lon="0.82354">
        <ele>732</ele>
        <time>2019-08-08T10:18:13.000Z</time>
      </trkpt>
      <trkpt lat="42.94823" lon="0.82356">
        <ele>733</ele>
        <time>2019-08-08T10:18:14.000Z</time>
      </trkpt>
      <trkpt lat="42.94822" lon="0.82359">
        <ele>733</ele>
        <time>2019-08-08T10:18:15.000Z</time>
      </trkpt>
      <trkpt lat="42.94821" lon="0.82361">
        <ele>733</ele>
        <time>2019-08-08T10:18:16.000Z</time>
      </trkpt>
      <trkpt lat="42.9482" lon="0.82364">
        <ele>733</ele>
        <time>2019-08-08T10:18:17.000Z</time>
      </trkpt>
      <trkpt lat="42.9482" lon="0.82366">
        <ele>733</ele>
        <time>2019-08-08T10:18:18.000Z</time>
      </trkpt>
      <trkpt lat="42.94819" lon="0.82369">
        <ele>733</ele>
        <time>2019-08-08T10:18:19.000Z</time>
      </trkpt>
      <trkpt lat="42.94818" lon="0.82372">
        <ele>733</ele>
        <time>2019-08-08T10:18:20.000Z</time>
      </trkpt>
      <trkpt lat="42.94817" lon="0.82374">
        <ele>733</ele>
        <time>2019-08-08T10:18:21.000Z</time>
      </trkpt>
      <trkpt lat="42.94816" lon="0.82377">
        <ele>734</ele>
        <time>2019-08-08T10:18:22.000Z</time>
      </trkpt>
      <trkpt lat="42.94816" lon="0.82377">
        <ele>734</ele>
        <time>2019-08-08T10:18:23.000Z</time>
      </trkpt>
      <trkpt lat="42.94815" lon="0.82381">
        <ele>734</ele>
        <time>2019-08-08T10:18:24.000Z</time>
      </trkpt>
      <trkpt lat="42.94814" lon="0.82383">
        <ele>734</ele>
        <time>2019-08-08T10:18:25.000Z</time>
      </trkpt>
      <trkpt lat="42.94813" lon="0.82386">
        <ele>734</ele>
        <time>2019-08-08T10:18:26.000Z</time>
      </trkpt>
      <trkpt lat="42.94813" lon="0.82388">
        <ele>735</ele>
        <time>2019-08-08T10:18:27.000Z</time>
      </trkpt>
      <trkpt lat="42.94811" lon="0.8239">
        <ele>735</ele>
        <time>2019-08-08T10:18:28.000Z</time>
      </trkpt>
      <trkpt lat="42.9481" lon="0.82392">
        <ele>736</ele>
        <time>2019-08-08T10:18:29.000Z</time>
      </trkpt>
      <trkpt lat="42.94808" lon="0.82394">
        <ele>736</ele>
        <time>2019-08-08T10:18:30.000Z</time>
      </trkpt>
      <trkpt lat="42.94808" lon="0.82397">
        <ele>736</ele>
        <time>2019-08-08T10:18:31.000Z</time>
      </trkpt>
      <trkpt lat="42.94807" lon="0.82399">
        <ele>736</ele>
        <time>2019-08-08T10:18:32.000Z</time>
      </trkpt>
      <trkpt lat="42.94806" lon="0.82402">
        <ele>736</ele>
        <time>2019-08-08T10:18:33.000Z</time>
      </trkpt>
      <trkpt lat="42.94805" lon="0.82404">
        <ele>736</ele>
        <time>2019-08-08T10:18:34.000Z</time>
      </trkpt>
      <trkpt lat="42.94804" lon="0.82407">
        <ele>738</ele>
        <time>2019-08-08T10:18:35.000Z</time>
      </trkpt>
      <trkpt lat="42.94803" lon="0.8241">
        <ele>738</ele>
        <time>2019-08-08T10:18:36.000Z</time>
      </trkpt>
      <trkpt lat="42.94802" lon="0.82413">
        <ele>738</ele>
        <time>2019-08-08T10:18:37.000Z</time>
      </trkpt>
      <trkpt lat="42.94801" lon="0.82415">
        <ele>738</ele>
        <time>2019-08-08T10:18:38.000Z</time>
      </trkpt>
      <trkpt lat="42.948" lon="0.82417">
        <ele>738</ele>
        <time>2019-08-08T10:18:39.000Z</time>
      </trkpt>
      <trkpt lat="42.94798" lon="0.82419">
        <ele>738</ele>
        <time>2019-08-08T10:18:40.000Z</time>
      </trkpt>
      <trkpt lat="42.94796" lon="0.82421">
        <ele>738</ele>
        <time>2019-08-08T10:18:41.000Z</time>
      </trkpt>
      <trkpt lat="42.94793" lon="0.82422">
        <ele>738</ele>
        <time>2019-08-08T10:18:42.000Z</time>
      </trkpt>
      <trkpt lat="42.94791" lon="0.82422">
        <ele>738</ele>
        <time>2019-08-08T10:18:43.000Z</time>
      </trkpt>
      <trkpt lat="42.94788" lon="0.82423">
        <ele>738</ele>
        <time>2019-08-08T10:18:44.000Z</time>
      </trkpt>
      <trkpt lat="42.94786" lon="0.82424">
        <ele>738</ele>
        <time>2019-08-08T10:18:45.000Z</time>
      </trkpt>
      <trkpt lat="42.94783" lon="0.82425">
        <ele>739</ele>
        <time>2019-08-08T10:18:46.000Z</time>
      </trkpt>
      <trkpt lat="42.94781" lon="0.82426">
        <ele>739</ele>
        <time>2019-08-08T10:18:47.000Z</time>
      </trkpt>
      <trkpt lat="42.94779" lon="0.82428">
        <ele>739</ele>
        <time>2019-08-08T10:18:48.000Z</time>
      </trkpt>
      <trkpt lat="42.94777" lon="0.8243">
        <ele>739</ele>
        <time>2019-08-08T10:18:49.000Z</time>
      </trkpt>
      <trkpt lat="42.94775" lon="0.82431">
        <ele>739</ele>
        <time>2019-08-08T10:18:50.000Z</time>
      </trkpt>
      <trkpt lat="42.94774" lon="0.82433">
        <ele>739</ele>
        <time>2019-08-08T10:18:51.000Z</time>
      </trkpt>
      <trkpt lat="42.94772" lon="0.82434">
        <ele>739</ele>
        <time>2019-08-08T10:18:52.000Z</time>
      </trkpt>
      <trkpt lat="42.9477" lon="0.82435">
        <ele>740</ele>
        <time>2019-08-08T10:18:53.000Z</time>
      </trkpt>
      <trkpt lat="42.94769" lon="0.82437">
        <ele>740</ele>
        <time>2019-08-08T10:18:54.000Z</time>
      </trkpt>
      <trkpt lat="42.94769" lon="0.82437">
        <ele>741</ele>
        <time>2019-08-08T10:18:55.000Z</time>
      </trkpt>
      <trkpt lat="42.94766" lon="0.8244">
        <ele>741</ele>
        <time>2019-08-08T10:18:56.000Z</time>
      </trkpt>
      <trkpt lat="42.94764" lon="0.82441">
        <ele>742</ele>
        <time>2019-08-08T10:18:57.000Z</time>
      </trkpt>
      <trkpt lat="42.94764" lon="0.82441">
        <ele>742</ele>
        <time>2019-08-08T10:18:58.000Z</time>
      </trkpt>
      <trkpt lat="42.94764" lon="0.82441">
        <ele>742</ele>
        <time>2019-08-08T10:18:59.000Z</time>
      </trkpt>
      <trkpt lat="42.94764" lon="0.82441">
        <ele>742</ele>
        <time>2019-08-08T10:19:00.000Z</time>
      </trkpt>
      <trkpt lat="42.94756" lon="0.82445">
        <ele>742</ele>
        <time>2019-08-08T10:19:01.000Z</time>
      </trkpt>
      <trkpt lat="42.94756" lon="0.82445">
        <ele>742</ele>
        <time>2019-08-08T10:19:02.000Z</time>
      </trkpt>
      <trkpt lat="42.94756" lon="0.82445">
        <ele>743</ele>
        <time>2019-08-08T10:19:03.000Z</time>
      </trkpt>
      <trkpt lat="42.94751" lon="0.82451">
        <ele>743</ele>
        <time>2019-08-08T10:19:04.000Z</time>
      </trkpt>
      <trkpt lat="42.9475" lon="0.82453">
        <ele>744</ele>
        <time>2019-08-08T10:19:05.000Z</time>
      </trkpt>
      <trkpt lat="42.94748" lon="0.82456">
        <ele>744</ele>
        <time>2019-08-08T10:19:06.000Z</time>
      </trkpt>
      <trkpt lat="42.94746" lon="0.82459">
        <ele>744</ele>
        <time>2019-08-08T10:19:07.000Z</time>
      </trkpt>
      <trkpt lat="42.94745" lon="0.82461">
        <ele>744</ele>
        <time>2019-08-08T10:19:08.000Z</time>
      </trkpt>
      <trkpt lat="42.94744" lon="0.82463">
        <ele>745</ele>
        <time>2019-08-08T10:19:09.000Z</time>
      </trkpt>
      <trkpt lat="42.94743" lon="0.82466">
        <ele>745</ele>
        <time>2019-08-08T10:19:10.000Z</time>
      </trkpt>
      <trkpt lat="42.94742" lon="0.82469">
        <ele>746</ele>
        <time>2019-08-08T10:19:11.000Z</time>
      </trkpt>
      <trkpt lat="42.94741" lon="0.82471">
        <ele>746</ele>
        <time>2019-08-08T10:19:12.000Z</time>
      </trkpt>
      <trkpt lat="42.9474" lon="0.82473">
        <ele>747</ele>
        <time>2019-08-08T10:19:13.000Z</time>
      </trkpt>
      <trkpt lat="42.94738" lon="0.82476">
        <ele>747</ele>
        <time>2019-08-08T10:19:14.000Z</time>
      </trkpt>
      <trkpt lat="42.94737" lon="0.82478">
        <ele>747</ele>
        <time>2019-08-08T10:19:15.000Z</time>
      </trkpt>
      <trkpt lat="42.94736" lon="0.8248">
        <ele>747</ele>
        <time>2019-08-08T10:19:16.000Z</time>
      </trkpt>
      <trkpt lat="42.94735" lon="0.82483">
        <ele>747</ele>
        <time>2019-08-08T10:19:17.000Z</time>
      </trkpt>
      <trkpt lat="42.94734" lon="0.82485">
        <ele>747</ele>
        <time>2019-08-08T10:19:18.000Z</time>
      </trkpt>
      <trkpt lat="42.94732" lon="0.82487">
        <ele>747</ele>
        <time>2019-08-08T10:19:19.000Z</time>
      </trkpt>
      <trkpt lat="42.94732" lon="0.82487">
        <ele>747</ele>
        <time>2019-08-08T10:19:20.000Z</time>
      </trkpt>
      <trkpt lat="42.9473" lon="0.82491">
        <ele>748</ele>
        <time>2019-08-08T10:19:21.000Z</time>
      </trkpt>
      <trkpt lat="42.94729" lon="0.82494">
        <ele>748</ele>
        <time>2019-08-08T10:19:22.000Z</time>
      </trkpt>
      <trkpt lat="42.94728" lon="0.82496">
        <ele>748</ele>
        <time>2019-08-08T10:19:23.000Z</time>
      </trkpt>
      <trkpt lat="42.94726" lon="0.82498">
        <ele>748</ele>
        <time>2019-08-08T10:19:24.000Z</time>
      </trkpt>
      <trkpt lat="42.94724" lon="0.82501">
        <ele>748</ele>
        <time>2019-08-08T10:19:25.000Z</time>
      </trkpt>
      <trkpt lat="42.94722" lon="0.82503">
        <ele>748</ele>
        <time>2019-08-08T10:19:26.000Z</time>
      </trkpt>
      <trkpt lat="42.9472" lon="0.82505">
        <ele>749</ele>
        <time>2019-08-08T10:19:27.000Z</time>
      </trkpt>
      <trkpt lat="42.94719" lon="0.82507">
        <ele>749</ele>
        <time>2019-08-08T10:19:28.000Z</time>
      </trkpt>
      <trkpt lat="42.94717" lon="0.8251">
        <ele>749</ele>
        <time>2019-08-08T10:19:29.000Z</time>
      </trkpt>
      <trkpt lat="42.94716" lon="0.82512">
        <ele>749</ele>
        <time>2019-08-08T10:19:30.000Z</time>
      </trkpt>
      <trkpt lat="42.94714" lon="0.82515">
        <ele>750</ele>
        <time>2019-08-08T10:19:31.000Z</time>
      </trkpt>
      <trkpt lat="42.94713" lon="0.82517">
        <ele>750</ele>
        <time>2019-08-08T10:19:32.000Z</time>
      </trkpt>
      <trkpt lat="42.94712" lon="0.8252">
        <ele>751</ele>
        <time>2019-08-08T10:19:33.000Z</time>
      </trkpt>
      <trkpt lat="42.9471" lon="0.82523">
        <ele>751</ele>
        <time>2019-08-08T10:19:34.000Z</time>
      </trkpt>
      <trkpt lat="42.94709" lon="0.82526">
        <ele>751</ele>
        <time>2019-08-08T10:19:35.000Z</time>
      </trkpt>
      <trkpt lat="42.94708" lon="0.82528">
        <ele>751</ele>
        <time>2019-08-08T10:19:36.000Z</time>
      </trkpt>
      <trkpt lat="42.94706" lon="0.82531">
        <ele>751</ele>
        <time>2019-08-08T10:19:37.000Z</time>
      </trkpt>
      <trkpt lat="42.94705" lon="0.82533">
        <ele>751</ele>
        <time>2019-08-08T10:19:38.000Z</time>
      </trkpt>
      <trkpt lat="42.94704" lon="0.82536">
        <ele>751</ele>
        <time>2019-08-08T10:19:39.000Z</time>
      </trkpt>
      <trkpt lat="42.94703" lon="0.82539">
        <ele>751</ele>
        <time>2019-08-08T10:19:40.000Z</time>
      </trkpt>
      <trkpt lat="42.94702" lon="0.82541">
        <ele>752</ele>
        <time>2019-08-08T10:19:41.000Z</time>
      </trkpt>
      <trkpt lat="42.94701" lon="0.82545">
        <ele>752</ele>
        <time>2019-08-08T10:19:42.000Z</time>
      </trkpt>
      <trkpt lat="42.947" lon="0.82548">
        <ele>752</ele>
        <time>2019-08-08T10:19:43.000Z</time>
      </trkpt>
      <trkpt lat="42.94699" lon="0.82552">
        <ele>752</ele>
        <time>2019-08-08T10:19:44.000Z</time>
      </trkpt>
      <trkpt lat="42.94698" lon="0.82555">
        <ele>753</ele>
        <time>2019-08-08T10:19:45.000Z</time>
      </trkpt>
      <trkpt lat="42.94698" lon="0.82557">
        <ele>753</ele>
        <time>2019-08-08T10:19:46.000Z</time>
      </trkpt>
      <trkpt lat="42.94697" lon="0.8256">
        <ele>753</ele>
        <time>2019-08-08T10:19:47.000Z</time>
      </trkpt>
      <trkpt lat="42.94696" lon="0.82563">
        <ele>753</ele>
        <time>2019-08-08T10:19:48.000Z</time>
      </trkpt>
      <trkpt lat="42.94695" lon="0.82566">
        <ele>753</ele>
        <time>2019-08-08T10:19:49.000Z</time>
      </trkpt>
      <trkpt lat="42.94694" lon="0.82569">
        <ele>753</ele>
        <time>2019-08-08T10:19:50.000Z</time>
      </trkpt>
      <trkpt lat="42.94692" lon="0.82571">
        <ele>754</ele>
        <time>2019-08-08T10:19:51.000Z</time>
      </trkpt>
      <trkpt lat="42.9469" lon="0.82573">
        <ele>754</ele>
        <time>2019-08-08T10:19:52.000Z</time>
      </trkpt>
      <trkpt lat="42.94688" lon="0.82576">
        <ele>754</ele>
        <time>2019-08-08T10:19:53.000Z</time>
      </trkpt>
      <trkpt lat="42.94687" lon="0.82578">
        <ele>754</ele>
        <time>2019-08-08T10:19:54.000Z</time>
      </trkpt>
      <trkpt lat="42.94686" lon="0.82581">
        <ele>754</ele>
        <time>2019-08-08T10:19:55.000Z</time>
      </trkpt>
      <trkpt lat="42.94684" lon="0.82583">
        <ele>754</ele>
        <time>2019-08-08T10:19:56.000Z</time>
      </trkpt>
      <trkpt lat="42.94682" lon="0.82586">
        <ele>755</ele>
        <time>2019-08-08T10:19:57.000Z</time>
      </trkpt>
      <trkpt lat="42.94682" lon="0.82586">
        <ele>755</ele>
        <time>2019-08-08T10:19:58.000Z</time>
      </trkpt>
      <trkpt lat="42.94679" lon="0.82588">
        <ele>756</ele>
        <time>2019-08-08T10:19:59.000Z</time>
      </trkpt>
      <trkpt lat="42.94678" lon="0.8259">
        <ele>756</ele>
        <time>2019-08-08T10:20:00.000Z</time>
      </trkpt>
      <trkpt lat="42.94677" lon="0.82592">
        <ele>756</ele>
        <time>2019-08-08T10:20:01.000Z</time>
      </trkpt>
      <trkpt lat="42.94676" lon="0.82596">
        <ele>756</ele>
        <time>2019-08-08T10:20:02.000Z</time>
      </trkpt>
      <trkpt lat="42.94676" lon="0.82596">
        <ele>756</ele>
        <time>2019-08-08T10:20:03.000Z</time>
      </trkpt>
      <trkpt lat="42.94676" lon="0.82596">
        <ele>757</ele>
        <time>2019-08-08T10:20:04.000Z</time>
      </trkpt>
      <trkpt lat="42.94676" lon="0.82596">
        <ele>757</ele>
        <time>2019-08-08T10:20:05.000Z</time>
      </trkpt>
      <trkpt lat="42.94671" lon="0.82607">
        <ele>757</ele>
        <time>2019-08-08T10:20:06.000Z</time>
      </trkpt>
      <trkpt lat="42.94671" lon="0.82607">
        <ele>757</ele>
        <time>2019-08-08T10:20:07.000Z</time>
      </trkpt>
      <trkpt lat="42.94671" lon="0.82607">
        <ele>757</ele>
        <time>2019-08-08T10:20:08.000Z</time>
      </trkpt>
      <trkpt lat="42.94671" lon="0.82607">
        <ele>757</ele>
        <time>2019-08-08T10:20:09.000Z</time>
      </trkpt>
      <trkpt lat="42.94664" lon="0.82618">
        <ele>757</ele>
        <time>2019-08-08T10:20:10.000Z</time>
      </trkpt>
      <trkpt lat="42.94664" lon="0.82618">
        <ele>757</ele>
        <time>2019-08-08T10:20:11.000Z</time>
      </trkpt>
      <trkpt lat="42.94664" lon="0.82618">
        <ele>758</ele>
        <time>2019-08-08T10:20:12.000Z</time>
      </trkpt>
      <trkpt lat="42.94664" lon="0.82618">
        <ele>758</ele>
        <time>2019-08-08T10:20:13.000Z</time>
      </trkpt>
      <trkpt lat="42.94664" lon="0.82618">
        <ele>758</ele>
        <time>2019-08-08T10:20:14.000Z</time>
      </trkpt>
      <trkpt lat="42.9466" lon="0.8263">
        <ele>758</ele>
        <time>2019-08-08T10:20:15.000Z</time>
      </trkpt>
      <trkpt lat="42.9466" lon="0.8263">
        <ele>759</ele>
        <time>2019-08-08T10:20:16.000Z</time>
      </trkpt>
      <trkpt lat="42.9466" lon="0.8263">
        <ele>759</ele>
        <time>2019-08-08T10:20:17.000Z</time>
      </trkpt>
      <trkpt lat="42.94653" lon="0.82642">
        <ele>760</ele>
        <time>2019-08-08T10:20:19.000Z</time>
      </trkpt>
      <trkpt lat="42.94653" lon="0.82642">
        <ele>760</ele>
        <time>2019-08-08T10:20:20.000Z</time>
      </trkpt>
      <trkpt lat="42.94653" lon="0.82642">
        <ele>760</ele>
        <time>2019-08-08T10:20:21.000Z</time>
      </trkpt>
      <trkpt lat="42.94647" lon="0.82648">
        <ele>761</ele>
        <time>2019-08-08T10:20:22.000Z</time>
      </trkpt>
      <trkpt lat="42.94647" lon="0.82648">
        <ele>761</ele>
        <time>2019-08-08T10:20:23.000Z</time>
      </trkpt>
      <trkpt lat="42.94647" lon="0.82648">
        <ele>761</ele>
        <time>2019-08-08T10:20:24.000Z</time>
      </trkpt>
      <trkpt lat="42.94647" lon="0.82648">
        <ele>761</ele>
        <time>2019-08-08T10:20:25.000Z</time>
      </trkpt>
      <trkpt lat="42.94637" lon="0.82655">
        <ele>762</ele>
        <time>2019-08-08T10:20:26.000Z</time>
      </trkpt>
      <trkpt lat="42.94636" lon="0.82656">
        <ele>762</ele>
        <time>2019-08-08T10:20:27.000Z</time>
      </trkpt>
      <trkpt lat="42.94634" lon="0.82657">
        <ele>762</ele>
        <time>2019-08-08T10:20:28.000Z</time>
      </trkpt>
      <trkpt lat="42.94632" lon="0.82658">
        <ele>762</ele>
        <time>2019-08-08T10:20:29.000Z</time>
      </trkpt>
      <trkpt lat="42.94631" lon="0.82659">
        <ele>762</ele>
        <time>2019-08-08T10:20:30.000Z</time>
      </trkpt>
      <trkpt lat="42.9463" lon="0.8266">
        <ele>762</ele>
        <time>2019-08-08T10:20:31.000Z</time>
      </trkpt>
      <trkpt lat="42.94628" lon="0.82661">
        <ele>762</ele>
        <time>2019-08-08T10:20:32.000Z</time>
      </trkpt>
      <trkpt lat="42.94627" lon="0.82662">
        <ele>762</ele>
        <time>2019-08-08T10:20:33.000Z</time>
      </trkpt>
      <trkpt lat="42.94626" lon="0.82662">
        <ele>763</ele>
        <time>2019-08-08T10:20:34.000Z</time>
      </trkpt>
      <trkpt lat="42.94622" lon="0.82666">
        <ele>763</ele>
        <time>2019-08-08T10:20:35.000Z</time>
      </trkpt>
      <trkpt lat="42.94622" lon="0.82666">
        <ele>763</ele>
        <time>2019-08-08T10:20:36.000Z</time>
      </trkpt>
      <trkpt lat="42.94622" lon="0.82666">
        <ele>763</ele>
        <time>2019-08-08T10:20:37.000Z</time>
      </trkpt>
      <trkpt lat="42.94622" lon="0.82666">
        <ele>764</ele>
        <time>2019-08-08T10:20:38.000Z</time>
      </trkpt>
      <trkpt lat="42.94615" lon="0.82677">
        <ele>764</ele>
        <time>2019-08-08T10:20:39.000Z</time>
      </trkpt>
      <trkpt lat="42.94615" lon="0.82677">
        <ele>766</ele>
        <time>2019-08-08T10:20:40.000Z</time>
      </trkpt>
      <trkpt lat="42.94615" lon="0.82677">
        <ele>766</ele>
        <time>2019-08-08T10:20:41.000Z</time>
      </trkpt>
      <trkpt lat="42.9461" lon="0.82691">
        <ele>766</ele>
        <time>2019-08-08T10:20:42.000Z</time>
      </trkpt>
      <trkpt lat="42.94609" lon="0.82692">
        <ele>766</ele>
        <time>2019-08-08T10:20:43.000Z</time>
      </trkpt>
      <trkpt lat="42.94609" lon="0.82694">
        <ele>766</ele>
        <time>2019-08-08T10:20:44.000Z</time>
      </trkpt>
      <trkpt lat="42.94608" lon="0.82696">
        <ele>766</ele>
        <time>2019-08-08T10:20:45.000Z</time>
      </trkpt>
      <trkpt lat="42.94606" lon="0.82704">
        <ele>766</ele>
        <time>2019-08-08T10:20:46.000Z</time>
      </trkpt>
      <trkpt lat="42.94605" lon="0.82706">
        <ele>766</ele>
        <time>2019-08-08T10:20:47.000Z</time>
      </trkpt>
      <trkpt lat="42.94605" lon="0.82708">
        <ele>767</ele>
        <time>2019-08-08T10:20:48.000Z</time>
      </trkpt>
      <trkpt lat="42.94605" lon="0.82709">
        <ele>767</ele>
        <time>2019-08-08T10:20:49.000Z</time>
      </trkpt>
      <trkpt lat="42.94603" lon="0.82716">
        <ele>767</ele>
        <time>2019-08-08T10:20:50.000Z</time>
      </trkpt>
      <trkpt lat="42.94603" lon="0.82716">
        <ele>767</ele>
        <time>2019-08-08T10:20:51.000Z</time>
      </trkpt>
      <trkpt lat="42.94603" lon="0.82716">
        <ele>767</ele>
        <time>2019-08-08T10:20:52.000Z</time>
      </trkpt>
      <trkpt lat="42.94603" lon="0.82716">
        <ele>767</ele>
        <time>2019-08-08T10:20:53.000Z</time>
      </trkpt>
      <trkpt lat="42.94603" lon="0.82716">
        <ele>767</ele>
        <time>2019-08-08T10:20:54.000Z</time>
      </trkpt>
      <trkpt lat="42.94603" lon="0.82716">
        <ele>768</ele>
        <time>2019-08-08T10:20:55.000Z</time>
      </trkpt>
      <trkpt lat="42.94598" lon="0.8273">
        <ele>768</ele>
        <time>2019-08-08T10:20:56.000Z</time>
      </trkpt>
      <trkpt lat="42.94598" lon="0.82732">
        <ele>768</ele>
        <time>2019-08-08T10:20:57.000Z</time>
      </trkpt>
      <trkpt lat="42.94598" lon="0.82734">
        <ele>768</ele>
        <time>2019-08-08T10:20:58.000Z</time>
      </trkpt>
      <trkpt lat="42.94598" lon="0.82736">
        <ele>769</ele>
        <time>2019-08-08T10:20:59.000Z</time>
      </trkpt>
      <trkpt lat="42.94598" lon="0.82743">
        <ele>769</ele>
        <time>2019-08-08T10:21:00.000Z</time>
      </trkpt>
      <trkpt lat="42.94598" lon="0.82743">
        <ele>769</ele>
        <time>2019-08-08T10:21:01.000Z</time>
      </trkpt>
      <trkpt lat="42.94598" lon="0.82743">
        <ele>770</ele>
        <time>2019-08-08T10:21:02.000Z</time>
      </trkpt>
      <trkpt lat="42.94598" lon="0.82743">
        <ele>770</ele>
        <time>2019-08-08T10:21:03.000Z</time>
      </trkpt>
      <trkpt lat="42.94595" lon="0.82757">
        <ele>770</ele>
        <time>2019-08-08T10:21:04.000Z</time>
      </trkpt>
      <trkpt lat="42.94595" lon="0.82758">
        <ele>770</ele>
        <time>2019-08-08T10:21:05.000Z</time>
      </trkpt>
      <trkpt lat="42.94594" lon="0.8276">
        <ele>771</ele>
        <time>2019-08-08T10:21:06.000Z</time>
      </trkpt>
      <trkpt lat="42.94594" lon="0.82761">
        <ele>771</ele>
        <time>2019-08-08T10:21:07.000Z</time>
      </trkpt>
      <trkpt lat="42.94594" lon="0.82762">
        <ele>771</ele>
        <time>2019-08-08T10:21:08.000Z</time>
      </trkpt>
      <trkpt lat="42.94591" lon="0.8277">
        <ele>771</ele>
        <time>2019-08-08T10:21:09.000Z</time>
      </trkpt>
      <trkpt lat="42.94591" lon="0.82772">
        <ele>771</ele>
        <time>2019-08-08T10:21:10.000Z</time>
      </trkpt>
      <trkpt lat="42.94591" lon="0.82773">
        <ele>771</ele>
        <time>2019-08-08T10:21:11.000Z</time>
      </trkpt>
      <trkpt lat="42.94591" lon="0.82775">
        <ele>772</ele>
        <time>2019-08-08T10:21:12.000Z</time>
      </trkpt>
      <trkpt lat="42.94591" lon="0.82776">
        <ele>772</ele>
        <time>2019-08-08T10:21:13.000Z</time>
      </trkpt>
      <trkpt lat="42.9459" lon="0.82784">
        <ele>773</ele>
        <time>2019-08-08T10:21:14.000Z</time>
      </trkpt>
      <trkpt lat="42.9459" lon="0.82784">
        <ele>773</ele>
        <time>2019-08-08T10:21:15.000Z</time>
      </trkpt>
      <trkpt lat="42.9459" lon="0.82784">
        <ele>774</ele>
        <time>2019-08-08T10:21:16.000Z</time>
      </trkpt>
      <trkpt lat="42.9459" lon="0.82784">
        <ele>774</ele>
        <time>2019-08-08T10:21:17.000Z</time>
      </trkpt>
      <trkpt lat="42.9459" lon="0.82784">
        <ele>774</ele>
        <time>2019-08-08T10:21:18.000Z</time>
      </trkpt>
      <trkpt lat="42.9459" lon="0.82784">
        <ele>774</ele>
        <time>2019-08-08T10:21:19.000Z</time>
      </trkpt>
      <trkpt lat="42.94584" lon="0.82795">
        <ele>774</ele>
        <time>2019-08-08T10:21:20.000Z</time>
      </trkpt>
      <trkpt lat="42.94584" lon="0.82795">
        <ele>774</ele>
        <time>2019-08-08T10:21:21.000Z</time>
      </trkpt>
      <trkpt lat="42.94584" lon="0.82795">
        <ele>774</ele>
        <time>2019-08-08T10:21:22.000Z</time>
      </trkpt>
      <trkpt lat="42.94584" lon="0.82795">
        <ele>775</ele>
        <time>2019-08-08T10:21:23.000Z</time>
      </trkpt>
      <trkpt lat="42.94583" lon="0.82807">
        <ele>775</ele>
        <time>2019-08-08T10:21:24.000Z</time>
      </trkpt>
      <trkpt lat="42.94583" lon="0.82807">
        <ele>775</ele>
        <time>2019-08-08T10:21:25.000Z</time>
      </trkpt>
      <trkpt lat="42.94583" lon="0.82807">
        <ele>775</ele>
        <time>2019-08-08T10:21:26.000Z</time>
      </trkpt>
      <trkpt lat="42.94583" lon="0.82807">
        <ele>776</ele>
        <time>2019-08-08T10:21:27.000Z</time>
      </trkpt>
      <trkpt lat="42.94582" lon="0.82821">
        <ele>776</ele>
        <time>2019-08-08T10:21:28.000Z</time>
      </trkpt>
      <trkpt lat="42.94582" lon="0.82821">
        <ele>776</ele>
        <time>2019-08-08T10:21:29.000Z</time>
      </trkpt>
      <trkpt lat="42.94582" lon="0.82821">
        <ele>776</ele>
        <time>2019-08-08T10:21:30.000Z</time>
      </trkpt>
      <trkpt lat="42.94582" lon="0.82821">
        <ele>777</ele>
        <time>2019-08-08T10:21:31.000Z</time>
      </trkpt>
      <trkpt lat="42.94577" lon="0.82833">
        <ele>777</ele>
        <time>2019-08-08T10:21:32.000Z</time>
      </trkpt>
      <trkpt lat="42.94577" lon="0.82833">
        <ele>777</ele>
        <time>2019-08-08T10:21:33.000Z</time>
      </trkpt>
      <trkpt lat="42.94577" lon="0.82833">
        <ele>777</ele>
        <time>2019-08-08T10:21:34.000Z</time>
      </trkpt>
      <trkpt lat="42.94577" lon="0.82833">
        <ele>777</ele>
        <time>2019-08-08T10:21:35.000Z</time>
      </trkpt>
      <trkpt lat="42.94574" lon="0.82846">
        <ele>777</ele>
        <time>2019-08-08T10:21:36.000Z</time>
      </trkpt>
      <trkpt lat="42.94574" lon="0.82846">
        <ele>777</ele>
        <time>2019-08-08T10:21:37.000Z</time>
      </trkpt>
      <trkpt lat="42.94574" lon="0.82846">
        <ele>779</ele>
        <time>2019-08-08T10:21:38.000Z</time>
      </trkpt>
      <trkpt lat="42.94574" lon="0.82846">
        <ele>779</ele>
        <time>2019-08-08T10:21:39.000Z</time>
      </trkpt>
      <trkpt lat="42.94574" lon="0.82846">
        <ele>779</ele>
        <time>2019-08-08T10:21:40.000Z</time>
      </trkpt>
      <trkpt lat="42.94571" lon="0.82858">
        <ele>779</ele>
        <time>2019-08-08T10:21:41.000Z</time>
      </trkpt>
      <trkpt lat="42.94571" lon="0.82858">
        <ele>779</ele>
        <time>2019-08-08T10:21:42.000Z</time>
      </trkpt>
      <trkpt lat="42.94571" lon="0.82858">
        <ele>779</ele>
        <time>2019-08-08T10:21:43.000Z</time>
      </trkpt>
      <trkpt lat="42.94571" lon="0.82858">
        <ele>779</ele>
        <time>2019-08-08T10:21:44.000Z</time>
      </trkpt>
      <trkpt lat="42.94571" lon="0.82873">
        <ele>779</ele>
        <time>2019-08-08T10:21:45.000Z</time>
      </trkpt>
      <trkpt lat="42.94572" lon="0.82875">
        <ele>779</ele>
        <time>2019-08-08T10:21:46.000Z</time>
      </trkpt>
      <trkpt lat="42.94572" lon="0.82876">
        <ele>779</ele>
        <time>2019-08-08T10:21:47.000Z</time>
      </trkpt>
      <trkpt lat="42.94573" lon="0.82878">
        <ele>780</ele>
        <time>2019-08-08T10:21:48.000Z</time>
      </trkpt>
      <trkpt lat="42.94575" lon="0.82886">
        <ele>780</ele>
        <time>2019-08-08T10:21:49.000Z</time>
      </trkpt>
      <trkpt lat="42.94575" lon="0.82889">
        <ele>781</ele>
        <time>2019-08-08T10:21:50.000Z</time>
      </trkpt>
      <trkpt lat="42.94575" lon="0.82892">
        <ele>781</ele>
        <time>2019-08-08T10:21:51.000Z</time>
      </trkpt>
      <trkpt lat="42.94576" lon="0.82894">
        <ele>781</ele>
        <time>2019-08-08T10:21:52.000Z</time>
      </trkpt>
      <trkpt lat="42.94576" lon="0.82897">
        <ele>781</ele>
        <time>2019-08-08T10:21:53.000Z</time>
      </trkpt>
      <trkpt lat="42.94576" lon="0.829">
        <ele>781</ele>
        <time>2019-08-08T10:21:54.000Z</time>
      </trkpt>
      <trkpt lat="42.94576" lon="0.829">
        <ele>781</ele>
        <time>2019-08-08T10:21:55.000Z</time>
      </trkpt>
      <trkpt lat="42.94575" lon="0.82904">
        <ele>782</ele>
        <time>2019-08-08T10:21:56.000Z</time>
      </trkpt>
      <trkpt lat="42.94575" lon="0.82907">
        <ele>782</ele>
        <time>2019-08-08T10:21:57.000Z</time>
      </trkpt>
      <trkpt lat="42.94574" lon="0.8291">
        <ele>782</ele>
        <time>2019-08-08T10:21:58.000Z</time>
      </trkpt>
      <trkpt lat="42.94574" lon="0.82913">
        <ele>782</ele>
        <time>2019-08-08T10:21:59.000Z</time>
      </trkpt>
      <trkpt lat="42.94574" lon="0.82916">
        <ele>783</ele>
        <time>2019-08-08T10:22:00.000Z</time>
      </trkpt>
      <trkpt lat="42.94573" lon="0.82919">
        <ele>783</ele>
        <time>2019-08-08T10:22:01.000Z</time>
      </trkpt>
      <trkpt lat="42.94573" lon="0.82923">
        <ele>783</ele>
        <time>2019-08-08T10:22:02.000Z</time>
      </trkpt>
      <trkpt lat="42.94573" lon="0.82926">
        <ele>783</ele>
        <time>2019-08-08T10:22:03.000Z</time>
      </trkpt>
      <trkpt lat="42.94573" lon="0.8293">
        <ele>783</ele>
        <time>2019-08-08T10:22:04.000Z</time>
      </trkpt>
      <trkpt lat="42.94572" lon="0.82933">
        <ele>783</ele>
        <time>2019-08-08T10:22:05.000Z</time>
      </trkpt>
      <trkpt lat="42.94571" lon="0.82936">
        <ele>783</ele>
        <time>2019-08-08T10:22:06.000Z</time>
      </trkpt>
      <trkpt lat="42.9457" lon="0.82939">
        <ele>784</ele>
        <time>2019-08-08T10:22:07.000Z</time>
      </trkpt>
      <trkpt lat="42.9457" lon="0.82942">
        <ele>784</ele>
        <time>2019-08-08T10:22:08.000Z</time>
      </trkpt>
      <trkpt lat="42.94569" lon="0.82945">
        <ele>784</ele>
        <time>2019-08-08T10:22:09.000Z</time>
      </trkpt>
      <trkpt lat="42.94568" lon="0.82948">
        <ele>784</ele>
        <time>2019-08-08T10:22:10.000Z</time>
      </trkpt>
      <trkpt lat="42.94567" lon="0.82951">
        <ele>784</ele>
        <time>2019-08-08T10:22:11.000Z</time>
      </trkpt>
      <trkpt lat="42.94567" lon="0.82955">
        <ele>785</ele>
        <time>2019-08-08T10:22:12.000Z</time>
      </trkpt>
      <trkpt lat="42.94567" lon="0.82957">
        <ele>785</ele>
        <time>2019-08-08T10:22:13.000Z</time>
      </trkpt>
      <trkpt lat="42.94566" lon="0.82961">
        <ele>785</ele>
        <time>2019-08-08T10:22:14.000Z</time>
      </trkpt>
      <trkpt lat="42.94565" lon="0.82963">
        <ele>785</ele>
        <time>2019-08-08T10:22:15.000Z</time>
      </trkpt>
      <trkpt lat="42.94565" lon="0.82966">
        <ele>785</ele>
        <time>2019-08-08T10:22:16.000Z</time>
      </trkpt>
      <trkpt lat="42.94564" lon="0.82969">
        <ele>785</ele>
        <time>2019-08-08T10:22:17.000Z</time>
      </trkpt>
      <trkpt lat="42.94563" lon="0.82973">
        <ele>786</ele>
        <time>2019-08-08T10:22:18.000Z</time>
      </trkpt>
      <trkpt lat="42.94562" lon="0.82976">
        <ele>786</ele>
        <time>2019-08-08T10:22:19.000Z</time>
      </trkpt>
      <trkpt lat="42.9456" lon="0.8298">
        <ele>786</ele>
        <time>2019-08-08T10:22:20.000Z</time>
      </trkpt>
      <trkpt lat="42.9456" lon="0.82983">
        <ele>786</ele>
        <time>2019-08-08T10:22:21.000Z</time>
      </trkpt>
      <trkpt lat="42.9456" lon="0.82986">
        <ele>787</ele>
        <time>2019-08-08T10:22:22.000Z</time>
      </trkpt>
      <trkpt lat="42.94559" lon="0.82989">
        <ele>787</ele>
        <time>2019-08-08T10:22:23.000Z</time>
      </trkpt>
      <trkpt lat="42.94558" lon="0.82992">
        <ele>787</ele>
        <time>2019-08-08T10:22:24.000Z</time>
      </trkpt>
      <trkpt lat="42.94557" lon="0.82995">
        <ele>787</ele>
        <time>2019-08-08T10:22:25.000Z</time>
      </trkpt>
      <trkpt lat="42.94557" lon="0.82998">
        <ele>787</ele>
        <time>2019-08-08T10:22:26.000Z</time>
      </trkpt>
      <trkpt lat="42.94555" lon="0.83">
        <ele>788</ele>
        <time>2019-08-08T10:22:27.000Z</time>
      </trkpt>
      <trkpt lat="42.94555" lon="0.83004">
        <ele>788</ele>
        <time>2019-08-08T10:22:28.000Z</time>
      </trkpt>
      <trkpt lat="42.94554" lon="0.83007">
        <ele>790</ele>
        <time>2019-08-08T10:22:29.000Z</time>
      </trkpt>
      <trkpt lat="42.94554" lon="0.83007">
        <ele>790</ele>
        <time>2019-08-08T10:22:30.000Z</time>
      </trkpt>
      <trkpt lat="42.94554" lon="0.83007">
        <ele>790</ele>
        <time>2019-08-08T10:22:31.000Z</time>
      </trkpt>
      <trkpt lat="42.94554" lon="0.83007">
        <ele>790</ele>
        <time>2019-08-08T10:22:32.000Z</time>
      </trkpt>
      <trkpt lat="42.94554" lon="0.83007">
        <ele>790</ele>
        <time>2019-08-08T10:22:33.000Z</time>
      </trkpt>
      <trkpt lat="42.94551" lon="0.83022">
        <ele>790</ele>
        <time>2019-08-08T10:22:34.000Z</time>
      </trkpt>
      <trkpt lat="42.94551" lon="0.83023">
        <ele>790</ele>
        <time>2019-08-08T10:22:35.000Z</time>
      </trkpt>
      <trkpt lat="42.94551" lon="0.83025">
        <ele>790</ele>
        <time>2019-08-08T10:22:36.000Z</time>
      </trkpt>
      <trkpt lat="42.94551" lon="0.83026">
        <ele>791</ele>
        <time>2019-08-08T10:22:37.000Z</time>
      </trkpt>
      <trkpt lat="42.94551" lon="0.83027">
        <ele>791</ele>
        <time>2019-08-08T10:22:38.000Z</time>
      </trkpt>
      <trkpt lat="42.94549" lon="0.83034">
        <ele>791</ele>
        <time>2019-08-08T10:22:39.000Z</time>
      </trkpt>
      <trkpt lat="42.94549" lon="0.83034">
        <ele>791</ele>
        <time>2019-08-08T10:22:40.000Z</time>
      </trkpt>
      <trkpt lat="42.94549" lon="0.83034">
        <ele>792</ele>
        <time>2019-08-08T10:22:41.000Z</time>
      </trkpt>
      <trkpt lat="42.94549" lon="0.83034">
        <ele>792</ele>
        <time>2019-08-08T10:22:42.000Z</time>
      </trkpt>
      <trkpt lat="42.94549" lon="0.83034">
        <ele>792</ele>
        <time>2019-08-08T10:22:43.000Z</time>
      </trkpt>
      <trkpt lat="42.94548" lon="0.83047">
        <ele>792</ele>
        <time>2019-08-08T10:22:44.000Z</time>
      </trkpt>
      <trkpt lat="42.94548" lon="0.83047">
        <ele>793</ele>
        <time>2019-08-08T10:22:45.000Z</time>
      </trkpt>
      <trkpt lat="42.94548" lon="0.83047">
        <ele>793</ele>
        <time>2019-08-08T10:22:46.000Z</time>
      </trkpt>
      <trkpt lat="42.94548" lon="0.83047">
        <ele>793</ele>
        <time>2019-08-08T10:22:47.000Z</time>
      </trkpt>
      <trkpt lat="42.94548" lon="0.83047">
        <ele>793</ele>
        <time>2019-08-08T10:22:48.000Z</time>
      </trkpt>
      <trkpt lat="42.94547" lon="0.83059">
        <ele>794</ele>
        <time>2019-08-08T10:22:49.000Z</time>
      </trkpt>
      <trkpt lat="42.94547" lon="0.83059">
        <ele>794</ele>
        <time>2019-08-08T10:22:50.000Z</time>
      </trkpt>
      <trkpt lat="42.94547" lon="0.83059">
        <ele>794</ele>
        <time>2019-08-08T10:22:51.000Z</time>
      </trkpt>
      <trkpt lat="42.94547" lon="0.83059">
        <ele>794</ele>
        <time>2019-08-08T10:22:52.000Z</time>
      </trkpt>
      <trkpt lat="42.94547" lon="0.83059">
        <ele>794</ele>
        <time>2019-08-08T10:22:53.000Z</time>
      </trkpt>
      <trkpt lat="42.94545" lon="0.83073">
        <ele>795</ele>
        <time>2019-08-08T10:22:54.000Z</time>
      </trkpt>
      <trkpt lat="42.94544" lon="0.83074">
        <ele>795</ele>
        <time>2019-08-08T10:22:55.000Z</time>
      </trkpt>
      <trkpt lat="42.94544" lon="0.83075">
        <ele>796</ele>
        <time>2019-08-08T10:22:56.000Z</time>
      </trkpt>
      <trkpt lat="42.94544" lon="0.83077">
        <ele>796</ele>
        <time>2019-08-08T10:22:57.000Z</time>
      </trkpt>
      <trkpt lat="42.94544" lon="0.83078">
        <ele>796</ele>
        <time>2019-08-08T10:22:58.000Z</time>
      </trkpt>
      <trkpt lat="42.94542" lon="0.83086">
        <ele>796</ele>
        <time>2019-08-08T10:22:59.000Z</time>
      </trkpt>
      <trkpt lat="42.94542" lon="0.83088">
        <ele>797</ele>
        <time>2019-08-08T10:23:00.000Z</time>
      </trkpt>
      <trkpt lat="42.94542" lon="0.83089">
        <ele>797</ele>
        <time>2019-08-08T10:23:01.000Z</time>
      </trkpt>
      <trkpt lat="42.94542" lon="0.83091">
        <ele>797</ele>
        <time>2019-08-08T10:23:02.000Z</time>
      </trkpt>
      <trkpt lat="42.94542" lon="0.83092">
        <ele>797</ele>
        <time>2019-08-08T10:23:03.000Z</time>
      </trkpt>
      <trkpt lat="42.94542" lon="0.831">
        <ele>798</ele>
        <time>2019-08-08T10:23:04.000Z</time>
      </trkpt>
      <trkpt lat="42.94542" lon="0.831">
        <ele>798</ele>
        <time>2019-08-08T10:23:05.000Z</time>
      </trkpt>
      <trkpt lat="42.94542" lon="0.831">
        <ele>798</ele>
        <time>2019-08-08T10:23:06.000Z</time>
      </trkpt>
      <trkpt lat="42.94535" lon="0.83109">
        <ele>798</ele>
        <time>2019-08-08T10:23:07.000Z</time>
      </trkpt>
      <trkpt lat="42.94535" lon="0.83109">
        <ele>798</ele>
        <time>2019-08-08T10:23:08.000Z</time>
      </trkpt>
      <trkpt lat="42.94535" lon="0.83109">
        <ele>799</ele>
        <time>2019-08-08T10:23:09.000Z</time>
      </trkpt>
      <trkpt lat="42.94535" lon="0.83109">
        <ele>800</ele>
        <time>2019-08-08T10:23:10.000Z</time>
      </trkpt>
      <trkpt lat="42.94527" lon="0.83116">
        <ele>800</ele>
        <time>2019-08-08T10:23:11.000Z</time>
      </trkpt>
      <trkpt lat="42.94527" lon="0.83116">
        <ele>800</ele>
        <time>2019-08-08T10:23:12.000Z</time>
      </trkpt>
      <trkpt lat="42.94527" lon="0.83116">
        <ele>800</ele>
        <time>2019-08-08T10:23:13.000Z</time>
      </trkpt>
      <trkpt lat="42.94527" lon="0.83116">
        <ele>800</ele>
        <time>2019-08-08T10:23:14.000Z</time>
      </trkpt>
      <trkpt lat="42.94527" lon="0.83116">
        <ele>800</ele>
        <time>2019-08-08T10:23:15.000Z</time>
      </trkpt>
      <trkpt lat="42.94519" lon="0.83123">
        <ele>800</ele>
        <time>2019-08-08T10:23:16.000Z</time>
      </trkpt>
      <trkpt lat="42.94519" lon="0.83123">
        <ele>800</ele>
        <time>2019-08-08T10:23:17.000Z</time>
      </trkpt>
      <trkpt lat="42.94519" lon="0.83123">
        <ele>801</ele>
        <time>2019-08-08T10:23:18.000Z</time>
      </trkpt>
      <trkpt lat="42.94519" lon="0.83123">
        <ele>801</ele>
        <time>2019-08-08T10:23:19.000Z</time>
      </trkpt>
      <trkpt lat="42.94519" lon="0.83123">
        <ele>802</ele>
        <time>2019-08-08T10:23:20.000Z</time>
      </trkpt>
      <trkpt lat="42.94512" lon="0.83131">
        <ele>802</ele>
        <time>2019-08-08T10:23:21.000Z</time>
      </trkpt>
      <trkpt lat="42.94512" lon="0.83131">
        <ele>802</ele>
        <time>2019-08-08T10:23:22.000Z</time>
      </trkpt>
      <trkpt lat="42.94512" lon="0.83131">
        <ele>802</ele>
        <time>2019-08-08T10:23:23.000Z</time>
      </trkpt>
      <trkpt lat="42.94512" lon="0.83131">
        <ele>802</ele>
        <time>2019-08-08T10:23:24.000Z</time>
      </trkpt>
      <trkpt lat="42.94512" lon="0.83131">
        <ele>804</ele>
        <time>2019-08-08T10:23:25.000Z</time>
      </trkpt>
      <trkpt lat="42.94503" lon="0.83137">
        <ele>804</ele>
        <time>2019-08-08T10:23:26.000Z</time>
      </trkpt>
      <trkpt lat="42.94503" lon="0.83137">
        <ele>805</ele>
        <time>2019-08-08T10:23:27.000Z</time>
      </trkpt>
      <trkpt lat="42.94503" lon="0.83137">
        <ele>805</ele>
        <time>2019-08-08T10:23:28.000Z</time>
      </trkpt>
      <trkpt lat="42.94503" lon="0.83137">
        <ele>805</ele>
        <time>2019-08-08T10:23:29.000Z</time>
      </trkpt>
      <trkpt lat="42.94496" lon="0.83148">
        <ele>805</ele>
        <time>2019-08-08T10:23:30.000Z</time>
      </trkpt>
      <trkpt lat="42.94496" lon="0.83149">
        <ele>805</ele>
        <time>2019-08-08T10:23:31.000Z</time>
      </trkpt>
      <trkpt lat="42.94495" lon="0.83151">
        <ele>806</ele>
        <time>2019-08-08T10:23:32.000Z</time>
      </trkpt>
      <trkpt lat="42.94495" lon="0.83152">
        <ele>806</ele>
        <time>2019-08-08T10:23:33.000Z</time>
      </trkpt>
      <trkpt lat="42.94494" lon="0.83153">
        <ele>806</ele>
        <time>2019-08-08T10:23:34.000Z</time>
      </trkpt>
      <trkpt lat="42.94492" lon="0.8316">
        <ele>806</ele>
        <time>2019-08-08T10:23:35.000Z</time>
      </trkpt>
      <trkpt lat="42.9449" lon="0.83163">
        <ele>807</ele>
        <time>2019-08-08T10:23:36.000Z</time>
      </trkpt>
      <trkpt lat="42.94489" lon="0.83164">
        <ele>807</ele>
        <time>2019-08-08T10:23:37.000Z</time>
      </trkpt>
      <trkpt lat="42.94489" lon="0.83164">
        <ele>808</ele>
        <time>2019-08-08T10:23:38.000Z</time>
      </trkpt>
      <trkpt lat="42.94488" lon="0.83165">
        <ele>808</ele>
        <time>2019-08-08T10:23:39.000Z</time>
      </trkpt>
      <trkpt lat="42.94487" lon="0.83166">
        <ele>809</ele>
        <time>2019-08-08T10:23:40.000Z</time>
      </trkpt>
      <trkpt lat="42.94486" lon="0.83166">
        <ele>809</ele>
        <time>2019-08-08T10:23:41.000Z</time>
      </trkpt>
      <trkpt lat="42.94482" lon="0.8317">
        <ele>809</ele>
        <time>2019-08-08T10:23:42.000Z</time>
      </trkpt>
      <trkpt lat="42.9448" lon="0.83171">
        <ele>809</ele>
        <time>2019-08-08T10:23:43.000Z</time>
      </trkpt>
      <trkpt lat="42.9448" lon="0.83171">
        <ele>809</ele>
        <time>2019-08-08T10:23:44.000Z</time>
      </trkpt>
      <trkpt lat="42.94477" lon="0.83173">
        <ele>810</ele>
        <time>2019-08-08T10:23:45.000Z</time>
      </trkpt>
      <trkpt lat="42.94477" lon="0.83173">
        <ele>810</ele>
        <time>2019-08-08T10:23:46.000Z</time>
      </trkpt>
      <trkpt lat="42.94475" lon="0.83178">
        <ele>811</ele>
        <time>2019-08-08T10:23:47.000Z</time>
      </trkpt>
      <trkpt lat="42.94474" lon="0.8318">
        <ele>811</ele>
        <time>2019-08-08T10:23:48.000Z</time>
      </trkpt>
      <trkpt lat="42.94474" lon="0.83181">
        <ele>811</ele>
        <time>2019-08-08T10:23:49.000Z</time>
      </trkpt>
      <trkpt lat="42.94473" lon="0.83184">
        <ele>811</ele>
        <time>2019-08-08T10:23:50.000Z</time>
      </trkpt>
      <trkpt lat="42.94473" lon="0.83187">
        <ele>811</ele>
        <time>2019-08-08T10:23:51.000Z</time>
      </trkpt>
      <trkpt lat="42.94473" lon="0.83187">
        <ele>812</ele>
        <time>2019-08-08T10:23:52.000Z</time>
      </trkpt>
      <trkpt lat="42.9447" lon="0.83189">
        <ele>812</ele>
        <time>2019-08-08T10:23:53.000Z</time>
      </trkpt>
      <trkpt lat="42.9447" lon="0.83189">
        <ele>813</ele>
        <time>2019-08-08T10:23:54.000Z</time>
      </trkpt>
      <trkpt lat="42.94468" lon="0.83192">
        <ele>813</ele>
        <time>2019-08-08T10:23:55.000Z</time>
      </trkpt>
      <trkpt lat="42.94468" lon="0.83192">
        <ele>813</ele>
        <time>2019-08-08T10:23:56.000Z</time>
      </trkpt>
      <trkpt lat="42.94467" lon="0.83196">
        <ele>813</ele>
        <time>2019-08-08T10:23:57.000Z</time>
      </trkpt>
      <trkpt lat="42.94467" lon="0.83196">
        <ele>813</ele>
        <time>2019-08-08T10:23:58.000Z</time>
      </trkpt>
      <trkpt lat="42.94464" lon="0.832">
        <ele>813</ele>
        <time>2019-08-08T10:23:59.000Z</time>
      </trkpt>
      <trkpt lat="42.94463" lon="0.832">
        <ele>814</ele>
        <time>2019-08-08T10:24:00.000Z</time>
      </trkpt>
      <trkpt lat="42.94463" lon="0.83201">
        <ele>814</ele>
        <time>2019-08-08T10:24:01.000Z</time>
      </trkpt>
      <trkpt lat="42.94462" lon="0.83201">
        <ele>815</ele>
        <time>2019-08-08T10:24:02.000Z</time>
      </trkpt>
      <trkpt lat="42.94461" lon="0.83202">
        <ele>815</ele>
        <time>2019-08-08T10:24:03.000Z</time>
      </trkpt>
      <trkpt lat="42.9446" lon="0.83203">
        <ele>816</ele>
        <time>2019-08-08T10:24:04.000Z</time>
      </trkpt>
      <trkpt lat="42.94456" lon="0.83206">
        <ele>816</ele>
        <time>2019-08-08T10:24:05.000Z</time>
      </trkpt>
      <trkpt lat="42.94455" lon="0.83208">
        <ele>817</ele>
        <time>2019-08-08T10:24:06.000Z</time>
      </trkpt>
      <trkpt lat="42.94454" lon="0.83211">
        <ele>817</ele>
        <time>2019-08-08T10:24:07.000Z</time>
      </trkpt>
      <trkpt lat="42.94452" lon="0.83213">
        <ele>817</ele>
        <time>2019-08-08T10:24:08.000Z</time>
      </trkpt>
      <trkpt lat="42.94451" lon="0.83215">
        <ele>817</ele>
        <time>2019-08-08T10:24:09.000Z</time>
      </trkpt>
      <trkpt lat="42.94451" lon="0.83215">
        <ele>817</ele>
        <time>2019-08-08T10:24:10.000Z</time>
      </trkpt>
      <trkpt lat="42.94448" lon="0.83218">
        <ele>818</ele>
        <time>2019-08-08T10:24:11.000Z</time>
      </trkpt>
      <trkpt lat="42.94447" lon="0.8322">
        <ele>818</ele>
        <time>2019-08-08T10:24:12.000Z</time>
      </trkpt>
      <trkpt lat="42.94445" lon="0.83221">
        <ele>818</ele>
        <time>2019-08-08T10:24:13.000Z</time>
      </trkpt>
      <trkpt lat="42.94445" lon="0.83221">
        <ele>818</ele>
        <time>2019-08-08T10:24:14.000Z</time>
      </trkpt>
      <trkpt lat="42.94441" lon="0.83222">
        <ele>818</ele>
        <time>2019-08-08T10:24:15.000Z</time>
      </trkpt>
      <trkpt lat="42.94441" lon="0.83222">
        <ele>818</ele>
        <time>2019-08-08T10:24:16.000Z</time>
      </trkpt>
      <trkpt lat="42.94439" lon="0.83224">
        <ele>818</ele>
        <time>2019-08-08T10:24:17.000Z</time>
      </trkpt>
      <trkpt lat="42.94439" lon="0.83224">
        <ele>818</ele>
        <time>2019-08-08T10:24:18.000Z</time>
      </trkpt>
      <trkpt lat="42.94437" lon="0.83227">
        <ele>818</ele>
        <time>2019-08-08T10:24:19.000Z</time>
      </trkpt>
      <trkpt lat="42.94435" lon="0.83228">
        <ele>818</ele>
        <time>2019-08-08T10:24:20.000Z</time>
      </trkpt>
      <trkpt lat="42.94434" lon="0.8323">
        <ele>818</ele>
        <time>2019-08-08T10:24:21.000Z</time>
      </trkpt>
      <trkpt lat="42.94434" lon="0.8323">
        <ele>818</ele>
        <time>2019-08-08T10:24:22.000Z</time>
      </trkpt>
      <trkpt lat="42.94431" lon="0.83234">
        <ele>820</ele>
        <time>2019-08-08T10:24:23.000Z</time>
      </trkpt>
      <trkpt lat="42.94431" lon="0.83234">
        <ele>820</ele>
        <time>2019-08-08T10:24:24.000Z</time>
      </trkpt>
      <trkpt lat="42.9443" lon="0.83238">
        <ele>820</ele>
        <time>2019-08-08T10:24:25.000Z</time>
      </trkpt>
      <trkpt lat="42.94429" lon="0.83241">
        <ele>820</ele>
        <time>2019-08-08T10:24:26.000Z</time>
      </trkpt>
      <trkpt lat="42.94427" lon="0.83243">
        <ele>820</ele>
        <time>2019-08-08T10:24:27.000Z</time>
      </trkpt>
      <trkpt lat="42.94426" lon="0.83246">
        <ele>821</ele>
        <time>2019-08-08T10:24:28.000Z</time>
      </trkpt>
      <trkpt lat="42.94425" lon="0.83249">
        <ele>821</ele>
        <time>2019-08-08T10:24:29.000Z</time>
      </trkpt>
      <trkpt lat="42.94425" lon="0.83252">
        <ele>821</ele>
        <time>2019-08-08T10:24:30.000Z</time>
      </trkpt>
      <trkpt lat="42.94425" lon="0.83252">
        <ele>821</ele>
        <time>2019-08-08T10:24:31.000Z</time>
      </trkpt>
      <trkpt lat="42.94423" lon="0.83256">
        <ele>821</ele>
        <time>2019-08-08T10:24:32.000Z</time>
      </trkpt>
      <trkpt lat="42.94422" lon="0.83259">
        <ele>821</ele>
        <time>2019-08-08T10:24:33.000Z</time>
      </trkpt>
      <trkpt lat="42.94421" lon="0.83261">
        <ele>822</ele>
        <time>2019-08-08T10:24:34.000Z</time>
      </trkpt>
      <trkpt lat="42.9442" lon="0.83263">
        <ele>822</ele>
        <time>2019-08-08T10:24:35.000Z</time>
      </trkpt>
      <trkpt lat="42.94418" lon="0.83265">
        <ele>823</ele>
        <time>2019-08-08T10:24:36.000Z</time>
      </trkpt>
      <trkpt lat="42.94417" lon="0.83268">
        <ele>823</ele>
        <time>2019-08-08T10:24:37.000Z</time>
      </trkpt>
      <trkpt lat="42.94416" lon="0.83271">
        <ele>824</ele>
        <time>2019-08-08T10:24:38.000Z</time>
      </trkpt>
      <trkpt lat="42.94415" lon="0.83273">
        <ele>824</ele>
        <time>2019-08-08T10:24:39.000Z</time>
      </trkpt>
      <trkpt lat="42.94414" lon="0.83275">
        <ele>824</ele>
        <time>2019-08-08T10:24:40.000Z</time>
      </trkpt>
      <trkpt lat="42.94413" lon="0.83277">
        <ele>824</ele>
        <time>2019-08-08T10:24:41.000Z</time>
      </trkpt>
      <trkpt lat="42.94412" lon="0.8328">
        <ele>824</ele>
        <time>2019-08-08T10:24:42.000Z</time>
      </trkpt>
      <trkpt lat="42.9441" lon="0.83282">
        <ele>824</ele>
        <time>2019-08-08T10:24:43.000Z</time>
      </trkpt>
      <trkpt lat="42.94409" lon="0.83284">
        <ele>824</ele>
        <time>2019-08-08T10:24:44.000Z</time>
      </trkpt>
      <trkpt lat="42.94408" lon="0.83287">
        <ele>824</ele>
        <time>2019-08-08T10:24:45.000Z</time>
      </trkpt>
      <trkpt lat="42.94407" lon="0.83289">
        <ele>824</ele>
        <time>2019-08-08T10:24:46.000Z</time>
      </trkpt>
      <trkpt lat="42.94406" lon="0.83292">
        <ele>825</ele>
        <time>2019-08-08T10:24:47.000Z</time>
      </trkpt>
      <trkpt lat="42.94404" lon="0.83294">
        <ele>825</ele>
        <time>2019-08-08T10:24:48.000Z</time>
      </trkpt>
      <trkpt lat="42.94403" lon="0.83297">
        <ele>826</ele>
        <time>2019-08-08T10:24:49.000Z</time>
      </trkpt>
      <trkpt lat="42.94402" lon="0.83299">
        <ele>826</ele>
        <time>2019-08-08T10:24:50.000Z</time>
      </trkpt>
      <trkpt lat="42.94401" lon="0.83302">
        <ele>826</ele>
        <time>2019-08-08T10:24:51.000Z</time>
      </trkpt>
      <trkpt lat="42.944" lon="0.83304">
        <ele>826</ele>
        <time>2019-08-08T10:24:52.000Z</time>
      </trkpt>
      <trkpt lat="42.94399" lon="0.83307">
        <ele>827</ele>
        <time>2019-08-08T10:24:53.000Z</time>
      </trkpt>
      <trkpt lat="42.94397" lon="0.83309">
        <ele>827</ele>
        <time>2019-08-08T10:24:54.000Z</time>
      </trkpt>
      <trkpt lat="42.94396" lon="0.83311">
        <ele>827</ele>
        <time>2019-08-08T10:24:55.000Z</time>
      </trkpt>
      <trkpt lat="42.94395" lon="0.83313">
        <ele>827</ele>
        <time>2019-08-08T10:24:56.000Z</time>
      </trkpt>
      <trkpt lat="42.94393" lon="0.83316">
        <ele>827</ele>
        <time>2019-08-08T10:24:57.000Z</time>
      </trkpt>
      <trkpt lat="42.94392" lon="0.83319">
        <ele>827</ele>
        <time>2019-08-08T10:24:58.000Z</time>
      </trkpt>
      <trkpt lat="42.94391" lon="0.83321">
        <ele>827</ele>
        <time>2019-08-08T10:24:59.000Z</time>
      </trkpt>
      <trkpt lat="42.9439" lon="0.83324">
        <ele>827</ele>
        <time>2019-08-08T10:25:00.000Z</time>
      </trkpt>
      <trkpt lat="42.94389" lon="0.83326">
        <ele>827</ele>
        <time>2019-08-08T10:25:01.000Z</time>
      </trkpt>
      <trkpt lat="42.94388" lon="0.83329">
        <ele>828</ele>
        <time>2019-08-08T10:25:02.000Z</time>
      </trkpt>
      <trkpt lat="42.94386" lon="0.83331">
        <ele>828</ele>
        <time>2019-08-08T10:25:03.000Z</time>
      </trkpt>
      <trkpt lat="42.94385" lon="0.83334">
        <ele>828</ele>
        <time>2019-08-08T10:25:04.000Z</time>
      </trkpt>
      <trkpt lat="42.94384" lon="0.83336">
        <ele>828</ele>
        <time>2019-08-08T10:25:05.000Z</time>
      </trkpt>
      <trkpt lat="42.94383" lon="0.83339">
        <ele>828</ele>
        <time>2019-08-08T10:25:06.000Z</time>
      </trkpt>
      <trkpt lat="42.94383" lon="0.83339">
        <ele>829</ele>
        <time>2019-08-08T10:25:07.000Z</time>
      </trkpt>
      <trkpt lat="42.94381" lon="0.83342">
        <ele>829</ele>
        <time>2019-08-08T10:25:08.000Z</time>
      </trkpt>
      <trkpt lat="42.94381" lon="0.83342">
        <ele>830</ele>
        <time>2019-08-08T10:25:09.000Z</time>
      </trkpt>
      <trkpt lat="42.94378" lon="0.83345">
        <ele>830</ele>
        <time>2019-08-08T10:25:10.000Z</time>
      </trkpt>
      <trkpt lat="42.94376" lon="0.83346">
        <ele>830</ele>
        <time>2019-08-08T10:25:11.000Z</time>
      </trkpt>
      <trkpt lat="42.94376" lon="0.83349">
        <ele>830</ele>
        <time>2019-08-08T10:25:12.000Z</time>
      </trkpt>
      <trkpt lat="42.94374" lon="0.83352">
        <ele>830</ele>
        <time>2019-08-08T10:25:13.000Z</time>
      </trkpt>
      <trkpt lat="42.94373" lon="0.83354">
        <ele>830</ele>
        <time>2019-08-08T10:25:14.000Z</time>
      </trkpt>
      <trkpt lat="42.94372" lon="0.83357">
        <ele>831</ele>
        <time>2019-08-08T10:25:15.000Z</time>
      </trkpt>
      <trkpt lat="42.9437" lon="0.83359">
        <ele>831</ele>
        <time>2019-08-08T10:25:16.000Z</time>
      </trkpt>
      <trkpt lat="42.94369" lon="0.83362">
        <ele>831</ele>
        <time>2019-08-08T10:25:17.000Z</time>
      </trkpt>
      <trkpt lat="42.94368" lon="0.83365">
        <ele>831</ele>
        <time>2019-08-08T10:25:18.000Z</time>
      </trkpt>
      <trkpt lat="42.94368" lon="0.83368">
        <ele>832</ele>
        <time>2019-08-08T10:25:19.000Z</time>
      </trkpt>
      <trkpt lat="42.94367" lon="0.83371">
        <ele>832</ele>
        <time>2019-08-08T10:25:20.000Z</time>
      </trkpt>
      <trkpt lat="42.94366" lon="0.83374">
        <ele>833</ele>
        <time>2019-08-08T10:25:21.000Z</time>
      </trkpt>
      <trkpt lat="42.94365" lon="0.83377">
        <ele>833</ele>
        <time>2019-08-08T10:25:22.000Z</time>
      </trkpt>
      <trkpt lat="42.94364" lon="0.8338">
        <ele>833</ele>
        <time>2019-08-08T10:25:23.000Z</time>
      </trkpt>
      <trkpt lat="42.94363" lon="0.83383">
        <ele>833</ele>
        <time>2019-08-08T10:25:24.000Z</time>
      </trkpt>
      <trkpt lat="42.94362" lon="0.83386">
        <ele>833</ele>
        <time>2019-08-08T10:25:25.000Z</time>
      </trkpt>
      <trkpt lat="42.94361" lon="0.83389">
        <ele>834</ele>
        <time>2019-08-08T10:25:26.000Z</time>
      </trkpt>
      <trkpt lat="42.9436" lon="0.83392">
        <ele>834</ele>
        <time>2019-08-08T10:25:27.000Z</time>
      </trkpt>
      <trkpt lat="42.94359" lon="0.83395">
        <ele>834</ele>
        <time>2019-08-08T10:25:28.000Z</time>
      </trkpt>
      <trkpt lat="42.94358" lon="0.83399">
        <ele>834</ele>
        <time>2019-08-08T10:25:29.000Z</time>
      </trkpt>
      <trkpt lat="42.94356" lon="0.83402">
        <ele>834</ele>
        <time>2019-08-08T10:25:30.000Z</time>
      </trkpt>
      <trkpt lat="42.94355" lon="0.83405">
        <ele>834</ele>
        <time>2019-08-08T10:25:31.000Z</time>
      </trkpt>
      <trkpt lat="42.94354" lon="0.83408">
        <ele>835</ele>
        <time>2019-08-08T10:25:32.000Z</time>
      </trkpt>
      <trkpt lat="42.94354" lon="0.83412">
        <ele>835</ele>
        <time>2019-08-08T10:25:33.000Z</time>
      </trkpt>
      <trkpt lat="42.94353" lon="0.83415">
        <ele>835</ele>
        <time>2019-08-08T10:25:34.000Z</time>
      </trkpt>
      <trkpt lat="42.94352" lon="0.83418">
        <ele>835</ele>
        <time>2019-08-08T10:25:35.000Z</time>
      </trkpt>
      <trkpt lat="42.9435" lon="0.83421">
        <ele>836</ele>
        <time>2019-08-08T10:25:36.000Z</time>
      </trkpt>
      <trkpt lat="42.9435" lon="0.83421">
        <ele>836</ele>
        <time>2019-08-08T10:25:37.000Z</time>
      </trkpt>
      <trkpt lat="42.9435" lon="0.83421">
        <ele>836</ele>
        <time>2019-08-08T10:25:38.000Z</time>
      </trkpt>
      <trkpt lat="42.9435" lon="0.83421">
        <ele>836</ele>
        <time>2019-08-08T10:25:39.000Z</time>
      </trkpt>
      <trkpt lat="42.94346" lon="0.83433">
        <ele>836</ele>
        <time>2019-08-08T10:25:40.000Z</time>
      </trkpt>
      <trkpt lat="42.94346" lon="0.83433">
        <ele>836</ele>
        <time>2019-08-08T10:25:41.000Z</time>
      </trkpt>
      <trkpt lat="42.94344" lon="0.83437">
        <ele>836</ele>
        <time>2019-08-08T10:25:42.000Z</time>
      </trkpt>
      <trkpt lat="42.94342" lon="0.8344">
        <ele>836.4</ele>
        <time>2019-08-08T10:25:44.000Z</time>
      </trkpt>
      <trkpt lat="42.94342" lon="0.8344">
        <ele>837</ele>
        <time>2019-08-08T10:25:45.000Z</time>
      </trkpt>
      <trkpt lat="42.94339" lon="0.83443">
        <ele>837</ele>
        <time>2019-08-08T10:25:46.000Z</time>
      </trkpt>
      <trkpt lat="42.94339" lon="0.83443">
        <ele>838</ele>
        <time>2019-08-08T10:25:47.000Z</time>
      </trkpt>
      <trkpt lat="42.94337" lon="0.83447">
        <ele>838</ele>
        <time>2019-08-08T10:25:48.000Z</time>
      </trkpt>
      <trkpt lat="42.94335" lon="0.83448">
        <ele>839</ele>
        <time>2019-08-08T10:25:49.000Z</time>
      </trkpt>
      <trkpt lat="42.94335" lon="0.83448">
        <ele>839</ele>
        <time>2019-08-08T10:25:50.000Z</time>
      </trkpt>
      <trkpt lat="42.94332" lon="0.83451">
        <ele>839</ele>
        <time>2019-08-08T10:25:51.000Z</time>
      </trkpt>
      <trkpt lat="42.9433" lon="0.83453">
        <ele>839</ele>
        <time>2019-08-08T10:25:52.000Z</time>
      </trkpt>
      <trkpt lat="42.9433" lon="0.83453">
        <ele>840</ele>
        <time>2019-08-08T10:25:53.000Z</time>
      </trkpt>
      <trkpt lat="42.94328" lon="0.83456">
        <ele>840</ele>
        <time>2019-08-08T10:25:54.000Z</time>
      </trkpt>
      <trkpt lat="42.94326" lon="0.83457">
        <ele>840</ele>
        <time>2019-08-08T10:25:55.000Z</time>
      </trkpt>
      <trkpt lat="42.94325" lon="0.83459">
        <ele>840</ele>
        <time>2019-08-08T10:25:56.000Z</time>
      </trkpt>
      <trkpt lat="42.94323" lon="0.8346">
        <ele>840</ele>
        <time>2019-08-08T10:25:57.000Z</time>
      </trkpt>
      <trkpt lat="42.94321" lon="0.83461">
        <ele>840</ele>
        <time>2019-08-08T10:25:58.000Z</time>
      </trkpt>
      <trkpt lat="42.94321" lon="0.83461">
        <ele>842</ele>
        <time>2019-08-08T10:25:59.000Z</time>
      </trkpt>
      <trkpt lat="42.94318" lon="0.83463">
        <ele>842</ele>
        <time>2019-08-08T10:26:00.000Z</time>
      </trkpt>
      <trkpt lat="42.94318" lon="0.83463">
        <ele>842</ele>
        <time>2019-08-08T10:26:01.000Z</time>
      </trkpt>
      <trkpt lat="42.94315" lon="0.83466">
        <ele>842</ele>
        <time>2019-08-08T10:26:02.000Z</time>
      </trkpt>
      <trkpt lat="42.94315" lon="0.83466">
        <ele>842</ele>
        <time>2019-08-08T10:26:03.000Z</time>
      </trkpt>
      <trkpt lat="42.94312" lon="0.83468">
        <ele>842</ele>
        <time>2019-08-08T10:26:04.000Z</time>
      </trkpt>
      <trkpt lat="42.94312" lon="0.83468">
        <ele>842</ele>
        <time>2019-08-08T10:26:05.000Z</time>
      </trkpt>
      <trkpt lat="42.9431" lon="0.8347">
        <ele>843</ele>
        <time>2019-08-08T10:26:06.000Z</time>
      </trkpt>
      <trkpt lat="42.9431" lon="0.8347">
        <ele>843</ele>
        <time>2019-08-08T10:26:07.000Z</time>
      </trkpt>
      <trkpt lat="42.94307" lon="0.83471">
        <ele>843</ele>
        <time>2019-08-08T10:26:08.000Z</time>
      </trkpt>
      <trkpt lat="42.94306" lon="0.83472">
        <ele>843</ele>
        <time>2019-08-08T10:26:09.000Z</time>
      </trkpt>
      <trkpt lat="42.94304" lon="0.83473">
        <ele>844</ele>
        <time>2019-08-08T10:26:10.000Z</time>
      </trkpt>
      <trkpt lat="42.94302" lon="0.83474">
        <ele>844</ele>
        <time>2019-08-08T10:26:11.000Z</time>
      </trkpt>
      <trkpt lat="42.943" lon="0.83475">
        <ele>844</ele>
        <time>2019-08-08T10:26:12.000Z</time>
      </trkpt>
      <trkpt lat="42.94298" lon="0.83475">
        <ele>844</ele>
        <time>2019-08-08T10:26:13.000Z</time>
      </trkpt>
      <trkpt lat="42.94296" lon="0.83476">
        <ele>845</ele>
        <time>2019-08-08T10:26:14.000Z</time>
      </trkpt>
      <trkpt lat="42.94294" lon="0.83477">
        <ele>845</ele>
        <time>2019-08-08T10:26:15.000Z</time>
      </trkpt>
      <trkpt lat="42.94292" lon="0.83477">
        <ele>846</ele>
        <time>2019-08-08T10:26:16.000Z</time>
      </trkpt>
      <trkpt lat="42.9429" lon="0.83478">
        <ele>846</ele>
        <time>2019-08-08T10:26:17.000Z</time>
      </trkpt>
      <trkpt lat="42.94288" lon="0.83479">
        <ele>846</ele>
        <time>2019-08-08T10:26:18.000Z</time>
      </trkpt>
      <trkpt lat="42.94286" lon="0.83479">
        <ele>846</ele>
        <time>2019-08-08T10:26:19.000Z</time>
      </trkpt>
      <trkpt lat="42.94286" lon="0.83479">
        <ele>847</ele>
        <time>2019-08-08T10:26:20.000Z</time>
      </trkpt>
      <trkpt lat="42.94283" lon="0.8348">
        <ele>847</ele>
        <time>2019-08-08T10:26:21.000Z</time>
      </trkpt>
      <trkpt lat="42.94283" lon="0.8348">
        <ele>847</ele>
        <time>2019-08-08T10:26:22.000Z</time>
      </trkpt>
      <trkpt lat="42.9428" lon="0.83482">
        <ele>848</ele>
        <time>2019-08-08T10:26:23.000Z</time>
      </trkpt>
      <trkpt lat="42.9428" lon="0.83482">
        <ele>848</ele>
        <time>2019-08-08T10:26:24.000Z</time>
      </trkpt>
      <trkpt lat="42.94277" lon="0.83483">
        <ele>849</ele>
        <time>2019-08-08T10:26:25.000Z</time>
      </trkpt>
      <trkpt lat="42.94275" lon="0.83483">
        <ele>849</ele>
        <time>2019-08-08T10:26:26.000Z</time>
      </trkpt>
      <trkpt lat="42.94273" lon="0.83484">
        <ele>849</ele>
        <time>2019-08-08T10:26:27.000Z</time>
      </trkpt>
      <trkpt lat="42.94271" lon="0.83484">
        <ele>849</ele>
        <time>2019-08-08T10:26:28.000Z</time>
      </trkpt>
      <trkpt lat="42.94271" lon="0.83484">
        <ele>849</ele>
        <time>2019-08-08T10:26:29.000Z</time>
      </trkpt>
      <trkpt lat="42.94271" lon="0.83484">
        <ele>849</ele>
        <time>2019-08-08T10:26:30.000Z</time>
      </trkpt>
      <trkpt lat="42.94271" lon="0.83484">
        <ele>850</ele>
        <time>2019-08-08T10:26:31.000Z</time>
      </trkpt>
      <trkpt lat="42.94271" lon="0.83484">
        <ele>850</ele>
        <time>2019-08-08T10:26:32.000Z</time>
      </trkpt>
      <trkpt lat="42.94262" lon="0.83489">
        <ele>850</ele>
        <time>2019-08-08T10:26:33.000Z</time>
      </trkpt>
      <trkpt lat="42.94262" lon="0.83489">
        <ele>850</ele>
        <time>2019-08-08T10:26:34.000Z</time>
      </trkpt>
      <trkpt lat="42.94262" lon="0.83489">
        <ele>850</ele>
        <time>2019-08-08T10:26:35.000Z</time>
      </trkpt>
      <trkpt lat="42.94262" lon="0.83489">
        <ele>851</ele>
        <time>2019-08-08T10:26:36.000Z</time>
      </trkpt>
      <trkpt lat="42.94262" lon="0.83489">
        <ele>851</ele>
        <time>2019-08-08T10:26:37.000Z</time>
      </trkpt>
      <trkpt lat="42.94253" lon="0.83494">
        <ele>852</ele>
        <time>2019-08-08T10:26:38.000Z</time>
      </trkpt>
      <trkpt lat="42.94253" lon="0.83494">
        <ele>852</ele>
        <time>2019-08-08T10:26:39.000Z</time>
      </trkpt>
      <trkpt lat="42.94253" lon="0.83494">
        <ele>852</ele>
        <time>2019-08-08T10:26:40.000Z</time>
      </trkpt>
      <trkpt lat="42.94253" lon="0.83494">
        <ele>853</ele>
        <time>2019-08-08T10:26:41.000Z</time>
      </trkpt>
      <trkpt lat="42.94253" lon="0.83494">
        <ele>853</ele>
        <time>2019-08-08T10:26:42.000Z</time>
      </trkpt>
      <trkpt lat="42.94243" lon="0.83497">
        <ele>853</ele>
        <time>2019-08-08T10:26:43.000Z</time>
      </trkpt>
      <trkpt lat="42.94241" lon="0.83498">
        <ele>853</ele>
        <time>2019-08-08T10:26:44.000Z</time>
      </trkpt>
      <trkpt lat="42.94239" lon="0.83499">
        <ele>854</ele>
        <time>2019-08-08T10:26:45.000Z</time>
      </trkpt>
      <trkpt lat="42.94237" lon="0.835">
        <ele>854</ele>
        <time>2019-08-08T10:26:46.000Z</time>
      </trkpt>
      <trkpt lat="42.94237" lon="0.835">
        <ele>855</ele>
        <time>2019-08-08T10:26:47.000Z</time>
      </trkpt>
      <trkpt lat="42.94233" lon="0.83502">
        <ele>855</ele>
        <time>2019-08-08T10:26:48.000Z</time>
      </trkpt>
      <trkpt lat="42.94233" lon="0.83502">
        <ele>855</ele>
        <time>2019-08-08T10:26:49.000Z</time>
      </trkpt>
      <trkpt lat="42.94233" lon="0.83502">
        <ele>855</ele>
        <time>2019-08-08T10:26:50.000Z</time>
      </trkpt>
      <trkpt lat="42.94233" lon="0.83502">
        <ele>856</ele>
        <time>2019-08-08T10:26:51.000Z</time>
      </trkpt>
      <trkpt lat="42.94233" lon="0.83502">
        <ele>856</ele>
        <time>2019-08-08T10:26:52.000Z</time>
      </trkpt>
      <trkpt lat="42.94233" lon="0.83502">
        <ele>856</ele>
        <time>2019-08-08T10:26:53.000Z</time>
      </trkpt>
      <trkpt lat="42.94222" lon="0.83505">
        <ele>856</ele>
        <time>2019-08-08T10:26:54.000Z</time>
      </trkpt>
      <trkpt lat="42.94221" lon="0.83505">
        <ele>857</ele>
        <time>2019-08-08T10:26:55.000Z</time>
      </trkpt>
      <trkpt lat="42.9422" lon="0.83505">
        <ele>857</ele>
        <time>2019-08-08T10:26:56.000Z</time>
      </trkpt>
      <trkpt lat="42.94219" lon="0.83505">
        <ele>857</ele>
        <time>2019-08-08T10:26:57.000Z</time>
      </trkpt>
      <trkpt lat="42.94218" lon="0.83505">
        <ele>857</ele>
        <time>2019-08-08T10:26:58.000Z</time>
      </trkpt>
      <trkpt lat="42.94213" lon="0.83505">
        <ele>858</ele>
        <time>2019-08-08T10:26:59.000Z</time>
      </trkpt>
      <trkpt lat="42.94211" lon="0.83505">
        <ele>858</ele>
        <time>2019-08-08T10:27:00.000Z</time>
      </trkpt>
      <trkpt lat="42.94209" lon="0.83504">
        <ele>858</ele>
        <time>2019-08-08T10:27:01.000Z</time>
      </trkpt>
      <trkpt lat="42.94207" lon="0.83503">
        <ele>858</ele>
        <time>2019-08-08T10:27:02.000Z</time>
      </trkpt>
      <trkpt lat="42.94205" lon="0.83503">
        <ele>858</ele>
        <time>2019-08-08T10:27:03.000Z</time>
      </trkpt>
      <trkpt lat="42.94203" lon="0.83503">
        <ele>858</ele>
        <time>2019-08-08T10:27:04.000Z</time>
      </trkpt>
      <trkpt lat="42.94201" lon="0.83503">
        <ele>859</ele>
        <time>2019-08-08T10:27:05.000Z</time>
      </trkpt>
      <trkpt lat="42.94201" lon="0.83503">
        <ele>859</ele>
        <time>2019-08-08T10:27:06.000Z</time>
      </trkpt>
      <trkpt lat="42.94198" lon="0.83502">
        <ele>859</ele>
        <time>2019-08-08T10:27:07.000Z</time>
      </trkpt>
      <trkpt lat="42.94196" lon="0.83501">
        <ele>859</ele>
        <time>2019-08-08T10:27:08.000Z</time>
      </trkpt>
      <trkpt lat="42.94196" lon="0.83501">
        <ele>860</ele>
        <time>2019-08-08T10:27:09.000Z</time>
      </trkpt>
      <trkpt lat="42.94192" lon="0.83503">
        <ele>860</ele>
        <time>2019-08-08T10:27:10.000Z</time>
      </trkpt>
      <trkpt lat="42.9419" lon="0.83504">
        <ele>861</ele>
        <time>2019-08-08T10:27:11.000Z</time>
      </trkpt>
      <trkpt lat="42.94188" lon="0.83503">
        <ele>861</ele>
        <time>2019-08-08T10:27:12.000Z</time>
      </trkpt>
      <trkpt lat="42.94188" lon="0.83503">
        <ele>861</ele>
        <time>2019-08-08T10:27:13.000Z</time>
      </trkpt>
      <trkpt lat="42.94185" lon="0.83503">
        <ele>861</ele>
        <time>2019-08-08T10:27:14.000Z</time>
      </trkpt>
      <trkpt lat="42.94185" lon="0.83503">
        <ele>862</ele>
        <time>2019-08-08T10:27:15.000Z</time>
      </trkpt>
      <trkpt lat="42.94182" lon="0.83505">
        <ele>862</ele>
        <time>2019-08-08T10:27:16.000Z</time>
      </trkpt>
      <trkpt lat="42.94182" lon="0.83505">
        <ele>862</ele>
        <time>2019-08-08T10:27:17.000Z</time>
      </trkpt>
      <trkpt lat="42.9418" lon="0.83504">
        <ele>862</ele>
        <time>2019-08-08T10:27:18.000Z</time>
      </trkpt>
      <trkpt lat="42.94178" lon="0.83504">
        <ele>862</ele>
        <time>2019-08-08T10:27:19.000Z</time>
      </trkpt>
      <trkpt lat="42.94176" lon="0.83503">
        <ele>862</ele>
        <time>2019-08-08T10:27:20.000Z</time>
      </trkpt>
      <trkpt lat="42.94175" lon="0.83502">
        <ele>862</ele>
        <time>2019-08-08T10:27:21.000Z</time>
      </trkpt>
      <trkpt lat="42.94173" lon="0.83501">
        <ele>862</ele>
        <time>2019-08-08T10:27:22.000Z</time>
      </trkpt>
      <trkpt lat="42.94171" lon="0.835">
        <ele>863</ele>
        <time>2019-08-08T10:27:23.000Z</time>
      </trkpt>
      <trkpt lat="42.94168" lon="0.83499">
        <ele>863</ele>
        <time>2019-08-08T10:27:24.000Z</time>
      </trkpt>
      <trkpt lat="42.94166" lon="0.83498">
        <ele>864</ele>
        <time>2019-08-08T10:27:25.000Z</time>
      </trkpt>
      <trkpt lat="42.94164" lon="0.83497">
        <ele>864</ele>
        <time>2019-08-08T10:27:26.000Z</time>
      </trkpt>
      <trkpt lat="42.94162" lon="0.83495">
        <ele>864</ele>
        <time>2019-08-08T10:27:27.000Z</time>
      </trkpt>
      <trkpt lat="42.94161" lon="0.83494">
        <ele>864</ele>
        <time>2019-08-08T10:27:28.000Z</time>
      </trkpt>
      <trkpt lat="42.94159" lon="0.83493">
        <ele>864</ele>
        <time>2019-08-08T10:27:29.000Z</time>
      </trkpt>
      <trkpt lat="42.94156" lon="0.83493">
        <ele>864</ele>
        <time>2019-08-08T10:27:30.000Z</time>
      </trkpt>
      <trkpt lat="42.94154" lon="0.83492">
        <ele>866</ele>
        <time>2019-08-08T10:27:31.000Z</time>
      </trkpt>
      <trkpt lat="42.94152" lon="0.83492">
        <ele>866</ele>
        <time>2019-08-08T10:27:32.000Z</time>
      </trkpt>
      <trkpt lat="42.94152" lon="0.83492">
        <ele>866</ele>
        <time>2019-08-08T10:27:33.000Z</time>
      </trkpt>
      <trkpt lat="42.94152" lon="0.83492">
        <ele>866</ele>
        <time>2019-08-08T10:27:34.000Z</time>
      </trkpt>
      <trkpt lat="42.94152" lon="0.83492">
        <ele>866</ele>
        <time>2019-08-08T10:27:35.000Z</time>
      </trkpt>
      <trkpt lat="42.94152" lon="0.83495">
        <ele>866</ele>
        <time>2019-08-08T10:27:36.000Z</time>
      </trkpt>
      <trkpt lat="42.94151" lon="0.83497">
        <ele>866</ele>
        <time>2019-08-08T10:27:37.000Z</time>
      </trkpt>
      <trkpt lat="42.94151" lon="0.83497">
        <ele>867</ele>
        <time>2019-08-08T10:27:38.000Z</time>
      </trkpt>
      <trkpt lat="42.94152" lon="0.83501">
        <ele>867</ele>
        <time>2019-08-08T10:27:39.000Z</time>
      </trkpt>
      <trkpt lat="42.94152" lon="0.83501">
        <ele>867</ele>
        <time>2019-08-08T10:27:40.000Z</time>
      </trkpt>
      <trkpt lat="42.94153" lon="0.83503">
        <ele>867</ele>
        <time>2019-08-08T10:27:41.000Z</time>
      </trkpt>
      <trkpt lat="42.94153" lon="0.83503">
        <ele>867</ele>
        <time>2019-08-08T10:27:42.000Z</time>
      </trkpt>
      <trkpt lat="42.94155" lon="0.83505">
        <ele>867</ele>
        <time>2019-08-08T10:27:43.000Z</time>
      </trkpt>
      <trkpt lat="42.94155" lon="0.83505">
        <ele>867</ele>
        <time>2019-08-08T10:27:44.000Z</time>
      </trkpt>
      <trkpt lat="42.94157" lon="0.83508">
        <ele>867</ele>
        <time>2019-08-08T10:27:45.000Z</time>
      </trkpt>
      <trkpt lat="42.94157" lon="0.83508">
        <ele>867</ele>
        <time>2019-08-08T10:27:46.000Z</time>
      </trkpt>
      <trkpt lat="42.94157" lon="0.83508">
        <ele>867</ele>
        <time>2019-08-08T10:27:47.000Z</time>
      </trkpt>
      <trkpt lat="42.94159" lon="0.83509">
        <ele>867</ele>
        <time>2019-08-08T10:27:48.000Z</time>
      </trkpt>
      <trkpt lat="42.94159" lon="0.83509">
        <ele>867</ele>
        <time>2019-08-08T10:27:49.000Z</time>
      </trkpt>
      <trkpt lat="42.94162" lon="0.83512">
        <ele>868</ele>
        <time>2019-08-08T10:27:50.000Z</time>
      </trkpt>
      <trkpt lat="42.94163" lon="0.83514">
        <ele>868</ele>
        <time>2019-08-08T10:27:51.000Z</time>
      </trkpt>
      <trkpt lat="42.94164" lon="0.83517">
        <ele>869</ele>
        <time>2019-08-08T10:27:52.000Z</time>
      </trkpt>
      <trkpt lat="42.94166" lon="0.83518">
        <ele>869</ele>
        <time>2019-08-08T10:27:53.000Z</time>
      </trkpt>
      <trkpt lat="42.94166" lon="0.83518">
        <ele>869</ele>
        <time>2019-08-08T10:27:54.000Z</time>
      </trkpt>
      <trkpt lat="42.94168" lon="0.8352">
        <ele>869</ele>
        <time>2019-08-08T10:27:55.000Z</time>
      </trkpt>
      <trkpt lat="42.94168" lon="0.8352">
        <ele>869</ele>
        <time>2019-08-08T10:27:56.000Z</time>
      </trkpt>
      <trkpt lat="42.94171" lon="0.8352">
        <ele>869</ele>
        <time>2019-08-08T10:27:57.000Z</time>
      </trkpt>
      <trkpt lat="42.94173" lon="0.83521">
        <ele>869</ele>
        <time>2019-08-08T10:27:58.000Z</time>
      </trkpt>
      <trkpt lat="42.94173" lon="0.83521">
        <ele>870</ele>
        <time>2019-08-08T10:27:59.000Z</time>
      </trkpt>
      <trkpt lat="42.94177" lon="0.83521">
        <ele>870</ele>
        <time>2019-08-08T10:28:00.000Z</time>
      </trkpt>
      <trkpt lat="42.94178" lon="0.83522">
        <ele>870</ele>
        <time>2019-08-08T10:28:01.000Z</time>
      </trkpt>
      <trkpt lat="42.9418" lon="0.83523">
        <ele>870</ele>
        <time>2019-08-08T10:28:02.000Z</time>
      </trkpt>
      <trkpt lat="42.94182" lon="0.83523">
        <ele>871</ele>
        <time>2019-08-08T10:28:03.000Z</time>
      </trkpt>
      <trkpt lat="42.94182" lon="0.83523">
        <ele>871</ele>
        <time>2019-08-08T10:28:04.000Z</time>
      </trkpt>
      <trkpt lat="42.94185" lon="0.83523">
        <ele>871</ele>
        <time>2019-08-08T10:28:05.000Z</time>
      </trkpt>
      <trkpt lat="42.94187" lon="0.83524">
        <ele>871</ele>
        <time>2019-08-08T10:28:06.000Z</time>
      </trkpt>
      <trkpt lat="42.94189" lon="0.83526">
        <ele>871</ele>
        <time>2019-08-08T10:28:07.000Z</time>
      </trkpt>
      <trkpt lat="42.94191" lon="0.83528">
        <ele>871</ele>
        <time>2019-08-08T10:28:08.000Z</time>
      </trkpt>
      <trkpt lat="42.94193" lon="0.83529">
        <ele>872</ele>
        <time>2019-08-08T10:28:09.000Z</time>
      </trkpt>
      <trkpt lat="42.94196" lon="0.83531">
        <ele>872</ele>
        <time>2019-08-08T10:28:10.000Z</time>
      </trkpt>
      <trkpt lat="42.94198" lon="0.83533">
        <ele>872</ele>
        <time>2019-08-08T10:28:11.000Z</time>
      </trkpt>
      <trkpt lat="42.942" lon="0.83534">
        <ele>873</ele>
        <time>2019-08-08T10:28:12.000Z</time>
      </trkpt>
      <trkpt lat="42.94202" lon="0.83535">
        <ele>873</ele>
        <time>2019-08-08T10:28:13.000Z</time>
      </trkpt>
      <trkpt lat="42.94204" lon="0.83536">
        <ele>874</ele>
        <time>2019-08-08T10:28:14.000Z</time>
      </trkpt>
      <trkpt lat="42.94206" lon="0.83537">
        <ele>874</ele>
        <time>2019-08-08T10:28:15.000Z</time>
      </trkpt>
      <trkpt lat="42.94208" lon="0.83539">
        <ele>874</ele>
        <time>2019-08-08T10:28:16.000Z</time>
      </trkpt>
      <trkpt lat="42.9421" lon="0.83541">
        <ele>874</ele>
        <time>2019-08-08T10:28:17.000Z</time>
      </trkpt>
      <trkpt lat="42.94213" lon="0.83544">
        <ele>874</ele>
        <time>2019-08-08T10:28:18.000Z</time>
      </trkpt>
      <trkpt lat="42.94215" lon="0.83546">
        <ele>874</ele>
        <time>2019-08-08T10:28:19.000Z</time>
      </trkpt>
      <trkpt lat="42.94215" lon="0.83546">
        <ele>874</ele>
        <time>2019-08-08T10:28:20.000Z</time>
      </trkpt>
      <trkpt lat="42.94215" lon="0.83546">
        <ele>874</ele>
        <time>2019-08-08T10:28:21.000Z</time>
      </trkpt>
      <trkpt lat="42.94225" lon="0.83553">
        <ele>874</ele>
        <time>2019-08-08T10:28:22.000Z</time>
      </trkpt>
      <trkpt lat="42.94226" lon="0.83553">
        <ele>874</ele>
        <time>2019-08-08T10:28:23.000Z</time>
      </trkpt>
      <trkpt lat="42.94227" lon="0.83554">
        <ele>874</ele>
        <time>2019-08-08T10:28:24.000Z</time>
      </trkpt>
      <trkpt lat="42.94228" lon="0.83555">
        <ele>875</ele>
        <time>2019-08-08T10:28:25.000Z</time>
      </trkpt>
      <trkpt lat="42.94233" lon="0.83558">
        <ele>875</ele>
        <time>2019-08-08T10:28:26.000Z</time>
      </trkpt>
      <trkpt lat="42.94233" lon="0.83558">
        <ele>875</ele>
        <time>2019-08-08T10:28:27.000Z</time>
      </trkpt>
      <trkpt lat="42.94233" lon="0.83558">
        <ele>875</ele>
        <time>2019-08-08T10:28:28.000Z</time>
      </trkpt>
      <trkpt lat="42.94233" lon="0.83558">
        <ele>875</ele>
        <time>2019-08-08T10:28:29.000Z</time>
      </trkpt>
      <trkpt lat="42.94244" lon="0.8356">
        <ele>876</ele>
        <time>2019-08-08T10:28:30.000Z</time>
      </trkpt>
      <trkpt lat="42.94246" lon="0.83561">
        <ele>876</ele>
        <time>2019-08-08T10:28:31.000Z</time>
      </trkpt>
      <trkpt lat="42.94247" lon="0.83561">
        <ele>876</ele>
        <time>2019-08-08T10:28:32.000Z</time>
      </trkpt>
      <trkpt lat="42.94248" lon="0.83562">
        <ele>876</ele>
        <time>2019-08-08T10:28:33.000Z</time>
      </trkpt>
      <trkpt lat="42.94253" lon="0.83563">
        <ele>876</ele>
        <time>2019-08-08T10:28:34.000Z</time>
      </trkpt>
      <trkpt lat="42.94253" lon="0.83563">
        <ele>877</ele>
        <time>2019-08-08T10:28:35.000Z</time>
      </trkpt>
      <trkpt lat="42.94253" lon="0.83563">
        <ele>877</ele>
        <time>2019-08-08T10:28:36.000Z</time>
      </trkpt>
      <trkpt lat="42.9426" lon="0.83566">
        <ele>878</ele>
        <time>2019-08-08T10:28:37.000Z</time>
      </trkpt>
      <trkpt lat="42.94262" lon="0.83567">
        <ele>878</ele>
        <time>2019-08-08T10:28:38.000Z</time>
      </trkpt>
      <trkpt lat="42.94262" lon="0.83567">
        <ele>878</ele>
        <time>2019-08-08T10:28:39.000Z</time>
      </trkpt>
      <trkpt lat="42.94268" lon="0.8357">
        <ele>878</ele>
        <time>2019-08-08T10:28:40.000Z</time>
      </trkpt>
      <trkpt lat="42.9427" lon="0.83572">
        <ele>879</ele>
        <time>2019-08-08T10:28:41.000Z</time>
      </trkpt>
      <trkpt lat="42.94273" lon="0.83576">
        <ele>879</ele>
        <time>2019-08-08T10:28:42.000Z</time>
      </trkpt>
      <trkpt lat="42.94275" lon="0.83578">
        <ele>879</ele>
        <time>2019-08-08T10:28:43.000Z</time>
      </trkpt>
      <trkpt lat="42.94277" lon="0.8358">
        <ele>879</ele>
        <time>2019-08-08T10:28:44.000Z</time>
      </trkpt>
      <trkpt lat="42.94278" lon="0.83582">
        <ele>880</ele>
        <time>2019-08-08T10:28:45.000Z</time>
      </trkpt>
      <trkpt lat="42.94279" lon="0.83585">
        <ele>880</ele>
        <time>2019-08-08T10:28:46.000Z</time>
      </trkpt>
      <trkpt lat="42.9428" lon="0.83587">
        <ele>880</ele>
        <time>2019-08-08T10:28:47.000Z</time>
      </trkpt>
      <trkpt lat="42.9428" lon="0.83587">
        <ele>880</ele>
        <time>2019-08-08T10:28:48.000Z</time>
      </trkpt>
      <trkpt lat="42.9428" lon="0.83592">
        <ele>880</ele>
        <time>2019-08-08T10:28:49.000Z</time>
      </trkpt>
      <trkpt lat="42.94281" lon="0.83595">
        <ele>880</ele>
        <time>2019-08-08T10:28:50.000Z</time>
      </trkpt>
      <trkpt lat="42.94281" lon="0.83598">
        <ele>880</ele>
        <time>2019-08-08T10:28:51.000Z</time>
      </trkpt>
      <trkpt lat="42.94281" lon="0.83602">
        <ele>880</ele>
        <time>2019-08-08T10:28:52.000Z</time>
      </trkpt>
      <trkpt lat="42.94282" lon="0.83606">
        <ele>880</ele>
        <time>2019-08-08T10:28:53.000Z</time>
      </trkpt>
      <trkpt lat="42.94282" lon="0.83609">
        <ele>882</ele>
        <time>2019-08-08T10:28:54.000Z</time>
      </trkpt>
      <trkpt lat="42.94282" lon="0.83611">
        <ele>882</ele>
        <time>2019-08-08T10:28:55.000Z</time>
      </trkpt>
      <trkpt lat="42.94282" lon="0.83611">
        <ele>882</ele>
        <time>2019-08-08T10:28:56.000Z</time>
      </trkpt>
      <trkpt lat="42.94281" lon="0.83615">
        <ele>882</ele>
        <time>2019-08-08T10:28:57.000Z</time>
      </trkpt>
      <trkpt lat="42.94281" lon="0.83615">
        <ele>882</ele>
        <time>2019-08-08T10:28:58.000Z</time>
      </trkpt>
      <trkpt lat="42.94281" lon="0.8362">
        <ele>882</ele>
        <time>2019-08-08T10:28:59.000Z</time>
      </trkpt>
      <trkpt lat="42.94281" lon="0.83622">
        <ele>883</ele>
        <time>2019-08-08T10:29:00.000Z</time>
      </trkpt>
      <trkpt lat="42.94281" lon="0.83626">
        <ele>883</ele>
        <time>2019-08-08T10:29:01.000Z</time>
      </trkpt>
      <trkpt lat="42.94282" lon="0.83629">
        <ele>883</ele>
        <time>2019-08-08T10:29:02.000Z</time>
      </trkpt>
      <trkpt lat="42.94282" lon="0.83632">
        <ele>883</ele>
        <time>2019-08-08T10:29:03.000Z</time>
      </trkpt>
      <trkpt lat="42.94282" lon="0.83635">
        <ele>883</ele>
        <time>2019-08-08T10:29:04.000Z</time>
      </trkpt>
      <trkpt lat="42.94282" lon="0.83637">
        <ele>883</ele>
        <time>2019-08-08T10:29:05.000Z</time>
      </trkpt>
      <trkpt lat="42.94282" lon="0.83637">
        <ele>883</ele>
        <time>2019-08-08T10:29:06.000Z</time>
      </trkpt>
      <trkpt lat="42.94282" lon="0.83642">
        <ele>884</ele>
        <time>2019-08-08T10:29:07.000Z</time>
      </trkpt>
      <trkpt lat="42.94282" lon="0.83642">
        <ele>884</ele>
        <time>2019-08-08T10:29:08.000Z</time>
      </trkpt>
      <trkpt lat="42.94282" lon="0.83646">
        <ele>884</ele>
        <time>2019-08-08T10:29:09.000Z</time>
      </trkpt>
      <trkpt lat="42.94282" lon="0.83646">
        <ele>884</ele>
        <time>2019-08-08T10:29:10.000Z</time>
      </trkpt>
      <trkpt lat="42.94283" lon="0.83651">
        <ele>885</ele>
        <time>2019-08-08T10:29:11.000Z</time>
      </trkpt>
      <trkpt lat="42.94284" lon="0.83655">
        <ele>885</ele>
        <time>2019-08-08T10:29:12.000Z</time>
      </trkpt>
      <trkpt lat="42.94286" lon="0.83658">
        <ele>885</ele>
        <time>2019-08-08T10:29:13.000Z</time>
      </trkpt>
      <trkpt lat="42.94287" lon="0.83661">
        <ele>885</ele>
        <time>2019-08-08T10:29:14.000Z</time>
      </trkpt>
      <trkpt lat="42.94287" lon="0.83664">
        <ele>885</ele>
        <time>2019-08-08T10:29:15.000Z</time>
      </trkpt>
      <trkpt lat="42.94287" lon="0.83664">
        <ele>885</ele>
        <time>2019-08-08T10:29:16.000Z</time>
      </trkpt>
      <trkpt lat="42.94287" lon="0.83669">
        <ele>885</ele>
        <time>2019-08-08T10:29:17.000Z</time>
      </trkpt>
      <trkpt lat="42.94288" lon="0.83672">
        <ele>885</ele>
        <time>2019-08-08T10:29:18.000Z</time>
      </trkpt>
      <trkpt lat="42.94289" lon="0.83675">
        <ele>886</ele>
        <time>2019-08-08T10:29:19.000Z</time>
      </trkpt>
      <trkpt lat="42.9429" lon="0.83678">
        <ele>886</ele>
        <time>2019-08-08T10:29:20.000Z</time>
      </trkpt>
      <trkpt lat="42.94291" lon="0.83681">
        <ele>887</ele>
        <time>2019-08-08T10:29:21.000Z</time>
      </trkpt>
      <trkpt lat="42.94293" lon="0.83685">
        <ele>887</ele>
        <time>2019-08-08T10:29:22.000Z</time>
      </trkpt>
      <trkpt lat="42.94294" lon="0.83688">
        <ele>887</ele>
        <time>2019-08-08T10:29:23.000Z</time>
      </trkpt>
      <trkpt lat="42.94295" lon="0.83692">
        <ele>887</ele>
        <time>2019-08-08T10:29:24.000Z</time>
      </trkpt>
      <trkpt lat="42.94295" lon="0.83694">
        <ele>888</ele>
        <time>2019-08-08T10:29:25.000Z</time>
      </trkpt>
      <trkpt lat="42.94297" lon="0.83697">
        <ele>888</ele>
        <time>2019-08-08T10:29:26.000Z</time>
      </trkpt>
      <trkpt lat="42.94298" lon="0.837">
        <ele>889</ele>
        <time>2019-08-08T10:29:27.000Z</time>
      </trkpt>
      <trkpt lat="42.94299" lon="0.83703">
        <ele>889</ele>
        <time>2019-08-08T10:29:28.000Z</time>
      </trkpt>
      <trkpt lat="42.943" lon="0.83706">
        <ele>889</ele>
        <time>2019-08-08T10:29:29.000Z</time>
      </trkpt>
      <trkpt lat="42.94301" lon="0.8371">
        <ele>889</ele>
        <time>2019-08-08T10:29:30.000Z</time>
      </trkpt>
      <trkpt lat="42.94302" lon="0.83712">
        <ele>889</ele>
        <time>2019-08-08T10:29:31.000Z</time>
      </trkpt>
      <trkpt lat="42.94304" lon="0.83715">
        <ele>890</ele>
        <time>2019-08-08T10:29:32.000Z</time>
      </trkpt>
      <trkpt lat="42.94304" lon="0.83718">
        <ele>890</ele>
        <time>2019-08-08T10:29:33.000Z</time>
      </trkpt>
      <trkpt lat="42.94305" lon="0.83721">
        <ele>890</ele>
        <time>2019-08-08T10:29:34.000Z</time>
      </trkpt>
      <trkpt lat="42.94307" lon="0.83723">
        <ele>890</ele>
        <time>2019-08-08T10:29:35.000Z</time>
      </trkpt>
      <trkpt lat="42.94308" lon="0.83726">
        <ele>890</ele>
        <time>2019-08-08T10:29:36.000Z</time>
      </trkpt>
      <trkpt lat="42.94309" lon="0.83729">
        <ele>891</ele>
        <time>2019-08-08T10:29:37.000Z</time>
      </trkpt>
      <trkpt lat="42.9431" lon="0.83732">
        <ele>891</ele>
        <time>2019-08-08T10:29:38.000Z</time>
      </trkpt>
      <trkpt lat="42.94311" lon="0.83735">
        <ele>891</ele>
        <time>2019-08-08T10:29:39.000Z</time>
      </trkpt>
      <trkpt lat="42.94313" lon="0.83737">
        <ele>891</ele>
        <time>2019-08-08T10:29:40.000Z</time>
      </trkpt>
      <trkpt lat="42.94314" lon="0.8374">
        <ele>892</ele>
        <time>2019-08-08T10:29:41.000Z</time>
      </trkpt>
      <trkpt lat="42.94314" lon="0.8374">
        <ele>892</ele>
        <time>2019-08-08T10:29:42.000Z</time>
      </trkpt>
      <trkpt lat="42.94316" lon="0.83744">
        <ele>892</ele>
        <time>2019-08-08T10:29:43.000Z</time>
      </trkpt>
      <trkpt lat="42.94317" lon="0.83747">
        <ele>892</ele>
        <time>2019-08-08T10:29:44.000Z</time>
      </trkpt>
      <trkpt lat="42.94318" lon="0.8375">
        <ele>892</ele>
        <time>2019-08-08T10:29:45.000Z</time>
      </trkpt>
      <trkpt lat="42.94319" lon="0.83752">
        <ele>892</ele>
        <time>2019-08-08T10:29:46.000Z</time>
      </trkpt>
      <trkpt lat="42.9432" lon="0.83755">
        <ele>893</ele>
        <time>2019-08-08T10:29:47.000Z</time>
      </trkpt>
      <trkpt lat="42.94321" lon="0.83759">
        <ele>893</ele>
        <time>2019-08-08T10:29:48.000Z</time>
      </trkpt>
      <trkpt lat="42.94322" lon="0.83762">
        <ele>893</ele>
        <time>2019-08-08T10:29:49.000Z</time>
      </trkpt>
      <trkpt lat="42.94323" lon="0.83765">
        <ele>893</ele>
        <time>2019-08-08T10:29:50.000Z</time>
      </trkpt>
      <trkpt lat="42.94324" lon="0.83768">
        <ele>894</ele>
        <time>2019-08-08T10:29:51.000Z</time>
      </trkpt>
      <trkpt lat="42.94325" lon="0.83771">
        <ele>894</ele>
        <time>2019-08-08T10:29:52.000Z</time>
      </trkpt>
      <trkpt lat="42.94326" lon="0.83773">
        <ele>894</ele>
        <time>2019-08-08T10:29:53.000Z</time>
      </trkpt>
      <trkpt lat="42.94327" lon="0.83776">
        <ele>894</ele>
        <time>2019-08-08T10:29:54.000Z</time>
      </trkpt>
      <trkpt lat="42.94328" lon="0.83779">
        <ele>894</ele>
        <time>2019-08-08T10:29:55.000Z</time>
      </trkpt>
      <trkpt lat="42.94329" lon="0.83781">
        <ele>895</ele>
        <time>2019-08-08T10:29:56.000Z</time>
      </trkpt>
      <trkpt lat="42.9433" lon="0.83785">
        <ele>895</ele>
        <time>2019-08-08T10:29:57.000Z</time>
      </trkpt>
      <trkpt lat="42.94331" lon="0.83788">
        <ele>895</ele>
        <time>2019-08-08T10:29:58.000Z</time>
      </trkpt>
      <trkpt lat="42.94331" lon="0.83791">
        <ele>895</ele>
        <time>2019-08-08T10:29:59.000Z</time>
      </trkpt>
      <trkpt lat="42.94332" lon="0.83795">
        <ele>895</ele>
        <time>2019-08-08T10:30:00.000Z</time>
      </trkpt>
      <trkpt lat="42.94333" lon="0.83798">
        <ele>895</ele>
        <time>2019-08-08T10:30:01.000Z</time>
      </trkpt>
      <trkpt lat="42.94333" lon="0.83801">
        <ele>896</ele>
        <time>2019-08-08T10:30:02.000Z</time>
      </trkpt>
      <trkpt lat="42.94334" lon="0.83804">
        <ele>896</ele>
        <time>2019-08-08T10:30:03.000Z</time>
      </trkpt>
      <trkpt lat="42.94335" lon="0.83807">
        <ele>897</ele>
        <time>2019-08-08T10:30:04.000Z</time>
      </trkpt>
      <trkpt lat="42.94336" lon="0.8381">
        <ele>897</ele>
        <time>2019-08-08T10:30:05.000Z</time>
      </trkpt>
      <trkpt lat="42.94337" lon="0.83814">
        <ele>897</ele>
        <time>2019-08-08T10:30:06.000Z</time>
      </trkpt>
      <trkpt lat="42.94337" lon="0.83817">
        <ele>897</ele>
        <time>2019-08-08T10:30:07.000Z</time>
      </trkpt>
      <trkpt lat="42.94337" lon="0.83817">
        <ele>898</ele>
        <time>2019-08-08T10:30:08.000Z</time>
      </trkpt>
      <trkpt lat="42.94336" lon="0.83824">
        <ele>898</ele>
        <time>2019-08-08T10:30:09.000Z</time>
      </trkpt>
      <trkpt lat="42.94336" lon="0.83828">
        <ele>898</ele>
        <time>2019-08-08T10:30:10.000Z</time>
      </trkpt>
      <trkpt lat="42.94336" lon="0.83832">
        <ele>898</ele>
        <time>2019-08-08T10:30:11.000Z</time>
      </trkpt>
      <trkpt lat="42.94335" lon="0.83835">
        <ele>899</ele>
        <time>2019-08-08T10:30:12.000Z</time>
      </trkpt>
      <trkpt lat="42.94334" lon="0.83838">
        <ele>899</ele>
        <time>2019-08-08T10:30:13.000Z</time>
      </trkpt>
      <trkpt lat="42.94332" lon="0.8384">
        <ele>899</ele>
        <time>2019-08-08T10:30:14.000Z</time>
      </trkpt>
      <trkpt lat="42.94329" lon="0.83843">
        <ele>899</ele>
        <time>2019-08-08T10:30:15.000Z</time>
      </trkpt>
      <trkpt lat="42.94327" lon="0.83845">
        <ele>899</ele>
        <time>2019-08-08T10:30:16.000Z</time>
      </trkpt>
      <trkpt lat="42.94324" lon="0.83847">
        <ele>899</ele>
        <time>2019-08-08T10:30:17.000Z</time>
      </trkpt>
      <trkpt lat="42.94322" lon="0.83849">
        <ele>900</ele>
        <time>2019-08-08T10:30:18.000Z</time>
      </trkpt>
      <trkpt lat="42.94319" lon="0.8385">
        <ele>900</ele>
        <time>2019-08-08T10:30:19.000Z</time>
      </trkpt>
      <trkpt lat="42.94316" lon="0.83851">
        <ele>901</ele>
        <time>2019-08-08T10:30:20.000Z</time>
      </trkpt>
      <trkpt lat="42.94313" lon="0.83852">
        <ele>901</ele>
        <time>2019-08-08T10:30:21.000Z</time>
      </trkpt>
      <trkpt lat="42.9431" lon="0.83853">
        <ele>901</ele>
        <time>2019-08-08T10:30:22.000Z</time>
      </trkpt>
      <trkpt lat="42.94308" lon="0.83854">
        <ele>901</ele>
        <time>2019-08-08T10:30:23.000Z</time>
      </trkpt>
      <trkpt lat="42.94305" lon="0.83855">
        <ele>901</ele>
        <time>2019-08-08T10:30:24.000Z</time>
      </trkpt>
      <trkpt lat="42.94303" lon="0.83856">
        <ele>901</ele>
        <time>2019-08-08T10:30:25.000Z</time>
      </trkpt>
      <trkpt lat="42.943" lon="0.83857">
        <ele>901</ele>
        <time>2019-08-08T10:30:26.000Z</time>
      </trkpt>
      <trkpt lat="42.94298" lon="0.83858">
        <ele>902</ele>
        <time>2019-08-08T10:30:27.000Z</time>
      </trkpt>
      <trkpt lat="42.94295" lon="0.83859">
        <ele>902</ele>
        <time>2019-08-08T10:30:28.000Z</time>
      </trkpt>
      <trkpt lat="42.94293" lon="0.8386">
        <ele>902</ele>
        <time>2019-08-08T10:30:29.000Z</time>
      </trkpt>
      <trkpt lat="42.94291" lon="0.83861">
        <ele>903</ele>
        <time>2019-08-08T10:30:30.000Z</time>
      </trkpt>
      <trkpt lat="42.94288" lon="0.83863">
        <ele>903</ele>
        <time>2019-08-08T10:30:31.000Z</time>
      </trkpt>
      <trkpt lat="42.94286" lon="0.83864">
        <ele>903</ele>
        <time>2019-08-08T10:30:32.000Z</time>
      </trkpt>
      <trkpt lat="42.94284" lon="0.83866">
        <ele>903</ele>
        <time>2019-08-08T10:30:33.000Z</time>
      </trkpt>
      <trkpt lat="42.94282" lon="0.83867">
        <ele>903</ele>
        <time>2019-08-08T10:30:34.000Z</time>
      </trkpt>
      <trkpt lat="42.9428" lon="0.83868">
        <ele>903</ele>
        <time>2019-08-08T10:30:35.000Z</time>
      </trkpt>
      <trkpt lat="42.94278" lon="0.83869">
        <ele>904</ele>
        <time>2019-08-08T10:30:36.000Z</time>
      </trkpt>
      <trkpt lat="42.94276" lon="0.8387">
        <ele>904</ele>
        <time>2019-08-08T10:30:37.000Z</time>
      </trkpt>
      <trkpt lat="42.94274" lon="0.83871">
        <ele>904</ele>
        <time>2019-08-08T10:30:38.000Z</time>
      </trkpt>
      <trkpt lat="42.94272" lon="0.83872">
        <ele>904</ele>
        <time>2019-08-08T10:30:39.000Z</time>
      </trkpt>
      <trkpt lat="42.9427" lon="0.83874">
        <ele>905</ele>
        <time>2019-08-08T10:30:40.000Z</time>
      </trkpt>
      <trkpt lat="42.94268" lon="0.83876">
        <ele>905</ele>
        <time>2019-08-08T10:30:41.000Z</time>
      </trkpt>
      <trkpt lat="42.94265" lon="0.83877">
        <ele>906</ele>
        <time>2019-08-08T10:30:42.000Z</time>
      </trkpt>
      <trkpt lat="42.94263" lon="0.83879">
        <ele>906</ele>
        <time>2019-08-08T10:30:43.000Z</time>
      </trkpt>
      <trkpt lat="42.94261" lon="0.8388">
        <ele>907</ele>
        <time>2019-08-08T10:30:44.000Z</time>
      </trkpt>
      <trkpt lat="42.94259" lon="0.83882">
        <ele>907</ele>
        <time>2019-08-08T10:30:45.000Z</time>
      </trkpt>
      <trkpt lat="42.94257" lon="0.83883">
        <ele>907</ele>
        <time>2019-08-08T10:30:46.000Z</time>
      </trkpt>
      <trkpt lat="42.94255" lon="0.83885">
        <ele>907</ele>
        <time>2019-08-08T10:30:47.000Z</time>
      </trkpt>
      <trkpt lat="42.94253" lon="0.83886">
        <ele>907</ele>
        <time>2019-08-08T10:30:48.000Z</time>
      </trkpt>
      <trkpt lat="42.94251" lon="0.83888">
        <ele>907</ele>
        <time>2019-08-08T10:30:49.000Z</time>
      </trkpt>
      <trkpt lat="42.94249" lon="0.8389">
        <ele>908</ele>
        <time>2019-08-08T10:30:50.000Z</time>
      </trkpt>
      <trkpt lat="42.94248" lon="0.83893">
        <ele>908</ele>
        <time>2019-08-08T10:30:51.000Z</time>
      </trkpt>
      <trkpt lat="42.94247" lon="0.83896">
        <ele>909</ele>
        <time>2019-08-08T10:30:52.000Z</time>
      </trkpt>
      <trkpt lat="42.94247" lon="0.83899">
        <ele>909</ele>
        <time>2019-08-08T10:30:53.000Z</time>
      </trkpt>
      <trkpt lat="42.94247" lon="0.83902">
        <ele>909</ele>
        <time>2019-08-08T10:30:54.000Z</time>
      </trkpt>
      <trkpt lat="42.94247" lon="0.83905">
        <ele>909</ele>
        <time>2019-08-08T10:30:55.000Z</time>
      </trkpt>
      <trkpt lat="42.94248" lon="0.83908">
        <ele>909</ele>
        <time>2019-08-08T10:30:56.000Z</time>
      </trkpt>
      <trkpt lat="42.94249" lon="0.8391">
        <ele>909</ele>
        <time>2019-08-08T10:30:57.000Z</time>
      </trkpt>
      <trkpt lat="42.9425" lon="0.83912">
        <ele>909</ele>
        <time>2019-08-08T10:30:58.000Z</time>
      </trkpt>
      <trkpt lat="42.94252" lon="0.83914">
        <ele>909</ele>
        <time>2019-08-08T10:30:59.000Z</time>
      </trkpt>
      <trkpt lat="42.94253" lon="0.83916">
        <ele>910</ele>
        <time>2019-08-08T10:31:00.000Z</time>
      </trkpt>
      <trkpt lat="42.94253" lon="0.83916">
        <ele>910</ele>
        <time>2019-08-08T10:31:01.000Z</time>
      </trkpt>
      <trkpt lat="42.94256" lon="0.83918">
        <ele>910</ele>
        <time>2019-08-08T10:31:02.000Z</time>
      </trkpt>
      <trkpt lat="42.94256" lon="0.83918">
        <ele>910</ele>
        <time>2019-08-08T10:31:03.000Z</time>
      </trkpt>
      <trkpt lat="42.94259" lon="0.83919">
        <ele>910</ele>
        <time>2019-08-08T10:31:04.000Z</time>
      </trkpt>
      <trkpt lat="42.94261" lon="0.8392">
        <ele>910</ele>
        <time>2019-08-08T10:31:05.000Z</time>
      </trkpt>
      <trkpt lat="42.94262" lon="0.83921">
        <ele>911</ele>
        <time>2019-08-08T10:31:06.000Z</time>
      </trkpt>
      <trkpt lat="42.94262" lon="0.83921">
        <ele>911</ele>
        <time>2019-08-08T10:31:07.000Z</time>
      </trkpt>
      <trkpt lat="42.94265" lon="0.83922">
        <ele>911</ele>
        <time>2019-08-08T10:31:08.000Z</time>
      </trkpt>
      <trkpt lat="42.94265" lon="0.83922">
        <ele>911</ele>
        <time>2019-08-08T10:31:09.000Z</time>
      </trkpt>
      <trkpt lat="42.94265" lon="0.83922">
        <ele>911</ele>
        <time>2019-08-08T10:31:10.000Z</time>
      </trkpt>
      <trkpt lat="42.94267" lon="0.83924">
        <ele>911</ele>
        <time>2019-08-08T10:31:11.000Z</time>
      </trkpt>
      <trkpt lat="42.94267" lon="0.83924">
        <ele>912</ele>
        <time>2019-08-08T10:31:12.000Z</time>
      </trkpt>
      <trkpt lat="42.9427" lon="0.83924">
        <ele>912</ele>
        <time>2019-08-08T10:31:13.000Z</time>
      </trkpt>
      <trkpt lat="42.9427" lon="0.83924">
        <ele>912</ele>
        <time>2019-08-08T10:31:14.000Z</time>
      </trkpt>
      <trkpt lat="42.94273" lon="0.83926">
        <ele>912</ele>
        <time>2019-08-08T10:31:15.000Z</time>
      </trkpt>
      <trkpt lat="42.94274" lon="0.83927">
        <ele>912</ele>
        <time>2019-08-08T10:31:16.000Z</time>
      </trkpt>
      <trkpt lat="42.94274" lon="0.83927">
        <ele>912</ele>
        <time>2019-08-08T10:31:17.000Z</time>
      </trkpt>
      <trkpt lat="42.94277" lon="0.83929">
        <ele>912</ele>
        <time>2019-08-08T10:31:18.000Z</time>
      </trkpt>
      <trkpt lat="42.94279" lon="0.8393">
        <ele>913</ele>
        <time>2019-08-08T10:31:19.000Z</time>
      </trkpt>
      <trkpt lat="42.94281" lon="0.83932">
        <ele>913</ele>
        <time>2019-08-08T10:31:20.000Z</time>
      </trkpt>
      <trkpt lat="42.94281" lon="0.83932">
        <ele>913</ele>
        <time>2019-08-08T10:31:21.000Z</time>
      </trkpt>
      <trkpt lat="42.94284" lon="0.83934">
        <ele>913</ele>
        <time>2019-08-08T10:31:22.000Z</time>
      </trkpt>
      <trkpt lat="42.94286" lon="0.83935">
        <ele>914</ele>
        <time>2019-08-08T10:31:23.000Z</time>
      </trkpt>
      <trkpt lat="42.94289" lon="0.83939">
        <ele>914</ele>
        <time>2019-08-08T10:31:24.000Z</time>
      </trkpt>
      <trkpt lat="42.9429" lon="0.8394">
        <ele>914</ele>
        <time>2019-08-08T10:31:25.000Z</time>
      </trkpt>
      <trkpt lat="42.94293" lon="0.83943">
        <ele>914</ele>
        <time>2019-08-08T10:31:26.000Z</time>
      </trkpt>
      <trkpt lat="42.94295" lon="0.83946">
        <ele>914</ele>
        <time>2019-08-08T10:31:27.000Z</time>
      </trkpt>
      <trkpt lat="42.94297" lon="0.83949">
        <ele>915</ele>
        <time>2019-08-08T10:31:28.000Z</time>
      </trkpt>
      <trkpt lat="42.943" lon="0.83953">
        <ele>915</ele>
        <time>2019-08-08T10:31:29.000Z</time>
      </trkpt>
      <trkpt lat="42.94302" lon="0.83955">
        <ele>916</ele>
        <time>2019-08-08T10:31:30.000Z</time>
      </trkpt>
      <trkpt lat="42.94305" lon="0.83958">
        <ele>916</ele>
        <time>2019-08-08T10:31:31.000Z</time>
      </trkpt>
      <trkpt lat="42.94306" lon="0.83962">
        <ele>916</ele>
        <time>2019-08-08T10:31:32.000Z</time>
      </trkpt>
      <trkpt lat="42.94308" lon="0.83964">
        <ele>916</ele>
        <time>2019-08-08T10:31:33.000Z</time>
      </trkpt>
      <trkpt lat="42.94309" lon="0.83967">
        <ele>917</ele>
        <time>2019-08-08T10:31:34.000Z</time>
      </trkpt>
      <trkpt lat="42.94311" lon="0.8397">
        <ele>917</ele>
        <time>2019-08-08T10:31:35.000Z</time>
      </trkpt>
      <trkpt lat="42.94312" lon="0.83973">
        <ele>917</ele>
        <time>2019-08-08T10:31:36.000Z</time>
      </trkpt>
      <trkpt lat="42.94313" lon="0.83976">
        <ele>917</ele>
        <time>2019-08-08T10:31:37.000Z</time>
      </trkpt>
      <trkpt lat="42.94315" lon="0.83979">
        <ele>918</ele>
        <time>2019-08-08T10:31:38.000Z</time>
      </trkpt>
      <trkpt lat="42.94316" lon="0.83982">
        <ele>918</ele>
        <time>2019-08-08T10:31:39.000Z</time>
      </trkpt>
      <trkpt lat="42.94317" lon="0.83984">
        <ele>918</ele>
        <time>2019-08-08T10:31:40.000Z</time>
      </trkpt>
      <trkpt lat="42.94318" lon="0.83987">
        <ele>918</ele>
        <time>2019-08-08T10:31:41.000Z</time>
      </trkpt>
      <trkpt lat="42.9432" lon="0.8399">
        <ele>919</ele>
        <time>2019-08-08T10:31:42.000Z</time>
      </trkpt>
      <trkpt lat="42.94321" lon="0.83993">
        <ele>919</ele>
        <time>2019-08-08T10:31:43.000Z</time>
      </trkpt>
      <trkpt lat="42.94322" lon="0.83996">
        <ele>919</ele>
        <time>2019-08-08T10:31:44.000Z</time>
      </trkpt>
      <trkpt lat="42.94323" lon="0.83999">
        <ele>919</ele>
        <time>2019-08-08T10:31:45.000Z</time>
      </trkpt>
      <trkpt lat="42.94325" lon="0.84002">
        <ele>919</ele>
        <time>2019-08-08T10:31:46.000Z</time>
      </trkpt>
      <trkpt lat="42.94326" lon="0.84005">
        <ele>920</ele>
        <time>2019-08-08T10:31:47.000Z</time>
      </trkpt>
      <trkpt lat="42.94328" lon="0.84009">
        <ele>920</ele>
        <time>2019-08-08T10:31:48.000Z</time>
      </trkpt>
      <trkpt lat="42.94329" lon="0.84012">
        <ele>920</ele>
        <time>2019-08-08T10:31:49.000Z</time>
      </trkpt>
      <trkpt lat="42.9433" lon="0.84015">
        <ele>920</ele>
        <time>2019-08-08T10:31:50.000Z</time>
      </trkpt>
      <trkpt lat="42.94331" lon="0.84018">
        <ele>920</ele>
        <time>2019-08-08T10:31:51.000Z</time>
      </trkpt>
      <trkpt lat="42.94333" lon="0.84021">
        <ele>920</ele>
        <time>2019-08-08T10:31:52.000Z</time>
      </trkpt>
      <trkpt lat="42.94334" lon="0.84023">
        <ele>921</ele>
        <time>2019-08-08T10:31:53.000Z</time>
      </trkpt>
      <trkpt lat="42.94335" lon="0.84026">
        <ele>921</ele>
        <time>2019-08-08T10:31:54.000Z</time>
      </trkpt>
      <trkpt lat="42.94337" lon="0.84029">
        <ele>921</ele>
        <time>2019-08-08T10:31:55.000Z</time>
      </trkpt>
      <trkpt lat="42.94338" lon="0.84032">
        <ele>921</ele>
        <time>2019-08-08T10:31:56.000Z</time>
      </trkpt>
      <trkpt lat="42.94339" lon="0.84035">
        <ele>921</ele>
        <time>2019-08-08T10:31:57.000Z</time>
      </trkpt>
      <trkpt lat="42.9434" lon="0.84038">
        <ele>921</ele>
        <time>2019-08-08T10:31:58.000Z</time>
      </trkpt>
      <trkpt lat="42.94342" lon="0.84041">
        <ele>921</ele>
        <time>2019-08-08T10:31:59.000Z</time>
      </trkpt>
      <trkpt lat="42.94344" lon="0.84043">
        <ele>922</ele>
        <time>2019-08-08T10:32:00.000Z</time>
      </trkpt>
      <trkpt lat="42.94345" lon="0.84045">
        <ele>922</ele>
        <time>2019-08-08T10:32:01.000Z</time>
      </trkpt>
      <trkpt lat="42.94346" lon="0.84048">
        <ele>924</ele>
        <time>2019-08-08T10:32:02.000Z</time>
      </trkpt>
      <trkpt lat="42.94348" lon="0.8405">
        <ele>924</ele>
        <time>2019-08-08T10:32:03.000Z</time>
      </trkpt>
      <trkpt lat="42.94348" lon="0.8405">
        <ele>924</ele>
        <time>2019-08-08T10:32:04.000Z</time>
      </trkpt>
      <trkpt lat="42.9435" lon="0.84053">
        <ele>925</ele>
        <time>2019-08-08T10:32:05.000Z</time>
      </trkpt>
      <trkpt lat="42.94351" lon="0.84055">
        <ele>925</ele>
        <time>2019-08-08T10:32:06.000Z</time>
      </trkpt>
      <trkpt lat="42.94353" lon="0.84057">
        <ele>925</ele>
        <time>2019-08-08T10:32:07.000Z</time>
      </trkpt>
      <trkpt lat="42.94355" lon="0.8406">
        <ele>925</ele>
        <time>2019-08-08T10:32:08.000Z</time>
      </trkpt>
      <trkpt lat="42.94357" lon="0.84062">
        <ele>925</ele>
        <time>2019-08-08T10:32:09.000Z</time>
      </trkpt>
      <trkpt lat="42.94359" lon="0.84064">
        <ele>925</ele>
        <time>2019-08-08T10:32:10.000Z</time>
      </trkpt>
      <trkpt lat="42.94359" lon="0.84064">
        <ele>925</ele>
        <time>2019-08-08T10:32:11.000Z</time>
      </trkpt>
      <trkpt lat="42.94361" lon="0.84067">
        <ele>925</ele>
        <time>2019-08-08T10:32:12.000Z</time>
      </trkpt>
      <trkpt lat="42.94361" lon="0.84067">
        <ele>926</ele>
        <time>2019-08-08T10:32:13.000Z</time>
      </trkpt>
      <trkpt lat="42.94364" lon="0.84071">
        <ele>926</ele>
        <time>2019-08-08T10:32:14.000Z</time>
      </trkpt>
      <trkpt lat="42.94365" lon="0.84073">
        <ele>927</ele>
        <time>2019-08-08T10:32:15.000Z</time>
      </trkpt>
      <trkpt lat="42.94367" lon="0.84074">
        <ele>927</ele>
        <time>2019-08-08T10:32:16.000Z</time>
      </trkpt>
      <trkpt lat="42.94369" lon="0.84077">
        <ele>928</ele>
        <time>2019-08-08T10:32:17.000Z</time>
      </trkpt>
      <trkpt lat="42.94372" lon="0.8408">
        <ele>928</ele>
        <time>2019-08-08T10:32:18.000Z</time>
      </trkpt>
      <trkpt lat="42.94375" lon="0.84082">
        <ele>928</ele>
        <time>2019-08-08T10:32:19.000Z</time>
      </trkpt>
      <trkpt lat="42.94378" lon="0.84086">
        <ele>928</ele>
        <time>2019-08-08T10:32:20.000Z</time>
      </trkpt>
      <trkpt lat="42.94379" lon="0.84088">
        <ele>928</ele>
        <time>2019-08-08T10:32:21.000Z</time>
      </trkpt>
      <trkpt lat="42.94381" lon="0.8409">
        <ele>928</ele>
        <time>2019-08-08T10:32:22.000Z</time>
      </trkpt>
      <trkpt lat="42.94382" lon="0.84093">
        <ele>928</ele>
        <time>2019-08-08T10:32:23.000Z</time>
      </trkpt>
      <trkpt lat="42.94384" lon="0.84096">
        <ele>928</ele>
        <time>2019-08-08T10:32:24.000Z</time>
      </trkpt>
      <trkpt lat="42.94386" lon="0.84098">
        <ele>928</ele>
        <time>2019-08-08T10:32:25.000Z</time>
      </trkpt>
      <trkpt lat="42.94387" lon="0.84101">
        <ele>928</ele>
        <time>2019-08-08T10:32:26.000Z</time>
      </trkpt>
      <trkpt lat="42.94388" lon="0.84104">
        <ele>929</ele>
        <time>2019-08-08T10:32:27.000Z</time>
      </trkpt>
      <trkpt lat="42.9439" lon="0.84108">
        <ele>929</ele>
        <time>2019-08-08T10:32:28.000Z</time>
      </trkpt>
      <trkpt lat="42.94391" lon="0.84111">
        <ele>930</ele>
        <time>2019-08-08T10:32:29.000Z</time>
      </trkpt>
      <trkpt lat="42.94393" lon="0.84115">
        <ele>930</ele>
        <time>2019-08-08T10:32:30.000Z</time>
      </trkpt>
      <trkpt lat="42.94394" lon="0.84117">
        <ele>930</ele>
        <time>2019-08-08T10:32:31.000Z</time>
      </trkpt>
      <trkpt lat="42.94395" lon="0.8412">
        <ele>930</ele>
        <time>2019-08-08T10:32:32.000Z</time>
      </trkpt>
      <trkpt lat="42.94396" lon="0.84122">
        <ele>931</ele>
        <time>2019-08-08T10:32:33.000Z</time>
      </trkpt>
      <trkpt lat="42.94397" lon="0.84126">
        <ele>931</ele>
        <time>2019-08-08T10:32:34.000Z</time>
      </trkpt>
      <trkpt lat="42.94398" lon="0.8413">
        <ele>932</ele>
        <time>2019-08-08T10:32:35.000Z</time>
      </trkpt>
      <trkpt lat="42.94399" lon="0.84134">
        <ele>932</ele>
        <time>2019-08-08T10:32:36.000Z</time>
      </trkpt>
      <trkpt lat="42.94399" lon="0.84137">
        <ele>932</ele>
        <time>2019-08-08T10:32:37.000Z</time>
      </trkpt>
      <trkpt lat="42.944" lon="0.8414">
        <ele>932</ele>
        <time>2019-08-08T10:32:38.000Z</time>
      </trkpt>
      <trkpt lat="42.94401" lon="0.84143">
        <ele>933</ele>
        <time>2019-08-08T10:32:39.000Z</time>
      </trkpt>
      <trkpt lat="42.94402" lon="0.84146">
        <ele>933</ele>
        <time>2019-08-08T10:32:40.000Z</time>
      </trkpt>
      <trkpt lat="42.94403" lon="0.8415">
        <ele>933</ele>
        <time>2019-08-08T10:32:41.000Z</time>
      </trkpt>
      <trkpt lat="42.94404" lon="0.84153">
        <ele>933</ele>
        <time>2019-08-08T10:32:42.000Z</time>
      </trkpt>
      <trkpt lat="42.94404" lon="0.84156">
        <ele>933</ele>
        <time>2019-08-08T10:32:43.000Z</time>
      </trkpt>
      <trkpt lat="42.94405" lon="0.84159">
        <ele>934</ele>
        <time>2019-08-08T10:32:44.000Z</time>
      </trkpt>
      <trkpt lat="42.94406" lon="0.84162">
        <ele>934</ele>
        <time>2019-08-08T10:32:45.000Z</time>
      </trkpt>
      <trkpt lat="42.94406" lon="0.84166">
        <ele>934</ele>
        <time>2019-08-08T10:32:46.000Z</time>
      </trkpt>
      <trkpt lat="42.94406" lon="0.84169">
        <ele>934</ele>
        <time>2019-08-08T10:32:47.000Z</time>
      </trkpt>
      <trkpt lat="42.94406" lon="0.84172">
        <ele>935</ele>
        <time>2019-08-08T10:32:48.000Z</time>
      </trkpt>
      <trkpt lat="42.94406" lon="0.84175">
        <ele>935</ele>
        <time>2019-08-08T10:32:49.000Z</time>
      </trkpt>
      <trkpt lat="42.94406" lon="0.84178">
        <ele>935</ele>
        <time>2019-08-08T10:32:50.000Z</time>
      </trkpt>
      <trkpt lat="42.94406" lon="0.84181">
        <ele>935</ele>
        <time>2019-08-08T10:32:51.000Z</time>
      </trkpt>
      <trkpt lat="42.94405" lon="0.84184">
        <ele>936</ele>
        <time>2019-08-08T10:32:52.000Z</time>
      </trkpt>
      <trkpt lat="42.94405" lon="0.84188">
        <ele>936</ele>
        <time>2019-08-08T10:32:53.000Z</time>
      </trkpt>
      <trkpt lat="42.94405" lon="0.84191">
        <ele>937</ele>
        <time>2019-08-08T10:32:54.000Z</time>
      </trkpt>
      <trkpt lat="42.94405" lon="0.84195">
        <ele>937</ele>
        <time>2019-08-08T10:32:55.000Z</time>
      </trkpt>
      <trkpt lat="42.94405" lon="0.84197">
        <ele>937</ele>
        <time>2019-08-08T10:32:56.000Z</time>
      </trkpt>
      <trkpt lat="42.94404" lon="0.842">
        <ele>937</ele>
        <time>2019-08-08T10:32:57.000Z</time>
      </trkpt>
      <trkpt lat="42.94404" lon="0.84203">
        <ele>937</ele>
        <time>2019-08-08T10:32:58.000Z</time>
      </trkpt>
      <trkpt lat="42.94403" lon="0.84206">
        <ele>937</ele>
        <time>2019-08-08T10:32:59.000Z</time>
      </trkpt>
      <trkpt lat="42.94402" lon="0.84209">
        <ele>937</ele>
        <time>2019-08-08T10:33:00.000Z</time>
      </trkpt>
      <trkpt lat="42.94401" lon="0.84212">
        <ele>937</ele>
        <time>2019-08-08T10:33:01.000Z</time>
      </trkpt>
      <trkpt lat="42.944" lon="0.84215">
        <ele>938</ele>
        <time>2019-08-08T10:33:02.000Z</time>
      </trkpt>
      <trkpt lat="42.94399" lon="0.84218">
        <ele>938</ele>
        <time>2019-08-08T10:33:03.000Z</time>
      </trkpt>
      <trkpt lat="42.94398" lon="0.84221">
        <ele>938</ele>
        <time>2019-08-08T10:33:04.000Z</time>
      </trkpt>
      <trkpt lat="42.94397" lon="0.84224">
        <ele>938</ele>
        <time>2019-08-08T10:33:05.000Z</time>
      </trkpt>
      <trkpt lat="42.94396" lon="0.84227">
        <ele>939</ele>
        <time>2019-08-08T10:33:06.000Z</time>
      </trkpt>
      <trkpt lat="42.94394" lon="0.84229">
        <ele>939</ele>
        <time>2019-08-08T10:33:07.000Z</time>
      </trkpt>
      <trkpt lat="42.94393" lon="0.84232">
        <ele>939</ele>
        <time>2019-08-08T10:33:08.000Z</time>
      </trkpt>
      <trkpt lat="42.94391" lon="0.84235">
        <ele>939</ele>
        <time>2019-08-08T10:33:09.000Z</time>
      </trkpt>
      <trkpt lat="42.9439" lon="0.84237">
        <ele>941</ele>
        <time>2019-08-08T10:33:10.000Z</time>
      </trkpt>
      <trkpt lat="42.94388" lon="0.8424">
        <ele>941</ele>
        <time>2019-08-08T10:33:11.000Z</time>
      </trkpt>
      <trkpt lat="42.94388" lon="0.84243">
        <ele>941</ele>
        <time>2019-08-08T10:33:12.000Z</time>
      </trkpt>
      <trkpt lat="42.94387" lon="0.84246">
        <ele>941</ele>
        <time>2019-08-08T10:33:13.000Z</time>
      </trkpt>
      <trkpt lat="42.94387" lon="0.84249">
        <ele>941</ele>
        <time>2019-08-08T10:33:14.000Z</time>
      </trkpt>
      <trkpt lat="42.94387" lon="0.84251">
        <ele>941</ele>
        <time>2019-08-08T10:33:15.000Z</time>
      </trkpt>
      <trkpt lat="42.94386" lon="0.84254">
        <ele>941</ele>
        <time>2019-08-08T10:33:16.000Z</time>
      </trkpt>
      <trkpt lat="42.94386" lon="0.84254">
        <ele>941</ele>
        <time>2019-08-08T10:33:17.000Z</time>
      </trkpt>
      <trkpt lat="42.94385" lon="0.84257">
        <ele>942</ele>
        <time>2019-08-08T10:33:18.000Z</time>
      </trkpt>
      <trkpt lat="42.94385" lon="0.84257">
        <ele>942</ele>
        <time>2019-08-08T10:33:19.000Z</time>
      </trkpt>
      <trkpt lat="42.94385" lon="0.84257">
        <ele>942</ele>
        <time>2019-08-08T10:33:20.000Z</time>
      </trkpt>
      <trkpt lat="42.94388" lon="0.84259">
        <ele>943</ele>
        <time>2019-08-08T10:33:21.000Z</time>
      </trkpt>
      <trkpt lat="42.9439" lon="0.8426">
        <ele>943</ele>
        <time>2019-08-08T10:33:22.000Z</time>
      </trkpt>
      <trkpt lat="42.9439" lon="0.8426">
        <ele>943</ele>
        <time>2019-08-08T10:33:23.000Z</time>
      </trkpt>
      <trkpt lat="42.94393" lon="0.84262">
        <ele>943</ele>
        <time>2019-08-08T10:33:24.000Z</time>
      </trkpt>
      <trkpt lat="42.94395" lon="0.84263">
        <ele>943</ele>
        <time>2019-08-08T10:33:25.000Z</time>
      </trkpt>
      <trkpt lat="42.94397" lon="0.84264">
        <ele>943</ele>
        <time>2019-08-08T10:33:26.000Z</time>
      </trkpt>
      <trkpt lat="42.94399" lon="0.84264">
        <ele>944</ele>
        <time>2019-08-08T10:33:27.000Z</time>
      </trkpt>
      <trkpt lat="42.944" lon="0.84264">
        <ele>944</ele>
        <time>2019-08-08T10:33:28.000Z</time>
      </trkpt>
      <trkpt lat="42.944" lon="0.84264">
        <ele>945</ele>
        <time>2019-08-08T10:33:29.000Z</time>
      </trkpt>
      <trkpt lat="42.94403" lon="0.84266">
        <ele>945</ele>
        <time>2019-08-08T10:33:30.000Z</time>
      </trkpt>
      <trkpt lat="42.94405" lon="0.84269">
        <ele>945</ele>
        <time>2019-08-08T10:33:31.000Z</time>
      </trkpt>
      <trkpt lat="42.94408" lon="0.84272">
        <ele>945</ele>
        <time>2019-08-08T10:33:32.000Z</time>
      </trkpt>
      <trkpt lat="42.9441" lon="0.84275">
        <ele>945</ele>
        <time>2019-08-08T10:33:33.000Z</time>
      </trkpt>
      <trkpt lat="42.94413" lon="0.84277">
        <ele>945</ele>
        <time>2019-08-08T10:33:34.000Z</time>
      </trkpt>
      <trkpt lat="42.94415" lon="0.8428">
        <ele>946</ele>
        <time>2019-08-08T10:33:35.000Z</time>
      </trkpt>
      <trkpt lat="42.94417" lon="0.84282">
        <ele>946</ele>
        <time>2019-08-08T10:33:36.000Z</time>
      </trkpt>
      <trkpt lat="42.94419" lon="0.84284">
        <ele>946</ele>
        <time>2019-08-08T10:33:37.000Z</time>
      </trkpt>
      <trkpt lat="42.94422" lon="0.84287">
        <ele>946</ele>
        <time>2019-08-08T10:33:38.000Z</time>
      </trkpt>
      <trkpt lat="42.94424" lon="0.84289">
        <ele>946</ele>
        <time>2019-08-08T10:33:39.000Z</time>
      </trkpt>
      <trkpt lat="42.94427" lon="0.84292">
        <ele>946</ele>
        <time>2019-08-08T10:33:40.000Z</time>
      </trkpt>
      <trkpt lat="42.94429" lon="0.84295">
        <ele>946</ele>
        <time>2019-08-08T10:33:41.000Z</time>
      </trkpt>
      <trkpt lat="42.94432" lon="0.84298">
        <ele>946</ele>
        <time>2019-08-08T10:33:42.000Z</time>
      </trkpt>
      <trkpt lat="42.94434" lon="0.84301">
        <ele>947</ele>
        <time>2019-08-08T10:33:43.000Z</time>
      </trkpt>
      <trkpt lat="42.94436" lon="0.84304">
        <ele>947</ele>
        <time>2019-08-08T10:33:44.000Z</time>
      </trkpt>
      <trkpt lat="42.94438" lon="0.84306">
        <ele>948</ele>
        <time>2019-08-08T10:33:45.000Z</time>
      </trkpt>
      <trkpt lat="42.9444" lon="0.84309">
        <ele>948</ele>
        <time>2019-08-08T10:33:46.000Z</time>
      </trkpt>
      <trkpt lat="42.94442" lon="0.8431">
        <ele>948</ele>
        <time>2019-08-08T10:33:47.000Z</time>
      </trkpt>
      <trkpt lat="42.94442" lon="0.8431">
        <ele>948</ele>
        <time>2019-08-08T10:33:48.000Z</time>
      </trkpt>
      <trkpt lat="42.94444" lon="0.84314">
        <ele>948</ele>
        <time>2019-08-08T10:33:49.000Z</time>
      </trkpt>
      <trkpt lat="42.94446" lon="0.84316">
        <ele>948</ele>
        <time>2019-08-08T10:33:50.000Z</time>
      </trkpt>
      <trkpt lat="42.94447" lon="0.84318">
        <ele>948</ele>
        <time>2019-08-08T10:33:51.000Z</time>
      </trkpt>
      <trkpt lat="42.94448" lon="0.8432">
        <ele>948</ele>
        <time>2019-08-08T10:33:52.000Z</time>
      </trkpt>
      <trkpt lat="42.94449" lon="0.84322">
        <ele>949</ele>
        <time>2019-08-08T10:33:53.000Z</time>
      </trkpt>
      <trkpt lat="42.94451" lon="0.84324">
        <ele>949</ele>
        <time>2019-08-08T10:33:54.000Z</time>
      </trkpt>
      <trkpt lat="42.94452" lon="0.84327">
        <ele>950</ele>
        <time>2019-08-08T10:33:55.000Z</time>
      </trkpt>
      <trkpt lat="42.94453" lon="0.8433">
        <ele>950</ele>
        <time>2019-08-08T10:33:56.000Z</time>
      </trkpt>
      <trkpt lat="42.94454" lon="0.84333">
        <ele>950</ele>
        <time>2019-08-08T10:33:57.000Z</time>
      </trkpt>
      <trkpt lat="42.94455" lon="0.84335">
        <ele>950</ele>
        <time>2019-08-08T10:33:58.000Z</time>
      </trkpt>
      <trkpt lat="42.94455" lon="0.84338">
        <ele>951</ele>
        <time>2019-08-08T10:33:59.000Z</time>
      </trkpt>
      <trkpt lat="42.94455" lon="0.84341">
        <ele>951</ele>
        <time>2019-08-08T10:34:00.000Z</time>
      </trkpt>
      <trkpt lat="42.94455" lon="0.84344">
        <ele>951</ele>
        <time>2019-08-08T10:34:01.000Z</time>
      </trkpt>
      <trkpt lat="42.94456" lon="0.84347">
        <ele>951</ele>
        <time>2019-08-08T10:34:02.000Z</time>
      </trkpt>
      <trkpt lat="42.94456" lon="0.84347">
        <ele>951</ele>
        <time>2019-08-08T10:34:03.000Z</time>
      </trkpt>
      <trkpt lat="42.94456" lon="0.84347">
        <ele>951</ele>
        <time>2019-08-08T10:34:04.000Z</time>
      </trkpt>
      <trkpt lat="42.94457" lon="0.8436">
        <ele>952</ele>
        <time>2019-08-08T10:34:05.000Z</time>
      </trkpt>
      <trkpt lat="42.94457" lon="0.8436">
        <ele>952</ele>
        <time>2019-08-08T10:34:06.000Z</time>
      </trkpt>
      <trkpt lat="42.94457" lon="0.8436">
        <ele>953</ele>
        <time>2019-08-08T10:34:07.000Z</time>
      </trkpt>
      <trkpt lat="42.94458" lon="0.84372">
        <ele>953</ele>
        <time>2019-08-08T10:34:08.000Z</time>
      </trkpt>
      <trkpt lat="42.94458" lon="0.84372">
        <ele>953</ele>
        <time>2019-08-08T10:34:09.000Z</time>
      </trkpt>
      <trkpt lat="42.94458" lon="0.84372">
        <ele>953</ele>
        <time>2019-08-08T10:34:10.000Z</time>
      </trkpt>
      <trkpt lat="42.94458" lon="0.84372">
        <ele>953</ele>
        <time>2019-08-08T10:34:11.000Z</time>
      </trkpt>
      <trkpt lat="42.94461" lon="0.84384">
        <ele>953</ele>
        <time>2019-08-08T10:34:12.000Z</time>
      </trkpt>
      <trkpt lat="42.94462" lon="0.84389">
        <ele>954</ele>
        <time>2019-08-08T10:34:13.000Z</time>
      </trkpt>
      <trkpt lat="42.94463" lon="0.8439">
        <ele>954</ele>
        <time>2019-08-08T10:34:14.000Z</time>
      </trkpt>
      <trkpt lat="42.94463" lon="0.84392">
        <ele>955</ele>
        <time>2019-08-08T10:34:15.000Z</time>
      </trkpt>
      <trkpt lat="42.94464" lon="0.84394">
        <ele>955</ele>
        <time>2019-08-08T10:34:16.000Z</time>
      </trkpt>
      <trkpt lat="42.94466" lon="0.844">
        <ele>955</ele>
        <time>2019-08-08T10:34:17.000Z</time>
      </trkpt>
      <trkpt lat="42.94467" lon="0.84404">
        <ele>956</ele>
        <time>2019-08-08T10:34:18.000Z</time>
      </trkpt>
      <trkpt lat="42.94468" lon="0.84408">
        <ele>956</ele>
        <time>2019-08-08T10:34:19.000Z</time>
      </trkpt>
      <trkpt lat="42.94469" lon="0.84412">
        <ele>956</ele>
        <time>2019-08-08T10:34:20.000Z</time>
      </trkpt>
      <trkpt lat="42.9447" lon="0.84414">
        <ele>956</ele>
        <time>2019-08-08T10:34:21.000Z</time>
      </trkpt>
      <trkpt lat="42.94471" lon="0.84417">
        <ele>956</ele>
        <time>2019-08-08T10:34:22.000Z</time>
      </trkpt>
      <trkpt lat="42.94472" lon="0.8442">
        <ele>957</ele>
        <time>2019-08-08T10:34:23.000Z</time>
      </trkpt>
      <trkpt lat="42.94474" lon="0.84424">
        <ele>957</ele>
        <time>2019-08-08T10:34:24.000Z</time>
      </trkpt>
      <trkpt lat="42.94475" lon="0.84427">
        <ele>957</ele>
        <time>2019-08-08T10:34:25.000Z</time>
      </trkpt>
      <trkpt lat="42.94476" lon="0.84429">
        <ele>957</ele>
        <time>2019-08-08T10:34:26.000Z</time>
      </trkpt>
      <trkpt lat="42.94477" lon="0.84432">
        <ele>958</ele>
        <time>2019-08-08T10:34:27.000Z</time>
      </trkpt>
      <trkpt lat="42.94478" lon="0.84435">
        <ele>958</ele>
        <time>2019-08-08T10:34:28.000Z</time>
      </trkpt>
      <trkpt lat="42.94478" lon="0.84437">
        <ele>959</ele>
        <time>2019-08-08T10:34:29.000Z</time>
      </trkpt>
      <trkpt lat="42.94479" lon="0.8444">
        <ele>959</ele>
        <time>2019-08-08T10:34:30.000Z</time>
      </trkpt>
      <trkpt lat="42.9448" lon="0.84442">
        <ele>959</ele>
        <time>2019-08-08T10:34:31.000Z</time>
      </trkpt>
      <trkpt lat="42.94482" lon="0.84445">
        <ele>959</ele>
        <time>2019-08-08T10:34:32.000Z</time>
      </trkpt>
      <trkpt lat="42.94484" lon="0.84448">
        <ele>959</ele>
        <time>2019-08-08T10:34:33.000Z</time>
      </trkpt>
      <trkpt lat="42.94485" lon="0.84451">
        <ele>959</ele>
        <time>2019-08-08T10:34:34.000Z</time>
      </trkpt>
      <trkpt lat="42.94487" lon="0.84455">
        <ele>960</ele>
        <time>2019-08-08T10:34:35.000Z</time>
      </trkpt>
      <trkpt lat="42.94487" lon="0.84456">
        <ele>960</ele>
        <time>2019-08-08T10:34:36.000Z</time>
      </trkpt>
      <trkpt lat="42.94488" lon="0.84459">
        <ele>960</ele>
        <time>2019-08-08T10:34:37.000Z</time>
      </trkpt>
      <trkpt lat="42.94489" lon="0.84462">
        <ele>960</ele>
        <time>2019-08-08T10:34:38.000Z</time>
      </trkpt>
      <trkpt lat="42.94489" lon="0.84465">
        <ele>961</ele>
        <time>2019-08-08T10:34:39.000Z</time>
      </trkpt>
      <trkpt lat="42.9449" lon="0.84467">
        <ele>961</ele>
        <time>2019-08-08T10:34:40.000Z</time>
      </trkpt>
      <trkpt lat="42.9449" lon="0.84467">
        <ele>961</ele>
        <time>2019-08-08T10:34:41.000Z</time>
      </trkpt>
      <trkpt lat="42.94489" lon="0.84472">
        <ele>961</ele>
        <time>2019-08-08T10:34:42.000Z</time>
      </trkpt>
      <trkpt lat="42.94489" lon="0.84475">
        <ele>961</ele>
        <time>2019-08-08T10:34:43.000Z</time>
      </trkpt>
      <trkpt lat="42.94489" lon="0.84478">
        <ele>961</ele>
        <time>2019-08-08T10:34:44.000Z</time>
      </trkpt>
      <trkpt lat="42.94488" lon="0.84481">
        <ele>963</ele>
        <time>2019-08-08T10:34:45.000Z</time>
      </trkpt>
      <trkpt lat="42.94488" lon="0.84486">
        <ele>963</ele>
        <time>2019-08-08T10:34:46.000Z</time>
      </trkpt>
      <trkpt lat="42.94488" lon="0.84489">
        <ele>963</ele>
        <time>2019-08-08T10:34:47.000Z</time>
      </trkpt>
      <trkpt lat="42.94488" lon="0.84492">
        <ele>963</ele>
        <time>2019-08-08T10:34:48.000Z</time>
      </trkpt>
      <trkpt lat="42.94487" lon="0.84494">
        <ele>963</ele>
        <time>2019-08-08T10:34:49.000Z</time>
      </trkpt>
      <trkpt lat="42.94486" lon="0.84497">
        <ele>963</ele>
        <time>2019-08-08T10:34:50.000Z</time>
      </trkpt>
      <trkpt lat="42.94486" lon="0.84497">
        <ele>963</ele>
        <time>2019-08-08T10:34:51.000Z</time>
      </trkpt>
      <trkpt lat="42.94486" lon="0.84497">
        <ele>963</ele>
        <time>2019-08-08T10:34:52.000Z</time>
      </trkpt>
      <trkpt lat="42.94485" lon="0.84509">
        <ele>965</ele>
        <time>2019-08-08T10:34:53.000Z</time>
      </trkpt>
      <trkpt lat="42.94485" lon="0.84511">
        <ele>965</ele>
        <time>2019-08-08T10:34:54.000Z</time>
      </trkpt>
      <trkpt lat="42.94485" lon="0.84515">
        <ele>965</ele>
        <time>2019-08-08T10:34:55.000Z</time>
      </trkpt>
      <trkpt lat="42.94485" lon="0.84518">
        <ele>965</ele>
        <time>2019-08-08T10:34:56.000Z</time>
      </trkpt>
      <trkpt lat="42.94485" lon="0.84521">
        <ele>965</ele>
        <time>2019-08-08T10:34:57.000Z</time>
      </trkpt>
      <trkpt lat="42.94484" lon="0.84524">
        <ele>965</ele>
        <time>2019-08-08T10:34:58.000Z</time>
      </trkpt>
      <trkpt lat="42.94484" lon="0.84524">
        <ele>965</ele>
        <time>2019-08-08T10:34:59.000Z</time>
      </trkpt>
      <trkpt lat="42.94484" lon="0.84524">
        <ele>966</ele>
        <time>2019-08-08T10:35:00.000Z</time>
      </trkpt>
      <trkpt lat="42.94483" lon="0.84534">
        <ele>966</ele>
        <time>2019-08-08T10:35:01.000Z</time>
      </trkpt>
      <trkpt lat="42.94482" lon="0.84538">
        <ele>966</ele>
        <time>2019-08-08T10:35:02.000Z</time>
      </trkpt>
      <trkpt lat="42.94482" lon="0.84542">
        <ele>966</ele>
        <time>2019-08-08T10:35:03.000Z</time>
      </trkpt>
      <trkpt lat="42.94481" lon="0.84545">
        <ele>967</ele>
        <time>2019-08-08T10:35:04.000Z</time>
      </trkpt>
      <trkpt lat="42.94481" lon="0.84545">
        <ele>967</ele>
        <time>2019-08-08T10:35:05.000Z</time>
      </trkpt>
      <trkpt lat="42.94481" lon="0.84545">
        <ele>967</ele>
        <time>2019-08-08T10:35:06.000Z</time>
      </trkpt>
      <trkpt lat="42.94481" lon="0.84545">
        <ele>967</ele>
        <time>2019-08-08T10:35:07.000Z</time>
      </trkpt>
      <trkpt lat="42.94479" lon="0.84558">
        <ele>968</ele>
        <time>2019-08-08T10:35:08.000Z</time>
      </trkpt>
      <trkpt lat="42.94478" lon="0.84561">
        <ele>968</ele>
        <time>2019-08-08T10:35:09.000Z</time>
      </trkpt>
      <trkpt lat="42.94477" lon="0.84565">
        <ele>968</ele>
        <time>2019-08-08T10:35:10.000Z</time>
      </trkpt>
      <trkpt lat="42.94476" lon="0.84568">
        <ele>969</ele>
        <time>2019-08-08T10:35:11.000Z</time>
      </trkpt>
      <trkpt lat="42.94476" lon="0.84571">
        <ele>969</ele>
        <time>2019-08-08T10:35:12.000Z</time>
      </trkpt>
      <trkpt lat="42.94476" lon="0.84574">
        <ele>969</ele>
        <time>2019-08-08T10:35:13.000Z</time>
      </trkpt>
      <trkpt lat="42.94475" lon="0.84577">
        <ele>970</ele>
        <time>2019-08-08T10:35:14.000Z</time>
      </trkpt>
      <trkpt lat="42.94475" lon="0.84579">
        <ele>970</ele>
        <time>2019-08-08T10:35:15.000Z</time>
      </trkpt>
      <trkpt lat="42.94474" lon="0.84582">
        <ele>970</ele>
        <time>2019-08-08T10:35:16.000Z</time>
      </trkpt>
      <trkpt lat="42.94473" lon="0.84585">
        <ele>970</ele>
        <time>2019-08-08T10:35:17.000Z</time>
      </trkpt>
      <trkpt lat="42.94472" lon="0.84588">
        <ele>970</ele>
        <time>2019-08-08T10:35:18.000Z</time>
      </trkpt>
      <trkpt lat="42.94471" lon="0.84591">
        <ele>970</ele>
        <time>2019-08-08T10:35:19.000Z</time>
      </trkpt>
      <trkpt lat="42.9447" lon="0.84593">
        <ele>971</ele>
        <time>2019-08-08T10:35:20.000Z</time>
      </trkpt>
      <trkpt lat="42.94469" lon="0.84597">
        <ele>971</ele>
        <time>2019-08-08T10:35:21.000Z</time>
      </trkpt>
      <trkpt lat="42.94468" lon="0.846">
        <ele>971</ele>
        <time>2019-08-08T10:35:22.000Z</time>
      </trkpt>
      <trkpt lat="42.94467" lon="0.84603">
        <ele>971</ele>
        <time>2019-08-08T10:35:23.000Z</time>
      </trkpt>
      <trkpt lat="42.94467" lon="0.84603">
        <ele>972</ele>
        <time>2019-08-08T10:35:24.000Z</time>
      </trkpt>
      <trkpt lat="42.94464" lon="0.84608">
        <ele>972</ele>
        <time>2019-08-08T10:35:25.000Z</time>
      </trkpt>
      <trkpt lat="42.94463" lon="0.84609">
        <ele>972</ele>
        <time>2019-08-08T10:35:26.000Z</time>
      </trkpt>
      <trkpt lat="42.94462" lon="0.84611">
        <ele>972</ele>
        <time>2019-08-08T10:35:27.000Z</time>
      </trkpt>
      <trkpt lat="42.94461" lon="0.84614">
        <ele>974</ele>
        <time>2019-08-08T10:35:28.000Z</time>
      </trkpt>
      <trkpt lat="42.94461" lon="0.84614">
        <ele>974</ele>
        <time>2019-08-08T10:35:29.000Z</time>
      </trkpt>
      <trkpt lat="42.94461" lon="0.84614">
        <ele>974</ele>
        <time>2019-08-08T10:35:30.000Z</time>
      </trkpt>
      <trkpt lat="42.94461" lon="0.84614">
        <ele>974</ele>
        <time>2019-08-08T10:35:31.000Z</time>
      </trkpt>
      <trkpt lat="42.94458" lon="0.84627">
        <ele>974</ele>
        <time>2019-08-08T10:35:32.000Z</time>
      </trkpt>
      <trkpt lat="42.94458" lon="0.84627">
        <ele>974</ele>
        <time>2019-08-08T10:35:33.000Z</time>
      </trkpt>
      <trkpt lat="42.94458" lon="0.84627">
        <ele>974</ele>
        <time>2019-08-08T10:35:34.000Z</time>
      </trkpt>
      <trkpt lat="42.94458" lon="0.84627">
        <ele>974</ele>
        <time>2019-08-08T10:35:35.000Z</time>
      </trkpt>
      <trkpt lat="42.94455" lon="0.84639">
        <ele>975</ele>
        <time>2019-08-08T10:35:36.000Z</time>
      </trkpt>
      <trkpt lat="42.94455" lon="0.84642">
        <ele>975</ele>
        <time>2019-08-08T10:35:37.000Z</time>
      </trkpt>
      <trkpt lat="42.94455" lon="0.84645">
        <ele>976</ele>
        <time>2019-08-08T10:35:38.000Z</time>
      </trkpt>
      <trkpt lat="42.94454" lon="0.84648">
        <ele>976</ele>
        <time>2019-08-08T10:35:39.000Z</time>
      </trkpt>
      <trkpt lat="42.94454" lon="0.84651">
        <ele>976</ele>
        <time>2019-08-08T10:35:40.000Z</time>
      </trkpt>
      <trkpt lat="42.94453" lon="0.84654">
        <ele>976</ele>
        <time>2019-08-08T10:35:41.000Z</time>
      </trkpt>
      <trkpt lat="42.94453" lon="0.84657">
        <ele>977</ele>
        <time>2019-08-08T10:35:42.000Z</time>
      </trkpt>
      <trkpt lat="42.94454" lon="0.8466">
        <ele>977</ele>
        <time>2019-08-08T10:35:43.000Z</time>
      </trkpt>
      <trkpt lat="42.94454" lon="0.84663">
        <ele>977</ele>
        <time>2019-08-08T10:35:44.000Z</time>
      </trkpt>
      <trkpt lat="42.94453" lon="0.84666">
        <ele>978</ele>
        <time>2019-08-08T10:35:45.000Z</time>
      </trkpt>
      <trkpt lat="42.94453" lon="0.84669">
        <ele>978</ele>
        <time>2019-08-08T10:35:46.000Z</time>
      </trkpt>
      <trkpt lat="42.94453" lon="0.84672">
        <ele>978</ele>
        <time>2019-08-08T10:35:47.000Z</time>
      </trkpt>
      <trkpt lat="42.94453" lon="0.84675">
        <ele>978</ele>
        <time>2019-08-08T10:35:48.000Z</time>
      </trkpt>
      <trkpt lat="42.94452" lon="0.84678">
        <ele>978</ele>
        <time>2019-08-08T10:35:49.000Z</time>
      </trkpt>
      <trkpt lat="42.94452" lon="0.84682">
        <ele>979</ele>
        <time>2019-08-08T10:35:50.000Z</time>
      </trkpt>
      <trkpt lat="42.94452" lon="0.84685">
        <ele>979</ele>
        <time>2019-08-08T10:35:51.000Z</time>
      </trkpt>
      <trkpt lat="42.94452" lon="0.84688">
        <ele>980</ele>
        <time>2019-08-08T10:35:52.000Z</time>
      </trkpt>
      <trkpt lat="42.94452" lon="0.84691">
        <ele>980</ele>
        <time>2019-08-08T10:35:53.000Z</time>
      </trkpt>
      <trkpt lat="42.94452" lon="0.84694">
        <ele>980</ele>
        <time>2019-08-08T10:35:54.000Z</time>
      </trkpt>
      <trkpt lat="42.94452" lon="0.84696">
        <ele>980</ele>
        <time>2019-08-08T10:35:55.000Z</time>
      </trkpt>
      <trkpt lat="42.94453" lon="0.84699">
        <ele>980</ele>
        <time>2019-08-08T10:35:56.000Z</time>
      </trkpt>
      <trkpt lat="42.94453" lon="0.84702">
        <ele>980</ele>
        <time>2019-08-08T10:35:57.000Z</time>
      </trkpt>
      <trkpt lat="42.94453" lon="0.84705">
        <ele>980</ele>
        <time>2019-08-08T10:35:58.000Z</time>
      </trkpt>
      <trkpt lat="42.94453" lon="0.84708">
        <ele>980</ele>
        <time>2019-08-08T10:35:59.000Z</time>
      </trkpt>
      <trkpt lat="42.94453" lon="0.84708">
        <ele>980</ele>
        <time>2019-08-08T10:36:00.000Z</time>
      </trkpt>
      <trkpt lat="42.94454" lon="0.84712">
        <ele>981</ele>
        <time>2019-08-08T10:36:01.000Z</time>
      </trkpt>
      <trkpt lat="42.94454" lon="0.84715">
        <ele>981</ele>
        <time>2019-08-08T10:36:02.000Z</time>
      </trkpt>
      <trkpt lat="42.94455" lon="0.84718">
        <ele>981</ele>
        <time>2019-08-08T10:36:03.000Z</time>
      </trkpt>
      <trkpt lat="42.94455" lon="0.8472">
        <ele>981</ele>
        <time>2019-08-08T10:36:04.000Z</time>
      </trkpt>
      <trkpt lat="42.94455" lon="0.84723">
        <ele>982</ele>
        <time>2019-08-08T10:36:05.000Z</time>
      </trkpt>
      <trkpt lat="42.94456" lon="0.84727">
        <ele>982</ele>
        <time>2019-08-08T10:36:06.000Z</time>
      </trkpt>
      <trkpt lat="42.94456" lon="0.8473">
        <ele>984</ele>
        <time>2019-08-08T10:36:07.000Z</time>
      </trkpt>
      <trkpt lat="42.94457" lon="0.84733">
        <ele>984</ele>
        <time>2019-08-08T10:36:08.000Z</time>
      </trkpt>
      <trkpt lat="42.94457" lon="0.84736">
        <ele>984</ele>
        <time>2019-08-08T10:36:09.000Z</time>
      </trkpt>
      <trkpt lat="42.94457" lon="0.84739">
        <ele>984</ele>
        <time>2019-08-08T10:36:10.000Z</time>
      </trkpt>
      <trkpt lat="42.94457" lon="0.84742">
        <ele>984</ele>
        <time>2019-08-08T10:36:11.000Z</time>
      </trkpt>
      <trkpt lat="42.94457" lon="0.84744">
        <ele>984</ele>
        <time>2019-08-08T10:36:12.000Z</time>
      </trkpt>
      <trkpt lat="42.94457" lon="0.84748">
        <ele>984</ele>
        <time>2019-08-08T10:36:13.000Z</time>
      </trkpt>
      <trkpt lat="42.94457" lon="0.84751">
        <ele>984</ele>
        <time>2019-08-08T10:36:14.000Z</time>
      </trkpt>
      <trkpt lat="42.94457" lon="0.84754">
        <ele>985</ele>
        <time>2019-08-08T10:36:15.000Z</time>
      </trkpt>
      <trkpt lat="42.94457" lon="0.84757">
        <ele>985</ele>
        <time>2019-08-08T10:36:16.000Z</time>
      </trkpt>
      <trkpt lat="42.94456" lon="0.84759">
        <ele>985</ele>
        <time>2019-08-08T10:36:17.000Z</time>
      </trkpt>
      <trkpt lat="42.94456" lon="0.84763">
        <ele>985</ele>
        <time>2019-08-08T10:36:18.000Z</time>
      </trkpt>
      <trkpt lat="42.94455" lon="0.84766">
        <ele>985</ele>
        <time>2019-08-08T10:36:19.000Z</time>
      </trkpt>
      <trkpt lat="42.94455" lon="0.84769">
        <ele>986</ele>
        <time>2019-08-08T10:36:20.000Z</time>
      </trkpt>
      <trkpt lat="42.94454" lon="0.84771">
        <ele>986</ele>
        <time>2019-08-08T10:36:21.000Z</time>
      </trkpt>
      <trkpt lat="42.94454" lon="0.84774">
        <ele>987</ele>
        <time>2019-08-08T10:36:22.000Z</time>
      </trkpt>
      <trkpt lat="42.94454" lon="0.84778">
        <ele>987</ele>
        <time>2019-08-08T10:36:23.000Z</time>
      </trkpt>
      <trkpt lat="42.94453" lon="0.84781">
        <ele>987</ele>
        <time>2019-08-08T10:36:24.000Z</time>
      </trkpt>
      <trkpt lat="42.94452" lon="0.84784">
        <ele>987</ele>
        <time>2019-08-08T10:36:25.000Z</time>
      </trkpt>
      <trkpt lat="42.94452" lon="0.84787">
        <ele>988</ele>
        <time>2019-08-08T10:36:26.000Z</time>
      </trkpt>
      <trkpt lat="42.94452" lon="0.84791">
        <ele>988</ele>
        <time>2019-08-08T10:36:27.000Z</time>
      </trkpt>
      <trkpt lat="42.94452" lon="0.84794">
        <ele>988</ele>
        <time>2019-08-08T10:36:28.000Z</time>
      </trkpt>
      <trkpt lat="42.94451" lon="0.84798">
        <ele>988</ele>
        <time>2019-08-08T10:36:29.000Z</time>
      </trkpt>
      <trkpt lat="42.94451" lon="0.84801">
        <ele>988</ele>
        <time>2019-08-08T10:36:30.000Z</time>
      </trkpt>
      <trkpt lat="42.94451" lon="0.84805">
        <ele>988</ele>
        <time>2019-08-08T10:36:31.000Z</time>
      </trkpt>
      <trkpt lat="42.94451" lon="0.84809">
        <ele>989</ele>
        <time>2019-08-08T10:36:32.000Z</time>
      </trkpt>
      <trkpt lat="42.94451" lon="0.84812">
        <ele>989</ele>
        <time>2019-08-08T10:36:33.000Z</time>
      </trkpt>
      <trkpt lat="42.9445" lon="0.84816">
        <ele>989</ele>
        <time>2019-08-08T10:36:34.000Z</time>
      </trkpt>
      <trkpt lat="42.9445" lon="0.84819">
        <ele>989</ele>
        <time>2019-08-08T10:36:35.000Z</time>
      </trkpt>
      <trkpt lat="42.94449" lon="0.84822">
        <ele>990</ele>
        <time>2019-08-08T10:36:36.000Z</time>
      </trkpt>
      <trkpt lat="42.94448" lon="0.84825">
        <ele>990</ele>
        <time>2019-08-08T10:36:37.000Z</time>
      </trkpt>
      <trkpt lat="42.94448" lon="0.84829">
        <ele>991</ele>
        <time>2019-08-08T10:36:38.000Z</time>
      </trkpt>
      <trkpt lat="42.94448" lon="0.84832">
        <ele>991</ele>
        <time>2019-08-08T10:36:39.000Z</time>
      </trkpt>
      <trkpt lat="42.94448" lon="0.84835">
        <ele>991</ele>
        <time>2019-08-08T10:36:40.000Z</time>
      </trkpt>
      <trkpt lat="42.94448" lon="0.84839">
        <ele>991</ele>
        <time>2019-08-08T10:36:41.000Z</time>
      </trkpt>
      <trkpt lat="42.94448" lon="0.84842">
        <ele>991</ele>
        <time>2019-08-08T10:36:42.000Z</time>
      </trkpt>
      <trkpt lat="42.94448" lon="0.84845">
        <ele>991</ele>
        <time>2019-08-08T10:36:43.000Z</time>
      </trkpt>
      <trkpt lat="42.94448" lon="0.84849">
        <ele>991</ele>
        <time>2019-08-08T10:36:44.000Z</time>
      </trkpt>
      <trkpt lat="42.94448" lon="0.84852">
        <ele>991</ele>
        <time>2019-08-08T10:36:45.000Z</time>
      </trkpt>
      <trkpt lat="42.94448" lon="0.84855">
        <ele>992</ele>
        <time>2019-08-08T10:36:46.000Z</time>
      </trkpt>
      <trkpt lat="42.94448" lon="0.84859">
        <ele>992</ele>
        <time>2019-08-08T10:36:47.000Z</time>
      </trkpt>
      <trkpt lat="42.94448" lon="0.84862">
        <ele>992</ele>
        <time>2019-08-08T10:36:48.000Z</time>
      </trkpt>
      <trkpt lat="42.94448" lon="0.84865">
        <ele>993</ele>
        <time>2019-08-08T10:36:49.000Z</time>
      </trkpt>
      <trkpt lat="42.94448" lon="0.84869">
        <ele>993</ele>
        <time>2019-08-08T10:36:50.000Z</time>
      </trkpt>
      <trkpt lat="42.94449" lon="0.84872">
        <ele>993</ele>
        <time>2019-08-08T10:36:51.000Z</time>
      </trkpt>
      <trkpt lat="42.94449" lon="0.84875">
        <ele>993</ele>
        <time>2019-08-08T10:36:52.000Z</time>
      </trkpt>
      <trkpt lat="42.94449" lon="0.84879">
        <ele>993</ele>
        <time>2019-08-08T10:36:53.000Z</time>
      </trkpt>
      <trkpt lat="42.94449" lon="0.84882">
        <ele>995</ele>
        <time>2019-08-08T10:36:54.000Z</time>
      </trkpt>
      <trkpt lat="42.94449" lon="0.84885">
        <ele>995</ele>
        <time>2019-08-08T10:36:55.000Z</time>
      </trkpt>
      <trkpt lat="42.94449" lon="0.84888">
        <ele>995</ele>
        <time>2019-08-08T10:36:56.000Z</time>
      </trkpt>
      <trkpt lat="42.94449" lon="0.84892">
        <ele>995</ele>
        <time>2019-08-08T10:36:57.000Z</time>
      </trkpt>
      <trkpt lat="42.94448" lon="0.84895">
        <ele>995</ele>
        <time>2019-08-08T10:36:58.000Z</time>
      </trkpt>
      <trkpt lat="42.94448" lon="0.84898">
        <ele>996</ele>
        <time>2019-08-08T10:36:59.000Z</time>
      </trkpt>
      <trkpt lat="42.94448" lon="0.84901">
        <ele>996</ele>
        <time>2019-08-08T10:37:00.000Z</time>
      </trkpt>
      <trkpt lat="42.94447" lon="0.84904">
        <ele>997</ele>
        <time>2019-08-08T10:37:01.000Z</time>
      </trkpt>
      <trkpt lat="42.94447" lon="0.84907">
        <ele>997</ele>
        <time>2019-08-08T10:37:02.000Z</time>
      </trkpt>
      <trkpt lat="42.94447" lon="0.84911">
        <ele>998</ele>
        <time>2019-08-08T10:37:03.000Z</time>
      </trkpt>
      <trkpt lat="42.94446" lon="0.84914">
        <ele>998</ele>
        <time>2019-08-08T10:37:04.000Z</time>
      </trkpt>
      <trkpt lat="42.94445" lon="0.84917">
        <ele>998</ele>
        <time>2019-08-08T10:37:05.000Z</time>
      </trkpt>
      <trkpt lat="42.94444" lon="0.84922">
        <ele>998</ele>
        <time>2019-08-08T10:37:06.000Z</time>
      </trkpt>
      <trkpt lat="42.94443" lon="0.84923">
        <ele>998</ele>
        <time>2019-08-08T10:37:07.000Z</time>
      </trkpt>
      <trkpt lat="42.94442" lon="0.84926">
        <ele>999</ele>
        <time>2019-08-08T10:37:08.000Z</time>
      </trkpt>
      <trkpt lat="42.94442" lon="0.84929">
        <ele>999</ele>
        <time>2019-08-08T10:37:09.000Z</time>
      </trkpt>
      <trkpt lat="42.94441" lon="0.84932">
        <ele>999</ele>
        <time>2019-08-08T10:37:10.000Z</time>
      </trkpt>
      <trkpt lat="42.9444" lon="0.84936">
        <ele>999</ele>
        <time>2019-08-08T10:37:11.000Z</time>
      </trkpt>
      <trkpt lat="42.94439" lon="0.84939">
        <ele>1000</ele>
        <time>2019-08-08T10:37:12.000Z</time>
      </trkpt>
      <trkpt lat="42.94438" lon="0.84942">
        <ele>1000</ele>
        <time>2019-08-08T10:37:13.000Z</time>
      </trkpt>
      <trkpt lat="42.94437" lon="0.84945">
        <ele>1000</ele>
        <time>2019-08-08T10:37:14.000Z</time>
      </trkpt>
      <trkpt lat="42.94437" lon="0.84948">
        <ele>1000</ele>
        <time>2019-08-08T10:37:15.000Z</time>
      </trkpt>
      <trkpt lat="42.94436" lon="0.84951">
        <ele>1000</ele>
        <time>2019-08-08T10:37:16.000Z</time>
      </trkpt>
      <trkpt lat="42.94435" lon="0.84954">
        <ele>1000</ele>
        <time>2019-08-08T10:37:17.000Z</time>
      </trkpt>
      <trkpt lat="42.94434" lon="0.84957">
        <ele>1000</ele>
        <time>2019-08-08T10:37:18.000Z</time>
      </trkpt>
      <trkpt lat="42.94434" lon="0.84959">
        <ele>1000</ele>
        <time>2019-08-08T10:37:19.000Z</time>
      </trkpt>
      <trkpt lat="42.94433" lon="0.84962">
        <ele>1001</ele>
        <time>2019-08-08T10:37:20.000Z</time>
      </trkpt>
      <trkpt lat="42.94432" lon="0.84965">
        <ele>1001</ele>
        <time>2019-08-08T10:37:21.000Z</time>
      </trkpt>
      <trkpt lat="42.94431" lon="0.84968">
        <ele>1001</ele>
        <time>2019-08-08T10:37:22.000Z</time>
      </trkpt>
      <trkpt lat="42.9443" lon="0.84971">
        <ele>1001</ele>
        <time>2019-08-08T10:37:23.000Z</time>
      </trkpt>
      <trkpt lat="42.94429" lon="0.84974">
        <ele>1002</ele>
        <time>2019-08-08T10:37:24.000Z</time>
      </trkpt>
      <trkpt lat="42.94428" lon="0.84976">
        <ele>1002</ele>
        <time>2019-08-08T10:37:25.000Z</time>
      </trkpt>
      <trkpt lat="42.94426" lon="0.84979">
        <ele>1002</ele>
        <time>2019-08-08T10:37:26.000Z</time>
      </trkpt>
      <trkpt lat="42.94424" lon="0.84981">
        <ele>1003</ele>
        <time>2019-08-08T10:37:27.000Z</time>
      </trkpt>
      <trkpt lat="42.94423" lon="0.84982">
        <ele>1003</ele>
        <time>2019-08-08T10:37:28.000Z</time>
      </trkpt>
      <trkpt lat="42.94421" lon="0.84984">
        <ele>1003</ele>
        <time>2019-08-08T10:37:29.000Z</time>
      </trkpt>
      <trkpt lat="42.94419" lon="0.84986">
        <ele>1003</ele>
        <time>2019-08-08T10:37:30.000Z</time>
      </trkpt>
      <trkpt lat="42.94417" lon="0.84987">
        <ele>1004</ele>
        <time>2019-08-08T10:37:31.000Z</time>
      </trkpt>
      <trkpt lat="42.94414" lon="0.84988">
        <ele>1004</ele>
        <time>2019-08-08T10:37:32.000Z</time>
      </trkpt>
      <trkpt lat="42.94412" lon="0.8499">
        <ele>1004</ele>
        <time>2019-08-08T10:37:33.000Z</time>
      </trkpt>
      <trkpt lat="42.94409" lon="0.84991">
        <ele>1004</ele>
        <time>2019-08-08T10:37:34.000Z</time>
      </trkpt>
      <trkpt lat="42.94407" lon="0.84992">
        <ele>1005</ele>
        <time>2019-08-08T10:37:35.000Z</time>
      </trkpt>
      <trkpt lat="42.94404" lon="0.84994">
        <ele>1005</ele>
        <time>2019-08-08T10:37:36.000Z</time>
      </trkpt>
      <trkpt lat="42.94401" lon="0.84995">
        <ele>1005</ele>
        <time>2019-08-08T10:37:37.000Z</time>
      </trkpt>
      <trkpt lat="42.94399" lon="0.84997">
        <ele>1005</ele>
        <time>2019-08-08T10:37:38.000Z</time>
      </trkpt>
      <trkpt lat="42.94396" lon="0.84998">
        <ele>1006</ele>
        <time>2019-08-08T10:37:39.000Z</time>
      </trkpt>
      <trkpt lat="42.94393" lon="0.84999">
        <ele>1006</ele>
        <time>2019-08-08T10:37:40.000Z</time>
      </trkpt>
      <trkpt lat="42.94391" lon="0.84999">
        <ele>1007</ele>
        <time>2019-08-08T10:37:41.000Z</time>
      </trkpt>
      <trkpt lat="42.94388" lon="0.85">
        <ele>1007</ele>
        <time>2019-08-08T10:37:42.000Z</time>
      </trkpt>
      <trkpt lat="42.94386" lon="0.85001">
        <ele>1007</ele>
        <time>2019-08-08T10:37:43.000Z</time>
      </trkpt>
      <trkpt lat="42.94383" lon="0.85002">
        <ele>1007</ele>
        <time>2019-08-08T10:37:44.000Z</time>
      </trkpt>
      <trkpt lat="42.94381" lon="0.85002">
        <ele>1007</ele>
        <time>2019-08-08T10:37:45.000Z</time>
      </trkpt>
      <trkpt lat="42.94378" lon="0.85002">
        <ele>1008</ele>
        <time>2019-08-08T10:37:46.000Z</time>
      </trkpt>
      <trkpt lat="42.94376" lon="0.85003">
        <ele>1008</ele>
        <time>2019-08-08T10:37:47.000Z</time>
      </trkpt>
      <trkpt lat="42.94373" lon="0.85002">
        <ele>1008</ele>
        <time>2019-08-08T10:37:48.000Z</time>
      </trkpt>
      <trkpt lat="42.94371" lon="0.85003">
        <ele>1008</ele>
        <time>2019-08-08T10:37:49.000Z</time>
      </trkpt>
      <trkpt lat="42.94369" lon="0.85002">
        <ele>1008</ele>
        <time>2019-08-08T10:37:50.000Z</time>
      </trkpt>
      <trkpt lat="42.94367" lon="0.85001">
        <ele>1008</ele>
        <time>2019-08-08T10:37:51.000Z</time>
      </trkpt>
      <trkpt lat="42.94364" lon="0.85001">
        <ele>1009</ele>
        <time>2019-08-08T10:37:52.000Z</time>
      </trkpt>
      <trkpt lat="42.94362" lon="0.85001">
        <ele>1009</ele>
        <time>2019-08-08T10:37:53.000Z</time>
      </trkpt>
      <trkpt lat="42.94359" lon="0.85">
        <ele>1010</ele>
        <time>2019-08-08T10:37:54.000Z</time>
      </trkpt>
      <trkpt lat="42.94357" lon="0.84999">
        <ele>1010</ele>
        <time>2019-08-08T10:37:55.000Z</time>
      </trkpt>
      <trkpt lat="42.94353" lon="0.84997">
        <ele>1010</ele>
        <time>2019-08-08T10:37:56.000Z</time>
      </trkpt>
      <trkpt lat="42.94351" lon="0.84997">
        <ele>1010</ele>
        <time>2019-08-08T10:37:57.000Z</time>
      </trkpt>
      <trkpt lat="42.94349" lon="0.84997">
        <ele>1010</ele>
        <time>2019-08-08T10:37:58.000Z</time>
      </trkpt>
      <trkpt lat="42.94346" lon="0.84997">
        <ele>1012</ele>
        <time>2019-08-08T10:37:59.000Z</time>
      </trkpt>
      <trkpt lat="42.94344" lon="0.84997">
        <ele>1012</ele>
        <time>2019-08-08T10:38:00.000Z</time>
      </trkpt>
      <trkpt lat="42.94341" lon="0.84997">
        <ele>1012</ele>
        <time>2019-08-08T10:38:01.000Z</time>
      </trkpt>
      <trkpt lat="42.94339" lon="0.84997">
        <ele>1012</ele>
        <time>2019-08-08T10:38:02.000Z</time>
      </trkpt>
      <trkpt lat="42.94336" lon="0.84997">
        <ele>1013</ele>
        <time>2019-08-08T10:38:03.000Z</time>
      </trkpt>
      <trkpt lat="42.94333" lon="0.84997">
        <ele>1013</ele>
        <time>2019-08-08T10:38:04.000Z</time>
      </trkpt>
      <trkpt lat="42.94331" lon="0.84997">
        <ele>1013</ele>
        <time>2019-08-08T10:38:05.000Z</time>
      </trkpt>
      <trkpt lat="42.94328" lon="0.84997">
        <ele>1013</ele>
        <time>2019-08-08T10:38:06.000Z</time>
      </trkpt>
      <trkpt lat="42.94326" lon="0.84997">
        <ele>1013</ele>
        <time>2019-08-08T10:38:07.000Z</time>
      </trkpt>
      <trkpt lat="42.94323" lon="0.84996">
        <ele>1013</ele>
        <time>2019-08-08T10:38:08.000Z</time>
      </trkpt>
      <trkpt lat="42.94321" lon="0.84996">
        <ele>1013</ele>
        <time>2019-08-08T10:38:09.000Z</time>
      </trkpt>
      <trkpt lat="42.94318" lon="0.84995">
        <ele>1015</ele>
        <time>2019-08-08T10:38:10.000Z</time>
      </trkpt>
      <trkpt lat="42.94316" lon="0.84995">
        <ele>1015</ele>
        <time>2019-08-08T10:38:11.000Z</time>
      </trkpt>
      <trkpt lat="42.94313" lon="0.84994">
        <ele>1015</ele>
        <time>2019-08-08T10:38:12.000Z</time>
      </trkpt>
      <trkpt lat="42.94311" lon="0.84994">
        <ele>1015</ele>
        <time>2019-08-08T10:38:13.000Z</time>
      </trkpt>
      <trkpt lat="42.94308" lon="0.84994">
        <ele>1015</ele>
        <time>2019-08-08T10:38:14.000Z</time>
      </trkpt>
      <trkpt lat="42.94306" lon="0.84994">
        <ele>1015</ele>
        <time>2019-08-08T10:38:15.000Z</time>
      </trkpt>
      <trkpt lat="42.94303" lon="0.84993">
        <ele>1015</ele>
        <time>2019-08-08T10:38:16.000Z</time>
      </trkpt>
      <trkpt lat="42.943" lon="0.84993">
        <ele>1015</ele>
        <time>2019-08-08T10:38:17.000Z</time>
      </trkpt>
      <trkpt lat="42.94298" lon="0.84992">
        <ele>1016</ele>
        <time>2019-08-08T10:38:18.000Z</time>
      </trkpt>
      <trkpt lat="42.94295" lon="0.84992">
        <ele>1016</ele>
        <time>2019-08-08T10:38:19.000Z</time>
      </trkpt>
      <trkpt lat="42.94293" lon="0.84991">
        <ele>1017</ele>
        <time>2019-08-08T10:38:20.000Z</time>
      </trkpt>
      <trkpt lat="42.9429" lon="0.84991">
        <ele>1017</ele>
        <time>2019-08-08T10:38:21.000Z</time>
      </trkpt>
      <trkpt lat="42.94288" lon="0.84991">
        <ele>1018</ele>
        <time>2019-08-08T10:38:22.000Z</time>
      </trkpt>
      <trkpt lat="42.94285" lon="0.8499">
        <ele>1018</ele>
        <time>2019-08-08T10:38:23.000Z</time>
      </trkpt>
      <trkpt lat="42.94283" lon="0.84989">
        <ele>1019</ele>
        <time>2019-08-08T10:38:24.000Z</time>
      </trkpt>
      <trkpt lat="42.9428" lon="0.84989">
        <ele>1019</ele>
        <time>2019-08-08T10:38:25.000Z</time>
      </trkpt>
      <trkpt lat="42.94277" lon="0.84989">
        <ele>1019</ele>
        <time>2019-08-08T10:38:26.000Z</time>
      </trkpt>
      <trkpt lat="42.94275" lon="0.84989">
        <ele>1019</ele>
        <time>2019-08-08T10:38:27.000Z</time>
      </trkpt>
      <trkpt lat="42.94272" lon="0.84989">
        <ele>1019</ele>
        <time>2019-08-08T10:38:28.000Z</time>
      </trkpt>
      <trkpt lat="42.9427" lon="0.84989">
        <ele>1019</ele>
        <time>2019-08-08T10:38:29.000Z</time>
      </trkpt>
      <trkpt lat="42.94267" lon="0.84989">
        <ele>1019</ele>
        <time>2019-08-08T10:38:30.000Z</time>
      </trkpt>
      <trkpt lat="42.94265" lon="0.8499">
        <ele>1019</ele>
        <time>2019-08-08T10:38:31.000Z</time>
      </trkpt>
      <trkpt lat="42.94262" lon="0.84991">
        <ele>1021</ele>
        <time>2019-08-08T10:38:32.000Z</time>
      </trkpt>
      <trkpt lat="42.9426" lon="0.84992">
        <ele>1021</ele>
        <time>2019-08-08T10:38:33.000Z</time>
      </trkpt>
      <trkpt lat="42.94258" lon="0.84994">
        <ele>1021</ele>
        <time>2019-08-08T10:38:34.000Z</time>
      </trkpt>
      <trkpt lat="42.94256" lon="0.84997">
        <ele>1021</ele>
        <time>2019-08-08T10:38:35.000Z</time>
      </trkpt>
      <trkpt lat="42.94255" lon="0.84999">
        <ele>1021</ele>
        <time>2019-08-08T10:38:36.000Z</time>
      </trkpt>
      <trkpt lat="42.94254" lon="0.85003">
        <ele>1022</ele>
        <time>2019-08-08T10:38:37.000Z</time>
      </trkpt>
      <trkpt lat="42.94254" lon="0.85006">
        <ele>1022</ele>
        <time>2019-08-08T10:38:38.000Z</time>
      </trkpt>
      <trkpt lat="42.94254" lon="0.85009">
        <ele>1022</ele>
        <time>2019-08-08T10:38:39.000Z</time>
      </trkpt>
      <trkpt lat="42.94254" lon="0.85013">
        <ele>1022</ele>
        <time>2019-08-08T10:38:40.000Z</time>
      </trkpt>
      <trkpt lat="42.94254" lon="0.85016">
        <ele>1022</ele>
        <time>2019-08-08T10:38:41.000Z</time>
      </trkpt>
      <trkpt lat="42.94255" lon="0.8502">
        <ele>1022</ele>
        <time>2019-08-08T10:38:42.000Z</time>
      </trkpt>
      <trkpt lat="42.94256" lon="0.85023">
        <ele>1023</ele>
        <time>2019-08-08T10:38:43.000Z</time>
      </trkpt>
      <trkpt lat="42.94257" lon="0.85026">
        <ele>1023</ele>
        <time>2019-08-08T10:38:44.000Z</time>
      </trkpt>
      <trkpt lat="42.94258" lon="0.85029">
        <ele>1024</ele>
        <time>2019-08-08T10:38:45.000Z</time>
      </trkpt>
      <trkpt lat="42.94259" lon="0.85033">
        <ele>1024</ele>
        <time>2019-08-08T10:38:46.000Z</time>
      </trkpt>
      <trkpt lat="42.9426" lon="0.85036">
        <ele>1025</ele>
        <time>2019-08-08T10:38:47.000Z</time>
      </trkpt>
      <trkpt lat="42.94261" lon="0.85039">
        <ele>1025</ele>
        <time>2019-08-08T10:38:48.000Z</time>
      </trkpt>
      <trkpt lat="42.94263" lon="0.85042">
        <ele>1025</ele>
        <time>2019-08-08T10:38:49.000Z</time>
      </trkpt>
      <trkpt lat="42.94264" lon="0.85045">
        <ele>1025</ele>
        <time>2019-08-08T10:38:50.000Z</time>
      </trkpt>
      <trkpt lat="42.94265" lon="0.85048">
        <ele>1025</ele>
        <time>2019-08-08T10:38:51.000Z</time>
      </trkpt>
      <trkpt lat="42.94267" lon="0.85051">
        <ele>1025</ele>
        <time>2019-08-08T10:38:52.000Z</time>
      </trkpt>
      <trkpt lat="42.94268" lon="0.85053">
        <ele>1025</ele>
        <time>2019-08-08T10:38:53.000Z</time>
      </trkpt>
      <trkpt lat="42.9427" lon="0.85056">
        <ele>1026</ele>
        <time>2019-08-08T10:38:54.000Z</time>
      </trkpt>
      <trkpt lat="42.94271" lon="0.85059">
        <ele>1026</ele>
        <time>2019-08-08T10:38:55.000Z</time>
      </trkpt>
      <trkpt lat="42.94272" lon="0.85062">
        <ele>1026</ele>
        <time>2019-08-08T10:38:56.000Z</time>
      </trkpt>
      <trkpt lat="42.94273" lon="0.85065">
        <ele>1026</ele>
        <time>2019-08-08T10:38:57.000Z</time>
      </trkpt>
      <trkpt lat="42.94274" lon="0.85068">
        <ele>1026</ele>
        <time>2019-08-08T10:38:58.000Z</time>
      </trkpt>
      <trkpt lat="42.94275" lon="0.85071">
        <ele>1027</ele>
        <time>2019-08-08T10:38:59.000Z</time>
      </trkpt>
      <trkpt lat="42.94276" lon="0.85073">
        <ele>1027</ele>
        <time>2019-08-08T10:39:00.000Z</time>
      </trkpt>
      <trkpt lat="42.94277" lon="0.85076">
        <ele>1027</ele>
        <time>2019-08-08T10:39:01.000Z</time>
      </trkpt>
      <trkpt lat="42.94279" lon="0.85079">
        <ele>1027</ele>
        <time>2019-08-08T10:39:02.000Z</time>
      </trkpt>
      <trkpt lat="42.9428" lon="0.85081">
        <ele>1027</ele>
        <time>2019-08-08T10:39:03.000Z</time>
      </trkpt>
      <trkpt lat="42.94281" lon="0.85084">
        <ele>1027</ele>
        <time>2019-08-08T10:39:04.000Z</time>
      </trkpt>
      <trkpt lat="42.94282" lon="0.85087">
        <ele>1029</ele>
        <time>2019-08-08T10:39:05.000Z</time>
      </trkpt>
      <trkpt lat="42.94283" lon="0.8509">
        <ele>1029</ele>
        <time>2019-08-08T10:39:06.000Z</time>
      </trkpt>
      <trkpt lat="42.94284" lon="0.85092">
        <ele>1029</ele>
        <time>2019-08-08T10:39:07.000Z</time>
      </trkpt>
      <trkpt lat="42.94285" lon="0.85095">
        <ele>1029</ele>
        <time>2019-08-08T10:39:08.000Z</time>
      </trkpt>
      <trkpt lat="42.94287" lon="0.85098">
        <ele>1029</ele>
        <time>2019-08-08T10:39:09.000Z</time>
      </trkpt>
      <trkpt lat="42.94288" lon="0.851">
        <ele>1029</ele>
        <time>2019-08-08T10:39:10.000Z</time>
      </trkpt>
      <trkpt lat="42.94289" lon="0.85103">
        <ele>1029</ele>
        <time>2019-08-08T10:39:11.000Z</time>
      </trkpt>
      <trkpt lat="42.9429" lon="0.85105">
        <ele>1029</ele>
        <time>2019-08-08T10:39:12.000Z</time>
      </trkpt>
      <trkpt lat="42.94292" lon="0.85108">
        <ele>1029</ele>
        <time>2019-08-08T10:39:13.000Z</time>
      </trkpt>
      <trkpt lat="42.94293" lon="0.85111">
        <ele>1029</ele>
        <time>2019-08-08T10:39:14.000Z</time>
      </trkpt>
      <trkpt lat="42.94294" lon="0.85113">
        <ele>1031</ele>
        <time>2019-08-08T10:39:15.000Z</time>
      </trkpt>
      <trkpt lat="42.94295" lon="0.85116">
        <ele>1031</ele>
        <time>2019-08-08T10:39:16.000Z</time>
      </trkpt>
      <trkpt lat="42.94296" lon="0.85118">
        <ele>1031</ele>
        <time>2019-08-08T10:39:17.000Z</time>
      </trkpt>
      <trkpt lat="42.94297" lon="0.8512">
        <ele>1031</ele>
        <time>2019-08-08T10:39:18.000Z</time>
      </trkpt>
      <trkpt lat="42.94298" lon="0.85123">
        <ele>1031</ele>
        <time>2019-08-08T10:39:19.000Z</time>
      </trkpt>
      <trkpt lat="42.94299" lon="0.85126">
        <ele>1031</ele>
        <time>2019-08-08T10:39:20.000Z</time>
      </trkpt>
      <trkpt lat="42.943" lon="0.85128">
        <ele>1031</ele>
        <time>2019-08-08T10:39:21.000Z</time>
      </trkpt>
      <trkpt lat="42.94301" lon="0.85131">
        <ele>1032</ele>
        <time>2019-08-08T10:39:22.000Z</time>
      </trkpt>
      <trkpt lat="42.94302" lon="0.85133">
        <ele>1032</ele>
        <time>2019-08-08T10:39:23.000Z</time>
      </trkpt>
      <trkpt lat="42.94303" lon="0.85136">
        <ele>1032</ele>
        <time>2019-08-08T10:39:24.000Z</time>
      </trkpt>
      <trkpt lat="42.94305" lon="0.85139">
        <ele>1032</ele>
        <time>2019-08-08T10:39:25.000Z</time>
      </trkpt>
      <trkpt lat="42.94306" lon="0.85142">
        <ele>1032</ele>
        <time>2019-08-08T10:39:26.000Z</time>
      </trkpt>
      <trkpt lat="42.94308" lon="0.85145">
        <ele>1032</ele>
        <time>2019-08-08T10:39:27.000Z</time>
      </trkpt>
      <trkpt lat="42.94309" lon="0.85148">
        <ele>1033</ele>
        <time>2019-08-08T10:39:28.000Z</time>
      </trkpt>
      <trkpt lat="42.9431" lon="0.8515">
        <ele>1033</ele>
        <time>2019-08-08T10:39:29.000Z</time>
      </trkpt>
      <trkpt lat="42.94311" lon="0.85153">
        <ele>1034</ele>
        <time>2019-08-08T10:39:30.000Z</time>
      </trkpt>
      <trkpt lat="42.94313" lon="0.85156">
        <ele>1034</ele>
        <time>2019-08-08T10:39:31.000Z</time>
      </trkpt>
      <trkpt lat="42.94314" lon="0.85159">
        <ele>1035</ele>
        <time>2019-08-08T10:39:32.000Z</time>
      </trkpt>
      <trkpt lat="42.94316" lon="0.85161">
        <ele>1035</ele>
        <time>2019-08-08T10:39:33.000Z</time>
      </trkpt>
      <trkpt lat="42.94317" lon="0.85164">
        <ele>1035</ele>
        <time>2019-08-08T10:39:34.000Z</time>
      </trkpt>
      <trkpt lat="42.94319" lon="0.85167">
        <ele>1035</ele>
        <time>2019-08-08T10:39:35.000Z</time>
      </trkpt>
      <trkpt lat="42.9432" lon="0.8517">
        <ele>1035</ele>
        <time>2019-08-08T10:39:36.000Z</time>
      </trkpt>
      <trkpt lat="42.94322" lon="0.85174">
        <ele>1035</ele>
        <time>2019-08-08T10:39:37.000Z</time>
      </trkpt>
      <trkpt lat="42.94323" lon="0.85175">
        <ele>1036</ele>
        <time>2019-08-08T10:39:38.000Z</time>
      </trkpt>
      <trkpt lat="42.94325" lon="0.85178">
        <ele>1037</ele>
        <time>2019-08-08T10:39:39.000Z</time>
      </trkpt>
      <trkpt lat="42.94326" lon="0.8518">
        <ele>1037</ele>
        <time>2019-08-08T10:39:40.000Z</time>
      </trkpt>
      <trkpt lat="42.94328" lon="0.85183">
        <ele>1037</ele>
        <time>2019-08-08T10:39:41.000Z</time>
      </trkpt>
      <trkpt lat="42.9433" lon="0.85185">
        <ele>1037</ele>
        <time>2019-08-08T10:39:42.000Z</time>
      </trkpt>
      <trkpt lat="42.94331" lon="0.85188">
        <ele>1039</ele>
        <time>2019-08-08T10:39:43.000Z</time>
      </trkpt>
      <trkpt lat="42.94333" lon="0.8519">
        <ele>1039</ele>
        <time>2019-08-08T10:39:44.000Z</time>
      </trkpt>
      <trkpt lat="42.94335" lon="0.85193">
        <ele>1039</ele>
        <time>2019-08-08T10:39:45.000Z</time>
      </trkpt>
      <trkpt lat="42.94336" lon="0.85196">
        <ele>1039</ele>
        <time>2019-08-08T10:39:46.000Z</time>
      </trkpt>
      <trkpt lat="42.94338" lon="0.85198">
        <ele>1039</ele>
        <time>2019-08-08T10:39:47.000Z</time>
      </trkpt>
      <trkpt lat="42.9434" lon="0.852">
        <ele>1040</ele>
        <time>2019-08-08T10:39:48.000Z</time>
      </trkpt>
      <trkpt lat="42.94341" lon="0.85202">
        <ele>1040</ele>
        <time>2019-08-08T10:39:49.000Z</time>
      </trkpt>
      <trkpt lat="42.94343" lon="0.85205">
        <ele>1040</ele>
        <time>2019-08-08T10:39:50.000Z</time>
      </trkpt>
      <trkpt lat="42.94344" lon="0.85207">
        <ele>1040</ele>
        <time>2019-08-08T10:39:51.000Z</time>
      </trkpt>
      <trkpt lat="42.94346" lon="0.85209">
        <ele>1040</ele>
        <time>2019-08-08T10:39:52.000Z</time>
      </trkpt>
      <trkpt lat="42.94348" lon="0.85211">
        <ele>1040</ele>
        <time>2019-08-08T10:39:53.000Z</time>
      </trkpt>
      <trkpt lat="42.94349" lon="0.85212">
        <ele>1041</ele>
        <time>2019-08-08T10:39:54.000Z</time>
      </trkpt>
      <trkpt lat="42.94351" lon="0.85213">
        <ele>1041</ele>
        <time>2019-08-08T10:39:55.000Z</time>
      </trkpt>
      <trkpt lat="42.94353" lon="0.85215">
        <ele>1041</ele>
        <time>2019-08-08T10:39:56.000Z</time>
      </trkpt>
      <trkpt lat="42.94355" lon="0.85216">
        <ele>1041</ele>
        <time>2019-08-08T10:39:57.000Z</time>
      </trkpt>
      <trkpt lat="42.94357" lon="0.85217">
        <ele>1041</ele>
        <time>2019-08-08T10:39:58.000Z</time>
      </trkpt>
      <trkpt lat="42.94359" lon="0.85218">
        <ele>1041</ele>
        <time>2019-08-08T10:39:59.000Z</time>
      </trkpt>
      <trkpt lat="42.94361" lon="0.85218">
        <ele>1041</ele>
        <time>2019-08-08T10:40:00.000Z</time>
      </trkpt>
      <trkpt lat="42.94363" lon="0.85219">
        <ele>1041</ele>
        <time>2019-08-08T10:40:01.000Z</time>
      </trkpt>
      <trkpt lat="42.94365" lon="0.8522">
        <ele>1041</ele>
        <time>2019-08-08T10:40:02.000Z</time>
      </trkpt>
      <trkpt lat="42.94367" lon="0.8522">
        <ele>1041</ele>
        <time>2019-08-08T10:40:03.000Z</time>
      </trkpt>
      <trkpt lat="42.94369" lon="0.85221">
        <ele>1042</ele>
        <time>2019-08-08T10:40:04.000Z</time>
      </trkpt>
      <trkpt lat="42.94371" lon="0.85221">
        <ele>1042</ele>
        <time>2019-08-08T10:40:05.000Z</time>
      </trkpt>
      <trkpt lat="42.94374" lon="0.85222">
        <ele>1043</ele>
        <time>2019-08-08T10:40:06.000Z</time>
      </trkpt>
      <trkpt lat="42.94376" lon="0.85223">
        <ele>1043</ele>
        <time>2019-08-08T10:40:07.000Z</time>
      </trkpt>
      <trkpt lat="42.94378" lon="0.85225">
        <ele>1044</ele>
        <time>2019-08-08T10:40:08.000Z</time>
      </trkpt>
      <trkpt lat="42.9438" lon="0.85227">
        <ele>1044</ele>
        <time>2019-08-08T10:40:09.000Z</time>
      </trkpt>
      <trkpt lat="42.94382" lon="0.8523">
        <ele>1044</ele>
        <time>2019-08-08T10:40:10.000Z</time>
      </trkpt>
      <trkpt lat="42.94384" lon="0.85233">
        <ele>1044</ele>
        <time>2019-08-08T10:40:11.000Z</time>
      </trkpt>
      <trkpt lat="42.94386" lon="0.85236">
        <ele>1046</ele>
        <time>2019-08-08T10:40:12.000Z</time>
      </trkpt>
      <trkpt lat="42.94388" lon="0.85239">
        <ele>1046</ele>
        <time>2019-08-08T10:40:13.000Z</time>
      </trkpt>
      <trkpt lat="42.9439" lon="0.85241">
        <ele>1046</ele>
        <time>2019-08-08T10:40:14.000Z</time>
      </trkpt>
      <trkpt lat="42.94392" lon="0.85244">
        <ele>1046</ele>
        <time>2019-08-08T10:40:15.000Z</time>
      </trkpt>
      <trkpt lat="42.94393" lon="0.85247">
        <ele>1046</ele>
        <time>2019-08-08T10:40:16.000Z</time>
      </trkpt>
      <trkpt lat="42.94395" lon="0.8525">
        <ele>1046</ele>
        <time>2019-08-08T10:40:17.000Z</time>
      </trkpt>
      <trkpt lat="42.94397" lon="0.85253">
        <ele>1047</ele>
        <time>2019-08-08T10:40:18.000Z</time>
      </trkpt>
      <trkpt lat="42.94399" lon="0.85255">
        <ele>1047</ele>
        <time>2019-08-08T10:40:19.000Z</time>
      </trkpt>
      <trkpt lat="42.944" lon="0.85258">
        <ele>1048</ele>
        <time>2019-08-08T10:40:20.000Z</time>
      </trkpt>
      <trkpt lat="42.94402" lon="0.85261">
        <ele>1048</ele>
        <time>2019-08-08T10:40:21.000Z</time>
      </trkpt>
      <trkpt lat="42.94404" lon="0.85264">
        <ele>1048</ele>
        <time>2019-08-08T10:40:22.000Z</time>
      </trkpt>
      <trkpt lat="42.94406" lon="0.85267">
        <ele>1048</ele>
        <time>2019-08-08T10:40:23.000Z</time>
      </trkpt>
      <trkpt lat="42.94408" lon="0.85269">
        <ele>1048</ele>
        <time>2019-08-08T10:40:24.000Z</time>
      </trkpt>
      <trkpt lat="42.94409" lon="0.85272">
        <ele>1048</ele>
        <time>2019-08-08T10:40:25.000Z</time>
      </trkpt>
      <trkpt lat="42.94411" lon="0.85275">
        <ele>1049</ele>
        <time>2019-08-08T10:40:26.000Z</time>
      </trkpt>
      <trkpt lat="42.94413" lon="0.85278">
        <ele>1049</ele>
        <time>2019-08-08T10:40:27.000Z</time>
      </trkpt>
      <trkpt lat="42.94415" lon="0.85281">
        <ele>1050</ele>
        <time>2019-08-08T10:40:28.000Z</time>
      </trkpt>
      <trkpt lat="42.94416" lon="0.85284">
        <ele>1050</ele>
        <time>2019-08-08T10:40:29.000Z</time>
      </trkpt>
      <trkpt lat="42.94418" lon="0.85286">
        <ele>1050</ele>
        <time>2019-08-08T10:40:30.000Z</time>
      </trkpt>
      <trkpt lat="42.9442" lon="0.85289">
        <ele>1050</ele>
        <time>2019-08-08T10:40:31.000Z</time>
      </trkpt>
      <trkpt lat="42.94422" lon="0.85292">
        <ele>1051</ele>
        <time>2019-08-08T10:40:32.000Z</time>
      </trkpt>
      <trkpt lat="42.94424" lon="0.85295">
        <ele>1051</ele>
        <time>2019-08-08T10:40:33.000Z</time>
      </trkpt>
      <trkpt lat="42.94426" lon="0.85297">
        <ele>1052</ele>
        <time>2019-08-08T10:40:34.000Z</time>
      </trkpt>
      <trkpt lat="42.94428" lon="0.853">
        <ele>1052</ele>
        <time>2019-08-08T10:40:35.000Z</time>
      </trkpt>
      <trkpt lat="42.94429" lon="0.85303">
        <ele>1052</ele>
        <time>2019-08-08T10:40:36.000Z</time>
      </trkpt>
      <trkpt lat="42.94431" lon="0.85305">
        <ele>1052</ele>
        <time>2019-08-08T10:40:37.000Z</time>
      </trkpt>
      <trkpt lat="42.94433" lon="0.85308">
        <ele>1052</ele>
        <time>2019-08-08T10:40:38.000Z</time>
      </trkpt>
      <trkpt lat="42.94435" lon="0.8531">
        <ele>1053</ele>
        <time>2019-08-08T10:40:39.000Z</time>
      </trkpt>
      <trkpt lat="42.94436" lon="0.85312">
        <ele>1053</ele>
        <time>2019-08-08T10:40:40.000Z</time>
      </trkpt>
      <trkpt lat="42.94438" lon="0.85315">
        <ele>1054</ele>
        <time>2019-08-08T10:40:41.000Z</time>
      </trkpt>
      <trkpt lat="42.9444" lon="0.85318">
        <ele>1054</ele>
        <time>2019-08-08T10:40:42.000Z</time>
      </trkpt>
      <trkpt lat="42.94441" lon="0.8532">
        <ele>1054</ele>
        <time>2019-08-08T10:40:43.000Z</time>
      </trkpt>
      <trkpt lat="42.94443" lon="0.85322">
        <ele>1054</ele>
        <time>2019-08-08T10:40:44.000Z</time>
      </trkpt>
      <trkpt lat="42.94445" lon="0.85325">
        <ele>1054</ele>
        <time>2019-08-08T10:40:45.000Z</time>
      </trkpt>
      <trkpt lat="42.94446" lon="0.85327">
        <ele>1055</ele>
        <time>2019-08-08T10:40:46.000Z</time>
      </trkpt>
      <trkpt lat="42.94448" lon="0.8533">
        <ele>1055</ele>
        <time>2019-08-08T10:40:47.000Z</time>
      </trkpt>
      <trkpt lat="42.9445" lon="0.85332">
        <ele>1055</ele>
        <time>2019-08-08T10:40:48.000Z</time>
      </trkpt>
      <trkpt lat="42.94451" lon="0.85334">
        <ele>1055</ele>
        <time>2019-08-08T10:40:49.000Z</time>
      </trkpt>
      <trkpt lat="42.94453" lon="0.85337">
        <ele>1056</ele>
        <time>2019-08-08T10:40:50.000Z</time>
      </trkpt>
      <trkpt lat="42.94455" lon="0.85339">
        <ele>1056</ele>
        <time>2019-08-08T10:40:51.000Z</time>
      </trkpt>
      <trkpt lat="42.94456" lon="0.85341">
        <ele>1057</ele>
        <time>2019-08-08T10:40:52.000Z</time>
      </trkpt>
      <trkpt lat="42.94458" lon="0.85343">
        <ele>1057</ele>
        <time>2019-08-08T10:40:53.000Z</time>
      </trkpt>
      <trkpt lat="42.94459" lon="0.85346">
        <ele>1057</ele>
        <time>2019-08-08T10:40:54.000Z</time>
      </trkpt>
      <trkpt lat="42.94461" lon="0.85349">
        <ele>1057</ele>
        <time>2019-08-08T10:40:55.000Z</time>
      </trkpt>
      <trkpt lat="42.94462" lon="0.85352">
        <ele>1057</ele>
        <time>2019-08-08T10:40:56.000Z</time>
      </trkpt>
      <trkpt lat="42.94463" lon="0.85355">
        <ele>1057</ele>
        <time>2019-08-08T10:40:57.000Z</time>
      </trkpt>
      <trkpt lat="42.94465" lon="0.85357">
        <ele>1057</ele>
        <time>2019-08-08T10:40:58.000Z</time>
      </trkpt>
      <trkpt lat="42.94466" lon="0.8536">
        <ele>1057</ele>
        <time>2019-08-08T10:40:59.000Z</time>
      </trkpt>
      <trkpt lat="42.94467" lon="0.85363">
        <ele>1057</ele>
        <time>2019-08-08T10:41:00.000Z</time>
      </trkpt>
      <trkpt lat="42.94468" lon="0.85365">
        <ele>1057</ele>
        <time>2019-08-08T10:41:01.000Z</time>
      </trkpt>
      <trkpt lat="42.9447" lon="0.85368">
        <ele>1058</ele>
        <time>2019-08-08T10:41:02.000Z</time>
      </trkpt>
      <trkpt lat="42.94471" lon="0.8537">
        <ele>1058</ele>
        <time>2019-08-08T10:41:03.000Z</time>
      </trkpt>
      <trkpt lat="42.94473" lon="0.85373">
        <ele>1059</ele>
        <time>2019-08-08T10:41:04.000Z</time>
      </trkpt>
      <trkpt lat="42.94474" lon="0.85375">
        <ele>1059</ele>
        <time>2019-08-08T10:41:05.000Z</time>
      </trkpt>
      <trkpt lat="42.94475" lon="0.85378">
        <ele>1059</ele>
        <time>2019-08-08T10:41:06.000Z</time>
      </trkpt>
      <trkpt lat="42.94477" lon="0.85381">
        <ele>1059</ele>
        <time>2019-08-08T10:41:07.000Z</time>
      </trkpt>
      <trkpt lat="42.94478" lon="0.85384">
        <ele>1058</ele>
        <time>2019-08-08T10:41:08.000Z</time>
      </trkpt>
      <trkpt lat="42.94479" lon="0.85386">
        <ele>1058</ele>
        <time>2019-08-08T10:41:09.000Z</time>
      </trkpt>
      <trkpt lat="42.94481" lon="0.85389">
        <ele>1058</ele>
        <time>2019-08-08T10:41:10.000Z</time>
      </trkpt>
      <trkpt lat="42.94482" lon="0.85391">
        <ele>1058</ele>
        <time>2019-08-08T10:41:11.000Z</time>
      </trkpt>
      <trkpt lat="42.94483" lon="0.85394">
        <ele>1058</ele>
        <time>2019-08-08T10:41:12.000Z</time>
      </trkpt>
      <trkpt lat="42.94485" lon="0.85397">
        <ele>1058</ele>
        <time>2019-08-08T10:41:13.000Z</time>
      </trkpt>
      <trkpt lat="42.94485" lon="0.85397">
        <ele>1058</ele>
        <time>2019-08-08T10:41:14.000Z</time>
      </trkpt>
      <trkpt lat="42.94485" lon="0.85401">
        <ele>1058</ele>
        <time>2019-08-08T10:41:15.000Z</time>
      </trkpt>
      <trkpt lat="42.94483" lon="0.85402">
        <ele>1058</ele>
        <time>2019-08-08T10:41:16.000Z</time>
      </trkpt>
      <trkpt lat="42.94481" lon="0.85404">
        <ele>1058</ele>
        <time>2019-08-08T10:41:17.000Z</time>
      </trkpt>
      <trkpt lat="42.94478" lon="0.85405">
        <ele>1058</ele>
        <time>2019-08-08T10:41:18.000Z</time>
      </trkpt>
      <trkpt lat="42.94476" lon="0.85405">
        <ele>1058</ele>
        <time>2019-08-08T10:41:19.000Z</time>
      </trkpt>
      <trkpt lat="42.94474" lon="0.85406">
        <ele>1059</ele>
        <time>2019-08-08T10:41:20.000Z</time>
      </trkpt>
      <trkpt lat="42.94471" lon="0.85406">
        <ele>1059</ele>
        <time>2019-08-08T10:41:21.000Z</time>
      </trkpt>
      <trkpt lat="42.94469" lon="0.85405">
        <ele>1059</ele>
        <time>2019-08-08T10:41:22.000Z</time>
      </trkpt>
      <trkpt lat="42.94468" lon="0.85404">
        <ele>1059</ele>
        <time>2019-08-08T10:41:23.000Z</time>
      </trkpt>
      <trkpt lat="42.94468" lon="0.85404">
        <ele>1059</ele>
        <time>2019-08-08T10:41:24.000Z</time>
      </trkpt>
      <trkpt lat="42.94464" lon="0.85404">
        <ele>1059</ele>
        <time>2019-08-08T10:41:25.000Z</time>
      </trkpt>
      <trkpt lat="42.94464" lon="0.85404">
        <ele>1060</ele>
        <time>2019-08-08T10:41:26.000Z</time>
      </trkpt>
      <trkpt lat="42.94464" lon="0.85404">
        <ele>1060</ele>
        <time>2019-08-08T10:41:27.000Z</time>
      </trkpt>
      <trkpt lat="42.94463" lon="0.85406">
        <ele>1060</ele>
        <time>2019-08-08T10:41:28.000Z</time>
      </trkpt>
      <trkpt lat="42.94463" lon="0.85406">
        <ele>1054</ele>
        <time>2019-08-08T10:44:27.000Z</time>
      </trkpt>
      <trkpt lat="42.94544" lon="0.85462">
        <ele>1054</ele>
        <time>2019-08-08T10:44:28.000Z</time>
      </trkpt>
      <trkpt lat="42.94544" lon="0.85462">
        <ele>1054</ele>
        <time>2019-08-08T10:44:29.000Z</time>
      </trkpt>
      <trkpt lat="42.94547" lon="0.85464">
        <ele>1054</ele>
        <time>2019-08-08T10:44:30.000Z</time>
      </trkpt>
      <trkpt lat="42.9455" lon="0.85466">
        <ele>1054</ele>
        <time>2019-08-08T10:44:31.000Z</time>
      </trkpt>
      <trkpt lat="42.94554" lon="0.85469">
        <ele>1053</ele>
        <time>2019-08-08T10:44:32.000Z</time>
      </trkpt>
      <trkpt lat="42.94558" lon="0.85471">
        <ele>1053</ele>
        <time>2019-08-08T10:44:33.000Z</time>
      </trkpt>
      <trkpt lat="42.94563" lon="0.85473">
        <ele>1052</ele>
        <time>2019-08-08T10:44:34.000Z</time>
      </trkpt>
      <trkpt lat="42.94568" lon="0.85475">
        <ele>1051</ele>
        <time>2019-08-08T10:44:35.000Z</time>
      </trkpt>
      <trkpt lat="42.94575" lon="0.85478">
        <ele>1051</ele>
        <time>2019-08-08T10:44:36.000Z</time>
      </trkpt>
      <trkpt lat="42.94582" lon="0.85481">
        <ele>1051</ele>
        <time>2019-08-08T10:44:37.000Z</time>
      </trkpt>
      <trkpt lat="42.94588" lon="0.85487">
        <ele>1051</ele>
        <time>2019-08-08T10:44:38.000Z</time>
      </trkpt>
      <trkpt lat="42.94593" lon="0.85496">
        <ele>1048</ele>
        <time>2019-08-08T10:44:39.000Z</time>
      </trkpt>
      <trkpt lat="42.94595" lon="0.85507">
        <ele>1048</ele>
        <time>2019-08-08T10:44:40.000Z</time>
      </trkpt>
      <trkpt lat="42.94596" lon="0.85519">
        <ele>1047</ele>
        <time>2019-08-08T10:44:41.000Z</time>
      </trkpt>
      <trkpt lat="42.94597" lon="0.85531">
        <ele>1048</ele>
        <time>2019-08-08T10:44:42.000Z</time>
      </trkpt>
      <trkpt lat="42.94598" lon="0.85544">
        <ele>1046</ele>
        <time>2019-08-08T10:44:43.000Z</time>
      </trkpt>
      <trkpt lat="42.94599" lon="0.85558">
        <ele>1046</ele>
        <time>2019-08-08T10:44:44.000Z</time>
      </trkpt>
      <trkpt lat="42.946" lon="0.85571">
        <ele>1046</ele>
        <time>2019-08-08T10:44:45.000Z</time>
      </trkpt>
      <trkpt lat="42.94603" lon="0.85585">
        <ele>1042</ele>
        <time>2019-08-08T10:44:46.000Z</time>
      </trkpt>
      <trkpt lat="42.94606" lon="0.85598">
        <ele>1042</ele>
        <time>2019-08-08T10:44:47.000Z</time>
      </trkpt>
      <trkpt lat="42.9461" lon="0.85611">
        <ele>1042</ele>
        <time>2019-08-08T10:44:48.000Z</time>
      </trkpt>
      <trkpt lat="42.94614" lon="0.85623">
        <ele>1039</ele>
        <time>2019-08-08T10:44:49.000Z</time>
      </trkpt>
      <trkpt lat="42.9462" lon="0.85635">
        <ele>1039</ele>
        <time>2019-08-08T10:44:50.000Z</time>
      </trkpt>
      <trkpt lat="42.94625" lon="0.85647">
        <ele>1038</ele>
        <time>2019-08-08T10:44:51.000Z</time>
      </trkpt>
      <trkpt lat="42.9463" lon="0.85661">
        <ele>1038</ele>
        <time>2019-08-08T10:44:52.000Z</time>
      </trkpt>
      <trkpt lat="42.94631" lon="0.85676">
        <ele>1037</ele>
        <time>2019-08-08T10:44:53.000Z</time>
      </trkpt>
      <trkpt lat="42.94631" lon="0.85692">
        <ele>1037</ele>
        <time>2019-08-08T10:44:54.000Z</time>
      </trkpt>
      <trkpt lat="42.94629" lon="0.85709">
        <ele>1037</ele>
        <time>2019-08-08T10:44:55.000Z</time>
      </trkpt>
      <trkpt lat="42.94628" lon="0.85725">
        <ele>1032</ele>
        <time>2019-08-08T10:44:56.000Z</time>
      </trkpt>
      <trkpt lat="42.94628" lon="0.85743">
        <ele>1032</ele>
        <time>2019-08-08T10:44:57.000Z</time>
      </trkpt>
      <trkpt lat="42.94628" lon="0.85759">
        <ele>1028</ele>
        <time>2019-08-08T10:44:58.000Z</time>
      </trkpt>
      <trkpt lat="42.94626" lon="0.85776">
        <ele>1028</ele>
        <time>2019-08-08T10:44:59.000Z</time>
      </trkpt>
      <trkpt lat="42.94624" lon="0.85793">
        <ele>1026</ele>
        <time>2019-08-08T10:45:00.000Z</time>
      </trkpt>
      <trkpt lat="42.94621" lon="0.85811">
        <ele>1026</ele>
        <time>2019-08-08T10:45:01.000Z</time>
      </trkpt>
      <trkpt lat="42.94617" lon="0.85828">
        <ele>1022</ele>
        <time>2019-08-08T10:45:02.000Z</time>
      </trkpt>
      <trkpt lat="42.94613" lon="0.85846">
        <ele>1022</ele>
        <time>2019-08-08T10:45:03.000Z</time>
      </trkpt>
      <trkpt lat="42.94611" lon="0.85864">
        <ele>1020</ele>
        <time>2019-08-08T10:45:04.000Z</time>
      </trkpt>
      <trkpt lat="42.94609" lon="0.85881">
        <ele>1020</ele>
        <time>2019-08-08T10:45:05.000Z</time>
      </trkpt>
      <trkpt lat="42.94608" lon="0.85898">
        <ele>1018</ele>
        <time>2019-08-08T10:45:06.000Z</time>
      </trkpt>
      <trkpt lat="42.94607" lon="0.85914">
        <ele>1018</ele>
        <time>2019-08-08T10:45:07.000Z</time>
      </trkpt>
      <trkpt lat="42.94607" lon="0.8593">
        <ele>1018</ele>
        <time>2019-08-08T10:45:08.000Z</time>
      </trkpt>
      <trkpt lat="42.94609" lon="0.85946">
        <ele>1014</ele>
        <time>2019-08-08T10:45:09.000Z</time>
      </trkpt>
      <trkpt lat="42.94612" lon="0.8596">
        <ele>1014</ele>
        <time>2019-08-08T10:45:10.000Z</time>
      </trkpt>
      <trkpt lat="42.94617" lon="0.85972">
        <ele>1014</ele>
        <time>2019-08-08T10:45:11.000Z</time>
      </trkpt>
      <trkpt lat="42.94621" lon="0.85982">
        <ele>1013</ele>
        <time>2019-08-08T10:45:12.000Z</time>
      </trkpt>
      <trkpt lat="42.94622" lon="0.85993">
        <ele>1013</ele>
        <time>2019-08-08T10:45:13.000Z</time>
      </trkpt>
      <trkpt lat="42.94619" lon="0.86001">
        <ele>1011</ele>
        <time>2019-08-08T10:45:14.000Z</time>
      </trkpt>
      <trkpt lat="42.94613" lon="0.86006">
        <ele>1011</ele>
        <time>2019-08-08T10:45:15.000Z</time>
      </trkpt>
      <trkpt lat="42.94607" lon="0.86005">
        <ele>1010</ele>
        <time>2019-08-08T10:45:16.000Z</time>
      </trkpt>
      <trkpt lat="42.94601" lon="0.85999">
        <ele>1010</ele>
        <time>2019-08-08T10:45:17.000Z</time>
      </trkpt>
      <trkpt lat="42.94598" lon="0.8599">
        <ele>1010</ele>
        <time>2019-08-08T10:45:18.000Z</time>
      </trkpt>
      <trkpt lat="42.94595" lon="0.85979">
        <ele>1010</ele>
        <time>2019-08-08T10:45:19.000Z</time>
      </trkpt>
      <trkpt lat="42.94592" lon="0.85967">
        <ele>1010</ele>
        <time>2019-08-08T10:45:20.000Z</time>
      </trkpt>
      <trkpt lat="42.94588" lon="0.85955">
        <ele>1010</ele>
        <time>2019-08-08T10:45:21.000Z</time>
      </trkpt>
      <trkpt lat="42.94584" lon="0.85942">
        <ele>1007</ele>
        <time>2019-08-08T10:45:22.000Z</time>
      </trkpt>
      <trkpt lat="42.9458" lon="0.85928">
        <ele>1007</ele>
        <time>2019-08-08T10:45:23.000Z</time>
      </trkpt>
      <trkpt lat="42.94572" lon="0.85907">
        <ele>1007</ele>
        <time>2019-08-08T10:45:24.000Z</time>
      </trkpt>
      <trkpt lat="42.94569" lon="0.85899">
        <ele>1005</ele>
        <time>2019-08-08T10:45:25.000Z</time>
      </trkpt>
      <trkpt lat="42.94562" lon="0.85885">
        <ele>1005</ele>
        <time>2019-08-08T10:45:26.000Z</time>
      </trkpt>
      <trkpt lat="42.94556" lon="0.85871">
        <ele>1000</ele>
        <time>2019-08-08T10:45:27.000Z</time>
      </trkpt>
      <trkpt lat="42.94548" lon="0.85857">
        <ele>1000</ele>
        <time>2019-08-08T10:45:28.000Z</time>
      </trkpt>
      <trkpt lat="42.9454" lon="0.85842">
        <ele>1000</ele>
        <time>2019-08-08T10:45:29.000Z</time>
      </trkpt>
      <trkpt lat="42.94532" lon="0.85828">
        <ele>995</ele>
        <time>2019-08-08T10:45:30.000Z</time>
      </trkpt>
      <trkpt lat="42.94524" lon="0.85813">
        <ele>995</ele>
        <time>2019-08-08T10:45:31.000Z</time>
      </trkpt>
      <trkpt lat="42.94515" lon="0.85798">
        <ele>995</ele>
        <time>2019-08-08T10:45:32.000Z</time>
      </trkpt>
      <trkpt lat="42.94507" lon="0.85785">
        <ele>991</ele>
        <time>2019-08-08T10:45:33.000Z</time>
      </trkpt>
      <trkpt lat="42.94499" lon="0.85772">
        <ele>991</ele>
        <time>2019-08-08T10:45:34.000Z</time>
      </trkpt>
      <trkpt lat="42.94491" lon="0.85759">
        <ele>988</ele>
        <time>2019-08-08T10:45:35.000Z</time>
      </trkpt>
      <trkpt lat="42.94485" lon="0.85746">
        <ele>988</ele>
        <time>2019-08-08T10:45:36.000Z</time>
      </trkpt>
      <trkpt lat="42.94482" lon="0.85732">
        <ele>986</ele>
        <time>2019-08-08T10:45:37.000Z</time>
      </trkpt>
      <trkpt lat="42.94479" lon="0.85719">
        <ele>986</ele>
        <time>2019-08-08T10:45:38.000Z</time>
      </trkpt>
      <trkpt lat="42.94476" lon="0.85708">
        <ele>986</ele>
        <time>2019-08-08T10:45:39.000Z</time>
      </trkpt>
      <trkpt lat="42.9447" lon="0.85701">
        <ele>984</ele>
        <time>2019-08-08T10:45:40.000Z</time>
      </trkpt>
      <trkpt lat="42.94462" lon="0.857">
        <ele>984</ele>
        <time>2019-08-08T10:45:41.000Z</time>
      </trkpt>
      <trkpt lat="42.94455" lon="0.85704">
        <ele>983</ele>
        <time>2019-08-08T10:45:42.000Z</time>
      </trkpt>
      <trkpt lat="42.9445" lon="0.8572">
        <ele>983</ele>
        <time>2019-08-08T10:45:43.000Z</time>
      </trkpt>
      <trkpt lat="42.94449" lon="0.85725">
        <ele>983</ele>
        <time>2019-08-08T10:45:44.000Z</time>
      </trkpt>
      <trkpt lat="42.94449" lon="0.85739">
        <ele>983</ele>
        <time>2019-08-08T10:45:45.000Z</time>
      </trkpt>
      <trkpt lat="42.94449" lon="0.85752">
        <ele>980</ele>
        <time>2019-08-08T10:45:46.000Z</time>
      </trkpt>
      <trkpt lat="42.94449" lon="0.85766">
        <ele>980</ele>
        <time>2019-08-08T10:45:47.000Z</time>
      </trkpt>
      <trkpt lat="42.9445" lon="0.85782">
        <ele>978</ele>
        <time>2019-08-08T10:45:48.000Z</time>
      </trkpt>
      <trkpt lat="42.94451" lon="0.85798">
        <ele>978</ele>
        <time>2019-08-08T10:45:49.000Z</time>
      </trkpt>
      <trkpt lat="42.94452" lon="0.85814">
        <ele>974</ele>
        <time>2019-08-08T10:45:50.000Z</time>
      </trkpt>
      <trkpt lat="42.94452" lon="0.85831">
        <ele>974</ele>
        <time>2019-08-08T10:45:51.000Z</time>
      </trkpt>
      <trkpt lat="42.94453" lon="0.85849">
        <ele>972</ele>
        <time>2019-08-08T10:45:52.000Z</time>
      </trkpt>
      <trkpt lat="42.94453" lon="0.85865">
        <ele>972</ele>
        <time>2019-08-08T10:45:53.000Z</time>
      </trkpt>
      <trkpt lat="42.94454" lon="0.85881">
        <ele>972</ele>
        <time>2019-08-08T10:45:54.000Z</time>
      </trkpt>
      <trkpt lat="42.94457" lon="0.85897">
        <ele>968</ele>
        <time>2019-08-08T10:45:55.000Z</time>
      </trkpt>
      <trkpt lat="42.94463" lon="0.8591">
        <ele>968</ele>
        <time>2019-08-08T10:45:56.000Z</time>
      </trkpt>
      <trkpt lat="42.94471" lon="0.85923">
        <ele>964</ele>
        <time>2019-08-08T10:45:57.000Z</time>
      </trkpt>
      <trkpt lat="42.94478" lon="0.85937">
        <ele>964</ele>
        <time>2019-08-08T10:45:58.000Z</time>
      </trkpt>
      <trkpt lat="42.94485" lon="0.85953">
        <ele>964</ele>
        <time>2019-08-08T10:45:59.000Z</time>
      </trkpt>
      <trkpt lat="42.94488" lon="0.85971">
        <ele>961</ele>
        <time>2019-08-08T10:46:00.000Z</time>
      </trkpt>
      <trkpt lat="42.94489" lon="0.85989">
        <ele>961</ele>
        <time>2019-08-08T10:46:01.000Z</time>
      </trkpt>
      <trkpt lat="42.9449" lon="0.86007">
        <ele>961</ele>
        <time>2019-08-08T10:46:02.000Z</time>
      </trkpt>
      <trkpt lat="42.94491" lon="0.86025">
        <ele>957</ele>
        <time>2019-08-08T10:46:03.000Z</time>
      </trkpt>
      <trkpt lat="42.94493" lon="0.86043">
        <ele>957</ele>
        <time>2019-08-08T10:46:04.000Z</time>
      </trkpt>
      <trkpt lat="42.94496" lon="0.86061">
        <ele>957</ele>
        <time>2019-08-08T10:46:05.000Z</time>
      </trkpt>
      <trkpt lat="42.94501" lon="0.86079">
        <ele>952</ele>
        <time>2019-08-08T10:46:06.000Z</time>
      </trkpt>
      <trkpt lat="42.94505" lon="0.86096">
        <ele>952</ele>
        <time>2019-08-08T10:46:07.000Z</time>
      </trkpt>
      <trkpt lat="42.94507" lon="0.86113">
        <ele>950</ele>
        <time>2019-08-08T10:46:08.000Z</time>
      </trkpt>
      <trkpt lat="42.94506" lon="0.8613">
        <ele>950</ele>
        <time>2019-08-08T10:46:09.000Z</time>
      </trkpt>
      <trkpt lat="42.94502" lon="0.86147">
        <ele>945</ele>
        <time>2019-08-08T10:46:10.000Z</time>
      </trkpt>
      <trkpt lat="42.94495" lon="0.86162">
        <ele>945</ele>
        <time>2019-08-08T10:46:11.000Z</time>
      </trkpt>
      <trkpt lat="42.94489" lon="0.86177">
        <ele>943</ele>
        <time>2019-08-08T10:46:12.000Z</time>
      </trkpt>
      <trkpt lat="42.94481" lon="0.86193">
        <ele>943</ele>
        <time>2019-08-08T10:46:13.000Z</time>
      </trkpt>
      <trkpt lat="42.94475" lon="0.86209">
        <ele>940</ele>
        <time>2019-08-08T10:46:14.000Z</time>
      </trkpt>
      <trkpt lat="42.94468" lon="0.86226">
        <ele>940</ele>
        <time>2019-08-08T10:46:15.000Z</time>
      </trkpt>
      <trkpt lat="42.94462" lon="0.86244">
        <ele>938</ele>
        <time>2019-08-08T10:46:16.000Z</time>
      </trkpt>
      <trkpt lat="42.94456" lon="0.86262">
        <ele>938</ele>
        <time>2019-08-08T10:46:17.000Z</time>
      </trkpt>
      <trkpt lat="42.94451" lon="0.8628">
        <ele>938</ele>
        <time>2019-08-08T10:46:18.000Z</time>
      </trkpt>
      <trkpt lat="42.94446" lon="0.86299">
        <ele>934</ele>
        <time>2019-08-08T10:46:19.000Z</time>
      </trkpt>
      <trkpt lat="42.94443" lon="0.86319">
        <ele>934</ele>
        <time>2019-08-08T10:46:20.000Z</time>
      </trkpt>
      <trkpt lat="42.94438" lon="0.86348">
        <ele>934</ele>
        <time>2019-08-08T10:46:21.000Z</time>
      </trkpt>
      <trkpt lat="42.94436" lon="0.86358">
        <ele>931.6</ele>
        <time>2019-08-08T10:46:22.000Z</time>
      </trkpt>
      <trkpt lat="42.94432" lon="0.86377">
        <ele>929</ele>
        <time>2019-08-08T10:46:23.000Z</time>
      </trkpt>
      <trkpt lat="42.94429" lon="0.86396">
        <ele>929</ele>
        <time>2019-08-08T10:46:24.000Z</time>
      </trkpt>
      <trkpt lat="42.94427" lon="0.86414">
        <ele>923</ele>
        <time>2019-08-08T10:46:25.000Z</time>
      </trkpt>
      <trkpt lat="42.94425" lon="0.86431">
        <ele>923</ele>
        <time>2019-08-08T10:46:26.000Z</time>
      </trkpt>
      <trkpt lat="42.94422" lon="0.86448">
        <ele>921</ele>
        <time>2019-08-08T10:46:27.000Z</time>
      </trkpt>
      <trkpt lat="42.9442" lon="0.86464">
        <ele>921</ele>
        <time>2019-08-08T10:46:28.000Z</time>
      </trkpt>
      <trkpt lat="42.94418" lon="0.8648">
        <ele>920</ele>
        <time>2019-08-08T10:46:29.000Z</time>
      </trkpt>
      <trkpt lat="42.94416" lon="0.86496">
        <ele>920</ele>
        <time>2019-08-08T10:46:30.000Z</time>
      </trkpt>
      <trkpt lat="42.94415" lon="0.86511">
        <ele>920</ele>
        <time>2019-08-08T10:46:31.000Z</time>
      </trkpt>
      <trkpt lat="42.94417" lon="0.86526">
        <ele>917</ele>
        <time>2019-08-08T10:46:32.000Z</time>
      </trkpt>
      <trkpt lat="42.9442" lon="0.86539">
        <ele>917</ele>
        <time>2019-08-08T10:46:33.000Z</time>
      </trkpt>
      <trkpt lat="42.94425" lon="0.8655">
        <ele>916</ele>
        <time>2019-08-08T10:46:34.000Z</time>
      </trkpt>
      <trkpt lat="42.94429" lon="0.86559">
        <ele>916</ele>
        <time>2019-08-08T10:46:35.000Z</time>
      </trkpt>
      <trkpt lat="42.94431" lon="0.86568">
        <ele>914</ele>
        <time>2019-08-08T10:46:36.000Z</time>
      </trkpt>
      <trkpt lat="42.94428" lon="0.86577">
        <ele>914</ele>
        <time>2019-08-08T10:46:37.000Z</time>
      </trkpt>
      <trkpt lat="42.94422" lon="0.86581">
        <ele>914</ele>
        <time>2019-08-08T10:46:38.000Z</time>
      </trkpt>
      <trkpt lat="42.94416" lon="0.8658">
        <ele>914</ele>
        <time>2019-08-08T10:46:39.000Z</time>
      </trkpt>
      <trkpt lat="42.94409" lon="0.86574">
        <ele>913</ele>
        <time>2019-08-08T10:46:40.000Z</time>
      </trkpt>
      <trkpt lat="42.94403" lon="0.86567">
        <ele>913</ele>
        <time>2019-08-08T10:46:41.000Z</time>
      </trkpt>
      <trkpt lat="42.94398" lon="0.86558">
        <ele>913</ele>
        <time>2019-08-08T10:46:42.000Z</time>
      </trkpt>
      <trkpt lat="42.94391" lon="0.86549">
        <ele>911</ele>
        <time>2019-08-08T10:46:43.000Z</time>
      </trkpt>
      <trkpt lat="42.94384" lon="0.8654">
        <ele>911</ele>
        <time>2019-08-08T10:46:44.000Z</time>
      </trkpt>
      <trkpt lat="42.94377" lon="0.86529">
        <ele>909</ele>
        <time>2019-08-08T10:46:45.000Z</time>
      </trkpt>
      <trkpt lat="42.94371" lon="0.86518">
        <ele>909</ele>
        <time>2019-08-08T10:46:46.000Z</time>
      </trkpt>
      <trkpt lat="42.94364" lon="0.86508">
        <ele>906</ele>
        <time>2019-08-08T10:46:47.000Z</time>
      </trkpt>
      <trkpt lat="42.94357" lon="0.86497">
        <ele>906</ele>
        <time>2019-08-08T10:46:48.000Z</time>
      </trkpt>
      <trkpt lat="42.94351" lon="0.86487">
        <ele>904</ele>
        <time>2019-08-08T10:46:49.000Z</time>
      </trkpt>
      <trkpt lat="42.94345" lon="0.86476">
        <ele>904</ele>
        <time>2019-08-08T10:46:50.000Z</time>
      </trkpt>
      <trkpt lat="42.94339" lon="0.86463">
        <ele>901</ele>
        <time>2019-08-08T10:46:51.000Z</time>
      </trkpt>
      <trkpt lat="42.94334" lon="0.8645">
        <ele>901</ele>
        <time>2019-08-08T10:46:52.000Z</time>
      </trkpt>
      <trkpt lat="42.94327" lon="0.86436">
        <ele>899</ele>
        <time>2019-08-08T10:46:53.000Z</time>
      </trkpt>
      <trkpt lat="42.94321" lon="0.86423">
        <ele>899</ele>
        <time>2019-08-08T10:46:54.000Z</time>
      </trkpt>
      <trkpt lat="42.94315" lon="0.8641">
        <ele>898</ele>
        <time>2019-08-08T10:46:55.000Z</time>
      </trkpt>
      <trkpt lat="42.94311" lon="0.86396">
        <ele>898</ele>
        <time>2019-08-08T10:46:56.000Z</time>
      </trkpt>
      <trkpt lat="42.94309" lon="0.86381">
        <ele>898</ele>
        <time>2019-08-08T10:46:57.000Z</time>
      </trkpt>
      <trkpt lat="42.94308" lon="0.86368">
        <ele>896</ele>
        <time>2019-08-08T10:46:58.000Z</time>
      </trkpt>
      <trkpt lat="42.94305" lon="0.86357">
        <ele>896</ele>
        <time>2019-08-08T10:46:59.000Z</time>
      </trkpt>
      <trkpt lat="42.943" lon="0.86349">
        <ele>894</ele>
        <time>2019-08-08T10:47:00.000Z</time>
      </trkpt>
      <trkpt lat="42.94293" lon="0.86346">
        <ele>894</ele>
        <time>2019-08-08T10:47:01.000Z</time>
      </trkpt>
      <trkpt lat="42.94286" lon="0.8635">
        <ele>894</ele>
        <time>2019-08-08T10:47:02.000Z</time>
      </trkpt>
      <trkpt lat="42.94281" lon="0.86359">
        <ele>893</ele>
        <time>2019-08-08T10:47:03.000Z</time>
      </trkpt>
      <trkpt lat="42.9428" lon="0.8637">
        <ele>893</ele>
        <time>2019-08-08T10:47:04.000Z</time>
      </trkpt>
      <trkpt lat="42.94281" lon="0.86382">
        <ele>891</ele>
        <time>2019-08-08T10:47:05.000Z</time>
      </trkpt>
      <trkpt lat="42.9428" lon="0.86401">
        <ele>891</ele>
        <time>2019-08-08T10:47:06.000Z</time>
      </trkpt>
      <trkpt lat="42.9428" lon="0.86407">
        <ele>887</ele>
        <time>2019-08-08T10:47:07.000Z</time>
      </trkpt>
      <trkpt lat="42.94279" lon="0.8642">
        <ele>887</ele>
        <time>2019-08-08T10:47:08.000Z</time>
      </trkpt>
      <trkpt lat="42.94276" lon="0.86434">
        <ele>887</ele>
        <time>2019-08-08T10:47:09.000Z</time>
      </trkpt>
      <trkpt lat="42.94272" lon="0.86447">
        <ele>886</ele>
        <time>2019-08-08T10:47:10.000Z</time>
      </trkpt>
      <trkpt lat="42.94268" lon="0.86461">
        <ele>886</ele>
        <time>2019-08-08T10:47:11.000Z</time>
      </trkpt>
      <trkpt lat="42.94264" lon="0.86474">
        <ele>884</ele>
        <time>2019-08-08T10:47:12.000Z</time>
      </trkpt>
      <trkpt lat="42.9426" lon="0.86488">
        <ele>884</ele>
        <time>2019-08-08T10:47:13.000Z</time>
      </trkpt>
      <trkpt lat="42.94257" lon="0.86502">
        <ele>884</ele>
        <time>2019-08-08T10:47:14.000Z</time>
      </trkpt>
      <trkpt lat="42.94253" lon="0.86515">
        <ele>881</ele>
        <time>2019-08-08T10:47:15.000Z</time>
      </trkpt>
      <trkpt lat="42.9425" lon="0.86527">
        <ele>881</ele>
        <time>2019-08-08T10:47:16.000Z</time>
      </trkpt>
      <trkpt lat="42.94244" lon="0.86536">
        <ele>880</ele>
        <time>2019-08-08T10:47:17.000Z</time>
      </trkpt>
      <trkpt lat="42.94236" lon="0.86543">
        <ele>880</ele>
        <time>2019-08-08T10:47:18.000Z</time>
      </trkpt>
      <trkpt lat="42.94227" lon="0.86545">
        <ele>878</ele>
        <time>2019-08-08T10:47:19.000Z</time>
      </trkpt>
      <trkpt lat="42.94219" lon="0.86544">
        <ele>878</ele>
        <time>2019-08-08T10:47:20.000Z</time>
      </trkpt>
      <trkpt lat="42.94212" lon="0.8654">
        <ele>878</ele>
        <time>2019-08-08T10:47:21.000Z</time>
      </trkpt>
      <trkpt lat="42.94206" lon="0.86528">
        <ele>878</ele>
        <time>2019-08-08T10:47:22.000Z</time>
      </trkpt>
      <trkpt lat="42.94204" lon="0.86523">
        <ele>876</ele>
        <time>2019-08-08T10:47:23.000Z</time>
      </trkpt>
      <trkpt lat="42.94201" lon="0.86514">
        <ele>876</ele>
        <time>2019-08-08T10:47:24.000Z</time>
      </trkpt>
      <trkpt lat="42.94198" lon="0.86505">
        <ele>873</ele>
        <time>2019-08-08T10:47:25.000Z</time>
      </trkpt>
      <trkpt lat="42.94194" lon="0.86498">
        <ele>873</ele>
        <time>2019-08-08T10:47:26.000Z</time>
      </trkpt>
      <trkpt lat="42.94188" lon="0.86494">
        <ele>873</ele>
        <time>2019-08-08T10:47:27.000Z</time>
      </trkpt>
      <trkpt lat="42.94182" lon="0.86492">
        <ele>873</ele>
        <time>2019-08-08T10:47:28.000Z</time>
      </trkpt>
      <trkpt lat="42.94177" lon="0.86492">
        <ele>872</ele>
        <time>2019-08-08T10:47:29.000Z</time>
      </trkpt>
      <trkpt lat="42.94171" lon="0.86492">
        <ele>872</ele>
        <time>2019-08-08T10:47:30.000Z</time>
      </trkpt>
      <trkpt lat="42.94165" lon="0.86494">
        <ele>871</ele>
        <time>2019-08-08T10:47:31.000Z</time>
      </trkpt>
      <trkpt lat="42.94157" lon="0.86494">
        <ele>871</ele>
        <time>2019-08-08T10:47:32.000Z</time>
      </trkpt>
      <trkpt lat="42.94149" lon="0.86494">
        <ele>869</ele>
        <time>2019-08-08T10:47:33.000Z</time>
      </trkpt>
      <trkpt lat="42.94141" lon="0.86492">
        <ele>869</ele>
        <time>2019-08-08T10:47:34.000Z</time>
      </trkpt>
      <trkpt lat="42.94133" lon="0.86492">
        <ele>867</ele>
        <time>2019-08-08T10:47:35.000Z</time>
      </trkpt>
      <trkpt lat="42.94126" lon="0.86491">
        <ele>867</ele>
        <time>2019-08-08T10:47:36.000Z</time>
      </trkpt>
      <trkpt lat="42.94117" lon="0.86495">
        <ele>867</ele>
        <time>2019-08-08T10:47:37.000Z</time>
      </trkpt>
      <trkpt lat="42.94114" lon="0.86498">
        <ele>867</ele>
        <time>2019-08-08T10:47:38.000Z</time>
      </trkpt>
      <trkpt lat="42.9411" lon="0.86506">
        <ele>867</ele>
        <time>2019-08-08T10:47:39.000Z</time>
      </trkpt>
      <trkpt lat="42.94107" lon="0.86515">
        <ele>866</ele>
        <time>2019-08-08T10:47:40.000Z</time>
      </trkpt>
      <trkpt lat="42.94105" lon="0.86526">
        <ele>866</ele>
        <time>2019-08-08T10:47:41.000Z</time>
      </trkpt>
      <trkpt lat="42.94103" lon="0.86537">
        <ele>863</ele>
        <time>2019-08-08T10:47:42.000Z</time>
      </trkpt>
      <trkpt lat="42.94099" lon="0.86547">
        <ele>863</ele>
        <time>2019-08-08T10:47:43.000Z</time>
      </trkpt>
      <trkpt lat="42.94094" lon="0.86556">
        <ele>861</ele>
        <time>2019-08-08T10:47:44.000Z</time>
      </trkpt>
      <trkpt lat="42.94088" lon="0.86563">
        <ele>861</ele>
        <time>2019-08-08T10:47:45.000Z</time>
      </trkpt>
      <trkpt lat="42.94082" lon="0.8657">
        <ele>860</ele>
        <time>2019-08-08T10:47:46.000Z</time>
      </trkpt>
      <trkpt lat="42.94074" lon="0.86575">
        <ele>860</ele>
        <time>2019-08-08T10:47:47.000Z</time>
      </trkpt>
      <trkpt lat="42.94067" lon="0.8658">
        <ele>860</ele>
        <time>2019-08-08T10:47:48.000Z</time>
      </trkpt>
      <trkpt lat="42.94062" lon="0.86583">
        <ele>860</ele>
        <time>2019-08-08T10:47:49.000Z</time>
      </trkpt>
      <trkpt lat="42.94057" lon="0.86586">
        <ele>860</ele>
        <time>2019-08-08T10:47:50.000Z</time>
      </trkpt>
      <trkpt lat="42.94054" lon="0.86587">
        <ele>860</ele>
        <time>2019-08-08T10:47:51.000Z</time>
      </trkpt>
      <trkpt lat="42.94054" lon="0.86587">
        <ele>859</ele>
        <time>2019-08-08T10:47:52.000Z</time>
      </trkpt>
      <trkpt lat="42.94054" lon="0.86589">
        <ele>859</ele>
        <time>2019-08-08T10:47:53.000Z</time>
      </trkpt>
      <trkpt lat="42.94054" lon="0.86589">
        <ele>858</ele>
        <time>2019-08-08T10:47:54.000Z</time>
      </trkpt>
      <trkpt lat="42.94057" lon="0.86589">
        <ele>858</ele>
        <time>2019-08-08T10:47:55.000Z</time>
      </trkpt>
      <trkpt lat="42.94057" lon="0.86589">
        <ele>859</ele>
        <time>2019-08-08T10:47:56.000Z</time>
      </trkpt>
      <trkpt lat="42.94057" lon="0.86589">
        <ele>859</ele>
        <time>2019-08-08T10:47:57.000Z</time>
      </trkpt>
      <trkpt lat="42.94059" lon="0.86589">
        <ele>859</ele>
        <time>2019-08-08T10:47:58.000Z</time>
      </trkpt>
      <trkpt lat="42.94059" lon="0.86589">
        <ele>859</ele>
        <time>2019-08-08T10:47:59.000Z</time>
      </trkpt>
      <trkpt lat="42.94059" lon="0.86589">
        <ele>860</ele>
        <time>2019-08-08T10:48:00.000Z</time>
      </trkpt>
      <trkpt lat="42.94059" lon="0.86589">
        <ele>860</ele>
        <time>2019-08-08T10:48:01.000Z</time>
      </trkpt>
      <trkpt lat="42.94061" lon="0.86588">
        <ele>860</ele>
        <time>2019-08-08T10:48:02.000Z</time>
      </trkpt>
      <trkpt lat="42.94061" lon="0.86588">
        <ele>860</ele>
        <time>2019-08-08T10:48:03.000Z</time>
      </trkpt>
      <trkpt lat="42.94061" lon="0.86585">
        <ele>860</ele>
        <time>2019-08-08T10:48:04.000Z</time>
      </trkpt>
      <trkpt lat="42.94061" lon="0.86585">
        <ele>860</ele>
        <time>2019-08-08T10:48:05.000Z</time>
      </trkpt>
      <trkpt lat="42.94061" lon="0.86582">
        <ele>860</ele>
        <time>2019-08-08T10:48:06.000Z</time>
      </trkpt>
      <trkpt lat="42.94061" lon="0.86582">
        <ele>860</ele>
        <time>2019-08-08T10:48:07.000Z</time>
      </trkpt>
      <trkpt lat="42.9406" lon="0.8658">
        <ele>860</ele>
        <time>2019-08-08T10:48:08.000Z</time>
      </trkpt>
      <trkpt lat="42.94059" lon="0.86581">
        <ele>860</ele>
        <time>2019-08-08T10:48:09.000Z</time>
      </trkpt>
      <trkpt lat="42.94059" lon="0.86582">
        <ele>860</ele>
        <time>2019-08-08T10:48:10.000Z</time>
      </trkpt>
      <trkpt lat="42.94058" lon="0.86583">
        <ele>860</ele>
        <time>2019-08-08T10:48:11.000Z</time>
      </trkpt>
      <trkpt lat="42.94057" lon="0.86583">
        <ele>860</ele>
        <time>2019-08-08T10:48:12.000Z</time>
      </trkpt>
      <trkpt lat="42.94056" lon="0.86584">
        <ele>860</ele>
        <time>2019-08-08T10:48:13.000Z</time>
      </trkpt>
      <trkpt lat="42.94056" lon="0.86585">
        <ele>860</ele>
        <time>2019-08-08T10:48:14.000Z</time>
      </trkpt>
      <trkpt lat="42.94055" lon="0.86586">
        <ele>860</ele>
        <time>2019-08-08T10:48:15.000Z</time>
      </trkpt>
      <trkpt lat="42.94054" lon="0.86587">
        <ele>860</ele>
        <time>2019-08-08T10:48:16.000Z</time>
      </trkpt>
      <trkpt lat="42.94053" lon="0.86588">
        <ele>860</ele>
        <time>2019-08-08T10:48:17.000Z</time>
      </trkpt>
      <trkpt lat="42.94052" lon="0.86589">
        <ele>860</ele>
        <time>2019-08-08T10:48:18.000Z</time>
      </trkpt>
      <trkpt lat="42.94052" lon="0.8659">
        <ele>860</ele>
        <time>2019-08-08T10:48:19.000Z</time>
      </trkpt>
      <trkpt lat="42.94051" lon="0.8659">
        <ele>860</ele>
        <time>2019-08-08T10:48:20.000Z</time>
      </trkpt>
      <trkpt lat="42.9405" lon="0.86591">
        <ele>860</ele>
        <time>2019-08-08T10:48:21.000Z</time>
      </trkpt>
      <trkpt lat="42.94049" lon="0.86592">
        <ele>860</ele>
        <time>2019-08-08T10:48:22.000Z</time>
      </trkpt>
      <trkpt lat="42.94049" lon="0.86593">
        <ele>860</ele>
        <time>2019-08-08T10:48:23.000Z</time>
      </trkpt>
      <trkpt lat="42.94048" lon="0.86594">
        <ele>860</ele>
        <time>2019-08-08T10:48:24.000Z</time>
      </trkpt>
      <trkpt lat="42.94047" lon="0.86595">
        <ele>860</ele>
        <time>2019-08-08T10:48:25.000Z</time>
      </trkpt>
      <trkpt lat="42.94046" lon="0.86596">
        <ele>860</ele>
        <time>2019-08-08T10:48:26.000Z</time>
      </trkpt>
      <trkpt lat="42.94046" lon="0.86596">
        <ele>860</ele>
        <time>2019-08-08T10:48:27.000Z</time>
      </trkpt>
      <trkpt lat="42.94045" lon="0.86597">
        <ele>860</ele>
        <time>2019-08-08T10:48:28.000Z</time>
      </trkpt>
      <trkpt lat="42.94044" lon="0.86598">
        <ele>860</ele>
        <time>2019-08-08T10:48:29.000Z</time>
      </trkpt>
      <trkpt lat="42.94043" lon="0.86599">
        <ele>860</ele>
        <time>2019-08-08T10:48:30.000Z</time>
      </trkpt>
      <trkpt lat="42.94043" lon="0.866">
        <ele>860</ele>
        <time>2019-08-08T10:48:31.000Z</time>
      </trkpt>
      <trkpt lat="42.94042" lon="0.86601">
        <ele>860</ele>
        <time>2019-08-08T10:48:32.000Z</time>
      </trkpt>
      <trkpt lat="42.94041" lon="0.86602">
        <ele>860</ele>
        <time>2019-08-08T10:48:33.000Z</time>
      </trkpt>
      <trkpt lat="42.9404" lon="0.86603">
        <ele>860</ele>
        <time>2019-08-08T10:48:34.000Z</time>
      </trkpt>
      <trkpt lat="42.94039" lon="0.86603">
        <ele>860</ele>
        <time>2019-08-08T10:48:35.000Z</time>
      </trkpt>
      <trkpt lat="42.94039" lon="0.86604">
        <ele>860</ele>
        <time>2019-08-08T10:48:36.000Z</time>
      </trkpt>
      <trkpt lat="42.94038" lon="0.86605">
        <ele>860</ele>
        <time>2019-08-08T10:48:37.000Z</time>
      </trkpt>
      <trkpt lat="42.94037" lon="0.86606">
        <ele>860</ele>
        <time>2019-08-08T10:48:38.000Z</time>
      </trkpt>
      <trkpt lat="42.94036" lon="0.86607">
        <ele>859</ele>
        <time>2019-08-08T10:48:39.000Z</time>
      </trkpt>
      <trkpt lat="42.94036" lon="0.86608">
        <ele>859</ele>
        <time>2019-08-08T10:48:40.000Z</time>
      </trkpt>
      <trkpt lat="42.94035" lon="0.86609">
        <ele>860</ele>
        <time>2019-08-08T10:48:41.000Z</time>
      </trkpt>
      <trkpt lat="42.94034" lon="0.86609">
        <ele>860</ele>
        <time>2019-08-08T10:48:42.000Z</time>
      </trkpt>
      <trkpt lat="42.94033" lon="0.8661">
        <ele>860</ele>
        <time>2019-08-08T10:48:43.000Z</time>
      </trkpt>
      <trkpt lat="42.94033" lon="0.86611">
        <ele>860</ele>
        <time>2019-08-08T10:48:44.000Z</time>
      </trkpt>
      <trkpt lat="42.94032" lon="0.86612">
        <ele>860</ele>
        <time>2019-08-08T10:48:45.000Z</time>
      </trkpt>
      <trkpt lat="42.94031" lon="0.86613">
        <ele>858</ele>
        <time>2019-08-08T10:49:11.000Z</time>
      </trkpt>
      <trkpt lat="42.9403" lon="0.86614">
        <ele>857</ele>
        <time>2019-08-08T10:49:12.000Z</time>
      </trkpt>
      <trkpt lat="42.94029" lon="0.86615">
        <ele>857</ele>
        <time>2019-08-08T10:49:13.000Z</time>
      </trkpt>
      <trkpt lat="42.94026" lon="0.86624">
        <ele>857</ele>
        <time>2019-08-08T10:49:14.000Z</time>
      </trkpt>
      <trkpt lat="42.94025" lon="0.86627">
        <ele>856</ele>
        <time>2019-08-08T10:49:15.000Z</time>
      </trkpt>
      <trkpt lat="42.94022" lon="0.86634">
        <ele>856</ele>
        <time>2019-08-08T10:49:16.000Z</time>
      </trkpt>
      <trkpt lat="42.94019" lon="0.86641">
        <ele>855</ele>
        <time>2019-08-08T10:49:17.000Z</time>
      </trkpt>
      <trkpt lat="42.94016" lon="0.86648">
        <ele>855</ele>
        <time>2019-08-08T10:49:18.000Z</time>
      </trkpt>
      <trkpt lat="42.94013" lon="0.86656">
        <ele>855</ele>
        <time>2019-08-08T10:49:19.000Z</time>
      </trkpt>
      <trkpt lat="42.94009" lon="0.86664">
        <ele>854</ele>
        <time>2019-08-08T10:49:20.000Z</time>
      </trkpt>
      <trkpt lat="42.94006" lon="0.86671">
        <ele>854</ele>
        <time>2019-08-08T10:49:21.000Z</time>
      </trkpt>
      <trkpt lat="42.94001" lon="0.86679">
        <ele>854</ele>
        <time>2019-08-08T10:49:22.000Z</time>
      </trkpt>
      <trkpt lat="42.93997" lon="0.86686">
        <ele>853</ele>
        <time>2019-08-08T10:49:23.000Z</time>
      </trkpt>
      <trkpt lat="42.93992" lon="0.86693">
        <ele>853</ele>
        <time>2019-08-08T10:49:24.000Z</time>
      </trkpt>
      <trkpt lat="42.93987" lon="0.86701">
        <ele>851</ele>
        <time>2019-08-08T10:49:25.000Z</time>
      </trkpt>
      <trkpt lat="42.93981" lon="0.86709">
        <ele>851</ele>
        <time>2019-08-08T10:49:26.000Z</time>
      </trkpt>
      <trkpt lat="42.93975" lon="0.86716">
        <ele>851</ele>
        <time>2019-08-08T10:49:27.000Z</time>
      </trkpt>
      <trkpt lat="42.93969" lon="0.86724">
        <ele>851</ele>
        <time>2019-08-08T10:49:28.000Z</time>
      </trkpt>
      <trkpt lat="42.93963" lon="0.86731">
        <ele>850</ele>
        <time>2019-08-08T10:49:29.000Z</time>
      </trkpt>
      <trkpt lat="42.93957" lon="0.86739">
        <ele>850</ele>
        <time>2019-08-08T10:49:30.000Z</time>
      </trkpt>
      <trkpt lat="42.9395" lon="0.86747">
        <ele>849</ele>
        <time>2019-08-08T10:49:31.000Z</time>
      </trkpt>
      <trkpt lat="42.93944" lon="0.86755">
        <ele>849</ele>
        <time>2019-08-08T10:49:32.000Z</time>
      </trkpt>
      <trkpt lat="42.93938" lon="0.86763">
        <ele>849</ele>
        <time>2019-08-08T10:49:33.000Z</time>
      </trkpt>
      <trkpt lat="42.93932" lon="0.86772">
        <ele>849</ele>
        <time>2019-08-08T10:49:34.000Z</time>
      </trkpt>
      <trkpt lat="42.93925" lon="0.86781">
        <ele>849</ele>
        <time>2019-08-08T10:49:35.000Z</time>
      </trkpt>
      <trkpt lat="42.93919" lon="0.86789">
        <ele>848</ele>
        <time>2019-08-08T10:49:36.000Z</time>
      </trkpt>
      <trkpt lat="42.93909" lon="0.86802">
        <ele>848</ele>
        <time>2019-08-08T10:49:37.000Z</time>
      </trkpt>
      <trkpt lat="42.93906" lon="0.86807">
        <ele>847.6</ele>
        <time>2019-08-08T10:49:38.000Z</time>
      </trkpt>
      <trkpt lat="42.93899" lon="0.86816">
        <ele>847</ele>
        <time>2019-08-08T10:49:39.000Z</time>
      </trkpt>
      <trkpt lat="42.93892" lon="0.86826">
        <ele>844</ele>
        <time>2019-08-08T10:49:40.000Z</time>
      </trkpt>
      <trkpt lat="42.93886" lon="0.86835">
        <ele>844</ele>
        <time>2019-08-08T10:49:41.000Z</time>
      </trkpt>
      <trkpt lat="42.93879" lon="0.86845">
        <ele>844</ele>
        <time>2019-08-08T10:49:42.000Z</time>
      </trkpt>
      <trkpt lat="42.93872" lon="0.86856">
        <ele>844</ele>
        <time>2019-08-08T10:49:43.000Z</time>
      </trkpt>
      <trkpt lat="42.93866" lon="0.86866">
        <ele>844</ele>
        <time>2019-08-08T10:49:44.000Z</time>
      </trkpt>
      <trkpt lat="42.9386" lon="0.86878">
        <ele>844</ele>
        <time>2019-08-08T10:49:45.000Z</time>
      </trkpt>
      <trkpt lat="42.93855" lon="0.8689">
        <ele>843</ele>
        <time>2019-08-08T10:49:46.000Z</time>
      </trkpt>
      <trkpt lat="42.93851" lon="0.86903">
        <ele>843</ele>
        <time>2019-08-08T10:49:47.000Z</time>
      </trkpt>
      <trkpt lat="42.93847" lon="0.86916">
        <ele>843</ele>
        <time>2019-08-08T10:49:48.000Z</time>
      </trkpt>
      <trkpt lat="42.93843" lon="0.86929">
        <ele>843</ele>
        <time>2019-08-08T10:49:49.000Z</time>
      </trkpt>
      <trkpt lat="42.93839" lon="0.86942">
        <ele>842</ele>
        <time>2019-08-08T10:49:50.000Z</time>
      </trkpt>
      <trkpt lat="42.93835" lon="0.86956">
        <ele>842</ele>
        <time>2019-08-08T10:49:51.000Z</time>
      </trkpt>
      <trkpt lat="42.93832" lon="0.8697">
        <ele>842</ele>
        <time>2019-08-08T10:49:52.000Z</time>
      </trkpt>
      <trkpt lat="42.93829" lon="0.86984">
        <ele>840</ele>
        <time>2019-08-08T10:49:53.000Z</time>
      </trkpt>
      <trkpt lat="42.93826" lon="0.86999">
        <ele>840</ele>
        <time>2019-08-08T10:49:54.000Z</time>
      </trkpt>
      <trkpt lat="42.93823" lon="0.87014">
        <ele>840</ele>
        <time>2019-08-08T10:49:55.000Z</time>
      </trkpt>
      <trkpt lat="42.9382" lon="0.87029">
        <ele>837</ele>
        <time>2019-08-08T10:49:56.000Z</time>
      </trkpt>
      <trkpt lat="42.93817" lon="0.87045">
        <ele>837</ele>
        <time>2019-08-08T10:49:57.000Z</time>
      </trkpt>
      <trkpt lat="42.93815" lon="0.87062">
        <ele>835</ele>
        <time>2019-08-08T10:49:58.000Z</time>
      </trkpt>
      <trkpt lat="42.93813" lon="0.87079">
        <ele>835</ele>
        <time>2019-08-08T10:49:59.000Z</time>
      </trkpt>
      <trkpt lat="42.93811" lon="0.87096">
        <ele>833</ele>
        <time>2019-08-08T10:50:00.000Z</time>
      </trkpt>
      <trkpt lat="42.9381" lon="0.87113">
        <ele>833</ele>
        <time>2019-08-08T10:50:01.000Z</time>
      </trkpt>
      <trkpt lat="42.93808" lon="0.87131">
        <ele>831</ele>
        <time>2019-08-08T10:50:02.000Z</time>
      </trkpt>
      <trkpt lat="42.93807" lon="0.87149">
        <ele>831</ele>
        <time>2019-08-08T10:50:03.000Z</time>
      </trkpt>
      <trkpt lat="42.93805" lon="0.87166">
        <ele>829</ele>
        <time>2019-08-08T10:50:04.000Z</time>
      </trkpt>
      <trkpt lat="42.93804" lon="0.87183">
        <ele>829</ele>
        <time>2019-08-08T10:50:05.000Z</time>
      </trkpt>
      <trkpt lat="42.93803" lon="0.87199">
        <ele>827</ele>
        <time>2019-08-08T10:50:06.000Z</time>
      </trkpt>
      <trkpt lat="42.93801" lon="0.87216">
        <ele>827</ele>
        <time>2019-08-08T10:50:07.000Z</time>
      </trkpt>
      <trkpt lat="42.93799" lon="0.87233">
        <ele>826</ele>
        <time>2019-08-08T10:50:08.000Z</time>
      </trkpt>
      <trkpt lat="42.93797" lon="0.87251">
        <ele>826</ele>
        <time>2019-08-08T10:50:09.000Z</time>
      </trkpt>
      <trkpt lat="42.93795" lon="0.87267">
        <ele>824</ele>
        <time>2019-08-08T10:50:10.000Z</time>
      </trkpt>
      <trkpt lat="42.93792" lon="0.87284">
        <ele>824</ele>
        <time>2019-08-08T10:50:11.000Z</time>
      </trkpt>
      <trkpt lat="42.9379" lon="0.873">
        <ele>824</ele>
        <time>2019-08-08T10:50:12.000Z</time>
      </trkpt>
      <trkpt lat="42.93787" lon="0.87316">
        <ele>824</ele>
        <time>2019-08-08T10:50:13.000Z</time>
      </trkpt>
      <trkpt lat="42.93785" lon="0.87332">
        <ele>824</ele>
        <time>2019-08-08T10:50:14.000Z</time>
      </trkpt>
      <trkpt lat="42.93784" lon="0.87347">
        <ele>823</ele>
        <time>2019-08-08T10:50:15.000Z</time>
      </trkpt>
      <trkpt lat="42.93784" lon="0.87363">
        <ele>823</ele>
        <time>2019-08-08T10:50:16.000Z</time>
      </trkpt>
      <trkpt lat="42.93786" lon="0.87378">
        <ele>822</ele>
        <time>2019-08-08T10:50:17.000Z</time>
      </trkpt>
      <trkpt lat="42.93789" lon="0.87391">
        <ele>822</ele>
        <time>2019-08-08T10:50:18.000Z</time>
      </trkpt>
      <trkpt lat="42.93794" lon="0.87403">
        <ele>823</ele>
        <time>2019-08-08T10:50:19.000Z</time>
      </trkpt>
      <trkpt lat="42.938" lon="0.87413">
        <ele>823</ele>
        <time>2019-08-08T10:50:20.000Z</time>
      </trkpt>
      <trkpt lat="42.93806" lon="0.87423">
        <ele>823</ele>
        <time>2019-08-08T10:50:21.000Z</time>
      </trkpt>
      <trkpt lat="42.93813" lon="0.87432">
        <ele>823</ele>
        <time>2019-08-08T10:50:22.000Z</time>
      </trkpt>
      <trkpt lat="42.93819" lon="0.87442">
        <ele>823</ele>
        <time>2019-08-08T10:50:23.000Z</time>
      </trkpt>
      <trkpt lat="42.93826" lon="0.8745">
        <ele>823</ele>
        <time>2019-08-08T10:50:24.000Z</time>
      </trkpt>
      <trkpt lat="42.93833" lon="0.87459">
        <ele>823</ele>
        <time>2019-08-08T10:50:25.000Z</time>
      </trkpt>
      <trkpt lat="42.93841" lon="0.87465">
        <ele>823</ele>
        <time>2019-08-08T10:50:26.000Z</time>
      </trkpt>
      <trkpt lat="42.93849" lon="0.87471">
        <ele>823</ele>
        <time>2019-08-08T10:50:27.000Z</time>
      </trkpt>
      <trkpt lat="42.93857" lon="0.87477">
        <ele>823</ele>
        <time>2019-08-08T10:50:28.000Z</time>
      </trkpt>
      <trkpt lat="42.93865" lon="0.87482">
        <ele>823</ele>
        <time>2019-08-08T10:50:29.000Z</time>
      </trkpt>
      <trkpt lat="42.93872" lon="0.87488">
        <ele>823</ele>
        <time>2019-08-08T10:50:30.000Z</time>
      </trkpt>
      <trkpt lat="42.93879" lon="0.87493">
        <ele>823</ele>
        <time>2019-08-08T10:50:31.000Z</time>
      </trkpt>
      <trkpt lat="42.93886" lon="0.87498">
        <ele>823</ele>
        <time>2019-08-08T10:50:32.000Z</time>
      </trkpt>
      <trkpt lat="42.93892" lon="0.87503">
        <ele>823</ele>
        <time>2019-08-08T10:50:33.000Z</time>
      </trkpt>
      <trkpt lat="42.93903" lon="0.87512">
        <ele>823</ele>
        <time>2019-08-08T10:50:34.000Z</time>
      </trkpt>
      <trkpt lat="42.93906" lon="0.87515">
        <ele>823</ele>
        <time>2019-08-08T10:50:35.000Z</time>
      </trkpt>
      <trkpt lat="42.93916" lon="0.87524">
        <ele>823</ele>
        <time>2019-08-08T10:50:36.000Z</time>
      </trkpt>
      <trkpt lat="42.9392" lon="0.87527">
        <ele>823</ele>
        <time>2019-08-08T10:50:37.000Z</time>
      </trkpt>
      <trkpt lat="42.93927" lon="0.87534">
        <ele>823</ele>
        <time>2019-08-08T10:50:38.000Z</time>
      </trkpt>
      <trkpt lat="42.93935" lon="0.8754">
        <ele>822</ele>
        <time>2019-08-08T10:50:39.000Z</time>
      </trkpt>
      <trkpt lat="42.93943" lon="0.87547">
        <ele>822</ele>
        <time>2019-08-08T10:50:40.000Z</time>
      </trkpt>
      <trkpt lat="42.93951" lon="0.87555">
        <ele>822</ele>
        <time>2019-08-08T10:50:41.000Z</time>
      </trkpt>
      <trkpt lat="42.93959" lon="0.87562">
        <ele>822</ele>
        <time>2019-08-08T10:50:42.000Z</time>
      </trkpt>
      <trkpt lat="42.93971" lon="0.87573">
        <ele>821</ele>
        <time>2019-08-08T10:50:43.000Z</time>
      </trkpt>
      <trkpt lat="42.93975" lon="0.87577">
        <ele>821</ele>
        <time>2019-08-08T10:50:44.000Z</time>
      </trkpt>
      <trkpt lat="42.93983" lon="0.87584">
        <ele>820</ele>
        <time>2019-08-08T10:50:45.000Z</time>
      </trkpt>
      <trkpt lat="42.93991" lon="0.87592">
        <ele>820</ele>
        <time>2019-08-08T10:50:46.000Z</time>
      </trkpt>
      <trkpt lat="42.93998" lon="0.87601">
        <ele>819</ele>
        <time>2019-08-08T10:50:47.000Z</time>
      </trkpt>
      <trkpt lat="42.94004" lon="0.87613">
        <ele>819</ele>
        <time>2019-08-08T10:50:48.000Z</time>
      </trkpt>
      <trkpt lat="42.94009" lon="0.87626">
        <ele>819</ele>
        <time>2019-08-08T10:50:49.000Z</time>
      </trkpt>
      <trkpt lat="42.94013" lon="0.87639">
        <ele>819</ele>
        <time>2019-08-08T10:50:50.000Z</time>
      </trkpt>
      <trkpt lat="42.94016" lon="0.87652">
        <ele>819</ele>
        <time>2019-08-08T10:50:51.000Z</time>
      </trkpt>
      <trkpt lat="42.9402" lon="0.87664">
        <ele>818</ele>
        <time>2019-08-08T10:50:52.000Z</time>
      </trkpt>
      <trkpt lat="42.94023" lon="0.87677">
        <ele>818</ele>
        <time>2019-08-08T10:50:53.000Z</time>
      </trkpt>
      <trkpt lat="42.94025" lon="0.87691">
        <ele>817</ele>
        <time>2019-08-08T10:50:54.000Z</time>
      </trkpt>
      <trkpt lat="42.94028" lon="0.87704">
        <ele>817</ele>
        <time>2019-08-08T10:50:55.000Z</time>
      </trkpt>
      <trkpt lat="42.94029" lon="0.87719">
        <ele>817</ele>
        <time>2019-08-08T10:50:56.000Z</time>
      </trkpt>
      <trkpt lat="42.94031" lon="0.87734">
        <ele>817</ele>
        <time>2019-08-08T10:50:57.000Z</time>
      </trkpt>
      <trkpt lat="42.94032" lon="0.87749">
        <ele>816</ele>
        <time>2019-08-08T10:50:58.000Z</time>
      </trkpt>
      <trkpt lat="42.94034" lon="0.87772">
        <ele>816</ele>
        <time>2019-08-08T10:50:59.000Z</time>
      </trkpt>
      <trkpt lat="42.94034" lon="0.8778">
        <ele>815.6</ele>
        <time>2019-08-08T10:51:00.000Z</time>
      </trkpt>
      <trkpt lat="42.94034" lon="0.87796">
        <ele>815</ele>
        <time>2019-08-08T10:51:01.000Z</time>
      </trkpt>
      <trkpt lat="42.94035" lon="0.87813">
        <ele>811</ele>
        <time>2019-08-08T10:51:02.000Z</time>
      </trkpt>
      <trkpt lat="42.94036" lon="0.87829">
        <ele>811</ele>
        <time>2019-08-08T10:51:03.000Z</time>
      </trkpt>
      <trkpt lat="42.94037" lon="0.87845">
        <ele>810</ele>
        <time>2019-08-08T10:51:04.000Z</time>
      </trkpt>
      <trkpt lat="42.94038" lon="0.87862">
        <ele>810</ele>
        <time>2019-08-08T10:51:05.000Z</time>
      </trkpt>
      <trkpt lat="42.9404" lon="0.87878">
        <ele>807</ele>
        <time>2019-08-08T10:51:06.000Z</time>
      </trkpt>
      <trkpt lat="42.94041" lon="0.87895">
        <ele>807</ele>
        <time>2019-08-08T10:51:07.000Z</time>
      </trkpt>
      <trkpt lat="42.94044" lon="0.87912">
        <ele>807</ele>
        <time>2019-08-08T10:51:08.000Z</time>
      </trkpt>
      <trkpt lat="42.94046" lon="0.8793">
        <ele>806</ele>
        <time>2019-08-08T10:51:09.000Z</time>
      </trkpt>
      <trkpt lat="42.94047" lon="0.87948">
        <ele>806</ele>
        <time>2019-08-08T10:51:10.000Z</time>
      </trkpt>
      <trkpt lat="42.94048" lon="0.87966">
        <ele>805</ele>
        <time>2019-08-08T10:51:11.000Z</time>
      </trkpt>
      <trkpt lat="42.94047" lon="0.87984">
        <ele>805</ele>
        <time>2019-08-08T10:51:12.000Z</time>
      </trkpt>
      <trkpt lat="42.94048" lon="0.88001">
        <ele>802</ele>
        <time>2019-08-08T10:51:13.000Z</time>
      </trkpt>
      <trkpt lat="42.94047" lon="0.88017">
        <ele>802</ele>
        <time>2019-08-08T10:51:14.000Z</time>
      </trkpt>
      <trkpt lat="42.94045" lon="0.88033">
        <ele>800</ele>
        <time>2019-08-08T10:51:15.000Z</time>
      </trkpt>
      <trkpt lat="42.94041" lon="0.88048">
        <ele>800</ele>
        <time>2019-08-08T10:51:16.000Z</time>
      </trkpt>
      <trkpt lat="42.94035" lon="0.88062">
        <ele>797</ele>
        <time>2019-08-08T10:51:17.000Z</time>
      </trkpt>
      <trkpt lat="42.94028" lon="0.88077">
        <ele>797</ele>
        <time>2019-08-08T10:51:18.000Z</time>
      </trkpt>
      <trkpt lat="42.94021" lon="0.88093">
        <ele>794</ele>
        <time>2019-08-08T10:51:19.000Z</time>
      </trkpt>
      <trkpt lat="42.94015" lon="0.8811">
        <ele>794</ele>
        <time>2019-08-08T10:51:20.000Z</time>
      </trkpt>
      <trkpt lat="42.94008" lon="0.88127">
        <ele>792</ele>
        <time>2019-08-08T10:51:21.000Z</time>
      </trkpt>
      <trkpt lat="42.94002" lon="0.88144">
        <ele>792</ele>
        <time>2019-08-08T10:51:22.000Z</time>
      </trkpt>
      <trkpt lat="42.93995" lon="0.88161">
        <ele>790</ele>
        <time>2019-08-08T10:51:23.000Z</time>
      </trkpt>
      <trkpt lat="42.93988" lon="0.88178">
        <ele>790</ele>
        <time>2019-08-08T10:51:24.000Z</time>
      </trkpt>
      <trkpt lat="42.9398" lon="0.88196">
        <ele>790</ele>
        <time>2019-08-08T10:51:25.000Z</time>
      </trkpt>
      <trkpt lat="42.93974" lon="0.88213">
        <ele>785</ele>
        <time>2019-08-08T10:51:26.000Z</time>
      </trkpt>
      <trkpt lat="42.93968" lon="0.88229">
        <ele>785</ele>
        <time>2019-08-08T10:51:27.000Z</time>
      </trkpt>
      <trkpt lat="42.93962" lon="0.88245">
        <ele>785</ele>
        <time>2019-08-08T10:51:28.000Z</time>
      </trkpt>
      <trkpt lat="42.93954" lon="0.88259">
        <ele>780</ele>
        <time>2019-08-08T10:51:29.000Z</time>
      </trkpt>
      <trkpt lat="42.93944" lon="0.88273">
        <ele>780</ele>
        <time>2019-08-08T10:51:30.000Z</time>
      </trkpt>
      <trkpt lat="42.93933" lon="0.88285">
        <ele>778</ele>
        <time>2019-08-08T10:51:31.000Z</time>
      </trkpt>
      <trkpt lat="42.93921" lon="0.88298">
        <ele>778</ele>
        <time>2019-08-08T10:51:32.000Z</time>
      </trkpt>
      <trkpt lat="42.939" lon="0.88312">
        <ele>778</ele>
        <time>2019-08-08T10:51:33.000Z</time>
      </trkpt>
      <trkpt lat="42.93893" lon="0.88315">
        <ele>774</ele>
        <time>2019-08-08T10:51:34.000Z</time>
      </trkpt>
      <trkpt lat="42.93879" lon="0.88321">
        <ele>774</ele>
        <time>2019-08-08T10:51:35.000Z</time>
      </trkpt>
      <trkpt lat="42.93865" lon="0.88328">
        <ele>770</ele>
        <time>2019-08-08T10:51:36.000Z</time>
      </trkpt>
      <trkpt lat="42.93851" lon="0.88335">
        <ele>770</ele>
        <time>2019-08-08T10:51:37.000Z</time>
      </trkpt>
      <trkpt lat="42.93838" lon="0.88343">
        <ele>766</ele>
        <time>2019-08-08T10:51:38.000Z</time>
      </trkpt>
      <trkpt lat="42.93825" lon="0.88353">
        <ele>766</ele>
        <time>2019-08-08T10:51:39.000Z</time>
      </trkpt>
      <trkpt lat="42.93813" lon="0.88366">
        <ele>764</ele>
        <time>2019-08-08T10:51:40.000Z</time>
      </trkpt>
      <trkpt lat="42.93803" lon="0.88381">
        <ele>764</ele>
        <time>2019-08-08T10:51:41.000Z</time>
      </trkpt>
      <trkpt lat="42.93795" lon="0.88398">
        <ele>760</ele>
        <time>2019-08-08T10:51:42.000Z</time>
      </trkpt>
      <trkpt lat="42.93788" lon="0.88414">
        <ele>760</ele>
        <time>2019-08-08T10:51:43.000Z</time>
      </trkpt>
      <trkpt lat="42.9378" lon="0.8843">
        <ele>758</ele>
        <time>2019-08-08T10:51:44.000Z</time>
      </trkpt>
      <trkpt lat="42.93772" lon="0.88442">
        <ele>758</ele>
        <time>2019-08-08T10:51:45.000Z</time>
      </trkpt>
      <trkpt lat="42.93761" lon="0.88452">
        <ele>758</ele>
        <time>2019-08-08T10:51:46.000Z</time>
      </trkpt>
      <trkpt lat="42.93748" lon="0.88459">
        <ele>755</ele>
        <time>2019-08-08T10:51:47.000Z</time>
      </trkpt>
      <trkpt lat="42.93734" lon="0.88464">
        <ele>755</ele>
        <time>2019-08-08T10:51:48.000Z</time>
      </trkpt>
      <trkpt lat="42.93721" lon="0.88469">
        <ele>753</ele>
        <time>2019-08-08T10:51:49.000Z</time>
      </trkpt>
      <trkpt lat="42.93709" lon="0.88475">
        <ele>753</ele>
        <time>2019-08-08T10:51:50.000Z</time>
      </trkpt>
      <trkpt lat="42.93697" lon="0.88483">
        <ele>752</ele>
        <time>2019-08-08T10:51:51.000Z</time>
      </trkpt>
      <trkpt lat="42.93685" lon="0.88492">
        <ele>752</ele>
        <time>2019-08-08T10:51:52.000Z</time>
      </trkpt>
      <trkpt lat="42.93674" lon="0.88503">
        <ele>749</ele>
        <time>2019-08-08T10:51:53.000Z</time>
      </trkpt>
      <trkpt lat="42.93663" lon="0.88514">
        <ele>749</ele>
        <time>2019-08-08T10:51:54.000Z</time>
      </trkpt>
      <trkpt lat="42.93651" lon="0.88522">
        <ele>747</ele>
        <time>2019-08-08T10:51:55.000Z</time>
      </trkpt>
      <trkpt lat="42.93638" lon="0.88529">
        <ele>747</ele>
        <time>2019-08-08T10:51:56.000Z</time>
      </trkpt>
      <trkpt lat="42.93625" lon="0.88534">
        <ele>744</ele>
        <time>2019-08-08T10:51:57.000Z</time>
      </trkpt>
      <trkpt lat="42.93611" lon="0.88538">
        <ele>744</ele>
        <time>2019-08-08T10:51:58.000Z</time>
      </trkpt>
      <trkpt lat="42.93598" lon="0.88542">
        <ele>743</ele>
        <time>2019-08-08T10:51:59.000Z</time>
      </trkpt>
      <trkpt lat="42.93586" lon="0.88546">
        <ele>743</ele>
        <time>2019-08-08T10:52:00.000Z</time>
      </trkpt>
      <trkpt lat="42.93574" lon="0.88549">
        <ele>742</ele>
        <time>2019-08-08T10:52:01.000Z</time>
      </trkpt>
      <trkpt lat="42.93562" lon="0.88554">
        <ele>742</ele>
        <time>2019-08-08T10:52:02.000Z</time>
      </trkpt>
      <trkpt lat="42.93551" lon="0.8856">
        <ele>741</ele>
        <time>2019-08-08T10:52:03.000Z</time>
      </trkpt>
      <trkpt lat="42.93541" lon="0.88569">
        <ele>741</ele>
        <time>2019-08-08T10:52:04.000Z</time>
      </trkpt>
      <trkpt lat="42.93534" lon="0.88581">
        <ele>741</ele>
        <time>2019-08-08T10:52:05.000Z</time>
      </trkpt>
      <trkpt lat="42.9353" lon="0.88595">
        <ele>741</ele>
        <time>2019-08-08T10:52:06.000Z</time>
      </trkpt>
      <trkpt lat="42.93528" lon="0.8861">
        <ele>741</ele>
        <time>2019-08-08T10:52:07.000Z</time>
      </trkpt>
      <trkpt lat="42.93529" lon="0.88625">
        <ele>741</ele>
        <time>2019-08-08T10:52:08.000Z</time>
      </trkpt>
      <trkpt lat="42.93529" lon="0.8864">
        <ele>738</ele>
        <time>2019-08-08T10:52:09.000Z</time>
      </trkpt>
      <trkpt lat="42.9353" lon="0.88655">
        <ele>738</ele>
        <time>2019-08-08T10:52:10.000Z</time>
      </trkpt>
      <trkpt lat="42.9353" lon="0.8867">
        <ele>735</ele>
        <time>2019-08-08T10:52:11.000Z</time>
      </trkpt>
      <trkpt lat="42.9353" lon="0.88685">
        <ele>735</ele>
        <time>2019-08-08T10:52:12.000Z</time>
      </trkpt>
      <trkpt lat="42.93528" lon="0.88701">
        <ele>734</ele>
        <time>2019-08-08T10:52:13.000Z</time>
      </trkpt>
      <trkpt lat="42.93525" lon="0.88716">
        <ele>734</ele>
        <time>2019-08-08T10:52:14.000Z</time>
      </trkpt>
      <trkpt lat="42.9352" lon="0.8873">
        <ele>734</ele>
        <time>2019-08-08T10:52:15.000Z</time>
      </trkpt>
      <trkpt lat="42.93512" lon="0.88742">
        <ele>734</ele>
        <time>2019-08-08T10:52:16.000Z</time>
      </trkpt>
      <trkpt lat="42.93503" lon="0.88752">
        <ele>732</ele>
        <time>2019-08-08T10:52:17.000Z</time>
      </trkpt>
      <trkpt lat="42.93493" lon="0.8876">
        <ele>732</ele>
        <time>2019-08-08T10:52:18.000Z</time>
      </trkpt>
      <trkpt lat="42.93482" lon="0.88766">
        <ele>731</ele>
        <time>2019-08-08T10:52:19.000Z</time>
      </trkpt>
      <trkpt lat="42.93472" lon="0.88773">
        <ele>731</ele>
        <time>2019-08-08T10:52:20.000Z</time>
      </trkpt>
      <trkpt lat="42.93462" lon="0.8878">
        <ele>729</ele>
        <time>2019-08-08T10:52:21.000Z</time>
      </trkpt>
      <trkpt lat="42.93452" lon="0.88787">
        <ele>729</ele>
        <time>2019-08-08T10:52:22.000Z</time>
      </trkpt>
      <trkpt lat="42.93442" lon="0.88794">
        <ele>727</ele>
        <time>2019-08-08T10:52:23.000Z</time>
      </trkpt>
      <trkpt lat="42.93427" lon="0.88805">
        <ele>727</ele>
        <time>2019-08-08T10:52:24.000Z</time>
      </trkpt>
      <trkpt lat="42.93422" lon="0.88808">
        <ele>727</ele>
        <time>2019-08-08T10:52:25.000Z</time>
      </trkpt>
      <trkpt lat="42.93412" lon="0.88816">
        <ele>727</ele>
        <time>2019-08-08T10:52:26.000Z</time>
      </trkpt>
      <trkpt lat="42.93404" lon="0.88826">
        <ele>725</ele>
        <time>2019-08-08T10:52:27.000Z</time>
      </trkpt>
      <trkpt lat="42.93399" lon="0.88838">
        <ele>725</ele>
        <time>2019-08-08T10:52:28.000Z</time>
      </trkpt>
      <trkpt lat="42.93397" lon="0.88852">
        <ele>723</ele>
        <time>2019-08-08T10:52:29.000Z</time>
      </trkpt>
      <trkpt lat="42.93396" lon="0.88866">
        <ele>723</ele>
        <time>2019-08-08T10:52:30.000Z</time>
      </trkpt>
      <trkpt lat="42.93396" lon="0.88881">
        <ele>723</ele>
        <time>2019-08-08T10:52:31.000Z</time>
      </trkpt>
      <trkpt lat="42.93394" lon="0.88894">
        <ele>723</ele>
        <time>2019-08-08T10:52:32.000Z</time>
      </trkpt>
      <trkpt lat="42.93389" lon="0.88905">
        <ele>723</ele>
        <time>2019-08-08T10:52:33.000Z</time>
      </trkpt>
      <trkpt lat="42.93381" lon="0.88913">
        <ele>723</ele>
        <time>2019-08-08T10:52:34.000Z</time>
      </trkpt>
      <trkpt lat="42.93373" lon="0.88918">
        <ele>723</ele>
        <time>2019-08-08T10:52:35.000Z</time>
      </trkpt>
      <trkpt lat="42.93363" lon="0.88922">
        <ele>723</ele>
        <time>2019-08-08T10:52:36.000Z</time>
      </trkpt>
      <trkpt lat="42.93353" lon="0.88924">
        <ele>720</ele>
        <time>2019-08-08T10:52:37.000Z</time>
      </trkpt>
      <trkpt lat="42.93343" lon="0.88927">
        <ele>720</ele>
        <time>2019-08-08T10:52:38.000Z</time>
      </trkpt>
      <trkpt lat="42.93327" lon="0.88927">
        <ele>720</ele>
        <time>2019-08-08T10:52:39.000Z</time>
      </trkpt>
      <trkpt lat="42.93322" lon="0.88927">
        <ele>719</ele>
        <time>2019-08-08T10:52:40.000Z</time>
      </trkpt>
      <trkpt lat="42.93312" lon="0.88927">
        <ele>719</ele>
        <time>2019-08-08T10:52:41.000Z</time>
      </trkpt>
      <trkpt lat="42.93302" lon="0.88927">
        <ele>718</ele>
        <time>2019-08-08T10:52:42.000Z</time>
      </trkpt>
      <trkpt lat="42.93291" lon="0.88926">
        <ele>718</ele>
        <time>2019-08-08T10:52:43.000Z</time>
      </trkpt>
      <trkpt lat="42.93281" lon="0.88927">
        <ele>717</ele>
        <time>2019-08-08T10:52:44.000Z</time>
      </trkpt>
      <trkpt lat="42.93272" lon="0.88928">
        <ele>717</ele>
        <time>2019-08-08T10:52:45.000Z</time>
      </trkpt>
      <trkpt lat="42.93262" lon="0.88932">
        <ele>716</ele>
        <time>2019-08-08T10:52:46.000Z</time>
      </trkpt>
      <trkpt lat="42.93253" lon="0.88939">
        <ele>716</ele>
        <time>2019-08-08T10:52:47.000Z</time>
      </trkpt>
      <trkpt lat="42.93245" lon="0.88948">
        <ele>715</ele>
        <time>2019-08-08T10:52:48.000Z</time>
      </trkpt>
      <trkpt lat="42.93238" lon="0.88958">
        <ele>715</ele>
        <time>2019-08-08T10:52:49.000Z</time>
      </trkpt>
      <trkpt lat="42.93231" lon="0.88968">
        <ele>714</ele>
        <time>2019-08-08T10:52:50.000Z</time>
      </trkpt>
      <trkpt lat="42.93224" lon="0.88978">
        <ele>714</ele>
        <time>2019-08-08T10:52:51.000Z</time>
      </trkpt>
      <trkpt lat="42.93217" lon="0.88987">
        <ele>713</ele>
        <time>2019-08-08T10:52:52.000Z</time>
      </trkpt>
      <trkpt lat="42.9321" lon="0.88997">
        <ele>713</ele>
        <time>2019-08-08T10:52:53.000Z</time>
      </trkpt>
      <trkpt lat="42.93203" lon="0.89007">
        <ele>713</ele>
        <time>2019-08-08T10:52:54.000Z</time>
      </trkpt>
      <trkpt lat="42.93196" lon="0.89018">
        <ele>713</ele>
        <time>2019-08-08T10:52:55.000Z</time>
      </trkpt>
      <trkpt lat="42.93189" lon="0.89028">
        <ele>711</ele>
        <time>2019-08-08T10:52:56.000Z</time>
      </trkpt>
      <trkpt lat="42.93182" lon="0.89039">
        <ele>711</ele>
        <time>2019-08-08T10:52:57.000Z</time>
      </trkpt>
      <trkpt lat="42.93175" lon="0.89049">
        <ele>711</ele>
        <time>2019-08-08T10:52:58.000Z</time>
      </trkpt>
      <trkpt lat="42.93169" lon="0.8906">
        <ele>710</ele>
        <time>2019-08-08T10:52:59.000Z</time>
      </trkpt>
      <trkpt lat="42.93162" lon="0.8907">
        <ele>710</ele>
        <time>2019-08-08T10:53:00.000Z</time>
      </trkpt>
      <trkpt lat="42.93154" lon="0.8908">
        <ele>710</ele>
        <time>2019-08-08T10:53:01.000Z</time>
      </trkpt>
      <trkpt lat="42.93147" lon="0.89089">
        <ele>710</ele>
        <time>2019-08-08T10:53:02.000Z</time>
      </trkpt>
      <trkpt lat="42.93138" lon="0.89096">
        <ele>709</ele>
        <time>2019-08-08T10:53:03.000Z</time>
      </trkpt>
      <trkpt lat="42.93128" lon="0.89101">
        <ele>709</ele>
        <time>2019-08-08T10:53:04.000Z</time>
      </trkpt>
      <trkpt lat="42.93118" lon="0.89105">
        <ele>708</ele>
        <time>2019-08-08T10:53:05.000Z</time>
      </trkpt>
      <trkpt lat="42.93108" lon="0.89111">
        <ele>708</ele>
        <time>2019-08-08T10:53:06.000Z</time>
      </trkpt>
      <trkpt lat="42.93098" lon="0.89117">
        <ele>707</ele>
        <time>2019-08-08T10:53:07.000Z</time>
      </trkpt>
      <trkpt lat="42.93089" lon="0.89126">
        <ele>707</ele>
        <time>2019-08-08T10:53:08.000Z</time>
      </trkpt>
      <trkpt lat="42.93081" lon="0.89137">
        <ele>707</ele>
        <time>2019-08-08T10:53:09.000Z</time>
      </trkpt>
      <trkpt lat="42.93076" lon="0.89149">
        <ele>707</ele>
        <time>2019-08-08T10:53:10.000Z</time>
      </trkpt>
      <trkpt lat="42.93072" lon="0.89163">
        <ele>704</ele>
        <time>2019-08-08T10:53:11.000Z</time>
      </trkpt>
      <trkpt lat="42.93069" lon="0.89185">
        <ele>704</ele>
        <time>2019-08-08T10:53:12.000Z</time>
      </trkpt>
      <trkpt lat="42.93069" lon="0.89192">
        <ele>703.6</ele>
        <time>2019-08-08T10:53:13.000Z</time>
      </trkpt>
      <trkpt lat="42.9307" lon="0.89207">
        <ele>703</ele>
        <time>2019-08-08T10:53:14.000Z</time>
      </trkpt>
      <trkpt lat="42.93074" lon="0.89221">
        <ele>703</ele>
        <time>2019-08-08T10:53:15.000Z</time>
      </trkpt>
      <trkpt lat="42.93079" lon="0.89233">
        <ele>703</ele>
        <time>2019-08-08T10:53:16.000Z</time>
      </trkpt>
      <trkpt lat="42.93083" lon="0.89246">
        <ele>703</ele>
        <time>2019-08-08T10:53:17.000Z</time>
      </trkpt>
      <trkpt lat="42.93088" lon="0.89259">
        <ele>701</ele>
        <time>2019-08-08T10:53:18.000Z</time>
      </trkpt>
      <trkpt lat="42.93091" lon="0.89273">
        <ele>701</ele>
        <time>2019-08-08T10:53:19.000Z</time>
      </trkpt>
      <trkpt lat="42.93091" lon="0.89287">
        <ele>699</ele>
        <time>2019-08-08T10:53:20.000Z</time>
      </trkpt>
      <trkpt lat="42.93087" lon="0.89301">
        <ele>699</ele>
        <time>2019-08-08T10:53:21.000Z</time>
      </trkpt>
      <trkpt lat="42.93082" lon="0.89314">
        <ele>698</ele>
        <time>2019-08-08T10:53:22.000Z</time>
      </trkpt>
      <trkpt lat="42.93076" lon="0.89327">
        <ele>698</ele>
        <time>2019-08-08T10:53:23.000Z</time>
      </trkpt>
      <trkpt lat="42.9307" lon="0.8934">
        <ele>698</ele>
        <time>2019-08-08T10:53:24.000Z</time>
      </trkpt>
      <trkpt lat="42.93064" lon="0.89352">
        <ele>698</ele>
        <time>2019-08-08T10:53:25.000Z</time>
      </trkpt>
      <trkpt lat="42.93058" lon="0.89365">
        <ele>698</ele>
        <time>2019-08-08T10:53:26.000Z</time>
      </trkpt>
      <trkpt lat="42.93052" lon="0.89377">
        <ele>696</ele>
        <time>2019-08-08T10:53:27.000Z</time>
      </trkpt>
      <trkpt lat="42.93046" lon="0.89389">
        <ele>696</ele>
        <time>2019-08-08T10:53:28.000Z</time>
      </trkpt>
      <trkpt lat="42.93039" lon="0.89401">
        <ele>695</ele>
        <time>2019-08-08T10:53:29.000Z</time>
      </trkpt>
      <trkpt lat="42.93032" lon="0.89411">
        <ele>695</ele>
        <time>2019-08-08T10:53:30.000Z</time>
      </trkpt>
      <trkpt lat="42.93023" lon="0.89421">
        <ele>695</ele>
        <time>2019-08-08T10:53:31.000Z</time>
      </trkpt>
      <trkpt lat="42.93015" lon="0.89429">
        <ele>693</ele>
        <time>2019-08-08T10:53:32.000Z</time>
      </trkpt>
      <trkpt lat="42.93006" lon="0.89437">
        <ele>693</ele>
        <time>2019-08-08T10:53:33.000Z</time>
      </trkpt>
      <trkpt lat="42.92996" lon="0.89444">
        <ele>691</ele>
        <time>2019-08-08T10:53:34.000Z</time>
      </trkpt>
      <trkpt lat="42.92986" lon="0.8945">
        <ele>691</ele>
        <time>2019-08-08T10:53:35.000Z</time>
      </trkpt>
      <trkpt lat="42.92976" lon="0.89456">
        <ele>690</ele>
        <time>2019-08-08T10:53:36.000Z</time>
      </trkpt>
      <trkpt lat="42.92966" lon="0.89461">
        <ele>690</ele>
        <time>2019-08-08T10:53:37.000Z</time>
      </trkpt>
      <trkpt lat="42.92957" lon="0.89466">
        <ele>689</ele>
        <time>2019-08-08T10:53:38.000Z</time>
      </trkpt>
      <trkpt lat="42.92947" lon="0.8947">
        <ele>689</ele>
        <time>2019-08-08T10:53:39.000Z</time>
      </trkpt>
      <trkpt lat="42.92936" lon="0.89473">
        <ele>689</ele>
        <time>2019-08-08T10:53:40.000Z</time>
      </trkpt>
      <trkpt lat="42.92927" lon="0.89476">
        <ele>689</ele>
        <time>2019-08-08T10:53:41.000Z</time>
      </trkpt>
      <trkpt lat="42.92918" lon="0.8948">
        <ele>689</ele>
        <time>2019-08-08T10:53:42.000Z</time>
      </trkpt>
      <trkpt lat="42.9291" lon="0.89485">
        <ele>689</ele>
        <time>2019-08-08T10:53:43.000Z</time>
      </trkpt>
      <trkpt lat="42.92904" lon="0.89493">
        <ele>689</ele>
        <time>2019-08-08T10:53:44.000Z</time>
      </trkpt>
      <trkpt lat="42.92899" lon="0.89503">
        <ele>689</ele>
        <time>2019-08-08T10:53:45.000Z</time>
      </trkpt>
      <trkpt lat="42.92893" lon="0.89512">
        <ele>689</ele>
        <time>2019-08-08T10:53:46.000Z</time>
      </trkpt>
      <trkpt lat="42.92886" lon="0.89523">
        <ele>689</ele>
        <time>2019-08-08T10:53:47.000Z</time>
      </trkpt>
      <trkpt lat="42.92881" lon="0.89534">
        <ele>689</ele>
        <time>2019-08-08T10:53:48.000Z</time>
      </trkpt>
      <trkpt lat="42.92877" lon="0.89546">
        <ele>688</ele>
        <time>2019-08-08T10:53:49.000Z</time>
      </trkpt>
      <trkpt lat="42.92874" lon="0.89558">
        <ele>688</ele>
        <time>2019-08-08T10:53:50.000Z</time>
      </trkpt>
      <trkpt lat="42.92871" lon="0.89571">
        <ele>687</ele>
        <time>2019-08-08T10:53:51.000Z</time>
      </trkpt>
      <trkpt lat="42.92868" lon="0.89583">
        <ele>687</ele>
        <time>2019-08-08T10:53:52.000Z</time>
      </trkpt>
      <trkpt lat="42.92866" lon="0.89596">
        <ele>686</ele>
        <time>2019-08-08T10:53:53.000Z</time>
      </trkpt>
      <trkpt lat="42.92863" lon="0.89608">
        <ele>686</ele>
        <time>2019-08-08T10:53:54.000Z</time>
      </trkpt>
      <trkpt lat="42.9286" lon="0.89621">
        <ele>685</ele>
        <time>2019-08-08T10:53:55.000Z</time>
      </trkpt>
      <trkpt lat="42.92857" lon="0.89633">
        <ele>685</ele>
        <time>2019-08-08T10:53:56.000Z</time>
      </trkpt>
      <trkpt lat="42.92856" lon="0.89646">
        <ele>685</ele>
        <time>2019-08-08T10:53:57.000Z</time>
      </trkpt>
      <trkpt lat="42.92857" lon="0.89658">
        <ele>685</ele>
        <time>2019-08-08T10:53:58.000Z</time>
      </trkpt>
      <trkpt lat="42.92859" lon="0.8967">
        <ele>685</ele>
        <time>2019-08-08T10:53:59.000Z</time>
      </trkpt>
      <trkpt lat="42.92862" lon="0.89681">
        <ele>684</ele>
        <time>2019-08-08T10:54:00.000Z</time>
      </trkpt>
      <trkpt lat="42.92865" lon="0.89692">
        <ele>684</ele>
        <time>2019-08-08T10:54:01.000Z</time>
      </trkpt>
      <trkpt lat="42.92871" lon="0.89708">
        <ele>684</ele>
        <time>2019-08-08T10:54:02.000Z</time>
      </trkpt>
      <trkpt lat="42.92873" lon="0.89713">
        <ele>683</ele>
        <time>2019-08-08T10:54:03.000Z</time>
      </trkpt>
      <trkpt lat="42.92878" lon="0.89724">
        <ele>683</ele>
        <time>2019-08-08T10:54:04.000Z</time>
      </trkpt>
      <trkpt lat="42.92883" lon="0.89734">
        <ele>683</ele>
        <time>2019-08-08T10:54:05.000Z</time>
      </trkpt>
      <trkpt lat="42.92888" lon="0.89743">
        <ele>683</ele>
        <time>2019-08-08T10:54:06.000Z</time>
      </trkpt>
      <trkpt lat="42.92893" lon="0.89753">
        <ele>683</ele>
        <time>2019-08-08T10:54:07.000Z</time>
      </trkpt>
      <trkpt lat="42.92899" lon="0.89761">
        <ele>683</ele>
        <time>2019-08-08T10:54:08.000Z</time>
      </trkpt>
      <trkpt lat="42.92905" lon="0.89769">
        <ele>683</ele>
        <time>2019-08-08T10:54:09.000Z</time>
      </trkpt>
      <trkpt lat="42.92911" lon="0.89777">
        <ele>683</ele>
        <time>2019-08-08T10:54:10.000Z</time>
      </trkpt>
      <trkpt lat="42.92917" lon="0.89786">
        <ele>683</ele>
        <time>2019-08-08T10:54:11.000Z</time>
      </trkpt>
      <trkpt lat="42.92922" lon="0.89795">
        <ele>683</ele>
        <time>2019-08-08T10:54:12.000Z</time>
      </trkpt>
      <trkpt lat="42.92926" lon="0.89805">
        <ele>683</ele>
        <time>2019-08-08T10:54:13.000Z</time>
      </trkpt>
      <trkpt lat="42.92929" lon="0.89815">
        <ele>683</ele>
        <time>2019-08-08T10:54:14.000Z</time>
      </trkpt>
      <trkpt lat="42.92932" lon="0.89825">
        <ele>683</ele>
        <time>2019-08-08T10:54:15.000Z</time>
      </trkpt>
      <trkpt lat="42.92934" lon="0.89835">
        <ele>683</ele>
        <time>2019-08-08T10:54:16.000Z</time>
      </trkpt>
      <trkpt lat="42.92936" lon="0.89845">
        <ele>684</ele>
        <time>2019-08-08T10:54:17.000Z</time>
      </trkpt>
      <trkpt lat="42.92938" lon="0.89855">
        <ele>684</ele>
        <time>2019-08-08T10:54:18.000Z</time>
      </trkpt>
      <trkpt lat="42.92939" lon="0.89865">
        <ele>684</ele>
        <time>2019-08-08T10:54:19.000Z</time>
      </trkpt>
      <trkpt lat="42.9294" lon="0.89875">
        <ele>684</ele>
        <time>2019-08-08T10:54:20.000Z</time>
      </trkpt>
      <trkpt lat="42.92941" lon="0.89884">
        <ele>684</ele>
        <time>2019-08-08T10:54:21.000Z</time>
      </trkpt>
      <trkpt lat="42.92942" lon="0.89894">
        <ele>683</ele>
        <time>2019-08-08T10:54:22.000Z</time>
      </trkpt>
      <trkpt lat="42.92943" lon="0.89902">
        <ele>683</ele>
        <time>2019-08-08T10:54:23.000Z</time>
      </trkpt>
      <trkpt lat="42.92945" lon="0.89911">
        <ele>684</ele>
        <time>2019-08-08T10:54:24.000Z</time>
      </trkpt>
      <trkpt lat="42.92946" lon="0.89919">
        <ele>684</ele>
        <time>2019-08-08T10:54:25.000Z</time>
      </trkpt>
      <trkpt lat="42.92946" lon="0.89927">
        <ele>685</ele>
        <time>2019-08-08T10:54:26.000Z</time>
      </trkpt>
      <trkpt lat="42.92947" lon="0.89935">
        <ele>685</ele>
        <time>2019-08-08T10:54:27.000Z</time>
      </trkpt>
      <trkpt lat="42.92947" lon="0.89942">
        <ele>686</ele>
        <time>2019-08-08T10:54:28.000Z</time>
      </trkpt>
      <trkpt lat="42.92947" lon="0.89949">
        <ele>686</ele>
        <time>2019-08-08T10:54:29.000Z</time>
      </trkpt>
      <trkpt lat="42.92947" lon="0.89957">
        <ele>686</ele>
        <time>2019-08-08T10:54:30.000Z</time>
      </trkpt>
      <trkpt lat="42.92947" lon="0.89964">
        <ele>686</ele>
        <time>2019-08-08T10:54:31.000Z</time>
      </trkpt>
      <trkpt lat="42.92946" lon="0.89972">
        <ele>686</ele>
        <time>2019-08-08T10:54:32.000Z</time>
      </trkpt>
      <trkpt lat="42.92946" lon="0.89979">
        <ele>686</ele>
        <time>2019-08-08T10:54:33.000Z</time>
      </trkpt>
      <trkpt lat="42.92945" lon="0.89986">
        <ele>687</ele>
        <time>2019-08-08T10:54:34.000Z</time>
      </trkpt>
      <trkpt lat="42.92945" lon="0.89993">
        <ele>687</ele>
        <time>2019-08-08T10:54:35.000Z</time>
      </trkpt>
      <trkpt lat="42.92945" lon="0.9">
        <ele>688</ele>
        <time>2019-08-08T10:54:36.000Z</time>
      </trkpt>
      <trkpt lat="42.92944" lon="0.90006">
        <ele>688</ele>
        <time>2019-08-08T10:54:37.000Z</time>
      </trkpt>
      <trkpt lat="42.92944" lon="0.90013">
        <ele>689</ele>
        <time>2019-08-08T10:54:38.000Z</time>
      </trkpt>
      <trkpt lat="42.92943" lon="0.90019">
        <ele>689</ele>
        <time>2019-08-08T10:54:39.000Z</time>
      </trkpt>
      <trkpt lat="42.92943" lon="0.90025">
        <ele>689</ele>
        <time>2019-08-08T10:54:40.000Z</time>
      </trkpt>
      <trkpt lat="42.92942" lon="0.90031">
        <ele>689</ele>
        <time>2019-08-08T10:54:41.000Z</time>
      </trkpt>
      <trkpt lat="42.92942" lon="0.90036">
        <ele>689</ele>
        <time>2019-08-08T10:54:42.000Z</time>
      </trkpt>
      <trkpt lat="42.92941" lon="0.90042">
        <ele>689</ele>
        <time>2019-08-08T10:54:43.000Z</time>
      </trkpt>
      <trkpt lat="42.92941" lon="0.90047">
        <ele>690</ele>
        <time>2019-08-08T10:54:44.000Z</time>
      </trkpt>
      <trkpt lat="42.92941" lon="0.90053">
        <ele>690</ele>
        <time>2019-08-08T10:54:45.000Z</time>
      </trkpt>
      <trkpt lat="42.92941" lon="0.90058">
        <ele>691</ele>
        <time>2019-08-08T10:54:46.000Z</time>
      </trkpt>
      <trkpt lat="42.92941" lon="0.90064">
        <ele>691</ele>
        <time>2019-08-08T10:54:47.000Z</time>
      </trkpt>
      <trkpt lat="42.92941" lon="0.9007">
        <ele>691</ele>
        <time>2019-08-08T10:54:48.000Z</time>
      </trkpt>
      <trkpt lat="42.92941" lon="0.90075">
        <ele>691</ele>
        <time>2019-08-08T10:54:49.000Z</time>
      </trkpt>
      <trkpt lat="42.92942" lon="0.9008">
        <ele>692</ele>
        <time>2019-08-08T10:54:50.000Z</time>
      </trkpt>
      <trkpt lat="42.92942" lon="0.90086">
        <ele>692</ele>
        <time>2019-08-08T10:54:51.000Z</time>
      </trkpt>
      <trkpt lat="42.92942" lon="0.90092">
        <ele>692</ele>
        <time>2019-08-08T10:54:52.000Z</time>
      </trkpt>
      <trkpt lat="42.92942" lon="0.90099">
        <ele>692</ele>
        <time>2019-08-08T10:54:53.000Z</time>
      </trkpt>
      <trkpt lat="42.92943" lon="0.90106">
        <ele>692</ele>
        <time>2019-08-08T10:54:54.000Z</time>
      </trkpt>
      <trkpt lat="42.92943" lon="0.90112">
        <ele>693</ele>
        <time>2019-08-08T10:54:55.000Z</time>
      </trkpt>
      <trkpt lat="42.92943" lon="0.90119">
        <ele>693</ele>
        <time>2019-08-08T10:54:56.000Z</time>
      </trkpt>
      <trkpt lat="42.92942" lon="0.90126">
        <ele>693</ele>
        <time>2019-08-08T10:54:57.000Z</time>
      </trkpt>
      <trkpt lat="42.92941" lon="0.90133">
        <ele>693</ele>
        <time>2019-08-08T10:54:58.000Z</time>
      </trkpt>
      <trkpt lat="42.9294" lon="0.90141">
        <ele>692</ele>
        <time>2019-08-08T10:54:59.000Z</time>
      </trkpt>
      <trkpt lat="42.92939" lon="0.90149">
        <ele>692</ele>
        <time>2019-08-08T10:55:00.000Z</time>
      </trkpt>
      <trkpt lat="42.92937" lon="0.90157">
        <ele>692</ele>
        <time>2019-08-08T10:55:01.000Z</time>
      </trkpt>
      <trkpt lat="42.92935" lon="0.90165">
        <ele>692</ele>
        <time>2019-08-08T10:55:02.000Z</time>
      </trkpt>
      <trkpt lat="42.92932" lon="0.90174">
        <ele>691</ele>
        <time>2019-08-08T10:55:03.000Z</time>
      </trkpt>
      <trkpt lat="42.92928" lon="0.90182">
        <ele>691</ele>
        <time>2019-08-08T10:55:04.000Z</time>
      </trkpt>
      <trkpt lat="42.92923" lon="0.9019">
        <ele>690</ele>
        <time>2019-08-08T10:55:05.000Z</time>
      </trkpt>
      <trkpt lat="42.92918" lon="0.90199">
        <ele>690</ele>
        <time>2019-08-08T10:55:06.000Z</time>
      </trkpt>
      <trkpt lat="42.92912" lon="0.90213">
        <ele>690</ele>
        <time>2019-08-08T10:55:07.000Z</time>
      </trkpt>
      <trkpt lat="42.92909" lon="0.90218">
        <ele>689</ele>
        <time>2019-08-08T10:55:08.000Z</time>
      </trkpt>
      <trkpt lat="42.92905" lon="0.90229">
        <ele>689</ele>
        <time>2019-08-08T10:55:09.000Z</time>
      </trkpt>
      <trkpt lat="42.92901" lon="0.9024">
        <ele>687</ele>
        <time>2019-08-08T10:55:10.000Z</time>
      </trkpt>
      <trkpt lat="42.92896" lon="0.90252">
        <ele>687</ele>
        <time>2019-08-08T10:55:11.000Z</time>
      </trkpt>
      <trkpt lat="42.92892" lon="0.90264">
        <ele>685</ele>
        <time>2019-08-08T10:55:12.000Z</time>
      </trkpt>
      <trkpt lat="42.92888" lon="0.90277">
        <ele>685</ele>
        <time>2019-08-08T10:55:13.000Z</time>
      </trkpt>
      <trkpt lat="42.92886" lon="0.90291">
        <ele>682</ele>
        <time>2019-08-08T10:55:14.000Z</time>
      </trkpt>
      <trkpt lat="42.92884" lon="0.90304">
        <ele>682</ele>
        <time>2019-08-08T10:55:15.000Z</time>
      </trkpt>
      <trkpt lat="42.92884" lon="0.90318">
        <ele>681</ele>
        <time>2019-08-08T10:55:16.000Z</time>
      </trkpt>
      <trkpt lat="42.92884" lon="0.90333">
        <ele>681</ele>
        <time>2019-08-08T10:55:17.000Z</time>
      </trkpt>
      <trkpt lat="42.92885" lon="0.90347">
        <ele>680</ele>
        <time>2019-08-08T10:55:18.000Z</time>
      </trkpt>
      <trkpt lat="42.92888" lon="0.90361">
        <ele>680</ele>
        <time>2019-08-08T10:55:19.000Z</time>
      </trkpt>
      <trkpt lat="42.92892" lon="0.90374">
        <ele>680</ele>
        <time>2019-08-08T10:55:20.000Z</time>
      </trkpt>
      <trkpt lat="42.92898" lon="0.90386">
        <ele>680</ele>
        <time>2019-08-08T10:55:21.000Z</time>
      </trkpt>
      <trkpt lat="42.92904" lon="0.90397">
        <ele>680</ele>
        <time>2019-08-08T10:55:22.000Z</time>
      </trkpt>
      <trkpt lat="42.92911" lon="0.90407">
        <ele>680</ele>
        <time>2019-08-08T10:55:23.000Z</time>
      </trkpt>
      <trkpt lat="42.92924" lon="0.9042">
        <ele>680</ele>
        <time>2019-08-08T10:55:24.000Z</time>
      </trkpt>
      <trkpt lat="42.92928" lon="0.90424">
        <ele>680</ele>
        <time>2019-08-08T10:55:25.000Z</time>
      </trkpt>
      <trkpt lat="42.92936" lon="0.90432">
        <ele>680</ele>
        <time>2019-08-08T10:55:26.000Z</time>
      </trkpt>
      <trkpt lat="42.92945" lon="0.90439">
        <ele>678</ele>
        <time>2019-08-08T10:55:27.000Z</time>
      </trkpt>
      <trkpt lat="42.92954" lon="0.90446">
        <ele>678</ele>
        <time>2019-08-08T10:55:28.000Z</time>
      </trkpt>
      <trkpt lat="42.92963" lon="0.90454">
        <ele>677</ele>
        <time>2019-08-08T10:55:29.000Z</time>
      </trkpt>
      <trkpt lat="42.92972" lon="0.90462">
        <ele>677</ele>
        <time>2019-08-08T10:55:30.000Z</time>
      </trkpt>
      <trkpt lat="42.9298" lon="0.9047">
        <ele>676</ele>
        <time>2019-08-08T10:55:31.000Z</time>
      </trkpt>
      <trkpt lat="42.92988" lon="0.90479">
        <ele>676</ele>
        <time>2019-08-08T10:55:32.000Z</time>
      </trkpt>
      <trkpt lat="42.92996" lon="0.90487">
        <ele>675</ele>
        <time>2019-08-08T10:55:33.000Z</time>
      </trkpt>
      <trkpt lat="42.93004" lon="0.90497">
        <ele>675</ele>
        <time>2019-08-08T10:55:34.000Z</time>
      </trkpt>
      <trkpt lat="42.93009" lon="0.90507">
        <ele>675</ele>
        <time>2019-08-08T10:55:35.000Z</time>
      </trkpt>
      <trkpt lat="42.93011" lon="0.9052">
        <ele>675</ele>
        <time>2019-08-08T10:55:36.000Z</time>
      </trkpt>
      <trkpt lat="42.9301" lon="0.90532">
        <ele>675</ele>
        <time>2019-08-08T10:55:37.000Z</time>
      </trkpt>
      <trkpt lat="42.93005" lon="0.90542">
        <ele>675</ele>
        <time>2019-08-08T10:55:38.000Z</time>
      </trkpt>
      <trkpt lat="42.93001" lon="0.90552">
        <ele>675</ele>
        <time>2019-08-08T10:55:39.000Z</time>
      </trkpt>
      <trkpt lat="42.92995" lon="0.90561">
        <ele>676</ele>
        <time>2019-08-08T10:55:40.000Z</time>
      </trkpt>
      <trkpt lat="42.9299" lon="0.9057">
        <ele>676</ele>
        <time>2019-08-08T10:55:41.000Z</time>
      </trkpt>
      <trkpt lat="42.92985" lon="0.90578">
        <ele>676</ele>
        <time>2019-08-08T10:55:42.000Z</time>
      </trkpt>
      <trkpt lat="42.92979" lon="0.90587">
        <ele>676</ele>
        <time>2019-08-08T10:55:43.000Z</time>
      </trkpt>
      <trkpt lat="42.92974" lon="0.90595">
        <ele>676</ele>
        <time>2019-08-08T10:55:44.000Z</time>
      </trkpt>
      <trkpt lat="42.92969" lon="0.90603">
        <ele>676</ele>
        <time>2019-08-08T10:55:45.000Z</time>
      </trkpt>
      <trkpt lat="42.92963" lon="0.90611">
        <ele>676</ele>
        <time>2019-08-08T10:55:46.000Z</time>
      </trkpt>
      <trkpt lat="42.92958" lon="0.90618">
        <ele>677</ele>
        <time>2019-08-08T10:55:47.000Z</time>
      </trkpt>
      <trkpt lat="42.92954" lon="0.90626">
        <ele>677</ele>
        <time>2019-08-08T10:55:48.000Z</time>
      </trkpt>
      <trkpt lat="42.9295" lon="0.90633">
        <ele>678</ele>
        <time>2019-08-08T10:55:49.000Z</time>
      </trkpt>
      <trkpt lat="42.92946" lon="0.90641">
        <ele>678</ele>
        <time>2019-08-08T10:55:50.000Z</time>
      </trkpt>
      <trkpt lat="42.92942" lon="0.90649">
        <ele>679</ele>
        <time>2019-08-08T10:55:51.000Z</time>
      </trkpt>
      <trkpt lat="42.92939" lon="0.90656">
        <ele>679</ele>
        <time>2019-08-08T10:55:52.000Z</time>
      </trkpt>
      <trkpt lat="42.92937" lon="0.90663">
        <ele>679</ele>
        <time>2019-08-08T10:55:53.000Z</time>
      </trkpt>
      <trkpt lat="42.92935" lon="0.9067">
        <ele>679</ele>
        <time>2019-08-08T10:55:54.000Z</time>
      </trkpt>
      <trkpt lat="42.92934" lon="0.90678">
        <ele>679</ele>
        <time>2019-08-08T10:55:55.000Z</time>
      </trkpt>
      <trkpt lat="42.92934" lon="0.90685">
        <ele>679</ele>
        <time>2019-08-08T10:55:56.000Z</time>
      </trkpt>
      <trkpt lat="42.92933" lon="0.90691">
        <ele>679</ele>
        <time>2019-08-08T10:55:57.000Z</time>
      </trkpt>
      <trkpt lat="42.92933" lon="0.90697">
        <ele>680</ele>
        <time>2019-08-08T10:55:58.000Z</time>
      </trkpt>
      <trkpt lat="42.92933" lon="0.90703">
        <ele>680</ele>
        <time>2019-08-08T10:55:59.000Z</time>
      </trkpt>
      <trkpt lat="42.92933" lon="0.90709">
        <ele>680</ele>
        <time>2019-08-08T10:56:00.000Z</time>
      </trkpt>
      <trkpt lat="42.92933" lon="0.90716">
        <ele>681</ele>
        <time>2019-08-08T10:56:01.000Z</time>
      </trkpt>
      <trkpt lat="42.92934" lon="0.90721">
        <ele>681</ele>
        <time>2019-08-08T10:56:02.000Z</time>
      </trkpt>
      <trkpt lat="42.92936" lon="0.90727">
        <ele>681</ele>
        <time>2019-08-08T10:56:03.000Z</time>
      </trkpt>
      <trkpt lat="42.92937" lon="0.90733">
        <ele>681</ele>
        <time>2019-08-08T10:56:04.000Z</time>
      </trkpt>
      <trkpt lat="42.92939" lon="0.9074">
        <ele>681</ele>
        <time>2019-08-08T10:56:05.000Z</time>
      </trkpt>
      <trkpt lat="42.92941" lon="0.90745">
        <ele>681</ele>
        <time>2019-08-08T10:56:06.000Z</time>
      </trkpt>
      <trkpt lat="42.92944" lon="0.90751">
        <ele>681</ele>
        <time>2019-08-08T10:56:07.000Z</time>
      </trkpt>
      <trkpt lat="42.92948" lon="0.90756">
        <ele>681</ele>
        <time>2019-08-08T10:56:08.000Z</time>
      </trkpt>
      <trkpt lat="42.92952" lon="0.90761">
        <ele>681</ele>
        <time>2019-08-08T10:56:09.000Z</time>
      </trkpt>
      <trkpt lat="42.92956" lon="0.90767">
        <ele>681</ele>
        <time>2019-08-08T10:56:10.000Z</time>
      </trkpt>
      <trkpt lat="42.9296" lon="0.90774">
        <ele>681</ele>
        <time>2019-08-08T10:56:11.000Z</time>
      </trkpt>
      <trkpt lat="42.92963" lon="0.90781">
        <ele>681</ele>
        <time>2019-08-08T10:56:12.000Z</time>
      </trkpt>
      <trkpt lat="42.92967" lon="0.9079">
        <ele>681</ele>
        <time>2019-08-08T10:56:13.000Z</time>
      </trkpt>
      <trkpt lat="42.92969" lon="0.90798">
        <ele>681</ele>
        <time>2019-08-08T10:56:14.000Z</time>
      </trkpt>
      <trkpt lat="42.9297" lon="0.90807">
        <ele>681</ele>
        <time>2019-08-08T10:56:15.000Z</time>
      </trkpt>
      <trkpt lat="42.9297" lon="0.90816">
        <ele>681</ele>
        <time>2019-08-08T10:56:16.000Z</time>
      </trkpt>
      <trkpt lat="42.92969" lon="0.90825">
        <ele>681</ele>
        <time>2019-08-08T10:56:17.000Z</time>
      </trkpt>
      <trkpt lat="42.92967" lon="0.90834">
        <ele>681</ele>
        <time>2019-08-08T10:56:18.000Z</time>
      </trkpt>
      <trkpt lat="42.92965" lon="0.90843">
        <ele>681</ele>
        <time>2019-08-08T10:56:19.000Z</time>
      </trkpt>
      <trkpt lat="42.92964" lon="0.90853">
        <ele>680</ele>
        <time>2019-08-08T10:56:20.000Z</time>
      </trkpt>
      <trkpt lat="42.92961" lon="0.90862">
        <ele>680</ele>
        <time>2019-08-08T10:56:21.000Z</time>
      </trkpt>
      <trkpt lat="42.92958" lon="0.9087">
        <ele>680</ele>
        <time>2019-08-08T10:56:22.000Z</time>
      </trkpt>
      <trkpt lat="42.92955" lon="0.90878">
        <ele>680</ele>
        <time>2019-08-08T10:56:23.000Z</time>
      </trkpt>
      <trkpt lat="42.92952" lon="0.90887">
        <ele>680</ele>
        <time>2019-08-08T10:56:24.000Z</time>
      </trkpt>
      <trkpt lat="42.92948" lon="0.90895">
        <ele>680</ele>
        <time>2019-08-08T10:56:25.000Z</time>
      </trkpt>
      <trkpt lat="42.92945" lon="0.90903">
        <ele>680</ele>
        <time>2019-08-08T10:56:26.000Z</time>
      </trkpt>
      <trkpt lat="42.92942" lon="0.90911">
        <ele>680</ele>
        <time>2019-08-08T10:56:27.000Z</time>
      </trkpt>
      <trkpt lat="42.92938" lon="0.90919">
        <ele>680</ele>
        <time>2019-08-08T10:56:28.000Z</time>
      </trkpt>
      <trkpt lat="42.92935" lon="0.90928">
        <ele>680</ele>
        <time>2019-08-08T10:56:29.000Z</time>
      </trkpt>
      <trkpt lat="42.92932" lon="0.90936">
        <ele>680</ele>
        <time>2019-08-08T10:56:30.000Z</time>
      </trkpt>
      <trkpt lat="42.92929" lon="0.90944">
        <ele>680</ele>
        <time>2019-08-08T10:56:31.000Z</time>
      </trkpt>
      <trkpt lat="42.92926" lon="0.90951">
        <ele>680</ele>
        <time>2019-08-08T10:56:32.000Z</time>
      </trkpt>
      <trkpt lat="42.92922" lon="0.90958">
        <ele>680</ele>
        <time>2019-08-08T10:56:33.000Z</time>
      </trkpt>
      <trkpt lat="42.92918" lon="0.90965">
        <ele>680</ele>
        <time>2019-08-08T10:56:34.000Z</time>
      </trkpt>
      <trkpt lat="42.92914" lon="0.90972">
        <ele>680</ele>
        <time>2019-08-08T10:56:35.000Z</time>
      </trkpt>
      <trkpt lat="42.92911" lon="0.90979">
        <ele>680</ele>
        <time>2019-08-08T10:56:36.000Z</time>
      </trkpt>
      <trkpt lat="42.92907" lon="0.90985">
        <ele>680</ele>
        <time>2019-08-08T10:56:37.000Z</time>
      </trkpt>
      <trkpt lat="42.92903" lon="0.90992">
        <ele>680</ele>
        <time>2019-08-08T10:56:38.000Z</time>
      </trkpt>
      <trkpt lat="42.92899" lon="0.90998">
        <ele>680</ele>
        <time>2019-08-08T10:56:39.000Z</time>
      </trkpt>
      <trkpt lat="42.92896" lon="0.91003">
        <ele>680</ele>
        <time>2019-08-08T10:56:40.000Z</time>
      </trkpt>
      <trkpt lat="42.92892" lon="0.9101">
        <ele>680</ele>
        <time>2019-08-08T10:56:41.000Z</time>
      </trkpt>
      <trkpt lat="42.92889" lon="0.91016">
        <ele>680</ele>
        <time>2019-08-08T10:56:42.000Z</time>
      </trkpt>
      <trkpt lat="42.92886" lon="0.91023">
        <ele>680</ele>
        <time>2019-08-08T10:56:43.000Z</time>
      </trkpt>
      <trkpt lat="42.92884" lon="0.91031">
        <ele>680</ele>
        <time>2019-08-08T10:56:44.000Z</time>
      </trkpt>
      <trkpt lat="42.92882" lon="0.91038">
        <ele>680</ele>
        <time>2019-08-08T10:56:45.000Z</time>
      </trkpt>
      <trkpt lat="42.92881" lon="0.91047">
        <ele>680</ele>
        <time>2019-08-08T10:56:46.000Z</time>
      </trkpt>
      <trkpt lat="42.92881" lon="0.91057">
        <ele>680</ele>
        <time>2019-08-08T10:56:47.000Z</time>
      </trkpt>
      <trkpt lat="42.92881" lon="0.91067">
        <ele>680</ele>
        <time>2019-08-08T10:56:48.000Z</time>
      </trkpt>
      <trkpt lat="42.92882" lon="0.91077">
        <ele>680</ele>
        <time>2019-08-08T10:56:49.000Z</time>
      </trkpt>
      <trkpt lat="42.92884" lon="0.91088">
        <ele>680</ele>
        <time>2019-08-08T10:56:50.000Z</time>
      </trkpt>
      <trkpt lat="42.92885" lon="0.91098">
        <ele>679</ele>
        <time>2019-08-08T10:56:51.000Z</time>
      </trkpt>
      <trkpt lat="42.92887" lon="0.91109">
        <ele>679</ele>
        <time>2019-08-08T10:56:52.000Z</time>
      </trkpt>
      <trkpt lat="42.92889" lon="0.9112">
        <ele>677</ele>
        <time>2019-08-08T10:56:53.000Z</time>
      </trkpt>
      <trkpt lat="42.92891" lon="0.91132">
        <ele>677</ele>
        <time>2019-08-08T10:56:54.000Z</time>
      </trkpt>
      <trkpt lat="42.92893" lon="0.91144">
        <ele>676</ele>
        <time>2019-08-08T10:56:55.000Z</time>
      </trkpt>
      <trkpt lat="42.92894" lon="0.91156">
        <ele>676</ele>
        <time>2019-08-08T10:56:56.000Z</time>
      </trkpt>
      <trkpt lat="42.92895" lon="0.91168">
        <ele>675</ele>
        <time>2019-08-08T10:56:57.000Z</time>
      </trkpt>
      <trkpt lat="42.92896" lon="0.9118">
        <ele>675</ele>
        <time>2019-08-08T10:56:58.000Z</time>
      </trkpt>
      <trkpt lat="42.92897" lon="0.91193">
        <ele>674</ele>
        <time>2019-08-08T10:56:59.000Z</time>
      </trkpt>
      <trkpt lat="42.92897" lon="0.91205">
        <ele>674</ele>
        <time>2019-08-08T10:57:00.000Z</time>
      </trkpt>
      <trkpt lat="42.92898" lon="0.91218">
        <ele>674</ele>
        <time>2019-08-08T10:57:01.000Z</time>
      </trkpt>
      <trkpt lat="42.92899" lon="0.9123">
        <ele>674</ele>
        <time>2019-08-08T10:57:02.000Z</time>
      </trkpt>
      <trkpt lat="42.92901" lon="0.91242">
        <ele>673</ele>
        <time>2019-08-08T10:57:03.000Z</time>
      </trkpt>
      <trkpt lat="42.92904" lon="0.91255">
        <ele>673</ele>
        <time>2019-08-08T10:57:04.000Z</time>
      </trkpt>
      <trkpt lat="42.92908" lon="0.91267">
        <ele>673</ele>
        <time>2019-08-08T10:57:05.000Z</time>
      </trkpt>
      <trkpt lat="42.92913" lon="0.91279">
        <ele>672</ele>
        <time>2019-08-08T10:57:06.000Z</time>
      </trkpt>
      <trkpt lat="42.92917" lon="0.91292">
        <ele>672</ele>
        <time>2019-08-08T10:57:07.000Z</time>
      </trkpt>
      <trkpt lat="42.92921" lon="0.91305">
        <ele>671</ele>
        <time>2019-08-08T10:57:08.000Z</time>
      </trkpt>
      <trkpt lat="42.92924" lon="0.9132">
        <ele>671</ele>
        <time>2019-08-08T10:57:09.000Z</time>
      </trkpt>
      <trkpt lat="42.92925" lon="0.91335">
        <ele>671</ele>
        <time>2019-08-08T10:57:10.000Z</time>
      </trkpt>
      <trkpt lat="42.92926" lon="0.9135">
        <ele>666</ele>
        <time>2019-08-08T10:57:11.000Z</time>
      </trkpt>
      <trkpt lat="42.92926" lon="0.91366">
        <ele>666</ele>
        <time>2019-08-08T10:57:12.000Z</time>
      </trkpt>
      <trkpt lat="42.92925" lon="0.91382">
        <ele>664</ele>
        <time>2019-08-08T10:57:13.000Z</time>
      </trkpt>
      <trkpt lat="42.92924" lon="0.91398">
        <ele>664</ele>
        <time>2019-08-08T10:57:14.000Z</time>
      </trkpt>
      <trkpt lat="42.92924" lon="0.91415">
        <ele>662</ele>
        <time>2019-08-08T10:57:15.000Z</time>
      </trkpt>
      <trkpt lat="42.92925" lon="0.91431">
        <ele>662</ele>
        <time>2019-08-08T10:57:16.000Z</time>
      </trkpt>
      <trkpt lat="42.92926" lon="0.91447">
        <ele>661</ele>
        <time>2019-08-08T10:57:17.000Z</time>
      </trkpt>
      <trkpt lat="42.9293" lon="0.91462">
        <ele>661</ele>
        <time>2019-08-08T10:57:18.000Z</time>
      </trkpt>
      <trkpt lat="42.92935" lon="0.91477">
        <ele>657</ele>
        <time>2019-08-08T10:57:19.000Z</time>
      </trkpt>
      <trkpt lat="42.92943" lon="0.91491">
        <ele>657</ele>
        <time>2019-08-08T10:57:20.000Z</time>
      </trkpt>
      <trkpt lat="42.92951" lon="0.91504">
        <ele>657</ele>
        <time>2019-08-08T10:57:21.000Z</time>
      </trkpt>
      <trkpt lat="42.9296" lon="0.91517">
        <ele>653</ele>
        <time>2019-08-08T10:57:22.000Z</time>
      </trkpt>
      <trkpt lat="42.92968" lon="0.91529">
        <ele>653</ele>
        <time>2019-08-08T10:57:23.000Z</time>
      </trkpt>
      <trkpt lat="42.92977" lon="0.91541">
        <ele>650</ele>
        <time>2019-08-08T10:57:24.000Z</time>
      </trkpt>
      <trkpt lat="42.92986" lon="0.91552">
        <ele>650</ele>
        <time>2019-08-08T10:57:25.000Z</time>
      </trkpt>
      <trkpt lat="42.93002" lon="0.91564">
        <ele>650</ele>
        <time>2019-08-08T10:57:26.000Z</time>
      </trkpt>
      <trkpt lat="42.93007" lon="0.91567">
        <ele>649</ele>
        <time>2019-08-08T10:57:27.000Z</time>
      </trkpt>
      <trkpt lat="42.93018" lon="0.91573">
        <ele>649</ele>
        <time>2019-08-08T10:57:28.000Z</time>
      </trkpt>
      <trkpt lat="42.93029" lon="0.91577">
        <ele>649</ele>
        <time>2019-08-08T10:57:29.000Z</time>
      </trkpt>
      <trkpt lat="42.9304" lon="0.91579">
        <ele>649</ele>
        <time>2019-08-08T10:57:30.000Z</time>
      </trkpt>
      <trkpt lat="42.93051" lon="0.91581">
        <ele>648</ele>
        <time>2019-08-08T10:57:31.000Z</time>
      </trkpt>
      <trkpt lat="42.93062" lon="0.91582">
        <ele>648</ele>
        <time>2019-08-08T10:57:32.000Z</time>
      </trkpt>
      <trkpt lat="42.93072" lon="0.91584">
        <ele>647</ele>
        <time>2019-08-08T10:57:33.000Z</time>
      </trkpt>
      <trkpt lat="42.93083" lon="0.91586">
        <ele>647</ele>
        <time>2019-08-08T10:57:34.000Z</time>
      </trkpt>
      <trkpt lat="42.93093" lon="0.91588">
        <ele>646</ele>
        <time>2019-08-08T10:57:35.000Z</time>
      </trkpt>
      <trkpt lat="42.93102" lon="0.9159">
        <ele>646</ele>
        <time>2019-08-08T10:57:36.000Z</time>
      </trkpt>
      <trkpt lat="42.93112" lon="0.91593">
        <ele>646</ele>
        <time>2019-08-08T10:57:37.000Z</time>
      </trkpt>
      <trkpt lat="42.93121" lon="0.91596">
        <ele>646</ele>
        <time>2019-08-08T10:57:38.000Z</time>
      </trkpt>
      <trkpt lat="42.93131" lon="0.91599">
        <ele>646</ele>
        <time>2019-08-08T10:57:39.000Z</time>
      </trkpt>
      <trkpt lat="42.9314" lon="0.91603">
        <ele>646</ele>
        <time>2019-08-08T10:57:40.000Z</time>
      </trkpt>
      <trkpt lat="42.93149" lon="0.91606">
        <ele>646</ele>
        <time>2019-08-08T10:57:41.000Z</time>
      </trkpt>
      <trkpt lat="42.93158" lon="0.91609">
        <ele>646</ele>
        <time>2019-08-08T10:57:42.000Z</time>
      </trkpt>
      <trkpt lat="42.93167" lon="0.91614">
        <ele>646</ele>
        <time>2019-08-08T10:57:43.000Z</time>
      </trkpt>
      <trkpt lat="42.93176" lon="0.91619">
        <ele>646</ele>
        <time>2019-08-08T10:57:44.000Z</time>
      </trkpt>
      <trkpt lat="42.93188" lon="0.9163">
        <ele>646</ele>
        <time>2019-08-08T10:57:45.000Z</time>
      </trkpt>
      <trkpt lat="42.93192" lon="0.91635">
        <ele>645</ele>
        <time>2019-08-08T10:57:46.000Z</time>
      </trkpt>
      <trkpt lat="42.93199" lon="0.91644">
        <ele>645</ele>
        <time>2019-08-08T10:57:47.000Z</time>
      </trkpt>
      <trkpt lat="42.93205" lon="0.91654">
        <ele>645</ele>
        <time>2019-08-08T10:57:48.000Z</time>
      </trkpt>
      <trkpt lat="42.9321" lon="0.91665">
        <ele>645</ele>
        <time>2019-08-08T10:57:49.000Z</time>
      </trkpt>
      <trkpt lat="42.93214" lon="0.91678">
        <ele>644</ele>
        <time>2019-08-08T10:57:50.000Z</time>
      </trkpt>
      <trkpt lat="42.93216" lon="0.9169">
        <ele>644</ele>
        <time>2019-08-08T10:57:51.000Z</time>
      </trkpt>
      <trkpt lat="42.93217" lon="0.91703">
        <ele>644</ele>
        <time>2019-08-08T10:57:52.000Z</time>
      </trkpt>
      <trkpt lat="42.93216" lon="0.91716">
        <ele>644</ele>
        <time>2019-08-08T10:57:53.000Z</time>
      </trkpt>
      <trkpt lat="42.93215" lon="0.91729">
        <ele>644</ele>
        <time>2019-08-08T10:57:54.000Z</time>
      </trkpt>
      <trkpt lat="42.93214" lon="0.91742">
        <ele>644</ele>
        <time>2019-08-08T10:57:55.000Z</time>
      </trkpt>
      <trkpt lat="42.93213" lon="0.91755">
        <ele>644</ele>
        <time>2019-08-08T10:57:56.000Z</time>
      </trkpt>
      <trkpt lat="42.93213" lon="0.91768">
        <ele>644</ele>
        <time>2019-08-08T10:57:57.000Z</time>
      </trkpt>
      <trkpt lat="42.93213" lon="0.91781">
        <ele>644</ele>
        <time>2019-08-08T10:57:58.000Z</time>
      </trkpt>
      <trkpt lat="42.93213" lon="0.91793">
        <ele>644</ele>
        <time>2019-08-08T10:57:59.000Z</time>
      </trkpt>
      <trkpt lat="42.93214" lon="0.91806">
        <ele>644</ele>
        <time>2019-08-08T10:58:00.000Z</time>
      </trkpt>
      <trkpt lat="42.93216" lon="0.91818">
        <ele>644</ele>
        <time>2019-08-08T10:58:01.000Z</time>
      </trkpt>
      <trkpt lat="42.93217" lon="0.91829">
        <ele>644</ele>
        <time>2019-08-08T10:58:02.000Z</time>
      </trkpt>
      <trkpt lat="42.93219" lon="0.91841">
        <ele>644</ele>
        <time>2019-08-08T10:58:03.000Z</time>
      </trkpt>
      <trkpt lat="42.93221" lon="0.91852">
        <ele>644</ele>
        <time>2019-08-08T10:58:04.000Z</time>
      </trkpt>
      <trkpt lat="42.93223" lon="0.91864">
        <ele>644</ele>
        <time>2019-08-08T10:58:05.000Z</time>
      </trkpt>
      <trkpt lat="42.93225" lon="0.91876">
        <ele>644</ele>
        <time>2019-08-08T10:58:06.000Z</time>
      </trkpt>
      <trkpt lat="42.93228" lon="0.91887">
        <ele>644</ele>
        <time>2019-08-08T10:58:07.000Z</time>
      </trkpt>
      <trkpt lat="42.9323" lon="0.91899">
        <ele>644</ele>
        <time>2019-08-08T10:58:08.000Z</time>
      </trkpt>
      <trkpt lat="42.93233" lon="0.9191">
        <ele>644</ele>
        <time>2019-08-08T10:58:09.000Z</time>
      </trkpt>
      <trkpt lat="42.93235" lon="0.91921">
        <ele>644</ele>
        <time>2019-08-08T10:58:10.000Z</time>
      </trkpt>
      <trkpt lat="42.93238" lon="0.91932">
        <ele>645</ele>
        <time>2019-08-08T10:58:11.000Z</time>
      </trkpt>
      <trkpt lat="42.93241" lon="0.91942">
        <ele>645</ele>
        <time>2019-08-08T10:58:12.000Z</time>
      </trkpt>
      <trkpt lat="42.93244" lon="0.91953">
        <ele>645</ele>
        <time>2019-08-08T10:58:13.000Z</time>
      </trkpt>
      <trkpt lat="42.93247" lon="0.91964">
        <ele>645</ele>
        <time>2019-08-08T10:58:14.000Z</time>
      </trkpt>
      <trkpt lat="42.9325" lon="0.91974">
        <ele>644</ele>
        <time>2019-08-08T10:58:15.000Z</time>
      </trkpt>
      <trkpt lat="42.93253" lon="0.91984">
        <ele>644</ele>
        <time>2019-08-08T10:58:16.000Z</time>
      </trkpt>
      <trkpt lat="42.93256" lon="0.91994">
        <ele>644</ele>
        <time>2019-08-08T10:58:17.000Z</time>
      </trkpt>
      <trkpt lat="42.93258" lon="0.92004">
        <ele>644</ele>
        <time>2019-08-08T10:58:18.000Z</time>
      </trkpt>
      <trkpt lat="42.93261" lon="0.92013">
        <ele>645</ele>
        <time>2019-08-08T10:58:19.000Z</time>
      </trkpt>
      <trkpt lat="42.93263" lon="0.92023">
        <ele>645</ele>
        <time>2019-08-08T10:58:20.000Z</time>
      </trkpt>
      <trkpt lat="42.93265" lon="0.92032">
        <ele>645</ele>
        <time>2019-08-08T10:58:21.000Z</time>
      </trkpt>
      <trkpt lat="42.93266" lon="0.92042">
        <ele>645</ele>
        <time>2019-08-08T10:58:22.000Z</time>
      </trkpt>
      <trkpt lat="42.93267" lon="0.92052">
        <ele>645</ele>
        <time>2019-08-08T10:58:23.000Z</time>
      </trkpt>
      <trkpt lat="42.93268" lon="0.92063">
        <ele>645</ele>
        <time>2019-08-08T10:58:24.000Z</time>
      </trkpt>
      <trkpt lat="42.93268" lon="0.92073">
        <ele>644</ele>
        <time>2019-08-08T10:58:25.000Z</time>
      </trkpt>
      <trkpt lat="42.93268" lon="0.92084">
        <ele>644</ele>
        <time>2019-08-08T10:58:26.000Z</time>
      </trkpt>
      <trkpt lat="42.93267" lon="0.92096">
        <ele>644</ele>
        <time>2019-08-08T10:58:27.000Z</time>
      </trkpt>
      <trkpt lat="42.93267" lon="0.92107">
        <ele>644</ele>
        <time>2019-08-08T10:58:28.000Z</time>
      </trkpt>
      <trkpt lat="42.93267" lon="0.92119">
        <ele>644</ele>
        <time>2019-08-08T10:58:29.000Z</time>
      </trkpt>
      <trkpt lat="42.93266" lon="0.9213">
        <ele>644</ele>
        <time>2019-08-08T10:58:30.000Z</time>
      </trkpt>
      <trkpt lat="42.93266" lon="0.92142">
        <ele>644</ele>
        <time>2019-08-08T10:58:31.000Z</time>
      </trkpt>
      <trkpt lat="42.93265" lon="0.92153">
        <ele>643</ele>
        <time>2019-08-08T10:58:32.000Z</time>
      </trkpt>
      <trkpt lat="42.93264" lon="0.92164">
        <ele>643</ele>
        <time>2019-08-08T10:58:33.000Z</time>
      </trkpt>
      <trkpt lat="42.93263" lon="0.92174">
        <ele>642</ele>
        <time>2019-08-08T10:58:34.000Z</time>
      </trkpt>
      <trkpt lat="42.93263" lon="0.92185">
        <ele>642</ele>
        <time>2019-08-08T10:58:35.000Z</time>
      </trkpt>
      <trkpt lat="42.93262" lon="0.92196">
        <ele>642</ele>
        <time>2019-08-08T10:58:36.000Z</time>
      </trkpt>
      <trkpt lat="42.93261" lon="0.92206">
        <ele>642</ele>
        <time>2019-08-08T10:58:37.000Z</time>
      </trkpt>
      <trkpt lat="42.93259" lon="0.92216">
        <ele>642</ele>
        <time>2019-08-08T10:58:38.000Z</time>
      </trkpt>
      <trkpt lat="42.93257" lon="0.92227">
        <ele>642</ele>
        <time>2019-08-08T10:58:39.000Z</time>
      </trkpt>
      <trkpt lat="42.93255" lon="0.92237">
        <ele>642</ele>
        <time>2019-08-08T10:58:40.000Z</time>
      </trkpt>
      <trkpt lat="42.93253" lon="0.92248">
        <ele>642</ele>
        <time>2019-08-08T10:58:41.000Z</time>
      </trkpt>
      <trkpt lat="42.93251" lon="0.92258">
        <ele>641</ele>
        <time>2019-08-08T10:58:42.000Z</time>
      </trkpt>
      <trkpt lat="42.93248" lon="0.92273">
        <ele>641</ele>
        <time>2019-08-08T10:58:43.000Z</time>
      </trkpt>
      <trkpt lat="42.93247" lon="0.92279">
        <ele>641</ele>
        <time>2019-08-08T10:58:44.000Z</time>
      </trkpt>
      <trkpt lat="42.93245" lon="0.92289">
        <ele>641</ele>
        <time>2019-08-08T10:58:45.000Z</time>
      </trkpt>
      <trkpt lat="42.93243" lon="0.92299">
        <ele>641</ele>
        <time>2019-08-08T10:58:46.000Z</time>
      </trkpt>
      <trkpt lat="42.93241" lon="0.92309">
        <ele>640</ele>
        <time>2019-08-08T10:58:47.000Z</time>
      </trkpt>
      <trkpt lat="42.93238" lon="0.92319">
        <ele>640</ele>
        <time>2019-08-08T10:58:48.000Z</time>
      </trkpt>
      <trkpt lat="42.93235" lon="0.92328">
        <ele>640</ele>
        <time>2019-08-08T10:58:49.000Z</time>
      </trkpt>
      <trkpt lat="42.93233" lon="0.92338">
        <ele>640</ele>
        <time>2019-08-08T10:58:50.000Z</time>
      </trkpt>
      <trkpt lat="42.9323" lon="0.92347">
        <ele>640</ele>
        <time>2019-08-08T10:58:51.000Z</time>
      </trkpt>
      <trkpt lat="42.93228" lon="0.92357">
        <ele>640</ele>
        <time>2019-08-08T10:58:52.000Z</time>
      </trkpt>
      <trkpt lat="42.93225" lon="0.92367">
        <ele>639</ele>
        <time>2019-08-08T10:58:53.000Z</time>
      </trkpt>
      <trkpt lat="42.93223" lon="0.92376">
        <ele>639</ele>
        <time>2019-08-08T10:58:54.000Z</time>
      </trkpt>
      <trkpt lat="42.93221" lon="0.92386">
        <ele>640</ele>
        <time>2019-08-08T10:58:55.000Z</time>
      </trkpt>
      <trkpt lat="42.93219" lon="0.92396">
        <ele>640</ele>
        <time>2019-08-08T10:58:56.000Z</time>
      </trkpt>
      <trkpt lat="42.93218" lon="0.92406">
        <ele>640</ele>
        <time>2019-08-08T10:58:57.000Z</time>
      </trkpt>
      <trkpt lat="42.93216" lon="0.92416">
        <ele>640</ele>
        <time>2019-08-08T10:58:58.000Z</time>
      </trkpt>
      <trkpt lat="42.93215" lon="0.92426">
        <ele>640</ele>
        <time>2019-08-08T10:58:59.000Z</time>
      </trkpt>
      <trkpt lat="42.93213" lon="0.92436">
        <ele>640</ele>
        <time>2019-08-08T10:59:00.000Z</time>
      </trkpt>
      <trkpt lat="42.93212" lon="0.92447">
        <ele>641</ele>
        <time>2019-08-08T10:59:01.000Z</time>
      </trkpt>
      <trkpt lat="42.9321" lon="0.92457">
        <ele>641</ele>
        <time>2019-08-08T10:59:02.000Z</time>
      </trkpt>
      <trkpt lat="42.93208" lon="0.92468">
        <ele>641</ele>
        <time>2019-08-08T10:59:03.000Z</time>
      </trkpt>
      <trkpt lat="42.93206" lon="0.92478">
        <ele>641</ele>
        <time>2019-08-08T10:59:04.000Z</time>
      </trkpt>
      <trkpt lat="42.93205" lon="0.92489">
        <ele>640</ele>
        <time>2019-08-08T10:59:05.000Z</time>
      </trkpt>
      <trkpt lat="42.93203" lon="0.92499">
        <ele>640</ele>
        <time>2019-08-08T10:59:06.000Z</time>
      </trkpt>
      <trkpt lat="42.93202" lon="0.9251">
        <ele>641</ele>
        <time>2019-08-08T10:59:07.000Z</time>
      </trkpt>
      <trkpt lat="42.932" lon="0.9252">
        <ele>641</ele>
        <time>2019-08-08T10:59:08.000Z</time>
      </trkpt>
      <trkpt lat="42.93199" lon="0.92531">
        <ele>641</ele>
        <time>2019-08-08T10:59:09.000Z</time>
      </trkpt>
      <trkpt lat="42.93197" lon="0.92541">
        <ele>641</ele>
        <time>2019-08-08T10:59:10.000Z</time>
      </trkpt>
      <trkpt lat="42.93196" lon="0.92551">
        <ele>641</ele>
        <time>2019-08-08T10:59:11.000Z</time>
      </trkpt>
      <trkpt lat="42.93195" lon="0.92561">
        <ele>641</ele>
        <time>2019-08-08T10:59:12.000Z</time>
      </trkpt>
      <trkpt lat="42.93194" lon="0.92571">
        <ele>641</ele>
        <time>2019-08-08T10:59:13.000Z</time>
      </trkpt>
      <trkpt lat="42.93193" lon="0.9258">
        <ele>641</ele>
        <time>2019-08-08T10:59:14.000Z</time>
      </trkpt>
      <trkpt lat="42.93192" lon="0.92589">
        <ele>641</ele>
        <time>2019-08-08T10:59:15.000Z</time>
      </trkpt>
      <trkpt lat="42.93191" lon="0.92598">
        <ele>641</ele>
        <time>2019-08-08T10:59:16.000Z</time>
      </trkpt>
      <trkpt lat="42.93189" lon="0.92607">
        <ele>642</ele>
        <time>2019-08-08T10:59:17.000Z</time>
      </trkpt>
      <trkpt lat="42.93188" lon="0.92616">
        <ele>642</ele>
        <time>2019-08-08T10:59:18.000Z</time>
      </trkpt>
      <trkpt lat="42.93187" lon="0.92624">
        <ele>642</ele>
        <time>2019-08-08T10:59:19.000Z</time>
      </trkpt>
      <trkpt lat="42.93186" lon="0.92632">
        <ele>642</ele>
        <time>2019-08-08T10:59:20.000Z</time>
      </trkpt>
      <trkpt lat="42.93185" lon="0.92641">
        <ele>643</ele>
        <time>2019-08-08T10:59:21.000Z</time>
      </trkpt>
      <trkpt lat="42.93183" lon="0.92648">
        <ele>643</ele>
        <time>2019-08-08T10:59:22.000Z</time>
      </trkpt>
      <trkpt lat="42.93182" lon="0.92656">
        <ele>643</ele>
        <time>2019-08-08T10:59:23.000Z</time>
      </trkpt>
      <trkpt lat="42.93182" lon="0.92664">
        <ele>643</ele>
        <time>2019-08-08T10:59:24.000Z</time>
      </trkpt>
      <trkpt lat="42.93182" lon="0.92671">
        <ele>643</ele>
        <time>2019-08-08T10:59:25.000Z</time>
      </trkpt>
      <trkpt lat="42.93182" lon="0.92678">
        <ele>643</ele>
        <time>2019-08-08T10:59:26.000Z</time>
      </trkpt>
      <trkpt lat="42.93183" lon="0.92686">
        <ele>644</ele>
        <time>2019-08-08T10:59:27.000Z</time>
      </trkpt>
      <trkpt lat="42.93184" lon="0.92693">
        <ele>644</ele>
        <time>2019-08-08T10:59:28.000Z</time>
      </trkpt>
      <trkpt lat="42.93186" lon="0.927">
        <ele>644</ele>
        <time>2019-08-08T10:59:29.000Z</time>
      </trkpt>
      <trkpt lat="42.93188" lon="0.92707">
        <ele>644</ele>
        <time>2019-08-08T10:59:30.000Z</time>
      </trkpt>
      <trkpt lat="42.93191" lon="0.92714">
        <ele>644</ele>
        <time>2019-08-08T10:59:31.000Z</time>
      </trkpt>
      <trkpt lat="42.93194" lon="0.9272">
        <ele>644</ele>
        <time>2019-08-08T10:59:32.000Z</time>
      </trkpt>
      <trkpt lat="42.93197" lon="0.92727">
        <ele>645</ele>
        <time>2019-08-08T10:59:33.000Z</time>
      </trkpt>
      <trkpt lat="42.932" lon="0.92734">
        <ele>645</ele>
        <time>2019-08-08T10:59:34.000Z</time>
      </trkpt>
      <trkpt lat="42.93202" lon="0.92741">
        <ele>646</ele>
        <time>2019-08-08T10:59:35.000Z</time>
      </trkpt>
      <trkpt lat="42.93202" lon="0.92748">
        <ele>646</ele>
        <time>2019-08-08T10:59:36.000Z</time>
      </trkpt>
      <trkpt lat="42.93202" lon="0.92756">
        <ele>646</ele>
        <time>2019-08-08T10:59:37.000Z</time>
      </trkpt>
      <trkpt lat="42.932" lon="0.92764">
        <ele>646</ele>
        <time>2019-08-08T10:59:38.000Z</time>
      </trkpt>
      <trkpt lat="42.93197" lon="0.9277">
        <ele>647</ele>
        <time>2019-08-08T10:59:39.000Z</time>
      </trkpt>
      <trkpt lat="42.93193" lon="0.92777">
        <ele>647</ele>
        <time>2019-08-08T10:59:40.000Z</time>
      </trkpt>
      <trkpt lat="42.93189" lon="0.92782">
        <ele>647</ele>
        <time>2019-08-08T10:59:41.000Z</time>
      </trkpt>
      <trkpt lat="42.93184" lon="0.92787">
        <ele>647</ele>
        <time>2019-08-08T10:59:42.000Z</time>
      </trkpt>
      <trkpt lat="42.9318" lon="0.92791">
        <ele>647</ele>
        <time>2019-08-08T10:59:43.000Z</time>
      </trkpt>
      <trkpt lat="42.93176" lon="0.92795">
        <ele>648</ele>
        <time>2019-08-08T10:59:44.000Z</time>
      </trkpt>
      <trkpt lat="42.93171" lon="0.92799">
        <ele>648</ele>
        <time>2019-08-08T10:59:45.000Z</time>
      </trkpt>
      <trkpt lat="42.93167" lon="0.92803">
        <ele>648</ele>
        <time>2019-08-08T10:59:46.000Z</time>
      </trkpt>
      <trkpt lat="42.93162" lon="0.92807">
        <ele>648</ele>
        <time>2019-08-08T10:59:47.000Z</time>
      </trkpt>
      <trkpt lat="42.93157" lon="0.92812">
        <ele>649</ele>
        <time>2019-08-08T10:59:48.000Z</time>
      </trkpt>
      <trkpt lat="42.93153" lon="0.92816">
        <ele>649</ele>
        <time>2019-08-08T10:59:49.000Z</time>
      </trkpt>
      <trkpt lat="42.93149" lon="0.9282">
        <ele>650</ele>
        <time>2019-08-08T10:59:50.000Z</time>
      </trkpt>
      <trkpt lat="42.93144" lon="0.92824">
        <ele>650</ele>
        <time>2019-08-08T10:59:51.000Z</time>
      </trkpt>
      <trkpt lat="42.9314" lon="0.92828">
        <ele>650</ele>
        <time>2019-08-08T10:59:52.000Z</time>
      </trkpt>
      <trkpt lat="42.93136" lon="0.92833">
        <ele>650</ele>
        <time>2019-08-08T10:59:53.000Z</time>
      </trkpt>
      <trkpt lat="42.93131" lon="0.92837">
        <ele>650</ele>
        <time>2019-08-08T10:59:54.000Z</time>
      </trkpt>
      <trkpt lat="42.93127" lon="0.92841">
        <ele>650</ele>
        <time>2019-08-08T10:59:55.000Z</time>
      </trkpt>
      <trkpt lat="42.93123" lon="0.92845">
        <ele>650</ele>
        <time>2019-08-08T10:59:56.000Z</time>
      </trkpt>
      <trkpt lat="42.93118" lon="0.92849">
        <ele>650</ele>
        <time>2019-08-08T10:59:57.000Z</time>
      </trkpt>
      <trkpt lat="42.93113" lon="0.92853">
        <ele>650</ele>
        <time>2019-08-08T10:59:58.000Z</time>
      </trkpt>
      <trkpt lat="42.93108" lon="0.92856">
        <ele>650</ele>
        <time>2019-08-08T10:59:59.000Z</time>
      </trkpt>
      <trkpt lat="42.93103" lon="0.92858">
        <ele>651</ele>
        <time>2019-08-08T11:00:00.000Z</time>
      </trkpt>
      <trkpt lat="42.93098" lon="0.9286">
        <ele>651</ele>
        <time>2019-08-08T11:00:01.000Z</time>
      </trkpt>
      <trkpt lat="42.93093" lon="0.92861">
        <ele>651</ele>
        <time>2019-08-08T11:00:02.000Z</time>
      </trkpt>
      <trkpt lat="42.93088" lon="0.92862">
        <ele>651</ele>
        <time>2019-08-08T11:00:03.000Z</time>
      </trkpt>
      <trkpt lat="42.93083" lon="0.92863">
        <ele>651</ele>
        <time>2019-08-08T11:00:04.000Z</time>
      </trkpt>
      <trkpt lat="42.93078" lon="0.92864">
        <ele>651</ele>
        <time>2019-08-08T11:00:05.000Z</time>
      </trkpt>
      <trkpt lat="42.93073" lon="0.92864">
        <ele>652</ele>
        <time>2019-08-08T11:00:06.000Z</time>
      </trkpt>
      <trkpt lat="42.93069" lon="0.92865">
        <ele>652</ele>
        <time>2019-08-08T11:00:07.000Z</time>
      </trkpt>
      <trkpt lat="42.93064" lon="0.92865">
        <ele>653</ele>
        <time>2019-08-08T11:00:08.000Z</time>
      </trkpt>
      <trkpt lat="42.9306" lon="0.92866">
        <ele>653</ele>
        <time>2019-08-08T11:00:09.000Z</time>
      </trkpt>
      <trkpt lat="42.93055" lon="0.92867">
        <ele>653</ele>
        <time>2019-08-08T11:00:10.000Z</time>
      </trkpt>
      <trkpt lat="42.93051" lon="0.92868">
        <ele>653</ele>
        <time>2019-08-08T11:00:11.000Z</time>
      </trkpt>
      <trkpt lat="42.93046" lon="0.9287">
        <ele>653</ele>
        <time>2019-08-08T11:00:12.000Z</time>
      </trkpt>
      <trkpt lat="42.93042" lon="0.92872">
        <ele>653</ele>
        <time>2019-08-08T11:00:13.000Z</time>
      </trkpt>
      <trkpt lat="42.93038" lon="0.92874">
        <ele>653</ele>
        <time>2019-08-08T11:00:14.000Z</time>
      </trkpt>
      <trkpt lat="42.93034" lon="0.92876">
        <ele>653</ele>
        <time>2019-08-08T11:00:15.000Z</time>
      </trkpt>
      <trkpt lat="42.9303" lon="0.92878">
        <ele>653</ele>
        <time>2019-08-08T11:00:16.000Z</time>
      </trkpt>
      <trkpt lat="42.93025" lon="0.92881">
        <ele>653</ele>
        <time>2019-08-08T11:00:17.000Z</time>
      </trkpt>
      <trkpt lat="42.93021" lon="0.92883">
        <ele>653</ele>
        <time>2019-08-08T11:00:18.000Z</time>
      </trkpt>
      <trkpt lat="42.93017" lon="0.92886">
        <ele>653</ele>
        <time>2019-08-08T11:00:19.000Z</time>
      </trkpt>
      <trkpt lat="42.93013" lon="0.92889">
        <ele>654</ele>
        <time>2019-08-08T11:00:20.000Z</time>
      </trkpt>
      <trkpt lat="42.93009" lon="0.92892">
        <ele>654</ele>
        <time>2019-08-08T11:00:21.000Z</time>
      </trkpt>
      <trkpt lat="42.93005" lon="0.92894">
        <ele>654</ele>
        <time>2019-08-08T11:00:22.000Z</time>
      </trkpt>
      <trkpt lat="42.93001" lon="0.92897">
        <ele>654</ele>
        <time>2019-08-08T11:00:23.000Z</time>
      </trkpt>
      <trkpt lat="42.92997" lon="0.929">
        <ele>654</ele>
        <time>2019-08-08T11:00:24.000Z</time>
      </trkpt>
      <trkpt lat="42.92994" lon="0.92904">
        <ele>654</ele>
        <time>2019-08-08T11:00:25.000Z</time>
      </trkpt>
      <trkpt lat="42.9299" lon="0.92908">
        <ele>655</ele>
        <time>2019-08-08T11:00:26.000Z</time>
      </trkpt>
      <trkpt lat="42.92987" lon="0.92912">
        <ele>654</ele>
        <time>2019-08-08T11:00:27.000Z</time>
      </trkpt>
      <trkpt lat="42.92984" lon="0.92917">
        <ele>655</ele>
        <time>2019-08-08T11:00:28.000Z</time>
      </trkpt>
      <trkpt lat="42.92981" lon="0.92922">
        <ele>655</ele>
        <time>2019-08-08T11:00:29.000Z</time>
      </trkpt>
      <trkpt lat="42.92979" lon="0.92927">
        <ele>655</ele>
        <time>2019-08-08T11:00:30.000Z</time>
      </trkpt>
      <trkpt lat="42.92977" lon="0.92933">
        <ele>655</ele>
        <time>2019-08-08T11:00:31.000Z</time>
      </trkpt>
      <trkpt lat="42.92976" lon="0.92939">
        <ele>655</ele>
        <time>2019-08-08T11:00:32.000Z</time>
      </trkpt>
      <trkpt lat="42.92975" lon="0.92945">
        <ele>655</ele>
        <time>2019-08-08T11:00:33.000Z</time>
      </trkpt>
      <trkpt lat="42.92974" lon="0.92951">
        <ele>655</ele>
        <time>2019-08-08T11:00:34.000Z</time>
      </trkpt>
      <trkpt lat="42.92973" lon="0.92957">
        <ele>655</ele>
        <time>2019-08-08T11:00:35.000Z</time>
      </trkpt>
      <trkpt lat="42.92973" lon="0.92966">
        <ele>655</ele>
        <time>2019-08-08T11:00:36.000Z</time>
      </trkpt>
      <trkpt lat="42.92973" lon="0.92969">
        <ele>657</ele>
        <time>2019-08-08T11:00:37.000Z</time>
      </trkpt>
      <trkpt lat="42.92974" lon="0.92975">
        <ele>656</ele>
        <time>2019-08-08T11:00:38.000Z</time>
      </trkpt>
      <trkpt lat="42.92975" lon="0.92981">
        <ele>656</ele>
        <time>2019-08-08T11:00:39.000Z</time>
      </trkpt>
      <trkpt lat="42.92976" lon="0.92987">
        <ele>656</ele>
        <time>2019-08-08T11:00:40.000Z</time>
      </trkpt>
      <trkpt lat="42.92977" lon="0.92993">
        <ele>656</ele>
        <time>2019-08-08T11:00:41.000Z</time>
      </trkpt>
      <trkpt lat="42.92979" lon="0.93">
        <ele>656</ele>
        <time>2019-08-08T11:00:42.000Z</time>
      </trkpt>
      <trkpt lat="42.92981" lon="0.93006">
        <ele>656</ele>
        <time>2019-08-08T11:00:43.000Z</time>
      </trkpt>
      <trkpt lat="42.92983" lon="0.93012">
        <ele>656</ele>
        <time>2019-08-08T11:00:44.000Z</time>
      </trkpt>
      <trkpt lat="42.92985" lon="0.93018">
        <ele>656</ele>
        <time>2019-08-08T11:00:45.000Z</time>
      </trkpt>
      <trkpt lat="42.92988" lon="0.93023">
        <ele>657</ele>
        <time>2019-08-08T11:00:46.000Z</time>
      </trkpt>
      <trkpt lat="42.9299" lon="0.93028">
        <ele>657</ele>
        <time>2019-08-08T11:00:47.000Z</time>
      </trkpt>
      <trkpt lat="42.92993" lon="0.93034">
        <ele>657</ele>
        <time>2019-08-08T11:00:48.000Z</time>
      </trkpt>
      <trkpt lat="42.92996" lon="0.93039">
        <ele>657</ele>
        <time>2019-08-08T11:00:49.000Z</time>
      </trkpt>
      <trkpt lat="42.93" lon="0.93044">
        <ele>658</ele>
        <time>2019-08-08T11:00:50.000Z</time>
      </trkpt>
      <trkpt lat="42.93003" lon="0.93049">
        <ele>658</ele>
        <time>2019-08-08T11:00:51.000Z</time>
      </trkpt>
      <trkpt lat="42.93006" lon="0.93054">
        <ele>657</ele>
        <time>2019-08-08T11:00:52.000Z</time>
      </trkpt>
      <trkpt lat="42.9301" lon="0.93059">
        <ele>657</ele>
        <time>2019-08-08T11:00:53.000Z</time>
      </trkpt>
      <trkpt lat="42.93013" lon="0.93064">
        <ele>658</ele>
        <time>2019-08-08T11:00:54.000Z</time>
      </trkpt>
      <trkpt lat="42.93016" lon="0.93069">
        <ele>658</ele>
        <time>2019-08-08T11:00:55.000Z</time>
      </trkpt>
      <trkpt lat="42.93019" lon="0.93073">
        <ele>658</ele>
        <time>2019-08-08T11:00:56.000Z</time>
      </trkpt>
      <trkpt lat="42.93022" lon="0.93078">
        <ele>658</ele>
        <time>2019-08-08T11:00:57.000Z</time>
      </trkpt>
      <trkpt lat="42.93025" lon="0.93083">
        <ele>658</ele>
        <time>2019-08-08T11:00:58.000Z</time>
      </trkpt>
      <trkpt lat="42.93028" lon="0.93088">
        <ele>658</ele>
        <time>2019-08-08T11:00:59.000Z</time>
      </trkpt>
      <trkpt lat="42.93031" lon="0.93093">
        <ele>658</ele>
        <time>2019-08-08T11:01:00.000Z</time>
      </trkpt>
      <trkpt lat="42.93035" lon="0.93098">
        <ele>658</ele>
        <time>2019-08-08T11:01:01.000Z</time>
      </trkpt>
      <trkpt lat="42.93038" lon="0.93103">
        <ele>659</ele>
        <time>2019-08-08T11:01:02.000Z</time>
      </trkpt>
      <trkpt lat="42.93041" lon="0.93108">
        <ele>659</ele>
        <time>2019-08-08T11:01:03.000Z</time>
      </trkpt>
      <trkpt lat="42.93044" lon="0.93113">
        <ele>659</ele>
        <time>2019-08-08T11:01:04.000Z</time>
      </trkpt>
      <trkpt lat="42.93047" lon="0.93119">
        <ele>659</ele>
        <time>2019-08-08T11:01:05.000Z</time>
      </trkpt>
      <trkpt lat="42.9305" lon="0.93124">
        <ele>658</ele>
        <time>2019-08-08T11:01:06.000Z</time>
      </trkpt>
      <trkpt lat="42.93054" lon="0.93129">
        <ele>658</ele>
        <time>2019-08-08T11:01:07.000Z</time>
      </trkpt>
      <trkpt lat="42.93057" lon="0.93135">
        <ele>658</ele>
        <time>2019-08-08T11:01:08.000Z</time>
      </trkpt>
      <trkpt lat="42.9306" lon="0.9314">
        <ele>658</ele>
        <time>2019-08-08T11:01:09.000Z</time>
      </trkpt>
      <trkpt lat="42.93063" lon="0.93146">
        <ele>658</ele>
        <time>2019-08-08T11:01:10.000Z</time>
      </trkpt>
      <trkpt lat="42.93067" lon="0.93151">
        <ele>658</ele>
        <time>2019-08-08T11:01:11.000Z</time>
      </trkpt>
      <trkpt lat="42.9307" lon="0.93157">
        <ele>658</ele>
        <time>2019-08-08T11:01:12.000Z</time>
      </trkpt>
      <trkpt lat="42.93073" lon="0.93163">
        <ele>658</ele>
        <time>2019-08-08T11:01:13.000Z</time>
      </trkpt>
      <trkpt lat="42.93076" lon="0.93168">
        <ele>658</ele>
        <time>2019-08-08T11:01:14.000Z</time>
      </trkpt>
      <trkpt lat="42.9308" lon="0.93174">
        <ele>658</ele>
        <time>2019-08-08T11:01:15.000Z</time>
      </trkpt>
      <trkpt lat="42.93083" lon="0.93179">
        <ele>658</ele>
        <time>2019-08-08T11:01:16.000Z</time>
      </trkpt>
      <trkpt lat="42.93086" lon="0.93185">
        <ele>658</ele>
        <time>2019-08-08T11:01:17.000Z</time>
      </trkpt>
      <trkpt lat="42.9309" lon="0.9319">
        <ele>659</ele>
        <time>2019-08-08T11:01:18.000Z</time>
      </trkpt>
      <trkpt lat="42.93094" lon="0.93196">
        <ele>659</ele>
        <time>2019-08-08T11:01:19.000Z</time>
      </trkpt>
      <trkpt lat="42.93097" lon="0.93201">
        <ele>659</ele>
        <time>2019-08-08T11:01:20.000Z</time>
      </trkpt>
      <trkpt lat="42.93101" lon="0.93207">
        <ele>659</ele>
        <time>2019-08-08T11:01:21.000Z</time>
      </trkpt>
      <trkpt lat="42.93105" lon="0.93212">
        <ele>659</ele>
        <time>2019-08-08T11:01:22.000Z</time>
      </trkpt>
      <trkpt lat="42.93108" lon="0.93218">
        <ele>659</ele>
        <time>2019-08-08T11:01:23.000Z</time>
      </trkpt>
      <trkpt lat="42.93112" lon="0.93223">
        <ele>658</ele>
        <time>2019-08-08T11:01:24.000Z</time>
      </trkpt>
      <trkpt lat="42.93117" lon="0.93228">
        <ele>658</ele>
        <time>2019-08-08T11:01:25.000Z</time>
      </trkpt>
      <trkpt lat="42.93121" lon="0.93233">
        <ele>657</ele>
        <time>2019-08-08T11:01:26.000Z</time>
      </trkpt>
      <trkpt lat="42.93126" lon="0.93238">
        <ele>657</ele>
        <time>2019-08-08T11:01:27.000Z</time>
      </trkpt>
      <trkpt lat="42.93131" lon="0.93243">
        <ele>657</ele>
        <time>2019-08-08T11:01:28.000Z</time>
      </trkpt>
      <trkpt lat="42.93138" lon="0.93251">
        <ele>657</ele>
        <time>2019-08-08T11:01:29.000Z</time>
      </trkpt>
      <trkpt lat="42.9314" lon="0.93253">
        <ele>657</ele>
        <time>2019-08-08T11:01:30.000Z</time>
      </trkpt>
      <trkpt lat="42.93145" lon="0.93259">
        <ele>657</ele>
        <time>2019-08-08T11:01:31.000Z</time>
      </trkpt>
      <trkpt lat="42.9315" lon="0.93264">
        <ele>657</ele>
        <time>2019-08-08T11:01:32.000Z</time>
      </trkpt>
      <trkpt lat="42.93159" lon="0.93272">
        <ele>657</ele>
        <time>2019-08-08T11:01:33.000Z</time>
      </trkpt>
      <trkpt lat="42.93161" lon="0.93275">
        <ele>657</ele>
        <time>2019-08-08T11:01:34.000Z</time>
      </trkpt>
      <trkpt lat="42.93167" lon="0.93281">
        <ele>656</ele>
        <time>2019-08-08T11:01:35.000Z</time>
      </trkpt>
      <trkpt lat="42.93173" lon="0.93287">
        <ele>656</ele>
        <time>2019-08-08T11:01:36.000Z</time>
      </trkpt>
      <trkpt lat="42.93179" lon="0.93293">
        <ele>655</ele>
        <time>2019-08-08T11:01:37.000Z</time>
      </trkpt>
      <trkpt lat="42.93185" lon="0.933">
        <ele>655</ele>
        <time>2019-08-08T11:01:38.000Z</time>
      </trkpt>
      <trkpt lat="42.93191" lon="0.93306">
        <ele>655</ele>
        <time>2019-08-08T11:01:39.000Z</time>
      </trkpt>
      <trkpt lat="42.93197" lon="0.93313">
        <ele>655</ele>
        <time>2019-08-08T11:01:40.000Z</time>
      </trkpt>
      <trkpt lat="42.93203" lon="0.93319">
        <ele>655</ele>
        <time>2019-08-08T11:01:41.000Z</time>
      </trkpt>
      <trkpt lat="42.9321" lon="0.93326">
        <ele>655</ele>
        <time>2019-08-08T11:01:42.000Z</time>
      </trkpt>
      <trkpt lat="42.93216" lon="0.93333">
        <ele>654</ele>
        <time>2019-08-08T11:01:43.000Z</time>
      </trkpt>
      <trkpt lat="42.93221" lon="0.93341">
        <ele>654</ele>
        <time>2019-08-08T11:01:44.000Z</time>
      </trkpt>
      <trkpt lat="42.93227" lon="0.93349">
        <ele>654</ele>
        <time>2019-08-08T11:01:45.000Z</time>
      </trkpt>
      <trkpt lat="42.93232" lon="0.93358">
        <ele>654</ele>
        <time>2019-08-08T11:01:46.000Z</time>
      </trkpt>
      <trkpt lat="42.93236" lon="0.93366">
        <ele>654</ele>
        <time>2019-08-08T11:01:47.000Z</time>
      </trkpt>
      <trkpt lat="42.93241" lon="0.93375">
        <ele>654</ele>
        <time>2019-08-08T11:01:48.000Z</time>
      </trkpt>
      <trkpt lat="42.93245" lon="0.93384">
        <ele>655</ele>
        <time>2019-08-08T11:01:49.000Z</time>
      </trkpt>
      <trkpt lat="42.9325" lon="0.93393">
        <ele>655</ele>
        <time>2019-08-08T11:01:50.000Z</time>
      </trkpt>
      <trkpt lat="42.93254" lon="0.93401">
        <ele>655</ele>
        <time>2019-08-08T11:01:51.000Z</time>
      </trkpt>
      <trkpt lat="42.93258" lon="0.93409">
        <ele>655</ele>
        <time>2019-08-08T11:01:52.000Z</time>
      </trkpt>
      <trkpt lat="42.93262" lon="0.93418">
        <ele>655</ele>
        <time>2019-08-08T11:01:53.000Z</time>
      </trkpt>
      <trkpt lat="42.93266" lon="0.93426">
        <ele>654</ele>
        <time>2019-08-08T11:01:54.000Z</time>
      </trkpt>
      <trkpt lat="42.9327" lon="0.93434">
        <ele>654</ele>
        <time>2019-08-08T11:01:55.000Z</time>
      </trkpt>
      <trkpt lat="42.93274" lon="0.93442">
        <ele>654</ele>
        <time>2019-08-08T11:01:56.000Z</time>
      </trkpt>
      <trkpt lat="42.93278" lon="0.93451">
        <ele>654</ele>
        <time>2019-08-08T11:01:57.000Z</time>
      </trkpt>
      <trkpt lat="42.93282" lon="0.93459">
        <ele>655</ele>
        <time>2019-08-08T11:01:58.000Z</time>
      </trkpt>
      <trkpt lat="42.93286" lon="0.93466">
        <ele>655</ele>
        <time>2019-08-08T11:01:59.000Z</time>
      </trkpt>
      <trkpt lat="42.93291" lon="0.93474">
        <ele>655</ele>
        <time>2019-08-08T11:02:00.000Z</time>
      </trkpt>
      <trkpt lat="42.93295" lon="0.93482">
        <ele>655</ele>
        <time>2019-08-08T11:02:01.000Z</time>
      </trkpt>
      <trkpt lat="42.93299" lon="0.9349">
        <ele>655</ele>
        <time>2019-08-08T11:02:02.000Z</time>
      </trkpt>
      <trkpt lat="42.93303" lon="0.93497">
        <ele>655</ele>
        <time>2019-08-08T11:02:03.000Z</time>
      </trkpt>
      <trkpt lat="42.93307" lon="0.93505">
        <ele>655</ele>
        <time>2019-08-08T11:02:04.000Z</time>
      </trkpt>
      <trkpt lat="42.93311" lon="0.93512">
        <ele>655</ele>
        <time>2019-08-08T11:02:05.000Z</time>
      </trkpt>
      <trkpt lat="42.93315" lon="0.9352">
        <ele>655</ele>
        <time>2019-08-08T11:02:06.000Z</time>
      </trkpt>
      <trkpt lat="42.93319" lon="0.93527">
        <ele>655</ele>
        <time>2019-08-08T11:02:07.000Z</time>
      </trkpt>
      <trkpt lat="42.93323" lon="0.93534">
        <ele>656</ele>
        <time>2019-08-08T11:02:08.000Z</time>
      </trkpt>
      <trkpt lat="42.93327" lon="0.93541">
        <ele>656</ele>
        <time>2019-08-08T11:02:09.000Z</time>
      </trkpt>
      <trkpt lat="42.93331" lon="0.93549">
        <ele>656</ele>
        <time>2019-08-08T11:02:10.000Z</time>
      </trkpt>
      <trkpt lat="42.93335" lon="0.93556">
        <ele>656</ele>
        <time>2019-08-08T11:02:11.000Z</time>
      </trkpt>
      <trkpt lat="42.93339" lon="0.93564">
        <ele>656</ele>
        <time>2019-08-08T11:02:12.000Z</time>
      </trkpt>
      <trkpt lat="42.93343" lon="0.93571">
        <ele>656</ele>
        <time>2019-08-08T11:02:13.000Z</time>
      </trkpt>
      <trkpt lat="42.93346" lon="0.93579">
        <ele>657</ele>
        <time>2019-08-08T11:02:14.000Z</time>
      </trkpt>
      <trkpt lat="42.9335" lon="0.93587">
        <ele>657</ele>
        <time>2019-08-08T11:02:15.000Z</time>
      </trkpt>
      <trkpt lat="42.93354" lon="0.93594">
        <ele>657</ele>
        <time>2019-08-08T11:02:16.000Z</time>
      </trkpt>
      <trkpt lat="42.93358" lon="0.93602">
        <ele>657</ele>
        <time>2019-08-08T11:02:17.000Z</time>
      </trkpt>
      <trkpt lat="42.93362" lon="0.93609">
        <ele>656</ele>
        <time>2019-08-08T11:02:18.000Z</time>
      </trkpt>
      <trkpt lat="42.93365" lon="0.93617">
        <ele>656</ele>
        <time>2019-08-08T11:02:19.000Z</time>
      </trkpt>
      <trkpt lat="42.93369" lon="0.93624">
        <ele>656</ele>
        <time>2019-08-08T11:02:20.000Z</time>
      </trkpt>
      <trkpt lat="42.93373" lon="0.93631">
        <ele>656</ele>
        <time>2019-08-08T11:02:21.000Z</time>
      </trkpt>
      <trkpt lat="42.93378" lon="0.93642">
        <ele>656</ele>
        <time>2019-08-08T11:02:22.000Z</time>
      </trkpt>
      <trkpt lat="42.9338" lon="0.93646">
        <ele>657</ele>
        <time>2019-08-08T11:02:23.000Z</time>
      </trkpt>
      <trkpt lat="42.93384" lon="0.93653">
        <ele>657</ele>
        <time>2019-08-08T11:02:24.000Z</time>
      </trkpt>
      <trkpt lat="42.93388" lon="0.9366">
        <ele>657</ele>
        <time>2019-08-08T11:02:25.000Z</time>
      </trkpt>
      <trkpt lat="42.93391" lon="0.93667">
        <ele>657</ele>
        <time>2019-08-08T11:02:26.000Z</time>
      </trkpt>
      <trkpt lat="42.93395" lon="0.93674">
        <ele>657</ele>
        <time>2019-08-08T11:02:27.000Z</time>
      </trkpt>
      <trkpt lat="42.93399" lon="0.93681">
        <ele>658</ele>
        <time>2019-08-08T11:02:28.000Z</time>
      </trkpt>
      <trkpt lat="42.93402" lon="0.93688">
        <ele>658</ele>
        <time>2019-08-08T11:02:29.000Z</time>
      </trkpt>
      <trkpt lat="42.93406" lon="0.93699">
        <ele>658</ele>
        <time>2019-08-08T11:02:30.000Z</time>
      </trkpt>
      <trkpt lat="42.93407" lon="0.93703">
        <ele>658</ele>
        <time>2019-08-08T11:02:31.000Z</time>
      </trkpt>
      <trkpt lat="42.93409" lon="0.93712">
        <ele>658</ele>
        <time>2019-08-08T11:02:32.000Z</time>
      </trkpt>
      <trkpt lat="42.9341" lon="0.9372">
        <ele>658</ele>
        <time>2019-08-08T11:02:33.000Z</time>
      </trkpt>
      <trkpt lat="42.93412" lon="0.93729">
        <ele>657</ele>
        <time>2019-08-08T11:02:34.000Z</time>
      </trkpt>
      <trkpt lat="42.93413" lon="0.93738">
        <ele>657</ele>
        <time>2019-08-08T11:02:35.000Z</time>
      </trkpt>
      <trkpt lat="42.93414" lon="0.93748">
        <ele>657</ele>
        <time>2019-08-08T11:02:36.000Z</time>
      </trkpt>
      <trkpt lat="42.93415" lon="0.93757">
        <ele>657</ele>
        <time>2019-08-08T11:02:37.000Z</time>
      </trkpt>
      <trkpt lat="42.93415" lon="0.93768">
        <ele>657</ele>
        <time>2019-08-08T11:02:38.000Z</time>
      </trkpt>
      <trkpt lat="42.93416" lon="0.93778">
        <ele>657</ele>
        <time>2019-08-08T11:02:39.000Z</time>
      </trkpt>
      <trkpt lat="42.93417" lon="0.93789">
        <ele>657</ele>
        <time>2019-08-08T11:02:40.000Z</time>
      </trkpt>
      <trkpt lat="42.93418" lon="0.93801">
        <ele>656</ele>
        <time>2019-08-08T11:02:41.000Z</time>
      </trkpt>
      <trkpt lat="42.93418" lon="0.93812">
        <ele>656</ele>
        <time>2019-08-08T11:02:42.000Z</time>
      </trkpt>
      <trkpt lat="42.93419" lon="0.93824">
        <ele>654</ele>
        <time>2019-08-08T11:02:43.000Z</time>
      </trkpt>
      <trkpt lat="42.9342" lon="0.93835">
        <ele>654</ele>
        <time>2019-08-08T11:02:44.000Z</time>
      </trkpt>
      <trkpt lat="42.93421" lon="0.93846">
        <ele>653</ele>
        <time>2019-08-08T11:02:45.000Z</time>
      </trkpt>
      <trkpt lat="42.93422" lon="0.93858">
        <ele>653</ele>
        <time>2019-08-08T11:02:46.000Z</time>
      </trkpt>
      <trkpt lat="42.93423" lon="0.93869">
        <ele>652</ele>
        <time>2019-08-08T11:02:47.000Z</time>
      </trkpt>
      <trkpt lat="42.93423" lon="0.93881">
        <ele>652</ele>
        <time>2019-08-08T11:02:48.000Z</time>
      </trkpt>
      <trkpt lat="42.93425" lon="0.93898">
        <ele>652</ele>
        <time>2019-08-08T11:02:49.000Z</time>
      </trkpt>
      <trkpt lat="42.93425" lon="0.93904">
        <ele>651</ele>
        <time>2019-08-08T11:02:50.000Z</time>
      </trkpt>
      <trkpt lat="42.93426" lon="0.93915">
        <ele>650</ele>
        <time>2019-08-08T11:02:51.000Z</time>
      </trkpt>
      <trkpt lat="42.93427" lon="0.93927">
        <ele>650</ele>
        <time>2019-08-08T11:02:52.000Z</time>
      </trkpt>
      <trkpt lat="42.93427" lon="0.93938">
        <ele>649</ele>
        <time>2019-08-08T11:02:53.000Z</time>
      </trkpt>
      <trkpt lat="42.93428" lon="0.9395">
        <ele>649</ele>
        <time>2019-08-08T11:02:54.000Z</time>
      </trkpt>
      <trkpt lat="42.93429" lon="0.93961">
        <ele>648</ele>
        <time>2019-08-08T11:02:55.000Z</time>
      </trkpt>
      <trkpt lat="42.9343" lon="0.93973">
        <ele>648</ele>
        <time>2019-08-08T11:02:56.000Z</time>
      </trkpt>
      <trkpt lat="42.93432" lon="0.93985">
        <ele>647</ele>
        <time>2019-08-08T11:02:57.000Z</time>
      </trkpt>
      <trkpt lat="42.93434" lon="0.93996">
        <ele>647</ele>
        <time>2019-08-08T11:02:58.000Z</time>
      </trkpt>
      <trkpt lat="42.93437" lon="0.94008">
        <ele>646</ele>
        <time>2019-08-08T11:02:59.000Z</time>
      </trkpt>
      <trkpt lat="42.93441" lon="0.9402">
        <ele>646</ele>
        <time>2019-08-08T11:03:00.000Z</time>
      </trkpt>
      <trkpt lat="42.93445" lon="0.94032">
        <ele>646</ele>
        <time>2019-08-08T11:03:01.000Z</time>
      </trkpt>
      <trkpt lat="42.9345" lon="0.94045">
        <ele>646</ele>
        <time>2019-08-08T11:03:02.000Z</time>
      </trkpt>
      <trkpt lat="42.93454" lon="0.94057">
        <ele>643</ele>
        <time>2019-08-08T11:03:03.000Z</time>
      </trkpt>
      <trkpt lat="42.93459" lon="0.9407">
        <ele>643</ele>
        <time>2019-08-08T11:03:04.000Z</time>
      </trkpt>
      <trkpt lat="42.93465" lon="0.94083">
        <ele>642</ele>
        <time>2019-08-08T11:03:05.000Z</time>
      </trkpt>
      <trkpt lat="42.93471" lon="0.94096">
        <ele>642</ele>
        <time>2019-08-08T11:03:06.000Z</time>
      </trkpt>
      <trkpt lat="42.93477" lon="0.94109">
        <ele>640</ele>
        <time>2019-08-08T11:03:07.000Z</time>
      </trkpt>
      <trkpt lat="42.93484" lon="0.9412">
        <ele>640</ele>
        <time>2019-08-08T11:03:08.000Z</time>
      </trkpt>
      <trkpt lat="42.93493" lon="0.94129">
        <ele>639</ele>
        <time>2019-08-08T11:03:09.000Z</time>
      </trkpt>
      <trkpt lat="42.93509" lon="0.94135">
        <ele>639</ele>
        <time>2019-08-08T11:03:10.000Z</time>
      </trkpt>
      <trkpt lat="42.93515" lon="0.94136">
        <ele>639</ele>
        <time>2019-08-08T11:03:11.000Z</time>
      </trkpt>
      <trkpt lat="42.93527" lon="0.94138">
        <ele>638</ele>
        <time>2019-08-08T11:03:12.000Z</time>
      </trkpt>
      <trkpt lat="42.93539" lon="0.94139">
        <ele>638</ele>
        <time>2019-08-08T11:03:13.000Z</time>
      </trkpt>
      <trkpt lat="42.93551" lon="0.94139">
        <ele>637</ele>
        <time>2019-08-08T11:03:14.000Z</time>
      </trkpt>
      <trkpt lat="42.93562" lon="0.94137">
        <ele>637</ele>
        <time>2019-08-08T11:03:15.000Z</time>
      </trkpt>
      <trkpt lat="42.93574" lon="0.94135">
        <ele>635</ele>
        <time>2019-08-08T11:03:16.000Z</time>
      </trkpt>
      <trkpt lat="42.93587" lon="0.94134">
        <ele>635</ele>
        <time>2019-08-08T11:03:17.000Z</time>
      </trkpt>
      <trkpt lat="42.93598" lon="0.94137">
        <ele>634</ele>
        <time>2019-08-08T11:03:18.000Z</time>
      </trkpt>
      <trkpt lat="42.93608" lon="0.94145">
        <ele>634</ele>
        <time>2019-08-08T11:03:19.000Z</time>
      </trkpt>
      <trkpt lat="42.93613" lon="0.94157">
        <ele>632</ele>
        <time>2019-08-08T11:03:20.000Z</time>
      </trkpt>
      <trkpt lat="42.93615" lon="0.94171">
        <ele>632</ele>
        <time>2019-08-08T11:03:21.000Z</time>
      </trkpt>
      <trkpt lat="42.93613" lon="0.94185">
        <ele>631</ele>
        <time>2019-08-08T11:03:22.000Z</time>
      </trkpt>
      <trkpt lat="42.93609" lon="0.94197">
        <ele>631</ele>
        <time>2019-08-08T11:03:23.000Z</time>
      </trkpt>
      <trkpt lat="42.936" lon="0.94215">
        <ele>632</ele>
        <time>2019-08-08T11:03:24.000Z</time>
      </trkpt>
      <trkpt lat="42.93598" lon="0.94221">
        <ele>632</ele>
        <time>2019-08-08T11:03:25.000Z</time>
      </trkpt>
      <trkpt lat="42.93592" lon="0.94233">
        <ele>632</ele>
        <time>2019-08-08T11:03:26.000Z</time>
      </trkpt>
      <trkpt lat="42.93586" lon="0.94245">
        <ele>630</ele>
        <time>2019-08-08T11:03:27.000Z</time>
      </trkpt>
      <trkpt lat="42.93578" lon="0.94264">
        <ele>630</ele>
        <time>2019-08-08T11:03:28.000Z</time>
      </trkpt>
      <trkpt lat="42.93575" lon="0.9427">
        <ele>630</ele>
        <time>2019-08-08T11:03:29.000Z</time>
      </trkpt>
      <trkpt lat="42.9357" lon="0.94283">
        <ele>629</ele>
        <time>2019-08-08T11:03:30.000Z</time>
      </trkpt>
      <trkpt lat="42.93564" lon="0.94295">
        <ele>629</ele>
        <time>2019-08-08T11:03:31.000Z</time>
      </trkpt>
      <trkpt lat="42.93558" lon="0.94307">
        <ele>628</ele>
        <time>2019-08-08T11:03:32.000Z</time>
      </trkpt>
      <trkpt lat="42.93552" lon="0.94319">
        <ele>628</ele>
        <time>2019-08-08T11:03:33.000Z</time>
      </trkpt>
      <trkpt lat="42.93546" lon="0.94331">
        <ele>628</ele>
        <time>2019-08-08T11:03:34.000Z</time>
      </trkpt>
      <trkpt lat="42.93541" lon="0.94343">
        <ele>628</ele>
        <time>2019-08-08T11:03:35.000Z</time>
      </trkpt>
      <trkpt lat="42.93535" lon="0.94356">
        <ele>628</ele>
        <time>2019-08-08T11:03:36.000Z</time>
      </trkpt>
      <trkpt lat="42.93531" lon="0.94369">
        <ele>628</ele>
        <time>2019-08-08T11:03:37.000Z</time>
      </trkpt>
      <trkpt lat="42.93527" lon="0.94382">
        <ele>627</ele>
        <time>2019-08-08T11:03:38.000Z</time>
      </trkpt>
      <trkpt lat="42.93523" lon="0.94396">
        <ele>627</ele>
        <time>2019-08-08T11:03:39.000Z</time>
      </trkpt>
      <trkpt lat="42.93521" lon="0.9441">
        <ele>626</ele>
        <time>2019-08-08T11:03:40.000Z</time>
      </trkpt>
      <trkpt lat="42.9352" lon="0.94424">
        <ele>626</ele>
        <time>2019-08-08T11:03:41.000Z</time>
      </trkpt>
      <trkpt lat="42.93519" lon="0.94438">
        <ele>625</ele>
        <time>2019-08-08T11:03:42.000Z</time>
      </trkpt>
      <trkpt lat="42.9352" lon="0.94453">
        <ele>625</ele>
        <time>2019-08-08T11:03:43.000Z</time>
      </trkpt>
      <trkpt lat="42.93523" lon="0.94468">
        <ele>624</ele>
        <time>2019-08-08T11:03:44.000Z</time>
      </trkpt>
      <trkpt lat="42.93525" lon="0.94482">
        <ele>624</ele>
        <time>2019-08-08T11:03:45.000Z</time>
      </trkpt>
      <trkpt lat="42.93527" lon="0.94497">
        <ele>623</ele>
        <time>2019-08-08T11:03:46.000Z</time>
      </trkpt>
      <trkpt lat="42.93528" lon="0.94512">
        <ele>623</ele>
        <time>2019-08-08T11:03:47.000Z</time>
      </trkpt>
      <trkpt lat="42.9353" lon="0.94526">
        <ele>622</ele>
        <time>2019-08-08T11:03:48.000Z</time>
      </trkpt>
      <trkpt lat="42.93532" lon="0.94541">
        <ele>622</ele>
        <time>2019-08-08T11:03:49.000Z</time>
      </trkpt>
      <trkpt lat="42.93533" lon="0.94556">
        <ele>621</ele>
        <time>2019-08-08T11:03:50.000Z</time>
      </trkpt>
      <trkpt lat="42.93535" lon="0.9457">
        <ele>621</ele>
        <time>2019-08-08T11:03:51.000Z</time>
      </trkpt>
      <trkpt lat="42.93538" lon="0.94584">
        <ele>620</ele>
        <time>2019-08-08T11:03:52.000Z</time>
      </trkpt>
      <trkpt lat="42.93541" lon="0.94599">
        <ele>620</ele>
        <time>2019-08-08T11:03:53.000Z</time>
      </trkpt>
      <trkpt lat="42.93545" lon="0.94612">
        <ele>620</ele>
        <time>2019-08-08T11:03:54.000Z</time>
      </trkpt>
      <trkpt lat="42.9355" lon="0.94626">
        <ele>620</ele>
        <time>2019-08-08T11:03:55.000Z</time>
      </trkpt>
      <trkpt lat="42.93555" lon="0.94639">
        <ele>619</ele>
        <time>2019-08-08T11:03:56.000Z</time>
      </trkpt>
      <trkpt lat="42.93562" lon="0.94651">
        <ele>619</ele>
        <time>2019-08-08T11:03:57.000Z</time>
      </trkpt>
      <trkpt lat="42.93568" lon="0.94662">
        <ele>617</ele>
        <time>2019-08-08T11:03:58.000Z</time>
      </trkpt>
      <trkpt lat="42.93576" lon="0.94674">
        <ele>617</ele>
        <time>2019-08-08T11:03:59.000Z</time>
      </trkpt>
      <trkpt lat="42.93588" lon="0.94689">
        <ele>617</ele>
        <time>2019-08-08T11:04:00.000Z</time>
      </trkpt>
      <trkpt lat="42.93593" lon="0.94693">
        <ele>616.4</ele>
        <time>2019-08-08T11:04:01.000Z</time>
      </trkpt>
      <trkpt lat="42.93601" lon="0.94702">
        <ele>616</ele>
        <time>2019-08-08T11:04:02.000Z</time>
      </trkpt>
      <trkpt lat="42.9361" lon="0.9471">
        <ele>614</ele>
        <time>2019-08-08T11:04:03.000Z</time>
      </trkpt>
      <trkpt lat="42.9362" lon="0.94718">
        <ele>614</ele>
        <time>2019-08-08T11:04:04.000Z</time>
      </trkpt>
      <trkpt lat="42.9363" lon="0.94725">
        <ele>613</ele>
        <time>2019-08-08T11:04:05.000Z</time>
      </trkpt>
      <trkpt lat="42.9364" lon="0.94732">
        <ele>613</ele>
        <time>2019-08-08T11:04:06.000Z</time>
      </trkpt>
      <trkpt lat="42.93649" lon="0.94738">
        <ele>611</ele>
        <time>2019-08-08T11:04:07.000Z</time>
      </trkpt>
      <trkpt lat="42.93659" lon="0.94745">
        <ele>611</ele>
        <time>2019-08-08T11:04:08.000Z</time>
      </trkpt>
      <trkpt lat="42.93669" lon="0.94752">
        <ele>610</ele>
        <time>2019-08-08T11:04:09.000Z</time>
      </trkpt>
      <trkpt lat="42.93678" lon="0.9476">
        <ele>610</ele>
        <time>2019-08-08T11:04:10.000Z</time>
      </trkpt>
      <trkpt lat="42.93688" lon="0.9477">
        <ele>609</ele>
        <time>2019-08-08T11:04:11.000Z</time>
      </trkpt>
      <trkpt lat="42.93697" lon="0.94781">
        <ele>609</ele>
        <time>2019-08-08T11:04:12.000Z</time>
      </trkpt>
      <trkpt lat="42.93705" lon="0.94793">
        <ele>608</ele>
        <time>2019-08-08T11:04:13.000Z</time>
      </trkpt>
      <trkpt lat="42.93712" lon="0.94807">
        <ele>608</ele>
        <time>2019-08-08T11:04:14.000Z</time>
      </trkpt>
      <trkpt lat="42.93716" lon="0.94822">
        <ele>606</ele>
        <time>2019-08-08T11:04:15.000Z</time>
      </trkpt>
      <trkpt lat="42.93719" lon="0.94839">
        <ele>606</ele>
        <time>2019-08-08T11:04:16.000Z</time>
      </trkpt>
      <trkpt lat="42.93722" lon="0.94856">
        <ele>604</ele>
        <time>2019-08-08T11:04:17.000Z</time>
      </trkpt>
      <trkpt lat="42.93725" lon="0.94873">
        <ele>604</ele>
        <time>2019-08-08T11:04:18.000Z</time>
      </trkpt>
      <trkpt lat="42.93728" lon="0.9489">
        <ele>601</ele>
        <time>2019-08-08T11:04:19.000Z</time>
      </trkpt>
      <trkpt lat="42.9373" lon="0.94908">
        <ele>601</ele>
        <time>2019-08-08T11:04:20.000Z</time>
      </trkpt>
      <trkpt lat="42.93733" lon="0.94925">
        <ele>599</ele>
        <time>2019-08-08T11:04:21.000Z</time>
      </trkpt>
      <trkpt lat="42.93735" lon="0.94942">
        <ele>599</ele>
        <time>2019-08-08T11:04:22.000Z</time>
      </trkpt>
      <trkpt lat="42.93738" lon="0.94959">
        <ele>598</ele>
        <time>2019-08-08T11:04:23.000Z</time>
      </trkpt>
      <trkpt lat="42.9374" lon="0.94976">
        <ele>598</ele>
        <time>2019-08-08T11:04:24.000Z</time>
      </trkpt>
      <trkpt lat="42.93743" lon="0.95001">
        <ele>596</ele>
        <time>2019-08-08T11:04:25.000Z</time>
      </trkpt>
      <trkpt lat="42.93744" lon="0.9501">
        <ele>596</ele>
        <time>2019-08-08T11:04:26.000Z</time>
      </trkpt>
      <trkpt lat="42.93745" lon="0.95026">
        <ele>596</ele>
        <time>2019-08-08T11:04:27.000Z</time>
      </trkpt>
      <trkpt lat="42.93745" lon="0.95044">
        <ele>594</ele>
        <time>2019-08-08T11:04:28.000Z</time>
      </trkpt>
      <trkpt lat="42.93744" lon="0.95061">
        <ele>594</ele>
        <time>2019-08-08T11:04:29.000Z</time>
      </trkpt>
      <trkpt lat="42.93743" lon="0.95078">
        <ele>593</ele>
        <time>2019-08-08T11:04:30.000Z</time>
      </trkpt>
      <trkpt lat="42.93744" lon="0.95095">
        <ele>593</ele>
        <time>2019-08-08T11:04:31.000Z</time>
      </trkpt>
      <trkpt lat="42.93746" lon="0.95112">
        <ele>590</ele>
        <time>2019-08-08T11:04:32.000Z</time>
      </trkpt>
      <trkpt lat="42.9375" lon="0.95128">
        <ele>590</ele>
        <time>2019-08-08T11:04:33.000Z</time>
      </trkpt>
      <trkpt lat="42.93756" lon="0.95143">
        <ele>589</ele>
        <time>2019-08-08T11:04:34.000Z</time>
      </trkpt>
      <trkpt lat="42.93763" lon="0.95157">
        <ele>589</ele>
        <time>2019-08-08T11:04:35.000Z</time>
      </trkpt>
      <trkpt lat="42.93771" lon="0.95171">
        <ele>589</ele>
        <time>2019-08-08T11:04:36.000Z</time>
      </trkpt>
      <trkpt lat="42.93777" lon="0.95186">
        <ele>587</ele>
        <time>2019-08-08T11:04:37.000Z</time>
      </trkpt>
      <trkpt lat="42.93782" lon="0.95201">
        <ele>587</ele>
        <time>2019-08-08T11:04:38.000Z</time>
      </trkpt>
      <trkpt lat="42.93787" lon="0.95216">
        <ele>586</ele>
        <time>2019-08-08T11:04:39.000Z</time>
      </trkpt>
      <trkpt lat="42.9379" lon="0.95231">
        <ele>586</ele>
        <time>2019-08-08T11:04:40.000Z</time>
      </trkpt>
      <trkpt lat="42.93792" lon="0.95247">
        <ele>586</ele>
        <time>2019-08-08T11:04:41.000Z</time>
      </trkpt>
      <trkpt lat="42.93794" lon="0.95263">
        <ele>586</ele>
        <time>2019-08-08T11:04:42.000Z</time>
      </trkpt>
      <trkpt lat="42.93793" lon="0.95279">
        <ele>585</ele>
        <time>2019-08-08T11:04:43.000Z</time>
      </trkpt>
      <trkpt lat="42.93792" lon="0.95295">
        <ele>585</ele>
        <time>2019-08-08T11:04:44.000Z</time>
      </trkpt>
      <trkpt lat="42.93789" lon="0.95309">
        <ele>585</ele>
        <time>2019-08-08T11:04:45.000Z</time>
      </trkpt>
      <trkpt lat="42.93785" lon="0.95323">
        <ele>584</ele>
        <time>2019-08-08T11:04:46.000Z</time>
      </trkpt>
      <trkpt lat="42.93779" lon="0.95336">
        <ele>584</ele>
        <time>2019-08-08T11:04:47.000Z</time>
      </trkpt>
      <trkpt lat="42.93772" lon="0.95347">
        <ele>584</ele>
        <time>2019-08-08T11:04:48.000Z</time>
      </trkpt>
      <trkpt lat="42.93764" lon="0.95357">
        <ele>584</ele>
        <time>2019-08-08T11:04:49.000Z</time>
      </trkpt>
      <trkpt lat="42.93753" lon="0.95372">
        <ele>584</ele>
        <time>2019-08-08T11:04:50.000Z</time>
      </trkpt>
      <trkpt lat="42.93749" lon="0.95376">
        <ele>584</ele>
        <time>2019-08-08T11:04:51.000Z</time>
      </trkpt>
      <trkpt lat="42.93742" lon="0.95386">
        <ele>584</ele>
        <time>2019-08-08T11:04:52.000Z</time>
      </trkpt>
      <trkpt lat="42.93735" lon="0.95395">
        <ele>584</ele>
        <time>2019-08-08T11:04:53.000Z</time>
      </trkpt>
      <trkpt lat="42.93729" lon="0.95405">
        <ele>584</ele>
        <time>2019-08-08T11:04:54.000Z</time>
      </trkpt>
      <trkpt lat="42.93723" lon="0.95415">
        <ele>584</ele>
        <time>2019-08-08T11:04:55.000Z</time>
      </trkpt>
      <trkpt lat="42.93718" lon="0.95425">
        <ele>584</ele>
        <time>2019-08-08T11:04:56.000Z</time>
      </trkpt>
      <trkpt lat="42.93713" lon="0.95435">
        <ele>584</ele>
        <time>2019-08-08T11:04:57.000Z</time>
      </trkpt>
      <trkpt lat="42.93707" lon="0.95444">
        <ele>584</ele>
        <time>2019-08-08T11:04:58.000Z</time>
      </trkpt>
      <trkpt lat="42.93702" lon="0.95454">
        <ele>584</ele>
        <time>2019-08-08T11:04:59.000Z</time>
      </trkpt>
      <trkpt lat="42.93697" lon="0.95464">
        <ele>584</ele>
        <time>2019-08-08T11:05:00.000Z</time>
      </trkpt>
      <trkpt lat="42.93693" lon="0.95473">
        <ele>584</ele>
        <time>2019-08-08T11:05:01.000Z</time>
      </trkpt>
      <trkpt lat="42.93685" lon="0.95487">
        <ele>584</ele>
        <time>2019-08-08T11:05:02.000Z</time>
      </trkpt>
      <trkpt lat="42.93683" lon="0.95491">
        <ele>584</ele>
        <time>2019-08-08T11:05:03.000Z</time>
      </trkpt>
      <trkpt lat="42.93679" lon="0.955">
        <ele>584</ele>
        <time>2019-08-08T11:05:04.000Z</time>
      </trkpt>
      <trkpt lat="42.93675" lon="0.95509">
        <ele>585</ele>
        <time>2019-08-08T11:05:05.000Z</time>
      </trkpt>
      <trkpt lat="42.93671" lon="0.95518">
        <ele>585</ele>
        <time>2019-08-08T11:05:06.000Z</time>
      </trkpt>
      <trkpt lat="42.93668" lon="0.95528">
        <ele>585</ele>
        <time>2019-08-08T11:05:07.000Z</time>
      </trkpt>
      <trkpt lat="42.93665" lon="0.95538">
        <ele>585</ele>
        <time>2019-08-08T11:05:08.000Z</time>
      </trkpt>
      <trkpt lat="42.93662" lon="0.95547">
        <ele>586</ele>
        <time>2019-08-08T11:05:09.000Z</time>
      </trkpt>
      <trkpt lat="42.93661" lon="0.95558">
        <ele>586</ele>
        <time>2019-08-08T11:05:10.000Z</time>
      </trkpt>
      <trkpt lat="42.9366" lon="0.95568">
        <ele>586</ele>
        <time>2019-08-08T11:05:11.000Z</time>
      </trkpt>
      <trkpt lat="42.9366" lon="0.95578">
        <ele>586</ele>
        <time>2019-08-08T11:05:12.000Z</time>
      </trkpt>
      <trkpt lat="42.93661" lon="0.95588">
        <ele>586</ele>
        <time>2019-08-08T11:05:13.000Z</time>
      </trkpt>
      <trkpt lat="42.93663" lon="0.95598">
        <ele>586</ele>
        <time>2019-08-08T11:05:14.000Z</time>
      </trkpt>
      <trkpt lat="42.93665" lon="0.95608">
        <ele>585</ele>
        <time>2019-08-08T11:05:15.000Z</time>
      </trkpt>
      <trkpt lat="42.93668" lon="0.95618">
        <ele>585</ele>
        <time>2019-08-08T11:05:16.000Z</time>
      </trkpt>
      <trkpt lat="42.93672" lon="0.95628">
        <ele>585</ele>
        <time>2019-08-08T11:05:17.000Z</time>
      </trkpt>
      <trkpt lat="42.93676" lon="0.95637">
        <ele>585</ele>
        <time>2019-08-08T11:05:18.000Z</time>
      </trkpt>
      <trkpt lat="42.9368" lon="0.95646">
        <ele>585</ele>
        <time>2019-08-08T11:05:19.000Z</time>
      </trkpt>
      <trkpt lat="42.93685" lon="0.95655">
        <ele>585</ele>
        <time>2019-08-08T11:05:20.000Z</time>
      </trkpt>
      <trkpt lat="42.93692" lon="0.95668">
        <ele>585</ele>
        <time>2019-08-08T11:05:21.000Z</time>
      </trkpt>
      <trkpt lat="42.93695" lon="0.95672">
        <ele>585</ele>
        <time>2019-08-08T11:05:22.000Z</time>
      </trkpt>
      <trkpt lat="42.93699" lon="0.95681">
        <ele>585</ele>
        <time>2019-08-08T11:05:23.000Z</time>
      </trkpt>
      <trkpt lat="42.93704" lon="0.9569">
        <ele>584</ele>
        <time>2019-08-08T11:05:24.000Z</time>
      </trkpt>
      <trkpt lat="42.93708" lon="0.957">
        <ele>584</ele>
        <time>2019-08-08T11:05:25.000Z</time>
      </trkpt>
      <trkpt lat="42.93712" lon="0.9571">
        <ele>584</ele>
        <time>2019-08-08T11:05:26.000Z</time>
      </trkpt>
      <trkpt lat="42.93715" lon="0.9572">
        <ele>584</ele>
        <time>2019-08-08T11:05:27.000Z</time>
      </trkpt>
      <trkpt lat="42.93718" lon="0.9573">
        <ele>584</ele>
        <time>2019-08-08T11:05:28.000Z</time>
      </trkpt>
      <trkpt lat="42.9372" lon="0.95741">
        <ele>584</ele>
        <time>2019-08-08T11:05:29.000Z</time>
      </trkpt>
      <trkpt lat="42.93722" lon="0.9575">
        <ele>584</ele>
        <time>2019-08-08T11:05:30.000Z</time>
      </trkpt>
      <trkpt lat="42.93723" lon="0.95761">
        <ele>583</ele>
        <time>2019-08-08T11:05:31.000Z</time>
      </trkpt>
      <trkpt lat="42.93724" lon="0.95773">
        <ele>583</ele>
        <time>2019-08-08T11:05:32.000Z</time>
      </trkpt>
      <trkpt lat="42.93724" lon="0.95785">
        <ele>582</ele>
        <time>2019-08-08T11:05:33.000Z</time>
      </trkpt>
      <trkpt lat="42.93725" lon="0.95797">
        <ele>582</ele>
        <time>2019-08-08T11:05:34.000Z</time>
      </trkpt>
      <trkpt lat="42.93725" lon="0.9581">
        <ele>581</ele>
        <time>2019-08-08T11:05:35.000Z</time>
      </trkpt>
      <trkpt lat="42.93724" lon="0.95822">
        <ele>581</ele>
        <time>2019-08-08T11:05:36.000Z</time>
      </trkpt>
      <trkpt lat="42.93723" lon="0.95834">
        <ele>580</ele>
        <time>2019-08-08T11:05:37.000Z</time>
      </trkpt>
      <trkpt lat="42.93723" lon="0.95846">
        <ele>580</ele>
        <time>2019-08-08T11:05:38.000Z</time>
      </trkpt>
      <trkpt lat="42.93722" lon="0.95858">
        <ele>580</ele>
        <time>2019-08-08T11:05:39.000Z</time>
      </trkpt>
      <trkpt lat="42.93721" lon="0.95871">
        <ele>580</ele>
        <time>2019-08-08T11:05:40.000Z</time>
      </trkpt>
      <trkpt lat="42.93719" lon="0.95889">
        <ele>580</ele>
        <time>2019-08-08T11:05:41.000Z</time>
      </trkpt>
      <trkpt lat="42.93719" lon="0.95895">
        <ele>580</ele>
        <time>2019-08-08T11:05:42.000Z</time>
      </trkpt>
      <trkpt lat="42.93719" lon="0.95908">
        <ele>580</ele>
        <time>2019-08-08T11:05:43.000Z</time>
      </trkpt>
      <trkpt lat="42.93718" lon="0.95921">
        <ele>580</ele>
        <time>2019-08-08T11:05:44.000Z</time>
      </trkpt>
      <trkpt lat="42.93718" lon="0.95934">
        <ele>579</ele>
        <time>2019-08-08T11:05:45.000Z</time>
      </trkpt>
      <trkpt lat="42.93718" lon="0.95947">
        <ele>579</ele>
        <time>2019-08-08T11:05:46.000Z</time>
      </trkpt>
      <trkpt lat="42.93718" lon="0.9596">
        <ele>578</ele>
        <time>2019-08-08T11:05:47.000Z</time>
      </trkpt>
      <trkpt lat="42.93718" lon="0.95973">
        <ele>578</ele>
        <time>2019-08-08T11:05:48.000Z</time>
      </trkpt>
      <trkpt lat="42.93718" lon="0.95986">
        <ele>577</ele>
        <time>2019-08-08T11:05:49.000Z</time>
      </trkpt>
      <trkpt lat="42.93718" lon="0.96">
        <ele>577</ele>
        <time>2019-08-08T11:05:50.000Z</time>
      </trkpt>
      <trkpt lat="42.93718" lon="0.96013">
        <ele>575</ele>
        <time>2019-08-08T11:05:51.000Z</time>
      </trkpt>
      <trkpt lat="42.93718" lon="0.96026">
        <ele>575</ele>
        <time>2019-08-08T11:05:52.000Z</time>
      </trkpt>
      <trkpt lat="42.93718" lon="0.96039">
        <ele>574</ele>
        <time>2019-08-08T11:05:53.000Z</time>
      </trkpt>
      <trkpt lat="42.93718" lon="0.96052">
        <ele>574</ele>
        <time>2019-08-08T11:05:54.000Z</time>
      </trkpt>
      <trkpt lat="42.93718" lon="0.96065">
        <ele>574</ele>
        <time>2019-08-08T11:05:55.000Z</time>
      </trkpt>
      <trkpt lat="42.93718" lon="0.96079">
        <ele>574</ele>
        <time>2019-08-08T11:05:56.000Z</time>
      </trkpt>
      <trkpt lat="42.93718" lon="0.96092">
        <ele>574</ele>
        <time>2019-08-08T11:05:57.000Z</time>
      </trkpt>
      <trkpt lat="42.93718" lon="0.96105">
        <ele>574</ele>
        <time>2019-08-08T11:05:58.000Z</time>
      </trkpt>
      <trkpt lat="42.93718" lon="0.96119">
        <ele>573</ele>
        <time>2019-08-08T11:05:59.000Z</time>
      </trkpt>
      <trkpt lat="42.93718" lon="0.96132">
        <ele>573</ele>
        <time>2019-08-08T11:06:00.000Z</time>
      </trkpt>
      <trkpt lat="42.93717" lon="0.96145">
        <ele>573</ele>
        <time>2019-08-08T11:06:01.000Z</time>
      </trkpt>
      <trkpt lat="42.93716" lon="0.96159">
        <ele>573</ele>
        <time>2019-08-08T11:06:02.000Z</time>
      </trkpt>
      <trkpt lat="42.93715" lon="0.96172">
        <ele>573</ele>
        <time>2019-08-08T11:06:03.000Z</time>
      </trkpt>
      <trkpt lat="42.93712" lon="0.96184">
        <ele>572</ele>
        <time>2019-08-08T11:06:04.000Z</time>
      </trkpt>
      <trkpt lat="42.93709" lon="0.96197">
        <ele>572</ele>
        <time>2019-08-08T11:06:05.000Z</time>
      </trkpt>
      <trkpt lat="42.93704" lon="0.96209">
        <ele>571</ele>
        <time>2019-08-08T11:06:06.000Z</time>
      </trkpt>
      <trkpt lat="42.93699" lon="0.9622">
        <ele>571</ele>
        <time>2019-08-08T11:06:07.000Z</time>
      </trkpt>
      <trkpt lat="42.93692" lon="0.9623">
        <ele>571</ele>
        <time>2019-08-08T11:06:08.000Z</time>
      </trkpt>
      <trkpt lat="42.93685" lon="0.96239">
        <ele>571</ele>
        <time>2019-08-08T11:06:09.000Z</time>
      </trkpt>
      <trkpt lat="42.93678" lon="0.96248">
        <ele>571</ele>
        <time>2019-08-08T11:06:10.000Z</time>
      </trkpt>
      <trkpt lat="42.9367" lon="0.96254">
        <ele>571</ele>
        <time>2019-08-08T11:06:11.000Z</time>
      </trkpt>
      <trkpt lat="42.93662" lon="0.96261">
        <ele>571</ele>
        <time>2019-08-08T11:06:12.000Z</time>
      </trkpt>
      <trkpt lat="42.93653" lon="0.96267">
        <ele>571</ele>
        <time>2019-08-08T11:06:13.000Z</time>
      </trkpt>
      <trkpt lat="42.93645" lon="0.96273">
        <ele>571</ele>
        <time>2019-08-08T11:06:14.000Z</time>
      </trkpt>
      <trkpt lat="42.93637" lon="0.96278">
        <ele>571</ele>
        <time>2019-08-08T11:06:15.000Z</time>
      </trkpt>
      <trkpt lat="42.93629" lon="0.96283">
        <ele>571</ele>
        <time>2019-08-08T11:06:16.000Z</time>
      </trkpt>
      <trkpt lat="42.93622" lon="0.96289">
        <ele>571</ele>
        <time>2019-08-08T11:06:17.000Z</time>
      </trkpt>
      <trkpt lat="42.93618" lon="0.96298">
        <ele>572</ele>
        <time>2019-08-08T11:06:18.000Z</time>
      </trkpt>
      <trkpt lat="42.93618" lon="0.96308">
        <ele>572</ele>
        <time>2019-08-08T11:06:19.000Z</time>
      </trkpt>
      <trkpt lat="42.93623" lon="0.96316">
        <ele>572</ele>
        <time>2019-08-08T11:06:20.000Z</time>
      </trkpt>
      <trkpt lat="42.93629" lon="0.96323">
        <ele>572</ele>
        <time>2019-08-08T11:06:21.000Z</time>
      </trkpt>
      <trkpt lat="42.93635" lon="0.96329">
        <ele>572</ele>
        <time>2019-08-08T11:06:22.000Z</time>
      </trkpt>
      <trkpt lat="42.93641" lon="0.96337">
        <ele>572</ele>
        <time>2019-08-08T11:06:23.000Z</time>
      </trkpt>
      <trkpt lat="42.93646" lon="0.96345">
        <ele>572</ele>
        <time>2019-08-08T11:06:24.000Z</time>
      </trkpt>
      <trkpt lat="42.93651" lon="0.96353">
        <ele>572</ele>
        <time>2019-08-08T11:06:25.000Z</time>
      </trkpt>
      <trkpt lat="42.93655" lon="0.96362">
        <ele>572</ele>
        <time>2019-08-08T11:06:26.000Z</time>
      </trkpt>
      <trkpt lat="42.93659" lon="0.96371">
        <ele>572</ele>
        <time>2019-08-08T11:06:27.000Z</time>
      </trkpt>
      <trkpt lat="42.93663" lon="0.96381">
        <ele>572</ele>
        <time>2019-08-08T11:06:28.000Z</time>
      </trkpt>
      <trkpt lat="42.93667" lon="0.9639">
        <ele>572</ele>
        <time>2019-08-08T11:06:29.000Z</time>
      </trkpt>
      <trkpt lat="42.9367" lon="0.96401">
        <ele>571</ele>
        <time>2019-08-08T11:06:30.000Z</time>
      </trkpt>
      <trkpt lat="42.93672" lon="0.96411">
        <ele>571</ele>
        <time>2019-08-08T11:06:31.000Z</time>
      </trkpt>
      <trkpt lat="42.93675" lon="0.96422">
        <ele>571</ele>
        <time>2019-08-08T11:06:32.000Z</time>
      </trkpt>
      <trkpt lat="42.93677" lon="0.96433">
        <ele>571</ele>
        <time>2019-08-08T11:06:33.000Z</time>
      </trkpt>
      <trkpt lat="42.93679" lon="0.96443">
        <ele>571</ele>
        <time>2019-08-08T11:06:34.000Z</time>
      </trkpt>
      <trkpt lat="42.93681" lon="0.96454">
        <ele>571</ele>
        <time>2019-08-08T11:06:35.000Z</time>
      </trkpt>
      <trkpt lat="42.93683" lon="0.96464">
        <ele>571</ele>
        <time>2019-08-08T11:06:36.000Z</time>
      </trkpt>
      <trkpt lat="42.93685" lon="0.96475">
        <ele>571</ele>
        <time>2019-08-08T11:06:37.000Z</time>
      </trkpt>
      <trkpt lat="42.93686" lon="0.96486">
        <ele>570</ele>
        <time>2019-08-08T11:06:38.000Z</time>
      </trkpt>
      <trkpt lat="42.93688" lon="0.96496">
        <ele>570</ele>
        <time>2019-08-08T11:06:39.000Z</time>
      </trkpt>
      <trkpt lat="42.9369" lon="0.96506">
        <ele>570</ele>
        <time>2019-08-08T11:06:40.000Z</time>
      </trkpt>
      <trkpt lat="42.93691" lon="0.96517">
        <ele>570</ele>
        <time>2019-08-08T11:06:41.000Z</time>
      </trkpt>
      <trkpt lat="42.93693" lon="0.96528">
        <ele>570</ele>
        <time>2019-08-08T11:06:42.000Z</time>
      </trkpt>
      <trkpt lat="42.93693" lon="0.96538">
        <ele>571</ele>
        <time>2019-08-08T11:06:43.000Z</time>
      </trkpt>
      <trkpt lat="42.93694" lon="0.96549">
        <ele>571</ele>
        <time>2019-08-08T11:06:44.000Z</time>
      </trkpt>
      <trkpt lat="42.93695" lon="0.9656">
        <ele>571</ele>
        <time>2019-08-08T11:06:45.000Z</time>
      </trkpt>
      <trkpt lat="42.93695" lon="0.96571">
        <ele>571</ele>
        <time>2019-08-08T11:06:46.000Z</time>
      </trkpt>
      <trkpt lat="42.93696" lon="0.96587">
        <ele>571</ele>
        <time>2019-08-08T11:06:47.000Z</time>
      </trkpt>
      <trkpt lat="42.93697" lon="0.96592">
        <ele>571</ele>
        <time>2019-08-08T11:06:48.000Z</time>
      </trkpt>
      <trkpt lat="42.93697" lon="0.96603">
        <ele>571</ele>
        <time>2019-08-08T11:06:49.000Z</time>
      </trkpt>
      <trkpt lat="42.93697" lon="0.96613">
        <ele>570</ele>
        <time>2019-08-08T11:06:50.000Z</time>
      </trkpt>
      <trkpt lat="42.93697" lon="0.96623">
        <ele>570</ele>
        <time>2019-08-08T11:06:51.000Z</time>
      </trkpt>
      <trkpt lat="42.93698" lon="0.96633">
        <ele>570</ele>
        <time>2019-08-08T11:06:52.000Z</time>
      </trkpt>
      <trkpt lat="42.93699" lon="0.96643">
        <ele>570</ele>
        <time>2019-08-08T11:06:53.000Z</time>
      </trkpt>
      <trkpt lat="42.937" lon="0.96654">
        <ele>570</ele>
        <time>2019-08-08T11:06:54.000Z</time>
      </trkpt>
      <trkpt lat="42.937" lon="0.96664">
        <ele>570</ele>
        <time>2019-08-08T11:06:55.000Z</time>
      </trkpt>
      <trkpt lat="42.93701" lon="0.96675">
        <ele>570</ele>
        <time>2019-08-08T11:06:56.000Z</time>
      </trkpt>
      <trkpt lat="42.93702" lon="0.96687">
        <ele>570</ele>
        <time>2019-08-08T11:06:57.000Z</time>
      </trkpt>
      <trkpt lat="42.93702" lon="0.96698">
        <ele>570</ele>
        <time>2019-08-08T11:06:58.000Z</time>
      </trkpt>
      <trkpt lat="42.93703" lon="0.9671">
        <ele>570</ele>
        <time>2019-08-08T11:06:59.000Z</time>
      </trkpt>
      <trkpt lat="42.93703" lon="0.96723">
        <ele>570</ele>
        <time>2019-08-08T11:07:00.000Z</time>
      </trkpt>
      <trkpt lat="42.93703" lon="0.96735">
        <ele>567</ele>
        <time>2019-08-08T11:07:01.000Z</time>
      </trkpt>
      <trkpt lat="42.93703" lon="0.96748">
        <ele>567</ele>
        <time>2019-08-08T11:07:02.000Z</time>
      </trkpt>
      <trkpt lat="42.93702" lon="0.96761">
        <ele>566</ele>
        <time>2019-08-08T11:07:03.000Z</time>
      </trkpt>
      <trkpt lat="42.937" lon="0.96773">
        <ele>566</ele>
        <time>2019-08-08T11:07:04.000Z</time>
      </trkpt>
      <trkpt lat="42.93697" lon="0.96786">
        <ele>565</ele>
        <time>2019-08-08T11:07:05.000Z</time>
      </trkpt>
      <trkpt lat="42.93695" lon="0.96799">
        <ele>565</ele>
        <time>2019-08-08T11:07:06.000Z</time>
      </trkpt>
      <trkpt lat="42.93692" lon="0.96812">
        <ele>564</ele>
        <time>2019-08-08T11:07:07.000Z</time>
      </trkpt>
      <trkpt lat="42.93689" lon="0.96825">
        <ele>564</ele>
        <time>2019-08-08T11:07:08.000Z</time>
      </trkpt>
      <trkpt lat="42.93687" lon="0.96837">
        <ele>563</ele>
        <time>2019-08-08T11:07:09.000Z</time>
      </trkpt>
      <trkpt lat="42.93684" lon="0.9685">
        <ele>563</ele>
        <time>2019-08-08T11:07:10.000Z</time>
      </trkpt>
      <trkpt lat="42.93681" lon="0.96863">
        <ele>563</ele>
        <time>2019-08-08T11:07:11.000Z</time>
      </trkpt>
      <trkpt lat="42.93678" lon="0.96876">
        <ele>563</ele>
        <time>2019-08-08T11:07:12.000Z</time>
      </trkpt>
      <trkpt lat="42.93675" lon="0.96889">
        <ele>563</ele>
        <time>2019-08-08T11:07:13.000Z</time>
      </trkpt>
      <trkpt lat="42.93673" lon="0.96902">
        <ele>563</ele>
        <time>2019-08-08T11:07:14.000Z</time>
      </trkpt>
      <trkpt lat="42.93669" lon="0.96922">
        <ele>563</ele>
        <time>2019-08-08T11:07:15.000Z</time>
      </trkpt>
      <trkpt lat="42.93667" lon="0.96929">
        <ele>562</ele>
        <time>2019-08-08T11:07:16.000Z</time>
      </trkpt>
      <trkpt lat="42.93665" lon="0.96942">
        <ele>562</ele>
        <time>2019-08-08T11:07:17.000Z</time>
      </trkpt>
      <trkpt lat="42.93662" lon="0.96954">
        <ele>562</ele>
        <time>2019-08-08T11:07:18.000Z</time>
      </trkpt>
      <trkpt lat="42.9366" lon="0.96967">
        <ele>562</ele>
        <time>2019-08-08T11:07:19.000Z</time>
      </trkpt>
      <trkpt lat="42.93658" lon="0.96979">
        <ele>562</ele>
        <time>2019-08-08T11:07:20.000Z</time>
      </trkpt>
      <trkpt lat="42.93655" lon="0.96992">
        <ele>562</ele>
        <time>2019-08-08T11:07:21.000Z</time>
      </trkpt>
      <trkpt lat="42.93653" lon="0.97005">
        <ele>562</ele>
        <time>2019-08-08T11:07:22.000Z</time>
      </trkpt>
      <trkpt lat="42.9365" lon="0.97017">
        <ele>562</ele>
        <time>2019-08-08T11:07:23.000Z</time>
      </trkpt>
      <trkpt lat="42.93648" lon="0.9703">
        <ele>562</ele>
        <time>2019-08-08T11:07:24.000Z</time>
      </trkpt>
      <trkpt lat="42.93645" lon="0.97042">
        <ele>562</ele>
        <time>2019-08-08T11:07:25.000Z</time>
      </trkpt>
      <trkpt lat="42.93643" lon="0.97054">
        <ele>561</ele>
        <time>2019-08-08T11:07:26.000Z</time>
      </trkpt>
      <trkpt lat="42.9364" lon="0.97066">
        <ele>561</ele>
        <time>2019-08-08T11:07:27.000Z</time>
      </trkpt>
      <trkpt lat="42.93638" lon="0.97079">
        <ele>560</ele>
        <time>2019-08-08T11:07:28.000Z</time>
      </trkpt>
      <trkpt lat="42.93635" lon="0.97091">
        <ele>560</ele>
        <time>2019-08-08T11:07:29.000Z</time>
      </trkpt>
      <trkpt lat="42.93633" lon="0.97103">
        <ele>560</ele>
        <time>2019-08-08T11:07:30.000Z</time>
      </trkpt>
      <trkpt lat="42.93631" lon="0.97115">
        <ele>560</ele>
        <time>2019-08-08T11:07:31.000Z</time>
      </trkpt>
      <trkpt lat="42.93628" lon="0.97127">
        <ele>560</ele>
        <time>2019-08-08T11:07:32.000Z</time>
      </trkpt>
      <trkpt lat="42.93626" lon="0.97139">
        <ele>560</ele>
        <time>2019-08-08T11:07:33.000Z</time>
      </trkpt>
      <trkpt lat="42.93623" lon="0.97151">
        <ele>560</ele>
        <time>2019-08-08T11:07:34.000Z</time>
      </trkpt>
      <trkpt lat="42.93621" lon="0.97162">
        <ele>560</ele>
        <time>2019-08-08T11:07:35.000Z</time>
      </trkpt>
      <trkpt lat="42.93619" lon="0.97174">
        <ele>560</ele>
        <time>2019-08-08T11:07:36.000Z</time>
      </trkpt>
      <trkpt lat="42.93617" lon="0.97186">
        <ele>560</ele>
        <time>2019-08-08T11:07:37.000Z</time>
      </trkpt>
      <trkpt lat="42.93614" lon="0.97198">
        <ele>560</ele>
        <time>2019-08-08T11:07:38.000Z</time>
      </trkpt>
      <trkpt lat="42.93612" lon="0.9721">
        <ele>560</ele>
        <time>2019-08-08T11:07:39.000Z</time>
      </trkpt>
      <trkpt lat="42.93609" lon="0.97222">
        <ele>559</ele>
        <time>2019-08-08T11:07:40.000Z</time>
      </trkpt>
      <trkpt lat="42.93607" lon="0.97233">
        <ele>559</ele>
        <time>2019-08-08T11:07:41.000Z</time>
      </trkpt>
      <trkpt lat="42.93604" lon="0.97245">
        <ele>558</ele>
        <time>2019-08-08T11:07:42.000Z</time>
      </trkpt>
      <trkpt lat="42.93602" lon="0.97257">
        <ele>558</ele>
        <time>2019-08-08T11:07:43.000Z</time>
      </trkpt>
      <trkpt lat="42.936" lon="0.97268">
        <ele>558</ele>
        <time>2019-08-08T11:07:44.000Z</time>
      </trkpt>
      <trkpt lat="42.93598" lon="0.9728">
        <ele>558</ele>
        <time>2019-08-08T11:07:45.000Z</time>
      </trkpt>
      <trkpt lat="42.93596" lon="0.97291">
        <ele>557</ele>
        <time>2019-08-08T11:07:46.000Z</time>
      </trkpt>
      <trkpt lat="42.93593" lon="0.97303">
        <ele>557</ele>
        <time>2019-08-08T11:07:47.000Z</time>
      </trkpt>
      <trkpt lat="42.93591" lon="0.97314">
        <ele>557</ele>
        <time>2019-08-08T11:07:48.000Z</time>
      </trkpt>
      <trkpt lat="42.93589" lon="0.97325">
        <ele>557</ele>
        <time>2019-08-08T11:07:49.000Z</time>
      </trkpt>
      <trkpt lat="42.93587" lon="0.97336">
        <ele>557</ele>
        <time>2019-08-08T11:07:50.000Z</time>
      </trkpt>
      <trkpt lat="42.93585" lon="0.97347">
        <ele>557</ele>
        <time>2019-08-08T11:07:51.000Z</time>
      </trkpt>
      <trkpt lat="42.93583" lon="0.97357">
        <ele>557</ele>
        <time>2019-08-08T11:07:52.000Z</time>
      </trkpt>
      <trkpt lat="42.93581" lon="0.97368">
        <ele>557</ele>
        <time>2019-08-08T11:07:53.000Z</time>
      </trkpt>
      <trkpt lat="42.93579" lon="0.97379">
        <ele>557</ele>
        <time>2019-08-08T11:07:54.000Z</time>
      </trkpt>
      <trkpt lat="42.93576" lon="0.97389">
        <ele>557</ele>
        <time>2019-08-08T11:07:55.000Z</time>
      </trkpt>
      <trkpt lat="42.93574" lon="0.974">
        <ele>557</ele>
        <time>2019-08-08T11:07:56.000Z</time>
      </trkpt>
      <trkpt lat="42.93572" lon="0.97411">
        <ele>559</ele>
        <time>2019-08-08T11:07:57.000Z</time>
      </trkpt>
      <trkpt lat="42.9357" lon="0.97421">
        <ele>559</ele>
        <time>2019-08-08T11:07:58.000Z</time>
      </trkpt>
      <trkpt lat="42.93567" lon="0.97431">
        <ele>559</ele>
        <time>2019-08-08T11:07:59.000Z</time>
      </trkpt>
      <trkpt lat="42.93565" lon="0.97442">
        <ele>559</ele>
        <time>2019-08-08T11:08:00.000Z</time>
      </trkpt>
      <trkpt lat="42.93563" lon="0.97452">
        <ele>557</ele>
        <time>2019-08-08T11:08:01.000Z</time>
      </trkpt>
      <trkpt lat="42.9356" lon="0.97462">
        <ele>557</ele>
        <time>2019-08-08T11:08:02.000Z</time>
      </trkpt>
      <trkpt lat="42.93557" lon="0.97471">
        <ele>556</ele>
        <time>2019-08-08T11:08:03.000Z</time>
      </trkpt>
      <trkpt lat="42.93554" lon="0.9748">
        <ele>556</ele>
        <time>2019-08-08T11:08:04.000Z</time>
      </trkpt>
      <trkpt lat="42.93551" lon="0.9749">
        <ele>557</ele>
        <time>2019-08-08T11:08:05.000Z</time>
      </trkpt>
      <trkpt lat="42.93549" lon="0.975">
        <ele>557</ele>
        <time>2019-08-08T11:08:06.000Z</time>
      </trkpt>
      <trkpt lat="42.93546" lon="0.9751">
        <ele>557</ele>
        <time>2019-08-08T11:08:07.000Z</time>
      </trkpt>
      <trkpt lat="42.93543" lon="0.9752">
        <ele>557</ele>
        <time>2019-08-08T11:08:08.000Z</time>
      </trkpt>
      <trkpt lat="42.93541" lon="0.9753">
        <ele>556</ele>
        <time>2019-08-08T11:08:09.000Z</time>
      </trkpt>
      <trkpt lat="42.93538" lon="0.9754">
        <ele>556</ele>
        <time>2019-08-08T11:08:10.000Z</time>
      </trkpt>
      <trkpt lat="42.93535" lon="0.97551">
        <ele>556</ele>
        <time>2019-08-08T11:08:11.000Z</time>
      </trkpt>
      <trkpt lat="42.93532" lon="0.97561">
        <ele>556</ele>
        <time>2019-08-08T11:08:12.000Z</time>
      </trkpt>
      <trkpt lat="42.93529" lon="0.97571">
        <ele>556</ele>
        <time>2019-08-08T11:08:13.000Z</time>
      </trkpt>
      <trkpt lat="42.93527" lon="0.97581">
        <ele>556</ele>
        <time>2019-08-08T11:08:14.000Z</time>
      </trkpt>
      <trkpt lat="42.93524" lon="0.97591">
        <ele>556</ele>
        <time>2019-08-08T11:08:15.000Z</time>
      </trkpt>
      <trkpt lat="42.93521" lon="0.976">
        <ele>557</ele>
        <time>2019-08-08T11:08:16.000Z</time>
      </trkpt>
      <trkpt lat="42.93517" lon="0.97609">
        <ele>557</ele>
        <time>2019-08-08T11:08:17.000Z</time>
      </trkpt>
      <trkpt lat="42.93513" lon="0.97618">
        <ele>558</ele>
        <time>2019-08-08T11:08:18.000Z</time>
      </trkpt>
      <trkpt lat="42.93509" lon="0.97626">
        <ele>558</ele>
        <time>2019-08-08T11:08:19.000Z</time>
      </trkpt>
      <trkpt lat="42.93504" lon="0.97634">
        <ele>558</ele>
        <time>2019-08-08T11:08:20.000Z</time>
      </trkpt>
      <trkpt lat="42.93499" lon="0.9764">
        <ele>558</ele>
        <time>2019-08-08T11:08:21.000Z</time>
      </trkpt>
      <trkpt lat="42.93493" lon="0.97646">
        <ele>559</ele>
        <time>2019-08-08T11:08:22.000Z</time>
      </trkpt>
      <trkpt lat="42.93487" lon="0.97652">
        <ele>559</ele>
        <time>2019-08-08T11:08:23.000Z</time>
      </trkpt>
      <trkpt lat="42.93482" lon="0.97657">
        <ele>559</ele>
        <time>2019-08-08T11:08:24.000Z</time>
      </trkpt>
      <trkpt lat="42.93476" lon="0.97662">
        <ele>559</ele>
        <time>2019-08-08T11:08:25.000Z</time>
      </trkpt>
      <trkpt lat="42.93467" lon="0.9767">
        <ele>559</ele>
        <time>2019-08-08T11:08:26.000Z</time>
      </trkpt>
      <trkpt lat="42.93465" lon="0.97673">
        <ele>559</ele>
        <time>2019-08-08T11:08:27.000Z</time>
      </trkpt>
      <trkpt lat="42.93459" lon="0.97678">
        <ele>559</ele>
        <time>2019-08-08T11:08:28.000Z</time>
      </trkpt>
      <trkpt lat="42.93454" lon="0.97683">
        <ele>559</ele>
        <time>2019-08-08T11:08:29.000Z</time>
      </trkpt>
      <trkpt lat="42.93448" lon="0.97689">
        <ele>559</ele>
        <time>2019-08-08T11:08:30.000Z</time>
      </trkpt>
      <trkpt lat="42.93443" lon="0.97695">
        <ele>559</ele>
        <time>2019-08-08T11:08:31.000Z</time>
      </trkpt>
      <trkpt lat="42.93438" lon="0.97702">
        <ele>559</ele>
        <time>2019-08-08T11:08:32.000Z</time>
      </trkpt>
      <trkpt lat="42.93434" lon="0.97708">
        <ele>559</ele>
        <time>2019-08-08T11:08:33.000Z</time>
      </trkpt>
      <trkpt lat="42.93429" lon="0.97715">
        <ele>559</ele>
        <time>2019-08-08T11:08:34.000Z</time>
      </trkpt>
      <trkpt lat="42.93424" lon="0.97721">
        <ele>559</ele>
        <time>2019-08-08T11:08:35.000Z</time>
      </trkpt>
      <trkpt lat="42.9342" lon="0.97728">
        <ele>559</ele>
        <time>2019-08-08T11:08:36.000Z</time>
      </trkpt>
      <trkpt lat="42.93415" lon="0.97735">
        <ele>559</ele>
        <time>2019-08-08T11:08:37.000Z</time>
      </trkpt>
      <trkpt lat="42.93411" lon="0.97743">
        <ele>559</ele>
        <time>2019-08-08T11:08:38.000Z</time>
      </trkpt>
      <trkpt lat="42.93407" lon="0.9775">
        <ele>559</ele>
        <time>2019-08-08T11:08:39.000Z</time>
      </trkpt>
      <trkpt lat="42.93403" lon="0.97757">
        <ele>559</ele>
        <time>2019-08-08T11:08:40.000Z</time>
      </trkpt>
      <trkpt lat="42.93398" lon="0.97764">
        <ele>559</ele>
        <time>2019-08-08T11:08:41.000Z</time>
      </trkpt>
      <trkpt lat="42.93392" lon="0.97774">
        <ele>559</ele>
        <time>2019-08-08T11:08:42.000Z</time>
      </trkpt>
      <trkpt lat="42.9339" lon="0.97778">
        <ele>559</ele>
        <time>2019-08-08T11:08:43.000Z</time>
      </trkpt>
      <trkpt lat="42.93386" lon="0.97785">
        <ele>558</ele>
        <time>2019-08-08T11:08:44.000Z</time>
      </trkpt>
      <trkpt lat="42.93382" lon="0.97792">
        <ele>558</ele>
        <time>2019-08-08T11:08:45.000Z</time>
      </trkpt>
      <trkpt lat="42.93378" lon="0.97799">
        <ele>559</ele>
        <time>2019-08-08T11:08:46.000Z</time>
      </trkpt>
      <trkpt lat="42.93374" lon="0.97806">
        <ele>559</ele>
        <time>2019-08-08T11:08:47.000Z</time>
      </trkpt>
      <trkpt lat="42.9337" lon="0.97814">
        <ele>559</ele>
        <time>2019-08-08T11:08:48.000Z</time>
      </trkpt>
      <trkpt lat="42.93366" lon="0.97821">
        <ele>559</ele>
        <time>2019-08-08T11:08:49.000Z</time>
      </trkpt>
      <trkpt lat="42.93362" lon="0.97829">
        <ele>559</ele>
        <time>2019-08-08T11:08:50.000Z</time>
      </trkpt>
      <trkpt lat="42.93359" lon="0.97836">
        <ele>559</ele>
        <time>2019-08-08T11:08:51.000Z</time>
      </trkpt>
      <trkpt lat="42.93355" lon="0.97844">
        <ele>559</ele>
        <time>2019-08-08T11:08:52.000Z</time>
      </trkpt>
      <trkpt lat="42.93351" lon="0.97851">
        <ele>560</ele>
        <time>2019-08-08T11:08:53.000Z</time>
      </trkpt>
      <trkpt lat="42.93347" lon="0.97859">
        <ele>560</ele>
        <time>2019-08-08T11:08:54.000Z</time>
      </trkpt>
      <trkpt lat="42.93344" lon="0.97867">
        <ele>560</ele>
        <time>2019-08-08T11:08:55.000Z</time>
      </trkpt>
      <trkpt lat="42.93341" lon="0.97875">
        <ele>560</ele>
        <time>2019-08-08T11:08:56.000Z</time>
      </trkpt>
      <trkpt lat="42.93338" lon="0.97884">
        <ele>559</ele>
        <time>2019-08-08T11:08:57.000Z</time>
      </trkpt>
      <trkpt lat="42.93335" lon="0.97893">
        <ele>559</ele>
        <time>2019-08-08T11:08:58.000Z</time>
      </trkpt>
      <trkpt lat="42.93333" lon="0.97902">
        <ele>560</ele>
        <time>2019-08-08T11:08:59.000Z</time>
      </trkpt>
      <trkpt lat="42.9333" lon="0.97911">
        <ele>560</ele>
        <time>2019-08-08T11:09:00.000Z</time>
      </trkpt>
      <trkpt lat="42.93328" lon="0.9792">
        <ele>559</ele>
        <time>2019-08-08T11:09:01.000Z</time>
      </trkpt>
      <trkpt lat="42.93326" lon="0.97929">
        <ele>559</ele>
        <time>2019-08-08T11:09:02.000Z</time>
      </trkpt>
      <trkpt lat="42.93324" lon="0.97938">
        <ele>559</ele>
        <time>2019-08-08T11:09:03.000Z</time>
      </trkpt>
      <trkpt lat="42.93323" lon="0.97947">
        <ele>559</ele>
        <time>2019-08-08T11:09:04.000Z</time>
      </trkpt>
      <trkpt lat="42.93322" lon="0.97957">
        <ele>560</ele>
        <time>2019-08-08T11:09:05.000Z</time>
      </trkpt>
      <trkpt lat="42.9332" lon="0.97966">
        <ele>560</ele>
        <time>2019-08-08T11:09:06.000Z</time>
      </trkpt>
      <trkpt lat="42.93318" lon="0.97975">
        <ele>560</ele>
        <time>2019-08-08T11:09:07.000Z</time>
      </trkpt>
      <trkpt lat="42.93316" lon="0.97985">
        <ele>560</ele>
        <time>2019-08-08T11:09:08.000Z</time>
      </trkpt>
      <trkpt lat="42.93315" lon="0.97994">
        <ele>560</ele>
        <time>2019-08-08T11:09:09.000Z</time>
      </trkpt>
      <trkpt lat="42.93314" lon="0.98003">
        <ele>560</ele>
        <time>2019-08-08T11:09:10.000Z</time>
      </trkpt>
      <trkpt lat="42.93312" lon="0.98012">
        <ele>560</ele>
        <time>2019-08-08T11:09:11.000Z</time>
      </trkpt>
      <trkpt lat="42.93311" lon="0.98022">
        <ele>560</ele>
        <time>2019-08-08T11:09:12.000Z</time>
      </trkpt>
      <trkpt lat="42.93309" lon="0.98031">
        <ele>560</ele>
        <time>2019-08-08T11:09:13.000Z</time>
      </trkpt>
      <trkpt lat="42.93307" lon="0.9804">
        <ele>560</ele>
        <time>2019-08-08T11:09:14.000Z</time>
      </trkpt>
      <trkpt lat="42.93306" lon="0.98049">
        <ele>560</ele>
        <time>2019-08-08T11:09:15.000Z</time>
      </trkpt>
      <trkpt lat="42.93305" lon="0.98058">
        <ele>560</ele>
        <time>2019-08-08T11:09:16.000Z</time>
      </trkpt>
      <trkpt lat="42.93303" lon="0.98068">
        <ele>560</ele>
        <time>2019-08-08T11:09:17.000Z</time>
      </trkpt>
      <trkpt lat="42.93302" lon="0.98077">
        <ele>560</ele>
        <time>2019-08-08T11:09:18.000Z</time>
      </trkpt>
      <trkpt lat="42.933" lon="0.98086">
        <ele>560</ele>
        <time>2019-08-08T11:09:19.000Z</time>
      </trkpt>
      <trkpt lat="42.93298" lon="0.98095">
        <ele>560</ele>
        <time>2019-08-08T11:09:20.000Z</time>
      </trkpt>
      <trkpt lat="42.93297" lon="0.98104">
        <ele>560</ele>
        <time>2019-08-08T11:09:21.000Z</time>
      </trkpt>
      <trkpt lat="42.93296" lon="0.98113">
        <ele>560</ele>
        <time>2019-08-08T11:09:22.000Z</time>
      </trkpt>
      <trkpt lat="42.93295" lon="0.98122">
        <ele>560</ele>
        <time>2019-08-08T11:09:23.000Z</time>
      </trkpt>
      <trkpt lat="42.93293" lon="0.98131">
        <ele>560</ele>
        <time>2019-08-08T11:09:24.000Z</time>
      </trkpt>
      <trkpt lat="42.93292" lon="0.9814">
        <ele>560</ele>
        <time>2019-08-08T11:09:25.000Z</time>
      </trkpt>
      <trkpt lat="42.9329" lon="0.98149">
        <ele>560</ele>
        <time>2019-08-08T11:09:26.000Z</time>
      </trkpt>
      <trkpt lat="42.93288" lon="0.98158">
        <ele>560</ele>
        <time>2019-08-08T11:09:27.000Z</time>
      </trkpt>
      <trkpt lat="42.93286" lon="0.98167">
        <ele>560</ele>
        <time>2019-08-08T11:09:28.000Z</time>
      </trkpt>
      <trkpt lat="42.93284" lon="0.98177">
        <ele>560</ele>
        <time>2019-08-08T11:09:29.000Z</time>
      </trkpt>
      <trkpt lat="42.93282" lon="0.98186">
        <ele>560</ele>
        <time>2019-08-08T11:09:30.000Z</time>
      </trkpt>
      <trkpt lat="42.9328" lon="0.98195">
        <ele>559</ele>
        <time>2019-08-08T11:09:31.000Z</time>
      </trkpt>
      <trkpt lat="42.93276" lon="0.9821">
        <ele>559</ele>
        <time>2019-08-08T11:09:32.000Z</time>
      </trkpt>
      <trkpt lat="42.93275" lon="0.98215">
        <ele>558</ele>
        <time>2019-08-08T11:09:33.000Z</time>
      </trkpt>
      <trkpt lat="42.93272" lon="0.98224">
        <ele>558</ele>
        <time>2019-08-08T11:09:34.000Z</time>
      </trkpt>
      <trkpt lat="42.93269" lon="0.98235">
        <ele>558</ele>
        <time>2019-08-08T11:09:35.000Z</time>
      </trkpt>
      <trkpt lat="42.93265" lon="0.98245">
        <ele>558</ele>
        <time>2019-08-08T11:09:36.000Z</time>
      </trkpt>
      <trkpt lat="42.93262" lon="0.98255">
        <ele>558</ele>
        <time>2019-08-08T11:09:37.000Z</time>
      </trkpt>
      <trkpt lat="42.93258" lon="0.98265">
        <ele>556</ele>
        <time>2019-08-08T11:09:38.000Z</time>
      </trkpt>
      <trkpt lat="42.93254" lon="0.98275">
        <ele>556</ele>
        <time>2019-08-08T11:09:39.000Z</time>
      </trkpt>
      <trkpt lat="42.9325" lon="0.98284">
        <ele>556</ele>
        <time>2019-08-08T11:09:40.000Z</time>
      </trkpt>
      <trkpt lat="42.93246" lon="0.98294">
        <ele>556</ele>
        <time>2019-08-08T11:09:41.000Z</time>
      </trkpt>
      <trkpt lat="42.93243" lon="0.98304">
        <ele>556</ele>
        <time>2019-08-08T11:09:42.000Z</time>
      </trkpt>
      <trkpt lat="42.93239" lon="0.98314">
        <ele>556</ele>
        <time>2019-08-08T11:09:43.000Z</time>
      </trkpt>
      <trkpt lat="42.93235" lon="0.98324">
        <ele>555</ele>
        <time>2019-08-08T11:09:44.000Z</time>
      </trkpt>
      <trkpt lat="42.93233" lon="0.98334">
        <ele>555</ele>
        <time>2019-08-08T11:09:45.000Z</time>
      </trkpt>
      <trkpt lat="42.9323" lon="0.98345">
        <ele>555</ele>
        <time>2019-08-08T11:09:46.000Z</time>
      </trkpt>
      <trkpt lat="42.93228" lon="0.98355">
        <ele>555</ele>
        <time>2019-08-08T11:09:47.000Z</time>
      </trkpt>
      <trkpt lat="42.93225" lon="0.98365">
        <ele>555</ele>
        <time>2019-08-08T11:09:48.000Z</time>
      </trkpt>
      <trkpt lat="42.93224" lon="0.98376">
        <ele>555</ele>
        <time>2019-08-08T11:09:49.000Z</time>
      </trkpt>
      <trkpt lat="42.93222" lon="0.98386">
        <ele>555</ele>
        <time>2019-08-08T11:09:50.000Z</time>
      </trkpt>
      <trkpt lat="42.9322" lon="0.98397">
        <ele>555</ele>
        <time>2019-08-08T11:09:51.000Z</time>
      </trkpt>
      <trkpt lat="42.93219" lon="0.98407">
        <ele>555</ele>
        <time>2019-08-08T11:09:52.000Z</time>
      </trkpt>
      <trkpt lat="42.93217" lon="0.98417">
        <ele>555</ele>
        <time>2019-08-08T11:09:53.000Z</time>
      </trkpt>
      <trkpt lat="42.93215" lon="0.98428">
        <ele>555</ele>
        <time>2019-08-08T11:09:54.000Z</time>
      </trkpt>
      <trkpt lat="42.93214" lon="0.98438">
        <ele>555</ele>
        <time>2019-08-08T11:09:55.000Z</time>
      </trkpt>
      <trkpt lat="42.93212" lon="0.98448">
        <ele>555</ele>
        <time>2019-08-08T11:09:56.000Z</time>
      </trkpt>
      <trkpt lat="42.93211" lon="0.98458">
        <ele>555</ele>
        <time>2019-08-08T11:09:57.000Z</time>
      </trkpt>
      <trkpt lat="42.9321" lon="0.98469">
        <ele>555</ele>
        <time>2019-08-08T11:09:58.000Z</time>
      </trkpt>
      <trkpt lat="42.93209" lon="0.98479">
        <ele>554</ele>
        <time>2019-08-08T11:09:59.000Z</time>
      </trkpt>
      <trkpt lat="42.93207" lon="0.98489">
        <ele>554</ele>
        <time>2019-08-08T11:10:00.000Z</time>
      </trkpt>
      <trkpt lat="42.93206" lon="0.98499">
        <ele>554</ele>
        <time>2019-08-08T11:10:01.000Z</time>
      </trkpt>
      <trkpt lat="42.93205" lon="0.98509">
        <ele>554</ele>
        <time>2019-08-08T11:10:02.000Z</time>
      </trkpt>
      <trkpt lat="42.93204" lon="0.98519">
        <ele>554</ele>
        <time>2019-08-08T11:10:03.000Z</time>
      </trkpt>
      <trkpt lat="42.93203" lon="0.98529">
        <ele>554</ele>
        <time>2019-08-08T11:10:04.000Z</time>
      </trkpt>
      <trkpt lat="42.93203" lon="0.98544">
        <ele>554</ele>
        <time>2019-08-08T11:10:05.000Z</time>
      </trkpt>
      <trkpt lat="42.93203" lon="0.98549">
        <ele>554</ele>
        <time>2019-08-08T11:10:06.000Z</time>
      </trkpt>
      <trkpt lat="42.93203" lon="0.9856">
        <ele>554</ele>
        <time>2019-08-08T11:10:07.000Z</time>
      </trkpt>
      <trkpt lat="42.93204" lon="0.9857">
        <ele>554</ele>
        <time>2019-08-08T11:10:08.000Z</time>
      </trkpt>
      <trkpt lat="42.93205" lon="0.98579">
        <ele>554</ele>
        <time>2019-08-08T11:10:09.000Z</time>
      </trkpt>
      <trkpt lat="42.93206" lon="0.98589">
        <ele>553</ele>
        <time>2019-08-08T11:10:10.000Z</time>
      </trkpt>
      <trkpt lat="42.93207" lon="0.98599">
        <ele>553</ele>
        <time>2019-08-08T11:10:11.000Z</time>
      </trkpt>
      <trkpt lat="42.93208" lon="0.9861">
        <ele>553</ele>
        <time>2019-08-08T11:10:12.000Z</time>
      </trkpt>
      <trkpt lat="42.93209" lon="0.9862">
        <ele>553</ele>
        <time>2019-08-08T11:10:13.000Z</time>
      </trkpt>
      <trkpt lat="42.93211" lon="0.9863">
        <ele>553</ele>
        <time>2019-08-08T11:10:14.000Z</time>
      </trkpt>
      <trkpt lat="42.93212" lon="0.9864">
        <ele>553</ele>
        <time>2019-08-08T11:10:15.000Z</time>
      </trkpt>
      <trkpt lat="42.93213" lon="0.9865">
        <ele>553</ele>
        <time>2019-08-08T11:10:16.000Z</time>
      </trkpt>
      <trkpt lat="42.93214" lon="0.9866">
        <ele>553</ele>
        <time>2019-08-08T11:10:17.000Z</time>
      </trkpt>
      <trkpt lat="42.93214" lon="0.98671">
        <ele>553</ele>
        <time>2019-08-08T11:10:18.000Z</time>
      </trkpt>
      <trkpt lat="42.93215" lon="0.98681">
        <ele>553</ele>
        <time>2019-08-08T11:10:19.000Z</time>
      </trkpt>
      <trkpt lat="42.93215" lon="0.98691">
        <ele>553</ele>
        <time>2019-08-08T11:10:20.000Z</time>
      </trkpt>
      <trkpt lat="42.93216" lon="0.98702">
        <ele>553</ele>
        <time>2019-08-08T11:10:21.000Z</time>
      </trkpt>
      <trkpt lat="42.93216" lon="0.98712">
        <ele>552</ele>
        <time>2019-08-08T11:10:22.000Z</time>
      </trkpt>
      <trkpt lat="42.93216" lon="0.98722">
        <ele>552</ele>
        <time>2019-08-08T11:10:23.000Z</time>
      </trkpt>
      <trkpt lat="42.93215" lon="0.98733">
        <ele>552</ele>
        <time>2019-08-08T11:10:24.000Z</time>
      </trkpt>
      <trkpt lat="42.93214" lon="0.98743">
        <ele>552</ele>
        <time>2019-08-08T11:10:25.000Z</time>
      </trkpt>
      <trkpt lat="42.93213" lon="0.98753">
        <ele>552</ele>
        <time>2019-08-08T11:10:26.000Z</time>
      </trkpt>
      <trkpt lat="42.93212" lon="0.98764">
        <ele>551</ele>
        <time>2019-08-08T11:10:27.000Z</time>
      </trkpt>
      <trkpt lat="42.93211" lon="0.98774">
        <ele>551</ele>
        <time>2019-08-08T11:10:28.000Z</time>
      </trkpt>
      <trkpt lat="42.9321" lon="0.98784">
        <ele>551</ele>
        <time>2019-08-08T11:10:29.000Z</time>
      </trkpt>
      <trkpt lat="42.9321" lon="0.98793">
        <ele>551</ele>
        <time>2019-08-08T11:10:30.000Z</time>
      </trkpt>
      <trkpt lat="42.93209" lon="0.98803">
        <ele>551</ele>
        <time>2019-08-08T11:10:31.000Z</time>
      </trkpt>
      <trkpt lat="42.93208" lon="0.98813">
        <ele>552</ele>
        <time>2019-08-08T11:10:32.000Z</time>
      </trkpt>
      <trkpt lat="42.93208" lon="0.98822">
        <ele>552</ele>
        <time>2019-08-08T11:10:33.000Z</time>
      </trkpt>
      <trkpt lat="42.93209" lon="0.98832">
        <ele>552</ele>
        <time>2019-08-08T11:10:34.000Z</time>
      </trkpt>
      <trkpt lat="42.93209" lon="0.98841">
        <ele>552</ele>
        <time>2019-08-08T11:10:35.000Z</time>
      </trkpt>
      <trkpt lat="42.9321" lon="0.98851">
        <ele>552</ele>
        <time>2019-08-08T11:10:36.000Z</time>
      </trkpt>
      <trkpt lat="42.9321" lon="0.9886">
        <ele>552</ele>
        <time>2019-08-08T11:10:37.000Z</time>
      </trkpt>
      <trkpt lat="42.93211" lon="0.98875">
        <ele>552</ele>
        <time>2019-08-08T11:10:38.000Z</time>
      </trkpt>
      <trkpt lat="42.93212" lon="0.98879">
        <ele>552</ele>
        <time>2019-08-08T11:10:39.000Z</time>
      </trkpt>
      <trkpt lat="42.93212" lon="0.98889">
        <ele>552</ele>
        <time>2019-08-08T11:10:40.000Z</time>
      </trkpt>
      <trkpt lat="42.93213" lon="0.98899">
        <ele>552</ele>
        <time>2019-08-08T11:10:41.000Z</time>
      </trkpt>
      <trkpt lat="42.93215" lon="0.98908">
        <ele>552</ele>
        <time>2019-08-08T11:10:42.000Z</time>
      </trkpt>
      <trkpt lat="42.93216" lon="0.98918">
        <ele>552</ele>
        <time>2019-08-08T11:10:43.000Z</time>
      </trkpt>
      <trkpt lat="42.93217" lon="0.98928">
        <ele>552</ele>
        <time>2019-08-08T11:10:44.000Z</time>
      </trkpt>
      <trkpt lat="42.93218" lon="0.98938">
        <ele>552</ele>
        <time>2019-08-08T11:10:45.000Z</time>
      </trkpt>
      <trkpt lat="42.93219" lon="0.98948">
        <ele>552</ele>
        <time>2019-08-08T11:10:46.000Z</time>
      </trkpt>
      <trkpt lat="42.93221" lon="0.98958">
        <ele>552</ele>
        <time>2019-08-08T11:10:47.000Z</time>
      </trkpt>
      <trkpt lat="42.93222" lon="0.98969">
        <ele>551</ele>
        <time>2019-08-08T11:10:48.000Z</time>
      </trkpt>
      <trkpt lat="42.93224" lon="0.98979">
        <ele>551</ele>
        <time>2019-08-08T11:10:49.000Z</time>
      </trkpt>
      <trkpt lat="42.93225" lon="0.9899">
        <ele>551</ele>
        <time>2019-08-08T11:10:50.000Z</time>
      </trkpt>
      <trkpt lat="42.93226" lon="0.99">
        <ele>551</ele>
        <time>2019-08-08T11:10:51.000Z</time>
      </trkpt>
      <trkpt lat="42.93228" lon="0.99011">
        <ele>551</ele>
        <time>2019-08-08T11:10:52.000Z</time>
      </trkpt>
      <trkpt lat="42.93229" lon="0.99022">
        <ele>551</ele>
        <time>2019-08-08T11:10:53.000Z</time>
      </trkpt>
      <trkpt lat="42.93229" lon="0.99033">
        <ele>550</ele>
        <time>2019-08-08T11:10:54.000Z</time>
      </trkpt>
      <trkpt lat="42.93229" lon="0.99051">
        <ele>550</ele>
        <time>2019-08-08T11:10:55.000Z</time>
      </trkpt>
      <trkpt lat="42.93229" lon="0.99057">
        <ele>549</ele>
        <time>2019-08-08T11:10:56.000Z</time>
      </trkpt>
      <trkpt lat="42.93228" lon="0.99068">
        <ele>549</ele>
        <time>2019-08-08T11:10:57.000Z</time>
      </trkpt>
      <trkpt lat="42.93226" lon="0.9908">
        <ele>549</ele>
        <time>2019-08-08T11:10:58.000Z</time>
      </trkpt>
      <trkpt lat="42.93224" lon="0.99092">
        <ele>549</ele>
        <time>2019-08-08T11:10:59.000Z</time>
      </trkpt>
      <trkpt lat="42.93222" lon="0.99103">
        <ele>546</ele>
        <time>2019-08-08T11:11:00.000Z</time>
      </trkpt>
      <trkpt lat="42.9322" lon="0.99116">
        <ele>546</ele>
        <time>2019-08-08T11:11:01.000Z</time>
      </trkpt>
      <trkpt lat="42.93219" lon="0.99128">
        <ele>545</ele>
        <time>2019-08-08T11:11:02.000Z</time>
      </trkpt>
      <trkpt lat="42.93216" lon="0.99147">
        <ele>545</ele>
        <time>2019-08-08T11:11:03.000Z</time>
      </trkpt>
      <trkpt lat="42.93215" lon="0.99153">
        <ele>545</ele>
        <time>2019-08-08T11:11:04.000Z</time>
      </trkpt>
      <trkpt lat="42.93214" lon="0.99166">
        <ele>545</ele>
        <time>2019-08-08T11:11:05.000Z</time>
      </trkpt>
      <trkpt lat="42.93211" lon="0.99178">
        <ele>544</ele>
        <time>2019-08-08T11:11:06.000Z</time>
      </trkpt>
      <trkpt lat="42.93207" lon="0.99191">
        <ele>544</ele>
        <time>2019-08-08T11:11:07.000Z</time>
      </trkpt>
      <trkpt lat="42.93202" lon="0.99202">
        <ele>543</ele>
        <time>2019-08-08T11:11:08.000Z</time>
      </trkpt>
      <trkpt lat="42.93196" lon="0.99212">
        <ele>543</ele>
        <time>2019-08-08T11:11:09.000Z</time>
      </trkpt>
      <trkpt lat="42.93187" lon="0.99219">
        <ele>542</ele>
        <time>2019-08-08T11:11:10.000Z</time>
      </trkpt>
      <trkpt lat="42.93173" lon="0.99227">
        <ele>542</ele>
        <time>2019-08-08T11:11:11.000Z</time>
      </trkpt>
      <trkpt lat="42.93168" lon="0.99229">
        <ele>541.6</ele>
        <time>2019-08-08T11:11:12.000Z</time>
      </trkpt>
      <trkpt lat="42.93159" lon="0.99233">
        <ele>541</ele>
        <time>2019-08-08T11:11:13.000Z</time>
      </trkpt>
      <trkpt lat="42.93149" lon="0.99237">
        <ele>539</ele>
        <time>2019-08-08T11:11:14.000Z</time>
      </trkpt>
      <trkpt lat="42.9314" lon="0.9924">
        <ele>539</ele>
        <time>2019-08-08T11:11:15.000Z</time>
      </trkpt>
      <trkpt lat="42.93131" lon="0.99245">
        <ele>538</ele>
        <time>2019-08-08T11:11:16.000Z</time>
      </trkpt>
      <trkpt lat="42.93122" lon="0.9925">
        <ele>538</ele>
        <time>2019-08-08T11:11:17.000Z</time>
      </trkpt>
      <trkpt lat="42.93115" lon="0.99257">
        <ele>538</ele>
        <time>2019-08-08T11:11:18.000Z</time>
      </trkpt>
      <trkpt lat="42.93108" lon="0.99265">
        <ele>538</ele>
        <time>2019-08-08T11:11:19.000Z</time>
      </trkpt>
      <trkpt lat="42.93101" lon="0.99274">
        <ele>538</ele>
        <time>2019-08-08T11:11:20.000Z</time>
      </trkpt>
      <trkpt lat="42.93094" lon="0.99282">
        <ele>538</ele>
        <time>2019-08-08T11:11:21.000Z</time>
      </trkpt>
      <trkpt lat="42.93086" lon="0.99291">
        <ele>538</ele>
        <time>2019-08-08T11:11:22.000Z</time>
      </trkpt>
      <trkpt lat="42.93079" lon="0.99299">
        <ele>538</ele>
        <time>2019-08-08T11:11:23.000Z</time>
      </trkpt>
      <trkpt lat="42.93072" lon="0.99307">
        <ele>538</ele>
        <time>2019-08-08T11:11:24.000Z</time>
      </trkpt>
      <trkpt lat="42.93064" lon="0.99315">
        <ele>536</ele>
        <time>2019-08-08T11:11:25.000Z</time>
      </trkpt>
      <trkpt lat="42.93056" lon="0.99323">
        <ele>536</ele>
        <time>2019-08-08T11:11:26.000Z</time>
      </trkpt>
      <trkpt lat="42.93049" lon="0.99331">
        <ele>536</ele>
        <time>2019-08-08T11:11:27.000Z</time>
      </trkpt>
      <trkpt lat="42.93043" lon="0.9934">
        <ele>536</ele>
        <time>2019-08-08T11:11:28.000Z</time>
      </trkpt>
      <trkpt lat="42.93037" lon="0.9935">
        <ele>536</ele>
        <time>2019-08-08T11:11:29.000Z</time>
      </trkpt>
      <trkpt lat="42.93033" lon="0.99361">
        <ele>536</ele>
        <time>2019-08-08T11:11:30.000Z</time>
      </trkpt>
      <trkpt lat="42.9303" lon="0.99372">
        <ele>536</ele>
        <time>2019-08-08T11:11:31.000Z</time>
      </trkpt>
      <trkpt lat="42.93028" lon="0.99383">
        <ele>536</ele>
        <time>2019-08-08T11:11:32.000Z</time>
      </trkpt>
      <trkpt lat="42.93026" lon="0.99395">
        <ele>536</ele>
        <time>2019-08-08T11:11:33.000Z</time>
      </trkpt>
      <trkpt lat="42.93024" lon="0.99406">
        <ele>536</ele>
        <time>2019-08-08T11:11:34.000Z</time>
      </trkpt>
      <trkpt lat="42.93022" lon="0.99417">
        <ele>536</ele>
        <time>2019-08-08T11:11:35.000Z</time>
      </trkpt>
      <trkpt lat="42.93021" lon="0.99429">
        <ele>537</ele>
        <time>2019-08-08T11:11:36.000Z</time>
      </trkpt>
      <trkpt lat="42.93019" lon="0.9944">
        <ele>537</ele>
        <time>2019-08-08T11:11:37.000Z</time>
      </trkpt>
      <trkpt lat="42.93018" lon="0.99452">
        <ele>537</ele>
        <time>2019-08-08T11:11:38.000Z</time>
      </trkpt>
      <trkpt lat="42.93016" lon="0.99463">
        <ele>537</ele>
        <time>2019-08-08T11:11:39.000Z</time>
      </trkpt>
      <trkpt lat="42.93014" lon="0.99474">
        <ele>537</ele>
        <time>2019-08-08T11:11:40.000Z</time>
      </trkpt>
      <trkpt lat="42.9301" lon="0.9949">
        <ele>537</ele>
        <time>2019-08-08T11:11:41.000Z</time>
      </trkpt>
      <trkpt lat="42.93008" lon="0.99495">
        <ele>537</ele>
        <time>2019-08-08T11:11:42.000Z</time>
      </trkpt>
      <trkpt lat="42.93005" lon="0.99506">
        <ele>537</ele>
        <time>2019-08-08T11:11:43.000Z</time>
      </trkpt>
      <trkpt lat="42.93001" lon="0.99516">
        <ele>537</ele>
        <time>2019-08-08T11:11:44.000Z</time>
      </trkpt>
      <trkpt lat="42.92995" lon="0.99529">
        <ele>536</ele>
        <time>2019-08-08T11:11:45.000Z</time>
      </trkpt>
      <trkpt lat="42.92992" lon="0.99534">
        <ele>536</ele>
        <time>2019-08-08T11:11:46.000Z</time>
      </trkpt>
      <trkpt lat="42.92987" lon="0.99542">
        <ele>536</ele>
        <time>2019-08-08T11:11:47.000Z</time>
      </trkpt>
      <trkpt lat="42.92982" lon="0.9955">
        <ele>536</ele>
        <time>2019-08-08T11:11:48.000Z</time>
      </trkpt>
      <trkpt lat="42.92976" lon="0.99558">
        <ele>536</ele>
        <time>2019-08-08T11:11:49.000Z</time>
      </trkpt>
      <trkpt lat="42.9297" lon="0.99566">
        <ele>536</ele>
        <time>2019-08-08T11:11:50.000Z</time>
      </trkpt>
      <trkpt lat="42.92965" lon="0.99574">
        <ele>536</ele>
        <time>2019-08-08T11:11:51.000Z</time>
      </trkpt>
      <trkpt lat="42.92959" lon="0.99582">
        <ele>536</ele>
        <time>2019-08-08T11:11:52.000Z</time>
      </trkpt>
      <trkpt lat="42.92954" lon="0.9959">
        <ele>536</ele>
        <time>2019-08-08T11:11:53.000Z</time>
      </trkpt>
      <trkpt lat="42.92948" lon="0.99597">
        <ele>536</ele>
        <time>2019-08-08T11:11:54.000Z</time>
      </trkpt>
      <trkpt lat="42.92942" lon="0.99604">
        <ele>536</ele>
        <time>2019-08-08T11:11:55.000Z</time>
      </trkpt>
      <trkpt lat="42.92936" lon="0.99611">
        <ele>536</ele>
        <time>2019-08-08T11:11:56.000Z</time>
      </trkpt>
      <trkpt lat="42.9293" lon="0.99618">
        <ele>536</ele>
        <time>2019-08-08T11:11:57.000Z</time>
      </trkpt>
      <trkpt lat="42.92924" lon="0.99625">
        <ele>536</ele>
        <time>2019-08-08T11:11:58.000Z</time>
      </trkpt>
      <trkpt lat="42.92918" lon="0.99633">
        <ele>536</ele>
        <time>2019-08-08T11:11:59.000Z</time>
      </trkpt>
      <trkpt lat="42.92913" lon="0.99641">
        <ele>536</ele>
        <time>2019-08-08T11:12:00.000Z</time>
      </trkpt>
      <trkpt lat="42.92907" lon="0.99648">
        <ele>536</ele>
        <time>2019-08-08T11:12:01.000Z</time>
      </trkpt>
      <trkpt lat="42.92902" lon="0.99656">
        <ele>536</ele>
        <time>2019-08-08T11:12:02.000Z</time>
      </trkpt>
      <trkpt lat="42.92896" lon="0.99663">
        <ele>536</ele>
        <time>2019-08-08T11:12:03.000Z</time>
      </trkpt>
      <trkpt lat="42.92891" lon="0.99671">
        <ele>535</ele>
        <time>2019-08-08T11:12:04.000Z</time>
      </trkpt>
      <trkpt lat="42.92885" lon="0.99678">
        <ele>535</ele>
        <time>2019-08-08T11:12:05.000Z</time>
      </trkpt>
      <trkpt lat="42.9288" lon="0.99686">
        <ele>535</ele>
        <time>2019-08-08T11:12:06.000Z</time>
      </trkpt>
      <trkpt lat="42.92875" lon="0.99693">
        <ele>535</ele>
        <time>2019-08-08T11:12:07.000Z</time>
      </trkpt>
      <trkpt lat="42.9287" lon="0.997">
        <ele>535</ele>
        <time>2019-08-08T11:12:08.000Z</time>
      </trkpt>
      <trkpt lat="42.92865" lon="0.99708">
        <ele>535</ele>
        <time>2019-08-08T11:12:09.000Z</time>
      </trkpt>
      <trkpt lat="42.9286" lon="0.99715">
        <ele>534</ele>
        <time>2019-08-08T11:12:10.000Z</time>
      </trkpt>
      <trkpt lat="42.92855" lon="0.99723">
        <ele>534</ele>
        <time>2019-08-08T11:12:11.000Z</time>
      </trkpt>
      <trkpt lat="42.9285" lon="0.9973">
        <ele>535</ele>
        <time>2019-08-08T11:12:12.000Z</time>
      </trkpt>
      <trkpt lat="42.92845" lon="0.99738">
        <ele>535</ele>
        <time>2019-08-08T11:12:13.000Z</time>
      </trkpt>
      <trkpt lat="42.9284" lon="0.99746">
        <ele>535</ele>
        <time>2019-08-08T11:12:14.000Z</time>
      </trkpt>
      <trkpt lat="42.92836" lon="0.99753">
        <ele>535</ele>
        <time>2019-08-08T11:12:15.000Z</time>
      </trkpt>
      <trkpt lat="42.92831" lon="0.99761">
        <ele>535</ele>
        <time>2019-08-08T11:12:16.000Z</time>
      </trkpt>
      <trkpt lat="42.92827" lon="0.99769">
        <ele>535</ele>
        <time>2019-08-08T11:12:17.000Z</time>
      </trkpt>
      <trkpt lat="42.92823" lon="0.99777">
        <ele>535</ele>
        <time>2019-08-08T11:12:18.000Z</time>
      </trkpt>
      <trkpt lat="42.92819" lon="0.99784">
        <ele>535</ele>
        <time>2019-08-08T11:12:19.000Z</time>
      </trkpt>
      <trkpt lat="42.92815" lon="0.99792">
        <ele>535</ele>
        <time>2019-08-08T11:12:20.000Z</time>
      </trkpt>
      <trkpt lat="42.92811" lon="0.99799">
        <ele>535</ele>
        <time>2019-08-08T11:12:21.000Z</time>
      </trkpt>
      <trkpt lat="42.92806" lon="0.99807">
        <ele>535</ele>
        <time>2019-08-08T11:12:22.000Z</time>
      </trkpt>
      <trkpt lat="42.92802" lon="0.99814">
        <ele>535</ele>
        <time>2019-08-08T11:12:23.000Z</time>
      </trkpt>
      <trkpt lat="42.92799" lon="0.99822">
        <ele>535</ele>
        <time>2019-08-08T11:12:24.000Z</time>
      </trkpt>
      <trkpt lat="42.92795" lon="0.9983">
        <ele>534</ele>
        <time>2019-08-08T11:12:25.000Z</time>
      </trkpt>
      <trkpt lat="42.92791" lon="0.99838">
        <ele>534</ele>
        <time>2019-08-08T11:12:26.000Z</time>
      </trkpt>
      <trkpt lat="42.92787" lon="0.99846">
        <ele>535</ele>
        <time>2019-08-08T11:12:27.000Z</time>
      </trkpt>
      <trkpt lat="42.92784" lon="0.99854">
        <ele>535</ele>
        <time>2019-08-08T11:12:28.000Z</time>
      </trkpt>
      <trkpt lat="42.9278" lon="0.99862">
        <ele>535</ele>
        <time>2019-08-08T11:12:29.000Z</time>
      </trkpt>
      <trkpt lat="42.92775" lon="0.9987">
        <ele>534</ele>
        <time>2019-08-08T11:12:30.000Z</time>
      </trkpt>
      <trkpt lat="42.92771" lon="0.99878">
        <ele>534</ele>
        <time>2019-08-08T11:12:31.000Z</time>
      </trkpt>
      <trkpt lat="42.92768" lon="0.99887">
        <ele>534</ele>
        <time>2019-08-08T11:12:32.000Z</time>
      </trkpt>
      <trkpt lat="42.92764" lon="0.99895">
        <ele>534</ele>
        <time>2019-08-08T11:12:33.000Z</time>
      </trkpt>
      <trkpt lat="42.9276" lon="0.99903">
        <ele>534</ele>
        <time>2019-08-08T11:12:34.000Z</time>
      </trkpt>
      <trkpt lat="42.92756" lon="0.9991">
        <ele>534</ele>
        <time>2019-08-08T11:12:35.000Z</time>
      </trkpt>
      <trkpt lat="42.92751" lon="0.99918">
        <ele>534</ele>
        <time>2019-08-08T11:12:36.000Z</time>
      </trkpt>
      <trkpt lat="42.92747" lon="0.99926">
        <ele>534</ele>
        <time>2019-08-08T11:12:37.000Z</time>
      </trkpt>
      <trkpt lat="42.92743" lon="0.99934">
        <ele>534</ele>
        <time>2019-08-08T11:12:38.000Z</time>
      </trkpt>
      <trkpt lat="42.92739" lon="0.99941">
        <ele>534</ele>
        <time>2019-08-08T11:12:39.000Z</time>
      </trkpt>
      <trkpt lat="42.92734" lon="0.99948">
        <ele>534</ele>
        <time>2019-08-08T11:12:40.000Z</time>
      </trkpt>
      <trkpt lat="42.9273" lon="0.99956">
        <ele>534</ele>
        <time>2019-08-08T11:12:41.000Z</time>
      </trkpt>
      <trkpt lat="42.92725" lon="0.99963">
        <ele>534</ele>
        <time>2019-08-08T11:12:42.000Z</time>
      </trkpt>
      <trkpt lat="42.9272" lon="0.99969">
        <ele>534</ele>
        <time>2019-08-08T11:12:43.000Z</time>
      </trkpt>
      <trkpt lat="42.92716" lon="0.99977">
        <ele>534</ele>
        <time>2019-08-08T11:12:44.000Z</time>
      </trkpt>
      <trkpt lat="42.92711" lon="0.99984">
        <ele>534</ele>
        <time>2019-08-08T11:12:45.000Z</time>
      </trkpt>
      <trkpt lat="42.92707" lon="0.99991">
        <ele>534</ele>
        <time>2019-08-08T11:12:46.000Z</time>
      </trkpt>
      <trkpt lat="42.92702" lon="0.99998">
        <ele>535</ele>
        <time>2019-08-08T11:12:47.000Z</time>
      </trkpt>
      <trkpt lat="42.92697" lon="1.00005">
        <ele>535</ele>
        <time>2019-08-08T11:12:48.000Z</time>
      </trkpt>
      <trkpt lat="42.92693" lon="1.00013">
        <ele>535</ele>
        <time>2019-08-08T11:12:49.000Z</time>
      </trkpt>
      <trkpt lat="42.92688" lon="1.0002">
        <ele>535</ele>
        <time>2019-08-08T11:12:50.000Z</time>
      </trkpt>
      <trkpt lat="42.92683" lon="1.00028">
        <ele>534</ele>
        <time>2019-08-08T11:12:51.000Z</time>
      </trkpt>
      <trkpt lat="42.92678" lon="1.00035">
        <ele>534</ele>
        <time>2019-08-08T11:12:52.000Z</time>
      </trkpt>
      <trkpt lat="42.92674" lon="1.00042">
        <ele>534</ele>
        <time>2019-08-08T11:12:53.000Z</time>
      </trkpt>
      <trkpt lat="42.92669" lon="1.0005">
        <ele>534</ele>
        <time>2019-08-08T11:12:54.000Z</time>
      </trkpt>
      <trkpt lat="42.92665" lon="1.00057">
        <ele>534</ele>
        <time>2019-08-08T11:12:55.000Z</time>
      </trkpt>
      <trkpt lat="42.9266" lon="1.00064">
        <ele>534</ele>
        <time>2019-08-08T11:12:56.000Z</time>
      </trkpt>
      <trkpt lat="42.92655" lon="1.00072">
        <ele>533</ele>
        <time>2019-08-08T11:12:57.000Z</time>
      </trkpt>
      <trkpt lat="42.92651" lon="1.00079">
        <ele>533</ele>
        <time>2019-08-08T11:12:58.000Z</time>
      </trkpt>
      <trkpt lat="42.92646" lon="1.00086">
        <ele>532</ele>
        <time>2019-08-08T11:12:59.000Z</time>
      </trkpt>
      <trkpt lat="42.92642" lon="1.00094">
        <ele>532</ele>
        <time>2019-08-08T11:13:00.000Z</time>
      </trkpt>
      <trkpt lat="42.92637" lon="1.00101">
        <ele>533</ele>
        <time>2019-08-08T11:13:01.000Z</time>
      </trkpt>
      <trkpt lat="42.92632" lon="1.00109">
        <ele>533</ele>
        <time>2019-08-08T11:13:02.000Z</time>
      </trkpt>
      <trkpt lat="42.92628" lon="1.00116">
        <ele>533</ele>
        <time>2019-08-08T11:13:03.000Z</time>
      </trkpt>
      <trkpt lat="42.92623" lon="1.00124">
        <ele>533</ele>
        <time>2019-08-08T11:13:04.000Z</time>
      </trkpt>
      <trkpt lat="42.92619" lon="1.00132">
        <ele>533</ele>
        <time>2019-08-08T11:13:05.000Z</time>
      </trkpt>
      <trkpt lat="42.92615" lon="1.0014">
        <ele>533</ele>
        <time>2019-08-08T11:13:06.000Z</time>
      </trkpt>
      <trkpt lat="42.92609" lon="1.00152">
        <ele>533</ele>
        <time>2019-08-08T11:13:07.000Z</time>
      </trkpt>
      <trkpt lat="42.92608" lon="1.00156">
        <ele>533</ele>
        <time>2019-08-08T11:13:08.000Z</time>
      </trkpt>
      <trkpt lat="42.92604" lon="1.00164">
        <ele>533</ele>
        <time>2019-08-08T11:13:09.000Z</time>
      </trkpt>
      <trkpt lat="42.926" lon="1.00173">
        <ele>533</ele>
        <time>2019-08-08T11:13:10.000Z</time>
      </trkpt>
      <trkpt lat="42.92598" lon="1.00181">
        <ele>533</ele>
        <time>2019-08-08T11:13:11.000Z</time>
      </trkpt>
      <trkpt lat="42.92595" lon="1.0019">
        <ele>533</ele>
        <time>2019-08-08T11:13:12.000Z</time>
      </trkpt>
      <trkpt lat="42.92592" lon="1.00199">
        <ele>533</ele>
        <time>2019-08-08T11:13:13.000Z</time>
      </trkpt>
      <trkpt lat="42.9259" lon="1.00208">
        <ele>533</ele>
        <time>2019-08-08T11:13:14.000Z</time>
      </trkpt>
      <trkpt lat="42.92588" lon="1.00217">
        <ele>532</ele>
        <time>2019-08-08T11:13:15.000Z</time>
      </trkpt>
      <trkpt lat="42.92586" lon="1.00226">
        <ele>532</ele>
        <time>2019-08-08T11:13:16.000Z</time>
      </trkpt>
      <trkpt lat="42.92584" lon="1.00235">
        <ele>532</ele>
        <time>2019-08-08T11:13:17.000Z</time>
      </trkpt>
      <trkpt lat="42.92581" lon="1.00244">
        <ele>532</ele>
        <time>2019-08-08T11:13:18.000Z</time>
      </trkpt>
      <trkpt lat="42.92579" lon="1.00253">
        <ele>532</ele>
        <time>2019-08-08T11:13:19.000Z</time>
      </trkpt>
      <trkpt lat="42.92577" lon="1.00262">
        <ele>532</ele>
        <time>2019-08-08T11:13:20.000Z</time>
      </trkpt>
      <trkpt lat="42.92576" lon="1.00271">
        <ele>532</ele>
        <time>2019-08-08T11:13:21.000Z</time>
      </trkpt>
      <trkpt lat="42.92574" lon="1.00279">
        <ele>532</ele>
        <time>2019-08-08T11:13:22.000Z</time>
      </trkpt>
      <trkpt lat="42.92572" lon="1.00288">
        <ele>532</ele>
        <time>2019-08-08T11:13:23.000Z</time>
      </trkpt>
      <trkpt lat="42.92569" lon="1.00301">
        <ele>532</ele>
        <time>2019-08-08T11:13:24.000Z</time>
      </trkpt>
      <trkpt lat="42.92569" lon="1.00306">
        <ele>531</ele>
        <time>2019-08-08T11:13:25.000Z</time>
      </trkpt>
      <trkpt lat="42.92567" lon="1.00315">
        <ele>531</ele>
        <time>2019-08-08T11:13:26.000Z</time>
      </trkpt>
      <trkpt lat="42.92565" lon="1.00324">
        <ele>531</ele>
        <time>2019-08-08T11:13:27.000Z</time>
      </trkpt>
      <trkpt lat="42.92563" lon="1.00333">
        <ele>531</ele>
        <time>2019-08-08T11:13:28.000Z</time>
      </trkpt>
      <trkpt lat="42.92561" lon="1.00342">
        <ele>531</ele>
        <time>2019-08-08T11:13:29.000Z</time>
      </trkpt>
      <trkpt lat="42.9256" lon="1.00351">
        <ele>531</ele>
        <time>2019-08-08T11:13:30.000Z</time>
      </trkpt>
      <trkpt lat="42.92558" lon="1.00361">
        <ele>531</ele>
        <time>2019-08-08T11:13:31.000Z</time>
      </trkpt>
      <trkpt lat="42.92556" lon="1.0037">
        <ele>531</ele>
        <time>2019-08-08T11:13:32.000Z</time>
      </trkpt>
      <trkpt lat="42.92555" lon="1.00379">
        <ele>531</ele>
        <time>2019-08-08T11:13:33.000Z</time>
      </trkpt>
      <trkpt lat="42.92553" lon="1.00389">
        <ele>531</ele>
        <time>2019-08-08T11:13:34.000Z</time>
      </trkpt>
      <trkpt lat="42.92551" lon="1.00398">
        <ele>531</ele>
        <time>2019-08-08T11:13:35.000Z</time>
      </trkpt>
      <trkpt lat="42.9255" lon="1.00408">
        <ele>531</ele>
        <time>2019-08-08T11:13:36.000Z</time>
      </trkpt>
      <trkpt lat="42.92549" lon="1.00418">
        <ele>531</ele>
        <time>2019-08-08T11:13:37.000Z</time>
      </trkpt>
      <trkpt lat="42.92547" lon="1.00428">
        <ele>531</ele>
        <time>2019-08-08T11:13:38.000Z</time>
      </trkpt>
      <trkpt lat="42.92546" lon="1.00437">
        <ele>531</ele>
        <time>2019-08-08T11:13:39.000Z</time>
      </trkpt>
      <trkpt lat="42.92546" lon="1.00448">
        <ele>531</ele>
        <time>2019-08-08T11:13:40.000Z</time>
      </trkpt>
      <trkpt lat="42.92545" lon="1.00458">
        <ele>531</ele>
        <time>2019-08-08T11:13:41.000Z</time>
      </trkpt>
      <trkpt lat="42.92544" lon="1.00468">
        <ele>531</ele>
        <time>2019-08-08T11:13:42.000Z</time>
      </trkpt>
      <trkpt lat="42.92544" lon="1.00479">
        <ele>531</ele>
        <time>2019-08-08T11:13:43.000Z</time>
      </trkpt>
      <trkpt lat="42.92543" lon="1.00489">
        <ele>531</ele>
        <time>2019-08-08T11:13:44.000Z</time>
      </trkpt>
      <trkpt lat="42.92542" lon="1.005">
        <ele>531</ele>
        <time>2019-08-08T11:13:45.000Z</time>
      </trkpt>
      <trkpt lat="42.92542" lon="1.00511">
        <ele>531</ele>
        <time>2019-08-08T11:13:46.000Z</time>
      </trkpt>
      <trkpt lat="42.92541" lon="1.00523">
        <ele>531</ele>
        <time>2019-08-08T11:13:47.000Z</time>
      </trkpt>
      <trkpt lat="42.9254" lon="1.00534">
        <ele>530</ele>
        <time>2019-08-08T11:13:48.000Z</time>
      </trkpt>
      <trkpt lat="42.9254" lon="1.00545">
        <ele>530</ele>
        <time>2019-08-08T11:13:49.000Z</time>
      </trkpt>
      <trkpt lat="42.92539" lon="1.00557">
        <ele>529</ele>
        <time>2019-08-08T11:13:50.000Z</time>
      </trkpt>
      <trkpt lat="42.92539" lon="1.00569">
        <ele>529</ele>
        <time>2019-08-08T11:13:51.000Z</time>
      </trkpt>
      <trkpt lat="42.92539" lon="1.00581">
        <ele>529</ele>
        <time>2019-08-08T11:13:52.000Z</time>
      </trkpt>
      <trkpt lat="42.92539" lon="1.00593">
        <ele>529</ele>
        <time>2019-08-08T11:13:53.000Z</time>
      </trkpt>
      <trkpt lat="42.92539" lon="1.00604">
        <ele>528</ele>
        <time>2019-08-08T11:13:54.000Z</time>
      </trkpt>
      <trkpt lat="42.92539" lon="1.00616">
        <ele>528</ele>
        <time>2019-08-08T11:13:55.000Z</time>
      </trkpt>
      <trkpt lat="42.92539" lon="1.00628">
        <ele>528</ele>
        <time>2019-08-08T11:13:56.000Z</time>
      </trkpt>
      <trkpt lat="42.9254" lon="1.00646">
        <ele>528</ele>
        <time>2019-08-08T11:13:57.000Z</time>
      </trkpt>
      <trkpt lat="42.9254" lon="1.00652">
        <ele>527</ele>
        <time>2019-08-08T11:13:58.000Z</time>
      </trkpt>
      <trkpt lat="42.92541" lon="1.00664">
        <ele>527</ele>
        <time>2019-08-08T11:13:59.000Z</time>
      </trkpt>
      <trkpt lat="42.92541" lon="1.00675">
        <ele>527</ele>
        <time>2019-08-08T11:14:00.000Z</time>
      </trkpt>
      <trkpt lat="42.92542" lon="1.00687">
        <ele>527</ele>
        <time>2019-08-08T11:14:01.000Z</time>
      </trkpt>
      <trkpt lat="42.92543" lon="1.00699">
        <ele>527</ele>
        <time>2019-08-08T11:14:02.000Z</time>
      </trkpt>
      <trkpt lat="42.92544" lon="1.00711">
        <ele>527</ele>
        <time>2019-08-08T11:14:03.000Z</time>
      </trkpt>
      <trkpt lat="42.92545" lon="1.00722">
        <ele>528</ele>
        <time>2019-08-08T11:14:04.000Z</time>
      </trkpt>
      <trkpt lat="42.92546" lon="1.00734">
        <ele>528</ele>
        <time>2019-08-08T11:14:05.000Z</time>
      </trkpt>
      <trkpt lat="42.92546" lon="1.00746">
        <ele>528</ele>
        <time>2019-08-08T11:14:06.000Z</time>
      </trkpt>
      <trkpt lat="42.92547" lon="1.00757">
        <ele>528</ele>
        <time>2019-08-08T11:14:07.000Z</time>
      </trkpt>
      <trkpt lat="42.92548" lon="1.00769">
        <ele>528</ele>
        <time>2019-08-08T11:14:08.000Z</time>
      </trkpt>
      <trkpt lat="42.92549" lon="1.0078">
        <ele>528</ele>
        <time>2019-08-08T11:14:09.000Z</time>
      </trkpt>
      <trkpt lat="42.9255" lon="1.00791">
        <ele>527</ele>
        <time>2019-08-08T11:14:10.000Z</time>
      </trkpt>
      <trkpt lat="42.92551" lon="1.00802">
        <ele>527</ele>
        <time>2019-08-08T11:14:11.000Z</time>
      </trkpt>
      <trkpt lat="42.92551" lon="1.00813">
        <ele>527</ele>
        <time>2019-08-08T11:14:12.000Z</time>
      </trkpt>
      <trkpt lat="42.92553" lon="1.0083">
        <ele>527</ele>
        <time>2019-08-08T11:14:13.000Z</time>
      </trkpt>
      <trkpt lat="42.92553" lon="1.00835">
        <ele>527</ele>
        <time>2019-08-08T11:14:14.000Z</time>
      </trkpt>
      <trkpt lat="42.92554" lon="1.00846">
        <ele>527</ele>
        <time>2019-08-08T11:14:15.000Z</time>
      </trkpt>
      <trkpt lat="42.92555" lon="1.00857">
        <ele>527</ele>
        <time>2019-08-08T11:14:16.000Z</time>
      </trkpt>
      <trkpt lat="42.92556" lon="1.00868">
        <ele>527</ele>
        <time>2019-08-08T11:14:17.000Z</time>
      </trkpt>
      <trkpt lat="42.92556" lon="1.00879">
        <ele>527</ele>
        <time>2019-08-08T11:14:18.000Z</time>
      </trkpt>
      <trkpt lat="42.92557" lon="1.00891">
        <ele>526</ele>
        <time>2019-08-08T11:14:19.000Z</time>
      </trkpt>
      <trkpt lat="42.92558" lon="1.00901">
        <ele>526</ele>
        <time>2019-08-08T11:14:20.000Z</time>
      </trkpt>
      <trkpt lat="42.92559" lon="1.00912">
        <ele>526</ele>
        <time>2019-08-08T11:14:21.000Z</time>
      </trkpt>
      <trkpt lat="42.92559" lon="1.00922">
        <ele>526</ele>
        <time>2019-08-08T11:14:22.000Z</time>
      </trkpt>
      <trkpt lat="42.9256" lon="1.00933">
        <ele>526</ele>
        <time>2019-08-08T11:14:23.000Z</time>
      </trkpt>
      <trkpt lat="42.92561" lon="1.00944">
        <ele>526</ele>
        <time>2019-08-08T11:14:24.000Z</time>
      </trkpt>
      <trkpt lat="42.92562" lon="1.00955">
        <ele>526</ele>
        <time>2019-08-08T11:14:25.000Z</time>
      </trkpt>
      <trkpt lat="42.92563" lon="1.00967">
        <ele>525</ele>
        <time>2019-08-08T11:14:26.000Z</time>
      </trkpt>
      <trkpt lat="42.92563" lon="1.00978">
        <ele>525</ele>
        <time>2019-08-08T11:14:27.000Z</time>
      </trkpt>
      <trkpt lat="42.92564" lon="1.00989">
        <ele>525</ele>
        <time>2019-08-08T11:14:28.000Z</time>
      </trkpt>
      <trkpt lat="42.92565" lon="1.00999">
        <ele>525</ele>
        <time>2019-08-08T11:14:29.000Z</time>
      </trkpt>
      <trkpt lat="42.92566" lon="1.0101">
        <ele>525</ele>
        <time>2019-08-08T11:14:30.000Z</time>
      </trkpt>
      <trkpt lat="42.92567" lon="1.01021">
        <ele>525</ele>
        <time>2019-08-08T11:14:31.000Z</time>
      </trkpt>
      <trkpt lat="42.92567" lon="1.01032">
        <ele>525</ele>
        <time>2019-08-08T11:14:32.000Z</time>
      </trkpt>
      <trkpt lat="42.92568" lon="1.01043">
        <ele>525</ele>
        <time>2019-08-08T11:14:33.000Z</time>
      </trkpt>
      <trkpt lat="42.92569" lon="1.01054">
        <ele>525</ele>
        <time>2019-08-08T11:14:34.000Z</time>
      </trkpt>
      <trkpt lat="42.92571" lon="1.01065">
        <ele>525</ele>
        <time>2019-08-08T11:14:35.000Z</time>
      </trkpt>
      <trkpt lat="42.92573" lon="1.01076">
        <ele>524</ele>
        <time>2019-08-08T11:14:36.000Z</time>
      </trkpt>
      <trkpt lat="42.92574" lon="1.01087">
        <ele>524</ele>
        <time>2019-08-08T11:14:37.000Z</time>
      </trkpt>
      <trkpt lat="42.92576" lon="1.01097">
        <ele>524</ele>
        <time>2019-08-08T11:14:38.000Z</time>
      </trkpt>
      <trkpt lat="42.92578" lon="1.01108">
        <ele>524</ele>
        <time>2019-08-08T11:14:39.000Z</time>
      </trkpt>
      <trkpt lat="42.9258" lon="1.01119">
        <ele>524</ele>
        <time>2019-08-08T11:14:40.000Z</time>
      </trkpt>
      <trkpt lat="42.92583" lon="1.01129">
        <ele>524</ele>
        <time>2019-08-08T11:14:41.000Z</time>
      </trkpt>
      <trkpt lat="42.92585" lon="1.0114">
        <ele>523</ele>
        <time>2019-08-08T11:14:42.000Z</time>
      </trkpt>
      <trkpt lat="42.92587" lon="1.0115">
        <ele>523</ele>
        <time>2019-08-08T11:14:43.000Z</time>
      </trkpt>
      <trkpt lat="42.92589" lon="1.01161">
        <ele>523</ele>
        <time>2019-08-08T11:14:44.000Z</time>
      </trkpt>
      <trkpt lat="42.92591" lon="1.01172">
        <ele>523</ele>
        <time>2019-08-08T11:14:45.000Z</time>
      </trkpt>
      <trkpt lat="42.92595" lon="1.01188">
        <ele>523</ele>
        <time>2019-08-08T11:14:46.000Z</time>
      </trkpt>
      <trkpt lat="42.92596" lon="1.01193">
        <ele>523</ele>
        <time>2019-08-08T11:14:47.000Z</time>
      </trkpt>
      <trkpt lat="42.92598" lon="1.01204">
        <ele>523</ele>
        <time>2019-08-08T11:14:48.000Z</time>
      </trkpt>
      <trkpt lat="42.92601" lon="1.01215">
        <ele>523</ele>
        <time>2019-08-08T11:14:49.000Z</time>
      </trkpt>
      <trkpt lat="42.92604" lon="1.01225">
        <ele>523</ele>
        <time>2019-08-08T11:14:50.000Z</time>
      </trkpt>
      <trkpt lat="42.92609" lon="1.0124">
        <ele>523</ele>
        <time>2019-08-08T11:14:51.000Z</time>
      </trkpt>
      <trkpt lat="42.92611" lon="1.01246">
        <ele>522</ele>
        <time>2019-08-08T11:14:52.000Z</time>
      </trkpt>
      <trkpt lat="42.92614" lon="1.01256">
        <ele>522</ele>
        <time>2019-08-08T11:14:53.000Z</time>
      </trkpt>
      <trkpt lat="42.92617" lon="1.01266">
        <ele>522</ele>
        <time>2019-08-08T11:14:54.000Z</time>
      </trkpt>
      <trkpt lat="42.92621" lon="1.01276">
        <ele>522</ele>
        <time>2019-08-08T11:14:55.000Z</time>
      </trkpt>
      <trkpt lat="42.92624" lon="1.01286">
        <ele>522</ele>
        <time>2019-08-08T11:14:56.000Z</time>
      </trkpt>
      <trkpt lat="42.92628" lon="1.01296">
        <ele>522</ele>
        <time>2019-08-08T11:14:57.000Z</time>
      </trkpt>
      <trkpt lat="42.92632" lon="1.01305">
        <ele>522</ele>
        <time>2019-08-08T11:14:58.000Z</time>
      </trkpt>
      <trkpt lat="42.92635" lon="1.01315">
        <ele>522</ele>
        <time>2019-08-08T11:14:59.000Z</time>
      </trkpt>
      <trkpt lat="42.92639" lon="1.01325">
        <ele>522</ele>
        <time>2019-08-08T11:15:00.000Z</time>
      </trkpt>
      <trkpt lat="42.92643" lon="1.01335">
        <ele>521</ele>
        <time>2019-08-08T11:15:01.000Z</time>
      </trkpt>
      <trkpt lat="42.92646" lon="1.01345">
        <ele>521</ele>
        <time>2019-08-08T11:15:02.000Z</time>
      </trkpt>
      <trkpt lat="42.92649" lon="1.01355">
        <ele>521</ele>
        <time>2019-08-08T11:15:03.000Z</time>
      </trkpt>
      <trkpt lat="42.92652" lon="1.01365">
        <ele>521</ele>
        <time>2019-08-08T11:15:04.000Z</time>
      </trkpt>
      <trkpt lat="42.92655" lon="1.01375">
        <ele>521</ele>
        <time>2019-08-08T11:15:05.000Z</time>
      </trkpt>
      <trkpt lat="42.92659" lon="1.01385">
        <ele>521</ele>
        <time>2019-08-08T11:15:06.000Z</time>
      </trkpt>
      <trkpt lat="42.92662" lon="1.01394">
        <ele>521</ele>
        <time>2019-08-08T11:15:07.000Z</time>
      </trkpt>
      <trkpt lat="42.92666" lon="1.01404">
        <ele>521</ele>
        <time>2019-08-08T11:15:08.000Z</time>
      </trkpt>
      <trkpt lat="42.92669" lon="1.01413">
        <ele>521</ele>
        <time>2019-08-08T11:15:09.000Z</time>
      </trkpt>
      <trkpt lat="42.92676" lon="1.01427">
        <ele>521</ele>
        <time>2019-08-08T11:15:10.000Z</time>
      </trkpt>
      <trkpt lat="42.92678" lon="1.01431">
        <ele>521</ele>
        <time>2019-08-08T11:15:11.000Z</time>
      </trkpt>
      <trkpt lat="42.92682" lon="1.0144">
        <ele>521</ele>
        <time>2019-08-08T11:15:12.000Z</time>
      </trkpt>
      <trkpt lat="42.92687" lon="1.01449">
        <ele>521</ele>
        <time>2019-08-08T11:15:13.000Z</time>
      </trkpt>
      <trkpt lat="42.92691" lon="1.01458">
        <ele>521</ele>
        <time>2019-08-08T11:15:14.000Z</time>
      </trkpt>
      <trkpt lat="42.92696" lon="1.01467">
        <ele>521</ele>
        <time>2019-08-08T11:15:15.000Z</time>
      </trkpt>
      <trkpt lat="42.92701" lon="1.01475">
        <ele>521</ele>
        <time>2019-08-08T11:15:16.000Z</time>
      </trkpt>
      <trkpt lat="42.92707" lon="1.01484">
        <ele>521</ele>
        <time>2019-08-08T11:15:17.000Z</time>
      </trkpt>
      <trkpt lat="42.92712" lon="1.01492">
        <ele>521</ele>
        <time>2019-08-08T11:15:18.000Z</time>
      </trkpt>
      <trkpt lat="42.92717" lon="1.01501">
        <ele>520</ele>
        <time>2019-08-08T11:15:19.000Z</time>
      </trkpt>
      <trkpt lat="42.92723" lon="1.0151">
        <ele>520</ele>
        <time>2019-08-08T11:15:20.000Z</time>
      </trkpt>
      <trkpt lat="42.92728" lon="1.01519">
        <ele>520</ele>
        <time>2019-08-08T11:15:21.000Z</time>
      </trkpt>
      <trkpt lat="42.92732" lon="1.01528">
        <ele>520</ele>
        <time>2019-08-08T11:15:22.000Z</time>
      </trkpt>
      <trkpt lat="42.92737" lon="1.01538">
        <ele>520</ele>
        <time>2019-08-08T11:15:23.000Z</time>
      </trkpt>
      <trkpt lat="42.9274" lon="1.01548">
        <ele>520</ele>
        <time>2019-08-08T11:15:24.000Z</time>
      </trkpt>
      <trkpt lat="42.92743" lon="1.01559">
        <ele>519</ele>
        <time>2019-08-08T11:15:25.000Z</time>
      </trkpt>
      <trkpt lat="42.92746" lon="1.01569">
        <ele>519</ele>
        <time>2019-08-08T11:15:26.000Z</time>
      </trkpt>
      <trkpt lat="42.92748" lon="1.0158">
        <ele>519</ele>
        <time>2019-08-08T11:15:27.000Z</time>
      </trkpt>
      <trkpt lat="42.92748" lon="1.01591">
        <ele>519</ele>
        <time>2019-08-08T11:15:28.000Z</time>
      </trkpt>
      <trkpt lat="42.92748" lon="1.01602">
        <ele>520</ele>
        <time>2019-08-08T11:15:29.000Z</time>
      </trkpt>
      <trkpt lat="42.92746" lon="1.01613">
        <ele>520</ele>
        <time>2019-08-08T11:15:30.000Z</time>
      </trkpt>
      <trkpt lat="42.92744" lon="1.01623">
        <ele>520</ele>
        <time>2019-08-08T11:15:31.000Z</time>
      </trkpt>
      <trkpt lat="42.92741" lon="1.01633">
        <ele>520</ele>
        <time>2019-08-08T11:15:32.000Z</time>
      </trkpt>
      <trkpt lat="42.92738" lon="1.01642">
        <ele>520</ele>
        <time>2019-08-08T11:15:33.000Z</time>
      </trkpt>
      <trkpt lat="42.92734" lon="1.0165">
        <ele>520</ele>
        <time>2019-08-08T11:15:34.000Z</time>
      </trkpt>
      <trkpt lat="42.9273" lon="1.01658">
        <ele>520</ele>
        <time>2019-08-08T11:15:35.000Z</time>
      </trkpt>
      <trkpt lat="42.92726" lon="1.01666">
        <ele>520</ele>
        <time>2019-08-08T11:15:36.000Z</time>
      </trkpt>
      <trkpt lat="42.92721" lon="1.01674">
        <ele>520</ele>
        <time>2019-08-08T11:15:37.000Z</time>
      </trkpt>
      <trkpt lat="42.92717" lon="1.01681">
        <ele>520</ele>
        <time>2019-08-08T11:15:38.000Z</time>
      </trkpt>
      <trkpt lat="42.92712" lon="1.01688">
        <ele>520</ele>
        <time>2019-08-08T11:15:39.000Z</time>
      </trkpt>
      <trkpt lat="42.92709" lon="1.01696">
        <ele>520</ele>
        <time>2019-08-08T11:15:40.000Z</time>
      </trkpt>
      <trkpt lat="42.92705" lon="1.01704">
        <ele>520</ele>
        <time>2019-08-08T11:15:41.000Z</time>
      </trkpt>
      <trkpt lat="42.927" lon="1.01712">
        <ele>520</ele>
        <time>2019-08-08T11:15:42.000Z</time>
      </trkpt>
      <trkpt lat="42.92697" lon="1.01721">
        <ele>520</ele>
        <time>2019-08-08T11:15:43.000Z</time>
      </trkpt>
      <trkpt lat="42.92693" lon="1.01731">
        <ele>520</ele>
        <time>2019-08-08T11:15:44.000Z</time>
      </trkpt>
      <trkpt lat="42.9269" lon="1.0174">
        <ele>519</ele>
        <time>2019-08-08T11:15:45.000Z</time>
      </trkpt>
      <trkpt lat="42.92687" lon="1.0175">
        <ele>519</ele>
        <time>2019-08-08T11:15:46.000Z</time>
      </trkpt>
      <trkpt lat="42.92684" lon="1.01761">
        <ele>519</ele>
        <time>2019-08-08T11:15:47.000Z</time>
      </trkpt>
      <trkpt lat="42.92679" lon="1.01775">
        <ele>519</ele>
        <time>2019-08-08T11:15:48.000Z</time>
      </trkpt>
      <trkpt lat="42.92678" lon="1.0178">
        <ele>519</ele>
        <time>2019-08-08T11:15:49.000Z</time>
      </trkpt>
      <trkpt lat="42.92675" lon="1.0179">
        <ele>519</ele>
        <time>2019-08-08T11:15:50.000Z</time>
      </trkpt>
      <trkpt lat="42.92672" lon="1.01799">
        <ele>519</ele>
        <time>2019-08-08T11:15:51.000Z</time>
      </trkpt>
      <trkpt lat="42.92669" lon="1.01809">
        <ele>519</ele>
        <time>2019-08-08T11:15:52.000Z</time>
      </trkpt>
      <trkpt lat="42.92666" lon="1.01824">
        <ele>519</ele>
        <time>2019-08-08T11:15:53.000Z</time>
      </trkpt>
      <trkpt lat="42.92665" lon="1.01829">
        <ele>519</ele>
        <time>2019-08-08T11:15:54.000Z</time>
      </trkpt>
      <trkpt lat="42.92662" lon="1.01839">
        <ele>519</ele>
        <time>2019-08-08T11:15:55.000Z</time>
      </trkpt>
      <trkpt lat="42.92661" lon="1.01849">
        <ele>518</ele>
        <time>2019-08-08T11:15:56.000Z</time>
      </trkpt>
      <trkpt lat="42.9266" lon="1.0186">
        <ele>518</ele>
        <time>2019-08-08T11:15:57.000Z</time>
      </trkpt>
      <trkpt lat="42.9266" lon="1.01871">
        <ele>518</ele>
        <time>2019-08-08T11:15:58.000Z</time>
      </trkpt>
      <trkpt lat="42.9266" lon="1.01882">
        <ele>518</ele>
        <time>2019-08-08T11:15:59.000Z</time>
      </trkpt>
      <trkpt lat="42.9266" lon="1.01892">
        <ele>518</ele>
        <time>2019-08-08T11:16:00.000Z</time>
      </trkpt>
      <trkpt lat="42.92661" lon="1.01903">
        <ele>518</ele>
        <time>2019-08-08T11:16:01.000Z</time>
      </trkpt>
      <trkpt lat="42.92662" lon="1.01914">
        <ele>518</ele>
        <time>2019-08-08T11:16:02.000Z</time>
      </trkpt>
      <trkpt lat="42.92663" lon="1.01925">
        <ele>518</ele>
        <time>2019-08-08T11:16:03.000Z</time>
      </trkpt>
      <trkpt lat="42.92664" lon="1.01936">
        <ele>518</ele>
        <time>2019-08-08T11:16:04.000Z</time>
      </trkpt>
      <trkpt lat="42.92664" lon="1.01947">
        <ele>518</ele>
        <time>2019-08-08T11:16:05.000Z</time>
      </trkpt>
      <trkpt lat="42.92665" lon="1.01958">
        <ele>517</ele>
        <time>2019-08-08T11:16:06.000Z</time>
      </trkpt>
      <trkpt lat="42.92667" lon="1.01974">
        <ele>517</ele>
        <time>2019-08-08T11:16:07.000Z</time>
      </trkpt>
      <trkpt lat="42.92667" lon="1.01979">
        <ele>517</ele>
        <time>2019-08-08T11:16:08.000Z</time>
      </trkpt>
      <trkpt lat="42.92668" lon="1.01989">
        <ele>517</ele>
        <time>2019-08-08T11:16:09.000Z</time>
      </trkpt>
      <trkpt lat="42.92669" lon="1.02">
        <ele>517</ele>
        <time>2019-08-08T11:16:10.000Z</time>
      </trkpt>
      <trkpt lat="42.9267" lon="1.0201">
        <ele>517</ele>
        <time>2019-08-08T11:16:11.000Z</time>
      </trkpt>
      <trkpt lat="42.92671" lon="1.0202">
        <ele>517</ele>
        <time>2019-08-08T11:16:12.000Z</time>
      </trkpt>
      <trkpt lat="42.92672" lon="1.0203">
        <ele>517</ele>
        <time>2019-08-08T11:16:13.000Z</time>
      </trkpt>
      <trkpt lat="42.92674" lon="1.0204">
        <ele>517</ele>
        <time>2019-08-08T11:16:14.000Z</time>
      </trkpt>
      <trkpt lat="42.92676" lon="1.0205">
        <ele>517</ele>
        <time>2019-08-08T11:16:15.000Z</time>
      </trkpt>
      <trkpt lat="42.92678" lon="1.02059">
        <ele>517</ele>
        <time>2019-08-08T11:16:16.000Z</time>
      </trkpt>
      <trkpt lat="42.92681" lon="1.02069">
        <ele>517</ele>
        <time>2019-08-08T11:16:17.000Z</time>
      </trkpt>
      <trkpt lat="42.92685" lon="1.02078">
        <ele>517</ele>
        <time>2019-08-08T11:16:18.000Z</time>
      </trkpt>
      <trkpt lat="42.92688" lon="1.02086">
        <ele>517</ele>
        <time>2019-08-08T11:16:19.000Z</time>
      </trkpt>
      <trkpt lat="42.92692" lon="1.02095">
        <ele>517</ele>
        <time>2019-08-08T11:16:20.000Z</time>
      </trkpt>
      <trkpt lat="42.92696" lon="1.02103">
        <ele>518</ele>
        <time>2019-08-08T11:16:21.000Z</time>
      </trkpt>
      <trkpt lat="42.92701" lon="1.02111">
        <ele>518</ele>
        <time>2019-08-08T11:16:22.000Z</time>
      </trkpt>
      <trkpt lat="42.92705" lon="1.02119">
        <ele>518</ele>
        <time>2019-08-08T11:16:23.000Z</time>
      </trkpt>
      <trkpt lat="42.9271" lon="1.02126">
        <ele>518</ele>
        <time>2019-08-08T11:16:24.000Z</time>
      </trkpt>
      <trkpt lat="42.92714" lon="1.02134">
        <ele>517</ele>
        <time>2019-08-08T11:16:25.000Z</time>
      </trkpt>
      <trkpt lat="42.92718" lon="1.02142">
        <ele>517</ele>
        <time>2019-08-08T11:16:26.000Z</time>
      </trkpt>
      <trkpt lat="42.92724" lon="1.02153">
        <ele>518</ele>
        <time>2019-08-08T11:16:27.000Z</time>
      </trkpt>
      <trkpt lat="42.92727" lon="1.02157">
        <ele>518</ele>
        <time>2019-08-08T11:16:28.000Z</time>
      </trkpt>
      <trkpt lat="42.92731" lon="1.02164">
        <ele>518</ele>
        <time>2019-08-08T11:16:29.000Z</time>
      </trkpt>
      <trkpt lat="42.92735" lon="1.02171">
        <ele>518</ele>
        <time>2019-08-08T11:16:30.000Z</time>
      </trkpt>
      <trkpt lat="42.92739" lon="1.02179">
        <ele>518</ele>
        <time>2019-08-08T11:16:31.000Z</time>
      </trkpt>
      <trkpt lat="42.92743" lon="1.02186">
        <ele>518</ele>
        <time>2019-08-08T11:16:32.000Z</time>
      </trkpt>
      <trkpt lat="42.92748" lon="1.02193">
        <ele>518</ele>
        <time>2019-08-08T11:16:33.000Z</time>
      </trkpt>
      <trkpt lat="42.92752" lon="1.02201">
        <ele>518</ele>
        <time>2019-08-08T11:16:34.000Z</time>
      </trkpt>
      <trkpt lat="42.92756" lon="1.02208">
        <ele>518</ele>
        <time>2019-08-08T11:16:35.000Z</time>
      </trkpt>
      <trkpt lat="42.9276" lon="1.02215">
        <ele>518</ele>
        <time>2019-08-08T11:16:36.000Z</time>
      </trkpt>
      <trkpt lat="42.92764" lon="1.02222">
        <ele>518</ele>
        <time>2019-08-08T11:16:37.000Z</time>
      </trkpt>
      <trkpt lat="42.92769" lon="1.02229">
        <ele>518</ele>
        <time>2019-08-08T11:16:38.000Z</time>
      </trkpt>
      <trkpt lat="42.92773" lon="1.02236">
        <ele>518</ele>
        <time>2019-08-08T11:16:39.000Z</time>
      </trkpt>
      <trkpt lat="42.92777" lon="1.02243">
        <ele>519</ele>
        <time>2019-08-08T11:16:40.000Z</time>
      </trkpt>
      <trkpt lat="42.92781" lon="1.0225">
        <ele>519</ele>
        <time>2019-08-08T11:16:41.000Z</time>
      </trkpt>
      <trkpt lat="42.92785" lon="1.02258">
        <ele>519</ele>
        <time>2019-08-08T11:16:42.000Z</time>
      </trkpt>
      <trkpt lat="42.92789" lon="1.02265">
        <ele>519</ele>
        <time>2019-08-08T11:16:43.000Z</time>
      </trkpt>
      <trkpt lat="42.92792" lon="1.02273">
        <ele>519</ele>
        <time>2019-08-08T11:16:44.000Z</time>
      </trkpt>
      <trkpt lat="42.92795" lon="1.02281">
        <ele>519</ele>
        <time>2019-08-08T11:16:45.000Z</time>
      </trkpt>
      <trkpt lat="42.92798" lon="1.02289">
        <ele>519</ele>
        <time>2019-08-08T11:16:46.000Z</time>
      </trkpt>
      <trkpt lat="42.92801" lon="1.02297">
        <ele>519</ele>
        <time>2019-08-08T11:16:47.000Z</time>
      </trkpt>
      <trkpt lat="42.92804" lon="1.02306">
        <ele>518</ele>
        <time>2019-08-08T11:16:48.000Z</time>
      </trkpt>
      <trkpt lat="42.92805" lon="1.02315">
        <ele>518</ele>
        <time>2019-08-08T11:16:49.000Z</time>
      </trkpt>
      <trkpt lat="42.92806" lon="1.02325">
        <ele>518</ele>
        <time>2019-08-08T11:16:50.000Z</time>
      </trkpt>
      <trkpt lat="42.92807" lon="1.02334">
        <ele>518</ele>
        <time>2019-08-08T11:16:51.000Z</time>
      </trkpt>
      <trkpt lat="42.92807" lon="1.02344">
        <ele>518</ele>
        <time>2019-08-08T11:16:52.000Z</time>
      </trkpt>
      <trkpt lat="42.92807" lon="1.02353">
        <ele>518</ele>
        <time>2019-08-08T11:16:53.000Z</time>
      </trkpt>
      <trkpt lat="42.92805" lon="1.02363">
        <ele>517</ele>
        <time>2019-08-08T11:16:54.000Z</time>
      </trkpt>
      <trkpt lat="42.92804" lon="1.02373">
        <ele>517</ele>
        <time>2019-08-08T11:16:55.000Z</time>
      </trkpt>
      <trkpt lat="42.92802" lon="1.02382">
        <ele>517</ele>
        <time>2019-08-08T11:16:56.000Z</time>
      </trkpt>
      <trkpt lat="42.928" lon="1.02392">
        <ele>517</ele>
        <time>2019-08-08T11:16:57.000Z</time>
      </trkpt>
      <trkpt lat="42.92797" lon="1.02402">
        <ele>517</ele>
        <time>2019-08-08T11:16:58.000Z</time>
      </trkpt>
      <trkpt lat="42.92793" lon="1.02411">
        <ele>517</ele>
        <time>2019-08-08T11:16:59.000Z</time>
      </trkpt>
      <trkpt lat="42.92788" lon="1.02426">
        <ele>517</ele>
        <time>2019-08-08T11:17:00.000Z</time>
      </trkpt>
      <trkpt lat="42.92787" lon="1.02432">
        <ele>517</ele>
        <time>2019-08-08T11:17:01.000Z</time>
      </trkpt>
      <trkpt lat="42.92783" lon="1.02442">
        <ele>516</ele>
        <time>2019-08-08T11:17:02.000Z</time>
      </trkpt>
      <trkpt lat="42.92781" lon="1.02452">
        <ele>516</ele>
        <time>2019-08-08T11:17:03.000Z</time>
      </trkpt>
      <trkpt lat="42.9278" lon="1.02463">
        <ele>515</ele>
        <time>2019-08-08T11:17:04.000Z</time>
      </trkpt>
      <trkpt lat="42.9278" lon="1.02474">
        <ele>515</ele>
        <time>2019-08-08T11:17:05.000Z</time>
      </trkpt>
      <trkpt lat="42.92781" lon="1.02485">
        <ele>515</ele>
        <time>2019-08-08T11:17:06.000Z</time>
      </trkpt>
      <trkpt lat="42.92781" lon="1.02495">
        <ele>515</ele>
        <time>2019-08-08T11:17:07.000Z</time>
      </trkpt>
      <trkpt lat="42.92782" lon="1.02505">
        <ele>515</ele>
        <time>2019-08-08T11:17:08.000Z</time>
      </trkpt>
      <trkpt lat="42.92782" lon="1.02515">
        <ele>514</ele>
        <time>2019-08-08T11:17:09.000Z</time>
      </trkpt>
      <trkpt lat="42.92782" lon="1.02525">
        <ele>514</ele>
        <time>2019-08-08T11:17:10.000Z</time>
      </trkpt>
      <trkpt lat="42.92782" lon="1.02534">
        <ele>514</ele>
        <time>2019-08-08T11:17:11.000Z</time>
      </trkpt>
      <trkpt lat="42.92783" lon="1.02543">
        <ele>514</ele>
        <time>2019-08-08T11:17:12.000Z</time>
      </trkpt>
      <trkpt lat="42.92784" lon="1.02552">
        <ele>514</ele>
        <time>2019-08-08T11:17:13.000Z</time>
      </trkpt>
      <trkpt lat="42.92785" lon="1.0256">
        <ele>514</ele>
        <time>2019-08-08T11:17:14.000Z</time>
      </trkpt>
      <trkpt lat="42.92786" lon="1.02569">
        <ele>514</ele>
        <time>2019-08-08T11:17:15.000Z</time>
      </trkpt>
      <trkpt lat="42.92787" lon="1.02578">
        <ele>514</ele>
        <time>2019-08-08T11:17:16.000Z</time>
      </trkpt>
      <trkpt lat="42.92789" lon="1.02591">
        <ele>514</ele>
        <time>2019-08-08T11:17:17.000Z</time>
      </trkpt>
      <trkpt lat="42.9279" lon="1.02595">
        <ele>514</ele>
        <time>2019-08-08T11:17:18.000Z</time>
      </trkpt>
      <trkpt lat="42.92792" lon="1.02604">
        <ele>514</ele>
        <time>2019-08-08T11:17:19.000Z</time>
      </trkpt>
      <trkpt lat="42.92794" lon="1.02612">
        <ele>513</ele>
        <time>2019-08-08T11:17:20.000Z</time>
      </trkpt>
      <trkpt lat="42.92797" lon="1.0262">
        <ele>513</ele>
        <time>2019-08-08T11:17:21.000Z</time>
      </trkpt>
      <trkpt lat="42.92799" lon="1.02628">
        <ele>514</ele>
        <time>2019-08-08T11:17:22.000Z</time>
      </trkpt>
      <trkpt lat="42.92801" lon="1.02637">
        <ele>514</ele>
        <time>2019-08-08T11:17:23.000Z</time>
      </trkpt>
      <trkpt lat="42.92804" lon="1.02648">
        <ele>514</ele>
        <time>2019-08-08T11:17:24.000Z</time>
      </trkpt>
      <trkpt lat="42.92805" lon="1.02652">
        <ele>515</ele>
        <time>2019-08-08T11:17:25.000Z</time>
      </trkpt>
      <trkpt lat="42.92807" lon="1.0266">
        <ele>515</ele>
        <time>2019-08-08T11:17:26.000Z</time>
      </trkpt>
      <trkpt lat="42.92809" lon="1.02668">
        <ele>516</ele>
        <time>2019-08-08T11:17:27.000Z</time>
      </trkpt>
      <trkpt lat="42.92811" lon="1.02675">
        <ele>516</ele>
        <time>2019-08-08T11:17:28.000Z</time>
      </trkpt>
      <trkpt lat="42.92813" lon="1.02683">
        <ele>516</ele>
        <time>2019-08-08T11:17:29.000Z</time>
      </trkpt>
      <trkpt lat="42.92815" lon="1.0269">
        <ele>516</ele>
        <time>2019-08-08T11:17:30.000Z</time>
      </trkpt>
      <trkpt lat="42.92816" lon="1.02697">
        <ele>518</ele>
        <time>2019-08-08T11:17:31.000Z</time>
      </trkpt>
      <trkpt lat="42.92818" lon="1.02704">
        <ele>518</ele>
        <time>2019-08-08T11:17:32.000Z</time>
      </trkpt>
      <trkpt lat="42.92819" lon="1.0271">
        <ele>518</ele>
        <time>2019-08-08T11:17:33.000Z</time>
      </trkpt>
      <trkpt lat="42.92821" lon="1.02716">
        <ele>518</ele>
        <time>2019-08-08T11:17:34.000Z</time>
      </trkpt>
      <trkpt lat="42.92823" lon="1.02722">
        <ele>518</ele>
        <time>2019-08-08T11:17:35.000Z</time>
      </trkpt>
      <trkpt lat="42.92825" lon="1.02728">
        <ele>518</ele>
        <time>2019-08-08T11:17:36.000Z</time>
      </trkpt>
      <trkpt lat="42.92826" lon="1.02733">
        <ele>519</ele>
        <time>2019-08-08T11:17:37.000Z</time>
      </trkpt>
      <trkpt lat="42.92827" lon="1.02738">
        <ele>519</ele>
        <time>2019-08-08T11:17:38.000Z</time>
      </trkpt>
      <trkpt lat="42.92828" lon="1.02743">
        <ele>519</ele>
        <time>2019-08-08T11:17:39.000Z</time>
      </trkpt>
      <trkpt lat="42.92829" lon="1.02748">
        <ele>519</ele>
        <time>2019-08-08T11:17:40.000Z</time>
      </trkpt>
      <trkpt lat="42.9283" lon="1.02753">
        <ele>519</ele>
        <time>2019-08-08T11:17:41.000Z</time>
      </trkpt>
      <trkpt lat="42.92831" lon="1.02758">
        <ele>519</ele>
        <time>2019-08-08T11:17:42.000Z</time>
      </trkpt>
      <trkpt lat="42.92832" lon="1.02763">
        <ele>520</ele>
        <time>2019-08-08T11:17:43.000Z</time>
      </trkpt>
      <trkpt lat="42.92833" lon="1.02768">
        <ele>520</ele>
        <time>2019-08-08T11:17:44.000Z</time>
      </trkpt>
      <trkpt lat="42.92834" lon="1.02773">
        <ele>521</ele>
        <time>2019-08-08T11:17:45.000Z</time>
      </trkpt>
      <trkpt lat="42.92835" lon="1.02778">
        <ele>521</ele>
        <time>2019-08-08T11:17:46.000Z</time>
      </trkpt>
      <trkpt lat="42.92836" lon="1.02783">
        <ele>521</ele>
        <time>2019-08-08T11:17:47.000Z</time>
      </trkpt>
      <trkpt lat="42.92838" lon="1.02788">
        <ele>521</ele>
        <time>2019-08-08T11:17:48.000Z</time>
      </trkpt>
      <trkpt lat="42.92839" lon="1.02793">
        <ele>521</ele>
        <time>2019-08-08T11:17:49.000Z</time>
      </trkpt>
      <trkpt lat="42.9284" lon="1.02798">
        <ele>521</ele>
        <time>2019-08-08T11:17:50.000Z</time>
      </trkpt>
      <trkpt lat="42.92841" lon="1.02803">
        <ele>521</ele>
        <time>2019-08-08T11:17:51.000Z</time>
      </trkpt>
      <trkpt lat="42.92842" lon="1.02807">
        <ele>521</ele>
        <time>2019-08-08T11:17:52.000Z</time>
      </trkpt>
      <trkpt lat="42.92843" lon="1.02812">
        <ele>522</ele>
        <time>2019-08-08T11:17:53.000Z</time>
      </trkpt>
      <trkpt lat="42.92844" lon="1.02816">
        <ele>522</ele>
        <time>2019-08-08T11:17:54.000Z</time>
      </trkpt>
      <trkpt lat="42.92846" lon="1.02821">
        <ele>522</ele>
        <time>2019-08-08T11:17:55.000Z</time>
      </trkpt>
      <trkpt lat="42.92847" lon="1.02825">
        <ele>522</ele>
        <time>2019-08-08T11:17:56.000Z</time>
      </trkpt>
      <trkpt lat="42.92848" lon="1.0283">
        <ele>523</ele>
        <time>2019-08-08T11:17:57.000Z</time>
      </trkpt>
      <trkpt lat="42.92849" lon="1.02834">
        <ele>523</ele>
        <time>2019-08-08T11:17:58.000Z</time>
      </trkpt>
      <trkpt lat="42.9285" lon="1.02839">
        <ele>523</ele>
        <time>2019-08-08T11:17:59.000Z</time>
      </trkpt>
      <trkpt lat="42.92851" lon="1.02843">
        <ele>523</ele>
        <time>2019-08-08T11:18:00.000Z</time>
      </trkpt>
      <trkpt lat="42.92852" lon="1.02848">
        <ele>524</ele>
        <time>2019-08-08T11:18:01.000Z</time>
      </trkpt>
      <trkpt lat="42.92853" lon="1.02853">
        <ele>524</ele>
        <time>2019-08-08T11:18:02.000Z</time>
      </trkpt>
      <trkpt lat="42.92854" lon="1.02857">
        <ele>524</ele>
        <time>2019-08-08T11:18:03.000Z</time>
      </trkpt>
      <trkpt lat="42.92855" lon="1.02862">
        <ele>525</ele>
        <time>2019-08-08T11:18:04.000Z</time>
      </trkpt>
      <trkpt lat="42.92856" lon="1.02866">
        <ele>525</ele>
        <time>2019-08-08T11:18:05.000Z</time>
      </trkpt>
      <trkpt lat="42.92857" lon="1.0287">
        <ele>525</ele>
        <time>2019-08-08T11:18:06.000Z</time>
      </trkpt>
      <trkpt lat="42.92858" lon="1.02875">
        <ele>525</ele>
        <time>2019-08-08T11:18:07.000Z</time>
      </trkpt>
      <trkpt lat="42.92859" lon="1.02879">
        <ele>525</ele>
        <time>2019-08-08T11:18:08.000Z</time>
      </trkpt>
      <trkpt lat="42.9286" lon="1.02884">
        <ele>525</ele>
        <time>2019-08-08T11:18:09.000Z</time>
      </trkpt>
      <trkpt lat="42.92861" lon="1.02888">
        <ele>526</ele>
        <time>2019-08-08T11:18:10.000Z</time>
      </trkpt>
      <trkpt lat="42.92862" lon="1.02893">
        <ele>526</ele>
        <time>2019-08-08T11:18:11.000Z</time>
      </trkpt>
      <trkpt lat="42.92864" lon="1.02897">
        <ele>526</ele>
        <time>2019-08-08T11:18:12.000Z</time>
      </trkpt>
      <trkpt lat="42.92865" lon="1.02902">
        <ele>526</ele>
        <time>2019-08-08T11:18:13.000Z</time>
      </trkpt>
      <trkpt lat="42.92866" lon="1.02906">
        <ele>526</ele>
        <time>2019-08-08T11:18:14.000Z</time>
      </trkpt>
      <trkpt lat="42.92867" lon="1.0291">
        <ele>526</ele>
        <time>2019-08-08T11:18:15.000Z</time>
      </trkpt>
      <trkpt lat="42.92867" lon="1.02915">
        <ele>528</ele>
        <time>2019-08-08T11:18:16.000Z</time>
      </trkpt>
      <trkpt lat="42.92868" lon="1.02919">
        <ele>528</ele>
        <time>2019-08-08T11:18:17.000Z</time>
      </trkpt>
      <trkpt lat="42.92869" lon="1.02923">
        <ele>528</ele>
        <time>2019-08-08T11:18:18.000Z</time>
      </trkpt>
      <trkpt lat="42.9287" lon="1.02928">
        <ele>528</ele>
        <time>2019-08-08T11:18:19.000Z</time>
      </trkpt>
      <trkpt lat="42.92871" lon="1.02932">
        <ele>529</ele>
        <time>2019-08-08T11:18:20.000Z</time>
      </trkpt>
      <trkpt lat="42.92872" lon="1.02936">
        <ele>529</ele>
        <time>2019-08-08T11:18:21.000Z</time>
      </trkpt>
      <trkpt lat="42.92873" lon="1.0294">
        <ele>529</ele>
        <time>2019-08-08T11:18:22.000Z</time>
      </trkpt>
      <trkpt lat="42.92874" lon="1.02945">
        <ele>529</ele>
        <time>2019-08-08T11:18:23.000Z</time>
      </trkpt>
      <trkpt lat="42.92874" lon="1.02949">
        <ele>529</ele>
        <time>2019-08-08T11:18:24.000Z</time>
      </trkpt>
      <trkpt lat="42.92875" lon="1.02953">
        <ele>529</ele>
        <time>2019-08-08T11:18:25.000Z</time>
      </trkpt>
      <trkpt lat="42.92875" lon="1.02957">
        <ele>529</ele>
        <time>2019-08-08T11:18:26.000Z</time>
      </trkpt>
      <trkpt lat="42.92874" lon="1.02961">
        <ele>530</ele>
        <time>2019-08-08T11:18:27.000Z</time>
      </trkpt>
      <trkpt lat="42.92873" lon="1.02966">
        <ele>530</ele>
        <time>2019-08-08T11:18:28.000Z</time>
      </trkpt>
      <trkpt lat="42.92872" lon="1.02969">
        <ele>531</ele>
        <time>2019-08-08T11:18:29.000Z</time>
      </trkpt>
      <trkpt lat="42.92869" lon="1.02973">
        <ele>531</ele>
        <time>2019-08-08T11:18:30.000Z</time>
      </trkpt>
      <trkpt lat="42.92866" lon="1.02975">
        <ele>531</ele>
        <time>2019-08-08T11:18:31.000Z</time>
      </trkpt>
      <trkpt lat="42.92863" lon="1.02977">
        <ele>532</ele>
        <time>2019-08-08T11:18:32.000Z</time>
      </trkpt>
      <trkpt lat="42.92859" lon="1.02978">
        <ele>532</ele>
        <time>2019-08-08T11:18:33.000Z</time>
      </trkpt>
      <trkpt lat="42.92855" lon="1.02978">
        <ele>532</ele>
        <time>2019-08-08T11:18:34.000Z</time>
      </trkpt>
      <trkpt lat="42.9285" lon="1.02979">
        <ele>532</ele>
        <time>2019-08-08T11:18:35.000Z</time>
      </trkpt>
      <trkpt lat="42.92846" lon="1.02979">
        <ele>532</ele>
        <time>2019-08-08T11:18:36.000Z</time>
      </trkpt>
      <trkpt lat="42.92842" lon="1.0298">
        <ele>532</ele>
        <time>2019-08-08T11:18:37.000Z</time>
      </trkpt>
      <trkpt lat="42.92837" lon="1.02981">
        <ele>532</ele>
        <time>2019-08-08T11:18:38.000Z</time>
      </trkpt>
      <trkpt lat="42.92832" lon="1.02981">
        <ele>532</ele>
        <time>2019-08-08T11:18:39.000Z</time>
      </trkpt>
      <trkpt lat="42.92828" lon="1.02981">
        <ele>532</ele>
        <time>2019-08-08T11:18:40.000Z</time>
      </trkpt>
      <trkpt lat="42.92823" lon="1.02982">
        <ele>532</ele>
        <time>2019-08-08T11:18:41.000Z</time>
      </trkpt>
      <trkpt lat="42.92818" lon="1.02982">
        <ele>532</ele>
        <time>2019-08-08T11:18:42.000Z</time>
      </trkpt>
      <trkpt lat="42.92813" lon="1.02982">
        <ele>533</ele>
        <time>2019-08-08T11:18:43.000Z</time>
      </trkpt>
      <trkpt lat="42.92808" lon="1.02982">
        <ele>533</ele>
        <time>2019-08-08T11:18:44.000Z</time>
      </trkpt>
      <trkpt lat="42.92803" lon="1.02982">
        <ele>533</ele>
        <time>2019-08-08T11:18:45.000Z</time>
      </trkpt>
      <trkpt lat="42.92798" lon="1.02982">
        <ele>533</ele>
        <time>2019-08-08T11:18:46.000Z</time>
      </trkpt>
      <trkpt lat="42.92794" lon="1.02982">
        <ele>533</ele>
        <time>2019-08-08T11:18:47.000Z</time>
      </trkpt>
      <trkpt lat="42.92789" lon="1.02982">
        <ele>533</ele>
        <time>2019-08-08T11:18:48.000Z</time>
      </trkpt>
      <trkpt lat="42.92784" lon="1.02981">
        <ele>534</ele>
        <time>2019-08-08T11:18:49.000Z</time>
      </trkpt>
      <trkpt lat="42.92779" lon="1.0298">
        <ele>534</ele>
        <time>2019-08-08T11:18:50.000Z</time>
      </trkpt>
      <trkpt lat="42.92773" lon="1.0298">
        <ele>534</ele>
        <time>2019-08-08T11:18:51.000Z</time>
      </trkpt>
      <trkpt lat="42.92768" lon="1.02979">
        <ele>534</ele>
        <time>2019-08-08T11:18:52.000Z</time>
      </trkpt>
      <trkpt lat="42.92763" lon="1.02979">
        <ele>534</ele>
        <time>2019-08-08T11:18:53.000Z</time>
      </trkpt>
      <trkpt lat="42.92759" lon="1.02978">
        <ele>534</ele>
        <time>2019-08-08T11:18:54.000Z</time>
      </trkpt>
      <trkpt lat="42.92754" lon="1.02978">
        <ele>534</ele>
        <time>2019-08-08T11:18:55.000Z</time>
      </trkpt>
      <trkpt lat="42.92749" lon="1.02978">
        <ele>535</ele>
        <time>2019-08-08T11:18:56.000Z</time>
      </trkpt>
      <trkpt lat="42.92744" lon="1.02977">
        <ele>535</ele>
        <time>2019-08-08T11:18:57.000Z</time>
      </trkpt>
      <trkpt lat="42.92739" lon="1.02977">
        <ele>535</ele>
        <time>2019-08-08T11:18:58.000Z</time>
      </trkpt>
      <trkpt lat="42.92733" lon="1.02976">
        <ele>535</ele>
        <time>2019-08-08T11:18:59.000Z</time>
      </trkpt>
      <trkpt lat="42.92728" lon="1.02976">
        <ele>535</ele>
        <time>2019-08-08T11:19:00.000Z</time>
      </trkpt>
      <trkpt lat="42.92723" lon="1.02975">
        <ele>535</ele>
        <time>2019-08-08T11:19:01.000Z</time>
      </trkpt>
      <trkpt lat="42.92718" lon="1.02974">
        <ele>535</ele>
        <time>2019-08-08T11:19:02.000Z</time>
      </trkpt>
      <trkpt lat="42.92713" lon="1.02974">
        <ele>536</ele>
        <time>2019-08-08T11:19:03.000Z</time>
      </trkpt>
      <trkpt lat="42.92708" lon="1.02974">
        <ele>536</ele>
        <time>2019-08-08T11:19:04.000Z</time>
      </trkpt>
      <trkpt lat="42.92703" lon="1.02973">
        <ele>536</ele>
        <time>2019-08-08T11:19:05.000Z</time>
      </trkpt>
      <trkpt lat="42.92698" lon="1.02972">
        <ele>536</ele>
        <time>2019-08-08T11:19:06.000Z</time>
      </trkpt>
      <trkpt lat="42.92693" lon="1.02972">
        <ele>536</ele>
        <time>2019-08-08T11:19:07.000Z</time>
      </trkpt>
      <trkpt lat="42.92688" lon="1.02971">
        <ele>536</ele>
        <time>2019-08-08T11:19:08.000Z</time>
      </trkpt>
      <trkpt lat="42.92683" lon="1.0297">
        <ele>536</ele>
        <time>2019-08-08T11:19:09.000Z</time>
      </trkpt>
      <trkpt lat="42.92678" lon="1.0297">
        <ele>536</ele>
        <time>2019-08-08T11:19:10.000Z</time>
      </trkpt>
      <trkpt lat="42.92673" lon="1.0297">
        <ele>536</ele>
        <time>2019-08-08T11:19:11.000Z</time>
      </trkpt>
      <trkpt lat="42.92665" lon="1.02969">
        <ele>536</ele>
        <time>2019-08-08T11:19:12.000Z</time>
      </trkpt>
      <trkpt lat="42.92663" lon="1.02969">
        <ele>537</ele>
        <time>2019-08-08T11:19:13.000Z</time>
      </trkpt>
      <trkpt lat="42.92658" lon="1.02968">
        <ele>537</ele>
        <time>2019-08-08T11:19:14.000Z</time>
      </trkpt>
      <trkpt lat="42.92653" lon="1.02968">
        <ele>537</ele>
        <time>2019-08-08T11:19:15.000Z</time>
      </trkpt>
      <trkpt lat="42.92648" lon="1.02967">
        <ele>537</ele>
        <time>2019-08-08T11:19:16.000Z</time>
      </trkpt>
      <trkpt lat="42.92643" lon="1.02967">
        <ele>537</ele>
        <time>2019-08-08T11:19:17.000Z</time>
      </trkpt>
      <trkpt lat="42.92638" lon="1.02966">
        <ele>538</ele>
        <time>2019-08-08T11:19:18.000Z</time>
      </trkpt>
      <trkpt lat="42.92633" lon="1.02966">
        <ele>538</ele>
        <time>2019-08-08T11:19:19.000Z</time>
      </trkpt>
      <trkpt lat="42.92628" lon="1.02966">
        <ele>538</ele>
        <time>2019-08-08T11:19:20.000Z</time>
      </trkpt>
      <trkpt lat="42.92623" lon="1.02966">
        <ele>538</ele>
        <time>2019-08-08T11:19:21.000Z</time>
      </trkpt>
      <trkpt lat="42.92618" lon="1.02966">
        <ele>538</ele>
        <time>2019-08-08T11:19:22.000Z</time>
      </trkpt>
      <trkpt lat="42.92613" lon="1.02966">
        <ele>538</ele>
        <time>2019-08-08T11:19:23.000Z</time>
      </trkpt>
      <trkpt lat="42.92608" lon="1.02966">
        <ele>538</ele>
        <time>2019-08-08T11:19:24.000Z</time>
      </trkpt>
      <trkpt lat="42.92602" lon="1.02966">
        <ele>539</ele>
        <time>2019-08-08T11:19:25.000Z</time>
      </trkpt>
      <trkpt lat="42.92597" lon="1.02966">
        <ele>539</ele>
        <time>2019-08-08T11:19:26.000Z</time>
      </trkpt>
      <trkpt lat="42.92592" lon="1.02967">
        <ele>539</ele>
        <time>2019-08-08T11:19:27.000Z</time>
      </trkpt>
      <trkpt lat="42.92587" lon="1.02967">
        <ele>539</ele>
        <time>2019-08-08T11:19:28.000Z</time>
      </trkpt>
      <trkpt lat="42.92582" lon="1.02968">
        <ele>539</ele>
        <time>2019-08-08T11:19:29.000Z</time>
      </trkpt>
      <trkpt lat="42.92577" lon="1.02969">
        <ele>539</ele>
        <time>2019-08-08T11:19:30.000Z</time>
      </trkpt>
      <trkpt lat="42.92571" lon="1.0297">
        <ele>539</ele>
        <time>2019-08-08T11:19:31.000Z</time>
      </trkpt>
      <trkpt lat="42.92566" lon="1.02971">
        <ele>539</ele>
        <time>2019-08-08T11:19:32.000Z</time>
      </trkpt>
      <trkpt lat="42.92561" lon="1.02972">
        <ele>540</ele>
        <time>2019-08-08T11:19:33.000Z</time>
      </trkpt>
      <trkpt lat="42.92556" lon="1.02974">
        <ele>540</ele>
        <time>2019-08-08T11:19:34.000Z</time>
      </trkpt>
      <trkpt lat="42.92551" lon="1.02975">
        <ele>541</ele>
        <time>2019-08-08T11:19:35.000Z</time>
      </trkpt>
      <trkpt lat="42.92546" lon="1.02977">
        <ele>541</ele>
        <time>2019-08-08T11:19:36.000Z</time>
      </trkpt>
      <trkpt lat="42.92541" lon="1.02979">
        <ele>541</ele>
        <time>2019-08-08T11:19:37.000Z</time>
      </trkpt>
      <trkpt lat="42.92536" lon="1.02981">
        <ele>541</ele>
        <time>2019-08-08T11:19:38.000Z</time>
      </trkpt>
      <trkpt lat="42.92532" lon="1.02983">
        <ele>541</ele>
        <time>2019-08-08T11:19:39.000Z</time>
      </trkpt>
      <trkpt lat="42.92527" lon="1.02984">
        <ele>541</ele>
        <time>2019-08-08T11:19:40.000Z</time>
      </trkpt>
      <trkpt lat="42.92522" lon="1.02986">
        <ele>541</ele>
        <time>2019-08-08T11:19:41.000Z</time>
      </trkpt>
      <trkpt lat="42.92517" lon="1.02988">
        <ele>541</ele>
        <time>2019-08-08T11:19:42.000Z</time>
      </trkpt>
      <trkpt lat="42.92512" lon="1.0299">
        <ele>541</ele>
        <time>2019-08-08T11:19:43.000Z</time>
      </trkpt>
      <trkpt lat="42.92507" lon="1.02992">
        <ele>541</ele>
        <time>2019-08-08T11:19:44.000Z</time>
      </trkpt>
      <trkpt lat="42.92502" lon="1.02994">
        <ele>541</ele>
        <time>2019-08-08T11:19:45.000Z</time>
      </trkpt>
      <trkpt lat="42.92498" lon="1.02997">
        <ele>542</ele>
        <time>2019-08-08T11:19:46.000Z</time>
      </trkpt>
      <trkpt lat="42.92493" lon="1.03">
        <ele>542</ele>
        <time>2019-08-08T11:19:47.000Z</time>
      </trkpt>
      <trkpt lat="42.92489" lon="1.03003">
        <ele>542</ele>
        <time>2019-08-08T11:19:48.000Z</time>
      </trkpt>
      <trkpt lat="42.92486" lon="1.03006">
        <ele>542</ele>
        <time>2019-08-08T11:19:49.000Z</time>
      </trkpt>
      <trkpt lat="42.92481" lon="1.03008">
        <ele>542</ele>
        <time>2019-08-08T11:19:50.000Z</time>
      </trkpt>
      <trkpt lat="42.92477" lon="1.03011">
        <ele>542</ele>
        <time>2019-08-08T11:19:51.000Z</time>
      </trkpt>
      <trkpt lat="42.92473" lon="1.03014">
        <ele>543</ele>
        <time>2019-08-08T11:19:52.000Z</time>
      </trkpt>
      <trkpt lat="42.92467" lon="1.03017">
        <ele>543</ele>
        <time>2019-08-08T11:19:53.000Z</time>
      </trkpt>
      <trkpt lat="42.92462" lon="1.0302">
        <ele>543</ele>
        <time>2019-08-08T11:19:54.000Z</time>
      </trkpt>
      <trkpt lat="42.92456" lon="1.03022">
        <ele>543</ele>
        <time>2019-08-08T11:19:55.000Z</time>
      </trkpt>
      <trkpt lat="42.92451" lon="1.03025">
        <ele>543</ele>
        <time>2019-08-08T11:19:56.000Z</time>
      </trkpt>
      <trkpt lat="42.92446" lon="1.03028">
        <ele>543</ele>
        <time>2019-08-08T11:19:57.000Z</time>
      </trkpt>
      <trkpt lat="42.92441" lon="1.03031">
        <ele>543</ele>
        <time>2019-08-08T11:19:58.000Z</time>
      </trkpt>
      <trkpt lat="42.92436" lon="1.03033">
        <ele>543</ele>
        <time>2019-08-08T11:19:59.000Z</time>
      </trkpt>
      <trkpt lat="42.92431" lon="1.03036">
        <ele>543</ele>
        <time>2019-08-08T11:20:00.000Z</time>
      </trkpt>
      <trkpt lat="42.92424" lon="1.03041">
        <ele>543</ele>
        <time>2019-08-08T11:20:01.000Z</time>
      </trkpt>
      <trkpt lat="42.92421" lon="1.03043">
        <ele>543</ele>
        <time>2019-08-08T11:20:02.000Z</time>
      </trkpt>
      <trkpt lat="42.92416" lon="1.03046">
        <ele>543</ele>
        <time>2019-08-08T11:20:03.000Z</time>
      </trkpt>
      <trkpt lat="42.9241" lon="1.03049">
        <ele>543</ele>
        <time>2019-08-08T11:20:04.000Z</time>
      </trkpt>
      <trkpt lat="42.92404" lon="1.03051">
        <ele>543</ele>
        <time>2019-08-08T11:20:05.000Z</time>
      </trkpt>
      <trkpt lat="42.92398" lon="1.03054">
        <ele>543</ele>
        <time>2019-08-08T11:20:06.000Z</time>
      </trkpt>
      <trkpt lat="42.92393" lon="1.03057">
        <ele>543</ele>
        <time>2019-08-08T11:20:07.000Z</time>
      </trkpt>
      <trkpt lat="42.92387" lon="1.03059">
        <ele>543</ele>
        <time>2019-08-08T11:20:08.000Z</time>
      </trkpt>
      <trkpt lat="42.92381" lon="1.03062">
        <ele>544</ele>
        <time>2019-08-08T11:20:09.000Z</time>
      </trkpt>
      <trkpt lat="42.92376" lon="1.03066">
        <ele>544</ele>
        <time>2019-08-08T11:20:10.000Z</time>
      </trkpt>
      <trkpt lat="42.9237" lon="1.03068">
        <ele>544</ele>
        <time>2019-08-08T11:20:11.000Z</time>
      </trkpt>
      <trkpt lat="42.92364" lon="1.03071">
        <ele>544</ele>
        <time>2019-08-08T11:20:12.000Z</time>
      </trkpt>
      <trkpt lat="42.92359" lon="1.03075">
        <ele>544</ele>
        <time>2019-08-08T11:20:13.000Z</time>
      </trkpt>
      <trkpt lat="42.92353" lon="1.03078">
        <ele>544</ele>
        <time>2019-08-08T11:20:14.000Z</time>
      </trkpt>
      <trkpt lat="42.92348" lon="1.03081">
        <ele>544</ele>
        <time>2019-08-08T11:20:15.000Z</time>
      </trkpt>
      <trkpt lat="42.92343" lon="1.03084">
        <ele>544</ele>
        <time>2019-08-08T11:20:16.000Z</time>
      </trkpt>
      <trkpt lat="42.92337" lon="1.03087">
        <ele>544</ele>
        <time>2019-08-08T11:20:17.000Z</time>
      </trkpt>
      <trkpt lat="42.92332" lon="1.0309">
        <ele>544</ele>
        <time>2019-08-08T11:20:18.000Z</time>
      </trkpt>
      <trkpt lat="42.92327" lon="1.03094">
        <ele>544</ele>
        <time>2019-08-08T11:20:19.000Z</time>
      </trkpt>
      <trkpt lat="42.92322" lon="1.03097">
        <ele>544</ele>
        <time>2019-08-08T11:20:20.000Z</time>
      </trkpt>
      <trkpt lat="42.92316" lon="1.03099">
        <ele>544</ele>
        <time>2019-08-08T11:20:21.000Z</time>
      </trkpt>
      <trkpt lat="42.92311" lon="1.03102">
        <ele>544</ele>
        <time>2019-08-08T11:20:22.000Z</time>
      </trkpt>
      <trkpt lat="42.92306" lon="1.03105">
        <ele>544</ele>
        <time>2019-08-08T11:20:23.000Z</time>
      </trkpt>
      <trkpt lat="42.92301" lon="1.03109">
        <ele>544</ele>
        <time>2019-08-08T11:20:24.000Z</time>
      </trkpt>
      <trkpt lat="42.92295" lon="1.03112">
        <ele>545</ele>
        <time>2019-08-08T11:20:25.000Z</time>
      </trkpt>
      <trkpt lat="42.9229" lon="1.03116">
        <ele>545</ele>
        <time>2019-08-08T11:20:26.000Z</time>
      </trkpt>
      <trkpt lat="42.92284" lon="1.03119">
        <ele>545</ele>
        <time>2019-08-08T11:20:27.000Z</time>
      </trkpt>
      <trkpt lat="42.92278" lon="1.03122">
        <ele>545</ele>
        <time>2019-08-08T11:20:28.000Z</time>
      </trkpt>
      <trkpt lat="42.92272" lon="1.03125">
        <ele>545</ele>
        <time>2019-08-08T11:20:29.000Z</time>
      </trkpt>
      <trkpt lat="42.92266" lon="1.03128">
        <ele>545</ele>
        <time>2019-08-08T11:20:30.000Z</time>
      </trkpt>
      <trkpt lat="42.9226" lon="1.03131">
        <ele>545</ele>
        <time>2019-08-08T11:20:31.000Z</time>
      </trkpt>
      <trkpt lat="42.92254" lon="1.03134">
        <ele>545</ele>
        <time>2019-08-08T11:20:32.000Z</time>
      </trkpt>
      <trkpt lat="42.92248" lon="1.03137">
        <ele>545</ele>
        <time>2019-08-08T11:20:33.000Z</time>
      </trkpt>
      <trkpt lat="42.92239" lon="1.03141">
        <ele>545</ele>
        <time>2019-08-08T11:20:34.000Z</time>
      </trkpt>
      <trkpt lat="42.92236" lon="1.03142">
        <ele>545</ele>
        <time>2019-08-08T11:20:35.000Z</time>
      </trkpt>
      <trkpt lat="42.9223" lon="1.03145">
        <ele>545</ele>
        <time>2019-08-08T11:20:36.000Z</time>
      </trkpt>
      <trkpt lat="42.92224" lon="1.03146">
        <ele>545</ele>
        <time>2019-08-08T11:20:37.000Z</time>
      </trkpt>
      <trkpt lat="42.92218" lon="1.03148">
        <ele>545</ele>
        <time>2019-08-08T11:20:38.000Z</time>
      </trkpt>
      <trkpt lat="42.92211" lon="1.03149">
        <ele>545</ele>
        <time>2019-08-08T11:20:39.000Z</time>
      </trkpt>
      <trkpt lat="42.92205" lon="1.0315">
        <ele>545</ele>
        <time>2019-08-08T11:20:40.000Z</time>
      </trkpt>
      <trkpt lat="42.92199" lon="1.03151">
        <ele>545</ele>
        <time>2019-08-08T11:20:41.000Z</time>
      </trkpt>
      <trkpt lat="42.92193" lon="1.03152">
        <ele>545</ele>
        <time>2019-08-08T11:20:42.000Z</time>
      </trkpt>
      <trkpt lat="42.92187" lon="1.03152">
        <ele>545</ele>
        <time>2019-08-08T11:20:43.000Z</time>
      </trkpt>
      <trkpt lat="42.92182" lon="1.03153">
        <ele>545</ele>
        <time>2019-08-08T11:20:44.000Z</time>
      </trkpt>
      <trkpt lat="42.92176" lon="1.03154">
        <ele>545</ele>
        <time>2019-08-08T11:20:45.000Z</time>
      </trkpt>
      <trkpt lat="42.92171" lon="1.03154">
        <ele>545</ele>
        <time>2019-08-08T11:20:46.000Z</time>
      </trkpt>
      <trkpt lat="42.92166" lon="1.03155">
        <ele>545</ele>
        <time>2019-08-08T11:20:47.000Z</time>
      </trkpt>
      <trkpt lat="42.92162" lon="1.03156">
        <ele>546</ele>
        <time>2019-08-08T11:20:48.000Z</time>
      </trkpt>
      <trkpt lat="42.92158" lon="1.03155">
        <ele>546</ele>
        <time>2019-08-08T11:20:49.000Z</time>
      </trkpt>
      <trkpt lat="42.92157" lon="1.03154">
        <ele>546</ele>
        <time>2019-08-08T11:20:50.000Z</time>
      </trkpt>
      <trkpt lat="42.92157" lon="1.03154">
        <ele>546</ele>
        <time>2019-08-08T11:20:51.000Z</time>
      </trkpt>
      <trkpt lat="42.92158" lon="1.03152">
        <ele>546</ele>
        <time>2019-08-08T11:20:52.000Z</time>
      </trkpt>
      <trkpt lat="42.92158" lon="1.03151">
        <ele>546</ele>
        <time>2019-08-08T11:20:53.000Z</time>
      </trkpt>
      <trkpt lat="42.92158" lon="1.0315">
        <ele>546</ele>
        <time>2019-08-08T11:20:54.000Z</time>
      </trkpt>
      <trkpt lat="42.92158" lon="1.0315">
        <ele>546</ele>
        <time>2019-08-08T11:20:55.000Z</time>
      </trkpt>
      <trkpt lat="42.92156" lon="1.03149">
        <ele>546</ele>
        <time>2019-08-08T11:20:56.000Z</time>
      </trkpt>
      <trkpt lat="42.92156" lon="1.03149">
        <ele>546</ele>
        <time>2019-08-08T11:20:57.000Z</time>
      </trkpt>
      <trkpt lat="42.92153" lon="1.03149">
        <ele>546</ele>
        <time>2019-08-08T11:20:58.000Z</time>
      </trkpt>
      <trkpt lat="42.92153" lon="1.03149">
        <ele>546</ele>
        <time>2019-08-08T11:20:59.000Z</time>
      </trkpt>
      <trkpt lat="42.92151" lon="1.03151">
        <ele>546</ele>
        <time>2019-08-08T11:21:00.000Z</time>
      </trkpt>
      <trkpt lat="42.92151" lon="1.03151">
        <ele>546</ele>
        <time>2019-08-08T11:21:01.000Z</time>
      </trkpt>
      <trkpt lat="42.92151" lon="1.03151">
        <ele>546</ele>
        <time>2019-08-08T11:21:02.000Z</time>
      </trkpt>
      <trkpt lat="42.92151" lon="1.03151">
        <ele>546</ele>
        <time>2019-08-08T11:21:03.000Z</time>
      </trkpt>
      <trkpt lat="42.92151" lon="1.03151">
        <ele>546</ele>
        <time>2019-08-08T11:21:04.000Z</time>
      </trkpt>
      <trkpt lat="42.92151" lon="1.03151">
        <ele>546</ele>
        <time>2019-08-08T11:21:05.000Z</time>
      </trkpt>
      <trkpt lat="42.92151" lon="1.03151">
        <ele>547</ele>
        <time>2019-08-08T11:21:06.000Z</time>
      </trkpt>
      <trkpt lat="42.92151" lon="1.03151">
        <ele>547</ele>
        <time>2019-08-08T11:21:07.000Z</time>
      </trkpt>
      <trkpt lat="42.92151" lon="1.03151">
        <ele>547</ele>
        <time>2019-08-08T11:21:08.000Z</time>
      </trkpt>
      <trkpt lat="42.92151" lon="1.03151">
        <ele>552</ele>
        <time>2019-08-08T11:43:25.000Z</time>
      </trkpt>
      <trkpt lat="42.92155" lon="1.03153">
        <ele>552</ele>
        <time>2019-08-08T11:43:26.000Z</time>
      </trkpt>
      <trkpt lat="42.92155" lon="1.03153">
        <ele>552</ele>
        <time>2019-08-08T11:43:27.000Z</time>
      </trkpt>
      <trkpt lat="42.92155" lon="1.03153">
        <ele>552</ele>
        <time>2019-08-08T11:43:28.000Z</time>
      </trkpt>
      <trkpt lat="42.92155" lon="1.03153">
        <ele>552</ele>
        <time>2019-08-08T11:43:29.000Z</time>
      </trkpt>
      <trkpt lat="42.92152" lon="1.03154">
        <ele>552</ele>
        <time>2019-08-08T11:43:30.000Z</time>
      </trkpt>
      <trkpt lat="42.92152" lon="1.03154">
        <ele>552</ele>
        <time>2019-08-08T11:43:31.000Z</time>
      </trkpt>
      <trkpt lat="42.92149" lon="1.03155">
        <ele>552</ele>
        <time>2019-08-08T11:43:32.000Z</time>
      </trkpt>
      <trkpt lat="42.92146" lon="1.03155">
        <ele>552</ele>
        <time>2019-08-08T11:43:33.000Z</time>
      </trkpt>
      <trkpt lat="42.92142" lon="1.03155">
        <ele>552</ele>
        <time>2019-08-08T11:43:34.000Z</time>
      </trkpt>
      <trkpt lat="42.92139" lon="1.03155">
        <ele>552</ele>
        <time>2019-08-08T11:43:35.000Z</time>
      </trkpt>
      <trkpt lat="42.92135" lon="1.03154">
        <ele>552</ele>
        <time>2019-08-08T11:43:36.000Z</time>
      </trkpt>
      <trkpt lat="42.9213" lon="1.03154">
        <ele>552</ele>
        <time>2019-08-08T11:43:37.000Z</time>
      </trkpt>
      <trkpt lat="42.92126" lon="1.03153">
        <ele>552</ele>
        <time>2019-08-08T11:43:38.000Z</time>
      </trkpt>
      <trkpt lat="42.92121" lon="1.03153">
        <ele>552</ele>
        <time>2019-08-08T11:43:39.000Z</time>
      </trkpt>
      <trkpt lat="42.92116" lon="1.03153">
        <ele>552</ele>
        <time>2019-08-08T11:43:40.000Z</time>
      </trkpt>
      <trkpt lat="42.92111" lon="1.03152">
        <ele>553</ele>
        <time>2019-08-08T11:43:41.000Z</time>
      </trkpt>
      <trkpt lat="42.92107" lon="1.03152">
        <ele>553</ele>
        <time>2019-08-08T11:43:42.000Z</time>
      </trkpt>
      <trkpt lat="42.92102" lon="1.03151">
        <ele>553</ele>
        <time>2019-08-08T11:43:43.000Z</time>
      </trkpt>
      <trkpt lat="42.92097" lon="1.03151">
        <ele>553</ele>
        <time>2019-08-08T11:43:44.000Z</time>
      </trkpt>
      <trkpt lat="42.92092" lon="1.0315">
        <ele>553</ele>
        <time>2019-08-08T11:43:45.000Z</time>
      </trkpt>
      <trkpt lat="42.92087" lon="1.0315">
        <ele>553</ele>
        <time>2019-08-08T11:43:46.000Z</time>
      </trkpt>
      <trkpt lat="42.92081" lon="1.0315">
        <ele>553</ele>
        <time>2019-08-08T11:43:47.000Z</time>
      </trkpt>
      <trkpt lat="42.92076" lon="1.0315">
        <ele>553</ele>
        <time>2019-08-08T11:43:48.000Z</time>
      </trkpt>
      <trkpt lat="42.92071" lon="1.0315">
        <ele>553</ele>
        <time>2019-08-08T11:43:49.000Z</time>
      </trkpt>
      <trkpt lat="42.92065" lon="1.0315">
        <ele>553</ele>
        <time>2019-08-08T11:43:50.000Z</time>
      </trkpt>
      <trkpt lat="42.92059" lon="1.0315">
        <ele>553</ele>
        <time>2019-08-08T11:43:51.000Z</time>
      </trkpt>
      <trkpt lat="42.92054" lon="1.0315">
        <ele>552</ele>
        <time>2019-08-08T11:43:52.000Z</time>
      </trkpt>
      <trkpt lat="42.92049" lon="1.0315">
        <ele>552</ele>
        <time>2019-08-08T11:43:53.000Z</time>
      </trkpt>
      <trkpt lat="42.92043" lon="1.0315">
        <ele>552</ele>
        <time>2019-08-08T11:43:54.000Z</time>
      </trkpt>
      <trkpt lat="42.92038" lon="1.0315">
        <ele>552</ele>
        <time>2019-08-08T11:43:55.000Z</time>
      </trkpt>
      <trkpt lat="42.92033" lon="1.03149">
        <ele>553</ele>
        <time>2019-08-08T11:43:56.000Z</time>
      </trkpt>
      <trkpt lat="42.92028" lon="1.03148">
        <ele>553</ele>
        <time>2019-08-08T11:43:57.000Z</time>
      </trkpt>
      <trkpt lat="42.92022" lon="1.03147">
        <ele>553</ele>
        <time>2019-08-08T11:43:58.000Z</time>
      </trkpt>
      <trkpt lat="42.92017" lon="1.03146">
        <ele>553</ele>
        <time>2019-08-08T11:43:59.000Z</time>
      </trkpt>
      <trkpt lat="42.92011" lon="1.03145">
        <ele>553</ele>
        <time>2019-08-08T11:44:00.000Z</time>
      </trkpt>
      <trkpt lat="42.92006" lon="1.03144">
        <ele>553</ele>
        <time>2019-08-08T11:44:01.000Z</time>
      </trkpt>
      <trkpt lat="42.92" lon="1.03144">
        <ele>553</ele>
        <time>2019-08-08T11:44:02.000Z</time>
      </trkpt>
      <trkpt lat="42.91995" lon="1.03143">
        <ele>553</ele>
        <time>2019-08-08T11:44:03.000Z</time>
      </trkpt>
      <trkpt lat="42.9199" lon="1.03142">
        <ele>553</ele>
        <time>2019-08-08T11:44:04.000Z</time>
      </trkpt>
      <trkpt lat="42.91984" lon="1.03141">
        <ele>553</ele>
        <time>2019-08-08T11:44:05.000Z</time>
      </trkpt>
      <trkpt lat="42.91978" lon="1.03141">
        <ele>553</ele>
        <time>2019-08-08T11:44:06.000Z</time>
      </trkpt>
      <trkpt lat="42.91972" lon="1.0314">
        <ele>553</ele>
        <time>2019-08-08T11:44:07.000Z</time>
      </trkpt>
      <trkpt lat="42.91967" lon="1.0314">
        <ele>554</ele>
        <time>2019-08-08T11:44:08.000Z</time>
      </trkpt>
      <trkpt lat="42.91961" lon="1.03139">
        <ele>554</ele>
        <time>2019-08-08T11:44:09.000Z</time>
      </trkpt>
      <trkpt lat="42.91956" lon="1.03139">
        <ele>554</ele>
        <time>2019-08-08T11:44:10.000Z</time>
      </trkpt>
      <trkpt lat="42.9195" lon="1.03139">
        <ele>554</ele>
        <time>2019-08-08T11:44:11.000Z</time>
      </trkpt>
      <trkpt lat="42.91944" lon="1.03139">
        <ele>554</ele>
        <time>2019-08-08T11:44:12.000Z</time>
      </trkpt>
      <trkpt lat="42.91938" lon="1.03139">
        <ele>554</ele>
        <time>2019-08-08T11:44:13.000Z</time>
      </trkpt>
      <trkpt lat="42.91933" lon="1.03138">
        <ele>554</ele>
        <time>2019-08-08T11:44:14.000Z</time>
      </trkpt>
      <trkpt lat="42.91927" lon="1.03138">
        <ele>554</ele>
        <time>2019-08-08T11:44:15.000Z</time>
      </trkpt>
      <trkpt lat="42.91921" lon="1.03138">
        <ele>554</ele>
        <time>2019-08-08T11:44:16.000Z</time>
      </trkpt>
      <trkpt lat="42.91915" lon="1.03139">
        <ele>554</ele>
        <time>2019-08-08T11:44:17.000Z</time>
      </trkpt>
      <trkpt lat="42.91909" lon="1.03138">
        <ele>555</ele>
        <time>2019-08-08T11:44:18.000Z</time>
      </trkpt>
      <trkpt lat="42.91904" lon="1.03138">
        <ele>555</ele>
        <time>2019-08-08T11:44:19.000Z</time>
      </trkpt>
      <trkpt lat="42.91899" lon="1.03138">
        <ele>555</ele>
        <time>2019-08-08T11:44:20.000Z</time>
      </trkpt>
      <trkpt lat="42.91895" lon="1.03136">
        <ele>555</ele>
        <time>2019-08-08T11:44:21.000Z</time>
      </trkpt>
      <trkpt lat="42.9189" lon="1.03135">
        <ele>556</ele>
        <time>2019-08-08T11:44:22.000Z</time>
      </trkpt>
      <trkpt lat="42.91883" lon="1.03135">
        <ele>556</ele>
        <time>2019-08-08T11:44:23.000Z</time>
      </trkpt>
      <trkpt lat="42.91875" lon="1.03134">
        <ele>556</ele>
        <time>2019-08-08T11:44:24.000Z</time>
      </trkpt>
      <trkpt lat="42.91872" lon="1.03134">
        <ele>556</ele>
        <time>2019-08-08T11:44:25.000Z</time>
      </trkpt>
      <trkpt lat="42.91866" lon="1.03133">
        <ele>556</ele>
        <time>2019-08-08T11:44:26.000Z</time>
      </trkpt>
      <trkpt lat="42.9186" lon="1.03132">
        <ele>556</ele>
        <time>2019-08-08T11:44:27.000Z</time>
      </trkpt>
      <trkpt lat="42.91854" lon="1.03131">
        <ele>556</ele>
        <time>2019-08-08T11:44:28.000Z</time>
      </trkpt>
      <trkpt lat="42.91848" lon="1.03131">
        <ele>555</ele>
        <time>2019-08-08T11:44:29.000Z</time>
      </trkpt>
      <trkpt lat="42.91841" lon="1.03129">
        <ele>555</ele>
        <time>2019-08-08T11:44:30.000Z</time>
      </trkpt>
      <trkpt lat="42.91835" lon="1.03126">
        <ele>555</ele>
        <time>2019-08-08T11:44:31.000Z</time>
      </trkpt>
      <trkpt lat="42.91829" lon="1.03123">
        <ele>555</ele>
        <time>2019-08-08T11:44:32.000Z</time>
      </trkpt>
      <trkpt lat="42.91824" lon="1.03118">
        <ele>555</ele>
        <time>2019-08-08T11:44:33.000Z</time>
      </trkpt>
      <trkpt lat="42.91818" lon="1.03112">
        <ele>555</ele>
        <time>2019-08-08T11:44:34.000Z</time>
      </trkpt>
      <trkpt lat="42.91813" lon="1.03107">
        <ele>555</ele>
        <time>2019-08-08T11:44:35.000Z</time>
      </trkpt>
      <trkpt lat="42.91807" lon="1.03102">
        <ele>555</ele>
        <time>2019-08-08T11:44:36.000Z</time>
      </trkpt>
      <trkpt lat="42.91802" lon="1.03097">
        <ele>554</ele>
        <time>2019-08-08T11:44:37.000Z</time>
      </trkpt>
      <trkpt lat="42.91796" lon="1.03094">
        <ele>554</ele>
        <time>2019-08-08T11:44:38.000Z</time>
      </trkpt>
      <trkpt lat="42.9179" lon="1.0309">
        <ele>554</ele>
        <time>2019-08-08T11:44:39.000Z</time>
      </trkpt>
      <trkpt lat="42.91784" lon="1.03086">
        <ele>555</ele>
        <time>2019-08-08T11:44:40.000Z</time>
      </trkpt>
      <trkpt lat="42.91778" lon="1.03083">
        <ele>555</ele>
        <time>2019-08-08T11:44:41.000Z</time>
      </trkpt>
      <trkpt lat="42.91772" lon="1.03081">
        <ele>555</ele>
        <time>2019-08-08T11:44:42.000Z</time>
      </trkpt>
      <trkpt lat="42.91766" lon="1.03079">
        <ele>555</ele>
        <time>2019-08-08T11:44:43.000Z</time>
      </trkpt>
      <trkpt lat="42.91759" lon="1.03076">
        <ele>555</ele>
        <time>2019-08-08T11:44:44.000Z</time>
      </trkpt>
      <trkpt lat="42.91753" lon="1.03074">
        <ele>555</ele>
        <time>2019-08-08T11:44:45.000Z</time>
      </trkpt>
      <trkpt lat="42.91746" lon="1.03071">
        <ele>555</ele>
        <time>2019-08-08T11:44:46.000Z</time>
      </trkpt>
      <trkpt lat="42.9174" lon="1.03069">
        <ele>555</ele>
        <time>2019-08-08T11:44:47.000Z</time>
      </trkpt>
      <trkpt lat="42.91733" lon="1.03067">
        <ele>555</ele>
        <time>2019-08-08T11:44:48.000Z</time>
      </trkpt>
      <trkpt lat="42.91727" lon="1.03064">
        <ele>555</ele>
        <time>2019-08-08T11:44:49.000Z</time>
      </trkpt>
      <trkpt lat="42.91717" lon="1.0306">
        <ele>555</ele>
        <time>2019-08-08T11:44:50.000Z</time>
      </trkpt>
      <trkpt lat="42.91714" lon="1.03059">
        <ele>555</ele>
        <time>2019-08-08T11:44:51.000Z</time>
      </trkpt>
      <trkpt lat="42.91707" lon="1.03057">
        <ele>556</ele>
        <time>2019-08-08T11:44:52.000Z</time>
      </trkpt>
      <trkpt lat="42.91701" lon="1.03055">
        <ele>556</ele>
        <time>2019-08-08T11:44:53.000Z</time>
      </trkpt>
      <trkpt lat="42.91695" lon="1.03053">
        <ele>556</ele>
        <time>2019-08-08T11:44:54.000Z</time>
      </trkpt>
      <trkpt lat="42.91688" lon="1.0305">
        <ele>556</ele>
        <time>2019-08-08T11:44:55.000Z</time>
      </trkpt>
      <trkpt lat="42.91682" lon="1.03048">
        <ele>556</ele>
        <time>2019-08-08T11:44:56.000Z</time>
      </trkpt>
      <trkpt lat="42.91676" lon="1.03046">
        <ele>556</ele>
        <time>2019-08-08T11:44:57.000Z</time>
      </trkpt>
      <trkpt lat="42.91669" lon="1.03043">
        <ele>556</ele>
        <time>2019-08-08T11:44:58.000Z</time>
      </trkpt>
      <trkpt lat="42.91663" lon="1.03041">
        <ele>556</ele>
        <time>2019-08-08T11:44:59.000Z</time>
      </trkpt>
      <trkpt lat="42.91656" lon="1.03039">
        <ele>556</ele>
        <time>2019-08-08T11:45:00.000Z</time>
      </trkpt>
      <trkpt lat="42.9165" lon="1.03037">
        <ele>556</ele>
        <time>2019-08-08T11:45:01.000Z</time>
      </trkpt>
      <trkpt lat="42.91644" lon="1.03035">
        <ele>556</ele>
        <time>2019-08-08T11:45:02.000Z</time>
      </trkpt>
      <trkpt lat="42.91638" lon="1.03033">
        <ele>556</ele>
        <time>2019-08-08T11:45:03.000Z</time>
      </trkpt>
      <trkpt lat="42.91632" lon="1.03031">
        <ele>556</ele>
        <time>2019-08-08T11:45:04.000Z</time>
      </trkpt>
      <trkpt lat="42.91626" lon="1.03028">
        <ele>556</ele>
        <time>2019-08-08T11:45:05.000Z</time>
      </trkpt>
      <trkpt lat="42.91619" lon="1.03024">
        <ele>556</ele>
        <time>2019-08-08T11:45:06.000Z</time>
      </trkpt>
      <trkpt lat="42.91616" lon="1.03022">
        <ele>556</ele>
        <time>2019-08-08T11:45:07.000Z</time>
      </trkpt>
      <trkpt lat="42.91612" lon="1.03019">
        <ele>556</ele>
        <time>2019-08-08T11:45:08.000Z</time>
      </trkpt>
      <trkpt lat="42.91608" lon="1.03015">
        <ele>558</ele>
        <time>2019-08-08T11:45:09.000Z</time>
      </trkpt>
      <trkpt lat="42.91604" lon="1.03011">
        <ele>558</ele>
        <time>2019-08-08T11:45:10.000Z</time>
      </trkpt>
      <trkpt lat="42.916" lon="1.03008">
        <ele>558</ele>
        <time>2019-08-08T11:45:11.000Z</time>
      </trkpt>
      <trkpt lat="42.91597" lon="1.03005">
        <ele>558</ele>
        <time>2019-08-08T11:45:12.000Z</time>
      </trkpt>
      <trkpt lat="42.91594" lon="1.03001">
        <ele>558</ele>
        <time>2019-08-08T11:45:13.000Z</time>
      </trkpt>
      <trkpt lat="42.91592" lon="1.02996">
        <ele>558</ele>
        <time>2019-08-08T11:45:14.000Z</time>
      </trkpt>
      <trkpt lat="42.91588" lon="1.02992">
        <ele>559</ele>
        <time>2019-08-08T11:45:15.000Z</time>
      </trkpt>
      <trkpt lat="42.91585" lon="1.02988">
        <ele>559</ele>
        <time>2019-08-08T11:45:16.000Z</time>
      </trkpt>
      <trkpt lat="42.91581" lon="1.02983">
        <ele>558</ele>
        <time>2019-08-08T11:45:17.000Z</time>
      </trkpt>
      <trkpt lat="42.91578" lon="1.0298">
        <ele>558</ele>
        <time>2019-08-08T11:45:18.000Z</time>
      </trkpt>
      <trkpt lat="42.91575" lon="1.02976">
        <ele>559</ele>
        <time>2019-08-08T11:45:19.000Z</time>
      </trkpt>
      <trkpt lat="42.91575" lon="1.02976">
        <ele>559</ele>
        <time>2019-08-08T11:45:20.000Z</time>
      </trkpt>
      <trkpt lat="42.91566" lon="1.02969">
        <ele>559</ele>
        <time>2019-08-08T11:45:21.000Z</time>
      </trkpt>
      <trkpt lat="42.91561" lon="1.02964">
        <ele>559</ele>
        <time>2019-08-08T11:45:22.000Z</time>
      </trkpt>
      <trkpt lat="42.91557" lon="1.0296">
        <ele>559</ele>
        <time>2019-08-08T11:45:23.000Z</time>
      </trkpt>
      <trkpt lat="42.91551" lon="1.02955">
        <ele>561</ele>
        <time>2019-08-08T11:45:24.000Z</time>
      </trkpt>
      <trkpt lat="42.91549" lon="1.02953">
        <ele>561</ele>
        <time>2019-08-08T11:45:25.000Z</time>
      </trkpt>
      <trkpt lat="42.91545" lon="1.0295">
        <ele>561</ele>
        <time>2019-08-08T11:45:26.000Z</time>
      </trkpt>
      <trkpt lat="42.91541" lon="1.02948">
        <ele>562</ele>
        <time>2019-08-08T11:45:27.000Z</time>
      </trkpt>
      <trkpt lat="42.91537" lon="1.02946">
        <ele>562</ele>
        <time>2019-08-08T11:45:28.000Z</time>
      </trkpt>
      <trkpt lat="42.91533" lon="1.02944">
        <ele>562</ele>
        <time>2019-08-08T11:45:29.000Z</time>
      </trkpt>
      <trkpt lat="42.91529" lon="1.02941">
        <ele>562</ele>
        <time>2019-08-08T11:45:30.000Z</time>
      </trkpt>
      <trkpt lat="42.91524" lon="1.0294">
        <ele>562</ele>
        <time>2019-08-08T11:45:31.000Z</time>
      </trkpt>
      <trkpt lat="42.91519" lon="1.02939">
        <ele>562</ele>
        <time>2019-08-08T11:45:32.000Z</time>
      </trkpt>
      <trkpt lat="42.91514" lon="1.02937">
        <ele>563</ele>
        <time>2019-08-08T11:45:33.000Z</time>
      </trkpt>
      <trkpt lat="42.9151" lon="1.02934">
        <ele>563</ele>
        <time>2019-08-08T11:45:34.000Z</time>
      </trkpt>
      <trkpt lat="42.91505" lon="1.02931">
        <ele>564</ele>
        <time>2019-08-08T11:45:35.000Z</time>
      </trkpt>
      <trkpt lat="42.915" lon="1.02929">
        <ele>564</ele>
        <time>2019-08-08T11:45:36.000Z</time>
      </trkpt>
      <trkpt lat="42.91496" lon="1.02927">
        <ele>564</ele>
        <time>2019-08-08T11:45:37.000Z</time>
      </trkpt>
      <trkpt lat="42.91492" lon="1.02924">
        <ele>564</ele>
        <time>2019-08-08T11:45:38.000Z</time>
      </trkpt>
      <trkpt lat="42.91486" lon="1.02921">
        <ele>564</ele>
        <time>2019-08-08T11:45:39.000Z</time>
      </trkpt>
      <trkpt lat="42.91484" lon="1.0292">
        <ele>564</ele>
        <time>2019-08-08T11:45:40.000Z</time>
      </trkpt>
      <trkpt lat="42.9148" lon="1.02918">
        <ele>565</ele>
        <time>2019-08-08T11:45:41.000Z</time>
      </trkpt>
      <trkpt lat="42.91476" lon="1.02917">
        <ele>565</ele>
        <time>2019-08-08T11:45:42.000Z</time>
      </trkpt>
      <trkpt lat="42.91471" lon="1.02915">
        <ele>565</ele>
        <time>2019-08-08T11:45:43.000Z</time>
      </trkpt>
      <trkpt lat="42.91467" lon="1.02914">
        <ele>565</ele>
        <time>2019-08-08T11:45:44.000Z</time>
      </trkpt>
      <trkpt lat="42.91462" lon="1.02912">
        <ele>565</ele>
        <time>2019-08-08T11:45:45.000Z</time>
      </trkpt>
      <trkpt lat="42.91457" lon="1.0291">
        <ele>565</ele>
        <time>2019-08-08T11:45:46.000Z</time>
      </trkpt>
      <trkpt lat="42.91455" lon="1.0291">
        <ele>565</ele>
        <time>2019-08-08T11:45:47.000Z</time>
      </trkpt>
      <trkpt lat="42.91453" lon="1.02909">
        <ele>565</ele>
        <time>2019-08-08T11:45:48.000Z</time>
      </trkpt>
      <trkpt lat="42.91447" lon="1.02908">
        <ele>566</ele>
        <time>2019-08-08T11:45:49.000Z</time>
      </trkpt>
      <trkpt lat="42.91447" lon="1.02908">
        <ele>566</ele>
        <time>2019-08-08T11:45:50.000Z</time>
      </trkpt>
      <trkpt lat="42.91437" lon="1.02906">
        <ele>566</ele>
        <time>2019-08-08T11:45:51.000Z</time>
      </trkpt>
      <trkpt lat="42.9143" lon="1.02906">
        <ele>566</ele>
        <time>2019-08-08T11:45:52.000Z</time>
      </trkpt>
      <trkpt lat="42.91428" lon="1.02906">
        <ele>567</ele>
        <time>2019-08-08T11:45:53.000Z</time>
      </trkpt>
      <trkpt lat="42.91426" lon="1.02906">
        <ele>567</ele>
        <time>2019-08-08T11:45:54.000Z</time>
      </trkpt>
      <trkpt lat="42.91418" lon="1.02905">
        <ele>567</ele>
        <time>2019-08-08T11:45:55.000Z</time>
      </trkpt>
      <trkpt lat="42.91416" lon="1.02905">
        <ele>567</ele>
        <time>2019-08-08T11:45:56.000Z</time>
      </trkpt>
      <trkpt lat="42.91413" lon="1.02905">
        <ele>568</ele>
        <time>2019-08-08T11:45:57.000Z</time>
      </trkpt>
      <trkpt lat="42.91407" lon="1.02904">
        <ele>568</ele>
        <time>2019-08-08T11:45:58.000Z</time>
      </trkpt>
      <trkpt lat="42.91407" lon="1.02904">
        <ele>568</ele>
        <time>2019-08-08T11:45:59.000Z</time>
      </trkpt>
      <trkpt lat="42.91396" lon="1.029">
        <ele>568</ele>
        <time>2019-08-08T11:46:00.000Z</time>
      </trkpt>
      <trkpt lat="42.91394" lon="1.029">
        <ele>568</ele>
        <time>2019-08-08T11:46:01.000Z</time>
      </trkpt>
      <trkpt lat="42.91392" lon="1.02899">
        <ele>569</ele>
        <time>2019-08-08T11:46:02.000Z</time>
      </trkpt>
      <trkpt lat="42.91384" lon="1.02897">
        <ele>569</ele>
        <time>2019-08-08T11:46:03.000Z</time>
      </trkpt>
      <trkpt lat="42.91383" lon="1.02896">
        <ele>570</ele>
        <time>2019-08-08T11:46:04.000Z</time>
      </trkpt>
      <trkpt lat="42.91381" lon="1.02895">
        <ele>570</ele>
        <time>2019-08-08T11:46:05.000Z</time>
      </trkpt>
      <trkpt lat="42.91374" lon="1.02891">
        <ele>570</ele>
        <time>2019-08-08T11:46:06.000Z</time>
      </trkpt>
      <trkpt lat="42.91372" lon="1.0289">
        <ele>570</ele>
        <time>2019-08-08T11:46:07.000Z</time>
      </trkpt>
      <trkpt lat="42.9137" lon="1.02888">
        <ele>570</ele>
        <time>2019-08-08T11:46:08.000Z</time>
      </trkpt>
      <trkpt lat="42.91363" lon="1.02883">
        <ele>570</ele>
        <time>2019-08-08T11:46:09.000Z</time>
      </trkpt>
      <trkpt lat="42.91361" lon="1.02881">
        <ele>571</ele>
        <time>2019-08-08T11:46:10.000Z</time>
      </trkpt>
      <trkpt lat="42.91359" lon="1.0288">
        <ele>571</ele>
        <time>2019-08-08T11:46:11.000Z</time>
      </trkpt>
      <trkpt lat="42.91353" lon="1.02876">
        <ele>571</ele>
        <time>2019-08-08T11:46:12.000Z</time>
      </trkpt>
      <trkpt lat="42.9135" lon="1.02873">
        <ele>571</ele>
        <time>2019-08-08T11:46:13.000Z</time>
      </trkpt>
      <trkpt lat="42.91347" lon="1.0287">
        <ele>571</ele>
        <time>2019-08-08T11:46:14.000Z</time>
      </trkpt>
      <trkpt lat="42.91343" lon="1.02867">
        <ele>571</ele>
        <time>2019-08-08T11:46:15.000Z</time>
      </trkpt>
      <trkpt lat="42.91339" lon="1.02865">
        <ele>571</ele>
        <time>2019-08-08T11:46:16.000Z</time>
      </trkpt>
      <trkpt lat="42.91335" lon="1.02863">
        <ele>571</ele>
        <time>2019-08-08T11:46:17.000Z</time>
      </trkpt>
      <trkpt lat="42.91331" lon="1.02861">
        <ele>571</ele>
        <time>2019-08-08T11:46:18.000Z</time>
      </trkpt>
      <trkpt lat="42.91327" lon="1.02859">
        <ele>571</ele>
        <time>2019-08-08T11:46:19.000Z</time>
      </trkpt>
      <trkpt lat="42.91323" lon="1.02858">
        <ele>572</ele>
        <time>2019-08-08T11:46:20.000Z</time>
      </trkpt>
      <trkpt lat="42.91318" lon="1.02857">
        <ele>572</ele>
        <time>2019-08-08T11:46:21.000Z</time>
      </trkpt>
      <trkpt lat="42.91314" lon="1.02856">
        <ele>573</ele>
        <time>2019-08-08T11:46:22.000Z</time>
      </trkpt>
      <trkpt lat="42.9131" lon="1.02856">
        <ele>573</ele>
        <time>2019-08-08T11:46:23.000Z</time>
      </trkpt>
      <trkpt lat="42.91306" lon="1.02856">
        <ele>573</ele>
        <time>2019-08-08T11:46:24.000Z</time>
      </trkpt>
      <trkpt lat="42.91302" lon="1.02857">
        <ele>573</ele>
        <time>2019-08-08T11:46:25.000Z</time>
      </trkpt>
      <trkpt lat="42.91298" lon="1.02857">
        <ele>573</ele>
        <time>2019-08-08T11:46:26.000Z</time>
      </trkpt>
      <trkpt lat="42.91293" lon="1.02858">
        <ele>574</ele>
        <time>2019-08-08T11:46:27.000Z</time>
      </trkpt>
      <trkpt lat="42.91289" lon="1.02859">
        <ele>574</ele>
        <time>2019-08-08T11:46:28.000Z</time>
      </trkpt>
      <trkpt lat="42.91285" lon="1.02861">
        <ele>574</ele>
        <time>2019-08-08T11:46:29.000Z</time>
      </trkpt>
      <trkpt lat="42.9128" lon="1.02862">
        <ele>574</ele>
        <time>2019-08-08T11:46:30.000Z</time>
      </trkpt>
      <trkpt lat="42.91276" lon="1.02863">
        <ele>574</ele>
        <time>2019-08-08T11:46:31.000Z</time>
      </trkpt>
      <trkpt lat="42.91271" lon="1.02863">
        <ele>574</ele>
        <time>2019-08-08T11:46:32.000Z</time>
      </trkpt>
      <trkpt lat="42.91267" lon="1.02863">
        <ele>574</ele>
        <time>2019-08-08T11:46:33.000Z</time>
      </trkpt>
      <trkpt lat="42.91262" lon="1.02862">
        <ele>574</ele>
        <time>2019-08-08T11:46:34.000Z</time>
      </trkpt>
      <trkpt lat="42.91257" lon="1.02861">
        <ele>574</ele>
        <time>2019-08-08T11:46:35.000Z</time>
      </trkpt>
      <trkpt lat="42.9125" lon="1.02859">
        <ele>574</ele>
        <time>2019-08-08T11:46:36.000Z</time>
      </trkpt>
      <trkpt lat="42.91247" lon="1.02858">
        <ele>574</ele>
        <time>2019-08-08T11:46:37.000Z</time>
      </trkpt>
      <trkpt lat="42.91243" lon="1.02856">
        <ele>574</ele>
        <time>2019-08-08T11:46:38.000Z</time>
      </trkpt>
      <trkpt lat="42.91238" lon="1.02855">
        <ele>574</ele>
        <time>2019-08-08T11:46:39.000Z</time>
      </trkpt>
      <trkpt lat="42.91234" lon="1.02854">
        <ele>575</ele>
        <time>2019-08-08T11:46:40.000Z</time>
      </trkpt>
      <trkpt lat="42.91229" lon="1.02853">
        <ele>575</ele>
        <time>2019-08-08T11:46:41.000Z</time>
      </trkpt>
      <trkpt lat="42.91229" lon="1.02853">
        <ele>575</ele>
        <time>2019-08-08T11:46:42.000Z</time>
      </trkpt>
      <trkpt lat="42.91217" lon="1.02852">
        <ele>575</ele>
        <time>2019-08-08T11:46:43.000Z</time>
      </trkpt>
      <trkpt lat="42.91214" lon="1.02852">
        <ele>575</ele>
        <time>2019-08-08T11:46:44.000Z</time>
      </trkpt>
      <trkpt lat="42.91209" lon="1.02853">
        <ele>575</ele>
        <time>2019-08-08T11:46:45.000Z</time>
      </trkpt>
      <trkpt lat="42.91209" lon="1.02853">
        <ele>575</ele>
        <time>2019-08-08T11:46:46.000Z</time>
      </trkpt>
      <trkpt lat="42.91199" lon="1.02857">
        <ele>576</ele>
        <time>2019-08-08T11:46:47.000Z</time>
      </trkpt>
      <trkpt lat="42.91199" lon="1.02857">
        <ele>576</ele>
        <time>2019-08-08T11:46:48.000Z</time>
      </trkpt>
      <trkpt lat="42.9119" lon="1.02863">
        <ele>576</ele>
        <time>2019-08-08T11:46:49.000Z</time>
      </trkpt>
      <trkpt lat="42.91186" lon="1.02867">
        <ele>576</ele>
        <time>2019-08-08T11:46:50.000Z</time>
      </trkpt>
      <trkpt lat="42.91181" lon="1.02871">
        <ele>576</ele>
        <time>2019-08-08T11:46:51.000Z</time>
      </trkpt>
      <trkpt lat="42.91176" lon="1.02875">
        <ele>576</ele>
        <time>2019-08-08T11:46:52.000Z</time>
      </trkpt>
      <trkpt lat="42.91168" lon="1.02882">
        <ele>575</ele>
        <time>2019-08-08T11:46:53.000Z</time>
      </trkpt>
      <trkpt lat="42.91165" lon="1.02885">
        <ele>575</ele>
        <time>2019-08-08T11:46:54.000Z</time>
      </trkpt>
      <trkpt lat="42.91156" lon="1.02892">
        <ele>575</ele>
        <time>2019-08-08T11:46:55.000Z</time>
      </trkpt>
      <trkpt lat="42.91153" lon="1.02894">
        <ele>575</ele>
        <time>2019-08-08T11:46:56.000Z</time>
      </trkpt>
      <trkpt lat="42.91153" lon="1.02894">
        <ele>574</ele>
        <time>2019-08-08T11:46:57.000Z</time>
      </trkpt>
      <trkpt lat="42.91139" lon="1.02907">
        <ele>574</ele>
        <time>2019-08-08T11:46:58.000Z</time>
      </trkpt>
      <trkpt lat="42.91136" lon="1.0291">
        <ele>574</ele>
        <time>2019-08-08T11:46:59.000Z</time>
      </trkpt>
      <trkpt lat="42.91131" lon="1.02915">
        <ele>574</ele>
        <time>2019-08-08T11:47:00.000Z</time>
      </trkpt>
      <trkpt lat="42.91131" lon="1.02915">
        <ele>574</ele>
        <time>2019-08-08T11:47:01.000Z</time>
      </trkpt>
      <trkpt lat="42.91121" lon="1.02925">
        <ele>574</ele>
        <time>2019-08-08T11:47:02.000Z</time>
      </trkpt>
      <trkpt lat="42.91118" lon="1.02927">
        <ele>573</ele>
        <time>2019-08-08T11:47:03.000Z</time>
      </trkpt>
      <trkpt lat="42.91109" lon="1.02932">
        <ele>573</ele>
        <time>2019-08-08T11:47:04.000Z</time>
      </trkpt>
      <trkpt lat="42.91106" lon="1.02933">
        <ele>572</ele>
        <time>2019-08-08T11:47:05.000Z</time>
      </trkpt>
      <trkpt lat="42.911" lon="1.02935">
        <ele>572</ele>
        <time>2019-08-08T11:47:06.000Z</time>
      </trkpt>
      <trkpt lat="42.911" lon="1.02935">
        <ele>572</ele>
        <time>2019-08-08T11:47:07.000Z</time>
      </trkpt>
      <trkpt lat="42.91087" lon="1.02941">
        <ele>572</ele>
        <time>2019-08-08T11:47:08.000Z</time>
      </trkpt>
      <trkpt lat="42.91083" lon="1.02942">
        <ele>572</ele>
        <time>2019-08-08T11:47:09.000Z</time>
      </trkpt>
      <trkpt lat="42.91075" lon="1.02945">
        <ele>572</ele>
        <time>2019-08-08T11:47:10.000Z</time>
      </trkpt>
      <trkpt lat="42.91061" lon="1.02948">
        <ele>572</ele>
        <time>2019-08-08T11:47:11.000Z</time>
      </trkpt>
      <trkpt lat="42.91055" lon="1.02948">
        <ele>572</ele>
        <time>2019-08-08T11:47:12.000Z</time>
      </trkpt>
      <trkpt lat="42.91045" lon="1.02949">
        <ele>571</ele>
        <time>2019-08-08T11:47:13.000Z</time>
      </trkpt>
      <trkpt lat="42.91033" lon="1.02949">
        <ele>571</ele>
        <time>2019-08-08T11:47:14.000Z</time>
      </trkpt>
      <trkpt lat="42.91021" lon="1.02948">
        <ele>570</ele>
        <time>2019-08-08T11:47:15.000Z</time>
      </trkpt>
      <trkpt lat="42.91011" lon="1.02947">
        <ele>570</ele>
        <time>2019-08-08T11:47:16.000Z</time>
      </trkpt>
      <trkpt lat="42.91002" lon="1.02946">
        <ele>570</ele>
        <time>2019-08-08T11:47:17.000Z</time>
      </trkpt>
      <trkpt lat="42.90992" lon="1.02944">
        <ele>570</ele>
        <time>2019-08-08T11:47:18.000Z</time>
      </trkpt>
      <trkpt lat="42.90983" lon="1.02942">
        <ele>570</ele>
        <time>2019-08-08T11:47:19.000Z</time>
      </trkpt>
      <trkpt lat="42.90974" lon="1.02939">
        <ele>567</ele>
        <time>2019-08-08T11:47:20.000Z</time>
      </trkpt>
      <trkpt lat="42.90965" lon="1.02935">
        <ele>567</ele>
        <time>2019-08-08T11:47:21.000Z</time>
      </trkpt>
      <trkpt lat="42.90957" lon="1.02931">
        <ele>566</ele>
        <time>2019-08-08T11:47:22.000Z</time>
      </trkpt>
      <trkpt lat="42.9095" lon="1.02927">
        <ele>566</ele>
        <time>2019-08-08T11:47:23.000Z</time>
      </trkpt>
      <trkpt lat="42.90941" lon="1.02922">
        <ele>566</ele>
        <time>2019-08-08T11:47:24.000Z</time>
      </trkpt>
      <trkpt lat="42.90932" lon="1.02917">
        <ele>566</ele>
        <time>2019-08-08T11:47:25.000Z</time>
      </trkpt>
      <trkpt lat="42.90922" lon="1.02913">
        <ele>566</ele>
        <time>2019-08-08T11:47:26.000Z</time>
      </trkpt>
      <trkpt lat="42.90912" lon="1.02911">
        <ele>566</ele>
        <time>2019-08-08T11:47:27.000Z</time>
      </trkpt>
      <trkpt lat="42.90903" lon="1.0291">
        <ele>566</ele>
        <time>2019-08-08T11:47:28.000Z</time>
      </trkpt>
      <trkpt lat="42.90893" lon="1.02911">
        <ele>566</ele>
        <time>2019-08-08T11:47:29.000Z</time>
      </trkpt>
      <trkpt lat="42.90884" lon="1.0291">
        <ele>566</ele>
        <time>2019-08-08T11:47:30.000Z</time>
      </trkpt>
      <trkpt lat="42.90874" lon="1.0291">
        <ele>565</ele>
        <time>2019-08-08T11:47:31.000Z</time>
      </trkpt>
      <trkpt lat="42.90865" lon="1.0291">
        <ele>565</ele>
        <time>2019-08-08T11:47:32.000Z</time>
      </trkpt>
      <trkpt lat="42.90856" lon="1.02911">
        <ele>564</ele>
        <time>2019-08-08T11:47:33.000Z</time>
      </trkpt>
      <trkpt lat="42.90846" lon="1.02911">
        <ele>564</ele>
        <time>2019-08-08T11:47:34.000Z</time>
      </trkpt>
      <trkpt lat="42.90837" lon="1.02911">
        <ele>564</ele>
        <time>2019-08-08T11:47:35.000Z</time>
      </trkpt>
      <trkpt lat="42.90827" lon="1.02912">
        <ele>563</ele>
        <time>2019-08-08T11:47:36.000Z</time>
      </trkpt>
      <trkpt lat="42.90817" lon="1.02912">
        <ele>563</ele>
        <time>2019-08-08T11:47:37.000Z</time>
      </trkpt>
      <trkpt lat="42.90808" lon="1.02912">
        <ele>561</ele>
        <time>2019-08-08T11:47:38.000Z</time>
      </trkpt>
      <trkpt lat="42.90799" lon="1.02912">
        <ele>561</ele>
        <time>2019-08-08T11:47:39.000Z</time>
      </trkpt>
      <trkpt lat="42.90789" lon="1.02911">
        <ele>560</ele>
        <time>2019-08-08T11:47:40.000Z</time>
      </trkpt>
      <trkpt lat="42.9078" lon="1.02911">
        <ele>560</ele>
        <time>2019-08-08T11:47:41.000Z</time>
      </trkpt>
      <trkpt lat="42.9077" lon="1.02911">
        <ele>560</ele>
        <time>2019-08-08T11:47:42.000Z</time>
      </trkpt>
      <trkpt lat="42.9076" lon="1.0291">
        <ele>560</ele>
        <time>2019-08-08T11:47:43.000Z</time>
      </trkpt>
      <trkpt lat="42.9075" lon="1.02907">
        <ele>558</ele>
        <time>2019-08-08T11:47:44.000Z</time>
      </trkpt>
      <trkpt lat="42.90742" lon="1.02904">
        <ele>558</ele>
        <time>2019-08-08T11:47:45.000Z</time>
      </trkpt>
      <trkpt lat="42.90733" lon="1.02899">
        <ele>557</ele>
        <time>2019-08-08T11:47:46.000Z</time>
      </trkpt>
      <trkpt lat="42.90725" lon="1.02894">
        <ele>557</ele>
        <time>2019-08-08T11:47:47.000Z</time>
      </trkpt>
      <trkpt lat="42.90717" lon="1.02889">
        <ele>557</ele>
        <time>2019-08-08T11:47:48.000Z</time>
      </trkpt>
      <trkpt lat="42.90709" lon="1.02884">
        <ele>557</ele>
        <time>2019-08-08T11:47:49.000Z</time>
      </trkpt>
      <trkpt lat="42.907" lon="1.0288">
        <ele>557</ele>
        <time>2019-08-08T11:47:50.000Z</time>
      </trkpt>
      <trkpt lat="42.90691" lon="1.02876">
        <ele>557</ele>
        <time>2019-08-08T11:47:51.000Z</time>
      </trkpt>
      <trkpt lat="42.90678" lon="1.02872">
        <ele>557</ele>
        <time>2019-08-08T11:47:52.000Z</time>
      </trkpt>
      <trkpt lat="42.90674" lon="1.0287">
        <ele>557</ele>
        <time>2019-08-08T11:47:53.000Z</time>
      </trkpt>
      <trkpt lat="42.90665" lon="1.02867">
        <ele>557</ele>
        <time>2019-08-08T11:47:54.000Z</time>
      </trkpt>
      <trkpt lat="42.90657" lon="1.02863">
        <ele>557</ele>
        <time>2019-08-08T11:47:55.000Z</time>
      </trkpt>
      <trkpt lat="42.90648" lon="1.02859">
        <ele>557</ele>
        <time>2019-08-08T11:47:56.000Z</time>
      </trkpt>
      <trkpt lat="42.9064" lon="1.02856">
        <ele>557</ele>
        <time>2019-08-08T11:47:57.000Z</time>
      </trkpt>
      <trkpt lat="42.90632" lon="1.02852">
        <ele>557</ele>
        <time>2019-08-08T11:47:58.000Z</time>
      </trkpt>
      <trkpt lat="42.90624" lon="1.02849">
        <ele>557</ele>
        <time>2019-08-08T11:47:59.000Z</time>
      </trkpt>
      <trkpt lat="42.90617" lon="1.02845">
        <ele>557</ele>
        <time>2019-08-08T11:48:00.000Z</time>
      </trkpt>
      <trkpt lat="42.90609" lon="1.02841">
        <ele>557</ele>
        <time>2019-08-08T11:48:01.000Z</time>
      </trkpt>
      <trkpt lat="42.90602" lon="1.02836">
        <ele>557</ele>
        <time>2019-08-08T11:48:02.000Z</time>
      </trkpt>
      <trkpt lat="42.90594" lon="1.02832">
        <ele>558</ele>
        <time>2019-08-08T11:48:03.000Z</time>
      </trkpt>
      <trkpt lat="42.90586" lon="1.02829">
        <ele>558</ele>
        <time>2019-08-08T11:48:04.000Z</time>
      </trkpt>
      <trkpt lat="42.90579" lon="1.02826">
        <ele>558</ele>
        <time>2019-08-08T11:48:05.000Z</time>
      </trkpt>
      <trkpt lat="42.90571" lon="1.02823">
        <ele>558</ele>
        <time>2019-08-08T11:48:06.000Z</time>
      </trkpt>
      <trkpt lat="42.90564" lon="1.02822">
        <ele>558</ele>
        <time>2019-08-08T11:48:07.000Z</time>
      </trkpt>
      <trkpt lat="42.90556" lon="1.02822">
        <ele>558</ele>
        <time>2019-08-08T11:48:08.000Z</time>
      </trkpt>
      <trkpt lat="42.90548" lon="1.02823">
        <ele>558</ele>
        <time>2019-08-08T11:48:09.000Z</time>
      </trkpt>
      <trkpt lat="42.9054" lon="1.02825">
        <ele>558</ele>
        <time>2019-08-08T11:48:10.000Z</time>
      </trkpt>
      <trkpt lat="42.90533" lon="1.02828">
        <ele>558</ele>
        <time>2019-08-08T11:48:11.000Z</time>
      </trkpt>
      <trkpt lat="42.90526" lon="1.02832">
        <ele>558</ele>
        <time>2019-08-08T11:48:12.000Z</time>
      </trkpt>
      <trkpt lat="42.9052" lon="1.02836">
        <ele>558</ele>
        <time>2019-08-08T11:48:13.000Z</time>
      </trkpt>
      <trkpt lat="42.90511" lon="1.02843">
        <ele>558</ele>
        <time>2019-08-08T11:48:14.000Z</time>
      </trkpt>
      <trkpt lat="42.90508" lon="1.02845">
        <ele>558</ele>
        <time>2019-08-08T11:48:15.000Z</time>
      </trkpt>
      <trkpt lat="42.90501" lon="1.02853">
        <ele>558</ele>
        <time>2019-08-08T11:48:16.000Z</time>
      </trkpt>
      <trkpt lat="42.90498" lon="1.02855">
        <ele>558</ele>
        <time>2019-08-08T11:48:17.000Z</time>
      </trkpt>
      <trkpt lat="42.90491" lon="1.02862">
        <ele>559</ele>
        <time>2019-08-08T11:48:18.000Z</time>
      </trkpt>
      <trkpt lat="42.90489" lon="1.02864">
        <ele>559</ele>
        <time>2019-08-08T11:48:19.000Z</time>
      </trkpt>
      <trkpt lat="42.90484" lon="1.02869">
        <ele>561</ele>
        <time>2019-08-08T11:48:20.000Z</time>
      </trkpt>
      <trkpt lat="42.9048" lon="1.02874">
        <ele>561</ele>
        <time>2019-08-08T11:48:21.000Z</time>
      </trkpt>
      <trkpt lat="42.90474" lon="1.02881">
        <ele>562</ele>
        <time>2019-08-08T11:48:22.000Z</time>
      </trkpt>
      <trkpt lat="42.90472" lon="1.02883">
        <ele>562</ele>
        <time>2019-08-08T11:48:23.000Z</time>
      </trkpt>
      <trkpt lat="42.90467" lon="1.02887">
        <ele>562</ele>
        <time>2019-08-08T11:48:24.000Z</time>
      </trkpt>
      <trkpt lat="42.90463" lon="1.02892">
        <ele>562</ele>
        <time>2019-08-08T11:48:25.000Z</time>
      </trkpt>
      <trkpt lat="42.90457" lon="1.02899">
        <ele>562</ele>
        <time>2019-08-08T11:48:26.000Z</time>
      </trkpt>
      <trkpt lat="42.90455" lon="1.02901">
        <ele>562</ele>
        <time>2019-08-08T11:48:27.000Z</time>
      </trkpt>
      <trkpt lat="42.90451" lon="1.02905">
        <ele>562</ele>
        <time>2019-08-08T11:48:28.000Z</time>
      </trkpt>
      <trkpt lat="42.90447" lon="1.02909">
        <ele>563</ele>
        <time>2019-08-08T11:48:29.000Z</time>
      </trkpt>
      <trkpt lat="42.90443" lon="1.02913">
        <ele>563</ele>
        <time>2019-08-08T11:48:30.000Z</time>
      </trkpt>
      <trkpt lat="42.90439" lon="1.02917">
        <ele>564</ele>
        <time>2019-08-08T11:48:31.000Z</time>
      </trkpt>
      <trkpt lat="42.90435" lon="1.02921">
        <ele>564</ele>
        <time>2019-08-08T11:48:32.000Z</time>
      </trkpt>
      <trkpt lat="42.90431" lon="1.02925">
        <ele>564</ele>
        <time>2019-08-08T11:48:33.000Z</time>
      </trkpt>
      <trkpt lat="42.90427" lon="1.02929">
        <ele>565</ele>
        <time>2019-08-08T11:48:34.000Z</time>
      </trkpt>
      <trkpt lat="42.90424" lon="1.02932">
        <ele>565</ele>
        <time>2019-08-08T11:48:35.000Z</time>
      </trkpt>
      <trkpt lat="42.9042" lon="1.02934">
        <ele>565</ele>
        <time>2019-08-08T11:48:36.000Z</time>
      </trkpt>
      <trkpt lat="42.90415" lon="1.02937">
        <ele>565</ele>
        <time>2019-08-08T11:48:37.000Z</time>
      </trkpt>
      <trkpt lat="42.90411" lon="1.02939">
        <ele>565</ele>
        <time>2019-08-08T11:48:38.000Z</time>
      </trkpt>
      <trkpt lat="42.90407" lon="1.02941">
        <ele>565</ele>
        <time>2019-08-08T11:48:39.000Z</time>
      </trkpt>
      <trkpt lat="42.90403" lon="1.02942">
        <ele>565</ele>
        <time>2019-08-08T11:48:40.000Z</time>
      </trkpt>
      <trkpt lat="42.90399" lon="1.02944">
        <ele>565</ele>
        <time>2019-08-08T11:48:41.000Z</time>
      </trkpt>
      <trkpt lat="42.90394" lon="1.02945">
        <ele>566</ele>
        <time>2019-08-08T11:48:42.000Z</time>
      </trkpt>
      <trkpt lat="42.90389" lon="1.02945">
        <ele>565</ele>
        <time>2019-08-08T11:48:43.000Z</time>
      </trkpt>
      <trkpt lat="42.90385" lon="1.02946">
        <ele>565</ele>
        <time>2019-08-08T11:48:44.000Z</time>
      </trkpt>
      <trkpt lat="42.9038" lon="1.02946">
        <ele>565</ele>
        <time>2019-08-08T11:48:45.000Z</time>
      </trkpt>
      <trkpt lat="42.90376" lon="1.02946">
        <ele>566</ele>
        <time>2019-08-08T11:48:46.000Z</time>
      </trkpt>
      <trkpt lat="42.90371" lon="1.02946">
        <ele>566</ele>
        <time>2019-08-08T11:48:47.000Z</time>
      </trkpt>
      <trkpt lat="42.90367" lon="1.02946">
        <ele>566</ele>
        <time>2019-08-08T11:48:48.000Z</time>
      </trkpt>
      <trkpt lat="42.90359" lon="1.02945">
        <ele>566</ele>
        <time>2019-08-08T11:48:49.000Z</time>
      </trkpt>
      <trkpt lat="42.90356" lon="1.02945">
        <ele>566</ele>
        <time>2019-08-08T11:48:50.000Z</time>
      </trkpt>
      <trkpt lat="42.90351" lon="1.02945">
        <ele>566</ele>
        <time>2019-08-08T11:48:51.000Z</time>
      </trkpt>
      <trkpt lat="42.90346" lon="1.02944">
        <ele>566</ele>
        <time>2019-08-08T11:48:52.000Z</time>
      </trkpt>
      <trkpt lat="42.90341" lon="1.02944">
        <ele>566</ele>
        <time>2019-08-08T11:48:53.000Z</time>
      </trkpt>
      <trkpt lat="42.90335" lon="1.02944">
        <ele>566</ele>
        <time>2019-08-08T11:48:54.000Z</time>
      </trkpt>
      <trkpt lat="42.9033" lon="1.02943">
        <ele>566</ele>
        <time>2019-08-08T11:48:55.000Z</time>
      </trkpt>
      <trkpt lat="42.90325" lon="1.02943">
        <ele>566</ele>
        <time>2019-08-08T11:48:56.000Z</time>
      </trkpt>
      <trkpt lat="42.9032" lon="1.02942">
        <ele>566</ele>
        <time>2019-08-08T11:48:57.000Z</time>
      </trkpt>
      <trkpt lat="42.90315" lon="1.02941">
        <ele>566</ele>
        <time>2019-08-08T11:48:58.000Z</time>
      </trkpt>
      <trkpt lat="42.90307" lon="1.0294">
        <ele>566</ele>
        <time>2019-08-08T11:48:59.000Z</time>
      </trkpt>
      <trkpt lat="42.90304" lon="1.02939">
        <ele>566</ele>
        <time>2019-08-08T11:49:00.000Z</time>
      </trkpt>
      <trkpt lat="42.903" lon="1.02938">
        <ele>566</ele>
        <time>2019-08-08T11:49:01.000Z</time>
      </trkpt>
      <trkpt lat="42.90295" lon="1.02937">
        <ele>566</ele>
        <time>2019-08-08T11:49:02.000Z</time>
      </trkpt>
      <trkpt lat="42.90289" lon="1.02935">
        <ele>566</ele>
        <time>2019-08-08T11:49:03.000Z</time>
      </trkpt>
      <trkpt lat="42.90284" lon="1.02934">
        <ele>566</ele>
        <time>2019-08-08T11:49:04.000Z</time>
      </trkpt>
      <trkpt lat="42.90278" lon="1.02933">
        <ele>566</ele>
        <time>2019-08-08T11:49:05.000Z</time>
      </trkpt>
      <trkpt lat="42.90272" lon="1.02931">
        <ele>566</ele>
        <time>2019-08-08T11:49:06.000Z</time>
      </trkpt>
      <trkpt lat="42.90266" lon="1.02929">
        <ele>566</ele>
        <time>2019-08-08T11:49:07.000Z</time>
      </trkpt>
      <trkpt lat="42.9026" lon="1.02926">
        <ele>566</ele>
        <time>2019-08-08T11:49:08.000Z</time>
      </trkpt>
      <trkpt lat="42.90254" lon="1.02924">
        <ele>565</ele>
        <time>2019-08-08T11:49:09.000Z</time>
      </trkpt>
      <trkpt lat="42.90245" lon="1.02921">
        <ele>565</ele>
        <time>2019-08-08T11:49:10.000Z</time>
      </trkpt>
      <trkpt lat="42.90241" lon="1.0292">
        <ele>565</ele>
        <time>2019-08-08T11:49:11.000Z</time>
      </trkpt>
      <trkpt lat="42.90235" lon="1.02918">
        <ele>565</ele>
        <time>2019-08-08T11:49:12.000Z</time>
      </trkpt>
      <trkpt lat="42.90229" lon="1.02916">
        <ele>565</ele>
        <time>2019-08-08T11:49:13.000Z</time>
      </trkpt>
      <trkpt lat="42.90223" lon="1.02914">
        <ele>565</ele>
        <time>2019-08-08T11:49:14.000Z</time>
      </trkpt>
      <trkpt lat="42.90217" lon="1.02913">
        <ele>566</ele>
        <time>2019-08-08T11:49:15.000Z</time>
      </trkpt>
      <trkpt lat="42.90211" lon="1.02912">
        <ele>566</ele>
        <time>2019-08-08T11:49:16.000Z</time>
      </trkpt>
      <trkpt lat="42.90205" lon="1.02912">
        <ele>566</ele>
        <time>2019-08-08T11:49:17.000Z</time>
      </trkpt>
      <trkpt lat="42.90199" lon="1.02915">
        <ele>566</ele>
        <time>2019-08-08T11:49:18.000Z</time>
      </trkpt>
      <trkpt lat="42.90193" lon="1.02918">
        <ele>566</ele>
        <time>2019-08-08T11:49:19.000Z</time>
      </trkpt>
      <trkpt lat="42.90188" lon="1.02922">
        <ele>566</ele>
        <time>2019-08-08T11:49:20.000Z</time>
      </trkpt>
      <trkpt lat="42.90184" lon="1.02926">
        <ele>566</ele>
        <time>2019-08-08T11:49:21.000Z</time>
      </trkpt>
      <trkpt lat="42.9018" lon="1.02929">
        <ele>566</ele>
        <time>2019-08-08T11:49:22.000Z</time>
      </trkpt>
      <trkpt lat="42.90176" lon="1.02932">
        <ele>568</ele>
        <time>2019-08-08T11:49:23.000Z</time>
      </trkpt>
      <trkpt lat="42.90173" lon="1.02935">
        <ele>568</ele>
        <time>2019-08-08T11:49:24.000Z</time>
      </trkpt>
      <trkpt lat="42.90171" lon="1.02939">
        <ele>569</ele>
        <time>2019-08-08T11:49:25.000Z</time>
      </trkpt>
      <trkpt lat="42.90168" lon="1.02942">
        <ele>569</ele>
        <time>2019-08-08T11:49:26.000Z</time>
      </trkpt>
      <trkpt lat="42.90166" lon="1.02945">
        <ele>570</ele>
        <time>2019-08-08T11:49:27.000Z</time>
      </trkpt>
      <trkpt lat="42.90165" lon="1.02949">
        <ele>570</ele>
        <time>2019-08-08T11:49:28.000Z</time>
      </trkpt>
      <trkpt lat="42.90165" lon="1.02953">
        <ele>570</ele>
        <time>2019-08-08T11:49:29.000Z</time>
      </trkpt>
      <trkpt lat="42.90164" lon="1.02958">
        <ele>570</ele>
        <time>2019-08-08T11:49:30.000Z</time>
      </trkpt>
      <trkpt lat="42.90164" lon="1.02962">
        <ele>571</ele>
        <time>2019-08-08T11:49:31.000Z</time>
      </trkpt>
      <trkpt lat="42.90164" lon="1.02967">
        <ele>571</ele>
        <time>2019-08-08T11:49:32.000Z</time>
      </trkpt>
      <trkpt lat="42.90163" lon="1.02971">
        <ele>571</ele>
        <time>2019-08-08T11:49:33.000Z</time>
      </trkpt>
      <trkpt lat="42.90162" lon="1.02976">
        <ele>571</ele>
        <time>2019-08-08T11:49:34.000Z</time>
      </trkpt>
      <trkpt lat="42.90161" lon="1.0298">
        <ele>573</ele>
        <time>2019-08-08T11:49:35.000Z</time>
      </trkpt>
      <trkpt lat="42.90161" lon="1.02984">
        <ele>573</ele>
        <time>2019-08-08T11:49:36.000Z</time>
      </trkpt>
      <trkpt lat="42.90159" lon="1.02988">
        <ele>573</ele>
        <time>2019-08-08T11:49:37.000Z</time>
      </trkpt>
      <trkpt lat="42.90158" lon="1.02992">
        <ele>573</ele>
        <time>2019-08-08T11:49:38.000Z</time>
      </trkpt>
      <trkpt lat="42.90156" lon="1.02996">
        <ele>574</ele>
        <time>2019-08-08T11:49:39.000Z</time>
      </trkpt>
      <trkpt lat="42.90155" lon="1.03">
        <ele>574</ele>
        <time>2019-08-08T11:49:40.000Z</time>
      </trkpt>
      <trkpt lat="42.90153" lon="1.03003">
        <ele>574</ele>
        <time>2019-08-08T11:49:41.000Z</time>
      </trkpt>
      <trkpt lat="42.90151" lon="1.03007">
        <ele>574</ele>
        <time>2019-08-08T11:49:42.000Z</time>
      </trkpt>
      <trkpt lat="42.90149" lon="1.0301">
        <ele>574</ele>
        <time>2019-08-08T11:49:43.000Z</time>
      </trkpt>
      <trkpt lat="42.90147" lon="1.03014">
        <ele>574</ele>
        <time>2019-08-08T11:49:44.000Z</time>
      </trkpt>
      <trkpt lat="42.90145" lon="1.03017">
        <ele>574</ele>
        <time>2019-08-08T11:49:45.000Z</time>
      </trkpt>
      <trkpt lat="42.90144" lon="1.03021">
        <ele>574</ele>
        <time>2019-08-08T11:49:46.000Z</time>
      </trkpt>
      <trkpt lat="42.90142" lon="1.03025">
        <ele>575</ele>
        <time>2019-08-08T11:49:47.000Z</time>
      </trkpt>
      <trkpt lat="42.90141" lon="1.03028">
        <ele>575</ele>
        <time>2019-08-08T11:49:48.000Z</time>
      </trkpt>
      <trkpt lat="42.9014" lon="1.03032">
        <ele>576</ele>
        <time>2019-08-08T11:49:49.000Z</time>
      </trkpt>
      <trkpt lat="42.9014" lon="1.03036">
        <ele>576</ele>
        <time>2019-08-08T11:49:50.000Z</time>
      </trkpt>
      <trkpt lat="42.90139" lon="1.0304">
        <ele>577</ele>
        <time>2019-08-08T11:49:51.000Z</time>
      </trkpt>
      <trkpt lat="42.90139" lon="1.03044">
        <ele>577</ele>
        <time>2019-08-08T11:49:52.000Z</time>
      </trkpt>
      <trkpt lat="42.90139" lon="1.03049">
        <ele>576</ele>
        <time>2019-08-08T11:49:53.000Z</time>
      </trkpt>
      <trkpt lat="42.90139" lon="1.03053">
        <ele>576</ele>
        <time>2019-08-08T11:49:54.000Z</time>
      </trkpt>
      <trkpt lat="42.90139" lon="1.03057">
        <ele>577</ele>
        <time>2019-08-08T11:49:55.000Z</time>
      </trkpt>
      <trkpt lat="42.9014" lon="1.03061">
        <ele>577</ele>
        <time>2019-08-08T11:49:56.000Z</time>
      </trkpt>
      <trkpt lat="42.9014" lon="1.03065">
        <ele>578</ele>
        <time>2019-08-08T11:49:57.000Z</time>
      </trkpt>
      <trkpt lat="42.90141" lon="1.03068">
        <ele>578</ele>
        <time>2019-08-08T11:49:58.000Z</time>
      </trkpt>
      <trkpt lat="42.90142" lon="1.03072">
        <ele>579</ele>
        <time>2019-08-08T11:49:59.000Z</time>
      </trkpt>
      <trkpt lat="42.90142" lon="1.03075">
        <ele>579</ele>
        <time>2019-08-08T11:50:00.000Z</time>
      </trkpt>
      <trkpt lat="42.90143" lon="1.03079">
        <ele>579</ele>
        <time>2019-08-08T11:50:01.000Z</time>
      </trkpt>
      <trkpt lat="42.90143" lon="1.03082">
        <ele>579</ele>
        <time>2019-08-08T11:50:02.000Z</time>
      </trkpt>
      <trkpt lat="42.90144" lon="1.03085">
        <ele>580</ele>
        <time>2019-08-08T11:50:03.000Z</time>
      </trkpt>
      <trkpt lat="42.90145" lon="1.03088">
        <ele>580</ele>
        <time>2019-08-08T11:50:04.000Z</time>
      </trkpt>
      <trkpt lat="42.90145" lon="1.03092">
        <ele>580</ele>
        <time>2019-08-08T11:50:05.000Z</time>
      </trkpt>
      <trkpt lat="42.90146" lon="1.03095">
        <ele>580</ele>
        <time>2019-08-08T11:50:06.000Z</time>
      </trkpt>
      <trkpt lat="42.90146" lon="1.03098">
        <ele>580</ele>
        <time>2019-08-08T11:50:07.000Z</time>
      </trkpt>
      <trkpt lat="42.90146" lon="1.03101">
        <ele>582</ele>
        <time>2019-08-08T11:50:08.000Z</time>
      </trkpt>
      <trkpt lat="42.90147" lon="1.03105">
        <ele>582</ele>
        <time>2019-08-08T11:50:09.000Z</time>
      </trkpt>
      <trkpt lat="42.90148" lon="1.03108">
        <ele>582</ele>
        <time>2019-08-08T11:50:10.000Z</time>
      </trkpt>
      <trkpt lat="42.90149" lon="1.03111">
        <ele>582</ele>
        <time>2019-08-08T11:50:11.000Z</time>
      </trkpt>
      <trkpt lat="42.9015" lon="1.03115">
        <ele>583</ele>
        <time>2019-08-08T11:50:12.000Z</time>
      </trkpt>
      <trkpt lat="42.90151" lon="1.03118">
        <ele>583</ele>
        <time>2019-08-08T11:50:13.000Z</time>
      </trkpt>
      <trkpt lat="42.90151" lon="1.03122">
        <ele>583</ele>
        <time>2019-08-08T11:50:14.000Z</time>
      </trkpt>
      <trkpt lat="42.90151" lon="1.03127">
        <ele>583</ele>
        <time>2019-08-08T11:50:15.000Z</time>
      </trkpt>
      <trkpt lat="42.90151" lon="1.03131">
        <ele>583</ele>
        <time>2019-08-08T11:50:16.000Z</time>
      </trkpt>
      <trkpt lat="42.9015" lon="1.03135">
        <ele>583</ele>
        <time>2019-08-08T11:50:17.000Z</time>
      </trkpt>
      <trkpt lat="42.9015" lon="1.0314">
        <ele>583</ele>
        <time>2019-08-08T11:50:18.000Z</time>
      </trkpt>
      <trkpt lat="42.9015" lon="1.03145">
        <ele>583</ele>
        <time>2019-08-08T11:50:19.000Z</time>
      </trkpt>
      <trkpt lat="42.9015" lon="1.03149">
        <ele>583</ele>
        <time>2019-08-08T11:50:20.000Z</time>
      </trkpt>
      <trkpt lat="42.9015" lon="1.03154">
        <ele>583</ele>
        <time>2019-08-08T11:50:21.000Z</time>
      </trkpt>
      <trkpt lat="42.9015" lon="1.03159">
        <ele>584</ele>
        <time>2019-08-08T11:50:22.000Z</time>
      </trkpt>
      <trkpt lat="42.9015" lon="1.03163">
        <ele>584</ele>
        <time>2019-08-08T11:50:23.000Z</time>
      </trkpt>
      <trkpt lat="42.9015" lon="1.0317">
        <ele>584</ele>
        <time>2019-08-08T11:50:24.000Z</time>
      </trkpt>
      <trkpt lat="42.9015" lon="1.03172">
        <ele>584</ele>
        <time>2019-08-08T11:50:25.000Z</time>
      </trkpt>
      <trkpt lat="42.9015" lon="1.03177">
        <ele>584</ele>
        <time>2019-08-08T11:50:26.000Z</time>
      </trkpt>
      <trkpt lat="42.9015" lon="1.03181">
        <ele>586</ele>
        <time>2019-08-08T11:50:27.000Z</time>
      </trkpt>
      <trkpt lat="42.9015" lon="1.03185">
        <ele>586</ele>
        <time>2019-08-08T11:50:28.000Z</time>
      </trkpt>
      <trkpt lat="42.9015" lon="1.0319">
        <ele>586</ele>
        <time>2019-08-08T11:50:29.000Z</time>
      </trkpt>
      <trkpt lat="42.90149" lon="1.03194">
        <ele>586</ele>
        <time>2019-08-08T11:50:30.000Z</time>
      </trkpt>
      <trkpt lat="42.90149" lon="1.03198">
        <ele>587</ele>
        <time>2019-08-08T11:50:31.000Z</time>
      </trkpt>
      <trkpt lat="42.90149" lon="1.03202">
        <ele>587</ele>
        <time>2019-08-08T11:50:32.000Z</time>
      </trkpt>
      <trkpt lat="42.90148" lon="1.03206">
        <ele>587</ele>
        <time>2019-08-08T11:50:33.000Z</time>
      </trkpt>
      <trkpt lat="42.90148" lon="1.0321">
        <ele>587</ele>
        <time>2019-08-08T11:50:34.000Z</time>
      </trkpt>
      <trkpt lat="42.90148" lon="1.03215">
        <ele>588</ele>
        <time>2019-08-08T11:50:35.000Z</time>
      </trkpt>
      <trkpt lat="42.90148" lon="1.03219">
        <ele>588</ele>
        <time>2019-08-08T11:50:36.000Z</time>
      </trkpt>
      <trkpt lat="42.90148" lon="1.03223">
        <ele>589</ele>
        <time>2019-08-08T11:50:37.000Z</time>
      </trkpt>
      <trkpt lat="42.90147" lon="1.03227">
        <ele>589</ele>
        <time>2019-08-08T11:50:38.000Z</time>
      </trkpt>
      <trkpt lat="42.90147" lon="1.03231">
        <ele>589</ele>
        <time>2019-08-08T11:50:39.000Z</time>
      </trkpt>
      <trkpt lat="42.90146" lon="1.03235">
        <ele>589</ele>
        <time>2019-08-08T11:50:40.000Z</time>
      </trkpt>
      <trkpt lat="42.90146" lon="1.03239">
        <ele>590</ele>
        <time>2019-08-08T11:50:41.000Z</time>
      </trkpt>
      <trkpt lat="42.90145" lon="1.03243">
        <ele>590</ele>
        <time>2019-08-08T11:50:42.000Z</time>
      </trkpt>
      <trkpt lat="42.90144" lon="1.03247">
        <ele>589</ele>
        <time>2019-08-08T11:50:43.000Z</time>
      </trkpt>
      <trkpt lat="42.90143" lon="1.0325">
        <ele>589</ele>
        <time>2019-08-08T11:50:44.000Z</time>
      </trkpt>
      <trkpt lat="42.90141" lon="1.03252">
        <ele>589</ele>
        <time>2019-08-08T11:50:45.000Z</time>
      </trkpt>
      <trkpt lat="42.9014" lon="1.03255">
        <ele>589</ele>
        <time>2019-08-08T11:50:46.000Z</time>
      </trkpt>
      <trkpt lat="42.9014" lon="1.03255">
        <ele>589</ele>
        <time>2019-08-08T11:50:47.000Z</time>
      </trkpt>
      <trkpt lat="42.90137" lon="1.03257">
        <ele>589</ele>
        <time>2019-08-08T11:50:48.000Z</time>
      </trkpt>
      <trkpt lat="42.90137" lon="1.03257">
        <ele>590</ele>
        <time>2019-08-08T11:50:49.000Z</time>
      </trkpt>
      <trkpt lat="42.90134" lon="1.03256">
        <ele>590</ele>
        <time>2019-08-08T11:50:50.000Z</time>
      </trkpt>
      <trkpt lat="42.90131" lon="1.03255">
        <ele>590</ele>
        <time>2019-08-08T11:50:51.000Z</time>
      </trkpt>
      <trkpt lat="42.90131" lon="1.03255">
        <ele>590</ele>
        <time>2019-08-08T11:50:52.000Z</time>
      </trkpt>
      <trkpt lat="42.90128" lon="1.03249">
        <ele>591</ele>
        <time>2019-08-08T11:50:53.000Z</time>
      </trkpt>
      <trkpt lat="42.90127" lon="1.03246">
        <ele>591</ele>
        <time>2019-08-08T11:50:54.000Z</time>
      </trkpt>
      <trkpt lat="42.90124" lon="1.03242">
        <ele>592</ele>
        <time>2019-08-08T11:50:55.000Z</time>
      </trkpt>
      <trkpt lat="42.90124" lon="1.0324">
        <ele>592</ele>
        <time>2019-08-08T11:50:56.000Z</time>
      </trkpt>
      <trkpt lat="42.90123" lon="1.03239">
        <ele>592</ele>
        <time>2019-08-08T11:50:57.000Z</time>
      </trkpt>
      <trkpt lat="42.90122" lon="1.03237">
        <ele>592</ele>
        <time>2019-08-08T11:50:58.000Z</time>
      </trkpt>
      <trkpt lat="42.9012" lon="1.0323">
        <ele>593</ele>
        <time>2019-08-08T11:50:59.000Z</time>
      </trkpt>
      <trkpt lat="42.9012" lon="1.0323">
        <ele>593</ele>
        <time>2019-08-08T11:51:00.000Z</time>
      </trkpt>
      <trkpt lat="42.90116" lon="1.0322">
        <ele>593</ele>
        <time>2019-08-08T11:51:01.000Z</time>
      </trkpt>
      <trkpt lat="42.90115" lon="1.03217">
        <ele>593</ele>
        <time>2019-08-08T11:51:02.000Z</time>
      </trkpt>
      <trkpt lat="42.90114" lon="1.03215">
        <ele>593</ele>
        <time>2019-08-08T11:51:03.000Z</time>
      </trkpt>
      <trkpt lat="42.90112" lon="1.03209">
        <ele>593</ele>
        <time>2019-08-08T11:51:04.000Z</time>
      </trkpt>
      <trkpt lat="42.90111" lon="1.03204">
        <ele>593</ele>
        <time>2019-08-08T11:51:05.000Z</time>
      </trkpt>
      <trkpt lat="42.90111" lon="1.03199">
        <ele>595</ele>
        <time>2019-08-08T11:51:06.000Z</time>
      </trkpt>
      <trkpt lat="42.9011" lon="1.03195">
        <ele>595</ele>
        <time>2019-08-08T11:51:07.000Z</time>
      </trkpt>
      <trkpt lat="42.90109" lon="1.0319">
        <ele>595</ele>
        <time>2019-08-08T11:51:08.000Z</time>
      </trkpt>
      <trkpt lat="42.90109" lon="1.03185">
        <ele>595</ele>
        <time>2019-08-08T11:51:09.000Z</time>
      </trkpt>
      <trkpt lat="42.90108" lon="1.03181">
        <ele>596</ele>
        <time>2019-08-08T11:51:10.000Z</time>
      </trkpt>
      <trkpt lat="42.90108" lon="1.03176">
        <ele>596</ele>
        <time>2019-08-08T11:51:11.000Z</time>
      </trkpt>
      <trkpt lat="42.90107" lon="1.03172">
        <ele>596</ele>
        <time>2019-08-08T11:51:12.000Z</time>
      </trkpt>
      <trkpt lat="42.90105" lon="1.03167">
        <ele>596</ele>
        <time>2019-08-08T11:51:13.000Z</time>
      </trkpt>
      <trkpt lat="42.90103" lon="1.03163">
        <ele>596</ele>
        <time>2019-08-08T11:51:14.000Z</time>
      </trkpt>
      <trkpt lat="42.90101" lon="1.0316">
        <ele>596</ele>
        <time>2019-08-08T11:51:15.000Z</time>
      </trkpt>
      <trkpt lat="42.90099" lon="1.03157">
        <ele>596</ele>
        <time>2019-08-08T11:51:16.000Z</time>
      </trkpt>
      <trkpt lat="42.90096" lon="1.03154">
        <ele>597</ele>
        <time>2019-08-08T11:51:17.000Z</time>
      </trkpt>
      <trkpt lat="42.90093" lon="1.03152">
        <ele>597</ele>
        <time>2019-08-08T11:51:18.000Z</time>
      </trkpt>
      <trkpt lat="42.90089" lon="1.0315">
        <ele>597</ele>
        <time>2019-08-08T11:51:19.000Z</time>
      </trkpt>
      <trkpt lat="42.90086" lon="1.03148">
        <ele>597</ele>
        <time>2019-08-08T11:51:20.000Z</time>
      </trkpt>
      <trkpt lat="42.90083" lon="1.03147">
        <ele>597</ele>
        <time>2019-08-08T11:51:21.000Z</time>
      </trkpt>
      <trkpt lat="42.9008" lon="1.03146">
        <ele>597</ele>
        <time>2019-08-08T11:51:22.000Z</time>
      </trkpt>
      <trkpt lat="42.90077" lon="1.03145">
        <ele>598</ele>
        <time>2019-08-08T11:51:23.000Z</time>
      </trkpt>
      <trkpt lat="42.90074" lon="1.03144">
        <ele>598</ele>
        <time>2019-08-08T11:51:24.000Z</time>
      </trkpt>
      <trkpt lat="42.90071" lon="1.03143">
        <ele>598</ele>
        <time>2019-08-08T11:51:25.000Z</time>
      </trkpt>
      <trkpt lat="42.90068" lon="1.03142">
        <ele>598</ele>
        <time>2019-08-08T11:51:26.000Z</time>
      </trkpt>
      <trkpt lat="42.90064" lon="1.03141">
        <ele>598</ele>
        <time>2019-08-08T11:51:27.000Z</time>
      </trkpt>
      <trkpt lat="42.90061" lon="1.0314">
        <ele>598</ele>
        <time>2019-08-08T11:51:28.000Z</time>
      </trkpt>
      <trkpt lat="42.90058" lon="1.03139">
        <ele>599</ele>
        <time>2019-08-08T11:51:29.000Z</time>
      </trkpt>
      <trkpt lat="42.90055" lon="1.03138">
        <ele>599</ele>
        <time>2019-08-08T11:51:30.000Z</time>
      </trkpt>
      <trkpt lat="42.90052" lon="1.03136">
        <ele>600</ele>
        <time>2019-08-08T11:51:31.000Z</time>
      </trkpt>
      <trkpt lat="42.90049" lon="1.03135">
        <ele>600</ele>
        <time>2019-08-08T11:51:32.000Z</time>
      </trkpt>
      <trkpt lat="42.90047" lon="1.03134">
        <ele>601</ele>
        <time>2019-08-08T11:51:33.000Z</time>
      </trkpt>
      <trkpt lat="42.90044" lon="1.03133">
        <ele>601</ele>
        <time>2019-08-08T11:51:34.000Z</time>
      </trkpt>
      <trkpt lat="42.90041" lon="1.03131">
        <ele>601</ele>
        <time>2019-08-08T11:51:35.000Z</time>
      </trkpt>
      <trkpt lat="42.90037" lon="1.03129">
        <ele>601</ele>
        <time>2019-08-08T11:51:36.000Z</time>
      </trkpt>
      <trkpt lat="42.90036" lon="1.03128">
        <ele>601</ele>
        <time>2019-08-08T11:51:37.000Z</time>
      </trkpt>
      <trkpt lat="42.90034" lon="1.03127">
        <ele>601</ele>
        <time>2019-08-08T11:51:38.000Z</time>
      </trkpt>
      <trkpt lat="42.90033" lon="1.03127">
        <ele>601</ele>
        <time>2019-08-08T11:51:39.000Z</time>
      </trkpt>
      <trkpt lat="42.90028" lon="1.03124">
        <ele>601</ele>
        <time>2019-08-08T11:51:40.000Z</time>
      </trkpt>
      <trkpt lat="42.90028" lon="1.03124">
        <ele>602</ele>
        <time>2019-08-08T11:51:41.000Z</time>
      </trkpt>
      <trkpt lat="42.90022" lon="1.03122">
        <ele>602</ele>
        <time>2019-08-08T11:51:42.000Z</time>
      </trkpt>
      <trkpt lat="42.90019" lon="1.0312">
        <ele>601</ele>
        <time>2019-08-08T11:51:43.000Z</time>
      </trkpt>
      <trkpt lat="42.90016" lon="1.03119">
        <ele>602</ele>
        <time>2019-08-08T11:51:44.000Z</time>
      </trkpt>
      <trkpt lat="42.90014" lon="1.03117">
        <ele>602</ele>
        <time>2019-08-08T11:51:45.000Z</time>
      </trkpt>
      <trkpt lat="42.90014" lon="1.03117">
        <ele>603</ele>
        <time>2019-08-08T11:51:46.000Z</time>
      </trkpt>
      <trkpt lat="42.90014" lon="1.03117">
        <ele>603</ele>
        <time>2019-08-08T11:51:47.000Z</time>
      </trkpt>
      <trkpt lat="42.90004" lon="1.0311">
        <ele>604</ele>
        <time>2019-08-08T11:51:48.000Z</time>
      </trkpt>
      <trkpt lat="42.90002" lon="1.03109">
        <ele>604</ele>
        <time>2019-08-08T11:51:49.000Z</time>
      </trkpt>
      <trkpt lat="42.9" lon="1.03107">
        <ele>604</ele>
        <time>2019-08-08T11:51:50.000Z</time>
      </trkpt>
      <trkpt lat="42.89995" lon="1.03103">
        <ele>604</ele>
        <time>2019-08-08T11:51:51.000Z</time>
      </trkpt>
      <trkpt lat="42.89995" lon="1.03103">
        <ele>604</ele>
        <time>2019-08-08T11:51:52.000Z</time>
      </trkpt>
      <trkpt lat="42.89989" lon="1.03098">
        <ele>604</ele>
        <time>2019-08-08T11:51:53.000Z</time>
      </trkpt>
      <trkpt lat="42.89986" lon="1.03095">
        <ele>605</ele>
        <time>2019-08-08T11:51:54.000Z</time>
      </trkpt>
      <trkpt lat="42.89983" lon="1.03093">
        <ele>605</ele>
        <time>2019-08-08T11:51:55.000Z</time>
      </trkpt>
      <trkpt lat="42.89983" lon="1.03093">
        <ele>605</ele>
        <time>2019-08-08T11:51:56.000Z</time>
      </trkpt>
      <trkpt lat="42.89978" lon="1.03088">
        <ele>605</ele>
        <time>2019-08-08T11:51:57.000Z</time>
      </trkpt>
      <trkpt lat="42.89975" lon="1.03086">
        <ele>606</ele>
        <time>2019-08-08T11:51:58.000Z</time>
      </trkpt>
      <trkpt lat="42.89975" lon="1.03086">
        <ele>606</ele>
        <time>2019-08-08T11:51:59.000Z</time>
      </trkpt>
      <trkpt lat="42.89975" lon="1.03086">
        <ele>606</ele>
        <time>2019-08-08T11:52:00.000Z</time>
      </trkpt>
      <trkpt lat="42.89969" lon="1.03079">
        <ele>606</ele>
        <time>2019-08-08T11:52:01.000Z</time>
      </trkpt>
      <trkpt lat="42.89966" lon="1.03077">
        <ele>606</ele>
        <time>2019-08-08T11:52:02.000Z</time>
      </trkpt>
      <trkpt lat="42.89964" lon="1.03074">
        <ele>606</ele>
        <time>2019-08-08T11:52:03.000Z</time>
      </trkpt>
      <trkpt lat="42.89962" lon="1.03072">
        <ele>606</ele>
        <time>2019-08-08T11:52:04.000Z</time>
      </trkpt>
      <trkpt lat="42.89959" lon="1.03069">
        <ele>607</ele>
        <time>2019-08-08T11:52:05.000Z</time>
      </trkpt>
      <trkpt lat="42.89956" lon="1.03067">
        <ele>607</ele>
        <time>2019-08-08T11:52:06.000Z</time>
      </trkpt>
      <trkpt lat="42.89953" lon="1.03065">
        <ele>608</ele>
        <time>2019-08-08T11:52:07.000Z</time>
      </trkpt>
      <trkpt lat="42.8995" lon="1.03063">
        <ele>608</ele>
        <time>2019-08-08T11:52:08.000Z</time>
      </trkpt>
      <trkpt lat="42.89947" lon="1.03061">
        <ele>608</ele>
        <time>2019-08-08T11:52:09.000Z</time>
      </trkpt>
      <trkpt lat="42.89945" lon="1.03061">
        <ele>608</ele>
        <time>2019-08-08T11:52:10.000Z</time>
      </trkpt>
      <trkpt lat="42.89942" lon="1.0306">
        <ele>608</ele>
        <time>2019-08-08T11:52:11.000Z</time>
      </trkpt>
      <trkpt lat="42.89939" lon="1.03061">
        <ele>608</ele>
        <time>2019-08-08T11:52:12.000Z</time>
      </trkpt>
      <trkpt lat="42.89936" lon="1.03063">
        <ele>609</ele>
        <time>2019-08-08T11:52:13.000Z</time>
      </trkpt>
      <trkpt lat="42.89934" lon="1.03065">
        <ele>609</ele>
        <time>2019-08-08T11:52:14.000Z</time>
      </trkpt>
      <trkpt lat="42.89931" lon="1.03068">
        <ele>609</ele>
        <time>2019-08-08T11:52:15.000Z</time>
      </trkpt>
      <trkpt lat="42.89929" lon="1.03072">
        <ele>609</ele>
        <time>2019-08-08T11:52:16.000Z</time>
      </trkpt>
      <trkpt lat="42.89928" lon="1.03076">
        <ele>610</ele>
        <time>2019-08-08T11:52:17.000Z</time>
      </trkpt>
      <trkpt lat="42.89927" lon="1.0308">
        <ele>610</ele>
        <time>2019-08-08T11:52:18.000Z</time>
      </trkpt>
      <trkpt lat="42.89926" lon="1.03087">
        <ele>610</ele>
        <time>2019-08-08T11:52:19.000Z</time>
      </trkpt>
      <trkpt lat="42.89925" lon="1.0309">
        <ele>610</ele>
        <time>2019-08-08T11:52:20.000Z</time>
      </trkpt>
      <trkpt lat="42.89925" lon="1.03094">
        <ele>611</ele>
        <time>2019-08-08T11:52:21.000Z</time>
      </trkpt>
      <trkpt lat="42.89925" lon="1.03099">
        <ele>611</ele>
        <time>2019-08-08T11:52:22.000Z</time>
      </trkpt>
      <trkpt lat="42.89925" lon="1.03104">
        <ele>611</ele>
        <time>2019-08-08T11:52:23.000Z</time>
      </trkpt>
      <trkpt lat="42.89925" lon="1.03108">
        <ele>611</ele>
        <time>2019-08-08T11:52:24.000Z</time>
      </trkpt>
      <trkpt lat="42.89925" lon="1.03113">
        <ele>612</ele>
        <time>2019-08-08T11:52:25.000Z</time>
      </trkpt>
      <trkpt lat="42.89925" lon="1.03118">
        <ele>612</ele>
        <time>2019-08-08T11:52:26.000Z</time>
      </trkpt>
      <trkpt lat="42.89925" lon="1.03123">
        <ele>612</ele>
        <time>2019-08-08T11:52:27.000Z</time>
      </trkpt>
      <trkpt lat="42.89925" lon="1.03128">
        <ele>612</ele>
        <time>2019-08-08T11:52:28.000Z</time>
      </trkpt>
      <trkpt lat="42.89925" lon="1.03133">
        <ele>613</ele>
        <time>2019-08-08T11:52:29.000Z</time>
      </trkpt>
      <trkpt lat="42.89926" lon="1.03137">
        <ele>613</ele>
        <time>2019-08-08T11:52:30.000Z</time>
      </trkpt>
      <trkpt lat="42.89925" lon="1.03142">
        <ele>614</ele>
        <time>2019-08-08T11:52:31.000Z</time>
      </trkpt>
      <trkpt lat="42.89925" lon="1.03147">
        <ele>614</ele>
        <time>2019-08-08T11:52:32.000Z</time>
      </trkpt>
      <trkpt lat="42.89925" lon="1.03151">
        <ele>614</ele>
        <time>2019-08-08T11:52:33.000Z</time>
      </trkpt>
      <trkpt lat="42.89925" lon="1.03156">
        <ele>614</ele>
        <time>2019-08-08T11:52:34.000Z</time>
      </trkpt>
      <trkpt lat="42.89925" lon="1.0316">
        <ele>614</ele>
        <time>2019-08-08T11:52:35.000Z</time>
      </trkpt>
      <trkpt lat="42.89924" lon="1.03165">
        <ele>614</ele>
        <time>2019-08-08T11:52:36.000Z</time>
      </trkpt>
      <trkpt lat="42.89924" lon="1.03169">
        <ele>614</ele>
        <time>2019-08-08T11:52:37.000Z</time>
      </trkpt>
      <trkpt lat="42.89923" lon="1.03174">
        <ele>614</ele>
        <time>2019-08-08T11:52:38.000Z</time>
      </trkpt>
      <trkpt lat="42.89922" lon="1.03178">
        <ele>614</ele>
        <time>2019-08-08T11:52:39.000Z</time>
      </trkpt>
      <trkpt lat="42.89921" lon="1.03182">
        <ele>614</ele>
        <time>2019-08-08T11:52:40.000Z</time>
      </trkpt>
      <trkpt lat="42.8992" lon="1.03187">
        <ele>614</ele>
        <time>2019-08-08T11:52:41.000Z</time>
      </trkpt>
      <trkpt lat="42.89919" lon="1.03191">
        <ele>614</ele>
        <time>2019-08-08T11:52:42.000Z</time>
      </trkpt>
      <trkpt lat="42.89918" lon="1.03195">
        <ele>614</ele>
        <time>2019-08-08T11:52:43.000Z</time>
      </trkpt>
      <trkpt lat="42.89917" lon="1.03199">
        <ele>615</ele>
        <time>2019-08-08T11:52:44.000Z</time>
      </trkpt>
      <trkpt lat="42.89916" lon="1.03203">
        <ele>615</ele>
        <time>2019-08-08T11:52:45.000Z</time>
      </trkpt>
      <trkpt lat="42.89914" lon="1.03207">
        <ele>616</ele>
        <time>2019-08-08T11:52:46.000Z</time>
      </trkpt>
      <trkpt lat="42.89913" lon="1.03211">
        <ele>616</ele>
        <time>2019-08-08T11:52:47.000Z</time>
      </trkpt>
      <trkpt lat="42.89912" lon="1.03215">
        <ele>616</ele>
        <time>2019-08-08T11:52:48.000Z</time>
      </trkpt>
      <trkpt lat="42.89911" lon="1.03219">
        <ele>616</ele>
        <time>2019-08-08T11:52:49.000Z</time>
      </trkpt>
      <trkpt lat="42.8991" lon="1.03223">
        <ele>617</ele>
        <time>2019-08-08T11:52:50.000Z</time>
      </trkpt>
      <trkpt lat="42.89908" lon="1.03227">
        <ele>617</ele>
        <time>2019-08-08T11:52:51.000Z</time>
      </trkpt>
      <trkpt lat="42.89907" lon="1.03232">
        <ele>617</ele>
        <time>2019-08-08T11:52:52.000Z</time>
      </trkpt>
      <trkpt lat="42.89906" lon="1.03236">
        <ele>617</ele>
        <time>2019-08-08T11:52:53.000Z</time>
      </trkpt>
      <trkpt lat="42.89905" lon="1.0324">
        <ele>618</ele>
        <time>2019-08-08T11:52:54.000Z</time>
      </trkpt>
      <trkpt lat="42.89904" lon="1.03244">
        <ele>618</ele>
        <time>2019-08-08T11:52:55.000Z</time>
      </trkpt>
      <trkpt lat="42.89903" lon="1.03248">
        <ele>618</ele>
        <time>2019-08-08T11:52:56.000Z</time>
      </trkpt>
      <trkpt lat="42.89902" lon="1.03253">
        <ele>618</ele>
        <time>2019-08-08T11:52:57.000Z</time>
      </trkpt>
      <trkpt lat="42.89901" lon="1.03257">
        <ele>618</ele>
        <time>2019-08-08T11:52:58.000Z</time>
      </trkpt>
      <trkpt lat="42.899" lon="1.03262">
        <ele>618</ele>
        <time>2019-08-08T11:52:59.000Z</time>
      </trkpt>
      <trkpt lat="42.89899" lon="1.03266">
        <ele>618</ele>
        <time>2019-08-08T11:53:00.000Z</time>
      </trkpt>
      <trkpt lat="42.89898" lon="1.0327">
        <ele>619</ele>
        <time>2019-08-08T11:53:01.000Z</time>
      </trkpt>
      <trkpt lat="42.89897" lon="1.03275">
        <ele>619</ele>
        <time>2019-08-08T11:53:02.000Z</time>
      </trkpt>
      <trkpt lat="42.89896" lon="1.03279">
        <ele>619</ele>
        <time>2019-08-08T11:53:03.000Z</time>
      </trkpt>
      <trkpt lat="42.89895" lon="1.03284">
        <ele>619</ele>
        <time>2019-08-08T11:53:04.000Z</time>
      </trkpt>
      <trkpt lat="42.89895" lon="1.03288">
        <ele>620</ele>
        <time>2019-08-08T11:53:05.000Z</time>
      </trkpt>
      <trkpt lat="42.89894" lon="1.03293">
        <ele>620</ele>
        <time>2019-08-08T11:53:06.000Z</time>
      </trkpt>
      <trkpt lat="42.89893" lon="1.03297">
        <ele>620</ele>
        <time>2019-08-08T11:53:07.000Z</time>
      </trkpt>
      <trkpt lat="42.89892" lon="1.03302">
        <ele>620</ele>
        <time>2019-08-08T11:53:08.000Z</time>
      </trkpt>
      <trkpt lat="42.89891" lon="1.03306">
        <ele>621</ele>
        <time>2019-08-08T11:53:09.000Z</time>
      </trkpt>
      <trkpt lat="42.89891" lon="1.03311">
        <ele>621</ele>
        <time>2019-08-08T11:53:10.000Z</time>
      </trkpt>
      <trkpt lat="42.8989" lon="1.03315">
        <ele>621</ele>
        <time>2019-08-08T11:53:11.000Z</time>
      </trkpt>
      <trkpt lat="42.89889" lon="1.03319">
        <ele>621</ele>
        <time>2019-08-08T11:53:12.000Z</time>
      </trkpt>
      <trkpt lat="42.89889" lon="1.03324">
        <ele>621</ele>
        <time>2019-08-08T11:53:13.000Z</time>
      </trkpt>
      <trkpt lat="42.89888" lon="1.03328">
        <ele>621</ele>
        <time>2019-08-08T11:53:14.000Z</time>
      </trkpt>
      <trkpt lat="42.89887" lon="1.03333">
        <ele>621</ele>
        <time>2019-08-08T11:53:15.000Z</time>
      </trkpt>
      <trkpt lat="42.89887" lon="1.03337">
        <ele>622</ele>
        <time>2019-08-08T11:53:16.000Z</time>
      </trkpt>
      <trkpt lat="42.89886" lon="1.03341">
        <ele>622</ele>
        <time>2019-08-08T11:53:17.000Z</time>
      </trkpt>
      <trkpt lat="42.89885" lon="1.03346">
        <ele>622</ele>
        <time>2019-08-08T11:53:18.000Z</time>
      </trkpt>
      <trkpt lat="42.89884" lon="1.0335">
        <ele>623</ele>
        <time>2019-08-08T11:53:19.000Z</time>
      </trkpt>
      <trkpt lat="42.89883" lon="1.03354">
        <ele>623</ele>
        <time>2019-08-08T11:53:20.000Z</time>
      </trkpt>
      <trkpt lat="42.89882" lon="1.03359">
        <ele>623</ele>
        <time>2019-08-08T11:53:21.000Z</time>
      </trkpt>
      <trkpt lat="42.89881" lon="1.03363">
        <ele>623</ele>
        <time>2019-08-08T11:53:22.000Z</time>
      </trkpt>
      <trkpt lat="42.8988" lon="1.03367">
        <ele>623</ele>
        <time>2019-08-08T11:53:23.000Z</time>
      </trkpt>
      <trkpt lat="42.89879" lon="1.03371">
        <ele>623</ele>
        <time>2019-08-08T11:53:24.000Z</time>
      </trkpt>
      <trkpt lat="42.89877" lon="1.03375">
        <ele>624</ele>
        <time>2019-08-08T11:53:25.000Z</time>
      </trkpt>
      <trkpt lat="42.89876" lon="1.03379">
        <ele>624</ele>
        <time>2019-08-08T11:53:26.000Z</time>
      </trkpt>
      <trkpt lat="42.89875" lon="1.03383">
        <ele>624</ele>
        <time>2019-08-08T11:53:27.000Z</time>
      </trkpt>
      <trkpt lat="42.89873" lon="1.03388">
        <ele>624</ele>
        <time>2019-08-08T11:53:28.000Z</time>
      </trkpt>
      <trkpt lat="42.89872" lon="1.03392">
        <ele>624</ele>
        <time>2019-08-08T11:53:29.000Z</time>
      </trkpt>
      <trkpt lat="42.89871" lon="1.03396">
        <ele>625</ele>
        <time>2019-08-08T11:53:30.000Z</time>
      </trkpt>
      <trkpt lat="42.8987" lon="1.034">
        <ele>625</ele>
        <time>2019-08-08T11:53:31.000Z</time>
      </trkpt>
      <trkpt lat="42.89869" lon="1.03404">
        <ele>626</ele>
        <time>2019-08-08T11:53:32.000Z</time>
      </trkpt>
      <trkpt lat="42.89868" lon="1.03409">
        <ele>626</ele>
        <time>2019-08-08T11:53:33.000Z</time>
      </trkpt>
      <trkpt lat="42.89867" lon="1.03413">
        <ele>626</ele>
        <time>2019-08-08T11:53:34.000Z</time>
      </trkpt>
      <trkpt lat="42.89866" lon="1.03417">
        <ele>626</ele>
        <time>2019-08-08T11:53:35.000Z</time>
      </trkpt>
      <trkpt lat="42.89865" lon="1.03421">
        <ele>626</ele>
        <time>2019-08-08T11:53:36.000Z</time>
      </trkpt>
      <trkpt lat="42.89864" lon="1.03425">
        <ele>627</ele>
        <time>2019-08-08T11:53:37.000Z</time>
      </trkpt>
      <trkpt lat="42.89863" lon="1.03429">
        <ele>626</ele>
        <time>2019-08-08T11:53:38.000Z</time>
      </trkpt>
      <trkpt lat="42.89862" lon="1.03434">
        <ele>626</ele>
        <time>2019-08-08T11:53:39.000Z</time>
      </trkpt>
      <trkpt lat="42.89861" lon="1.03438">
        <ele>626</ele>
        <time>2019-08-08T11:53:40.000Z</time>
      </trkpt>
      <trkpt lat="42.89859" lon="1.03445">
        <ele>628</ele>
        <time>2019-08-08T11:53:41.000Z</time>
      </trkpt>
      <trkpt lat="42.89859" lon="1.03447">
        <ele>628</ele>
        <time>2019-08-08T11:53:42.000Z</time>
      </trkpt>
      <trkpt lat="42.89858" lon="1.03451">
        <ele>628</ele>
        <time>2019-08-08T11:53:43.000Z</time>
      </trkpt>
      <trkpt lat="42.89858" lon="1.03456">
        <ele>628</ele>
        <time>2019-08-08T11:53:44.000Z</time>
      </trkpt>
      <trkpt lat="42.89858" lon="1.0346">
        <ele>628</ele>
        <time>2019-08-08T11:53:45.000Z</time>
      </trkpt>
      <trkpt lat="42.89858" lon="1.03465">
        <ele>628</ele>
        <time>2019-08-08T11:53:46.000Z</time>
      </trkpt>
      <trkpt lat="42.89858" lon="1.03469">
        <ele>628</ele>
        <time>2019-08-08T11:53:47.000Z</time>
      </trkpt>
      <trkpt lat="42.89859" lon="1.03473">
        <ele>629</ele>
        <time>2019-08-08T11:53:48.000Z</time>
      </trkpt>
      <trkpt lat="42.89859" lon="1.03478">
        <ele>629</ele>
        <time>2019-08-08T11:53:49.000Z</time>
      </trkpt>
      <trkpt lat="42.8986" lon="1.03482">
        <ele>629</ele>
        <time>2019-08-08T11:53:50.000Z</time>
      </trkpt>
      <trkpt lat="42.89861" lon="1.03487">
        <ele>629</ele>
        <time>2019-08-08T11:53:51.000Z</time>
      </trkpt>
      <trkpt lat="42.89862" lon="1.03491">
        <ele>629</ele>
        <time>2019-08-08T11:53:52.000Z</time>
      </trkpt>
      <trkpt lat="42.89863" lon="1.03495">
        <ele>629</ele>
        <time>2019-08-08T11:53:53.000Z</time>
      </trkpt>
      <trkpt lat="42.89864" lon="1.03499">
        <ele>630</ele>
        <time>2019-08-08T11:53:54.000Z</time>
      </trkpt>
      <trkpt lat="42.89866" lon="1.03503">
        <ele>630</ele>
        <time>2019-08-08T11:53:55.000Z</time>
      </trkpt>
      <trkpt lat="42.89867" lon="1.03507">
        <ele>630</ele>
        <time>2019-08-08T11:53:56.000Z</time>
      </trkpt>
      <trkpt lat="42.89869" lon="1.03512">
        <ele>630</ele>
        <time>2019-08-08T11:53:57.000Z</time>
      </trkpt>
      <trkpt lat="42.8987" lon="1.03516">
        <ele>630</ele>
        <time>2019-08-08T11:53:58.000Z</time>
      </trkpt>
      <trkpt lat="42.89871" lon="1.03521">
        <ele>631</ele>
        <time>2019-08-08T11:53:59.000Z</time>
      </trkpt>
      <trkpt lat="42.89871" lon="1.03525">
        <ele>631</ele>
        <time>2019-08-08T11:54:00.000Z</time>
      </trkpt>
      <trkpt lat="42.89872" lon="1.0353">
        <ele>632</ele>
        <time>2019-08-08T11:54:01.000Z</time>
      </trkpt>
      <trkpt lat="42.89872" lon="1.03534">
        <ele>632</ele>
        <time>2019-08-08T11:54:02.000Z</time>
      </trkpt>
      <trkpt lat="42.89872" lon="1.03539">
        <ele>632</ele>
        <time>2019-08-08T11:54:03.000Z</time>
      </trkpt>
      <trkpt lat="42.89871" lon="1.03544">
        <ele>632</ele>
        <time>2019-08-08T11:54:04.000Z</time>
      </trkpt>
      <trkpt lat="42.8987" lon="1.03548">
        <ele>632</ele>
        <time>2019-08-08T11:54:05.000Z</time>
      </trkpt>
      <trkpt lat="42.89869" lon="1.03552">
        <ele>632</ele>
        <time>2019-08-08T11:54:06.000Z</time>
      </trkpt>
      <trkpt lat="42.89867" lon="1.03556">
        <ele>633</ele>
        <time>2019-08-08T11:54:07.000Z</time>
      </trkpt>
      <trkpt lat="42.89865" lon="1.0356">
        <ele>633</ele>
        <time>2019-08-08T11:54:08.000Z</time>
      </trkpt>
      <trkpt lat="42.89863" lon="1.03564">
        <ele>633</ele>
        <time>2019-08-08T11:54:09.000Z</time>
      </trkpt>
      <trkpt lat="42.89861" lon="1.03567">
        <ele>634</ele>
        <time>2019-08-08T11:54:10.000Z</time>
      </trkpt>
      <trkpt lat="42.89859" lon="1.03571">
        <ele>634</ele>
        <time>2019-08-08T11:54:11.000Z</time>
      </trkpt>
      <trkpt lat="42.89857" lon="1.03574">
        <ele>634</ele>
        <time>2019-08-08T11:54:12.000Z</time>
      </trkpt>
      <trkpt lat="42.89855" lon="1.03577">
        <ele>634</ele>
        <time>2019-08-08T11:54:13.000Z</time>
      </trkpt>
      <trkpt lat="42.89852" lon="1.03579">
        <ele>634</ele>
        <time>2019-08-08T11:54:14.000Z</time>
      </trkpt>
      <trkpt lat="42.89849" lon="1.03582">
        <ele>634</ele>
        <time>2019-08-08T11:54:15.000Z</time>
      </trkpt>
      <trkpt lat="42.89847" lon="1.03584">
        <ele>634</ele>
        <time>2019-08-08T11:54:16.000Z</time>
      </trkpt>
      <trkpt lat="42.89844" lon="1.03587">
        <ele>634</ele>
        <time>2019-08-08T11:54:17.000Z</time>
      </trkpt>
      <trkpt lat="42.89841" lon="1.03589">
        <ele>634</ele>
        <time>2019-08-08T11:54:18.000Z</time>
      </trkpt>
      <trkpt lat="42.89838" lon="1.03592">
        <ele>634</ele>
        <time>2019-08-08T11:54:19.000Z</time>
      </trkpt>
      <trkpt lat="42.89836" lon="1.03595">
        <ele>635</ele>
        <time>2019-08-08T11:54:20.000Z</time>
      </trkpt>
      <trkpt lat="42.89833" lon="1.03598">
        <ele>635</ele>
        <time>2019-08-08T11:54:21.000Z</time>
      </trkpt>
      <trkpt lat="42.89831" lon="1.03601">
        <ele>635</ele>
        <time>2019-08-08T11:54:22.000Z</time>
      </trkpt>
      <trkpt lat="42.89828" lon="1.03603">
        <ele>636</ele>
        <time>2019-08-08T11:54:23.000Z</time>
      </trkpt>
      <trkpt lat="42.89825" lon="1.03606">
        <ele>636</ele>
        <time>2019-08-08T11:54:24.000Z</time>
      </trkpt>
      <trkpt lat="42.89822" lon="1.03609">
        <ele>636</ele>
        <time>2019-08-08T11:54:25.000Z</time>
      </trkpt>
      <trkpt lat="42.89819" lon="1.03612">
        <ele>636</ele>
        <time>2019-08-08T11:54:26.000Z</time>
      </trkpt>
      <trkpt lat="42.89817" lon="1.03615">
        <ele>637</ele>
        <time>2019-08-08T11:54:27.000Z</time>
      </trkpt>
      <trkpt lat="42.89814" lon="1.03617">
        <ele>637</ele>
        <time>2019-08-08T11:54:28.000Z</time>
      </trkpt>
      <trkpt lat="42.89812" lon="1.0362">
        <ele>637</ele>
        <time>2019-08-08T11:54:29.000Z</time>
      </trkpt>
      <trkpt lat="42.8981" lon="1.03623">
        <ele>637</ele>
        <time>2019-08-08T11:54:30.000Z</time>
      </trkpt>
      <trkpt lat="42.89808" lon="1.03626">
        <ele>638</ele>
        <time>2019-08-08T11:54:31.000Z</time>
      </trkpt>
      <trkpt lat="42.89805" lon="1.0363">
        <ele>638</ele>
        <time>2019-08-08T11:54:32.000Z</time>
      </trkpt>
      <trkpt lat="42.89804" lon="1.03632">
        <ele>638</ele>
        <time>2019-08-08T11:54:33.000Z</time>
      </trkpt>
      <trkpt lat="42.89802" lon="1.03635">
        <ele>639</ele>
        <time>2019-08-08T11:54:34.000Z</time>
      </trkpt>
      <trkpt lat="42.898" lon="1.03638">
        <ele>639</ele>
        <time>2019-08-08T11:54:35.000Z</time>
      </trkpt>
      <trkpt lat="42.89798" lon="1.03642">
        <ele>639</ele>
        <time>2019-08-08T11:54:36.000Z</time>
      </trkpt>
      <trkpt lat="42.89796" lon="1.03645">
        <ele>639</ele>
        <time>2019-08-08T11:54:37.000Z</time>
      </trkpt>
      <trkpt lat="42.89794" lon="1.03648">
        <ele>640</ele>
        <time>2019-08-08T11:54:38.000Z</time>
      </trkpt>
      <trkpt lat="42.89791" lon="1.03651">
        <ele>640</ele>
        <time>2019-08-08T11:54:39.000Z</time>
      </trkpt>
      <trkpt lat="42.89789" lon="1.03655">
        <ele>640</ele>
        <time>2019-08-08T11:54:40.000Z</time>
      </trkpt>
      <trkpt lat="42.89788" lon="1.03659">
        <ele>640</ele>
        <time>2019-08-08T11:54:41.000Z</time>
      </trkpt>
      <trkpt lat="42.89786" lon="1.03663">
        <ele>640</ele>
        <time>2019-08-08T11:54:42.000Z</time>
      </trkpt>
      <trkpt lat="42.89784" lon="1.03667">
        <ele>640</ele>
        <time>2019-08-08T11:54:43.000Z</time>
      </trkpt>
      <trkpt lat="42.89783" lon="1.03671">
        <ele>641</ele>
        <time>2019-08-08T11:54:44.000Z</time>
      </trkpt>
      <trkpt lat="42.89781" lon="1.03675">
        <ele>641</ele>
        <time>2019-08-08T11:54:45.000Z</time>
      </trkpt>
      <trkpt lat="42.8978" lon="1.0368">
        <ele>641</ele>
        <time>2019-08-08T11:54:46.000Z</time>
      </trkpt>
      <trkpt lat="42.89779" lon="1.03684">
        <ele>641</ele>
        <time>2019-08-08T11:54:47.000Z</time>
      </trkpt>
      <trkpt lat="42.89778" lon="1.03689">
        <ele>641</ele>
        <time>2019-08-08T11:54:48.000Z</time>
      </trkpt>
      <trkpt lat="42.89778" lon="1.03693">
        <ele>641</ele>
        <time>2019-08-08T11:54:49.000Z</time>
      </trkpt>
      <trkpt lat="42.89777" lon="1.03698">
        <ele>642</ele>
        <time>2019-08-08T11:54:50.000Z</time>
      </trkpt>
      <trkpt lat="42.89776" lon="1.03702">
        <ele>642</ele>
        <time>2019-08-08T11:54:51.000Z</time>
      </trkpt>
      <trkpt lat="42.89776" lon="1.03707">
        <ele>642</ele>
        <time>2019-08-08T11:54:52.000Z</time>
      </trkpt>
      <trkpt lat="42.89776" lon="1.03712">
        <ele>642</ele>
        <time>2019-08-08T11:54:53.000Z</time>
      </trkpt>
      <trkpt lat="42.89775" lon="1.03717">
        <ele>642</ele>
        <time>2019-08-08T11:54:54.000Z</time>
      </trkpt>
      <trkpt lat="42.89775" lon="1.03721">
        <ele>642</ele>
        <time>2019-08-08T11:54:55.000Z</time>
      </trkpt>
      <trkpt lat="42.89775" lon="1.03726">
        <ele>642</ele>
        <time>2019-08-08T11:54:56.000Z</time>
      </trkpt>
      <trkpt lat="42.89775" lon="1.03731">
        <ele>642</ele>
        <time>2019-08-08T11:54:57.000Z</time>
      </trkpt>
      <trkpt lat="42.89774" lon="1.03735">
        <ele>642</ele>
        <time>2019-08-08T11:54:58.000Z</time>
      </trkpt>
      <trkpt lat="42.89774" lon="1.0374">
        <ele>642</ele>
        <time>2019-08-08T11:54:59.000Z</time>
      </trkpt>
      <trkpt lat="42.89774" lon="1.03744">
        <ele>642</ele>
        <time>2019-08-08T11:55:00.000Z</time>
      </trkpt>
      <trkpt lat="42.89773" lon="1.03748">
        <ele>643</ele>
        <time>2019-08-08T11:55:01.000Z</time>
      </trkpt>
      <trkpt lat="42.89772" lon="1.03752">
        <ele>643</ele>
        <time>2019-08-08T11:55:02.000Z</time>
      </trkpt>
      <trkpt lat="42.89771" lon="1.03757">
        <ele>643</ele>
        <time>2019-08-08T11:55:03.000Z</time>
      </trkpt>
      <trkpt lat="42.89769" lon="1.03761">
        <ele>643</ele>
        <time>2019-08-08T11:55:04.000Z</time>
      </trkpt>
      <trkpt lat="42.89766" lon="1.03766">
        <ele>644</ele>
        <time>2019-08-08T11:55:05.000Z</time>
      </trkpt>
      <trkpt lat="42.89765" lon="1.03768">
        <ele>644</ele>
        <time>2019-08-08T11:55:06.000Z</time>
      </trkpt>
      <trkpt lat="42.89763" lon="1.03771">
        <ele>645</ele>
        <time>2019-08-08T11:55:07.000Z</time>
      </trkpt>
      <trkpt lat="42.8976" lon="1.03774">
        <ele>645</ele>
        <time>2019-08-08T11:55:08.000Z</time>
      </trkpt>
      <trkpt lat="42.89758" lon="1.03776">
        <ele>646</ele>
        <time>2019-08-08T11:55:09.000Z</time>
      </trkpt>
      <trkpt lat="42.89755" lon="1.03779">
        <ele>646</ele>
        <time>2019-08-08T11:55:10.000Z</time>
      </trkpt>
      <trkpt lat="42.89752" lon="1.03781">
        <ele>646</ele>
        <time>2019-08-08T11:55:11.000Z</time>
      </trkpt>
      <trkpt lat="42.89749" lon="1.03782">
        <ele>646</ele>
        <time>2019-08-08T11:55:12.000Z</time>
      </trkpt>
      <trkpt lat="42.89746" lon="1.03784">
        <ele>647</ele>
        <time>2019-08-08T11:55:13.000Z</time>
      </trkpt>
      <trkpt lat="42.89743" lon="1.03786">
        <ele>647</ele>
        <time>2019-08-08T11:55:14.000Z</time>
      </trkpt>
      <trkpt lat="42.8974" lon="1.03787">
        <ele>648</ele>
        <time>2019-08-08T11:55:15.000Z</time>
      </trkpt>
      <trkpt lat="42.89737" lon="1.03789">
        <ele>648</ele>
        <time>2019-08-08T11:55:16.000Z</time>
      </trkpt>
      <trkpt lat="42.89734" lon="1.03791">
        <ele>649</ele>
        <time>2019-08-08T11:55:17.000Z</time>
      </trkpt>
      <trkpt lat="42.89731" lon="1.03793">
        <ele>649</ele>
        <time>2019-08-08T11:55:18.000Z</time>
      </trkpt>
      <trkpt lat="42.89728" lon="1.03796">
        <ele>649</ele>
        <time>2019-08-08T11:55:19.000Z</time>
      </trkpt>
      <trkpt lat="42.89726" lon="1.03798">
        <ele>649</ele>
        <time>2019-08-08T11:55:20.000Z</time>
      </trkpt>
      <trkpt lat="42.89723" lon="1.038">
        <ele>650</ele>
        <time>2019-08-08T11:55:21.000Z</time>
      </trkpt>
      <trkpt lat="42.8972" lon="1.03803">
        <ele>650</ele>
        <time>2019-08-08T11:55:22.000Z</time>
      </trkpt>
      <trkpt lat="42.89717" lon="1.03805">
        <ele>650</ele>
        <time>2019-08-08T11:55:23.000Z</time>
      </trkpt>
      <trkpt lat="42.89715" lon="1.03807">
        <ele>650</ele>
        <time>2019-08-08T11:55:24.000Z</time>
      </trkpt>
      <trkpt lat="42.89712" lon="1.03809">
        <ele>650</ele>
        <time>2019-08-08T11:55:25.000Z</time>
      </trkpt>
      <trkpt lat="42.89709" lon="1.03812">
        <ele>651</ele>
        <time>2019-08-08T11:55:26.000Z</time>
      </trkpt>
      <trkpt lat="42.89707" lon="1.03814">
        <ele>651</ele>
        <time>2019-08-08T11:55:27.000Z</time>
      </trkpt>
      <trkpt lat="42.89704" lon="1.03816">
        <ele>651</ele>
        <time>2019-08-08T11:55:28.000Z</time>
      </trkpt>
      <trkpt lat="42.89701" lon="1.03819">
        <ele>651</ele>
        <time>2019-08-08T11:55:29.000Z</time>
      </trkpt>
      <trkpt lat="42.89699" lon="1.03821">
        <ele>651</ele>
        <time>2019-08-08T11:55:30.000Z</time>
      </trkpt>
      <trkpt lat="42.89696" lon="1.03823">
        <ele>651</ele>
        <time>2019-08-08T11:55:31.000Z</time>
      </trkpt>
      <trkpt lat="42.89694" lon="1.03825">
        <ele>651</ele>
        <time>2019-08-08T11:55:32.000Z</time>
      </trkpt>
      <trkpt lat="42.89691" lon="1.03828">
        <ele>652</ele>
        <time>2019-08-08T11:55:33.000Z</time>
      </trkpt>
      <trkpt lat="42.89689" lon="1.0383">
        <ele>652</ele>
        <time>2019-08-08T11:55:34.000Z</time>
      </trkpt>
      <trkpt lat="42.89686" lon="1.03832">
        <ele>653</ele>
        <time>2019-08-08T11:55:35.000Z</time>
      </trkpt>
      <trkpt lat="42.89683" lon="1.03834">
        <ele>653</ele>
        <time>2019-08-08T11:55:36.000Z</time>
      </trkpt>
      <trkpt lat="42.89681" lon="1.03837">
        <ele>653</ele>
        <time>2019-08-08T11:55:37.000Z</time>
      </trkpt>
      <trkpt lat="42.89678" lon="1.03839">
        <ele>653</ele>
        <time>2019-08-08T11:55:38.000Z</time>
      </trkpt>
      <trkpt lat="42.89675" lon="1.03841">
        <ele>653</ele>
        <time>2019-08-08T11:55:39.000Z</time>
      </trkpt>
      <trkpt lat="42.89673" lon="1.03844">
        <ele>653</ele>
        <time>2019-08-08T11:55:40.000Z</time>
      </trkpt>
      <trkpt lat="42.8967" lon="1.03846">
        <ele>653</ele>
        <time>2019-08-08T11:55:41.000Z</time>
      </trkpt>
      <trkpt lat="42.89668" lon="1.03849">
        <ele>653</ele>
        <time>2019-08-08T11:55:42.000Z</time>
      </trkpt>
      <trkpt lat="42.89666" lon="1.03851">
        <ele>654</ele>
        <time>2019-08-08T11:55:43.000Z</time>
      </trkpt>
      <trkpt lat="42.89663" lon="1.03854">
        <ele>654</ele>
        <time>2019-08-08T11:55:44.000Z</time>
      </trkpt>
      <trkpt lat="42.89661" lon="1.03857">
        <ele>654</ele>
        <time>2019-08-08T11:55:45.000Z</time>
      </trkpt>
      <trkpt lat="42.89658" lon="1.03861">
        <ele>654</ele>
        <time>2019-08-08T11:55:46.000Z</time>
      </trkpt>
      <trkpt lat="42.89656" lon="1.03864">
        <ele>655</ele>
        <time>2019-08-08T11:55:47.000Z</time>
      </trkpt>
      <trkpt lat="42.89654" lon="1.03869">
        <ele>655</ele>
        <time>2019-08-08T11:55:48.000Z</time>
      </trkpt>
      <trkpt lat="42.89652" lon="1.03873">
        <ele>655</ele>
        <time>2019-08-08T11:55:49.000Z</time>
      </trkpt>
      <trkpt lat="42.8965" lon="1.03878">
        <ele>655</ele>
        <time>2019-08-08T11:55:50.000Z</time>
      </trkpt>
      <trkpt lat="42.89648" lon="1.03883">
        <ele>655</ele>
        <time>2019-08-08T11:55:51.000Z</time>
      </trkpt>
      <trkpt lat="42.89646" lon="1.03888">
        <ele>655</ele>
        <time>2019-08-08T11:55:52.000Z</time>
      </trkpt>
      <trkpt lat="42.89645" lon="1.03893">
        <ele>656</ele>
        <time>2019-08-08T11:55:53.000Z</time>
      </trkpt>
      <trkpt lat="42.89643" lon="1.03899">
        <ele>656</ele>
        <time>2019-08-08T11:55:54.000Z</time>
      </trkpt>
      <trkpt lat="42.89642" lon="1.03905">
        <ele>656</ele>
        <time>2019-08-08T11:55:55.000Z</time>
      </trkpt>
      <trkpt lat="42.89641" lon="1.03911">
        <ele>656</ele>
        <time>2019-08-08T11:55:56.000Z</time>
      </trkpt>
      <trkpt lat="42.89641" lon="1.03918">
        <ele>656</ele>
        <time>2019-08-08T11:55:57.000Z</time>
      </trkpt>
      <trkpt lat="42.89641" lon="1.03925">
        <ele>656</ele>
        <time>2019-08-08T11:55:58.000Z</time>
      </trkpt>
      <trkpt lat="42.89642" lon="1.03932">
        <ele>656</ele>
        <time>2019-08-08T11:55:59.000Z</time>
      </trkpt>
      <trkpt lat="42.89643" lon="1.03939">
        <ele>656</ele>
        <time>2019-08-08T11:56:00.000Z</time>
      </trkpt>
      <trkpt lat="42.89644" lon="1.03945">
        <ele>656</ele>
        <time>2019-08-08T11:56:01.000Z</time>
      </trkpt>
      <trkpt lat="42.89645" lon="1.03952">
        <ele>656</ele>
        <time>2019-08-08T11:56:02.000Z</time>
      </trkpt>
      <trkpt lat="42.89647" lon="1.03959">
        <ele>656</ele>
        <time>2019-08-08T11:56:03.000Z</time>
      </trkpt>
      <trkpt lat="42.89648" lon="1.03966">
        <ele>656</ele>
        <time>2019-08-08T11:56:04.000Z</time>
      </trkpt>
      <trkpt lat="42.8965" lon="1.03973">
        <ele>655</ele>
        <time>2019-08-08T11:56:05.000Z</time>
      </trkpt>
      <trkpt lat="42.89651" lon="1.0398">
        <ele>655</ele>
        <time>2019-08-08T11:56:06.000Z</time>
      </trkpt>
      <trkpt lat="42.89652" lon="1.03987">
        <ele>656</ele>
        <time>2019-08-08T11:56:07.000Z</time>
      </trkpt>
      <trkpt lat="42.89653" lon="1.03994">
        <ele>656</ele>
        <time>2019-08-08T11:56:08.000Z</time>
      </trkpt>
      <trkpt lat="42.89654" lon="1.04001">
        <ele>656</ele>
        <time>2019-08-08T11:56:09.000Z</time>
      </trkpt>
      <trkpt lat="42.89653" lon="1.04008">
        <ele>656</ele>
        <time>2019-08-08T11:56:10.000Z</time>
      </trkpt>
      <trkpt lat="42.89652" lon="1.04015">
        <ele>656</ele>
        <time>2019-08-08T11:56:11.000Z</time>
      </trkpt>
      <trkpt lat="42.8965" lon="1.04021">
        <ele>656</ele>
        <time>2019-08-08T11:56:12.000Z</time>
      </trkpt>
      <trkpt lat="42.89646" lon="1.0403">
        <ele>656</ele>
        <time>2019-08-08T11:56:13.000Z</time>
      </trkpt>
      <trkpt lat="42.89644" lon="1.04033">
        <ele>656</ele>
        <time>2019-08-08T11:56:14.000Z</time>
      </trkpt>
      <trkpt lat="42.89641" lon="1.04039">
        <ele>656</ele>
        <time>2019-08-08T11:56:15.000Z</time>
      </trkpt>
      <trkpt lat="42.89637" lon="1.04043">
        <ele>656</ele>
        <time>2019-08-08T11:56:16.000Z</time>
      </trkpt>
      <trkpt lat="42.89632" lon="1.04047">
        <ele>656</ele>
        <time>2019-08-08T11:56:17.000Z</time>
      </trkpt>
      <trkpt lat="42.89627" lon="1.0405">
        <ele>656</ele>
        <time>2019-08-08T11:56:18.000Z</time>
      </trkpt>
      <trkpt lat="42.89622" lon="1.04052">
        <ele>656</ele>
        <time>2019-08-08T11:56:19.000Z</time>
      </trkpt>
      <trkpt lat="42.89617" lon="1.04055">
        <ele>656</ele>
        <time>2019-08-08T11:56:20.000Z</time>
      </trkpt>
      <trkpt lat="42.89612" lon="1.04057">
        <ele>656</ele>
        <time>2019-08-08T11:56:21.000Z</time>
      </trkpt>
      <trkpt lat="42.89607" lon="1.04059">
        <ele>656</ele>
        <time>2019-08-08T11:56:22.000Z</time>
      </trkpt>
      <trkpt lat="42.89602" lon="1.04061">
        <ele>657</ele>
        <time>2019-08-08T11:56:23.000Z</time>
      </trkpt>
      <trkpt lat="42.89597" lon="1.04064">
        <ele>657</ele>
        <time>2019-08-08T11:56:24.000Z</time>
      </trkpt>
      <trkpt lat="42.89593" lon="1.04067">
        <ele>656</ele>
        <time>2019-08-08T11:56:25.000Z</time>
      </trkpt>
      <trkpt lat="42.89588" lon="1.0407">
        <ele>656</ele>
        <time>2019-08-08T11:56:26.000Z</time>
      </trkpt>
      <trkpt lat="42.89584" lon="1.04074">
        <ele>656</ele>
        <time>2019-08-08T11:56:27.000Z</time>
      </trkpt>
      <trkpt lat="42.8958" lon="1.04077">
        <ele>657</ele>
        <time>2019-08-08T11:56:28.000Z</time>
      </trkpt>
      <trkpt lat="42.89575" lon="1.04081">
        <ele>657</ele>
        <time>2019-08-08T11:56:29.000Z</time>
      </trkpt>
      <trkpt lat="42.89572" lon="1.04086">
        <ele>657</ele>
        <time>2019-08-08T11:56:30.000Z</time>
      </trkpt>
      <trkpt lat="42.89568" lon="1.04091">
        <ele>657</ele>
        <time>2019-08-08T11:56:31.000Z</time>
      </trkpt>
      <trkpt lat="42.89565" lon="1.04097">
        <ele>658</ele>
        <time>2019-08-08T11:56:32.000Z</time>
      </trkpt>
      <trkpt lat="42.89563" lon="1.04103">
        <ele>658</ele>
        <time>2019-08-08T11:56:33.000Z</time>
      </trkpt>
      <trkpt lat="42.89562" lon="1.04109">
        <ele>659</ele>
        <time>2019-08-08T11:56:34.000Z</time>
      </trkpt>
      <trkpt lat="42.89561" lon="1.04115">
        <ele>659</ele>
        <time>2019-08-08T11:56:35.000Z</time>
      </trkpt>
      <trkpt lat="42.8956" lon="1.04121">
        <ele>659</ele>
        <time>2019-08-08T11:56:36.000Z</time>
      </trkpt>
      <trkpt lat="42.89561" lon="1.04127">
        <ele>659</ele>
        <time>2019-08-08T11:56:37.000Z</time>
      </trkpt>
      <trkpt lat="42.89561" lon="1.04132">
        <ele>660</ele>
        <time>2019-08-08T11:56:38.000Z</time>
      </trkpt>
      <trkpt lat="42.89562" lon="1.04137">
        <ele>660</ele>
        <time>2019-08-08T11:56:39.000Z</time>
      </trkpt>
      <trkpt lat="42.89564" lon="1.04142">
        <ele>660</ele>
        <time>2019-08-08T11:56:40.000Z</time>
      </trkpt>
      <trkpt lat="42.89565" lon="1.04146">
        <ele>660</ele>
        <time>2019-08-08T11:56:41.000Z</time>
      </trkpt>
      <trkpt lat="42.89566" lon="1.0415">
        <ele>661</ele>
        <time>2019-08-08T11:56:42.000Z</time>
      </trkpt>
      <trkpt lat="42.89567" lon="1.04154">
        <ele>661</ele>
        <time>2019-08-08T11:56:43.000Z</time>
      </trkpt>
      <trkpt lat="42.89569" lon="1.04158">
        <ele>661</ele>
        <time>2019-08-08T11:56:44.000Z</time>
      </trkpt>
      <trkpt lat="42.8957" lon="1.04162">
        <ele>661</ele>
        <time>2019-08-08T11:56:45.000Z</time>
      </trkpt>
      <trkpt lat="42.89572" lon="1.04166">
        <ele>661</ele>
        <time>2019-08-08T11:56:46.000Z</time>
      </trkpt>
      <trkpt lat="42.89573" lon="1.0417">
        <ele>662</ele>
        <time>2019-08-08T11:56:47.000Z</time>
      </trkpt>
      <trkpt lat="42.89575" lon="1.04173">
        <ele>662</ele>
        <time>2019-08-08T11:56:48.000Z</time>
      </trkpt>
      <trkpt lat="42.89576" lon="1.04176">
        <ele>663</ele>
        <time>2019-08-08T11:56:49.000Z</time>
      </trkpt>
      <trkpt lat="42.89577" lon="1.0418">
        <ele>663</ele>
        <time>2019-08-08T11:56:50.000Z</time>
      </trkpt>
      <trkpt lat="42.89579" lon="1.04183">
        <ele>663</ele>
        <time>2019-08-08T11:56:51.000Z</time>
      </trkpt>
      <trkpt lat="42.8958" lon="1.04187">
        <ele>663</ele>
        <time>2019-08-08T11:56:52.000Z</time>
      </trkpt>
      <trkpt lat="42.89581" lon="1.0419">
        <ele>664</ele>
        <time>2019-08-08T11:56:53.000Z</time>
      </trkpt>
      <trkpt lat="42.89583" lon="1.04193">
        <ele>664</ele>
        <time>2019-08-08T11:56:54.000Z</time>
      </trkpt>
      <trkpt lat="42.89584" lon="1.04197">
        <ele>664</ele>
        <time>2019-08-08T11:56:55.000Z</time>
      </trkpt>
      <trkpt lat="42.89585" lon="1.042">
        <ele>664</ele>
        <time>2019-08-08T11:56:56.000Z</time>
      </trkpt>
      <trkpt lat="42.89587" lon="1.04204">
        <ele>665</ele>
        <time>2019-08-08T11:56:57.000Z</time>
      </trkpt>
      <trkpt lat="42.89588" lon="1.04207">
        <ele>665</ele>
        <time>2019-08-08T11:56:58.000Z</time>
      </trkpt>
      <trkpt lat="42.8959" lon="1.0421">
        <ele>666</ele>
        <time>2019-08-08T11:56:59.000Z</time>
      </trkpt>
      <trkpt lat="42.89591" lon="1.04213">
        <ele>666</ele>
        <time>2019-08-08T11:57:00.000Z</time>
      </trkpt>
      <trkpt lat="42.89592" lon="1.04217">
        <ele>666</ele>
        <time>2019-08-08T11:57:01.000Z</time>
      </trkpt>
      <trkpt lat="42.89593" lon="1.04221">
        <ele>666</ele>
        <time>2019-08-08T11:57:02.000Z</time>
      </trkpt>
      <trkpt lat="42.89594" lon="1.04224">
        <ele>666</ele>
        <time>2019-08-08T11:57:03.000Z</time>
      </trkpt>
      <trkpt lat="42.89595" lon="1.04228">
        <ele>666</ele>
        <time>2019-08-08T11:57:04.000Z</time>
      </trkpt>
      <trkpt lat="42.89596" lon="1.04231">
        <ele>666</ele>
        <time>2019-08-08T11:57:05.000Z</time>
      </trkpt>
      <trkpt lat="42.89597" lon="1.04235">
        <ele>667</ele>
        <time>2019-08-08T11:57:06.000Z</time>
      </trkpt>
      <trkpt lat="42.89598" lon="1.04238">
        <ele>667</ele>
        <time>2019-08-08T11:57:07.000Z</time>
      </trkpt>
      <trkpt lat="42.896" lon="1.04241">
        <ele>668</ele>
        <time>2019-08-08T11:57:08.000Z</time>
      </trkpt>
      <trkpt lat="42.89601" lon="1.04245">
        <ele>668</ele>
        <time>2019-08-08T11:57:09.000Z</time>
      </trkpt>
      <trkpt lat="42.89603" lon="1.04248">
        <ele>668</ele>
        <time>2019-08-08T11:57:10.000Z</time>
      </trkpt>
      <trkpt lat="42.89604" lon="1.04251">
        <ele>668</ele>
        <time>2019-08-08T11:57:11.000Z</time>
      </trkpt>
      <trkpt lat="42.89605" lon="1.04255">
        <ele>669</ele>
        <time>2019-08-08T11:57:12.000Z</time>
      </trkpt>
      <trkpt lat="42.89607" lon="1.04258">
        <ele>669</ele>
        <time>2019-08-08T11:57:13.000Z</time>
      </trkpt>
      <trkpt lat="42.89608" lon="1.04261">
        <ele>670</ele>
        <time>2019-08-08T11:57:14.000Z</time>
      </trkpt>
      <trkpt lat="42.8961" lon="1.04264">
        <ele>670</ele>
        <time>2019-08-08T11:57:15.000Z</time>
      </trkpt>
      <trkpt lat="42.89611" lon="1.04267">
        <ele>670</ele>
        <time>2019-08-08T11:57:16.000Z</time>
      </trkpt>
      <trkpt lat="42.89613" lon="1.0427">
        <ele>670</ele>
        <time>2019-08-08T11:57:17.000Z</time>
      </trkpt>
      <trkpt lat="42.89615" lon="1.04273">
        <ele>671</ele>
        <time>2019-08-08T11:57:18.000Z</time>
      </trkpt>
      <trkpt lat="42.89617" lon="1.04276">
        <ele>671</ele>
        <time>2019-08-08T11:57:19.000Z</time>
      </trkpt>
      <trkpt lat="42.89618" lon="1.04279">
        <ele>671</ele>
        <time>2019-08-08T11:57:20.000Z</time>
      </trkpt>
      <trkpt lat="42.8962" lon="1.04282">
        <ele>672</ele>
        <time>2019-08-08T11:57:21.000Z</time>
      </trkpt>
      <trkpt lat="42.89622" lon="1.04286">
        <ele>672</ele>
        <time>2019-08-08T11:57:22.000Z</time>
      </trkpt>
      <trkpt lat="42.89623" lon="1.04289">
        <ele>672</ele>
        <time>2019-08-08T11:57:23.000Z</time>
      </trkpt>
      <trkpt lat="42.89625" lon="1.04294">
        <ele>672</ele>
        <time>2019-08-08T11:57:24.000Z</time>
      </trkpt>
      <trkpt lat="42.89625" lon="1.04296">
        <ele>672</ele>
        <time>2019-08-08T11:57:25.000Z</time>
      </trkpt>
      <trkpt lat="42.89626" lon="1.04299">
        <ele>672</ele>
        <time>2019-08-08T11:57:26.000Z</time>
      </trkpt>
      <trkpt lat="42.89627" lon="1.04303">
        <ele>672</ele>
        <time>2019-08-08T11:57:27.000Z</time>
      </trkpt>
      <trkpt lat="42.89628" lon="1.04307">
        <ele>673</ele>
        <time>2019-08-08T11:57:28.000Z</time>
      </trkpt>
      <trkpt lat="42.89629" lon="1.0431">
        <ele>673</ele>
        <time>2019-08-08T11:57:29.000Z</time>
      </trkpt>
      <trkpt lat="42.89629" lon="1.04314">
        <ele>674</ele>
        <time>2019-08-08T11:57:30.000Z</time>
      </trkpt>
      <trkpt lat="42.8963" lon="1.04318">
        <ele>674</ele>
        <time>2019-08-08T11:57:31.000Z</time>
      </trkpt>
      <trkpt lat="42.89631" lon="1.04321">
        <ele>675</ele>
        <time>2019-08-08T11:57:32.000Z</time>
      </trkpt>
      <trkpt lat="42.89631" lon="1.04325">
        <ele>675</ele>
        <time>2019-08-08T11:57:33.000Z</time>
      </trkpt>
      <trkpt lat="42.89632" lon="1.04329">
        <ele>675</ele>
        <time>2019-08-08T11:57:34.000Z</time>
      </trkpt>
      <trkpt lat="42.89633" lon="1.04332">
        <ele>675</ele>
        <time>2019-08-08T11:57:35.000Z</time>
      </trkpt>
      <trkpt lat="42.89634" lon="1.04336">
        <ele>676</ele>
        <time>2019-08-08T11:57:36.000Z</time>
      </trkpt>
      <trkpt lat="42.89635" lon="1.04339">
        <ele>676</ele>
        <time>2019-08-08T11:57:37.000Z</time>
      </trkpt>
      <trkpt lat="42.89636" lon="1.04343">
        <ele>676</ele>
        <time>2019-08-08T11:57:38.000Z</time>
      </trkpt>
      <trkpt lat="42.89637" lon="1.04346">
        <ele>676</ele>
        <time>2019-08-08T11:57:39.000Z</time>
      </trkpt>
      <trkpt lat="42.89638" lon="1.0435">
        <ele>677</ele>
        <time>2019-08-08T11:57:40.000Z</time>
      </trkpt>
      <trkpt lat="42.8964" lon="1.04355">
        <ele>677</ele>
        <time>2019-08-08T11:57:41.000Z</time>
      </trkpt>
      <trkpt lat="42.8964" lon="1.04357">
        <ele>677</ele>
        <time>2019-08-08T11:57:42.000Z</time>
      </trkpt>
      <trkpt lat="42.89642" lon="1.04361">
        <ele>677</ele>
        <time>2019-08-08T11:57:43.000Z</time>
      </trkpt>
      <trkpt lat="42.89643" lon="1.04364">
        <ele>677</ele>
        <time>2019-08-08T11:57:44.000Z</time>
      </trkpt>
      <trkpt lat="42.89644" lon="1.04368">
        <ele>677</ele>
        <time>2019-08-08T11:57:45.000Z</time>
      </trkpt>
      <trkpt lat="42.89646" lon="1.04372">
        <ele>677</ele>
        <time>2019-08-08T11:57:46.000Z</time>
      </trkpt>
      <trkpt lat="42.89647" lon="1.04376">
        <ele>678</ele>
        <time>2019-08-08T11:57:47.000Z</time>
      </trkpt>
      <trkpt lat="42.89649" lon="1.04379">
        <ele>678</ele>
        <time>2019-08-08T11:57:48.000Z</time>
      </trkpt>
      <trkpt lat="42.89651" lon="1.04383">
        <ele>678</ele>
        <time>2019-08-08T11:57:49.000Z</time>
      </trkpt>
      <trkpt lat="42.89653" lon="1.04386">
        <ele>678</ele>
        <time>2019-08-08T11:57:50.000Z</time>
      </trkpt>
      <trkpt lat="42.89655" lon="1.04389">
        <ele>679</ele>
        <time>2019-08-08T11:57:51.000Z</time>
      </trkpt>
      <trkpt lat="42.89657" lon="1.04392">
        <ele>679</ele>
        <time>2019-08-08T11:57:52.000Z</time>
      </trkpt>
      <trkpt lat="42.89659" lon="1.04396">
        <ele>680</ele>
        <time>2019-08-08T11:57:53.000Z</time>
      </trkpt>
      <trkpt lat="42.89661" lon="1.04399">
        <ele>680</ele>
        <time>2019-08-08T11:57:54.000Z</time>
      </trkpt>
      <trkpt lat="42.89663" lon="1.04402">
        <ele>680</ele>
        <time>2019-08-08T11:57:55.000Z</time>
      </trkpt>
      <trkpt lat="42.89665" lon="1.04406">
        <ele>680</ele>
        <time>2019-08-08T11:57:56.000Z</time>
      </trkpt>
      <trkpt lat="42.89666" lon="1.04409">
        <ele>680</ele>
        <time>2019-08-08T11:57:57.000Z</time>
      </trkpt>
      <trkpt lat="42.89667" lon="1.04413">
        <ele>680</ele>
        <time>2019-08-08T11:57:58.000Z</time>
      </trkpt>
      <trkpt lat="42.89668" lon="1.04417">
        <ele>681</ele>
        <time>2019-08-08T11:57:59.000Z</time>
      </trkpt>
      <trkpt lat="42.89669" lon="1.04421">
        <ele>681</ele>
        <time>2019-08-08T11:58:00.000Z</time>
      </trkpt>
      <trkpt lat="42.8967" lon="1.04425">
        <ele>681</ele>
        <time>2019-08-08T11:58:01.000Z</time>
      </trkpt>
      <trkpt lat="42.8967" lon="1.0443">
        <ele>681</ele>
        <time>2019-08-08T11:58:02.000Z</time>
      </trkpt>
      <trkpt lat="42.8967" lon="1.04434">
        <ele>681</ele>
        <time>2019-08-08T11:58:03.000Z</time>
      </trkpt>
      <trkpt lat="42.89669" lon="1.04439">
        <ele>681</ele>
        <time>2019-08-08T11:58:04.000Z</time>
      </trkpt>
      <trkpt lat="42.89668" lon="1.04443">
        <ele>681</ele>
        <time>2019-08-08T11:58:05.000Z</time>
      </trkpt>
      <trkpt lat="42.89667" lon="1.04448">
        <ele>682</ele>
        <time>2019-08-08T11:58:06.000Z</time>
      </trkpt>
      <trkpt lat="42.89665" lon="1.04452">
        <ele>682</ele>
        <time>2019-08-08T11:58:07.000Z</time>
      </trkpt>
      <trkpt lat="42.89663" lon="1.04455">
        <ele>682</ele>
        <time>2019-08-08T11:58:08.000Z</time>
      </trkpt>
      <trkpt lat="42.8966" lon="1.04459">
        <ele>682</ele>
        <time>2019-08-08T11:58:09.000Z</time>
      </trkpt>
      <trkpt lat="42.89658" lon="1.04462">
        <ele>682</ele>
        <time>2019-08-08T11:58:10.000Z</time>
      </trkpt>
      <trkpt lat="42.89655" lon="1.04465">
        <ele>682</ele>
        <time>2019-08-08T11:58:11.000Z</time>
      </trkpt>
      <trkpt lat="42.89652" lon="1.04467">
        <ele>683</ele>
        <time>2019-08-08T11:58:12.000Z</time>
      </trkpt>
      <trkpt lat="42.89649" lon="1.04469">
        <ele>683</ele>
        <time>2019-08-08T11:58:13.000Z</time>
      </trkpt>
      <trkpt lat="42.89646" lon="1.04471">
        <ele>684</ele>
        <time>2019-08-08T11:58:14.000Z</time>
      </trkpt>
      <trkpt lat="42.89643" lon="1.04472">
        <ele>684</ele>
        <time>2019-08-08T11:58:15.000Z</time>
      </trkpt>
      <trkpt lat="42.89639" lon="1.04473">
        <ele>684</ele>
        <time>2019-08-08T11:58:16.000Z</time>
      </trkpt>
      <trkpt lat="42.89636" lon="1.04473">
        <ele>684</ele>
        <time>2019-08-08T11:58:17.000Z</time>
      </trkpt>
      <trkpt lat="42.89633" lon="1.04472">
        <ele>683</ele>
        <time>2019-08-08T11:58:18.000Z</time>
      </trkpt>
      <trkpt lat="42.89629" lon="1.04471">
        <ele>683</ele>
        <time>2019-08-08T11:58:19.000Z</time>
      </trkpt>
      <trkpt lat="42.89626" lon="1.0447">
        <ele>683</ele>
        <time>2019-08-08T11:58:20.000Z</time>
      </trkpt>
      <trkpt lat="42.89623" lon="1.04468">
        <ele>683</ele>
        <time>2019-08-08T11:58:21.000Z</time>
      </trkpt>
      <trkpt lat="42.8962" lon="1.04467">
        <ele>683</ele>
        <time>2019-08-08T11:58:22.000Z</time>
      </trkpt>
      <trkpt lat="42.89617" lon="1.04464">
        <ele>684</ele>
        <time>2019-08-08T11:58:23.000Z</time>
      </trkpt>
      <trkpt lat="42.89616" lon="1.04462">
        <ele>684</ele>
        <time>2019-08-08T11:58:24.000Z</time>
      </trkpt>
      <trkpt lat="42.89615" lon="1.0446">
        <ele>684</ele>
        <time>2019-08-08T11:58:25.000Z</time>
      </trkpt>
      <trkpt lat="42.89614" lon="1.04457">
        <ele>684</ele>
        <time>2019-08-08T11:58:26.000Z</time>
      </trkpt>
      <trkpt lat="42.89612" lon="1.04455">
        <ele>684</ele>
        <time>2019-08-08T11:58:27.000Z</time>
      </trkpt>
      <trkpt lat="42.89611" lon="1.04451">
        <ele>685</ele>
        <time>2019-08-08T11:58:28.000Z</time>
      </trkpt>
      <trkpt lat="42.8961" lon="1.04448">
        <ele>685</ele>
        <time>2019-08-08T11:58:29.000Z</time>
      </trkpt>
      <trkpt lat="42.89609" lon="1.04445">
        <ele>686</ele>
        <time>2019-08-08T11:58:30.000Z</time>
      </trkpt>
      <trkpt lat="42.89606" lon="1.04441">
        <ele>686</ele>
        <time>2019-08-08T11:58:31.000Z</time>
      </trkpt>
      <trkpt lat="42.89605" lon="1.04437">
        <ele>686</ele>
        <time>2019-08-08T11:58:32.000Z</time>
      </trkpt>
      <trkpt lat="42.89603" lon="1.04434">
        <ele>686</ele>
        <time>2019-08-08T11:58:33.000Z</time>
      </trkpt>
      <trkpt lat="42.89599" lon="1.0443">
        <ele>686</ele>
        <time>2019-08-08T11:58:34.000Z</time>
      </trkpt>
      <trkpt lat="42.89597" lon="1.04426">
        <ele>686</ele>
        <time>2019-08-08T11:58:35.000Z</time>
      </trkpt>
      <trkpt lat="42.89594" lon="1.04422">
        <ele>687</ele>
        <time>2019-08-08T11:58:36.000Z</time>
      </trkpt>
      <trkpt lat="42.89591" lon="1.04418">
        <ele>687</ele>
        <time>2019-08-08T11:58:37.000Z</time>
      </trkpt>
      <trkpt lat="42.89588" lon="1.04414">
        <ele>687</ele>
        <time>2019-08-08T11:58:38.000Z</time>
      </trkpt>
      <trkpt lat="42.89585" lon="1.0441">
        <ele>687</ele>
        <time>2019-08-08T11:58:39.000Z</time>
      </trkpt>
      <trkpt lat="42.89582" lon="1.04407">
        <ele>687</ele>
        <time>2019-08-08T11:58:40.000Z</time>
      </trkpt>
      <trkpt lat="42.89579" lon="1.04405">
        <ele>689</ele>
        <time>2019-08-08T11:58:41.000Z</time>
      </trkpt>
      <trkpt lat="42.89575" lon="1.04403">
        <ele>689</ele>
        <time>2019-08-08T11:58:42.000Z</time>
      </trkpt>
      <trkpt lat="42.89571" lon="1.04402">
        <ele>689</ele>
        <time>2019-08-08T11:58:43.000Z</time>
      </trkpt>
      <trkpt lat="42.89567" lon="1.04402">
        <ele>689</ele>
        <time>2019-08-08T11:58:44.000Z</time>
      </trkpt>
      <trkpt lat="42.89564" lon="1.04401">
        <ele>689</ele>
        <time>2019-08-08T11:58:45.000Z</time>
      </trkpt>
      <trkpt lat="42.8956" lon="1.04402">
        <ele>689</ele>
        <time>2019-08-08T11:58:46.000Z</time>
      </trkpt>
      <trkpt lat="42.89557" lon="1.04403">
        <ele>689</ele>
        <time>2019-08-08T11:58:47.000Z</time>
      </trkpt>
      <trkpt lat="42.89554" lon="1.04404">
        <ele>689</ele>
        <time>2019-08-08T11:58:48.000Z</time>
      </trkpt>
      <trkpt lat="42.89552" lon="1.04406">
        <ele>690</ele>
        <time>2019-08-08T11:58:49.000Z</time>
      </trkpt>
      <trkpt lat="42.89549" lon="1.04408">
        <ele>690</ele>
        <time>2019-08-08T11:58:50.000Z</time>
      </trkpt>
      <trkpt lat="42.89546" lon="1.0441">
        <ele>691</ele>
        <time>2019-08-08T11:58:51.000Z</time>
      </trkpt>
      <trkpt lat="42.89544" lon="1.04412">
        <ele>691</ele>
        <time>2019-08-08T11:58:52.000Z</time>
      </trkpt>
      <trkpt lat="42.89542" lon="1.04414">
        <ele>692</ele>
        <time>2019-08-08T11:58:53.000Z</time>
      </trkpt>
      <trkpt lat="42.8954" lon="1.04417">
        <ele>692</ele>
        <time>2019-08-08T11:58:54.000Z</time>
      </trkpt>
      <trkpt lat="42.89538" lon="1.04419">
        <ele>692</ele>
        <time>2019-08-08T11:58:55.000Z</time>
      </trkpt>
      <trkpt lat="42.89536" lon="1.04422">
        <ele>692</ele>
        <time>2019-08-08T11:58:56.000Z</time>
      </trkpt>
      <trkpt lat="42.89533" lon="1.04427">
        <ele>692</ele>
        <time>2019-08-08T11:58:57.000Z</time>
      </trkpt>
      <trkpt lat="42.89533" lon="1.04429">
        <ele>693</ele>
        <time>2019-08-08T11:58:58.000Z</time>
      </trkpt>
      <trkpt lat="42.89531" lon="1.04433">
        <ele>693</ele>
        <time>2019-08-08T11:58:59.000Z</time>
      </trkpt>
      <trkpt lat="42.89529" lon="1.04437">
        <ele>693</ele>
        <time>2019-08-08T11:59:00.000Z</time>
      </trkpt>
      <trkpt lat="42.89527" lon="1.0444">
        <ele>693</ele>
        <time>2019-08-08T11:59:01.000Z</time>
      </trkpt>
      <trkpt lat="42.89525" lon="1.04444">
        <ele>693</ele>
        <time>2019-08-08T11:59:02.000Z</time>
      </trkpt>
      <trkpt lat="42.89524" lon="1.04448">
        <ele>694</ele>
        <time>2019-08-08T11:59:03.000Z</time>
      </trkpt>
      <trkpt lat="42.89522" lon="1.04452">
        <ele>694</ele>
        <time>2019-08-08T11:59:04.000Z</time>
      </trkpt>
      <trkpt lat="42.89521" lon="1.04456">
        <ele>694</ele>
        <time>2019-08-08T11:59:05.000Z</time>
      </trkpt>
      <trkpt lat="42.89519" lon="1.04459">
        <ele>694</ele>
        <time>2019-08-08T11:59:06.000Z</time>
      </trkpt>
      <trkpt lat="42.89517" lon="1.04463">
        <ele>695</ele>
        <time>2019-08-08T11:59:07.000Z</time>
      </trkpt>
      <trkpt lat="42.89515" lon="1.04467">
        <ele>695</ele>
        <time>2019-08-08T11:59:08.000Z</time>
      </trkpt>
      <trkpt lat="42.89513" lon="1.04471">
        <ele>696</ele>
        <time>2019-08-08T11:59:09.000Z</time>
      </trkpt>
      <trkpt lat="42.89512" lon="1.04475">
        <ele>696</ele>
        <time>2019-08-08T11:59:10.000Z</time>
      </trkpt>
      <trkpt lat="42.8951" lon="1.0448">
        <ele>696</ele>
        <time>2019-08-08T11:59:11.000Z</time>
      </trkpt>
      <trkpt lat="42.89507" lon="1.04486">
        <ele>696</ele>
        <time>2019-08-08T11:59:12.000Z</time>
      </trkpt>
      <trkpt lat="42.89506" lon="1.04488">
        <ele>696</ele>
        <time>2019-08-08T11:59:13.000Z</time>
      </trkpt>
      <trkpt lat="42.89505" lon="1.04493">
        <ele>696</ele>
        <time>2019-08-08T11:59:14.000Z</time>
      </trkpt>
      <trkpt lat="42.89503" lon="1.04497">
        <ele>696</ele>
        <time>2019-08-08T11:59:15.000Z</time>
      </trkpt>
      <trkpt lat="42.89502" lon="1.04502">
        <ele>696</ele>
        <time>2019-08-08T11:59:16.000Z</time>
      </trkpt>
      <trkpt lat="42.895" lon="1.04506">
        <ele>697</ele>
        <time>2019-08-08T11:59:17.000Z</time>
      </trkpt>
      <trkpt lat="42.89499" lon="1.0451">
        <ele>697</ele>
        <time>2019-08-08T11:59:18.000Z</time>
      </trkpt>
      <trkpt lat="42.89497" lon="1.04515">
        <ele>697</ele>
        <time>2019-08-08T11:59:19.000Z</time>
      </trkpt>
      <trkpt lat="42.89496" lon="1.04519">
        <ele>698</ele>
        <time>2019-08-08T11:59:20.000Z</time>
      </trkpt>
      <trkpt lat="42.89494" lon="1.04524">
        <ele>698</ele>
        <time>2019-08-08T11:59:21.000Z</time>
      </trkpt>
      <trkpt lat="42.89493" lon="1.04528">
        <ele>698</ele>
        <time>2019-08-08T11:59:22.000Z</time>
      </trkpt>
      <trkpt lat="42.89492" lon="1.04532">
        <ele>698</ele>
        <time>2019-08-08T11:59:23.000Z</time>
      </trkpt>
      <trkpt lat="42.89491" lon="1.04537">
        <ele>698</ele>
        <time>2019-08-08T11:59:24.000Z</time>
      </trkpt>
      <trkpt lat="42.8949" lon="1.04541">
        <ele>698</ele>
        <time>2019-08-08T11:59:25.000Z</time>
      </trkpt>
      <trkpt lat="42.89489" lon="1.04545">
        <ele>698</ele>
        <time>2019-08-08T11:59:26.000Z</time>
      </trkpt>
      <trkpt lat="42.89488" lon="1.0455">
        <ele>699</ele>
        <time>2019-08-08T11:59:27.000Z</time>
      </trkpt>
      <trkpt lat="42.89486" lon="1.04554">
        <ele>699</ele>
        <time>2019-08-08T11:59:28.000Z</time>
      </trkpt>
      <trkpt lat="42.89485" lon="1.04558">
        <ele>700</ele>
        <time>2019-08-08T11:59:29.000Z</time>
      </trkpt>
      <trkpt lat="42.89483" lon="1.04565">
        <ele>700</ele>
        <time>2019-08-08T11:59:30.000Z</time>
      </trkpt>
      <trkpt lat="42.89483" lon="1.04567">
        <ele>701</ele>
        <time>2019-08-08T11:59:31.000Z</time>
      </trkpt>
      <trkpt lat="42.89481" lon="1.04571">
        <ele>701</ele>
        <time>2019-08-08T11:59:32.000Z</time>
      </trkpt>
      <trkpt lat="42.8948" lon="1.04575">
        <ele>701</ele>
        <time>2019-08-08T11:59:33.000Z</time>
      </trkpt>
      <trkpt lat="42.89479" lon="1.0458">
        <ele>701</ele>
        <time>2019-08-08T11:59:34.000Z</time>
      </trkpt>
      <trkpt lat="42.89477" lon="1.04584">
        <ele>701</ele>
        <time>2019-08-08T11:59:35.000Z</time>
      </trkpt>
      <trkpt lat="42.89476" lon="1.04588">
        <ele>701</ele>
        <time>2019-08-08T11:59:36.000Z</time>
      </trkpt>
      <trkpt lat="42.89475" lon="1.04592">
        <ele>701</ele>
        <time>2019-08-08T11:59:37.000Z</time>
      </trkpt>
      <trkpt lat="42.89474" lon="1.04597">
        <ele>701</ele>
        <time>2019-08-08T11:59:38.000Z</time>
      </trkpt>
      <trkpt lat="42.89473" lon="1.04601">
        <ele>701</ele>
        <time>2019-08-08T11:59:39.000Z</time>
      </trkpt>
      <trkpt lat="42.89471" lon="1.04605">
        <ele>701</ele>
        <time>2019-08-08T11:59:40.000Z</time>
      </trkpt>
      <trkpt lat="42.8947" lon="1.04609">
        <ele>702</ele>
        <time>2019-08-08T11:59:41.000Z</time>
      </trkpt>
      <trkpt lat="42.89469" lon="1.04614">
        <ele>702</ele>
        <time>2019-08-08T11:59:42.000Z</time>
      </trkpt>
      <trkpt lat="42.89468" lon="1.04618">
        <ele>702</ele>
        <time>2019-08-08T11:59:43.000Z</time>
      </trkpt>
      <trkpt lat="42.89467" lon="1.04623">
        <ele>702</ele>
        <time>2019-08-08T11:59:44.000Z</time>
      </trkpt>
      <trkpt lat="42.89466" lon="1.04627">
        <ele>703</ele>
        <time>2019-08-08T11:59:45.000Z</time>
      </trkpt>
      <trkpt lat="42.89465" lon="1.04631">
        <ele>703</ele>
        <time>2019-08-08T11:59:46.000Z</time>
      </trkpt>
      <trkpt lat="42.89464" lon="1.04635">
        <ele>704</ele>
        <time>2019-08-08T11:59:47.000Z</time>
      </trkpt>
      <trkpt lat="42.89463" lon="1.0464">
        <ele>704</ele>
        <time>2019-08-08T11:59:48.000Z</time>
      </trkpt>
      <trkpt lat="42.89462" lon="1.04644">
        <ele>704</ele>
        <time>2019-08-08T11:59:49.000Z</time>
      </trkpt>
      <trkpt lat="42.89461" lon="1.04649">
        <ele>704</ele>
        <time>2019-08-08T11:59:50.000Z</time>
      </trkpt>
      <trkpt lat="42.89461" lon="1.04654">
        <ele>704</ele>
        <time>2019-08-08T11:59:51.000Z</time>
      </trkpt>
      <trkpt lat="42.89461" lon="1.04658">
        <ele>704</ele>
        <time>2019-08-08T11:59:52.000Z</time>
      </trkpt>
      <trkpt lat="42.89461" lon="1.04663">
        <ele>705</ele>
        <time>2019-08-08T11:59:53.000Z</time>
      </trkpt>
      <trkpt lat="42.89461" lon="1.04667">
        <ele>705</ele>
        <time>2019-08-08T11:59:54.000Z</time>
      </trkpt>
      <trkpt lat="42.89461" lon="1.04671">
        <ele>706</ele>
        <time>2019-08-08T11:59:55.000Z</time>
      </trkpt>
      <trkpt lat="42.89461" lon="1.04676">
        <ele>706</ele>
        <time>2019-08-08T11:59:56.000Z</time>
      </trkpt>
      <trkpt lat="42.89461" lon="1.0468">
        <ele>706</ele>
        <time>2019-08-08T11:59:57.000Z</time>
      </trkpt>
      <trkpt lat="42.89461" lon="1.04685">
        <ele>707</ele>
        <time>2019-08-08T11:59:58.000Z</time>
      </trkpt>
      <trkpt lat="42.89461" lon="1.04689">
        <ele>707</ele>
        <time>2019-08-08T11:59:59.000Z</time>
      </trkpt>
      <trkpt lat="42.89461" lon="1.04694">
        <ele>707</ele>
        <time>2019-08-08T12:00:00.000Z</time>
      </trkpt>
      <trkpt lat="42.89462" lon="1.04698">
        <ele>707</ele>
        <time>2019-08-08T12:00:01.000Z</time>
      </trkpt>
      <trkpt lat="42.89462" lon="1.04702">
        <ele>707</ele>
        <time>2019-08-08T12:00:02.000Z</time>
      </trkpt>
      <trkpt lat="42.89463" lon="1.04707">
        <ele>707</ele>
        <time>2019-08-08T12:00:03.000Z</time>
      </trkpt>
      <trkpt lat="42.89464" lon="1.04711">
        <ele>707</ele>
        <time>2019-08-08T12:00:04.000Z</time>
      </trkpt>
      <trkpt lat="42.89465" lon="1.04715">
        <ele>707</ele>
        <time>2019-08-08T12:00:05.000Z</time>
      </trkpt>
      <trkpt lat="42.89465" lon="1.0472">
        <ele>707</ele>
        <time>2019-08-08T12:00:06.000Z</time>
      </trkpt>
      <trkpt lat="42.89466" lon="1.04724">
        <ele>709</ele>
        <time>2019-08-08T12:00:07.000Z</time>
      </trkpt>
      <trkpt lat="42.89467" lon="1.04729">
        <ele>709</ele>
        <time>2019-08-08T12:00:08.000Z</time>
      </trkpt>
      <trkpt lat="42.89469" lon="1.04733">
        <ele>709</ele>
        <time>2019-08-08T12:00:09.000Z</time>
      </trkpt>
      <trkpt lat="42.8947" lon="1.04737">
        <ele>709</ele>
        <time>2019-08-08T12:00:10.000Z</time>
      </trkpt>
      <trkpt lat="42.89472" lon="1.04741">
        <ele>709</ele>
        <time>2019-08-08T12:00:11.000Z</time>
      </trkpt>
      <trkpt lat="42.89474" lon="1.04745">
        <ele>709</ele>
        <time>2019-08-08T12:00:12.000Z</time>
      </trkpt>
      <trkpt lat="42.89475" lon="1.04749">
        <ele>710</ele>
        <time>2019-08-08T12:00:13.000Z</time>
      </trkpt>
      <trkpt lat="42.89477" lon="1.04753">
        <ele>710</ele>
        <time>2019-08-08T12:00:14.000Z</time>
      </trkpt>
      <trkpt lat="42.89479" lon="1.04757">
        <ele>710</ele>
        <time>2019-08-08T12:00:15.000Z</time>
      </trkpt>
      <trkpt lat="42.8948" lon="1.04761">
        <ele>710</ele>
        <time>2019-08-08T12:00:16.000Z</time>
      </trkpt>
      <trkpt lat="42.89482" lon="1.04765">
        <ele>710</ele>
        <time>2019-08-08T12:00:17.000Z</time>
      </trkpt>
      <trkpt lat="42.89484" lon="1.0477">
        <ele>710</ele>
        <time>2019-08-08T12:00:18.000Z</time>
      </trkpt>
      <trkpt lat="42.89485" lon="1.04774">
        <ele>710</ele>
        <time>2019-08-08T12:00:19.000Z</time>
      </trkpt>
      <trkpt lat="42.89486" lon="1.04779">
        <ele>710</ele>
        <time>2019-08-08T12:00:20.000Z</time>
      </trkpt>
      <trkpt lat="42.89486" lon="1.04784">
        <ele>710</ele>
        <time>2019-08-08T12:00:21.000Z</time>
      </trkpt>
      <trkpt lat="42.89485" lon="1.04789">
        <ele>710</ele>
        <time>2019-08-08T12:00:22.000Z</time>
      </trkpt>
      <trkpt lat="42.89483" lon="1.04793">
        <ele>710</ele>
        <time>2019-08-08T12:00:23.000Z</time>
      </trkpt>
      <trkpt lat="42.89481" lon="1.04797">
        <ele>711</ele>
        <time>2019-08-08T12:00:24.000Z</time>
      </trkpt>
      <trkpt lat="42.89479" lon="1.04801">
        <ele>711</ele>
        <time>2019-08-08T12:00:25.000Z</time>
      </trkpt>
      <trkpt lat="42.89476" lon="1.04804">
        <ele>711</ele>
        <time>2019-08-08T12:00:26.000Z</time>
      </trkpt>
      <trkpt lat="42.89472" lon="1.04806">
        <ele>711</ele>
        <time>2019-08-08T12:00:27.000Z</time>
      </trkpt>
      <trkpt lat="42.89469" lon="1.04808">
        <ele>711</ele>
        <time>2019-08-08T12:00:28.000Z</time>
      </trkpt>
      <trkpt lat="42.89465" lon="1.04809">
        <ele>711</ele>
        <time>2019-08-08T12:00:29.000Z</time>
      </trkpt>
      <trkpt lat="42.89461" lon="1.0481">
        <ele>711</ele>
        <time>2019-08-08T12:00:30.000Z</time>
      </trkpt>
      <trkpt lat="42.89457" lon="1.04812">
        <ele>711</ele>
        <time>2019-08-08T12:00:31.000Z</time>
      </trkpt>
      <trkpt lat="42.89453" lon="1.04813">
        <ele>711</ele>
        <time>2019-08-08T12:00:32.000Z</time>
      </trkpt>
      <trkpt lat="42.89448" lon="1.04814">
        <ele>712</ele>
        <time>2019-08-08T12:00:33.000Z</time>
      </trkpt>
      <trkpt lat="42.89444" lon="1.04815">
        <ele>712</ele>
        <time>2019-08-08T12:00:34.000Z</time>
      </trkpt>
      <trkpt lat="42.8944" lon="1.04816">
        <ele>712</ele>
        <time>2019-08-08T12:00:35.000Z</time>
      </trkpt>
      <trkpt lat="42.89435" lon="1.04817">
        <ele>712</ele>
        <time>2019-08-08T12:00:36.000Z</time>
      </trkpt>
      <trkpt lat="42.89431" lon="1.04818">
        <ele>712</ele>
        <time>2019-08-08T12:00:37.000Z</time>
      </trkpt>
      <trkpt lat="42.89426" lon="1.04819">
        <ele>713</ele>
        <time>2019-08-08T12:00:38.000Z</time>
      </trkpt>
      <trkpt lat="42.89422" lon="1.0482">
        <ele>713</ele>
        <time>2019-08-08T12:00:39.000Z</time>
      </trkpt>
      <trkpt lat="42.89418" lon="1.04821">
        <ele>713</ele>
        <time>2019-08-08T12:00:40.000Z</time>
      </trkpt>
      <trkpt lat="42.89414" lon="1.04822">
        <ele>713</ele>
        <time>2019-08-08T12:00:41.000Z</time>
      </trkpt>
      <trkpt lat="42.89409" lon="1.04823">
        <ele>713</ele>
        <time>2019-08-08T12:00:42.000Z</time>
      </trkpt>
      <trkpt lat="42.89405" lon="1.04825">
        <ele>713</ele>
        <time>2019-08-08T12:00:43.000Z</time>
      </trkpt>
      <trkpt lat="42.89401" lon="1.04827">
        <ele>714</ele>
        <time>2019-08-08T12:00:44.000Z</time>
      </trkpt>
      <trkpt lat="42.89397" lon="1.0483">
        <ele>714</ele>
        <time>2019-08-08T12:00:45.000Z</time>
      </trkpt>
      <trkpt lat="42.89394" lon="1.04834">
        <ele>714</ele>
        <time>2019-08-08T12:00:46.000Z</time>
      </trkpt>
      <trkpt lat="42.8939" lon="1.04838">
        <ele>714</ele>
        <time>2019-08-08T12:00:47.000Z</time>
      </trkpt>
      <trkpt lat="42.89388" lon="1.04843">
        <ele>713</ele>
        <time>2019-08-08T12:00:48.000Z</time>
      </trkpt>
      <trkpt lat="42.89386" lon="1.04849">
        <ele>713</ele>
        <time>2019-08-08T12:00:49.000Z</time>
      </trkpt>
      <trkpt lat="42.89384" lon="1.04856">
        <ele>714</ele>
        <time>2019-08-08T12:00:50.000Z</time>
      </trkpt>
      <trkpt lat="42.89384" lon="1.04862">
        <ele>714</ele>
        <time>2019-08-08T12:00:51.000Z</time>
      </trkpt>
      <trkpt lat="42.89384" lon="1.04869">
        <ele>714</ele>
        <time>2019-08-08T12:00:52.000Z</time>
      </trkpt>
      <trkpt lat="42.89385" lon="1.04875">
        <ele>714</ele>
        <time>2019-08-08T12:00:53.000Z</time>
      </trkpt>
      <trkpt lat="42.89386" lon="1.04882">
        <ele>714</ele>
        <time>2019-08-08T12:00:54.000Z</time>
      </trkpt>
      <trkpt lat="42.89388" lon="1.04888">
        <ele>714</ele>
        <time>2019-08-08T12:00:55.000Z</time>
      </trkpt>
      <trkpt lat="42.89391" lon="1.04893">
        <ele>715</ele>
        <time>2019-08-08T12:00:56.000Z</time>
      </trkpt>
      <trkpt lat="42.89393" lon="1.04899">
        <ele>715</ele>
        <time>2019-08-08T12:00:57.000Z</time>
      </trkpt>
      <trkpt lat="42.89396" lon="1.04904">
        <ele>716</ele>
        <time>2019-08-08T12:00:58.000Z</time>
      </trkpt>
      <trkpt lat="42.89398" lon="1.04909">
        <ele>716</ele>
        <time>2019-08-08T12:00:59.000Z</time>
      </trkpt>
      <trkpt lat="42.89401" lon="1.04914">
        <ele>716</ele>
        <time>2019-08-08T12:01:00.000Z</time>
      </trkpt>
      <trkpt lat="42.89403" lon="1.04919">
        <ele>716</ele>
        <time>2019-08-08T12:01:01.000Z</time>
      </trkpt>
      <trkpt lat="42.89406" lon="1.04924">
        <ele>716</ele>
        <time>2019-08-08T12:01:02.000Z</time>
      </trkpt>
      <trkpt lat="42.89409" lon="1.04928">
        <ele>716</ele>
        <time>2019-08-08T12:01:03.000Z</time>
      </trkpt>
      <trkpt lat="42.89412" lon="1.04932">
        <ele>716</ele>
        <time>2019-08-08T12:01:04.000Z</time>
      </trkpt>
      <trkpt lat="42.89414" lon="1.04936">
        <ele>716</ele>
        <time>2019-08-08T12:01:05.000Z</time>
      </trkpt>
      <trkpt lat="42.89417" lon="1.0494">
        <ele>716</ele>
        <time>2019-08-08T12:01:06.000Z</time>
      </trkpt>
      <trkpt lat="42.8942" lon="1.04944">
        <ele>716</ele>
        <time>2019-08-08T12:01:07.000Z</time>
      </trkpt>
      <trkpt lat="42.89423" lon="1.04947">
        <ele>717</ele>
        <time>2019-08-08T12:01:08.000Z</time>
      </trkpt>
      <trkpt lat="42.89426" lon="1.04951">
        <ele>717</ele>
        <time>2019-08-08T12:01:09.000Z</time>
      </trkpt>
      <trkpt lat="42.89429" lon="1.04955">
        <ele>718</ele>
        <time>2019-08-08T12:01:10.000Z</time>
      </trkpt>
      <trkpt lat="42.89432" lon="1.04958">
        <ele>718</ele>
        <time>2019-08-08T12:01:11.000Z</time>
      </trkpt>
      <trkpt lat="42.89435" lon="1.04961">
        <ele>718</ele>
        <time>2019-08-08T12:01:12.000Z</time>
      </trkpt>
      <trkpt lat="42.89438" lon="1.04964">
        <ele>718</ele>
        <time>2019-08-08T12:01:13.000Z</time>
      </trkpt>
      <trkpt lat="42.89441" lon="1.04967">
        <ele>718</ele>
        <time>2019-08-08T12:01:14.000Z</time>
      </trkpt>
      <trkpt lat="42.89443" lon="1.04971">
        <ele>718</ele>
        <time>2019-08-08T12:01:15.000Z</time>
      </trkpt>
      <trkpt lat="42.89446" lon="1.04974">
        <ele>719</ele>
        <time>2019-08-08T12:01:16.000Z</time>
      </trkpt>
      <trkpt lat="42.89449" lon="1.04978">
        <ele>719</ele>
        <time>2019-08-08T12:01:17.000Z</time>
      </trkpt>
      <trkpt lat="42.89451" lon="1.04982">
        <ele>719</ele>
        <time>2019-08-08T12:01:18.000Z</time>
      </trkpt>
      <trkpt lat="42.89454" lon="1.04986">
        <ele>719</ele>
        <time>2019-08-08T12:01:19.000Z</time>
      </trkpt>
      <trkpt lat="42.89455" lon="1.0499">
        <ele>719</ele>
        <time>2019-08-08T12:01:20.000Z</time>
      </trkpt>
      <trkpt lat="42.89457" lon="1.04995">
        <ele>719</ele>
        <time>2019-08-08T12:01:21.000Z</time>
      </trkpt>
      <trkpt lat="42.89457" lon="1.05">
        <ele>719</ele>
        <time>2019-08-08T12:01:22.000Z</time>
      </trkpt>
      <trkpt lat="42.89458" lon="1.05005">
        <ele>719</ele>
        <time>2019-08-08T12:01:23.000Z</time>
      </trkpt>
      <trkpt lat="42.89459" lon="1.0501">
        <ele>720</ele>
        <time>2019-08-08T12:01:24.000Z</time>
      </trkpt>
      <trkpt lat="42.8946" lon="1.05015">
        <ele>720</ele>
        <time>2019-08-08T12:01:25.000Z</time>
      </trkpt>
      <trkpt lat="42.89461" lon="1.05021">
        <ele>721</ele>
        <time>2019-08-08T12:01:26.000Z</time>
      </trkpt>
      <trkpt lat="42.89461" lon="1.05026">
        <ele>721</ele>
        <time>2019-08-08T12:01:27.000Z</time>
      </trkpt>
      <trkpt lat="42.89462" lon="1.05031">
        <ele>721</ele>
        <time>2019-08-08T12:01:28.000Z</time>
      </trkpt>
      <trkpt lat="42.89462" lon="1.05036">
        <ele>721</ele>
        <time>2019-08-08T12:01:29.000Z</time>
      </trkpt>
      <trkpt lat="42.89463" lon="1.05041">
        <ele>721</ele>
        <time>2019-08-08T12:01:30.000Z</time>
      </trkpt>
      <trkpt lat="42.89464" lon="1.05046">
        <ele>721</ele>
        <time>2019-08-08T12:01:31.000Z</time>
      </trkpt>
      <trkpt lat="42.89464" lon="1.05051">
        <ele>722</ele>
        <time>2019-08-08T12:01:32.000Z</time>
      </trkpt>
      <trkpt lat="42.89465" lon="1.05056">
        <ele>722</ele>
        <time>2019-08-08T12:01:33.000Z</time>
      </trkpt>
      <trkpt lat="42.89465" lon="1.05062">
        <ele>722</ele>
        <time>2019-08-08T12:01:34.000Z</time>
      </trkpt>
      <trkpt lat="42.89466" lon="1.05067">
        <ele>722</ele>
        <time>2019-08-08T12:01:35.000Z</time>
      </trkpt>
      <trkpt lat="42.89466" lon="1.05072">
        <ele>723</ele>
        <time>2019-08-08T12:01:36.000Z</time>
      </trkpt>
      <trkpt lat="42.89467" lon="1.05078">
        <ele>723</ele>
        <time>2019-08-08T12:01:37.000Z</time>
      </trkpt>
      <trkpt lat="42.89467" lon="1.05083">
        <ele>723</ele>
        <time>2019-08-08T12:01:38.000Z</time>
      </trkpt>
      <trkpt lat="42.89467" lon="1.05088">
        <ele>723</ele>
        <time>2019-08-08T12:01:39.000Z</time>
      </trkpt>
      <trkpt lat="42.89467" lon="1.05093">
        <ele>724</ele>
        <time>2019-08-08T12:01:40.000Z</time>
      </trkpt>
      <trkpt lat="42.89465" lon="1.05098">
        <ele>724</ele>
        <time>2019-08-08T12:01:41.000Z</time>
      </trkpt>
      <trkpt lat="42.89462" lon="1.05102">
        <ele>724</ele>
        <time>2019-08-08T12:01:42.000Z</time>
      </trkpt>
      <trkpt lat="42.89457" lon="1.05106">
        <ele>724</ele>
        <time>2019-08-08T12:01:43.000Z</time>
      </trkpt>
      <trkpt lat="42.89455" lon="1.05107">
        <ele>724</ele>
        <time>2019-08-08T12:01:44.000Z</time>
      </trkpt>
      <trkpt lat="42.89452" lon="1.05107">
        <ele>724</ele>
        <time>2019-08-08T12:01:45.000Z</time>
      </trkpt>
      <trkpt lat="42.89448" lon="1.05107">
        <ele>724</ele>
        <time>2019-08-08T12:01:46.000Z</time>
      </trkpt>
      <trkpt lat="42.89444" lon="1.05106">
        <ele>724</ele>
        <time>2019-08-08T12:01:47.000Z</time>
      </trkpt>
      <trkpt lat="42.8944" lon="1.05105">
        <ele>724</ele>
        <time>2019-08-08T12:01:48.000Z</time>
      </trkpt>
      <trkpt lat="42.89437" lon="1.05104">
        <ele>724</ele>
        <time>2019-08-08T12:01:49.000Z</time>
      </trkpt>
      <trkpt lat="42.89433" lon="1.05102">
        <ele>725</ele>
        <time>2019-08-08T12:01:50.000Z</time>
      </trkpt>
      <trkpt lat="42.8943" lon="1.051">
        <ele>725</ele>
        <time>2019-08-08T12:01:51.000Z</time>
      </trkpt>
      <trkpt lat="42.89427" lon="1.05098">
        <ele>725</ele>
        <time>2019-08-08T12:01:52.000Z</time>
      </trkpt>
      <trkpt lat="42.89425" lon="1.05097">
        <ele>725</ele>
        <time>2019-08-08T12:01:53.000Z</time>
      </trkpt>
      <trkpt lat="42.89423" lon="1.05094">
        <ele>725</ele>
        <time>2019-08-08T12:01:54.000Z</time>
      </trkpt>
      <trkpt lat="42.89419" lon="1.05091">
        <ele>725</ele>
        <time>2019-08-08T12:01:55.000Z</time>
      </trkpt>
      <trkpt lat="42.89416" lon="1.05089">
        <ele>725</ele>
        <time>2019-08-08T12:01:56.000Z</time>
      </trkpt>
      <trkpt lat="42.89412" lon="1.05087">
        <ele>725</ele>
        <time>2019-08-08T12:01:57.000Z</time>
      </trkpt>
      <trkpt lat="42.89408" lon="1.05084">
        <ele>726</ele>
        <time>2019-08-08T12:01:58.000Z</time>
      </trkpt>
      <trkpt lat="42.89403" lon="1.05082">
        <ele>726</ele>
        <time>2019-08-08T12:01:59.000Z</time>
      </trkpt>
      <trkpt lat="42.894" lon="1.0508">
        <ele>727</ele>
        <time>2019-08-08T12:02:00.000Z</time>
      </trkpt>
      <trkpt lat="42.894" lon="1.0508">
        <ele>727</ele>
        <time>2019-08-08T12:02:01.000Z</time>
      </trkpt>
      <trkpt lat="42.89392" lon="1.05077">
        <ele>727</ele>
        <time>2019-08-08T12:02:02.000Z</time>
      </trkpt>
      <trkpt lat="42.89388" lon="1.05076">
        <ele>727</ele>
        <time>2019-08-08T12:02:03.000Z</time>
      </trkpt>
      <trkpt lat="42.89384" lon="1.05075">
        <ele>727</ele>
        <time>2019-08-08T12:02:04.000Z</time>
      </trkpt>
      <trkpt lat="42.8938" lon="1.05074">
        <ele>728</ele>
        <time>2019-08-08T12:02:05.000Z</time>
      </trkpt>
      <trkpt lat="42.89376" lon="1.05074">
        <ele>728</ele>
        <time>2019-08-08T12:02:06.000Z</time>
      </trkpt>
      <trkpt lat="42.89372" lon="1.05073">
        <ele>728</ele>
        <time>2019-08-08T12:02:07.000Z</time>
      </trkpt>
      <trkpt lat="42.89368" lon="1.05072">
        <ele>728</ele>
        <time>2019-08-08T12:02:08.000Z</time>
      </trkpt>
      <trkpt lat="42.89365" lon="1.05072">
        <ele>728</ele>
        <time>2019-08-08T12:02:09.000Z</time>
      </trkpt>
      <trkpt lat="42.89361" lon="1.05072">
        <ele>728</ele>
        <time>2019-08-08T12:02:10.000Z</time>
      </trkpt>
      <trkpt lat="42.89357" lon="1.05071">
        <ele>728</ele>
        <time>2019-08-08T12:02:11.000Z</time>
      </trkpt>
      <trkpt lat="42.89353" lon="1.05071">
        <ele>729</ele>
        <time>2019-08-08T12:02:12.000Z</time>
      </trkpt>
      <trkpt lat="42.89349" lon="1.05071">
        <ele>729</ele>
        <time>2019-08-08T12:02:13.000Z</time>
      </trkpt>
      <trkpt lat="42.89345" lon="1.05071">
        <ele>729</ele>
        <time>2019-08-08T12:02:14.000Z</time>
      </trkpt>
      <trkpt lat="42.89341" lon="1.05071">
        <ele>729</ele>
        <time>2019-08-08T12:02:15.000Z</time>
      </trkpt>
      <trkpt lat="42.89338" lon="1.05072">
        <ele>730</ele>
        <time>2019-08-08T12:02:16.000Z</time>
      </trkpt>
      <trkpt lat="42.89334" lon="1.05072">
        <ele>730</ele>
        <time>2019-08-08T12:02:17.000Z</time>
      </trkpt>
      <trkpt lat="42.8933" lon="1.05072">
        <ele>730</ele>
        <time>2019-08-08T12:02:18.000Z</time>
      </trkpt>
      <trkpt lat="42.89326" lon="1.05073">
        <ele>730</ele>
        <time>2019-08-08T12:02:19.000Z</time>
      </trkpt>
      <trkpt lat="42.89322" lon="1.05074">
        <ele>731</ele>
        <time>2019-08-08T12:02:20.000Z</time>
      </trkpt>
      <trkpt lat="42.89318" lon="1.05075">
        <ele>731</ele>
        <time>2019-08-08T12:02:21.000Z</time>
      </trkpt>
      <trkpt lat="42.89315" lon="1.05077">
        <ele>731</ele>
        <time>2019-08-08T12:02:22.000Z</time>
      </trkpt>
      <trkpt lat="42.89311" lon="1.05078">
        <ele>731</ele>
        <time>2019-08-08T12:02:23.000Z</time>
      </trkpt>
      <trkpt lat="42.89307" lon="1.0508">
        <ele>732</ele>
        <time>2019-08-08T12:02:24.000Z</time>
      </trkpt>
      <trkpt lat="42.89303" lon="1.05082">
        <ele>732</ele>
        <time>2019-08-08T12:02:25.000Z</time>
      </trkpt>
      <trkpt lat="42.893" lon="1.05084">
        <ele>732</ele>
        <time>2019-08-08T12:02:26.000Z</time>
      </trkpt>
      <trkpt lat="42.89296" lon="1.05086">
        <ele>732</ele>
        <time>2019-08-08T12:02:27.000Z</time>
      </trkpt>
      <trkpt lat="42.89292" lon="1.05088">
        <ele>733</ele>
        <time>2019-08-08T12:02:28.000Z</time>
      </trkpt>
      <trkpt lat="42.89289" lon="1.05091">
        <ele>733</ele>
        <time>2019-08-08T12:02:29.000Z</time>
      </trkpt>
      <trkpt lat="42.89286" lon="1.05093">
        <ele>734</ele>
        <time>2019-08-08T12:02:30.000Z</time>
      </trkpt>
      <trkpt lat="42.89283" lon="1.05096">
        <ele>734</ele>
        <time>2019-08-08T12:02:31.000Z</time>
      </trkpt>
      <trkpt lat="42.89279" lon="1.05099">
        <ele>734</ele>
        <time>2019-08-08T12:02:32.000Z</time>
      </trkpt>
      <trkpt lat="42.89276" lon="1.05101">
        <ele>734</ele>
        <time>2019-08-08T12:02:33.000Z</time>
      </trkpt>
      <trkpt lat="42.89273" lon="1.05104">
        <ele>734</ele>
        <time>2019-08-08T12:02:34.000Z</time>
      </trkpt>
      <trkpt lat="42.8927" lon="1.05107">
        <ele>734</ele>
        <time>2019-08-08T12:02:35.000Z</time>
      </trkpt>
      <trkpt lat="42.89267" lon="1.0511">
        <ele>734</ele>
        <time>2019-08-08T12:02:36.000Z</time>
      </trkpt>
      <trkpt lat="42.89264" lon="1.05114">
        <ele>734</ele>
        <time>2019-08-08T12:02:37.000Z</time>
      </trkpt>
      <trkpt lat="42.89261" lon="1.05118">
        <ele>734</ele>
        <time>2019-08-08T12:02:38.000Z</time>
      </trkpt>
      <trkpt lat="42.89259" lon="1.05122">
        <ele>734</ele>
        <time>2019-08-08T12:02:39.000Z</time>
      </trkpt>
      <trkpt lat="42.89256" lon="1.05127">
        <ele>734</ele>
        <time>2019-08-08T12:02:40.000Z</time>
      </trkpt>
      <trkpt lat="42.89253" lon="1.05131">
        <ele>734</ele>
        <time>2019-08-08T12:02:41.000Z</time>
      </trkpt>
      <trkpt lat="42.89251" lon="1.05136">
        <ele>734</ele>
        <time>2019-08-08T12:02:42.000Z</time>
      </trkpt>
      <trkpt lat="42.89249" lon="1.05141">
        <ele>734</ele>
        <time>2019-08-08T12:02:43.000Z</time>
      </trkpt>
      <trkpt lat="42.89246" lon="1.05147">
        <ele>735</ele>
        <time>2019-08-08T12:02:44.000Z</time>
      </trkpt>
      <trkpt lat="42.89244" lon="1.05152">
        <ele>735</ele>
        <time>2019-08-08T12:02:45.000Z</time>
      </trkpt>
      <trkpt lat="42.89242" lon="1.05158">
        <ele>735</ele>
        <time>2019-08-08T12:02:46.000Z</time>
      </trkpt>
      <trkpt lat="42.89241" lon="1.05164">
        <ele>735</ele>
        <time>2019-08-08T12:02:47.000Z</time>
      </trkpt>
      <trkpt lat="42.89239" lon="1.0517">
        <ele>735</ele>
        <time>2019-08-08T12:02:48.000Z</time>
      </trkpt>
      <trkpt lat="42.89238" lon="1.05177">
        <ele>736</ele>
        <time>2019-08-08T12:02:49.000Z</time>
      </trkpt>
      <trkpt lat="42.89237" lon="1.05184">
        <ele>736</ele>
        <time>2019-08-08T12:02:50.000Z</time>
      </trkpt>
      <trkpt lat="42.89236" lon="1.05191">
        <ele>736</ele>
        <time>2019-08-08T12:02:51.000Z</time>
      </trkpt>
      <trkpt lat="42.89235" lon="1.05198">
        <ele>736</ele>
        <time>2019-08-08T12:02:52.000Z</time>
      </trkpt>
      <trkpt lat="42.89234" lon="1.05205">
        <ele>736</ele>
        <time>2019-08-08T12:02:53.000Z</time>
      </trkpt>
      <trkpt lat="42.89234" lon="1.05212">
        <ele>736</ele>
        <time>2019-08-08T12:02:54.000Z</time>
      </trkpt>
      <trkpt lat="42.89233" lon="1.05219">
        <ele>736</ele>
        <time>2019-08-08T12:02:55.000Z</time>
      </trkpt>
      <trkpt lat="42.89232" lon="1.05226">
        <ele>736</ele>
        <time>2019-08-08T12:02:56.000Z</time>
      </trkpt>
      <trkpt lat="42.89232" lon="1.05234">
        <ele>736</ele>
        <time>2019-08-08T12:02:57.000Z</time>
      </trkpt>
      <trkpt lat="42.89232" lon="1.05241">
        <ele>736</ele>
        <time>2019-08-08T12:02:58.000Z</time>
      </trkpt>
      <trkpt lat="42.89231" lon="1.05249">
        <ele>736</ele>
        <time>2019-08-08T12:02:59.000Z</time>
      </trkpt>
      <trkpt lat="42.89229" lon="1.05257">
        <ele>736</ele>
        <time>2019-08-08T12:03:00.000Z</time>
      </trkpt>
      <trkpt lat="42.89227" lon="1.05265">
        <ele>735</ele>
        <time>2019-08-08T12:03:01.000Z</time>
      </trkpt>
      <trkpt lat="42.89224" lon="1.05272">
        <ele>735</ele>
        <time>2019-08-08T12:03:02.000Z</time>
      </trkpt>
      <trkpt lat="42.8922" lon="1.05278">
        <ele>735</ele>
        <time>2019-08-08T12:03:03.000Z</time>
      </trkpt>
      <trkpt lat="42.89216" lon="1.05284">
        <ele>735</ele>
        <time>2019-08-08T12:03:04.000Z</time>
      </trkpt>
      <trkpt lat="42.8921" lon="1.05288">
        <ele>735</ele>
        <time>2019-08-08T12:03:05.000Z</time>
      </trkpt>
      <trkpt lat="42.89205" lon="1.05292">
        <ele>735</ele>
        <time>2019-08-08T12:03:06.000Z</time>
      </trkpt>
      <trkpt lat="42.892" lon="1.05295">
        <ele>737</ele>
        <time>2019-08-08T12:03:07.000Z</time>
      </trkpt>
      <trkpt lat="42.89195" lon="1.053">
        <ele>737</ele>
        <time>2019-08-08T12:03:08.000Z</time>
      </trkpt>
      <trkpt lat="42.89191" lon="1.05304">
        <ele>737</ele>
        <time>2019-08-08T12:03:09.000Z</time>
      </trkpt>
      <trkpt lat="42.89187" lon="1.05309">
        <ele>737</ele>
        <time>2019-08-08T12:03:10.000Z</time>
      </trkpt>
      <trkpt lat="42.89182" lon="1.05314">
        <ele>737</ele>
        <time>2019-08-08T12:03:11.000Z</time>
      </trkpt>
      <trkpt lat="42.89178" lon="1.05319">
        <ele>736</ele>
        <time>2019-08-08T12:03:12.000Z</time>
      </trkpt>
      <trkpt lat="42.89174" lon="1.05324">
        <ele>736</ele>
        <time>2019-08-08T12:03:13.000Z</time>
      </trkpt>
      <trkpt lat="42.89169" lon="1.05329">
        <ele>737</ele>
        <time>2019-08-08T12:03:14.000Z</time>
      </trkpt>
      <trkpt lat="42.89165" lon="1.05333">
        <ele>737</ele>
        <time>2019-08-08T12:03:15.000Z</time>
      </trkpt>
      <trkpt lat="42.8916" lon="1.05337">
        <ele>737</ele>
        <time>2019-08-08T12:03:16.000Z</time>
      </trkpt>
      <trkpt lat="42.89155" lon="1.0534">
        <ele>737</ele>
        <time>2019-08-08T12:03:17.000Z</time>
      </trkpt>
      <trkpt lat="42.8915" lon="1.05342">
        <ele>738</ele>
        <time>2019-08-08T12:03:18.000Z</time>
      </trkpt>
      <trkpt lat="42.89145" lon="1.05344">
        <ele>738</ele>
        <time>2019-08-08T12:03:19.000Z</time>
      </trkpt>
      <trkpt lat="42.8914" lon="1.05346">
        <ele>738</ele>
        <time>2019-08-08T12:03:20.000Z</time>
      </trkpt>
      <trkpt lat="42.89135" lon="1.05348">
        <ele>738</ele>
        <time>2019-08-08T12:03:21.000Z</time>
      </trkpt>
      <trkpt lat="42.8913" lon="1.0535">
        <ele>738</ele>
        <time>2019-08-08T12:03:22.000Z</time>
      </trkpt>
      <trkpt lat="42.89123" lon="1.05353">
        <ele>738</ele>
        <time>2019-08-08T12:03:23.000Z</time>
      </trkpt>
      <trkpt lat="42.8912" lon="1.05354">
        <ele>738</ele>
        <time>2019-08-08T12:03:24.000Z</time>
      </trkpt>
      <trkpt lat="42.89116" lon="1.05357">
        <ele>738</ele>
        <time>2019-08-08T12:03:25.000Z</time>
      </trkpt>
      <trkpt lat="42.89111" lon="1.0536">
        <ele>738</ele>
        <time>2019-08-08T12:03:26.000Z</time>
      </trkpt>
      <trkpt lat="42.89107" lon="1.05363">
        <ele>738</ele>
        <time>2019-08-08T12:03:27.000Z</time>
      </trkpt>
      <trkpt lat="42.89103" lon="1.05366">
        <ele>739</ele>
        <time>2019-08-08T12:03:28.000Z</time>
      </trkpt>
      <trkpt lat="42.89099" lon="1.05371">
        <ele>739</ele>
        <time>2019-08-08T12:03:29.000Z</time>
      </trkpt>
      <trkpt lat="42.89095" lon="1.05375">
        <ele>739</ele>
        <time>2019-08-08T12:03:30.000Z</time>
      </trkpt>
      <trkpt lat="42.89092" lon="1.0538">
        <ele>739</ele>
        <time>2019-08-08T12:03:31.000Z</time>
      </trkpt>
      <trkpt lat="42.89088" lon="1.05386">
        <ele>740</ele>
        <time>2019-08-08T12:03:32.000Z</time>
      </trkpt>
      <trkpt lat="42.89085" lon="1.05392">
        <ele>740</ele>
        <time>2019-08-08T12:03:33.000Z</time>
      </trkpt>
      <trkpt lat="42.89082" lon="1.05398">
        <ele>740</ele>
        <time>2019-08-08T12:03:34.000Z</time>
      </trkpt>
      <trkpt lat="42.89079" lon="1.05405">
        <ele>740</ele>
        <time>2019-08-08T12:03:35.000Z</time>
      </trkpt>
      <trkpt lat="42.89076" lon="1.05412">
        <ele>740</ele>
        <time>2019-08-08T12:03:36.000Z</time>
      </trkpt>
      <trkpt lat="42.89074" lon="1.0542">
        <ele>740</ele>
        <time>2019-08-08T12:03:37.000Z</time>
      </trkpt>
      <trkpt lat="42.89073" lon="1.05429">
        <ele>739</ele>
        <time>2019-08-08T12:03:38.000Z</time>
      </trkpt>
      <trkpt lat="42.89072" lon="1.05438">
        <ele>739</ele>
        <time>2019-08-08T12:03:39.000Z</time>
      </trkpt>
      <trkpt lat="42.89072" lon="1.05447">
        <ele>739</ele>
        <time>2019-08-08T12:03:40.000Z</time>
      </trkpt>
      <trkpt lat="42.89072" lon="1.05457">
        <ele>739</ele>
        <time>2019-08-08T12:03:41.000Z</time>
      </trkpt>
      <trkpt lat="42.89073" lon="1.05467">
        <ele>738</ele>
        <time>2019-08-08T12:03:42.000Z</time>
      </trkpt>
      <trkpt lat="42.89074" lon="1.05476">
        <ele>738</ele>
        <time>2019-08-08T12:03:43.000Z</time>
      </trkpt>
      <trkpt lat="42.89074" lon="1.05486">
        <ele>738</ele>
        <time>2019-08-08T12:03:44.000Z</time>
      </trkpt>
      <trkpt lat="42.89074" lon="1.05496">
        <ele>738</ele>
        <time>2019-08-08T12:03:45.000Z</time>
      </trkpt>
      <trkpt lat="42.89075" lon="1.05505">
        <ele>738</ele>
        <time>2019-08-08T12:03:46.000Z</time>
      </trkpt>
      <trkpt lat="42.89075" lon="1.05514">
        <ele>738</ele>
        <time>2019-08-08T12:03:47.000Z</time>
      </trkpt>
      <trkpt lat="42.89075" lon="1.05524">
        <ele>738</ele>
        <time>2019-08-08T12:03:48.000Z</time>
      </trkpt>
      <trkpt lat="42.89075" lon="1.05533">
        <ele>738</ele>
        <time>2019-08-08T12:03:49.000Z</time>
      </trkpt>
      <trkpt lat="42.89075" lon="1.05542">
        <ele>738</ele>
        <time>2019-08-08T12:03:50.000Z</time>
      </trkpt>
      <trkpt lat="42.89075" lon="1.05552">
        <ele>738</ele>
        <time>2019-08-08T12:03:51.000Z</time>
      </trkpt>
      <trkpt lat="42.89077" lon="1.05561">
        <ele>738</ele>
        <time>2019-08-08T12:03:52.000Z</time>
      </trkpt>
      <trkpt lat="42.89079" lon="1.0557">
        <ele>738</ele>
        <time>2019-08-08T12:03:53.000Z</time>
      </trkpt>
      <trkpt lat="42.89082" lon="1.05579">
        <ele>738</ele>
        <time>2019-08-08T12:03:54.000Z</time>
      </trkpt>
      <trkpt lat="42.89084" lon="1.05587">
        <ele>738</ele>
        <time>2019-08-08T12:03:55.000Z</time>
      </trkpt>
      <trkpt lat="42.89087" lon="1.05594">
        <ele>739</ele>
        <time>2019-08-08T12:03:56.000Z</time>
      </trkpt>
      <trkpt lat="42.8909" lon="1.05601">
        <ele>739</ele>
        <time>2019-08-08T12:03:57.000Z</time>
      </trkpt>
      <trkpt lat="42.89092" lon="1.05609">
        <ele>739</ele>
        <time>2019-08-08T12:03:58.000Z</time>
      </trkpt>
      <trkpt lat="42.89094" lon="1.05616">
        <ele>739</ele>
        <time>2019-08-08T12:03:59.000Z</time>
      </trkpt>
      <trkpt lat="42.89094" lon="1.05623">
        <ele>739</ele>
        <time>2019-08-08T12:04:00.000Z</time>
      </trkpt>
      <trkpt lat="42.89093" lon="1.05633">
        <ele>739</ele>
        <time>2019-08-08T12:04:01.000Z</time>
      </trkpt>
      <trkpt lat="42.89092" lon="1.05636">
        <ele>739</ele>
        <time>2019-08-08T12:04:02.000Z</time>
      </trkpt>
      <trkpt lat="42.8909" lon="1.05641">
        <ele>739</ele>
        <time>2019-08-08T12:04:03.000Z</time>
      </trkpt>
      <trkpt lat="42.89088" lon="1.05644">
        <ele>739</ele>
        <time>2019-08-08T12:04:04.000Z</time>
      </trkpt>
      <trkpt lat="42.89085" lon="1.05647">
        <ele>741</ele>
        <time>2019-08-08T12:04:05.000Z</time>
      </trkpt>
      <trkpt lat="42.89082" lon="1.05648">
        <ele>741</ele>
        <time>2019-08-08T12:04:06.000Z</time>
      </trkpt>
      <trkpt lat="42.89078" lon="1.05648">
        <ele>741</ele>
        <time>2019-08-08T12:04:07.000Z</time>
      </trkpt>
      <trkpt lat="42.89074" lon="1.05648">
        <ele>741</ele>
        <time>2019-08-08T12:04:08.000Z</time>
      </trkpt>
      <trkpt lat="42.89071" lon="1.05648">
        <ele>742</ele>
        <time>2019-08-08T12:04:09.000Z</time>
      </trkpt>
      <trkpt lat="42.89068" lon="1.05648">
        <ele>742</ele>
        <time>2019-08-08T12:04:10.000Z</time>
      </trkpt>
      <trkpt lat="42.89065" lon="1.05647">
        <ele>743</ele>
        <time>2019-08-08T12:04:11.000Z</time>
      </trkpt>
      <trkpt lat="42.89062" lon="1.05645">
        <ele>743</ele>
        <time>2019-08-08T12:04:12.000Z</time>
      </trkpt>
      <trkpt lat="42.89062" lon="1.05645">
        <ele>743</ele>
        <time>2019-08-08T12:04:13.000Z</time>
      </trkpt>
      <trkpt lat="42.89056" lon="1.05641">
        <ele>743</ele>
        <time>2019-08-08T12:04:14.000Z</time>
      </trkpt>
      <trkpt lat="42.89053" lon="1.05638">
        <ele>743</ele>
        <time>2019-08-08T12:04:15.000Z</time>
      </trkpt>
      <trkpt lat="42.8905" lon="1.05636">
        <ele>743</ele>
        <time>2019-08-08T12:04:16.000Z</time>
      </trkpt>
      <trkpt lat="42.89046" lon="1.05633">
        <ele>744</ele>
        <time>2019-08-08T12:04:17.000Z</time>
      </trkpt>
      <trkpt lat="42.89043" lon="1.05632">
        <ele>744</ele>
        <time>2019-08-08T12:04:18.000Z</time>
      </trkpt>
      <trkpt lat="42.8904" lon="1.0563">
        <ele>744</ele>
        <time>2019-08-08T12:04:19.000Z</time>
      </trkpt>
      <trkpt lat="42.89037" lon="1.05628">
        <ele>744</ele>
        <time>2019-08-08T12:04:20.000Z</time>
      </trkpt>
      <trkpt lat="42.89034" lon="1.05626">
        <ele>744</ele>
        <time>2019-08-08T12:04:21.000Z</time>
      </trkpt>
      <trkpt lat="42.8903" lon="1.05624">
        <ele>744</ele>
        <time>2019-08-08T12:04:22.000Z</time>
      </trkpt>
      <trkpt lat="42.89026" lon="1.05623">
        <ele>744</ele>
        <time>2019-08-08T12:04:23.000Z</time>
      </trkpt>
      <trkpt lat="42.89023" lon="1.05622">
        <ele>745</ele>
        <time>2019-08-08T12:04:24.000Z</time>
      </trkpt>
      <trkpt lat="42.8902" lon="1.0562">
        <ele>745</ele>
        <time>2019-08-08T12:04:25.000Z</time>
      </trkpt>
      <trkpt lat="42.89016" lon="1.05617">
        <ele>746</ele>
        <time>2019-08-08T12:04:26.000Z</time>
      </trkpt>
      <trkpt lat="42.89014" lon="1.05615">
        <ele>746</ele>
        <time>2019-08-08T12:04:27.000Z</time>
      </trkpt>
      <trkpt lat="42.89011" lon="1.05613">
        <ele>746</ele>
        <time>2019-08-08T12:04:28.000Z</time>
      </trkpt>
      <trkpt lat="42.89007" lon="1.05612">
        <ele>746</ele>
        <time>2019-08-08T12:04:29.000Z</time>
      </trkpt>
      <trkpt lat="42.89003" lon="1.05611">
        <ele>747</ele>
        <time>2019-08-08T12:04:30.000Z</time>
      </trkpt>
      <trkpt lat="42.89" lon="1.05611">
        <ele>747</ele>
        <time>2019-08-08T12:04:31.000Z</time>
      </trkpt>
      <trkpt lat="42.88996" lon="1.05611">
        <ele>747</ele>
        <time>2019-08-08T12:04:32.000Z</time>
      </trkpt>
      <trkpt lat="42.88992" lon="1.05612">
        <ele>747</ele>
        <time>2019-08-08T12:04:33.000Z</time>
      </trkpt>
      <trkpt lat="42.88989" lon="1.05613">
        <ele>748</ele>
        <time>2019-08-08T12:04:34.000Z</time>
      </trkpt>
      <trkpt lat="42.88985" lon="1.05614">
        <ele>748</ele>
        <time>2019-08-08T12:04:35.000Z</time>
      </trkpt>
      <trkpt lat="42.88982" lon="1.05616">
        <ele>748</ele>
        <time>2019-08-08T12:04:36.000Z</time>
      </trkpt>
      <trkpt lat="42.88979" lon="1.05618">
        <ele>748</ele>
        <time>2019-08-08T12:04:37.000Z</time>
      </trkpt>
      <trkpt lat="42.88975" lon="1.0562">
        <ele>748</ele>
        <time>2019-08-08T12:04:38.000Z</time>
      </trkpt>
      <trkpt lat="42.88972" lon="1.05623">
        <ele>748</ele>
        <time>2019-08-08T12:04:39.000Z</time>
      </trkpt>
      <trkpt lat="42.8897" lon="1.05626">
        <ele>748</ele>
        <time>2019-08-08T12:04:40.000Z</time>
      </trkpt>
      <trkpt lat="42.88967" lon="1.0563">
        <ele>748</ele>
        <time>2019-08-08T12:04:41.000Z</time>
      </trkpt>
      <trkpt lat="42.88964" lon="1.05633">
        <ele>748</ele>
        <time>2019-08-08T12:04:42.000Z</time>
      </trkpt>
      <trkpt lat="42.88962" lon="1.05637">
        <ele>749</ele>
        <time>2019-08-08T12:04:43.000Z</time>
      </trkpt>
      <trkpt lat="42.88959" lon="1.0564">
        <ele>749</ele>
        <time>2019-08-08T12:04:44.000Z</time>
      </trkpt>
      <trkpt lat="42.88957" lon="1.05644">
        <ele>749</ele>
        <time>2019-08-08T12:04:45.000Z</time>
      </trkpt>
      <trkpt lat="42.88955" lon="1.05648">
        <ele>749</ele>
        <time>2019-08-08T12:04:46.000Z</time>
      </trkpt>
      <trkpt lat="42.88952" lon="1.05652">
        <ele>749</ele>
        <time>2019-08-08T12:04:47.000Z</time>
      </trkpt>
      <trkpt lat="42.8895" lon="1.05657">
        <ele>749</ele>
        <time>2019-08-08T12:04:48.000Z</time>
      </trkpt>
      <trkpt lat="42.88949" lon="1.05662">
        <ele>750</ele>
        <time>2019-08-08T12:04:49.000Z</time>
      </trkpt>
      <trkpt lat="42.88947" lon="1.05666">
        <ele>750</ele>
        <time>2019-08-08T12:04:50.000Z</time>
      </trkpt>
      <trkpt lat="42.88945" lon="1.05672">
        <ele>750</ele>
        <time>2019-08-08T12:04:51.000Z</time>
      </trkpt>
      <trkpt lat="42.88943" lon="1.05677">
        <ele>750</ele>
        <time>2019-08-08T12:04:52.000Z</time>
      </trkpt>
      <trkpt lat="42.88942" lon="1.05682">
        <ele>750</ele>
        <time>2019-08-08T12:04:53.000Z</time>
      </trkpt>
      <trkpt lat="42.8894" lon="1.05687">
        <ele>750</ele>
        <time>2019-08-08T12:04:54.000Z</time>
      </trkpt>
      <trkpt lat="42.88939" lon="1.05692">
        <ele>750</ele>
        <time>2019-08-08T12:04:55.000Z</time>
      </trkpt>
      <trkpt lat="42.88938" lon="1.05698">
        <ele>750</ele>
        <time>2019-08-08T12:04:56.000Z</time>
      </trkpt>
      <trkpt lat="42.88936" lon="1.05704">
        <ele>751</ele>
        <time>2019-08-08T12:04:57.000Z</time>
      </trkpt>
      <trkpt lat="42.88935" lon="1.05709">
        <ele>751</ele>
        <time>2019-08-08T12:04:58.000Z</time>
      </trkpt>
      <trkpt lat="42.88933" lon="1.05715">
        <ele>751</ele>
        <time>2019-08-08T12:04:59.000Z</time>
      </trkpt>
      <trkpt lat="42.88932" lon="1.05721">
        <ele>751</ele>
        <time>2019-08-08T12:05:00.000Z</time>
      </trkpt>
      <trkpt lat="42.88931" lon="1.05727">
        <ele>751</ele>
        <time>2019-08-08T12:05:01.000Z</time>
      </trkpt>
      <trkpt lat="42.8893" lon="1.05734">
        <ele>752</ele>
        <time>2019-08-08T12:05:02.000Z</time>
      </trkpt>
      <trkpt lat="42.88928" lon="1.0574">
        <ele>752</ele>
        <time>2019-08-08T12:05:03.000Z</time>
      </trkpt>
      <trkpt lat="42.88927" lon="1.05745">
        <ele>752</ele>
        <time>2019-08-08T12:05:04.000Z</time>
      </trkpt>
      <trkpt lat="42.88926" lon="1.05751">
        <ele>752</ele>
        <time>2019-08-08T12:05:05.000Z</time>
      </trkpt>
      <trkpt lat="42.88924" lon="1.05758">
        <ele>752</ele>
        <time>2019-08-08T12:05:06.000Z</time>
      </trkpt>
      <trkpt lat="42.88923" lon="1.05764">
        <ele>752</ele>
        <time>2019-08-08T12:05:07.000Z</time>
      </trkpt>
      <trkpt lat="42.88922" lon="1.0577">
        <ele>752</ele>
        <time>2019-08-08T12:05:08.000Z</time>
      </trkpt>
      <trkpt lat="42.88921" lon="1.05776">
        <ele>752</ele>
        <time>2019-08-08T12:05:09.000Z</time>
      </trkpt>
      <trkpt lat="42.8892" lon="1.05782">
        <ele>752</ele>
        <time>2019-08-08T12:05:10.000Z</time>
      </trkpt>
      <trkpt lat="42.88919" lon="1.05788">
        <ele>752</ele>
        <time>2019-08-08T12:05:11.000Z</time>
      </trkpt>
      <trkpt lat="42.88918" lon="1.05794">
        <ele>752</ele>
        <time>2019-08-08T12:05:12.000Z</time>
      </trkpt>
      <trkpt lat="42.88918" lon="1.058">
        <ele>752</ele>
        <time>2019-08-08T12:05:13.000Z</time>
      </trkpt>
      <trkpt lat="42.88917" lon="1.05806">
        <ele>752</ele>
        <time>2019-08-08T12:05:14.000Z</time>
      </trkpt>
      <trkpt lat="42.88917" lon="1.05813">
        <ele>752</ele>
        <time>2019-08-08T12:05:15.000Z</time>
      </trkpt>
      <trkpt lat="42.88917" lon="1.05819">
        <ele>752</ele>
        <time>2019-08-08T12:05:16.000Z</time>
      </trkpt>
      <trkpt lat="42.88917" lon="1.05828">
        <ele>752</ele>
        <time>2019-08-08T12:05:17.000Z</time>
      </trkpt>
      <trkpt lat="42.88917" lon="1.05831">
        <ele>752.4</ele>
        <time>2019-08-08T12:05:18.000Z</time>
      </trkpt>
      <trkpt lat="42.88917" lon="1.05838">
        <ele>753</ele>
        <time>2019-08-08T12:05:19.000Z</time>
      </trkpt>
      <trkpt lat="42.88917" lon="1.05844">
        <ele>753</ele>
        <time>2019-08-08T12:05:20.000Z</time>
      </trkpt>
      <trkpt lat="42.88916" lon="1.0585">
        <ele>753</ele>
        <time>2019-08-08T12:05:21.000Z</time>
      </trkpt>
      <trkpt lat="42.88916" lon="1.05856">
        <ele>753</ele>
        <time>2019-08-08T12:05:22.000Z</time>
      </trkpt>
      <trkpt lat="42.88916" lon="1.05863">
        <ele>753</ele>
        <time>2019-08-08T12:05:23.000Z</time>
      </trkpt>
      <trkpt lat="42.88916" lon="1.05869">
        <ele>753</ele>
        <time>2019-08-08T12:05:24.000Z</time>
      </trkpt>
      <trkpt lat="42.88916" lon="1.05875">
        <ele>753</ele>
        <time>2019-08-08T12:05:25.000Z</time>
      </trkpt>
      <trkpt lat="42.88916" lon="1.05882">
        <ele>754</ele>
        <time>2019-08-08T12:05:26.000Z</time>
      </trkpt>
      <trkpt lat="42.88915" lon="1.05888">
        <ele>754</ele>
        <time>2019-08-08T12:05:27.000Z</time>
      </trkpt>
      <trkpt lat="42.88914" lon="1.05894">
        <ele>754</ele>
        <time>2019-08-08T12:05:28.000Z</time>
      </trkpt>
      <trkpt lat="42.88913" lon="1.059">
        <ele>754</ele>
        <time>2019-08-08T12:05:29.000Z</time>
      </trkpt>
      <trkpt lat="42.88911" lon="1.05906">
        <ele>754</ele>
        <time>2019-08-08T12:05:30.000Z</time>
      </trkpt>
      <trkpt lat="42.88908" lon="1.05911">
        <ele>754</ele>
        <time>2019-08-08T12:05:31.000Z</time>
      </trkpt>
      <trkpt lat="42.88905" lon="1.05915">
        <ele>755</ele>
        <time>2019-08-08T12:05:32.000Z</time>
      </trkpt>
      <trkpt lat="42.88901" lon="1.05917">
        <ele>755</ele>
        <time>2019-08-08T12:05:33.000Z</time>
      </trkpt>
      <trkpt lat="42.88897" lon="1.05919">
        <ele>755</ele>
        <time>2019-08-08T12:05:34.000Z</time>
      </trkpt>
      <trkpt lat="42.88893" lon="1.0592">
        <ele>755</ele>
        <time>2019-08-08T12:05:35.000Z</time>
      </trkpt>
      <trkpt lat="42.88889" lon="1.0592">
        <ele>755</ele>
        <time>2019-08-08T12:05:36.000Z</time>
      </trkpt>
      <trkpt lat="42.88885" lon="1.05921">
        <ele>755</ele>
        <time>2019-08-08T12:05:37.000Z</time>
      </trkpt>
      <trkpt lat="42.88881" lon="1.0592">
        <ele>755</ele>
        <time>2019-08-08T12:05:38.000Z</time>
      </trkpt>
      <trkpt lat="42.88876" lon="1.05919">
        <ele>754</ele>
        <time>2019-08-08T12:05:39.000Z</time>
      </trkpt>
      <trkpt lat="42.88872" lon="1.05918">
        <ele>754</ele>
        <time>2019-08-08T12:05:40.000Z</time>
      </trkpt>
      <trkpt lat="42.88868" lon="1.05916">
        <ele>755</ele>
        <time>2019-08-08T12:05:41.000Z</time>
      </trkpt>
      <trkpt lat="42.88863" lon="1.05914">
        <ele>755</ele>
        <time>2019-08-08T12:05:42.000Z</time>
      </trkpt>
      <trkpt lat="42.88859" lon="1.05912">
        <ele>757</ele>
        <time>2019-08-08T12:05:43.000Z</time>
      </trkpt>
      <trkpt lat="42.88854" lon="1.0591">
        <ele>757</ele>
        <time>2019-08-08T12:05:44.000Z</time>
      </trkpt>
      <trkpt lat="42.8885" lon="1.05908">
        <ele>757</ele>
        <time>2019-08-08T12:05:45.000Z</time>
      </trkpt>
      <trkpt lat="42.88845" lon="1.05905">
        <ele>757</ele>
        <time>2019-08-08T12:05:46.000Z</time>
      </trkpt>
      <trkpt lat="42.88841" lon="1.05903">
        <ele>757</ele>
        <time>2019-08-08T12:05:47.000Z</time>
      </trkpt>
      <trkpt lat="42.88836" lon="1.05901">
        <ele>757</ele>
        <time>2019-08-08T12:05:48.000Z</time>
      </trkpt>
      <trkpt lat="42.88831" lon="1.05899">
        <ele>757</ele>
        <time>2019-08-08T12:05:49.000Z</time>
      </trkpt>
      <trkpt lat="42.88826" lon="1.05897">
        <ele>757</ele>
        <time>2019-08-08T12:05:50.000Z</time>
      </trkpt>
      <trkpt lat="42.88821" lon="1.05895">
        <ele>757</ele>
        <time>2019-08-08T12:05:51.000Z</time>
      </trkpt>
      <trkpt lat="42.88816" lon="1.05894">
        <ele>757</ele>
        <time>2019-08-08T12:05:52.000Z</time>
      </trkpt>
      <trkpt lat="42.88811" lon="1.05892">
        <ele>757</ele>
        <time>2019-08-08T12:05:53.000Z</time>
      </trkpt>
      <trkpt lat="42.88806" lon="1.05892">
        <ele>757</ele>
        <time>2019-08-08T12:05:54.000Z</time>
      </trkpt>
      <trkpt lat="42.88801" lon="1.05892">
        <ele>758</ele>
        <time>2019-08-08T12:05:55.000Z</time>
      </trkpt>
      <trkpt lat="42.88796" lon="1.05892">
        <ele>758</ele>
        <time>2019-08-08T12:05:56.000Z</time>
      </trkpt>
      <trkpt lat="42.88791" lon="1.05892">
        <ele>758</ele>
        <time>2019-08-08T12:05:57.000Z</time>
      </trkpt>
      <trkpt lat="42.88786" lon="1.05893">
        <ele>758</ele>
        <time>2019-08-08T12:05:58.000Z</time>
      </trkpt>
      <trkpt lat="42.88781" lon="1.05894">
        <ele>758</ele>
        <time>2019-08-08T12:05:59.000Z</time>
      </trkpt>
      <trkpt lat="42.88777" lon="1.05896">
        <ele>758</ele>
        <time>2019-08-08T12:06:00.000Z</time>
      </trkpt>
      <trkpt lat="42.88772" lon="1.05898">
        <ele>758</ele>
        <time>2019-08-08T12:06:01.000Z</time>
      </trkpt>
      <trkpt lat="42.88768" lon="1.05901">
        <ele>758</ele>
        <time>2019-08-08T12:06:02.000Z</time>
      </trkpt>
      <trkpt lat="42.88763" lon="1.05904">
        <ele>758</ele>
        <time>2019-08-08T12:06:03.000Z</time>
      </trkpt>
      <trkpt lat="42.88759" lon="1.05906">
        <ele>758</ele>
        <time>2019-08-08T12:06:04.000Z</time>
      </trkpt>
      <trkpt lat="42.88755" lon="1.0591">
        <ele>758</ele>
        <time>2019-08-08T12:06:05.000Z</time>
      </trkpt>
      <trkpt lat="42.88751" lon="1.05914">
        <ele>758</ele>
        <time>2019-08-08T12:06:06.000Z</time>
      </trkpt>
      <trkpt lat="42.88748" lon="1.05918">
        <ele>758</ele>
        <time>2019-08-08T12:06:07.000Z</time>
      </trkpt>
      <trkpt lat="42.88744" lon="1.05922">
        <ele>759</ele>
        <time>2019-08-08T12:06:08.000Z</time>
      </trkpt>
      <trkpt lat="42.88741" lon="1.05927">
        <ele>759</ele>
        <time>2019-08-08T12:06:09.000Z</time>
      </trkpt>
      <trkpt lat="42.88738" lon="1.05932">
        <ele>760</ele>
        <time>2019-08-08T12:06:10.000Z</time>
      </trkpt>
      <trkpt lat="42.88736" lon="1.05937">
        <ele>760</ele>
        <time>2019-08-08T12:06:11.000Z</time>
      </trkpt>
      <trkpt lat="42.88733" lon="1.05942">
        <ele>760</ele>
        <time>2019-08-08T12:06:12.000Z</time>
      </trkpt>
      <trkpt lat="42.88731" lon="1.05948">
        <ele>760</ele>
        <time>2019-08-08T12:06:13.000Z</time>
      </trkpt>
      <trkpt lat="42.88729" lon="1.05953">
        <ele>761</ele>
        <time>2019-08-08T12:06:14.000Z</time>
      </trkpt>
      <trkpt lat="42.88727" lon="1.05959">
        <ele>761</ele>
        <time>2019-08-08T12:06:15.000Z</time>
      </trkpt>
      <trkpt lat="42.88725" lon="1.05965">
        <ele>761</ele>
        <time>2019-08-08T12:06:16.000Z</time>
      </trkpt>
      <trkpt lat="42.88724" lon="1.05971">
        <ele>761</ele>
        <time>2019-08-08T12:06:17.000Z</time>
      </trkpt>
      <trkpt lat="42.88723" lon="1.05978">
        <ele>761</ele>
        <time>2019-08-08T12:06:18.000Z</time>
      </trkpt>
      <trkpt lat="42.88722" lon="1.05984">
        <ele>761</ele>
        <time>2019-08-08T12:06:19.000Z</time>
      </trkpt>
      <trkpt lat="42.88722" lon="1.05991">
        <ele>761</ele>
        <time>2019-08-08T12:06:20.000Z</time>
      </trkpt>
      <trkpt lat="42.88722" lon="1.05998">
        <ele>761</ele>
        <time>2019-08-08T12:06:21.000Z</time>
      </trkpt>
      <trkpt lat="42.88722" lon="1.06005">
        <ele>762</ele>
        <time>2019-08-08T12:06:22.000Z</time>
      </trkpt>
      <trkpt lat="42.88723" lon="1.06011">
        <ele>762</ele>
        <time>2019-08-08T12:06:23.000Z</time>
      </trkpt>
      <trkpt lat="42.88724" lon="1.06018">
        <ele>762</ele>
        <time>2019-08-08T12:06:24.000Z</time>
      </trkpt>
      <trkpt lat="42.88726" lon="1.06025">
        <ele>762</ele>
        <time>2019-08-08T12:06:25.000Z</time>
      </trkpt>
      <trkpt lat="42.88727" lon="1.06031">
        <ele>762</ele>
        <time>2019-08-08T12:06:26.000Z</time>
      </trkpt>
      <trkpt lat="42.88728" lon="1.06038">
        <ele>763</ele>
        <time>2019-08-08T12:06:27.000Z</time>
      </trkpt>
      <trkpt lat="42.88728" lon="1.06045">
        <ele>763</ele>
        <time>2019-08-08T12:06:28.000Z</time>
      </trkpt>
      <trkpt lat="42.88728" lon="1.06051">
        <ele>763</ele>
        <time>2019-08-08T12:06:29.000Z</time>
      </trkpt>
      <trkpt lat="42.88728" lon="1.06058">
        <ele>764</ele>
        <time>2019-08-08T12:06:30.000Z</time>
      </trkpt>
      <trkpt lat="42.88727" lon="1.06064">
        <ele>764</ele>
        <time>2019-08-08T12:06:31.000Z</time>
      </trkpt>
      <trkpt lat="42.88726" lon="1.0607">
        <ele>765</ele>
        <time>2019-08-08T12:06:32.000Z</time>
      </trkpt>
      <trkpt lat="42.88724" lon="1.06076">
        <ele>765</ele>
        <time>2019-08-08T12:06:33.000Z</time>
      </trkpt>
      <trkpt lat="42.88721" lon="1.06082">
        <ele>765</ele>
        <time>2019-08-08T12:06:34.000Z</time>
      </trkpt>
      <trkpt lat="42.88718" lon="1.06087">
        <ele>765</ele>
        <time>2019-08-08T12:06:35.000Z</time>
      </trkpt>
      <trkpt lat="42.88715" lon="1.06091">
        <ele>765</ele>
        <time>2019-08-08T12:06:36.000Z</time>
      </trkpt>
      <trkpt lat="42.88711" lon="1.06095">
        <ele>765</ele>
        <time>2019-08-08T12:06:37.000Z</time>
      </trkpt>
      <trkpt lat="42.88708" lon="1.06099">
        <ele>765</ele>
        <time>2019-08-08T12:06:38.000Z</time>
      </trkpt>
      <trkpt lat="42.88704" lon="1.06103">
        <ele>765</ele>
        <time>2019-08-08T12:06:39.000Z</time>
      </trkpt>
      <trkpt lat="42.887" lon="1.06107">
        <ele>765</ele>
        <time>2019-08-08T12:06:40.000Z</time>
      </trkpt>
      <trkpt lat="42.88695" lon="1.06111">
        <ele>766</ele>
        <time>2019-08-08T12:06:41.000Z</time>
      </trkpt>
      <trkpt lat="42.8869" lon="1.06114">
        <ele>766</ele>
        <time>2019-08-08T12:06:42.000Z</time>
      </trkpt>
      <trkpt lat="42.88686" lon="1.06117">
        <ele>767</ele>
        <time>2019-08-08T12:06:43.000Z</time>
      </trkpt>
      <trkpt lat="42.88681" lon="1.06121">
        <ele>767</ele>
        <time>2019-08-08T12:06:44.000Z</time>
      </trkpt>
      <trkpt lat="42.88677" lon="1.06124">
        <ele>767</ele>
        <time>2019-08-08T12:06:45.000Z</time>
      </trkpt>
      <trkpt lat="42.88672" lon="1.06128">
        <ele>767</ele>
        <time>2019-08-08T12:06:46.000Z</time>
      </trkpt>
      <trkpt lat="42.88668" lon="1.06131">
        <ele>767</ele>
        <time>2019-08-08T12:06:47.000Z</time>
      </trkpt>
      <trkpt lat="42.88664" lon="1.06135">
        <ele>767</ele>
        <time>2019-08-08T12:06:48.000Z</time>
      </trkpt>
      <trkpt lat="42.8866" lon="1.0614">
        <ele>767</ele>
        <time>2019-08-08T12:06:49.000Z</time>
      </trkpt>
      <trkpt lat="42.88657" lon="1.06145">
        <ele>768</ele>
        <time>2019-08-08T12:06:50.000Z</time>
      </trkpt>
      <trkpt lat="42.88653" lon="1.0615">
        <ele>768</ele>
        <time>2019-08-08T12:06:51.000Z</time>
      </trkpt>
      <trkpt lat="42.88651" lon="1.06155">
        <ele>768</ele>
        <time>2019-08-08T12:06:52.000Z</time>
      </trkpt>
      <trkpt lat="42.88648" lon="1.06162">
        <ele>768</ele>
        <time>2019-08-08T12:06:53.000Z</time>
      </trkpt>
      <trkpt lat="42.88647" lon="1.06168">
        <ele>768</ele>
        <time>2019-08-08T12:06:54.000Z</time>
      </trkpt>
      <trkpt lat="42.88645" lon="1.06175">
        <ele>768</ele>
        <time>2019-08-08T12:06:55.000Z</time>
      </trkpt>
      <trkpt lat="42.88644" lon="1.06181">
        <ele>768</ele>
        <time>2019-08-08T12:06:56.000Z</time>
      </trkpt>
      <trkpt lat="42.88643" lon="1.06188">
        <ele>768</ele>
        <time>2019-08-08T12:06:57.000Z</time>
      </trkpt>
      <trkpt lat="42.88643" lon="1.06195">
        <ele>768</ele>
        <time>2019-08-08T12:06:58.000Z</time>
      </trkpt>
      <trkpt lat="42.88643" lon="1.06203">
        <ele>768</ele>
        <time>2019-08-08T12:06:59.000Z</time>
      </trkpt>
      <trkpt lat="42.88643" lon="1.0621">
        <ele>768</ele>
        <time>2019-08-08T12:07:00.000Z</time>
      </trkpt>
      <trkpt lat="42.88643" lon="1.06217">
        <ele>768</ele>
        <time>2019-08-08T12:07:01.000Z</time>
      </trkpt>
      <trkpt lat="42.88644" lon="1.06225">
        <ele>768</ele>
        <time>2019-08-08T12:07:02.000Z</time>
      </trkpt>
      <trkpt lat="42.88645" lon="1.06232">
        <ele>768</ele>
        <time>2019-08-08T12:07:03.000Z</time>
      </trkpt>
      <trkpt lat="42.88646" lon="1.0624">
        <ele>769</ele>
        <time>2019-08-08T12:07:04.000Z</time>
      </trkpt>
      <trkpt lat="42.88647" lon="1.06247">
        <ele>769</ele>
        <time>2019-08-08T12:07:05.000Z</time>
      </trkpt>
      <trkpt lat="42.88648" lon="1.06255">
        <ele>769</ele>
        <time>2019-08-08T12:07:06.000Z</time>
      </trkpt>
      <trkpt lat="42.88649" lon="1.06263">
        <ele>769</ele>
        <time>2019-08-08T12:07:07.000Z</time>
      </trkpt>
      <trkpt lat="42.8865" lon="1.06271">
        <ele>769</ele>
        <time>2019-08-08T12:07:08.000Z</time>
      </trkpt>
      <trkpt lat="42.88651" lon="1.06279">
        <ele>769</ele>
        <time>2019-08-08T12:07:09.000Z</time>
      </trkpt>
      <trkpt lat="42.88652" lon="1.06287">
        <ele>769</ele>
        <time>2019-08-08T12:07:10.000Z</time>
      </trkpt>
      <trkpt lat="42.88654" lon="1.06295">
        <ele>769</ele>
        <time>2019-08-08T12:07:11.000Z</time>
      </trkpt>
      <trkpt lat="42.88655" lon="1.06303">
        <ele>769</ele>
        <time>2019-08-08T12:07:12.000Z</time>
      </trkpt>
      <trkpt lat="42.88657" lon="1.06311">
        <ele>769</ele>
        <time>2019-08-08T12:07:13.000Z</time>
      </trkpt>
      <trkpt lat="42.88658" lon="1.06319">
        <ele>769</ele>
        <time>2019-08-08T12:07:14.000Z</time>
      </trkpt>
      <trkpt lat="42.88659" lon="1.06327">
        <ele>769</ele>
        <time>2019-08-08T12:07:15.000Z</time>
      </trkpt>
      <trkpt lat="42.88662" lon="1.06339">
        <ele>769</ele>
        <time>2019-08-08T12:07:16.000Z</time>
      </trkpt>
      <trkpt lat="42.88662" lon="1.06343">
        <ele>769</ele>
        <time>2019-08-08T12:07:17.000Z</time>
      </trkpt>
      <trkpt lat="42.88664" lon="1.06351">
        <ele>769</ele>
        <time>2019-08-08T12:07:18.000Z</time>
      </trkpt>
      <trkpt lat="42.88665" lon="1.06358">
        <ele>769</ele>
        <time>2019-08-08T12:07:19.000Z</time>
      </trkpt>
      <trkpt lat="42.88667" lon="1.06366">
        <ele>769</ele>
        <time>2019-08-08T12:07:20.000Z</time>
      </trkpt>
      <trkpt lat="42.88668" lon="1.06375">
        <ele>770</ele>
        <time>2019-08-08T12:07:21.000Z</time>
      </trkpt>
      <trkpt lat="42.8867" lon="1.06383">
        <ele>770</ele>
        <time>2019-08-08T12:07:22.000Z</time>
      </trkpt>
      <trkpt lat="42.88671" lon="1.06392">
        <ele>770</ele>
        <time>2019-08-08T12:07:23.000Z</time>
      </trkpt>
      <trkpt lat="42.88672" lon="1.06401">
        <ele>770</ele>
        <time>2019-08-08T12:07:24.000Z</time>
      </trkpt>
      <trkpt lat="42.88672" lon="1.06409">
        <ele>770</ele>
        <time>2019-08-08T12:07:25.000Z</time>
      </trkpt>
      <trkpt lat="42.88671" lon="1.06418">
        <ele>770</ele>
        <time>2019-08-08T12:07:26.000Z</time>
      </trkpt>
      <trkpt lat="42.88668" lon="1.06426">
        <ele>770</ele>
        <time>2019-08-08T12:07:27.000Z</time>
      </trkpt>
      <trkpt lat="42.88664" lon="1.06432">
        <ele>770</ele>
        <time>2019-08-08T12:07:28.000Z</time>
      </trkpt>
      <trkpt lat="42.88659" lon="1.06437">
        <ele>770</ele>
        <time>2019-08-08T12:07:29.000Z</time>
      </trkpt>
      <trkpt lat="42.88653" lon="1.06439">
        <ele>770</ele>
        <time>2019-08-08T12:07:30.000Z</time>
      </trkpt>
      <trkpt lat="42.88647" lon="1.06439">
        <ele>770</ele>
        <time>2019-08-08T12:07:31.000Z</time>
      </trkpt>
      <trkpt lat="42.88641" lon="1.06436">
        <ele>770</ele>
        <time>2019-08-08T12:07:32.000Z</time>
      </trkpt>
      <trkpt lat="42.88636" lon="1.06432">
        <ele>770</ele>
        <time>2019-08-08T12:07:33.000Z</time>
      </trkpt>
      <trkpt lat="42.8863" lon="1.06428">
        <ele>770</ele>
        <time>2019-08-08T12:07:34.000Z</time>
      </trkpt>
      <trkpt lat="42.88625" lon="1.06423">
        <ele>770</ele>
        <time>2019-08-08T12:07:35.000Z</time>
      </trkpt>
      <trkpt lat="42.88619" lon="1.06414">
        <ele>770</ele>
        <time>2019-08-08T12:07:36.000Z</time>
      </trkpt>
      <trkpt lat="42.88617" lon="1.06411">
        <ele>770</ele>
        <time>2019-08-08T12:07:37.000Z</time>
      </trkpt>
      <trkpt lat="42.88613" lon="1.06405">
        <ele>770</ele>
        <time>2019-08-08T12:07:38.000Z</time>
      </trkpt>
      <trkpt lat="42.88609" lon="1.064">
        <ele>770</ele>
        <time>2019-08-08T12:07:39.000Z</time>
      </trkpt>
      <trkpt lat="42.88604" lon="1.06395">
        <ele>770</ele>
        <time>2019-08-08T12:07:40.000Z</time>
      </trkpt>
      <trkpt lat="42.886" lon="1.06389">
        <ele>771</ele>
        <time>2019-08-08T12:07:41.000Z</time>
      </trkpt>
      <trkpt lat="42.88595" lon="1.06385">
        <ele>771</ele>
        <time>2019-08-08T12:07:42.000Z</time>
      </trkpt>
      <trkpt lat="42.88589" lon="1.06381">
        <ele>771</ele>
        <time>2019-08-08T12:07:43.000Z</time>
      </trkpt>
      <trkpt lat="42.88583" lon="1.06377">
        <ele>771</ele>
        <time>2019-08-08T12:07:44.000Z</time>
      </trkpt>
      <trkpt lat="42.88576" lon="1.06375">
        <ele>771</ele>
        <time>2019-08-08T12:07:45.000Z</time>
      </trkpt>
      <trkpt lat="42.8857" lon="1.06373">
        <ele>771</ele>
        <time>2019-08-08T12:07:46.000Z</time>
      </trkpt>
      <trkpt lat="42.88564" lon="1.06373">
        <ele>771</ele>
        <time>2019-08-08T12:07:47.000Z</time>
      </trkpt>
      <trkpt lat="42.88558" lon="1.06373">
        <ele>771</ele>
        <time>2019-08-08T12:07:48.000Z</time>
      </trkpt>
      <trkpt lat="42.8855" lon="1.06377">
        <ele>771</ele>
        <time>2019-08-08T12:07:49.000Z</time>
      </trkpt>
      <trkpt lat="42.88547" lon="1.06378">
        <ele>772</ele>
        <time>2019-08-08T12:07:50.000Z</time>
      </trkpt>
      <trkpt lat="42.88541" lon="1.06382">
        <ele>772</ele>
        <time>2019-08-08T12:07:51.000Z</time>
      </trkpt>
      <trkpt lat="42.88536" lon="1.06387">
        <ele>772</ele>
        <time>2019-08-08T12:07:52.000Z</time>
      </trkpt>
      <trkpt lat="42.88532" lon="1.06392">
        <ele>772</ele>
        <time>2019-08-08T12:07:53.000Z</time>
      </trkpt>
      <trkpt lat="42.88527" lon="1.06398">
        <ele>772</ele>
        <time>2019-08-08T12:07:54.000Z</time>
      </trkpt>
      <trkpt lat="42.88523" lon="1.06404">
        <ele>772</ele>
        <time>2019-08-08T12:07:55.000Z</time>
      </trkpt>
      <trkpt lat="42.88519" lon="1.0641">
        <ele>772</ele>
        <time>2019-08-08T12:07:56.000Z</time>
      </trkpt>
      <trkpt lat="42.88515" lon="1.06417">
        <ele>772</ele>
        <time>2019-08-08T12:07:57.000Z</time>
      </trkpt>
      <trkpt lat="42.88511" lon="1.06423">
        <ele>772</ele>
        <time>2019-08-08T12:07:58.000Z</time>
      </trkpt>
      <trkpt lat="42.88507" lon="1.0643">
        <ele>772</ele>
        <time>2019-08-08T12:07:59.000Z</time>
      </trkpt>
      <trkpt lat="42.88503" lon="1.06436">
        <ele>772</ele>
        <time>2019-08-08T12:08:00.000Z</time>
      </trkpt>
      <trkpt lat="42.88499" lon="1.06443">
        <ele>772</ele>
        <time>2019-08-08T12:08:01.000Z</time>
      </trkpt>
      <trkpt lat="42.88496" lon="1.06449">
        <ele>772</ele>
        <time>2019-08-08T12:08:02.000Z</time>
      </trkpt>
      <trkpt lat="42.88492" lon="1.06455">
        <ele>772</ele>
        <time>2019-08-08T12:08:03.000Z</time>
      </trkpt>
      <trkpt lat="42.88488" lon="1.06462">
        <ele>772</ele>
        <time>2019-08-08T12:08:04.000Z</time>
      </trkpt>
      <trkpt lat="42.88484" lon="1.06468">
        <ele>772</ele>
        <time>2019-08-08T12:08:05.000Z</time>
      </trkpt>
      <trkpt lat="42.8848" lon="1.06475">
        <ele>772</ele>
        <time>2019-08-08T12:08:06.000Z</time>
      </trkpt>
      <trkpt lat="42.88476" lon="1.06482">
        <ele>772</ele>
        <time>2019-08-08T12:08:07.000Z</time>
      </trkpt>
      <trkpt lat="42.88472" lon="1.06488">
        <ele>772</ele>
        <time>2019-08-08T12:08:08.000Z</time>
      </trkpt>
      <trkpt lat="42.88468" lon="1.06495">
        <ele>772</ele>
        <time>2019-08-08T12:08:09.000Z</time>
      </trkpt>
      <trkpt lat="42.88464" lon="1.06501">
        <ele>773</ele>
        <time>2019-08-08T12:08:10.000Z</time>
      </trkpt>
      <trkpt lat="42.8846" lon="1.06508">
        <ele>773</ele>
        <time>2019-08-08T12:08:11.000Z</time>
      </trkpt>
      <trkpt lat="42.88456" lon="1.06514">
        <ele>773</ele>
        <time>2019-08-08T12:08:12.000Z</time>
      </trkpt>
      <trkpt lat="42.88453" lon="1.0652">
        <ele>773</ele>
        <time>2019-08-08T12:08:13.000Z</time>
      </trkpt>
      <trkpt lat="42.88449" lon="1.06527">
        <ele>773</ele>
        <time>2019-08-08T12:08:14.000Z</time>
      </trkpt>
      <trkpt lat="42.88445" lon="1.06533">
        <ele>773</ele>
        <time>2019-08-08T12:08:15.000Z</time>
      </trkpt>
      <trkpt lat="42.88441" lon="1.06539">
        <ele>773</ele>
        <time>2019-08-08T12:08:16.000Z</time>
      </trkpt>
      <trkpt lat="42.88437" lon="1.06545">
        <ele>773</ele>
        <time>2019-08-08T12:08:17.000Z</time>
      </trkpt>
      <trkpt lat="42.88434" lon="1.06552">
        <ele>773</ele>
        <time>2019-08-08T12:08:18.000Z</time>
      </trkpt>
      <trkpt lat="42.8843" lon="1.06558">
        <ele>773</ele>
        <time>2019-08-08T12:08:19.000Z</time>
      </trkpt>
      <trkpt lat="42.88427" lon="1.06564">
        <ele>773</ele>
        <time>2019-08-08T12:08:20.000Z</time>
      </trkpt>
      <trkpt lat="42.88423" lon="1.0657">
        <ele>774</ele>
        <time>2019-08-08T12:08:21.000Z</time>
      </trkpt>
      <trkpt lat="42.88418" lon="1.06579">
        <ele>774</ele>
        <time>2019-08-08T12:08:22.000Z</time>
      </trkpt>
      <trkpt lat="42.88416" lon="1.06582">
        <ele>774</ele>
        <time>2019-08-08T12:08:23.000Z</time>
      </trkpt>
      <trkpt lat="42.88411" lon="1.06592">
        <ele>774</ele>
        <time>2019-08-08T12:08:24.000Z</time>
      </trkpt>
      <trkpt lat="42.88409" lon="1.06595">
        <ele>774</ele>
        <time>2019-08-08T12:08:25.000Z</time>
      </trkpt>
      <trkpt lat="42.88406" lon="1.06602">
        <ele>774</ele>
        <time>2019-08-08T12:08:26.000Z</time>
      </trkpt>
      <trkpt lat="42.88403" lon="1.06608">
        <ele>774</ele>
        <time>2019-08-08T12:08:27.000Z</time>
      </trkpt>
      <trkpt lat="42.88399" lon="1.06615">
        <ele>774</ele>
        <time>2019-08-08T12:08:28.000Z</time>
      </trkpt>
      <trkpt lat="42.88396" lon="1.06621">
        <ele>774</ele>
        <time>2019-08-08T12:08:29.000Z</time>
      </trkpt>
      <trkpt lat="42.88393" lon="1.06628">
        <ele>774</ele>
        <time>2019-08-08T12:08:30.000Z</time>
      </trkpt>
      <trkpt lat="42.8839" lon="1.06635">
        <ele>774</ele>
        <time>2019-08-08T12:08:31.000Z</time>
      </trkpt>
      <trkpt lat="42.88388" lon="1.06641">
        <ele>774</ele>
        <time>2019-08-08T12:08:32.000Z</time>
      </trkpt>
      <trkpt lat="42.88385" lon="1.06648">
        <ele>775</ele>
        <time>2019-08-08T12:08:33.000Z</time>
      </trkpt>
      <trkpt lat="42.88382" lon="1.06653">
        <ele>775</ele>
        <time>2019-08-08T12:08:34.000Z</time>
      </trkpt>
      <trkpt lat="42.8838" lon="1.06659">
        <ele>775</ele>
        <time>2019-08-08T12:08:35.000Z</time>
      </trkpt>
      <trkpt lat="42.88377" lon="1.06664">
        <ele>775</ele>
        <time>2019-08-08T12:08:36.000Z</time>
      </trkpt>
      <trkpt lat="42.88375" lon="1.0667">
        <ele>775</ele>
        <time>2019-08-08T12:08:37.000Z</time>
      </trkpt>
      <trkpt lat="42.88373" lon="1.06675">
        <ele>775</ele>
        <time>2019-08-08T12:08:38.000Z</time>
      </trkpt>
      <trkpt lat="42.8837" lon="1.06681">
        <ele>776</ele>
        <time>2019-08-08T12:08:39.000Z</time>
      </trkpt>
      <trkpt lat="42.88368" lon="1.06686">
        <ele>776</ele>
        <time>2019-08-08T12:08:40.000Z</time>
      </trkpt>
      <trkpt lat="42.88366" lon="1.06692">
        <ele>776</ele>
        <time>2019-08-08T12:08:41.000Z</time>
      </trkpt>
      <trkpt lat="42.88364" lon="1.06697">
        <ele>776</ele>
        <time>2019-08-08T12:08:42.000Z</time>
      </trkpt>
      <trkpt lat="42.88362" lon="1.06702">
        <ele>776</ele>
        <time>2019-08-08T12:08:43.000Z</time>
      </trkpt>
      <trkpt lat="42.8836" lon="1.06708">
        <ele>776</ele>
        <time>2019-08-08T12:08:44.000Z</time>
      </trkpt>
      <trkpt lat="42.88358" lon="1.06713">
        <ele>777</ele>
        <time>2019-08-08T12:08:45.000Z</time>
      </trkpt>
      <trkpt lat="42.88355" lon="1.06718">
        <ele>777</ele>
        <time>2019-08-08T12:08:46.000Z</time>
      </trkpt>
      <trkpt lat="42.88353" lon="1.06723">
        <ele>777</ele>
        <time>2019-08-08T12:08:47.000Z</time>
      </trkpt>
      <trkpt lat="42.88351" lon="1.06729">
        <ele>777</ele>
        <time>2019-08-08T12:08:48.000Z</time>
      </trkpt>
      <trkpt lat="42.88349" lon="1.06734">
        <ele>777</ele>
        <time>2019-08-08T12:08:49.000Z</time>
      </trkpt>
      <trkpt lat="42.88347" lon="1.06739">
        <ele>778</ele>
        <time>2019-08-08T12:08:50.000Z</time>
      </trkpt>
      <trkpt lat="42.88345" lon="1.06745">
        <ele>778</ele>
        <time>2019-08-08T12:08:51.000Z</time>
      </trkpt>
      <trkpt lat="42.88342" lon="1.0675">
        <ele>779</ele>
        <time>2019-08-08T12:08:52.000Z</time>
      </trkpt>
      <trkpt lat="42.8834" lon="1.06755">
        <ele>779</ele>
        <time>2019-08-08T12:08:53.000Z</time>
      </trkpt>
      <trkpt lat="42.88339" lon="1.06761">
        <ele>780</ele>
        <time>2019-08-08T12:08:54.000Z</time>
      </trkpt>
      <trkpt lat="42.88337" lon="1.06766">
        <ele>780</ele>
        <time>2019-08-08T12:08:55.000Z</time>
      </trkpt>
      <trkpt lat="42.88335" lon="1.06771">
        <ele>780</ele>
        <time>2019-08-08T12:08:56.000Z</time>
      </trkpt>
      <trkpt lat="42.88334" lon="1.06776">
        <ele>780</ele>
        <time>2019-08-08T12:08:57.000Z</time>
      </trkpt>
      <trkpt lat="42.88332" lon="1.06781">
        <ele>781</ele>
        <time>2019-08-08T12:08:58.000Z</time>
      </trkpt>
      <trkpt lat="42.8833" lon="1.06786">
        <ele>781</ele>
        <time>2019-08-08T12:08:59.000Z</time>
      </trkpt>
      <trkpt lat="42.88327" lon="1.06791">
        <ele>781</ele>
        <time>2019-08-08T12:09:00.000Z</time>
      </trkpt>
      <trkpt lat="42.88325" lon="1.06795">
        <ele>781</ele>
        <time>2019-08-08T12:09:01.000Z</time>
      </trkpt>
      <trkpt lat="42.88322" lon="1.06799">
        <ele>782</ele>
        <time>2019-08-08T12:09:02.000Z</time>
      </trkpt>
      <trkpt lat="42.8832" lon="1.06803">
        <ele>782</ele>
        <time>2019-08-08T12:09:03.000Z</time>
      </trkpt>
      <trkpt lat="42.88317" lon="1.06807">
        <ele>783</ele>
        <time>2019-08-08T12:09:04.000Z</time>
      </trkpt>
      <trkpt lat="42.88315" lon="1.0681">
        <ele>783</ele>
        <time>2019-08-08T12:09:05.000Z</time>
      </trkpt>
      <trkpt lat="42.88311" lon="1.06813">
        <ele>783</ele>
        <time>2019-08-08T12:09:06.000Z</time>
      </trkpt>
      <trkpt lat="42.88308" lon="1.06815">
        <ele>784</ele>
        <time>2019-08-08T12:09:07.000Z</time>
      </trkpt>
      <trkpt lat="42.88305" lon="1.06817">
        <ele>784</ele>
        <time>2019-08-08T12:09:08.000Z</time>
      </trkpt>
      <trkpt lat="42.883" lon="1.06818">
        <ele>784</ele>
        <time>2019-08-08T12:09:09.000Z</time>
      </trkpt>
      <trkpt lat="42.88296" lon="1.0682">
        <ele>784</ele>
        <time>2019-08-08T12:09:10.000Z</time>
      </trkpt>
      <trkpt lat="42.88292" lon="1.06822">
        <ele>784</ele>
        <time>2019-08-08T12:09:11.000Z</time>
      </trkpt>
      <trkpt lat="42.88288" lon="1.06823">
        <ele>784</ele>
        <time>2019-08-08T12:09:12.000Z</time>
      </trkpt>
      <trkpt lat="42.88284" lon="1.06825">
        <ele>784</ele>
        <time>2019-08-08T12:09:13.000Z</time>
      </trkpt>
      <trkpt lat="42.8828" lon="1.06826">
        <ele>784</ele>
        <time>2019-08-08T12:09:14.000Z</time>
      </trkpt>
      <trkpt lat="42.88277" lon="1.06828">
        <ele>785</ele>
        <time>2019-08-08T12:09:15.000Z</time>
      </trkpt>
      <trkpt lat="42.88273" lon="1.06829">
        <ele>785</ele>
        <time>2019-08-08T12:09:16.000Z</time>
      </trkpt>
      <trkpt lat="42.88269" lon="1.0683">
        <ele>785</ele>
        <time>2019-08-08T12:09:17.000Z</time>
      </trkpt>
      <trkpt lat="42.88266" lon="1.06831">
        <ele>786</ele>
        <time>2019-08-08T12:09:18.000Z</time>
      </trkpt>
      <trkpt lat="42.88262" lon="1.06833">
        <ele>786</ele>
        <time>2019-08-08T12:09:19.000Z</time>
      </trkpt>
      <trkpt lat="42.88259" lon="1.06835">
        <ele>786</ele>
        <time>2019-08-08T12:09:20.000Z</time>
      </trkpt>
      <trkpt lat="42.88255" lon="1.06836">
        <ele>786</ele>
        <time>2019-08-08T12:09:21.000Z</time>
      </trkpt>
      <trkpt lat="42.88252" lon="1.06838">
        <ele>786</ele>
        <time>2019-08-08T12:09:22.000Z</time>
      </trkpt>
      <trkpt lat="42.88248" lon="1.0684">
        <ele>786</ele>
        <time>2019-08-08T12:09:23.000Z</time>
      </trkpt>
      <trkpt lat="42.88245" lon="1.06841">
        <ele>787</ele>
        <time>2019-08-08T12:09:24.000Z</time>
      </trkpt>
      <trkpt lat="42.8824" lon="1.06844">
        <ele>787</ele>
        <time>2019-08-08T12:09:25.000Z</time>
      </trkpt>
      <trkpt lat="42.88238" lon="1.06845">
        <ele>787</ele>
        <time>2019-08-08T12:09:26.000Z</time>
      </trkpt>
      <trkpt lat="42.88235" lon="1.06847">
        <ele>787</ele>
        <time>2019-08-08T12:09:27.000Z</time>
      </trkpt>
      <trkpt lat="42.8823" lon="1.0685">
        <ele>787</ele>
        <time>2019-08-08T12:09:28.000Z</time>
      </trkpt>
      <trkpt lat="42.88228" lon="1.06851">
        <ele>787</ele>
        <time>2019-08-08T12:09:29.000Z</time>
      </trkpt>
      <trkpt lat="42.88225" lon="1.06853">
        <ele>787</ele>
        <time>2019-08-08T12:09:30.000Z</time>
      </trkpt>
      <trkpt lat="42.88222" lon="1.06855">
        <ele>788</ele>
        <time>2019-08-08T12:09:31.000Z</time>
      </trkpt>
      <trkpt lat="42.88218" lon="1.06857">
        <ele>788</ele>
        <time>2019-08-08T12:09:32.000Z</time>
      </trkpt>
      <trkpt lat="42.88215" lon="1.0686">
        <ele>789</ele>
        <time>2019-08-08T12:09:33.000Z</time>
      </trkpt>
      <trkpt lat="42.88212" lon="1.06862">
        <ele>789</ele>
        <time>2019-08-08T12:09:34.000Z</time>
      </trkpt>
      <trkpt lat="42.88209" lon="1.06864">
        <ele>789</ele>
        <time>2019-08-08T12:09:35.000Z</time>
      </trkpt>
      <trkpt lat="42.88206" lon="1.06867">
        <ele>789</ele>
        <time>2019-08-08T12:09:36.000Z</time>
      </trkpt>
      <trkpt lat="42.88203" lon="1.06869">
        <ele>790</ele>
        <time>2019-08-08T12:09:37.000Z</time>
      </trkpt>
      <trkpt lat="42.882" lon="1.06871">
        <ele>790</ele>
        <time>2019-08-08T12:09:38.000Z</time>
      </trkpt>
      <trkpt lat="42.88197" lon="1.06873">
        <ele>790</ele>
        <time>2019-08-08T12:09:39.000Z</time>
      </trkpt>
      <trkpt lat="42.88193" lon="1.06875">
        <ele>790</ele>
        <time>2019-08-08T12:09:40.000Z</time>
      </trkpt>
      <trkpt lat="42.8819" lon="1.06877">
        <ele>790</ele>
        <time>2019-08-08T12:09:41.000Z</time>
      </trkpt>
      <trkpt lat="42.88187" lon="1.06879">
        <ele>790</ele>
        <time>2019-08-08T12:09:42.000Z</time>
      </trkpt>
      <trkpt lat="42.88184" lon="1.06881">
        <ele>791</ele>
        <time>2019-08-08T12:09:43.000Z</time>
      </trkpt>
      <trkpt lat="42.8818" lon="1.06883">
        <ele>791</ele>
        <time>2019-08-08T12:09:44.000Z</time>
      </trkpt>
      <trkpt lat="42.88177" lon="1.06885">
        <ele>791</ele>
        <time>2019-08-08T12:09:45.000Z</time>
      </trkpt>
      <trkpt lat="42.88174" lon="1.06887">
        <ele>791</ele>
        <time>2019-08-08T12:09:46.000Z</time>
      </trkpt>
      <trkpt lat="42.88171" lon="1.06889">
        <ele>791</ele>
        <time>2019-08-08T12:09:47.000Z</time>
      </trkpt>
      <trkpt lat="42.88167" lon="1.06892">
        <ele>793</ele>
        <time>2019-08-08T12:09:48.000Z</time>
      </trkpt>
      <trkpt lat="42.88164" lon="1.06894">
        <ele>793</ele>
        <time>2019-08-08T12:09:49.000Z</time>
      </trkpt>
      <trkpt lat="42.88161" lon="1.06897">
        <ele>793</ele>
        <time>2019-08-08T12:09:50.000Z</time>
      </trkpt>
      <trkpt lat="42.88159" lon="1.069">
        <ele>793</ele>
        <time>2019-08-08T12:09:51.000Z</time>
      </trkpt>
      <trkpt lat="42.88156" lon="1.06903">
        <ele>793</ele>
        <time>2019-08-08T12:09:52.000Z</time>
      </trkpt>
      <trkpt lat="42.88154" lon="1.06907">
        <ele>793</ele>
        <time>2019-08-08T12:09:53.000Z</time>
      </trkpt>
      <trkpt lat="42.88152" lon="1.06911">
        <ele>793</ele>
        <time>2019-08-08T12:09:54.000Z</time>
      </trkpt>
      <trkpt lat="42.8815" lon="1.06915">
        <ele>793</ele>
        <time>2019-08-08T12:09:55.000Z</time>
      </trkpt>
      <trkpt lat="42.88149" lon="1.06919">
        <ele>793</ele>
        <time>2019-08-08T12:09:56.000Z</time>
      </trkpt>
      <trkpt lat="42.88148" lon="1.06923">
        <ele>793</ele>
        <time>2019-08-08T12:09:57.000Z</time>
      </trkpt>
      <trkpt lat="42.88147" lon="1.06928">
        <ele>794</ele>
        <time>2019-08-08T12:09:58.000Z</time>
      </trkpt>
      <trkpt lat="42.88146" lon="1.06933">
        <ele>794</ele>
        <time>2019-08-08T12:09:59.000Z</time>
      </trkpt>
      <trkpt lat="42.88147" lon="1.06937">
        <ele>795</ele>
        <time>2019-08-08T12:10:00.000Z</time>
      </trkpt>
      <trkpt lat="42.88147" lon="1.06942">
        <ele>795</ele>
        <time>2019-08-08T12:10:01.000Z</time>
      </trkpt>
      <trkpt lat="42.88148" lon="1.06949">
        <ele>795</ele>
        <time>2019-08-08T12:10:02.000Z</time>
      </trkpt>
      <trkpt lat="42.88149" lon="1.06951">
        <ele>795</ele>
        <time>2019-08-08T12:10:03.000Z</time>
      </trkpt>
      <trkpt lat="42.8815" lon="1.06956">
        <ele>795</ele>
        <time>2019-08-08T12:10:04.000Z</time>
      </trkpt>
      <trkpt lat="42.88151" lon="1.0696">
        <ele>796</ele>
        <time>2019-08-08T12:10:05.000Z</time>
      </trkpt>
      <trkpt lat="42.88153" lon="1.06964">
        <ele>796</ele>
        <time>2019-08-08T12:10:06.000Z</time>
      </trkpt>
      <trkpt lat="42.88155" lon="1.06968">
        <ele>797</ele>
        <time>2019-08-08T12:10:07.000Z</time>
      </trkpt>
      <trkpt lat="42.88158" lon="1.06971">
        <ele>797</ele>
        <time>2019-08-08T12:10:08.000Z</time>
      </trkpt>
      <trkpt lat="42.88161" lon="1.06975">
        <ele>798</ele>
        <time>2019-08-08T12:10:09.000Z</time>
      </trkpt>
      <trkpt lat="42.88164" lon="1.06978">
        <ele>798</ele>
        <time>2019-08-08T12:10:10.000Z</time>
      </trkpt>
      <trkpt lat="42.88167" lon="1.0698">
        <ele>798</ele>
        <time>2019-08-08T12:10:11.000Z</time>
      </trkpt>
      <trkpt lat="42.8817" lon="1.06983">
        <ele>798</ele>
        <time>2019-08-08T12:10:12.000Z</time>
      </trkpt>
      <trkpt lat="42.88174" lon="1.06984">
        <ele>798</ele>
        <time>2019-08-08T12:10:13.000Z</time>
      </trkpt>
      <trkpt lat="42.88177" lon="1.06986">
        <ele>798</ele>
        <time>2019-08-08T12:10:14.000Z</time>
      </trkpt>
      <trkpt lat="42.8818" lon="1.06987">
        <ele>798</ele>
        <time>2019-08-08T12:10:15.000Z</time>
      </trkpt>
      <trkpt lat="42.88184" lon="1.06989">
        <ele>798</ele>
        <time>2019-08-08T12:10:16.000Z</time>
      </trkpt>
      <trkpt lat="42.88187" lon="1.06991">
        <ele>799</ele>
        <time>2019-08-08T12:10:17.000Z</time>
      </trkpt>
      <trkpt lat="42.88191" lon="1.06993">
        <ele>799</ele>
        <time>2019-08-08T12:10:18.000Z</time>
      </trkpt>
      <trkpt lat="42.88194" lon="1.06995">
        <ele>799</ele>
        <time>2019-08-08T12:10:19.000Z</time>
      </trkpt>
      <trkpt lat="42.88197" lon="1.06998">
        <ele>799</ele>
        <time>2019-08-08T12:10:20.000Z</time>
      </trkpt>
      <trkpt lat="42.88199" lon="1.07001">
        <ele>799</ele>
        <time>2019-08-08T12:10:21.000Z</time>
      </trkpt>
      <trkpt lat="42.88201" lon="1.07005">
        <ele>799</ele>
        <time>2019-08-08T12:10:22.000Z</time>
      </trkpt>
      <trkpt lat="42.88202" lon="1.0701">
        <ele>799</ele>
        <time>2019-08-08T12:10:23.000Z</time>
      </trkpt>
      <trkpt lat="42.88203" lon="1.07014">
        <ele>799</ele>
        <time>2019-08-08T12:10:24.000Z</time>
      </trkpt>
      <trkpt lat="42.88203" lon="1.07019">
        <ele>799</ele>
        <time>2019-08-08T12:10:25.000Z</time>
      </trkpt>
      <trkpt lat="42.88202" lon="1.07024">
        <ele>800</ele>
        <time>2019-08-08T12:10:26.000Z</time>
      </trkpt>
      <trkpt lat="42.88201" lon="1.07028">
        <ele>800</ele>
        <time>2019-08-08T12:10:27.000Z</time>
      </trkpt>
      <trkpt lat="42.88199" lon="1.07031">
        <ele>801</ele>
        <time>2019-08-08T12:10:28.000Z</time>
      </trkpt>
      <trkpt lat="42.88197" lon="1.07034">
        <ele>801</ele>
        <time>2019-08-08T12:10:29.000Z</time>
      </trkpt>
      <trkpt lat="42.88195" lon="1.07037">
        <ele>801</ele>
        <time>2019-08-08T12:10:30.000Z</time>
      </trkpt>
      <trkpt lat="42.88193" lon="1.0704">
        <ele>801</ele>
        <time>2019-08-08T12:10:31.000Z</time>
      </trkpt>
      <trkpt lat="42.88191" lon="1.07043">
        <ele>802</ele>
        <time>2019-08-08T12:10:32.000Z</time>
      </trkpt>
      <trkpt lat="42.88188" lon="1.07045">
        <ele>802</ele>
        <time>2019-08-08T12:10:33.000Z</time>
      </trkpt>
      <trkpt lat="42.88185" lon="1.07048">
        <ele>802</ele>
        <time>2019-08-08T12:10:34.000Z</time>
      </trkpt>
      <trkpt lat="42.88182" lon="1.0705">
        <ele>802</ele>
        <time>2019-08-08T12:10:35.000Z</time>
      </trkpt>
      <trkpt lat="42.88179" lon="1.07052">
        <ele>802</ele>
        <time>2019-08-08T12:10:36.000Z</time>
      </trkpt>
      <trkpt lat="42.88176" lon="1.07053">
        <ele>802</ele>
        <time>2019-08-08T12:10:37.000Z</time>
      </trkpt>
      <trkpt lat="42.88173" lon="1.07055">
        <ele>802</ele>
        <time>2019-08-08T12:10:38.000Z</time>
      </trkpt>
      <trkpt lat="42.8817" lon="1.07057">
        <ele>803</ele>
        <time>2019-08-08T12:10:39.000Z</time>
      </trkpt>
      <trkpt lat="42.88167" lon="1.07059">
        <ele>803</ele>
        <time>2019-08-08T12:10:40.000Z</time>
      </trkpt>
      <trkpt lat="42.88164" lon="1.07061">
        <ele>803</ele>
        <time>2019-08-08T12:10:41.000Z</time>
      </trkpt>
      <trkpt lat="42.88162" lon="1.07063">
        <ele>803</ele>
        <time>2019-08-08T12:10:42.000Z</time>
      </trkpt>
      <trkpt lat="42.88159" lon="1.07066">
        <ele>805</ele>
        <time>2019-08-08T12:10:43.000Z</time>
      </trkpt>
      <trkpt lat="42.88156" lon="1.07068">
        <ele>805</ele>
        <time>2019-08-08T12:10:44.000Z</time>
      </trkpt>
      <trkpt lat="42.88154" lon="1.07071">
        <ele>805</ele>
        <time>2019-08-08T12:10:45.000Z</time>
      </trkpt>
      <trkpt lat="42.88151" lon="1.07073">
        <ele>805</ele>
        <time>2019-08-08T12:10:46.000Z</time>
      </trkpt>
      <trkpt lat="42.88149" lon="1.07076">
        <ele>806</ele>
        <time>2019-08-08T12:10:47.000Z</time>
      </trkpt>
      <trkpt lat="42.88147" lon="1.0708">
        <ele>806</ele>
        <time>2019-08-08T12:10:48.000Z</time>
      </trkpt>
      <trkpt lat="42.88145" lon="1.07084">
        <ele>806</ele>
        <time>2019-08-08T12:10:49.000Z</time>
      </trkpt>
      <trkpt lat="42.88143" lon="1.07087">
        <ele>806</ele>
        <time>2019-08-08T12:10:50.000Z</time>
      </trkpt>
      <trkpt lat="42.88139" lon="1.07092">
        <ele>806</ele>
        <time>2019-08-08T12:10:51.000Z</time>
      </trkpt>
      <trkpt lat="42.88139" lon="1.07094">
        <ele>806</ele>
        <time>2019-08-08T12:10:52.000Z</time>
      </trkpt>
      <trkpt lat="42.88137" lon="1.07098">
        <ele>806</ele>
        <time>2019-08-08T12:10:53.000Z</time>
      </trkpt>
      <trkpt lat="42.88135" lon="1.07102">
        <ele>806</ele>
        <time>2019-08-08T12:10:54.000Z</time>
      </trkpt>
      <trkpt lat="42.88133" lon="1.07105">
        <ele>807</ele>
        <time>2019-08-08T12:10:55.000Z</time>
      </trkpt>
      <trkpt lat="42.88131" lon="1.07109">
        <ele>807</ele>
        <time>2019-08-08T12:10:56.000Z</time>
      </trkpt>
      <trkpt lat="42.88129" lon="1.07112">
        <ele>807</ele>
        <time>2019-08-08T12:10:57.000Z</time>
      </trkpt>
      <trkpt lat="42.88127" lon="1.07115">
        <ele>807</ele>
        <time>2019-08-08T12:10:58.000Z</time>
      </trkpt>
      <trkpt lat="42.88124" lon="1.07117">
        <ele>808</ele>
        <time>2019-08-08T12:10:59.000Z</time>
      </trkpt>
      <trkpt lat="42.88121" lon="1.07119">
        <ele>808</ele>
        <time>2019-08-08T12:11:00.000Z</time>
      </trkpt>
      <trkpt lat="42.88118" lon="1.07121">
        <ele>808</ele>
        <time>2019-08-08T12:11:01.000Z</time>
      </trkpt>
      <trkpt lat="42.88115" lon="1.07122">
        <ele>808</ele>
        <time>2019-08-08T12:11:02.000Z</time>
      </trkpt>
      <trkpt lat="42.88111" lon="1.07123">
        <ele>808</ele>
        <time>2019-08-08T12:11:03.000Z</time>
      </trkpt>
      <trkpt lat="42.8811" lon="1.07123">
        <ele>808</ele>
        <time>2019-08-08T12:11:04.000Z</time>
      </trkpt>
      <trkpt lat="42.88109" lon="1.07123">
        <ele>808</ele>
        <time>2019-08-08T12:11:05.000Z</time>
      </trkpt>
      <trkpt lat="42.88107" lon="1.07123">
        <ele>808</ele>
        <time>2019-08-08T12:11:06.000Z</time>
      </trkpt>
      <trkpt lat="42.88102" lon="1.07124">
        <ele>809</ele>
        <time>2019-08-08T12:11:07.000Z</time>
      </trkpt>
      <trkpt lat="42.88102" lon="1.07124">
        <ele>810</ele>
        <time>2019-08-08T12:11:08.000Z</time>
      </trkpt>
      <trkpt lat="42.88102" lon="1.07124">
        <ele>810</ele>
        <time>2019-08-08T12:11:09.000Z</time>
      </trkpt>
      <trkpt lat="42.88092" lon="1.07123">
        <ele>810</ele>
        <time>2019-08-08T12:11:10.000Z</time>
      </trkpt>
      <trkpt lat="42.88088" lon="1.07122">
        <ele>810</ele>
        <time>2019-08-08T12:11:11.000Z</time>
      </trkpt>
      <trkpt lat="42.88085" lon="1.07121">
        <ele>810</ele>
        <time>2019-08-08T12:11:12.000Z</time>
      </trkpt>
      <trkpt lat="42.88082" lon="1.07121">
        <ele>810</ele>
        <time>2019-08-08T12:11:13.000Z</time>
      </trkpt>
      <trkpt lat="42.88079" lon="1.0712">
        <ele>811</ele>
        <time>2019-08-08T12:11:14.000Z</time>
      </trkpt>
      <trkpt lat="42.88077" lon="1.0712">
        <ele>811</ele>
        <time>2019-08-08T12:11:15.000Z</time>
      </trkpt>
      <trkpt lat="42.88074" lon="1.07121">
        <ele>811</ele>
        <time>2019-08-08T12:11:16.000Z</time>
      </trkpt>
      <trkpt lat="42.8807" lon="1.07121">
        <ele>811</ele>
        <time>2019-08-08T12:11:17.000Z</time>
      </trkpt>
      <trkpt lat="42.88066" lon="1.07123">
        <ele>811</ele>
        <time>2019-08-08T12:11:18.000Z</time>
      </trkpt>
      <trkpt lat="42.88064" lon="1.07123">
        <ele>811</ele>
        <time>2019-08-08T12:11:19.000Z</time>
      </trkpt>
      <trkpt lat="42.88061" lon="1.07124">
        <ele>811</ele>
        <time>2019-08-08T12:11:20.000Z</time>
      </trkpt>
      <trkpt lat="42.88058" lon="1.07125">
        <ele>811</ele>
        <time>2019-08-08T12:11:21.000Z</time>
      </trkpt>
      <trkpt lat="42.88055" lon="1.07127">
        <ele>811</ele>
        <time>2019-08-08T12:11:22.000Z</time>
      </trkpt>
      <trkpt lat="42.88052" lon="1.07128">
        <ele>811</ele>
        <time>2019-08-08T12:11:23.000Z</time>
      </trkpt>
      <trkpt lat="42.88047" lon="1.07129">
        <ele>812</ele>
        <time>2019-08-08T12:11:24.000Z</time>
      </trkpt>
      <trkpt lat="42.88045" lon="1.07129">
        <ele>812</ele>
        <time>2019-08-08T12:11:25.000Z</time>
      </trkpt>
      <trkpt lat="42.88041" lon="1.0713">
        <ele>812</ele>
        <time>2019-08-08T12:11:26.000Z</time>
      </trkpt>
      <trkpt lat="42.88038" lon="1.0713">
        <ele>813</ele>
        <time>2019-08-08T12:11:27.000Z</time>
      </trkpt>
      <trkpt lat="42.88035" lon="1.0713">
        <ele>813</ele>
        <time>2019-08-08T12:11:28.000Z</time>
      </trkpt>
      <trkpt lat="42.88032" lon="1.07129">
        <ele>814</ele>
        <time>2019-08-08T12:11:29.000Z</time>
      </trkpt>
      <trkpt lat="42.88029" lon="1.07128">
        <ele>814</ele>
        <time>2019-08-08T12:11:30.000Z</time>
      </trkpt>
      <trkpt lat="42.88026" lon="1.07127">
        <ele>814</ele>
        <time>2019-08-08T12:11:31.000Z</time>
      </trkpt>
      <trkpt lat="42.88024" lon="1.07126">
        <ele>814</ele>
        <time>2019-08-08T12:11:32.000Z</time>
      </trkpt>
      <trkpt lat="42.88023" lon="1.07124">
        <ele>814</ele>
        <time>2019-08-08T12:11:33.000Z</time>
      </trkpt>
      <trkpt lat="42.88023" lon="1.07124">
        <ele>814</ele>
        <time>2019-08-08T12:11:34.000Z</time>
      </trkpt>
      <trkpt lat="42.88021" lon="1.07121">
        <ele>815</ele>
        <time>2019-08-08T12:11:35.000Z</time>
      </trkpt>
      <trkpt lat="42.88018" lon="1.07117">
        <ele>815</ele>
        <time>2019-08-08T12:11:36.000Z</time>
      </trkpt>
      <trkpt lat="42.88017" lon="1.07115">
        <ele>816</ele>
        <time>2019-08-08T12:11:37.000Z</time>
      </trkpt>
      <trkpt lat="42.88016" lon="1.07113">
        <ele>816</ele>
        <time>2019-08-08T12:11:38.000Z</time>
      </trkpt>
      <trkpt lat="42.88016" lon="1.07112">
        <ele>816</ele>
        <time>2019-08-08T12:11:39.000Z</time>
      </trkpt>
      <trkpt lat="42.88012" lon="1.07105">
        <ele>816</ele>
        <time>2019-08-08T12:11:40.000Z</time>
      </trkpt>
      <trkpt lat="42.88012" lon="1.07105">
        <ele>816</ele>
        <time>2019-08-08T12:11:41.000Z</time>
      </trkpt>
      <trkpt lat="42.88012" lon="1.07105">
        <ele>816</ele>
        <time>2019-08-08T12:11:42.000Z</time>
      </trkpt>
      <trkpt lat="42.88004" lon="1.07096">
        <ele>816</ele>
        <time>2019-08-08T12:11:43.000Z</time>
      </trkpt>
      <trkpt lat="42.88" lon="1.07094">
        <ele>817</ele>
        <time>2019-08-08T12:11:44.000Z</time>
      </trkpt>
      <trkpt lat="42.87997" lon="1.07092">
        <ele>817</ele>
        <time>2019-08-08T12:11:45.000Z</time>
      </trkpt>
      <trkpt lat="42.87993" lon="1.0709">
        <ele>818</ele>
        <time>2019-08-08T12:11:46.000Z</time>
      </trkpt>
      <trkpt lat="42.8799" lon="1.07089">
        <ele>818</ele>
        <time>2019-08-08T12:11:47.000Z</time>
      </trkpt>
      <trkpt lat="42.87987" lon="1.07089">
        <ele>819</ele>
        <time>2019-08-08T12:11:48.000Z</time>
      </trkpt>
      <trkpt lat="42.87984" lon="1.07089">
        <ele>819</ele>
        <time>2019-08-08T12:11:49.000Z</time>
      </trkpt>
      <trkpt lat="42.8798" lon="1.0709">
        <ele>819</ele>
        <time>2019-08-08T12:11:50.000Z</time>
      </trkpt>
      <trkpt lat="42.87977" lon="1.07091">
        <ele>819</ele>
        <time>2019-08-08T12:11:51.000Z</time>
      </trkpt>
      <trkpt lat="42.87974" lon="1.07092">
        <ele>819</ele>
        <time>2019-08-08T12:11:52.000Z</time>
      </trkpt>
      <trkpt lat="42.87971" lon="1.07095">
        <ele>819</ele>
        <time>2019-08-08T12:11:53.000Z</time>
      </trkpt>
      <trkpt lat="42.87968" lon="1.07098">
        <ele>820</ele>
        <time>2019-08-08T12:11:54.000Z</time>
      </trkpt>
      <trkpt lat="42.87965" lon="1.07101">
        <ele>820</ele>
        <time>2019-08-08T12:11:55.000Z</time>
      </trkpt>
      <trkpt lat="42.87962" lon="1.07104">
        <ele>820</ele>
        <time>2019-08-08T12:11:56.000Z</time>
      </trkpt>
      <trkpt lat="42.87959" lon="1.07106">
        <ele>820</ele>
        <time>2019-08-08T12:11:57.000Z</time>
      </trkpt>
      <trkpt lat="42.87956" lon="1.07109">
        <ele>820</ele>
        <time>2019-08-08T12:11:58.000Z</time>
      </trkpt>
      <trkpt lat="42.87953" lon="1.07112">
        <ele>820</ele>
        <time>2019-08-08T12:11:59.000Z</time>
      </trkpt>
      <trkpt lat="42.8795" lon="1.07114">
        <ele>820</ele>
        <time>2019-08-08T12:12:00.000Z</time>
      </trkpt>
      <trkpt lat="42.87948" lon="1.07117">
        <ele>820</ele>
        <time>2019-08-08T12:12:01.000Z</time>
      </trkpt>
      <trkpt lat="42.87946" lon="1.0712">
        <ele>820</ele>
        <time>2019-08-08T12:12:02.000Z</time>
      </trkpt>
      <trkpt lat="42.87943" lon="1.07124">
        <ele>820</ele>
        <time>2019-08-08T12:12:03.000Z</time>
      </trkpt>
      <trkpt lat="42.87941" lon="1.07127">
        <ele>821</ele>
        <time>2019-08-08T12:12:04.000Z</time>
      </trkpt>
      <trkpt lat="42.87938" lon="1.0713">
        <ele>821</ele>
        <time>2019-08-08T12:12:05.000Z</time>
      </trkpt>
      <trkpt lat="42.87935" lon="1.07133">
        <ele>821</ele>
        <time>2019-08-08T12:12:06.000Z</time>
      </trkpt>
      <trkpt lat="42.87933" lon="1.07136">
        <ele>821</ele>
        <time>2019-08-08T12:12:07.000Z</time>
      </trkpt>
      <trkpt lat="42.87931" lon="1.07139">
        <ele>822</ele>
        <time>2019-08-08T12:12:08.000Z</time>
      </trkpt>
      <trkpt lat="42.87928" lon="1.07143">
        <ele>822</ele>
        <time>2019-08-08T12:12:09.000Z</time>
      </trkpt>
      <trkpt lat="42.87926" lon="1.07147">
        <ele>822</ele>
        <time>2019-08-08T12:12:10.000Z</time>
      </trkpt>
      <trkpt lat="42.87924" lon="1.07151">
        <ele>822</ele>
        <time>2019-08-08T12:12:11.000Z</time>
      </trkpt>
      <trkpt lat="42.87922" lon="1.07155">
        <ele>823</ele>
        <time>2019-08-08T12:12:12.000Z</time>
      </trkpt>
      <trkpt lat="42.8792" lon="1.07159">
        <ele>823</ele>
        <time>2019-08-08T12:12:13.000Z</time>
      </trkpt>
      <trkpt lat="42.87918" lon="1.07163">
        <ele>823</ele>
        <time>2019-08-08T12:12:14.000Z</time>
      </trkpt>
      <trkpt lat="42.87916" lon="1.07167">
        <ele>823</ele>
        <time>2019-08-08T12:12:15.000Z</time>
      </trkpt>
      <trkpt lat="42.87914" lon="1.07172">
        <ele>823</ele>
        <time>2019-08-08T12:12:16.000Z</time>
      </trkpt>
      <trkpt lat="42.87912" lon="1.07176">
        <ele>823</ele>
        <time>2019-08-08T12:12:17.000Z</time>
      </trkpt>
      <trkpt lat="42.8791" lon="1.0718">
        <ele>823</ele>
        <time>2019-08-08T12:12:18.000Z</time>
      </trkpt>
      <trkpt lat="42.87908" lon="1.07184">
        <ele>823</ele>
        <time>2019-08-08T12:12:19.000Z</time>
      </trkpt>
      <trkpt lat="42.87906" lon="1.07188">
        <ele>823</ele>
        <time>2019-08-08T12:12:20.000Z</time>
      </trkpt>
      <trkpt lat="42.87904" lon="1.07192">
        <ele>825</ele>
        <time>2019-08-08T12:12:21.000Z</time>
      </trkpt>
      <trkpt lat="42.87902" lon="1.07196">
        <ele>825</ele>
        <time>2019-08-08T12:12:22.000Z</time>
      </trkpt>
      <trkpt lat="42.879" lon="1.07199">
        <ele>825</ele>
        <time>2019-08-08T12:12:23.000Z</time>
      </trkpt>
      <trkpt lat="42.87898" lon="1.07203">
        <ele>825</ele>
        <time>2019-08-08T12:12:24.000Z</time>
      </trkpt>
      <trkpt lat="42.87896" lon="1.07207">
        <ele>825</ele>
        <time>2019-08-08T12:12:25.000Z</time>
      </trkpt>
      <trkpt lat="42.87894" lon="1.0721">
        <ele>825</ele>
        <time>2019-08-08T12:12:26.000Z</time>
      </trkpt>
      <trkpt lat="42.87892" lon="1.07214">
        <ele>825</ele>
        <time>2019-08-08T12:12:27.000Z</time>
      </trkpt>
      <trkpt lat="42.8789" lon="1.07217">
        <ele>825</ele>
        <time>2019-08-08T12:12:28.000Z</time>
      </trkpt>
      <trkpt lat="42.87887" lon="1.07221">
        <ele>826</ele>
        <time>2019-08-08T12:12:29.000Z</time>
      </trkpt>
      <trkpt lat="42.87885" lon="1.07224">
        <ele>826</ele>
        <time>2019-08-08T12:12:30.000Z</time>
      </trkpt>
      <trkpt lat="42.87883" lon="1.07228">
        <ele>827</ele>
        <time>2019-08-08T12:12:31.000Z</time>
      </trkpt>
      <trkpt lat="42.87881" lon="1.07232">
        <ele>827</ele>
        <time>2019-08-08T12:12:32.000Z</time>
      </trkpt>
      <trkpt lat="42.87879" lon="1.07235">
        <ele>827</ele>
        <time>2019-08-08T12:12:33.000Z</time>
      </trkpt>
      <trkpt lat="42.87877" lon="1.07238">
        <ele>827</ele>
        <time>2019-08-08T12:12:34.000Z</time>
      </trkpt>
      <trkpt lat="42.87874" lon="1.07242">
        <ele>828</ele>
        <time>2019-08-08T12:12:35.000Z</time>
      </trkpt>
      <trkpt lat="42.87872" lon="1.07245">
        <ele>828</ele>
        <time>2019-08-08T12:12:36.000Z</time>
      </trkpt>
      <trkpt lat="42.87869" lon="1.07249">
        <ele>828</ele>
        <time>2019-08-08T12:12:37.000Z</time>
      </trkpt>
      <trkpt lat="42.87867" lon="1.07252">
        <ele>829</ele>
        <time>2019-08-08T12:12:38.000Z</time>
      </trkpt>
      <trkpt lat="42.87865" lon="1.07256">
        <ele>829</ele>
        <time>2019-08-08T12:12:39.000Z</time>
      </trkpt>
      <trkpt lat="42.87863" lon="1.0726">
        <ele>829</ele>
        <time>2019-08-08T12:12:40.000Z</time>
      </trkpt>
      <trkpt lat="42.87861" lon="1.07263">
        <ele>829</ele>
        <time>2019-08-08T12:12:41.000Z</time>
      </trkpt>
      <trkpt lat="42.87859" lon="1.07267">
        <ele>829</ele>
        <time>2019-08-08T12:12:42.000Z</time>
      </trkpt>
      <trkpt lat="42.87856" lon="1.07271">
        <ele>829</ele>
        <time>2019-08-08T12:12:43.000Z</time>
      </trkpt>
      <trkpt lat="42.87854" lon="1.07275">
        <ele>829</ele>
        <time>2019-08-08T12:12:44.000Z</time>
      </trkpt>
      <trkpt lat="42.87852" lon="1.07279">
        <ele>829</ele>
        <time>2019-08-08T12:12:45.000Z</time>
      </trkpt>
      <trkpt lat="42.8785" lon="1.07283">
        <ele>830</ele>
        <time>2019-08-08T12:12:46.000Z</time>
      </trkpt>
      <trkpt lat="42.87848" lon="1.07287">
        <ele>830</ele>
        <time>2019-08-08T12:12:47.000Z</time>
      </trkpt>
      <trkpt lat="42.87847" lon="1.07291">
        <ele>830</ele>
        <time>2019-08-08T12:12:48.000Z</time>
      </trkpt>
      <trkpt lat="42.87846" lon="1.07296">
        <ele>830</ele>
        <time>2019-08-08T12:12:49.000Z</time>
      </trkpt>
      <trkpt lat="42.87844" lon="1.073">
        <ele>831</ele>
        <time>2019-08-08T12:12:50.000Z</time>
      </trkpt>
      <trkpt lat="42.87843" lon="1.07305">
        <ele>831</ele>
        <time>2019-08-08T12:12:51.000Z</time>
      </trkpt>
      <trkpt lat="42.87841" lon="1.07309">
        <ele>831</ele>
        <time>2019-08-08T12:12:52.000Z</time>
      </trkpt>
      <trkpt lat="42.8784" lon="1.07313">
        <ele>831</ele>
        <time>2019-08-08T12:12:53.000Z</time>
      </trkpt>
      <trkpt lat="42.87839" lon="1.07318">
        <ele>831</ele>
        <time>2019-08-08T12:12:54.000Z</time>
      </trkpt>
      <trkpt lat="42.87838" lon="1.07322">
        <ele>831</ele>
        <time>2019-08-08T12:12:55.000Z</time>
      </trkpt>
      <trkpt lat="42.87837" lon="1.07326">
        <ele>831</ele>
        <time>2019-08-08T12:12:56.000Z</time>
      </trkpt>
      <trkpt lat="42.87836" lon="1.07331">
        <ele>832</ele>
        <time>2019-08-08T12:12:57.000Z</time>
      </trkpt>
      <trkpt lat="42.87834" lon="1.07335">
        <ele>832</ele>
        <time>2019-08-08T12:12:58.000Z</time>
      </trkpt>
      <trkpt lat="42.87833" lon="1.0734">
        <ele>833</ele>
        <time>2019-08-08T12:12:59.000Z</time>
      </trkpt>
      <trkpt lat="42.87831" lon="1.07346">
        <ele>833</ele>
        <time>2019-08-08T12:13:00.000Z</time>
      </trkpt>
      <trkpt lat="42.8783" lon="1.07348">
        <ele>834</ele>
        <time>2019-08-08T12:13:01.000Z</time>
      </trkpt>
      <trkpt lat="42.87829" lon="1.0735">
        <ele>834</ele>
        <time>2019-08-08T12:13:02.000Z</time>
      </trkpt>
      <trkpt lat="42.87827" lon="1.07357">
        <ele>834</ele>
        <time>2019-08-08T12:13:03.000Z</time>
      </trkpt>
      <trkpt lat="42.87826" lon="1.07361">
        <ele>834</ele>
        <time>2019-08-08T12:13:04.000Z</time>
      </trkpt>
      <trkpt lat="42.87823" lon="1.07367">
        <ele>834</ele>
        <time>2019-08-08T12:13:05.000Z</time>
      </trkpt>
      <trkpt lat="42.87822" lon="1.07369">
        <ele>835</ele>
        <time>2019-08-08T12:13:06.000Z</time>
      </trkpt>
      <trkpt lat="42.87822" lon="1.07371">
        <ele>835</ele>
        <time>2019-08-08T12:13:07.000Z</time>
      </trkpt>
      <trkpt lat="42.87819" lon="1.07378">
        <ele>835</ele>
        <time>2019-08-08T12:13:08.000Z</time>
      </trkpt>
      <trkpt lat="42.87818" lon="1.07382">
        <ele>835</ele>
        <time>2019-08-08T12:13:09.000Z</time>
      </trkpt>
      <trkpt lat="42.87818" lon="1.07382">
        <ele>836</ele>
        <time>2019-08-08T12:13:10.000Z</time>
      </trkpt>
      <trkpt lat="42.87818" lon="1.07382">
        <ele>836</ele>
        <time>2019-08-08T12:13:11.000Z</time>
      </trkpt>
      <trkpt lat="42.87813" lon="1.07396">
        <ele>836</ele>
        <time>2019-08-08T12:13:12.000Z</time>
      </trkpt>
      <trkpt lat="42.87813" lon="1.07398">
        <ele>836</ele>
        <time>2019-08-08T12:13:13.000Z</time>
      </trkpt>
      <trkpt lat="42.87812" lon="1.074">
        <ele>836</ele>
        <time>2019-08-08T12:13:14.000Z</time>
      </trkpt>
      <trkpt lat="42.8781" lon="1.07407">
        <ele>836</ele>
        <time>2019-08-08T12:13:15.000Z</time>
      </trkpt>
      <trkpt lat="42.8781" lon="1.07407">
        <ele>836</ele>
        <time>2019-08-08T12:13:16.000Z</time>
      </trkpt>
      <trkpt lat="42.8781" lon="1.07407">
        <ele>838</ele>
        <time>2019-08-08T12:13:17.000Z</time>
      </trkpt>
      <trkpt lat="42.87806" lon="1.07422">
        <ele>838</ele>
        <time>2019-08-08T12:13:18.000Z</time>
      </trkpt>
      <trkpt lat="42.87805" lon="1.07424">
        <ele>838</ele>
        <time>2019-08-08T12:13:19.000Z</time>
      </trkpt>
      <trkpt lat="42.87805" lon="1.07427">
        <ele>838</ele>
        <time>2019-08-08T12:13:20.000Z</time>
      </trkpt>
      <trkpt lat="42.87803" lon="1.07433">
        <ele>838</ele>
        <time>2019-08-08T12:13:21.000Z</time>
      </trkpt>
      <trkpt lat="42.87803" lon="1.07433">
        <ele>838</ele>
        <time>2019-08-08T12:13:22.000Z</time>
      </trkpt>
      <trkpt lat="42.87803" lon="1.07433">
        <ele>838</ele>
        <time>2019-08-08T12:13:23.000Z</time>
      </trkpt>
      <trkpt lat="42.878" lon="1.07449">
        <ele>838</ele>
        <time>2019-08-08T12:13:24.000Z</time>
      </trkpt>
      <trkpt lat="42.878" lon="1.07451">
        <ele>838</ele>
        <time>2019-08-08T12:13:25.000Z</time>
      </trkpt>
      <trkpt lat="42.87799" lon="1.07454">
        <ele>838</ele>
        <time>2019-08-08T12:13:26.000Z</time>
      </trkpt>
      <trkpt lat="42.87798" lon="1.07463">
        <ele>840</ele>
        <time>2019-08-08T12:13:27.000Z</time>
      </trkpt>
      <trkpt lat="42.87797" lon="1.07465">
        <ele>840</ele>
        <time>2019-08-08T12:13:28.000Z</time>
      </trkpt>
      <trkpt lat="42.87797" lon="1.07468">
        <ele>840</ele>
        <time>2019-08-08T12:13:29.000Z</time>
      </trkpt>
      <trkpt lat="42.87797" lon="1.07475">
        <ele>840</ele>
        <time>2019-08-08T12:13:30.000Z</time>
      </trkpt>
      <trkpt lat="42.87797" lon="1.07475">
        <ele>840</ele>
        <time>2019-08-08T12:13:31.000Z</time>
      </trkpt>
      <trkpt lat="42.87797" lon="1.07475">
        <ele>840</ele>
        <time>2019-08-08T12:13:32.000Z</time>
      </trkpt>
      <trkpt lat="42.87793" lon="1.0749">
        <ele>840</ele>
        <time>2019-08-08T12:13:33.000Z</time>
      </trkpt>
      <trkpt lat="42.87792" lon="1.07493">
        <ele>840</ele>
        <time>2019-08-08T12:13:34.000Z</time>
      </trkpt>
      <trkpt lat="42.87791" lon="1.07495">
        <ele>840</ele>
        <time>2019-08-08T12:13:35.000Z</time>
      </trkpt>
      <trkpt lat="42.87789" lon="1.07502">
        <ele>841</ele>
        <time>2019-08-08T12:13:36.000Z</time>
      </trkpt>
      <trkpt lat="42.87789" lon="1.07502">
        <ele>841</ele>
        <time>2019-08-08T12:13:37.000Z</time>
      </trkpt>
      <trkpt lat="42.87789" lon="1.07502">
        <ele>841</ele>
        <time>2019-08-08T12:13:38.000Z</time>
      </trkpt>
      <trkpt lat="42.87786" lon="1.07518">
        <ele>842</ele>
        <time>2019-08-08T12:13:39.000Z</time>
      </trkpt>
      <trkpt lat="42.87786" lon="1.0752">
        <ele>842</ele>
        <time>2019-08-08T12:13:40.000Z</time>
      </trkpt>
      <trkpt lat="42.87786" lon="1.07523">
        <ele>842</ele>
        <time>2019-08-08T12:13:41.000Z</time>
      </trkpt>
      <trkpt lat="42.87785" lon="1.07533">
        <ele>842</ele>
        <time>2019-08-08T12:13:42.000Z</time>
      </trkpt>
      <trkpt lat="42.87785" lon="1.07536">
        <ele>843</ele>
        <time>2019-08-08T12:13:43.000Z</time>
      </trkpt>
      <trkpt lat="42.87784" lon="1.07538">
        <ele>843</ele>
        <time>2019-08-08T12:13:44.000Z</time>
      </trkpt>
      <trkpt lat="42.87783" lon="1.07545">
        <ele>844</ele>
        <time>2019-08-08T12:13:45.000Z</time>
      </trkpt>
      <trkpt lat="42.87783" lon="1.07545">
        <ele>844</ele>
        <time>2019-08-08T12:13:46.000Z</time>
      </trkpt>
      <trkpt lat="42.87784" lon="1.07555">
        <ele>844</ele>
        <time>2019-08-08T12:13:47.000Z</time>
      </trkpt>
      <trkpt lat="42.87785" lon="1.0756">
        <ele>844</ele>
        <time>2019-08-08T12:13:48.000Z</time>
      </trkpt>
      <trkpt lat="42.87785" lon="1.0756">
        <ele>844</ele>
        <time>2019-08-08T12:13:49.000Z</time>
      </trkpt>
      <trkpt lat="42.87788" lon="1.07569">
        <ele>844</ele>
        <time>2019-08-08T12:13:50.000Z</time>
      </trkpt>
      <trkpt lat="42.87791" lon="1.07573">
        <ele>845</ele>
        <time>2019-08-08T12:13:51.000Z</time>
      </trkpt>
      <trkpt lat="42.87793" lon="1.07577">
        <ele>845</ele>
        <time>2019-08-08T12:13:52.000Z</time>
      </trkpt>
      <trkpt lat="42.87796" lon="1.0758">
        <ele>845</ele>
        <time>2019-08-08T12:13:53.000Z</time>
      </trkpt>
      <trkpt lat="42.87798" lon="1.07584">
        <ele>845</ele>
        <time>2019-08-08T12:13:54.000Z</time>
      </trkpt>
      <trkpt lat="42.878" lon="1.07589">
        <ele>845</ele>
        <time>2019-08-08T12:13:55.000Z</time>
      </trkpt>
      <trkpt lat="42.87801" lon="1.07593">
        <ele>845</ele>
        <time>2019-08-08T12:13:56.000Z</time>
      </trkpt>
      <trkpt lat="42.87801" lon="1.07598">
        <ele>845</ele>
        <time>2019-08-08T12:13:57.000Z</time>
      </trkpt>
      <trkpt lat="42.87802" lon="1.07603">
        <ele>846</ele>
        <time>2019-08-08T12:13:58.000Z</time>
      </trkpt>
      <trkpt lat="42.87801" lon="1.07608">
        <ele>846</ele>
        <time>2019-08-08T12:13:59.000Z</time>
      </trkpt>
      <trkpt lat="42.87799" lon="1.07611">
        <ele>847</ele>
        <time>2019-08-08T12:14:00.000Z</time>
      </trkpt>
      <trkpt lat="42.87797" lon="1.07615">
        <ele>847</ele>
        <time>2019-08-08T12:14:01.000Z</time>
      </trkpt>
      <trkpt lat="42.87794" lon="1.07618">
        <ele>847</ele>
        <time>2019-08-08T12:14:02.000Z</time>
      </trkpt>
      <trkpt lat="42.87791" lon="1.0762">
        <ele>847</ele>
        <time>2019-08-08T12:14:03.000Z</time>
      </trkpt>
      <trkpt lat="42.87788" lon="1.07621">
        <ele>847</ele>
        <time>2019-08-08T12:14:04.000Z</time>
      </trkpt>
      <trkpt lat="42.87785" lon="1.07623">
        <ele>847</ele>
        <time>2019-08-08T12:14:05.000Z</time>
      </trkpt>
      <trkpt lat="42.87781" lon="1.07624">
        <ele>848</ele>
        <time>2019-08-08T12:14:06.000Z</time>
      </trkpt>
      <trkpt lat="42.87778" lon="1.07624">
        <ele>848</ele>
        <time>2019-08-08T12:14:07.000Z</time>
      </trkpt>
      <trkpt lat="42.87774" lon="1.07625">
        <ele>848</ele>
        <time>2019-08-08T12:14:08.000Z</time>
      </trkpt>
      <trkpt lat="42.87771" lon="1.07625">
        <ele>848</ele>
        <time>2019-08-08T12:14:09.000Z</time>
      </trkpt>
      <trkpt lat="42.87766" lon="1.07623">
        <ele>848</ele>
        <time>2019-08-08T12:14:10.000Z</time>
      </trkpt>
      <trkpt lat="42.87764" lon="1.07623">
        <ele>848</ele>
        <time>2019-08-08T12:14:11.000Z</time>
      </trkpt>
      <trkpt lat="42.87761" lon="1.07622">
        <ele>848</ele>
        <time>2019-08-08T12:14:12.000Z</time>
      </trkpt>
      <trkpt lat="42.87761" lon="1.07622">
        <ele>848</ele>
        <time>2019-08-08T12:14:13.000Z</time>
      </trkpt>
      <trkpt lat="42.87761" lon="1.07622">
        <ele>848</ele>
        <time>2019-08-08T12:14:14.000Z</time>
      </trkpt>
      <trkpt lat="42.87749" lon="1.07618">
        <ele>848</ele>
        <time>2019-08-08T12:14:15.000Z</time>
      </trkpt>
      <trkpt lat="42.87747" lon="1.07618">
        <ele>848</ele>
        <time>2019-08-08T12:14:16.000Z</time>
      </trkpt>
      <trkpt lat="42.87745" lon="1.07617">
        <ele>849</ele>
        <time>2019-08-08T12:14:17.000Z</time>
      </trkpt>
      <trkpt lat="42.8774" lon="1.07615">
        <ele>849</ele>
        <time>2019-08-08T12:14:18.000Z</time>
      </trkpt>
      <trkpt lat="42.87737" lon="1.07614">
        <ele>850</ele>
        <time>2019-08-08T12:14:19.000Z</time>
      </trkpt>
      <trkpt lat="42.87734" lon="1.07612">
        <ele>850</ele>
        <time>2019-08-08T12:14:20.000Z</time>
      </trkpt>
      <trkpt lat="42.8773" lon="1.0761">
        <ele>850</ele>
        <time>2019-08-08T12:14:21.000Z</time>
      </trkpt>
      <trkpt lat="42.87727" lon="1.07609">
        <ele>850</ele>
        <time>2019-08-08T12:14:22.000Z</time>
      </trkpt>
      <trkpt lat="42.87724" lon="1.07607">
        <ele>851</ele>
        <time>2019-08-08T12:14:23.000Z</time>
      </trkpt>
      <trkpt lat="42.87721" lon="1.07605">
        <ele>851</ele>
        <time>2019-08-08T12:14:24.000Z</time>
      </trkpt>
      <trkpt lat="42.87718" lon="1.07604">
        <ele>852</ele>
        <time>2019-08-08T12:14:25.000Z</time>
      </trkpt>
      <trkpt lat="42.87715" lon="1.07603">
        <ele>852</ele>
        <time>2019-08-08T12:14:26.000Z</time>
      </trkpt>
      <trkpt lat="42.87713" lon="1.07602">
        <ele>852</ele>
        <time>2019-08-08T12:14:27.000Z</time>
      </trkpt>
      <trkpt lat="42.87707" lon="1.07599">
        <ele>852</ele>
        <time>2019-08-08T12:14:28.000Z</time>
      </trkpt>
      <trkpt lat="42.87707" lon="1.07599">
        <ele>852</ele>
        <time>2019-08-08T12:14:29.000Z</time>
      </trkpt>
      <trkpt lat="42.87701" lon="1.07598">
        <ele>852</ele>
        <time>2019-08-08T12:14:30.000Z</time>
      </trkpt>
      <trkpt lat="42.87697" lon="1.07597">
        <ele>853</ele>
        <time>2019-08-08T12:14:31.000Z</time>
      </trkpt>
      <trkpt lat="42.87694" lon="1.07597">
        <ele>853</ele>
        <time>2019-08-08T12:14:32.000Z</time>
      </trkpt>
      <trkpt lat="42.8769" lon="1.07596">
        <ele>853</ele>
        <time>2019-08-08T12:14:33.000Z</time>
      </trkpt>
      <trkpt lat="42.87687" lon="1.07596">
        <ele>853</ele>
        <time>2019-08-08T12:14:34.000Z</time>
      </trkpt>
      <trkpt lat="42.87683" lon="1.07597">
        <ele>854</ele>
        <time>2019-08-08T12:14:35.000Z</time>
      </trkpt>
      <trkpt lat="42.8768" lon="1.07599">
        <ele>854</ele>
        <time>2019-08-08T12:14:36.000Z</time>
      </trkpt>
      <trkpt lat="42.8768" lon="1.07599">
        <ele>854</ele>
        <time>2019-08-08T12:14:37.000Z</time>
      </trkpt>
      <trkpt lat="42.87672" lon="1.07601">
        <ele>854</ele>
        <time>2019-08-08T12:14:38.000Z</time>
      </trkpt>
      <trkpt lat="42.87668" lon="1.07603">
        <ele>854</ele>
        <time>2019-08-08T12:14:39.000Z</time>
      </trkpt>
      <trkpt lat="42.87665" lon="1.07605">
        <ele>855</ele>
        <time>2019-08-08T12:14:40.000Z</time>
      </trkpt>
      <trkpt lat="42.87661" lon="1.07607">
        <ele>855</ele>
        <time>2019-08-08T12:14:41.000Z</time>
      </trkpt>
      <trkpt lat="42.87657" lon="1.07609">
        <ele>856</ele>
        <time>2019-08-08T12:14:42.000Z</time>
      </trkpt>
      <trkpt lat="42.87653" lon="1.07612">
        <ele>856</ele>
        <time>2019-08-08T12:14:43.000Z</time>
      </trkpt>
      <trkpt lat="42.8765" lon="1.07614">
        <ele>856</ele>
        <time>2019-08-08T12:14:44.000Z</time>
      </trkpt>
      <trkpt lat="42.87646" lon="1.07616">
        <ele>856</ele>
        <time>2019-08-08T12:14:45.000Z</time>
      </trkpt>
      <trkpt lat="42.87642" lon="1.07618">
        <ele>856</ele>
        <time>2019-08-08T12:14:46.000Z</time>
      </trkpt>
      <trkpt lat="42.87639" lon="1.07621">
        <ele>856</ele>
        <time>2019-08-08T12:14:47.000Z</time>
      </trkpt>
      <trkpt lat="42.87635" lon="1.07623">
        <ele>856</ele>
        <time>2019-08-08T12:14:48.000Z</time>
      </trkpt>
      <trkpt lat="42.87631" lon="1.07625">
        <ele>856</ele>
        <time>2019-08-08T12:14:49.000Z</time>
      </trkpt>
      <trkpt lat="42.87628" lon="1.07628">
        <ele>856</ele>
        <time>2019-08-08T12:14:50.000Z</time>
      </trkpt>
      <trkpt lat="42.87625" lon="1.0763">
        <ele>857</ele>
        <time>2019-08-08T12:14:51.000Z</time>
      </trkpt>
      <trkpt lat="42.87625" lon="1.0763">
        <ele>857</ele>
        <time>2019-08-08T12:14:52.000Z</time>
      </trkpt>
      <trkpt lat="42.87618" lon="1.07636">
        <ele>857</ele>
        <time>2019-08-08T12:14:53.000Z</time>
      </trkpt>
      <trkpt lat="42.87615" lon="1.07638">
        <ele>857</ele>
        <time>2019-08-08T12:14:54.000Z</time>
      </trkpt>
      <trkpt lat="42.87612" lon="1.07641">
        <ele>857</ele>
        <time>2019-08-08T12:14:55.000Z</time>
      </trkpt>
      <trkpt lat="42.87609" lon="1.07643">
        <ele>857</ele>
        <time>2019-08-08T12:14:56.000Z</time>
      </trkpt>
      <trkpt lat="42.87606" lon="1.07646">
        <ele>857</ele>
        <time>2019-08-08T12:14:57.000Z</time>
      </trkpt>
      <trkpt lat="42.87603" lon="1.07648">
        <ele>857</ele>
        <time>2019-08-08T12:14:58.000Z</time>
      </trkpt>
      <trkpt lat="42.876" lon="1.07651">
        <ele>858</ele>
        <time>2019-08-08T12:14:59.000Z</time>
      </trkpt>
      <trkpt lat="42.87597" lon="1.07653">
        <ele>858</ele>
        <time>2019-08-08T12:15:00.000Z</time>
      </trkpt>
      <trkpt lat="42.87594" lon="1.07656">
        <ele>858</ele>
        <time>2019-08-08T12:15:01.000Z</time>
      </trkpt>
      <trkpt lat="42.87591" lon="1.07659">
        <ele>858</ele>
        <time>2019-08-08T12:15:02.000Z</time>
      </trkpt>
      <trkpt lat="42.87589" lon="1.07661">
        <ele>858</ele>
        <time>2019-08-08T12:15:03.000Z</time>
      </trkpt>
      <trkpt lat="42.87585" lon="1.07663">
        <ele>858</ele>
        <time>2019-08-08T12:15:04.000Z</time>
      </trkpt>
      <trkpt lat="42.87582" lon="1.07665">
        <ele>859</ele>
        <time>2019-08-08T12:15:05.000Z</time>
      </trkpt>
      <trkpt lat="42.87579" lon="1.07668">
        <ele>859</ele>
        <time>2019-08-08T12:15:06.000Z</time>
      </trkpt>
      <trkpt lat="42.87576" lon="1.0767">
        <ele>860</ele>
        <time>2019-08-08T12:15:07.000Z</time>
      </trkpt>
      <trkpt lat="42.87573" lon="1.07672">
        <ele>860</ele>
        <time>2019-08-08T12:15:08.000Z</time>
      </trkpt>
      <trkpt lat="42.8757" lon="1.07675">
        <ele>860</ele>
        <time>2019-08-08T12:15:09.000Z</time>
      </trkpt>
      <trkpt lat="42.87567" lon="1.07678">
        <ele>860</ele>
        <time>2019-08-08T12:15:10.000Z</time>
      </trkpt>
      <trkpt lat="42.87564" lon="1.07681">
        <ele>860</ele>
        <time>2019-08-08T12:15:11.000Z</time>
      </trkpt>
      <trkpt lat="42.87562" lon="1.07685">
        <ele>861</ele>
        <time>2019-08-08T12:15:12.000Z</time>
      </trkpt>
      <trkpt lat="42.87559" lon="1.07689">
        <ele>861</ele>
        <time>2019-08-08T12:15:13.000Z</time>
      </trkpt>
      <trkpt lat="42.87557" lon="1.07693">
        <ele>861</ele>
        <time>2019-08-08T12:15:14.000Z</time>
      </trkpt>
      <trkpt lat="42.87554" lon="1.07697">
        <ele>861</ele>
        <time>2019-08-08T12:15:15.000Z</time>
      </trkpt>
      <trkpt lat="42.87552" lon="1.07701">
        <ele>862</ele>
        <time>2019-08-08T12:15:16.000Z</time>
      </trkpt>
      <trkpt lat="42.8755" lon="1.07706">
        <ele>862</ele>
        <time>2019-08-08T12:15:17.000Z</time>
      </trkpt>
      <trkpt lat="42.87548" lon="1.0771">
        <ele>862</ele>
        <time>2019-08-08T12:15:18.000Z</time>
      </trkpt>
      <trkpt lat="42.87547" lon="1.07715">
        <ele>862</ele>
        <time>2019-08-08T12:15:19.000Z</time>
      </trkpt>
      <trkpt lat="42.87545" lon="1.07719">
        <ele>863</ele>
        <time>2019-08-08T12:15:20.000Z</time>
      </trkpt>
      <trkpt lat="42.87544" lon="1.07724">
        <ele>863</ele>
        <time>2019-08-08T12:15:21.000Z</time>
      </trkpt>
      <trkpt lat="42.87543" lon="1.07728">
        <ele>863</ele>
        <time>2019-08-08T12:15:22.000Z</time>
      </trkpt>
      <trkpt lat="42.87542" lon="1.07733">
        <ele>863</ele>
        <time>2019-08-08T12:15:23.000Z</time>
      </trkpt>
      <trkpt lat="42.87541" lon="1.07738">
        <ele>864</ele>
        <time>2019-08-08T12:15:24.000Z</time>
      </trkpt>
      <trkpt lat="42.87538" lon="1.07742">
        <ele>864</ele>
        <time>2019-08-08T12:15:25.000Z</time>
      </trkpt>
      <trkpt lat="42.87536" lon="1.07746">
        <ele>864</ele>
        <time>2019-08-08T12:15:26.000Z</time>
      </trkpt>
      <trkpt lat="42.87535" lon="1.0775">
        <ele>864</ele>
        <time>2019-08-08T12:15:27.000Z</time>
      </trkpt>
      <trkpt lat="42.87533" lon="1.07755">
        <ele>864</ele>
        <time>2019-08-08T12:15:28.000Z</time>
      </trkpt>
      <trkpt lat="42.87531" lon="1.07759">
        <ele>864</ele>
        <time>2019-08-08T12:15:29.000Z</time>
      </trkpt>
      <trkpt lat="42.8753" lon="1.07763">
        <ele>864</ele>
        <time>2019-08-08T12:15:30.000Z</time>
      </trkpt>
      <trkpt lat="42.8753" lon="1.07763">
        <ele>864</ele>
        <time>2019-08-08T12:15:31.000Z</time>
      </trkpt>
      <trkpt lat="42.8753" lon="1.07763">
        <ele>864</ele>
        <time>2019-08-08T12:15:32.000Z</time>
      </trkpt>
      <trkpt lat="42.87524" lon="1.07774">
        <ele>865</ele>
        <time>2019-08-08T12:15:33.000Z</time>
      </trkpt>
      <trkpt lat="42.87524" lon="1.07774">
        <ele>865</ele>
        <time>2019-08-08T12:15:34.000Z</time>
      </trkpt>
      <trkpt lat="42.87524" lon="1.07774">
        <ele>866</ele>
        <time>2019-08-08T12:15:35.000Z</time>
      </trkpt>
      <trkpt lat="42.87516" lon="1.07782">
        <ele>866</ele>
        <time>2019-08-08T12:15:36.000Z</time>
      </trkpt>
      <trkpt lat="42.87516" lon="1.07782">
        <ele>866</ele>
        <time>2019-08-08T12:15:37.000Z</time>
      </trkpt>
      <trkpt lat="42.87516" lon="1.07782">
        <ele>866</ele>
        <time>2019-08-08T12:15:38.000Z</time>
      </trkpt>
      <trkpt lat="42.87507" lon="1.07788">
        <ele>867</ele>
        <time>2019-08-08T12:15:39.000Z</time>
      </trkpt>
      <trkpt lat="42.87507" lon="1.07788">
        <ele>867</ele>
        <time>2019-08-08T12:15:40.000Z</time>
      </trkpt>
      <trkpt lat="42.87507" lon="1.07788">
        <ele>867</ele>
        <time>2019-08-08T12:15:41.000Z</time>
      </trkpt>
      <trkpt lat="42.87497" lon="1.07795">
        <ele>867</ele>
        <time>2019-08-08T12:15:42.000Z</time>
      </trkpt>
      <trkpt lat="42.87495" lon="1.07796">
        <ele>867</ele>
        <time>2019-08-08T12:15:43.000Z</time>
      </trkpt>
      <trkpt lat="42.87494" lon="1.07797">
        <ele>867</ele>
        <time>2019-08-08T12:15:44.000Z</time>
      </trkpt>
      <trkpt lat="42.87487" lon="1.07801">
        <ele>867</ele>
        <time>2019-08-08T12:15:45.000Z</time>
      </trkpt>
      <trkpt lat="42.87485" lon="1.07802">
        <ele>867</ele>
        <time>2019-08-08T12:15:46.000Z</time>
      </trkpt>
      <trkpt lat="42.87484" lon="1.07803">
        <ele>868</ele>
        <time>2019-08-08T12:15:47.000Z</time>
      </trkpt>
      <trkpt lat="42.87477" lon="1.07807">
        <ele>868</ele>
        <time>2019-08-08T12:15:48.000Z</time>
      </trkpt>
      <trkpt lat="42.87475" lon="1.07809">
        <ele>868</ele>
        <time>2019-08-08T12:15:49.000Z</time>
      </trkpt>
      <trkpt lat="42.87474" lon="1.0781">
        <ele>868</ele>
        <time>2019-08-08T12:15:50.000Z</time>
      </trkpt>
      <trkpt lat="42.8747" lon="1.07815">
        <ele>868</ele>
        <time>2019-08-08T12:15:51.000Z</time>
      </trkpt>
      <trkpt lat="42.8747" lon="1.07815">
        <ele>868</ele>
        <time>2019-08-08T12:15:52.000Z</time>
      </trkpt>
      <trkpt lat="42.87465" lon="1.07822">
        <ele>869</ele>
        <time>2019-08-08T12:15:53.000Z</time>
      </trkpt>
      <trkpt lat="42.87462" lon="1.07826">
        <ele>869</ele>
        <time>2019-08-08T12:15:54.000Z</time>
      </trkpt>
      <trkpt lat="42.8746" lon="1.07829">
        <ele>870</ele>
        <time>2019-08-08T12:15:55.000Z</time>
      </trkpt>
      <trkpt lat="42.87458" lon="1.07833">
        <ele>870</ele>
        <time>2019-08-08T12:15:56.000Z</time>
      </trkpt>
      <trkpt lat="42.87455" lon="1.07837">
        <ele>870</ele>
        <time>2019-08-08T12:15:57.000Z</time>
      </trkpt>
      <trkpt lat="42.87452" lon="1.0784">
        <ele>870</ele>
        <time>2019-08-08T12:15:58.000Z</time>
      </trkpt>
      <trkpt lat="42.8745" lon="1.07843">
        <ele>870</ele>
        <time>2019-08-08T12:15:59.000Z</time>
      </trkpt>
      <trkpt lat="42.87447" lon="1.07846">
        <ele>870</ele>
        <time>2019-08-08T12:16:00.000Z</time>
      </trkpt>
      <trkpt lat="42.87443" lon="1.07848">
        <ele>871</ele>
        <time>2019-08-08T12:16:01.000Z</time>
      </trkpt>
      <trkpt lat="42.87441" lon="1.07851">
        <ele>871</ele>
        <time>2019-08-08T12:16:02.000Z</time>
      </trkpt>
      <trkpt lat="42.87438" lon="1.07854">
        <ele>871</ele>
        <time>2019-08-08T12:16:03.000Z</time>
      </trkpt>
      <trkpt lat="42.87435" lon="1.07856">
        <ele>871</ele>
        <time>2019-08-08T12:16:04.000Z</time>
      </trkpt>
      <trkpt lat="42.87432" lon="1.07859">
        <ele>871</ele>
        <time>2019-08-08T12:16:05.000Z</time>
      </trkpt>
      <trkpt lat="42.87429" lon="1.07862">
        <ele>872</ele>
        <time>2019-08-08T12:16:06.000Z</time>
      </trkpt>
      <trkpt lat="42.87426" lon="1.07865">
        <ele>872</ele>
        <time>2019-08-08T12:16:07.000Z</time>
      </trkpt>
      <trkpt lat="42.87423" lon="1.07868">
        <ele>873</ele>
        <time>2019-08-08T12:16:08.000Z</time>
      </trkpt>
      <trkpt lat="42.8742" lon="1.07871">
        <ele>873</ele>
        <time>2019-08-08T12:16:09.000Z</time>
      </trkpt>
      <trkpt lat="42.87418" lon="1.07874">
        <ele>874</ele>
        <time>2019-08-08T12:16:10.000Z</time>
      </trkpt>
      <trkpt lat="42.87415" lon="1.07878">
        <ele>874</ele>
        <time>2019-08-08T12:16:11.000Z</time>
      </trkpt>
      <trkpt lat="42.87413" lon="1.07882">
        <ele>874</ele>
        <time>2019-08-08T12:16:12.000Z</time>
      </trkpt>
      <trkpt lat="42.87411" lon="1.07886">
        <ele>874</ele>
        <time>2019-08-08T12:16:13.000Z</time>
      </trkpt>
      <trkpt lat="42.87409" lon="1.0789">
        <ele>874</ele>
        <time>2019-08-08T12:16:14.000Z</time>
      </trkpt>
      <trkpt lat="42.87407" lon="1.07894">
        <ele>875</ele>
        <time>2019-08-08T12:16:15.000Z</time>
      </trkpt>
      <trkpt lat="42.87404" lon="1.07899">
        <ele>875</ele>
        <time>2019-08-08T12:16:16.000Z</time>
      </trkpt>
      <trkpt lat="42.87403" lon="1.07903">
        <ele>875</ele>
        <time>2019-08-08T12:16:17.000Z</time>
      </trkpt>
      <trkpt lat="42.87401" lon="1.07908">
        <ele>875</ele>
        <time>2019-08-08T12:16:18.000Z</time>
      </trkpt>
      <trkpt lat="42.87399" lon="1.07913">
        <ele>875</ele>
        <time>2019-08-08T12:16:19.000Z</time>
      </trkpt>
      <trkpt lat="42.87397" lon="1.07918">
        <ele>876</ele>
        <time>2019-08-08T12:16:20.000Z</time>
      </trkpt>
      <trkpt lat="42.87395" lon="1.07922">
        <ele>876</ele>
        <time>2019-08-08T12:16:21.000Z</time>
      </trkpt>
      <trkpt lat="42.87392" lon="1.07929">
        <ele>876</ele>
        <time>2019-08-08T12:16:22.000Z</time>
      </trkpt>
      <trkpt lat="42.87391" lon="1.07931">
        <ele>876</ele>
        <time>2019-08-08T12:16:23.000Z</time>
      </trkpt>
      <trkpt lat="42.87389" lon="1.07935">
        <ele>876</ele>
        <time>2019-08-08T12:16:24.000Z</time>
      </trkpt>
      <trkpt lat="42.87387" lon="1.07939">
        <ele>876</ele>
        <time>2019-08-08T12:16:25.000Z</time>
      </trkpt>
      <trkpt lat="42.87385" lon="1.07944">
        <ele>877</ele>
        <time>2019-08-08T12:16:26.000Z</time>
      </trkpt>
      <trkpt lat="42.87383" lon="1.07948">
        <ele>877</ele>
        <time>2019-08-08T12:16:27.000Z</time>
      </trkpt>
      <trkpt lat="42.8738" lon="1.07952">
        <ele>877</ele>
        <time>2019-08-08T12:16:28.000Z</time>
      </trkpt>
      <trkpt lat="42.87378" lon="1.07956">
        <ele>877</ele>
        <time>2019-08-08T12:16:29.000Z</time>
      </trkpt>
      <trkpt lat="42.87376" lon="1.0796">
        <ele>877</ele>
        <time>2019-08-08T12:16:30.000Z</time>
      </trkpt>
      <trkpt lat="42.87374" lon="1.07964">
        <ele>877</ele>
        <time>2019-08-08T12:16:31.000Z</time>
      </trkpt>
      <trkpt lat="42.87371" lon="1.07968">
        <ele>877</ele>
        <time>2019-08-08T12:16:32.000Z</time>
      </trkpt>
      <trkpt lat="42.87369" lon="1.07971">
        <ele>877</ele>
        <time>2019-08-08T12:16:33.000Z</time>
      </trkpt>
      <trkpt lat="42.87366" lon="1.07975">
        <ele>878</ele>
        <time>2019-08-08T12:16:34.000Z</time>
      </trkpt>
      <trkpt lat="42.87364" lon="1.07979">
        <ele>878</ele>
        <time>2019-08-08T12:16:35.000Z</time>
      </trkpt>
      <trkpt lat="42.87361" lon="1.07982">
        <ele>879</ele>
        <time>2019-08-08T12:16:36.000Z</time>
      </trkpt>
      <trkpt lat="42.87359" lon="1.07986">
        <ele>879</ele>
        <time>2019-08-08T12:16:37.000Z</time>
      </trkpt>
      <trkpt lat="42.87356" lon="1.07991">
        <ele>879</ele>
        <time>2019-08-08T12:16:38.000Z</time>
      </trkpt>
      <trkpt lat="42.87355" lon="1.07993">
        <ele>879</ele>
        <time>2019-08-08T12:16:39.000Z</time>
      </trkpt>
      <trkpt lat="42.87353" lon="1.07997">
        <ele>879</ele>
        <time>2019-08-08T12:16:40.000Z</time>
      </trkpt>
      <trkpt lat="42.87351" lon="1.08001">
        <ele>879</ele>
        <time>2019-08-08T12:16:41.000Z</time>
      </trkpt>
      <trkpt lat="42.87349" lon="1.08005">
        <ele>880</ele>
        <time>2019-08-08T12:16:42.000Z</time>
      </trkpt>
      <trkpt lat="42.87348" lon="1.08009">
        <ele>880</ele>
        <time>2019-08-08T12:16:43.000Z</time>
      </trkpt>
      <trkpt lat="42.87346" lon="1.08013">
        <ele>881</ele>
        <time>2019-08-08T12:16:44.000Z</time>
      </trkpt>
      <trkpt lat="42.87344" lon="1.08017">
        <ele>881</ele>
        <time>2019-08-08T12:16:45.000Z</time>
      </trkpt>
      <trkpt lat="42.87343" lon="1.08021">
        <ele>881</ele>
        <time>2019-08-08T12:16:46.000Z</time>
      </trkpt>
      <trkpt lat="42.8734" lon="1.08024">
        <ele>881</ele>
        <time>2019-08-08T12:16:47.000Z</time>
      </trkpt>
      <trkpt lat="42.87338" lon="1.08028">
        <ele>881</ele>
        <time>2019-08-08T12:16:48.000Z</time>
      </trkpt>
      <trkpt lat="42.87336" lon="1.08031">
        <ele>881</ele>
        <time>2019-08-08T12:16:49.000Z</time>
      </trkpt>
      <trkpt lat="42.87334" lon="1.08035">
        <ele>882</ele>
        <time>2019-08-08T12:16:50.000Z</time>
      </trkpt>
      <trkpt lat="42.87332" lon="1.08039">
        <ele>882</ele>
        <time>2019-08-08T12:16:51.000Z</time>
      </trkpt>
      <trkpt lat="42.8733" lon="1.08042">
        <ele>883</ele>
        <time>2019-08-08T12:16:52.000Z</time>
      </trkpt>
      <trkpt lat="42.87328" lon="1.08046">
        <ele>883</ele>
        <time>2019-08-08T12:16:53.000Z</time>
      </trkpt>
      <trkpt lat="42.87326" lon="1.0805">
        <ele>883</ele>
        <time>2019-08-08T12:16:54.000Z</time>
      </trkpt>
      <trkpt lat="42.87324" lon="1.08054">
        <ele>883</ele>
        <time>2019-08-08T12:16:55.000Z</time>
      </trkpt>
      <trkpt lat="42.87323" lon="1.08057">
        <ele>883</ele>
        <time>2019-08-08T12:16:56.000Z</time>
      </trkpt>
      <trkpt lat="42.87321" lon="1.08061">
        <ele>883</ele>
        <time>2019-08-08T12:16:57.000Z</time>
      </trkpt>
      <trkpt lat="42.87319" lon="1.08065">
        <ele>883</ele>
        <time>2019-08-08T12:16:58.000Z</time>
      </trkpt>
      <trkpt lat="42.87318" lon="1.08069">
        <ele>884</ele>
        <time>2019-08-08T12:16:59.000Z</time>
      </trkpt>
      <trkpt lat="42.87316" lon="1.08075">
        <ele>884</ele>
        <time>2019-08-08T12:17:00.000Z</time>
      </trkpt>
      <trkpt lat="42.87315" lon="1.08077">
        <ele>884</ele>
        <time>2019-08-08T12:17:01.000Z</time>
      </trkpt>
      <trkpt lat="42.87314" lon="1.08081">
        <ele>884</ele>
        <time>2019-08-08T12:17:02.000Z</time>
      </trkpt>
      <trkpt lat="42.87312" lon="1.08085">
        <ele>885</ele>
        <time>2019-08-08T12:17:03.000Z</time>
      </trkpt>
      <trkpt lat="42.87311" lon="1.08089">
        <ele>885</ele>
        <time>2019-08-08T12:17:04.000Z</time>
      </trkpt>
      <trkpt lat="42.87309" lon="1.08093">
        <ele>886</ele>
        <time>2019-08-08T12:17:05.000Z</time>
      </trkpt>
      <trkpt lat="42.87308" lon="1.08096">
        <ele>886</ele>
        <time>2019-08-08T12:17:06.000Z</time>
      </trkpt>
      <trkpt lat="42.87306" lon="1.081">
        <ele>886</ele>
        <time>2019-08-08T12:17:07.000Z</time>
      </trkpt>
      <trkpt lat="42.87303" lon="1.08103">
        <ele>886</ele>
        <time>2019-08-08T12:17:08.000Z</time>
      </trkpt>
      <trkpt lat="42.87301" lon="1.08107">
        <ele>886</ele>
        <time>2019-08-08T12:17:09.000Z</time>
      </trkpt>
      <trkpt lat="42.87299" lon="1.0811">
        <ele>886</ele>
        <time>2019-08-08T12:17:10.000Z</time>
      </trkpt>
      <trkpt lat="42.87297" lon="1.08113">
        <ele>886</ele>
        <time>2019-08-08T12:17:11.000Z</time>
      </trkpt>
      <trkpt lat="42.87295" lon="1.08116">
        <ele>886</ele>
        <time>2019-08-08T12:17:12.000Z</time>
      </trkpt>
      <trkpt lat="42.87293" lon="1.08119">
        <ele>886</ele>
        <time>2019-08-08T12:17:13.000Z</time>
      </trkpt>
      <trkpt lat="42.87291" lon="1.08123">
        <ele>886</ele>
        <time>2019-08-08T12:17:14.000Z</time>
      </trkpt>
      <trkpt lat="42.8729" lon="1.08127">
        <ele>887</ele>
        <time>2019-08-08T12:17:15.000Z</time>
      </trkpt>
      <trkpt lat="42.87288" lon="1.0813">
        <ele>887</ele>
        <time>2019-08-08T12:17:16.000Z</time>
      </trkpt>
      <trkpt lat="42.87286" lon="1.08133">
        <ele>887</ele>
        <time>2019-08-08T12:17:17.000Z</time>
      </trkpt>
      <trkpt lat="42.87284" lon="1.08136">
        <ele>887</ele>
        <time>2019-08-08T12:17:18.000Z</time>
      </trkpt>
      <trkpt lat="42.87282" lon="1.08139">
        <ele>888</ele>
        <time>2019-08-08T12:17:19.000Z</time>
      </trkpt>
      <trkpt lat="42.8728" lon="1.08141">
        <ele>888</ele>
        <time>2019-08-08T12:17:20.000Z</time>
      </trkpt>
      <trkpt lat="42.87277" lon="1.08144">
        <ele>888</ele>
        <time>2019-08-08T12:17:21.000Z</time>
      </trkpt>
      <trkpt lat="42.87275" lon="1.08147">
        <ele>888</ele>
        <time>2019-08-08T12:17:22.000Z</time>
      </trkpt>
      <trkpt lat="42.87273" lon="1.0815">
        <ele>888</ele>
        <time>2019-08-08T12:17:23.000Z</time>
      </trkpt>
      <trkpt lat="42.87271" lon="1.08152">
        <ele>888</ele>
        <time>2019-08-08T12:17:24.000Z</time>
      </trkpt>
      <trkpt lat="42.87268" lon="1.08155">
        <ele>889</ele>
        <time>2019-08-08T12:17:25.000Z</time>
      </trkpt>
      <trkpt lat="42.87266" lon="1.08158">
        <ele>889</ele>
        <time>2019-08-08T12:17:26.000Z</time>
      </trkpt>
      <trkpt lat="42.87264" lon="1.0816">
        <ele>891</ele>
        <time>2019-08-08T12:17:27.000Z</time>
      </trkpt>
      <trkpt lat="42.87262" lon="1.08163">
        <ele>891</ele>
        <time>2019-08-08T12:17:28.000Z</time>
      </trkpt>
      <trkpt lat="42.8726" lon="1.08166">
        <ele>892</ele>
        <time>2019-08-08T12:17:29.000Z</time>
      </trkpt>
      <trkpt lat="42.87257" lon="1.08169">
        <ele>892</ele>
        <time>2019-08-08T12:17:30.000Z</time>
      </trkpt>
      <trkpt lat="42.87255" lon="1.08172">
        <ele>892</ele>
        <time>2019-08-08T12:17:31.000Z</time>
      </trkpt>
      <trkpt lat="42.87253" lon="1.08175">
        <ele>892</ele>
        <time>2019-08-08T12:17:32.000Z</time>
      </trkpt>
      <trkpt lat="42.8725" lon="1.08178">
        <ele>892</ele>
        <time>2019-08-08T12:17:33.000Z</time>
      </trkpt>
      <trkpt lat="42.87248" lon="1.08181">
        <ele>892</ele>
        <time>2019-08-08T12:17:34.000Z</time>
      </trkpt>
      <trkpt lat="42.87246" lon="1.08184">
        <ele>893</ele>
        <time>2019-08-08T12:17:35.000Z</time>
      </trkpt>
      <trkpt lat="42.87244" lon="1.08188">
        <ele>893</ele>
        <time>2019-08-08T12:17:36.000Z</time>
      </trkpt>
      <trkpt lat="42.87242" lon="1.08191">
        <ele>893</ele>
        <time>2019-08-08T12:17:37.000Z</time>
      </trkpt>
      <trkpt lat="42.8724" lon="1.08194">
        <ele>893</ele>
        <time>2019-08-08T12:17:38.000Z</time>
      </trkpt>
      <trkpt lat="42.87238" lon="1.08197">
        <ele>894</ele>
        <time>2019-08-08T12:17:39.000Z</time>
      </trkpt>
      <trkpt lat="42.87235" lon="1.08199">
        <ele>894</ele>
        <time>2019-08-08T12:17:40.000Z</time>
      </trkpt>
      <trkpt lat="42.87232" lon="1.08202">
        <ele>894</ele>
        <time>2019-08-08T12:17:41.000Z</time>
      </trkpt>
      <trkpt lat="42.8723" lon="1.08206">
        <ele>895</ele>
        <time>2019-08-08T12:17:42.000Z</time>
      </trkpt>
      <trkpt lat="42.87228" lon="1.08209">
        <ele>895</ele>
        <time>2019-08-08T12:17:43.000Z</time>
      </trkpt>
      <trkpt lat="42.87227" lon="1.08212">
        <ele>895</ele>
        <time>2019-08-08T12:17:44.000Z</time>
      </trkpt>
      <trkpt lat="42.87225" lon="1.08215">
        <ele>895</ele>
        <time>2019-08-08T12:17:45.000Z</time>
      </trkpt>
      <trkpt lat="42.87223" lon="1.08218">
        <ele>895</ele>
        <time>2019-08-08T12:17:46.000Z</time>
      </trkpt>
      <trkpt lat="42.87221" lon="1.08221">
        <ele>895</ele>
        <time>2019-08-08T12:17:47.000Z</time>
      </trkpt>
      <trkpt lat="42.8722" lon="1.08225">
        <ele>895</ele>
        <time>2019-08-08T12:17:48.000Z</time>
      </trkpt>
      <trkpt lat="42.87218" lon="1.08228">
        <ele>896</ele>
        <time>2019-08-08T12:17:49.000Z</time>
      </trkpt>
      <trkpt lat="42.87218" lon="1.08228">
        <ele>896</ele>
        <time>2019-08-08T12:17:50.000Z</time>
      </trkpt>
      <trkpt lat="42.87215" lon="1.08234">
        <ele>896</ele>
        <time>2019-08-08T12:17:51.000Z</time>
      </trkpt>
      <trkpt lat="42.87214" lon="1.08238">
        <ele>896</ele>
        <time>2019-08-08T12:17:52.000Z</time>
      </trkpt>
      <trkpt lat="42.87212" lon="1.08241">
        <ele>896</ele>
        <time>2019-08-08T12:17:53.000Z</time>
      </trkpt>
      <trkpt lat="42.8721" lon="1.08244">
        <ele>896</ele>
        <time>2019-08-08T12:17:54.000Z</time>
      </trkpt>
      <trkpt lat="42.87209" lon="1.08248">
        <ele>897</ele>
        <time>2019-08-08T12:17:55.000Z</time>
      </trkpt>
      <trkpt lat="42.87207" lon="1.08251">
        <ele>897</ele>
        <time>2019-08-08T12:17:56.000Z</time>
      </trkpt>
      <trkpt lat="42.87206" lon="1.08254">
        <ele>897</ele>
        <time>2019-08-08T12:17:57.000Z</time>
      </trkpt>
      <trkpt lat="42.87204" lon="1.08258">
        <ele>897</ele>
        <time>2019-08-08T12:17:58.000Z</time>
      </trkpt>
      <trkpt lat="42.87203" lon="1.08261">
        <ele>897</ele>
        <time>2019-08-08T12:17:59.000Z</time>
      </trkpt>
      <trkpt lat="42.87201" lon="1.08264">
        <ele>897</ele>
        <time>2019-08-08T12:18:00.000Z</time>
      </trkpt>
      <trkpt lat="42.87199" lon="1.08268">
        <ele>897</ele>
        <time>2019-08-08T12:18:01.000Z</time>
      </trkpt>
      <trkpt lat="42.87198" lon="1.08271">
        <ele>899</ele>
        <time>2019-08-08T12:18:02.000Z</time>
      </trkpt>
      <trkpt lat="42.87196" lon="1.08275">
        <ele>899</ele>
        <time>2019-08-08T12:18:03.000Z</time>
      </trkpt>
      <trkpt lat="42.87195" lon="1.08278">
        <ele>899</ele>
        <time>2019-08-08T12:18:04.000Z</time>
      </trkpt>
      <trkpt lat="42.87193" lon="1.08281">
        <ele>899</ele>
        <time>2019-08-08T12:18:05.000Z</time>
      </trkpt>
      <trkpt lat="42.87191" lon="1.08284">
        <ele>899</ele>
        <time>2019-08-08T12:18:06.000Z</time>
      </trkpt>
      <trkpt lat="42.8719" lon="1.08288">
        <ele>899</ele>
        <time>2019-08-08T12:18:07.000Z</time>
      </trkpt>
      <trkpt lat="42.87187" lon="1.08293">
        <ele>900</ele>
        <time>2019-08-08T12:18:08.000Z</time>
      </trkpt>
      <trkpt lat="42.87186" lon="1.08294">
        <ele>900</ele>
        <time>2019-08-08T12:18:09.000Z</time>
      </trkpt>
      <trkpt lat="42.87184" lon="1.08297">
        <ele>901</ele>
        <time>2019-08-08T12:18:10.000Z</time>
      </trkpt>
      <trkpt lat="42.87183" lon="1.083">
        <ele>901</ele>
        <time>2019-08-08T12:18:11.000Z</time>
      </trkpt>
      <trkpt lat="42.87183" lon="1.083">
        <ele>901</ele>
        <time>2019-08-08T12:18:12.000Z</time>
      </trkpt>
      <trkpt lat="42.87183" lon="1.083">
        <ele>901</ele>
        <time>2019-08-08T12:18:13.000Z</time>
      </trkpt>
      <trkpt lat="42.87176" lon="1.08309">
        <ele>902</ele>
        <time>2019-08-08T12:18:14.000Z</time>
      </trkpt>
      <trkpt lat="42.87176" lon="1.08309">
        <ele>902</ele>
        <time>2019-08-08T12:18:15.000Z</time>
      </trkpt>
      <trkpt lat="42.87176" lon="1.08309">
        <ele>902</ele>
        <time>2019-08-08T12:18:16.000Z</time>
      </trkpt>
      <trkpt lat="42.8717" lon="1.08318">
        <ele>902</ele>
        <time>2019-08-08T12:18:17.000Z</time>
      </trkpt>
      <trkpt lat="42.8717" lon="1.08318">
        <ele>902</ele>
        <time>2019-08-08T12:18:18.000Z</time>
      </trkpt>
      <trkpt lat="42.8717" lon="1.08318">
        <ele>903</ele>
        <time>2019-08-08T12:18:19.000Z</time>
      </trkpt>
      <trkpt lat="42.87163" lon="1.08329">
        <ele>903</ele>
        <time>2019-08-08T12:18:20.000Z</time>
      </trkpt>
      <trkpt lat="42.87162" lon="1.08331">
        <ele>903</ele>
        <time>2019-08-08T12:18:21.000Z</time>
      </trkpt>
      <trkpt lat="42.87161" lon="1.08332">
        <ele>903</ele>
        <time>2019-08-08T12:18:22.000Z</time>
      </trkpt>
      <trkpt lat="42.8716" lon="1.08334">
        <ele>903</ele>
        <time>2019-08-08T12:18:23.000Z</time>
      </trkpt>
      <trkpt lat="42.87156" lon="1.08341">
        <ele>903</ele>
        <time>2019-08-08T12:18:24.000Z</time>
      </trkpt>
      <trkpt lat="42.87155" lon="1.08343">
        <ele>903</ele>
        <time>2019-08-08T12:18:25.000Z</time>
      </trkpt>
      <trkpt lat="42.87154" lon="1.08344">
        <ele>904</ele>
        <time>2019-08-08T12:18:26.000Z</time>
      </trkpt>
      <trkpt lat="42.87153" lon="1.08345">
        <ele>904</ele>
        <time>2019-08-08T12:18:27.000Z</time>
      </trkpt>
      <trkpt lat="42.87149" lon="1.0835">
        <ele>905</ele>
        <time>2019-08-08T12:18:28.000Z</time>
      </trkpt>
      <trkpt lat="42.87149" lon="1.0835">
        <ele>905</ele>
        <time>2019-08-08T12:18:29.000Z</time>
      </trkpt>
      <trkpt lat="42.87149" lon="1.0835">
        <ele>905</ele>
        <time>2019-08-08T12:18:30.000Z</time>
      </trkpt>
      <trkpt lat="42.87149" lon="1.0835">
        <ele>905</ele>
        <time>2019-08-08T12:18:31.000Z</time>
      </trkpt>
      <trkpt lat="42.87141" lon="1.08358">
        <ele>905</ele>
        <time>2019-08-08T12:18:32.000Z</time>
      </trkpt>
      <trkpt lat="42.87141" lon="1.08358">
        <ele>905</ele>
        <time>2019-08-08T12:18:33.000Z</time>
      </trkpt>
      <trkpt lat="42.87141" lon="1.08358">
        <ele>906</ele>
        <time>2019-08-08T12:18:34.000Z</time>
      </trkpt>
      <trkpt lat="42.87141" lon="1.08358">
        <ele>906</ele>
        <time>2019-08-08T12:18:35.000Z</time>
      </trkpt>
      <trkpt lat="42.87133" lon="1.08369">
        <ele>906</ele>
        <time>2019-08-08T12:18:36.000Z</time>
      </trkpt>
      <trkpt lat="42.87132" lon="1.0837">
        <ele>906</ele>
        <time>2019-08-08T12:18:37.000Z</time>
      </trkpt>
      <trkpt lat="42.87131" lon="1.08371">
        <ele>907</ele>
        <time>2019-08-08T12:18:38.000Z</time>
      </trkpt>
      <trkpt lat="42.8713" lon="1.08373">
        <ele>907</ele>
        <time>2019-08-08T12:18:39.000Z</time>
      </trkpt>
      <trkpt lat="42.87126" lon="1.08378">
        <ele>907</ele>
        <time>2019-08-08T12:18:40.000Z</time>
      </trkpt>
      <trkpt lat="42.87126" lon="1.08378">
        <ele>907</ele>
        <time>2019-08-08T12:18:41.000Z</time>
      </trkpt>
      <trkpt lat="42.87126" lon="1.08378">
        <ele>907</ele>
        <time>2019-08-08T12:18:42.000Z</time>
      </trkpt>
      <trkpt lat="42.87126" lon="1.08378">
        <ele>907</ele>
        <time>2019-08-08T12:18:43.000Z</time>
      </trkpt>
      <trkpt lat="42.87122" lon="1.08389">
        <ele>907</ele>
        <time>2019-08-08T12:18:44.000Z</time>
      </trkpt>
      <trkpt lat="42.87122" lon="1.08389">
        <ele>907</ele>
        <time>2019-08-08T12:18:45.000Z</time>
      </trkpt>
      <trkpt lat="42.87122" lon="1.08389">
        <ele>908</ele>
        <time>2019-08-08T12:18:46.000Z</time>
      </trkpt>
      <trkpt lat="42.87122" lon="1.08389">
        <ele>908</ele>
        <time>2019-08-08T12:18:47.000Z</time>
      </trkpt>
      <trkpt lat="42.87117" lon="1.08401">
        <ele>909</ele>
        <time>2019-08-08T12:18:48.000Z</time>
      </trkpt>
      <trkpt lat="42.87116" lon="1.08402">
        <ele>909</ele>
        <time>2019-08-08T12:18:49.000Z</time>
      </trkpt>
      <trkpt lat="42.87116" lon="1.08403">
        <ele>910</ele>
        <time>2019-08-08T12:18:50.000Z</time>
      </trkpt>
      <trkpt lat="42.87115" lon="1.08405">
        <ele>910</ele>
        <time>2019-08-08T12:18:51.000Z</time>
      </trkpt>
      <trkpt lat="42.87114" lon="1.08406">
        <ele>910</ele>
        <time>2019-08-08T12:18:52.000Z</time>
      </trkpt>
      <trkpt lat="42.8711" lon="1.08413">
        <ele>910</ele>
        <time>2019-08-08T12:18:53.000Z</time>
      </trkpt>
      <trkpt lat="42.87109" lon="1.08415">
        <ele>911</ele>
        <time>2019-08-08T12:18:54.000Z</time>
      </trkpt>
      <trkpt lat="42.87108" lon="1.08416">
        <ele>911</ele>
        <time>2019-08-08T12:18:55.000Z</time>
      </trkpt>
      <trkpt lat="42.87107" lon="1.08418">
        <ele>911</ele>
        <time>2019-08-08T12:18:56.000Z</time>
      </trkpt>
      <trkpt lat="42.87102" lon="1.08424">
        <ele>911</ele>
        <time>2019-08-08T12:18:57.000Z</time>
      </trkpt>
      <trkpt lat="42.87102" lon="1.08426">
        <ele>911</ele>
        <time>2019-08-08T12:18:58.000Z</time>
      </trkpt>
      <trkpt lat="42.87102" lon="1.08427">
        <ele>912</ele>
        <time>2019-08-08T12:18:59.000Z</time>
      </trkpt>
      <trkpt lat="42.87101" lon="1.08429">
        <ele>912</ele>
        <time>2019-08-08T12:19:00.000Z</time>
      </trkpt>
      <trkpt lat="42.87101" lon="1.0843">
        <ele>913</ele>
        <time>2019-08-08T12:19:01.000Z</time>
      </trkpt>
      <trkpt lat="42.87098" lon="1.08437">
        <ele>913</ele>
        <time>2019-08-08T12:19:02.000Z</time>
      </trkpt>
      <trkpt lat="42.87098" lon="1.08437">
        <ele>913</ele>
        <time>2019-08-08T12:19:03.000Z</time>
      </trkpt>
      <trkpt lat="42.87098" lon="1.08437">
        <ele>913</ele>
        <time>2019-08-08T12:19:04.000Z</time>
      </trkpt>
      <trkpt lat="42.87098" lon="1.08437">
        <ele>914</ele>
        <time>2019-08-08T12:19:05.000Z</time>
      </trkpt>
      <trkpt lat="42.87094" lon="1.08449">
        <ele>914</ele>
        <time>2019-08-08T12:19:06.000Z</time>
      </trkpt>
      <trkpt lat="42.87094" lon="1.08449">
        <ele>914</ele>
        <time>2019-08-08T12:19:07.000Z</time>
      </trkpt>
      <trkpt lat="42.87094" lon="1.08449">
        <ele>914</ele>
        <time>2019-08-08T12:19:08.000Z</time>
      </trkpt>
      <trkpt lat="42.87094" lon="1.08449">
        <ele>914</ele>
        <time>2019-08-08T12:19:09.000Z</time>
      </trkpt>
      <trkpt lat="42.8709" lon="1.0846">
        <ele>914</ele>
        <time>2019-08-08T12:19:10.000Z</time>
      </trkpt>
      <trkpt lat="42.8709" lon="1.0846">
        <ele>915</ele>
        <time>2019-08-08T12:19:11.000Z</time>
      </trkpt>
      <trkpt lat="42.8709" lon="1.0846">
        <ele>915</ele>
        <time>2019-08-08T12:19:12.000Z</time>
      </trkpt>
      <trkpt lat="42.8709" lon="1.0846">
        <ele>915</ele>
        <time>2019-08-08T12:19:13.000Z</time>
      </trkpt>
      <trkpt lat="42.87084" lon="1.08474">
        <ele>915</ele>
        <time>2019-08-08T12:19:14.000Z</time>
      </trkpt>
      <trkpt lat="42.87083" lon="1.08475">
        <ele>915</ele>
        <time>2019-08-08T12:19:15.000Z</time>
      </trkpt>
      <trkpt lat="42.87083" lon="1.08477">
        <ele>915</ele>
        <time>2019-08-08T12:19:16.000Z</time>
      </trkpt>
      <trkpt lat="42.87082" lon="1.08478">
        <ele>916</ele>
        <time>2019-08-08T12:19:17.000Z</time>
      </trkpt>
      <trkpt lat="42.8708" lon="1.08484">
        <ele>916</ele>
        <time>2019-08-08T12:19:18.000Z</time>
      </trkpt>
      <trkpt lat="42.8708" lon="1.08484">
        <ele>917</ele>
        <time>2019-08-08T12:19:19.000Z</time>
      </trkpt>
      <trkpt lat="42.8708" lon="1.08484">
        <ele>917</ele>
        <time>2019-08-08T12:19:20.000Z</time>
      </trkpt>
      <trkpt lat="42.8708" lon="1.08484">
        <ele>917</ele>
        <time>2019-08-08T12:19:21.000Z</time>
      </trkpt>
      <trkpt lat="42.87076" lon="1.08496">
        <ele>917</ele>
        <time>2019-08-08T12:19:22.000Z</time>
      </trkpt>
      <trkpt lat="42.87076" lon="1.08496">
        <ele>918</ele>
        <time>2019-08-08T12:19:23.000Z</time>
      </trkpt>
      <trkpt lat="42.87076" lon="1.08496">
        <ele>918</ele>
        <time>2019-08-08T12:19:24.000Z</time>
      </trkpt>
      <trkpt lat="42.87076" lon="1.08496">
        <ele>919</ele>
        <time>2019-08-08T12:19:25.000Z</time>
      </trkpt>
      <trkpt lat="42.87072" lon="1.08509">
        <ele>919</ele>
        <time>2019-08-08T12:19:26.000Z</time>
      </trkpt>
      <trkpt lat="42.87072" lon="1.08509">
        <ele>919</ele>
        <time>2019-08-08T12:19:27.000Z</time>
      </trkpt>
      <trkpt lat="42.87072" lon="1.08509">
        <ele>919</ele>
        <time>2019-08-08T12:19:28.000Z</time>
      </trkpt>
      <trkpt lat="42.87072" lon="1.08509">
        <ele>919</ele>
        <time>2019-08-08T12:19:29.000Z</time>
      </trkpt>
      <trkpt lat="42.87068" lon="1.08521">
        <ele>920</ele>
        <time>2019-08-08T12:19:30.000Z</time>
      </trkpt>
      <trkpt lat="42.87067" lon="1.08524">
        <ele>920</ele>
        <time>2019-08-08T12:19:31.000Z</time>
      </trkpt>
      <trkpt lat="42.87067" lon="1.08524">
        <ele>920</ele>
        <time>2019-08-08T12:19:32.000Z</time>
      </trkpt>
      <trkpt lat="42.87065" lon="1.08531">
        <ele>920</ele>
        <time>2019-08-08T12:19:33.000Z</time>
      </trkpt>
      <trkpt lat="42.87065" lon="1.08534">
        <ele>921</ele>
        <time>2019-08-08T12:19:34.000Z</time>
      </trkpt>
      <trkpt lat="42.87065" lon="1.08538">
        <ele>921</ele>
        <time>2019-08-08T12:19:35.000Z</time>
      </trkpt>
      <trkpt lat="42.87065" lon="1.08542">
        <ele>921</ele>
        <time>2019-08-08T12:19:36.000Z</time>
      </trkpt>
      <trkpt lat="42.87065" lon="1.08545">
        <ele>921</ele>
        <time>2019-08-08T12:19:37.000Z</time>
      </trkpt>
      <trkpt lat="42.87066" lon="1.08549">
        <ele>922</ele>
        <time>2019-08-08T12:19:38.000Z</time>
      </trkpt>
      <trkpt lat="42.87066" lon="1.08553">
        <ele>922</ele>
        <time>2019-08-08T12:19:39.000Z</time>
      </trkpt>
      <trkpt lat="42.87067" lon="1.08557">
        <ele>923</ele>
        <time>2019-08-08T12:19:40.000Z</time>
      </trkpt>
      <trkpt lat="42.87068" lon="1.08561">
        <ele>923</ele>
        <time>2019-08-08T12:19:41.000Z</time>
      </trkpt>
      <trkpt lat="42.87068" lon="1.08565">
        <ele>923</ele>
        <time>2019-08-08T12:19:42.000Z</time>
      </trkpt>
      <trkpt lat="42.87068" lon="1.08569">
        <ele>923</ele>
        <time>2019-08-08T12:19:43.000Z</time>
      </trkpt>
      <trkpt lat="42.87068" lon="1.08572">
        <ele>923</ele>
        <time>2019-08-08T12:19:44.000Z</time>
      </trkpt>
      <trkpt lat="42.87066" lon="1.08576">
        <ele>923</ele>
        <time>2019-08-08T12:19:45.000Z</time>
      </trkpt>
      <trkpt lat="42.87065" lon="1.08579">
        <ele>923</ele>
        <time>2019-08-08T12:19:46.000Z</time>
      </trkpt>
      <trkpt lat="42.87065" lon="1.08579">
        <ele>923</ele>
        <time>2019-08-08T12:19:47.000Z</time>
      </trkpt>
      <trkpt lat="42.87065" lon="1.08579">
        <ele>923</ele>
        <time>2019-08-08T12:19:48.000Z</time>
      </trkpt>
      <trkpt lat="42.87057" lon="1.08586">
        <ele>924</ele>
        <time>2019-08-08T12:19:49.000Z</time>
      </trkpt>
      <trkpt lat="42.87057" lon="1.08586">
        <ele>924</ele>
        <time>2019-08-08T12:19:50.000Z</time>
      </trkpt>
      <trkpt lat="42.87057" lon="1.08586">
        <ele>925</ele>
        <time>2019-08-08T12:19:51.000Z</time>
      </trkpt>
      <trkpt lat="42.87047" lon="1.0859">
        <ele>925</ele>
        <time>2019-08-08T12:19:52.000Z</time>
      </trkpt>
      <trkpt lat="42.87045" lon="1.0859">
        <ele>925</ele>
        <time>2019-08-08T12:19:53.000Z</time>
      </trkpt>
      <trkpt lat="42.87044" lon="1.08591">
        <ele>925</ele>
        <time>2019-08-08T12:19:54.000Z</time>
      </trkpt>
      <trkpt lat="42.87043" lon="1.08592">
        <ele>925</ele>
        <time>2019-08-08T12:19:55.000Z</time>
      </trkpt>
      <trkpt lat="42.87036" lon="1.08595">
        <ele>926</ele>
        <time>2019-08-08T12:19:56.000Z</time>
      </trkpt>
      <trkpt lat="42.87035" lon="1.08596">
        <ele>926</ele>
        <time>2019-08-08T12:19:57.000Z</time>
      </trkpt>
      <trkpt lat="42.87034" lon="1.08597">
        <ele>926</ele>
        <time>2019-08-08T12:19:58.000Z</time>
      </trkpt>
      <trkpt lat="42.87033" lon="1.08597">
        <ele>926</ele>
        <time>2019-08-08T12:19:59.000Z</time>
      </trkpt>
      <trkpt lat="42.87028" lon="1.08601">
        <ele>927</ele>
        <time>2019-08-08T12:20:00.000Z</time>
      </trkpt>
      <trkpt lat="42.87028" lon="1.08601">
        <ele>927</ele>
        <time>2019-08-08T12:20:01.000Z</time>
      </trkpt>
      <trkpt lat="42.87028" lon="1.08601">
        <ele>927</ele>
        <time>2019-08-08T12:20:02.000Z</time>
      </trkpt>
      <trkpt lat="42.87028" lon="1.08601">
        <ele>927</ele>
        <time>2019-08-08T12:20:03.000Z</time>
      </trkpt>
      <trkpt lat="42.87022" lon="1.08612">
        <ele>928</ele>
        <time>2019-08-08T12:20:04.000Z</time>
      </trkpt>
      <trkpt lat="42.87022" lon="1.08612">
        <ele>928</ele>
        <time>2019-08-08T12:20:05.000Z</time>
      </trkpt>
      <trkpt lat="42.87019" lon="1.08618">
        <ele>928</ele>
        <time>2019-08-08T12:20:06.000Z</time>
      </trkpt>
      <trkpt lat="42.87018" lon="1.08622">
        <ele>928</ele>
        <time>2019-08-08T12:20:07.000Z</time>
      </trkpt>
      <trkpt lat="42.87017" lon="1.08625">
        <ele>929</ele>
        <time>2019-08-08T12:20:08.000Z</time>
      </trkpt>
      <trkpt lat="42.87015" lon="1.08629">
        <ele>929</ele>
        <time>2019-08-08T12:20:09.000Z</time>
      </trkpt>
      <trkpt lat="42.87014" lon="1.08632">
        <ele>929</ele>
        <time>2019-08-08T12:20:10.000Z</time>
      </trkpt>
      <trkpt lat="42.87013" lon="1.08636">
        <ele>929</ele>
        <time>2019-08-08T12:20:11.000Z</time>
      </trkpt>
      <trkpt lat="42.87012" lon="1.08639">
        <ele>929</ele>
        <time>2019-08-08T12:20:12.000Z</time>
      </trkpt>
      <trkpt lat="42.87011" lon="1.08643">
        <ele>929</ele>
        <time>2019-08-08T12:20:13.000Z</time>
      </trkpt>
      <trkpt lat="42.8701" lon="1.08649">
        <ele>929</ele>
        <time>2019-08-08T12:20:14.000Z</time>
      </trkpt>
      <trkpt lat="42.87009" lon="1.08651">
        <ele>931</ele>
        <time>2019-08-08T12:20:15.000Z</time>
      </trkpt>
      <trkpt lat="42.87008" lon="1.08654">
        <ele>931</ele>
        <time>2019-08-08T12:20:16.000Z</time>
      </trkpt>
      <trkpt lat="42.87007" lon="1.08658">
        <ele>931</ele>
        <time>2019-08-08T12:20:17.000Z</time>
      </trkpt>
      <trkpt lat="42.87006" lon="1.08662">
        <ele>931</ele>
        <time>2019-08-08T12:20:18.000Z</time>
      </trkpt>
      <trkpt lat="42.87005" lon="1.08665">
        <ele>931</ele>
        <time>2019-08-08T12:20:19.000Z</time>
      </trkpt>
      <trkpt lat="42.87005" lon="1.08669">
        <ele>932</ele>
        <time>2019-08-08T12:20:20.000Z</time>
      </trkpt>
      <trkpt lat="42.87003" lon="1.08673">
        <ele>932</ele>
        <time>2019-08-08T12:20:21.000Z</time>
      </trkpt>
      <trkpt lat="42.87002" lon="1.08676">
        <ele>932</ele>
        <time>2019-08-08T12:20:22.000Z</time>
      </trkpt>
      <trkpt lat="42.87001" lon="1.0868">
        <ele>932</ele>
        <time>2019-08-08T12:20:23.000Z</time>
      </trkpt>
      <trkpt lat="42.87" lon="1.08683">
        <ele>932</ele>
        <time>2019-08-08T12:20:24.000Z</time>
      </trkpt>
      <trkpt lat="42.86998" lon="1.08687">
        <ele>932</ele>
        <time>2019-08-08T12:20:25.000Z</time>
      </trkpt>
      <trkpt lat="42.86996" lon="1.0869">
        <ele>932</ele>
        <time>2019-08-08T12:20:26.000Z</time>
      </trkpt>
      <trkpt lat="42.86994" lon="1.08693">
        <ele>932</ele>
        <time>2019-08-08T12:20:27.000Z</time>
      </trkpt>
      <trkpt lat="42.86992" lon="1.08696">
        <ele>932</ele>
        <time>2019-08-08T12:20:28.000Z</time>
      </trkpt>
      <trkpt lat="42.8699" lon="1.08699">
        <ele>933</ele>
        <time>2019-08-08T12:20:29.000Z</time>
      </trkpt>
      <trkpt lat="42.86987" lon="1.08704">
        <ele>933</ele>
        <time>2019-08-08T12:20:30.000Z</time>
      </trkpt>
      <trkpt lat="42.86986" lon="1.08705">
        <ele>933</ele>
        <time>2019-08-08T12:20:31.000Z</time>
      </trkpt>
      <trkpt lat="42.86984" lon="1.08708">
        <ele>933</ele>
        <time>2019-08-08T12:20:32.000Z</time>
      </trkpt>
      <trkpt lat="42.8698" lon="1.08712">
        <ele>933</ele>
        <time>2019-08-08T12:20:33.000Z</time>
      </trkpt>
      <trkpt lat="42.86979" lon="1.08713">
        <ele>934</ele>
        <time>2019-08-08T12:20:34.000Z</time>
      </trkpt>
      <trkpt lat="42.86978" lon="1.08715">
        <ele>934</ele>
        <time>2019-08-08T12:20:35.000Z</time>
      </trkpt>
      <trkpt lat="42.86977" lon="1.08716">
        <ele>935</ele>
        <time>2019-08-08T12:20:36.000Z</time>
      </trkpt>
      <trkpt lat="42.86972" lon="1.08723">
        <ele>935</ele>
        <time>2019-08-08T12:20:37.000Z</time>
      </trkpt>
      <trkpt lat="42.86972" lon="1.08725">
        <ele>936</ele>
        <time>2019-08-08T12:20:38.000Z</time>
      </trkpt>
      <trkpt lat="42.86971" lon="1.08726">
        <ele>936</ele>
        <time>2019-08-08T12:20:39.000Z</time>
      </trkpt>
      <trkpt lat="42.8697" lon="1.08727">
        <ele>936</ele>
        <time>2019-08-08T12:20:40.000Z</time>
      </trkpt>
      <trkpt lat="42.86966" lon="1.08733">
        <ele>936</ele>
        <time>2019-08-08T12:20:41.000Z</time>
      </trkpt>
      <trkpt lat="42.86966" lon="1.08733">
        <ele>936</ele>
        <time>2019-08-08T12:20:42.000Z</time>
      </trkpt>
      <trkpt lat="42.86966" lon="1.08733">
        <ele>936</ele>
        <time>2019-08-08T12:20:43.000Z</time>
      </trkpt>
      <trkpt lat="42.86958" lon="1.08741">
        <ele>937</ele>
        <time>2019-08-08T12:20:44.000Z</time>
      </trkpt>
      <trkpt lat="42.86958" lon="1.08741">
        <ele>937</ele>
        <time>2019-08-08T12:20:45.000Z</time>
      </trkpt>
      <trkpt lat="42.86958" lon="1.08741">
        <ele>938</ele>
        <time>2019-08-08T12:20:46.000Z</time>
      </trkpt>
      <trkpt lat="42.86955" lon="1.08756">
        <ele>938</ele>
        <time>2019-08-08T12:20:47.000Z</time>
      </trkpt>
      <trkpt lat="42.86955" lon="1.08758">
        <ele>938</ele>
        <time>2019-08-08T12:20:48.000Z</time>
      </trkpt>
      <trkpt lat="42.86955" lon="1.08761">
        <ele>938</ele>
        <time>2019-08-08T12:20:49.000Z</time>
      </trkpt>
      <trkpt lat="42.86954" lon="1.08768">
        <ele>938</ele>
        <time>2019-08-08T12:20:50.000Z</time>
      </trkpt>
      <trkpt lat="42.86954" lon="1.08768">
        <ele>939</ele>
        <time>2019-08-08T12:20:51.000Z</time>
      </trkpt>
      <trkpt lat="42.86954" lon="1.08768">
        <ele>939</ele>
        <time>2019-08-08T12:20:52.000Z</time>
      </trkpt>
      <trkpt lat="42.86952" lon="1.0878">
        <ele>939</ele>
        <time>2019-08-08T12:20:53.000Z</time>
      </trkpt>
      <trkpt lat="42.86952" lon="1.0878">
        <ele>939</ele>
        <time>2019-08-08T12:20:54.000Z</time>
      </trkpt>
      <trkpt lat="42.86952" lon="1.0878">
        <ele>939</ele>
        <time>2019-08-08T12:20:55.000Z</time>
      </trkpt>
      <trkpt lat="42.86949" lon="1.08792">
        <ele>939</ele>
        <time>2019-08-08T12:20:56.000Z</time>
      </trkpt>
      <trkpt lat="42.86949" lon="1.08792">
        <ele>939</ele>
        <time>2019-08-08T12:20:57.000Z</time>
      </trkpt>
      <trkpt lat="42.86949" lon="1.08792">
        <ele>939</ele>
        <time>2019-08-08T12:20:58.000Z</time>
      </trkpt>
      <trkpt lat="42.86946" lon="1.08805">
        <ele>939</ele>
        <time>2019-08-08T12:20:59.000Z</time>
      </trkpt>
      <trkpt lat="42.86946" lon="1.08805">
        <ele>939</ele>
        <time>2019-08-08T12:21:00.000Z</time>
      </trkpt>
      <trkpt lat="42.86946" lon="1.08805">
        <ele>940</ele>
        <time>2019-08-08T12:21:01.000Z</time>
      </trkpt>
      <trkpt lat="42.86942" lon="1.08819">
        <ele>940</ele>
        <time>2019-08-08T12:21:02.000Z</time>
      </trkpt>
      <trkpt lat="42.86941" lon="1.08822">
        <ele>940</ele>
        <time>2019-08-08T12:21:03.000Z</time>
      </trkpt>
      <trkpt lat="42.8694" lon="1.08825">
        <ele>940</ele>
        <time>2019-08-08T12:21:04.000Z</time>
      </trkpt>
      <trkpt lat="42.86939" lon="1.08827">
        <ele>940</ele>
        <time>2019-08-08T12:21:05.000Z</time>
      </trkpt>
      <trkpt lat="42.86938" lon="1.0883">
        <ele>940</ele>
        <time>2019-08-08T12:21:06.000Z</time>
      </trkpt>
      <trkpt lat="42.86937" lon="1.08832">
        <ele>941</ele>
        <time>2019-08-08T12:21:07.000Z</time>
      </trkpt>
      <trkpt lat="42.86936" lon="1.08834">
        <ele>941</ele>
        <time>2019-08-08T12:21:08.000Z</time>
      </trkpt>
      <trkpt lat="42.86931" lon="1.08841">
        <ele>942</ele>
        <time>2019-08-08T12:21:09.000Z</time>
      </trkpt>
      <trkpt lat="42.8693" lon="1.08842">
        <ele>942</ele>
        <time>2019-08-08T12:21:10.000Z</time>
      </trkpt>
      <trkpt lat="42.86928" lon="1.08843">
        <ele>942</ele>
        <time>2019-08-08T12:21:11.000Z</time>
      </trkpt>
      <trkpt lat="42.86927" lon="1.08844">
        <ele>942</ele>
        <time>2019-08-08T12:21:12.000Z</time>
      </trkpt>
      <trkpt lat="42.86921" lon="1.08849">
        <ele>942</ele>
        <time>2019-08-08T12:21:13.000Z</time>
      </trkpt>
      <trkpt lat="42.86919" lon="1.0885">
        <ele>942</ele>
        <time>2019-08-08T12:21:14.000Z</time>
      </trkpt>
      <trkpt lat="42.86918" lon="1.08851">
        <ele>942</ele>
        <time>2019-08-08T12:21:15.000Z</time>
      </trkpt>
      <trkpt lat="42.86917" lon="1.08852">
        <ele>942</ele>
        <time>2019-08-08T12:21:16.000Z</time>
      </trkpt>
      <trkpt lat="42.8691" lon="1.08857">
        <ele>943</ele>
        <time>2019-08-08T12:21:17.000Z</time>
      </trkpt>
      <trkpt lat="42.86909" lon="1.08858">
        <ele>943</ele>
        <time>2019-08-08T12:21:18.000Z</time>
      </trkpt>
      <trkpt lat="42.86908" lon="1.08859">
        <ele>943</ele>
        <time>2019-08-08T12:21:19.000Z</time>
      </trkpt>
      <trkpt lat="42.86907" lon="1.0886">
        <ele>943</ele>
        <time>2019-08-08T12:21:20.000Z</time>
      </trkpt>
      <trkpt lat="42.86901" lon="1.08867">
        <ele>944</ele>
        <time>2019-08-08T12:21:21.000Z</time>
      </trkpt>
      <trkpt lat="42.869" lon="1.08868">
        <ele>944</ele>
        <time>2019-08-08T12:21:22.000Z</time>
      </trkpt>
      <trkpt lat="42.86899" lon="1.08869">
        <ele>944</ele>
        <time>2019-08-08T12:21:23.000Z</time>
      </trkpt>
      <trkpt lat="42.86898" lon="1.0887">
        <ele>944</ele>
        <time>2019-08-08T12:21:24.000Z</time>
      </trkpt>
      <trkpt lat="42.86892" lon="1.08876">
        <ele>945</ele>
        <time>2019-08-08T12:21:25.000Z</time>
      </trkpt>
      <trkpt lat="42.86891" lon="1.08877">
        <ele>945</ele>
        <time>2019-08-08T12:21:26.000Z</time>
      </trkpt>
      <trkpt lat="42.86889" lon="1.08878">
        <ele>945</ele>
        <time>2019-08-08T12:21:27.000Z</time>
      </trkpt>
      <trkpt lat="42.86888" lon="1.0888">
        <ele>945</ele>
        <time>2019-08-08T12:21:28.000Z</time>
      </trkpt>
      <trkpt lat="42.86882" lon="1.08885">
        <ele>945</ele>
        <time>2019-08-08T12:21:29.000Z</time>
      </trkpt>
      <trkpt lat="42.86881" lon="1.08886">
        <ele>946</ele>
        <time>2019-08-08T12:21:30.000Z</time>
      </trkpt>
      <trkpt lat="42.86879" lon="1.08887">
        <ele>946</ele>
        <time>2019-08-08T12:21:31.000Z</time>
      </trkpt>
      <trkpt lat="42.86878" lon="1.08888">
        <ele>947</ele>
        <time>2019-08-08T12:21:32.000Z</time>
      </trkpt>
      <trkpt lat="42.86873" lon="1.08892">
        <ele>947</ele>
        <time>2019-08-08T12:21:33.000Z</time>
      </trkpt>
      <trkpt lat="42.86873" lon="1.08892">
        <ele>948</ele>
        <time>2019-08-08T12:21:34.000Z</time>
      </trkpt>
      <trkpt lat="42.86873" lon="1.08892">
        <ele>948</ele>
        <time>2019-08-08T12:21:35.000Z</time>
      </trkpt>
      <trkpt lat="42.86865" lon="1.08899">
        <ele>948</ele>
        <time>2019-08-08T12:21:36.000Z</time>
      </trkpt>
      <trkpt lat="42.86865" lon="1.08899">
        <ele>948</ele>
        <time>2019-08-08T12:21:37.000Z</time>
      </trkpt>
      <trkpt lat="42.86865" lon="1.08899">
        <ele>948</ele>
        <time>2019-08-08T12:21:38.000Z</time>
      </trkpt>
      <trkpt lat="42.86856" lon="1.08905">
        <ele>948</ele>
        <time>2019-08-08T12:21:39.000Z</time>
      </trkpt>
      <trkpt lat="42.86856" lon="1.08905">
        <ele>948</ele>
        <time>2019-08-08T12:21:40.000Z</time>
      </trkpt>
      <trkpt lat="42.86856" lon="1.08905">
        <ele>948</ele>
        <time>2019-08-08T12:21:41.000Z</time>
      </trkpt>
      <trkpt lat="42.86848" lon="1.08912">
        <ele>949</ele>
        <time>2019-08-08T12:21:42.000Z</time>
      </trkpt>
      <trkpt lat="42.86848" lon="1.08912">
        <ele>949</ele>
        <time>2019-08-08T12:21:43.000Z</time>
      </trkpt>
      <trkpt lat="42.86848" lon="1.08912">
        <ele>950</ele>
        <time>2019-08-08T12:21:44.000Z</time>
      </trkpt>
      <trkpt lat="42.8684" lon="1.08919">
        <ele>950</ele>
        <time>2019-08-08T12:21:45.000Z</time>
      </trkpt>
      <trkpt lat="42.8684" lon="1.08919">
        <ele>950</ele>
        <time>2019-08-08T12:21:46.000Z</time>
      </trkpt>
      <trkpt lat="42.8684" lon="1.08919">
        <ele>950</ele>
        <time>2019-08-08T12:21:47.000Z</time>
      </trkpt>
      <trkpt lat="42.86832" lon="1.08927">
        <ele>950</ele>
        <time>2019-08-08T12:21:48.000Z</time>
      </trkpt>
      <trkpt lat="42.8683" lon="1.08929">
        <ele>950</ele>
        <time>2019-08-08T12:21:49.000Z</time>
      </trkpt>
      <trkpt lat="42.86827" lon="1.08932">
        <ele>950</ele>
        <time>2019-08-08T12:21:50.000Z</time>
      </trkpt>
      <trkpt lat="42.86825" lon="1.08935">
        <ele>951</ele>
        <time>2019-08-08T12:21:51.000Z</time>
      </trkpt>
      <trkpt lat="42.86823" lon="1.08938">
        <ele>951</ele>
        <time>2019-08-08T12:21:52.000Z</time>
      </trkpt>
      <trkpt lat="42.86823" lon="1.08938">
        <ele>951</ele>
        <time>2019-08-08T12:21:53.000Z</time>
      </trkpt>
      <trkpt lat="42.86819" lon="1.08944">
        <ele>951</ele>
        <time>2019-08-08T12:21:54.000Z</time>
      </trkpt>
      <trkpt lat="42.86819" lon="1.08944">
        <ele>952</ele>
        <time>2019-08-08T12:21:55.000Z</time>
      </trkpt>
      <trkpt lat="42.86814" lon="1.08949">
        <ele>952</ele>
        <time>2019-08-08T12:21:56.000Z</time>
      </trkpt>
      <trkpt lat="42.86814" lon="1.08949">
        <ele>952</ele>
        <time>2019-08-08T12:21:57.000Z</time>
      </trkpt>
      <trkpt lat="42.86814" lon="1.08949">
        <ele>952</ele>
        <time>2019-08-08T12:21:58.000Z</time>
      </trkpt>
      <trkpt lat="42.86807" lon="1.08957">
        <ele>953</ele>
        <time>2019-08-08T12:21:59.000Z</time>
      </trkpt>
      <trkpt lat="42.86805" lon="1.08959">
        <ele>953</ele>
        <time>2019-08-08T12:22:00.000Z</time>
      </trkpt>
      <trkpt lat="42.86802" lon="1.08962">
        <ele>953</ele>
        <time>2019-08-08T12:22:01.000Z</time>
      </trkpt>
      <trkpt lat="42.868" lon="1.08964">
        <ele>953</ele>
        <time>2019-08-08T12:22:02.000Z</time>
      </trkpt>
      <trkpt lat="42.86798" lon="1.08967">
        <ele>953</ele>
        <time>2019-08-08T12:22:03.000Z</time>
      </trkpt>
      <trkpt lat="42.86795" lon="1.08969">
        <ele>953</ele>
        <time>2019-08-08T12:22:04.000Z</time>
      </trkpt>
      <trkpt lat="42.86793" lon="1.08972">
        <ele>953</ele>
        <time>2019-08-08T12:22:05.000Z</time>
      </trkpt>
      <trkpt lat="42.8679" lon="1.08974">
        <ele>953</ele>
        <time>2019-08-08T12:22:06.000Z</time>
      </trkpt>
      <trkpt lat="42.86788" lon="1.08976">
        <ele>955</ele>
        <time>2019-08-08T12:22:07.000Z</time>
      </trkpt>
      <trkpt lat="42.86785" lon="1.08979">
        <ele>955</ele>
        <time>2019-08-08T12:22:08.000Z</time>
      </trkpt>
      <trkpt lat="42.86783" lon="1.08981">
        <ele>956</ele>
        <time>2019-08-08T12:22:09.000Z</time>
      </trkpt>
      <trkpt lat="42.86781" lon="1.08984">
        <ele>956</ele>
        <time>2019-08-08T12:22:10.000Z</time>
      </trkpt>
      <trkpt lat="42.86779" lon="1.08987">
        <ele>956</ele>
        <time>2019-08-08T12:22:11.000Z</time>
      </trkpt>
      <trkpt lat="42.86776" lon="1.08989">
        <ele>956</ele>
        <time>2019-08-08T12:22:12.000Z</time>
      </trkpt>
      <trkpt lat="42.86774" lon="1.08992">
        <ele>956</ele>
        <time>2019-08-08T12:22:13.000Z</time>
      </trkpt>
      <trkpt lat="42.86774" lon="1.08992">
        <ele>956</ele>
        <time>2019-08-08T12:22:14.000Z</time>
      </trkpt>
      <trkpt lat="42.8677" lon="1.08998">
        <ele>957</ele>
        <time>2019-08-08T12:22:15.000Z</time>
      </trkpt>
      <trkpt lat="42.86768" lon="1.09001">
        <ele>957</ele>
        <time>2019-08-08T12:22:16.000Z</time>
      </trkpt>
      <trkpt lat="42.86768" lon="1.09001">
        <ele>957</ele>
        <time>2019-08-08T12:22:17.000Z</time>
      </trkpt>
      <trkpt lat="42.86763" lon="1.09008">
        <ele>957</ele>
        <time>2019-08-08T12:22:18.000Z</time>
      </trkpt>
      <trkpt lat="42.86762" lon="1.0901">
        <ele>957</ele>
        <time>2019-08-08T12:22:19.000Z</time>
      </trkpt>
      <trkpt lat="42.86761" lon="1.09011">
        <ele>957</ele>
        <time>2019-08-08T12:22:20.000Z</time>
      </trkpt>
      <trkpt lat="42.86761" lon="1.09013">
        <ele>958</ele>
        <time>2019-08-08T12:22:21.000Z</time>
      </trkpt>
      <trkpt lat="42.86757" lon="1.09019">
        <ele>958</ele>
        <time>2019-08-08T12:22:22.000Z</time>
      </trkpt>
      <trkpt lat="42.86757" lon="1.09019">
        <ele>959</ele>
        <time>2019-08-08T12:22:23.000Z</time>
      </trkpt>
      <trkpt lat="42.86757" lon="1.09019">
        <ele>959</ele>
        <time>2019-08-08T12:22:24.000Z</time>
      </trkpt>
      <trkpt lat="42.86748" lon="1.09027">
        <ele>959</ele>
        <time>2019-08-08T12:22:25.000Z</time>
      </trkpt>
      <trkpt lat="42.86747" lon="1.09029">
        <ele>959</ele>
        <time>2019-08-08T12:22:26.000Z</time>
      </trkpt>
      <trkpt lat="42.86746" lon="1.0903">
        <ele>959</ele>
        <time>2019-08-08T12:22:27.000Z</time>
      </trkpt>
      <trkpt lat="42.86745" lon="1.09031">
        <ele>959</ele>
        <time>2019-08-08T12:22:28.000Z</time>
      </trkpt>
      <trkpt lat="42.86741" lon="1.09036">
        <ele>959</ele>
        <time>2019-08-08T12:22:29.000Z</time>
      </trkpt>
      <trkpt lat="42.86741" lon="1.09036">
        <ele>959</ele>
        <time>2019-08-08T12:22:30.000Z</time>
      </trkpt>
      <trkpt lat="42.86741" lon="1.09036">
        <ele>960</ele>
        <time>2019-08-08T12:22:31.000Z</time>
      </trkpt>
      <trkpt lat="42.86735" lon="1.09043">
        <ele>960</ele>
        <time>2019-08-08T12:22:32.000Z</time>
      </trkpt>
      <trkpt lat="42.86733" lon="1.09046">
        <ele>960</ele>
        <time>2019-08-08T12:22:33.000Z</time>
      </trkpt>
      <trkpt lat="42.86731" lon="1.09048">
        <ele>960</ele>
        <time>2019-08-08T12:22:34.000Z</time>
      </trkpt>
      <trkpt lat="42.8673" lon="1.09051">
        <ele>961</ele>
        <time>2019-08-08T12:22:35.000Z</time>
      </trkpt>
      <trkpt lat="42.86728" lon="1.09054">
        <ele>961</ele>
        <time>2019-08-08T12:22:36.000Z</time>
      </trkpt>
      <trkpt lat="42.86726" lon="1.09056">
        <ele>961</ele>
        <time>2019-08-08T12:22:37.000Z</time>
      </trkpt>
      <trkpt lat="42.86724" lon="1.09059">
        <ele>961</ele>
        <time>2019-08-08T12:22:38.000Z</time>
      </trkpt>
      <trkpt lat="42.86722" lon="1.09061">
        <ele>962</ele>
        <time>2019-08-08T12:22:39.000Z</time>
      </trkpt>
      <trkpt lat="42.8672" lon="1.09063">
        <ele>962</ele>
        <time>2019-08-08T12:22:40.000Z</time>
      </trkpt>
      <trkpt lat="42.86718" lon="1.09066">
        <ele>962</ele>
        <time>2019-08-08T12:22:41.000Z</time>
      </trkpt>
      <trkpt lat="42.86716" lon="1.09068">
        <ele>962</ele>
        <time>2019-08-08T12:22:42.000Z</time>
      </trkpt>
      <trkpt lat="42.86714" lon="1.09071">
        <ele>963</ele>
        <time>2019-08-08T12:22:43.000Z</time>
      </trkpt>
      <trkpt lat="42.86712" lon="1.09076">
        <ele>963</ele>
        <time>2019-08-08T12:22:44.000Z</time>
      </trkpt>
      <trkpt lat="42.86711" lon="1.09078">
        <ele>963</ele>
        <time>2019-08-08T12:22:45.000Z</time>
      </trkpt>
      <trkpt lat="42.8671" lon="1.09079">
        <ele>963</ele>
        <time>2019-08-08T12:22:46.000Z</time>
      </trkpt>
      <trkpt lat="42.8671" lon="1.09081">
        <ele>963</ele>
        <time>2019-08-08T12:22:47.000Z</time>
      </trkpt>
      <trkpt lat="42.86707" lon="1.09087">
        <ele>964</ele>
        <time>2019-08-08T12:22:48.000Z</time>
      </trkpt>
      <trkpt lat="42.86707" lon="1.09087">
        <ele>964</ele>
        <time>2019-08-08T12:22:49.000Z</time>
      </trkpt>
      <trkpt lat="42.86707" lon="1.09087">
        <ele>964</ele>
        <time>2019-08-08T12:22:50.000Z</time>
      </trkpt>
      <trkpt lat="42.86707" lon="1.09087">
        <ele>964</ele>
        <time>2019-08-08T12:22:51.000Z</time>
      </trkpt>
      <trkpt lat="42.86699" lon="1.09098">
        <ele>964</ele>
        <time>2019-08-08T12:22:52.000Z</time>
      </trkpt>
      <trkpt lat="42.86698" lon="1.09099">
        <ele>965</ele>
        <time>2019-08-08T12:22:53.000Z</time>
      </trkpt>
      <trkpt lat="42.86697" lon="1.09101">
        <ele>965</ele>
        <time>2019-08-08T12:22:54.000Z</time>
      </trkpt>
      <trkpt lat="42.86696" lon="1.09102">
        <ele>965</ele>
        <time>2019-08-08T12:22:55.000Z</time>
      </trkpt>
      <trkpt lat="42.86693" lon="1.09107">
        <ele>965</ele>
        <time>2019-08-08T12:22:56.000Z</time>
      </trkpt>
      <trkpt lat="42.86693" lon="1.09107">
        <ele>965</ele>
        <time>2019-08-08T12:22:57.000Z</time>
      </trkpt>
      <trkpt lat="42.86693" lon="1.09107">
        <ele>965</ele>
        <time>2019-08-08T12:22:58.000Z</time>
      </trkpt>
      <trkpt lat="42.86693" lon="1.09107">
        <ele>966</ele>
        <time>2019-08-08T12:22:59.000Z</time>
      </trkpt>
      <trkpt lat="42.86687" lon="1.09121">
        <ele>966</ele>
        <time>2019-08-08T12:23:00.000Z</time>
      </trkpt>
      <trkpt lat="42.86686" lon="1.09122">
        <ele>967</ele>
        <time>2019-08-08T12:23:01.000Z</time>
      </trkpt>
      <trkpt lat="42.86685" lon="1.09123">
        <ele>967</ele>
        <time>2019-08-08T12:23:02.000Z</time>
      </trkpt>
      <trkpt lat="42.86684" lon="1.09125">
        <ele>967</ele>
        <time>2019-08-08T12:23:03.000Z</time>
      </trkpt>
      <trkpt lat="42.8668" lon="1.0913">
        <ele>967</ele>
        <time>2019-08-08T12:23:04.000Z</time>
      </trkpt>
      <trkpt lat="42.8668" lon="1.0913">
        <ele>967</ele>
        <time>2019-08-08T12:23:05.000Z</time>
      </trkpt>
      <trkpt lat="42.8668" lon="1.0913">
        <ele>968</ele>
        <time>2019-08-08T12:23:06.000Z</time>
      </trkpt>
      <trkpt lat="42.86671" lon="1.09137">
        <ele>968</ele>
        <time>2019-08-08T12:23:07.000Z</time>
      </trkpt>
      <trkpt lat="42.8667" lon="1.09139">
        <ele>968</ele>
        <time>2019-08-08T12:23:08.000Z</time>
      </trkpt>
      <trkpt lat="42.86669" lon="1.0914">
        <ele>968</ele>
        <time>2019-08-08T12:23:09.000Z</time>
      </trkpt>
      <trkpt lat="42.86668" lon="1.09141">
        <ele>969</ele>
        <time>2019-08-08T12:23:10.000Z</time>
      </trkpt>
      <trkpt lat="42.86663" lon="1.09146">
        <ele>969</ele>
        <time>2019-08-08T12:23:11.000Z</time>
      </trkpt>
      <trkpt lat="42.86663" lon="1.09146">
        <ele>970</ele>
        <time>2019-08-08T12:23:12.000Z</time>
      </trkpt>
      <trkpt lat="42.86663" lon="1.09146">
        <ele>970</ele>
        <time>2019-08-08T12:23:13.000Z</time>
      </trkpt>
      <trkpt lat="42.86663" lon="1.09146">
        <ele>971</ele>
        <time>2019-08-08T12:23:14.000Z</time>
      </trkpt>
      <trkpt lat="42.86658" lon="1.09156">
        <ele>971</ele>
        <time>2019-08-08T12:23:15.000Z</time>
      </trkpt>
      <trkpt lat="42.86658" lon="1.09156">
        <ele>971</ele>
        <time>2019-08-08T12:23:16.000Z</time>
      </trkpt>
      <trkpt lat="42.86658" lon="1.09156">
        <ele>971</ele>
        <time>2019-08-08T12:23:17.000Z</time>
      </trkpt>
      <trkpt lat="42.86658" lon="1.09156">
        <ele>971</ele>
        <time>2019-08-08T12:23:18.000Z</time>
      </trkpt>
      <trkpt lat="42.8665" lon="1.09166">
        <ele>972</ele>
        <time>2019-08-08T12:23:19.000Z</time>
      </trkpt>
      <trkpt lat="42.86649" lon="1.09167">
        <ele>972</ele>
        <time>2019-08-08T12:23:20.000Z</time>
      </trkpt>
      <trkpt lat="42.86648" lon="1.09168">
        <ele>972</ele>
        <time>2019-08-08T12:23:21.000Z</time>
      </trkpt>
      <trkpt lat="42.86647" lon="1.09169">
        <ele>972</ele>
        <time>2019-08-08T12:23:22.000Z</time>
      </trkpt>
      <trkpt lat="42.86643" lon="1.09174">
        <ele>972</ele>
        <time>2019-08-08T12:23:23.000Z</time>
      </trkpt>
      <trkpt lat="42.86643" lon="1.09174">
        <ele>973</ele>
        <time>2019-08-08T12:23:24.000Z</time>
      </trkpt>
      <trkpt lat="42.86643" lon="1.09174">
        <ele>973</ele>
        <time>2019-08-08T12:23:25.000Z</time>
      </trkpt>
      <trkpt lat="42.86643" lon="1.09174">
        <ele>973</ele>
        <time>2019-08-08T12:23:26.000Z</time>
      </trkpt>
      <trkpt lat="42.86636" lon="1.09186">
        <ele>974</ele>
        <time>2019-08-08T12:23:27.000Z</time>
      </trkpt>
      <trkpt lat="42.86636" lon="1.09188">
        <ele>974</ele>
        <time>2019-08-08T12:23:28.000Z</time>
      </trkpt>
      <trkpt lat="42.86635" lon="1.09189">
        <ele>974</ele>
        <time>2019-08-08T12:23:29.000Z</time>
      </trkpt>
      <trkpt lat="42.86634" lon="1.0919">
        <ele>974</ele>
        <time>2019-08-08T12:23:30.000Z</time>
      </trkpt>
      <trkpt lat="42.8663" lon="1.09195">
        <ele>975</ele>
        <time>2019-08-08T12:23:31.000Z</time>
      </trkpt>
      <trkpt lat="42.8663" lon="1.09195">
        <ele>975</ele>
        <time>2019-08-08T12:23:32.000Z</time>
      </trkpt>
      <trkpt lat="42.8663" lon="1.09195">
        <ele>975</ele>
        <time>2019-08-08T12:23:33.000Z</time>
      </trkpt>
      <trkpt lat="42.8663" lon="1.09195">
        <ele>976</ele>
        <time>2019-08-08T12:23:34.000Z</time>
      </trkpt>
      <trkpt lat="42.86624" lon="1.09205">
        <ele>977</ele>
        <time>2019-08-08T12:23:35.000Z</time>
      </trkpt>
      <trkpt lat="42.86624" lon="1.09205">
        <ele>978</ele>
        <time>2019-08-08T12:23:36.000Z</time>
      </trkpt>
      <trkpt lat="42.86624" lon="1.09205">
        <ele>978</ele>
        <time>2019-08-08T12:23:37.000Z</time>
      </trkpt>
      <trkpt lat="42.86624" lon="1.09205">
        <ele>978</ele>
        <time>2019-08-08T12:23:38.000Z</time>
      </trkpt>
      <trkpt lat="42.86619" lon="1.09216">
        <ele>978</ele>
        <time>2019-08-08T12:23:39.000Z</time>
      </trkpt>
      <trkpt lat="42.86619" lon="1.09216">
        <ele>978</ele>
        <time>2019-08-08T12:23:40.000Z</time>
      </trkpt>
      <trkpt lat="42.86619" lon="1.09216">
        <ele>978</ele>
        <time>2019-08-08T12:23:41.000Z</time>
      </trkpt>
      <trkpt lat="42.86619" lon="1.09216">
        <ele>978</ele>
        <time>2019-08-08T12:23:42.000Z</time>
      </trkpt>
      <trkpt lat="42.86613" lon="1.09226">
        <ele>978</ele>
        <time>2019-08-08T12:23:43.000Z</time>
      </trkpt>
      <trkpt lat="42.86613" lon="1.09226">
        <ele>978</ele>
        <time>2019-08-08T12:23:44.000Z</time>
      </trkpt>
      <trkpt lat="42.86613" lon="1.09226">
        <ele>978</ele>
        <time>2019-08-08T12:23:45.000Z</time>
      </trkpt>
      <trkpt lat="42.86613" lon="1.09226">
        <ele>978</ele>
        <time>2019-08-08T12:23:46.000Z</time>
      </trkpt>
      <trkpt lat="42.86607" lon="1.09235">
        <ele>979</ele>
        <time>2019-08-08T12:23:47.000Z</time>
      </trkpt>
      <trkpt lat="42.86607" lon="1.09235">
        <ele>979</ele>
        <time>2019-08-08T12:23:48.000Z</time>
      </trkpt>
      <trkpt lat="42.86607" lon="1.09235">
        <ele>980</ele>
        <time>2019-08-08T12:23:49.000Z</time>
      </trkpt>
      <trkpt lat="42.86601" lon="1.09242">
        <ele>980</ele>
        <time>2019-08-08T12:23:50.000Z</time>
      </trkpt>
      <trkpt lat="42.86601" lon="1.09242">
        <ele>980</ele>
        <time>2019-08-08T12:23:51.000Z</time>
      </trkpt>
      <trkpt lat="42.86596" lon="1.09247">
        <ele>980</ele>
        <time>2019-08-08T12:23:52.000Z</time>
      </trkpt>
      <trkpt lat="42.86596" lon="1.09247">
        <ele>981</ele>
        <time>2019-08-08T12:23:53.000Z</time>
      </trkpt>
      <trkpt lat="42.86591" lon="1.09251">
        <ele>981</ele>
        <time>2019-08-08T12:23:54.000Z</time>
      </trkpt>
      <trkpt lat="42.86589" lon="1.09254">
        <ele>981</ele>
        <time>2019-08-08T12:23:55.000Z</time>
      </trkpt>
      <trkpt lat="42.86587" lon="1.09256">
        <ele>981</ele>
        <time>2019-08-08T12:23:56.000Z</time>
      </trkpt>
      <trkpt lat="42.86584" lon="1.09258">
        <ele>982</ele>
        <time>2019-08-08T12:23:57.000Z</time>
      </trkpt>
      <trkpt lat="42.86582" lon="1.0926">
        <ele>982</ele>
        <time>2019-08-08T12:23:58.000Z</time>
      </trkpt>
      <trkpt lat="42.86579" lon="1.09261">
        <ele>982</ele>
        <time>2019-08-08T12:23:59.000Z</time>
      </trkpt>
      <trkpt lat="42.86577" lon="1.09263">
        <ele>982</ele>
        <time>2019-08-08T12:24:00.000Z</time>
      </trkpt>
      <trkpt lat="42.86574" lon="1.09265">
        <ele>982</ele>
        <time>2019-08-08T12:24:01.000Z</time>
      </trkpt>
      <trkpt lat="42.86572" lon="1.09267">
        <ele>983</ele>
        <time>2019-08-08T12:24:02.000Z</time>
      </trkpt>
      <trkpt lat="42.86569" lon="1.09269">
        <ele>983</ele>
        <time>2019-08-08T12:24:03.000Z</time>
      </trkpt>
      <trkpt lat="42.86566" lon="1.0927">
        <ele>984</ele>
        <time>2019-08-08T12:24:04.000Z</time>
      </trkpt>
      <trkpt lat="42.86563" lon="1.09271">
        <ele>984</ele>
        <time>2019-08-08T12:24:05.000Z</time>
      </trkpt>
      <trkpt lat="42.8656" lon="1.09272">
        <ele>984</ele>
        <time>2019-08-08T12:24:06.000Z</time>
      </trkpt>
      <trkpt lat="42.86557" lon="1.09274">
        <ele>984</ele>
        <time>2019-08-08T12:24:07.000Z</time>
      </trkpt>
      <trkpt lat="42.86555" lon="1.09275">
        <ele>984.4</ele>
        <time>2019-08-08T12:24:08.000Z</time>
      </trkpt>
      <trkpt lat="42.86551" lon="1.09276">
        <ele>985</ele>
        <time>2019-08-08T12:24:09.000Z</time>
      </trkpt>
      <trkpt lat="42.8655" lon="1.09277">
        <ele>985</ele>
        <time>2019-08-08T12:24:10.000Z</time>
      </trkpt>
      <trkpt lat="42.86549" lon="1.09277">
        <ele>985</ele>
        <time>2019-08-08T12:24:11.000Z</time>
      </trkpt>
      <trkpt lat="42.86547" lon="1.09277">
        <ele>985</ele>
        <time>2019-08-08T12:24:12.000Z</time>
      </trkpt>
      <trkpt lat="42.86542" lon="1.09277">
        <ele>985</ele>
        <time>2019-08-08T12:24:13.000Z</time>
      </trkpt>
      <trkpt lat="42.86542" lon="1.09277">
        <ele>985</ele>
        <time>2019-08-08T12:24:14.000Z</time>
      </trkpt>
      <trkpt lat="42.86542" lon="1.09277">
        <ele>985</ele>
        <time>2019-08-08T12:24:15.000Z</time>
      </trkpt>
      <trkpt lat="42.86542" lon="1.09277">
        <ele>985</ele>
        <time>2019-08-08T12:24:16.000Z</time>
      </trkpt>
      <trkpt lat="42.86533" lon="1.0927">
        <ele>985</ele>
        <time>2019-08-08T12:24:17.000Z</time>
      </trkpt>
      <trkpt lat="42.86532" lon="1.09268">
        <ele>985</ele>
        <time>2019-08-08T12:24:18.000Z</time>
      </trkpt>
      <trkpt lat="42.86531" lon="1.09265">
        <ele>985</ele>
        <time>2019-08-08T12:24:19.000Z</time>
      </trkpt>
      <trkpt lat="42.86529" lon="1.09259">
        <ele>985</ele>
        <time>2019-08-08T12:24:20.000Z</time>
      </trkpt>
      <trkpt lat="42.86529" lon="1.09259">
        <ele>985</ele>
        <time>2019-08-08T12:24:21.000Z</time>
      </trkpt>
      <trkpt lat="42.86529" lon="1.09259">
        <ele>986</ele>
        <time>2019-08-08T12:24:22.000Z</time>
      </trkpt>
      <trkpt lat="42.86529" lon="1.09243">
        <ele>986</ele>
        <time>2019-08-08T12:24:23.000Z</time>
      </trkpt>
      <trkpt lat="42.86529" lon="1.0924">
        <ele>986</ele>
        <time>2019-08-08T12:24:24.000Z</time>
      </trkpt>
      <trkpt lat="42.86528" lon="1.09237">
        <ele>986</ele>
        <time>2019-08-08T12:24:25.000Z</time>
      </trkpt>
      <trkpt lat="42.86529" lon="1.09233">
        <ele>986</ele>
        <time>2019-08-08T12:24:26.000Z</time>
      </trkpt>
      <trkpt lat="42.86528" lon="1.09229">
        <ele>987</ele>
        <time>2019-08-08T12:24:27.000Z</time>
      </trkpt>
      <trkpt lat="42.86528" lon="1.09225">
        <ele>987</ele>
        <time>2019-08-08T12:24:28.000Z</time>
      </trkpt>
      <trkpt lat="42.86528" lon="1.09221">
        <ele>988</ele>
        <time>2019-08-08T12:24:29.000Z</time>
      </trkpt>
      <trkpt lat="42.86527" lon="1.09217">
        <ele>988</ele>
        <time>2019-08-08T12:24:30.000Z</time>
      </trkpt>
      <trkpt lat="42.86527" lon="1.09213">
        <ele>989</ele>
        <time>2019-08-08T12:24:31.000Z</time>
      </trkpt>
      <trkpt lat="42.86526" lon="1.0921">
        <ele>989</ele>
        <time>2019-08-08T12:24:32.000Z</time>
      </trkpt>
      <trkpt lat="42.86526" lon="1.09207">
        <ele>989</ele>
        <time>2019-08-08T12:24:33.000Z</time>
      </trkpt>
      <trkpt lat="42.86524" lon="1.09203">
        <ele>989</ele>
        <time>2019-08-08T12:24:34.000Z</time>
      </trkpt>
      <trkpt lat="42.86523" lon="1.092">
        <ele>989</ele>
        <time>2019-08-08T12:24:35.000Z</time>
      </trkpt>
      <trkpt lat="42.86522" lon="1.09197">
        <ele>989</ele>
        <time>2019-08-08T12:24:36.000Z</time>
      </trkpt>
      <trkpt lat="42.86521" lon="1.09194">
        <ele>989</ele>
        <time>2019-08-08T12:24:37.000Z</time>
      </trkpt>
      <trkpt lat="42.8652" lon="1.09191">
        <ele>989</ele>
        <time>2019-08-08T12:24:38.000Z</time>
      </trkpt>
      <trkpt lat="42.86519" lon="1.09187">
        <ele>989</ele>
        <time>2019-08-08T12:24:39.000Z</time>
      </trkpt>
      <trkpt lat="42.86515" lon="1.09184">
        <ele>989</ele>
        <time>2019-08-08T12:24:40.000Z</time>
      </trkpt>
      <trkpt lat="42.86514" lon="1.09183">
        <ele>990</ele>
        <time>2019-08-08T12:24:41.000Z</time>
      </trkpt>
      <trkpt lat="42.86512" lon="1.09181">
        <ele>991</ele>
        <time>2019-08-08T12:24:42.000Z</time>
      </trkpt>
      <trkpt lat="42.8651" lon="1.09178">
        <ele>991</ele>
        <time>2019-08-08T12:24:43.000Z</time>
      </trkpt>
      <trkpt lat="42.86508" lon="1.09175">
        <ele>991</ele>
        <time>2019-08-08T12:24:44.000Z</time>
      </trkpt>
      <trkpt lat="42.86507" lon="1.09172">
        <ele>991</ele>
        <time>2019-08-08T12:24:45.000Z</time>
      </trkpt>
      <trkpt lat="42.86505" lon="1.09169">
        <ele>992</ele>
        <time>2019-08-08T12:24:46.000Z</time>
      </trkpt>
      <trkpt lat="42.86504" lon="1.09166">
        <ele>992</ele>
        <time>2019-08-08T12:24:47.000Z</time>
      </trkpt>
      <trkpt lat="42.86502" lon="1.09163">
        <ele>993</ele>
        <time>2019-08-08T12:24:48.000Z</time>
      </trkpt>
      <trkpt lat="42.86501" lon="1.09159">
        <ele>993</ele>
        <time>2019-08-08T12:24:49.000Z</time>
      </trkpt>
      <trkpt lat="42.865" lon="1.09156">
        <ele>993</ele>
        <time>2019-08-08T12:24:50.000Z</time>
      </trkpt>
      <trkpt lat="42.86499" lon="1.09153">
        <ele>994</ele>
        <time>2019-08-08T12:24:51.000Z</time>
      </trkpt>
      <trkpt lat="42.86497" lon="1.0915">
        <ele>994</ele>
        <time>2019-08-08T12:24:52.000Z</time>
      </trkpt>
      <trkpt lat="42.86496" lon="1.09146">
        <ele>994</ele>
        <time>2019-08-08T12:24:53.000Z</time>
      </trkpt>
      <trkpt lat="42.86494" lon="1.09143">
        <ele>994</ele>
        <time>2019-08-08T12:24:54.000Z</time>
      </trkpt>
      <trkpt lat="42.86492" lon="1.09139">
        <ele>995</ele>
        <time>2019-08-08T12:24:55.000Z</time>
      </trkpt>
      <trkpt lat="42.86491" lon="1.09132">
        <ele>995</ele>
        <time>2019-08-08T12:24:57.000Z</time>
      </trkpt>
      <trkpt lat="42.86489" lon="1.09128">
        <ele>995</ele>
        <time>2019-08-08T12:24:58.000Z</time>
      </trkpt>
      <trkpt lat="42.86488" lon="1.09124">
        <ele>995</ele>
        <time>2019-08-08T12:24:59.000Z</time>
      </trkpt>
      <trkpt lat="42.86487" lon="1.0912">
        <ele>995</ele>
        <time>2019-08-08T12:25:00.000Z</time>
      </trkpt>
      <trkpt lat="42.86486" lon="1.09115">
        <ele>996</ele>
        <time>2019-08-08T12:25:01.000Z</time>
      </trkpt>
      <trkpt lat="42.86486" lon="1.09111">
        <ele>996</ele>
        <time>2019-08-08T12:25:02.000Z</time>
      </trkpt>
      <trkpt lat="42.86486" lon="1.09106">
        <ele>996</ele>
        <time>2019-08-08T12:25:03.000Z</time>
      </trkpt>
      <trkpt lat="42.86486" lon="1.09102">
        <ele>996</ele>
        <time>2019-08-08T12:25:04.000Z</time>
      </trkpt>
      <trkpt lat="42.86485" lon="1.09098">
        <ele>997</ele>
        <time>2019-08-08T12:25:05.000Z</time>
      </trkpt>
      <trkpt lat="42.86485" lon="1.09094">
        <ele>997</ele>
        <time>2019-08-08T12:25:06.000Z</time>
      </trkpt>
      <trkpt lat="42.86484" lon="1.0909">
        <ele>998</ele>
        <time>2019-08-08T12:25:07.000Z</time>
      </trkpt>
      <trkpt lat="42.86483" lon="1.09086">
        <ele>998</ele>
        <time>2019-08-08T12:25:08.000Z</time>
      </trkpt>
      <trkpt lat="42.86482" lon="1.09083">
        <ele>998</ele>
        <time>2019-08-08T12:25:09.000Z</time>
      </trkpt>
      <trkpt lat="42.86482" lon="1.09079">
        <ele>998</ele>
        <time>2019-08-08T12:25:10.000Z</time>
      </trkpt>
      <trkpt lat="42.86481" lon="1.09075">
        <ele>998</ele>
        <time>2019-08-08T12:25:11.000Z</time>
      </trkpt>
      <trkpt lat="42.8648" lon="1.09071">
        <ele>999</ele>
        <time>2019-08-08T12:25:12.000Z</time>
      </trkpt>
      <trkpt lat="42.8648" lon="1.09067">
        <ele>999</ele>
        <time>2019-08-08T12:25:13.000Z</time>
      </trkpt>
      <trkpt lat="42.86479" lon="1.0906">
        <ele>999</ele>
        <time>2019-08-08T12:25:14.000Z</time>
      </trkpt>
      <trkpt lat="42.86478" lon="1.09058">
        <ele>999</ele>
        <time>2019-08-08T12:25:15.000Z</time>
      </trkpt>
      <trkpt lat="42.86478" lon="1.09054">
        <ele>999</ele>
        <time>2019-08-08T12:25:16.000Z</time>
      </trkpt>
      <trkpt lat="42.86477" lon="1.0905">
        <ele>1000</ele>
        <time>2019-08-08T12:25:17.000Z</time>
      </trkpt>
      <trkpt lat="42.86477" lon="1.09046">
        <ele>1000</ele>
        <time>2019-08-08T12:25:18.000Z</time>
      </trkpt>
      <trkpt lat="42.86477" lon="1.09041">
        <ele>1000</ele>
        <time>2019-08-08T12:25:19.000Z</time>
      </trkpt>
      <trkpt lat="42.86477" lon="1.09037">
        <ele>1001</ele>
        <time>2019-08-08T12:25:20.000Z</time>
      </trkpt>
      <trkpt lat="42.86477" lon="1.09033">
        <ele>1001</ele>
        <time>2019-08-08T12:25:21.000Z</time>
      </trkpt>
      <trkpt lat="42.86478" lon="1.09029">
        <ele>1001</ele>
        <time>2019-08-08T12:25:22.000Z</time>
      </trkpt>
      <trkpt lat="42.86478" lon="1.09025">
        <ele>1001</ele>
        <time>2019-08-08T12:25:23.000Z</time>
      </trkpt>
      <trkpt lat="42.86478" lon="1.09021">
        <ele>1001</ele>
        <time>2019-08-08T12:25:24.000Z</time>
      </trkpt>
      <trkpt lat="42.86478" lon="1.09017">
        <ele>1001</ele>
        <time>2019-08-08T12:25:25.000Z</time>
      </trkpt>
      <trkpt lat="42.86478" lon="1.09013">
        <ele>1001</ele>
        <time>2019-08-08T12:25:26.000Z</time>
      </trkpt>
      <trkpt lat="42.86478" lon="1.09009">
        <ele>1001</ele>
        <time>2019-08-08T12:25:27.000Z</time>
      </trkpt>
      <trkpt lat="42.86479" lon="1.09005">
        <ele>1001</ele>
        <time>2019-08-08T12:25:28.000Z</time>
      </trkpt>
      <trkpt lat="42.86479" lon="1.08999">
        <ele>1001</ele>
        <time>2019-08-08T12:25:29.000Z</time>
      </trkpt>
      <trkpt lat="42.8648" lon="1.08997">
        <ele>1002</ele>
        <time>2019-08-08T12:25:30.000Z</time>
      </trkpt>
      <trkpt lat="42.86481" lon="1.08993">
        <ele>1002</ele>
        <time>2019-08-08T12:25:31.000Z</time>
      </trkpt>
      <trkpt lat="42.86482" lon="1.08989">
        <ele>1002</ele>
        <time>2019-08-08T12:25:32.000Z</time>
      </trkpt>
      <trkpt lat="42.86482" lon="1.08985">
        <ele>1002</ele>
        <time>2019-08-08T12:25:33.000Z</time>
      </trkpt>
      <trkpt lat="42.86483" lon="1.08982">
        <ele>1003</ele>
        <time>2019-08-08T12:25:34.000Z</time>
      </trkpt>
      <trkpt lat="42.86484" lon="1.08978">
        <ele>1003</ele>
        <time>2019-08-08T12:25:35.000Z</time>
      </trkpt>
      <trkpt lat="42.86485" lon="1.08974">
        <ele>1003</ele>
        <time>2019-08-08T12:25:36.000Z</time>
      </trkpt>
      <trkpt lat="42.86485" lon="1.0897">
        <ele>1003</ele>
        <time>2019-08-08T12:25:37.000Z</time>
      </trkpt>
      <trkpt lat="42.86486" lon="1.08966">
        <ele>1003</ele>
        <time>2019-08-08T12:25:38.000Z</time>
      </trkpt>
      <trkpt lat="42.86487" lon="1.08962">
        <ele>1003</ele>
        <time>2019-08-08T12:25:39.000Z</time>
      </trkpt>
      <trkpt lat="42.86488" lon="1.08959">
        <ele>1004</ele>
        <time>2019-08-08T12:25:40.000Z</time>
      </trkpt>
      <trkpt lat="42.86488" lon="1.08955">
        <ele>1004</ele>
        <time>2019-08-08T12:25:41.000Z</time>
      </trkpt>
      <trkpt lat="42.86489" lon="1.08951">
        <ele>1004</ele>
        <time>2019-08-08T12:25:42.000Z</time>
      </trkpt>
      <trkpt lat="42.86489" lon="1.08947">
        <ele>1004</ele>
        <time>2019-08-08T12:25:43.000Z</time>
      </trkpt>
      <trkpt lat="42.8649" lon="1.08944">
        <ele>1004</ele>
        <time>2019-08-08T12:25:44.000Z</time>
      </trkpt>
      <trkpt lat="42.86491" lon="1.0894">
        <ele>1004</ele>
        <time>2019-08-08T12:25:45.000Z</time>
      </trkpt>
      <trkpt lat="42.86493" lon="1.08936">
        <ele>1005</ele>
        <time>2019-08-08T12:25:46.000Z</time>
      </trkpt>
      <trkpt lat="42.86494" lon="1.08933">
        <ele>1005</ele>
        <time>2019-08-08T12:25:47.000Z</time>
      </trkpt>
      <trkpt lat="42.86495" lon="1.08929">
        <ele>1005</ele>
        <time>2019-08-08T12:25:48.000Z</time>
      </trkpt>
      <trkpt lat="42.86496" lon="1.08926">
        <ele>1005</ele>
        <time>2019-08-08T12:25:49.000Z</time>
      </trkpt>
      <trkpt lat="42.86496" lon="1.08922">
        <ele>1006</ele>
        <time>2019-08-08T12:25:50.000Z</time>
      </trkpt>
      <trkpt lat="42.86497" lon="1.08918">
        <ele>1006</ele>
        <time>2019-08-08T12:25:51.000Z</time>
      </trkpt>
      <trkpt lat="42.86498" lon="1.08915">
        <ele>1007</ele>
        <time>2019-08-08T12:25:52.000Z</time>
      </trkpt>
      <trkpt lat="42.86498" lon="1.08912">
        <ele>1007</ele>
        <time>2019-08-08T12:25:53.000Z</time>
      </trkpt>
      <trkpt lat="42.86499" lon="1.08908">
        <ele>1007</ele>
        <time>2019-08-08T12:25:54.000Z</time>
      </trkpt>
      <trkpt lat="42.865" lon="1.08905">
        <ele>1007</ele>
        <time>2019-08-08T12:25:55.000Z</time>
      </trkpt>
      <trkpt lat="42.86502" lon="1.08901">
        <ele>1007</ele>
        <time>2019-08-08T12:25:56.000Z</time>
      </trkpt>
      <trkpt lat="42.86502" lon="1.08898">
        <ele>1007</ele>
        <time>2019-08-08T12:25:57.000Z</time>
      </trkpt>
      <trkpt lat="42.86503" lon="1.08894">
        <ele>1008</ele>
        <time>2019-08-08T12:25:58.000Z</time>
      </trkpt>
      <trkpt lat="42.86504" lon="1.08891">
        <ele>1008</ele>
        <time>2019-08-08T12:25:59.000Z</time>
      </trkpt>
      <trkpt lat="42.86506" lon="1.08887">
        <ele>1009</ele>
        <time>2019-08-08T12:26:00.000Z</time>
      </trkpt>
      <trkpt lat="42.86507" lon="1.08883">
        <ele>1009</ele>
        <time>2019-08-08T12:26:01.000Z</time>
      </trkpt>
      <trkpt lat="42.86508" lon="1.08879">
        <ele>1009</ele>
        <time>2019-08-08T12:26:02.000Z</time>
      </trkpt>
      <trkpt lat="42.86508" lon="1.08874">
        <ele>1010</ele>
        <time>2019-08-08T12:26:03.000Z</time>
      </trkpt>
      <trkpt lat="42.86509" lon="1.08872">
        <ele>1010</ele>
        <time>2019-08-08T12:26:04.000Z</time>
      </trkpt>
      <trkpt lat="42.8651" lon="1.08868">
        <ele>1010</ele>
        <time>2019-08-08T12:26:05.000Z</time>
      </trkpt>
      <trkpt lat="42.8651" lon="1.08864">
        <ele>1010</ele>
        <time>2019-08-08T12:26:06.000Z</time>
      </trkpt>
      <trkpt lat="42.86511" lon="1.08861">
        <ele>1010</ele>
        <time>2019-08-08T12:26:07.000Z</time>
      </trkpt>
      <trkpt lat="42.86513" lon="1.08857">
        <ele>1010</ele>
        <time>2019-08-08T12:26:08.000Z</time>
      </trkpt>
      <trkpt lat="42.86514" lon="1.08854">
        <ele>1011</ele>
        <time>2019-08-08T12:26:09.000Z</time>
      </trkpt>
      <trkpt lat="42.86516" lon="1.0885">
        <ele>1011</ele>
        <time>2019-08-08T12:26:10.000Z</time>
      </trkpt>
      <trkpt lat="42.86517" lon="1.08847">
        <ele>1012</ele>
        <time>2019-08-08T12:26:11.000Z</time>
      </trkpt>
      <trkpt lat="42.86519" lon="1.08844">
        <ele>1012</ele>
        <time>2019-08-08T12:26:12.000Z</time>
      </trkpt>
      <trkpt lat="42.86521" lon="1.08841">
        <ele>1012</ele>
        <time>2019-08-08T12:26:13.000Z</time>
      </trkpt>
      <trkpt lat="42.86523" lon="1.08838">
        <ele>1012</ele>
        <time>2019-08-08T12:26:14.000Z</time>
      </trkpt>
      <trkpt lat="42.86525" lon="1.08835">
        <ele>1012</ele>
        <time>2019-08-08T12:26:15.000Z</time>
      </trkpt>
      <trkpt lat="42.86527" lon="1.08832">
        <ele>1013</ele>
        <time>2019-08-08T12:26:16.000Z</time>
      </trkpt>
      <trkpt lat="42.86527" lon="1.08832">
        <ele>1013</ele>
        <time>2019-08-08T12:26:17.000Z</time>
      </trkpt>
      <trkpt lat="42.86527" lon="1.08832">
        <ele>1013</ele>
        <time>2019-08-08T12:26:18.000Z</time>
      </trkpt>
      <trkpt lat="42.86533" lon="1.08822">
        <ele>1013</ele>
        <time>2019-08-08T12:26:19.000Z</time>
      </trkpt>
      <trkpt lat="42.86533" lon="1.08822">
        <ele>1014</ele>
        <time>2019-08-08T12:26:20.000Z</time>
      </trkpt>
      <trkpt lat="42.86537" lon="1.08816">
        <ele>1014</ele>
        <time>2019-08-08T12:26:21.000Z</time>
      </trkpt>
      <trkpt lat="42.86539" lon="1.08814">
        <ele>1014</ele>
        <time>2019-08-08T12:26:22.000Z</time>
      </trkpt>
      <trkpt lat="42.86541" lon="1.08811">
        <ele>1014</ele>
        <time>2019-08-08T12:26:23.000Z</time>
      </trkpt>
      <trkpt lat="42.86543" lon="1.08808">
        <ele>1014</ele>
        <time>2019-08-08T12:26:24.000Z</time>
      </trkpt>
      <trkpt lat="42.86544" lon="1.08805">
        <ele>1015</ele>
        <time>2019-08-08T12:26:25.000Z</time>
      </trkpt>
      <trkpt lat="42.86546" lon="1.08802">
        <ele>1015</ele>
        <time>2019-08-08T12:26:26.000Z</time>
      </trkpt>
      <trkpt lat="42.86548" lon="1.088">
        <ele>1016</ele>
        <time>2019-08-08T12:26:27.000Z</time>
      </trkpt>
      <trkpt lat="42.8655" lon="1.08797">
        <ele>1016</ele>
        <time>2019-08-08T12:26:28.000Z</time>
      </trkpt>
      <trkpt lat="42.86552" lon="1.08794">
        <ele>1016</ele>
        <time>2019-08-08T12:26:29.000Z</time>
      </trkpt>
      <trkpt lat="42.86554" lon="1.08792">
        <ele>1016</ele>
        <time>2019-08-08T12:26:30.000Z</time>
      </trkpt>
      <trkpt lat="42.86556" lon="1.08789">
        <ele>1016</ele>
        <time>2019-08-08T12:26:31.000Z</time>
      </trkpt>
      <trkpt lat="42.86558" lon="1.08785">
        <ele>1016</ele>
        <time>2019-08-08T12:26:32.000Z</time>
      </trkpt>
      <trkpt lat="42.8656" lon="1.08782">
        <ele>1016</ele>
        <time>2019-08-08T12:26:33.000Z</time>
      </trkpt>
      <trkpt lat="42.86562" lon="1.08779">
        <ele>1017</ele>
        <time>2019-08-08T12:26:34.000Z</time>
      </trkpt>
      <trkpt lat="42.86564" lon="1.08776">
        <ele>1017</ele>
        <time>2019-08-08T12:26:35.000Z</time>
      </trkpt>
      <trkpt lat="42.86566" lon="1.08774">
        <ele>1017</ele>
        <time>2019-08-08T12:26:36.000Z</time>
      </trkpt>
      <trkpt lat="42.86569" lon="1.0877">
        <ele>1017</ele>
        <time>2019-08-08T12:26:37.000Z</time>
      </trkpt>
      <trkpt lat="42.8657" lon="1.08769">
        <ele>1018</ele>
        <time>2019-08-08T12:26:38.000Z</time>
      </trkpt>
      <trkpt lat="42.86572" lon="1.08766">
        <ele>1018</ele>
        <time>2019-08-08T12:26:39.000Z</time>
      </trkpt>
      <trkpt lat="42.86574" lon="1.08763">
        <ele>1018</ele>
        <time>2019-08-08T12:26:40.000Z</time>
      </trkpt>
      <trkpt lat="42.86576" lon="1.0876">
        <ele>1018</ele>
        <time>2019-08-08T12:26:41.000Z</time>
      </trkpt>
      <trkpt lat="42.86577" lon="1.08757">
        <ele>1018</ele>
        <time>2019-08-08T12:26:42.000Z</time>
      </trkpt>
      <trkpt lat="42.86578" lon="1.08754">
        <ele>1018</ele>
        <time>2019-08-08T12:26:43.000Z</time>
      </trkpt>
      <trkpt lat="42.86579" lon="1.0875">
        <ele>1018</ele>
        <time>2019-08-08T12:26:44.000Z</time>
      </trkpt>
      <trkpt lat="42.86579" lon="1.08746">
        <ele>1018</ele>
        <time>2019-08-08T12:26:45.000Z</time>
      </trkpt>
      <trkpt lat="42.86578" lon="1.08742">
        <ele>1020</ele>
        <time>2019-08-08T12:26:46.000Z</time>
      </trkpt>
      <trkpt lat="42.86577" lon="1.08739">
        <ele>1020</ele>
        <time>2019-08-08T12:26:47.000Z</time>
      </trkpt>
      <trkpt lat="42.86576" lon="1.08736">
        <ele>1020</ele>
        <time>2019-08-08T12:26:48.000Z</time>
      </trkpt>
      <trkpt lat="42.86574" lon="1.08733">
        <ele>1020</ele>
        <time>2019-08-08T12:26:49.000Z</time>
      </trkpt>
      <trkpt lat="42.86571" lon="1.08731">
        <ele>1020</ele>
        <time>2019-08-08T12:26:50.000Z</time>
      </trkpt>
      <trkpt lat="42.86569" lon="1.08729">
        <ele>1020</ele>
        <time>2019-08-08T12:26:51.000Z</time>
      </trkpt>
      <trkpt lat="42.86566" lon="1.08727">
        <ele>1020</ele>
        <time>2019-08-08T12:26:52.000Z</time>
      </trkpt>
      <trkpt lat="42.86564" lon="1.08726">
        <ele>1020</ele>
        <time>2019-08-08T12:26:53.000Z</time>
      </trkpt>
      <trkpt lat="42.86562" lon="1.08725">
        <ele>1020</ele>
        <time>2019-08-08T12:26:54.000Z</time>
      </trkpt>
      <trkpt lat="42.86559" lon="1.08724">
        <ele>1021</ele>
        <time>2019-08-08T12:26:55.000Z</time>
      </trkpt>
      <trkpt lat="42.86556" lon="1.08722">
        <ele>1021</ele>
        <time>2019-08-08T12:26:56.000Z</time>
      </trkpt>
      <trkpt lat="42.86553" lon="1.08721">
        <ele>1022</ele>
        <time>2019-08-08T12:26:57.000Z</time>
      </trkpt>
      <trkpt lat="42.86551" lon="1.08719">
        <ele>1022</ele>
        <time>2019-08-08T12:26:58.000Z</time>
      </trkpt>
      <trkpt lat="42.86548" lon="1.08718">
        <ele>1023</ele>
        <time>2019-08-08T12:26:59.000Z</time>
      </trkpt>
      <trkpt lat="42.86545" lon="1.08717">
        <ele>1023</ele>
        <time>2019-08-08T12:27:00.000Z</time>
      </trkpt>
      <trkpt lat="42.86542" lon="1.08716">
        <ele>1024</ele>
        <time>2019-08-08T12:27:01.000Z</time>
      </trkpt>
      <trkpt lat="42.8654" lon="1.08715">
        <ele>1024</ele>
        <time>2019-08-08T12:27:02.000Z</time>
      </trkpt>
      <trkpt lat="42.8654" lon="1.08715">
        <ele>1024</ele>
        <time>2019-08-08T12:27:03.000Z</time>
      </trkpt>
      <trkpt lat="42.8654" lon="1.08715">
        <ele>1024</ele>
        <time>2019-08-08T12:27:04.000Z</time>
      </trkpt>
      <trkpt lat="42.8654" lon="1.08715">
        <ele>1024</ele>
        <time>2019-08-08T12:27:05.000Z</time>
      </trkpt>
      <trkpt lat="42.86536" lon="1.08714">
        <ele>1024</ele>
        <time>2019-08-08T12:27:06.000Z</time>
      </trkpt>
      <trkpt lat="42.86532" lon="1.08713">
        <ele>1024</ele>
        <time>2019-08-08T12:27:07.000Z</time>
      </trkpt>
      <trkpt lat="42.86529" lon="1.08712">
        <ele>1024</ele>
        <time>2019-08-08T12:27:08.000Z</time>
      </trkpt>
      <trkpt lat="42.86526" lon="1.08711">
        <ele>1024</ele>
        <time>2019-08-08T12:27:09.000Z</time>
      </trkpt>
      <trkpt lat="42.86523" lon="1.08709">
        <ele>1024</ele>
        <time>2019-08-08T12:27:10.000Z</time>
      </trkpt>
      <trkpt lat="42.8652" lon="1.08708">
        <ele>1025</ele>
        <time>2019-08-08T12:27:11.000Z</time>
      </trkpt>
      <trkpt lat="42.86517" lon="1.08706">
        <ele>1025</ele>
        <time>2019-08-08T12:27:12.000Z</time>
      </trkpt>
      <trkpt lat="42.86515" lon="1.08705">
        <ele>1026</ele>
        <time>2019-08-08T12:27:13.000Z</time>
      </trkpt>
      <trkpt lat="42.86512" lon="1.08703">
        <ele>1026</ele>
        <time>2019-08-08T12:27:14.000Z</time>
      </trkpt>
      <trkpt lat="42.86509" lon="1.08702">
        <ele>1026</ele>
        <time>2019-08-08T12:27:15.000Z</time>
      </trkpt>
      <trkpt lat="42.86506" lon="1.08701">
        <ele>1026</ele>
        <time>2019-08-08T12:27:16.000Z</time>
      </trkpt>
      <trkpt lat="42.86503" lon="1.087">
        <ele>1026</ele>
        <time>2019-08-08T12:27:17.000Z</time>
      </trkpt>
      <trkpt lat="42.86499" lon="1.08697">
        <ele>1026</ele>
        <time>2019-08-08T12:27:18.000Z</time>
      </trkpt>
      <trkpt lat="42.86496" lon="1.08695">
        <ele>1026</ele>
        <time>2019-08-08T12:27:19.000Z</time>
      </trkpt>
      <trkpt lat="42.86494" lon="1.08693">
        <ele>1026</ele>
        <time>2019-08-08T12:27:20.000Z</time>
      </trkpt>
      <trkpt lat="42.86494" lon="1.08693">
        <ele>1027</ele>
        <time>2019-08-08T12:27:21.000Z</time>
      </trkpt>
      <trkpt lat="42.86488" lon="1.08689">
        <ele>1027</ele>
        <time>2019-08-08T12:27:22.000Z</time>
      </trkpt>
      <trkpt lat="42.86486" lon="1.08687">
        <ele>1027</ele>
        <time>2019-08-08T12:27:23.000Z</time>
      </trkpt>
      <trkpt lat="42.86484" lon="1.08684">
        <ele>1027</ele>
        <time>2019-08-08T12:27:24.000Z</time>
      </trkpt>
      <trkpt lat="42.86482" lon="1.08681">
        <ele>1028</ele>
        <time>2019-08-08T12:27:25.000Z</time>
      </trkpt>
      <trkpt lat="42.8648" lon="1.08679">
        <ele>1028</ele>
        <time>2019-08-08T12:27:26.000Z</time>
      </trkpt>
      <trkpt lat="42.86478" lon="1.08676">
        <ele>1028</ele>
        <time>2019-08-08T12:27:27.000Z</time>
      </trkpt>
      <trkpt lat="42.86478" lon="1.08676">
        <ele>1028</ele>
        <time>2019-08-08T12:27:28.000Z</time>
      </trkpt>
      <trkpt lat="42.86474" lon="1.08669">
        <ele>1028</ele>
        <time>2019-08-08T12:27:29.000Z</time>
      </trkpt>
      <trkpt lat="42.86472" lon="1.08666">
        <ele>1028</ele>
        <time>2019-08-08T12:27:30.000Z</time>
      </trkpt>
      <trkpt lat="42.86471" lon="1.08662">
        <ele>1029</ele>
        <time>2019-08-08T12:27:31.000Z</time>
      </trkpt>
      <trkpt lat="42.86469" lon="1.08659">
        <ele>1029</ele>
        <time>2019-08-08T12:27:32.000Z</time>
      </trkpt>
      <trkpt lat="42.86468" lon="1.08655">
        <ele>1029</ele>
        <time>2019-08-08T12:27:33.000Z</time>
      </trkpt>
      <trkpt lat="42.86468" lon="1.08655">
        <ele>1029</ele>
        <time>2019-08-08T12:27:34.000Z</time>
      </trkpt>
      <trkpt lat="42.86466" lon="1.08648">
        <ele>1030</ele>
        <time>2019-08-08T12:27:35.000Z</time>
      </trkpt>
      <trkpt lat="42.86465" lon="1.08644">
        <ele>1030</ele>
        <time>2019-08-08T12:27:36.000Z</time>
      </trkpt>
      <trkpt lat="42.86464" lon="1.0864">
        <ele>1031</ele>
        <time>2019-08-08T12:27:37.000Z</time>
      </trkpt>
      <trkpt lat="42.86463" lon="1.08636">
        <ele>1031</ele>
        <time>2019-08-08T12:27:38.000Z</time>
      </trkpt>
      <trkpt lat="42.86462" lon="1.08632">
        <ele>1031</ele>
        <time>2019-08-08T12:27:39.000Z</time>
      </trkpt>
      <trkpt lat="42.8646" lon="1.08629">
        <ele>1031</ele>
        <time>2019-08-08T12:27:40.000Z</time>
      </trkpt>
      <trkpt lat="42.86458" lon="1.08626">
        <ele>1031</ele>
        <time>2019-08-08T12:27:41.000Z</time>
      </trkpt>
      <trkpt lat="42.86455" lon="1.08621">
        <ele>1031</ele>
        <time>2019-08-08T12:27:42.000Z</time>
      </trkpt>
      <trkpt lat="42.86454" lon="1.08619">
        <ele>1031</ele>
        <time>2019-08-08T12:27:43.000Z</time>
      </trkpt>
      <trkpt lat="42.86452" lon="1.08616">
        <ele>1031</ele>
        <time>2019-08-08T12:27:44.000Z</time>
      </trkpt>
      <trkpt lat="42.86451" lon="1.08613">
        <ele>1031</ele>
        <time>2019-08-08T12:27:45.000Z</time>
      </trkpt>
      <trkpt lat="42.86449" lon="1.0861">
        <ele>1031</ele>
        <time>2019-08-08T12:27:46.000Z</time>
      </trkpt>
      <trkpt lat="42.86446" lon="1.08607">
        <ele>1031</ele>
        <time>2019-08-08T12:27:47.000Z</time>
      </trkpt>
      <trkpt lat="42.86444" lon="1.08603">
        <ele>1031</ele>
        <time>2019-08-08T12:27:48.000Z</time>
      </trkpt>
      <trkpt lat="42.86442" lon="1.08599">
        <ele>1031</ele>
        <time>2019-08-08T12:27:49.000Z</time>
      </trkpt>
      <trkpt lat="42.8644" lon="1.08595">
        <ele>1031</ele>
        <time>2019-08-08T12:27:50.000Z</time>
      </trkpt>
      <trkpt lat="42.86438" lon="1.08591">
        <ele>1031</ele>
        <time>2019-08-08T12:27:51.000Z</time>
      </trkpt>
      <trkpt lat="42.86435" lon="1.08588">
        <ele>1031</ele>
        <time>2019-08-08T12:27:52.000Z</time>
      </trkpt>
      <trkpt lat="42.86433" lon="1.08585">
        <ele>1031</ele>
        <time>2019-08-08T12:27:53.000Z</time>
      </trkpt>
      <trkpt lat="42.86431" lon="1.08582">
        <ele>1032</ele>
        <time>2019-08-08T12:27:54.000Z</time>
      </trkpt>
      <trkpt lat="42.86429" lon="1.08579">
        <ele>1032</ele>
        <time>2019-08-08T12:27:55.000Z</time>
      </trkpt>
      <trkpt lat="42.86426" lon="1.08577">
        <ele>1033</ele>
        <time>2019-08-08T12:27:56.000Z</time>
      </trkpt>
      <trkpt lat="42.86423" lon="1.08573">
        <ele>1033</ele>
        <time>2019-08-08T12:27:57.000Z</time>
      </trkpt>
      <trkpt lat="42.86421" lon="1.0857">
        <ele>1034</ele>
        <time>2019-08-08T12:27:58.000Z</time>
      </trkpt>
      <trkpt lat="42.8642" lon="1.08566">
        <ele>1034</ele>
        <time>2019-08-08T12:27:59.000Z</time>
      </trkpt>
      <trkpt lat="42.86418" lon="1.08562">
        <ele>1034</ele>
        <time>2019-08-08T12:28:00.000Z</time>
      </trkpt>
      <trkpt lat="42.86416" lon="1.08559">
        <ele>1034</ele>
        <time>2019-08-08T12:28:01.000Z</time>
      </trkpt>
      <trkpt lat="42.86414" lon="1.08556">
        <ele>1035</ele>
        <time>2019-08-08T12:28:02.000Z</time>
      </trkpt>
      <trkpt lat="42.86411" lon="1.08553">
        <ele>1035</ele>
        <time>2019-08-08T12:28:03.000Z</time>
      </trkpt>
      <trkpt lat="42.86408" lon="1.08551">
        <ele>1035</ele>
        <time>2019-08-08T12:28:04.000Z</time>
      </trkpt>
      <trkpt lat="42.86404" lon="1.08548">
        <ele>1035</ele>
        <time>2019-08-08T12:28:05.000Z</time>
      </trkpt>
      <trkpt lat="42.86402" lon="1.08547">
        <ele>1035.6</ele>
        <time>2019-08-08T12:28:06.000Z</time>
      </trkpt>
      <trkpt lat="42.86399" lon="1.08547">
        <ele>1036</ele>
        <time>2019-08-08T12:28:07.000Z</time>
      </trkpt>
      <trkpt lat="42.86396" lon="1.08549">
        <ele>1036</ele>
        <time>2019-08-08T12:28:08.000Z</time>
      </trkpt>
      <trkpt lat="42.86394" lon="1.08551">
        <ele>1036</ele>
        <time>2019-08-08T12:28:09.000Z</time>
      </trkpt>
      <trkpt lat="42.86393" lon="1.08555">
        <ele>1037</ele>
        <time>2019-08-08T12:28:10.000Z</time>
      </trkpt>
      <trkpt lat="42.86392" lon="1.08559">
        <ele>1037</ele>
        <time>2019-08-08T12:28:11.000Z</time>
      </trkpt>
      <trkpt lat="42.86392" lon="1.08562">
        <ele>1038</ele>
        <time>2019-08-08T12:28:12.000Z</time>
      </trkpt>
      <trkpt lat="42.86393" lon="1.08564">
        <ele>1038</ele>
        <time>2019-08-08T12:28:13.000Z</time>
      </trkpt>
      <trkpt lat="42.86394" lon="1.08567">
        <ele>1038</ele>
        <time>2019-08-08T12:28:14.000Z</time>
      </trkpt>
      <trkpt lat="42.86397" lon="1.08571">
        <ele>1038</ele>
        <time>2019-08-08T12:28:15.000Z</time>
      </trkpt>
      <trkpt lat="42.86398" lon="1.08572">
        <ele>1038</ele>
        <time>2019-08-08T12:28:16.000Z</time>
      </trkpt>
      <trkpt lat="42.86399" lon="1.08574">
        <ele>1038</ele>
        <time>2019-08-08T12:28:17.000Z</time>
      </trkpt>
      <trkpt lat="42.86401" lon="1.08576">
        <ele>1039</ele>
        <time>2019-08-08T12:28:18.000Z</time>
      </trkpt>
      <trkpt lat="42.86403" lon="1.08578">
        <ele>1039</ele>
        <time>2019-08-08T12:28:19.000Z</time>
      </trkpt>
      <trkpt lat="42.86405" lon="1.0858">
        <ele>1040</ele>
        <time>2019-08-08T12:28:20.000Z</time>
      </trkpt>
      <trkpt lat="42.86406" lon="1.08583">
        <ele>1040</ele>
        <time>2019-08-08T12:28:21.000Z</time>
      </trkpt>
      <trkpt lat="42.86408" lon="1.08585">
        <ele>1040</ele>
        <time>2019-08-08T12:28:22.000Z</time>
      </trkpt>
      <trkpt lat="42.8641" lon="1.08588">
        <ele>1040</ele>
        <time>2019-08-08T12:28:23.000Z</time>
      </trkpt>
      <trkpt lat="42.86412" lon="1.08591">
        <ele>1040</ele>
        <time>2019-08-08T12:28:24.000Z</time>
      </trkpt>
      <trkpt lat="42.86414" lon="1.08593">
        <ele>1040</ele>
        <time>2019-08-08T12:28:25.000Z</time>
      </trkpt>
      <trkpt lat="42.86416" lon="1.08596">
        <ele>1040</ele>
        <time>2019-08-08T12:28:26.000Z</time>
      </trkpt>
      <trkpt lat="42.86418" lon="1.08599">
        <ele>1041</ele>
        <time>2019-08-08T12:28:27.000Z</time>
      </trkpt>
      <trkpt lat="42.86419" lon="1.08602">
        <ele>1041</ele>
        <time>2019-08-08T12:28:28.000Z</time>
      </trkpt>
      <trkpt lat="42.8642" lon="1.08604">
        <ele>1041</ele>
        <time>2019-08-08T12:28:29.000Z</time>
      </trkpt>
      <trkpt lat="42.86422" lon="1.08607">
        <ele>1041</ele>
        <time>2019-08-08T12:28:30.000Z</time>
      </trkpt>
      <trkpt lat="42.86424" lon="1.0861">
        <ele>1042</ele>
        <time>2019-08-08T12:28:31.000Z</time>
      </trkpt>
      <trkpt lat="42.86425" lon="1.08613">
        <ele>1042</ele>
        <time>2019-08-08T12:28:32.000Z</time>
      </trkpt>
      <trkpt lat="42.86427" lon="1.08617">
        <ele>1042</ele>
        <time>2019-08-08T12:28:33.000Z</time>
      </trkpt>
      <trkpt lat="42.86428" lon="1.0862">
        <ele>1042</ele>
        <time>2019-08-08T12:28:34.000Z</time>
      </trkpt>
      <trkpt lat="42.86429" lon="1.08624">
        <ele>1042</ele>
        <time>2019-08-08T12:28:35.000Z</time>
      </trkpt>
      <trkpt lat="42.8643" lon="1.08627">
        <ele>1042</ele>
        <time>2019-08-08T12:28:36.000Z</time>
      </trkpt>
      <trkpt lat="42.86431" lon="1.0863">
        <ele>1043</ele>
        <time>2019-08-08T12:28:37.000Z</time>
      </trkpt>
      <trkpt lat="42.86432" lon="1.08633">
        <ele>1043</ele>
        <time>2019-08-08T12:28:38.000Z</time>
      </trkpt>
      <trkpt lat="42.86433" lon="1.08636">
        <ele>1043</ele>
        <time>2019-08-08T12:28:39.000Z</time>
      </trkpt>
      <trkpt lat="42.86435" lon="1.0864">
        <ele>1043</ele>
        <time>2019-08-08T12:28:40.000Z</time>
      </trkpt>
      <trkpt lat="42.86435" lon="1.08644">
        <ele>1043</ele>
        <time>2019-08-08T12:28:41.000Z</time>
      </trkpt>
      <trkpt lat="42.86436" lon="1.08647">
        <ele>1043</ele>
        <time>2019-08-08T12:28:42.000Z</time>
      </trkpt>
      <trkpt lat="42.86437" lon="1.08653">
        <ele>1043</ele>
        <time>2019-08-08T12:28:43.000Z</time>
      </trkpt>
      <trkpt lat="42.86437" lon="1.08655">
        <ele>1045</ele>
        <time>2019-08-08T12:28:44.000Z</time>
      </trkpt>
      <trkpt lat="42.86438" lon="1.08658">
        <ele>1045</ele>
        <time>2019-08-08T12:28:45.000Z</time>
      </trkpt>
      <trkpt lat="42.86438" lon="1.08662">
        <ele>1045</ele>
        <time>2019-08-08T12:28:46.000Z</time>
      </trkpt>
      <trkpt lat="42.86438" lon="1.08662">
        <ele>1045</ele>
        <time>2019-08-08T12:28:47.000Z</time>
      </trkpt>
      <trkpt lat="42.86438" lon="1.08662">
        <ele>1045</ele>
        <time>2019-08-08T12:28:48.000Z</time>
      </trkpt>
      <trkpt lat="42.86442" lon="1.08675">
        <ele>1046</ele>
        <time>2019-08-08T12:28:49.000Z</time>
      </trkpt>
      <trkpt lat="42.86443" lon="1.08678">
        <ele>1046</ele>
        <time>2019-08-08T12:28:50.000Z</time>
      </trkpt>
      <trkpt lat="42.86445" lon="1.08684">
        <ele>1047</ele>
        <time>2019-08-08T12:28:51.000Z</time>
      </trkpt>
      <trkpt lat="42.86446" lon="1.08686">
        <ele>1047</ele>
        <time>2019-08-08T12:28:52.000Z</time>
      </trkpt>
      <trkpt lat="42.86447" lon="1.08688">
        <ele>1048</ele>
        <time>2019-08-08T12:28:53.000Z</time>
      </trkpt>
      <trkpt lat="42.86447" lon="1.08689">
        <ele>1048</ele>
        <time>2019-08-08T12:28:54.000Z</time>
      </trkpt>
      <trkpt lat="42.8645" lon="1.08697">
        <ele>1048</ele>
        <time>2019-08-08T12:28:55.000Z</time>
      </trkpt>
      <trkpt lat="42.8645" lon="1.08697">
        <ele>1048</ele>
        <time>2019-08-08T12:28:56.000Z</time>
      </trkpt>
      <trkpt lat="42.8645" lon="1.08697">
        <ele>1049</ele>
        <time>2019-08-08T12:28:57.000Z</time>
      </trkpt>
      <trkpt lat="42.86453" lon="1.08706">
        <ele>1049</ele>
        <time>2019-08-08T12:28:58.000Z</time>
      </trkpt>
      <trkpt lat="42.86454" lon="1.08709">
        <ele>1049</ele>
        <time>2019-08-08T12:28:59.000Z</time>
      </trkpt>
      <trkpt lat="42.86456" lon="1.08712">
        <ele>1049</ele>
        <time>2019-08-08T12:29:00.000Z</time>
      </trkpt>
      <trkpt lat="42.86458" lon="1.08715">
        <ele>1050</ele>
        <time>2019-08-08T12:29:01.000Z</time>
      </trkpt>
      <trkpt lat="42.86459" lon="1.08718">
        <ele>1050</ele>
        <time>2019-08-08T12:29:02.000Z</time>
      </trkpt>
      <trkpt lat="42.86461" lon="1.08721">
        <ele>1050</ele>
        <time>2019-08-08T12:29:03.000Z</time>
      </trkpt>
      <trkpt lat="42.86462" lon="1.08723">
        <ele>1050</ele>
        <time>2019-08-08T12:29:04.000Z</time>
      </trkpt>
      <trkpt lat="42.86464" lon="1.08726">
        <ele>1050</ele>
        <time>2019-08-08T12:29:05.000Z</time>
      </trkpt>
      <trkpt lat="42.86467" lon="1.0873">
        <ele>1051</ele>
        <time>2019-08-08T12:29:06.000Z</time>
      </trkpt>
      <trkpt lat="42.86467" lon="1.08731">
        <ele>1051</ele>
        <time>2019-08-08T12:29:07.000Z</time>
      </trkpt>
      <trkpt lat="42.8647" lon="1.08733">
        <ele>1052</ele>
        <time>2019-08-08T12:29:08.000Z</time>
      </trkpt>
      <trkpt lat="42.86471" lon="1.08735">
        <ele>1052</ele>
        <time>2019-08-08T12:29:09.000Z</time>
      </trkpt>
      <trkpt lat="42.86473" lon="1.08737">
        <ele>1052</ele>
        <time>2019-08-08T12:29:10.000Z</time>
      </trkpt>
      <trkpt lat="42.86475" lon="1.0874">
        <ele>1052</ele>
        <time>2019-08-08T12:29:11.000Z</time>
      </trkpt>
      <trkpt lat="42.86477" lon="1.08743">
        <ele>1052</ele>
        <time>2019-08-08T12:29:12.000Z</time>
      </trkpt>
      <trkpt lat="42.86479" lon="1.08746">
        <ele>1052</ele>
        <time>2019-08-08T12:29:13.000Z</time>
      </trkpt>
      <trkpt lat="42.8648" lon="1.0875">
        <ele>1052</ele>
        <time>2019-08-08T12:29:14.000Z</time>
      </trkpt>
      <trkpt lat="42.86481" lon="1.08754">
        <ele>1053</ele>
        <time>2019-08-08T12:29:15.000Z</time>
      </trkpt>
      <trkpt lat="42.86481" lon="1.08758">
        <ele>1053</ele>
        <time>2019-08-08T12:29:16.000Z</time>
      </trkpt>
      <trkpt lat="42.86481" lon="1.08762">
        <ele>1053</ele>
        <time>2019-08-08T12:29:17.000Z</time>
      </trkpt>
      <trkpt lat="42.8648" lon="1.08766">
        <ele>1053</ele>
        <time>2019-08-08T12:29:18.000Z</time>
      </trkpt>
      <trkpt lat="42.86479" lon="1.0877">
        <ele>1053</ele>
        <time>2019-08-08T12:29:19.000Z</time>
      </trkpt>
      <trkpt lat="42.86477" lon="1.08774">
        <ele>1053</ele>
        <time>2019-08-08T12:29:20.000Z</time>
      </trkpt>
      <trkpt lat="42.86476" lon="1.08778">
        <ele>1053</ele>
        <time>2019-08-08T12:29:21.000Z</time>
      </trkpt>
      <trkpt lat="42.86474" lon="1.08781">
        <ele>1054</ele>
        <time>2019-08-08T12:29:22.000Z</time>
      </trkpt>
      <trkpt lat="42.86471" lon="1.08784">
        <ele>1054</ele>
        <time>2019-08-08T12:29:23.000Z</time>
      </trkpt>
      <trkpt lat="42.86468" lon="1.0879">
        <ele>1054</ele>
        <time>2019-08-08T12:29:24.000Z</time>
      </trkpt>
      <trkpt lat="42.86467" lon="1.08791">
        <ele>1054</ele>
        <time>2019-08-08T12:29:25.000Z</time>
      </trkpt>
      <trkpt lat="42.86465" lon="1.08795">
        <ele>1054</ele>
        <time>2019-08-08T12:29:26.000Z</time>
      </trkpt>
      <trkpt lat="42.86462" lon="1.08798">
        <ele>1055</ele>
        <time>2019-08-08T12:29:27.000Z</time>
      </trkpt>
      <trkpt lat="42.8646" lon="1.08802">
        <ele>1055</ele>
        <time>2019-08-08T12:29:28.000Z</time>
      </trkpt>
      <trkpt lat="42.86458" lon="1.08805">
        <ele>1056</ele>
        <time>2019-08-08T12:29:29.000Z</time>
      </trkpt>
      <trkpt lat="42.86456" lon="1.08809">
        <ele>1056</ele>
        <time>2019-08-08T12:29:30.000Z</time>
      </trkpt>
      <trkpt lat="42.86454" lon="1.08812">
        <ele>1056</ele>
        <time>2019-08-08T12:29:31.000Z</time>
      </trkpt>
      <trkpt lat="42.86452" lon="1.08816">
        <ele>1056</ele>
        <time>2019-08-08T12:29:32.000Z</time>
      </trkpt>
      <trkpt lat="42.8645" lon="1.0882">
        <ele>1057</ele>
        <time>2019-08-08T12:29:33.000Z</time>
      </trkpt>
      <trkpt lat="42.86449" lon="1.08824">
        <ele>1057</ele>
        <time>2019-08-08T12:29:34.000Z</time>
      </trkpt>
      <trkpt lat="42.86449" lon="1.08824">
        <ele>1057</ele>
        <time>2019-08-08T12:29:35.000Z</time>
      </trkpt>
      <trkpt lat="42.86449" lon="1.08824">
        <ele>1057</ele>
        <time>2019-08-08T12:29:36.000Z</time>
      </trkpt>
      <trkpt lat="42.86442" lon="1.08834">
        <ele>1057</ele>
        <time>2019-08-08T12:29:37.000Z</time>
      </trkpt>
      <trkpt lat="42.8644" lon="1.08838">
        <ele>1057</ele>
        <time>2019-08-08T12:29:38.000Z</time>
      </trkpt>
      <trkpt lat="42.86438" lon="1.08841">
        <ele>1057</ele>
        <time>2019-08-08T12:29:39.000Z</time>
      </trkpt>
      <trkpt lat="42.86436" lon="1.08845">
        <ele>1057</ele>
        <time>2019-08-08T12:29:40.000Z</time>
      </trkpt>
      <trkpt lat="42.86432" lon="1.0885">
        <ele>1057</ele>
        <time>2019-08-08T12:29:41.000Z</time>
      </trkpt>
      <trkpt lat="42.86431" lon="1.08852">
        <ele>1057</ele>
        <time>2019-08-08T12:29:42.000Z</time>
      </trkpt>
      <trkpt lat="42.86429" lon="1.08855">
        <ele>1057</ele>
        <time>2019-08-08T12:29:43.000Z</time>
      </trkpt>
      <trkpt lat="42.86427" lon="1.08859">
        <ele>1058</ele>
        <time>2019-08-08T12:29:44.000Z</time>
      </trkpt>
      <trkpt lat="42.86425" lon="1.08862">
        <ele>1059</ele>
        <time>2019-08-08T12:29:45.000Z</time>
      </trkpt>
      <trkpt lat="42.86422" lon="1.08865">
        <ele>1059</ele>
        <time>2019-08-08T12:29:46.000Z</time>
      </trkpt>
      <trkpt lat="42.8642" lon="1.08869">
        <ele>1059</ele>
        <time>2019-08-08T12:29:47.000Z</time>
      </trkpt>
      <trkpt lat="42.86418" lon="1.08872">
        <ele>1059</ele>
        <time>2019-08-08T12:29:48.000Z</time>
      </trkpt>
      <trkpt lat="42.86416" lon="1.08876">
        <ele>1059</ele>
        <time>2019-08-08T12:29:49.000Z</time>
      </trkpt>
      <trkpt lat="42.86414" lon="1.0888">
        <ele>1059</ele>
        <time>2019-08-08T12:29:50.000Z</time>
      </trkpt>
      <trkpt lat="42.86413" lon="1.08883">
        <ele>1059</ele>
        <time>2019-08-08T12:29:51.000Z</time>
      </trkpt>
      <trkpt lat="42.86411" lon="1.08887">
        <ele>1059</ele>
        <time>2019-08-08T12:29:52.000Z</time>
      </trkpt>
      <trkpt lat="42.86408" lon="1.0889">
        <ele>1060</ele>
        <time>2019-08-08T12:29:53.000Z</time>
      </trkpt>
      <trkpt lat="42.86406" lon="1.08893">
        <ele>1060</ele>
        <time>2019-08-08T12:29:54.000Z</time>
      </trkpt>
      <trkpt lat="42.86404" lon="1.08897">
        <ele>1061</ele>
        <time>2019-08-08T12:29:55.000Z</time>
      </trkpt>
      <trkpt lat="42.86402" lon="1.089">
        <ele>1061</ele>
        <time>2019-08-08T12:29:56.000Z</time>
      </trkpt>
      <trkpt lat="42.864" lon="1.08904">
        <ele>1061</ele>
        <time>2019-08-08T12:29:57.000Z</time>
      </trkpt>
      <trkpt lat="42.86397" lon="1.08907">
        <ele>1061</ele>
        <time>2019-08-08T12:29:58.000Z</time>
      </trkpt>
      <trkpt lat="42.86395" lon="1.08911">
        <ele>1061</ele>
        <time>2019-08-08T12:29:59.000Z</time>
      </trkpt>
      <trkpt lat="42.86393" lon="1.08915">
        <ele>1061</ele>
        <time>2019-08-08T12:30:00.000Z</time>
      </trkpt>
      <trkpt lat="42.86391" lon="1.08919">
        <ele>1062</ele>
        <time>2019-08-08T12:30:01.000Z</time>
      </trkpt>
      <trkpt lat="42.86389" lon="1.08922">
        <ele>1062</ele>
        <time>2019-08-08T12:30:02.000Z</time>
      </trkpt>
      <trkpt lat="42.86386" lon="1.08926">
        <ele>1062</ele>
        <time>2019-08-08T12:30:03.000Z</time>
      </trkpt>
      <trkpt lat="42.86384" lon="1.08929">
        <ele>1062</ele>
        <time>2019-08-08T12:30:04.000Z</time>
      </trkpt>
      <trkpt lat="42.86382" lon="1.08933">
        <ele>1062</ele>
        <time>2019-08-08T12:30:05.000Z</time>
      </trkpt>
      <trkpt lat="42.86381" lon="1.08937">
        <ele>1062</ele>
        <time>2019-08-08T12:30:06.000Z</time>
      </trkpt>
      <trkpt lat="42.86379" lon="1.08941">
        <ele>1063</ele>
        <time>2019-08-08T12:30:07.000Z</time>
      </trkpt>
      <trkpt lat="42.86377" lon="1.08945">
        <ele>1063</ele>
        <time>2019-08-08T12:30:08.000Z</time>
      </trkpt>
      <trkpt lat="42.86375" lon="1.08949">
        <ele>1063</ele>
        <time>2019-08-08T12:30:09.000Z</time>
      </trkpt>
      <trkpt lat="42.86373" lon="1.08953">
        <ele>1063</ele>
        <time>2019-08-08T12:30:10.000Z</time>
      </trkpt>
      <trkpt lat="42.86371" lon="1.08957">
        <ele>1064</ele>
        <time>2019-08-08T12:30:11.000Z</time>
      </trkpt>
      <trkpt lat="42.86369" lon="1.0896">
        <ele>1064</ele>
        <time>2019-08-08T12:30:12.000Z</time>
      </trkpt>
      <trkpt lat="42.86367" lon="1.08963">
        <ele>1064</ele>
        <time>2019-08-08T12:30:13.000Z</time>
      </trkpt>
      <trkpt lat="42.86364" lon="1.08967">
        <ele>1064</ele>
        <time>2019-08-08T12:30:14.000Z</time>
      </trkpt>
      <trkpt lat="42.86362" lon="1.0897">
        <ele>1064</ele>
        <time>2019-08-08T12:30:15.000Z</time>
      </trkpt>
      <trkpt lat="42.8636" lon="1.08974">
        <ele>1065</ele>
        <time>2019-08-08T12:30:16.000Z</time>
      </trkpt>
      <trkpt lat="42.86359" lon="1.08978">
        <ele>1065</ele>
        <time>2019-08-08T12:30:17.000Z</time>
      </trkpt>
      <trkpt lat="42.86356" lon="1.08984">
        <ele>1065</ele>
        <time>2019-08-08T12:30:18.000Z</time>
      </trkpt>
      <trkpt lat="42.86355" lon="1.08986">
        <ele>1065</ele>
        <time>2019-08-08T12:30:19.000Z</time>
      </trkpt>
      <trkpt lat="42.86353" lon="1.0899">
        <ele>1065</ele>
        <time>2019-08-08T12:30:20.000Z</time>
      </trkpt>
      <trkpt lat="42.8635" lon="1.08993">
        <ele>1066</ele>
        <time>2019-08-08T12:30:21.000Z</time>
      </trkpt>
      <trkpt lat="42.86348" lon="1.08997">
        <ele>1066</ele>
        <time>2019-08-08T12:30:22.000Z</time>
      </trkpt>
      <trkpt lat="42.86347" lon="1.09001">
        <ele>1066</ele>
        <time>2019-08-08T12:30:23.000Z</time>
      </trkpt>
      <trkpt lat="42.86345" lon="1.09005">
        <ele>1066</ele>
        <time>2019-08-08T12:30:24.000Z</time>
      </trkpt>
      <trkpt lat="42.86343" lon="1.09009">
        <ele>1066</ele>
        <time>2019-08-08T12:30:25.000Z</time>
      </trkpt>
      <trkpt lat="42.86342" lon="1.09013">
        <ele>1066</ele>
        <time>2019-08-08T12:30:26.000Z</time>
      </trkpt>
      <trkpt lat="42.8634" lon="1.09018">
        <ele>1067</ele>
        <time>2019-08-08T12:30:27.000Z</time>
      </trkpt>
      <trkpt lat="42.86339" lon="1.09022">
        <ele>1067</ele>
        <time>2019-08-08T12:30:28.000Z</time>
      </trkpt>
      <trkpt lat="42.86337" lon="1.09026">
        <ele>1068</ele>
        <time>2019-08-08T12:30:29.000Z</time>
      </trkpt>
      <trkpt lat="42.86335" lon="1.0903">
        <ele>1068</ele>
        <time>2019-08-08T12:30:30.000Z</time>
      </trkpt>
      <trkpt lat="42.86334" lon="1.09034">
        <ele>1068</ele>
        <time>2019-08-08T12:30:31.000Z</time>
      </trkpt>
      <trkpt lat="42.86332" lon="1.09038">
        <ele>1068</ele>
        <time>2019-08-08T12:30:32.000Z</time>
      </trkpt>
      <trkpt lat="42.8633" lon="1.09042">
        <ele>1069</ele>
        <time>2019-08-08T12:30:33.000Z</time>
      </trkpt>
      <trkpt lat="42.86328" lon="1.09046">
        <ele>1069</ele>
        <time>2019-08-08T12:30:34.000Z</time>
      </trkpt>
      <trkpt lat="42.86326" lon="1.0905">
        <ele>1069</ele>
        <time>2019-08-08T12:30:35.000Z</time>
      </trkpt>
      <trkpt lat="42.86324" lon="1.09054">
        <ele>1069</ele>
        <time>2019-08-08T12:30:36.000Z</time>
      </trkpt>
      <trkpt lat="42.86322" lon="1.09057">
        <ele>1070</ele>
        <time>2019-08-08T12:30:37.000Z</time>
      </trkpt>
      <trkpt lat="42.8632" lon="1.09061">
        <ele>1070</ele>
        <time>2019-08-08T12:30:38.000Z</time>
      </trkpt>
      <trkpt lat="42.86318" lon="1.09065">
        <ele>1070</ele>
        <time>2019-08-08T12:30:39.000Z</time>
      </trkpt>
      <trkpt lat="42.86316" lon="1.0907">
        <ele>1070</ele>
        <time>2019-08-08T12:30:40.000Z</time>
      </trkpt>
      <trkpt lat="42.86314" lon="1.09074">
        <ele>1070</ele>
        <time>2019-08-08T12:30:41.000Z</time>
      </trkpt>
      <trkpt lat="42.86312" lon="1.09079">
        <ele>1070</ele>
        <time>2019-08-08T12:30:42.000Z</time>
      </trkpt>
      <trkpt lat="42.86311" lon="1.09083">
        <ele>1070</ele>
        <time>2019-08-08T12:30:43.000Z</time>
      </trkpt>
      <trkpt lat="42.86309" lon="1.09087">
        <ele>1070</ele>
        <time>2019-08-08T12:30:44.000Z</time>
      </trkpt>
      <trkpt lat="42.86307" lon="1.09092">
        <ele>1070</ele>
        <time>2019-08-08T12:30:45.000Z</time>
      </trkpt>
      <trkpt lat="42.86306" lon="1.09097">
        <ele>1071</ele>
        <time>2019-08-08T12:30:46.000Z</time>
      </trkpt>
      <trkpt lat="42.86304" lon="1.09102">
        <ele>1071</ele>
        <time>2019-08-08T12:30:47.000Z</time>
      </trkpt>
      <trkpt lat="42.86303" lon="1.09106">
        <ele>1071</ele>
        <time>2019-08-08T12:30:48.000Z</time>
      </trkpt>
      <trkpt lat="42.86301" lon="1.0911">
        <ele>1072</ele>
        <time>2019-08-08T12:30:49.000Z</time>
      </trkpt>
      <trkpt lat="42.863" lon="1.09114">
        <ele>1072</ele>
        <time>2019-08-08T12:30:50.000Z</time>
      </trkpt>
      <trkpt lat="42.86299" lon="1.09118">
        <ele>1072</ele>
        <time>2019-08-08T12:30:51.000Z</time>
      </trkpt>
      <trkpt lat="42.86297" lon="1.09122">
        <ele>1072</ele>
        <time>2019-08-08T12:30:52.000Z</time>
      </trkpt>
      <trkpt lat="42.86295" lon="1.09126">
        <ele>1072</ele>
        <time>2019-08-08T12:30:53.000Z</time>
      </trkpt>
      <trkpt lat="42.86293" lon="1.0913">
        <ele>1072</ele>
        <time>2019-08-08T12:30:54.000Z</time>
      </trkpt>
      <trkpt lat="42.86293" lon="1.0913">
        <ele>1072</ele>
        <time>2019-08-08T12:30:55.000Z</time>
      </trkpt>
      <trkpt lat="42.86293" lon="1.0913">
        <ele>1072</ele>
        <time>2019-08-08T12:30:56.000Z</time>
      </trkpt>
      <trkpt lat="42.86287" lon="1.09142">
        <ele>1072</ele>
        <time>2019-08-08T12:30:57.000Z</time>
      </trkpt>
      <trkpt lat="42.86285" lon="1.09147">
        <ele>1072</ele>
        <time>2019-08-08T12:30:58.000Z</time>
      </trkpt>
      <trkpt lat="42.86284" lon="1.09151">
        <ele>1072</ele>
        <time>2019-08-08T12:30:59.000Z</time>
      </trkpt>
      <trkpt lat="42.86282" lon="1.09155">
        <ele>1072</ele>
        <time>2019-08-08T12:31:00.000Z</time>
      </trkpt>
      <trkpt lat="42.8628" lon="1.09159">
        <ele>1073</ele>
        <time>2019-08-08T12:31:01.000Z</time>
      </trkpt>
      <trkpt lat="42.86279" lon="1.09163">
        <ele>1073</ele>
        <time>2019-08-08T12:31:02.000Z</time>
      </trkpt>
      <trkpt lat="42.86277" lon="1.09167">
        <ele>1074</ele>
        <time>2019-08-08T12:31:03.000Z</time>
      </trkpt>
      <trkpt lat="42.86277" lon="1.09172">
        <ele>1074</ele>
        <time>2019-08-08T12:31:04.000Z</time>
      </trkpt>
      <trkpt lat="42.86276" lon="1.09177">
        <ele>1074</ele>
        <time>2019-08-08T12:31:05.000Z</time>
      </trkpt>
      <trkpt lat="42.86274" lon="1.09181">
        <ele>1074</ele>
        <time>2019-08-08T12:31:06.000Z</time>
      </trkpt>
      <trkpt lat="42.86273" lon="1.09185">
        <ele>1075</ele>
        <time>2019-08-08T12:31:07.000Z</time>
      </trkpt>
      <trkpt lat="42.86271" lon="1.09189">
        <ele>1075</ele>
        <time>2019-08-08T12:31:08.000Z</time>
      </trkpt>
      <trkpt lat="42.86269" lon="1.09193">
        <ele>1075</ele>
        <time>2019-08-08T12:31:09.000Z</time>
      </trkpt>
      <trkpt lat="42.86268" lon="1.09197">
        <ele>1076</ele>
        <time>2019-08-08T12:31:10.000Z</time>
      </trkpt>
      <trkpt lat="42.86267" lon="1.09201">
        <ele>1076</ele>
        <time>2019-08-08T12:31:11.000Z</time>
      </trkpt>
      <trkpt lat="42.86266" lon="1.09206">
        <ele>1076</ele>
        <time>2019-08-08T12:31:12.000Z</time>
      </trkpt>
      <trkpt lat="42.86265" lon="1.09211">
        <ele>1076</ele>
        <time>2019-08-08T12:31:13.000Z</time>
      </trkpt>
      <trkpt lat="42.86264" lon="1.09215">
        <ele>1077</ele>
        <time>2019-08-08T12:31:14.000Z</time>
      </trkpt>
      <trkpt lat="42.86262" lon="1.09222">
        <ele>1077</ele>
        <time>2019-08-08T12:31:15.000Z</time>
      </trkpt>
      <trkpt lat="42.86262" lon="1.09224">
        <ele>1077</ele>
        <time>2019-08-08T12:31:16.000Z</time>
      </trkpt>
      <trkpt lat="42.8626" lon="1.09228">
        <ele>1077</ele>
        <time>2019-08-08T12:31:17.000Z</time>
      </trkpt>
      <trkpt lat="42.86259" lon="1.09232">
        <ele>1077</ele>
        <time>2019-08-08T12:31:18.000Z</time>
      </trkpt>
      <trkpt lat="42.86258" lon="1.09236">
        <ele>1077</ele>
        <time>2019-08-08T12:31:19.000Z</time>
      </trkpt>
      <trkpt lat="42.86256" lon="1.0924">
        <ele>1077</ele>
        <time>2019-08-08T12:31:20.000Z</time>
      </trkpt>
      <trkpt lat="42.86254" lon="1.09244">
        <ele>1078</ele>
        <time>2019-08-08T12:31:21.000Z</time>
      </trkpt>
      <trkpt lat="42.86253" lon="1.09249">
        <ele>1078</ele>
        <time>2019-08-08T12:31:22.000Z</time>
      </trkpt>
      <trkpt lat="42.86251" lon="1.09253">
        <ele>1078</ele>
        <time>2019-08-08T12:31:23.000Z</time>
      </trkpt>
      <trkpt lat="42.8625" lon="1.09257">
        <ele>1078</ele>
        <time>2019-08-08T12:31:24.000Z</time>
      </trkpt>
      <trkpt lat="42.86248" lon="1.09261">
        <ele>1078</ele>
        <time>2019-08-08T12:31:25.000Z</time>
      </trkpt>
      <trkpt lat="42.86247" lon="1.09266">
        <ele>1079</ele>
        <time>2019-08-08T12:31:26.000Z</time>
      </trkpt>
      <trkpt lat="42.86245" lon="1.0927">
        <ele>1079</ele>
        <time>2019-08-08T12:31:27.000Z</time>
      </trkpt>
      <trkpt lat="42.86243" lon="1.09274">
        <ele>1080</ele>
        <time>2019-08-08T12:31:28.000Z</time>
      </trkpt>
      <trkpt lat="42.86242" lon="1.09278">
        <ele>1080</ele>
        <time>2019-08-08T12:31:29.000Z</time>
      </trkpt>
      <trkpt lat="42.8624" lon="1.09283">
        <ele>1080</ele>
        <time>2019-08-08T12:31:30.000Z</time>
      </trkpt>
      <trkpt lat="42.86238" lon="1.09286">
        <ele>1080</ele>
        <time>2019-08-08T12:31:31.000Z</time>
      </trkpt>
      <trkpt lat="42.86235" lon="1.09289">
        <ele>1080</ele>
        <time>2019-08-08T12:31:32.000Z</time>
      </trkpt>
      <trkpt lat="42.86233" lon="1.09293">
        <ele>1080</ele>
        <time>2019-08-08T12:31:33.000Z</time>
      </trkpt>
      <trkpt lat="42.8623" lon="1.09296">
        <ele>1080</ele>
        <time>2019-08-08T12:31:34.000Z</time>
      </trkpt>
      <trkpt lat="42.86228" lon="1.093">
        <ele>1081</ele>
        <time>2019-08-08T12:31:35.000Z</time>
      </trkpt>
      <trkpt lat="42.86226" lon="1.09304">
        <ele>1081</ele>
        <time>2019-08-08T12:31:36.000Z</time>
      </trkpt>
      <trkpt lat="42.86224" lon="1.09309">
        <ele>1082</ele>
        <time>2019-08-08T12:31:37.000Z</time>
      </trkpt>
      <trkpt lat="42.86223" lon="1.09313">
        <ele>1082</ele>
        <time>2019-08-08T12:31:38.000Z</time>
      </trkpt>
      <trkpt lat="42.86221" lon="1.09317">
        <ele>1082</ele>
        <time>2019-08-08T12:31:39.000Z</time>
      </trkpt>
      <trkpt lat="42.8622" lon="1.09321">
        <ele>1082</ele>
        <time>2019-08-08T12:31:40.000Z</time>
      </trkpt>
      <trkpt lat="42.86218" lon="1.09325">
        <ele>1082</ele>
        <time>2019-08-08T12:31:41.000Z</time>
      </trkpt>
      <trkpt lat="42.86217" lon="1.09329">
        <ele>1083</ele>
        <time>2019-08-08T12:31:42.000Z</time>
      </trkpt>
      <trkpt lat="42.86215" lon="1.09333">
        <ele>1083</ele>
        <time>2019-08-08T12:31:43.000Z</time>
      </trkpt>
      <trkpt lat="42.86213" lon="1.09337">
        <ele>1084</ele>
        <time>2019-08-08T12:31:44.000Z</time>
      </trkpt>
      <trkpt lat="42.86212" lon="1.09342">
        <ele>1084</ele>
        <time>2019-08-08T12:31:45.000Z</time>
      </trkpt>
      <trkpt lat="42.8621" lon="1.09346">
        <ele>1084</ele>
        <time>2019-08-08T12:31:46.000Z</time>
      </trkpt>
      <trkpt lat="42.86208" lon="1.09349">
        <ele>1084</ele>
        <time>2019-08-08T12:31:47.000Z</time>
      </trkpt>
      <trkpt lat="42.86205" lon="1.09353">
        <ele>1084</ele>
        <time>2019-08-08T12:31:48.000Z</time>
      </trkpt>
      <trkpt lat="42.86203" lon="1.09356">
        <ele>1084</ele>
        <time>2019-08-08T12:31:49.000Z</time>
      </trkpt>
      <trkpt lat="42.86201" lon="1.0936">
        <ele>1085</ele>
        <time>2019-08-08T12:31:50.000Z</time>
      </trkpt>
      <trkpt lat="42.86199" lon="1.09364">
        <ele>1085</ele>
        <time>2019-08-08T12:31:51.000Z</time>
      </trkpt>
      <trkpt lat="42.86197" lon="1.09367">
        <ele>1085</ele>
        <time>2019-08-08T12:31:52.000Z</time>
      </trkpt>
      <trkpt lat="42.86195" lon="1.09371">
        <ele>1085</ele>
        <time>2019-08-08T12:31:53.000Z</time>
      </trkpt>
      <trkpt lat="42.86193" lon="1.09374">
        <ele>1085</ele>
        <time>2019-08-08T12:31:54.000Z</time>
      </trkpt>
      <trkpt lat="42.86191" lon="1.09377">
        <ele>1085</ele>
        <time>2019-08-08T12:31:55.000Z</time>
      </trkpt>
      <trkpt lat="42.86189" lon="1.0938">
        <ele>1085</ele>
        <time>2019-08-08T12:31:56.000Z</time>
      </trkpt>
      <trkpt lat="42.86187" lon="1.09383">
        <ele>1086</ele>
        <time>2019-08-08T12:31:57.000Z</time>
      </trkpt>
      <trkpt lat="42.86185" lon="1.09385">
        <ele>1086</ele>
        <time>2019-08-08T12:31:58.000Z</time>
      </trkpt>
      <trkpt lat="42.86183" lon="1.09388">
        <ele>1087</ele>
        <time>2019-08-08T12:31:59.000Z</time>
      </trkpt>
      <trkpt lat="42.8618" lon="1.0939">
        <ele>1087</ele>
        <time>2019-08-08T12:32:00.000Z</time>
      </trkpt>
      <trkpt lat="42.86178" lon="1.09393">
        <ele>1088</ele>
        <time>2019-08-08T12:32:01.000Z</time>
      </trkpt>
      <trkpt lat="42.86176" lon="1.09395">
        <ele>1088</ele>
        <time>2019-08-08T12:32:02.000Z</time>
      </trkpt>
      <trkpt lat="42.86173" lon="1.09397">
        <ele>1088</ele>
        <time>2019-08-08T12:32:03.000Z</time>
      </trkpt>
      <trkpt lat="42.86171" lon="1.09399">
        <ele>1088</ele>
        <time>2019-08-08T12:32:04.000Z</time>
      </trkpt>
      <trkpt lat="42.86168" lon="1.09401">
        <ele>1088</ele>
        <time>2019-08-08T12:32:05.000Z</time>
      </trkpt>
      <trkpt lat="42.86166" lon="1.09404">
        <ele>1088</ele>
        <time>2019-08-08T12:32:06.000Z</time>
      </trkpt>
      <trkpt lat="42.86163" lon="1.09406">
        <ele>1089</ele>
        <time>2019-08-08T12:32:07.000Z</time>
      </trkpt>
      <trkpt lat="42.86161" lon="1.09409">
        <ele>1089</ele>
        <time>2019-08-08T12:32:08.000Z</time>
      </trkpt>
      <trkpt lat="42.86158" lon="1.09412">
        <ele>1089</ele>
        <time>2019-08-08T12:32:09.000Z</time>
      </trkpt>
      <trkpt lat="42.86156" lon="1.09414">
        <ele>1089</ele>
        <time>2019-08-08T12:32:10.000Z</time>
      </trkpt>
      <trkpt lat="42.86152" lon="1.09418">
        <ele>1089</ele>
        <time>2019-08-08T12:32:11.000Z</time>
      </trkpt>
      <trkpt lat="42.8615" lon="1.09419">
        <ele>1089</ele>
        <time>2019-08-08T12:32:12.000Z</time>
      </trkpt>
      <trkpt lat="42.86147" lon="1.09421">
        <ele>1090</ele>
        <time>2019-08-08T12:32:13.000Z</time>
      </trkpt>
      <trkpt lat="42.86145" lon="1.09423">
        <ele>1090</ele>
        <time>2019-08-08T12:32:14.000Z</time>
      </trkpt>
      <trkpt lat="42.86142" lon="1.09424">
        <ele>1091</ele>
        <time>2019-08-08T12:32:15.000Z</time>
      </trkpt>
      <trkpt lat="42.86139" lon="1.09426">
        <ele>1091</ele>
        <time>2019-08-08T12:32:16.000Z</time>
      </trkpt>
      <trkpt lat="42.86137" lon="1.09428">
        <ele>1091</ele>
        <time>2019-08-08T12:32:17.000Z</time>
      </trkpt>
      <trkpt lat="42.86134" lon="1.0943">
        <ele>1091</ele>
        <time>2019-08-08T12:32:18.000Z</time>
      </trkpt>
      <trkpt lat="42.86131" lon="1.09431">
        <ele>1092</ele>
        <time>2019-08-08T12:32:19.000Z</time>
      </trkpt>
      <trkpt lat="42.86129" lon="1.09432">
        <ele>1092</ele>
        <time>2019-08-08T12:32:20.000Z</time>
      </trkpt>
      <trkpt lat="42.86126" lon="1.09433">
        <ele>1092</ele>
        <time>2019-08-08T12:32:21.000Z</time>
      </trkpt>
      <trkpt lat="42.86123" lon="1.09434">
        <ele>1092</ele>
        <time>2019-08-08T12:32:22.000Z</time>
      </trkpt>
      <trkpt lat="42.8612" lon="1.09434">
        <ele>1092</ele>
        <time>2019-08-08T12:32:23.000Z</time>
      </trkpt>
      <trkpt lat="42.86117" lon="1.09435">
        <ele>1092</ele>
        <time>2019-08-08T12:32:24.000Z</time>
      </trkpt>
      <trkpt lat="42.86115" lon="1.09436">
        <ele>1092</ele>
        <time>2019-08-08T12:32:25.000Z</time>
      </trkpt>
      <trkpt lat="42.86112" lon="1.09436">
        <ele>1093</ele>
        <time>2019-08-08T12:32:26.000Z</time>
      </trkpt>
      <trkpt lat="42.86109" lon="1.09437">
        <ele>1093</ele>
        <time>2019-08-08T12:32:27.000Z</time>
      </trkpt>
      <trkpt lat="42.86105" lon="1.09439">
        <ele>1094</ele>
        <time>2019-08-08T12:32:28.000Z</time>
      </trkpt>
      <trkpt lat="42.86103" lon="1.09439">
        <ele>1094</ele>
        <time>2019-08-08T12:32:29.000Z</time>
      </trkpt>
      <trkpt lat="42.861" lon="1.0944">
        <ele>1094</ele>
        <time>2019-08-08T12:32:30.000Z</time>
      </trkpt>
      <trkpt lat="42.86097" lon="1.0944">
        <ele>1094</ele>
        <time>2019-08-08T12:32:31.000Z</time>
      </trkpt>
      <trkpt lat="42.86094" lon="1.0944">
        <ele>1094</ele>
        <time>2019-08-08T12:32:32.000Z</time>
      </trkpt>
      <trkpt lat="42.86092" lon="1.0944">
        <ele>1094</ele>
        <time>2019-08-08T12:32:33.000Z</time>
      </trkpt>
      <trkpt lat="42.8609" lon="1.09441">
        <ele>1094</ele>
        <time>2019-08-08T12:32:34.000Z</time>
      </trkpt>
      <trkpt lat="42.86087" lon="1.09441">
        <ele>1095</ele>
        <time>2019-08-08T12:32:35.000Z</time>
      </trkpt>
      <trkpt lat="42.86085" lon="1.09441">
        <ele>1095</ele>
        <time>2019-08-08T12:32:36.000Z</time>
      </trkpt>
      <trkpt lat="42.86082" lon="1.09442">
        <ele>1095</ele>
        <time>2019-08-08T12:32:37.000Z</time>
      </trkpt>
      <trkpt lat="42.86079" lon="1.09442">
        <ele>1095</ele>
        <time>2019-08-08T12:32:38.000Z</time>
      </trkpt>
      <trkpt lat="42.86079" lon="1.09442">
        <ele>1096</ele>
        <time>2019-08-08T12:32:39.000Z</time>
      </trkpt>
      <trkpt lat="42.86079" lon="1.09442">
        <ele>1097</ele>
        <time>2019-08-08T12:32:40.000Z</time>
      </trkpt>
      <trkpt lat="42.86067" lon="1.09444">
        <ele>1097</ele>
        <time>2019-08-08T12:32:41.000Z</time>
      </trkpt>
      <trkpt lat="42.86066" lon="1.09444">
        <ele>1097</ele>
        <time>2019-08-08T12:32:42.000Z</time>
      </trkpt>
      <trkpt lat="42.86064" lon="1.09444">
        <ele>1097</ele>
        <time>2019-08-08T12:32:43.000Z</time>
      </trkpt>
      <trkpt lat="42.86059" lon="1.09445">
        <ele>1097</ele>
        <time>2019-08-08T12:32:44.000Z</time>
      </trkpt>
      <trkpt lat="42.86059" lon="1.09445">
        <ele>1097</ele>
        <time>2019-08-08T12:32:45.000Z</time>
      </trkpt>
      <trkpt lat="42.86059" lon="1.09445">
        <ele>1098</ele>
        <time>2019-08-08T12:32:46.000Z</time>
      </trkpt>
      <trkpt lat="42.8605" lon="1.09444">
        <ele>1098</ele>
        <time>2019-08-08T12:32:47.000Z</time>
      </trkpt>
      <trkpt lat="42.8605" lon="1.09444">
        <ele>1099</ele>
        <time>2019-08-08T12:32:48.000Z</time>
      </trkpt>
      <trkpt lat="42.8605" lon="1.09444">
        <ele>1099</ele>
        <time>2019-08-08T12:32:49.000Z</time>
      </trkpt>
      <trkpt lat="42.86039" lon="1.09443">
        <ele>1099</ele>
        <time>2019-08-08T12:32:50.000Z</time>
      </trkpt>
      <trkpt lat="42.86039" lon="1.09443">
        <ele>1099</ele>
        <time>2019-08-08T12:32:51.000Z</time>
      </trkpt>
      <trkpt lat="42.86039" lon="1.09443">
        <ele>1099</ele>
        <time>2019-08-08T12:32:52.000Z</time>
      </trkpt>
      <trkpt lat="42.86029" lon="1.09442">
        <ele>1100</ele>
        <time>2019-08-08T12:32:53.000Z</time>
      </trkpt>
      <trkpt lat="42.86027" lon="1.09442">
        <ele>1100</ele>
        <time>2019-08-08T12:32:54.000Z</time>
      </trkpt>
      <trkpt lat="42.86026" lon="1.09442">
        <ele>1101</ele>
        <time>2019-08-08T12:32:55.000Z</time>
      </trkpt>
      <trkpt lat="42.86025" lon="1.09442">
        <ele>1102</ele>
        <time>2019-08-08T12:32:56.000Z</time>
      </trkpt>
      <trkpt lat="42.86017" lon="1.0944">
        <ele>1102</ele>
        <time>2019-08-08T12:32:57.000Z</time>
      </trkpt>
      <trkpt lat="42.86016" lon="1.0944">
        <ele>1102</ele>
        <time>2019-08-08T12:32:58.000Z</time>
      </trkpt>
      <trkpt lat="42.86014" lon="1.0944">
        <ele>1102</ele>
        <time>2019-08-08T12:32:59.000Z</time>
      </trkpt>
      <trkpt lat="42.86009" lon="1.09438">
        <ele>1102</ele>
        <time>2019-08-08T12:33:00.000Z</time>
      </trkpt>
      <trkpt lat="42.86009" lon="1.09438">
        <ele>1103</ele>
        <time>2019-08-08T12:33:01.000Z</time>
      </trkpt>
      <trkpt lat="42.86009" lon="1.09438">
        <ele>1103</ele>
        <time>2019-08-08T12:33:02.000Z</time>
      </trkpt>
      <trkpt lat="42.85999" lon="1.09435">
        <ele>1103</ele>
        <time>2019-08-08T12:33:03.000Z</time>
      </trkpt>
      <trkpt lat="42.85999" lon="1.09435">
        <ele>1103</ele>
        <time>2019-08-08T12:33:04.000Z</time>
      </trkpt>
      <trkpt lat="42.85999" lon="1.09435">
        <ele>1103</ele>
        <time>2019-08-08T12:33:05.000Z</time>
      </trkpt>
      <trkpt lat="42.85989" lon="1.09433">
        <ele>1104</ele>
        <time>2019-08-08T12:33:06.000Z</time>
      </trkpt>
      <trkpt lat="42.85989" lon="1.09433">
        <ele>1104</ele>
        <time>2019-08-08T12:33:07.000Z</time>
      </trkpt>
      <trkpt lat="42.85989" lon="1.09433">
        <ele>1104</ele>
        <time>2019-08-08T12:33:08.000Z</time>
      </trkpt>
      <trkpt lat="42.85978" lon="1.0943">
        <ele>1104</ele>
        <time>2019-08-08T12:33:09.000Z</time>
      </trkpt>
      <trkpt lat="42.85976" lon="1.09429">
        <ele>1104</ele>
        <time>2019-08-08T12:33:10.000Z</time>
      </trkpt>
      <trkpt lat="42.85975" lon="1.09429">
        <ele>1104</ele>
        <time>2019-08-08T12:33:11.000Z</time>
      </trkpt>
      <trkpt lat="42.85973" lon="1.09428">
        <ele>1104</ele>
        <time>2019-08-08T12:33:12.000Z</time>
      </trkpt>
      <trkpt lat="42.85967" lon="1.09425">
        <ele>1104</ele>
        <time>2019-08-08T12:33:13.000Z</time>
      </trkpt>
      <trkpt lat="42.85967" lon="1.09425">
        <ele>1105</ele>
        <time>2019-08-08T12:33:14.000Z</time>
      </trkpt>
      <trkpt lat="42.85967" lon="1.09425">
        <ele>1105</ele>
        <time>2019-08-08T12:33:15.000Z</time>
      </trkpt>
      <trkpt lat="42.85955" lon="1.09419">
        <ele>1105</ele>
        <time>2019-08-08T12:33:16.000Z</time>
      </trkpt>
      <trkpt lat="42.85952" lon="1.09419">
        <ele>1105</ele>
        <time>2019-08-08T12:33:17.000Z</time>
      </trkpt>
      <trkpt lat="42.8595" lon="1.09418">
        <ele>1106</ele>
        <time>2019-08-08T12:33:18.000Z</time>
      </trkpt>
      <trkpt lat="42.85948" lon="1.09417">
        <ele>1106</ele>
        <time>2019-08-08T12:33:19.000Z</time>
      </trkpt>
      <trkpt lat="42.85945" lon="1.09416">
        <ele>1106</ele>
        <time>2019-08-08T12:33:20.000Z</time>
      </trkpt>
      <trkpt lat="42.85942" lon="1.09415">
        <ele>1106</ele>
        <time>2019-08-08T12:33:21.000Z</time>
      </trkpt>
      <trkpt lat="42.85937" lon="1.09413">
        <ele>1105</ele>
        <time>2019-08-08T12:33:22.000Z</time>
      </trkpt>
      <trkpt lat="42.85934" lon="1.09412">
        <ele>1105</ele>
        <time>2019-08-08T12:33:23.000Z</time>
      </trkpt>
      <trkpt lat="42.85931" lon="1.0941">
        <ele>1107</ele>
        <time>2019-08-08T12:33:24.000Z</time>
      </trkpt>
      <trkpt lat="42.85927" lon="1.09409">
        <ele>1107</ele>
        <time>2019-08-08T12:33:25.000Z</time>
      </trkpt>
      <trkpt lat="42.85924" lon="1.09408">
        <ele>1107</ele>
        <time>2019-08-08T12:33:26.000Z</time>
      </trkpt>
      <trkpt lat="42.85921" lon="1.09407">
        <ele>1107</ele>
        <time>2019-08-08T12:33:27.000Z</time>
      </trkpt>
      <trkpt lat="42.85921" lon="1.09407">
        <ele>1108</ele>
        <time>2019-08-08T12:33:28.000Z</time>
      </trkpt>
      <trkpt lat="42.85921" lon="1.09407">
        <ele>1108</ele>
        <time>2019-08-08T12:33:29.000Z</time>
      </trkpt>
      <trkpt lat="42.85911" lon="1.09403">
        <ele>1108</ele>
        <time>2019-08-08T12:33:30.000Z</time>
      </trkpt>
      <trkpt lat="42.85911" lon="1.09403">
        <ele>1108</ele>
        <time>2019-08-08T12:33:31.000Z</time>
      </trkpt>
      <trkpt lat="42.85904" lon="1.09399">
        <ele>1108</ele>
        <time>2019-08-08T12:33:32.000Z</time>
      </trkpt>
      <trkpt lat="42.85901" lon="1.09397">
        <ele>1108</ele>
        <time>2019-08-08T12:33:33.000Z</time>
      </trkpt>
      <trkpt lat="42.85898" lon="1.09396">
        <ele>1108</ele>
        <time>2019-08-08T12:33:34.000Z</time>
      </trkpt>
      <trkpt lat="42.85895" lon="1.09394">
        <ele>1109.6</ele>
        <time>2019-08-08T12:33:35.000Z</time>
      </trkpt>
      <trkpt lat="42.85892" lon="1.09392">
        <ele>1110</ele>
        <time>2019-08-08T12:33:36.000Z</time>
      </trkpt>
      <trkpt lat="42.85889" lon="1.0939">
        <ele>1110</ele>
        <time>2019-08-08T12:33:37.000Z</time>
      </trkpt>
      <trkpt lat="42.85885" lon="1.09389">
        <ele>1110</ele>
        <time>2019-08-08T12:33:38.000Z</time>
      </trkpt>
      <trkpt lat="42.85882" lon="1.09387">
        <ele>1110</ele>
        <time>2019-08-08T12:33:39.000Z</time>
      </trkpt>
      <trkpt lat="42.85879" lon="1.09385">
        <ele>1110</ele>
        <time>2019-08-08T12:33:40.000Z</time>
      </trkpt>
      <trkpt lat="42.85876" lon="1.09383">
        <ele>1110</ele>
        <time>2019-08-08T12:33:41.000Z</time>
      </trkpt>
      <trkpt lat="42.85873" lon="1.09381">
        <ele>1110</ele>
        <time>2019-08-08T12:33:42.000Z</time>
      </trkpt>
      <trkpt lat="42.8587" lon="1.09379">
        <ele>1111</ele>
        <time>2019-08-08T12:33:43.000Z</time>
      </trkpt>
      <trkpt lat="42.85867" lon="1.09377">
        <ele>1111</ele>
        <time>2019-08-08T12:33:44.000Z</time>
      </trkpt>
      <trkpt lat="42.85864" lon="1.09375">
        <ele>1112</ele>
        <time>2019-08-08T12:33:45.000Z</time>
      </trkpt>
      <trkpt lat="42.85861" lon="1.09373">
        <ele>1112</ele>
        <time>2019-08-08T12:33:46.000Z</time>
      </trkpt>
      <trkpt lat="42.85861" lon="1.09373">
        <ele>1112</ele>
        <time>2019-08-08T12:33:47.000Z</time>
      </trkpt>
      <trkpt lat="42.85861" lon="1.09373">
        <ele>1113</ele>
        <time>2019-08-08T12:33:48.000Z</time>
      </trkpt>
      <trkpt lat="42.85853" lon="1.09368">
        <ele>1113</ele>
        <time>2019-08-08T12:33:49.000Z</time>
      </trkpt>
      <trkpt lat="42.8585" lon="1.09366">
        <ele>1113</ele>
        <time>2019-08-08T12:33:50.000Z</time>
      </trkpt>
      <trkpt lat="42.85847" lon="1.09364">
        <ele>1113</ele>
        <time>2019-08-08T12:33:51.000Z</time>
      </trkpt>
      <trkpt lat="42.85845" lon="1.09362">
        <ele>1113</ele>
        <time>2019-08-08T12:33:52.000Z</time>
      </trkpt>
      <trkpt lat="42.85842" lon="1.0936">
        <ele>1113</ele>
        <time>2019-08-08T12:33:53.000Z</time>
      </trkpt>
      <trkpt lat="42.8584" lon="1.09358">
        <ele>1114</ele>
        <time>2019-08-08T12:33:54.000Z</time>
      </trkpt>
      <trkpt lat="42.85837" lon="1.09356">
        <ele>1114</ele>
        <time>2019-08-08T12:33:55.000Z</time>
      </trkpt>
      <trkpt lat="42.85834" lon="1.09354">
        <ele>1115</ele>
        <time>2019-08-08T12:33:56.000Z</time>
      </trkpt>
      <trkpt lat="42.85832" lon="1.09352">
        <ele>1115</ele>
        <time>2019-08-08T12:33:57.000Z</time>
      </trkpt>
      <trkpt lat="42.85829" lon="1.0935">
        <ele>1116</ele>
        <time>2019-08-08T12:33:58.000Z</time>
      </trkpt>
      <trkpt lat="42.85827" lon="1.09349">
        <ele>1116</ele>
        <time>2019-08-08T12:33:59.000Z</time>
      </trkpt>
      <trkpt lat="42.85825" lon="1.09347">
        <ele>1117</ele>
        <time>2019-08-08T12:34:00.000Z</time>
      </trkpt>
      <trkpt lat="42.85822" lon="1.09345">
        <ele>1117</ele>
        <time>2019-08-08T12:34:01.000Z</time>
      </trkpt>
      <trkpt lat="42.8582" lon="1.09343">
        <ele>1117</ele>
        <time>2019-08-08T12:34:02.000Z</time>
      </trkpt>
      <trkpt lat="42.85817" lon="1.09342">
        <ele>1117</ele>
        <time>2019-08-08T12:34:03.000Z</time>
      </trkpt>
      <trkpt lat="42.85815" lon="1.0934">
        <ele>1118</ele>
        <time>2019-08-08T12:34:04.000Z</time>
      </trkpt>
      <trkpt lat="42.85812" lon="1.09338">
        <ele>1118</ele>
        <time>2019-08-08T12:34:05.000Z</time>
      </trkpt>
      <trkpt lat="42.8581" lon="1.09336">
        <ele>1118</ele>
        <time>2019-08-08T12:34:06.000Z</time>
      </trkpt>
      <trkpt lat="42.85807" lon="1.09335">
        <ele>1118</ele>
        <time>2019-08-08T12:34:07.000Z</time>
      </trkpt>
      <trkpt lat="42.85804" lon="1.09332">
        <ele>1118</ele>
        <time>2019-08-08T12:34:08.000Z</time>
      </trkpt>
      <trkpt lat="42.85803" lon="1.09331">
        <ele>1118</ele>
        <time>2019-08-08T12:34:09.000Z</time>
      </trkpt>
      <trkpt lat="42.858" lon="1.09329">
        <ele>1118</ele>
        <time>2019-08-08T12:34:10.000Z</time>
      </trkpt>
      <trkpt lat="42.85798" lon="1.09328">
        <ele>1118</ele>
        <time>2019-08-08T12:34:11.000Z</time>
      </trkpt>
      <trkpt lat="42.85795" lon="1.09326">
        <ele>1118</ele>
        <time>2019-08-08T12:34:12.000Z</time>
      </trkpt>
      <trkpt lat="42.85793" lon="1.09324">
        <ele>1119</ele>
        <time>2019-08-08T12:34:13.000Z</time>
      </trkpt>
      <trkpt lat="42.85791" lon="1.09323">
        <ele>1119</ele>
        <time>2019-08-08T12:34:14.000Z</time>
      </trkpt>
      <trkpt lat="42.85788" lon="1.09321">
        <ele>1119</ele>
        <time>2019-08-08T12:34:15.000Z</time>
      </trkpt>
      <trkpt lat="42.85788" lon="1.09321">
        <ele>1119</ele>
        <time>2019-08-08T12:34:16.000Z</time>
      </trkpt>
      <trkpt lat="42.85783" lon="1.09318">
        <ele>1119</ele>
        <time>2019-08-08T12:34:17.000Z</time>
      </trkpt>
      <trkpt lat="42.8578" lon="1.09316">
        <ele>1119</ele>
        <time>2019-08-08T12:34:18.000Z</time>
      </trkpt>
      <trkpt lat="42.85778" lon="1.09314">
        <ele>1121</ele>
        <time>2019-08-08T12:34:19.000Z</time>
      </trkpt>
      <trkpt lat="42.85775" lon="1.09311">
        <ele>1121</ele>
        <time>2019-08-08T12:34:20.000Z</time>
      </trkpt>
      <trkpt lat="42.85773" lon="1.09309">
        <ele>1121</ele>
        <time>2019-08-08T12:34:21.000Z</time>
      </trkpt>
      <trkpt lat="42.85773" lon="1.09309">
        <ele>1121</ele>
        <time>2019-08-08T12:34:22.000Z</time>
      </trkpt>
      <trkpt lat="42.85767" lon="1.09305">
        <ele>1121</ele>
        <time>2019-08-08T12:34:23.000Z</time>
      </trkpt>
      <trkpt lat="42.85764" lon="1.09303">
        <ele>1121</ele>
        <time>2019-08-08T12:34:24.000Z</time>
      </trkpt>
      <trkpt lat="42.85761" lon="1.09301">
        <ele>1121</ele>
        <time>2019-08-08T12:34:25.000Z</time>
      </trkpt>
      <trkpt lat="42.85758" lon="1.09299">
        <ele>1121</ele>
        <time>2019-08-08T12:34:26.000Z</time>
      </trkpt>
      <trkpt lat="42.85755" lon="1.09296">
        <ele>1121</ele>
        <time>2019-08-08T12:34:27.000Z</time>
      </trkpt>
      <trkpt lat="42.85752" lon="1.09294">
        <ele>1122</ele>
        <time>2019-08-08T12:34:28.000Z</time>
      </trkpt>
      <trkpt lat="42.8575" lon="1.09293">
        <ele>1122</ele>
        <time>2019-08-08T12:34:29.000Z</time>
      </trkpt>
      <trkpt lat="42.85748" lon="1.09291">
        <ele>1122</ele>
        <time>2019-08-08T12:34:30.000Z</time>
      </trkpt>
      <trkpt lat="42.85745" lon="1.09289">
        <ele>1122</ele>
        <time>2019-08-08T12:34:31.000Z</time>
      </trkpt>
      <trkpt lat="42.85742" lon="1.09287">
        <ele>1123</ele>
        <time>2019-08-08T12:34:32.000Z</time>
      </trkpt>
      <trkpt lat="42.8574" lon="1.09285">
        <ele>1123</ele>
        <time>2019-08-08T12:34:33.000Z</time>
      </trkpt>
      <trkpt lat="42.85735" lon="1.0928">
        <ele>1123</ele>
        <time>2019-08-08T12:34:34.000Z</time>
      </trkpt>
      <trkpt lat="42.85734" lon="1.09279">
        <ele>1123</ele>
        <time>2019-08-08T12:34:35.000Z</time>
      </trkpt>
      <trkpt lat="42.85732" lon="1.09278">
        <ele>1124</ele>
        <time>2019-08-08T12:34:36.000Z</time>
      </trkpt>
      <trkpt lat="42.85728" lon="1.09274">
        <ele>1124</ele>
        <time>2019-08-08T12:34:37.000Z</time>
      </trkpt>
      <trkpt lat="42.85728" lon="1.09274">
        <ele>1124</ele>
        <time>2019-08-08T12:34:38.000Z</time>
      </trkpt>
      <trkpt lat="42.85728" lon="1.09274">
        <ele>1124</ele>
        <time>2019-08-08T12:34:39.000Z</time>
      </trkpt>
      <trkpt lat="42.85719" lon="1.09265">
        <ele>1125</ele>
        <time>2019-08-08T12:34:40.000Z</time>
      </trkpt>
      <trkpt lat="42.85718" lon="1.09264">
        <ele>1125</ele>
        <time>2019-08-08T12:34:41.000Z</time>
      </trkpt>
      <trkpt lat="42.85716" lon="1.09263">
        <ele>1125</ele>
        <time>2019-08-08T12:34:42.000Z</time>
      </trkpt>
      <trkpt lat="42.85715" lon="1.09262">
        <ele>1125</ele>
        <time>2019-08-08T12:34:43.000Z</time>
      </trkpt>
      <trkpt lat="42.85711" lon="1.09257">
        <ele>1125</ele>
        <time>2019-08-08T12:34:44.000Z</time>
      </trkpt>
      <trkpt lat="42.85711" lon="1.09257">
        <ele>1126</ele>
        <time>2019-08-08T12:34:45.000Z</time>
      </trkpt>
      <trkpt lat="42.85711" lon="1.09257">
        <ele>1126</ele>
        <time>2019-08-08T12:34:46.000Z</time>
      </trkpt>
      <trkpt lat="42.85703" lon="1.0925">
        <ele>1127</ele>
        <time>2019-08-08T12:34:47.000Z</time>
      </trkpt>
      <trkpt lat="42.85703" lon="1.0925">
        <ele>1127</ele>
        <time>2019-08-08T12:34:48.000Z</time>
      </trkpt>
      <trkpt lat="42.85703" lon="1.0925">
        <ele>1127</ele>
        <time>2019-08-08T12:34:49.000Z</time>
      </trkpt>
      <trkpt lat="42.85695" lon="1.09242">
        <ele>1127</ele>
        <time>2019-08-08T12:34:50.000Z</time>
      </trkpt>
      <trkpt lat="42.85695" lon="1.09242">
        <ele>1128</ele>
        <time>2019-08-08T12:34:51.000Z</time>
      </trkpt>
      <trkpt lat="42.85695" lon="1.09242">
        <ele>1128</ele>
        <time>2019-08-08T12:34:52.000Z</time>
      </trkpt>
      <trkpt lat="42.85685" lon="1.09234">
        <ele>1128</ele>
        <time>2019-08-08T12:34:53.000Z</time>
      </trkpt>
      <trkpt lat="42.85684" lon="1.09234">
        <ele>1128</ele>
        <time>2019-08-08T12:34:54.000Z</time>
      </trkpt>
      <trkpt lat="42.85683" lon="1.09233">
        <ele>1129</ele>
        <time>2019-08-08T12:34:55.000Z</time>
      </trkpt>
      <trkpt lat="42.85681" lon="1.09232">
        <ele>1129</ele>
        <time>2019-08-08T12:34:56.000Z</time>
      </trkpt>
      <trkpt lat="42.85676" lon="1.09229">
        <ele>1129</ele>
        <time>2019-08-08T12:34:57.000Z</time>
      </trkpt>
      <trkpt lat="42.85676" lon="1.09229">
        <ele>1129</ele>
        <time>2019-08-08T12:34:58.000Z</time>
      </trkpt>
      <trkpt lat="42.8567" lon="1.09225">
        <ele>1129</ele>
        <time>2019-08-08T12:34:59.000Z</time>
      </trkpt>
      <trkpt lat="42.85667" lon="1.09223">
        <ele>1130</ele>
        <time>2019-08-08T12:35:00.000Z</time>
      </trkpt>
      <trkpt lat="42.85664" lon="1.09222">
        <ele>1130</ele>
        <time>2019-08-08T12:35:01.000Z</time>
      </trkpt>
      <trkpt lat="42.8566" lon="1.0922">
        <ele>1131</ele>
        <time>2019-08-08T12:35:02.000Z</time>
      </trkpt>
      <trkpt lat="42.85657" lon="1.09218">
        <ele>1131</ele>
        <time>2019-08-08T12:35:03.000Z</time>
      </trkpt>
      <trkpt lat="42.85655" lon="1.09216">
        <ele>1131</ele>
        <time>2019-08-08T12:35:04.000Z</time>
      </trkpt>
      <trkpt lat="42.85652" lon="1.09214">
        <ele>1131</ele>
        <time>2019-08-08T12:35:05.000Z</time>
      </trkpt>
      <trkpt lat="42.85649" lon="1.09213">
        <ele>1132</ele>
        <time>2019-08-08T12:35:06.000Z</time>
      </trkpt>
      <trkpt lat="42.85646" lon="1.09211">
        <ele>1132</ele>
        <time>2019-08-08T12:35:07.000Z</time>
      </trkpt>
      <trkpt lat="42.85643" lon="1.0921">
        <ele>1132</ele>
        <time>2019-08-08T12:35:08.000Z</time>
      </trkpt>
      <trkpt lat="42.8564" lon="1.09208">
        <ele>1132</ele>
        <time>2019-08-08T12:35:09.000Z</time>
      </trkpt>
      <trkpt lat="42.85637" lon="1.09207">
        <ele>1133</ele>
        <time>2019-08-08T12:35:10.000Z</time>
      </trkpt>
      <trkpt lat="42.85637" lon="1.09207">
        <ele>1133</ele>
        <time>2019-08-08T12:35:11.000Z</time>
      </trkpt>
      <trkpt lat="42.85631" lon="1.09204">
        <ele>1133</ele>
        <time>2019-08-08T12:35:12.000Z</time>
      </trkpt>
      <trkpt lat="42.85628" lon="1.09203">
        <ele>1133</ele>
        <time>2019-08-08T12:35:13.000Z</time>
      </trkpt>
      <trkpt lat="42.85625" lon="1.09202">
        <ele>1133</ele>
        <time>2019-08-08T12:35:14.000Z</time>
      </trkpt>
      <trkpt lat="42.85621" lon="1.09201">
        <ele>1134</ele>
        <time>2019-08-08T12:35:15.000Z</time>
      </trkpt>
      <trkpt lat="42.85618" lon="1.09201">
        <ele>1134</ele>
        <time>2019-08-08T12:35:16.000Z</time>
      </trkpt>
      <trkpt lat="42.85615" lon="1.09201">
        <ele>1134</ele>
        <time>2019-08-08T12:35:17.000Z</time>
      </trkpt>
      <trkpt lat="42.85612" lon="1.09201">
        <ele>1135</ele>
        <time>2019-08-08T12:35:18.000Z</time>
      </trkpt>
      <trkpt lat="42.85609" lon="1.09201">
        <ele>1135</ele>
        <time>2019-08-08T12:35:19.000Z</time>
      </trkpt>
      <trkpt lat="42.85605" lon="1.09202">
        <ele>1135</ele>
        <time>2019-08-08T12:35:20.000Z</time>
      </trkpt>
      <trkpt lat="42.85602" lon="1.09202">
        <ele>1135</ele>
        <time>2019-08-08T12:35:21.000Z</time>
      </trkpt>
      <trkpt lat="42.85599" lon="1.09203">
        <ele>1135</ele>
        <time>2019-08-08T12:35:22.000Z</time>
      </trkpt>
      <trkpt lat="42.85596" lon="1.09204">
        <ele>1135</ele>
        <time>2019-08-08T12:35:23.000Z</time>
      </trkpt>
      <trkpt lat="42.85593" lon="1.09206">
        <ele>1135</ele>
        <time>2019-08-08T12:35:24.000Z</time>
      </trkpt>
      <trkpt lat="42.85591" lon="1.09208">
        <ele>1135</ele>
        <time>2019-08-08T12:35:25.000Z</time>
      </trkpt>
      <trkpt lat="42.85588" lon="1.09211">
        <ele>1136</ele>
        <time>2019-08-08T12:35:26.000Z</time>
      </trkpt>
      <trkpt lat="42.85586" lon="1.09213">
        <ele>1136</ele>
        <time>2019-08-08T12:35:27.000Z</time>
      </trkpt>
      <trkpt lat="42.85583" lon="1.09215">
        <ele>1136</ele>
        <time>2019-08-08T12:35:28.000Z</time>
      </trkpt>
      <trkpt lat="42.85581" lon="1.09218">
        <ele>1136</ele>
        <time>2019-08-08T12:35:29.000Z</time>
      </trkpt>
      <trkpt lat="42.85577" lon="1.09222">
        <ele>1136</ele>
        <time>2019-08-08T12:35:30.000Z</time>
      </trkpt>
      <trkpt lat="42.85576" lon="1.09224">
        <ele>1136</ele>
        <time>2019-08-08T12:35:31.000Z</time>
      </trkpt>
      <trkpt lat="42.85573" lon="1.09226">
        <ele>1137</ele>
        <time>2019-08-08T12:35:32.000Z</time>
      </trkpt>
      <trkpt lat="42.8557" lon="1.09229">
        <ele>1137</ele>
        <time>2019-08-08T12:35:33.000Z</time>
      </trkpt>
      <trkpt lat="42.85568" lon="1.09232">
        <ele>1137</ele>
        <time>2019-08-08T12:35:34.000Z</time>
      </trkpt>
      <trkpt lat="42.85565" lon="1.09235">
        <ele>1137</ele>
        <time>2019-08-08T12:35:35.000Z</time>
      </trkpt>
      <trkpt lat="42.85563" lon="1.09237">
        <ele>1137</ele>
        <time>2019-08-08T12:35:36.000Z</time>
      </trkpt>
      <trkpt lat="42.85559" lon="1.09239">
        <ele>1138</ele>
        <time>2019-08-08T12:35:37.000Z</time>
      </trkpt>
      <trkpt lat="42.85556" lon="1.09242">
        <ele>1138</ele>
        <time>2019-08-08T12:35:38.000Z</time>
      </trkpt>
      <trkpt lat="42.85552" lon="1.09247">
        <ele>1139</ele>
        <time>2019-08-08T12:35:39.000Z</time>
      </trkpt>
      <trkpt lat="42.85551" lon="1.09248">
        <ele>1139</ele>
        <time>2019-08-08T12:35:40.000Z</time>
      </trkpt>
      <trkpt lat="42.8555" lon="1.0925">
        <ele>1139</ele>
        <time>2019-08-08T12:35:41.000Z</time>
      </trkpt>
      <trkpt lat="42.85546" lon="1.09255">
        <ele>1139</ele>
        <time>2019-08-08T12:35:42.000Z</time>
      </trkpt>
      <trkpt lat="42.85543" lon="1.09259">
        <ele>1139</ele>
        <time>2019-08-08T12:35:43.000Z</time>
      </trkpt>
      <trkpt lat="42.85541" lon="1.09262">
        <ele>1139</ele>
        <time>2019-08-08T12:35:44.000Z</time>
      </trkpt>
      <trkpt lat="42.85538" lon="1.09266">
        <ele>1139</ele>
        <time>2019-08-08T12:35:45.000Z</time>
      </trkpt>
      <trkpt lat="42.85536" lon="1.09269">
        <ele>1139</ele>
        <time>2019-08-08T12:35:46.000Z</time>
      </trkpt>
      <trkpt lat="42.85532" lon="1.09273">
        <ele>1140</ele>
        <time>2019-08-08T12:35:47.000Z</time>
      </trkpt>
      <trkpt lat="42.85531" lon="1.09275">
        <ele>1140</ele>
        <time>2019-08-08T12:35:48.000Z</time>
      </trkpt>
      <trkpt lat="42.85528" lon="1.09277">
        <ele>1141</ele>
        <time>2019-08-08T12:35:49.000Z</time>
      </trkpt>
      <trkpt lat="42.85526" lon="1.0928">
        <ele>1141</ele>
        <time>2019-08-08T12:35:50.000Z</time>
      </trkpt>
      <trkpt lat="42.85523" lon="1.09283">
        <ele>1141</ele>
        <time>2019-08-08T12:35:51.000Z</time>
      </trkpt>
      <trkpt lat="42.8552" lon="1.09286">
        <ele>1141</ele>
        <time>2019-08-08T12:35:52.000Z</time>
      </trkpt>
      <trkpt lat="42.85517" lon="1.09288">
        <ele>1141</ele>
        <time>2019-08-08T12:35:53.000Z</time>
      </trkpt>
      <trkpt lat="42.85515" lon="1.0929">
        <ele>1141</ele>
        <time>2019-08-08T12:35:54.000Z</time>
      </trkpt>
      <trkpt lat="42.85512" lon="1.09293">
        <ele>1141</ele>
        <time>2019-08-08T12:35:55.000Z</time>
      </trkpt>
      <trkpt lat="42.85509" lon="1.09295">
        <ele>1141</ele>
        <time>2019-08-08T12:35:56.000Z</time>
      </trkpt>
      <trkpt lat="42.85507" lon="1.09298">
        <ele>1142</ele>
        <time>2019-08-08T12:35:57.000Z</time>
      </trkpt>
      <trkpt lat="42.85504" lon="1.093">
        <ele>1142</ele>
        <time>2019-08-08T12:35:58.000Z</time>
      </trkpt>
      <trkpt lat="42.85501" lon="1.09302">
        <ele>1142</ele>
        <time>2019-08-08T12:35:59.000Z</time>
      </trkpt>
      <trkpt lat="42.85501" lon="1.09302">
        <ele>1142</ele>
        <time>2019-08-08T12:36:00.000Z</time>
      </trkpt>
      <trkpt lat="42.85496" lon="1.09306">
        <ele>1143</ele>
        <time>2019-08-08T12:36:01.000Z</time>
      </trkpt>
      <trkpt lat="42.85492" lon="1.09307">
        <ele>1143</ele>
        <time>2019-08-08T12:36:02.000Z</time>
      </trkpt>
      <trkpt lat="42.8549" lon="1.0931">
        <ele>1143</ele>
        <time>2019-08-08T12:36:03.000Z</time>
      </trkpt>
      <trkpt lat="42.8549" lon="1.0931">
        <ele>1143</ele>
        <time>2019-08-08T12:36:04.000Z</time>
      </trkpt>
      <trkpt lat="42.8549" lon="1.0931">
        <ele>1144</ele>
        <time>2019-08-08T12:36:05.000Z</time>
      </trkpt>
      <trkpt lat="42.85483" lon="1.09319">
        <ele>1144</ele>
        <time>2019-08-08T12:36:06.000Z</time>
      </trkpt>
      <trkpt lat="42.85481" lon="1.09321">
        <ele>1145</ele>
        <time>2019-08-08T12:36:07.000Z</time>
      </trkpt>
      <trkpt lat="42.85479" lon="1.09324">
        <ele>1145</ele>
        <time>2019-08-08T12:36:08.000Z</time>
      </trkpt>
      <trkpt lat="42.85477" lon="1.09327">
        <ele>1145</ele>
        <time>2019-08-08T12:36:09.000Z</time>
      </trkpt>
      <trkpt lat="42.85475" lon="1.0933">
        <ele>1145</ele>
        <time>2019-08-08T12:36:10.000Z</time>
      </trkpt>
      <trkpt lat="42.85473" lon="1.09332">
        <ele>1146</ele>
        <time>2019-08-08T12:36:11.000Z</time>
      </trkpt>
      <trkpt lat="42.8547" lon="1.09335">
        <ele>1146</ele>
        <time>2019-08-08T12:36:12.000Z</time>
      </trkpt>
      <trkpt lat="42.85468" lon="1.09338">
        <ele>1146</ele>
        <time>2019-08-08T12:36:13.000Z</time>
      </trkpt>
      <trkpt lat="42.85466" lon="1.09341">
        <ele>1146</ele>
        <time>2019-08-08T12:36:14.000Z</time>
      </trkpt>
      <trkpt lat="42.85464" lon="1.09345">
        <ele>1146</ele>
        <time>2019-08-08T12:36:15.000Z</time>
      </trkpt>
      <trkpt lat="42.85463" lon="1.09348">
        <ele>1147</ele>
        <time>2019-08-08T12:36:16.000Z</time>
      </trkpt>
      <trkpt lat="42.85461" lon="1.09352">
        <ele>1147</ele>
        <time>2019-08-08T12:36:17.000Z</time>
      </trkpt>
      <trkpt lat="42.8546" lon="1.09355">
        <ele>1148</ele>
        <time>2019-08-08T12:36:18.000Z</time>
      </trkpt>
      <trkpt lat="42.85458" lon="1.09358">
        <ele>1148</ele>
        <time>2019-08-08T12:36:19.000Z</time>
      </trkpt>
      <trkpt lat="42.85456" lon="1.09362">
        <ele>1148</ele>
        <time>2019-08-08T12:36:20.000Z</time>
      </trkpt>
      <trkpt lat="42.85454" lon="1.09365">
        <ele>1148</ele>
        <time>2019-08-08T12:36:21.000Z</time>
      </trkpt>
      <trkpt lat="42.85453" lon="1.09369">
        <ele>1148</ele>
        <time>2019-08-08T12:36:22.000Z</time>
      </trkpt>
      <trkpt lat="42.85451" lon="1.09372">
        <ele>1149</ele>
        <time>2019-08-08T12:36:23.000Z</time>
      </trkpt>
      <trkpt lat="42.85449" lon="1.09375">
        <ele>1149</ele>
        <time>2019-08-08T12:36:24.000Z</time>
      </trkpt>
      <trkpt lat="42.85447" lon="1.09379">
        <ele>1149</ele>
        <time>2019-08-08T12:36:25.000Z</time>
      </trkpt>
      <trkpt lat="42.85445" lon="1.09383">
        <ele>1149</ele>
        <time>2019-08-08T12:36:26.000Z</time>
      </trkpt>
      <trkpt lat="42.85444" lon="1.09386">
        <ele>1150</ele>
        <time>2019-08-08T12:36:27.000Z</time>
      </trkpt>
      <trkpt lat="42.85442" lon="1.0939">
        <ele>1150</ele>
        <time>2019-08-08T12:36:28.000Z</time>
      </trkpt>
      <trkpt lat="42.85441" lon="1.09393">
        <ele>1151</ele>
        <time>2019-08-08T12:36:29.000Z</time>
      </trkpt>
      <trkpt lat="42.85439" lon="1.09397">
        <ele>1151</ele>
        <time>2019-08-08T12:36:30.000Z</time>
      </trkpt>
      <trkpt lat="42.85438" lon="1.09401">
        <ele>1151</ele>
        <time>2019-08-08T12:36:31.000Z</time>
      </trkpt>
      <trkpt lat="42.85437" lon="1.09405">
        <ele>1151</ele>
        <time>2019-08-08T12:36:32.000Z</time>
      </trkpt>
      <trkpt lat="42.85435" lon="1.09409">
        <ele>1151</ele>
        <time>2019-08-08T12:36:33.000Z</time>
      </trkpt>
      <trkpt lat="42.85434" lon="1.09412">
        <ele>1151</ele>
        <time>2019-08-08T12:36:34.000Z</time>
      </trkpt>
      <trkpt lat="42.85433" lon="1.09418">
        <ele>1152</ele>
        <time>2019-08-08T12:36:35.000Z</time>
      </trkpt>
      <trkpt lat="42.85433" lon="1.0942">
        <ele>1152</ele>
        <time>2019-08-08T12:36:36.000Z</time>
      </trkpt>
      <trkpt lat="42.85433" lon="1.09422">
        <ele>1152</ele>
        <time>2019-08-08T12:36:37.000Z</time>
      </trkpt>
      <trkpt lat="42.85433" lon="1.09424">
        <ele>1152</ele>
        <time>2019-08-08T12:36:38.000Z</time>
      </trkpt>
      <trkpt lat="42.85434" lon="1.09433">
        <ele>1152</ele>
        <time>2019-08-08T12:36:39.000Z</time>
      </trkpt>
      <trkpt lat="42.85434" lon="1.09433">
        <ele>1152</ele>
        <time>2019-08-08T12:36:40.000Z</time>
      </trkpt>
      <trkpt lat="42.85435" lon="1.09442">
        <ele>1152</ele>
        <time>2019-08-08T12:36:41.000Z</time>
      </trkpt>
      <trkpt lat="42.85435" lon="1.09446">
        <ele>1153</ele>
        <time>2019-08-08T12:36:42.000Z</time>
      </trkpt>
      <trkpt lat="42.85436" lon="1.09451">
        <ele>1154</ele>
        <time>2019-08-08T12:36:43.000Z</time>
      </trkpt>
      <trkpt lat="42.85437" lon="1.09455">
        <ele>1154</ele>
        <time>2019-08-08T12:36:44.000Z</time>
      </trkpt>
      <trkpt lat="42.85437" lon="1.0946">
        <ele>1154</ele>
        <time>2019-08-08T12:36:45.000Z</time>
      </trkpt>
      <trkpt lat="42.85438" lon="1.09464">
        <ele>1154</ele>
        <time>2019-08-08T12:36:46.000Z</time>
      </trkpt>
      <trkpt lat="42.85438" lon="1.09468">
        <ele>1154</ele>
        <time>2019-08-08T12:36:47.000Z</time>
      </trkpt>
      <trkpt lat="42.85438" lon="1.09472">
        <ele>1155</ele>
        <time>2019-08-08T12:36:48.000Z</time>
      </trkpt>
      <trkpt lat="42.85439" lon="1.09476">
        <ele>1155</ele>
        <time>2019-08-08T12:36:49.000Z</time>
      </trkpt>
      <trkpt lat="42.85439" lon="1.0948">
        <ele>1155</ele>
        <time>2019-08-08T12:36:50.000Z</time>
      </trkpt>
      <trkpt lat="42.8544" lon="1.09483">
        <ele>1155</ele>
        <time>2019-08-08T12:36:51.000Z</time>
      </trkpt>
      <trkpt lat="42.8544" lon="1.09487">
        <ele>1155</ele>
        <time>2019-08-08T12:36:52.000Z</time>
      </trkpt>
      <trkpt lat="42.85441" lon="1.09491">
        <ele>1156</ele>
        <time>2019-08-08T12:36:53.000Z</time>
      </trkpt>
      <trkpt lat="42.85441" lon="1.09495">
        <ele>1156</ele>
        <time>2019-08-08T12:36:54.000Z</time>
      </trkpt>
      <trkpt lat="42.85442" lon="1.09499">
        <ele>1156</ele>
        <time>2019-08-08T12:36:55.000Z</time>
      </trkpt>
      <trkpt lat="42.85442" lon="1.09503">
        <ele>1156</ele>
        <time>2019-08-08T12:36:56.000Z</time>
      </trkpt>
      <trkpt lat="42.85442" lon="1.09507">
        <ele>1157</ele>
        <time>2019-08-08T12:36:57.000Z</time>
      </trkpt>
      <trkpt lat="42.85442" lon="1.09511">
        <ele>1157</ele>
        <time>2019-08-08T12:36:58.000Z</time>
      </trkpt>
      <trkpt lat="42.85442" lon="1.09515">
        <ele>1157</ele>
        <time>2019-08-08T12:36:59.000Z</time>
      </trkpt>
      <trkpt lat="42.85443" lon="1.09519">
        <ele>1157</ele>
        <time>2019-08-08T12:37:00.000Z</time>
      </trkpt>
      <trkpt lat="42.85443" lon="1.09522">
        <ele>1157</ele>
        <time>2019-08-08T12:37:01.000Z</time>
      </trkpt>
      <trkpt lat="42.85443" lon="1.09526">
        <ele>1158</ele>
        <time>2019-08-08T12:37:02.000Z</time>
      </trkpt>
      <trkpt lat="42.85444" lon="1.0953">
        <ele>1158</ele>
        <time>2019-08-08T12:37:03.000Z</time>
      </trkpt>
      <trkpt lat="42.85444" lon="1.09534">
        <ele>1158</ele>
        <time>2019-08-08T12:37:04.000Z</time>
      </trkpt>
      <trkpt lat="42.85444" lon="1.09538">
        <ele>1158</ele>
        <time>2019-08-08T12:37:05.000Z</time>
      </trkpt>
      <trkpt lat="42.85445" lon="1.09542">
        <ele>1159</ele>
        <time>2019-08-08T12:37:06.000Z</time>
      </trkpt>
      <trkpt lat="42.85445" lon="1.09546">
        <ele>1159</ele>
        <time>2019-08-08T12:37:07.000Z</time>
      </trkpt>
      <trkpt lat="42.85445" lon="1.0955">
        <ele>1160</ele>
        <time>2019-08-08T12:37:08.000Z</time>
      </trkpt>
      <trkpt lat="42.85446" lon="1.09554">
        <ele>1160</ele>
        <time>2019-08-08T12:37:09.000Z</time>
      </trkpt>
      <trkpt lat="42.85446" lon="1.09558">
        <ele>1160</ele>
        <time>2019-08-08T12:37:10.000Z</time>
      </trkpt>
      <trkpt lat="42.85446" lon="1.09562">
        <ele>1160</ele>
        <time>2019-08-08T12:37:11.000Z</time>
      </trkpt>
      <trkpt lat="42.85447" lon="1.09566">
        <ele>1160</ele>
        <time>2019-08-08T12:37:12.000Z</time>
      </trkpt>
      <trkpt lat="42.85447" lon="1.0957">
        <ele>1160</ele>
        <time>2019-08-08T12:37:13.000Z</time>
      </trkpt>
      <trkpt lat="42.85447" lon="1.09574">
        <ele>1160</ele>
        <time>2019-08-08T12:37:14.000Z</time>
      </trkpt>
      <trkpt lat="42.85447" lon="1.09577">
        <ele>1160</ele>
        <time>2019-08-08T12:37:15.000Z</time>
      </trkpt>
      <trkpt lat="42.85448" lon="1.09581">
        <ele>1161</ele>
        <time>2019-08-08T12:37:16.000Z</time>
      </trkpt>
      <trkpt lat="42.85449" lon="1.09585">
        <ele>1161</ele>
        <time>2019-08-08T12:37:17.000Z</time>
      </trkpt>
      <trkpt lat="42.8545" lon="1.09589">
        <ele>1161</ele>
        <time>2019-08-08T12:37:18.000Z</time>
      </trkpt>
      <trkpt lat="42.85451" lon="1.09593">
        <ele>1161</ele>
        <time>2019-08-08T12:37:19.000Z</time>
      </trkpt>
      <trkpt lat="42.85452" lon="1.09597">
        <ele>1161</ele>
        <time>2019-08-08T12:37:20.000Z</time>
      </trkpt>
      <trkpt lat="42.85452" lon="1.09601">
        <ele>1161</ele>
        <time>2019-08-08T12:37:21.000Z</time>
      </trkpt>
      <trkpt lat="42.85453" lon="1.09604">
        <ele>1162</ele>
        <time>2019-08-08T12:37:22.000Z</time>
      </trkpt>
      <trkpt lat="42.85454" lon="1.09608">
        <ele>1162</ele>
        <time>2019-08-08T12:37:23.000Z</time>
      </trkpt>
      <trkpt lat="42.85456" lon="1.09612">
        <ele>1162</ele>
        <time>2019-08-08T12:37:24.000Z</time>
      </trkpt>
      <trkpt lat="42.85457" lon="1.09615">
        <ele>1162</ele>
        <time>2019-08-08T12:37:25.000Z</time>
      </trkpt>
      <trkpt lat="42.85459" lon="1.09618">
        <ele>1162</ele>
        <time>2019-08-08T12:37:26.000Z</time>
      </trkpt>
      <trkpt lat="42.85461" lon="1.09621">
        <ele>1163</ele>
        <time>2019-08-08T12:37:27.000Z</time>
      </trkpt>
      <trkpt lat="42.85463" lon="1.09623">
        <ele>1163</ele>
        <time>2019-08-08T12:37:28.000Z</time>
      </trkpt>
      <trkpt lat="42.85465" lon="1.09625">
        <ele>1164</ele>
        <time>2019-08-08T12:37:29.000Z</time>
      </trkpt>
      <trkpt lat="42.85467" lon="1.09627">
        <ele>1164</ele>
        <time>2019-08-08T12:37:30.000Z</time>
      </trkpt>
      <trkpt lat="42.85469" lon="1.09629">
        <ele>1164</ele>
        <time>2019-08-08T12:37:31.000Z</time>
      </trkpt>
      <trkpt lat="42.85469" lon="1.09629">
        <ele>1164</ele>
        <time>2019-08-08T12:37:32.000Z</time>
      </trkpt>
      <trkpt lat="42.85469" lon="1.09629">
        <ele>1165</ele>
        <time>2019-08-08T12:37:33.000Z</time>
      </trkpt>
      <trkpt lat="42.85469" lon="1.09629">
        <ele>1165</ele>
        <time>2019-08-08T12:37:34.000Z</time>
      </trkpt>
      <trkpt lat="42.85469" lon="1.09629">
        <ele>1165</ele>
        <time>2019-08-08T12:37:35.000Z</time>
      </trkpt>
      <trkpt lat="42.85479" lon="1.09637">
        <ele>1165</ele>
        <time>2019-08-08T12:37:36.000Z</time>
      </trkpt>
      <trkpt lat="42.85479" lon="1.09638">
        <ele>1165</ele>
        <time>2019-08-08T12:37:37.000Z</time>
      </trkpt>
      <trkpt lat="42.8548" lon="1.09639">
        <ele>1167</ele>
        <time>2019-08-08T12:37:38.000Z</time>
      </trkpt>
      <trkpt lat="42.85481" lon="1.0964">
        <ele>1167</ele>
        <time>2019-08-08T12:37:39.000Z</time>
      </trkpt>
      <trkpt lat="42.85482" lon="1.09641">
        <ele>1167</ele>
        <time>2019-08-08T12:37:40.000Z</time>
      </trkpt>
      <trkpt lat="42.85486" lon="1.09646">
        <ele>1167</ele>
        <time>2019-08-08T12:37:41.000Z</time>
      </trkpt>
      <trkpt lat="42.85486" lon="1.09646">
        <ele>1168</ele>
        <time>2019-08-08T12:37:42.000Z</time>
      </trkpt>
      <trkpt lat="42.85486" lon="1.09646">
        <ele>1168</ele>
        <time>2019-08-08T12:37:43.000Z</time>
      </trkpt>
      <trkpt lat="42.85486" lon="1.09646">
        <ele>1168</ele>
        <time>2019-08-08T12:37:44.000Z</time>
      </trkpt>
      <trkpt lat="42.85496" lon="1.09654">
        <ele>1168</ele>
        <time>2019-08-08T12:37:45.000Z</time>
      </trkpt>
      <trkpt lat="42.85497" lon="1.09655">
        <ele>1168</ele>
        <time>2019-08-08T12:37:46.000Z</time>
      </trkpt>
      <trkpt lat="42.85498" lon="1.09656">
        <ele>1169</ele>
        <time>2019-08-08T12:37:47.000Z</time>
      </trkpt>
      <trkpt lat="42.85499" lon="1.09657">
        <ele>1169</ele>
        <time>2019-08-08T12:37:48.000Z</time>
      </trkpt>
      <trkpt lat="42.85503" lon="1.09661">
        <ele>1169</ele>
        <time>2019-08-08T12:37:49.000Z</time>
      </trkpt>
      <trkpt lat="42.85503" lon="1.09661">
        <ele>1170</ele>
        <time>2019-08-08T12:37:50.000Z</time>
      </trkpt>
      <trkpt lat="42.85503" lon="1.09661">
        <ele>1170</ele>
        <time>2019-08-08T12:37:51.000Z</time>
      </trkpt>
      <trkpt lat="42.85512" lon="1.09671">
        <ele>1170</ele>
        <time>2019-08-08T12:37:52.000Z</time>
      </trkpt>
      <trkpt lat="42.85514" lon="1.09672">
        <ele>1170</ele>
        <time>2019-08-08T12:37:53.000Z</time>
      </trkpt>
      <trkpt lat="42.85515" lon="1.09673">
        <ele>1170</ele>
        <time>2019-08-08T12:37:54.000Z</time>
      </trkpt>
      <trkpt lat="42.8552" lon="1.09676">
        <ele>1170</ele>
        <time>2019-08-08T12:37:55.000Z</time>
      </trkpt>
      <trkpt lat="42.8552" lon="1.09676">
        <ele>1170</ele>
        <time>2019-08-08T12:37:56.000Z</time>
      </trkpt>
      <trkpt lat="42.8552" lon="1.09676">
        <ele>1171</ele>
        <time>2019-08-08T12:37:57.000Z</time>
      </trkpt>
      <trkpt lat="42.85528" lon="1.09685">
        <ele>1171</ele>
        <time>2019-08-08T12:37:58.000Z</time>
      </trkpt>
      <trkpt lat="42.85528" lon="1.09685">
        <ele>1171</ele>
        <time>2019-08-08T12:37:59.000Z</time>
      </trkpt>
      <trkpt lat="42.85528" lon="1.09685">
        <ele>1171</ele>
        <time>2019-08-08T12:38:00.000Z</time>
      </trkpt>
      <trkpt lat="42.85537" lon="1.09693">
        <ele>1172</ele>
        <time>2019-08-08T12:38:01.000Z</time>
      </trkpt>
      <trkpt lat="42.85538" lon="1.09694">
        <ele>1172</ele>
        <time>2019-08-08T12:38:02.000Z</time>
      </trkpt>
      <trkpt lat="42.8554" lon="1.09695">
        <ele>1173</ele>
        <time>2019-08-08T12:38:03.000Z</time>
      </trkpt>
      <trkpt lat="42.85541" lon="1.09697">
        <ele>1173</ele>
        <time>2019-08-08T12:38:04.000Z</time>
      </trkpt>
      <trkpt lat="42.85545" lon="1.09701">
        <ele>1173</ele>
        <time>2019-08-08T12:38:05.000Z</time>
      </trkpt>
      <trkpt lat="42.85545" lon="1.09701">
        <ele>1173</ele>
        <time>2019-08-08T12:38:06.000Z</time>
      </trkpt>
      <trkpt lat="42.85549" lon="1.09703">
        <ele>1173</ele>
        <time>2019-08-08T12:38:07.000Z</time>
      </trkpt>
      <trkpt lat="42.85549" lon="1.09703">
        <ele>1173</ele>
        <time>2019-08-08T12:38:08.000Z</time>
      </trkpt>
      <trkpt lat="42.85549" lon="1.09703">
        <ele>1174</ele>
        <time>2019-08-08T12:38:09.000Z</time>
      </trkpt>
      <trkpt lat="42.85549" lon="1.09703">
        <ele>1174</ele>
        <time>2019-08-08T12:38:10.000Z</time>
      </trkpt>
      <trkpt lat="42.8556" lon="1.09709">
        <ele>1175</ele>
        <time>2019-08-08T12:38:11.000Z</time>
      </trkpt>
      <trkpt lat="42.85562" lon="1.0971">
        <ele>1175</ele>
        <time>2019-08-08T12:38:12.000Z</time>
      </trkpt>
      <trkpt lat="42.85563" lon="1.09712">
        <ele>1175</ele>
        <time>2019-08-08T12:38:13.000Z</time>
      </trkpt>
      <trkpt lat="42.8557" lon="1.09716">
        <ele>1175</ele>
        <time>2019-08-08T12:38:14.000Z</time>
      </trkpt>
      <trkpt lat="42.85571" lon="1.09716">
        <ele>1175</ele>
        <time>2019-08-08T12:38:15.000Z</time>
      </trkpt>
      <trkpt lat="42.85572" lon="1.09717">
        <ele>1175</ele>
        <time>2019-08-08T12:38:16.000Z</time>
      </trkpt>
      <trkpt lat="42.85574" lon="1.09718">
        <ele>1175</ele>
        <time>2019-08-08T12:38:17.000Z</time>
      </trkpt>
      <trkpt lat="42.85579" lon="1.09721">
        <ele>1175</ele>
        <time>2019-08-08T12:38:18.000Z</time>
      </trkpt>
      <trkpt lat="42.85579" lon="1.09721">
        <ele>1175</ele>
        <time>2019-08-08T12:38:19.000Z</time>
      </trkpt>
      <trkpt lat="42.85579" lon="1.09721">
        <ele>1176</ele>
        <time>2019-08-08T12:38:20.000Z</time>
      </trkpt>
      <trkpt lat="42.85588" lon="1.09726">
        <ele>1176</ele>
        <time>2019-08-08T12:38:21.000Z</time>
      </trkpt>
      <trkpt lat="42.85588" lon="1.09726">
        <ele>1177</ele>
        <time>2019-08-08T12:38:22.000Z</time>
      </trkpt>
      <trkpt lat="42.85594" lon="1.0973">
        <ele>1177</ele>
        <time>2019-08-08T12:38:23.000Z</time>
      </trkpt>
      <trkpt lat="42.85596" lon="1.09732">
        <ele>1178</ele>
        <time>2019-08-08T12:38:24.000Z</time>
      </trkpt>
      <trkpt lat="42.85599" lon="1.09734">
        <ele>1178</ele>
        <time>2019-08-08T12:38:25.000Z</time>
      </trkpt>
      <trkpt lat="42.85601" lon="1.09737">
        <ele>1179</ele>
        <time>2019-08-08T12:38:26.000Z</time>
      </trkpt>
      <trkpt lat="42.85603" lon="1.09739">
        <ele>1179</ele>
        <time>2019-08-08T12:38:27.000Z</time>
      </trkpt>
      <trkpt lat="42.85606" lon="1.09742">
        <ele>1180</ele>
        <time>2019-08-08T12:38:28.000Z</time>
      </trkpt>
      <trkpt lat="42.85608" lon="1.09744">
        <ele>1180</ele>
        <time>2019-08-08T12:38:29.000Z</time>
      </trkpt>
      <trkpt lat="42.85608" lon="1.09744">
        <ele>1180</ele>
        <time>2019-08-08T12:38:30.000Z</time>
      </trkpt>
      <trkpt lat="42.85608" lon="1.09744">
        <ele>1180</ele>
        <time>2019-08-08T12:38:31.000Z</time>
      </trkpt>
      <trkpt lat="42.85618" lon="1.0975">
        <ele>1181</ele>
        <time>2019-08-08T12:38:33.000Z</time>
      </trkpt>
      <trkpt lat="42.8562" lon="1.09752">
        <ele>1181</ele>
        <time>2019-08-08T12:38:34.000Z</time>
      </trkpt>
      <trkpt lat="42.85622" lon="1.09754">
        <ele>1181</ele>
        <time>2019-08-08T12:38:35.000Z</time>
      </trkpt>
      <trkpt lat="42.85624" lon="1.09755">
        <ele>1182</ele>
        <time>2019-08-08T12:38:36.000Z</time>
      </trkpt>
      <trkpt lat="42.85625" lon="1.09756">
        <ele>1182</ele>
        <time>2019-08-08T12:38:37.000Z</time>
      </trkpt>
      <trkpt lat="42.85631" lon="1.09761">
        <ele>1182</ele>
        <time>2019-08-08T12:38:38.000Z</time>
      </trkpt>
      <trkpt lat="42.85632" lon="1.09762">
        <ele>1182</ele>
        <time>2019-08-08T12:38:39.000Z</time>
      </trkpt>
      <trkpt lat="42.85633" lon="1.09763">
        <ele>1182</ele>
        <time>2019-08-08T12:38:40.000Z</time>
      </trkpt>
      <trkpt lat="42.85635" lon="1.09764">
        <ele>1182</ele>
        <time>2019-08-08T12:38:41.000Z</time>
      </trkpt>
      <trkpt lat="42.85641" lon="1.09768">
        <ele>1183</ele>
        <time>2019-08-08T12:38:42.000Z</time>
      </trkpt>
      <trkpt lat="42.85642" lon="1.09769">
        <ele>1183</ele>
        <time>2019-08-08T12:38:43.000Z</time>
      </trkpt>
      <trkpt lat="42.85643" lon="1.0977">
        <ele>1184</ele>
        <time>2019-08-08T12:38:44.000Z</time>
      </trkpt>
      <trkpt lat="42.85645" lon="1.09771">
        <ele>1184</ele>
        <time>2019-08-08T12:38:45.000Z</time>
      </trkpt>
      <trkpt lat="42.85651" lon="1.09777">
        <ele>1184</ele>
        <time>2019-08-08T12:38:46.000Z</time>
      </trkpt>
      <trkpt lat="42.85652" lon="1.09777">
        <ele>1184</ele>
        <time>2019-08-08T12:38:47.000Z</time>
      </trkpt>
      <trkpt lat="42.85653" lon="1.09778">
        <ele>1184</ele>
        <time>2019-08-08T12:38:48.000Z</time>
      </trkpt>
      <trkpt lat="42.85654" lon="1.09779">
        <ele>1184</ele>
        <time>2019-08-08T12:38:49.000Z</time>
      </trkpt>
      <trkpt lat="42.8566" lon="1.09783">
        <ele>1185</ele>
        <time>2019-08-08T12:38:50.000Z</time>
      </trkpt>
      <trkpt lat="42.85661" lon="1.09784">
        <ele>1185</ele>
        <time>2019-08-08T12:38:51.000Z</time>
      </trkpt>
      <trkpt lat="42.85663" lon="1.09785">
        <ele>1185</ele>
        <time>2019-08-08T12:38:52.000Z</time>
      </trkpt>
      <trkpt lat="42.85664" lon="1.09786">
        <ele>1185</ele>
        <time>2019-08-08T12:38:53.000Z</time>
      </trkpt>
      <trkpt lat="42.85669" lon="1.0979">
        <ele>1186</ele>
        <time>2019-08-08T12:38:54.000Z</time>
      </trkpt>
      <trkpt lat="42.85669" lon="1.0979">
        <ele>1186</ele>
        <time>2019-08-08T12:38:55.000Z</time>
      </trkpt>
      <trkpt lat="42.85669" lon="1.0979">
        <ele>1186</ele>
        <time>2019-08-08T12:38:56.000Z</time>
      </trkpt>
      <trkpt lat="42.85669" lon="1.0979">
        <ele>1186</ele>
        <time>2019-08-08T12:38:57.000Z</time>
      </trkpt>
      <trkpt lat="42.85677" lon="1.09796">
        <ele>1187</ele>
        <time>2019-08-08T12:38:58.000Z</time>
      </trkpt>
      <trkpt lat="42.85677" lon="1.09796">
        <ele>1187</ele>
        <time>2019-08-08T12:38:59.000Z</time>
      </trkpt>
      <trkpt lat="42.85677" lon="1.09796">
        <ele>1188</ele>
        <time>2019-08-08T12:39:00.000Z</time>
      </trkpt>
      <trkpt lat="42.85677" lon="1.09796">
        <ele>1188</ele>
        <time>2019-08-08T12:39:01.000Z</time>
      </trkpt>
      <trkpt lat="42.85677" lon="1.09796">
        <ele>1188</ele>
        <time>2019-08-08T12:39:02.000Z</time>
      </trkpt>
      <trkpt lat="42.85677" lon="1.09796">
        <ele>1188</ele>
        <time>2019-08-08T12:39:03.000Z</time>
      </trkpt>
      <trkpt lat="42.85685" lon="1.09802">
        <ele>1188</ele>
        <time>2019-08-08T12:39:04.000Z</time>
      </trkpt>
      <trkpt lat="42.85685" lon="1.09802">
        <ele>1188</ele>
        <time>2019-08-08T12:39:05.000Z</time>
      </trkpt>
      <trkpt lat="42.85685" lon="1.09802">
        <ele>1189</ele>
        <time>2019-08-08T12:39:06.000Z</time>
      </trkpt>
      <trkpt lat="42.85685" lon="1.09802">
        <ele>1189</ele>
        <time>2019-08-08T12:39:07.000Z</time>
      </trkpt>
      <trkpt lat="42.85693" lon="1.09812">
        <ele>1189</ele>
        <time>2019-08-08T12:39:08.000Z</time>
      </trkpt>
      <trkpt lat="42.85693" lon="1.09812">
        <ele>1189</ele>
        <time>2019-08-08T12:39:09.000Z</time>
      </trkpt>
      <trkpt lat="42.85701" lon="1.09817">
        <ele>1190</ele>
        <time>2019-08-08T12:39:11.000Z</time>
      </trkpt>
      <trkpt lat="42.85701" lon="1.09817">
        <ele>1191</ele>
        <time>2019-08-08T12:39:12.000Z</time>
      </trkpt>
      <trkpt lat="42.85701" lon="1.09817">
        <ele>1191</ele>
        <time>2019-08-08T12:39:13.000Z</time>
      </trkpt>
      <trkpt lat="42.85713" lon="1.09817">
        <ele>1191</ele>
        <time>2019-08-08T12:39:14.000Z</time>
      </trkpt>
      <trkpt lat="42.85714" lon="1.09817">
        <ele>1191</ele>
        <time>2019-08-08T12:39:15.000Z</time>
      </trkpt>
      <trkpt lat="42.85716" lon="1.09817">
        <ele>1192</ele>
        <time>2019-08-08T12:39:16.000Z</time>
      </trkpt>
      <trkpt lat="42.85722" lon="1.09818">
        <ele>1192</ele>
        <time>2019-08-08T12:39:17.000Z</time>
      </trkpt>
      <trkpt lat="42.85722" lon="1.09818">
        <ele>1193</ele>
        <time>2019-08-08T12:39:18.000Z</time>
      </trkpt>
      <trkpt lat="42.85722" lon="1.09818">
        <ele>1193</ele>
        <time>2019-08-08T12:39:19.000Z</time>
      </trkpt>
      <trkpt lat="42.85733" lon="1.09822">
        <ele>1193</ele>
        <time>2019-08-08T12:39:20.000Z</time>
      </trkpt>
      <trkpt lat="42.85735" lon="1.09823">
        <ele>1193</ele>
        <time>2019-08-08T12:39:21.000Z</time>
      </trkpt>
      <trkpt lat="42.85736" lon="1.09824">
        <ele>1193</ele>
        <time>2019-08-08T12:39:22.000Z</time>
      </trkpt>
      <trkpt lat="42.85741" lon="1.09827">
        <ele>1193</ele>
        <time>2019-08-08T12:39:23.000Z</time>
      </trkpt>
      <trkpt lat="42.85741" lon="1.09827">
        <ele>1193</ele>
        <time>2019-08-08T12:39:24.000Z</time>
      </trkpt>
      <trkpt lat="42.85741" lon="1.09827">
        <ele>1194</ele>
        <time>2019-08-08T12:39:25.000Z</time>
      </trkpt>
      <trkpt lat="42.85751" lon="1.09833">
        <ele>1194</ele>
        <time>2019-08-08T12:39:26.000Z</time>
      </trkpt>
      <trkpt lat="42.85752" lon="1.09833">
        <ele>1194</ele>
        <time>2019-08-08T12:39:27.000Z</time>
      </trkpt>
      <trkpt lat="42.85754" lon="1.09834">
        <ele>1195</ele>
        <time>2019-08-08T12:39:28.000Z</time>
      </trkpt>
      <trkpt lat="42.85755" lon="1.09835">
        <ele>1195</ele>
        <time>2019-08-08T12:39:29.000Z</time>
      </trkpt>
      <trkpt lat="42.85761" lon="1.09839">
        <ele>1195</ele>
        <time>2019-08-08T12:39:30.000Z</time>
      </trkpt>
      <trkpt lat="42.85762" lon="1.0984">
        <ele>1195</ele>
        <time>2019-08-08T12:39:31.000Z</time>
      </trkpt>
      <trkpt lat="42.85763" lon="1.0984">
        <ele>1196</ele>
        <time>2019-08-08T12:39:32.000Z</time>
      </trkpt>
      <trkpt lat="42.85764" lon="1.09841">
        <ele>1196</ele>
        <time>2019-08-08T12:39:33.000Z</time>
      </trkpt>
      <trkpt lat="42.85769" lon="1.09845">
        <ele>1196</ele>
        <time>2019-08-08T12:39:34.000Z</time>
      </trkpt>
      <trkpt lat="42.85769" lon="1.09845">
        <ele>1197</ele>
        <time>2019-08-08T12:39:35.000Z</time>
      </trkpt>
      <trkpt lat="42.85769" lon="1.09845">
        <ele>1197</ele>
        <time>2019-08-08T12:39:36.000Z</time>
      </trkpt>
      <trkpt lat="42.85769" lon="1.09845">
        <ele>1197</ele>
        <time>2019-08-08T12:39:37.000Z</time>
      </trkpt>
      <trkpt lat="42.85778" lon="1.09852">
        <ele>1197</ele>
        <time>2019-08-08T12:39:38.000Z</time>
      </trkpt>
      <trkpt lat="42.8578" lon="1.09852">
        <ele>1198</ele>
        <time>2019-08-08T12:39:39.000Z</time>
      </trkpt>
      <trkpt lat="42.85781" lon="1.09853">
        <ele>1198</ele>
        <time>2019-08-08T12:39:40.000Z</time>
      </trkpt>
      <trkpt lat="42.85782" lon="1.09854">
        <ele>1198</ele>
        <time>2019-08-08T12:39:41.000Z</time>
      </trkpt>
      <trkpt lat="42.85789" lon="1.09857">
        <ele>1198</ele>
        <time>2019-08-08T12:39:42.000Z</time>
      </trkpt>
      <trkpt lat="42.8579" lon="1.09858">
        <ele>1199</ele>
        <time>2019-08-08T12:39:43.000Z</time>
      </trkpt>
      <trkpt lat="42.85791" lon="1.09858">
        <ele>1199</ele>
        <time>2019-08-08T12:39:44.000Z</time>
      </trkpt>
      <trkpt lat="42.85793" lon="1.09859">
        <ele>1199</ele>
        <time>2019-08-08T12:39:45.000Z</time>
      </trkpt>
      <trkpt lat="42.85798" lon="1.09861">
        <ele>1199</ele>
        <time>2019-08-08T12:39:46.000Z</time>
      </trkpt>
      <trkpt lat="42.85798" lon="1.09861">
        <ele>1200</ele>
        <time>2019-08-08T12:39:47.000Z</time>
      </trkpt>
      <trkpt lat="42.85798" lon="1.09861">
        <ele>1200</ele>
        <time>2019-08-08T12:39:48.000Z</time>
      </trkpt>
      <trkpt lat="42.8581" lon="1.09864">
        <ele>1200</ele>
        <time>2019-08-08T12:39:49.000Z</time>
      </trkpt>
      <trkpt lat="42.85811" lon="1.09864">
        <ele>1200</ele>
        <time>2019-08-08T12:39:50.000Z</time>
      </trkpt>
      <trkpt lat="42.85813" lon="1.09865">
        <ele>1201</ele>
        <time>2019-08-08T12:39:51.000Z</time>
      </trkpt>
      <trkpt lat="42.8582" lon="1.09867">
        <ele>1201</ele>
        <time>2019-08-08T12:39:52.000Z</time>
      </trkpt>
      <trkpt lat="42.85822" lon="1.09868">
        <ele>1201</ele>
        <time>2019-08-08T12:39:53.000Z</time>
      </trkpt>
      <trkpt lat="42.85824" lon="1.09869">
        <ele>1201</ele>
        <time>2019-08-08T12:39:54.000Z</time>
      </trkpt>
      <trkpt lat="42.85829" lon="1.09872">
        <ele>1202</ele>
        <time>2019-08-08T12:39:55.000Z</time>
      </trkpt>
      <trkpt lat="42.85832" lon="1.09874">
        <ele>1202</ele>
        <time>2019-08-08T12:39:56.000Z</time>
      </trkpt>
      <trkpt lat="42.85832" lon="1.09874">
        <ele>1202</ele>
        <time>2019-08-08T12:39:57.000Z</time>
      </trkpt>
      <trkpt lat="42.85832" lon="1.09874">
        <ele>1202</ele>
        <time>2019-08-08T12:39:58.000Z</time>
      </trkpt>
      <trkpt lat="42.85842" lon="1.09883">
        <ele>1202</ele>
        <time>2019-08-08T12:39:59.000Z</time>
      </trkpt>
      <trkpt lat="42.85843" lon="1.09884">
        <ele>1202</ele>
        <time>2019-08-08T12:40:00.000Z</time>
      </trkpt>
      <trkpt lat="42.85845" lon="1.09885">
        <ele>1203</ele>
        <time>2019-08-08T12:40:01.000Z</time>
      </trkpt>
      <trkpt lat="42.8585" lon="1.09888">
        <ele>1203</ele>
        <time>2019-08-08T12:40:02.000Z</time>
      </trkpt>
      <trkpt lat="42.85854" lon="1.0989">
        <ele>1203</ele>
        <time>2019-08-08T12:40:03.000Z</time>
      </trkpt>
      <trkpt lat="42.85857" lon="1.09893">
        <ele>1203</ele>
        <time>2019-08-08T12:40:04.000Z</time>
      </trkpt>
      <trkpt lat="42.8586" lon="1.09895">
        <ele>1204</ele>
        <time>2019-08-08T12:40:05.000Z</time>
      </trkpt>
      <trkpt lat="42.85863" lon="1.09899">
        <ele>1204</ele>
        <time>2019-08-08T12:40:06.000Z</time>
      </trkpt>
      <trkpt lat="42.85865" lon="1.099">
        <ele>1205</ele>
        <time>2019-08-08T12:40:07.000Z</time>
      </trkpt>
      <trkpt lat="42.85867" lon="1.09903">
        <ele>1205</ele>
        <time>2019-08-08T12:40:08.000Z</time>
      </trkpt>
      <trkpt lat="42.85869" lon="1.09905">
        <ele>1205</ele>
        <time>2019-08-08T12:40:09.000Z</time>
      </trkpt>
      <trkpt lat="42.85872" lon="1.09908">
        <ele>1205</ele>
        <time>2019-08-08T12:40:10.000Z</time>
      </trkpt>
      <trkpt lat="42.85874" lon="1.0991">
        <ele>1205</ele>
        <time>2019-08-08T12:40:11.000Z</time>
      </trkpt>
      <trkpt lat="42.85877" lon="1.09913">
        <ele>1205</ele>
        <time>2019-08-08T12:40:12.000Z</time>
      </trkpt>
      <trkpt lat="42.85878" lon="1.09914">
        <ele>1206</ele>
        <time>2019-08-08T12:40:13.000Z</time>
      </trkpt>
      <trkpt lat="42.8588" lon="1.09915">
        <ele>1206</ele>
        <time>2019-08-08T12:40:14.000Z</time>
      </trkpt>
      <trkpt lat="42.8588" lon="1.09915">
        <ele>1207</ele>
        <time>2019-08-08T12:40:15.000Z</time>
      </trkpt>
      <trkpt lat="42.85883" lon="1.09917">
        <ele>1207</ele>
        <time>2019-08-08T12:40:16.000Z</time>
      </trkpt>
      <trkpt lat="42.85885" lon="1.09919">
        <ele>1207</ele>
        <time>2019-08-08T12:40:17.000Z</time>
      </trkpt>
      <trkpt lat="42.85888" lon="1.0992">
        <ele>1207</ele>
        <time>2019-08-08T12:40:18.000Z</time>
      </trkpt>
      <trkpt lat="42.85891" lon="1.0992">
        <ele>1207</ele>
        <time>2019-08-08T12:40:19.000Z</time>
      </trkpt>
      <trkpt lat="42.85895" lon="1.09921">
        <ele>1208</ele>
        <time>2019-08-08T12:40:20.000Z</time>
      </trkpt>
      <trkpt lat="42.85898" lon="1.09923">
        <ele>1208</ele>
        <time>2019-08-08T12:40:21.000Z</time>
      </trkpt>
      <trkpt lat="42.859" lon="1.09925">
        <ele>1208</ele>
        <time>2019-08-08T12:40:22.000Z</time>
      </trkpt>
      <trkpt lat="42.85904" lon="1.09927">
        <ele>1208</ele>
        <time>2019-08-08T12:40:23.000Z</time>
      </trkpt>
      <trkpt lat="42.85906" lon="1.09929">
        <ele>1208</ele>
        <time>2019-08-08T12:40:24.000Z</time>
      </trkpt>
      <trkpt lat="42.85909" lon="1.09931">
        <ele>1208</ele>
        <time>2019-08-08T12:40:25.000Z</time>
      </trkpt>
      <trkpt lat="42.85911" lon="1.09933">
        <ele>1209</ele>
        <time>2019-08-08T12:40:26.000Z</time>
      </trkpt>
      <trkpt lat="42.85914" lon="1.09935">
        <ele>1209</ele>
        <time>2019-08-08T12:40:27.000Z</time>
      </trkpt>
      <trkpt lat="42.85916" lon="1.09937">
        <ele>1210</ele>
        <time>2019-08-08T12:40:28.000Z</time>
      </trkpt>
      <trkpt lat="42.85919" lon="1.0994">
        <ele>1210</ele>
        <time>2019-08-08T12:40:29.000Z</time>
      </trkpt>
      <trkpt lat="42.85922" lon="1.09943">
        <ele>1210</ele>
        <time>2019-08-08T12:40:30.000Z</time>
      </trkpt>
      <trkpt lat="42.85923" lon="1.09945">
        <ele>1210</ele>
        <time>2019-08-08T12:40:31.000Z</time>
      </trkpt>
      <trkpt lat="42.85926" lon="1.09947">
        <ele>1211</ele>
        <time>2019-08-08T12:40:32.000Z</time>
      </trkpt>
      <trkpt lat="42.85927" lon="1.0995">
        <ele>1211</ele>
        <time>2019-08-08T12:40:33.000Z</time>
      </trkpt>
      <trkpt lat="42.85929" lon="1.09953">
        <ele>1211</ele>
        <time>2019-08-08T12:40:34.000Z</time>
      </trkpt>
      <trkpt lat="42.85931" lon="1.09955">
        <ele>1211</ele>
        <time>2019-08-08T12:40:35.000Z</time>
      </trkpt>
      <trkpt lat="42.85933" lon="1.09958">
        <ele>1211</ele>
        <time>2019-08-08T12:40:36.000Z</time>
      </trkpt>
      <trkpt lat="42.85934" lon="1.09962">
        <ele>1211</ele>
        <time>2019-08-08T12:40:37.000Z</time>
      </trkpt>
      <trkpt lat="42.85936" lon="1.09965">
        <ele>1213</ele>
        <time>2019-08-08T12:40:38.000Z</time>
      </trkpt>
      <trkpt lat="42.85937" lon="1.09969">
        <ele>1213</ele>
        <time>2019-08-08T12:40:39.000Z</time>
      </trkpt>
      <trkpt lat="42.85939" lon="1.09972">
        <ele>1213</ele>
        <time>2019-08-08T12:40:40.000Z</time>
      </trkpt>
      <trkpt lat="42.8594" lon="1.09976">
        <ele>1213</ele>
        <time>2019-08-08T12:40:41.000Z</time>
      </trkpt>
      <trkpt lat="42.85941" lon="1.0998">
        <ele>1213</ele>
        <time>2019-08-08T12:40:42.000Z</time>
      </trkpt>
      <trkpt lat="42.85943" lon="1.09984">
        <ele>1213</ele>
        <time>2019-08-08T12:40:43.000Z</time>
      </trkpt>
      <trkpt lat="42.85944" lon="1.09988">
        <ele>1213</ele>
        <time>2019-08-08T12:40:44.000Z</time>
      </trkpt>
      <trkpt lat="42.85945" lon="1.09991">
        <ele>1213</ele>
        <time>2019-08-08T12:40:45.000Z</time>
      </trkpt>
      <trkpt lat="42.85946" lon="1.09995">
        <ele>1213</ele>
        <time>2019-08-08T12:40:46.000Z</time>
      </trkpt>
      <trkpt lat="42.85948" lon="1.10001">
        <ele>1214</ele>
        <time>2019-08-08T12:40:47.000Z</time>
      </trkpt>
      <trkpt lat="42.85948" lon="1.10003">
        <ele>1214</ele>
        <time>2019-08-08T12:40:48.000Z</time>
      </trkpt>
      <trkpt lat="42.8595" lon="1.10007">
        <ele>1215</ele>
        <time>2019-08-08T12:40:49.000Z</time>
      </trkpt>
      <trkpt lat="42.85951" lon="1.1001">
        <ele>1215</ele>
        <time>2019-08-08T12:40:50.000Z</time>
      </trkpt>
      <trkpt lat="42.85952" lon="1.10014">
        <ele>1216</ele>
        <time>2019-08-08T12:40:51.000Z</time>
      </trkpt>
      <trkpt lat="42.85954" lon="1.10017">
        <ele>1216</ele>
        <time>2019-08-08T12:40:52.000Z</time>
      </trkpt>
      <trkpt lat="42.85955" lon="1.10021">
        <ele>1216</ele>
        <time>2019-08-08T12:40:53.000Z</time>
      </trkpt>
      <trkpt lat="42.85956" lon="1.10025">
        <ele>1216</ele>
        <time>2019-08-08T12:40:54.000Z</time>
      </trkpt>
      <trkpt lat="42.85957" lon="1.10029">
        <ele>1216</ele>
        <time>2019-08-08T12:40:55.000Z</time>
      </trkpt>
      <trkpt lat="42.85959" lon="1.10033">
        <ele>1216</ele>
        <time>2019-08-08T12:40:56.000Z</time>
      </trkpt>
      <trkpt lat="42.8596" lon="1.10036">
        <ele>1217</ele>
        <time>2019-08-08T12:40:57.000Z</time>
      </trkpt>
      <trkpt lat="42.85961" lon="1.10041">
        <ele>1217</ele>
        <time>2019-08-08T12:40:58.000Z</time>
      </trkpt>
      <trkpt lat="42.85963" lon="1.10045">
        <ele>1217</ele>
        <time>2019-08-08T12:40:59.000Z</time>
      </trkpt>
      <trkpt lat="42.85964" lon="1.10049">
        <ele>1217</ele>
        <time>2019-08-08T12:41:00.000Z</time>
      </trkpt>
      <trkpt lat="42.85965" lon="1.10053">
        <ele>1217</ele>
        <time>2019-08-08T12:41:01.000Z</time>
      </trkpt>
      <trkpt lat="42.85966" lon="1.10057">
        <ele>1217</ele>
        <time>2019-08-08T12:41:02.000Z</time>
      </trkpt>
      <trkpt lat="42.85968" lon="1.10063">
        <ele>1217</ele>
        <time>2019-08-08T12:41:03.000Z</time>
      </trkpt>
      <trkpt lat="42.85969" lon="1.10065">
        <ele>1218</ele>
        <time>2019-08-08T12:41:04.000Z</time>
      </trkpt>
      <trkpt lat="42.85971" lon="1.10069">
        <ele>1218</ele>
        <time>2019-08-08T12:41:05.000Z</time>
      </trkpt>
      <trkpt lat="42.85972" lon="1.10073">
        <ele>1218</ele>
        <time>2019-08-08T12:41:06.000Z</time>
      </trkpt>
      <trkpt lat="42.85974" lon="1.10077">
        <ele>1219</ele>
        <time>2019-08-08T12:41:07.000Z</time>
      </trkpt>
      <trkpt lat="42.85976" lon="1.1008">
        <ele>1219</ele>
        <time>2019-08-08T12:41:08.000Z</time>
      </trkpt>
      <trkpt lat="42.85977" lon="1.10084">
        <ele>1219</ele>
        <time>2019-08-08T12:41:09.000Z</time>
      </trkpt>
      <trkpt lat="42.85979" lon="1.10087">
        <ele>1219</ele>
        <time>2019-08-08T12:41:10.000Z</time>
      </trkpt>
      <trkpt lat="42.85981" lon="1.1009">
        <ele>1220</ele>
        <time>2019-08-08T12:41:11.000Z</time>
      </trkpt>
      <trkpt lat="42.85983" lon="1.10092">
        <ele>1220</ele>
        <time>2019-08-08T12:41:12.000Z</time>
      </trkpt>
      <trkpt lat="42.85985" lon="1.10095">
        <ele>1220</ele>
        <time>2019-08-08T12:41:13.000Z</time>
      </trkpt>
      <trkpt lat="42.85987" lon="1.10098">
        <ele>1220</ele>
        <time>2019-08-08T12:41:14.000Z</time>
      </trkpt>
      <trkpt lat="42.85989" lon="1.101">
        <ele>1220</ele>
        <time>2019-08-08T12:41:15.000Z</time>
      </trkpt>
      <trkpt lat="42.85991" lon="1.10103">
        <ele>1220</ele>
        <time>2019-08-08T12:41:16.000Z</time>
      </trkpt>
      <trkpt lat="42.85993" lon="1.10105">
        <ele>1221</ele>
        <time>2019-08-08T12:41:17.000Z</time>
      </trkpt>
      <trkpt lat="42.85996" lon="1.10108">
        <ele>1221</ele>
        <time>2019-08-08T12:41:18.000Z</time>
      </trkpt>
      <trkpt lat="42.85998" lon="1.1011">
        <ele>1221</ele>
        <time>2019-08-08T12:41:19.000Z</time>
      </trkpt>
      <trkpt lat="42.86001" lon="1.10113">
        <ele>1221</ele>
        <time>2019-08-08T12:41:20.000Z</time>
      </trkpt>
      <trkpt lat="42.86003" lon="1.10115">
        <ele>1222</ele>
        <time>2019-08-08T12:41:21.000Z</time>
      </trkpt>
      <trkpt lat="42.86005" lon="1.10118">
        <ele>1222</ele>
        <time>2019-08-08T12:41:22.000Z</time>
      </trkpt>
      <trkpt lat="42.86008" lon="1.1012">
        <ele>1222</ele>
        <time>2019-08-08T12:41:23.000Z</time>
      </trkpt>
      <trkpt lat="42.8601" lon="1.10123">
        <ele>1223</ele>
        <time>2019-08-08T12:41:24.000Z</time>
      </trkpt>
      <trkpt lat="42.86012" lon="1.10125">
        <ele>1223</ele>
        <time>2019-08-08T12:41:25.000Z</time>
      </trkpt>
      <trkpt lat="42.86014" lon="1.10127">
        <ele>1223</ele>
        <time>2019-08-08T12:41:26.000Z</time>
      </trkpt>
      <trkpt lat="42.86017" lon="1.10129">
        <ele>1223</ele>
        <time>2019-08-08T12:41:27.000Z</time>
      </trkpt>
      <trkpt lat="42.86019" lon="1.1013">
        <ele>1223</ele>
        <time>2019-08-08T12:41:28.000Z</time>
      </trkpt>
      <trkpt lat="42.86021" lon="1.10132">
        <ele>1224</ele>
        <time>2019-08-08T12:41:29.000Z</time>
      </trkpt>
      <trkpt lat="42.86023" lon="1.10133">
        <ele>1224</ele>
        <time>2019-08-08T12:41:30.000Z</time>
      </trkpt>
      <trkpt lat="42.86025" lon="1.10135">
        <ele>1225</ele>
        <time>2019-08-08T12:41:31.000Z</time>
      </trkpt>
      <trkpt lat="42.86027" lon="1.10136">
        <ele>1225</ele>
        <time>2019-08-08T12:41:32.000Z</time>
      </trkpt>
      <trkpt lat="42.8603" lon="1.10138">
        <ele>1225</ele>
        <time>2019-08-08T12:41:33.000Z</time>
      </trkpt>
      <trkpt lat="42.86032" lon="1.10139">
        <ele>1225</ele>
        <time>2019-08-08T12:41:34.000Z</time>
      </trkpt>
      <trkpt lat="42.86034" lon="1.10141">
        <ele>1225</ele>
        <time>2019-08-08T12:41:35.000Z</time>
      </trkpt>
      <trkpt lat="42.86037" lon="1.10142">
        <ele>1225</ele>
        <time>2019-08-08T12:41:36.000Z</time>
      </trkpt>
      <trkpt lat="42.86039" lon="1.10143">
        <ele>1226</ele>
        <time>2019-08-08T12:41:37.000Z</time>
      </trkpt>
      <trkpt lat="42.86042" lon="1.10145">
        <ele>1226</ele>
        <time>2019-08-08T12:41:38.000Z</time>
      </trkpt>
      <trkpt lat="42.86045" lon="1.10146">
        <ele>1227</ele>
        <time>2019-08-08T12:41:39.000Z</time>
      </trkpt>
      <trkpt lat="42.86048" lon="1.10147">
        <ele>1227</ele>
        <time>2019-08-08T12:41:40.000Z</time>
      </trkpt>
      <trkpt lat="42.8605" lon="1.10148">
        <ele>1227</ele>
        <time>2019-08-08T12:41:41.000Z</time>
      </trkpt>
      <trkpt lat="42.86053" lon="1.1015">
        <ele>1227</ele>
        <time>2019-08-08T12:41:42.000Z</time>
      </trkpt>
      <trkpt lat="42.86056" lon="1.10151">
        <ele>1228</ele>
        <time>2019-08-08T12:41:43.000Z</time>
      </trkpt>
      <trkpt lat="42.86059" lon="1.10152">
        <ele>1228</ele>
        <time>2019-08-08T12:41:44.000Z</time>
      </trkpt>
      <trkpt lat="42.86061" lon="1.10154">
        <ele>1229</ele>
        <time>2019-08-08T12:41:45.000Z</time>
      </trkpt>
      <trkpt lat="42.86064" lon="1.10155">
        <ele>1229</ele>
        <time>2019-08-08T12:41:46.000Z</time>
      </trkpt>
      <trkpt lat="42.86067" lon="1.10156">
        <ele>1229</ele>
        <time>2019-08-08T12:41:47.000Z</time>
      </trkpt>
      <trkpt lat="42.8607" lon="1.10157">
        <ele>1229</ele>
        <time>2019-08-08T12:41:48.000Z</time>
      </trkpt>
      <trkpt lat="42.86073" lon="1.10158">
        <ele>1229</ele>
        <time>2019-08-08T12:41:49.000Z</time>
      </trkpt>
      <trkpt lat="42.86076" lon="1.1016">
        <ele>1229</ele>
        <time>2019-08-08T12:41:50.000Z</time>
      </trkpt>
      <trkpt lat="42.86078" lon="1.10161">
        <ele>1229</ele>
        <time>2019-08-08T12:41:51.000Z</time>
      </trkpt>
      <trkpt lat="42.86081" lon="1.10161">
        <ele>1229</ele>
        <time>2019-08-08T12:41:52.000Z</time>
      </trkpt>
      <trkpt lat="42.86085" lon="1.10163">
        <ele>1229</ele>
        <time>2019-08-08T12:41:53.000Z</time>
      </trkpt>
      <trkpt lat="42.86086" lon="1.10163">
        <ele>1229</ele>
        <time>2019-08-08T12:41:54.000Z</time>
      </trkpt>
      <trkpt lat="42.86089" lon="1.10164">
        <ele>1230</ele>
        <time>2019-08-08T12:41:55.000Z</time>
      </trkpt>
      <trkpt lat="42.86092" lon="1.10165">
        <ele>1230</ele>
        <time>2019-08-08T12:41:56.000Z</time>
      </trkpt>
      <trkpt lat="42.86095" lon="1.10167">
        <ele>1230</ele>
        <time>2019-08-08T12:41:57.000Z</time>
      </trkpt>
      <trkpt lat="42.86097" lon="1.10167">
        <ele>1230</ele>
        <time>2019-08-08T12:41:58.000Z</time>
      </trkpt>
      <trkpt lat="42.861" lon="1.10168">
        <ele>1230</ele>
        <time>2019-08-08T12:41:59.000Z</time>
      </trkpt>
      <trkpt lat="42.86102" lon="1.10169">
        <ele>1231</ele>
        <time>2019-08-08T12:42:00.000Z</time>
      </trkpt>
      <trkpt lat="42.86105" lon="1.1017">
        <ele>1231</ele>
        <time>2019-08-08T12:42:01.000Z</time>
      </trkpt>
      <trkpt lat="42.86108" lon="1.10172">
        <ele>1232</ele>
        <time>2019-08-08T12:42:02.000Z</time>
      </trkpt>
      <trkpt lat="42.8611" lon="1.10173">
        <ele>1232</ele>
        <time>2019-08-08T12:42:03.000Z</time>
      </trkpt>
      <trkpt lat="42.86113" lon="1.10174">
        <ele>1232</ele>
        <time>2019-08-08T12:42:04.000Z</time>
      </trkpt>
      <trkpt lat="42.86115" lon="1.10175">
        <ele>1233</ele>
        <time>2019-08-08T12:42:05.000Z</time>
      </trkpt>
      <trkpt lat="42.86118" lon="1.10175">
        <ele>1233</ele>
        <time>2019-08-08T12:42:06.000Z</time>
      </trkpt>
      <trkpt lat="42.86121" lon="1.10176">
        <ele>1233</ele>
        <time>2019-08-08T12:42:07.000Z</time>
      </trkpt>
      <trkpt lat="42.86124" lon="1.10177">
        <ele>1233</ele>
        <time>2019-08-08T12:42:08.000Z</time>
      </trkpt>
      <trkpt lat="42.86127" lon="1.10177">
        <ele>1233</ele>
        <time>2019-08-08T12:42:09.000Z</time>
      </trkpt>
      <trkpt lat="42.86131" lon="1.10178">
        <ele>1233</ele>
        <time>2019-08-08T12:42:10.000Z</time>
      </trkpt>
      <trkpt lat="42.86135" lon="1.10177">
        <ele>1234</ele>
        <time>2019-08-08T12:42:11.000Z</time>
      </trkpt>
      <trkpt lat="42.86139" lon="1.10177">
        <ele>1234</ele>
        <time>2019-08-08T12:42:12.000Z</time>
      </trkpt>
      <trkpt lat="42.86142" lon="1.10175">
        <ele>1234</ele>
        <time>2019-08-08T12:42:13.000Z</time>
      </trkpt>
      <trkpt lat="42.86145" lon="1.10173">
        <ele>1234</ele>
        <time>2019-08-08T12:42:14.000Z</time>
      </trkpt>
      <trkpt lat="42.86148" lon="1.1017">
        <ele>1234</ele>
        <time>2019-08-08T12:42:15.000Z</time>
      </trkpt>
      <trkpt lat="42.86151" lon="1.10168">
        <ele>1234</ele>
        <time>2019-08-08T12:42:16.000Z</time>
      </trkpt>
      <trkpt lat="42.86154" lon="1.10166">
        <ele>1234</ele>
        <time>2019-08-08T12:42:17.000Z</time>
      </trkpt>
      <trkpt lat="42.86156" lon="1.10163">
        <ele>1234</ele>
        <time>2019-08-08T12:42:18.000Z</time>
      </trkpt>
      <trkpt lat="42.86158" lon="1.10161">
        <ele>1234</ele>
        <time>2019-08-08T12:42:19.000Z</time>
      </trkpt>
      <trkpt lat="42.86161" lon="1.10158">
        <ele>1234</ele>
        <time>2019-08-08T12:42:20.000Z</time>
      </trkpt>
      <trkpt lat="42.86163" lon="1.10155">
        <ele>1235</ele>
        <time>2019-08-08T12:42:21.000Z</time>
      </trkpt>
      <trkpt lat="42.86166" lon="1.10152">
        <ele>1235</ele>
        <time>2019-08-08T12:42:22.000Z</time>
      </trkpt>
      <trkpt lat="42.86168" lon="1.1015">
        <ele>1235</ele>
        <time>2019-08-08T12:42:23.000Z</time>
      </trkpt>
      <trkpt lat="42.86171" lon="1.10148">
        <ele>1235</ele>
        <time>2019-08-08T12:42:24.000Z</time>
      </trkpt>
      <trkpt lat="42.86174" lon="1.10146">
        <ele>1235</ele>
        <time>2019-08-08T12:42:25.000Z</time>
      </trkpt>
      <trkpt lat="42.86176" lon="1.10144">
        <ele>1235</ele>
        <time>2019-08-08T12:42:26.000Z</time>
      </trkpt>
      <trkpt lat="42.86179" lon="1.10142">
        <ele>1236</ele>
        <time>2019-08-08T12:42:27.000Z</time>
      </trkpt>
      <trkpt lat="42.86182" lon="1.10142">
        <ele>1236</ele>
        <time>2019-08-08T12:42:28.000Z</time>
      </trkpt>
      <trkpt lat="42.86185" lon="1.10141">
        <ele>1238</ele>
        <time>2019-08-08T12:42:29.000Z</time>
      </trkpt>
      <trkpt lat="42.86188" lon="1.10142">
        <ele>1238</ele>
        <time>2019-08-08T12:42:30.000Z</time>
      </trkpt>
      <trkpt lat="42.86191" lon="1.10143">
        <ele>1238</ele>
        <time>2019-08-08T12:42:31.000Z</time>
      </trkpt>
      <trkpt lat="42.86194" lon="1.10145">
        <ele>1238</ele>
        <time>2019-08-08T12:42:32.000Z</time>
      </trkpt>
      <trkpt lat="42.86196" lon="1.10148">
        <ele>1239</ele>
        <time>2019-08-08T12:42:33.000Z</time>
      </trkpt>
      <trkpt lat="42.86198" lon="1.10151">
        <ele>1239</ele>
        <time>2019-08-08T12:42:34.000Z</time>
      </trkpt>
      <trkpt lat="42.862" lon="1.10154">
        <ele>1239</ele>
        <time>2019-08-08T12:42:35.000Z</time>
      </trkpt>
      <trkpt lat="42.86202" lon="1.10157">
        <ele>1239</ele>
        <time>2019-08-08T12:42:36.000Z</time>
      </trkpt>
      <trkpt lat="42.86203" lon="1.10161">
        <ele>1239</ele>
        <time>2019-08-08T12:42:37.000Z</time>
      </trkpt>
      <trkpt lat="42.86204" lon="1.10165">
        <ele>1239</ele>
        <time>2019-08-08T12:42:38.000Z</time>
      </trkpt>
      <trkpt lat="42.86206" lon="1.10168">
        <ele>1240</ele>
        <time>2019-08-08T12:42:39.000Z</time>
      </trkpt>
      <trkpt lat="42.86207" lon="1.10172">
        <ele>1240</ele>
        <time>2019-08-08T12:42:40.000Z</time>
      </trkpt>
      <trkpt lat="42.86207" lon="1.10177">
        <ele>1240</ele>
        <time>2019-08-08T12:42:41.000Z</time>
      </trkpt>
      <trkpt lat="42.86208" lon="1.10181">
        <ele>1240</ele>
        <time>2019-08-08T12:42:42.000Z</time>
      </trkpt>
      <trkpt lat="42.8621" lon="1.10187">
        <ele>1241</ele>
        <time>2019-08-08T12:42:43.000Z</time>
      </trkpt>
      <trkpt lat="42.8621" lon="1.10189">
        <ele>1241</ele>
        <time>2019-08-08T12:42:44.000Z</time>
      </trkpt>
      <trkpt lat="42.86211" lon="1.10193">
        <ele>1242</ele>
        <time>2019-08-08T12:42:45.000Z</time>
      </trkpt>
      <trkpt lat="42.86212" lon="1.10196">
        <ele>1242</ele>
        <time>2019-08-08T12:42:46.000Z</time>
      </trkpt>
      <trkpt lat="42.86213" lon="1.102">
        <ele>1243</ele>
        <time>2019-08-08T12:42:47.000Z</time>
      </trkpt>
      <trkpt lat="42.86214" lon="1.10204">
        <ele>1243</ele>
        <time>2019-08-08T12:42:48.000Z</time>
      </trkpt>
      <trkpt lat="42.86215" lon="1.10208">
        <ele>1243</ele>
        <time>2019-08-08T12:42:49.000Z</time>
      </trkpt>
      <trkpt lat="42.86217" lon="1.10211">
        <ele>1243</ele>
        <time>2019-08-08T12:42:50.000Z</time>
      </trkpt>
      <trkpt lat="42.86218" lon="1.10215">
        <ele>1243</ele>
        <time>2019-08-08T12:42:51.000Z</time>
      </trkpt>
      <trkpt lat="42.86219" lon="1.10219">
        <ele>1243</ele>
        <time>2019-08-08T12:42:52.000Z</time>
      </trkpt>
      <trkpt lat="42.8622" lon="1.10222">
        <ele>1244</ele>
        <time>2019-08-08T12:42:53.000Z</time>
      </trkpt>
      <trkpt lat="42.8622" lon="1.10227">
        <ele>1244</ele>
        <time>2019-08-08T12:42:54.000Z</time>
      </trkpt>
      <trkpt lat="42.8622" lon="1.10231">
        <ele>1245</ele>
        <time>2019-08-08T12:42:55.000Z</time>
      </trkpt>
      <trkpt lat="42.8622" lon="1.10235">
        <ele>1245</ele>
        <time>2019-08-08T12:42:56.000Z</time>
      </trkpt>
      <trkpt lat="42.8622" lon="1.10239">
        <ele>1245</ele>
        <time>2019-08-08T12:42:57.000Z</time>
      </trkpt>
      <trkpt lat="42.8622" lon="1.10243">
        <ele>1245</ele>
        <time>2019-08-08T12:42:58.000Z</time>
      </trkpt>
      <trkpt lat="42.8622" lon="1.10247">
        <ele>1246</ele>
        <time>2019-08-08T12:42:59.000Z</time>
      </trkpt>
      <trkpt lat="42.8622" lon="1.10254">
        <ele>1246</ele>
        <time>2019-08-08T12:43:00.000Z</time>
      </trkpt>
      <trkpt lat="42.8622" lon="1.10256">
        <ele>1246</ele>
        <time>2019-08-08T12:43:01.000Z</time>
      </trkpt>
      <trkpt lat="42.8622" lon="1.1026">
        <ele>1246</ele>
        <time>2019-08-08T12:43:02.000Z</time>
      </trkpt>
      <trkpt lat="42.8622" lon="1.10264">
        <ele>1246</ele>
        <time>2019-08-08T12:43:03.000Z</time>
      </trkpt>
      <trkpt lat="42.8622" lon="1.10268">
        <ele>1247</ele>
        <time>2019-08-08T12:43:04.000Z</time>
      </trkpt>
      <trkpt lat="42.86219" lon="1.10272">
        <ele>1247</ele>
        <time>2019-08-08T12:43:05.000Z</time>
      </trkpt>
      <trkpt lat="42.86218" lon="1.10275">
        <ele>1248</ele>
        <time>2019-08-08T12:43:06.000Z</time>
      </trkpt>
      <trkpt lat="42.86217" lon="1.10279">
        <ele>1248</ele>
        <time>2019-08-08T12:43:07.000Z</time>
      </trkpt>
      <trkpt lat="42.86217" lon="1.10283">
        <ele>1248</ele>
        <time>2019-08-08T12:43:08.000Z</time>
      </trkpt>
      <trkpt lat="42.86217" lon="1.10287">
        <ele>1248</ele>
        <time>2019-08-08T12:43:09.000Z</time>
      </trkpt>
      <trkpt lat="42.86216" lon="1.10291">
        <ele>1248</ele>
        <time>2019-08-08T12:43:10.000Z</time>
      </trkpt>
      <trkpt lat="42.86215" lon="1.10294">
        <ele>1248</ele>
        <time>2019-08-08T12:43:11.000Z</time>
      </trkpt>
      <trkpt lat="42.86215" lon="1.10298">
        <ele>1249</ele>
        <time>2019-08-08T12:43:12.000Z</time>
      </trkpt>
      <trkpt lat="42.86215" lon="1.10302">
        <ele>1249</ele>
        <time>2019-08-08T12:43:13.000Z</time>
      </trkpt>
      <trkpt lat="42.86215" lon="1.10306">
        <ele>1249</ele>
        <time>2019-08-08T12:43:14.000Z</time>
      </trkpt>
      <trkpt lat="42.86215" lon="1.1031">
        <ele>1249</ele>
        <time>2019-08-08T12:43:15.000Z</time>
      </trkpt>
      <trkpt lat="42.86215" lon="1.10314">
        <ele>1249</ele>
        <time>2019-08-08T12:43:16.000Z</time>
      </trkpt>
      <trkpt lat="42.86215" lon="1.10317">
        <ele>1249</ele>
        <time>2019-08-08T12:43:17.000Z</time>
      </trkpt>
      <trkpt lat="42.86216" lon="1.10322">
        <ele>1249</ele>
        <time>2019-08-08T12:43:18.000Z</time>
      </trkpt>
      <trkpt lat="42.86217" lon="1.10326">
        <ele>1249</ele>
        <time>2019-08-08T12:43:19.000Z</time>
      </trkpt>
      <trkpt lat="42.86218" lon="1.10329">
        <ele>1249</ele>
        <time>2019-08-08T12:43:20.000Z</time>
      </trkpt>
      <trkpt lat="42.86219" lon="1.10333">
        <ele>1250</ele>
        <time>2019-08-08T12:43:21.000Z</time>
      </trkpt>
      <trkpt lat="42.8622" lon="1.10336">
        <ele>1250</ele>
        <time>2019-08-08T12:43:22.000Z</time>
      </trkpt>
      <trkpt lat="42.86222" lon="1.10339">
        <ele>1250</ele>
        <time>2019-08-08T12:43:23.000Z</time>
      </trkpt>
      <trkpt lat="42.86224" lon="1.10341">
        <ele>1250</ele>
        <time>2019-08-08T12:43:24.000Z</time>
      </trkpt>
      <trkpt lat="42.86226" lon="1.10343">
        <ele>1251</ele>
        <time>2019-08-08T12:43:25.000Z</time>
      </trkpt>
      <trkpt lat="42.86229" lon="1.10345">
        <ele>1251</ele>
        <time>2019-08-08T12:43:26.000Z</time>
      </trkpt>
      <trkpt lat="42.86232" lon="1.10346">
        <ele>1251</ele>
        <time>2019-08-08T12:43:27.000Z</time>
      </trkpt>
      <trkpt lat="42.86234" lon="1.10346">
        <ele>1251</ele>
        <time>2019-08-08T12:43:28.000Z</time>
      </trkpt>
      <trkpt lat="42.86237" lon="1.10346">
        <ele>1252</ele>
        <time>2019-08-08T12:43:29.000Z</time>
      </trkpt>
      <trkpt lat="42.8624" lon="1.10346">
        <ele>1252</ele>
        <time>2019-08-08T12:43:30.000Z</time>
      </trkpt>
      <trkpt lat="42.86243" lon="1.10347">
        <ele>1252</ele>
        <time>2019-08-08T12:43:31.000Z</time>
      </trkpt>
      <trkpt lat="42.86246" lon="1.10347">
        <ele>1252</ele>
        <time>2019-08-08T12:43:32.000Z</time>
      </trkpt>
      <trkpt lat="42.86249" lon="1.10347">
        <ele>1252</ele>
        <time>2019-08-08T12:43:33.000Z</time>
      </trkpt>
      <trkpt lat="42.86251" lon="1.10347">
        <ele>1252</ele>
        <time>2019-08-08T12:43:34.000Z</time>
      </trkpt>
      <trkpt lat="42.86254" lon="1.10346">
        <ele>1253</ele>
        <time>2019-08-08T12:43:35.000Z</time>
      </trkpt>
      <trkpt lat="42.86257" lon="1.10345">
        <ele>1253</ele>
        <time>2019-08-08T12:43:36.000Z</time>
      </trkpt>
      <trkpt lat="42.86259" lon="1.10344">
        <ele>1253</ele>
        <time>2019-08-08T12:43:37.000Z</time>
      </trkpt>
      <trkpt lat="42.86262" lon="1.10344">
        <ele>1253</ele>
        <time>2019-08-08T12:43:38.000Z</time>
      </trkpt>
      <trkpt lat="42.86265" lon="1.10343">
        <ele>1254</ele>
        <time>2019-08-08T12:43:39.000Z</time>
      </trkpt>
      <trkpt lat="42.86268" lon="1.10343">
        <ele>1254</ele>
        <time>2019-08-08T12:43:40.000Z</time>
      </trkpt>
      <trkpt lat="42.86271" lon="1.10342">
        <ele>1254</ele>
        <time>2019-08-08T12:43:41.000Z</time>
      </trkpt>
      <trkpt lat="42.86273" lon="1.10341">
        <ele>1254</ele>
        <time>2019-08-08T12:43:42.000Z</time>
      </trkpt>
      <trkpt lat="42.86276" lon="1.10341">
        <ele>1254</ele>
        <time>2019-08-08T12:43:43.000Z</time>
      </trkpt>
      <trkpt lat="42.8628" lon="1.1034">
        <ele>1254</ele>
        <time>2019-08-08T12:43:44.000Z</time>
      </trkpt>
      <trkpt lat="42.86283" lon="1.10339">
        <ele>1255</ele>
        <time>2019-08-08T12:43:45.000Z</time>
      </trkpt>
      <trkpt lat="42.86286" lon="1.10339">
        <ele>1255</ele>
        <time>2019-08-08T12:43:46.000Z</time>
      </trkpt>
      <trkpt lat="42.86289" lon="1.10339">
        <ele>1255</ele>
        <time>2019-08-08T12:43:47.000Z</time>
      </trkpt>
      <trkpt lat="42.86292" lon="1.10339">
        <ele>1255</ele>
        <time>2019-08-08T12:43:48.000Z</time>
      </trkpt>
      <trkpt lat="42.86295" lon="1.10338">
        <ele>1255</ele>
        <time>2019-08-08T12:43:49.000Z</time>
      </trkpt>
      <trkpt lat="42.86299" lon="1.10337">
        <ele>1255</ele>
        <time>2019-08-08T12:43:50.000Z</time>
      </trkpt>
      <trkpt lat="42.86301" lon="1.10337">
        <ele>1256</ele>
        <time>2019-08-08T12:43:51.000Z</time>
      </trkpt>
      <trkpt lat="42.86304" lon="1.10337">
        <ele>1256</ele>
        <time>2019-08-08T12:43:52.000Z</time>
      </trkpt>
      <trkpt lat="42.86306" lon="1.10336">
        <ele>1257</ele>
        <time>2019-08-08T12:43:53.000Z</time>
      </trkpt>
      <trkpt lat="42.86309" lon="1.10336">
        <ele>1257</ele>
        <time>2019-08-08T12:43:54.000Z</time>
      </trkpt>
      <trkpt lat="42.86312" lon="1.10337">
        <ele>1258</ele>
        <time>2019-08-08T12:43:55.000Z</time>
      </trkpt>
      <trkpt lat="42.86315" lon="1.10336">
        <ele>1258</ele>
        <time>2019-08-08T12:43:56.000Z</time>
      </trkpt>
      <trkpt lat="42.86318" lon="1.10336">
        <ele>1258</ele>
        <time>2019-08-08T12:43:57.000Z</time>
      </trkpt>
      <trkpt lat="42.86321" lon="1.10336">
        <ele>1258</ele>
        <time>2019-08-08T12:43:58.000Z</time>
      </trkpt>
      <trkpt lat="42.86324" lon="1.10336">
        <ele>1258</ele>
        <time>2019-08-08T12:43:59.000Z</time>
      </trkpt>
      <trkpt lat="42.86327" lon="1.10336">
        <ele>1258</ele>
        <time>2019-08-08T12:44:00.000Z</time>
      </trkpt>
      <trkpt lat="42.8633" lon="1.10336">
        <ele>1259</ele>
        <time>2019-08-08T12:44:01.000Z</time>
      </trkpt>
      <trkpt lat="42.86333" lon="1.10336">
        <ele>1259</ele>
        <time>2019-08-08T12:44:02.000Z</time>
      </trkpt>
      <trkpt lat="42.86337" lon="1.10336">
        <ele>1260</ele>
        <time>2019-08-08T12:44:03.000Z</time>
      </trkpt>
      <trkpt lat="42.86339" lon="1.10335">
        <ele>1260</ele>
        <time>2019-08-08T12:44:04.000Z</time>
      </trkpt>
      <trkpt lat="42.86342" lon="1.10335">
        <ele>1260</ele>
        <time>2019-08-08T12:44:05.000Z</time>
      </trkpt>
      <trkpt lat="42.86345" lon="1.10335">
        <ele>1260</ele>
        <time>2019-08-08T12:44:06.000Z</time>
      </trkpt>
      <trkpt lat="42.86349" lon="1.10335">
        <ele>1261</ele>
        <time>2019-08-08T12:44:07.000Z</time>
      </trkpt>
      <trkpt lat="42.86352" lon="1.10335">
        <ele>1261</ele>
        <time>2019-08-08T12:44:08.000Z</time>
      </trkpt>
      <trkpt lat="42.86355" lon="1.10336">
        <ele>1261</ele>
        <time>2019-08-08T12:44:09.000Z</time>
      </trkpt>
      <trkpt lat="42.86358" lon="1.10336">
        <ele>1261</ele>
        <time>2019-08-08T12:44:10.000Z</time>
      </trkpt>
      <trkpt lat="42.86361" lon="1.10336">
        <ele>1262</ele>
        <time>2019-08-08T12:44:11.000Z</time>
      </trkpt>
      <trkpt lat="42.86364" lon="1.10337">
        <ele>1262</ele>
        <time>2019-08-08T12:44:12.000Z</time>
      </trkpt>
      <trkpt lat="42.86367" lon="1.10338">
        <ele>1262</ele>
        <time>2019-08-08T12:44:13.000Z</time>
      </trkpt>
      <trkpt lat="42.86369" lon="1.10338">
        <ele>1262</ele>
        <time>2019-08-08T12:44:14.000Z</time>
      </trkpt>
      <trkpt lat="42.86372" lon="1.10339">
        <ele>1263</ele>
        <time>2019-08-08T12:44:15.000Z</time>
      </trkpt>
      <trkpt lat="42.86375" lon="1.10339">
        <ele>1263</ele>
        <time>2019-08-08T12:44:16.000Z</time>
      </trkpt>
      <trkpt lat="42.86378" lon="1.1034">
        <ele>1264</ele>
        <time>2019-08-08T12:44:17.000Z</time>
      </trkpt>
      <trkpt lat="42.86381" lon="1.1034">
        <ele>1264</ele>
        <time>2019-08-08T12:44:18.000Z</time>
      </trkpt>
      <trkpt lat="42.86384" lon="1.1034">
        <ele>1264</ele>
        <time>2019-08-08T12:44:19.000Z</time>
      </trkpt>
      <trkpt lat="42.86387" lon="1.1034">
        <ele>1264</ele>
        <time>2019-08-08T12:44:20.000Z</time>
      </trkpt>
      <trkpt lat="42.8639" lon="1.1034">
        <ele>1265</ele>
        <time>2019-08-08T12:44:21.000Z</time>
      </trkpt>
      <trkpt lat="42.86393" lon="1.1034">
        <ele>1265</ele>
        <time>2019-08-08T12:44:22.000Z</time>
      </trkpt>
      <trkpt lat="42.86396" lon="1.1034">
        <ele>1265</ele>
        <time>2019-08-08T12:44:23.000Z</time>
      </trkpt>
      <trkpt lat="42.86399" lon="1.1034">
        <ele>1265</ele>
        <time>2019-08-08T12:44:24.000Z</time>
      </trkpt>
      <trkpt lat="42.86402" lon="1.1034">
        <ele>1265</ele>
        <time>2019-08-08T12:44:25.000Z</time>
      </trkpt>
      <trkpt lat="42.86405" lon="1.1034">
        <ele>1265</ele>
        <time>2019-08-08T12:44:26.000Z</time>
      </trkpt>
      <trkpt lat="42.86408" lon="1.1034">
        <ele>1265</ele>
        <time>2019-08-08T12:44:27.000Z</time>
      </trkpt>
      <trkpt lat="42.86411" lon="1.10339">
        <ele>1265</ele>
        <time>2019-08-08T12:44:28.000Z</time>
      </trkpt>
      <trkpt lat="42.86414" lon="1.10338">
        <ele>1265</ele>
        <time>2019-08-08T12:44:29.000Z</time>
      </trkpt>
      <trkpt lat="42.86417" lon="1.10337">
        <ele>1266</ele>
        <time>2019-08-08T12:44:30.000Z</time>
      </trkpt>
      <trkpt lat="42.86421" lon="1.10336">
        <ele>1266</ele>
        <time>2019-08-08T12:44:31.000Z</time>
      </trkpt>
      <trkpt lat="42.86424" lon="1.10335">
        <ele>1266</ele>
        <time>2019-08-08T12:44:32.000Z</time>
      </trkpt>
      <trkpt lat="42.86427" lon="1.10334">
        <ele>1266</ele>
        <time>2019-08-08T12:44:33.000Z</time>
      </trkpt>
      <trkpt lat="42.8643" lon="1.10332">
        <ele>1266</ele>
        <time>2019-08-08T12:44:34.000Z</time>
      </trkpt>
      <trkpt lat="42.86433" lon="1.1033">
        <ele>1266</ele>
        <time>2019-08-08T12:44:35.000Z</time>
      </trkpt>
      <trkpt lat="42.86436" lon="1.10328">
        <ele>1266</ele>
        <time>2019-08-08T12:44:36.000Z</time>
      </trkpt>
      <trkpt lat="42.86438" lon="1.10326">
        <ele>1266</ele>
        <time>2019-08-08T12:44:37.000Z</time>
      </trkpt>
      <trkpt lat="42.86441" lon="1.10323">
        <ele>1266</ele>
        <time>2019-08-08T12:44:38.000Z</time>
      </trkpt>
      <trkpt lat="42.86444" lon="1.10321">
        <ele>1267</ele>
        <time>2019-08-08T12:44:39.000Z</time>
      </trkpt>
      <trkpt lat="42.86446" lon="1.10318">
        <ele>1267</ele>
        <time>2019-08-08T12:44:40.000Z</time>
      </trkpt>
      <trkpt lat="42.8645" lon="1.10314">
        <ele>1267</ele>
        <time>2019-08-08T12:44:41.000Z</time>
      </trkpt>
      <trkpt lat="42.86451" lon="1.10313">
        <ele>1267</ele>
        <time>2019-08-08T12:44:42.000Z</time>
      </trkpt>
      <trkpt lat="42.86454" lon="1.1031">
        <ele>1267</ele>
        <time>2019-08-08T12:44:43.000Z</time>
      </trkpt>
      <trkpt lat="42.86456" lon="1.10307">
        <ele>1267</ele>
        <time>2019-08-08T12:44:44.000Z</time>
      </trkpt>
      <trkpt lat="42.86458" lon="1.10304">
        <ele>1267</ele>
        <time>2019-08-08T12:44:45.000Z</time>
      </trkpt>
      <trkpt lat="42.8646" lon="1.10301">
        <ele>1267</ele>
        <time>2019-08-08T12:44:46.000Z</time>
      </trkpt>
      <trkpt lat="42.86462" lon="1.10298">
        <ele>1268</ele>
        <time>2019-08-08T12:44:47.000Z</time>
      </trkpt>
      <trkpt lat="42.86464" lon="1.10295">
        <ele>1268</ele>
        <time>2019-08-08T12:44:48.000Z</time>
      </trkpt>
      <trkpt lat="42.86466" lon="1.10292">
        <ele>1270</ele>
        <time>2019-08-08T12:44:49.000Z</time>
      </trkpt>
      <trkpt lat="42.86468" lon="1.10289">
        <ele>1270</ele>
        <time>2019-08-08T12:44:50.000Z</time>
      </trkpt>
      <trkpt lat="42.8647" lon="1.10285">
        <ele>1270</ele>
        <time>2019-08-08T12:44:51.000Z</time>
      </trkpt>
      <trkpt lat="42.86472" lon="1.10282">
        <ele>1270</ele>
        <time>2019-08-08T12:44:52.000Z</time>
      </trkpt>
      <trkpt lat="42.86474" lon="1.10279">
        <ele>1270</ele>
        <time>2019-08-08T12:44:53.000Z</time>
      </trkpt>
      <trkpt lat="42.86476" lon="1.10276">
        <ele>1270</ele>
        <time>2019-08-08T12:44:54.000Z</time>
      </trkpt>
      <trkpt lat="42.86478" lon="1.10274">
        <ele>1271</ele>
        <time>2019-08-08T12:44:55.000Z</time>
      </trkpt>
      <trkpt lat="42.8648" lon="1.10271">
        <ele>1271</ele>
        <time>2019-08-08T12:44:56.000Z</time>
      </trkpt>
      <trkpt lat="42.86482" lon="1.10268">
        <ele>1272</ele>
        <time>2019-08-08T12:44:57.000Z</time>
      </trkpt>
      <trkpt lat="42.86484" lon="1.10265">
        <ele>1272</ele>
        <time>2019-08-08T12:44:58.000Z</time>
      </trkpt>
      <trkpt lat="42.86486" lon="1.10262">
        <ele>1272</ele>
        <time>2019-08-08T12:44:59.000Z</time>
      </trkpt>
      <trkpt lat="42.86488" lon="1.10259">
        <ele>1272</ele>
        <time>2019-08-08T12:45:00.000Z</time>
      </trkpt>
      <trkpt lat="42.86491" lon="1.10256">
        <ele>1273</ele>
        <time>2019-08-08T12:45:01.000Z</time>
      </trkpt>
      <trkpt lat="42.86493" lon="1.10253">
        <ele>1273</ele>
        <time>2019-08-08T12:45:02.000Z</time>
      </trkpt>
      <trkpt lat="42.86495" lon="1.10251">
        <ele>1273</ele>
        <time>2019-08-08T12:45:03.000Z</time>
      </trkpt>
      <trkpt lat="42.86497" lon="1.10248">
        <ele>1273</ele>
        <time>2019-08-08T12:45:04.000Z</time>
      </trkpt>
      <trkpt lat="42.865" lon="1.10245">
        <ele>1273</ele>
        <time>2019-08-08T12:45:05.000Z</time>
      </trkpt>
      <trkpt lat="42.86502" lon="1.10243">
        <ele>1273</ele>
        <time>2019-08-08T12:45:06.000Z</time>
      </trkpt>
      <trkpt lat="42.86504" lon="1.1024">
        <ele>1273</ele>
        <time>2019-08-08T12:45:07.000Z</time>
      </trkpt>
      <trkpt lat="42.86506" lon="1.10237">
        <ele>1273</ele>
        <time>2019-08-08T12:45:08.000Z</time>
      </trkpt>
      <trkpt lat="42.86509" lon="1.10235">
        <ele>1274</ele>
        <time>2019-08-08T12:45:09.000Z</time>
      </trkpt>
      <trkpt lat="42.86511" lon="1.10233">
        <ele>1274</ele>
        <time>2019-08-08T12:45:10.000Z</time>
      </trkpt>
      <trkpt lat="42.86513" lon="1.1023">
        <ele>1275</ele>
        <time>2019-08-08T12:45:11.000Z</time>
      </trkpt>
      <trkpt lat="42.86515" lon="1.10228">
        <ele>1275</ele>
        <time>2019-08-08T12:45:12.000Z</time>
      </trkpt>
      <trkpt lat="42.86517" lon="1.10225">
        <ele>1275</ele>
        <time>2019-08-08T12:45:13.000Z</time>
      </trkpt>
      <trkpt lat="42.86521" lon="1.1022">
        <ele>1275</ele>
        <time>2019-08-08T12:45:14.000Z</time>
      </trkpt>
      <trkpt lat="42.86522" lon="1.10219">
        <ele>1276</ele>
        <time>2019-08-08T12:45:15.000Z</time>
      </trkpt>
      <trkpt lat="42.86524" lon="1.10217">
        <ele>1276</ele>
        <time>2019-08-08T12:45:16.000Z</time>
      </trkpt>
      <trkpt lat="42.86527" lon="1.10215">
        <ele>1276</ele>
        <time>2019-08-08T12:45:17.000Z</time>
      </trkpt>
      <trkpt lat="42.86529" lon="1.10212">
        <ele>1276</ele>
        <time>2019-08-08T12:45:18.000Z</time>
      </trkpt>
      <trkpt lat="42.86531" lon="1.10209">
        <ele>1276</ele>
        <time>2019-08-08T12:45:19.000Z</time>
      </trkpt>
      <trkpt lat="42.86533" lon="1.10206">
        <ele>1276</ele>
        <time>2019-08-08T12:45:20.000Z</time>
      </trkpt>
      <trkpt lat="42.86535" lon="1.10203">
        <ele>1277</ele>
        <time>2019-08-08T12:45:21.000Z</time>
      </trkpt>
      <trkpt lat="42.86536" lon="1.102">
        <ele>1277</ele>
        <time>2019-08-08T12:45:22.000Z</time>
      </trkpt>
      <trkpt lat="42.86538" lon="1.10197">
        <ele>1277</ele>
        <time>2019-08-08T12:45:23.000Z</time>
      </trkpt>
      <trkpt lat="42.8654" lon="1.10194">
        <ele>1277</ele>
        <time>2019-08-08T12:45:24.000Z</time>
      </trkpt>
      <trkpt lat="42.86542" lon="1.1019">
        <ele>1279</ele>
        <time>2019-08-08T12:45:25.000Z</time>
      </trkpt>
      <trkpt lat="42.86543" lon="1.10187">
        <ele>1279</ele>
        <time>2019-08-08T12:45:26.000Z</time>
      </trkpt>
      <trkpt lat="42.86545" lon="1.10183">
        <ele>1279</ele>
        <time>2019-08-08T12:45:27.000Z</time>
      </trkpt>
      <trkpt lat="42.86547" lon="1.1018">
        <ele>1279</ele>
        <time>2019-08-08T12:45:28.000Z</time>
      </trkpt>
      <trkpt lat="42.86548" lon="1.10177">
        <ele>1279</ele>
        <time>2019-08-08T12:45:29.000Z</time>
      </trkpt>
      <trkpt lat="42.8655" lon="1.10174">
        <ele>1279</ele>
        <time>2019-08-08T12:45:30.000Z</time>
      </trkpt>
      <trkpt lat="42.86551" lon="1.10168">
        <ele>1280</ele>
        <time>2019-08-08T12:45:31.000Z</time>
      </trkpt>
      <trkpt lat="42.86551" lon="1.10166">
        <ele>1280</ele>
        <time>2019-08-08T12:45:32.000Z</time>
      </trkpt>
      <trkpt lat="42.86551" lon="1.10162">
        <ele>1280</ele>
        <time>2019-08-08T12:45:33.000Z</time>
      </trkpt>
      <trkpt lat="42.86552" lon="1.10158">
        <ele>1281</ele>
        <time>2019-08-08T12:45:34.000Z</time>
      </trkpt>
      <trkpt lat="42.86553" lon="1.10153">
        <ele>1281</ele>
        <time>2019-08-08T12:45:35.000Z</time>
      </trkpt>
      <trkpt lat="42.86553" lon="1.10149">
        <ele>1281</ele>
        <time>2019-08-08T12:45:36.000Z</time>
      </trkpt>
      <trkpt lat="42.86553" lon="1.10145">
        <ele>1281</ele>
        <time>2019-08-08T12:45:37.000Z</time>
      </trkpt>
      <trkpt lat="42.86554" lon="1.10141">
        <ele>1281</ele>
        <time>2019-08-08T12:45:38.000Z</time>
      </trkpt>
      <trkpt lat="42.86554" lon="1.10137">
        <ele>1281</ele>
        <time>2019-08-08T12:45:39.000Z</time>
      </trkpt>
      <trkpt lat="42.86554" lon="1.10133">
        <ele>1281</ele>
        <time>2019-08-08T12:45:40.000Z</time>
      </trkpt>
      <trkpt lat="42.86554" lon="1.10129">
        <ele>1281</ele>
        <time>2019-08-08T12:45:41.000Z</time>
      </trkpt>
      <trkpt lat="42.86554" lon="1.10124">
        <ele>1282</ele>
        <time>2019-08-08T12:45:42.000Z</time>
      </trkpt>
      <trkpt lat="42.86555" lon="1.1012">
        <ele>1282</ele>
        <time>2019-08-08T12:45:43.000Z</time>
      </trkpt>
      <trkpt lat="42.86555" lon="1.10116">
        <ele>1282</ele>
        <time>2019-08-08T12:45:44.000Z</time>
      </trkpt>
      <trkpt lat="42.86555" lon="1.10112">
        <ele>1282</ele>
        <time>2019-08-08T12:45:45.000Z</time>
      </trkpt>
      <trkpt lat="42.86556" lon="1.10108">
        <ele>1282</ele>
        <time>2019-08-08T12:45:46.000Z</time>
      </trkpt>
      <trkpt lat="42.86557" lon="1.10104">
        <ele>1282</ele>
        <time>2019-08-08T12:45:47.000Z</time>
      </trkpt>
      <trkpt lat="42.86557" lon="1.10099">
        <ele>1283</ele>
        <time>2019-08-08T12:45:48.000Z</time>
      </trkpt>
      <trkpt lat="42.86558" lon="1.10095">
        <ele>1283</ele>
        <time>2019-08-08T12:45:49.000Z</time>
      </trkpt>
      <trkpt lat="42.86558" lon="1.10091">
        <ele>1283</ele>
        <time>2019-08-08T12:45:50.000Z</time>
      </trkpt>
      <trkpt lat="42.86559" lon="1.10087">
        <ele>1283</ele>
        <time>2019-08-08T12:45:51.000Z</time>
      </trkpt>
      <trkpt lat="42.8656" lon="1.10083">
        <ele>1283</ele>
        <time>2019-08-08T12:45:52.000Z</time>
      </trkpt>
      <trkpt lat="42.86562" lon="1.10079">
        <ele>1283</ele>
        <time>2019-08-08T12:45:53.000Z</time>
      </trkpt>
      <trkpt lat="42.86563" lon="1.10076">
        <ele>1283</ele>
        <time>2019-08-08T12:45:54.000Z</time>
      </trkpt>
      <trkpt lat="42.86565" lon="1.10072">
        <ele>1285</ele>
        <time>2019-08-08T12:45:55.000Z</time>
      </trkpt>
      <trkpt lat="42.86567" lon="1.10069">
        <ele>1285</ele>
        <time>2019-08-08T12:45:56.000Z</time>
      </trkpt>
      <trkpt lat="42.86569" lon="1.10065">
        <ele>1285</ele>
        <time>2019-08-08T12:45:57.000Z</time>
      </trkpt>
      <trkpt lat="42.86571" lon="1.10062">
        <ele>1285</ele>
        <time>2019-08-08T12:45:58.000Z</time>
      </trkpt>
      <trkpt lat="42.86573" lon="1.10059">
        <ele>1285</ele>
        <time>2019-08-08T12:45:59.000Z</time>
      </trkpt>
      <trkpt lat="42.86575" lon="1.10057">
        <ele>1285</ele>
        <time>2019-08-08T12:46:00.000Z</time>
      </trkpt>
      <trkpt lat="42.86577" lon="1.10054">
        <ele>1285</ele>
        <time>2019-08-08T12:46:01.000Z</time>
      </trkpt>
      <trkpt lat="42.86579" lon="1.10051">
        <ele>1285</ele>
        <time>2019-08-08T12:46:02.000Z</time>
      </trkpt>
      <trkpt lat="42.86582" lon="1.10048">
        <ele>1286</ele>
        <time>2019-08-08T12:46:03.000Z</time>
      </trkpt>
      <trkpt lat="42.86585" lon="1.10044">
        <ele>1286</ele>
        <time>2019-08-08T12:46:04.000Z</time>
      </trkpt>
      <trkpt lat="42.86586" lon="1.10042">
        <ele>1286</ele>
        <time>2019-08-08T12:46:05.000Z</time>
      </trkpt>
      <trkpt lat="42.86589" lon="1.1004">
        <ele>1286</ele>
        <time>2019-08-08T12:46:06.000Z</time>
      </trkpt>
      <trkpt lat="42.86591" lon="1.10037">
        <ele>1286</ele>
        <time>2019-08-08T12:46:07.000Z</time>
      </trkpt>
      <trkpt lat="42.86594" lon="1.10035">
        <ele>1286</ele>
        <time>2019-08-08T12:46:08.000Z</time>
      </trkpt>
      <trkpt lat="42.86596" lon="1.10033">
        <ele>1287</ele>
        <time>2019-08-08T12:46:09.000Z</time>
      </trkpt>
      <trkpt lat="42.86599" lon="1.1003">
        <ele>1287</ele>
        <time>2019-08-08T12:46:10.000Z</time>
      </trkpt>
      <trkpt lat="42.86602" lon="1.10029">
        <ele>1287</ele>
        <time>2019-08-08T12:46:11.000Z</time>
      </trkpt>
      <trkpt lat="42.86604" lon="1.10027">
        <ele>1287</ele>
        <time>2019-08-08T12:46:12.000Z</time>
      </trkpt>
      <trkpt lat="42.86607" lon="1.10027">
        <ele>1288</ele>
        <time>2019-08-08T12:46:13.000Z</time>
      </trkpt>
      <trkpt lat="42.8661" lon="1.10026">
        <ele>1288</ele>
        <time>2019-08-08T12:46:14.000Z</time>
      </trkpt>
      <trkpt lat="42.86613" lon="1.10025">
        <ele>1289</ele>
        <time>2019-08-08T12:46:15.000Z</time>
      </trkpt>
      <trkpt lat="42.86615" lon="1.10024">
        <ele>1289</ele>
        <time>2019-08-08T12:46:16.000Z</time>
      </trkpt>
      <trkpt lat="42.86618" lon="1.10025">
        <ele>1290</ele>
        <time>2019-08-08T12:46:17.000Z</time>
      </trkpt>
      <trkpt lat="42.8662" lon="1.10027">
        <ele>1290</ele>
        <time>2019-08-08T12:46:18.000Z</time>
      </trkpt>
      <trkpt lat="42.86621" lon="1.1003">
        <ele>1291</ele>
        <time>2019-08-08T12:46:19.000Z</time>
      </trkpt>
      <trkpt lat="42.8662" lon="1.10033">
        <ele>1291</ele>
        <time>2019-08-08T12:46:20.000Z</time>
      </trkpt>
      <trkpt lat="42.86619" lon="1.10036">
        <ele>1291</ele>
        <time>2019-08-08T12:46:21.000Z</time>
      </trkpt>
      <trkpt lat="42.86617" lon="1.10039">
        <ele>1292</ele>
        <time>2019-08-08T12:46:22.000Z</time>
      </trkpt>
      <trkpt lat="42.86616" lon="1.10041">
        <ele>1292</ele>
        <time>2019-08-08T12:46:23.000Z</time>
      </trkpt>
      <trkpt lat="42.86614" lon="1.10043">
        <ele>1292</ele>
        <time>2019-08-08T12:46:24.000Z</time>
      </trkpt>
      <trkpt lat="42.86611" lon="1.10045">
        <ele>1292</ele>
        <time>2019-08-08T12:46:25.000Z</time>
      </trkpt>
      <trkpt lat="42.86609" lon="1.10047">
        <ele>1292</ele>
        <time>2019-08-08T12:46:26.000Z</time>
      </trkpt>
      <trkpt lat="42.86607" lon="1.10049">
        <ele>1293</ele>
        <time>2019-08-08T12:46:27.000Z</time>
      </trkpt>
      <trkpt lat="42.86605" lon="1.10051">
        <ele>1293</ele>
        <time>2019-08-08T12:46:28.000Z</time>
      </trkpt>
      <trkpt lat="42.86602" lon="1.10052">
        <ele>1295</ele>
        <time>2019-08-08T12:46:29.000Z</time>
      </trkpt>
      <trkpt lat="42.86599" lon="1.10053">
        <ele>1295</ele>
        <time>2019-08-08T12:46:30.000Z</time>
      </trkpt>
      <trkpt lat="42.86597" lon="1.10054">
        <ele>1296</ele>
        <time>2019-08-08T12:46:31.000Z</time>
      </trkpt>
      <trkpt lat="42.86594" lon="1.10056">
        <ele>1296</ele>
        <time>2019-08-08T12:46:32.000Z</time>
      </trkpt>
      <trkpt lat="42.86592" lon="1.10059">
        <ele>1297</ele>
        <time>2019-08-08T12:46:33.000Z</time>
      </trkpt>
      <trkpt lat="42.86591" lon="1.10061">
        <ele>1297</ele>
        <time>2019-08-08T12:46:34.000Z</time>
      </trkpt>
      <trkpt lat="42.86589" lon="1.10063">
        <ele>1297</ele>
        <time>2019-08-08T12:46:35.000Z</time>
      </trkpt>
      <trkpt lat="42.86587" lon="1.10066">
        <ele>1297</ele>
        <time>2019-08-08T12:46:36.000Z</time>
      </trkpt>
      <trkpt lat="42.86586" lon="1.10069">
        <ele>1297</ele>
        <time>2019-08-08T12:46:37.000Z</time>
      </trkpt>
      <trkpt lat="42.86585" lon="1.10072">
        <ele>1297</ele>
        <time>2019-08-08T12:46:38.000Z</time>
      </trkpt>
      <trkpt lat="42.86584" lon="1.10076">
        <ele>1298</ele>
        <time>2019-08-08T12:46:39.000Z</time>
      </trkpt>
      <trkpt lat="42.86583" lon="1.1008">
        <ele>1298</ele>
        <time>2019-08-08T12:46:40.000Z</time>
      </trkpt>
      <trkpt lat="42.86582" lon="1.10083">
        <ele>1299</ele>
        <time>2019-08-08T12:46:41.000Z</time>
      </trkpt>
      <trkpt lat="42.86581" lon="1.10086">
        <ele>1299</ele>
        <time>2019-08-08T12:46:42.000Z</time>
      </trkpt>
      <trkpt lat="42.86581" lon="1.1009">
        <ele>1299</ele>
        <time>2019-08-08T12:46:43.000Z</time>
      </trkpt>
      <trkpt lat="42.8658" lon="1.10093">
        <ele>1299</ele>
        <time>2019-08-08T12:46:44.000Z</time>
      </trkpt>
      <trkpt lat="42.8658" lon="1.10097">
        <ele>1299</ele>
        <time>2019-08-08T12:46:45.000Z</time>
      </trkpt>
      <trkpt lat="42.86579" lon="1.10101">
        <ele>1299</ele>
        <time>2019-08-08T12:46:46.000Z</time>
      </trkpt>
      <trkpt lat="42.86579" lon="1.10104">
        <ele>1300</ele>
        <time>2019-08-08T12:46:47.000Z</time>
      </trkpt>
      <trkpt lat="42.86579" lon="1.10108">
        <ele>1300</ele>
        <time>2019-08-08T12:46:48.000Z</time>
      </trkpt>
      <trkpt lat="42.86579" lon="1.10111">
        <ele>1301</ele>
        <time>2019-08-08T12:46:49.000Z</time>
      </trkpt>
      <trkpt lat="42.8658" lon="1.10114">
        <ele>1301</ele>
        <time>2019-08-08T12:46:50.000Z</time>
      </trkpt>
      <trkpt lat="42.86581" lon="1.10118">
        <ele>1301</ele>
        <time>2019-08-08T12:46:51.000Z</time>
      </trkpt>
      <trkpt lat="42.86581" lon="1.10122">
        <ele>1301</ele>
        <time>2019-08-08T12:46:52.000Z</time>
      </trkpt>
      <trkpt lat="42.86582" lon="1.10129">
        <ele>1301</ele>
        <time>2019-08-08T12:46:53.000Z</time>
      </trkpt>
      <trkpt lat="42.86582" lon="1.10131">
        <ele>1302</ele>
        <time>2019-08-08T12:46:54.000Z</time>
      </trkpt>
      <trkpt lat="42.86583" lon="1.10134">
        <ele>1303</ele>
        <time>2019-08-08T12:46:55.000Z</time>
      </trkpt>
      <trkpt lat="42.86583" lon="1.10138">
        <ele>1303</ele>
        <time>2019-08-08T12:46:56.000Z</time>
      </trkpt>
      <trkpt lat="42.86583" lon="1.10142">
        <ele>1304</ele>
        <time>2019-08-08T12:46:57.000Z</time>
      </trkpt>
      <trkpt lat="42.86584" lon="1.10146">
        <ele>1304</ele>
        <time>2019-08-08T12:46:58.000Z</time>
      </trkpt>
      <trkpt lat="42.86584" lon="1.1015">
        <ele>1304</ele>
        <time>2019-08-08T12:46:59.000Z</time>
      </trkpt>
      <trkpt lat="42.86584" lon="1.10154">
        <ele>1304</ele>
        <time>2019-08-08T12:47:00.000Z</time>
      </trkpt>
      <trkpt lat="42.86584" lon="1.10158">
        <ele>1304</ele>
        <time>2019-08-08T12:47:01.000Z</time>
      </trkpt>
      <trkpt lat="42.86584" lon="1.10162">
        <ele>1304</ele>
        <time>2019-08-08T12:47:02.000Z</time>
      </trkpt>
      <trkpt lat="42.86584" lon="1.10165">
        <ele>1304</ele>
        <time>2019-08-08T12:47:03.000Z</time>
      </trkpt>
      <trkpt lat="42.86584" lon="1.10169">
        <ele>1304</ele>
        <time>2019-08-08T12:47:04.000Z</time>
      </trkpt>
      <trkpt lat="42.86584" lon="1.10173">
        <ele>1305</ele>
        <time>2019-08-08T12:47:05.000Z</time>
      </trkpt>
      <trkpt lat="42.86583" lon="1.10177">
        <ele>1305</ele>
        <time>2019-08-08T12:47:06.000Z</time>
      </trkpt>
      <trkpt lat="42.86583" lon="1.10181">
        <ele>1306</ele>
        <time>2019-08-08T12:47:07.000Z</time>
      </trkpt>
      <trkpt lat="42.86583" lon="1.10185">
        <ele>1307</ele>
        <time>2019-08-08T12:47:08.000Z</time>
      </trkpt>
      <trkpt lat="42.86583" lon="1.1019">
        <ele>1307</ele>
        <time>2019-08-08T12:47:09.000Z</time>
      </trkpt>
      <trkpt lat="42.86583" lon="1.10196">
        <ele>1307</ele>
        <time>2019-08-08T12:47:10.000Z</time>
      </trkpt>
      <trkpt lat="42.86583" lon="1.10198">
        <ele>1307</ele>
        <time>2019-08-08T12:47:11.000Z</time>
      </trkpt>
      <trkpt lat="42.86582" lon="1.10203">
        <ele>1307</ele>
        <time>2019-08-08T12:47:12.000Z</time>
      </trkpt>
      <trkpt lat="42.86582" lon="1.10207">
        <ele>1307</ele>
        <time>2019-08-08T12:47:13.000Z</time>
      </trkpt>
      <trkpt lat="42.86581" lon="1.10211">
        <ele>1308</ele>
        <time>2019-08-08T12:47:14.000Z</time>
      </trkpt>
      <trkpt lat="42.8658" lon="1.10215">
        <ele>1308</ele>
        <time>2019-08-08T12:47:15.000Z</time>
      </trkpt>
      <trkpt lat="42.8658" lon="1.1022">
        <ele>1309</ele>
        <time>2019-08-08T12:47:16.000Z</time>
      </trkpt>
      <trkpt lat="42.86579" lon="1.10224">
        <ele>1309</ele>
        <time>2019-08-08T12:47:17.000Z</time>
      </trkpt>
      <trkpt lat="42.86578" lon="1.10228">
        <ele>1309</ele>
        <time>2019-08-08T12:47:18.000Z</time>
      </trkpt>
      <trkpt lat="42.86577" lon="1.10232">
        <ele>1309</ele>
        <time>2019-08-08T12:47:19.000Z</time>
      </trkpt>
      <trkpt lat="42.86575" lon="1.10235">
        <ele>1310</ele>
        <time>2019-08-08T12:47:20.000Z</time>
      </trkpt>
      <trkpt lat="42.86574" lon="1.10239">
        <ele>1311</ele>
        <time>2019-08-08T12:47:21.000Z</time>
      </trkpt>
      <trkpt lat="42.86572" lon="1.10242">
        <ele>1311</ele>
        <time>2019-08-08T12:47:22.000Z</time>
      </trkpt>
      <trkpt lat="42.8657" lon="1.10246">
        <ele>1311</ele>
        <time>2019-08-08T12:47:23.000Z</time>
      </trkpt>
      <trkpt lat="42.86568" lon="1.1025">
        <ele>1311</ele>
        <time>2019-08-08T12:47:24.000Z</time>
      </trkpt>
      <trkpt lat="42.86566" lon="1.10253">
        <ele>1311</ele>
        <time>2019-08-08T12:47:25.000Z</time>
      </trkpt>
      <trkpt lat="42.86565" lon="1.10257">
        <ele>1311</ele>
        <time>2019-08-08T12:47:26.000Z</time>
      </trkpt>
      <trkpt lat="42.86563" lon="1.1026">
        <ele>1311</ele>
        <time>2019-08-08T12:47:27.000Z</time>
      </trkpt>
      <trkpt lat="42.86561" lon="1.10264">
        <ele>1311</ele>
        <time>2019-08-08T12:47:28.000Z</time>
      </trkpt>
      <trkpt lat="42.86559" lon="1.10267">
        <ele>1312</ele>
        <time>2019-08-08T12:47:29.000Z</time>
      </trkpt>
      <trkpt lat="42.86557" lon="1.10271">
        <ele>1312</ele>
        <time>2019-08-08T12:47:30.000Z</time>
      </trkpt>
      <trkpt lat="42.86555" lon="1.10274">
        <ele>1312</ele>
        <time>2019-08-08T12:47:31.000Z</time>
      </trkpt>
      <trkpt lat="42.86553" lon="1.10277">
        <ele>1312</ele>
        <time>2019-08-08T12:47:32.000Z</time>
      </trkpt>
      <trkpt lat="42.86551" lon="1.10281">
        <ele>1313</ele>
        <time>2019-08-08T12:47:33.000Z</time>
      </trkpt>
      <trkpt lat="42.86549" lon="1.10284">
        <ele>1313</ele>
        <time>2019-08-08T12:47:34.000Z</time>
      </trkpt>
      <trkpt lat="42.86547" lon="1.10287">
        <ele>1314</ele>
        <time>2019-08-08T12:47:35.000Z</time>
      </trkpt>
      <trkpt lat="42.86546" lon="1.10291">
        <ele>1314</ele>
        <time>2019-08-08T12:47:36.000Z</time>
      </trkpt>
      <trkpt lat="42.86544" lon="1.10294">
        <ele>1314</ele>
        <time>2019-08-08T12:47:37.000Z</time>
      </trkpt>
      <trkpt lat="42.86542" lon="1.10298">
        <ele>1315</ele>
        <time>2019-08-08T12:47:38.000Z</time>
      </trkpt>
      <trkpt lat="42.8654" lon="1.10301">
        <ele>1316</ele>
        <time>2019-08-08T12:47:39.000Z</time>
      </trkpt>
      <trkpt lat="42.86538" lon="1.10305">
        <ele>1317</ele>
        <time>2019-08-08T12:47:40.000Z</time>
      </trkpt>
      <trkpt lat="42.86537" lon="1.10308">
        <ele>1317</ele>
        <time>2019-08-08T12:47:41.000Z</time>
      </trkpt>
      <trkpt lat="42.86535" lon="1.10312">
        <ele>1317</ele>
        <time>2019-08-08T12:47:42.000Z</time>
      </trkpt>
      <trkpt lat="42.86533" lon="1.10315">
        <ele>1317</ele>
        <time>2019-08-08T12:47:43.000Z</time>
      </trkpt>
      <trkpt lat="42.86532" lon="1.10319">
        <ele>1317</ele>
        <time>2019-08-08T12:47:44.000Z</time>
      </trkpt>
      <trkpt lat="42.8653" lon="1.10322">
        <ele>1317</ele>
        <time>2019-08-08T12:47:45.000Z</time>
      </trkpt>
      <trkpt lat="42.86528" lon="1.10326">
        <ele>1317</ele>
        <time>2019-08-08T12:47:46.000Z</time>
      </trkpt>
      <trkpt lat="42.86527" lon="1.10329">
        <ele>1317</ele>
        <time>2019-08-08T12:47:47.000Z</time>
      </trkpt>
      <trkpt lat="42.86525" lon="1.10333">
        <ele>1318</ele>
        <time>2019-08-08T12:47:48.000Z</time>
      </trkpt>
      <trkpt lat="42.86524" lon="1.10337">
        <ele>1318</ele>
        <time>2019-08-08T12:47:49.000Z</time>
      </trkpt>
      <trkpt lat="42.86522" lon="1.1034">
        <ele>1319</ele>
        <time>2019-08-08T12:47:50.000Z</time>
      </trkpt>
      <trkpt lat="42.86521" lon="1.10344">
        <ele>1319</ele>
        <time>2019-08-08T12:47:51.000Z</time>
      </trkpt>
      <trkpt lat="42.86519" lon="1.10347">
        <ele>1319</ele>
        <time>2019-08-08T12:47:52.000Z</time>
      </trkpt>
      <trkpt lat="42.86518" lon="1.10351">
        <ele>1319</ele>
        <time>2019-08-08T12:47:53.000Z</time>
      </trkpt>
      <trkpt lat="42.86517" lon="1.10355">
        <ele>1319</ele>
        <time>2019-08-08T12:47:54.000Z</time>
      </trkpt>
      <trkpt lat="42.86516" lon="1.10359">
        <ele>1319</ele>
        <time>2019-08-08T12:47:55.000Z</time>
      </trkpt>
      <trkpt lat="42.86515" lon="1.10362">
        <ele>1320</ele>
        <time>2019-08-08T12:47:56.000Z</time>
      </trkpt>
      <trkpt lat="42.86514" lon="1.10366">
        <ele>1320</ele>
        <time>2019-08-08T12:47:57.000Z</time>
      </trkpt>
      <trkpt lat="42.86513" lon="1.1037">
        <ele>1320</ele>
        <time>2019-08-08T12:47:58.000Z</time>
      </trkpt>
      <trkpt lat="42.86512" lon="1.10373">
        <ele>1321</ele>
        <time>2019-08-08T12:47:59.000Z</time>
      </trkpt>
      <trkpt lat="42.86511" lon="1.10376">
        <ele>1321</ele>
        <time>2019-08-08T12:48:00.000Z</time>
      </trkpt>
      <trkpt lat="42.8651" lon="1.1038">
        <ele>1321</ele>
        <time>2019-08-08T12:48:01.000Z</time>
      </trkpt>
      <trkpt lat="42.86509" lon="1.10383">
        <ele>1321</ele>
        <time>2019-08-08T12:48:02.000Z</time>
      </trkpt>
      <trkpt lat="42.86508" lon="1.10386">
        <ele>1322</ele>
        <time>2019-08-08T12:48:03.000Z</time>
      </trkpt>
      <trkpt lat="42.86507" lon="1.1039">
        <ele>1322</ele>
        <time>2019-08-08T12:48:04.000Z</time>
      </trkpt>
      <trkpt lat="42.86506" lon="1.10393">
        <ele>1323</ele>
        <time>2019-08-08T12:48:05.000Z</time>
      </trkpt>
      <trkpt lat="42.86505" lon="1.10396">
        <ele>1323</ele>
        <time>2019-08-08T12:48:06.000Z</time>
      </trkpt>
      <trkpt lat="42.86504" lon="1.104">
        <ele>1324</ele>
        <time>2019-08-08T12:48:07.000Z</time>
      </trkpt>
      <trkpt lat="42.86503" lon="1.10403">
        <ele>1324</ele>
        <time>2019-08-08T12:48:08.000Z</time>
      </trkpt>
      <trkpt lat="42.86502" lon="1.10406">
        <ele>1324</ele>
        <time>2019-08-08T12:48:09.000Z</time>
      </trkpt>
      <trkpt lat="42.86501" lon="1.1041">
        <ele>1324</ele>
        <time>2019-08-08T12:48:10.000Z</time>
      </trkpt>
      <trkpt lat="42.865" lon="1.10413">
        <ele>1325</ele>
        <time>2019-08-08T12:48:11.000Z</time>
      </trkpt>
      <trkpt lat="42.86498" lon="1.10416">
        <ele>1325</ele>
        <time>2019-08-08T12:48:12.000Z</time>
      </trkpt>
      <trkpt lat="42.86497" lon="1.10419">
        <ele>1325</ele>
        <time>2019-08-08T12:48:13.000Z</time>
      </trkpt>
      <trkpt lat="42.86496" lon="1.10423">
        <ele>1325</ele>
        <time>2019-08-08T12:48:14.000Z</time>
      </trkpt>
      <trkpt lat="42.86495" lon="1.10426">
        <ele>1325</ele>
        <time>2019-08-08T12:48:15.000Z</time>
      </trkpt>
      <trkpt lat="42.86495" lon="1.10431">
        <ele>1325</ele>
        <time>2019-08-08T12:48:16.000Z</time>
      </trkpt>
      <trkpt lat="42.86495" lon="1.10433">
        <ele>1326</ele>
        <time>2019-08-08T12:48:17.000Z</time>
      </trkpt>
      <trkpt lat="42.86494" lon="1.10437">
        <ele>1326</ele>
        <time>2019-08-08T12:48:18.000Z</time>
      </trkpt>
      <trkpt lat="42.86493" lon="1.10442">
        <ele>1327</ele>
        <time>2019-08-08T12:48:19.000Z</time>
      </trkpt>
      <trkpt lat="42.86492" lon="1.10443">
        <ele>1327</ele>
        <time>2019-08-08T12:48:20.000Z</time>
      </trkpt>
      <trkpt lat="42.86491" lon="1.10446">
        <ele>1328</ele>
        <time>2019-08-08T12:48:21.000Z</time>
      </trkpt>
      <trkpt lat="42.86491" lon="1.1045">
        <ele>1328</ele>
        <time>2019-08-08T12:48:22.000Z</time>
      </trkpt>
      <trkpt lat="42.8649" lon="1.10453">
        <ele>1328</ele>
        <time>2019-08-08T12:48:23.000Z</time>
      </trkpt>
      <trkpt lat="42.86489" lon="1.10457">
        <ele>1328</ele>
        <time>2019-08-08T12:48:24.000Z</time>
      </trkpt>
      <trkpt lat="42.86489" lon="1.1046">
        <ele>1328</ele>
        <time>2019-08-08T12:48:25.000Z</time>
      </trkpt>
      <trkpt lat="42.86488" lon="1.10464">
        <ele>1328</ele>
        <time>2019-08-08T12:48:26.000Z</time>
      </trkpt>
      <trkpt lat="42.86487" lon="1.10467">
        <ele>1328</ele>
        <time>2019-08-08T12:48:27.000Z</time>
      </trkpt>
      <trkpt lat="42.86487" lon="1.10471">
        <ele>1329</ele>
        <time>2019-08-08T12:48:28.000Z</time>
      </trkpt>
      <trkpt lat="42.86486" lon="1.10474">
        <ele>1329</ele>
        <time>2019-08-08T12:48:29.000Z</time>
      </trkpt>
      <trkpt lat="42.86485" lon="1.10478">
        <ele>1329</ele>
        <time>2019-08-08T12:48:30.000Z</time>
      </trkpt>
      <trkpt lat="42.86484" lon="1.10482">
        <ele>1330</ele>
        <time>2019-08-08T12:48:31.000Z</time>
      </trkpt>
      <trkpt lat="42.86483" lon="1.10485">
        <ele>1330</ele>
        <time>2019-08-08T12:48:32.000Z</time>
      </trkpt>
      <trkpt lat="42.86482" lon="1.10488">
        <ele>1331</ele>
        <time>2019-08-08T12:48:33.000Z</time>
      </trkpt>
      <trkpt lat="42.86481" lon="1.10491">
        <ele>1331</ele>
        <time>2019-08-08T12:48:34.000Z</time>
      </trkpt>
      <trkpt lat="42.86479" lon="1.10494">
        <ele>1331</ele>
        <time>2019-08-08T12:48:35.000Z</time>
      </trkpt>
      <trkpt lat="42.86477" lon="1.10497">
        <ele>1332</ele>
        <time>2019-08-08T12:48:36.000Z</time>
      </trkpt>
      <trkpt lat="42.86475" lon="1.10499">
        <ele>1333</ele>
        <time>2019-08-08T12:48:37.000Z</time>
      </trkpt>
      <trkpt lat="42.86473" lon="1.10501">
        <ele>1333</ele>
        <time>2019-08-08T12:48:38.000Z</time>
      </trkpt>
      <trkpt lat="42.86471" lon="1.10503">
        <ele>1333</ele>
        <time>2019-08-08T12:48:39.000Z</time>
      </trkpt>
      <trkpt lat="42.86468" lon="1.10504">
        <ele>1333</ele>
        <time>2019-08-08T12:48:40.000Z</time>
      </trkpt>
      <trkpt lat="42.86466" lon="1.10506">
        <ele>1333</ele>
        <time>2019-08-08T12:48:41.000Z</time>
      </trkpt>
      <trkpt lat="42.86463" lon="1.10507">
        <ele>1333</ele>
        <time>2019-08-08T12:48:42.000Z</time>
      </trkpt>
      <trkpt lat="42.8646" lon="1.10508">
        <ele>1333</ele>
        <time>2019-08-08T12:48:43.000Z</time>
      </trkpt>
      <trkpt lat="42.86458" lon="1.10509">
        <ele>1334</ele>
        <time>2019-08-08T12:48:44.000Z</time>
      </trkpt>
      <trkpt lat="42.86455" lon="1.1051">
        <ele>1334</ele>
        <time>2019-08-08T12:48:45.000Z</time>
      </trkpt>
      <trkpt lat="42.86452" lon="1.10511">
        <ele>1334</ele>
        <time>2019-08-08T12:48:46.000Z</time>
      </trkpt>
      <trkpt lat="42.8645" lon="1.10511">
        <ele>1334</ele>
        <time>2019-08-08T12:48:47.000Z</time>
      </trkpt>
      <trkpt lat="42.86447" lon="1.10511">
        <ele>1334</ele>
        <time>2019-08-08T12:48:48.000Z</time>
      </trkpt>
      <trkpt lat="42.86442" lon="1.10512">
        <ele>1334</ele>
        <time>2019-08-08T12:48:49.000Z</time>
      </trkpt>
      <trkpt lat="42.86441" lon="1.10512">
        <ele>1334.4</ele>
        <time>2019-08-08T12:48:50.000Z</time>
      </trkpt>
      <trkpt lat="42.86438" lon="1.10513">
        <ele>1335</ele>
        <time>2019-08-08T12:48:51.000Z</time>
      </trkpt>
      <trkpt lat="42.86435" lon="1.10514">
        <ele>1336</ele>
        <time>2019-08-08T12:48:52.000Z</time>
      </trkpt>
      <trkpt lat="42.86432" lon="1.10515">
        <ele>1336</ele>
        <time>2019-08-08T12:48:53.000Z</time>
      </trkpt>
      <trkpt lat="42.86429" lon="1.10515">
        <ele>1336</ele>
        <time>2019-08-08T12:48:54.000Z</time>
      </trkpt>
      <trkpt lat="42.86426" lon="1.10516">
        <ele>1336</ele>
        <time>2019-08-08T12:48:55.000Z</time>
      </trkpt>
      <trkpt lat="42.86423" lon="1.10516">
        <ele>1336</ele>
        <time>2019-08-08T12:48:56.000Z</time>
      </trkpt>
      <trkpt lat="42.8642" lon="1.10517">
        <ele>1337</ele>
        <time>2019-08-08T12:48:57.000Z</time>
      </trkpt>
      <trkpt lat="42.86417" lon="1.10517">
        <ele>1337</ele>
        <time>2019-08-08T12:48:58.000Z</time>
      </trkpt>
      <trkpt lat="42.86414" lon="1.10518">
        <ele>1338</ele>
        <time>2019-08-08T12:48:59.000Z</time>
      </trkpt>
      <trkpt lat="42.86411" lon="1.10519">
        <ele>1338</ele>
        <time>2019-08-08T12:49:00.000Z</time>
      </trkpt>
      <trkpt lat="42.86408" lon="1.10519">
        <ele>1339</ele>
        <time>2019-08-08T12:49:01.000Z</time>
      </trkpt>
      <trkpt lat="42.86405" lon="1.1052">
        <ele>1339</ele>
        <time>2019-08-08T12:49:02.000Z</time>
      </trkpt>
      <trkpt lat="42.86402" lon="1.1052">
        <ele>1339</ele>
        <time>2019-08-08T12:49:03.000Z</time>
      </trkpt>
      <trkpt lat="42.86399" lon="1.1052">
        <ele>1339</ele>
        <time>2019-08-08T12:49:04.000Z</time>
      </trkpt>
      <trkpt lat="42.86396" lon="1.10521">
        <ele>1339</ele>
        <time>2019-08-08T12:49:05.000Z</time>
      </trkpt>
      <trkpt lat="42.86393" lon="1.10521">
        <ele>1339</ele>
        <time>2019-08-08T12:49:06.000Z</time>
      </trkpt>
      <trkpt lat="42.8639" lon="1.10522">
        <ele>1339</ele>
        <time>2019-08-08T12:49:07.000Z</time>
      </trkpt>
      <trkpt lat="42.86387" lon="1.10522">
        <ele>1339</ele>
        <time>2019-08-08T12:49:08.000Z</time>
      </trkpt>
      <trkpt lat="42.86384" lon="1.10523">
        <ele>1340</ele>
        <time>2019-08-08T12:49:09.000Z</time>
      </trkpt>
      <trkpt lat="42.86381" lon="1.10523">
        <ele>1340</ele>
        <time>2019-08-08T12:49:10.000Z</time>
      </trkpt>
      <trkpt lat="42.86378" lon="1.10524">
        <ele>1341</ele>
        <time>2019-08-08T12:49:11.000Z</time>
      </trkpt>
      <trkpt lat="42.86375" lon="1.10525">
        <ele>1341</ele>
        <time>2019-08-08T12:49:12.000Z</time>
      </trkpt>
      <trkpt lat="42.86372" lon="1.10526">
        <ele>1341</ele>
        <time>2019-08-08T12:49:13.000Z</time>
      </trkpt>
      <trkpt lat="42.86369" lon="1.10527">
        <ele>1342</ele>
        <time>2019-08-08T12:49:14.000Z</time>
      </trkpt>
      <trkpt lat="42.86366" lon="1.10528">
        <ele>1342</ele>
        <time>2019-08-08T12:49:15.000Z</time>
      </trkpt>
      <trkpt lat="42.86363" lon="1.10529">
        <ele>1343</ele>
        <time>2019-08-08T12:49:16.000Z</time>
      </trkpt>
      <trkpt lat="42.8636" lon="1.1053">
        <ele>1343</ele>
        <time>2019-08-08T12:49:17.000Z</time>
      </trkpt>
      <trkpt lat="42.86357" lon="1.1053">
        <ele>1343</ele>
        <time>2019-08-08T12:49:18.000Z</time>
      </trkpt>
      <trkpt lat="42.86354" lon="1.10531">
        <ele>1343</ele>
        <time>2019-08-08T12:49:19.000Z</time>
      </trkpt>
      <trkpt lat="42.86352" lon="1.10532">
        <ele>1343</ele>
        <time>2019-08-08T12:49:20.000Z</time>
      </trkpt>
      <trkpt lat="42.86349" lon="1.10533">
        <ele>1343</ele>
        <time>2019-08-08T12:49:21.000Z</time>
      </trkpt>
      <trkpt lat="42.86346" lon="1.10534">
        <ele>1344</ele>
        <time>2019-08-08T12:49:22.000Z</time>
      </trkpt>
      <trkpt lat="42.86342" lon="1.10536">
        <ele>1344</ele>
        <time>2019-08-08T12:49:23.000Z</time>
      </trkpt>
      <trkpt lat="42.8634" lon="1.10536">
        <ele>1344</ele>
        <time>2019-08-08T12:49:24.000Z</time>
      </trkpt>
      <trkpt lat="42.86337" lon="1.10538">
        <ele>1344</ele>
        <time>2019-08-08T12:49:25.000Z</time>
      </trkpt>
      <trkpt lat="42.86335" lon="1.10539">
        <ele>1344</ele>
        <time>2019-08-08T12:49:26.000Z</time>
      </trkpt>
      <trkpt lat="42.86332" lon="1.10541">
        <ele>1346</ele>
        <time>2019-08-08T12:49:27.000Z</time>
      </trkpt>
      <trkpt lat="42.86329" lon="1.10543">
        <ele>1346</ele>
        <time>2019-08-08T12:49:28.000Z</time>
      </trkpt>
      <trkpt lat="42.86326" lon="1.10544">
        <ele>1346</ele>
        <time>2019-08-08T12:49:29.000Z</time>
      </trkpt>
      <trkpt lat="42.86323" lon="1.10545">
        <ele>1346</ele>
        <time>2019-08-08T12:49:30.000Z</time>
      </trkpt>
      <trkpt lat="42.86321" lon="1.10547">
        <ele>1347</ele>
        <time>2019-08-08T12:49:31.000Z</time>
      </trkpt>
      <trkpt lat="42.86318" lon="1.10548">
        <ele>1347</ele>
        <time>2019-08-08T12:49:32.000Z</time>
      </trkpt>
      <trkpt lat="42.86315" lon="1.1055">
        <ele>1347</ele>
        <time>2019-08-08T12:49:33.000Z</time>
      </trkpt>
      <trkpt lat="42.86312" lon="1.10551">
        <ele>1347</ele>
        <time>2019-08-08T12:49:34.000Z</time>
      </trkpt>
      <trkpt lat="42.8631" lon="1.10553">
        <ele>1347</ele>
        <time>2019-08-08T12:49:35.000Z</time>
      </trkpt>
      <trkpt lat="42.86307" lon="1.10554">
        <ele>1348</ele>
        <time>2019-08-08T12:49:36.000Z</time>
      </trkpt>
      <trkpt lat="42.86304" lon="1.10555">
        <ele>1348</ele>
        <time>2019-08-08T12:49:37.000Z</time>
      </trkpt>
      <trkpt lat="42.86301" lon="1.10557">
        <ele>1348</ele>
        <time>2019-08-08T12:49:38.000Z</time>
      </trkpt>
      <trkpt lat="42.86297" lon="1.10559">
        <ele>1348</ele>
        <time>2019-08-08T12:49:39.000Z</time>
      </trkpt>
      <trkpt lat="42.86296" lon="1.10559">
        <ele>1348</ele>
        <time>2019-08-08T12:49:40.000Z</time>
      </trkpt>
      <trkpt lat="42.86293" lon="1.10561">
        <ele>1349</ele>
        <time>2019-08-08T12:49:41.000Z</time>
      </trkpt>
      <trkpt lat="42.8629" lon="1.10562">
        <ele>1349</ele>
        <time>2019-08-08T12:49:42.000Z</time>
      </trkpt>
      <trkpt lat="42.86288" lon="1.10564">
        <ele>1349</ele>
        <time>2019-08-08T12:49:43.000Z</time>
      </trkpt>
      <trkpt lat="42.86285" lon="1.10565">
        <ele>1349</ele>
        <time>2019-08-08T12:49:44.000Z</time>
      </trkpt>
      <trkpt lat="42.86282" lon="1.10566">
        <ele>1350</ele>
        <time>2019-08-08T12:49:45.000Z</time>
      </trkpt>
      <trkpt lat="42.8628" lon="1.10568">
        <ele>1350</ele>
        <time>2019-08-08T12:49:46.000Z</time>
      </trkpt>
      <trkpt lat="42.86277" lon="1.10569">
        <ele>1350</ele>
        <time>2019-08-08T12:49:47.000Z</time>
      </trkpt>
      <trkpt lat="42.86274" lon="1.10571">
        <ele>1350</ele>
        <time>2019-08-08T12:49:48.000Z</time>
      </trkpt>
      <trkpt lat="42.86271" lon="1.10572">
        <ele>1351</ele>
        <time>2019-08-08T12:49:49.000Z</time>
      </trkpt>
      <trkpt lat="42.86269" lon="1.10573">
        <ele>1352</ele>
        <time>2019-08-08T12:49:50.000Z</time>
      </trkpt>
      <trkpt lat="42.86266" lon="1.10575">
        <ele>1352</ele>
        <time>2019-08-08T12:49:51.000Z</time>
      </trkpt>
      <trkpt lat="42.86263" lon="1.10576">
        <ele>1352</ele>
        <time>2019-08-08T12:49:52.000Z</time>
      </trkpt>
      <trkpt lat="42.86261" lon="1.10578">
        <ele>1353</ele>
        <time>2019-08-08T12:49:53.000Z</time>
      </trkpt>
      <trkpt lat="42.86258" lon="1.10579">
        <ele>1353</ele>
        <time>2019-08-08T12:49:54.000Z</time>
      </trkpt>
      <trkpt lat="42.86256" lon="1.1058">
        <ele>1353</ele>
        <time>2019-08-08T12:49:55.000Z</time>
      </trkpt>
      <trkpt lat="42.86253" lon="1.10581">
        <ele>1353</ele>
        <time>2019-08-08T12:49:56.000Z</time>
      </trkpt>
      <trkpt lat="42.86251" lon="1.10582">
        <ele>1354</ele>
        <time>2019-08-08T12:49:57.000Z</time>
      </trkpt>
      <trkpt lat="42.86248" lon="1.10584">
        <ele>1354</ele>
        <time>2019-08-08T12:49:58.000Z</time>
      </trkpt>
      <trkpt lat="42.86245" lon="1.10585">
        <ele>1354</ele>
        <time>2019-08-08T12:49:59.000Z</time>
      </trkpt>
      <trkpt lat="42.86243" lon="1.10587">
        <ele>1354</ele>
        <time>2019-08-08T12:50:00.000Z</time>
      </trkpt>
      <trkpt lat="42.8624" lon="1.10589">
        <ele>1355</ele>
        <time>2019-08-08T12:50:01.000Z</time>
      </trkpt>
      <trkpt lat="42.86237" lon="1.1059">
        <ele>1355</ele>
        <time>2019-08-08T12:50:02.000Z</time>
      </trkpt>
      <trkpt lat="42.86235" lon="1.10592">
        <ele>1356</ele>
        <time>2019-08-08T12:50:03.000Z</time>
      </trkpt>
      <trkpt lat="42.86232" lon="1.10593">
        <ele>1356</ele>
        <time>2019-08-08T12:50:04.000Z</time>
      </trkpt>
      <trkpt lat="42.8623" lon="1.10595">
        <ele>1357</ele>
        <time>2019-08-08T12:50:05.000Z</time>
      </trkpt>
      <trkpt lat="42.86227" lon="1.10596">
        <ele>1357</ele>
        <time>2019-08-08T12:50:06.000Z</time>
      </trkpt>
      <trkpt lat="42.86224" lon="1.10597">
        <ele>1357</ele>
        <time>2019-08-08T12:50:07.000Z</time>
      </trkpt>
      <trkpt lat="42.86222" lon="1.10599">
        <ele>1357</ele>
        <time>2019-08-08T12:50:08.000Z</time>
      </trkpt>
      <trkpt lat="42.86219" lon="1.10601">
        <ele>1357</ele>
        <time>2019-08-08T12:50:09.000Z</time>
      </trkpt>
      <trkpt lat="42.86217" lon="1.10602">
        <ele>1357</ele>
        <time>2019-08-08T12:50:10.000Z</time>
      </trkpt>
      <trkpt lat="42.86214" lon="1.10604">
        <ele>1358</ele>
        <time>2019-08-08T12:50:11.000Z</time>
      </trkpt>
      <trkpt lat="42.86212" lon="1.10607">
        <ele>1358</ele>
        <time>2019-08-08T12:50:12.000Z</time>
      </trkpt>
      <trkpt lat="42.8621" lon="1.10609">
        <ele>1358</ele>
        <time>2019-08-08T12:50:13.000Z</time>
      </trkpt>
      <trkpt lat="42.86207" lon="1.1061">
        <ele>1358</ele>
        <time>2019-08-08T12:50:14.000Z</time>
      </trkpt>
      <trkpt lat="42.86204" lon="1.10611">
        <ele>1359</ele>
        <time>2019-08-08T12:50:15.000Z</time>
      </trkpt>
      <trkpt lat="42.86202" lon="1.10613">
        <ele>1359</ele>
        <time>2019-08-08T12:50:16.000Z</time>
      </trkpt>
      <trkpt lat="42.86199" lon="1.10615">
        <ele>1359</ele>
        <time>2019-08-08T12:50:17.000Z</time>
      </trkpt>
      <trkpt lat="42.86196" lon="1.10616">
        <ele>1359</ele>
        <time>2019-08-08T12:50:18.000Z</time>
      </trkpt>
      <trkpt lat="42.86194" lon="1.10618">
        <ele>1360</ele>
        <time>2019-08-08T12:50:19.000Z</time>
      </trkpt>
      <trkpt lat="42.86191" lon="1.1062">
        <ele>1360</ele>
        <time>2019-08-08T12:50:20.000Z</time>
      </trkpt>
      <trkpt lat="42.86188" lon="1.10621">
        <ele>1361</ele>
        <time>2019-08-08T12:50:21.000Z</time>
      </trkpt>
      <trkpt lat="42.86186" lon="1.10623">
        <ele>1361</ele>
        <time>2019-08-08T12:50:22.000Z</time>
      </trkpt>
      <trkpt lat="42.86183" lon="1.10624">
        <ele>1361</ele>
        <time>2019-08-08T12:50:23.000Z</time>
      </trkpt>
      <trkpt lat="42.8618" lon="1.10625">
        <ele>1361</ele>
        <time>2019-08-08T12:50:24.000Z</time>
      </trkpt>
      <trkpt lat="42.86177" lon="1.10625">
        <ele>1361</ele>
        <time>2019-08-08T12:50:25.000Z</time>
      </trkpt>
      <trkpt lat="42.86174" lon="1.10626">
        <ele>1361</ele>
        <time>2019-08-08T12:50:26.000Z</time>
      </trkpt>
      <trkpt lat="42.86171" lon="1.10626">
        <ele>1362</ele>
        <time>2019-08-08T12:50:27.000Z</time>
      </trkpt>
      <trkpt lat="42.86168" lon="1.10627">
        <ele>1362</ele>
        <time>2019-08-08T12:50:28.000Z</time>
      </trkpt>
      <trkpt lat="42.86165" lon="1.10627">
        <ele>1363</ele>
        <time>2019-08-08T12:50:29.000Z</time>
      </trkpt>
      <trkpt lat="42.86161" lon="1.10626">
        <ele>1363</ele>
        <time>2019-08-08T12:50:30.000Z</time>
      </trkpt>
      <trkpt lat="42.86158" lon="1.10626">
        <ele>1363</ele>
        <time>2019-08-08T12:50:31.000Z</time>
      </trkpt>
      <trkpt lat="42.86155" lon="1.10626">
        <ele>1363</ele>
        <time>2019-08-08T12:50:32.000Z</time>
      </trkpt>
      <trkpt lat="42.86152" lon="1.10625">
        <ele>1364</ele>
        <time>2019-08-08T12:50:33.000Z</time>
      </trkpt>
      <trkpt lat="42.86149" lon="1.10624">
        <ele>1364</ele>
        <time>2019-08-08T12:50:34.000Z</time>
      </trkpt>
      <trkpt lat="42.86146" lon="1.10624">
        <ele>1364</ele>
        <time>2019-08-08T12:50:35.000Z</time>
      </trkpt>
      <trkpt lat="42.86143" lon="1.10623">
        <ele>1364</ele>
        <time>2019-08-08T12:50:36.000Z</time>
      </trkpt>
      <trkpt lat="42.8614" lon="1.10622">
        <ele>1365</ele>
        <time>2019-08-08T12:50:37.000Z</time>
      </trkpt>
      <trkpt lat="42.86138" lon="1.10621">
        <ele>1365</ele>
        <time>2019-08-08T12:50:38.000Z</time>
      </trkpt>
      <trkpt lat="42.86135" lon="1.1062">
        <ele>1366</ele>
        <time>2019-08-08T12:50:39.000Z</time>
      </trkpt>
      <trkpt lat="42.86132" lon="1.10619">
        <ele>1366</ele>
        <time>2019-08-08T12:50:40.000Z</time>
      </trkpt>
      <trkpt lat="42.86129" lon="1.10619">
        <ele>1366</ele>
        <time>2019-08-08T12:50:41.000Z</time>
      </trkpt>
      <trkpt lat="42.86126" lon="1.10618">
        <ele>1366</ele>
        <time>2019-08-08T12:50:42.000Z</time>
      </trkpt>
      <trkpt lat="42.86123" lon="1.10617">
        <ele>1367</ele>
        <time>2019-08-08T12:50:43.000Z</time>
      </trkpt>
      <trkpt lat="42.8612" lon="1.10616">
        <ele>1367</ele>
        <time>2019-08-08T12:50:44.000Z</time>
      </trkpt>
      <trkpt lat="42.86117" lon="1.10615">
        <ele>1367</ele>
        <time>2019-08-08T12:50:45.000Z</time>
      </trkpt>
      <trkpt lat="42.86114" lon="1.10615">
        <ele>1367</ele>
        <time>2019-08-08T12:50:46.000Z</time>
      </trkpt>
      <trkpt lat="42.86111" lon="1.10614">
        <ele>1367</ele>
        <time>2019-08-08T12:50:47.000Z</time>
      </trkpt>
      <trkpt lat="42.86108" lon="1.10614">
        <ele>1368</ele>
        <time>2019-08-08T12:50:48.000Z</time>
      </trkpt>
      <trkpt lat="42.86105" lon="1.10613">
        <ele>1368</ele>
        <time>2019-08-08T12:50:49.000Z</time>
      </trkpt>
      <trkpt lat="42.86102" lon="1.10612">
        <ele>1368</ele>
        <time>2019-08-08T12:50:50.000Z</time>
      </trkpt>
      <trkpt lat="42.86099" lon="1.1061">
        <ele>1368</ele>
        <time>2019-08-08T12:50:51.000Z</time>
      </trkpt>
      <trkpt lat="42.86096" lon="1.10608">
        <ele>1369</ele>
        <time>2019-08-08T12:50:52.000Z</time>
      </trkpt>
      <trkpt lat="42.86094" lon="1.10606">
        <ele>1369</ele>
        <time>2019-08-08T12:50:53.000Z</time>
      </trkpt>
      <trkpt lat="42.86091" lon="1.10604">
        <ele>1369</ele>
        <time>2019-08-08T12:50:54.000Z</time>
      </trkpt>
      <trkpt lat="42.86088" lon="1.10602">
        <ele>1369</ele>
        <time>2019-08-08T12:50:55.000Z</time>
      </trkpt>
      <trkpt lat="42.86086" lon="1.106">
        <ele>1370</ele>
        <time>2019-08-08T12:50:56.000Z</time>
      </trkpt>
      <trkpt lat="42.86083" lon="1.10598">
        <ele>1370</ele>
        <time>2019-08-08T12:50:57.000Z</time>
      </trkpt>
      <trkpt lat="42.8608" lon="1.10596">
        <ele>1370</ele>
        <time>2019-08-08T12:50:58.000Z</time>
      </trkpt>
      <trkpt lat="42.86078" lon="1.10594">
        <ele>1370</ele>
        <time>2019-08-08T12:50:59.000Z</time>
      </trkpt>
      <trkpt lat="42.86076" lon="1.10591">
        <ele>1370</ele>
        <time>2019-08-08T12:51:00.000Z</time>
      </trkpt>
      <trkpt lat="42.86073" lon="1.10589">
        <ele>1371</ele>
        <time>2019-08-08T12:51:01.000Z</time>
      </trkpt>
      <trkpt lat="42.8607" lon="1.10585">
        <ele>1371</ele>
        <time>2019-08-08T12:51:02.000Z</time>
      </trkpt>
      <trkpt lat="42.86068" lon="1.10584">
        <ele>1372</ele>
        <time>2019-08-08T12:51:03.000Z</time>
      </trkpt>
      <trkpt lat="42.86066" lon="1.10581">
        <ele>1372</ele>
        <time>2019-08-08T12:51:04.000Z</time>
      </trkpt>
      <trkpt lat="42.86064" lon="1.10578">
        <ele>1372</ele>
        <time>2019-08-08T12:51:05.000Z</time>
      </trkpt>
      <trkpt lat="42.86061" lon="1.10575">
        <ele>1372</ele>
        <time>2019-08-08T12:51:06.000Z</time>
      </trkpt>
      <trkpt lat="42.86059" lon="1.10572">
        <ele>1372</ele>
        <time>2019-08-08T12:51:07.000Z</time>
      </trkpt>
      <trkpt lat="42.86057" lon="1.10568">
        <ele>1372</ele>
        <time>2019-08-08T12:51:08.000Z</time>
      </trkpt>
      <trkpt lat="42.86054" lon="1.10565">
        <ele>1372</ele>
        <time>2019-08-08T12:51:09.000Z</time>
      </trkpt>
      <trkpt lat="42.86051" lon="1.10561">
        <ele>1372</ele>
        <time>2019-08-08T12:51:10.000Z</time>
      </trkpt>
      <trkpt lat="42.86049" lon="1.10557">
        <ele>1372</ele>
        <time>2019-08-08T12:51:11.000Z</time>
      </trkpt>
      <trkpt lat="42.86047" lon="1.10553">
        <ele>1372</ele>
        <time>2019-08-08T12:51:12.000Z</time>
      </trkpt>
      <trkpt lat="42.86045" lon="1.10549">
        <ele>1372</ele>
        <time>2019-08-08T12:51:13.000Z</time>
      </trkpt>
      <trkpt lat="42.86043" lon="1.10545">
        <ele>1372</ele>
        <time>2019-08-08T12:51:14.000Z</time>
      </trkpt>
      <trkpt lat="42.86041" lon="1.10541">
        <ele>1374</ele>
        <time>2019-08-08T12:51:15.000Z</time>
      </trkpt>
      <trkpt lat="42.86039" lon="1.10538">
        <ele>1374</ele>
        <time>2019-08-08T12:51:16.000Z</time>
      </trkpt>
      <trkpt lat="42.86037" lon="1.10534">
        <ele>1374</ele>
        <time>2019-08-08T12:51:17.000Z</time>
      </trkpt>
      <trkpt lat="42.86035" lon="1.10529">
        <ele>1375</ele>
        <time>2019-08-08T12:51:18.000Z</time>
      </trkpt>
      <trkpt lat="42.86033" lon="1.10525">
        <ele>1375</ele>
        <time>2019-08-08T12:51:19.000Z</time>
      </trkpt>
      <trkpt lat="42.86031" lon="1.10521">
        <ele>1375</ele>
        <time>2019-08-08T12:51:20.000Z</time>
      </trkpt>
      <trkpt lat="42.86029" lon="1.10517">
        <ele>1375</ele>
        <time>2019-08-08T12:51:21.000Z</time>
      </trkpt>
      <trkpt lat="42.86027" lon="1.10514">
        <ele>1375</ele>
        <time>2019-08-08T12:51:22.000Z</time>
      </trkpt>
      <trkpt lat="42.86024" lon="1.1051">
        <ele>1375</ele>
        <time>2019-08-08T12:51:23.000Z</time>
      </trkpt>
      <trkpt lat="42.86022" lon="1.10507">
        <ele>1376</ele>
        <time>2019-08-08T12:51:24.000Z</time>
      </trkpt>
      <trkpt lat="42.8602" lon="1.10503">
        <ele>1376</ele>
        <time>2019-08-08T12:51:25.000Z</time>
      </trkpt>
      <trkpt lat="42.86018" lon="1.10499">
        <ele>1377</ele>
        <time>2019-08-08T12:51:26.000Z</time>
      </trkpt>
      <trkpt lat="42.86016" lon="1.10495">
        <ele>1377</ele>
        <time>2019-08-08T12:51:27.000Z</time>
      </trkpt>
      <trkpt lat="42.86014" lon="1.10492">
        <ele>1377</ele>
        <time>2019-08-08T12:51:28.000Z</time>
      </trkpt>
      <trkpt lat="42.86011" lon="1.10489">
        <ele>1377</ele>
        <time>2019-08-08T12:51:29.000Z</time>
      </trkpt>
      <trkpt lat="42.86009" lon="1.10486">
        <ele>1378</ele>
        <time>2019-08-08T12:51:30.000Z</time>
      </trkpt>
      <trkpt lat="42.86006" lon="1.10484">
        <ele>1378</ele>
        <time>2019-08-08T12:51:31.000Z</time>
      </trkpt>
      <trkpt lat="42.86004" lon="1.10481">
        <ele>1378</ele>
        <time>2019-08-08T12:51:32.000Z</time>
      </trkpt>
      <trkpt lat="42.86001" lon="1.10478">
        <ele>1378</ele>
        <time>2019-08-08T12:51:33.000Z</time>
      </trkpt>
      <trkpt lat="42.85998" lon="1.10476">
        <ele>1378</ele>
        <time>2019-08-08T12:51:34.000Z</time>
      </trkpt>
      <trkpt lat="42.85995" lon="1.10474">
        <ele>1378</ele>
        <time>2019-08-08T12:51:35.000Z</time>
      </trkpt>
      <trkpt lat="42.8599" lon="1.10471">
        <ele>1378</ele>
        <time>2019-08-08T12:51:36.000Z</time>
      </trkpt>
      <trkpt lat="42.85989" lon="1.1047">
        <ele>1379</ele>
        <time>2019-08-08T12:51:37.000Z</time>
      </trkpt>
      <trkpt lat="42.85986" lon="1.10468">
        <ele>1379</ele>
        <time>2019-08-08T12:51:38.000Z</time>
      </trkpt>
      <trkpt lat="42.85982" lon="1.10467">
        <ele>1379</ele>
        <time>2019-08-08T12:51:39.000Z</time>
      </trkpt>
      <trkpt lat="42.85979" lon="1.10466">
        <ele>1379</ele>
        <time>2019-08-08T12:51:40.000Z</time>
      </trkpt>
      <trkpt lat="42.85975" lon="1.10466">
        <ele>1379</ele>
        <time>2019-08-08T12:51:41.000Z</time>
      </trkpt>
      <trkpt lat="42.85972" lon="1.10465">
        <ele>1379</ele>
        <time>2019-08-08T12:51:42.000Z</time>
      </trkpt>
      <trkpt lat="42.85969" lon="1.10466">
        <ele>1380</ele>
        <time>2019-08-08T12:51:43.000Z</time>
      </trkpt>
      <trkpt lat="42.85965" lon="1.10466">
        <ele>1380</ele>
        <time>2019-08-08T12:51:44.000Z</time>
      </trkpt>
      <trkpt lat="42.85962" lon="1.10468">
        <ele>1380</ele>
        <time>2019-08-08T12:51:45.000Z</time>
      </trkpt>
      <trkpt lat="42.85959" lon="1.10469">
        <ele>1380</ele>
        <time>2019-08-08T12:51:46.000Z</time>
      </trkpt>
      <trkpt lat="42.85955" lon="1.1047">
        <ele>1381</ele>
        <time>2019-08-08T12:51:47.000Z</time>
      </trkpt>
      <trkpt lat="42.85952" lon="1.10472">
        <ele>1381</ele>
        <time>2019-08-08T12:51:48.000Z</time>
      </trkpt>
      <trkpt lat="42.85949" lon="1.10473">
        <ele>1381</ele>
        <time>2019-08-08T12:51:49.000Z</time>
      </trkpt>
      <trkpt lat="42.85945" lon="1.10475">
        <ele>1381</ele>
        <time>2019-08-08T12:51:50.000Z</time>
      </trkpt>
      <trkpt lat="42.85942" lon="1.10476">
        <ele>1381</ele>
        <time>2019-08-08T12:51:51.000Z</time>
      </trkpt>
      <trkpt lat="42.85939" lon="1.10478">
        <ele>1382</ele>
        <time>2019-08-08T12:51:52.000Z</time>
      </trkpt>
      <trkpt lat="42.85936" lon="1.1048">
        <ele>1382</ele>
        <time>2019-08-08T12:51:53.000Z</time>
      </trkpt>
      <trkpt lat="42.85932" lon="1.10482">
        <ele>1383</ele>
        <time>2019-08-08T12:51:54.000Z</time>
      </trkpt>
      <trkpt lat="42.85929" lon="1.10484">
        <ele>1383</ele>
        <time>2019-08-08T12:51:55.000Z</time>
      </trkpt>
      <trkpt lat="42.85926" lon="1.10486">
        <ele>1383</ele>
        <time>2019-08-08T12:51:56.000Z</time>
      </trkpt>
      <trkpt lat="42.85922" lon="1.10487">
        <ele>1383</ele>
        <time>2019-08-08T12:51:57.000Z</time>
      </trkpt>
      <trkpt lat="42.85919" lon="1.10489">
        <ele>1384</ele>
        <time>2019-08-08T12:51:58.000Z</time>
      </trkpt>
      <trkpt lat="42.85916" lon="1.10491">
        <ele>1384</ele>
        <time>2019-08-08T12:51:59.000Z</time>
      </trkpt>
      <trkpt lat="42.85913" lon="1.10492">
        <ele>1384</ele>
        <time>2019-08-08T12:52:00.000Z</time>
      </trkpt>
      <trkpt lat="42.85909" lon="1.10494">
        <ele>1384</ele>
        <time>2019-08-08T12:52:01.000Z</time>
      </trkpt>
      <trkpt lat="42.85906" lon="1.10496">
        <ele>1384</ele>
        <time>2019-08-08T12:52:02.000Z</time>
      </trkpt>
      <trkpt lat="42.85903" lon="1.10497">
        <ele>1384</ele>
        <time>2019-08-08T12:52:03.000Z</time>
      </trkpt>
      <trkpt lat="42.85899" lon="1.10497">
        <ele>1384</ele>
        <time>2019-08-08T12:52:04.000Z</time>
      </trkpt>
      <trkpt lat="42.85896" lon="1.10498">
        <ele>1384</ele>
        <time>2019-08-08T12:52:05.000Z</time>
      </trkpt>
      <trkpt lat="42.85893" lon="1.10499">
        <ele>1384</ele>
        <time>2019-08-08T12:52:06.000Z</time>
      </trkpt>
      <trkpt lat="42.8589" lon="1.105">
        <ele>1384</ele>
        <time>2019-08-08T12:52:07.000Z</time>
      </trkpt>
      <trkpt lat="42.85887" lon="1.10501">
        <ele>1384</ele>
        <time>2019-08-08T12:52:08.000Z</time>
      </trkpt>
      <trkpt lat="42.85884" lon="1.10502">
        <ele>1384</ele>
        <time>2019-08-08T12:52:09.000Z</time>
      </trkpt>
      <trkpt lat="42.85882" lon="1.10503">
        <ele>1384</ele>
        <time>2019-08-08T12:52:10.000Z</time>
      </trkpt>
      <trkpt lat="42.8588" lon="1.10505">
        <ele>1384</ele>
        <time>2019-08-08T12:52:11.000Z</time>
      </trkpt>
      <trkpt lat="42.85878" lon="1.10506">
        <ele>1385</ele>
        <time>2019-08-08T12:52:12.000Z</time>
      </trkpt>
      <trkpt lat="42.85876" lon="1.10508">
        <ele>1385</ele>
        <time>2019-08-08T12:52:13.000Z</time>
      </trkpt>
      <trkpt lat="42.85874" lon="1.10509">
        <ele>1385</ele>
        <time>2019-08-08T12:52:14.000Z</time>
      </trkpt>
      <trkpt lat="42.85872" lon="1.1051">
        <ele>1385</ele>
        <time>2019-08-08T12:52:15.000Z</time>
      </trkpt>
      <trkpt lat="42.85871" lon="1.1051">
        <ele>1385</ele>
        <time>2019-08-08T12:52:16.000Z</time>
      </trkpt>
      <trkpt lat="42.85871" lon="1.1051">
        <ele>1386</ele>
        <time>2019-08-08T12:52:17.000Z</time>
      </trkpt>
      <trkpt lat="42.85867" lon="1.1051">
        <ele>1386</ele>
        <time>2019-08-08T12:52:18.000Z</time>
      </trkpt>
      <trkpt lat="42.85865" lon="1.1051">
        <ele>1386</ele>
        <time>2019-08-08T12:52:19.000Z</time>
      </trkpt>
      <trkpt lat="42.85863" lon="1.1051">
        <ele>1386</ele>
        <time>2019-08-08T12:52:20.000Z</time>
      </trkpt>
      <trkpt lat="42.85862" lon="1.1051">
        <ele>1386</ele>
        <time>2019-08-08T12:52:21.000Z</time>
      </trkpt>
      <trkpt lat="42.8586" lon="1.10509">
        <ele>1386</ele>
        <time>2019-08-08T12:52:22.000Z</time>
      </trkpt>
      <trkpt lat="42.85858" lon="1.10509">
        <ele>1385</ele>
        <time>2019-08-08T12:52:23.000Z</time>
      </trkpt>
      <trkpt lat="42.85856" lon="1.1051">
        <ele>1385</ele>
        <time>2019-08-08T12:52:24.000Z</time>
      </trkpt>
      <trkpt lat="42.85856" lon="1.1051">
        <ele>1384</ele>
        <time>2019-08-08T12:52:25.000Z</time>
      </trkpt>
      <trkpt lat="42.85853" lon="1.10509">
        <ele>1384</ele>
        <time>2019-08-08T12:52:26.000Z</time>
      </trkpt>
      <trkpt lat="42.85853" lon="1.10509">
        <ele>1385</ele>
        <time>2019-08-08T12:52:27.000Z</time>
      </trkpt>
      <trkpt lat="42.85851" lon="1.10508">
        <ele>1385</ele>
        <time>2019-08-08T12:52:28.000Z</time>
      </trkpt>
      <trkpt lat="42.85851" lon="1.10508">
        <ele>1385</ele>
        <time>2019-08-08T12:52:29.000Z</time>
      </trkpt>
      <trkpt lat="42.85853" lon="1.10506">
        <ele>1385</ele>
        <time>2019-08-08T12:52:30.000Z</time>
      </trkpt>
      <trkpt lat="42.85855" lon="1.10507">
        <ele>1386</ele>
        <time>2019-08-08T12:52:31.000Z</time>
      </trkpt>
      <trkpt lat="42.85858" lon="1.10508">
        <ele>1385</ele>
        <time>2019-08-08T12:52:32.000Z</time>
      </trkpt>
      <trkpt lat="42.8586" lon="1.10508">
        <ele>1385</ele>
        <time>2019-08-08T12:52:33.000Z</time>
      </trkpt>
      <trkpt lat="42.85863" lon="1.10508">
        <ele>1385</ele>
        <time>2019-08-08T12:52:34.000Z</time>
      </trkpt>
      <trkpt lat="42.85865" lon="1.1051">
        <ele>1388</ele>
        <time>2019-08-08T12:54:17.000Z</time>
      </trkpt>
      <trkpt lat="42.85865" lon="1.1051">
        <ele>1388</ele>
        <time>2019-08-08T12:54:18.000Z</time>
      </trkpt>
      <trkpt lat="42.85865" lon="1.1051">
        <ele>1388</ele>
        <time>2019-08-08T12:54:19.000Z</time>
      </trkpt>
      <trkpt lat="42.85864" lon="1.10509">
        <ele>1388</ele>
        <time>2019-08-08T12:54:20.000Z</time>
      </trkpt>
      <trkpt lat="42.85864" lon="1.10509">
        <ele>1388</ele>
        <time>2019-08-08T12:54:21.000Z</time>
      </trkpt>
      <trkpt lat="42.85862" lon="1.10508">
        <ele>1388</ele>
        <time>2019-08-08T12:54:22.000Z</time>
      </trkpt>
      <trkpt lat="42.85862" lon="1.10508">
        <ele>1388</ele>
        <time>2019-08-08T12:54:23.000Z</time>
      </trkpt>
      <trkpt lat="42.85859" lon="1.10506">
        <ele>1388</ele>
        <time>2019-08-08T12:54:24.000Z</time>
      </trkpt>
      <trkpt lat="42.85857" lon="1.10505">
        <ele>1388</ele>
        <time>2019-08-08T12:54:25.000Z</time>
      </trkpt>
      <trkpt lat="42.85855" lon="1.10505">
        <ele>1388</ele>
        <time>2019-08-08T12:54:26.000Z</time>
      </trkpt>
      <trkpt lat="42.85852" lon="1.10505">
        <ele>1388</ele>
        <time>2019-08-08T12:54:27.000Z</time>
      </trkpt>
      <trkpt lat="42.85849" lon="1.10506">
        <ele>1388</ele>
        <time>2019-08-08T12:54:28.000Z</time>
      </trkpt>
      <trkpt lat="42.85846" lon="1.10506">
        <ele>1388</ele>
        <time>2019-08-08T12:54:29.000Z</time>
      </trkpt>
      <trkpt lat="42.85842" lon="1.10507">
        <ele>1388</ele>
        <time>2019-08-08T12:54:30.000Z</time>
      </trkpt>
      <trkpt lat="42.85839" lon="1.10508">
        <ele>1388</ele>
        <time>2019-08-08T12:54:31.000Z</time>
      </trkpt>
      <trkpt lat="42.85835" lon="1.1051">
        <ele>1388</ele>
        <time>2019-08-08T12:54:32.000Z</time>
      </trkpt>
      <trkpt lat="42.85831" lon="1.10512">
        <ele>1388</ele>
        <time>2019-08-08T12:54:33.000Z</time>
      </trkpt>
      <trkpt lat="42.85827" lon="1.10515">
        <ele>1387</ele>
        <time>2019-08-08T12:54:34.000Z</time>
      </trkpt>
      <trkpt lat="42.85822" lon="1.10518">
        <ele>1387</ele>
        <time>2019-08-08T12:54:35.000Z</time>
      </trkpt>
      <trkpt lat="42.85818" lon="1.1052">
        <ele>1387</ele>
        <time>2019-08-08T12:54:36.000Z</time>
      </trkpt>
      <trkpt lat="42.85813" lon="1.10523">
        <ele>1387</ele>
        <time>2019-08-08T12:54:37.000Z</time>
      </trkpt>
      <trkpt lat="42.85808" lon="1.10526">
        <ele>1387</ele>
        <time>2019-08-08T12:54:38.000Z</time>
      </trkpt>
      <trkpt lat="42.85802" lon="1.10529">
        <ele>1387</ele>
        <time>2019-08-08T12:54:39.000Z</time>
      </trkpt>
      <trkpt lat="42.85797" lon="1.10531">
        <ele>1387</ele>
        <time>2019-08-08T12:54:40.000Z</time>
      </trkpt>
      <trkpt lat="42.85791" lon="1.10533">
        <ele>1385</ele>
        <time>2019-08-08T12:54:41.000Z</time>
      </trkpt>
      <trkpt lat="42.85785" lon="1.10535">
        <ele>1385</ele>
        <time>2019-08-08T12:54:42.000Z</time>
      </trkpt>
      <trkpt lat="42.85778" lon="1.10537">
        <ele>1385</ele>
        <time>2019-08-08T12:54:43.000Z</time>
      </trkpt>
      <trkpt lat="42.85771" lon="1.10538">
        <ele>1385</ele>
        <time>2019-08-08T12:54:44.000Z</time>
      </trkpt>
      <trkpt lat="42.85765" lon="1.10538">
        <ele>1385</ele>
        <time>2019-08-08T12:54:45.000Z</time>
      </trkpt>
      <trkpt lat="42.85753" lon="1.10539">
        <ele>1384</ele>
        <time>2019-08-08T12:54:46.000Z</time>
      </trkpt>
      <trkpt lat="42.85749" lon="1.10539">
        <ele>1384</ele>
        <time>2019-08-08T12:54:47.000Z</time>
      </trkpt>
      <trkpt lat="42.85741" lon="1.1054">
        <ele>1384</ele>
        <time>2019-08-08T12:54:48.000Z</time>
      </trkpt>
      <trkpt lat="42.85733" lon="1.1054">
        <ele>1381</ele>
        <time>2019-08-08T12:54:49.000Z</time>
      </trkpt>
      <trkpt lat="42.85724" lon="1.1054">
        <ele>1381</ele>
        <time>2019-08-08T12:54:50.000Z</time>
      </trkpt>
      <trkpt lat="42.85715" lon="1.10539">
        <ele>1380</ele>
        <time>2019-08-08T12:54:51.000Z</time>
      </trkpt>
      <trkpt lat="42.85704" lon="1.10538">
        <ele>1380</ele>
        <time>2019-08-08T12:54:52.000Z</time>
      </trkpt>
      <trkpt lat="42.857" lon="1.10538">
        <ele>1379.6</ele>
        <time>2019-08-08T12:54:53.000Z</time>
      </trkpt>
      <trkpt lat="42.85695" lon="1.10538">
        <ele>1379</ele>
        <time>2019-08-08T12:54:54.000Z</time>
      </trkpt>
      <trkpt lat="42.8569" lon="1.10538">
        <ele>1379</ele>
        <time>2019-08-08T12:54:55.000Z</time>
      </trkpt>
      <trkpt lat="42.85686" lon="1.10539">
        <ele>1378</ele>
        <time>2019-08-08T12:54:56.000Z</time>
      </trkpt>
      <trkpt lat="42.85681" lon="1.10539">
        <ele>1378</ele>
        <time>2019-08-08T12:54:57.000Z</time>
      </trkpt>
      <trkpt lat="42.85676" lon="1.10539">
        <ele>1377</ele>
        <time>2019-08-08T12:54:58.000Z</time>
      </trkpt>
      <trkpt lat="42.85671" lon="1.10539">
        <ele>1377</ele>
        <time>2019-08-08T12:54:59.000Z</time>
      </trkpt>
      <trkpt lat="42.85666" lon="1.1054">
        <ele>1377</ele>
        <time>2019-08-08T12:55:00.000Z</time>
      </trkpt>
      <trkpt lat="42.8566" lon="1.10541">
        <ele>1376</ele>
        <time>2019-08-08T12:55:01.000Z</time>
      </trkpt>
      <trkpt lat="42.85654" lon="1.10542">
        <ele>1376</ele>
        <time>2019-08-08T12:55:02.000Z</time>
      </trkpt>
      <trkpt lat="42.85648" lon="1.10542">
        <ele>1375</ele>
        <time>2019-08-08T12:55:03.000Z</time>
      </trkpt>
      <trkpt lat="42.85641" lon="1.10544">
        <ele>1375</ele>
        <time>2019-08-08T12:55:04.000Z</time>
      </trkpt>
      <trkpt lat="42.85635" lon="1.10547">
        <ele>1374</ele>
        <time>2019-08-08T12:55:05.000Z</time>
      </trkpt>
      <trkpt lat="42.85628" lon="1.10551">
        <ele>1374</ele>
        <time>2019-08-08T12:55:06.000Z</time>
      </trkpt>
      <trkpt lat="42.85622" lon="1.10557">
        <ele>1373</ele>
        <time>2019-08-08T12:55:07.000Z</time>
      </trkpt>
      <trkpt lat="42.85617" lon="1.10565">
        <ele>1373</ele>
        <time>2019-08-08T12:55:08.000Z</time>
      </trkpt>
      <trkpt lat="42.85613" lon="1.10575">
        <ele>1372</ele>
        <time>2019-08-08T12:55:09.000Z</time>
      </trkpt>
      <trkpt lat="42.8561" lon="1.10586">
        <ele>1372</ele>
        <time>2019-08-08T12:55:10.000Z</time>
      </trkpt>
      <trkpt lat="42.85607" lon="1.10597">
        <ele>1372</ele>
        <time>2019-08-08T12:55:11.000Z</time>
      </trkpt>
      <trkpt lat="42.85604" lon="1.1061">
        <ele>1369</ele>
        <time>2019-08-08T12:55:12.000Z</time>
      </trkpt>
      <trkpt lat="42.85602" lon="1.10622">
        <ele>1369</ele>
        <time>2019-08-08T12:55:13.000Z</time>
      </trkpt>
      <trkpt lat="42.856" lon="1.10643">
        <ele>1369</ele>
        <time>2019-08-08T12:55:14.000Z</time>
      </trkpt>
      <trkpt lat="42.856" lon="1.1065">
        <ele>1366</ele>
        <time>2019-08-08T12:55:15.000Z</time>
      </trkpt>
      <trkpt lat="42.85599" lon="1.10664">
        <ele>1367</ele>
        <time>2019-08-08T12:55:16.000Z</time>
      </trkpt>
      <trkpt lat="42.85598" lon="1.10679">
        <ele>1367</ele>
        <time>2019-08-08T12:55:17.000Z</time>
      </trkpt>
      <trkpt lat="42.85598" lon="1.10694">
        <ele>1364</ele>
        <time>2019-08-08T12:55:18.000Z</time>
      </trkpt>
      <trkpt lat="42.85597" lon="1.1071">
        <ele>1364</ele>
        <time>2019-08-08T12:55:19.000Z</time>
      </trkpt>
      <trkpt lat="42.85596" lon="1.10726">
        <ele>1362</ele>
        <time>2019-08-08T12:55:20.000Z</time>
      </trkpt>
      <trkpt lat="42.85595" lon="1.10741">
        <ele>1362</ele>
        <time>2019-08-08T12:55:21.000Z</time>
      </trkpt>
      <trkpt lat="42.85593" lon="1.10757">
        <ele>1361</ele>
        <time>2019-08-08T12:55:22.000Z</time>
      </trkpt>
      <trkpt lat="42.85592" lon="1.10772">
        <ele>1361</ele>
        <time>2019-08-08T12:55:23.000Z</time>
      </trkpt>
      <trkpt lat="42.8559" lon="1.10786">
        <ele>1358</ele>
        <time>2019-08-08T12:55:24.000Z</time>
      </trkpt>
      <trkpt lat="42.85588" lon="1.108">
        <ele>1358</ele>
        <time>2019-08-08T12:55:25.000Z</time>
      </trkpt>
      <trkpt lat="42.85585" lon="1.10813">
        <ele>1358</ele>
        <time>2019-08-08T12:55:26.000Z</time>
      </trkpt>
      <trkpt lat="42.85583" lon="1.10824">
        <ele>1356</ele>
        <time>2019-08-08T12:55:27.000Z</time>
      </trkpt>
      <trkpt lat="42.85581" lon="1.10834">
        <ele>1357</ele>
        <time>2019-08-08T12:55:28.000Z</time>
      </trkpt>
      <trkpt lat="42.85582" lon="1.10842">
        <ele>1357</ele>
        <time>2019-08-08T12:55:29.000Z</time>
      </trkpt>
      <trkpt lat="42.85585" lon="1.10847">
        <ele>1357</ele>
        <time>2019-08-08T12:55:30.000Z</time>
      </trkpt>
      <trkpt lat="42.8559" lon="1.10848">
        <ele>1357</ele>
        <time>2019-08-08T12:55:31.000Z</time>
      </trkpt>
      <trkpt lat="42.85595" lon="1.10843">
        <ele>1357</ele>
        <time>2019-08-08T12:55:32.000Z</time>
      </trkpt>
      <trkpt lat="42.85598" lon="1.10836">
        <ele>1356</ele>
        <time>2019-08-08T12:55:33.000Z</time>
      </trkpt>
      <trkpt lat="42.856" lon="1.10828">
        <ele>1356</ele>
        <time>2019-08-08T12:55:34.000Z</time>
      </trkpt>
      <trkpt lat="42.85601" lon="1.10819">
        <ele>1356</ele>
        <time>2019-08-08T12:55:35.000Z</time>
      </trkpt>
      <trkpt lat="42.85602" lon="1.10809">
        <ele>1355</ele>
        <time>2019-08-08T12:55:36.000Z</time>
      </trkpt>
      <trkpt lat="42.85604" lon="1.108">
        <ele>1355</ele>
        <time>2019-08-08T12:55:37.000Z</time>
      </trkpt>
      <trkpt lat="42.85606" lon="1.1079">
        <ele>1354</ele>
        <time>2019-08-08T12:55:38.000Z</time>
      </trkpt>
      <trkpt lat="42.85609" lon="1.1078">
        <ele>1354</ele>
        <time>2019-08-08T12:55:39.000Z</time>
      </trkpt>
      <trkpt lat="42.85613" lon="1.1077">
        <ele>1352</ele>
        <time>2019-08-08T12:55:40.000Z</time>
      </trkpt>
      <trkpt lat="42.85616" lon="1.1076">
        <ele>1352</ele>
        <time>2019-08-08T12:55:41.000Z</time>
      </trkpt>
      <trkpt lat="42.8562" lon="1.1075">
        <ele>1351</ele>
        <time>2019-08-08T12:55:42.000Z</time>
      </trkpt>
      <trkpt lat="42.85623" lon="1.10739">
        <ele>1351</ele>
        <time>2019-08-08T12:55:43.000Z</time>
      </trkpt>
      <trkpt lat="42.85627" lon="1.10728">
        <ele>1351</ele>
        <time>2019-08-08T12:55:44.000Z</time>
      </trkpt>
      <trkpt lat="42.85631" lon="1.10717">
        <ele>1351</ele>
        <time>2019-08-08T12:55:45.000Z</time>
      </trkpt>
      <trkpt lat="42.85635" lon="1.10705">
        <ele>1351</ele>
        <time>2019-08-08T12:55:46.000Z</time>
      </trkpt>
      <trkpt lat="42.85639" lon="1.10693">
        <ele>1349</ele>
        <time>2019-08-08T12:55:47.000Z</time>
      </trkpt>
      <trkpt lat="42.85645" lon="1.10673">
        <ele>1349</ele>
        <time>2019-08-08T12:55:48.000Z</time>
      </trkpt>
      <trkpt lat="42.85647" lon="1.10667">
        <ele>1348</ele>
        <time>2019-08-08T12:55:49.000Z</time>
      </trkpt>
      <trkpt lat="42.85652" lon="1.10654">
        <ele>1347</ele>
        <time>2019-08-08T12:55:50.000Z</time>
      </trkpt>
      <trkpt lat="42.85659" lon="1.10643">
        <ele>1347</ele>
        <time>2019-08-08T12:55:51.000Z</time>
      </trkpt>
      <trkpt lat="42.85669" lon="1.10636">
        <ele>1344</ele>
        <time>2019-08-08T12:55:52.000Z</time>
      </trkpt>
      <trkpt lat="42.8568" lon="1.10634">
        <ele>1344</ele>
        <time>2019-08-08T12:55:53.000Z</time>
      </trkpt>
      <trkpt lat="42.85691" lon="1.10636">
        <ele>1344</ele>
        <time>2019-08-08T12:55:54.000Z</time>
      </trkpt>
      <trkpt lat="42.85702" lon="1.10641">
        <ele>1341</ele>
        <time>2019-08-08T12:55:55.000Z</time>
      </trkpt>
      <trkpt lat="42.85713" lon="1.10646">
        <ele>1341</ele>
        <time>2019-08-08T12:55:56.000Z</time>
      </trkpt>
      <trkpt lat="42.85724" lon="1.10652">
        <ele>1340</ele>
        <time>2019-08-08T12:55:57.000Z</time>
      </trkpt>
      <trkpt lat="42.8574" lon="1.10663">
        <ele>1340</ele>
        <time>2019-08-08T12:55:58.000Z</time>
      </trkpt>
      <trkpt lat="42.85746" lon="1.10666">
        <ele>1338</ele>
        <time>2019-08-08T12:55:59.000Z</time>
      </trkpt>
      <trkpt lat="42.85756" lon="1.10674">
        <ele>1338</ele>
        <time>2019-08-08T12:56:00.000Z</time>
      </trkpt>
      <trkpt lat="42.85768" lon="1.10682">
        <ele>1337</ele>
        <time>2019-08-08T12:56:01.000Z</time>
      </trkpt>
      <trkpt lat="42.85779" lon="1.1069">
        <ele>1337</ele>
        <time>2019-08-08T12:56:02.000Z</time>
      </trkpt>
      <trkpt lat="42.8579" lon="1.10698">
        <ele>1337</ele>
        <time>2019-08-08T12:56:03.000Z</time>
      </trkpt>
      <trkpt lat="42.85802" lon="1.10706">
        <ele>1334</ele>
        <time>2019-08-08T12:56:04.000Z</time>
      </trkpt>
      <trkpt lat="42.85818" lon="1.10719">
        <ele>1334</ele>
        <time>2019-08-08T12:56:05.000Z</time>
      </trkpt>
      <trkpt lat="42.85824" lon="1.10724">
        <ele>1333</ele>
        <time>2019-08-08T12:56:06.000Z</time>
      </trkpt>
      <trkpt lat="42.85834" lon="1.10733">
        <ele>1332</ele>
        <time>2019-08-08T12:56:07.000Z</time>
      </trkpt>
      <trkpt lat="42.85847" lon="1.10751">
        <ele>1332</ele>
        <time>2019-08-08T12:56:08.000Z</time>
      </trkpt>
      <trkpt lat="42.8585" lon="1.10759">
        <ele>1329</ele>
        <time>2019-08-08T12:56:09.000Z</time>
      </trkpt>
      <trkpt lat="42.85856" lon="1.10774">
        <ele>1329</ele>
        <time>2019-08-08T12:56:10.000Z</time>
      </trkpt>
      <trkpt lat="42.85861" lon="1.10791">
        <ele>1327</ele>
        <time>2019-08-08T12:56:11.000Z</time>
      </trkpt>
      <trkpt lat="42.85867" lon="1.10806">
        <ele>1327</ele>
        <time>2019-08-08T12:56:12.000Z</time>
      </trkpt>
      <trkpt lat="42.85873" lon="1.10822">
        <ele>1327</ele>
        <time>2019-08-08T12:56:13.000Z</time>
      </trkpt>
      <trkpt lat="42.85879" lon="1.10838">
        <ele>1324</ele>
        <time>2019-08-08T12:56:14.000Z</time>
      </trkpt>
      <trkpt lat="42.85884" lon="1.10855">
        <ele>1324</ele>
        <time>2019-08-08T12:56:15.000Z</time>
      </trkpt>
      <trkpt lat="42.85889" lon="1.10873">
        <ele>1321</ele>
        <time>2019-08-08T12:56:16.000Z</time>
      </trkpt>
      <trkpt lat="42.85893" lon="1.10891">
        <ele>1321</ele>
        <time>2019-08-08T12:56:17.000Z</time>
      </trkpt>
      <trkpt lat="42.85895" lon="1.10909">
        <ele>1319</ele>
        <time>2019-08-08T12:56:18.000Z</time>
      </trkpt>
      <trkpt lat="42.85898" lon="1.10925">
        <ele>1319</ele>
        <time>2019-08-08T12:56:19.000Z</time>
      </trkpt>
      <trkpt lat="42.85903" lon="1.10939">
        <ele>1319</ele>
        <time>2019-08-08T12:56:20.000Z</time>
      </trkpt>
      <trkpt lat="42.8591" lon="1.10951">
        <ele>1319</ele>
        <time>2019-08-08T12:56:21.000Z</time>
      </trkpt>
      <trkpt lat="42.8592" lon="1.1096">
        <ele>1319</ele>
        <time>2019-08-08T12:56:22.000Z</time>
      </trkpt>
      <trkpt lat="42.85934" lon="1.1097">
        <ele>1317</ele>
        <time>2019-08-08T12:56:23.000Z</time>
      </trkpt>
      <trkpt lat="42.85939" lon="1.10974">
        <ele>1317</ele>
        <time>2019-08-08T12:56:24.000Z</time>
      </trkpt>
      <trkpt lat="42.85948" lon="1.10982">
        <ele>1317</ele>
        <time>2019-08-08T12:56:25.000Z</time>
      </trkpt>
      <trkpt lat="42.85962" lon="1.10998">
        <ele>1315</ele>
        <time>2019-08-08T12:56:26.000Z</time>
      </trkpt>
      <trkpt lat="42.85966" lon="1.11003">
        <ele>1315</ele>
        <time>2019-08-08T12:56:27.000Z</time>
      </trkpt>
      <trkpt lat="42.85976" lon="1.11014">
        <ele>1312</ele>
        <time>2019-08-08T12:56:28.000Z</time>
      </trkpt>
      <trkpt lat="42.85984" lon="1.11024">
        <ele>1312</ele>
        <time>2019-08-08T12:56:29.000Z</time>
      </trkpt>
      <trkpt lat="42.85992" lon="1.11036">
        <ele>1312</ele>
        <time>2019-08-08T12:56:30.000Z</time>
      </trkpt>
      <trkpt lat="42.85996" lon="1.1105">
        <ele>1312</ele>
        <time>2019-08-08T12:56:31.000Z</time>
      </trkpt>
      <trkpt lat="42.85998" lon="1.11064">
        <ele>1312</ele>
        <time>2019-08-08T12:56:32.000Z</time>
      </trkpt>
      <trkpt lat="42.85999" lon="1.1108">
        <ele>1311</ele>
        <time>2019-08-08T12:56:33.000Z</time>
      </trkpt>
      <trkpt lat="42.86" lon="1.11096">
        <ele>1311</ele>
        <time>2019-08-08T12:56:34.000Z</time>
      </trkpt>
      <trkpt lat="42.85999" lon="1.11112">
        <ele>1309</ele>
        <time>2019-08-08T12:56:35.000Z</time>
      </trkpt>
      <trkpt lat="42.85997" lon="1.11128">
        <ele>1309</ele>
        <time>2019-08-08T12:56:36.000Z</time>
      </trkpt>
      <trkpt lat="42.85993" lon="1.11143">
        <ele>1308</ele>
        <time>2019-08-08T12:56:37.000Z</time>
      </trkpt>
      <trkpt lat="42.85987" lon="1.11158">
        <ele>1308</ele>
        <time>2019-08-08T12:56:38.000Z</time>
      </trkpt>
      <trkpt lat="42.85981" lon="1.11179">
        <ele>1307</ele>
        <time>2019-08-08T12:56:39.000Z</time>
      </trkpt>
      <trkpt lat="42.8598" lon="1.11187">
        <ele>1307</ele>
        <time>2019-08-08T12:56:40.000Z</time>
      </trkpt>
      <trkpt lat="42.85979" lon="1.11202">
        <ele>1307</ele>
        <time>2019-08-08T12:56:41.000Z</time>
      </trkpt>
      <trkpt lat="42.8598" lon="1.11224">
        <ele>1306</ele>
        <time>2019-08-08T12:56:42.000Z</time>
      </trkpt>
      <trkpt lat="42.85981" lon="1.11231">
        <ele>1306</ele>
        <time>2019-08-08T12:56:43.000Z</time>
      </trkpt>
      <trkpt lat="42.85984" lon="1.11246">
        <ele>1305</ele>
        <time>2019-08-08T12:56:44.000Z</time>
      </trkpt>
      <trkpt lat="42.85989" lon="1.11261">
        <ele>1305</ele>
        <time>2019-08-08T12:56:45.000Z</time>
      </trkpt>
      <trkpt lat="42.85993" lon="1.11275">
        <ele>1304</ele>
        <time>2019-08-08T12:56:46.000Z</time>
      </trkpt>
      <trkpt lat="42.85997" lon="1.11289">
        <ele>1304</ele>
        <time>2019-08-08T12:56:47.000Z</time>
      </trkpt>
      <trkpt lat="42.86006" lon="1.11308">
        <ele>1303</ele>
        <time>2019-08-08T12:56:48.000Z</time>
      </trkpt>
      <trkpt lat="42.86009" lon="1.11314">
        <ele>1303</ele>
        <time>2019-08-08T12:56:49.000Z</time>
      </trkpt>
      <trkpt lat="42.8602" lon="1.11332">
        <ele>1303</ele>
        <time>2019-08-08T12:56:50.000Z</time>
      </trkpt>
      <trkpt lat="42.86023" lon="1.11337">
        <ele>1303</ele>
        <time>2019-08-08T12:56:51.000Z</time>
      </trkpt>
      <trkpt lat="42.86031" lon="1.11348">
        <ele>1303</ele>
        <time>2019-08-08T12:56:52.000Z</time>
      </trkpt>
      <trkpt lat="42.86036" lon="1.11359">
        <ele>1301</ele>
        <time>2019-08-08T12:56:53.000Z</time>
      </trkpt>
      <trkpt lat="42.86036" lon="1.11372">
        <ele>1301</ele>
        <time>2019-08-08T12:56:54.000Z</time>
      </trkpt>
      <trkpt lat="42.86034" lon="1.11384">
        <ele>1301</ele>
        <time>2019-08-08T12:56:55.000Z</time>
      </trkpt>
      <trkpt lat="42.86028" lon="1.11404">
        <ele>1301</ele>
        <time>2019-08-08T12:56:56.000Z</time>
      </trkpt>
      <trkpt lat="42.86026" lon="1.11411">
        <ele>1300</ele>
        <time>2019-08-08T12:56:57.000Z</time>
      </trkpt>
      <trkpt lat="42.86024" lon="1.11425">
        <ele>1300</ele>
        <time>2019-08-08T12:56:58.000Z</time>
      </trkpt>
      <trkpt lat="42.8602" lon="1.11446">
        <ele>1298</ele>
        <time>2019-08-08T12:56:59.000Z</time>
      </trkpt>
      <trkpt lat="42.86018" lon="1.11453">
        <ele>1298</ele>
        <time>2019-08-08T12:57:00.000Z</time>
      </trkpt>
      <trkpt lat="42.86013" lon="1.11475">
        <ele>1297</ele>
        <time>2019-08-08T12:57:01.000Z</time>
      </trkpt>
      <trkpt lat="42.86011" lon="1.11482">
        <ele>1297</ele>
        <time>2019-08-08T12:57:02.000Z</time>
      </trkpt>
      <trkpt lat="42.86006" lon="1.11497">
        <ele>1295</ele>
        <time>2019-08-08T12:57:03.000Z</time>
      </trkpt>
      <trkpt lat="42.86" lon="1.11511">
        <ele>1295</ele>
        <time>2019-08-08T12:57:04.000Z</time>
      </trkpt>
      <trkpt lat="42.85994" lon="1.11525">
        <ele>1292</ele>
        <time>2019-08-08T12:57:05.000Z</time>
      </trkpt>
      <trkpt lat="42.85989" lon="1.1154">
        <ele>1292</ele>
        <time>2019-08-08T12:57:06.000Z</time>
      </trkpt>
      <trkpt lat="42.85984" lon="1.11565">
        <ele>1292</ele>
        <time>2019-08-08T12:57:07.000Z</time>
      </trkpt>
      <trkpt lat="42.85983" lon="1.11573">
        <ele>1289</ele>
        <time>2019-08-08T12:57:08.000Z</time>
      </trkpt>
      <trkpt lat="42.8598" lon="1.1159">
        <ele>1289</ele>
        <time>2019-08-08T12:57:09.000Z</time>
      </trkpt>
      <trkpt lat="42.85976" lon="1.11615">
        <ele>1289</ele>
        <time>2019-08-08T12:57:10.000Z</time>
      </trkpt>
      <trkpt lat="42.85975" lon="1.11623">
        <ele>1286</ele>
        <time>2019-08-08T12:57:11.000Z</time>
      </trkpt>
      <trkpt lat="42.85973" lon="1.1164">
        <ele>1286</ele>
        <time>2019-08-08T12:57:12.000Z</time>
      </trkpt>
      <trkpt lat="42.85972" lon="1.11666">
        <ele>1286</ele>
        <time>2019-08-08T12:57:13.000Z</time>
      </trkpt>
      <trkpt lat="42.85971" lon="1.11675">
        <ele>1285</ele>
        <time>2019-08-08T12:57:14.000Z</time>
      </trkpt>
      <trkpt lat="42.85969" lon="1.11701">
        <ele>1285</ele>
        <time>2019-08-08T12:57:15.000Z</time>
      </trkpt>
      <trkpt lat="42.85967" lon="1.1171">
        <ele>1282</ele>
        <time>2019-08-08T12:57:16.000Z</time>
      </trkpt>
      <trkpt lat="42.85961" lon="1.11735">
        <ele>1282</ele>
        <time>2019-08-08T12:57:17.000Z</time>
      </trkpt>
      <trkpt lat="42.85958" lon="1.11743">
        <ele>1280</ele>
        <time>2019-08-08T12:57:18.000Z</time>
      </trkpt>
      <trkpt lat="42.85952" lon="1.11759">
        <ele>1280</ele>
        <time>2019-08-08T12:57:19.000Z</time>
      </trkpt>
      <trkpt lat="42.85944" lon="1.11783">
        <ele>1277</ele>
        <time>2019-08-08T12:57:20.000Z</time>
      </trkpt>
      <trkpt lat="42.85942" lon="1.11791">
        <ele>1277</ele>
        <time>2019-08-08T12:57:21.000Z</time>
      </trkpt>
      <trkpt lat="42.85938" lon="1.11807">
        <ele>1275</ele>
        <time>2019-08-08T12:57:22.000Z</time>
      </trkpt>
      <trkpt lat="42.85933" lon="1.11824">
        <ele>1275</ele>
        <time>2019-08-08T12:57:23.000Z</time>
      </trkpt>
      <trkpt lat="42.85929" lon="1.11847">
        <ele>1272</ele>
        <time>2019-08-08T12:57:24.000Z</time>
      </trkpt>
      <trkpt lat="42.85927" lon="1.11855">
        <ele>1272</ele>
        <time>2019-08-08T12:57:25.000Z</time>
      </trkpt>
      <trkpt lat="42.85924" lon="1.1187">
        <ele>1272</ele>
        <time>2019-08-08T12:57:26.000Z</time>
      </trkpt>
      <trkpt lat="42.85922" lon="1.11892">
        <ele>1269</ele>
        <time>2019-08-08T12:57:27.000Z</time>
      </trkpt>
      <trkpt lat="42.85921" lon="1.11899">
        <ele>1269</ele>
        <time>2019-08-08T12:57:28.000Z</time>
      </trkpt>
      <trkpt lat="42.85922" lon="1.1192">
        <ele>1269</ele>
        <time>2019-08-08T12:57:29.000Z</time>
      </trkpt>
      <trkpt lat="42.85923" lon="1.11927">
        <ele>1267</ele>
        <time>2019-08-08T12:57:30.000Z</time>
      </trkpt>
      <trkpt lat="42.8593" lon="1.11938">
        <ele>1267</ele>
        <time>2019-08-08T12:57:31.000Z</time>
      </trkpt>
      <trkpt lat="42.85941" lon="1.11954">
        <ele>1264</ele>
        <time>2019-08-08T12:57:32.000Z</time>
      </trkpt>
      <trkpt lat="42.85945" lon="1.11958">
        <ele>1264</ele>
        <time>2019-08-08T12:57:33.000Z</time>
      </trkpt>
      <trkpt lat="42.85953" lon="1.11967">
        <ele>1264</ele>
        <time>2019-08-08T12:57:34.000Z</time>
      </trkpt>
      <trkpt lat="42.85962" lon="1.11978">
        <ele>1264</ele>
        <time>2019-08-08T12:57:35.000Z</time>
      </trkpt>
      <trkpt lat="42.85971" lon="1.11991">
        <ele>1261</ele>
        <time>2019-08-08T12:57:36.000Z</time>
      </trkpt>
      <trkpt lat="42.85976" lon="1.12006">
        <ele>1261</ele>
        <time>2019-08-08T12:57:37.000Z</time>
      </trkpt>
      <trkpt lat="42.85978" lon="1.12022">
        <ele>1261</ele>
        <time>2019-08-08T12:57:38.000Z</time>
      </trkpt>
      <trkpt lat="42.85975" lon="1.12036">
        <ele>1258</ele>
        <time>2019-08-08T12:57:39.000Z</time>
      </trkpt>
      <trkpt lat="42.85968" lon="1.12048">
        <ele>1258</ele>
        <time>2019-08-08T12:57:40.000Z</time>
      </trkpt>
      <trkpt lat="42.85961" lon="1.12061">
        <ele>1258</ele>
        <time>2019-08-08T12:57:41.000Z</time>
      </trkpt>
      <trkpt lat="42.85954" lon="1.12074">
        <ele>1255</ele>
        <time>2019-08-08T12:57:42.000Z</time>
      </trkpt>
      <trkpt lat="42.85949" lon="1.12089">
        <ele>1255</ele>
        <time>2019-08-08T12:57:43.000Z</time>
      </trkpt>
      <trkpt lat="42.85944" lon="1.12105">
        <ele>1253</ele>
        <time>2019-08-08T12:57:44.000Z</time>
      </trkpt>
      <trkpt lat="42.8594" lon="1.12121">
        <ele>1253</ele>
        <time>2019-08-08T12:57:45.000Z</time>
      </trkpt>
      <trkpt lat="42.85937" lon="1.12137">
        <ele>1250</ele>
        <time>2019-08-08T12:57:46.000Z</time>
      </trkpt>
      <trkpt lat="42.85934" lon="1.12154">
        <ele>1250</ele>
        <time>2019-08-08T12:57:47.000Z</time>
      </trkpt>
      <trkpt lat="42.8593" lon="1.12171">
        <ele>1250</ele>
        <time>2019-08-08T12:57:48.000Z</time>
      </trkpt>
      <trkpt lat="42.85927" lon="1.12187">
        <ele>1248</ele>
        <time>2019-08-08T12:57:49.000Z</time>
      </trkpt>
      <trkpt lat="42.85924" lon="1.12203">
        <ele>1248</ele>
        <time>2019-08-08T12:57:50.000Z</time>
      </trkpt>
      <trkpt lat="42.85922" lon="1.12219">
        <ele>1248</ele>
        <time>2019-08-08T12:57:51.000Z</time>
      </trkpt>
      <trkpt lat="42.85921" lon="1.12236">
        <ele>1248</ele>
        <time>2019-08-08T12:57:52.000Z</time>
      </trkpt>
      <trkpt lat="42.85921" lon="1.12252">
        <ele>1244</ele>
        <time>2019-08-08T12:57:53.000Z</time>
      </trkpt>
      <trkpt lat="42.85924" lon="1.12268">
        <ele>1244</ele>
        <time>2019-08-08T12:57:54.000Z</time>
      </trkpt>
      <trkpt lat="42.85927" lon="1.12284">
        <ele>1242</ele>
        <time>2019-08-08T12:57:55.000Z</time>
      </trkpt>
      <trkpt lat="42.8593" lon="1.12299">
        <ele>1242</ele>
        <time>2019-08-08T12:57:56.000Z</time>
      </trkpt>
      <trkpt lat="42.85933" lon="1.12313">
        <ele>1240</ele>
        <time>2019-08-08T12:57:57.000Z</time>
      </trkpt>
      <trkpt lat="42.85937" lon="1.12327">
        <ele>1240</ele>
        <time>2019-08-08T12:57:58.000Z</time>
      </trkpt>
      <trkpt lat="42.85943" lon="1.1234">
        <ele>1239</ele>
        <time>2019-08-08T12:57:59.000Z</time>
      </trkpt>
      <trkpt lat="42.85949" lon="1.12351">
        <ele>1239</ele>
        <time>2019-08-08T12:58:00.000Z</time>
      </trkpt>
      <trkpt lat="42.85956" lon="1.1236">
        <ele>1237</ele>
        <time>2019-08-08T12:58:01.000Z</time>
      </trkpt>
      <trkpt lat="42.85965" lon="1.12369">
        <ele>1237</ele>
        <time>2019-08-08T12:58:02.000Z</time>
      </trkpt>
      <trkpt lat="42.85978" lon="1.12389">
        <ele>1236</ele>
        <time>2019-08-08T12:58:03.000Z</time>
      </trkpt>
      <trkpt lat="42.85983" lon="1.12395">
        <ele>1236</ele>
        <time>2019-08-08T12:58:04.000Z</time>
      </trkpt>
      <trkpt lat="42.85993" lon="1.12409">
        <ele>1236</ele>
        <time>2019-08-08T12:58:05.000Z</time>
      </trkpt>
      <trkpt lat="42.86003" lon="1.12422">
        <ele>1233</ele>
        <time>2019-08-08T12:58:06.000Z</time>
      </trkpt>
      <trkpt lat="42.86013" lon="1.12434">
        <ele>1233</ele>
        <time>2019-08-08T12:58:07.000Z</time>
      </trkpt>
      <trkpt lat="42.86022" lon="1.12445">
        <ele>1233</ele>
        <time>2019-08-08T12:58:08.000Z</time>
      </trkpt>
      <trkpt lat="42.86029" lon="1.12455">
        <ele>1230</ele>
        <time>2019-08-08T12:58:09.000Z</time>
      </trkpt>
      <trkpt lat="42.86032" lon="1.12467">
        <ele>1230</ele>
        <time>2019-08-08T12:58:10.000Z</time>
      </trkpt>
      <trkpt lat="42.86033" lon="1.12481">
        <ele>1229</ele>
        <time>2019-08-08T12:58:11.000Z</time>
      </trkpt>
      <trkpt lat="42.8603" lon="1.12494">
        <ele>1229</ele>
        <time>2019-08-08T12:58:12.000Z</time>
      </trkpt>
      <trkpt lat="42.86023" lon="1.12507">
        <ele>1226</ele>
        <time>2019-08-08T12:58:13.000Z</time>
      </trkpt>
      <trkpt lat="42.86015" lon="1.12518">
        <ele>1226</ele>
        <time>2019-08-08T12:58:14.000Z</time>
      </trkpt>
      <trkpt lat="42.86007" lon="1.1253">
        <ele>1223</ele>
        <time>2019-08-08T12:58:15.000Z</time>
      </trkpt>
      <trkpt lat="42.86" lon="1.12543">
        <ele>1223</ele>
        <time>2019-08-08T12:58:16.000Z</time>
      </trkpt>
      <trkpt lat="42.85994" lon="1.12556">
        <ele>1222</ele>
        <time>2019-08-08T12:58:17.000Z</time>
      </trkpt>
      <trkpt lat="42.8599" lon="1.12568">
        <ele>1222</ele>
        <time>2019-08-08T12:58:18.000Z</time>
      </trkpt>
      <trkpt lat="42.85993" lon="1.12585">
        <ele>1220</ele>
        <time>2019-08-08T12:58:19.000Z</time>
      </trkpt>
      <trkpt lat="42.85995" lon="1.1259">
        <ele>1220</ele>
        <time>2019-08-08T12:58:20.000Z</time>
      </trkpt>
      <trkpt lat="42.86001" lon="1.12596">
        <ele>1218</ele>
        <time>2019-08-08T12:58:21.000Z</time>
      </trkpt>
      <trkpt lat="42.86009" lon="1.12604">
        <ele>1218</ele>
        <time>2019-08-08T12:58:22.000Z</time>
      </trkpt>
      <trkpt lat="42.86017" lon="1.12614">
        <ele>1217</ele>
        <time>2019-08-08T12:58:23.000Z</time>
      </trkpt>
      <trkpt lat="42.86021" lon="1.12629">
        <ele>1217</ele>
        <time>2019-08-08T12:58:24.000Z</time>
      </trkpt>
      <trkpt lat="42.86024" lon="1.12651">
        <ele>1212</ele>
        <time>2019-08-08T12:58:25.000Z</time>
      </trkpt>
      <trkpt lat="42.86022" lon="1.12659">
        <ele>1212</ele>
        <time>2019-08-08T12:58:26.000Z</time>
      </trkpt>
      <trkpt lat="42.86019" lon="1.12673">
        <ele>1212</ele>
        <time>2019-08-08T12:58:27.000Z</time>
      </trkpt>
      <trkpt lat="42.86013" lon="1.12686">
        <ele>1212</ele>
        <time>2019-08-08T12:58:28.000Z</time>
      </trkpt>
      <trkpt lat="42.86006" lon="1.12699">
        <ele>1212</ele>
        <time>2019-08-08T12:58:29.000Z</time>
      </trkpt>
      <trkpt lat="42.86001" lon="1.12713">
        <ele>1209</ele>
        <time>2019-08-08T12:58:30.000Z</time>
      </trkpt>
      <trkpt lat="42.85996" lon="1.12728">
        <ele>1209</ele>
        <time>2019-08-08T12:58:31.000Z</time>
      </trkpt>
      <trkpt lat="42.85991" lon="1.12743">
        <ele>1207</ele>
        <time>2019-08-08T12:58:32.000Z</time>
      </trkpt>
      <trkpt lat="42.85988" lon="1.12758">
        <ele>1207</ele>
        <time>2019-08-08T12:58:33.000Z</time>
      </trkpt>
      <trkpt lat="42.85984" lon="1.12774">
        <ele>1205</ele>
        <time>2019-08-08T12:58:34.000Z</time>
      </trkpt>
      <trkpt lat="42.85982" lon="1.12791">
        <ele>1205</ele>
        <time>2019-08-08T12:58:35.000Z</time>
      </trkpt>
      <trkpt lat="42.85979" lon="1.12808">
        <ele>1204</ele>
        <time>2019-08-08T12:58:36.000Z</time>
      </trkpt>
      <trkpt lat="42.85977" lon="1.12824">
        <ele>1204</ele>
        <time>2019-08-08T12:58:37.000Z</time>
      </trkpt>
      <trkpt lat="42.85976" lon="1.12839">
        <ele>1204</ele>
        <time>2019-08-08T12:58:38.000Z</time>
      </trkpt>
      <trkpt lat="42.85976" lon="1.12854">
        <ele>1201</ele>
        <time>2019-08-08T12:58:39.000Z</time>
      </trkpt>
      <trkpt lat="42.85979" lon="1.12869">
        <ele>1201</ele>
        <time>2019-08-08T12:58:40.000Z</time>
      </trkpt>
      <trkpt lat="42.85984" lon="1.12884">
        <ele>1198</ele>
        <time>2019-08-08T12:58:41.000Z</time>
      </trkpt>
      <trkpt lat="42.85989" lon="1.12898">
        <ele>1198</ele>
        <time>2019-08-08T12:58:42.000Z</time>
      </trkpt>
      <trkpt lat="42.85997" lon="1.12919">
        <ele>1198</ele>
        <time>2019-08-08T12:58:43.000Z</time>
      </trkpt>
      <trkpt lat="42.85999" lon="1.12927">
        <ele>1196</ele>
        <time>2019-08-08T12:58:44.000Z</time>
      </trkpt>
      <trkpt lat="42.86003" lon="1.12942">
        <ele>1194</ele>
        <time>2019-08-08T12:58:45.000Z</time>
      </trkpt>
      <trkpt lat="42.86007" lon="1.12957">
        <ele>1194</ele>
        <time>2019-08-08T12:58:46.000Z</time>
      </trkpt>
      <trkpt lat="42.86011" lon="1.12971">
        <ele>1192</ele>
        <time>2019-08-08T12:58:47.000Z</time>
      </trkpt>
      <trkpt lat="42.86018" lon="1.12986">
        <ele>1192</ele>
        <time>2019-08-08T12:58:48.000Z</time>
      </trkpt>
      <trkpt lat="42.86023" lon="1.13">
        <ele>1190</ele>
        <time>2019-08-08T12:58:49.000Z</time>
      </trkpt>
      <trkpt lat="42.86028" lon="1.13015">
        <ele>1190</ele>
        <time>2019-08-08T12:58:50.000Z</time>
      </trkpt>
      <trkpt lat="42.8603" lon="1.13031">
        <ele>1188</ele>
        <time>2019-08-08T12:58:51.000Z</time>
      </trkpt>
      <trkpt lat="42.86031" lon="1.13047">
        <ele>1188</ele>
        <time>2019-08-08T12:58:52.000Z</time>
      </trkpt>
      <trkpt lat="42.86032" lon="1.13062">
        <ele>1186</ele>
        <time>2019-08-08T12:58:53.000Z</time>
      </trkpt>
      <trkpt lat="42.8603" lon="1.13082">
        <ele>1186</ele>
        <time>2019-08-08T12:58:54.000Z</time>
      </trkpt>
      <trkpt lat="42.86029" lon="1.13088">
        <ele>1186</ele>
        <time>2019-08-08T12:58:55.000Z</time>
      </trkpt>
      <trkpt lat="42.86024" lon="1.131">
        <ele>1183</ele>
        <time>2019-08-08T12:58:56.000Z</time>
      </trkpt>
      <trkpt lat="42.86017" lon="1.13111">
        <ele>1183</ele>
        <time>2019-08-08T12:58:57.000Z</time>
      </trkpt>
      <trkpt lat="42.8601" lon="1.13122">
        <ele>1180</ele>
        <time>2019-08-08T12:58:58.000Z</time>
      </trkpt>
      <trkpt lat="42.86002" lon="1.13132">
        <ele>1180</ele>
        <time>2019-08-08T12:58:59.000Z</time>
      </trkpt>
      <trkpt lat="42.85995" lon="1.13143">
        <ele>1178</ele>
        <time>2019-08-08T12:59:00.000Z</time>
      </trkpt>
      <trkpt lat="42.85987" lon="1.13153">
        <ele>1178</ele>
        <time>2019-08-08T12:59:01.000Z</time>
      </trkpt>
      <trkpt lat="42.85975" lon="1.1317">
        <ele>1178</ele>
        <time>2019-08-08T12:59:02.000Z</time>
      </trkpt>
      <trkpt lat="42.85972" lon="1.13176">
        <ele>1177</ele>
        <time>2019-08-08T12:59:03.000Z</time>
      </trkpt>
      <trkpt lat="42.85965" lon="1.13188">
        <ele>1177</ele>
        <time>2019-08-08T12:59:04.000Z</time>
      </trkpt>
      <trkpt lat="42.85959" lon="1.132">
        <ele>1175</ele>
        <time>2019-08-08T12:59:05.000Z</time>
      </trkpt>
      <trkpt lat="42.85954" lon="1.13213">
        <ele>1175</ele>
        <time>2019-08-08T12:59:06.000Z</time>
      </trkpt>
      <trkpt lat="42.85951" lon="1.13228">
        <ele>1172</ele>
        <time>2019-08-08T12:59:07.000Z</time>
      </trkpt>
      <trkpt lat="42.85949" lon="1.13243">
        <ele>1172</ele>
        <time>2019-08-08T12:59:08.000Z</time>
      </trkpt>
      <trkpt lat="42.85948" lon="1.13258">
        <ele>1170</ele>
        <time>2019-08-08T12:59:09.000Z</time>
      </trkpt>
      <trkpt lat="42.85944" lon="1.13284">
        <ele>1170</ele>
        <time>2019-08-08T12:59:10.000Z</time>
      </trkpt>
      <trkpt lat="42.85941" lon="1.13292">
        <ele>1169.6</ele>
        <time>2019-08-08T12:59:11.000Z</time>
      </trkpt>
      <trkpt lat="42.85933" lon="1.13315">
        <ele>1169</ele>
        <time>2019-08-08T12:59:12.000Z</time>
      </trkpt>
      <trkpt lat="42.85929" lon="1.13322">
        <ele>1165</ele>
        <time>2019-08-08T12:59:13.000Z</time>
      </trkpt>
      <trkpt lat="42.8592" lon="1.13336">
        <ele>1165</ele>
        <time>2019-08-08T12:59:14.000Z</time>
      </trkpt>
      <trkpt lat="42.85911" lon="1.13349">
        <ele>1163</ele>
        <time>2019-08-08T12:59:15.000Z</time>
      </trkpt>
      <trkpt lat="42.85902" lon="1.13363">
        <ele>1163</ele>
        <time>2019-08-08T12:59:16.000Z</time>
      </trkpt>
      <trkpt lat="42.85894" lon="1.13377">
        <ele>1160</ele>
        <time>2019-08-08T12:59:17.000Z</time>
      </trkpt>
      <trkpt lat="42.85886" lon="1.13392">
        <ele>1160</ele>
        <time>2019-08-08T12:59:18.000Z</time>
      </trkpt>
      <trkpt lat="42.85877" lon="1.13406">
        <ele>1158</ele>
        <time>2019-08-08T12:59:19.000Z</time>
      </trkpt>
      <trkpt lat="42.85867" lon="1.13419">
        <ele>1158</ele>
        <time>2019-08-08T12:59:20.000Z</time>
      </trkpt>
      <trkpt lat="42.85857" lon="1.13431">
        <ele>1155</ele>
        <time>2019-08-08T12:59:21.000Z</time>
      </trkpt>
      <trkpt lat="42.85847" lon="1.13442">
        <ele>1155</ele>
        <time>2019-08-08T12:59:22.000Z</time>
      </trkpt>
      <trkpt lat="42.85837" lon="1.13453">
        <ele>1155</ele>
        <time>2019-08-08T12:59:23.000Z</time>
      </trkpt>
      <trkpt lat="42.85823" lon="1.13472">
        <ele>1153</ele>
        <time>2019-08-08T12:59:24.000Z</time>
      </trkpt>
      <trkpt lat="42.85819" lon="1.13478">
        <ele>1153</ele>
        <time>2019-08-08T12:59:25.000Z</time>
      </trkpt>
      <trkpt lat="42.85811" lon="1.13492">
        <ele>1153</ele>
        <time>2019-08-08T12:59:26.000Z</time>
      </trkpt>
      <trkpt lat="42.85804" lon="1.13506">
        <ele>1149</ele>
        <time>2019-08-08T12:59:27.000Z</time>
      </trkpt>
      <trkpt lat="42.858" lon="1.13522">
        <ele>1149</ele>
        <time>2019-08-08T12:59:28.000Z</time>
      </trkpt>
      <trkpt lat="42.85796" lon="1.13537">
        <ele>1149</ele>
        <time>2019-08-08T12:59:29.000Z</time>
      </trkpt>
      <trkpt lat="42.85794" lon="1.13551">
        <ele>1147</ele>
        <time>2019-08-08T12:59:30.000Z</time>
      </trkpt>
      <trkpt lat="42.85793" lon="1.13565">
        <ele>1147</ele>
        <time>2019-08-08T12:59:31.000Z</time>
      </trkpt>
      <trkpt lat="42.85796" lon="1.13578">
        <ele>1146</ele>
        <time>2019-08-08T12:59:32.000Z</time>
      </trkpt>
      <trkpt lat="42.858" lon="1.1359">
        <ele>1146</ele>
        <time>2019-08-08T12:59:33.000Z</time>
      </trkpt>
      <trkpt lat="42.85807" lon="1.136">
        <ele>1145</ele>
        <time>2019-08-08T12:59:34.000Z</time>
      </trkpt>
      <trkpt lat="42.85816" lon="1.13609">
        <ele>1145</ele>
        <time>2019-08-08T12:59:35.000Z</time>
      </trkpt>
      <trkpt lat="42.85826" lon="1.13617">
        <ele>1142</ele>
        <time>2019-08-08T12:59:36.000Z</time>
      </trkpt>
      <trkpt lat="42.85837" lon="1.13625">
        <ele>1142</ele>
        <time>2019-08-08T12:59:37.000Z</time>
      </trkpt>
      <trkpt lat="42.85847" lon="1.13634">
        <ele>1140</ele>
        <time>2019-08-08T12:59:38.000Z</time>
      </trkpt>
      <trkpt lat="42.85856" lon="1.13644">
        <ele>1140</ele>
        <time>2019-08-08T12:59:39.000Z</time>
      </trkpt>
      <trkpt lat="42.85863" lon="1.13655">
        <ele>1137</ele>
        <time>2019-08-08T12:59:40.000Z</time>
      </trkpt>
      <trkpt lat="42.85868" lon="1.13674">
        <ele>1137</ele>
        <time>2019-08-08T12:59:41.000Z</time>
      </trkpt>
      <trkpt lat="42.85869" lon="1.13681">
        <ele>1137</ele>
        <time>2019-08-08T12:59:42.000Z</time>
      </trkpt>
      <trkpt lat="42.85862" lon="1.137">
        <ele>1137</ele>
        <time>2019-08-08T12:59:43.000Z</time>
      </trkpt>
      <trkpt lat="42.85859" lon="1.13705">
        <ele>1134</ele>
        <time>2019-08-08T12:59:44.000Z</time>
      </trkpt>
      <trkpt lat="42.85852" lon="1.13717">
        <ele>1134</ele>
        <time>2019-08-08T12:59:45.000Z</time>
      </trkpt>
      <trkpt lat="42.85845" lon="1.1373">
        <ele>1132</ele>
        <time>2019-08-08T12:59:46.000Z</time>
      </trkpt>
      <trkpt lat="42.85839" lon="1.13744">
        <ele>1132</ele>
        <time>2019-08-08T12:59:47.000Z</time>
      </trkpt>
      <trkpt lat="42.85834" lon="1.13758">
        <ele>1130</ele>
        <time>2019-08-08T12:59:48.000Z</time>
      </trkpt>
      <trkpt lat="42.8583" lon="1.13774">
        <ele>1130</ele>
        <time>2019-08-08T12:59:49.000Z</time>
      </trkpt>
      <trkpt lat="42.85826" lon="1.1379">
        <ele>1127</ele>
        <time>2019-08-08T12:59:50.000Z</time>
      </trkpt>
      <trkpt lat="42.85821" lon="1.13806">
        <ele>1127</ele>
        <time>2019-08-08T12:59:51.000Z</time>
      </trkpt>
      <trkpt lat="42.85815" lon="1.13822">
        <ele>1126</ele>
        <time>2019-08-08T12:59:52.000Z</time>
      </trkpt>
      <trkpt lat="42.85808" lon="1.13836">
        <ele>1126</ele>
        <time>2019-08-08T12:59:53.000Z</time>
      </trkpt>
      <trkpt lat="42.85801" lon="1.1385">
        <ele>1123</ele>
        <time>2019-08-08T12:59:54.000Z</time>
      </trkpt>
      <trkpt lat="42.85793" lon="1.13863">
        <ele>1123</ele>
        <time>2019-08-08T12:59:55.000Z</time>
      </trkpt>
      <trkpt lat="42.85786" lon="1.13875">
        <ele>1122</ele>
        <time>2019-08-08T12:59:56.000Z</time>
      </trkpt>
      <trkpt lat="42.85778" lon="1.13886">
        <ele>1122</ele>
        <time>2019-08-08T12:59:57.000Z</time>
      </trkpt>
      <trkpt lat="42.85771" lon="1.13897">
        <ele>1119</ele>
        <time>2019-08-08T12:59:58.000Z</time>
      </trkpt>
      <trkpt lat="42.85764" lon="1.13908">
        <ele>1119</ele>
        <time>2019-08-08T12:59:59.000Z</time>
      </trkpt>
      <trkpt lat="42.85752" lon="1.13933">
        <ele>1117</ele>
        <time>2019-08-08T13:00:01.000Z</time>
      </trkpt>
      <trkpt lat="42.85743" lon="1.13952">
        <ele>1117</ele>
        <time>2019-08-08T13:00:02.000Z</time>
      </trkpt>
      <trkpt lat="42.8574" lon="1.13958">
        <ele>1114</ele>
        <time>2019-08-08T13:00:03.000Z</time>
      </trkpt>
      <trkpt lat="42.85734" lon="1.1397">
        <ele>1114</ele>
        <time>2019-08-08T13:00:04.000Z</time>
      </trkpt>
      <trkpt lat="42.85728" lon="1.13983">
        <ele>1112</ele>
        <time>2019-08-08T13:00:05.000Z</time>
      </trkpt>
      <trkpt lat="42.85724" lon="1.13996">
        <ele>1112</ele>
        <time>2019-08-08T13:00:06.000Z</time>
      </trkpt>
      <trkpt lat="42.85721" lon="1.14011">
        <ele>1110</ele>
        <time>2019-08-08T13:00:07.000Z</time>
      </trkpt>
      <trkpt lat="42.85719" lon="1.14027">
        <ele>1110</ele>
        <time>2019-08-08T13:00:08.000Z</time>
      </trkpt>
      <trkpt lat="42.85718" lon="1.14043">
        <ele>1107</ele>
        <time>2019-08-08T13:00:09.000Z</time>
      </trkpt>
      <trkpt lat="42.85718" lon="1.14059">
        <ele>1107</ele>
        <time>2019-08-08T13:00:10.000Z</time>
      </trkpt>
      <trkpt lat="42.85718" lon="1.14075">
        <ele>1106</ele>
        <time>2019-08-08T13:00:11.000Z</time>
      </trkpt>
      <trkpt lat="42.85718" lon="1.14091">
        <ele>1106</ele>
        <time>2019-08-08T13:00:12.000Z</time>
      </trkpt>
      <trkpt lat="42.85718" lon="1.14107">
        <ele>1104</ele>
        <time>2019-08-08T13:00:13.000Z</time>
      </trkpt>
      <trkpt lat="42.85719" lon="1.14121">
        <ele>1104</ele>
        <time>2019-08-08T13:00:14.000Z</time>
      </trkpt>
      <trkpt lat="42.85721" lon="1.14135">
        <ele>1103</ele>
        <time>2019-08-08T13:00:15.000Z</time>
      </trkpt>
      <trkpt lat="42.85724" lon="1.14147">
        <ele>1103</ele>
        <time>2019-08-08T13:00:16.000Z</time>
      </trkpt>
      <trkpt lat="42.85731" lon="1.14158">
        <ele>1101</ele>
        <time>2019-08-08T13:00:17.000Z</time>
      </trkpt>
      <trkpt lat="42.8574" lon="1.14175">
        <ele>1101</ele>
        <time>2019-08-08T13:00:18.000Z</time>
      </trkpt>
      <trkpt lat="42.85743" lon="1.14182">
        <ele>1099.6</ele>
        <time>2019-08-08T13:00:19.000Z</time>
      </trkpt>
      <trkpt lat="42.85748" lon="1.14194">
        <ele>1098</ele>
        <time>2019-08-08T13:00:20.000Z</time>
      </trkpt>
      <trkpt lat="42.85752" lon="1.14209">
        <ele>1098</ele>
        <time>2019-08-08T13:00:21.000Z</time>
      </trkpt>
      <trkpt lat="42.85753" lon="1.14224">
        <ele>1095</ele>
        <time>2019-08-08T13:00:22.000Z</time>
      </trkpt>
      <trkpt lat="42.85754" lon="1.14238">
        <ele>1095</ele>
        <time>2019-08-08T13:00:23.000Z</time>
      </trkpt>
      <trkpt lat="42.85753" lon="1.14253">
        <ele>1093</ele>
        <time>2019-08-08T13:00:24.000Z</time>
      </trkpt>
      <trkpt lat="42.85752" lon="1.14274">
        <ele>1093</ele>
        <time>2019-08-08T13:00:25.000Z</time>
      </trkpt>
      <trkpt lat="42.85752" lon="1.14281">
        <ele>1093</ele>
        <time>2019-08-08T13:00:26.000Z</time>
      </trkpt>
      <trkpt lat="42.85754" lon="1.14294">
        <ele>1092</ele>
        <time>2019-08-08T13:00:27.000Z</time>
      </trkpt>
      <trkpt lat="42.85758" lon="1.14306">
        <ele>1092</ele>
        <time>2019-08-08T13:00:28.000Z</time>
      </trkpt>
      <trkpt lat="42.85762" lon="1.14318">
        <ele>1090</ele>
        <time>2019-08-08T13:00:29.000Z</time>
      </trkpt>
      <trkpt lat="42.85766" lon="1.1433">
        <ele>1090</ele>
        <time>2019-08-08T13:00:30.000Z</time>
      </trkpt>
      <trkpt lat="42.85767" lon="1.14343">
        <ele>1089</ele>
        <time>2019-08-08T13:00:31.000Z</time>
      </trkpt>
      <trkpt lat="42.85764" lon="1.14357">
        <ele>1089</ele>
        <time>2019-08-08T13:00:32.000Z</time>
      </trkpt>
      <trkpt lat="42.85756" lon="1.14375">
        <ele>1089</ele>
        <time>2019-08-08T13:00:33.000Z</time>
      </trkpt>
      <trkpt lat="42.85752" lon="1.1438">
        <ele>1089</ele>
        <time>2019-08-08T13:00:34.000Z</time>
      </trkpt>
      <trkpt lat="42.85744" lon="1.14391">
        <ele>1086</ele>
        <time>2019-08-08T13:00:35.000Z</time>
      </trkpt>
      <trkpt lat="42.85736" lon="1.14402">
        <ele>1086</ele>
        <time>2019-08-08T13:00:36.000Z</time>
      </trkpt>
      <trkpt lat="42.85728" lon="1.14413">
        <ele>1084</ele>
        <time>2019-08-08T13:00:37.000Z</time>
      </trkpt>
      <trkpt lat="42.8572" lon="1.14424">
        <ele>1084</ele>
        <time>2019-08-08T13:00:38.000Z</time>
      </trkpt>
      <trkpt lat="42.85712" lon="1.14435">
        <ele>1081</ele>
        <time>2019-08-08T13:00:39.000Z</time>
      </trkpt>
      <trkpt lat="42.85705" lon="1.14447">
        <ele>1081</ele>
        <time>2019-08-08T13:00:40.000Z</time>
      </trkpt>
      <trkpt lat="42.85699" lon="1.1446">
        <ele>1079</ele>
        <time>2019-08-08T13:00:41.000Z</time>
      </trkpt>
      <trkpt lat="42.85693" lon="1.14474">
        <ele>1079</ele>
        <time>2019-08-08T13:00:42.000Z</time>
      </trkpt>
      <trkpt lat="42.85689" lon="1.14489">
        <ele>1077</ele>
        <time>2019-08-08T13:00:43.000Z</time>
      </trkpt>
      <trkpt lat="42.85684" lon="1.14504">
        <ele>1077</ele>
        <time>2019-08-08T13:00:44.000Z</time>
      </trkpt>
      <trkpt lat="42.8568" lon="1.14519">
        <ele>1075</ele>
        <time>2019-08-08T13:00:45.000Z</time>
      </trkpt>
      <trkpt lat="42.85676" lon="1.14535">
        <ele>1075</ele>
        <time>2019-08-08T13:00:46.000Z</time>
      </trkpt>
      <trkpt lat="42.85672" lon="1.14551">
        <ele>1073</ele>
        <time>2019-08-08T13:00:47.000Z</time>
      </trkpt>
      <trkpt lat="42.85668" lon="1.14567">
        <ele>1073</ele>
        <time>2019-08-08T13:00:48.000Z</time>
      </trkpt>
      <trkpt lat="42.85665" lon="1.14582">
        <ele>1071</ele>
        <time>2019-08-08T13:00:49.000Z</time>
      </trkpt>
      <trkpt lat="42.8566" lon="1.14605">
        <ele>1071</ele>
        <time>2019-08-08T13:00:50.000Z</time>
      </trkpt>
      <trkpt lat="42.85658" lon="1.14613">
        <ele>1070.4</ele>
        <time>2019-08-08T13:00:51.000Z</time>
      </trkpt>
      <trkpt lat="42.85655" lon="1.14628">
        <ele>1070</ele>
        <time>2019-08-08T13:00:52.000Z</time>
      </trkpt>
      <trkpt lat="42.85651" lon="1.14643">
        <ele>1067</ele>
        <time>2019-08-08T13:00:53.000Z</time>
      </trkpt>
      <trkpt lat="42.85647" lon="1.14658">
        <ele>1067</ele>
        <time>2019-08-08T13:00:54.000Z</time>
      </trkpt>
      <trkpt lat="42.85644" lon="1.14673">
        <ele>1065</ele>
        <time>2019-08-08T13:00:55.000Z</time>
      </trkpt>
      <trkpt lat="42.8564" lon="1.14688">
        <ele>1065</ele>
        <time>2019-08-08T13:00:56.000Z</time>
      </trkpt>
      <trkpt lat="42.85635" lon="1.14711">
        <ele>1063</ele>
        <time>2019-08-08T13:00:57.000Z</time>
      </trkpt>
      <trkpt lat="42.85634" lon="1.14719">
        <ele>1063</ele>
        <time>2019-08-08T13:00:58.000Z</time>
      </trkpt>
      <trkpt lat="42.85631" lon="1.14735">
        <ele>1063</ele>
        <time>2019-08-08T13:00:59.000Z</time>
      </trkpt>
      <trkpt lat="42.85629" lon="1.14751">
        <ele>1062</ele>
        <time>2019-08-08T13:01:00.000Z</time>
      </trkpt>
      <trkpt lat="42.85628" lon="1.14768">
        <ele>1062</ele>
        <time>2019-08-08T13:01:01.000Z</time>
      </trkpt>
      <trkpt lat="42.85628" lon="1.14784">
        <ele>1059</ele>
        <time>2019-08-08T13:01:02.000Z</time>
      </trkpt>
      <trkpt lat="42.85628" lon="1.14801">
        <ele>1059</ele>
        <time>2019-08-08T13:01:03.000Z</time>
      </trkpt>
      <trkpt lat="42.85629" lon="1.14817">
        <ele>1057</ele>
        <time>2019-08-08T13:01:04.000Z</time>
      </trkpt>
      <trkpt lat="42.85631" lon="1.14833">
        <ele>1057</ele>
        <time>2019-08-08T13:01:05.000Z</time>
      </trkpt>
      <trkpt lat="42.85632" lon="1.14849">
        <ele>1056</ele>
        <time>2019-08-08T13:01:06.000Z</time>
      </trkpt>
      <trkpt lat="42.85635" lon="1.14864">
        <ele>1056</ele>
        <time>2019-08-08T13:01:07.000Z</time>
      </trkpt>
      <trkpt lat="42.85637" lon="1.1488">
        <ele>1055</ele>
        <time>2019-08-08T13:01:08.000Z</time>
      </trkpt>
      <trkpt lat="42.85639" lon="1.14895">
        <ele>1055</ele>
        <time>2019-08-08T13:01:09.000Z</time>
      </trkpt>
      <trkpt lat="42.85641" lon="1.14909">
        <ele>1052</ele>
        <time>2019-08-08T13:01:10.000Z</time>
      </trkpt>
      <trkpt lat="42.85643" lon="1.14924">
        <ele>1052</ele>
        <time>2019-08-08T13:01:11.000Z</time>
      </trkpt>
      <trkpt lat="42.85644" lon="1.14938">
        <ele>1052</ele>
        <time>2019-08-08T13:01:12.000Z</time>
      </trkpt>
      <trkpt lat="42.85646" lon="1.14952">
        <ele>1052</ele>
        <time>2019-08-08T13:01:13.000Z</time>
      </trkpt>
      <trkpt lat="42.85648" lon="1.14966">
        <ele>1052</ele>
        <time>2019-08-08T13:01:14.000Z</time>
      </trkpt>
      <trkpt lat="42.85651" lon="1.1498">
        <ele>1052</ele>
        <time>2019-08-08T13:01:15.000Z</time>
      </trkpt>
      <trkpt lat="42.85657" lon="1.14999">
        <ele>1052</ele>
        <time>2019-08-08T13:01:16.000Z</time>
      </trkpt>
      <trkpt lat="42.85659" lon="1.15005">
        <ele>1052</ele>
        <time>2019-08-08T13:01:17.000Z</time>
      </trkpt>
      <trkpt lat="42.85666" lon="1.15014">
        <ele>1052</ele>
        <time>2019-08-08T13:01:18.000Z</time>
      </trkpt>
      <trkpt lat="42.85674" lon="1.1502">
        <ele>1050</ele>
        <time>2019-08-08T13:01:19.000Z</time>
      </trkpt>
      <trkpt lat="42.85683" lon="1.15024">
        <ele>1050</ele>
        <time>2019-08-08T13:01:20.000Z</time>
      </trkpt>
      <trkpt lat="42.85691" lon="1.15029">
        <ele>1050</ele>
        <time>2019-08-08T13:01:21.000Z</time>
      </trkpt>
      <trkpt lat="42.85698" lon="1.15037">
        <ele>1050</ele>
        <time>2019-08-08T13:01:22.000Z</time>
      </trkpt>
      <trkpt lat="42.85706" lon="1.15053">
        <ele>1050</ele>
        <time>2019-08-08T13:01:23.000Z</time>
      </trkpt>
      <trkpt lat="42.85707" lon="1.15058">
        <ele>1050</ele>
        <time>2019-08-08T13:01:24.000Z</time>
      </trkpt>
      <trkpt lat="42.8571" lon="1.1507">
        <ele>1050</ele>
        <time>2019-08-08T13:01:25.000Z</time>
      </trkpt>
      <trkpt lat="42.85712" lon="1.15082">
        <ele>1049</ele>
        <time>2019-08-08T13:01:26.000Z</time>
      </trkpt>
      <trkpt lat="42.85712" lon="1.15094">
        <ele>1049</ele>
        <time>2019-08-08T13:01:27.000Z</time>
      </trkpt>
      <trkpt lat="42.85711" lon="1.15105">
        <ele>1048</ele>
        <time>2019-08-08T13:01:28.000Z</time>
      </trkpt>
      <trkpt lat="42.85709" lon="1.15117">
        <ele>1048</ele>
        <time>2019-08-08T13:01:29.000Z</time>
      </trkpt>
      <trkpt lat="42.85708" lon="1.15129">
        <ele>1047</ele>
        <time>2019-08-08T13:01:30.000Z</time>
      </trkpt>
      <trkpt lat="42.85708" lon="1.15141">
        <ele>1047</ele>
        <time>2019-08-08T13:01:31.000Z</time>
      </trkpt>
      <trkpt lat="42.85709" lon="1.15152">
        <ele>1047</ele>
        <time>2019-08-08T13:01:32.000Z</time>
      </trkpt>
      <trkpt lat="42.85711" lon="1.15164">
        <ele>1047</ele>
        <time>2019-08-08T13:01:33.000Z</time>
      </trkpt>
      <trkpt lat="42.85713" lon="1.15176">
        <ele>1046</ele>
        <time>2019-08-08T13:01:34.000Z</time>
      </trkpt>
      <trkpt lat="42.85715" lon="1.15193">
        <ele>1046</ele>
        <time>2019-08-08T13:01:35.000Z</time>
      </trkpt>
      <trkpt lat="42.85715" lon="1.15198">
        <ele>1046</ele>
        <time>2019-08-08T13:01:36.000Z</time>
      </trkpt>
      <trkpt lat="42.85714" lon="1.1521">
        <ele>1046</ele>
        <time>2019-08-08T13:01:37.000Z</time>
      </trkpt>
      <trkpt lat="42.85713" lon="1.15221">
        <ele>1046</ele>
        <time>2019-08-08T13:01:38.000Z</time>
      </trkpt>
      <trkpt lat="42.85713" lon="1.15231">
        <ele>1046</ele>
        <time>2019-08-08T13:01:39.000Z</time>
      </trkpt>
      <trkpt lat="42.85714" lon="1.15247">
        <ele>1046</ele>
        <time>2019-08-08T13:01:40.000Z</time>
      </trkpt>
      <trkpt lat="42.85714" lon="1.15253">
        <ele>1045.6</ele>
        <time>2019-08-08T13:01:41.000Z</time>
      </trkpt>
      <trkpt lat="42.85715" lon="1.15263">
        <ele>1045</ele>
        <time>2019-08-08T13:01:42.000Z</time>
      </trkpt>
      <trkpt lat="42.85715" lon="1.15274">
        <ele>1045</ele>
        <time>2019-08-08T13:01:43.000Z</time>
      </trkpt>
      <trkpt lat="42.85715" lon="1.15285">
        <ele>1045</ele>
        <time>2019-08-08T13:01:44.000Z</time>
      </trkpt>
      <trkpt lat="42.85715" lon="1.15296">
        <ele>1045</ele>
        <time>2019-08-08T13:01:45.000Z</time>
      </trkpt>
      <trkpt lat="42.85716" lon="1.15307">
        <ele>1044</ele>
        <time>2019-08-08T13:01:46.000Z</time>
      </trkpt>
      <trkpt lat="42.85716" lon="1.15319">
        <ele>1044</ele>
        <time>2019-08-08T13:01:47.000Z</time>
      </trkpt>
      <trkpt lat="42.85716" lon="1.15331">
        <ele>1043</ele>
        <time>2019-08-08T13:01:48.000Z</time>
      </trkpt>
      <trkpt lat="42.85717" lon="1.15343">
        <ele>1043</ele>
        <time>2019-08-08T13:01:49.000Z</time>
      </trkpt>
      <trkpt lat="42.85718" lon="1.15355">
        <ele>1042</ele>
        <time>2019-08-08T13:01:50.000Z</time>
      </trkpt>
      <trkpt lat="42.85719" lon="1.15366">
        <ele>1042</ele>
        <time>2019-08-08T13:01:51.000Z</time>
      </trkpt>
      <trkpt lat="42.8572" lon="1.15378">
        <ele>1042</ele>
        <time>2019-08-08T13:01:52.000Z</time>
      </trkpt>
      <trkpt lat="42.85723" lon="1.1539">
        <ele>1042</ele>
        <time>2019-08-08T13:01:53.000Z</time>
      </trkpt>
      <trkpt lat="42.85726" lon="1.15402">
        <ele>1040</ele>
        <time>2019-08-08T13:01:54.000Z</time>
      </trkpt>
      <trkpt lat="42.85729" lon="1.15413">
        <ele>1040</ele>
        <time>2019-08-08T13:01:55.000Z</time>
      </trkpt>
      <trkpt lat="42.85733" lon="1.15424">
        <ele>1040</ele>
        <time>2019-08-08T13:01:56.000Z</time>
      </trkpt>
      <trkpt lat="42.8574" lon="1.1544">
        <ele>1040</ele>
        <time>2019-08-08T13:01:57.000Z</time>
      </trkpt>
      <trkpt lat="42.85742" lon="1.15445">
        <ele>1039</ele>
        <time>2019-08-08T13:01:58.000Z</time>
      </trkpt>
      <trkpt lat="42.85749" lon="1.15459">
        <ele>1039</ele>
        <time>2019-08-08T13:01:59.000Z</time>
      </trkpt>
      <trkpt lat="42.85751" lon="1.15464">
        <ele>1040</ele>
        <time>2019-08-08T13:02:00.000Z</time>
      </trkpt>
      <trkpt lat="42.85756" lon="1.15473">
        <ele>1040</ele>
        <time>2019-08-08T13:02:01.000Z</time>
      </trkpt>
      <trkpt lat="42.85763" lon="1.15481">
        <ele>1040</ele>
        <time>2019-08-08T13:02:02.000Z</time>
      </trkpt>
      <trkpt lat="42.8577" lon="1.15488">
        <ele>1040</ele>
        <time>2019-08-08T13:02:03.000Z</time>
      </trkpt>
      <trkpt lat="42.85777" lon="1.15496">
        <ele>1040</ele>
        <time>2019-08-08T13:02:04.000Z</time>
      </trkpt>
      <trkpt lat="42.85784" lon="1.15504">
        <ele>1040</ele>
        <time>2019-08-08T13:02:05.000Z</time>
      </trkpt>
      <trkpt lat="42.85789" lon="1.15515">
        <ele>1039</ele>
        <time>2019-08-08T13:02:06.000Z</time>
      </trkpt>
      <trkpt lat="42.85793" lon="1.15526">
        <ele>1039</ele>
        <time>2019-08-08T13:02:07.000Z</time>
      </trkpt>
      <trkpt lat="42.85796" lon="1.15539">
        <ele>1038</ele>
        <time>2019-08-08T13:02:08.000Z</time>
      </trkpt>
      <trkpt lat="42.85799" lon="1.15551">
        <ele>1038</ele>
        <time>2019-08-08T13:02:09.000Z</time>
      </trkpt>
      <trkpt lat="42.85802" lon="1.15563">
        <ele>1037</ele>
        <time>2019-08-08T13:02:10.000Z</time>
      </trkpt>
      <trkpt lat="42.85805" lon="1.15575">
        <ele>1037</ele>
        <time>2019-08-08T13:02:11.000Z</time>
      </trkpt>
      <trkpt lat="42.85808" lon="1.15587">
        <ele>1036</ele>
        <time>2019-08-08T13:02:12.000Z</time>
      </trkpt>
      <trkpt lat="42.85814" lon="1.15605">
        <ele>1036</ele>
        <time>2019-08-08T13:02:13.000Z</time>
      </trkpt>
      <trkpt lat="42.85815" lon="1.15612">
        <ele>1035</ele>
        <time>2019-08-08T13:02:14.000Z</time>
      </trkpt>
      <trkpt lat="42.85819" lon="1.15623">
        <ele>1034</ele>
        <time>2019-08-08T13:02:15.000Z</time>
      </trkpt>
      <trkpt lat="42.85823" lon="1.15635">
        <ele>1034</ele>
        <time>2019-08-08T13:02:16.000Z</time>
      </trkpt>
      <trkpt lat="42.85828" lon="1.15646">
        <ele>1033</ele>
        <time>2019-08-08T13:02:17.000Z</time>
      </trkpt>
      <trkpt lat="42.85833" lon="1.15656">
        <ele>1033</ele>
        <time>2019-08-08T13:02:18.000Z</time>
      </trkpt>
      <trkpt lat="42.85839" lon="1.15667">
        <ele>1033</ele>
        <time>2019-08-08T13:02:19.000Z</time>
      </trkpt>
      <trkpt lat="42.85844" lon="1.15677">
        <ele>1033</ele>
        <time>2019-08-08T13:02:20.000Z</time>
      </trkpt>
      <trkpt lat="42.85849" lon="1.15689">
        <ele>1033</ele>
        <time>2019-08-08T13:02:21.000Z</time>
      </trkpt>
      <trkpt lat="42.85852" lon="1.15701">
        <ele>1033</ele>
        <time>2019-08-08T13:02:22.000Z</time>
      </trkpt>
      <trkpt lat="42.85856" lon="1.15713">
        <ele>1033</ele>
        <time>2019-08-08T13:02:23.000Z</time>
      </trkpt>
      <trkpt lat="42.85859" lon="1.15725">
        <ele>1033</ele>
        <time>2019-08-08T13:02:24.000Z</time>
      </trkpt>
      <trkpt lat="42.85862" lon="1.15745">
        <ele>1031</ele>
        <time>2019-08-08T13:02:25.000Z</time>
      </trkpt>
      <trkpt lat="42.85863" lon="1.15751">
        <ele>1031</ele>
        <time>2019-08-08T13:02:26.000Z</time>
      </trkpt>
      <trkpt lat="42.85864" lon="1.15765">
        <ele>1031</ele>
        <time>2019-08-08T13:02:27.000Z</time>
      </trkpt>
      <trkpt lat="42.85864" lon="1.15778">
        <ele>1031</ele>
        <time>2019-08-08T13:02:28.000Z</time>
      </trkpt>
      <trkpt lat="42.85864" lon="1.15791">
        <ele>1031</ele>
        <time>2019-08-08T13:02:29.000Z</time>
      </trkpt>
      <trkpt lat="42.85863" lon="1.15811">
        <ele>1031</ele>
        <time>2019-08-08T13:02:30.000Z</time>
      </trkpt>
      <trkpt lat="42.85863" lon="1.15817">
        <ele>1030</ele>
        <time>2019-08-08T13:02:31.000Z</time>
      </trkpt>
      <trkpt lat="42.85863" lon="1.1583">
        <ele>1030</ele>
        <time>2019-08-08T13:02:32.000Z</time>
      </trkpt>
      <trkpt lat="42.85863" lon="1.15843">
        <ele>1029</ele>
        <time>2019-08-08T13:02:33.000Z</time>
      </trkpt>
      <trkpt lat="42.85865" lon="1.15855">
        <ele>1029</ele>
        <time>2019-08-08T13:02:34.000Z</time>
      </trkpt>
      <trkpt lat="42.85868" lon="1.15867">
        <ele>1029</ele>
        <time>2019-08-08T13:02:35.000Z</time>
      </trkpt>
      <trkpt lat="42.85873" lon="1.15878">
        <ele>1029</ele>
        <time>2019-08-08T13:02:36.000Z</time>
      </trkpt>
      <trkpt lat="42.85878" lon="1.15887">
        <ele>1028</ele>
        <time>2019-08-08T13:02:37.000Z</time>
      </trkpt>
      <trkpt lat="42.85884" lon="1.15893">
        <ele>1028</ele>
        <time>2019-08-08T13:02:38.000Z</time>
      </trkpt>
      <trkpt lat="42.8589" lon="1.15898">
        <ele>1028</ele>
        <time>2019-08-08T13:02:39.000Z</time>
      </trkpt>
      <trkpt lat="42.85898" lon="1.15901">
        <ele>1028</ele>
        <time>2019-08-08T13:02:40.000Z</time>
      </trkpt>
      <trkpt lat="42.85907" lon="1.15904">
        <ele>1028</ele>
        <time>2019-08-08T13:02:41.000Z</time>
      </trkpt>
      <trkpt lat="42.85915" lon="1.15905">
        <ele>1028</ele>
        <time>2019-08-08T13:02:42.000Z</time>
      </trkpt>
      <trkpt lat="42.85923" lon="1.15905">
        <ele>1028</ele>
        <time>2019-08-08T13:02:43.000Z</time>
      </trkpt>
      <trkpt lat="42.8593" lon="1.15906">
        <ele>1028</ele>
        <time>2019-08-08T13:02:44.000Z</time>
      </trkpt>
      <trkpt lat="42.85938" lon="1.15906">
        <ele>1028</ele>
        <time>2019-08-08T13:02:45.000Z</time>
      </trkpt>
      <trkpt lat="42.85946" lon="1.15909">
        <ele>1028</ele>
        <time>2019-08-08T13:02:46.000Z</time>
      </trkpt>
      <trkpt lat="42.85953" lon="1.15914">
        <ele>1028</ele>
        <time>2019-08-08T13:02:47.000Z</time>
      </trkpt>
      <trkpt lat="42.85958" lon="1.15922">
        <ele>1028</ele>
        <time>2019-08-08T13:02:48.000Z</time>
      </trkpt>
      <trkpt lat="42.85963" lon="1.15931">
        <ele>1028</ele>
        <time>2019-08-08T13:02:49.000Z</time>
      </trkpt>
      <trkpt lat="42.85968" lon="1.15942">
        <ele>1028</ele>
        <time>2019-08-08T13:02:50.000Z</time>
      </trkpt>
      <trkpt lat="42.8597" lon="1.15954">
        <ele>1027</ele>
        <time>2019-08-08T13:02:51.000Z</time>
      </trkpt>
      <trkpt lat="42.85973" lon="1.15967">
        <ele>1027</ele>
        <time>2019-08-08T13:02:52.000Z</time>
      </trkpt>
      <trkpt lat="42.85976" lon="1.15979">
        <ele>1027</ele>
        <time>2019-08-08T13:02:53.000Z</time>
      </trkpt>
      <trkpt lat="42.85978" lon="1.15992">
        <ele>1025</ele>
        <time>2019-08-08T13:02:54.000Z</time>
      </trkpt>
      <trkpt lat="42.85982" lon="1.16005">
        <ele>1025</ele>
        <time>2019-08-08T13:02:55.000Z</time>
      </trkpt>
      <trkpt lat="42.85985" lon="1.16018">
        <ele>1024</ele>
        <time>2019-08-08T13:02:56.000Z</time>
      </trkpt>
      <trkpt lat="42.85989" lon="1.16031">
        <ele>1024</ele>
        <time>2019-08-08T13:02:57.000Z</time>
      </trkpt>
      <trkpt lat="42.85993" lon="1.16044">
        <ele>1022</ele>
        <time>2019-08-08T13:02:58.000Z</time>
      </trkpt>
      <trkpt lat="42.85997" lon="1.16057">
        <ele>1022</ele>
        <time>2019-08-08T13:02:59.000Z</time>
      </trkpt>
      <trkpt lat="42.86" lon="1.16071">
        <ele>1020</ele>
        <time>2019-08-08T13:03:00.000Z</time>
      </trkpt>
      <trkpt lat="42.86003" lon="1.16085">
        <ele>1020</ele>
        <time>2019-08-08T13:03:01.000Z</time>
      </trkpt>
      <trkpt lat="42.86006" lon="1.161">
        <ele>1019</ele>
        <time>2019-08-08T13:03:02.000Z</time>
      </trkpt>
      <trkpt lat="42.86009" lon="1.16114">
        <ele>1019</ele>
        <time>2019-08-08T13:03:03.000Z</time>
      </trkpt>
      <trkpt lat="42.86012" lon="1.16137">
        <ele>1018</ele>
        <time>2019-08-08T13:03:04.000Z</time>
      </trkpt>
      <trkpt lat="42.86013" lon="1.16145">
        <ele>1018</ele>
        <time>2019-08-08T13:03:05.000Z</time>
      </trkpt>
      <trkpt lat="42.86016" lon="1.1616">
        <ele>1015</ele>
        <time>2019-08-08T13:03:06.000Z</time>
      </trkpt>
      <trkpt lat="42.86019" lon="1.16176">
        <ele>1015</ele>
        <time>2019-08-08T13:03:07.000Z</time>
      </trkpt>
      <trkpt lat="42.86022" lon="1.16191">
        <ele>1013</ele>
        <time>2019-08-08T13:03:08.000Z</time>
      </trkpt>
      <trkpt lat="42.86024" lon="1.16207">
        <ele>1013</ele>
        <time>2019-08-08T13:03:09.000Z</time>
      </trkpt>
      <trkpt lat="42.86026" lon="1.16223">
        <ele>1013</ele>
        <time>2019-08-08T13:03:10.000Z</time>
      </trkpt>
      <trkpt lat="42.86027" lon="1.1624">
        <ele>1013</ele>
        <time>2019-08-08T13:03:11.000Z</time>
      </trkpt>
      <trkpt lat="42.86028" lon="1.16255">
        <ele>1013</ele>
        <time>2019-08-08T13:03:12.000Z</time>
      </trkpt>
      <trkpt lat="42.86031" lon="1.16269">
        <ele>1010</ele>
        <time>2019-08-08T13:03:13.000Z</time>
      </trkpt>
      <trkpt lat="42.86035" lon="1.16281">
        <ele>1010</ele>
        <time>2019-08-08T13:03:14.000Z</time>
      </trkpt>
      <trkpt lat="42.86041" lon="1.1629">
        <ele>1009</ele>
        <time>2019-08-08T13:03:15.000Z</time>
      </trkpt>
      <trkpt lat="42.86049" lon="1.16295">
        <ele>1009</ele>
        <time>2019-08-08T13:03:16.000Z</time>
      </trkpt>
      <trkpt lat="42.86058" lon="1.16296">
        <ele>1007</ele>
        <time>2019-08-08T13:03:17.000Z</time>
      </trkpt>
      <trkpt lat="42.86067" lon="1.16294">
        <ele>1007</ele>
        <time>2019-08-08T13:03:18.000Z</time>
      </trkpt>
      <trkpt lat="42.86077" lon="1.1629">
        <ele>1006</ele>
        <time>2019-08-08T13:03:19.000Z</time>
      </trkpt>
      <trkpt lat="42.86092" lon="1.16281">
        <ele>1006</ele>
        <time>2019-08-08T13:03:20.000Z</time>
      </trkpt>
      <trkpt lat="42.86097" lon="1.16277">
        <ele>1005</ele>
        <time>2019-08-08T13:03:21.000Z</time>
      </trkpt>
      <trkpt lat="42.86112" lon="1.1627">
        <ele>1004</ele>
        <time>2019-08-08T13:03:22.000Z</time>
      </trkpt>
      <trkpt lat="42.86117" lon="1.16269">
        <ele>1004</ele>
        <time>2019-08-08T13:03:23.000Z</time>
      </trkpt>
      <trkpt lat="42.86128" lon="1.16268">
        <ele>1003</ele>
        <time>2019-08-08T13:03:24.000Z</time>
      </trkpt>
      <trkpt lat="42.86137" lon="1.16273">
        <ele>1003</ele>
        <time>2019-08-08T13:03:25.000Z</time>
      </trkpt>
      <trkpt lat="42.86145" lon="1.16281">
        <ele>1001</ele>
        <time>2019-08-08T13:03:26.000Z</time>
      </trkpt>
      <trkpt lat="42.86154" lon="1.16289">
        <ele>1001</ele>
        <time>2019-08-08T13:03:27.000Z</time>
      </trkpt>
      <trkpt lat="42.86163" lon="1.16295">
        <ele>1000</ele>
        <time>2019-08-08T13:03:28.000Z</time>
      </trkpt>
      <trkpt lat="42.86173" lon="1.16299">
        <ele>1000</ele>
        <time>2019-08-08T13:03:29.000Z</time>
      </trkpt>
      <trkpt lat="42.86183" lon="1.16303">
        <ele>1000</ele>
        <time>2019-08-08T13:03:30.000Z</time>
      </trkpt>
      <trkpt lat="42.86197" lon="1.16307">
        <ele>1000</ele>
        <time>2019-08-08T13:03:31.000Z</time>
      </trkpt>
      <trkpt lat="42.86202" lon="1.16308">
        <ele>1000</ele>
        <time>2019-08-08T13:03:32.000Z</time>
      </trkpt>
      <trkpt lat="42.86212" lon="1.16309">
        <ele>1000</ele>
        <time>2019-08-08T13:03:33.000Z</time>
      </trkpt>
      <trkpt lat="42.86221" lon="1.1631">
        <ele>999</ele>
        <time>2019-08-08T13:03:34.000Z</time>
      </trkpt>
      <trkpt lat="42.8623" lon="1.16309">
        <ele>999</ele>
        <time>2019-08-08T13:03:35.000Z</time>
      </trkpt>
      <trkpt lat="42.86243" lon="1.16307">
        <ele>999</ele>
        <time>2019-08-08T13:03:36.000Z</time>
      </trkpt>
      <trkpt lat="42.86248" lon="1.16306">
        <ele>999</ele>
        <time>2019-08-08T13:03:37.000Z</time>
      </trkpt>
      <trkpt lat="42.86261" lon="1.16303">
        <ele>999</ele>
        <time>2019-08-08T13:03:38.000Z</time>
      </trkpt>
      <trkpt lat="42.86265" lon="1.16302">
        <ele>999</ele>
        <time>2019-08-08T13:03:39.000Z</time>
      </trkpt>
      <trkpt lat="42.86273" lon="1.16298">
        <ele>999</ele>
        <time>2019-08-08T13:03:40.000Z</time>
      </trkpt>
      <trkpt lat="42.8628" lon="1.16294">
        <ele>999</ele>
        <time>2019-08-08T13:03:41.000Z</time>
      </trkpt>
      <trkpt lat="42.86287" lon="1.1629">
        <ele>999</ele>
        <time>2019-08-08T13:03:42.000Z</time>
      </trkpt>
      <trkpt lat="42.86294" lon="1.16286">
        <ele>999</ele>
        <time>2019-08-08T13:03:43.000Z</time>
      </trkpt>
      <trkpt lat="42.86302" lon="1.16282">
        <ele>999</ele>
        <time>2019-08-08T13:03:44.000Z</time>
      </trkpt>
      <trkpt lat="42.86309" lon="1.16278">
        <ele>999</ele>
        <time>2019-08-08T13:03:45.000Z</time>
      </trkpt>
      <trkpt lat="42.86316" lon="1.16275">
        <ele>999</ele>
        <time>2019-08-08T13:03:46.000Z</time>
      </trkpt>
      <trkpt lat="42.86323" lon="1.16273">
        <ele>1000</ele>
        <time>2019-08-08T13:03:47.000Z</time>
      </trkpt>
      <trkpt lat="42.8633" lon="1.16272">
        <ele>1000</ele>
        <time>2019-08-08T13:03:48.000Z</time>
      </trkpt>
      <trkpt lat="42.86335" lon="1.16275">
        <ele>1000</ele>
        <time>2019-08-08T13:03:49.000Z</time>
      </trkpt>
      <trkpt lat="42.86339" lon="1.16283">
        <ele>1000</ele>
        <time>2019-08-08T13:03:50.000Z</time>
      </trkpt>
      <trkpt lat="42.86342" lon="1.16292">
        <ele>1000</ele>
        <time>2019-08-08T13:03:51.000Z</time>
      </trkpt>
      <trkpt lat="42.86344" lon="1.16303">
        <ele>999</ele>
        <time>2019-08-08T13:03:52.000Z</time>
      </trkpt>
      <trkpt lat="42.86347" lon="1.16313">
        <ele>999</ele>
        <time>2019-08-08T13:03:53.000Z</time>
      </trkpt>
      <trkpt lat="42.8635" lon="1.1633">
        <ele>999</ele>
        <time>2019-08-08T13:03:54.000Z</time>
      </trkpt>
      <trkpt lat="42.86351" lon="1.16336">
        <ele>998</ele>
        <time>2019-08-08T13:03:55.000Z</time>
      </trkpt>
      <trkpt lat="42.86354" lon="1.16347">
        <ele>998</ele>
        <time>2019-08-08T13:03:56.000Z</time>
      </trkpt>
      <trkpt lat="42.86358" lon="1.16358">
        <ele>998</ele>
        <time>2019-08-08T13:03:57.000Z</time>
      </trkpt>
      <trkpt lat="42.86362" lon="1.1637">
        <ele>997</ele>
        <time>2019-08-08T13:03:58.000Z</time>
      </trkpt>
      <trkpt lat="42.86367" lon="1.16381">
        <ele>997</ele>
        <time>2019-08-08T13:03:59.000Z</time>
      </trkpt>
      <trkpt lat="42.86372" lon="1.16393">
        <ele>994</ele>
        <time>2019-08-08T13:04:00.000Z</time>
      </trkpt>
      <trkpt lat="42.86377" lon="1.16405">
        <ele>994</ele>
        <time>2019-08-08T13:04:01.000Z</time>
      </trkpt>
      <trkpt lat="42.86382" lon="1.16418">
        <ele>994</ele>
        <time>2019-08-08T13:04:02.000Z</time>
      </trkpt>
      <trkpt lat="42.86387" lon="1.16431">
        <ele>991</ele>
        <time>2019-08-08T13:04:03.000Z</time>
      </trkpt>
      <trkpt lat="42.86393" lon="1.16443">
        <ele>991</ele>
        <time>2019-08-08T13:04:04.000Z</time>
      </trkpt>
      <trkpt lat="42.86401" lon="1.16456">
        <ele>988</ele>
        <time>2019-08-08T13:04:05.000Z</time>
      </trkpt>
      <trkpt lat="42.86408" lon="1.16468">
        <ele>988</ele>
        <time>2019-08-08T13:04:06.000Z</time>
      </trkpt>
      <trkpt lat="42.86416" lon="1.16478">
        <ele>988</ele>
        <time>2019-08-08T13:04:07.000Z</time>
      </trkpt>
      <trkpt lat="42.86429" lon="1.1649">
        <ele>985</ele>
        <time>2019-08-08T13:04:08.000Z</time>
      </trkpt>
      <trkpt lat="42.86435" lon="1.16492">
        <ele>985</ele>
        <time>2019-08-08T13:04:09.000Z</time>
      </trkpt>
      <trkpt lat="42.86446" lon="1.16496">
        <ele>984</ele>
        <time>2019-08-08T13:04:10.000Z</time>
      </trkpt>
      <trkpt lat="42.86457" lon="1.165">
        <ele>984</ele>
        <time>2019-08-08T13:04:11.000Z</time>
      </trkpt>
      <trkpt lat="42.8647" lon="1.16499">
        <ele>984</ele>
        <time>2019-08-08T13:04:12.000Z</time>
      </trkpt>
      <trkpt lat="42.86482" lon="1.16497">
        <ele>980</ele>
        <time>2019-08-08T13:04:13.000Z</time>
      </trkpt>
      <trkpt lat="42.86495" lon="1.16495">
        <ele>980</ele>
        <time>2019-08-08T13:04:14.000Z</time>
      </trkpt>
      <trkpt lat="42.86508" lon="1.16492">
        <ele>976</ele>
        <time>2019-08-08T13:04:15.000Z</time>
      </trkpt>
      <trkpt lat="42.86527" lon="1.16488">
        <ele>976</ele>
        <time>2019-08-08T13:04:16.000Z</time>
      </trkpt>
      <trkpt lat="42.86533" lon="1.16486">
        <ele>974</ele>
        <time>2019-08-08T13:04:17.000Z</time>
      </trkpt>
      <trkpt lat="42.86545" lon="1.16482">
        <ele>974</ele>
        <time>2019-08-08T13:04:18.000Z</time>
      </trkpt>
      <trkpt lat="42.86556" lon="1.16476">
        <ele>971</ele>
        <time>2019-08-08T13:04:19.000Z</time>
      </trkpt>
      <trkpt lat="42.86567" lon="1.16468">
        <ele>971</ele>
        <time>2019-08-08T13:04:20.000Z</time>
      </trkpt>
      <trkpt lat="42.86578" lon="1.1646">
        <ele>968</ele>
        <time>2019-08-08T13:04:21.000Z</time>
      </trkpt>
      <trkpt lat="42.86589" lon="1.16451">
        <ele>968</ele>
        <time>2019-08-08T13:04:22.000Z</time>
      </trkpt>
      <trkpt lat="42.86601" lon="1.16441">
        <ele>966</ele>
        <time>2019-08-08T13:04:23.000Z</time>
      </trkpt>
      <trkpt lat="42.86614" lon="1.16432">
        <ele>966</ele>
        <time>2019-08-08T13:04:24.000Z</time>
      </trkpt>
      <trkpt lat="42.86633" lon="1.16418">
        <ele>966</ele>
        <time>2019-08-08T13:04:25.000Z</time>
      </trkpt>
      <trkpt lat="42.86639" lon="1.16413">
        <ele>963.6</ele>
        <time>2019-08-08T13:04:26.000Z</time>
      </trkpt>
      <trkpt lat="42.86653" lon="1.16404">
        <ele>961</ele>
        <time>2019-08-08T13:04:27.000Z</time>
      </trkpt>
      <trkpt lat="42.86673" lon="1.16391">
        <ele>961</ele>
        <time>2019-08-08T13:04:28.000Z</time>
      </trkpt>
      <trkpt lat="42.8668" lon="1.16387">
        <ele>956</ele>
        <time>2019-08-08T13:04:29.000Z</time>
      </trkpt>
      <trkpt lat="42.86695" lon="1.16379">
        <ele>956</ele>
        <time>2019-08-08T13:04:30.000Z</time>
      </trkpt>
      <trkpt lat="42.86709" lon="1.16371">
        <ele>956</ele>
        <time>2019-08-08T13:04:31.000Z</time>
      </trkpt>
      <trkpt lat="42.86723" lon="1.16361">
        <ele>950</ele>
        <time>2019-08-08T13:04:32.000Z</time>
      </trkpt>
      <trkpt lat="42.86737" lon="1.16351">
        <ele>950</ele>
        <time>2019-08-08T13:04:33.000Z</time>
      </trkpt>
      <trkpt lat="42.86752" lon="1.16342">
        <ele>950</ele>
        <time>2019-08-08T13:04:34.000Z</time>
      </trkpt>
      <trkpt lat="42.86766" lon="1.16334">
        <ele>947</ele>
        <time>2019-08-08T13:04:35.000Z</time>
      </trkpt>
      <trkpt lat="42.86779" lon="1.16328">
        <ele>947</ele>
        <time>2019-08-08T13:04:36.000Z</time>
      </trkpt>
      <trkpt lat="42.86793" lon="1.16322">
        <ele>947</ele>
        <time>2019-08-08T13:04:37.000Z</time>
      </trkpt>
      <trkpt lat="42.86806" lon="1.16315">
        <ele>943</ele>
        <time>2019-08-08T13:04:38.000Z</time>
      </trkpt>
      <trkpt lat="42.8682" lon="1.16308">
        <ele>943</ele>
        <time>2019-08-08T13:04:39.000Z</time>
      </trkpt>
      <trkpt lat="42.86835" lon="1.16299">
        <ele>943</ele>
        <time>2019-08-08T13:04:40.000Z</time>
      </trkpt>
      <trkpt lat="42.86849" lon="1.16289">
        <ele>940</ele>
        <time>2019-08-08T13:04:41.000Z</time>
      </trkpt>
      <trkpt lat="42.86862" lon="1.1628">
        <ele>940</ele>
        <time>2019-08-08T13:04:42.000Z</time>
      </trkpt>
      <trkpt lat="42.86875" lon="1.16269">
        <ele>937</ele>
        <time>2019-08-08T13:04:43.000Z</time>
      </trkpt>
      <trkpt lat="42.8689" lon="1.16251">
        <ele>937</ele>
        <time>2019-08-08T13:04:44.000Z</time>
      </trkpt>
      <trkpt lat="42.86894" lon="1.16245">
        <ele>937</ele>
        <time>2019-08-08T13:04:45.000Z</time>
      </trkpt>
      <trkpt lat="42.86902" lon="1.16232">
        <ele>937</ele>
        <time>2019-08-08T13:04:46.000Z</time>
      </trkpt>
      <trkpt lat="42.86909" lon="1.1622">
        <ele>934</ele>
        <time>2019-08-08T13:04:47.000Z</time>
      </trkpt>
      <trkpt lat="42.86914" lon="1.16207">
        <ele>934</ele>
        <time>2019-08-08T13:04:48.000Z</time>
      </trkpt>
      <trkpt lat="42.86917" lon="1.16187">
        <ele>932</ele>
        <time>2019-08-08T13:04:49.000Z</time>
      </trkpt>
      <trkpt lat="42.86916" lon="1.16181">
        <ele>932</ele>
        <time>2019-08-08T13:04:50.000Z</time>
      </trkpt>
      <trkpt lat="42.86916" lon="1.16169">
        <ele>932</ele>
        <time>2019-08-08T13:04:51.000Z</time>
      </trkpt>
      <trkpt lat="42.86917" lon="1.16156">
        <ele>932</ele>
        <time>2019-08-08T13:04:52.000Z</time>
      </trkpt>
      <trkpt lat="42.86919" lon="1.16153">
        <ele>932</ele>
        <time>2019-08-08T13:04:53.000Z</time>
      </trkpt>
      <trkpt lat="42.86922" lon="1.16146">
        <ele>932</ele>
        <time>2019-08-08T13:04:54.000Z</time>
      </trkpt>
      <trkpt lat="42.86929" lon="1.16149">
        <ele>932</ele>
        <time>2019-08-08T13:04:55.000Z</time>
      </trkpt>
      <trkpt lat="42.86933" lon="1.16156">
        <ele>932</ele>
        <time>2019-08-08T13:04:56.000Z</time>
      </trkpt>
      <trkpt lat="42.86934" lon="1.16172">
        <ele>932</ele>
        <time>2019-08-08T13:04:57.000Z</time>
      </trkpt>
      <trkpt lat="42.86934" lon="1.16178">
        <ele>930</ele>
        <time>2019-08-08T13:04:58.000Z</time>
      </trkpt>
      <trkpt lat="42.86933" lon="1.1619">
        <ele>930</ele>
        <time>2019-08-08T13:04:59.000Z</time>
      </trkpt>
      <trkpt lat="42.86932" lon="1.16203">
        <ele>929</ele>
        <time>2019-08-08T13:05:00.000Z</time>
      </trkpt>
      <trkpt lat="42.86931" lon="1.16216">
        <ele>929</ele>
        <time>2019-08-08T13:05:01.000Z</time>
      </trkpt>
      <trkpt lat="42.8693" lon="1.1623">
        <ele>929</ele>
        <time>2019-08-08T13:05:02.000Z</time>
      </trkpt>
      <trkpt lat="42.86926" lon="1.16251">
        <ele>926</ele>
        <time>2019-08-08T13:05:03.000Z</time>
      </trkpt>
      <trkpt lat="42.86924" lon="1.16258">
        <ele>926</ele>
        <time>2019-08-08T13:05:04.000Z</time>
      </trkpt>
      <trkpt lat="42.86919" lon="1.16272">
        <ele>926</ele>
        <time>2019-08-08T13:05:05.000Z</time>
      </trkpt>
      <trkpt lat="42.86912" lon="1.16286">
        <ele>923</ele>
        <time>2019-08-08T13:05:06.000Z</time>
      </trkpt>
      <trkpt lat="42.869" lon="1.16306">
        <ele>923</ele>
        <time>2019-08-08T13:05:07.000Z</time>
      </trkpt>
      <trkpt lat="42.86896" lon="1.16312">
        <ele>920</ele>
        <time>2019-08-08T13:05:08.000Z</time>
      </trkpt>
      <trkpt lat="42.86887" lon="1.16325">
        <ele>920</ele>
        <time>2019-08-08T13:05:09.000Z</time>
      </trkpt>
      <trkpt lat="42.86879" lon="1.16337">
        <ele>918</ele>
        <time>2019-08-08T13:05:10.000Z</time>
      </trkpt>
      <trkpt lat="42.86866" lon="1.16354">
        <ele>918</ele>
        <time>2019-08-08T13:05:11.000Z</time>
      </trkpt>
      <trkpt lat="42.86861" lon="1.16359">
        <ele>916</ele>
        <time>2019-08-08T13:05:12.000Z</time>
      </trkpt>
      <trkpt lat="42.86848" lon="1.16374">
        <ele>916</ele>
        <time>2019-08-08T13:05:13.000Z</time>
      </trkpt>
      <trkpt lat="42.86843" lon="1.16379">
        <ele>914</ele>
        <time>2019-08-08T13:05:14.000Z</time>
      </trkpt>
      <trkpt lat="42.86834" lon="1.16388">
        <ele>914</ele>
        <time>2019-08-08T13:05:15.000Z</time>
      </trkpt>
      <trkpt lat="42.86825" lon="1.16396">
        <ele>913</ele>
        <time>2019-08-08T13:05:16.000Z</time>
      </trkpt>
      <trkpt lat="42.86815" lon="1.16404">
        <ele>913</ele>
        <time>2019-08-08T13:05:17.000Z</time>
      </trkpt>
      <trkpt lat="42.86801" lon="1.16415">
        <ele>913</ele>
        <time>2019-08-08T13:05:18.000Z</time>
      </trkpt>
      <trkpt lat="42.86796" lon="1.16419">
        <ele>910</ele>
        <time>2019-08-08T13:05:19.000Z</time>
      </trkpt>
      <trkpt lat="42.86786" lon="1.16426">
        <ele>910</ele>
        <time>2019-08-08T13:05:20.000Z</time>
      </trkpt>
      <trkpt lat="42.86773" lon="1.16437">
        <ele>909</ele>
        <time>2019-08-08T13:05:21.000Z</time>
      </trkpt>
      <trkpt lat="42.86769" lon="1.16441">
        <ele>909</ele>
        <time>2019-08-08T13:05:22.000Z</time>
      </trkpt>
      <trkpt lat="42.8676" lon="1.16448">
        <ele>908</ele>
        <time>2019-08-08T13:05:23.000Z</time>
      </trkpt>
      <trkpt lat="42.86749" lon="1.16457">
        <ele>908</ele>
        <time>2019-08-08T13:05:24.000Z</time>
      </trkpt>
      <trkpt lat="42.86746" lon="1.16459">
        <ele>908</ele>
        <time>2019-08-08T13:05:25.000Z</time>
      </trkpt>
      <trkpt lat="42.86742" lon="1.16466">
        <ele>908</ele>
        <time>2019-08-08T13:05:26.000Z</time>
      </trkpt>
      <trkpt lat="42.86743" lon="1.16473">
        <ele>906</ele>
        <time>2019-08-08T13:05:27.000Z</time>
      </trkpt>
      <trkpt lat="42.86746" lon="1.16477">
        <ele>906</ele>
        <time>2019-08-08T13:05:28.000Z</time>
      </trkpt>
      <trkpt lat="42.86751" lon="1.16475">
        <ele>905</ele>
        <time>2019-08-08T13:05:29.000Z</time>
      </trkpt>
      <trkpt lat="42.86757" lon="1.16471">
        <ele>905</ele>
        <time>2019-08-08T13:05:30.000Z</time>
      </trkpt>
      <trkpt lat="42.86763" lon="1.16465">
        <ele>905</ele>
        <time>2019-08-08T13:05:31.000Z</time>
      </trkpt>
      <trkpt lat="42.86769" lon="1.16459">
        <ele>905</ele>
        <time>2019-08-08T13:05:32.000Z</time>
      </trkpt>
      <trkpt lat="42.86776" lon="1.16454">
        <ele>903</ele>
        <time>2019-08-08T13:05:33.000Z</time>
      </trkpt>
      <trkpt lat="42.86783" lon="1.1645">
        <ele>903</ele>
        <time>2019-08-08T13:05:34.000Z</time>
      </trkpt>
      <trkpt lat="42.86791" lon="1.16446">
        <ele>903</ele>
        <time>2019-08-08T13:05:35.000Z</time>
      </trkpt>
      <trkpt lat="42.86805" lon="1.16442">
        <ele>900</ele>
        <time>2019-08-08T13:05:36.000Z</time>
      </trkpt>
      <trkpt lat="42.8681" lon="1.16441">
        <ele>900</ele>
        <time>2019-08-08T13:05:37.000Z</time>
      </trkpt>
      <trkpt lat="42.8682" lon="1.1644">
        <ele>899</ele>
        <time>2019-08-08T13:05:38.000Z</time>
      </trkpt>
      <trkpt lat="42.86837" lon="1.16437">
        <ele>899</ele>
        <time>2019-08-08T13:05:39.000Z</time>
      </trkpt>
      <trkpt lat="42.86843" lon="1.16435">
        <ele>897</ele>
        <time>2019-08-08T13:05:40.000Z</time>
      </trkpt>
      <trkpt lat="42.86855" lon="1.16432">
        <ele>897</ele>
        <time>2019-08-08T13:05:41.000Z</time>
      </trkpt>
      <trkpt lat="42.86868" lon="1.16428">
        <ele>895</ele>
        <time>2019-08-08T13:05:42.000Z</time>
      </trkpt>
      <trkpt lat="42.86887" lon="1.16421">
        <ele>895</ele>
        <time>2019-08-08T13:05:43.000Z</time>
      </trkpt>
      <trkpt lat="42.86894" lon="1.16418">
        <ele>895</ele>
        <time>2019-08-08T13:05:44.000Z</time>
      </trkpt>
      <trkpt lat="42.86906" lon="1.16413">
        <ele>892</ele>
        <time>2019-08-08T13:05:45.000Z</time>
      </trkpt>
      <trkpt lat="42.86918" lon="1.16407">
        <ele>892</ele>
        <time>2019-08-08T13:05:46.000Z</time>
      </trkpt>
      <trkpt lat="42.86931" lon="1.16401">
        <ele>888</ele>
        <time>2019-08-08T13:05:47.000Z</time>
      </trkpt>
      <trkpt lat="42.86943" lon="1.16395">
        <ele>888</ele>
        <time>2019-08-08T13:05:48.000Z</time>
      </trkpt>
      <trkpt lat="42.86961" lon="1.16385">
        <ele>888</ele>
        <time>2019-08-08T13:05:49.000Z</time>
      </trkpt>
      <trkpt lat="42.86966" lon="1.16382">
        <ele>887</ele>
        <time>2019-08-08T13:05:50.000Z</time>
      </trkpt>
      <trkpt lat="42.86983" lon="1.1637">
        <ele>886</ele>
        <time>2019-08-08T13:05:51.000Z</time>
      </trkpt>
      <trkpt lat="42.86988" lon="1.16367">
        <ele>886</ele>
        <time>2019-08-08T13:05:52.000Z</time>
      </trkpt>
      <trkpt lat="42.86999" lon="1.16359">
        <ele>883</ele>
        <time>2019-08-08T13:05:53.000Z</time>
      </trkpt>
      <trkpt lat="42.8701" lon="1.16352">
        <ele>883</ele>
        <time>2019-08-08T13:05:54.000Z</time>
      </trkpt>
      <trkpt lat="42.87026" lon="1.16342">
        <ele>883</ele>
        <time>2019-08-08T13:05:55.000Z</time>
      </trkpt>
      <trkpt lat="42.8703" lon="1.16339">
        <ele>881</ele>
        <time>2019-08-08T13:05:56.000Z</time>
      </trkpt>
      <trkpt lat="42.8704" lon="1.16331">
        <ele>881</ele>
        <time>2019-08-08T13:05:57.000Z</time>
      </trkpt>
      <trkpt lat="42.87047" lon="1.1632">
        <ele>879</ele>
        <time>2019-08-08T13:05:58.000Z</time>
      </trkpt>
      <trkpt lat="42.87054" lon="1.16309">
        <ele>879</ele>
        <time>2019-08-08T13:05:59.000Z</time>
      </trkpt>
      <trkpt lat="42.87061" lon="1.16289">
        <ele>878</ele>
        <time>2019-08-08T13:06:00.000Z</time>
      </trkpt>
      <trkpt lat="42.87062" lon="1.16282">
        <ele>878</ele>
        <time>2019-08-08T13:06:01.000Z</time>
      </trkpt>
      <trkpt lat="42.87065" lon="1.16267">
        <ele>878</ele>
        <time>2019-08-08T13:06:02.000Z</time>
      </trkpt>
      <trkpt lat="42.87066" lon="1.16252">
        <ele>877</ele>
        <time>2019-08-08T13:06:03.000Z</time>
      </trkpt>
      <trkpt lat="42.87066" lon="1.16231">
        <ele>877</ele>
        <time>2019-08-08T13:06:04.000Z</time>
      </trkpt>
      <trkpt lat="42.87066" lon="1.16224">
        <ele>874</ele>
        <time>2019-08-08T13:06:05.000Z</time>
      </trkpt>
      <trkpt lat="42.87067" lon="1.16204">
        <ele>874</ele>
        <time>2019-08-08T13:06:06.000Z</time>
      </trkpt>
      <trkpt lat="42.87068" lon="1.16197">
        <ele>873.6</ele>
        <time>2019-08-08T13:06:07.000Z</time>
      </trkpt>
      <trkpt lat="42.87072" lon="1.16178">
        <ele>873</ele>
        <time>2019-08-08T13:06:08.000Z</time>
      </trkpt>
      <trkpt lat="42.87074" lon="1.16173">
        <ele>873</ele>
        <time>2019-08-08T13:06:09.000Z</time>
      </trkpt>
      <trkpt lat="42.87078" lon="1.16161">
        <ele>872</ele>
        <time>2019-08-08T13:06:10.000Z</time>
      </trkpt>
      <trkpt lat="42.87085" lon="1.16154">
        <ele>872</ele>
        <time>2019-08-08T13:06:11.000Z</time>
      </trkpt>
      <trkpt lat="42.87093" lon="1.16151">
        <ele>872</ele>
        <time>2019-08-08T13:06:12.000Z</time>
      </trkpt>
      <trkpt lat="42.871" lon="1.16151">
        <ele>872</ele>
        <time>2019-08-08T13:06:13.000Z</time>
      </trkpt>
      <trkpt lat="42.87106" lon="1.16157">
        <ele>872</ele>
        <time>2019-08-08T13:06:14.000Z</time>
      </trkpt>
      <trkpt lat="42.87111" lon="1.16163">
        <ele>872</ele>
        <time>2019-08-08T13:06:15.000Z</time>
      </trkpt>
      <trkpt lat="42.87122" lon="1.16175">
        <ele>872</ele>
        <time>2019-08-08T13:06:16.000Z</time>
      </trkpt>
      <trkpt lat="42.87131" lon="1.16186">
        <ele>870</ele>
        <time>2019-08-08T13:06:17.000Z</time>
      </trkpt>
      <trkpt lat="42.87138" lon="1.16196">
        <ele>870</ele>
        <time>2019-08-08T13:06:18.000Z</time>
      </trkpt>
      <trkpt lat="42.87138" lon="1.16196">
        <ele>869</ele>
        <time>2019-08-08T13:06:19.000Z</time>
      </trkpt>
      <trkpt lat="42.87151" lon="1.16214">
        <ele>869</ele>
        <time>2019-08-08T13:06:20.000Z</time>
      </trkpt>
      <trkpt lat="42.87154" lon="1.16217">
        <ele>869</ele>
        <time>2019-08-08T13:06:21.000Z</time>
      </trkpt>
      <trkpt lat="42.87164" lon="1.16223">
        <ele>867</ele>
        <time>2019-08-08T13:06:22.000Z</time>
      </trkpt>
      <trkpt lat="42.87169" lon="1.16224">
        <ele>867</ele>
        <time>2019-08-08T13:06:23.000Z</time>
      </trkpt>
      <trkpt lat="42.87174" lon="1.16225">
        <ele>866</ele>
        <time>2019-08-08T13:06:24.000Z</time>
      </trkpt>
      <trkpt lat="42.87188" lon="1.16228">
        <ele>866</ele>
        <time>2019-08-08T13:06:25.000Z</time>
      </trkpt>
      <trkpt lat="42.87203" lon="1.16227">
        <ele>866</ele>
        <time>2019-08-08T13:06:26.000Z</time>
      </trkpt>
      <trkpt lat="42.87208" lon="1.16227">
        <ele>863</ele>
        <time>2019-08-08T13:06:27.000Z</time>
      </trkpt>
      <trkpt lat="42.87218" lon="1.16226">
        <ele>863</ele>
        <time>2019-08-08T13:06:28.000Z</time>
      </trkpt>
      <trkpt lat="42.87229" lon="1.16229">
        <ele>861</ele>
        <time>2019-08-08T13:06:29.000Z</time>
      </trkpt>
      <trkpt lat="42.8724" lon="1.16233">
        <ele>861</ele>
        <time>2019-08-08T13:06:30.000Z</time>
      </trkpt>
      <trkpt lat="42.8725" lon="1.16237">
        <ele>860</ele>
        <time>2019-08-08T13:06:31.000Z</time>
      </trkpt>
      <trkpt lat="42.87262" lon="1.16239">
        <ele>860</ele>
        <time>2019-08-08T13:06:32.000Z</time>
      </trkpt>
      <trkpt lat="42.87274" lon="1.16237">
        <ele>859</ele>
        <time>2019-08-08T13:06:33.000Z</time>
      </trkpt>
      <trkpt lat="42.87285" lon="1.16231">
        <ele>859</ele>
        <time>2019-08-08T13:06:34.000Z</time>
      </trkpt>
      <trkpt lat="42.87294" lon="1.16221">
        <ele>858</ele>
        <time>2019-08-08T13:06:35.000Z</time>
      </trkpt>
      <trkpt lat="42.87302" lon="1.16211">
        <ele>858</ele>
        <time>2019-08-08T13:06:36.000Z</time>
      </trkpt>
      <trkpt lat="42.87311" lon="1.162">
        <ele>855</ele>
        <time>2019-08-08T13:06:37.000Z</time>
      </trkpt>
      <trkpt lat="42.87324" lon="1.16184">
        <ele>855</ele>
        <time>2019-08-08T13:06:38.000Z</time>
      </trkpt>
      <trkpt lat="42.87329" lon="1.16178">
        <ele>854</ele>
        <time>2019-08-08T13:06:39.000Z</time>
      </trkpt>
      <trkpt lat="42.87342" lon="1.1616">
        <ele>853</ele>
        <time>2019-08-08T13:06:40.000Z</time>
      </trkpt>
      <trkpt lat="42.87345" lon="1.16153">
        <ele>853</ele>
        <time>2019-08-08T13:06:41.000Z</time>
      </trkpt>
      <trkpt lat="42.87352" lon="1.1614">
        <ele>851</ele>
        <time>2019-08-08T13:06:42.000Z</time>
      </trkpt>
      <trkpt lat="42.87359" lon="1.16128">
        <ele>851</ele>
        <time>2019-08-08T13:06:43.000Z</time>
      </trkpt>
      <trkpt lat="42.87367" lon="1.16119">
        <ele>851</ele>
        <time>2019-08-08T13:06:44.000Z</time>
      </trkpt>
      <trkpt lat="42.87374" lon="1.16116">
        <ele>851</ele>
        <time>2019-08-08T13:06:45.000Z</time>
      </trkpt>
      <trkpt lat="42.87383" lon="1.16119">
        <ele>851</ele>
        <time>2019-08-08T13:06:46.000Z</time>
      </trkpt>
      <trkpt lat="42.87393" lon="1.16127">
        <ele>849</ele>
        <time>2019-08-08T13:06:47.000Z</time>
      </trkpt>
      <trkpt lat="42.87402" lon="1.16139">
        <ele>849</ele>
        <time>2019-08-08T13:06:48.000Z</time>
      </trkpt>
      <trkpt lat="42.87408" lon="1.1615">
        <ele>849</ele>
        <time>2019-08-08T13:06:49.000Z</time>
      </trkpt>
      <trkpt lat="42.87415" lon="1.1616">
        <ele>848</ele>
        <time>2019-08-08T13:06:50.000Z</time>
      </trkpt>
      <trkpt lat="42.87422" lon="1.16172">
        <ele>848</ele>
        <time>2019-08-08T13:06:51.000Z</time>
      </trkpt>
      <trkpt lat="42.8743" lon="1.16182">
        <ele>845</ele>
        <time>2019-08-08T13:06:52.000Z</time>
      </trkpt>
      <trkpt lat="42.8744" lon="1.1619">
        <ele>845</ele>
        <time>2019-08-08T13:06:53.000Z</time>
      </trkpt>
      <trkpt lat="42.87451" lon="1.16197">
        <ele>842</ele>
        <time>2019-08-08T13:06:54.000Z</time>
      </trkpt>
      <trkpt lat="42.87462" lon="1.16202">
        <ele>842</ele>
        <time>2019-08-08T13:06:55.000Z</time>
      </trkpt>
      <trkpt lat="42.87473" lon="1.16205">
        <ele>842</ele>
        <time>2019-08-08T13:06:56.000Z</time>
      </trkpt>
      <trkpt lat="42.8749" lon="1.16202">
        <ele>842</ele>
        <time>2019-08-08T13:06:57.000Z</time>
      </trkpt>
      <trkpt lat="42.87495" lon="1.16199">
        <ele>842</ele>
        <time>2019-08-08T13:06:58.000Z</time>
      </trkpt>
      <trkpt lat="42.87505" lon="1.16193">
        <ele>842</ele>
        <time>2019-08-08T13:06:59.000Z</time>
      </trkpt>
      <trkpt lat="42.87515" lon="1.16187">
        <ele>840</ele>
        <time>2019-08-08T13:07:00.000Z</time>
      </trkpt>
      <trkpt lat="42.87531" lon="1.16182">
        <ele>840</ele>
        <time>2019-08-08T13:07:01.000Z</time>
      </trkpt>
      <trkpt lat="42.87536" lon="1.16182">
        <ele>837</ele>
        <time>2019-08-08T13:07:02.000Z</time>
      </trkpt>
      <trkpt lat="42.87547" lon="1.16184">
        <ele>837</ele>
        <time>2019-08-08T13:07:03.000Z</time>
      </trkpt>
      <trkpt lat="42.87557" lon="1.16187">
        <ele>836</ele>
        <time>2019-08-08T13:07:04.000Z</time>
      </trkpt>
      <trkpt lat="42.87568" lon="1.16192">
        <ele>836</ele>
        <time>2019-08-08T13:07:05.000Z</time>
      </trkpt>
      <trkpt lat="42.87578" lon="1.16197">
        <ele>833</ele>
        <time>2019-08-08T13:07:06.000Z</time>
      </trkpt>
      <trkpt lat="42.87589" lon="1.16207">
        <ele>833</ele>
        <time>2019-08-08T13:07:07.000Z</time>
      </trkpt>
      <trkpt lat="42.87597" lon="1.1622">
        <ele>833</ele>
        <time>2019-08-08T13:07:08.000Z</time>
      </trkpt>
      <trkpt lat="42.87601" lon="1.16235">
        <ele>831</ele>
        <time>2019-08-08T13:07:09.000Z</time>
      </trkpt>
      <trkpt lat="42.87603" lon="1.1625">
        <ele>831</ele>
        <time>2019-08-08T13:07:10.000Z</time>
      </trkpt>
      <trkpt lat="42.87605" lon="1.16267">
        <ele>828</ele>
        <time>2019-08-08T13:07:11.000Z</time>
      </trkpt>
      <trkpt lat="42.87608" lon="1.16284">
        <ele>828</ele>
        <time>2019-08-08T13:07:12.000Z</time>
      </trkpt>
      <trkpt lat="42.87613" lon="1.16301">
        <ele>827</ele>
        <time>2019-08-08T13:07:13.000Z</time>
      </trkpt>
      <trkpt lat="42.87618" lon="1.16318">
        <ele>827</ele>
        <time>2019-08-08T13:07:14.000Z</time>
      </trkpt>
      <trkpt lat="42.87624" lon="1.16335">
        <ele>824</ele>
        <time>2019-08-08T13:07:15.000Z</time>
      </trkpt>
      <trkpt lat="42.87629" lon="1.16352">
        <ele>824</ele>
        <time>2019-08-08T13:07:16.000Z</time>
      </trkpt>
      <trkpt lat="42.87636" lon="1.16368">
        <ele>823</ele>
        <time>2019-08-08T13:07:17.000Z</time>
      </trkpt>
      <trkpt lat="42.87642" lon="1.16383">
        <ele>823</ele>
        <time>2019-08-08T13:07:18.000Z</time>
      </trkpt>
      <trkpt lat="42.87651" lon="1.16397">
        <ele>823</ele>
        <time>2019-08-08T13:07:19.000Z</time>
      </trkpt>
      <trkpt lat="42.87662" lon="1.16408">
        <ele>819</ele>
        <time>2019-08-08T13:07:20.000Z</time>
      </trkpt>
      <trkpt lat="42.87673" lon="1.16417">
        <ele>819</ele>
        <time>2019-08-08T13:07:21.000Z</time>
      </trkpt>
      <trkpt lat="42.87685" lon="1.16426">
        <ele>819</ele>
        <time>2019-08-08T13:07:22.000Z</time>
      </trkpt>
      <trkpt lat="42.87701" lon="1.16439">
        <ele>816</ele>
        <time>2019-08-08T13:07:23.000Z</time>
      </trkpt>
      <trkpt lat="42.87705" lon="1.16444">
        <ele>816</ele>
        <time>2019-08-08T13:07:24.000Z</time>
      </trkpt>
      <trkpt lat="42.87715" lon="1.16461">
        <ele>814</ele>
        <time>2019-08-08T13:07:25.000Z</time>
      </trkpt>
      <trkpt lat="42.87717" lon="1.16468">
        <ele>814</ele>
        <time>2019-08-08T13:07:26.000Z</time>
      </trkpt>
      <trkpt lat="42.87719" lon="1.16482">
        <ele>813</ele>
        <time>2019-08-08T13:07:27.000Z</time>
      </trkpt>
      <trkpt lat="42.87717" lon="1.16496">
        <ele>813</ele>
        <time>2019-08-08T13:07:28.000Z</time>
      </trkpt>
      <trkpt lat="42.87712" lon="1.16509">
        <ele>812</ele>
        <time>2019-08-08T13:07:29.000Z</time>
      </trkpt>
      <trkpt lat="42.87706" lon="1.1653">
        <ele>812</ele>
        <time>2019-08-08T13:07:30.000Z</time>
      </trkpt>
      <trkpt lat="42.87704" lon="1.16538">
        <ele>812</ele>
        <time>2019-08-08T13:07:31.000Z</time>
      </trkpt>
      <trkpt lat="42.87701" lon="1.16553">
        <ele>810</ele>
        <time>2019-08-08T13:07:32.000Z</time>
      </trkpt>
      <trkpt lat="42.87701" lon="1.16568">
        <ele>810</ele>
        <time>2019-08-08T13:07:33.000Z</time>
      </trkpt>
      <trkpt lat="42.87704" lon="1.16584">
        <ele>807</ele>
        <time>2019-08-08T13:07:34.000Z</time>
      </trkpt>
      <trkpt lat="42.8771" lon="1.16599">
        <ele>807</ele>
        <time>2019-08-08T13:07:35.000Z</time>
      </trkpt>
      <trkpt lat="42.87716" lon="1.16623">
        <ele>805</ele>
        <time>2019-08-08T13:07:36.000Z</time>
      </trkpt>
      <trkpt lat="42.87716" lon="1.16632">
        <ele>805</ele>
        <time>2019-08-08T13:07:37.000Z</time>
      </trkpt>
      <trkpt lat="42.87717" lon="1.16649">
        <ele>805</ele>
        <time>2019-08-08T13:07:38.000Z</time>
      </trkpt>
      <trkpt lat="42.87713" lon="1.16666">
        <ele>803</ele>
        <time>2019-08-08T13:07:39.000Z</time>
      </trkpt>
      <trkpt lat="42.87707" lon="1.16682">
        <ele>803</ele>
        <time>2019-08-08T13:07:40.000Z</time>
      </trkpt>
      <trkpt lat="42.87698" lon="1.16696">
        <ele>802</ele>
        <time>2019-08-08T13:07:41.000Z</time>
      </trkpt>
      <trkpt lat="42.87689" lon="1.1671">
        <ele>802</ele>
        <time>2019-08-08T13:07:42.000Z</time>
      </trkpt>
      <trkpt lat="42.87678" lon="1.16721">
        <ele>802</ele>
        <time>2019-08-08T13:07:43.000Z</time>
      </trkpt>
      <trkpt lat="42.87666" lon="1.1673">
        <ele>800</ele>
        <time>2019-08-08T13:07:44.000Z</time>
      </trkpt>
      <trkpt lat="42.87654" lon="1.16738">
        <ele>800</ele>
        <time>2019-08-08T13:07:45.000Z</time>
      </trkpt>
      <trkpt lat="42.87644" lon="1.16748">
        <ele>797</ele>
        <time>2019-08-08T13:07:46.000Z</time>
      </trkpt>
      <trkpt lat="42.87634" lon="1.16758">
        <ele>797</ele>
        <time>2019-08-08T13:07:47.000Z</time>
      </trkpt>
      <trkpt lat="42.87626" lon="1.16779">
        <ele>797</ele>
        <time>2019-08-08T13:07:48.000Z</time>
      </trkpt>
      <trkpt lat="42.87625" lon="1.16787">
        <ele>795</ele>
        <time>2019-08-08T13:07:49.000Z</time>
      </trkpt>
      <trkpt lat="42.87623" lon="1.16803">
        <ele>795</ele>
        <time>2019-08-08T13:07:50.000Z</time>
      </trkpt>
      <trkpt lat="42.87624" lon="1.16819">
        <ele>795</ele>
        <time>2019-08-08T13:07:51.000Z</time>
      </trkpt>
      <trkpt lat="42.87628" lon="1.16835">
        <ele>792</ele>
        <time>2019-08-08T13:07:52.000Z</time>
      </trkpt>
      <trkpt lat="42.87634" lon="1.16849">
        <ele>792</ele>
        <time>2019-08-08T13:07:53.000Z</time>
      </trkpt>
      <trkpt lat="42.87641" lon="1.16863">
        <ele>789</ele>
        <time>2019-08-08T13:07:54.000Z</time>
      </trkpt>
      <trkpt lat="42.87654" lon="1.16882">
        <ele>789</ele>
        <time>2019-08-08T13:07:55.000Z</time>
      </trkpt>
      <trkpt lat="42.87658" lon="1.16889">
        <ele>789</ele>
        <time>2019-08-08T13:07:56.000Z</time>
      </trkpt>
      <trkpt lat="42.87667" lon="1.16903">
        <ele>786</ele>
        <time>2019-08-08T13:07:57.000Z</time>
      </trkpt>
      <trkpt lat="42.87671" lon="1.1693">
        <ele>786</ele>
        <time>2019-08-08T13:07:58.000Z</time>
      </trkpt>
      <trkpt lat="42.8767" lon="1.16938">
        <ele>782</ele>
        <time>2019-08-08T13:07:59.000Z</time>
      </trkpt>
      <trkpt lat="42.8767" lon="1.16956">
        <ele>782</ele>
        <time>2019-08-08T13:08:00.000Z</time>
      </trkpt>
      <trkpt lat="42.87669" lon="1.16974">
        <ele>781</ele>
        <time>2019-08-08T13:08:01.000Z</time>
      </trkpt>
      <trkpt lat="42.87662" lon="1.16999">
        <ele>781</ele>
        <time>2019-08-08T13:08:02.000Z</time>
      </trkpt>
      <trkpt lat="42.87659" lon="1.17007">
        <ele>779</ele>
        <time>2019-08-08T13:08:03.000Z</time>
      </trkpt>
      <trkpt lat="42.87654" lon="1.17024">
        <ele>779</ele>
        <time>2019-08-08T13:08:04.000Z</time>
      </trkpt>
      <trkpt lat="42.87649" lon="1.17041">
        <ele>779</ele>
        <time>2019-08-08T13:08:05.000Z</time>
      </trkpt>
      <trkpt lat="42.87645" lon="1.17068">
        <ele>777</ele>
        <time>2019-08-08T13:08:06.000Z</time>
      </trkpt>
      <trkpt lat="42.87644" lon="1.17077">
        <ele>777</ele>
        <time>2019-08-08T13:08:07.000Z</time>
      </trkpt>
      <trkpt lat="42.87643" lon="1.17095">
        <ele>776</ele>
        <time>2019-08-08T13:08:08.000Z</time>
      </trkpt>
      <trkpt lat="42.87644" lon="1.17123">
        <ele>776</ele>
        <time>2019-08-08T13:08:09.000Z</time>
      </trkpt>
      <trkpt lat="42.87645" lon="1.17132">
        <ele>776</ele>
        <time>2019-08-08T13:08:10.000Z</time>
      </trkpt>
      <trkpt lat="42.87646" lon="1.1715">
        <ele>772</ele>
        <time>2019-08-08T13:08:11.000Z</time>
      </trkpt>
      <trkpt lat="42.87649" lon="1.17168">
        <ele>772</ele>
        <time>2019-08-08T13:08:12.000Z</time>
      </trkpt>
      <trkpt lat="42.87651" lon="1.17185">
        <ele>769</ele>
        <time>2019-08-08T13:08:13.000Z</time>
      </trkpt>
      <trkpt lat="42.87654" lon="1.17202">
        <ele>769</ele>
        <time>2019-08-08T13:08:14.000Z</time>
      </trkpt>
      <trkpt lat="42.87657" lon="1.17229">
        <ele>769</ele>
        <time>2019-08-08T13:08:15.000Z</time>
      </trkpt>
      <trkpt lat="42.87657" lon="1.17238">
        <ele>766</ele>
        <time>2019-08-08T13:08:16.000Z</time>
      </trkpt>
      <trkpt lat="42.87658" lon="1.17257">
        <ele>766</ele>
        <time>2019-08-08T13:08:17.000Z</time>
      </trkpt>
      <trkpt lat="42.87657" lon="1.17275">
        <ele>766</ele>
        <time>2019-08-08T13:08:18.000Z</time>
      </trkpt>
      <trkpt lat="42.87655" lon="1.17293">
        <ele>764</ele>
        <time>2019-08-08T13:08:19.000Z</time>
      </trkpt>
      <trkpt lat="42.87654" lon="1.17311">
        <ele>764</ele>
        <time>2019-08-08T13:08:20.000Z</time>
      </trkpt>
      <trkpt lat="42.87651" lon="1.17338">
        <ele>764</ele>
        <time>2019-08-08T13:08:21.000Z</time>
      </trkpt>
      <trkpt lat="42.8765" lon="1.17348">
        <ele>761</ele>
        <time>2019-08-08T13:08:22.000Z</time>
      </trkpt>
      <trkpt lat="42.87648" lon="1.17366">
        <ele>761</ele>
        <time>2019-08-08T13:08:23.000Z</time>
      </trkpt>
      <trkpt lat="42.87646" lon="1.17385">
        <ele>759</ele>
        <time>2019-08-08T13:08:24.000Z</time>
      </trkpt>
      <trkpt lat="42.87643" lon="1.17404">
        <ele>759</ele>
        <time>2019-08-08T13:08:25.000Z</time>
      </trkpt>
      <trkpt lat="42.87639" lon="1.17433">
        <ele>759</ele>
        <time>2019-08-08T13:08:26.000Z</time>
      </trkpt>
      <trkpt lat="42.87638" lon="1.17442">
        <ele>755</ele>
        <time>2019-08-08T13:08:27.000Z</time>
      </trkpt>
      <trkpt lat="42.87634" lon="1.17461">
        <ele>755</ele>
        <time>2019-08-08T13:08:28.000Z</time>
      </trkpt>
      <trkpt lat="42.87631" lon="1.17478">
        <ele>753</ele>
        <time>2019-08-08T13:08:29.000Z</time>
      </trkpt>
      <trkpt lat="42.87627" lon="1.17495">
        <ele>753</ele>
        <time>2019-08-08T13:08:30.000Z</time>
      </trkpt>
      <trkpt lat="42.87623" lon="1.17517">
        <ele>753</ele>
        <time>2019-08-08T13:08:31.000Z</time>
      </trkpt>
      <trkpt lat="42.87622" lon="1.17524">
        <ele>752</ele>
        <time>2019-08-08T13:08:32.000Z</time>
      </trkpt>
      <trkpt lat="42.8762" lon="1.17538">
        <ele>752</ele>
        <time>2019-08-08T13:08:33.000Z</time>
      </trkpt>
      <trkpt lat="42.87622" lon="1.1755">
        <ele>752</ele>
        <time>2019-08-08T13:08:34.000Z</time>
      </trkpt>
      <trkpt lat="42.87627" lon="1.17562">
        <ele>750</ele>
        <time>2019-08-08T13:08:35.000Z</time>
      </trkpt>
      <trkpt lat="42.87633" lon="1.17572">
        <ele>750</ele>
        <time>2019-08-08T13:08:36.000Z</time>
      </trkpt>
      <trkpt lat="42.87644" lon="1.17585">
        <ele>750</ele>
        <time>2019-08-08T13:08:37.000Z</time>
      </trkpt>
      <trkpt lat="42.87647" lon="1.17589">
        <ele>748</ele>
        <time>2019-08-08T13:08:38.000Z</time>
      </trkpt>
      <trkpt lat="42.87652" lon="1.17597">
        <ele>748</ele>
        <time>2019-08-08T13:08:39.000Z</time>
      </trkpt>
      <trkpt lat="42.87651" lon="1.17606">
        <ele>747</ele>
        <time>2019-08-08T13:08:40.000Z</time>
      </trkpt>
      <trkpt lat="42.87646" lon="1.1761">
        <ele>747</ele>
        <time>2019-08-08T13:08:41.000Z</time>
      </trkpt>
      <trkpt lat="42.8764" lon="1.17609">
        <ele>747</ele>
        <time>2019-08-08T13:08:42.000Z</time>
      </trkpt>
      <trkpt lat="42.87629" lon="1.176">
        <ele>746</ele>
        <time>2019-08-08T13:08:43.000Z</time>
      </trkpt>
      <trkpt lat="42.87626" lon="1.17597">
        <ele>746</ele>
        <time>2019-08-08T13:08:44.000Z</time>
      </trkpt>
      <trkpt lat="42.87619" lon="1.17589">
        <ele>745</ele>
        <time>2019-08-08T13:08:45.000Z</time>
      </trkpt>
      <trkpt lat="42.87611" lon="1.17582">
        <ele>745</ele>
        <time>2019-08-08T13:08:46.000Z</time>
      </trkpt>
      <trkpt lat="42.87604" lon="1.17573">
        <ele>743</ele>
        <time>2019-08-08T13:08:47.000Z</time>
      </trkpt>
      <trkpt lat="42.87596" lon="1.17562">
        <ele>743</ele>
        <time>2019-08-08T13:08:48.000Z</time>
      </trkpt>
      <trkpt lat="42.87591" lon="1.17551">
        <ele>743</ele>
        <time>2019-08-08T13:08:49.000Z</time>
      </trkpt>
      <trkpt lat="42.87587" lon="1.17538">
        <ele>741</ele>
        <time>2019-08-08T13:08:50.000Z</time>
      </trkpt>
      <trkpt lat="42.87584" lon="1.17524">
        <ele>741</ele>
        <time>2019-08-08T13:08:51.000Z</time>
      </trkpt>
      <trkpt lat="42.87581" lon="1.17509">
        <ele>738</ele>
        <time>2019-08-08T13:08:52.000Z</time>
      </trkpt>
      <trkpt lat="42.87577" lon="1.17495">
        <ele>738</ele>
        <time>2019-08-08T13:08:53.000Z</time>
      </trkpt>
      <trkpt lat="42.87575" lon="1.17479">
        <ele>738</ele>
        <time>2019-08-08T13:08:54.000Z</time>
      </trkpt>
      <trkpt lat="42.87572" lon="1.17464">
        <ele>738</ele>
        <time>2019-08-08T13:08:55.000Z</time>
      </trkpt>
      <trkpt lat="42.8757" lon="1.17447">
        <ele>735</ele>
        <time>2019-08-08T13:08:56.000Z</time>
      </trkpt>
      <trkpt lat="42.87569" lon="1.17422">
        <ele>735</ele>
        <time>2019-08-08T13:08:57.000Z</time>
      </trkpt>
      <trkpt lat="42.8757" lon="1.17414">
        <ele>733</ele>
        <time>2019-08-08T13:08:58.000Z</time>
      </trkpt>
      <trkpt lat="42.8757" lon="1.17397">
        <ele>733</ele>
        <time>2019-08-08T13:08:59.000Z</time>
      </trkpt>
      <trkpt lat="42.87572" lon="1.1738">
        <ele>732</ele>
        <time>2019-08-08T13:09:00.000Z</time>
      </trkpt>
      <trkpt lat="42.87572" lon="1.17357">
        <ele>732</ele>
        <time>2019-08-08T13:09:01.000Z</time>
      </trkpt>
      <trkpt lat="42.87572" lon="1.17351">
        <ele>731</ele>
        <time>2019-08-08T13:09:02.000Z</time>
      </trkpt>
      <trkpt lat="42.87571" lon="1.17337">
        <ele>731</ele>
        <time>2019-08-08T13:09:03.000Z</time>
      </trkpt>
      <trkpt lat="42.87567" lon="1.17328">
        <ele>730</ele>
        <time>2019-08-08T13:09:04.000Z</time>
      </trkpt>
      <trkpt lat="42.87561" lon="1.17324">
        <ele>730</ele>
        <time>2019-08-08T13:09:05.000Z</time>
      </trkpt>
      <trkpt lat="42.87554" lon="1.17327">
        <ele>730</ele>
        <time>2019-08-08T13:09:06.000Z</time>
      </trkpt>
      <trkpt lat="42.8755" lon="1.1734">
        <ele>730</ele>
        <time>2019-08-08T13:09:07.000Z</time>
      </trkpt>
      <trkpt lat="42.87549" lon="1.17345">
        <ele>727</ele>
        <time>2019-08-08T13:09:08.000Z</time>
      </trkpt>
      <trkpt lat="42.87548" lon="1.17356">
        <ele>727</ele>
        <time>2019-08-08T13:09:09.000Z</time>
      </trkpt>
      <trkpt lat="42.87547" lon="1.17374">
        <ele>726</ele>
        <time>2019-08-08T13:09:10.000Z</time>
      </trkpt>
      <trkpt lat="42.87547" lon="1.17381">
        <ele>726</ele>
        <time>2019-08-08T13:09:11.000Z</time>
      </trkpt>
      <trkpt lat="42.87545" lon="1.17393">
        <ele>726</ele>
        <time>2019-08-08T13:09:12.000Z</time>
      </trkpt>
      <trkpt lat="42.87542" lon="1.17412">
        <ele>726</ele>
        <time>2019-08-08T13:09:13.000Z</time>
      </trkpt>
      <trkpt lat="42.87541" lon="1.17419">
        <ele>725</ele>
        <time>2019-08-08T13:09:14.000Z</time>
      </trkpt>
      <trkpt lat="42.87538" lon="1.17431">
        <ele>725</ele>
        <time>2019-08-08T13:09:15.000Z</time>
      </trkpt>
      <trkpt lat="42.87534" lon="1.17451">
        <ele>724</ele>
        <time>2019-08-08T13:09:16.000Z</time>
      </trkpt>
      <trkpt lat="42.87533" lon="1.17457">
        <ele>724</ele>
        <time>2019-08-08T13:09:17.000Z</time>
      </trkpt>
      <trkpt lat="42.8753" lon="1.1747">
        <ele>723</ele>
        <time>2019-08-08T13:09:18.000Z</time>
      </trkpt>
      <trkpt lat="42.87524" lon="1.17489">
        <ele>723</ele>
        <time>2019-08-08T13:09:19.000Z</time>
      </trkpt>
      <trkpt lat="42.87521" lon="1.17496">
        <ele>720</ele>
        <time>2019-08-08T13:09:20.000Z</time>
      </trkpt>
      <trkpt lat="42.87517" lon="1.17509">
        <ele>720</ele>
        <time>2019-08-08T13:09:21.000Z</time>
      </trkpt>
      <trkpt lat="42.87512" lon="1.17522">
        <ele>719</ele>
        <time>2019-08-08T13:09:22.000Z</time>
      </trkpt>
      <trkpt lat="42.87507" lon="1.17535">
        <ele>719</ele>
        <time>2019-08-08T13:09:23.000Z</time>
      </trkpt>
      <trkpt lat="42.87502" lon="1.17548">
        <ele>719</ele>
        <time>2019-08-08T13:09:24.000Z</time>
      </trkpt>
      <trkpt lat="42.87498" lon="1.17562">
        <ele>716</ele>
        <time>2019-08-08T13:09:25.000Z</time>
      </trkpt>
      <trkpt lat="42.87494" lon="1.17576">
        <ele>716</ele>
        <time>2019-08-08T13:09:26.000Z</time>
      </trkpt>
      <trkpt lat="42.87487" lon="1.17599">
        <ele>716</ele>
        <time>2019-08-08T13:09:27.000Z</time>
      </trkpt>
      <trkpt lat="42.87485" lon="1.17606">
        <ele>715</ele>
        <time>2019-08-08T13:09:28.000Z</time>
      </trkpt>
      <trkpt lat="42.87482" lon="1.17621">
        <ele>715</ele>
        <time>2019-08-08T13:09:29.000Z</time>
      </trkpt>
      <trkpt lat="42.8748" lon="1.17637">
        <ele>712</ele>
        <time>2019-08-08T13:09:30.000Z</time>
      </trkpt>
      <trkpt lat="42.87479" lon="1.17661">
        <ele>712</ele>
        <time>2019-08-08T13:09:31.000Z</time>
      </trkpt>
      <trkpt lat="42.8748" lon="1.17668">
        <ele>712</ele>
        <time>2019-08-08T13:09:32.000Z</time>
      </trkpt>
      <trkpt lat="42.87481" lon="1.17684">
        <ele>709</ele>
        <time>2019-08-08T13:09:33.000Z</time>
      </trkpt>
      <trkpt lat="42.87486" lon="1.17696">
        <ele>709</ele>
        <time>2019-08-08T13:09:34.000Z</time>
      </trkpt>
      <trkpt lat="42.87493" lon="1.17704">
        <ele>707</ele>
        <time>2019-08-08T13:09:35.000Z</time>
      </trkpt>
      <trkpt lat="42.87503" lon="1.17709">
        <ele>707</ele>
        <time>2019-08-08T13:09:36.000Z</time>
      </trkpt>
      <trkpt lat="42.87513" lon="1.17711">
        <ele>707</ele>
        <time>2019-08-08T13:09:37.000Z</time>
      </trkpt>
      <trkpt lat="42.87523" lon="1.17712">
        <ele>706</ele>
        <time>2019-08-08T13:09:38.000Z</time>
      </trkpt>
      <trkpt lat="42.87533" lon="1.17715">
        <ele>706</ele>
        <time>2019-08-08T13:09:39.000Z</time>
      </trkpt>
      <trkpt lat="42.87543" lon="1.17722">
        <ele>704</ele>
        <time>2019-08-08T13:09:40.000Z</time>
      </trkpt>
      <trkpt lat="42.87549" lon="1.17734">
        <ele>704</ele>
        <time>2019-08-08T13:09:41.000Z</time>
      </trkpt>
      <trkpt lat="42.87555" lon="1.17746">
        <ele>704</ele>
        <time>2019-08-08T13:09:42.000Z</time>
      </trkpt>
      <trkpt lat="42.87556" lon="1.17769">
        <ele>703</ele>
        <time>2019-08-08T13:09:43.000Z</time>
      </trkpt>
      <trkpt lat="42.87556" lon="1.17776">
        <ele>703</ele>
        <time>2019-08-08T13:09:44.000Z</time>
      </trkpt>
      <trkpt lat="42.87555" lon="1.17792">
        <ele>703</ele>
        <time>2019-08-08T13:09:45.000Z</time>
      </trkpt>
      <trkpt lat="42.87553" lon="1.17808">
        <ele>700</ele>
        <time>2019-08-08T13:09:46.000Z</time>
      </trkpt>
      <trkpt lat="42.87552" lon="1.17824">
        <ele>700</ele>
        <time>2019-08-08T13:09:47.000Z</time>
      </trkpt>
      <trkpt lat="42.87549" lon="1.1784">
        <ele>698</ele>
        <time>2019-08-08T13:09:48.000Z</time>
      </trkpt>
      <trkpt lat="42.87546" lon="1.17856">
        <ele>698</ele>
        <time>2019-08-08T13:09:49.000Z</time>
      </trkpt>
      <trkpt lat="42.87543" lon="1.17872">
        <ele>698</ele>
        <time>2019-08-08T13:09:50.000Z</time>
      </trkpt>
      <trkpt lat="42.8754" lon="1.17888">
        <ele>696</ele>
        <time>2019-08-08T13:09:51.000Z</time>
      </trkpt>
      <trkpt lat="42.87535" lon="1.1791">
        <ele>696</ele>
        <time>2019-08-08T13:09:52.000Z</time>
      </trkpt>
      <trkpt lat="42.87534" lon="1.17917">
        <ele>695</ele>
        <time>2019-08-08T13:09:53.000Z</time>
      </trkpt>
      <trkpt lat="42.87532" lon="1.17932">
        <ele>695</ele>
        <time>2019-08-08T13:09:54.000Z</time>
      </trkpt>
      <trkpt lat="42.87532" lon="1.17946">
        <ele>695</ele>
        <time>2019-08-08T13:09:55.000Z</time>
      </trkpt>
      <trkpt lat="42.87534" lon="1.17958">
        <ele>694</ele>
        <time>2019-08-08T13:09:56.000Z</time>
      </trkpt>
      <trkpt lat="42.87537" lon="1.1797">
        <ele>694</ele>
        <time>2019-08-08T13:09:57.000Z</time>
      </trkpt>
      <trkpt lat="42.87541" lon="1.17981">
        <ele>692</ele>
        <time>2019-08-08T13:09:58.000Z</time>
      </trkpt>
      <trkpt lat="42.87546" lon="1.17993">
        <ele>692</ele>
        <time>2019-08-08T13:09:59.000Z</time>
      </trkpt>
      <trkpt lat="42.87551" lon="1.18012">
        <ele>692</ele>
        <time>2019-08-08T13:10:00.000Z</time>
      </trkpt>
      <trkpt lat="42.87551" lon="1.18019">
        <ele>689</ele>
        <time>2019-08-08T13:10:01.000Z</time>
      </trkpt>
      <trkpt lat="42.87551" lon="1.18033">
        <ele>689</ele>
        <time>2019-08-08T13:10:02.000Z</time>
      </trkpt>
      <trkpt lat="42.87547" lon="1.18045">
        <ele>689</ele>
        <time>2019-08-08T13:10:03.000Z</time>
      </trkpt>
      <trkpt lat="42.87539" lon="1.18052">
        <ele>689</ele>
        <time>2019-08-08T13:10:04.000Z</time>
      </trkpt>
      <trkpt lat="42.87531" lon="1.18052">
        <ele>689</ele>
        <time>2019-08-08T13:10:05.000Z</time>
      </trkpt>
      <trkpt lat="42.87522" lon="1.18048">
        <ele>686</ele>
        <time>2019-08-08T13:10:06.000Z</time>
      </trkpt>
      <trkpt lat="42.87515" lon="1.18039">
        <ele>686</ele>
        <time>2019-08-08T13:10:07.000Z</time>
      </trkpt>
      <trkpt lat="42.8751" lon="1.18027">
        <ele>682</ele>
        <time>2019-08-08T13:10:08.000Z</time>
      </trkpt>
      <trkpt lat="42.87506" lon="1.18015">
        <ele>682</ele>
        <time>2019-08-08T13:10:09.000Z</time>
      </trkpt>
      <trkpt lat="42.87502" lon="1.18002">
        <ele>682</ele>
        <time>2019-08-08T13:10:10.000Z</time>
      </trkpt>
      <trkpt lat="42.87498" lon="1.17988">
        <ele>680</ele>
        <time>2019-08-08T13:10:11.000Z</time>
      </trkpt>
      <trkpt lat="42.87495" lon="1.17974">
        <ele>680</ele>
        <time>2019-08-08T13:10:12.000Z</time>
      </trkpt>
      <trkpt lat="42.87492" lon="1.17959">
        <ele>677</ele>
        <time>2019-08-08T13:10:13.000Z</time>
      </trkpt>
      <trkpt lat="42.87488" lon="1.17944">
        <ele>677</ele>
        <time>2019-08-08T13:10:14.000Z</time>
      </trkpt>
      <trkpt lat="42.87485" lon="1.1793">
        <ele>677</ele>
        <time>2019-08-08T13:10:15.000Z</time>
      </trkpt>
      <trkpt lat="42.8748" lon="1.1791">
        <ele>674</ele>
        <time>2019-08-08T13:10:16.000Z</time>
      </trkpt>
      <trkpt lat="42.87479" lon="1.17903">
        <ele>674</ele>
        <time>2019-08-08T13:10:17.000Z</time>
      </trkpt>
      <trkpt lat="42.87475" lon="1.1789">
        <ele>673</ele>
        <time>2019-08-08T13:10:18.000Z</time>
      </trkpt>
      <trkpt lat="42.87472" lon="1.17877">
        <ele>673</ele>
        <time>2019-08-08T13:10:19.000Z</time>
      </trkpt>
      <trkpt lat="42.87466" lon="1.17859">
        <ele>673</ele>
        <time>2019-08-08T13:10:20.000Z</time>
      </trkpt>
      <trkpt lat="42.87463" lon="1.17853">
        <ele>671</ele>
        <time>2019-08-08T13:10:21.000Z</time>
      </trkpt>
      <trkpt lat="42.87457" lon="1.17844">
        <ele>671</ele>
        <time>2019-08-08T13:10:22.000Z</time>
      </trkpt>
      <trkpt lat="42.87448" lon="1.17838">
        <ele>671</ele>
        <time>2019-08-08T13:10:23.000Z</time>
      </trkpt>
      <trkpt lat="42.87435" lon="1.17832">
        <ele>671</ele>
        <time>2019-08-08T13:10:24.000Z</time>
      </trkpt>
      <trkpt lat="42.87431" lon="1.17831">
        <ele>670</ele>
        <time>2019-08-08T13:10:25.000Z</time>
      </trkpt>
      <trkpt lat="42.87423" lon="1.17831">
        <ele>670</ele>
        <time>2019-08-08T13:10:26.000Z</time>
      </trkpt>
      <trkpt lat="42.87415" lon="1.17834">
        <ele>670</ele>
        <time>2019-08-08T13:10:27.000Z</time>
      </trkpt>
      <trkpt lat="42.87409" lon="1.1784">
        <ele>670</ele>
        <time>2019-08-08T13:10:28.000Z</time>
      </trkpt>
      <trkpt lat="42.87403" lon="1.17849">
        <ele>670</ele>
        <time>2019-08-08T13:10:29.000Z</time>
      </trkpt>
      <trkpt lat="42.87399" lon="1.1786">
        <ele>668</ele>
        <time>2019-08-08T13:10:30.000Z</time>
      </trkpt>
      <trkpt lat="42.87395" lon="1.17872">
        <ele>668</ele>
        <time>2019-08-08T13:10:31.000Z</time>
      </trkpt>
      <trkpt lat="42.87392" lon="1.17884">
        <ele>668</ele>
        <time>2019-08-08T13:10:32.000Z</time>
      </trkpt>
      <trkpt lat="42.87388" lon="1.17896">
        <ele>666</ele>
        <time>2019-08-08T13:10:33.000Z</time>
      </trkpt>
      <trkpt lat="42.87384" lon="1.17908">
        <ele>666</ele>
        <time>2019-08-08T13:10:34.000Z</time>
      </trkpt>
      <trkpt lat="42.87379" lon="1.17921">
        <ele>666</ele>
        <time>2019-08-08T13:10:35.000Z</time>
      </trkpt>
      <trkpt lat="42.87374" lon="1.17934">
        <ele>663</ele>
        <time>2019-08-08T13:10:36.000Z</time>
      </trkpt>
      <trkpt lat="42.87369" lon="1.17946">
        <ele>663</ele>
        <time>2019-08-08T13:10:37.000Z</time>
      </trkpt>
      <trkpt lat="42.87362" lon="1.17955">
        <ele>661</ele>
        <time>2019-08-08T13:10:38.000Z</time>
      </trkpt>
      <trkpt lat="42.87352" lon="1.1796">
        <ele>661</ele>
        <time>2019-08-08T13:10:39.000Z</time>
      </trkpt>
      <trkpt lat="42.87342" lon="1.17962">
        <ele>660</ele>
        <time>2019-08-08T13:10:40.000Z</time>
      </trkpt>
      <trkpt lat="42.87333" lon="1.17967">
        <ele>660</ele>
        <time>2019-08-08T13:10:41.000Z</time>
      </trkpt>
      <trkpt lat="42.87327" lon="1.17974">
        <ele>660</ele>
        <time>2019-08-08T13:10:42.000Z</time>
      </trkpt>
      <trkpt lat="42.87324" lon="1.17984">
        <ele>660</ele>
        <time>2019-08-08T13:10:43.000Z</time>
      </trkpt>
      <trkpt lat="42.87324" lon="1.18005">
        <ele>658</ele>
        <time>2019-08-08T13:10:44.000Z</time>
      </trkpt>
      <trkpt lat="42.87325" lon="1.18016">
        <ele>657.6</ele>
        <time>2019-08-08T13:10:46.000Z</time>
      </trkpt>
      <trkpt lat="42.87326" lon="1.18028">
        <ele>657</ele>
        <time>2019-08-08T13:10:47.000Z</time>
      </trkpt>
      <trkpt lat="42.87325" lon="1.18041">
        <ele>657</ele>
        <time>2019-08-08T13:10:48.000Z</time>
      </trkpt>
      <trkpt lat="42.87326" lon="1.18062">
        <ele>656</ele>
        <time>2019-08-08T13:10:49.000Z</time>
      </trkpt>
      <trkpt lat="42.87326" lon="1.18068">
        <ele>656</ele>
        <time>2019-08-08T13:10:50.000Z</time>
      </trkpt>
      <trkpt lat="42.87329" lon="1.18083">
        <ele>653</ele>
        <time>2019-08-08T13:10:51.000Z</time>
      </trkpt>
      <trkpt lat="42.8733" lon="1.18097">
        <ele>653</ele>
        <time>2019-08-08T13:10:52.000Z</time>
      </trkpt>
      <trkpt lat="42.87331" lon="1.18111">
        <ele>653</ele>
        <time>2019-08-08T13:10:53.000Z</time>
      </trkpt>
      <trkpt lat="42.87332" lon="1.18126">
        <ele>653</ele>
        <time>2019-08-08T13:10:54.000Z</time>
      </trkpt>
      <trkpt lat="42.87334" lon="1.1814">
        <ele>652</ele>
        <time>2019-08-08T13:10:55.000Z</time>
      </trkpt>
      <trkpt lat="42.87336" lon="1.18156">
        <ele>652</ele>
        <time>2019-08-08T13:10:56.000Z</time>
      </trkpt>
      <trkpt lat="42.87338" lon="1.18173">
        <ele>650</ele>
        <time>2019-08-08T13:10:57.000Z</time>
      </trkpt>
      <trkpt lat="42.87338" lon="1.18189">
        <ele>650</ele>
        <time>2019-08-08T13:10:58.000Z</time>
      </trkpt>
      <trkpt lat="42.87337" lon="1.18205">
        <ele>649</ele>
        <time>2019-08-08T13:10:59.000Z</time>
      </trkpt>
      <trkpt lat="42.87334" lon="1.18221">
        <ele>649</ele>
        <time>2019-08-08T13:11:00.000Z</time>
      </trkpt>
      <trkpt lat="42.8733" lon="1.18236">
        <ele>646</ele>
        <time>2019-08-08T13:11:01.000Z</time>
      </trkpt>
      <trkpt lat="42.87325" lon="1.18251">
        <ele>646</ele>
        <time>2019-08-08T13:11:02.000Z</time>
      </trkpt>
      <trkpt lat="42.87321" lon="1.18266">
        <ele>644</ele>
        <time>2019-08-08T13:11:03.000Z</time>
      </trkpt>
      <trkpt lat="42.87315" lon="1.1828">
        <ele>644</ele>
        <time>2019-08-08T13:11:04.000Z</time>
      </trkpt>
      <trkpt lat="42.87309" lon="1.18294">
        <ele>643</ele>
        <time>2019-08-08T13:11:05.000Z</time>
      </trkpt>
      <trkpt lat="42.87303" lon="1.18308">
        <ele>643</ele>
        <time>2019-08-08T13:11:06.000Z</time>
      </trkpt>
      <trkpt lat="42.87296" lon="1.18323">
        <ele>643</ele>
        <time>2019-08-08T13:11:07.000Z</time>
      </trkpt>
      <trkpt lat="42.8729" lon="1.18337">
        <ele>641</ele>
        <time>2019-08-08T13:11:08.000Z</time>
      </trkpt>
      <trkpt lat="42.87283" lon="1.18352">
        <ele>641</ele>
        <time>2019-08-08T13:11:09.000Z</time>
      </trkpt>
      <trkpt lat="42.87277" lon="1.18366">
        <ele>639</ele>
        <time>2019-08-08T13:11:10.000Z</time>
      </trkpt>
      <trkpt lat="42.87269" lon="1.1838">
        <ele>639</ele>
        <time>2019-08-08T13:11:11.000Z</time>
      </trkpt>
      <trkpt lat="42.87261" lon="1.18393">
        <ele>638</ele>
        <time>2019-08-08T13:11:12.000Z</time>
      </trkpt>
      <trkpt lat="42.87253" lon="1.18405">
        <ele>638</ele>
        <time>2019-08-08T13:11:13.000Z</time>
      </trkpt>
      <trkpt lat="42.87244" lon="1.18415">
        <ele>635</ele>
        <time>2019-08-08T13:11:14.000Z</time>
      </trkpt>
      <trkpt lat="42.87234" lon="1.18422">
        <ele>635</ele>
        <time>2019-08-08T13:11:15.000Z</time>
      </trkpt>
      <trkpt lat="42.87223" lon="1.18425">
        <ele>635</ele>
        <time>2019-08-08T13:11:16.000Z</time>
      </trkpt>
      <trkpt lat="42.87213" lon="1.18424">
        <ele>635</ele>
        <time>2019-08-08T13:11:17.000Z</time>
      </trkpt>
      <trkpt lat="42.87203" lon="1.18421">
        <ele>635</ele>
        <time>2019-08-08T13:11:18.000Z</time>
      </trkpt>
      <trkpt lat="42.87195" lon="1.1842">
        <ele>635</ele>
        <time>2019-08-08T13:11:19.000Z</time>
      </trkpt>
      <trkpt lat="42.87188" lon="1.18424">
        <ele>635</ele>
        <time>2019-08-08T13:11:20.000Z</time>
      </trkpt>
      <trkpt lat="42.87183" lon="1.18437">
        <ele>635</ele>
        <time>2019-08-08T13:11:21.000Z</time>
      </trkpt>
      <trkpt lat="42.87183" lon="1.18442">
        <ele>632</ele>
        <time>2019-08-08T13:11:22.000Z</time>
      </trkpt>
      <trkpt lat="42.87185" lon="1.18451">
        <ele>632</ele>
        <time>2019-08-08T13:11:23.000Z</time>
      </trkpt>
      <trkpt lat="42.87187" lon="1.18462">
        <ele>630</ele>
        <time>2019-08-08T13:11:24.000Z</time>
      </trkpt>
      <trkpt lat="42.87189" lon="1.18473">
        <ele>630</ele>
        <time>2019-08-08T13:11:25.000Z</time>
      </trkpt>
      <trkpt lat="42.8719" lon="1.18485">
        <ele>630</ele>
        <time>2019-08-08T13:11:26.000Z</time>
      </trkpt>
      <trkpt lat="42.87189" lon="1.18498">
        <ele>629</ele>
        <time>2019-08-08T13:11:27.000Z</time>
      </trkpt>
      <trkpt lat="42.87187" lon="1.1851">
        <ele>629</ele>
        <time>2019-08-08T13:11:28.000Z</time>
      </trkpt>
      <trkpt lat="42.87183" lon="1.18522">
        <ele>627</ele>
        <time>2019-08-08T13:11:29.000Z</time>
      </trkpt>
      <trkpt lat="42.87177" lon="1.18532">
        <ele>627</ele>
        <time>2019-08-08T13:11:30.000Z</time>
      </trkpt>
      <trkpt lat="42.87169" lon="1.18541">
        <ele>626</ele>
        <time>2019-08-08T13:11:31.000Z</time>
      </trkpt>
      <trkpt lat="42.8716" lon="1.18548">
        <ele>626</ele>
        <time>2019-08-08T13:11:32.000Z</time>
      </trkpt>
      <trkpt lat="42.8715" lon="1.18553">
        <ele>626</ele>
        <time>2019-08-08T13:11:33.000Z</time>
      </trkpt>
      <trkpt lat="42.8714" lon="1.18556">
        <ele>626</ele>
        <time>2019-08-08T13:11:34.000Z</time>
      </trkpt>
      <trkpt lat="42.8713" lon="1.18558">
        <ele>624</ele>
        <time>2019-08-08T13:11:35.000Z</time>
      </trkpt>
      <trkpt lat="42.87119" lon="1.18561">
        <ele>624</ele>
        <time>2019-08-08T13:11:36.000Z</time>
      </trkpt>
      <trkpt lat="42.87105" lon="1.18571">
        <ele>624</ele>
        <time>2019-08-08T13:11:37.000Z</time>
      </trkpt>
      <trkpt lat="42.871" lon="1.18576">
        <ele>622</ele>
        <time>2019-08-08T13:11:38.000Z</time>
      </trkpt>
      <trkpt lat="42.87091" lon="1.18584">
        <ele>622</ele>
        <time>2019-08-08T13:11:39.000Z</time>
      </trkpt>
      <trkpt lat="42.87082" lon="1.18594">
        <ele>621</ele>
        <time>2019-08-08T13:11:40.000Z</time>
      </trkpt>
      <trkpt lat="42.87074" lon="1.18603">
        <ele>621</ele>
        <time>2019-08-08T13:11:41.000Z</time>
      </trkpt>
      <trkpt lat="42.8706" lon="1.18618">
        <ele>621</ele>
        <time>2019-08-08T13:11:42.000Z</time>
      </trkpt>
      <trkpt lat="42.87055" lon="1.18623">
        <ele>618</ele>
        <time>2019-08-08T13:11:43.000Z</time>
      </trkpt>
      <trkpt lat="42.87046" lon="1.18634">
        <ele>617</ele>
        <time>2019-08-08T13:11:44.000Z</time>
      </trkpt>
      <trkpt lat="42.87037" lon="1.18645">
        <ele>617</ele>
        <time>2019-08-08T13:11:45.000Z</time>
      </trkpt>
      <trkpt lat="42.87029" lon="1.18657">
        <ele>616</ele>
        <time>2019-08-08T13:11:46.000Z</time>
      </trkpt>
      <trkpt lat="42.87022" lon="1.1867">
        <ele>616</ele>
        <time>2019-08-08T13:11:47.000Z</time>
      </trkpt>
      <trkpt lat="42.87016" lon="1.18684">
        <ele>614</ele>
        <time>2019-08-08T13:11:48.000Z</time>
      </trkpt>
      <trkpt lat="42.87011" lon="1.18699">
        <ele>614</ele>
        <time>2019-08-08T13:11:49.000Z</time>
      </trkpt>
      <trkpt lat="42.87007" lon="1.18714">
        <ele>613</ele>
        <time>2019-08-08T13:11:50.000Z</time>
      </trkpt>
      <trkpt lat="42.87003" lon="1.18728">
        <ele>613</ele>
        <time>2019-08-08T13:11:51.000Z</time>
      </trkpt>
      <trkpt lat="42.86998" lon="1.18741">
        <ele>610</ele>
        <time>2019-08-08T13:11:52.000Z</time>
      </trkpt>
      <trkpt lat="42.86992" lon="1.18753">
        <ele>610</ele>
        <time>2019-08-08T13:11:53.000Z</time>
      </trkpt>
      <trkpt lat="42.86979" lon="1.18768">
        <ele>610</ele>
        <time>2019-08-08T13:11:54.000Z</time>
      </trkpt>
      <trkpt lat="42.86974" lon="1.18773">
        <ele>609</ele>
        <time>2019-08-08T13:11:55.000Z</time>
      </trkpt>
      <trkpt lat="42.86966" lon="1.18783">
        <ele>609</ele>
        <time>2019-08-08T13:11:56.000Z</time>
      </trkpt>
      <trkpt lat="42.86958" lon="1.18795">
        <ele>608</ele>
        <time>2019-08-08T13:11:57.000Z</time>
      </trkpt>
      <trkpt lat="42.86952" lon="1.18808">
        <ele>608</ele>
        <time>2019-08-08T13:11:58.000Z</time>
      </trkpt>
      <trkpt lat="42.86945" lon="1.18821">
        <ele>605</ele>
        <time>2019-08-08T13:11:59.000Z</time>
      </trkpt>
      <trkpt lat="42.86939" lon="1.18834">
        <ele>605</ele>
        <time>2019-08-08T13:12:00.000Z</time>
      </trkpt>
      <trkpt lat="42.86932" lon="1.18847">
        <ele>603</ele>
        <time>2019-08-08T13:12:01.000Z</time>
      </trkpt>
      <trkpt lat="42.86924" lon="1.18869">
        <ele>603</ele>
        <time>2019-08-08T13:12:02.000Z</time>
      </trkpt>
      <trkpt lat="42.86922" lon="1.18876">
        <ele>603</ele>
        <time>2019-08-08T13:12:03.000Z</time>
      </trkpt>
      <trkpt lat="42.86919" lon="1.18892">
        <ele>601</ele>
        <time>2019-08-08T13:12:04.000Z</time>
      </trkpt>
      <trkpt lat="42.86916" lon="1.18907">
        <ele>601</ele>
        <time>2019-08-08T13:12:05.000Z</time>
      </trkpt>
      <trkpt lat="42.86913" lon="1.18923">
        <ele>599</ele>
        <time>2019-08-08T13:12:06.000Z</time>
      </trkpt>
      <trkpt lat="42.86909" lon="1.18938">
        <ele>599</ele>
        <time>2019-08-08T13:12:07.000Z</time>
      </trkpt>
      <trkpt lat="42.86905" lon="1.18953">
        <ele>599</ele>
        <time>2019-08-08T13:12:08.000Z</time>
      </trkpt>
      <trkpt lat="42.869" lon="1.18969">
        <ele>599</ele>
        <time>2019-08-08T13:12:09.000Z</time>
      </trkpt>
      <trkpt lat="42.86894" lon="1.18984">
        <ele>597</ele>
        <time>2019-08-08T13:12:10.000Z</time>
      </trkpt>
      <trkpt lat="42.86887" lon="1.18998">
        <ele>597</ele>
        <time>2019-08-08T13:12:11.000Z</time>
      </trkpt>
      <trkpt lat="42.86877" lon="1.19019">
        <ele>595</ele>
        <time>2019-08-08T13:12:12.000Z</time>
      </trkpt>
      <trkpt lat="42.86873" lon="1.19026">
        <ele>595</ele>
        <time>2019-08-08T13:12:13.000Z</time>
      </trkpt>
      <trkpt lat="42.86865" lon="1.1904">
        <ele>592</ele>
        <time>2019-08-08T13:12:14.000Z</time>
      </trkpt>
      <trkpt lat="42.86856" lon="1.19053">
        <ele>592</ele>
        <time>2019-08-08T13:12:15.000Z</time>
      </trkpt>
      <trkpt lat="42.86847" lon="1.19066">
        <ele>591</ele>
        <time>2019-08-08T13:12:16.000Z</time>
      </trkpt>
      <trkpt lat="42.86838" lon="1.19078">
        <ele>591</ele>
        <time>2019-08-08T13:12:17.000Z</time>
      </trkpt>
      <trkpt lat="42.86829" lon="1.19089">
        <ele>590</ele>
        <time>2019-08-08T13:12:18.000Z</time>
      </trkpt>
      <trkpt lat="42.86819" lon="1.191">
        <ele>590</ele>
        <time>2019-08-08T13:12:19.000Z</time>
      </trkpt>
      <trkpt lat="42.8681" lon="1.1911">
        <ele>590</ele>
        <time>2019-08-08T13:12:20.000Z</time>
      </trkpt>
      <trkpt lat="42.86803" lon="1.19122">
        <ele>590</ele>
        <time>2019-08-08T13:12:21.000Z</time>
      </trkpt>
      <trkpt lat="42.86795" lon="1.19134">
        <ele>590</ele>
        <time>2019-08-08T13:12:22.000Z</time>
      </trkpt>
      <trkpt lat="42.86791" lon="1.19149">
        <ele>587</ele>
        <time>2019-08-08T13:12:23.000Z</time>
      </trkpt>
      <trkpt lat="42.86786" lon="1.19171">
        <ele>587</ele>
        <time>2019-08-08T13:12:24.000Z</time>
      </trkpt>
      <trkpt lat="42.86783" lon="1.19178">
        <ele>587</ele>
        <time>2019-08-08T13:12:25.000Z</time>
      </trkpt>
      <trkpt lat="42.86779" lon="1.19192">
        <ele>585</ele>
        <time>2019-08-08T13:12:26.000Z</time>
      </trkpt>
      <trkpt lat="42.86768" lon="1.1921">
        <ele>585</ele>
        <time>2019-08-08T13:12:27.000Z</time>
      </trkpt>
      <trkpt lat="42.86764" lon="1.19216">
        <ele>585</ele>
        <time>2019-08-08T13:12:28.000Z</time>
      </trkpt>
      <trkpt lat="42.86757" lon="1.19228">
        <ele>585</ele>
        <time>2019-08-08T13:12:29.000Z</time>
      </trkpt>
      <trkpt lat="42.8675" lon="1.1924">
        <ele>583</ele>
        <time>2019-08-08T13:12:30.000Z</time>
      </trkpt>
      <trkpt lat="42.86743" lon="1.19253">
        <ele>583</ele>
        <time>2019-08-08T13:12:31.000Z</time>
      </trkpt>
      <trkpt lat="42.86737" lon="1.19267">
        <ele>582</ele>
        <time>2019-08-08T13:12:32.000Z</time>
      </trkpt>
      <trkpt lat="42.86731" lon="1.19281">
        <ele>582</ele>
        <time>2019-08-08T13:12:33.000Z</time>
      </trkpt>
      <trkpt lat="42.86725" lon="1.19295">
        <ele>580</ele>
        <time>2019-08-08T13:12:34.000Z</time>
      </trkpt>
      <trkpt lat="42.86718" lon="1.19309">
        <ele>580</ele>
        <time>2019-08-08T13:12:35.000Z</time>
      </trkpt>
      <trkpt lat="42.8671" lon="1.19322">
        <ele>579</ele>
        <time>2019-08-08T13:12:36.000Z</time>
      </trkpt>
      <trkpt lat="42.86702" lon="1.19336">
        <ele>579</ele>
        <time>2019-08-08T13:12:37.000Z</time>
      </trkpt>
      <trkpt lat="42.86694" lon="1.19349">
        <ele>575</ele>
        <time>2019-08-08T13:12:38.000Z</time>
      </trkpt>
      <trkpt lat="42.86681" lon="1.19371">
        <ele>575</ele>
        <time>2019-08-08T13:12:39.000Z</time>
      </trkpt>
      <trkpt lat="42.86677" lon="1.19379">
        <ele>574</ele>
        <time>2019-08-08T13:12:40.000Z</time>
      </trkpt>
      <trkpt lat="42.86669" lon="1.19394">
        <ele>573</ele>
        <time>2019-08-08T13:12:41.000Z</time>
      </trkpt>
      <trkpt lat="42.8666" lon="1.19409">
        <ele>571</ele>
        <time>2019-08-08T13:12:42.000Z</time>
      </trkpt>
      <trkpt lat="42.86648" lon="1.19433">
        <ele>571</ele>
        <time>2019-08-08T13:12:43.000Z</time>
      </trkpt>
      <trkpt lat="42.86644" lon="1.19441">
        <ele>570</ele>
        <time>2019-08-08T13:12:44.000Z</time>
      </trkpt>
      <trkpt lat="42.86636" lon="1.19457">
        <ele>570</ele>
        <time>2019-08-08T13:12:45.000Z</time>
      </trkpt>
      <trkpt lat="42.86628" lon="1.19473">
        <ele>568</ele>
        <time>2019-08-08T13:12:46.000Z</time>
      </trkpt>
      <trkpt lat="42.86621" lon="1.19489">
        <ele>568</ele>
        <time>2019-08-08T13:12:47.000Z</time>
      </trkpt>
      <trkpt lat="42.86613" lon="1.19505">
        <ele>565</ele>
        <time>2019-08-08T13:12:48.000Z</time>
      </trkpt>
      <trkpt lat="42.86606" lon="1.19521">
        <ele>565</ele>
        <time>2019-08-08T13:12:49.000Z</time>
      </trkpt>
      <trkpt lat="42.86599" lon="1.19538">
        <ele>564</ele>
        <time>2019-08-08T13:12:50.000Z</time>
      </trkpt>
      <trkpt lat="42.86592" lon="1.19554">
        <ele>564</ele>
        <time>2019-08-08T13:12:51.000Z</time>
      </trkpt>
      <trkpt lat="42.86587" lon="1.1957">
        <ele>563</ele>
        <time>2019-08-08T13:12:52.000Z</time>
      </trkpt>
      <trkpt lat="42.86582" lon="1.19587">
        <ele>563</ele>
        <time>2019-08-08T13:12:53.000Z</time>
      </trkpt>
      <trkpt lat="42.86577" lon="1.19603">
        <ele>563</ele>
        <time>2019-08-08T13:12:54.000Z</time>
      </trkpt>
      <trkpt lat="42.86574" lon="1.19619">
        <ele>563</ele>
        <time>2019-08-08T13:12:55.000Z</time>
      </trkpt>
      <trkpt lat="42.86573" lon="1.19634">
        <ele>563</ele>
        <time>2019-08-08T13:12:56.000Z</time>
      </trkpt>
      <trkpt lat="42.86572" lon="1.1965">
        <ele>563</ele>
        <time>2019-08-08T13:12:57.000Z</time>
      </trkpt>
      <trkpt lat="42.86572" lon="1.19672">
        <ele>563</ele>
        <time>2019-08-08T13:12:58.000Z</time>
      </trkpt>
      <trkpt lat="42.86572" lon="1.19679">
        <ele>563</ele>
        <time>2019-08-08T13:12:59.000Z</time>
      </trkpt>
      <trkpt lat="42.86571" lon="1.19694">
        <ele>564</ele>
        <time>2019-08-08T13:13:00.000Z</time>
      </trkpt>
      <trkpt lat="42.86572" lon="1.19714">
        <ele>564</ele>
        <time>2019-08-08T13:13:01.000Z</time>
      </trkpt>
      <trkpt lat="42.86572" lon="1.1972">
        <ele>564</ele>
        <time>2019-08-08T13:13:02.000Z</time>
      </trkpt>
      <trkpt lat="42.86572" lon="1.19732">
        <ele>564</ele>
        <time>2019-08-08T13:13:03.000Z</time>
      </trkpt>
      <trkpt lat="42.86571" lon="1.19744">
        <ele>564</ele>
        <time>2019-08-08T13:13:04.000Z</time>
      </trkpt>
      <trkpt lat="42.86569" lon="1.19755">
        <ele>564</ele>
        <time>2019-08-08T13:13:05.000Z</time>
      </trkpt>
      <trkpt lat="42.86567" lon="1.19764">
        <ele>564</ele>
        <time>2019-08-08T13:13:06.000Z</time>
      </trkpt>
      <trkpt lat="42.86565" lon="1.19774">
        <ele>564</ele>
        <time>2019-08-08T13:13:07.000Z</time>
      </trkpt>
      <trkpt lat="42.86564" lon="1.19784">
        <ele>564</ele>
        <time>2019-08-08T13:13:08.000Z</time>
      </trkpt>
      <trkpt lat="42.86563" lon="1.19792">
        <ele>564</ele>
        <time>2019-08-08T13:13:09.000Z</time>
      </trkpt>
      <trkpt lat="42.86562" lon="1.19801">
        <ele>565</ele>
        <time>2019-08-08T13:13:10.000Z</time>
      </trkpt>
      <trkpt lat="42.86561" lon="1.19809">
        <ele>565</ele>
        <time>2019-08-08T13:13:11.000Z</time>
      </trkpt>
      <trkpt lat="42.86559" lon="1.19817">
        <ele>566</ele>
        <time>2019-08-08T13:13:12.000Z</time>
      </trkpt>
      <trkpt lat="42.86557" lon="1.19825">
        <ele>566</ele>
        <time>2019-08-08T13:13:13.000Z</time>
      </trkpt>
      <trkpt lat="42.86554" lon="1.19832">
        <ele>566</ele>
        <time>2019-08-08T13:13:14.000Z</time>
      </trkpt>
      <trkpt lat="42.86551" lon="1.1984">
        <ele>566</ele>
        <time>2019-08-08T13:13:15.000Z</time>
      </trkpt>
      <trkpt lat="42.86548" lon="1.19847">
        <ele>566</ele>
        <time>2019-08-08T13:13:16.000Z</time>
      </trkpt>
      <trkpt lat="42.86543" lon="1.1986">
        <ele>566</ele>
        <time>2019-08-08T13:13:17.000Z</time>
      </trkpt>
      <trkpt lat="42.86541" lon="1.19864">
        <ele>565</ele>
        <time>2019-08-08T13:13:18.000Z</time>
      </trkpt>
      <trkpt lat="42.86539" lon="1.19873">
        <ele>565</ele>
        <time>2019-08-08T13:13:19.000Z</time>
      </trkpt>
      <trkpt lat="42.86537" lon="1.19883">
        <ele>564</ele>
        <time>2019-08-08T13:13:20.000Z</time>
      </trkpt>
      <trkpt lat="42.86535" lon="1.19893">
        <ele>564</ele>
        <time>2019-08-08T13:13:21.000Z</time>
      </trkpt>
      <trkpt lat="42.86534" lon="1.19904">
        <ele>564</ele>
        <time>2019-08-08T13:13:22.000Z</time>
      </trkpt>
      <trkpt lat="42.86534" lon="1.19914">
        <ele>564</ele>
        <time>2019-08-08T13:13:23.000Z</time>
      </trkpt>
      <trkpt lat="42.86536" lon="1.19924">
        <ele>563</ele>
        <time>2019-08-08T13:13:24.000Z</time>
      </trkpt>
      <trkpt lat="42.86536" lon="1.1994">
        <ele>563</ele>
        <time>2019-08-08T13:13:25.000Z</time>
      </trkpt>
      <trkpt lat="42.86536" lon="1.19945">
        <ele>563</ele>
        <time>2019-08-08T13:13:26.000Z</time>
      </trkpt>
      <trkpt lat="42.86535" lon="1.19953">
        <ele>563</ele>
        <time>2019-08-08T13:13:27.000Z</time>
      </trkpt>
      <trkpt lat="42.86532" lon="1.19961">
        <ele>563</ele>
        <time>2019-08-08T13:13:28.000Z</time>
      </trkpt>
      <trkpt lat="42.86529" lon="1.19969">
        <ele>563</ele>
        <time>2019-08-08T13:13:29.000Z</time>
      </trkpt>
      <trkpt lat="42.86524" lon="1.19977">
        <ele>562</ele>
        <time>2019-08-08T13:13:30.000Z</time>
      </trkpt>
      <trkpt lat="42.86519" lon="1.19986">
        <ele>562</ele>
        <time>2019-08-08T13:13:31.000Z</time>
      </trkpt>
      <trkpt lat="42.86514" lon="1.19996">
        <ele>561</ele>
        <time>2019-08-08T13:13:32.000Z</time>
      </trkpt>
      <trkpt lat="42.86509" lon="1.20005">
        <ele>561</ele>
        <time>2019-08-08T13:13:33.000Z</time>
      </trkpt>
      <trkpt lat="42.86505" lon="1.20015">
        <ele>558</ele>
        <time>2019-08-08T13:13:34.000Z</time>
      </trkpt>
      <trkpt lat="42.86501" lon="1.20024">
        <ele>558</ele>
        <time>2019-08-08T13:13:35.000Z</time>
      </trkpt>
      <trkpt lat="42.86497" lon="1.20034">
        <ele>556</ele>
        <time>2019-08-08T13:13:36.000Z</time>
      </trkpt>
      <trkpt lat="42.8649" lon="1.20047">
        <ele>556</ele>
        <time>2019-08-08T13:13:37.000Z</time>
      </trkpt>
      <trkpt lat="42.86488" lon="1.20052">
        <ele>556</ele>
        <time>2019-08-08T13:13:38.000Z</time>
      </trkpt>
      <trkpt lat="42.86483" lon="1.2006">
        <ele>556</ele>
        <time>2019-08-08T13:13:39.000Z</time>
      </trkpt>
      <trkpt lat="42.86477" lon="1.20068">
        <ele>556</ele>
        <time>2019-08-08T13:13:40.000Z</time>
      </trkpt>
      <trkpt lat="42.86472" lon="1.20075">
        <ele>556</ele>
        <time>2019-08-08T13:13:41.000Z</time>
      </trkpt>
      <trkpt lat="42.86467" lon="1.20082">
        <ele>555</ele>
        <time>2019-08-08T13:13:42.000Z</time>
      </trkpt>
      <trkpt lat="42.86462" lon="1.20087">
        <ele>555</ele>
        <time>2019-08-08T13:13:43.000Z</time>
      </trkpt>
      <trkpt lat="42.86457" lon="1.20093">
        <ele>554</ele>
        <time>2019-08-08T13:13:44.000Z</time>
      </trkpt>
      <trkpt lat="42.86452" lon="1.20097">
        <ele>554</ele>
        <time>2019-08-08T13:13:45.000Z</time>
      </trkpt>
      <trkpt lat="42.86448" lon="1.20102">
        <ele>554</ele>
        <time>2019-08-08T13:13:46.000Z</time>
      </trkpt>
      <trkpt lat="42.86444" lon="1.20107">
        <ele>554</ele>
        <time>2019-08-08T13:13:47.000Z</time>
      </trkpt>
      <trkpt lat="42.8644" lon="1.20112">
        <ele>554</ele>
        <time>2019-08-08T13:13:48.000Z</time>
      </trkpt>
      <trkpt lat="42.86437" lon="1.20116">
        <ele>554</ele>
        <time>2019-08-08T13:13:49.000Z</time>
      </trkpt>
      <trkpt lat="42.86434" lon="1.20121">
        <ele>554</ele>
        <time>2019-08-08T13:13:50.000Z</time>
      </trkpt>
      <trkpt lat="42.86432" lon="1.20124">
        <ele>554</ele>
        <time>2019-08-08T13:13:51.000Z</time>
      </trkpt>
      <trkpt lat="42.8643" lon="1.20127">
        <ele>554</ele>
        <time>2019-08-08T13:13:52.000Z</time>
      </trkpt>
      <trkpt lat="42.86428" lon="1.2013">
        <ele>554</ele>
        <time>2019-08-08T13:13:53.000Z</time>
      </trkpt>
      <trkpt lat="42.86426" lon="1.20132">
        <ele>554</ele>
        <time>2019-08-08T13:13:54.000Z</time>
      </trkpt>
      <trkpt lat="42.86424" lon="1.20133">
        <ele>554</ele>
        <time>2019-08-08T13:13:55.000Z</time>
      </trkpt>
      <trkpt lat="42.86422" lon="1.20132">
        <ele>554</ele>
        <time>2019-08-08T13:13:56.000Z</time>
      </trkpt>
      <trkpt lat="42.86419" lon="1.20131">
        <ele>554</ele>
        <time>2019-08-08T13:13:57.000Z</time>
      </trkpt>
      <trkpt lat="42.86416" lon="1.20131">
        <ele>554</ele>
        <time>2019-08-08T13:13:58.000Z</time>
      </trkpt>
      <trkpt lat="42.86413" lon="1.20131">
        <ele>554</ele>
        <time>2019-08-08T13:13:59.000Z</time>
      </trkpt>
      <trkpt lat="42.86409" lon="1.20132">
        <ele>554</ele>
        <time>2019-08-08T13:14:00.000Z</time>
      </trkpt>
      <trkpt lat="42.86407" lon="1.20134">
        <ele>554</ele>
        <time>2019-08-08T13:14:01.000Z</time>
      </trkpt>
      <trkpt lat="42.86404" lon="1.20137">
        <ele>554</ele>
        <time>2019-08-08T13:14:02.000Z</time>
      </trkpt>
      <trkpt lat="42.86402" lon="1.20139">
        <ele>554</ele>
        <time>2019-08-08T13:14:03.000Z</time>
      </trkpt>
      <trkpt lat="42.86401" lon="1.20141">
        <ele>554</ele>
        <time>2019-08-08T13:14:04.000Z</time>
      </trkpt>
      <trkpt lat="42.86401" lon="1.20141">
        <ele>554</ele>
        <time>2019-08-08T13:14:05.000Z</time>
      </trkpt>
      <trkpt lat="42.86399" lon="1.20142">
        <ele>554</ele>
        <time>2019-08-08T13:14:06.000Z</time>
      </trkpt>
      <trkpt lat="42.86399" lon="1.20142">
        <ele>554</ele>
        <time>2019-08-08T13:14:07.000Z</time>
      </trkpt>
      <trkpt lat="42.86399" lon="1.20142">
        <ele>554</ele>
        <time>2019-08-08T13:14:08.000Z</time>
      </trkpt>
      <trkpt lat="42.86399" lon="1.20142">
        <ele>554</ele>
        <time>2019-08-08T13:14:09.000Z</time>
      </trkpt>
      <trkpt lat="42.86399" lon="1.20142">
        <ele>554</ele>
        <time>2019-08-08T13:14:10.000Z</time>
      </trkpt>
      <trkpt lat="42.86399" lon="1.20142">
        <ele>554</ele>
        <time>2019-08-08T13:14:11.000Z</time>
      </trkpt>
      <trkpt lat="42.864" lon="1.20145">
        <ele>554</ele>
        <time>2019-08-08T13:14:12.000Z</time>
      </trkpt>
      <trkpt lat="42.864" lon="1.20145">
        <ele>554</ele>
        <time>2019-08-08T13:14:13.000Z</time>
      </trkpt>
      <trkpt lat="42.864" lon="1.20145">
        <ele>554</ele>
        <time>2019-08-08T13:14:14.000Z</time>
      </trkpt>
      <trkpt lat="42.864" lon="1.20145">
        <ele>554</ele>
        <time>2019-08-08T13:14:15.000Z</time>
      </trkpt>
      <trkpt lat="42.86401" lon="1.20147">
        <ele>554</ele>
        <time>2019-08-08T13:14:16.000Z</time>
      </trkpt>
      <trkpt lat="42.86401" lon="1.20147">
        <ele>554</ele>
        <time>2019-08-08T13:14:17.000Z</time>
      </trkpt>
      <trkpt lat="42.86401" lon="1.20147">
        <ele>554</ele>
        <time>2019-08-08T13:14:18.000Z</time>
      </trkpt>
      <trkpt lat="42.86401" lon="1.20147">
        <ele>554</ele>
        <time>2019-08-08T13:14:19.000Z</time>
      </trkpt>
      <trkpt lat="42.86401" lon="1.20147">
        <ele>554</ele>
        <time>2019-08-08T13:14:20.000Z</time>
      </trkpt>
      <trkpt lat="42.86401" lon="1.20147">
        <ele>554</ele>
        <time>2019-08-08T13:14:21.000Z</time>
      </trkpt>
      <trkpt lat="42.86401" lon="1.20147">
        <ele>554</ele>
        <time>2019-08-08T13:14:22.000Z</time>
      </trkpt>
      <trkpt lat="42.86401" lon="1.20147">
        <ele>554</ele>
        <time>2019-08-08T13:14:23.000Z</time>
      </trkpt>
      <trkpt lat="42.86401" lon="1.20147">
        <ele>554</ele>
        <time>2019-08-08T13:14:24.000Z</time>
      </trkpt>
      <trkpt lat="42.86401" lon="1.20147">
        <ele>554</ele>
        <time>2019-08-08T13:14:25.000Z</time>
      </trkpt>
      <trkpt lat="42.86401" lon="1.20147">
        <ele>554</ele>
        <time>2019-08-08T13:14:26.000Z</time>
      </trkpt>
      <trkpt lat="42.86401" lon="1.20147">
        <ele>554</ele>
        <time>2019-08-08T13:14:27.000Z</time>
      </trkpt>
      <trkpt lat="42.86401" lon="1.20147">
        <ele>554</ele>
        <time>2019-08-08T13:14:28.000Z</time>
      </trkpt>
      <trkpt lat="42.86401" lon="1.20147">
        <ele>554</ele>
        <time>2019-08-08T13:14:29.000Z</time>
      </trkpt>
      <trkpt lat="42.86401" lon="1.20147">
        <ele>554</ele>
        <time>2019-08-08T13:14:30.000Z</time>
      </trkpt>
      <trkpt lat="42.86401" lon="1.20147">
        <ele>554</ele>
        <time>2019-08-08T13:14:31.000Z</time>
      </trkpt>
      <trkpt lat="42.86401" lon="1.20147">
        <ele>554</ele>
        <time>2019-08-08T13:14:32.000Z</time>
      </trkpt>
      <trkpt lat="42.86401" lon="1.20147">
        <ele>554</ele>
        <time>2019-08-08T13:14:33.000Z</time>
      </trkpt>
      <trkpt lat="42.86401" lon="1.20147">
        <ele>554</ele>
        <time>2019-08-08T13:14:34.000Z</time>
      </trkpt>
      <trkpt lat="42.86401" lon="1.20147">
        <ele>554</ele>
        <time>2019-08-08T13:14:35.000Z</time>
      </trkpt>
      <trkpt lat="42.86401" lon="1.20147">
        <ele>554</ele>
        <time>2019-08-08T13:14:36.000Z</time>
      </trkpt>
      <trkpt lat="42.86401" lon="1.20147">
        <ele>554</ele>
        <time>2019-08-08T13:14:37.000Z</time>
      </trkpt>
      <trkpt lat="42.86401" lon="1.20147">
        <ele>554</ele>
        <time>2019-08-08T13:14:38.000Z</time>
      </trkpt>
      <trkpt lat="42.86401" lon="1.20147">
        <ele>554</ele>
        <time>2019-08-08T13:14:39.000Z</time>
      </trkpt>
      <trkpt lat="42.86401" lon="1.20147">
        <ele>554</ele>
        <time>2019-08-08T13:14:40.000Z</time>
      </trkpt>
      <trkpt lat="42.86401" lon="1.20147">
        <ele>554</ele>
        <time>2019-08-08T13:14:41.000Z</time>
      </trkpt>
      <trkpt lat="42.86401" lon="1.20147">
        <ele>554</ele>
        <time>2019-08-08T13:14:42.000Z</time>
      </trkpt>
      <trkpt lat="42.86401" lon="1.20147">
        <ele>554</ele>
        <time>2019-08-08T13:14:43.000Z</time>
      </trkpt>
      <trkpt lat="42.86401" lon="1.20147">
        <ele>554</ele>
        <time>2019-08-08T13:14:44.000Z</time>
      </trkpt>
      <trkpt lat="42.86401" lon="1.20146">
        <ele>554</ele>
        <time>2019-08-08T13:14:45.000Z</time>
      </trkpt>
      <trkpt lat="42.86401" lon="1.20146">
        <ele>553</ele>
        <time>2019-08-08T13:18:54.000Z</time>
      </trkpt>
      <trkpt lat="42.86404" lon="1.20151">
        <ele>553</ele>
        <time>2019-08-08T13:18:55.000Z</time>
      </trkpt>
      <trkpt lat="42.86404" lon="1.20151">
        <ele>552</ele>
        <time>2019-08-08T13:18:56.000Z</time>
      </trkpt>
      <trkpt lat="42.86404" lon="1.20151">
        <ele>552</ele>
        <time>2019-08-08T13:18:57.000Z</time>
      </trkpt>
      <trkpt lat="42.86404" lon="1.20151">
        <ele>553</ele>
        <time>2019-08-08T13:18:58.000Z</time>
      </trkpt>
      <trkpt lat="42.86404" lon="1.20151">
        <ele>553</ele>
        <time>2019-08-08T13:18:59.000Z</time>
      </trkpt>
      <trkpt lat="42.86404" lon="1.20151">
        <ele>553</ele>
        <time>2019-08-08T13:19:00.000Z</time>
      </trkpt>
      <trkpt lat="42.86404" lon="1.20151">
        <ele>553</ele>
        <time>2019-08-08T13:19:01.000Z</time>
      </trkpt>
      <trkpt lat="42.86404" lon="1.20151">
        <ele>553</ele>
        <time>2019-08-08T13:19:02.000Z</time>
      </trkpt>
      <trkpt lat="42.86404" lon="1.20151">
        <ele>553</ele>
        <time>2019-08-08T13:19:03.000Z</time>
      </trkpt>
      <trkpt lat="42.86404" lon="1.20151">
        <ele>553</ele>
        <time>2019-08-08T13:19:04.000Z</time>
      </trkpt>
      <trkpt lat="42.86404" lon="1.20151">
        <ele>553</ele>
        <time>2019-08-08T13:19:05.000Z</time>
      </trkpt>
      <trkpt lat="42.86404" lon="1.20151">
        <ele>553</ele>
        <time>2019-08-08T13:19:06.000Z</time>
      </trkpt>
      <trkpt lat="42.86404" lon="1.20151">
        <ele>553</ele>
        <time>2019-08-08T13:19:07.000Z</time>
      </trkpt>
      <trkpt lat="42.86404" lon="1.20149">
        <ele>553</ele>
        <time>2019-08-08T13:19:08.000Z</time>
      </trkpt>
      <trkpt lat="42.86404" lon="1.20149">
        <ele>552</ele>
        <time>2019-08-08T13:19:09.000Z</time>
      </trkpt>
      <trkpt lat="42.86403" lon="1.20145">
        <ele>552</ele>
        <time>2019-08-08T13:19:10.000Z</time>
      </trkpt>
      <trkpt lat="42.86403" lon="1.20145">
        <ele>552</ele>
        <time>2019-08-08T13:19:11.000Z</time>
      </trkpt>
      <trkpt lat="42.86402" lon="1.20141">
        <ele>552</ele>
        <time>2019-08-08T13:19:12.000Z</time>
      </trkpt>
      <trkpt lat="42.86401" lon="1.20139">
        <ele>552</ele>
        <time>2019-08-08T13:19:13.000Z</time>
      </trkpt>
      <trkpt lat="42.86399" lon="1.20138">
        <ele>552</ele>
        <time>2019-08-08T13:19:14.000Z</time>
      </trkpt>
      <trkpt lat="42.86397" lon="1.20137">
        <ele>552</ele>
        <time>2019-08-08T13:19:15.000Z</time>
      </trkpt>
      <trkpt lat="42.86393" lon="1.20137">
        <ele>552</ele>
        <time>2019-08-08T13:19:16.000Z</time>
      </trkpt>
      <trkpt lat="42.86389" lon="1.20138">
        <ele>552</ele>
        <time>2019-08-08T13:19:17.000Z</time>
      </trkpt>
      <trkpt lat="42.86386" lon="1.2014">
        <ele>552</ele>
        <time>2019-08-08T13:19:18.000Z</time>
      </trkpt>
      <trkpt lat="42.86382" lon="1.20144">
        <ele>552</ele>
        <time>2019-08-08T13:19:19.000Z</time>
      </trkpt>
      <trkpt lat="42.86377" lon="1.20146">
        <ele>552</ele>
        <time>2019-08-08T13:19:20.000Z</time>
      </trkpt>
      <trkpt lat="42.86373" lon="1.20149">
        <ele>551</ele>
        <time>2019-08-08T13:19:21.000Z</time>
      </trkpt>
      <trkpt lat="42.86369" lon="1.20152">
        <ele>552</ele>
        <time>2019-08-08T13:19:22.000Z</time>
      </trkpt>
      <trkpt lat="42.86365" lon="1.20155">
        <ele>552</ele>
        <time>2019-08-08T13:19:23.000Z</time>
      </trkpt>
      <trkpt lat="42.86359" lon="1.2016">
        <ele>552</ele>
        <time>2019-08-08T13:19:24.000Z</time>
      </trkpt>
      <trkpt lat="42.86357" lon="1.20162">
        <ele>552</ele>
        <time>2019-08-08T13:19:25.000Z</time>
      </trkpt>
      <trkpt lat="42.86353" lon="1.20163">
        <ele>552</ele>
        <time>2019-08-08T13:19:26.000Z</time>
      </trkpt>
      <trkpt lat="42.86348" lon="1.20162">
        <ele>552</ele>
        <time>2019-08-08T13:19:27.000Z</time>
      </trkpt>
      <trkpt lat="42.86344" lon="1.20158">
        <ele>551</ele>
        <time>2019-08-08T13:19:28.000Z</time>
      </trkpt>
      <trkpt lat="42.86338" lon="1.20149">
        <ele>551</ele>
        <time>2019-08-08T13:19:29.000Z</time>
      </trkpt>
      <trkpt lat="42.86336" lon="1.20146">
        <ele>551</ele>
        <time>2019-08-08T13:19:30.000Z</time>
      </trkpt>
      <trkpt lat="42.86332" lon="1.20141">
        <ele>551</ele>
        <time>2019-08-08T13:19:31.000Z</time>
      </trkpt>
      <trkpt lat="42.86328" lon="1.20135">
        <ele>551</ele>
        <time>2019-08-08T13:19:32.000Z</time>
      </trkpt>
      <trkpt lat="42.86324" lon="1.2013">
        <ele>551</ele>
        <time>2019-08-08T13:19:33.000Z</time>
      </trkpt>
      <trkpt lat="42.86319" lon="1.20124">
        <ele>551</ele>
        <time>2019-08-08T13:19:34.000Z</time>
      </trkpt>
      <trkpt lat="42.86315" lon="1.20118">
        <ele>551</ele>
        <time>2019-08-08T13:19:35.000Z</time>
      </trkpt>
      <trkpt lat="42.8631" lon="1.20112">
        <ele>551</ele>
        <time>2019-08-08T13:19:36.000Z</time>
      </trkpt>
      <trkpt lat="42.86306" lon="1.20106">
        <ele>551</ele>
        <time>2019-08-08T13:19:37.000Z</time>
      </trkpt>
      <trkpt lat="42.86301" lon="1.201">
        <ele>551</ele>
        <time>2019-08-08T13:19:38.000Z</time>
      </trkpt>
      <trkpt lat="42.86296" lon="1.20095">
        <ele>551</ele>
        <time>2019-08-08T13:19:39.000Z</time>
      </trkpt>
      <trkpt lat="42.86292" lon="1.20089">
        <ele>551</ele>
        <time>2019-08-08T13:19:40.000Z</time>
      </trkpt>
      <trkpt lat="42.86287" lon="1.20083">
        <ele>551</ele>
        <time>2019-08-08T13:19:41.000Z</time>
      </trkpt>
      <trkpt lat="42.86282" lon="1.20078">
        <ele>550</ele>
        <time>2019-08-08T13:19:42.000Z</time>
      </trkpt>
      <trkpt lat="42.86278" lon="1.20073">
        <ele>550</ele>
        <time>2019-08-08T13:19:43.000Z</time>
      </trkpt>
      <trkpt lat="42.86273" lon="1.20068">
        <ele>551</ele>
        <time>2019-08-08T13:19:44.000Z</time>
      </trkpt>
      <trkpt lat="42.86268" lon="1.20063">
        <ele>551</ele>
        <time>2019-08-08T13:19:45.000Z</time>
      </trkpt>
      <trkpt lat="42.86263" lon="1.20058">
        <ele>550</ele>
        <time>2019-08-08T13:19:46.000Z</time>
      </trkpt>
      <trkpt lat="42.86259" lon="1.20053">
        <ele>550</ele>
        <time>2019-08-08T13:19:47.000Z</time>
      </trkpt>
      <trkpt lat="42.86254" lon="1.20049">
        <ele>550</ele>
        <time>2019-08-08T13:19:48.000Z</time>
      </trkpt>
      <trkpt lat="42.86249" lon="1.20044">
        <ele>550</ele>
        <time>2019-08-08T13:19:49.000Z</time>
      </trkpt>
      <trkpt lat="42.86244" lon="1.20039">
        <ele>550</ele>
        <time>2019-08-08T13:19:50.000Z</time>
      </trkpt>
      <trkpt lat="42.86239" lon="1.20034">
        <ele>550</ele>
        <time>2019-08-08T13:19:51.000Z</time>
      </trkpt>
      <trkpt lat="42.86235" lon="1.20029">
        <ele>550</ele>
        <time>2019-08-08T13:19:52.000Z</time>
      </trkpt>
      <trkpt lat="42.86228" lon="1.20021">
        <ele>550</ele>
        <time>2019-08-08T13:19:53.000Z</time>
      </trkpt>
      <trkpt lat="42.86225" lon="1.20019">
        <ele>550</ele>
        <time>2019-08-08T13:19:54.000Z</time>
      </trkpt>
      <trkpt lat="42.86221" lon="1.20014">
        <ele>550</ele>
        <time>2019-08-08T13:19:55.000Z</time>
      </trkpt>
      <trkpt lat="42.86216" lon="1.20009">
        <ele>550</ele>
        <time>2019-08-08T13:19:56.000Z</time>
      </trkpt>
      <trkpt lat="42.86211" lon="1.20005">
        <ele>550</ele>
        <time>2019-08-08T13:19:57.000Z</time>
      </trkpt>
      <trkpt lat="42.86206" lon="1.2">
        <ele>550</ele>
        <time>2019-08-08T13:19:58.000Z</time>
      </trkpt>
      <trkpt lat="42.86201" lon="1.19995">
        <ele>551</ele>
        <time>2019-08-08T13:19:59.000Z</time>
      </trkpt>
      <trkpt lat="42.86196" lon="1.19991">
        <ele>550</ele>
        <time>2019-08-08T13:20:00.000Z</time>
      </trkpt>
      <trkpt lat="42.86191" lon="1.19986">
        <ele>550</ele>
        <time>2019-08-08T13:20:01.000Z</time>
      </trkpt>
      <trkpt lat="42.86186" lon="1.19981">
        <ele>550</ele>
        <time>2019-08-08T13:20:02.000Z</time>
      </trkpt>
      <trkpt lat="42.86182" lon="1.19976">
        <ele>550</ele>
        <time>2019-08-08T13:20:03.000Z</time>
      </trkpt>
      <trkpt lat="42.86177" lon="1.19971">
        <ele>550</ele>
        <time>2019-08-08T13:20:04.000Z</time>
      </trkpt>
      <trkpt lat="42.86173" lon="1.19966">
        <ele>549</ele>
        <time>2019-08-08T13:20:05.000Z</time>
      </trkpt>
      <trkpt lat="42.86168" lon="1.19962">
        <ele>549</ele>
        <time>2019-08-08T13:20:06.000Z</time>
      </trkpt>
      <trkpt lat="42.86164" lon="1.19957">
        <ele>550</ele>
        <time>2019-08-08T13:20:07.000Z</time>
      </trkpt>
      <trkpt lat="42.86159" lon="1.19953">
        <ele>550</ele>
        <time>2019-08-08T13:20:08.000Z</time>
      </trkpt>
      <trkpt lat="42.86155" lon="1.19948">
        <ele>550</ele>
        <time>2019-08-08T13:20:09.000Z</time>
      </trkpt>
      <trkpt lat="42.8615" lon="1.19944">
        <ele>550</ele>
        <time>2019-08-08T13:20:10.000Z</time>
      </trkpt>
      <trkpt lat="42.86143" lon="1.19937">
        <ele>550</ele>
        <time>2019-08-08T13:20:11.000Z</time>
      </trkpt>
      <trkpt lat="42.8614" lon="1.19935">
        <ele>550</ele>
        <time>2019-08-08T13:20:12.000Z</time>
      </trkpt>
      <trkpt lat="42.86133" lon="1.19929">
        <ele>550</ele>
        <time>2019-08-08T13:20:13.000Z</time>
      </trkpt>
      <trkpt lat="42.86131" lon="1.19927">
        <ele>549</ele>
        <time>2019-08-08T13:20:14.000Z</time>
      </trkpt>
      <trkpt lat="42.86126" lon="1.19923">
        <ele>549</ele>
        <time>2019-08-08T13:20:15.000Z</time>
      </trkpt>
      <trkpt lat="42.86121" lon="1.19919">
        <ele>550</ele>
        <time>2019-08-08T13:20:16.000Z</time>
      </trkpt>
      <trkpt lat="42.86116" lon="1.19914">
        <ele>550</ele>
        <time>2019-08-08T13:20:17.000Z</time>
      </trkpt>
      <trkpt lat="42.86111" lon="1.1991">
        <ele>550</ele>
        <time>2019-08-08T13:20:18.000Z</time>
      </trkpt>
      <trkpt lat="42.86105" lon="1.19906">
        <ele>550</ele>
        <time>2019-08-08T13:20:19.000Z</time>
      </trkpt>
      <trkpt lat="42.861" lon="1.19902">
        <ele>550</ele>
        <time>2019-08-08T13:20:20.000Z</time>
      </trkpt>
      <trkpt lat="42.86095" lon="1.19898">
        <ele>550</ele>
        <time>2019-08-08T13:20:21.000Z</time>
      </trkpt>
      <trkpt lat="42.86089" lon="1.19893">
        <ele>550</ele>
        <time>2019-08-08T13:20:22.000Z</time>
      </trkpt>
      <trkpt lat="42.86084" lon="1.19889">
        <ele>550</ele>
        <time>2019-08-08T13:20:23.000Z</time>
      </trkpt>
      <trkpt lat="42.86079" lon="1.19885">
        <ele>550</ele>
        <time>2019-08-08T13:20:24.000Z</time>
      </trkpt>
      <trkpt lat="42.8607" lon="1.19879">
        <ele>550</ele>
        <time>2019-08-08T13:20:25.000Z</time>
      </trkpt>
      <trkpt lat="42.86068" lon="1.19877">
        <ele>550</ele>
        <time>2019-08-08T13:20:26.000Z</time>
      </trkpt>
      <trkpt lat="42.86062" lon="1.19872">
        <ele>549</ele>
        <time>2019-08-08T13:20:27.000Z</time>
      </trkpt>
      <trkpt lat="42.86057" lon="1.19868">
        <ele>549</ele>
        <time>2019-08-08T13:20:28.000Z</time>
      </trkpt>
      <trkpt lat="42.86051" lon="1.19864">
        <ele>549</ele>
        <time>2019-08-08T13:20:29.000Z</time>
      </trkpt>
      <trkpt lat="42.86046" lon="1.1986">
        <ele>549</ele>
        <time>2019-08-08T13:20:30.000Z</time>
      </trkpt>
      <trkpt lat="42.86041" lon="1.19856">
        <ele>549</ele>
        <time>2019-08-08T13:20:31.000Z</time>
      </trkpt>
      <trkpt lat="42.86035" lon="1.19852">
        <ele>549</ele>
        <time>2019-08-08T13:20:32.000Z</time>
      </trkpt>
      <trkpt lat="42.8603" lon="1.19848">
        <ele>549</ele>
        <time>2019-08-08T13:20:33.000Z</time>
      </trkpt>
      <trkpt lat="42.86024" lon="1.19845">
        <ele>549</ele>
        <time>2019-08-08T13:20:34.000Z</time>
      </trkpt>
      <trkpt lat="42.86017" lon="1.19839">
        <ele>550</ele>
        <time>2019-08-08T13:20:35.000Z</time>
      </trkpt>
      <trkpt lat="42.86014" lon="1.19837">
        <ele>550</ele>
        <time>2019-08-08T13:20:36.000Z</time>
      </trkpt>
      <trkpt lat="42.86009" lon="1.19833">
        <ele>550</ele>
        <time>2019-08-08T13:20:37.000Z</time>
      </trkpt>
      <trkpt lat="42.86004" lon="1.19829">
        <ele>550</ele>
        <time>2019-08-08T13:20:38.000Z</time>
      </trkpt>
      <trkpt lat="42.85999" lon="1.19826">
        <ele>549</ele>
        <time>2019-08-08T13:20:39.000Z</time>
      </trkpt>
      <trkpt lat="42.85994" lon="1.19822">
        <ele>548</ele>
        <time>2019-08-08T13:20:40.000Z</time>
      </trkpt>
      <trkpt lat="42.85989" lon="1.19818">
        <ele>548</ele>
        <time>2019-08-08T13:20:41.000Z</time>
      </trkpt>
      <trkpt lat="42.85984" lon="1.19815">
        <ele>548</ele>
        <time>2019-08-08T13:20:42.000Z</time>
      </trkpt>
      <trkpt lat="42.85978" lon="1.19811">
        <ele>549</ele>
        <time>2019-08-08T13:20:43.000Z</time>
      </trkpt>
      <trkpt lat="42.85973" lon="1.19808">
        <ele>549</ele>
        <time>2019-08-08T13:20:44.000Z</time>
      </trkpt>
      <trkpt lat="42.85968" lon="1.19805">
        <ele>549</ele>
        <time>2019-08-08T13:20:45.000Z</time>
      </trkpt>
      <trkpt lat="42.85962" lon="1.19802">
        <ele>549</ele>
        <time>2019-08-08T13:20:46.000Z</time>
      </trkpt>
      <trkpt lat="42.85957" lon="1.198">
        <ele>548</ele>
        <time>2019-08-08T13:20:47.000Z</time>
      </trkpt>
      <trkpt lat="42.85951" lon="1.19798">
        <ele>548</ele>
        <time>2019-08-08T13:20:48.000Z</time>
      </trkpt>
      <trkpt lat="42.85945" lon="1.19796">
        <ele>548</ele>
        <time>2019-08-08T13:20:49.000Z</time>
      </trkpt>
      <trkpt lat="42.8594" lon="1.19794">
        <ele>547</ele>
        <time>2019-08-08T13:20:50.000Z</time>
      </trkpt>
      <trkpt lat="42.85931" lon="1.1979">
        <ele>548</ele>
        <time>2019-08-08T13:20:51.000Z</time>
      </trkpt>
      <trkpt lat="42.85928" lon="1.19788">
        <ele>548</ele>
        <time>2019-08-08T13:20:52.000Z</time>
      </trkpt>
      <trkpt lat="42.85922" lon="1.19786">
        <ele>548</ele>
        <time>2019-08-08T13:20:53.000Z</time>
      </trkpt>
      <trkpt lat="42.85916" lon="1.19783">
        <ele>548</ele>
        <time>2019-08-08T13:20:54.000Z</time>
      </trkpt>
      <trkpt lat="42.8591" lon="1.19781">
        <ele>548</ele>
        <time>2019-08-08T13:20:55.000Z</time>
      </trkpt>
      <trkpt lat="42.85904" lon="1.1978">
        <ele>548</ele>
        <time>2019-08-08T13:20:56.000Z</time>
      </trkpt>
      <trkpt lat="42.85898" lon="1.19778">
        <ele>548</ele>
        <time>2019-08-08T13:20:57.000Z</time>
      </trkpt>
      <trkpt lat="42.85892" lon="1.19776">
        <ele>548</ele>
        <time>2019-08-08T13:20:58.000Z</time>
      </trkpt>
      <trkpt lat="42.85886" lon="1.19774">
        <ele>547</ele>
        <time>2019-08-08T13:20:59.000Z</time>
      </trkpt>
      <trkpt lat="42.8588" lon="1.19773">
        <ele>547</ele>
        <time>2019-08-08T13:21:00.000Z</time>
      </trkpt>
      <trkpt lat="42.85874" lon="1.19771">
        <ele>548</ele>
        <time>2019-08-08T13:21:01.000Z</time>
      </trkpt>
      <trkpt lat="42.85868" lon="1.19769">
        <ele>548</ele>
        <time>2019-08-08T13:21:02.000Z</time>
      </trkpt>
      <trkpt lat="42.85862" lon="1.19767">
        <ele>548</ele>
        <time>2019-08-08T13:21:03.000Z</time>
      </trkpt>
      <trkpt lat="42.85856" lon="1.19765">
        <ele>548</ele>
        <time>2019-08-08T13:21:04.000Z</time>
      </trkpt>
      <trkpt lat="42.8585" lon="1.19763">
        <ele>548</ele>
        <time>2019-08-08T13:21:05.000Z</time>
      </trkpt>
      <trkpt lat="42.85845" lon="1.19761">
        <ele>548</ele>
        <time>2019-08-08T13:21:06.000Z</time>
      </trkpt>
      <trkpt lat="42.85839" lon="1.19759">
        <ele>548</ele>
        <time>2019-08-08T13:21:07.000Z</time>
      </trkpt>
      <trkpt lat="42.8583" lon="1.19756">
        <ele>548</ele>
        <time>2019-08-08T13:21:08.000Z</time>
      </trkpt>
      <trkpt lat="42.85827" lon="1.19755">
        <ele>547</ele>
        <time>2019-08-08T13:21:09.000Z</time>
      </trkpt>
      <trkpt lat="42.85822" lon="1.19753">
        <ele>548</ele>
        <time>2019-08-08T13:21:10.000Z</time>
      </trkpt>
      <trkpt lat="42.85816" lon="1.1975">
        <ele>548</ele>
        <time>2019-08-08T13:21:11.000Z</time>
      </trkpt>
      <trkpt lat="42.8581" lon="1.19748">
        <ele>548</ele>
        <time>2019-08-08T13:21:12.000Z</time>
      </trkpt>
      <trkpt lat="42.85804" lon="1.19745">
        <ele>548</ele>
        <time>2019-08-08T13:21:13.000Z</time>
      </trkpt>
      <trkpt lat="42.85798" lon="1.19743">
        <ele>548</ele>
        <time>2019-08-08T13:21:14.000Z</time>
      </trkpt>
      <trkpt lat="42.85792" lon="1.1974">
        <ele>548</ele>
        <time>2019-08-08T13:21:15.000Z</time>
      </trkpt>
      <trkpt lat="42.85786" lon="1.19738">
        <ele>548</ele>
        <time>2019-08-08T13:21:16.000Z</time>
      </trkpt>
      <trkpt lat="42.8578" lon="1.19735">
        <ele>548</ele>
        <time>2019-08-08T13:21:17.000Z</time>
      </trkpt>
      <trkpt lat="42.85774" lon="1.19732">
        <ele>548</ele>
        <time>2019-08-08T13:21:18.000Z</time>
      </trkpt>
      <trkpt lat="42.85768" lon="1.19729">
        <ele>548</ele>
        <time>2019-08-08T13:21:19.000Z</time>
      </trkpt>
      <trkpt lat="42.85762" lon="1.19727">
        <ele>548</ele>
        <time>2019-08-08T13:21:20.000Z</time>
      </trkpt>
      <trkpt lat="42.85756" lon="1.19724">
        <ele>548</ele>
        <time>2019-08-08T13:21:21.000Z</time>
      </trkpt>
      <trkpt lat="42.8575" lon="1.19721">
        <ele>548</ele>
        <time>2019-08-08T13:21:22.000Z</time>
      </trkpt>
      <trkpt lat="42.85744" lon="1.19718">
        <ele>548</ele>
        <time>2019-08-08T13:21:23.000Z</time>
      </trkpt>
      <trkpt lat="42.85735" lon="1.19714">
        <ele>548</ele>
        <time>2019-08-08T13:21:24.000Z</time>
      </trkpt>
      <trkpt lat="42.85732" lon="1.19713">
        <ele>548</ele>
        <time>2019-08-08T13:21:25.000Z</time>
      </trkpt>
      <trkpt lat="42.85726" lon="1.19711">
        <ele>548</ele>
        <time>2019-08-08T13:21:26.000Z</time>
      </trkpt>
      <trkpt lat="42.8572" lon="1.19708">
        <ele>548</ele>
        <time>2019-08-08T13:21:27.000Z</time>
      </trkpt>
      <trkpt lat="42.85713" lon="1.19706">
        <ele>548</ele>
        <time>2019-08-08T13:21:28.000Z</time>
      </trkpt>
      <trkpt lat="42.85707" lon="1.19704">
        <ele>547</ele>
        <time>2019-08-08T13:21:29.000Z</time>
      </trkpt>
      <trkpt lat="42.85701" lon="1.19702">
        <ele>547</ele>
        <time>2019-08-08T13:21:30.000Z</time>
      </trkpt>
      <trkpt lat="42.85694" lon="1.197">
        <ele>547</ele>
        <time>2019-08-08T13:21:31.000Z</time>
      </trkpt>
      <trkpt lat="42.85688" lon="1.19698">
        <ele>547</ele>
        <time>2019-08-08T13:21:32.000Z</time>
      </trkpt>
      <trkpt lat="42.85681" lon="1.19697">
        <ele>547</ele>
        <time>2019-08-08T13:21:33.000Z</time>
      </trkpt>
      <trkpt lat="42.85675" lon="1.19695">
        <ele>547</ele>
        <time>2019-08-08T13:21:34.000Z</time>
      </trkpt>
      <trkpt lat="42.85668" lon="1.19694">
        <ele>547</ele>
        <time>2019-08-08T13:21:35.000Z</time>
      </trkpt>
      <trkpt lat="42.85661" lon="1.19692">
        <ele>547</ele>
        <time>2019-08-08T13:21:36.000Z</time>
      </trkpt>
      <trkpt lat="42.85655" lon="1.19691">
        <ele>547</ele>
        <time>2019-08-08T13:21:37.000Z</time>
      </trkpt>
      <trkpt lat="42.85648" lon="1.19689">
        <ele>548</ele>
        <time>2019-08-08T13:21:38.000Z</time>
      </trkpt>
      <trkpt lat="42.85642" lon="1.19688">
        <ele>548</ele>
        <time>2019-08-08T13:21:39.000Z</time>
      </trkpt>
      <trkpt lat="42.85635" lon="1.19686">
        <ele>547</ele>
        <time>2019-08-08T13:21:40.000Z</time>
      </trkpt>
      <trkpt lat="42.85629" lon="1.19685">
        <ele>547</ele>
        <time>2019-08-08T13:21:41.000Z</time>
      </trkpt>
      <trkpt lat="42.85622" lon="1.19683">
        <ele>547</ele>
        <time>2019-08-08T13:21:42.000Z</time>
      </trkpt>
      <trkpt lat="42.85613" lon="1.19681">
        <ele>547</ele>
        <time>2019-08-08T13:21:43.000Z</time>
      </trkpt>
      <trkpt lat="42.8561" lon="1.1968">
        <ele>547</ele>
        <time>2019-08-08T13:21:44.000Z</time>
      </trkpt>
      <trkpt lat="42.85604" lon="1.19679">
        <ele>548</ele>
        <time>2019-08-08T13:21:45.000Z</time>
      </trkpt>
      <trkpt lat="42.85598" lon="1.19678">
        <ele>548</ele>
        <time>2019-08-08T13:21:46.000Z</time>
      </trkpt>
      <trkpt lat="42.85592" lon="1.19676">
        <ele>548</ele>
        <time>2019-08-08T13:21:47.000Z</time>
      </trkpt>
      <trkpt lat="42.85586" lon="1.19675">
        <ele>548</ele>
        <time>2019-08-08T13:21:48.000Z</time>
      </trkpt>
      <trkpt lat="42.8558" lon="1.19673">
        <ele>548</ele>
        <time>2019-08-08T13:21:49.000Z</time>
      </trkpt>
      <trkpt lat="42.85574" lon="1.19673">
        <ele>548</ele>
        <time>2019-08-08T13:21:50.000Z</time>
      </trkpt>
      <trkpt lat="42.85568" lon="1.19672">
        <ele>548</ele>
        <time>2019-08-08T13:21:51.000Z</time>
      </trkpt>
      <trkpt lat="42.85562" lon="1.19671">
        <ele>548</ele>
        <time>2019-08-08T13:21:52.000Z</time>
      </trkpt>
      <trkpt lat="42.85556" lon="1.1967">
        <ele>548</ele>
        <time>2019-08-08T13:21:53.000Z</time>
      </trkpt>
      <trkpt lat="42.8555" lon="1.19669">
        <ele>548</ele>
        <time>2019-08-08T13:21:54.000Z</time>
      </trkpt>
      <trkpt lat="42.85544" lon="1.19669">
        <ele>548</ele>
        <time>2019-08-08T13:21:55.000Z</time>
      </trkpt>
      <trkpt lat="42.85535" lon="1.19669">
        <ele>548</ele>
        <time>2019-08-08T13:21:56.000Z</time>
      </trkpt>
      <trkpt lat="42.85532" lon="1.19669">
        <ele>548</ele>
        <time>2019-08-08T13:21:57.000Z</time>
      </trkpt>
      <trkpt lat="42.85526" lon="1.19669">
        <ele>548</ele>
        <time>2019-08-08T13:21:58.000Z</time>
      </trkpt>
      <trkpt lat="42.8552" lon="1.19668">
        <ele>548</ele>
        <time>2019-08-08T13:21:59.000Z</time>
      </trkpt>
      <trkpt lat="42.85515" lon="1.19668">
        <ele>548</ele>
        <time>2019-08-08T13:22:00.000Z</time>
      </trkpt>
      <trkpt lat="42.85509" lon="1.19667">
        <ele>549</ele>
        <time>2019-08-08T13:22:01.000Z</time>
      </trkpt>
      <trkpt lat="42.85503" lon="1.19666">
        <ele>548</ele>
        <time>2019-08-08T13:22:02.000Z</time>
      </trkpt>
      <trkpt lat="42.85497" lon="1.19665">
        <ele>548</ele>
        <time>2019-08-08T13:22:03.000Z</time>
      </trkpt>
      <trkpt lat="42.85491" lon="1.19664">
        <ele>548</ele>
        <time>2019-08-08T13:22:04.000Z</time>
      </trkpt>
      <trkpt lat="42.85485" lon="1.19663">
        <ele>548</ele>
        <time>2019-08-08T13:22:05.000Z</time>
      </trkpt>
      <trkpt lat="42.8548" lon="1.19661">
        <ele>548</ele>
        <time>2019-08-08T13:22:06.000Z</time>
      </trkpt>
      <trkpt lat="42.85474" lon="1.1966">
        <ele>549</ele>
        <time>2019-08-08T13:22:07.000Z</time>
      </trkpt>
      <trkpt lat="42.85468" lon="1.19657">
        <ele>549</ele>
        <time>2019-08-08T13:22:08.000Z</time>
      </trkpt>
      <trkpt lat="42.85462" lon="1.19654">
        <ele>549</ele>
        <time>2019-08-08T13:22:09.000Z</time>
      </trkpt>
      <trkpt lat="42.85457" lon="1.1965">
        <ele>549</ele>
        <time>2019-08-08T13:22:10.000Z</time>
      </trkpt>
      <trkpt lat="42.85451" lon="1.19646">
        <ele>549</ele>
        <time>2019-08-08T13:22:11.000Z</time>
      </trkpt>
      <trkpt lat="42.85446" lon="1.19642">
        <ele>549</ele>
        <time>2019-08-08T13:22:12.000Z</time>
      </trkpt>
      <trkpt lat="42.8544" lon="1.19637">
        <ele>549</ele>
        <time>2019-08-08T13:22:13.000Z</time>
      </trkpt>
      <trkpt lat="42.85436" lon="1.19632">
        <ele>549</ele>
        <time>2019-08-08T13:22:14.000Z</time>
      </trkpt>
      <trkpt lat="42.85431" lon="1.19627">
        <ele>548</ele>
        <time>2019-08-08T13:22:15.000Z</time>
      </trkpt>
      <trkpt lat="42.85427" lon="1.19622">
        <ele>548</ele>
        <time>2019-08-08T13:22:16.000Z</time>
      </trkpt>
      <trkpt lat="42.85423" lon="1.19616">
        <ele>548</ele>
        <time>2019-08-08T13:22:17.000Z</time>
      </trkpt>
      <trkpt lat="42.85419" lon="1.1961">
        <ele>548</ele>
        <time>2019-08-08T13:22:18.000Z</time>
      </trkpt>
      <trkpt lat="42.85415" lon="1.19604">
        <ele>548</ele>
        <time>2019-08-08T13:22:19.000Z</time>
      </trkpt>
      <trkpt lat="42.85411" lon="1.19598">
        <ele>548</ele>
        <time>2019-08-08T13:22:20.000Z</time>
      </trkpt>
      <trkpt lat="42.85408" lon="1.19592">
        <ele>549</ele>
        <time>2019-08-08T13:22:21.000Z</time>
      </trkpt>
      <trkpt lat="42.85404" lon="1.19586">
        <ele>549</ele>
        <time>2019-08-08T13:22:22.000Z</time>
      </trkpt>
      <trkpt lat="42.854" lon="1.1958">
        <ele>549</ele>
        <time>2019-08-08T13:22:23.000Z</time>
      </trkpt>
      <trkpt lat="42.85395" lon="1.1957">
        <ele>549</ele>
        <time>2019-08-08T13:22:24.000Z</time>
      </trkpt>
      <trkpt lat="42.85393" lon="1.19567">
        <ele>549</ele>
        <time>2019-08-08T13:22:25.000Z</time>
      </trkpt>
      <trkpt lat="42.85389" lon="1.1956">
        <ele>549</ele>
        <time>2019-08-08T13:22:26.000Z</time>
      </trkpt>
      <trkpt lat="42.85386" lon="1.19553">
        <ele>549</ele>
        <time>2019-08-08T13:22:27.000Z</time>
      </trkpt>
      <trkpt lat="42.85383" lon="1.19546">
        <ele>549</ele>
        <time>2019-08-08T13:22:28.000Z</time>
      </trkpt>
      <trkpt lat="42.8538" lon="1.19539">
        <ele>549</ele>
        <time>2019-08-08T13:22:29.000Z</time>
      </trkpt>
      <trkpt lat="42.85376" lon="1.19528">
        <ele>549</ele>
        <time>2019-08-08T13:22:30.000Z</time>
      </trkpt>
      <trkpt lat="42.85374" lon="1.19525">
        <ele>549</ele>
        <time>2019-08-08T13:22:31.000Z</time>
      </trkpt>
      <trkpt lat="42.85372" lon="1.19517">
        <ele>549</ele>
        <time>2019-08-08T13:22:32.000Z</time>
      </trkpt>
      <trkpt lat="42.85369" lon="1.1951">
        <ele>549</ele>
        <time>2019-08-08T13:22:33.000Z</time>
      </trkpt>
      <trkpt lat="42.85367" lon="1.19502">
        <ele>549</ele>
        <time>2019-08-08T13:22:34.000Z</time>
      </trkpt>
      <trkpt lat="42.85365" lon="1.19494">
        <ele>549</ele>
        <time>2019-08-08T13:22:35.000Z</time>
      </trkpt>
      <trkpt lat="42.85363" lon="1.19487">
        <ele>549</ele>
        <time>2019-08-08T13:22:36.000Z</time>
      </trkpt>
      <trkpt lat="42.8536" lon="1.19479">
        <ele>549</ele>
        <time>2019-08-08T13:22:37.000Z</time>
      </trkpt>
      <trkpt lat="42.85358" lon="1.19471">
        <ele>549</ele>
        <time>2019-08-08T13:22:38.000Z</time>
      </trkpt>
      <trkpt lat="42.85356" lon="1.19462">
        <ele>549</ele>
        <time>2019-08-08T13:22:39.000Z</time>
      </trkpt>
      <trkpt lat="42.85353" lon="1.19454">
        <ele>548</ele>
        <time>2019-08-08T13:22:40.000Z</time>
      </trkpt>
      <trkpt lat="42.85351" lon="1.19445">
        <ele>548</ele>
        <time>2019-08-08T13:22:41.000Z</time>
      </trkpt>
      <trkpt lat="42.85348" lon="1.19437">
        <ele>548</ele>
        <time>2019-08-08T13:22:42.000Z</time>
      </trkpt>
      <trkpt lat="42.85345" lon="1.19429">
        <ele>548</ele>
        <time>2019-08-08T13:22:43.000Z</time>
      </trkpt>
      <trkpt lat="42.85342" lon="1.19421">
        <ele>548</ele>
        <time>2019-08-08T13:22:44.000Z</time>
      </trkpt>
      <trkpt lat="42.85339" lon="1.19413">
        <ele>548</ele>
        <time>2019-08-08T13:22:45.000Z</time>
      </trkpt>
      <trkpt lat="42.85336" lon="1.19405">
        <ele>548</ele>
        <time>2019-08-08T13:22:46.000Z</time>
      </trkpt>
      <trkpt lat="42.85333" lon="1.19397">
        <ele>548</ele>
        <time>2019-08-08T13:22:47.000Z</time>
      </trkpt>
      <trkpt lat="42.85329" lon="1.19389">
        <ele>548</ele>
        <time>2019-08-08T13:22:48.000Z</time>
      </trkpt>
      <trkpt lat="42.85325" lon="1.19381">
        <ele>548</ele>
        <time>2019-08-08T13:22:49.000Z</time>
      </trkpt>
      <trkpt lat="42.85321" lon="1.19373">
        <ele>548</ele>
        <time>2019-08-08T13:22:50.000Z</time>
      </trkpt>
      <trkpt lat="42.85317" lon="1.19366">
        <ele>548</ele>
        <time>2019-08-08T13:22:51.000Z</time>
      </trkpt>
      <trkpt lat="42.85312" lon="1.19359">
        <ele>548</ele>
        <time>2019-08-08T13:22:52.000Z</time>
      </trkpt>
      <trkpt lat="42.85307" lon="1.19353">
        <ele>548</ele>
        <time>2019-08-08T13:22:53.000Z</time>
      </trkpt>
      <trkpt lat="42.85302" lon="1.19347">
        <ele>547</ele>
        <time>2019-08-08T13:22:54.000Z</time>
      </trkpt>
      <trkpt lat="42.85297" lon="1.19341">
        <ele>547</ele>
        <time>2019-08-08T13:22:55.000Z</time>
      </trkpt>
      <trkpt lat="42.85292" lon="1.19336">
        <ele>546</ele>
        <time>2019-08-08T13:22:56.000Z</time>
      </trkpt>
      <trkpt lat="42.85286" lon="1.19331">
        <ele>546</ele>
        <time>2019-08-08T13:22:57.000Z</time>
      </trkpt>
      <trkpt lat="42.8528" lon="1.19326">
        <ele>546</ele>
        <time>2019-08-08T13:22:58.000Z</time>
      </trkpt>
      <trkpt lat="42.85274" lon="1.19322">
        <ele>546</ele>
        <time>2019-08-08T13:22:59.000Z</time>
      </trkpt>
      <trkpt lat="42.85268" lon="1.19318">
        <ele>546</ele>
        <time>2019-08-08T13:23:00.000Z</time>
      </trkpt>
      <trkpt lat="42.85263" lon="1.19315">
        <ele>546</ele>
        <time>2019-08-08T13:23:01.000Z</time>
      </trkpt>
      <trkpt lat="42.85253" lon="1.19311">
        <ele>546</ele>
        <time>2019-08-08T13:23:02.000Z</time>
      </trkpt>
      <trkpt lat="42.8525" lon="1.19309">
        <ele>546</ele>
        <time>2019-08-08T13:23:03.000Z</time>
      </trkpt>
      <trkpt lat="42.85244" lon="1.19307">
        <ele>546</ele>
        <time>2019-08-08T13:23:04.000Z</time>
      </trkpt>
      <trkpt lat="42.85238" lon="1.19305">
        <ele>546</ele>
        <time>2019-08-08T13:23:05.000Z</time>
      </trkpt>
      <trkpt lat="42.85232" lon="1.19303">
        <ele>546</ele>
        <time>2019-08-08T13:23:06.000Z</time>
      </trkpt>
      <trkpt lat="42.85225" lon="1.19301">
        <ele>546</ele>
        <time>2019-08-08T13:23:07.000Z</time>
      </trkpt>
      <trkpt lat="42.85219" lon="1.19299">
        <ele>546</ele>
        <time>2019-08-08T13:23:08.000Z</time>
      </trkpt>
      <trkpt lat="42.85213" lon="1.19298">
        <ele>546</ele>
        <time>2019-08-08T13:23:09.000Z</time>
      </trkpt>
      <trkpt lat="42.85207" lon="1.19297">
        <ele>547</ele>
        <time>2019-08-08T13:23:10.000Z</time>
      </trkpt>
      <trkpt lat="42.85201" lon="1.19296">
        <ele>546</ele>
        <time>2019-08-08T13:23:11.000Z</time>
      </trkpt>
      <trkpt lat="42.85195" lon="1.19294">
        <ele>546</ele>
        <time>2019-08-08T13:23:12.000Z</time>
      </trkpt>
      <trkpt lat="42.85189" lon="1.19293">
        <ele>546</ele>
        <time>2019-08-08T13:23:13.000Z</time>
      </trkpt>
      <trkpt lat="42.85183" lon="1.19292">
        <ele>546</ele>
        <time>2019-08-08T13:23:14.000Z</time>
      </trkpt>
      <trkpt lat="42.85178" lon="1.19291">
        <ele>546</ele>
        <time>2019-08-08T13:23:15.000Z</time>
      </trkpt>
      <trkpt lat="42.85169" lon="1.19289">
        <ele>547</ele>
        <time>2019-08-08T13:23:16.000Z</time>
      </trkpt>
      <trkpt lat="42.85166" lon="1.19288">
        <ele>547</ele>
        <time>2019-08-08T13:23:17.000Z</time>
      </trkpt>
      <trkpt lat="42.85161" lon="1.19287">
        <ele>548</ele>
        <time>2019-08-08T13:23:18.000Z</time>
      </trkpt>
      <trkpt lat="42.85155" lon="1.19286">
        <ele>548</ele>
        <time>2019-08-08T13:23:19.000Z</time>
      </trkpt>
      <trkpt lat="42.85149" lon="1.19285">
        <ele>548</ele>
        <time>2019-08-08T13:23:20.000Z</time>
      </trkpt>
      <trkpt lat="42.85144" lon="1.19284">
        <ele>548</ele>
        <time>2019-08-08T13:23:21.000Z</time>
      </trkpt>
      <trkpt lat="42.85135" lon="1.19282">
        <ele>548</ele>
        <time>2019-08-08T13:23:22.000Z</time>
      </trkpt>
      <trkpt lat="42.85133" lon="1.19281">
        <ele>548</ele>
        <time>2019-08-08T13:23:23.000Z</time>
      </trkpt>
      <trkpt lat="42.85127" lon="1.1928">
        <ele>548</ele>
        <time>2019-08-08T13:23:24.000Z</time>
      </trkpt>
      <trkpt lat="42.85122" lon="1.19279">
        <ele>548</ele>
        <time>2019-08-08T13:23:25.000Z</time>
      </trkpt>
      <trkpt lat="42.85116" lon="1.19278">
        <ele>548</ele>
        <time>2019-08-08T13:23:26.000Z</time>
      </trkpt>
      <trkpt lat="42.85111" lon="1.19278">
        <ele>548</ele>
        <time>2019-08-08T13:23:27.000Z</time>
      </trkpt>
      <trkpt lat="42.85105" lon="1.19278">
        <ele>548</ele>
        <time>2019-08-08T13:23:28.000Z</time>
      </trkpt>
      <trkpt lat="42.851" lon="1.19278">
        <ele>549</ele>
        <time>2019-08-08T13:23:29.000Z</time>
      </trkpt>
      <trkpt lat="42.85094" lon="1.19277">
        <ele>549</ele>
        <time>2019-08-08T13:23:30.000Z</time>
      </trkpt>
      <trkpt lat="42.85089" lon="1.19277">
        <ele>549</ele>
        <time>2019-08-08T13:23:31.000Z</time>
      </trkpt>
      <trkpt lat="42.85084" lon="1.19278">
        <ele>549</ele>
        <time>2019-08-08T13:23:32.000Z</time>
      </trkpt>
      <trkpt lat="42.85078" lon="1.19277">
        <ele>549</ele>
        <time>2019-08-08T13:23:33.000Z</time>
      </trkpt>
      <trkpt lat="42.85073" lon="1.19277">
        <ele>549</ele>
        <time>2019-08-08T13:23:34.000Z</time>
      </trkpt>
      <trkpt lat="42.85068" lon="1.19277">
        <ele>549</ele>
        <time>2019-08-08T13:23:35.000Z</time>
      </trkpt>
      <trkpt lat="42.85062" lon="1.19277">
        <ele>549</ele>
        <time>2019-08-08T13:23:36.000Z</time>
      </trkpt>
      <trkpt lat="42.85056" lon="1.19276">
        <ele>549</ele>
        <time>2019-08-08T13:23:37.000Z</time>
      </trkpt>
      <trkpt lat="42.85051" lon="1.19276">
        <ele>549</ele>
        <time>2019-08-08T13:23:38.000Z</time>
      </trkpt>
      <trkpt lat="42.85045" lon="1.19276">
        <ele>550</ele>
        <time>2019-08-08T13:23:39.000Z</time>
      </trkpt>
      <trkpt lat="42.85039" lon="1.19276">
        <ele>550</ele>
        <time>2019-08-08T13:23:40.000Z</time>
      </trkpt>
      <trkpt lat="42.85031" lon="1.19276">
        <ele>550</ele>
        <time>2019-08-08T13:23:41.000Z</time>
      </trkpt>
      <trkpt lat="42.85029" lon="1.19276">
        <ele>550</ele>
        <time>2019-08-08T13:23:42.000Z</time>
      </trkpt>
      <trkpt lat="42.85024" lon="1.19276">
        <ele>550</ele>
        <time>2019-08-08T13:23:43.000Z</time>
      </trkpt>
      <trkpt lat="42.85018" lon="1.19276">
        <ele>550</ele>
        <time>2019-08-08T13:23:44.000Z</time>
      </trkpt>
      <trkpt lat="42.85012" lon="1.19275">
        <ele>550</ele>
        <time>2019-08-08T13:23:45.000Z</time>
      </trkpt>
      <trkpt lat="42.85006" lon="1.19273">
        <ele>550</ele>
        <time>2019-08-08T13:23:46.000Z</time>
      </trkpt>
      <trkpt lat="42.85" lon="1.1927">
        <ele>550</ele>
        <time>2019-08-08T13:23:47.000Z</time>
      </trkpt>
      <trkpt lat="42.84994" lon="1.19268">
        <ele>550</ele>
        <time>2019-08-08T13:23:48.000Z</time>
      </trkpt>
      <trkpt lat="42.84989" lon="1.19266">
        <ele>550</ele>
        <time>2019-08-08T13:23:49.000Z</time>
      </trkpt>
      <trkpt lat="42.84983" lon="1.19263">
        <ele>550</ele>
        <time>2019-08-08T13:23:50.000Z</time>
      </trkpt>
      <trkpt lat="42.84978" lon="1.1926">
        <ele>550</ele>
        <time>2019-08-08T13:23:51.000Z</time>
      </trkpt>
      <trkpt lat="42.8497" lon="1.19255">
        <ele>550</ele>
        <time>2019-08-08T13:23:52.000Z</time>
      </trkpt>
      <trkpt lat="42.84968" lon="1.19253">
        <ele>550</ele>
        <time>2019-08-08T13:23:53.000Z</time>
      </trkpt>
      <trkpt lat="42.84964" lon="1.19249">
        <ele>550</ele>
        <time>2019-08-08T13:23:54.000Z</time>
      </trkpt>
      <trkpt lat="42.84959" lon="1.19245">
        <ele>550</ele>
        <time>2019-08-08T13:23:55.000Z</time>
      </trkpt>
      <trkpt lat="42.84955" lon="1.1924">
        <ele>550</ele>
        <time>2019-08-08T13:23:56.000Z</time>
      </trkpt>
      <trkpt lat="42.84952" lon="1.19235">
        <ele>550</ele>
        <time>2019-08-08T13:23:57.000Z</time>
      </trkpt>
      <trkpt lat="42.84948" lon="1.19229">
        <ele>550</ele>
        <time>2019-08-08T13:23:58.000Z</time>
      </trkpt>
      <trkpt lat="42.84945" lon="1.19223">
        <ele>551</ele>
        <time>2019-08-08T13:23:59.000Z</time>
      </trkpt>
      <trkpt lat="42.84941" lon="1.19218">
        <ele>551</ele>
        <time>2019-08-08T13:24:00.000Z</time>
      </trkpt>
      <trkpt lat="42.84938" lon="1.19212">
        <ele>551</ele>
        <time>2019-08-08T13:24:01.000Z</time>
      </trkpt>
      <trkpt lat="42.84935" lon="1.19206">
        <ele>551</ele>
        <time>2019-08-08T13:24:02.000Z</time>
      </trkpt>
      <trkpt lat="42.84933" lon="1.192">
        <ele>551</ele>
        <time>2019-08-08T13:24:03.000Z</time>
      </trkpt>
      <trkpt lat="42.8493" lon="1.19194">
        <ele>551</ele>
        <time>2019-08-08T13:24:04.000Z</time>
      </trkpt>
      <trkpt lat="42.84928" lon="1.19188">
        <ele>552</ele>
        <time>2019-08-08T13:24:05.000Z</time>
      </trkpt>
      <trkpt lat="42.84925" lon="1.19182">
        <ele>552</ele>
        <time>2019-08-08T13:24:06.000Z</time>
      </trkpt>
      <trkpt lat="42.84923" lon="1.19176">
        <ele>552</ele>
        <time>2019-08-08T13:24:07.000Z</time>
      </trkpt>
      <trkpt lat="42.84918" lon="1.19167">
        <ele>552</ele>
        <time>2019-08-08T13:24:08.000Z</time>
      </trkpt>
      <trkpt lat="42.84917" lon="1.19164">
        <ele>552</ele>
        <time>2019-08-08T13:24:09.000Z</time>
      </trkpt>
      <trkpt lat="42.84914" lon="1.19159">
        <ele>552</ele>
        <time>2019-08-08T13:24:10.000Z</time>
      </trkpt>
      <trkpt lat="42.8491" lon="1.19154">
        <ele>552</ele>
        <time>2019-08-08T13:24:11.000Z</time>
      </trkpt>
      <trkpt lat="42.84906" lon="1.1915">
        <ele>553</ele>
        <time>2019-08-08T13:24:12.000Z</time>
      </trkpt>
      <trkpt lat="42.84901" lon="1.19148">
        <ele>553</ele>
        <time>2019-08-08T13:24:13.000Z</time>
      </trkpt>
      <trkpt lat="42.84895" lon="1.19145">
        <ele>553</ele>
        <time>2019-08-08T13:24:14.000Z</time>
      </trkpt>
      <trkpt lat="42.8489" lon="1.19146">
        <ele>553</ele>
        <time>2019-08-08T13:24:15.000Z</time>
      </trkpt>
      <trkpt lat="42.84884" lon="1.19147">
        <ele>553</ele>
        <time>2019-08-08T13:24:16.000Z</time>
      </trkpt>
      <trkpt lat="42.84878" lon="1.1915">
        <ele>553</ele>
        <time>2019-08-08T13:24:17.000Z</time>
      </trkpt>
      <trkpt lat="42.84873" lon="1.19153">
        <ele>554</ele>
        <time>2019-08-08T13:24:18.000Z</time>
      </trkpt>
      <trkpt lat="42.84867" lon="1.19157">
        <ele>554</ele>
        <time>2019-08-08T13:24:19.000Z</time>
      </trkpt>
      <trkpt lat="42.84862" lon="1.19161">
        <ele>554</ele>
        <time>2019-08-08T13:24:20.000Z</time>
      </trkpt>
      <trkpt lat="42.84857" lon="1.19165">
        <ele>554</ele>
        <time>2019-08-08T13:24:21.000Z</time>
      </trkpt>
      <trkpt lat="42.84851" lon="1.19169">
        <ele>553</ele>
        <time>2019-08-08T13:24:22.000Z</time>
      </trkpt>
      <trkpt lat="42.84846" lon="1.19174">
        <ele>553</ele>
        <time>2019-08-08T13:24:23.000Z</time>
      </trkpt>
      <trkpt lat="42.84838" lon="1.1918">
        <ele>554</ele>
        <time>2019-08-08T13:24:24.000Z</time>
      </trkpt>
      <trkpt lat="42.84835" lon="1.19182">
        <ele>554</ele>
        <time>2019-08-08T13:24:25.000Z</time>
      </trkpt>
      <trkpt lat="42.8483" lon="1.19187">
        <ele>554</ele>
        <time>2019-08-08T13:24:26.000Z</time>
      </trkpt>
      <trkpt lat="42.84825" lon="1.19191">
        <ele>554</ele>
        <time>2019-08-08T13:24:27.000Z</time>
      </trkpt>
      <trkpt lat="42.84819" lon="1.19196">
        <ele>554</ele>
        <time>2019-08-08T13:24:28.000Z</time>
      </trkpt>
      <trkpt lat="42.84814" lon="1.192">
        <ele>554</ele>
        <time>2019-08-08T13:24:29.000Z</time>
      </trkpt>
      <trkpt lat="42.84809" lon="1.19204">
        <ele>554</ele>
        <time>2019-08-08T13:24:30.000Z</time>
      </trkpt>
      <trkpt lat="42.84804" lon="1.19209">
        <ele>554</ele>
        <time>2019-08-08T13:24:31.000Z</time>
      </trkpt>
      <trkpt lat="42.84798" lon="1.19214">
        <ele>554</ele>
        <time>2019-08-08T13:24:32.000Z</time>
      </trkpt>
      <trkpt lat="42.84793" lon="1.19218">
        <ele>554</ele>
        <time>2019-08-08T13:24:33.000Z</time>
      </trkpt>
      <trkpt lat="42.84788" lon="1.19223">
        <ele>554</ele>
        <time>2019-08-08T13:24:34.000Z</time>
      </trkpt>
      <trkpt lat="42.84782" lon="1.19227">
        <ele>554</ele>
        <time>2019-08-08T13:24:35.000Z</time>
      </trkpt>
      <trkpt lat="42.84777" lon="1.19232">
        <ele>554</ele>
        <time>2019-08-08T13:24:36.000Z</time>
      </trkpt>
      <trkpt lat="42.84769" lon="1.19239">
        <ele>554</ele>
        <time>2019-08-08T13:24:37.000Z</time>
      </trkpt>
      <trkpt lat="42.84766" lon="1.19241">
        <ele>554</ele>
        <time>2019-08-08T13:24:38.000Z</time>
      </trkpt>
      <trkpt lat="42.84761" lon="1.19245">
        <ele>554</ele>
        <time>2019-08-08T13:24:39.000Z</time>
      </trkpt>
      <trkpt lat="42.84756" lon="1.1925">
        <ele>554</ele>
        <time>2019-08-08T13:24:40.000Z</time>
      </trkpt>
      <trkpt lat="42.84748" lon="1.19256">
        <ele>554</ele>
        <time>2019-08-08T13:24:41.000Z</time>
      </trkpt>
      <trkpt lat="42.84745" lon="1.19258">
        <ele>554</ele>
        <time>2019-08-08T13:24:42.000Z</time>
      </trkpt>
      <trkpt lat="42.84739" lon="1.19262">
        <ele>554</ele>
        <time>2019-08-08T13:24:43.000Z</time>
      </trkpt>
      <trkpt lat="42.84733" lon="1.19265">
        <ele>554</ele>
        <time>2019-08-08T13:24:44.000Z</time>
      </trkpt>
      <trkpt lat="42.84727" lon="1.19266">
        <ele>554</ele>
        <time>2019-08-08T13:24:45.000Z</time>
      </trkpt>
      <trkpt lat="42.8472" lon="1.19267">
        <ele>554</ele>
        <time>2019-08-08T13:24:46.000Z</time>
      </trkpt>
      <trkpt lat="42.84714" lon="1.19268">
        <ele>554</ele>
        <time>2019-08-08T13:24:47.000Z</time>
      </trkpt>
      <trkpt lat="42.84707" lon="1.19268">
        <ele>554</ele>
        <time>2019-08-08T13:24:48.000Z</time>
      </trkpt>
      <trkpt lat="42.84701" lon="1.19267">
        <ele>554</ele>
        <time>2019-08-08T13:24:49.000Z</time>
      </trkpt>
      <trkpt lat="42.84694" lon="1.19266">
        <ele>554</ele>
        <time>2019-08-08T13:24:50.000Z</time>
      </trkpt>
      <trkpt lat="42.84688" lon="1.19264">
        <ele>554</ele>
        <time>2019-08-08T13:24:51.000Z</time>
      </trkpt>
      <trkpt lat="42.84678" lon="1.19261">
        <ele>554</ele>
        <time>2019-08-08T13:24:52.000Z</time>
      </trkpt>
      <trkpt lat="42.84675" lon="1.1926">
        <ele>554</ele>
        <time>2019-08-08T13:24:53.000Z</time>
      </trkpt>
      <trkpt lat="42.84668" lon="1.19256">
        <ele>554</ele>
        <time>2019-08-08T13:24:54.000Z</time>
      </trkpt>
      <trkpt lat="42.84662" lon="1.19252">
        <ele>554</ele>
        <time>2019-08-08T13:24:55.000Z</time>
      </trkpt>
      <trkpt lat="42.84656" lon="1.19248">
        <ele>554</ele>
        <time>2019-08-08T13:24:56.000Z</time>
      </trkpt>
      <trkpt lat="42.84656" lon="1.19248">
        <ele>554</ele>
        <time>2019-08-08T13:24:57.000Z</time>
      </trkpt>
      <trkpt lat="42.84644" lon="1.1924">
        <ele>554</ele>
        <time>2019-08-08T13:24:58.000Z</time>
      </trkpt>
      <trkpt lat="42.84638" lon="1.19237">
        <ele>554</ele>
        <time>2019-08-08T13:24:59.000Z</time>
      </trkpt>
      <trkpt lat="42.84632" lon="1.19233">
        <ele>554</ele>
        <time>2019-08-08T13:25:00.000Z</time>
      </trkpt>
      <trkpt lat="42.84626" lon="1.19229">
        <ele>554</ele>
        <time>2019-08-08T13:25:01.000Z</time>
      </trkpt>
      <trkpt lat="42.8462" lon="1.19224">
        <ele>554</ele>
        <time>2019-08-08T13:25:02.000Z</time>
      </trkpt>
      <trkpt lat="42.84615" lon="1.19221">
        <ele>554</ele>
        <time>2019-08-08T13:25:03.000Z</time>
      </trkpt>
      <trkpt lat="42.84609" lon="1.1922">
        <ele>554</ele>
        <time>2019-08-08T13:25:04.000Z</time>
      </trkpt>
      <trkpt lat="42.84603" lon="1.19218">
        <ele>554</ele>
        <time>2019-08-08T13:25:05.000Z</time>
      </trkpt>
      <trkpt lat="42.84597" lon="1.19217">
        <ele>554</ele>
        <time>2019-08-08T13:25:06.000Z</time>
      </trkpt>
      <trkpt lat="42.8459" lon="1.19214">
        <ele>554</ele>
        <time>2019-08-08T13:25:07.000Z</time>
      </trkpt>
      <trkpt lat="42.84585" lon="1.19213">
        <ele>554</ele>
        <time>2019-08-08T13:25:08.000Z</time>
      </trkpt>
      <trkpt lat="42.84579" lon="1.19211">
        <ele>554</ele>
        <time>2019-08-08T13:25:09.000Z</time>
      </trkpt>
      <trkpt lat="42.84573" lon="1.1921">
        <ele>554</ele>
        <time>2019-08-08T13:25:10.000Z</time>
      </trkpt>
      <trkpt lat="42.84564" lon="1.19207">
        <ele>555</ele>
        <time>2019-08-08T13:25:11.000Z</time>
      </trkpt>
      <trkpt lat="42.84562" lon="1.19207">
        <ele>555</ele>
        <time>2019-08-08T13:25:12.000Z</time>
      </trkpt>
      <trkpt lat="42.84553" lon="1.19205">
        <ele>555</ele>
        <time>2019-08-08T13:25:13.000Z</time>
      </trkpt>
      <trkpt lat="42.8455" lon="1.19205">
        <ele>555</ele>
        <time>2019-08-08T13:25:14.000Z</time>
      </trkpt>
      <trkpt lat="42.8455" lon="1.19205">
        <ele>555</ele>
        <time>2019-08-08T13:25:15.000Z</time>
      </trkpt>
      <trkpt lat="42.84536" lon="1.19202">
        <ele>555</ele>
        <time>2019-08-08T13:25:16.000Z</time>
      </trkpt>
      <trkpt lat="42.84534" lon="1.19202">
        <ele>555</ele>
        <time>2019-08-08T13:25:17.000Z</time>
      </trkpt>
      <trkpt lat="42.84528" lon="1.19202">
        <ele>556</ele>
        <time>2019-08-08T13:25:18.000Z</time>
      </trkpt>
      <trkpt lat="42.84522" lon="1.19202">
        <ele>556</ele>
        <time>2019-08-08T13:25:19.000Z</time>
      </trkpt>
      <trkpt lat="42.84517" lon="1.19201">
        <ele>556</ele>
        <time>2019-08-08T13:25:20.000Z</time>
      </trkpt>
      <trkpt lat="42.84511" lon="1.19201">
        <ele>556</ele>
        <time>2019-08-08T13:25:21.000Z</time>
      </trkpt>
      <trkpt lat="42.84505" lon="1.19201">
        <ele>556</ele>
        <time>2019-08-08T13:25:22.000Z</time>
      </trkpt>
      <trkpt lat="42.84499" lon="1.19202">
        <ele>556</ele>
        <time>2019-08-08T13:25:23.000Z</time>
      </trkpt>
      <trkpt lat="42.84493" lon="1.19202">
        <ele>556</ele>
        <time>2019-08-08T13:25:24.000Z</time>
      </trkpt>
      <trkpt lat="42.84484" lon="1.19203">
        <ele>556</ele>
        <time>2019-08-08T13:25:25.000Z</time>
      </trkpt>
      <trkpt lat="42.84481" lon="1.19203">
        <ele>555</ele>
        <time>2019-08-08T13:25:26.000Z</time>
      </trkpt>
      <trkpt lat="42.84475" lon="1.19204">
        <ele>555</ele>
        <time>2019-08-08T13:25:27.000Z</time>
      </trkpt>
      <trkpt lat="42.84468" lon="1.19204">
        <ele>555</ele>
        <time>2019-08-08T13:25:28.000Z</time>
      </trkpt>
      <trkpt lat="42.84462" lon="1.19204">
        <ele>555</ele>
        <time>2019-08-08T13:25:29.000Z</time>
      </trkpt>
      <trkpt lat="42.84455" lon="1.19204">
        <ele>555</ele>
        <time>2019-08-08T13:25:30.000Z</time>
      </trkpt>
      <trkpt lat="42.84448" lon="1.19204">
        <ele>555</ele>
        <time>2019-08-08T13:25:31.000Z</time>
      </trkpt>
      <trkpt lat="42.84442" lon="1.19202">
        <ele>555</ele>
        <time>2019-08-08T13:25:32.000Z</time>
      </trkpt>
      <trkpt lat="42.84436" lon="1.192">
        <ele>555</ele>
        <time>2019-08-08T13:25:33.000Z</time>
      </trkpt>
      <trkpt lat="42.84429" lon="1.19198">
        <ele>554</ele>
        <time>2019-08-08T13:25:34.000Z</time>
      </trkpt>
      <trkpt lat="42.84423" lon="1.19195">
        <ele>554</ele>
        <time>2019-08-08T13:25:35.000Z</time>
      </trkpt>
      <trkpt lat="42.84417" lon="1.19192">
        <ele>554</ele>
        <time>2019-08-08T13:25:36.000Z</time>
      </trkpt>
      <trkpt lat="42.84411" lon="1.19189">
        <ele>554</ele>
        <time>2019-08-08T13:25:37.000Z</time>
      </trkpt>
      <trkpt lat="42.84405" lon="1.19186">
        <ele>553</ele>
        <time>2019-08-08T13:25:38.000Z</time>
      </trkpt>
      <trkpt lat="42.84399" lon="1.19182">
        <ele>553</ele>
        <time>2019-08-08T13:25:39.000Z</time>
      </trkpt>
      <trkpt lat="42.84393" lon="1.19179">
        <ele>553</ele>
        <time>2019-08-08T13:25:40.000Z</time>
      </trkpt>
      <trkpt lat="42.84387" lon="1.19175">
        <ele>553</ele>
        <time>2019-08-08T13:25:41.000Z</time>
      </trkpt>
      <trkpt lat="42.84382" lon="1.19172">
        <ele>555</ele>
        <time>2019-08-08T13:25:42.000Z</time>
      </trkpt>
      <trkpt lat="42.84376" lon="1.19169">
        <ele>555</ele>
        <time>2019-08-08T13:25:43.000Z</time>
      </trkpt>
      <trkpt lat="42.8437" lon="1.19166">
        <ele>555</ele>
        <time>2019-08-08T13:25:44.000Z</time>
      </trkpt>
      <trkpt lat="42.84364" lon="1.19163">
        <ele>555</ele>
        <time>2019-08-08T13:25:45.000Z</time>
      </trkpt>
      <trkpt lat="42.84356" lon="1.19157">
        <ele>555</ele>
        <time>2019-08-08T13:25:46.000Z</time>
      </trkpt>
      <trkpt lat="42.84353" lon="1.19156">
        <ele>555</ele>
        <time>2019-08-08T13:25:47.000Z</time>
      </trkpt>
      <trkpt lat="42.84348" lon="1.19152">
        <ele>556</ele>
        <time>2019-08-08T13:25:48.000Z</time>
      </trkpt>
      <trkpt lat="42.84343" lon="1.19149">
        <ele>556</ele>
        <time>2019-08-08T13:25:49.000Z</time>
      </trkpt>
      <trkpt lat="42.84338" lon="1.19146">
        <ele>556</ele>
        <time>2019-08-08T13:25:50.000Z</time>
      </trkpt>
      <trkpt lat="42.84333" lon="1.19142">
        <ele>556</ele>
        <time>2019-08-08T13:25:51.000Z</time>
      </trkpt>
      <trkpt lat="42.84328" lon="1.19138">
        <ele>556</ele>
        <time>2019-08-08T13:25:52.000Z</time>
      </trkpt>
      <trkpt lat="42.84323" lon="1.19134">
        <ele>556</ele>
        <time>2019-08-08T13:25:53.000Z</time>
      </trkpt>
      <trkpt lat="42.84319" lon="1.19129">
        <ele>556</ele>
        <time>2019-08-08T13:25:54.000Z</time>
      </trkpt>
      <trkpt lat="42.84315" lon="1.19125">
        <ele>556</ele>
        <time>2019-08-08T13:25:55.000Z</time>
      </trkpt>
      <trkpt lat="42.8431" lon="1.1912">
        <ele>557</ele>
        <time>2019-08-08T13:25:56.000Z</time>
      </trkpt>
      <trkpt lat="42.84306" lon="1.19116">
        <ele>557</ele>
        <time>2019-08-08T13:25:57.000Z</time>
      </trkpt>
      <trkpt lat="42.84301" lon="1.19112">
        <ele>556</ele>
        <time>2019-08-08T13:25:58.000Z</time>
      </trkpt>
      <trkpt lat="42.84297" lon="1.19109">
        <ele>556</ele>
        <time>2019-08-08T13:25:59.000Z</time>
      </trkpt>
      <trkpt lat="42.84292" lon="1.19107">
        <ele>558</ele>
        <time>2019-08-08T13:26:00.000Z</time>
      </trkpt>
      <trkpt lat="42.84287" lon="1.19105">
        <ele>558</ele>
        <time>2019-08-08T13:26:01.000Z</time>
      </trkpt>
      <trkpt lat="42.84283" lon="1.19104">
        <ele>558</ele>
        <time>2019-08-08T13:26:02.000Z</time>
      </trkpt>
      <trkpt lat="42.84276" lon="1.19104">
        <ele>558</ele>
        <time>2019-08-08T13:26:03.000Z</time>
      </trkpt>
      <trkpt lat="42.84273" lon="1.19104">
        <ele>558</ele>
        <time>2019-08-08T13:26:04.000Z</time>
      </trkpt>
      <trkpt lat="42.84268" lon="1.19104">
        <ele>559</ele>
        <time>2019-08-08T13:26:05.000Z</time>
      </trkpt>
      <trkpt lat="42.84263" lon="1.19105">
        <ele>559</ele>
        <time>2019-08-08T13:26:06.000Z</time>
      </trkpt>
      <trkpt lat="42.84258" lon="1.19106">
        <ele>559</ele>
        <time>2019-08-08T13:26:07.000Z</time>
      </trkpt>
      <trkpt lat="42.84253" lon="1.19108">
        <ele>559</ele>
        <time>2019-08-08T13:26:08.000Z</time>
      </trkpt>
      <trkpt lat="42.84248" lon="1.1911">
        <ele>559</ele>
        <time>2019-08-08T13:26:09.000Z</time>
      </trkpt>
      <trkpt lat="42.84244" lon="1.19113">
        <ele>559</ele>
        <time>2019-08-08T13:26:10.000Z</time>
      </trkpt>
      <trkpt lat="42.84239" lon="1.19116">
        <ele>560</ele>
        <time>2019-08-08T13:26:11.000Z</time>
      </trkpt>
      <trkpt lat="42.84233" lon="1.19119">
        <ele>560</ele>
        <time>2019-08-08T13:26:12.000Z</time>
      </trkpt>
      <trkpt lat="42.84228" lon="1.19125">
        <ele>560</ele>
        <time>2019-08-08T13:26:13.000Z</time>
      </trkpt>
      <trkpt lat="42.84224" lon="1.1913">
        <ele>560</ele>
        <time>2019-08-08T13:26:14.000Z</time>
      </trkpt>
      <trkpt lat="42.8422" lon="1.19137">
        <ele>560</ele>
        <time>2019-08-08T13:26:15.000Z</time>
      </trkpt>
      <trkpt lat="42.84217" lon="1.19144">
        <ele>560</ele>
        <time>2019-08-08T13:26:16.000Z</time>
      </trkpt>
      <trkpt lat="42.84214" lon="1.19151">
        <ele>559</ele>
        <time>2019-08-08T13:26:17.000Z</time>
      </trkpt>
      <trkpt lat="42.84211" lon="1.19159">
        <ele>559</ele>
        <time>2019-08-08T13:26:18.000Z</time>
      </trkpt>
      <trkpt lat="42.84207" lon="1.1917">
        <ele>559</ele>
        <time>2019-08-08T13:26:19.000Z</time>
      </trkpt>
      <trkpt lat="42.84205" lon="1.19174">
        <ele>559</ele>
        <time>2019-08-08T13:26:20.000Z</time>
      </trkpt>
      <trkpt lat="42.84203" lon="1.19183">
        <ele>559</ele>
        <time>2019-08-08T13:26:21.000Z</time>
      </trkpt>
      <trkpt lat="42.842" lon="1.19191">
        <ele>559</ele>
        <time>2019-08-08T13:26:22.000Z</time>
      </trkpt>
      <trkpt lat="42.84197" lon="1.19199">
        <ele>559</ele>
        <time>2019-08-08T13:26:23.000Z</time>
      </trkpt>
      <trkpt lat="42.84194" lon="1.19207">
        <ele>559</ele>
        <time>2019-08-08T13:26:24.000Z</time>
      </trkpt>
      <trkpt lat="42.84189" lon="1.19219">
        <ele>558</ele>
        <time>2019-08-08T13:26:25.000Z</time>
      </trkpt>
      <trkpt lat="42.84187" lon="1.19224">
        <ele>558</ele>
        <time>2019-08-08T13:26:26.000Z</time>
      </trkpt>
      <trkpt lat="42.84183" lon="1.19236">
        <ele>558</ele>
        <time>2019-08-08T13:26:27.000Z</time>
      </trkpt>
      <trkpt lat="42.84181" lon="1.19241">
        <ele>558</ele>
        <time>2019-08-08T13:26:28.000Z</time>
      </trkpt>
      <trkpt lat="42.84178" lon="1.19249">
        <ele>558</ele>
        <time>2019-08-08T13:26:29.000Z</time>
      </trkpt>
      <trkpt lat="42.84175" lon="1.19258">
        <ele>558</ele>
        <time>2019-08-08T13:26:30.000Z</time>
      </trkpt>
      <trkpt lat="42.84172" lon="1.19267">
        <ele>558</ele>
        <time>2019-08-08T13:26:31.000Z</time>
      </trkpt>
      <trkpt lat="42.84169" lon="1.19276">
        <ele>558</ele>
        <time>2019-08-08T13:26:32.000Z</time>
      </trkpt>
      <trkpt lat="42.84165" lon="1.19284">
        <ele>558</ele>
        <time>2019-08-08T13:26:33.000Z</time>
      </trkpt>
      <trkpt lat="42.84163" lon="1.19293">
        <ele>558</ele>
        <time>2019-08-08T13:26:34.000Z</time>
      </trkpt>
      <trkpt lat="42.84157" lon="1.19306">
        <ele>558</ele>
        <time>2019-08-08T13:26:35.000Z</time>
      </trkpt>
      <trkpt lat="42.84155" lon="1.19309">
        <ele>558</ele>
        <time>2019-08-08T13:26:36.000Z</time>
      </trkpt>
      <trkpt lat="42.84151" lon="1.19317">
        <ele>558</ele>
        <time>2019-08-08T13:26:37.000Z</time>
      </trkpt>
      <trkpt lat="42.84146" lon="1.19324">
        <ele>558</ele>
        <time>2019-08-08T13:26:38.000Z</time>
      </trkpt>
      <trkpt lat="42.84141" lon="1.1933">
        <ele>558</ele>
        <time>2019-08-08T13:26:39.000Z</time>
      </trkpt>
      <trkpt lat="42.84136" lon="1.19337">
        <ele>558</ele>
        <time>2019-08-08T13:26:40.000Z</time>
      </trkpt>
      <trkpt lat="42.84132" lon="1.19343">
        <ele>558</ele>
        <time>2019-08-08T13:26:41.000Z</time>
      </trkpt>
      <trkpt lat="42.84127" lon="1.1935">
        <ele>557</ele>
        <time>2019-08-08T13:26:42.000Z</time>
      </trkpt>
      <trkpt lat="42.84121" lon="1.19356">
        <ele>557</ele>
        <time>2019-08-08T13:26:43.000Z</time>
      </trkpt>
      <trkpt lat="42.84116" lon="1.19362">
        <ele>558</ele>
        <time>2019-08-08T13:26:44.000Z</time>
      </trkpt>
      <trkpt lat="42.84111" lon="1.19368">
        <ele>558</ele>
        <time>2019-08-08T13:26:45.000Z</time>
      </trkpt>
      <trkpt lat="42.84106" lon="1.19374">
        <ele>558</ele>
        <time>2019-08-08T13:26:46.000Z</time>
      </trkpt>
      <trkpt lat="42.84101" lon="1.19381">
        <ele>558</ele>
        <time>2019-08-08T13:26:47.000Z</time>
      </trkpt>
      <trkpt lat="42.84096" lon="1.19387">
        <ele>558</ele>
        <time>2019-08-08T13:26:48.000Z</time>
      </trkpt>
      <trkpt lat="42.84091" lon="1.19393">
        <ele>558</ele>
        <time>2019-08-08T13:26:49.000Z</time>
      </trkpt>
      <trkpt lat="42.84086" lon="1.19399">
        <ele>557</ele>
        <time>2019-08-08T13:26:50.000Z</time>
      </trkpt>
      <trkpt lat="42.84081" lon="1.19405">
        <ele>557</ele>
        <time>2019-08-08T13:26:51.000Z</time>
      </trkpt>
      <trkpt lat="42.84076" lon="1.19411">
        <ele>557</ele>
        <time>2019-08-08T13:26:52.000Z</time>
      </trkpt>
      <trkpt lat="42.84069" lon="1.19421">
        <ele>557</ele>
        <time>2019-08-08T13:26:53.000Z</time>
      </trkpt>
      <trkpt lat="42.84067" lon="1.19424">
        <ele>557</ele>
        <time>2019-08-08T13:26:54.000Z</time>
      </trkpt>
      <trkpt lat="42.84062" lon="1.1943">
        <ele>558</ele>
        <time>2019-08-08T13:26:55.000Z</time>
      </trkpt>
      <trkpt lat="42.84058" lon="1.19436">
        <ele>558</ele>
        <time>2019-08-08T13:26:56.000Z</time>
      </trkpt>
      <trkpt lat="42.84053" lon="1.19442">
        <ele>558</ele>
        <time>2019-08-08T13:26:57.000Z</time>
      </trkpt>
      <trkpt lat="42.84049" lon="1.19448">
        <ele>558</ele>
        <time>2019-08-08T13:26:58.000Z</time>
      </trkpt>
      <trkpt lat="42.84044" lon="1.19454">
        <ele>557</ele>
        <time>2019-08-08T13:26:59.000Z</time>
      </trkpt>
      <trkpt lat="42.8404" lon="1.1946">
        <ele>558</ele>
        <time>2019-08-08T13:27:00.000Z</time>
      </trkpt>
      <trkpt lat="42.84035" lon="1.19466">
        <ele>558</ele>
        <time>2019-08-08T13:27:01.000Z</time>
      </trkpt>
      <trkpt lat="42.84031" lon="1.19472">
        <ele>558</ele>
        <time>2019-08-08T13:27:02.000Z</time>
      </trkpt>
      <trkpt lat="42.84026" lon="1.19478">
        <ele>558</ele>
        <time>2019-08-08T13:27:03.000Z</time>
      </trkpt>
      <trkpt lat="42.84021" lon="1.19483">
        <ele>559</ele>
        <time>2019-08-08T13:27:04.000Z</time>
      </trkpt>
      <trkpt lat="42.84016" lon="1.19489">
        <ele>559</ele>
        <time>2019-08-08T13:27:05.000Z</time>
      </trkpt>
      <trkpt lat="42.84009" lon="1.19498">
        <ele>559</ele>
        <time>2019-08-08T13:27:06.000Z</time>
      </trkpt>
      <trkpt lat="42.84007" lon="1.19502">
        <ele>559</ele>
        <time>2019-08-08T13:27:07.000Z</time>
      </trkpt>
      <trkpt lat="42.84002" lon="1.19508">
        <ele>559</ele>
        <time>2019-08-08T13:27:08.000Z</time>
      </trkpt>
      <trkpt lat="42.83995" lon="1.19518">
        <ele>559</ele>
        <time>2019-08-08T13:27:09.000Z</time>
      </trkpt>
      <trkpt lat="42.83993" lon="1.19521">
        <ele>559</ele>
        <time>2019-08-08T13:27:10.000Z</time>
      </trkpt>
      <trkpt lat="42.83988" lon="1.19527">
        <ele>559</ele>
        <time>2019-08-08T13:27:11.000Z</time>
      </trkpt>
      <trkpt lat="42.83983" lon="1.19533">
        <ele>559</ele>
        <time>2019-08-08T13:27:12.000Z</time>
      </trkpt>
      <trkpt lat="42.83978" lon="1.1954">
        <ele>559</ele>
        <time>2019-08-08T13:27:13.000Z</time>
      </trkpt>
      <trkpt lat="42.83973" lon="1.19546">
        <ele>559</ele>
        <time>2019-08-08T13:27:14.000Z</time>
      </trkpt>
      <trkpt lat="42.83969" lon="1.19552">
        <ele>559</ele>
        <time>2019-08-08T13:27:15.000Z</time>
      </trkpt>
      <trkpt lat="42.83964" lon="1.19558">
        <ele>559</ele>
        <time>2019-08-08T13:27:16.000Z</time>
      </trkpt>
      <trkpt lat="42.83959" lon="1.19563">
        <ele>559</ele>
        <time>2019-08-08T13:27:17.000Z</time>
      </trkpt>
      <trkpt lat="42.83952" lon="1.19572">
        <ele>559</ele>
        <time>2019-08-08T13:27:18.000Z</time>
      </trkpt>
      <trkpt lat="42.8395" lon="1.19575">
        <ele>559</ele>
        <time>2019-08-08T13:27:19.000Z</time>
      </trkpt>
      <trkpt lat="42.83945" lon="1.19581">
        <ele>559</ele>
        <time>2019-08-08T13:27:20.000Z</time>
      </trkpt>
      <trkpt lat="42.83941" lon="1.19587">
        <ele>561</ele>
        <time>2019-08-08T13:27:21.000Z</time>
      </trkpt>
      <trkpt lat="42.83936" lon="1.19593">
        <ele>561</ele>
        <time>2019-08-08T13:27:22.000Z</time>
      </trkpt>
      <trkpt lat="42.83932" lon="1.19599">
        <ele>561</ele>
        <time>2019-08-08T13:27:23.000Z</time>
      </trkpt>
      <trkpt lat="42.83926" lon="1.19609">
        <ele>561</ele>
        <time>2019-08-08T13:27:24.000Z</time>
      </trkpt>
      <trkpt lat="42.83924" lon="1.19612">
        <ele>561</ele>
        <time>2019-08-08T13:27:25.000Z</time>
      </trkpt>
      <trkpt lat="42.83921" lon="1.19618">
        <ele>561</ele>
        <time>2019-08-08T13:27:26.000Z</time>
      </trkpt>
      <trkpt lat="42.83917" lon="1.19625">
        <ele>561</ele>
        <time>2019-08-08T13:27:27.000Z</time>
      </trkpt>
      <trkpt lat="42.83914" lon="1.19632">
        <ele>561</ele>
        <time>2019-08-08T13:27:28.000Z</time>
      </trkpt>
      <trkpt lat="42.83911" lon="1.19644">
        <ele>561</ele>
        <time>2019-08-08T13:27:29.000Z</time>
      </trkpt>
      <trkpt lat="42.8391" lon="1.19648">
        <ele>561</ele>
        <time>2019-08-08T13:27:30.000Z</time>
      </trkpt>
      <trkpt lat="42.83908" lon="1.19656">
        <ele>562</ele>
        <time>2019-08-08T13:27:31.000Z</time>
      </trkpt>
      <trkpt lat="42.83906" lon="1.19664">
        <ele>562</ele>
        <time>2019-08-08T13:27:32.000Z</time>
      </trkpt>
      <trkpt lat="42.83903" lon="1.19677">
        <ele>562</ele>
        <time>2019-08-08T13:27:33.000Z</time>
      </trkpt>
      <trkpt lat="42.83902" lon="1.19681">
        <ele>562</ele>
        <time>2019-08-08T13:27:34.000Z</time>
      </trkpt>
      <trkpt lat="42.83901" lon="1.1969">
        <ele>562</ele>
        <time>2019-08-08T13:27:35.000Z</time>
      </trkpt>
      <trkpt lat="42.83899" lon="1.19698">
        <ele>562</ele>
        <time>2019-08-08T13:27:36.000Z</time>
      </trkpt>
      <trkpt lat="42.83898" lon="1.19706">
        <ele>562</ele>
        <time>2019-08-08T13:27:37.000Z</time>
      </trkpt>
      <trkpt lat="42.83896" lon="1.19715">
        <ele>561</ele>
        <time>2019-08-08T13:27:38.000Z</time>
      </trkpt>
      <trkpt lat="42.83894" lon="1.19723">
        <ele>561</ele>
        <time>2019-08-08T13:27:39.000Z</time>
      </trkpt>
      <trkpt lat="42.83893" lon="1.19731">
        <ele>561</ele>
        <time>2019-08-08T13:27:40.000Z</time>
      </trkpt>
      <trkpt lat="42.83891" lon="1.19739">
        <ele>562</ele>
        <time>2019-08-08T13:27:41.000Z</time>
      </trkpt>
      <trkpt lat="42.8389" lon="1.19747">
        <ele>562</ele>
        <time>2019-08-08T13:27:42.000Z</time>
      </trkpt>
      <trkpt lat="42.83888" lon="1.19755">
        <ele>562</ele>
        <time>2019-08-08T13:27:43.000Z</time>
      </trkpt>
      <trkpt lat="42.83886" lon="1.19763">
        <ele>563</ele>
        <time>2019-08-08T13:27:44.000Z</time>
      </trkpt>
      <trkpt lat="42.83884" lon="1.1977">
        <ele>563</ele>
        <time>2019-08-08T13:27:45.000Z</time>
      </trkpt>
      <trkpt lat="42.83882" lon="1.19778">
        <ele>563</ele>
        <time>2019-08-08T13:27:46.000Z</time>
      </trkpt>
      <trkpt lat="42.8388" lon="1.19785">
        <ele>563</ele>
        <time>2019-08-08T13:27:47.000Z</time>
      </trkpt>
      <trkpt lat="42.83876" lon="1.19797">
        <ele>563</ele>
        <time>2019-08-08T13:27:48.000Z</time>
      </trkpt>
      <trkpt lat="42.83875" lon="1.198">
        <ele>563</ele>
        <time>2019-08-08T13:27:49.000Z</time>
      </trkpt>
      <trkpt lat="42.83872" lon="1.19808">
        <ele>563</ele>
        <time>2019-08-08T13:27:50.000Z</time>
      </trkpt>
      <trkpt lat="42.83869" lon="1.19816">
        <ele>564</ele>
        <time>2019-08-08T13:27:51.000Z</time>
      </trkpt>
      <trkpt lat="42.83863" lon="1.19826">
        <ele>564</ele>
        <time>2019-08-08T13:27:52.000Z</time>
      </trkpt>
      <trkpt lat="42.83861" lon="1.1983">
        <ele>564</ele>
        <time>2019-08-08T13:27:53.000Z</time>
      </trkpt>
      <trkpt lat="42.83857" lon="1.19836">
        <ele>564</ele>
        <time>2019-08-08T13:27:54.000Z</time>
      </trkpt>
      <trkpt lat="42.83851" lon="1.1984">
        <ele>564</ele>
        <time>2019-08-08T13:27:55.000Z</time>
      </trkpt>
      <trkpt lat="42.83845" lon="1.19843">
        <ele>564</ele>
        <time>2019-08-08T13:27:56.000Z</time>
      </trkpt>
      <trkpt lat="42.83835" lon="1.19843">
        <ele>563</ele>
        <time>2019-08-08T13:27:57.000Z</time>
      </trkpt>
      <trkpt lat="42.83832" lon="1.19842">
        <ele>563</ele>
        <time>2019-08-08T13:27:58.000Z</time>
      </trkpt>
      <trkpt lat="42.83826" lon="1.1984">
        <ele>563</ele>
        <time>2019-08-08T13:27:59.000Z</time>
      </trkpt>
      <trkpt lat="42.83819" lon="1.19837">
        <ele>564</ele>
        <time>2019-08-08T13:28:00.000Z</time>
      </trkpt>
      <trkpt lat="42.83813" lon="1.19833">
        <ele>564</ele>
        <time>2019-08-08T13:28:01.000Z</time>
      </trkpt>
      <trkpt lat="42.83807" lon="1.19829">
        <ele>564</ele>
        <time>2019-08-08T13:28:02.000Z</time>
      </trkpt>
      <trkpt lat="42.838" lon="1.19825">
        <ele>564</ele>
        <time>2019-08-08T13:28:03.000Z</time>
      </trkpt>
      <trkpt lat="42.83794" lon="1.19822">
        <ele>564</ele>
        <time>2019-08-08T13:28:04.000Z</time>
      </trkpt>
      <trkpt lat="42.83788" lon="1.19818">
        <ele>564</ele>
        <time>2019-08-08T13:28:05.000Z</time>
      </trkpt>
      <trkpt lat="42.83781" lon="1.19814">
        <ele>564</ele>
        <time>2019-08-08T13:28:06.000Z</time>
      </trkpt>
      <trkpt lat="42.83775" lon="1.19811">
        <ele>564</ele>
        <time>2019-08-08T13:28:07.000Z</time>
      </trkpt>
      <trkpt lat="42.83768" lon="1.19808">
        <ele>564</ele>
        <time>2019-08-08T13:28:08.000Z</time>
      </trkpt>
      <trkpt lat="42.83762" lon="1.19805">
        <ele>564</ele>
        <time>2019-08-08T13:28:09.000Z</time>
      </trkpt>
      <trkpt lat="42.83755" lon="1.19803">
        <ele>564</ele>
        <time>2019-08-08T13:28:10.000Z</time>
      </trkpt>
      <trkpt lat="42.83748" lon="1.19802">
        <ele>564</ele>
        <time>2019-08-08T13:28:11.000Z</time>
      </trkpt>
      <trkpt lat="42.83741" lon="1.19802">
        <ele>564</ele>
        <time>2019-08-08T13:28:12.000Z</time>
      </trkpt>
      <trkpt lat="42.83734" lon="1.19803">
        <ele>564</ele>
        <time>2019-08-08T13:28:13.000Z</time>
      </trkpt>
      <trkpt lat="42.83724" lon="1.19805">
        <ele>564</ele>
        <time>2019-08-08T13:28:14.000Z</time>
      </trkpt>
      <trkpt lat="42.83721" lon="1.19805">
        <ele>564</ele>
        <time>2019-08-08T13:28:15.000Z</time>
      </trkpt>
      <trkpt lat="42.83714" lon="1.19806">
        <ele>564</ele>
        <time>2019-08-08T13:28:16.000Z</time>
      </trkpt>
      <trkpt lat="42.83708" lon="1.19807">
        <ele>564</ele>
        <time>2019-08-08T13:28:17.000Z</time>
      </trkpt>
      <trkpt lat="42.83701" lon="1.19808">
        <ele>564</ele>
        <time>2019-08-08T13:28:18.000Z</time>
      </trkpt>
      <trkpt lat="42.83695" lon="1.1981">
        <ele>564</ele>
        <time>2019-08-08T13:28:19.000Z</time>
      </trkpt>
      <trkpt lat="42.83689" lon="1.19812">
        <ele>564</ele>
        <time>2019-08-08T13:28:20.000Z</time>
      </trkpt>
      <trkpt lat="42.83682" lon="1.19813">
        <ele>564</ele>
        <time>2019-08-08T13:28:21.000Z</time>
      </trkpt>
      <trkpt lat="42.83676" lon="1.19815">
        <ele>564</ele>
        <time>2019-08-08T13:28:22.000Z</time>
      </trkpt>
      <trkpt lat="42.83671" lon="1.19816">
        <ele>564</ele>
        <time>2019-08-08T13:28:23.000Z</time>
      </trkpt>
      <trkpt lat="42.83662" lon="1.19819">
        <ele>564</ele>
        <time>2019-08-08T13:28:24.000Z</time>
      </trkpt>
      <trkpt lat="42.83659" lon="1.1982">
        <ele>564</ele>
        <time>2019-08-08T13:28:25.000Z</time>
      </trkpt>
      <trkpt lat="42.8365" lon="1.19822">
        <ele>566</ele>
        <time>2019-08-08T13:28:26.000Z</time>
      </trkpt>
      <trkpt lat="42.83647" lon="1.19822">
        <ele>566</ele>
        <time>2019-08-08T13:28:27.000Z</time>
      </trkpt>
      <trkpt lat="42.83642" lon="1.19823">
        <ele>566</ele>
        <time>2019-08-08T13:28:28.000Z</time>
      </trkpt>
      <trkpt lat="42.83636" lon="1.19824">
        <ele>566</ele>
        <time>2019-08-08T13:28:29.000Z</time>
      </trkpt>
      <trkpt lat="42.83631" lon="1.19825">
        <ele>566</ele>
        <time>2019-08-08T13:28:30.000Z</time>
      </trkpt>
      <trkpt lat="42.83623" lon="1.19827">
        <ele>566</ele>
        <time>2019-08-08T13:28:31.000Z</time>
      </trkpt>
      <trkpt lat="42.83621" lon="1.19827">
        <ele>566</ele>
        <time>2019-08-08T13:28:32.000Z</time>
      </trkpt>
      <trkpt lat="42.83615" lon="1.19827">
        <ele>566</ele>
        <time>2019-08-08T13:28:33.000Z</time>
      </trkpt>
      <trkpt lat="42.8361" lon="1.19827">
        <ele>566</ele>
        <time>2019-08-08T13:28:34.000Z</time>
      </trkpt>
      <trkpt lat="42.83605" lon="1.19827">
        <ele>567</ele>
        <time>2019-08-08T13:28:35.000Z</time>
      </trkpt>
      <trkpt lat="42.836" lon="1.19826">
        <ele>567</ele>
        <time>2019-08-08T13:28:36.000Z</time>
      </trkpt>
      <trkpt lat="42.83596" lon="1.19823">
        <ele>567</ele>
        <time>2019-08-08T13:28:37.000Z</time>
      </trkpt>
      <trkpt lat="42.83592" lon="1.1982">
        <ele>567</ele>
        <time>2019-08-08T13:28:38.000Z</time>
      </trkpt>
      <trkpt lat="42.83588" lon="1.19816">
        <ele>567</ele>
        <time>2019-08-08T13:28:39.000Z</time>
      </trkpt>
      <trkpt lat="42.83585" lon="1.19811">
        <ele>567</ele>
        <time>2019-08-08T13:28:40.000Z</time>
      </trkpt>
      <trkpt lat="42.83582" lon="1.19805">
        <ele>567</ele>
        <time>2019-08-08T13:28:41.000Z</time>
      </trkpt>
      <trkpt lat="42.8358" lon="1.198">
        <ele>567</ele>
        <time>2019-08-08T13:28:42.000Z</time>
      </trkpt>
      <trkpt lat="42.83578" lon="1.19794">
        <ele>568</ele>
        <time>2019-08-08T13:28:43.000Z</time>
      </trkpt>
      <trkpt lat="42.83576" lon="1.19787">
        <ele>568</ele>
        <time>2019-08-08T13:28:44.000Z</time>
      </trkpt>
      <trkpt lat="42.83575" lon="1.1978">
        <ele>569</ele>
        <time>2019-08-08T13:28:45.000Z</time>
      </trkpt>
      <trkpt lat="42.83574" lon="1.19773">
        <ele>569</ele>
        <time>2019-08-08T13:28:46.000Z</time>
      </trkpt>
      <trkpt lat="42.83574" lon="1.19766">
        <ele>569</ele>
        <time>2019-08-08T13:28:47.000Z</time>
      </trkpt>
      <trkpt lat="42.83574" lon="1.19755">
        <ele>569</ele>
        <time>2019-08-08T13:28:48.000Z</time>
      </trkpt>
      <trkpt lat="42.83574" lon="1.19751">
        <ele>569</ele>
        <time>2019-08-08T13:28:49.000Z</time>
      </trkpt>
      <trkpt lat="42.83574" lon="1.19744">
        <ele>569</ele>
        <time>2019-08-08T13:28:50.000Z</time>
      </trkpt>
      <trkpt lat="42.83575" lon="1.19732">
        <ele>569</ele>
        <time>2019-08-08T13:28:51.000Z</time>
      </trkpt>
      <trkpt lat="42.83575" lon="1.19728">
        <ele>569</ele>
        <time>2019-08-08T13:28:52.000Z</time>
      </trkpt>
      <trkpt lat="42.83576" lon="1.1972">
        <ele>569</ele>
        <time>2019-08-08T13:28:53.000Z</time>
      </trkpt>
      <trkpt lat="42.83576" lon="1.19713">
        <ele>569</ele>
        <time>2019-08-08T13:28:54.000Z</time>
      </trkpt>
      <trkpt lat="42.83577" lon="1.19705">
        <ele>569</ele>
        <time>2019-08-08T13:28:55.000Z</time>
      </trkpt>
      <trkpt lat="42.83578" lon="1.19697">
        <ele>570</ele>
        <time>2019-08-08T13:28:56.000Z</time>
      </trkpt>
      <trkpt lat="42.83579" lon="1.1969">
        <ele>570</ele>
        <time>2019-08-08T13:28:57.000Z</time>
      </trkpt>
      <trkpt lat="42.8358" lon="1.19682">
        <ele>571</ele>
        <time>2019-08-08T13:28:58.000Z</time>
      </trkpt>
      <trkpt lat="42.8358" lon="1.19674">
        <ele>571</ele>
        <time>2019-08-08T13:28:59.000Z</time>
      </trkpt>
      <trkpt lat="42.83581" lon="1.19663">
        <ele>571</ele>
        <time>2019-08-08T13:29:00.000Z</time>
      </trkpt>
      <trkpt lat="42.83581" lon="1.19659">
        <ele>571</ele>
        <time>2019-08-08T13:29:01.000Z</time>
      </trkpt>
      <trkpt lat="42.83581" lon="1.19652">
        <ele>571</ele>
        <time>2019-08-08T13:29:02.000Z</time>
      </trkpt>
      <trkpt lat="42.8358" lon="1.1964">
        <ele>571</ele>
        <time>2019-08-08T13:29:03.000Z</time>
      </trkpt>
      <trkpt lat="42.83579" lon="1.19637">
        <ele>571</ele>
        <time>2019-08-08T13:29:04.000Z</time>
      </trkpt>
      <trkpt lat="42.83576" lon="1.19626">
        <ele>571</ele>
        <time>2019-08-08T13:29:05.000Z</time>
      </trkpt>
      <trkpt lat="42.83574" lon="1.19623">
        <ele>571</ele>
        <time>2019-08-08T13:29:06.000Z</time>
      </trkpt>
      <trkpt lat="42.83571" lon="1.19616">
        <ele>571</ele>
        <time>2019-08-08T13:29:07.000Z</time>
      </trkpt>
      <trkpt lat="42.83566" lon="1.19611">
        <ele>571</ele>
        <time>2019-08-08T13:29:08.000Z</time>
      </trkpt>
      <trkpt lat="42.83561" lon="1.19607">
        <ele>571</ele>
        <time>2019-08-08T13:29:09.000Z</time>
      </trkpt>
      <trkpt lat="42.83555" lon="1.19604">
        <ele>571</ele>
        <time>2019-08-08T13:29:10.000Z</time>
      </trkpt>
      <trkpt lat="42.83549" lon="1.19602">
        <ele>572</ele>
        <time>2019-08-08T13:29:11.000Z</time>
      </trkpt>
      <trkpt lat="42.83543" lon="1.19602">
        <ele>572</ele>
        <time>2019-08-08T13:29:12.000Z</time>
      </trkpt>
      <trkpt lat="42.83537" lon="1.19602">
        <ele>572</ele>
        <time>2019-08-08T13:29:13.000Z</time>
      </trkpt>
      <trkpt lat="42.83532" lon="1.19603">
        <ele>572</ele>
        <time>2019-08-08T13:29:14.000Z</time>
      </trkpt>
      <trkpt lat="42.83526" lon="1.19604">
        <ele>572</ele>
        <time>2019-08-08T13:29:15.000Z</time>
      </trkpt>
      <trkpt lat="42.83521" lon="1.19606">
        <ele>572</ele>
        <time>2019-08-08T13:29:16.000Z</time>
      </trkpt>
      <trkpt lat="42.83515" lon="1.19607">
        <ele>572</ele>
        <time>2019-08-08T13:29:17.000Z</time>
      </trkpt>
      <trkpt lat="42.8351" lon="1.19608">
        <ele>572</ele>
        <time>2019-08-08T13:29:18.000Z</time>
      </trkpt>
      <trkpt lat="42.83504" lon="1.19609">
        <ele>572</ele>
        <time>2019-08-08T13:29:19.000Z</time>
      </trkpt>
      <trkpt lat="42.83499" lon="1.19611">
        <ele>572</ele>
        <time>2019-08-08T13:29:20.000Z</time>
      </trkpt>
      <trkpt lat="42.83491" lon="1.19615">
        <ele>572</ele>
        <time>2019-08-08T13:29:21.000Z</time>
      </trkpt>
      <trkpt lat="42.83488" lon="1.19617">
        <ele>572</ele>
        <time>2019-08-08T13:29:22.000Z</time>
      </trkpt>
      <trkpt lat="42.83485" lon="1.19619">
        <ele>572.4</ele>
        <time>2019-08-08T13:29:23.000Z</time>
      </trkpt>
      <trkpt lat="42.83479" lon="1.19624">
        <ele>573</ele>
        <time>2019-08-08T13:29:24.000Z</time>
      </trkpt>
      <trkpt lat="42.83477" lon="1.19626">
        <ele>573</ele>
        <time>2019-08-08T13:29:25.000Z</time>
      </trkpt>
      <trkpt lat="42.83471" lon="1.19633">
        <ele>573</ele>
        <time>2019-08-08T13:29:26.000Z</time>
      </trkpt>
      <trkpt lat="42.83469" lon="1.19636">
        <ele>574</ele>
        <time>2019-08-08T13:29:27.000Z</time>
      </trkpt>
      <trkpt lat="42.83465" lon="1.19641">
        <ele>574</ele>
        <time>2019-08-08T13:29:28.000Z</time>
      </trkpt>
      <trkpt lat="42.83462" lon="1.19648">
        <ele>575</ele>
        <time>2019-08-08T13:29:29.000Z</time>
      </trkpt>
      <trkpt lat="42.8346" lon="1.19654">
        <ele>575</ele>
        <time>2019-08-08T13:29:30.000Z</time>
      </trkpt>
      <trkpt lat="42.83457" lon="1.1966">
        <ele>575</ele>
        <time>2019-08-08T13:29:31.000Z</time>
      </trkpt>
      <trkpt lat="42.83455" lon="1.19667">
        <ele>575</ele>
        <time>2019-08-08T13:29:32.000Z</time>
      </trkpt>
      <trkpt lat="42.83453" lon="1.19674">
        <ele>576</ele>
        <time>2019-08-08T13:29:33.000Z</time>
      </trkpt>
      <trkpt lat="42.83451" lon="1.19681">
        <ele>576</ele>
        <time>2019-08-08T13:29:34.000Z</time>
      </trkpt>
      <trkpt lat="42.83448" lon="1.19689">
        <ele>576</ele>
        <time>2019-08-08T13:29:35.000Z</time>
      </trkpt>
      <trkpt lat="42.83446" lon="1.19696">
        <ele>576</ele>
        <time>2019-08-08T13:29:36.000Z</time>
      </trkpt>
      <trkpt lat="42.83444" lon="1.19703">
        <ele>576</ele>
        <time>2019-08-08T13:29:37.000Z</time>
      </trkpt>
      <trkpt lat="42.8344" lon="1.19713">
        <ele>576</ele>
        <time>2019-08-08T13:29:38.000Z</time>
      </trkpt>
      <trkpt lat="42.83438" lon="1.19717">
        <ele>576</ele>
        <time>2019-08-08T13:29:39.000Z</time>
      </trkpt>
      <trkpt lat="42.83434" lon="1.19727">
        <ele>576</ele>
        <time>2019-08-08T13:29:40.000Z</time>
      </trkpt>
      <trkpt lat="42.83432" lon="1.1973">
        <ele>576</ele>
        <time>2019-08-08T13:29:41.000Z</time>
      </trkpt>
      <trkpt lat="42.83432" lon="1.1973">
        <ele>576</ele>
        <time>2019-08-08T13:29:42.000Z</time>
      </trkpt>
      <trkpt lat="42.83425" lon="1.19744">
        <ele>576</ele>
        <time>2019-08-08T13:29:43.000Z</time>
      </trkpt>
      <trkpt lat="42.83422" lon="1.1975">
        <ele>576</ele>
        <time>2019-08-08T13:29:44.000Z</time>
      </trkpt>
      <trkpt lat="42.83419" lon="1.19757">
        <ele>576</ele>
        <time>2019-08-08T13:29:45.000Z</time>
      </trkpt>
      <trkpt lat="42.83415" lon="1.19763">
        <ele>575</ele>
        <time>2019-08-08T13:29:46.000Z</time>
      </trkpt>
      <trkpt lat="42.83411" lon="1.19769">
        <ele>575</ele>
        <time>2019-08-08T13:29:47.000Z</time>
      </trkpt>
      <trkpt lat="42.83407" lon="1.19775">
        <ele>576</ele>
        <time>2019-08-08T13:29:48.000Z</time>
      </trkpt>
      <trkpt lat="42.83403" lon="1.1978">
        <ele>576</ele>
        <time>2019-08-08T13:29:49.000Z</time>
      </trkpt>
      <trkpt lat="42.83398" lon="1.19785">
        <ele>576</ele>
        <time>2019-08-08T13:29:50.000Z</time>
      </trkpt>
      <trkpt lat="42.83394" lon="1.1979">
        <ele>576</ele>
        <time>2019-08-08T13:29:51.000Z</time>
      </trkpt>
      <trkpt lat="42.83389" lon="1.19794">
        <ele>576</ele>
        <time>2019-08-08T13:29:52.000Z</time>
      </trkpt>
      <trkpt lat="42.83384" lon="1.19798">
        <ele>576</ele>
        <time>2019-08-08T13:29:53.000Z</time>
      </trkpt>
      <trkpt lat="42.83379" lon="1.19802">
        <ele>577</ele>
        <time>2019-08-08T13:29:54.000Z</time>
      </trkpt>
      <trkpt lat="42.83374" lon="1.19805">
        <ele>577</ele>
        <time>2019-08-08T13:29:55.000Z</time>
      </trkpt>
      <trkpt lat="42.83368" lon="1.19808">
        <ele>577</ele>
        <time>2019-08-08T13:29:56.000Z</time>
      </trkpt>
      <trkpt lat="42.83363" lon="1.19811">
        <ele>577</ele>
        <time>2019-08-08T13:29:57.000Z</time>
      </trkpt>
      <trkpt lat="42.83358" lon="1.19814">
        <ele>577</ele>
        <time>2019-08-08T13:29:58.000Z</time>
      </trkpt>
      <trkpt lat="42.83352" lon="1.19817">
        <ele>577</ele>
        <time>2019-08-08T13:29:59.000Z</time>
      </trkpt>
      <trkpt lat="42.83347" lon="1.1982">
        <ele>576</ele>
        <time>2019-08-08T13:30:00.000Z</time>
      </trkpt>
      <trkpt lat="42.83339" lon="1.19823">
        <ele>576</ele>
        <time>2019-08-08T13:30:01.000Z</time>
      </trkpt>
      <trkpt lat="42.83336" lon="1.19824">
        <ele>576</ele>
        <time>2019-08-08T13:30:02.000Z</time>
      </trkpt>
      <trkpt lat="42.83331" lon="1.19825">
        <ele>577</ele>
        <time>2019-08-08T13:30:03.000Z</time>
      </trkpt>
      <trkpt lat="42.83325" lon="1.19827">
        <ele>577</ele>
        <time>2019-08-08T13:30:04.000Z</time>
      </trkpt>
      <trkpt lat="42.8332" lon="1.19828">
        <ele>578</ele>
        <time>2019-08-08T13:30:05.000Z</time>
      </trkpt>
      <trkpt lat="42.83315" lon="1.19829">
        <ele>578</ele>
        <time>2019-08-08T13:30:06.000Z</time>
      </trkpt>
      <trkpt lat="42.8331" lon="1.1983">
        <ele>578</ele>
        <time>2019-08-08T13:30:07.000Z</time>
      </trkpt>
      <trkpt lat="42.83305" lon="1.19831">
        <ele>578</ele>
        <time>2019-08-08T13:30:08.000Z</time>
      </trkpt>
      <trkpt lat="42.833" lon="1.19832">
        <ele>579</ele>
        <time>2019-08-08T13:30:09.000Z</time>
      </trkpt>
      <trkpt lat="42.83295" lon="1.19832">
        <ele>579</ele>
        <time>2019-08-08T13:30:10.000Z</time>
      </trkpt>
      <trkpt lat="42.8329" lon="1.19832">
        <ele>579</ele>
        <time>2019-08-08T13:30:11.000Z</time>
      </trkpt>
      <trkpt lat="42.83285" lon="1.19832">
        <ele>579</ele>
        <time>2019-08-08T13:30:12.000Z</time>
      </trkpt>
      <trkpt lat="42.8328" lon="1.19832">
        <ele>579</ele>
        <time>2019-08-08T13:30:13.000Z</time>
      </trkpt>
      <trkpt lat="42.83275" lon="1.19832">
        <ele>579</ele>
        <time>2019-08-08T13:30:14.000Z</time>
      </trkpt>
      <trkpt lat="42.8327" lon="1.19833">
        <ele>579</ele>
        <time>2019-08-08T13:30:15.000Z</time>
      </trkpt>
      <trkpt lat="42.83265" lon="1.19833">
        <ele>579</ele>
        <time>2019-08-08T13:30:16.000Z</time>
      </trkpt>
      <trkpt lat="42.8326" lon="1.19833">
        <ele>580</ele>
        <time>2019-08-08T13:30:17.000Z</time>
      </trkpt>
      <trkpt lat="42.83255" lon="1.19833">
        <ele>580</ele>
        <time>2019-08-08T13:30:18.000Z</time>
      </trkpt>
      <trkpt lat="42.83249" lon="1.19833">
        <ele>580</ele>
        <time>2019-08-08T13:30:19.000Z</time>
      </trkpt>
      <trkpt lat="42.83241" lon="1.19833">
        <ele>580</ele>
        <time>2019-08-08T13:30:20.000Z</time>
      </trkpt>
      <trkpt lat="42.83238" lon="1.19833">
        <ele>580</ele>
        <time>2019-08-08T13:30:21.000Z</time>
      </trkpt>
      <trkpt lat="42.83232" lon="1.19832">
        <ele>580</ele>
        <time>2019-08-08T13:30:22.000Z</time>
      </trkpt>
      <trkpt lat="42.83227" lon="1.19832">
        <ele>580</ele>
        <time>2019-08-08T13:30:23.000Z</time>
      </trkpt>
      <trkpt lat="42.83221" lon="1.19832">
        <ele>581</ele>
        <time>2019-08-08T13:30:24.000Z</time>
      </trkpt>
      <trkpt lat="42.83213" lon="1.19835">
        <ele>581</ele>
        <time>2019-08-08T13:30:25.000Z</time>
      </trkpt>
      <trkpt lat="42.8321" lon="1.19837">
        <ele>581</ele>
        <time>2019-08-08T13:30:26.000Z</time>
      </trkpt>
      <trkpt lat="42.83207" lon="1.19838">
        <ele>581</ele>
        <time>2019-08-08T13:30:27.000Z</time>
      </trkpt>
      <trkpt lat="42.83203" lon="1.19843">
        <ele>581</ele>
        <time>2019-08-08T13:30:28.000Z</time>
      </trkpt>
      <trkpt lat="42.83201" lon="1.19849">
        <ele>581</ele>
        <time>2019-08-08T13:30:29.000Z</time>
      </trkpt>
      <trkpt lat="42.832" lon="1.19856">
        <ele>582</ele>
        <time>2019-08-08T13:30:30.000Z</time>
      </trkpt>
      <trkpt lat="42.83201" lon="1.19862">
        <ele>582</ele>
        <time>2019-08-08T13:30:31.000Z</time>
      </trkpt>
      <trkpt lat="42.83202" lon="1.19868">
        <ele>582</ele>
        <time>2019-08-08T13:30:32.000Z</time>
      </trkpt>
      <trkpt lat="42.83203" lon="1.19873">
        <ele>582</ele>
        <time>2019-08-08T13:30:33.000Z</time>
      </trkpt>
      <trkpt lat="42.83204" lon="1.19878">
        <ele>583</ele>
        <time>2019-08-08T13:30:34.000Z</time>
      </trkpt>
      <trkpt lat="42.83206" lon="1.19883">
        <ele>583</ele>
        <time>2019-08-08T13:30:35.000Z</time>
      </trkpt>
      <trkpt lat="42.83207" lon="1.19888">
        <ele>584</ele>
        <time>2019-08-08T13:30:36.000Z</time>
      </trkpt>
      <trkpt lat="42.83209" lon="1.19892">
        <ele>584</ele>
        <time>2019-08-08T13:30:37.000Z</time>
      </trkpt>
      <trkpt lat="42.8321" lon="1.19896">
        <ele>584</ele>
        <time>2019-08-08T13:30:38.000Z</time>
      </trkpt>
      <trkpt lat="42.83212" lon="1.199">
        <ele>584</ele>
        <time>2019-08-08T13:30:39.000Z</time>
      </trkpt>
      <trkpt lat="42.83213" lon="1.19904">
        <ele>585</ele>
        <time>2019-08-08T13:30:40.000Z</time>
      </trkpt>
      <trkpt lat="42.83215" lon="1.19908">
        <ele>585</ele>
        <time>2019-08-08T13:30:41.000Z</time>
      </trkpt>
      <trkpt lat="42.83217" lon="1.19912">
        <ele>585</ele>
        <time>2019-08-08T13:30:42.000Z</time>
      </trkpt>
      <trkpt lat="42.83219" lon="1.19916">
        <ele>585</ele>
        <time>2019-08-08T13:30:43.000Z</time>
      </trkpt>
      <trkpt lat="42.83222" lon="1.19919">
        <ele>585</ele>
        <time>2019-08-08T13:30:44.000Z</time>
      </trkpt>
      <trkpt lat="42.83224" lon="1.19923">
        <ele>585</ele>
        <time>2019-08-08T13:30:45.000Z</time>
      </trkpt>
      <trkpt lat="42.83226" lon="1.19927">
        <ele>586</ele>
        <time>2019-08-08T13:30:46.000Z</time>
      </trkpt>
      <trkpt lat="42.83228" lon="1.19931">
        <ele>586</ele>
        <time>2019-08-08T13:30:47.000Z</time>
      </trkpt>
      <trkpt lat="42.8323" lon="1.19935">
        <ele>586</ele>
        <time>2019-08-08T13:30:48.000Z</time>
      </trkpt>
      <trkpt lat="42.83233" lon="1.19939">
        <ele>586</ele>
        <time>2019-08-08T13:30:49.000Z</time>
      </trkpt>
      <trkpt lat="42.83235" lon="1.19943">
        <ele>587</ele>
        <time>2019-08-08T13:30:50.000Z</time>
      </trkpt>
      <trkpt lat="42.83238" lon="1.19947">
        <ele>587</ele>
        <time>2019-08-08T13:30:51.000Z</time>
      </trkpt>
      <trkpt lat="42.8324" lon="1.19951">
        <ele>587</ele>
        <time>2019-08-08T13:30:52.000Z</time>
      </trkpt>
      <trkpt lat="42.83243" lon="1.19956">
        <ele>587</ele>
        <time>2019-08-08T13:30:53.000Z</time>
      </trkpt>
      <trkpt lat="42.83246" lon="1.1996">
        <ele>587</ele>
        <time>2019-08-08T13:30:54.000Z</time>
      </trkpt>
      <trkpt lat="42.83248" lon="1.19965">
        <ele>587</ele>
        <time>2019-08-08T13:30:55.000Z</time>
      </trkpt>
      <trkpt lat="42.83251" lon="1.1997">
        <ele>587</ele>
        <time>2019-08-08T13:30:56.000Z</time>
      </trkpt>
      <trkpt lat="42.83254" lon="1.19974">
        <ele>587</ele>
        <time>2019-08-08T13:30:57.000Z</time>
      </trkpt>
      <trkpt lat="42.83257" lon="1.19979">
        <ele>587</ele>
        <time>2019-08-08T13:30:58.000Z</time>
      </trkpt>
      <trkpt lat="42.83259" lon="1.19984">
        <ele>587</ele>
        <time>2019-08-08T13:30:59.000Z</time>
      </trkpt>
      <trkpt lat="42.83263" lon="1.19992">
        <ele>587</ele>
        <time>2019-08-08T13:31:00.000Z</time>
      </trkpt>
      <trkpt lat="42.83264" lon="1.19994">
        <ele>587</ele>
        <time>2019-08-08T13:31:01.000Z</time>
      </trkpt>
      <trkpt lat="42.83266" lon="1.2">
        <ele>587</ele>
        <time>2019-08-08T13:31:02.000Z</time>
      </trkpt>
      <trkpt lat="42.83268" lon="1.20006">
        <ele>588</ele>
        <time>2019-08-08T13:31:03.000Z</time>
      </trkpt>
      <trkpt lat="42.8327" lon="1.20012">
        <ele>588</ele>
        <time>2019-08-08T13:31:04.000Z</time>
      </trkpt>
      <trkpt lat="42.83271" lon="1.20018">
        <ele>588</ele>
        <time>2019-08-08T13:31:05.000Z</time>
      </trkpt>
      <trkpt lat="42.83273" lon="1.20024">
        <ele>588</ele>
        <time>2019-08-08T13:31:06.000Z</time>
      </trkpt>
      <trkpt lat="42.83274" lon="1.20031">
        <ele>588</ele>
        <time>2019-08-08T13:31:07.000Z</time>
      </trkpt>
      <trkpt lat="42.83275" lon="1.20037">
        <ele>588</ele>
        <time>2019-08-08T13:31:08.000Z</time>
      </trkpt>
      <trkpt lat="42.83276" lon="1.20043">
        <ele>588</ele>
        <time>2019-08-08T13:31:09.000Z</time>
      </trkpt>
      <trkpt lat="42.83276" lon="1.2005">
        <ele>588</ele>
        <time>2019-08-08T13:31:10.000Z</time>
      </trkpt>
      <trkpt lat="42.83277" lon="1.20056">
        <ele>588</ele>
        <time>2019-08-08T13:31:11.000Z</time>
      </trkpt>
      <trkpt lat="42.83277" lon="1.20063">
        <ele>588</ele>
        <time>2019-08-08T13:31:12.000Z</time>
      </trkpt>
      <trkpt lat="42.83277" lon="1.2007">
        <ele>588</ele>
        <time>2019-08-08T13:31:13.000Z</time>
      </trkpt>
      <trkpt lat="42.83276" lon="1.20077">
        <ele>588</ele>
        <time>2019-08-08T13:31:14.000Z</time>
      </trkpt>
      <trkpt lat="42.83275" lon="1.20084">
        <ele>588</ele>
        <time>2019-08-08T13:31:15.000Z</time>
      </trkpt>
      <trkpt lat="42.83275" lon="1.20091">
        <ele>588</ele>
        <time>2019-08-08T13:31:16.000Z</time>
      </trkpt>
      <trkpt lat="42.83273" lon="1.20101">
        <ele>588</ele>
        <time>2019-08-08T13:31:17.000Z</time>
      </trkpt>
      <trkpt lat="42.83272" lon="1.20104">
        <ele>588</ele>
        <time>2019-08-08T13:31:18.000Z</time>
      </trkpt>
      <trkpt lat="42.8327" lon="1.20111">
        <ele>588</ele>
        <time>2019-08-08T13:31:19.000Z</time>
      </trkpt>
      <trkpt lat="42.83269" lon="1.20117">
        <ele>588</ele>
        <time>2019-08-08T13:31:20.000Z</time>
      </trkpt>
      <trkpt lat="42.83267" lon="1.20123">
        <ele>588</ele>
        <time>2019-08-08T13:31:21.000Z</time>
      </trkpt>
      <trkpt lat="42.83265" lon="1.2013">
        <ele>588</ele>
        <time>2019-08-08T13:31:22.000Z</time>
      </trkpt>
      <trkpt lat="42.83263" lon="1.20136">
        <ele>588</ele>
        <time>2019-08-08T13:31:23.000Z</time>
      </trkpt>
      <trkpt lat="42.83261" lon="1.20143">
        <ele>589</ele>
        <time>2019-08-08T13:31:24.000Z</time>
      </trkpt>
      <trkpt lat="42.83258" lon="1.20152">
        <ele>589</ele>
        <time>2019-08-08T13:31:25.000Z</time>
      </trkpt>
      <trkpt lat="42.83257" lon="1.20156">
        <ele>589</ele>
        <time>2019-08-08T13:31:26.000Z</time>
      </trkpt>
      <trkpt lat="42.83255" lon="1.20162">
        <ele>589</ele>
        <time>2019-08-08T13:31:27.000Z</time>
      </trkpt>
      <trkpt lat="42.83252" lon="1.20169">
        <ele>589</ele>
        <time>2019-08-08T13:31:28.000Z</time>
      </trkpt>
      <trkpt lat="42.8325" lon="1.20176">
        <ele>589</ele>
        <time>2019-08-08T13:31:29.000Z</time>
      </trkpt>
      <trkpt lat="42.83248" lon="1.20183">
        <ele>589</ele>
        <time>2019-08-08T13:31:30.000Z</time>
      </trkpt>
      <trkpt lat="42.83245" lon="1.20189">
        <ele>590</ele>
        <time>2019-08-08T13:31:31.000Z</time>
      </trkpt>
      <trkpt lat="42.83243" lon="1.20199">
        <ele>590</ele>
        <time>2019-08-08T13:31:32.000Z</time>
      </trkpt>
      <trkpt lat="42.83241" lon="1.20202">
        <ele>590</ele>
        <time>2019-08-08T13:31:33.000Z</time>
      </trkpt>
      <trkpt lat="42.83239" lon="1.20209">
        <ele>590</ele>
        <time>2019-08-08T13:31:34.000Z</time>
      </trkpt>
      <trkpt lat="42.83237" lon="1.20215">
        <ele>590</ele>
        <time>2019-08-08T13:31:35.000Z</time>
      </trkpt>
      <trkpt lat="42.83236" lon="1.20222">
        <ele>590</ele>
        <time>2019-08-08T13:31:36.000Z</time>
      </trkpt>
      <trkpt lat="42.83234" lon="1.20228">
        <ele>590</ele>
        <time>2019-08-08T13:31:37.000Z</time>
      </trkpt>
      <trkpt lat="42.83232" lon="1.20235">
        <ele>590</ele>
        <time>2019-08-08T13:31:38.000Z</time>
      </trkpt>
      <trkpt lat="42.8323" lon="1.20242">
        <ele>590</ele>
        <time>2019-08-08T13:31:39.000Z</time>
      </trkpt>
      <trkpt lat="42.83228" lon="1.2025">
        <ele>590</ele>
        <time>2019-08-08T13:31:40.000Z</time>
      </trkpt>
      <trkpt lat="42.83227" lon="1.20257">
        <ele>590</ele>
        <time>2019-08-08T13:31:41.000Z</time>
      </trkpt>
      <trkpt lat="42.83224" lon="1.20268">
        <ele>590</ele>
        <time>2019-08-08T13:31:42.000Z</time>
      </trkpt>
      <trkpt lat="42.83224" lon="1.20272">
        <ele>591</ele>
        <time>2019-08-08T13:31:43.000Z</time>
      </trkpt>
      <trkpt lat="42.83222" lon="1.20279">
        <ele>591</ele>
        <time>2019-08-08T13:31:44.000Z</time>
      </trkpt>
      <trkpt lat="42.83221" lon="1.20287">
        <ele>591</ele>
        <time>2019-08-08T13:31:45.000Z</time>
      </trkpt>
      <trkpt lat="42.8322" lon="1.20295">
        <ele>591</ele>
        <time>2019-08-08T13:31:46.000Z</time>
      </trkpt>
      <trkpt lat="42.83219" lon="1.20303">
        <ele>591</ele>
        <time>2019-08-08T13:31:47.000Z</time>
      </trkpt>
      <trkpt lat="42.83218" lon="1.20315">
        <ele>591</ele>
        <time>2019-08-08T13:31:48.000Z</time>
      </trkpt>
      <trkpt lat="42.83217" lon="1.20319">
        <ele>591</ele>
        <time>2019-08-08T13:31:49.000Z</time>
      </trkpt>
      <trkpt lat="42.83216" lon="1.20327">
        <ele>591</ele>
        <time>2019-08-08T13:31:50.000Z</time>
      </trkpt>
      <trkpt lat="42.83216" lon="1.20336">
        <ele>591</ele>
        <time>2019-08-08T13:31:51.000Z</time>
      </trkpt>
      <trkpt lat="42.83216" lon="1.20348">
        <ele>591</ele>
        <time>2019-08-08T13:31:52.000Z</time>
      </trkpt>
      <trkpt lat="42.83215" lon="1.20352">
        <ele>591</ele>
        <time>2019-08-08T13:31:53.000Z</time>
      </trkpt>
      <trkpt lat="42.83215" lon="1.2036">
        <ele>591</ele>
        <time>2019-08-08T13:31:54.000Z</time>
      </trkpt>
      <trkpt lat="42.83216" lon="1.20368">
        <ele>591</ele>
        <time>2019-08-08T13:31:55.000Z</time>
      </trkpt>
      <trkpt lat="42.83216" lon="1.20376">
        <ele>591</ele>
        <time>2019-08-08T13:31:56.000Z</time>
      </trkpt>
      <trkpt lat="42.83216" lon="1.20384">
        <ele>591</ele>
        <time>2019-08-08T13:31:57.000Z</time>
      </trkpt>
      <trkpt lat="42.83217" lon="1.20397">
        <ele>591</ele>
        <time>2019-08-08T13:31:58.000Z</time>
      </trkpt>
      <trkpt lat="42.83217" lon="1.20401">
        <ele>590</ele>
        <time>2019-08-08T13:31:59.000Z</time>
      </trkpt>
      <trkpt lat="42.83217" lon="1.2041">
        <ele>590</ele>
        <time>2019-08-08T13:32:00.000Z</time>
      </trkpt>
      <trkpt lat="42.83217" lon="1.20419">
        <ele>590</ele>
        <time>2019-08-08T13:32:01.000Z</time>
      </trkpt>
      <trkpt lat="42.83217" lon="1.20427">
        <ele>590</ele>
        <time>2019-08-08T13:32:02.000Z</time>
      </trkpt>
      <trkpt lat="42.83218" lon="1.20436">
        <ele>590</ele>
        <time>2019-08-08T13:32:03.000Z</time>
      </trkpt>
      <trkpt lat="42.83218" lon="1.20451">
        <ele>590</ele>
        <time>2019-08-08T13:32:04.000Z</time>
      </trkpt>
      <trkpt lat="42.83219" lon="1.20457">
        <ele>590</ele>
        <time>2019-08-08T13:32:05.000Z</time>
      </trkpt>
      <trkpt lat="42.83219" lon="1.20463">
        <ele>591</ele>
        <time>2019-08-08T13:32:06.000Z</time>
      </trkpt>
      <trkpt lat="42.8322" lon="1.20471">
        <ele>591</ele>
        <time>2019-08-08T13:32:07.000Z</time>
      </trkpt>
      <trkpt lat="42.83221" lon="1.2048">
        <ele>591</ele>
        <time>2019-08-08T13:32:08.000Z</time>
      </trkpt>
      <trkpt lat="42.83222" lon="1.20489">
        <ele>591</ele>
        <time>2019-08-08T13:32:09.000Z</time>
      </trkpt>
      <trkpt lat="42.83224" lon="1.20498">
        <ele>591</ele>
        <time>2019-08-08T13:32:10.000Z</time>
      </trkpt>
      <trkpt lat="42.83225" lon="1.20506">
        <ele>591</ele>
        <time>2019-08-08T13:32:11.000Z</time>
      </trkpt>
      <trkpt lat="42.83227" lon="1.20515">
        <ele>591</ele>
        <time>2019-08-08T13:32:12.000Z</time>
      </trkpt>
      <trkpt lat="42.83231" lon="1.20527">
        <ele>591</ele>
        <time>2019-08-08T13:32:13.000Z</time>
      </trkpt>
      <trkpt lat="42.83232" lon="1.20531">
        <ele>591</ele>
        <time>2019-08-08T13:32:14.000Z</time>
      </trkpt>
      <trkpt lat="42.83235" lon="1.20539">
        <ele>591</ele>
        <time>2019-08-08T13:32:15.000Z</time>
      </trkpt>
      <trkpt lat="42.83237" lon="1.20547">
        <ele>591</ele>
        <time>2019-08-08T13:32:16.000Z</time>
      </trkpt>
      <trkpt lat="42.83241" lon="1.20554">
        <ele>591</ele>
        <time>2019-08-08T13:32:17.000Z</time>
      </trkpt>
      <trkpt lat="42.83244" lon="1.20561">
        <ele>591</ele>
        <time>2019-08-08T13:32:18.000Z</time>
      </trkpt>
      <trkpt lat="42.83248" lon="1.20568">
        <ele>592</ele>
        <time>2019-08-08T13:32:19.000Z</time>
      </trkpt>
      <trkpt lat="42.83251" lon="1.20574">
        <ele>592</ele>
        <time>2019-08-08T13:32:20.000Z</time>
      </trkpt>
      <trkpt lat="42.83258" lon="1.20583">
        <ele>592</ele>
        <time>2019-08-08T13:32:21.000Z</time>
      </trkpt>
      <trkpt lat="42.8326" lon="1.20586">
        <ele>591.6</ele>
        <time>2019-08-08T13:32:22.000Z</time>
      </trkpt>
      <trkpt lat="42.83264" lon="1.20591">
        <ele>591</ele>
        <time>2019-08-08T13:32:23.000Z</time>
      </trkpt>
      <trkpt lat="42.83268" lon="1.20597">
        <ele>591</ele>
        <time>2019-08-08T13:32:24.000Z</time>
      </trkpt>
      <trkpt lat="42.83272" lon="1.20602">
        <ele>591</ele>
        <time>2019-08-08T13:32:25.000Z</time>
      </trkpt>
      <trkpt lat="42.83275" lon="1.20608">
        <ele>591</ele>
        <time>2019-08-08T13:32:26.000Z</time>
      </trkpt>
      <trkpt lat="42.83279" lon="1.20614">
        <ele>591</ele>
        <time>2019-08-08T13:32:27.000Z</time>
      </trkpt>
      <trkpt lat="42.83283" lon="1.20619">
        <ele>591</ele>
        <time>2019-08-08T13:32:28.000Z</time>
      </trkpt>
      <trkpt lat="42.83288" lon="1.20624">
        <ele>591</ele>
        <time>2019-08-08T13:32:29.000Z</time>
      </trkpt>
      <trkpt lat="42.83292" lon="1.20629">
        <ele>591</ele>
        <time>2019-08-08T13:32:30.000Z</time>
      </trkpt>
      <trkpt lat="42.83295" lon="1.20634">
        <ele>591</ele>
        <time>2019-08-08T13:32:31.000Z</time>
      </trkpt>
      <trkpt lat="42.83299" lon="1.20638">
        <ele>591</ele>
        <time>2019-08-08T13:32:32.000Z</time>
      </trkpt>
      <trkpt lat="42.83303" lon="1.20643">
        <ele>591</ele>
        <time>2019-08-08T13:32:33.000Z</time>
      </trkpt>
      <trkpt lat="42.83307" lon="1.20648">
        <ele>591</ele>
        <time>2019-08-08T13:32:34.000Z</time>
      </trkpt>
      <trkpt lat="42.83311" lon="1.20652">
        <ele>591</ele>
        <time>2019-08-08T13:32:35.000Z</time>
      </trkpt>
      <trkpt lat="42.83315" lon="1.20657">
        <ele>592</ele>
        <time>2019-08-08T13:32:36.000Z</time>
      </trkpt>
      <trkpt lat="42.83319" lon="1.20662">
        <ele>592</ele>
        <time>2019-08-08T13:32:37.000Z</time>
      </trkpt>
      <trkpt lat="42.83325" lon="1.20669">
        <ele>592</ele>
        <time>2019-08-08T13:32:38.000Z</time>
      </trkpt>
      <trkpt lat="42.83327" lon="1.20672">
        <ele>592</ele>
        <time>2019-08-08T13:32:39.000Z</time>
      </trkpt>
      <trkpt lat="42.83331" lon="1.20677">
        <ele>593</ele>
        <time>2019-08-08T13:32:40.000Z</time>
      </trkpt>
      <trkpt lat="42.83336" lon="1.20682">
        <ele>593</ele>
        <time>2019-08-08T13:32:41.000Z</time>
      </trkpt>
      <trkpt lat="42.8334" lon="1.20686">
        <ele>593</ele>
        <time>2019-08-08T13:32:42.000Z</time>
      </trkpt>
      <trkpt lat="42.83345" lon="1.20691">
        <ele>593</ele>
        <time>2019-08-08T13:32:43.000Z</time>
      </trkpt>
      <trkpt lat="42.83349" lon="1.20696">
        <ele>593</ele>
        <time>2019-08-08T13:32:44.000Z</time>
      </trkpt>
      <trkpt lat="42.83354" lon="1.20701">
        <ele>593</ele>
        <time>2019-08-08T13:32:45.000Z</time>
      </trkpt>
      <trkpt lat="42.83358" lon="1.20705">
        <ele>593</ele>
        <time>2019-08-08T13:32:46.000Z</time>
      </trkpt>
      <trkpt lat="42.83363" lon="1.2071">
        <ele>593</ele>
        <time>2019-08-08T13:32:47.000Z</time>
      </trkpt>
      <trkpt lat="42.83367" lon="1.20715">
        <ele>593</ele>
        <time>2019-08-08T13:32:48.000Z</time>
      </trkpt>
      <trkpt lat="42.83372" lon="1.20719">
        <ele>593</ele>
        <time>2019-08-08T13:32:49.000Z</time>
      </trkpt>
      <trkpt lat="42.83376" lon="1.20724">
        <ele>594</ele>
        <time>2019-08-08T13:32:50.000Z</time>
      </trkpt>
      <trkpt lat="42.83381" lon="1.20728">
        <ele>594</ele>
        <time>2019-08-08T13:32:51.000Z</time>
      </trkpt>
      <trkpt lat="42.83385" lon="1.20733">
        <ele>594</ele>
        <time>2019-08-08T13:32:52.000Z</time>
      </trkpt>
      <trkpt lat="42.83389" lon="1.20738">
        <ele>594</ele>
        <time>2019-08-08T13:32:53.000Z</time>
      </trkpt>
      <trkpt lat="42.83394" lon="1.20742">
        <ele>594</ele>
        <time>2019-08-08T13:32:54.000Z</time>
      </trkpt>
      <trkpt lat="42.83398" lon="1.20748">
        <ele>594</ele>
        <time>2019-08-08T13:32:55.000Z</time>
      </trkpt>
      <trkpt lat="42.83403" lon="1.20753">
        <ele>594</ele>
        <time>2019-08-08T13:32:56.000Z</time>
      </trkpt>
      <trkpt lat="42.83407" lon="1.20758">
        <ele>594</ele>
        <time>2019-08-08T13:32:57.000Z</time>
      </trkpt>
      <trkpt lat="42.83411" lon="1.20764">
        <ele>594</ele>
        <time>2019-08-08T13:32:58.000Z</time>
      </trkpt>
      <trkpt lat="42.83414" lon="1.2077">
        <ele>593</ele>
        <time>2019-08-08T13:32:59.000Z</time>
      </trkpt>
      <trkpt lat="42.83416" lon="1.20776">
        <ele>593</ele>
        <time>2019-08-08T13:33:00.000Z</time>
      </trkpt>
      <trkpt lat="42.83418" lon="1.20782">
        <ele>594</ele>
        <time>2019-08-08T13:33:01.000Z</time>
      </trkpt>
      <trkpt lat="42.83419" lon="1.20789">
        <ele>594</ele>
        <time>2019-08-08T13:33:02.000Z</time>
      </trkpt>
      <trkpt lat="42.8342" lon="1.20795">
        <ele>594</ele>
        <time>2019-08-08T13:33:03.000Z</time>
      </trkpt>
      <trkpt lat="42.83421" lon="1.20801">
        <ele>595</ele>
        <time>2019-08-08T13:33:04.000Z</time>
      </trkpt>
      <trkpt lat="42.83421" lon="1.20808">
        <ele>595</ele>
        <time>2019-08-08T13:33:05.000Z</time>
      </trkpt>
      <trkpt lat="42.83421" lon="1.20814">
        <ele>595</ele>
        <time>2019-08-08T13:33:06.000Z</time>
      </trkpt>
      <trkpt lat="42.8342" lon="1.2082">
        <ele>595</ele>
        <time>2019-08-08T13:33:07.000Z</time>
      </trkpt>
      <trkpt lat="42.83419" lon="1.20826">
        <ele>595</ele>
        <time>2019-08-08T13:33:08.000Z</time>
      </trkpt>
      <trkpt lat="42.83417" lon="1.20831">
        <ele>595</ele>
        <time>2019-08-08T13:33:09.000Z</time>
      </trkpt>
      <trkpt lat="42.83415" lon="1.20837">
        <ele>596</ele>
        <time>2019-08-08T13:33:10.000Z</time>
      </trkpt>
      <trkpt lat="42.83411" lon="1.20845">
        <ele>596</ele>
        <time>2019-08-08T13:33:11.000Z</time>
      </trkpt>
      <trkpt lat="42.8341" lon="1.20848">
        <ele>596</ele>
        <time>2019-08-08T13:33:12.000Z</time>
      </trkpt>
      <trkpt lat="42.83407" lon="1.20853">
        <ele>596</ele>
        <time>2019-08-08T13:33:13.000Z</time>
      </trkpt>
      <trkpt lat="42.83403" lon="1.20857">
        <ele>596</ele>
        <time>2019-08-08T13:33:14.000Z</time>
      </trkpt>
      <trkpt lat="42.834" lon="1.20862">
        <ele>596</ele>
        <time>2019-08-08T13:33:15.000Z</time>
      </trkpt>
      <trkpt lat="42.83396" lon="1.20866">
        <ele>596</ele>
        <time>2019-08-08T13:33:16.000Z</time>
      </trkpt>
      <trkpt lat="42.83392" lon="1.2087">
        <ele>596</ele>
        <time>2019-08-08T13:33:17.000Z</time>
      </trkpt>
      <trkpt lat="42.83388" lon="1.20874">
        <ele>596</ele>
        <time>2019-08-08T13:33:18.000Z</time>
      </trkpt>
      <trkpt lat="42.83383" lon="1.20879">
        <ele>597</ele>
        <time>2019-08-08T13:33:19.000Z</time>
      </trkpt>
      <trkpt lat="42.83379" lon="1.20883">
        <ele>597</ele>
        <time>2019-08-08T13:33:20.000Z</time>
      </trkpt>
      <trkpt lat="42.83375" lon="1.20887">
        <ele>597</ele>
        <time>2019-08-08T13:33:21.000Z</time>
      </trkpt>
      <trkpt lat="42.8337" lon="1.20891">
        <ele>597</ele>
        <time>2019-08-08T13:33:22.000Z</time>
      </trkpt>
      <trkpt lat="42.83366" lon="1.20896">
        <ele>597</ele>
        <time>2019-08-08T13:33:23.000Z</time>
      </trkpt>
      <trkpt lat="42.83361" lon="1.20901">
        <ele>598</ele>
        <time>2019-08-08T13:33:24.000Z</time>
      </trkpt>
      <trkpt lat="42.83357" lon="1.20905">
        <ele>598</ele>
        <time>2019-08-08T13:33:25.000Z</time>
      </trkpt>
      <trkpt lat="42.83352" lon="1.2091">
        <ele>598</ele>
        <time>2019-08-08T13:33:26.000Z</time>
      </trkpt>
      <trkpt lat="42.83345" lon="1.20917">
        <ele>598</ele>
        <time>2019-08-08T13:33:27.000Z</time>
      </trkpt>
      <trkpt lat="42.83342" lon="1.2092">
        <ele>597</ele>
        <time>2019-08-08T13:33:28.000Z</time>
      </trkpt>
      <trkpt lat="42.83337" lon="1.20925">
        <ele>597</ele>
        <time>2019-08-08T13:33:29.000Z</time>
      </trkpt>
      <trkpt lat="42.83333" lon="1.2093">
        <ele>597</ele>
        <time>2019-08-08T13:33:30.000Z</time>
      </trkpt>
      <trkpt lat="42.83328" lon="1.20935">
        <ele>597</ele>
        <time>2019-08-08T13:33:31.000Z</time>
      </trkpt>
      <trkpt lat="42.83323" lon="1.20941">
        <ele>598</ele>
        <time>2019-08-08T13:33:32.000Z</time>
      </trkpt>
      <trkpt lat="42.83319" lon="1.20946">
        <ele>597</ele>
        <time>2019-08-08T13:33:33.000Z</time>
      </trkpt>
      <trkpt lat="42.83315" lon="1.20952">
        <ele>597</ele>
        <time>2019-08-08T13:33:34.000Z</time>
      </trkpt>
      <trkpt lat="42.83311" lon="1.20959">
        <ele>597</ele>
        <time>2019-08-08T13:33:35.000Z</time>
      </trkpt>
      <trkpt lat="42.83307" lon="1.20965">
        <ele>597</ele>
        <time>2019-08-08T13:33:36.000Z</time>
      </trkpt>
      <trkpt lat="42.83304" lon="1.20972">
        <ele>597</ele>
        <time>2019-08-08T13:33:37.000Z</time>
      </trkpt>
      <trkpt lat="42.83301" lon="1.20979">
        <ele>598</ele>
        <time>2019-08-08T13:33:38.000Z</time>
      </trkpt>
      <trkpt lat="42.83298" lon="1.20986">
        <ele>598</ele>
        <time>2019-08-08T13:33:39.000Z</time>
      </trkpt>
      <trkpt lat="42.83296" lon="1.20993">
        <ele>598</ele>
        <time>2019-08-08T13:33:40.000Z</time>
      </trkpt>
      <trkpt lat="42.83293" lon="1.21">
        <ele>598</ele>
        <time>2019-08-08T13:33:41.000Z</time>
      </trkpt>
      <trkpt lat="42.83291" lon="1.21007">
        <ele>599</ele>
        <time>2019-08-08T13:33:42.000Z</time>
      </trkpt>
      <trkpt lat="42.83289" lon="1.21014">
        <ele>599</ele>
        <time>2019-08-08T13:33:43.000Z</time>
      </trkpt>
      <trkpt lat="42.83286" lon="1.21025">
        <ele>599</ele>
        <time>2019-08-08T13:33:44.000Z</time>
      </trkpt>
      <trkpt lat="42.83285" lon="1.21029">
        <ele>599</ele>
        <time>2019-08-08T13:33:45.000Z</time>
      </trkpt>
      <trkpt lat="42.83283" lon="1.21037">
        <ele>599</ele>
        <time>2019-08-08T13:33:46.000Z</time>
      </trkpt>
      <trkpt lat="42.83281" lon="1.21044">
        <ele>599</ele>
        <time>2019-08-08T13:33:47.000Z</time>
      </trkpt>
      <trkpt lat="42.8328" lon="1.21052">
        <ele>599</ele>
        <time>2019-08-08T13:33:48.000Z</time>
      </trkpt>
      <trkpt lat="42.83278" lon="1.2106">
        <ele>599</ele>
        <time>2019-08-08T13:33:49.000Z</time>
      </trkpt>
      <trkpt lat="42.83277" lon="1.21067">
        <ele>599</ele>
        <time>2019-08-08T13:33:50.000Z</time>
      </trkpt>
      <trkpt lat="42.83276" lon="1.21075">
        <ele>600</ele>
        <time>2019-08-08T13:33:51.000Z</time>
      </trkpt>
      <trkpt lat="42.83274" lon="1.21082">
        <ele>600</ele>
        <time>2019-08-08T13:33:52.000Z</time>
      </trkpt>
      <trkpt lat="42.83273" lon="1.2109">
        <ele>600</ele>
        <time>2019-08-08T13:33:53.000Z</time>
      </trkpt>
      <trkpt lat="42.83271" lon="1.21097">
        <ele>600</ele>
        <time>2019-08-08T13:33:54.000Z</time>
      </trkpt>
      <trkpt lat="42.8327" lon="1.21105">
        <ele>600</ele>
        <time>2019-08-08T13:33:55.000Z</time>
      </trkpt>
      <trkpt lat="42.8327" lon="1.21113">
        <ele>600</ele>
        <time>2019-08-08T13:33:56.000Z</time>
      </trkpt>
      <trkpt lat="42.8327" lon="1.2112">
        <ele>600</ele>
        <time>2019-08-08T13:33:57.000Z</time>
      </trkpt>
      <trkpt lat="42.83269" lon="1.21128">
        <ele>601</ele>
        <time>2019-08-08T13:33:58.000Z</time>
      </trkpt>
      <trkpt lat="42.83269" lon="1.21136">
        <ele>601</ele>
        <time>2019-08-08T13:33:59.000Z</time>
      </trkpt>
      <trkpt lat="42.83269" lon="1.21147">
        <ele>601</ele>
        <time>2019-08-08T13:34:00.000Z</time>
      </trkpt>
      <trkpt lat="42.83269" lon="1.21151">
        <ele>601</ele>
        <time>2019-08-08T13:34:01.000Z</time>
      </trkpt>
      <trkpt lat="42.83269" lon="1.21158">
        <ele>601</ele>
        <time>2019-08-08T13:34:02.000Z</time>
      </trkpt>
      <trkpt lat="42.83269" lon="1.21166">
        <ele>601</ele>
        <time>2019-08-08T13:34:03.000Z</time>
      </trkpt>
      <trkpt lat="42.83269" lon="1.21173">
        <ele>601</ele>
        <time>2019-08-08T13:34:04.000Z</time>
      </trkpt>
      <trkpt lat="42.83269" lon="1.21181">
        <ele>601</ele>
        <time>2019-08-08T13:34:05.000Z</time>
      </trkpt>
      <trkpt lat="42.83269" lon="1.21189">
        <ele>601</ele>
        <time>2019-08-08T13:34:06.000Z</time>
      </trkpt>
      <trkpt lat="42.83269" lon="1.21196">
        <ele>601</ele>
        <time>2019-08-08T13:34:07.000Z</time>
      </trkpt>
      <trkpt lat="42.8327" lon="1.21203">
        <ele>601</ele>
        <time>2019-08-08T13:34:08.000Z</time>
      </trkpt>
      <trkpt lat="42.8327" lon="1.21211">
        <ele>601</ele>
        <time>2019-08-08T13:34:09.000Z</time>
      </trkpt>
      <trkpt lat="42.8327" lon="1.21218">
        <ele>601</ele>
        <time>2019-08-08T13:34:10.000Z</time>
      </trkpt>
      <trkpt lat="42.8327" lon="1.21226">
        <ele>602</ele>
        <time>2019-08-08T13:34:11.000Z</time>
      </trkpt>
      <trkpt lat="42.83269" lon="1.21233">
        <ele>602</ele>
        <time>2019-08-08T13:34:12.000Z</time>
      </trkpt>
      <trkpt lat="42.8327" lon="1.21241">
        <ele>603</ele>
        <time>2019-08-08T13:34:13.000Z</time>
      </trkpt>
      <trkpt lat="42.8327" lon="1.21248">
        <ele>603</ele>
        <time>2019-08-08T13:34:14.000Z</time>
      </trkpt>
      <trkpt lat="42.8327" lon="1.21256">
        <ele>603</ele>
        <time>2019-08-08T13:34:15.000Z</time>
      </trkpt>
      <trkpt lat="42.8327" lon="1.21264">
        <ele>603</ele>
        <time>2019-08-08T13:34:16.000Z</time>
      </trkpt>
      <trkpt lat="42.83269" lon="1.21275">
        <ele>603</ele>
        <time>2019-08-08T13:34:17.000Z</time>
      </trkpt>
      <trkpt lat="42.83269" lon="1.21279">
        <ele>603</ele>
        <time>2019-08-08T13:34:18.000Z</time>
      </trkpt>
      <trkpt lat="42.83269" lon="1.21286">
        <ele>603</ele>
        <time>2019-08-08T13:34:19.000Z</time>
      </trkpt>
      <trkpt lat="42.83269" lon="1.21294">
        <ele>603</ele>
        <time>2019-08-08T13:34:20.000Z</time>
      </trkpt>
      <trkpt lat="42.8327" lon="1.21301">
        <ele>604</ele>
        <time>2019-08-08T13:34:21.000Z</time>
      </trkpt>
      <trkpt lat="42.8327" lon="1.21309">
        <ele>604</ele>
        <time>2019-08-08T13:34:22.000Z</time>
      </trkpt>
      <trkpt lat="42.8327" lon="1.21316">
        <ele>604</ele>
        <time>2019-08-08T13:34:23.000Z</time>
      </trkpt>
      <trkpt lat="42.8327" lon="1.21323">
        <ele>604</ele>
        <time>2019-08-08T13:34:24.000Z</time>
      </trkpt>
      <trkpt lat="42.83269" lon="1.2133">
        <ele>605</ele>
        <time>2019-08-08T13:34:25.000Z</time>
      </trkpt>
      <trkpt lat="42.83268" lon="1.21336">
        <ele>605</ele>
        <time>2019-08-08T13:34:26.000Z</time>
      </trkpt>
      <trkpt lat="42.83267" lon="1.21343">
        <ele>605</ele>
        <time>2019-08-08T13:34:27.000Z</time>
      </trkpt>
      <trkpt lat="42.83264" lon="1.21348">
        <ele>605</ele>
        <time>2019-08-08T13:34:28.000Z</time>
      </trkpt>
      <trkpt lat="42.83261" lon="1.21354">
        <ele>605</ele>
        <time>2019-08-08T13:34:29.000Z</time>
      </trkpt>
      <trkpt lat="42.83257" lon="1.21358">
        <ele>605</ele>
        <time>2019-08-08T13:34:30.000Z</time>
      </trkpt>
      <trkpt lat="42.83253" lon="1.21363">
        <ele>605</ele>
        <time>2019-08-08T13:34:31.000Z</time>
      </trkpt>
      <trkpt lat="42.83248" lon="1.21368">
        <ele>605</ele>
        <time>2019-08-08T13:34:32.000Z</time>
      </trkpt>
      <trkpt lat="42.83244" lon="1.21373">
        <ele>605</ele>
        <time>2019-08-08T13:34:33.000Z</time>
      </trkpt>
      <trkpt lat="42.8324" lon="1.21378">
        <ele>605</ele>
        <time>2019-08-08T13:34:34.000Z</time>
      </trkpt>
      <trkpt lat="42.83237" lon="1.21384">
        <ele>605</ele>
        <time>2019-08-08T13:34:35.000Z</time>
      </trkpt>
      <trkpt lat="42.83233" lon="1.2139">
        <ele>605</ele>
        <time>2019-08-08T13:34:36.000Z</time>
      </trkpt>
      <trkpt lat="42.8323" lon="1.21396">
        <ele>605</ele>
        <time>2019-08-08T13:34:37.000Z</time>
      </trkpt>
      <trkpt lat="42.83227" lon="1.21401">
        <ele>605</ele>
        <time>2019-08-08T13:34:38.000Z</time>
      </trkpt>
      <trkpt lat="42.83224" lon="1.21407">
        <ele>606</ele>
        <time>2019-08-08T13:34:39.000Z</time>
      </trkpt>
      <trkpt lat="42.83222" lon="1.21412">
        <ele>606</ele>
        <time>2019-08-08T13:34:40.000Z</time>
      </trkpt>
      <trkpt lat="42.83219" lon="1.21418">
        <ele>607</ele>
        <time>2019-08-08T13:34:41.000Z</time>
      </trkpt>
      <trkpt lat="42.83216" lon="1.21423">
        <ele>607</ele>
        <time>2019-08-08T13:34:42.000Z</time>
      </trkpt>
      <trkpt lat="42.83214" lon="1.21428">
        <ele>607</ele>
        <time>2019-08-08T13:34:43.000Z</time>
      </trkpt>
      <trkpt lat="42.83211" lon="1.21433">
        <ele>607</ele>
        <time>2019-08-08T13:34:44.000Z</time>
      </trkpt>
      <trkpt lat="42.83209" lon="1.21438">
        <ele>607</ele>
        <time>2019-08-08T13:34:45.000Z</time>
      </trkpt>
      <trkpt lat="42.83205" lon="1.21445">
        <ele>607</ele>
        <time>2019-08-08T13:34:46.000Z</time>
      </trkpt>
      <trkpt lat="42.83204" lon="1.21447">
        <ele>607</ele>
        <time>2019-08-08T13:34:47.000Z</time>
      </trkpt>
      <trkpt lat="42.83202" lon="1.21452">
        <ele>608</ele>
        <time>2019-08-08T13:34:48.000Z</time>
      </trkpt>
      <trkpt lat="42.83201" lon="1.21456">
        <ele>608</ele>
        <time>2019-08-08T13:34:49.000Z</time>
      </trkpt>
      <trkpt lat="42.83198" lon="1.21463">
        <ele>609</ele>
        <time>2019-08-08T13:34:50.000Z</time>
      </trkpt>
      <trkpt lat="42.83196" lon="1.21465">
        <ele>609</ele>
        <time>2019-08-08T13:34:51.000Z</time>
      </trkpt>
      <trkpt lat="42.83194" lon="1.2147">
        <ele>609</ele>
        <time>2019-08-08T13:34:52.000Z</time>
      </trkpt>
      <trkpt lat="42.83192" lon="1.21475">
        <ele>609</ele>
        <time>2019-08-08T13:34:53.000Z</time>
      </trkpt>
      <trkpt lat="42.8319" lon="1.2148">
        <ele>608</ele>
        <time>2019-08-08T13:34:54.000Z</time>
      </trkpt>
      <trkpt lat="42.83188" lon="1.21485">
        <ele>608</ele>
        <time>2019-08-08T13:34:55.000Z</time>
      </trkpt>
      <trkpt lat="42.83187" lon="1.2149">
        <ele>608</ele>
        <time>2019-08-08T13:34:56.000Z</time>
      </trkpt>
      <trkpt lat="42.83185" lon="1.21495">
        <ele>608</ele>
        <time>2019-08-08T13:34:57.000Z</time>
      </trkpt>
      <trkpt lat="42.83183" lon="1.215">
        <ele>609</ele>
        <time>2019-08-08T13:34:58.000Z</time>
      </trkpt>
      <trkpt lat="42.83181" lon="1.21505">
        <ele>609</ele>
        <time>2019-08-08T13:34:59.000Z</time>
      </trkpt>
      <trkpt lat="42.8318" lon="1.2151">
        <ele>609</ele>
        <time>2019-08-08T13:35:00.000Z</time>
      </trkpt>
      <trkpt lat="42.83179" lon="1.21516">
        <ele>609</ele>
        <time>2019-08-08T13:35:01.000Z</time>
      </trkpt>
      <trkpt lat="42.83177" lon="1.21521">
        <ele>610</ele>
        <time>2019-08-08T13:35:02.000Z</time>
      </trkpt>
      <trkpt lat="42.83176" lon="1.21527">
        <ele>610</ele>
        <time>2019-08-08T13:35:03.000Z</time>
      </trkpt>
      <trkpt lat="42.83175" lon="1.21533">
        <ele>610</ele>
        <time>2019-08-08T13:35:04.000Z</time>
      </trkpt>
      <trkpt lat="42.83174" lon="1.21539">
        <ele>610</ele>
        <time>2019-08-08T13:35:05.000Z</time>
      </trkpt>
      <trkpt lat="42.83174" lon="1.21545">
        <ele>611</ele>
        <time>2019-08-08T13:35:06.000Z</time>
      </trkpt>
      <trkpt lat="42.83173" lon="1.21551">
        <ele>611</ele>
        <time>2019-08-08T13:35:07.000Z</time>
      </trkpt>
      <trkpt lat="42.83172" lon="1.21557">
        <ele>611</ele>
        <time>2019-08-08T13:35:08.000Z</time>
      </trkpt>
      <trkpt lat="42.83172" lon="1.21563">
        <ele>611</ele>
        <time>2019-08-08T13:35:09.000Z</time>
      </trkpt>
      <trkpt lat="42.83172" lon="1.21572">
        <ele>612</ele>
        <time>2019-08-08T13:35:10.000Z</time>
      </trkpt>
      <trkpt lat="42.83172" lon="1.21575">
        <ele>612</ele>
        <time>2019-08-08T13:35:11.000Z</time>
      </trkpt>
      <trkpt lat="42.83173" lon="1.21581">
        <ele>613</ele>
        <time>2019-08-08T13:35:12.000Z</time>
      </trkpt>
      <trkpt lat="42.83173" lon="1.21587">
        <ele>613</ele>
        <time>2019-08-08T13:35:13.000Z</time>
      </trkpt>
      <trkpt lat="42.83173" lon="1.21593">
        <ele>613</ele>
        <time>2019-08-08T13:35:14.000Z</time>
      </trkpt>
      <trkpt lat="42.83174" lon="1.21599">
        <ele>613</ele>
        <time>2019-08-08T13:35:15.000Z</time>
      </trkpt>
      <trkpt lat="42.83175" lon="1.21604">
        <ele>614</ele>
        <time>2019-08-08T13:35:16.000Z</time>
      </trkpt>
      <trkpt lat="42.83176" lon="1.2161">
        <ele>614</ele>
        <time>2019-08-08T13:35:17.000Z</time>
      </trkpt>
      <trkpt lat="42.83177" lon="1.21616">
        <ele>614</ele>
        <time>2019-08-08T13:35:18.000Z</time>
      </trkpt>
      <trkpt lat="42.83179" lon="1.21621">
        <ele>614</ele>
        <time>2019-08-08T13:35:19.000Z</time>
      </trkpt>
      <trkpt lat="42.8318" lon="1.21627">
        <ele>614</ele>
        <time>2019-08-08T13:35:20.000Z</time>
      </trkpt>
      <trkpt lat="42.83181" lon="1.21632">
        <ele>615</ele>
        <time>2019-08-08T13:35:21.000Z</time>
      </trkpt>
      <trkpt lat="42.83182" lon="1.21638">
        <ele>615</ele>
        <time>2019-08-08T13:35:22.000Z</time>
      </trkpt>
      <trkpt lat="42.83184" lon="1.21643">
        <ele>615</ele>
        <time>2019-08-08T13:35:23.000Z</time>
      </trkpt>
      <trkpt lat="42.83185" lon="1.21648">
        <ele>615</ele>
        <time>2019-08-08T13:35:24.000Z</time>
      </trkpt>
      <trkpt lat="42.83188" lon="1.21656">
        <ele>615</ele>
        <time>2019-08-08T13:35:25.000Z</time>
      </trkpt>
      <trkpt lat="42.83189" lon="1.21658">
        <ele>615</ele>
        <time>2019-08-08T13:35:26.000Z</time>
      </trkpt>
      <trkpt lat="42.83191" lon="1.21663">
        <ele>615</ele>
        <time>2019-08-08T13:35:27.000Z</time>
      </trkpt>
      <trkpt lat="42.83193" lon="1.21669">
        <ele>615</ele>
        <time>2019-08-08T13:35:28.000Z</time>
      </trkpt>
      <trkpt lat="42.83194" lon="1.21674">
        <ele>615</ele>
        <time>2019-08-08T13:35:29.000Z</time>
      </trkpt>
      <trkpt lat="42.83196" lon="1.21679">
        <ele>616</ele>
        <time>2019-08-08T13:35:30.000Z</time>
      </trkpt>
      <trkpt lat="42.83198" lon="1.21684">
        <ele>616</ele>
        <time>2019-08-08T13:35:31.000Z</time>
      </trkpt>
      <trkpt lat="42.832" lon="1.21689">
        <ele>616</ele>
        <time>2019-08-08T13:35:32.000Z</time>
      </trkpt>
      <trkpt lat="42.83202" lon="1.21694">
        <ele>616</ele>
        <time>2019-08-08T13:35:33.000Z</time>
      </trkpt>
      <trkpt lat="42.83203" lon="1.21699">
        <ele>617</ele>
        <time>2019-08-08T13:35:34.000Z</time>
      </trkpt>
      <trkpt lat="42.83204" lon="1.21705">
        <ele>617</ele>
        <time>2019-08-08T13:35:35.000Z</time>
      </trkpt>
      <trkpt lat="42.83205" lon="1.2171">
        <ele>617</ele>
        <time>2019-08-08T13:35:36.000Z</time>
      </trkpt>
      <trkpt lat="42.83205" lon="1.21716">
        <ele>617</ele>
        <time>2019-08-08T13:35:37.000Z</time>
      </trkpt>
      <trkpt lat="42.83205" lon="1.21722">
        <ele>618</ele>
        <time>2019-08-08T13:35:38.000Z</time>
      </trkpt>
      <trkpt lat="42.83205" lon="1.21728">
        <ele>618</ele>
        <time>2019-08-08T13:35:39.000Z</time>
      </trkpt>
      <trkpt lat="42.83204" lon="1.21733">
        <ele>618</ele>
        <time>2019-08-08T13:35:40.000Z</time>
      </trkpt>
      <trkpt lat="42.83203" lon="1.21739">
        <ele>618</ele>
        <time>2019-08-08T13:35:41.000Z</time>
      </trkpt>
      <trkpt lat="42.83202" lon="1.21745">
        <ele>619</ele>
        <time>2019-08-08T13:35:42.000Z</time>
      </trkpt>
      <trkpt lat="42.832" lon="1.2175">
        <ele>619</ele>
        <time>2019-08-08T13:35:43.000Z</time>
      </trkpt>
      <trkpt lat="42.83199" lon="1.21756">
        <ele>619</ele>
        <time>2019-08-08T13:35:44.000Z</time>
      </trkpt>
      <trkpt lat="42.83196" lon="1.21761">
        <ele>619</ele>
        <time>2019-08-08T13:35:45.000Z</time>
      </trkpt>
      <trkpt lat="42.83193" lon="1.21765">
        <ele>619</ele>
        <time>2019-08-08T13:35:46.000Z</time>
      </trkpt>
      <trkpt lat="42.8319" lon="1.2177">
        <ele>619</ele>
        <time>2019-08-08T13:35:47.000Z</time>
      </trkpt>
      <trkpt lat="42.83187" lon="1.21774">
        <ele>619</ele>
        <time>2019-08-08T13:35:48.000Z</time>
      </trkpt>
      <trkpt lat="42.83184" lon="1.21779">
        <ele>619</ele>
        <time>2019-08-08T13:35:49.000Z</time>
      </trkpt>
      <trkpt lat="42.83181" lon="1.21784">
        <ele>619</ele>
        <time>2019-08-08T13:35:50.000Z</time>
      </trkpt>
      <trkpt lat="42.83178" lon="1.21788">
        <ele>620</ele>
        <time>2019-08-08T13:35:51.000Z</time>
      </trkpt>
      <trkpt lat="42.83175" lon="1.21793">
        <ele>620</ele>
        <time>2019-08-08T13:35:52.000Z</time>
      </trkpt>
      <trkpt lat="42.83172" lon="1.21799">
        <ele>620</ele>
        <time>2019-08-08T13:35:53.000Z</time>
      </trkpt>
      <trkpt lat="42.83169" lon="1.21804">
        <ele>620</ele>
        <time>2019-08-08T13:35:54.000Z</time>
      </trkpt>
      <trkpt lat="42.83166" lon="1.2181">
        <ele>620</ele>
        <time>2019-08-08T13:35:55.000Z</time>
      </trkpt>
      <trkpt lat="42.83163" lon="1.21816">
        <ele>621</ele>
        <time>2019-08-08T13:35:56.000Z</time>
      </trkpt>
      <trkpt lat="42.8316" lon="1.21825">
        <ele>621</ele>
        <time>2019-08-08T13:35:57.000Z</time>
      </trkpt>
      <trkpt lat="42.83159" lon="1.21829">
        <ele>621</ele>
        <time>2019-08-08T13:35:58.000Z</time>
      </trkpt>
      <trkpt lat="42.83157" lon="1.21835">
        <ele>621</ele>
        <time>2019-08-08T13:35:59.000Z</time>
      </trkpt>
      <trkpt lat="42.83156" lon="1.21842">
        <ele>621</ele>
        <time>2019-08-08T13:36:00.000Z</time>
      </trkpt>
      <trkpt lat="42.83155" lon="1.21849">
        <ele>621</ele>
        <time>2019-08-08T13:36:01.000Z</time>
      </trkpt>
      <trkpt lat="42.83153" lon="1.21859">
        <ele>620</ele>
        <time>2019-08-08T13:36:02.000Z</time>
      </trkpt>
      <trkpt lat="42.83152" lon="1.21863">
        <ele>620</ele>
        <time>2019-08-08T13:36:03.000Z</time>
      </trkpt>
      <trkpt lat="42.83151" lon="1.21869">
        <ele>620</ele>
        <time>2019-08-08T13:36:04.000Z</time>
      </trkpt>
      <trkpt lat="42.8315" lon="1.21876">
        <ele>620</ele>
        <time>2019-08-08T13:36:05.000Z</time>
      </trkpt>
      <trkpt lat="42.83148" lon="1.21883">
        <ele>621</ele>
        <time>2019-08-08T13:36:06.000Z</time>
      </trkpt>
      <trkpt lat="42.83145" lon="1.21893">
        <ele>621</ele>
        <time>2019-08-08T13:36:07.000Z</time>
      </trkpt>
      <trkpt lat="42.83144" lon="1.21897">
        <ele>621</ele>
        <time>2019-08-08T13:36:08.000Z</time>
      </trkpt>
      <trkpt lat="42.83141" lon="1.21903">
        <ele>621</ele>
        <time>2019-08-08T13:36:09.000Z</time>
      </trkpt>
      <trkpt lat="42.83138" lon="1.2191">
        <ele>621</ele>
        <time>2019-08-08T13:36:10.000Z</time>
      </trkpt>
      <trkpt lat="42.83131" lon="1.21917">
        <ele>621</ele>
        <time>2019-08-08T13:36:11.000Z</time>
      </trkpt>
      <trkpt lat="42.83129" lon="1.21919">
        <ele>621</ele>
        <time>2019-08-08T13:36:12.000Z</time>
      </trkpt>
      <trkpt lat="42.83121" lon="1.21924">
        <ele>621</ele>
        <time>2019-08-08T13:36:13.000Z</time>
      </trkpt>
      <trkpt lat="42.83118" lon="1.21925">
        <ele>621</ele>
        <time>2019-08-08T13:36:14.000Z</time>
      </trkpt>
      <trkpt lat="42.83112" lon="1.21926">
        <ele>621</ele>
        <time>2019-08-08T13:36:15.000Z</time>
      </trkpt>
      <trkpt lat="42.83106" lon="1.21926">
        <ele>621</ele>
        <time>2019-08-08T13:36:16.000Z</time>
      </trkpt>
      <trkpt lat="42.831" lon="1.21926">
        <ele>620</ele>
        <time>2019-08-08T13:36:17.000Z</time>
      </trkpt>
      <trkpt lat="42.83094" lon="1.21925">
        <ele>620</ele>
        <time>2019-08-08T13:36:18.000Z</time>
      </trkpt>
      <trkpt lat="42.83088" lon="1.21923">
        <ele>620</ele>
        <time>2019-08-08T13:36:19.000Z</time>
      </trkpt>
      <trkpt lat="42.83082" lon="1.21921">
        <ele>621</ele>
        <time>2019-08-08T13:36:20.000Z</time>
      </trkpt>
      <trkpt lat="42.83077" lon="1.21919">
        <ele>621</ele>
        <time>2019-08-08T13:36:21.000Z</time>
      </trkpt>
      <trkpt lat="42.83071" lon="1.21919">
        <ele>620</ele>
        <time>2019-08-08T13:36:22.000Z</time>
      </trkpt>
      <trkpt lat="42.83065" lon="1.21918">
        <ele>620</ele>
        <time>2019-08-08T13:36:23.000Z</time>
      </trkpt>
      <trkpt lat="42.8306" lon="1.21918">
        <ele>620</ele>
        <time>2019-08-08T13:36:24.000Z</time>
      </trkpt>
      <trkpt lat="42.83054" lon="1.21919">
        <ele>620</ele>
        <time>2019-08-08T13:36:25.000Z</time>
      </trkpt>
      <trkpt lat="42.83049" lon="1.21922">
        <ele>620</ele>
        <time>2019-08-08T13:36:26.000Z</time>
      </trkpt>
      <trkpt lat="42.83044" lon="1.21925">
        <ele>620</ele>
        <time>2019-08-08T13:36:27.000Z</time>
      </trkpt>
      <trkpt lat="42.83039" lon="1.21929">
        <ele>620</ele>
        <time>2019-08-08T13:36:28.000Z</time>
      </trkpt>
      <trkpt lat="42.83035" lon="1.21935">
        <ele>620</ele>
        <time>2019-08-08T13:36:29.000Z</time>
      </trkpt>
      <trkpt lat="42.8303" lon="1.21945">
        <ele>620</ele>
        <time>2019-08-08T13:36:30.000Z</time>
      </trkpt>
      <trkpt lat="42.83028" lon="1.21948">
        <ele>620</ele>
        <time>2019-08-08T13:36:31.000Z</time>
      </trkpt>
      <trkpt lat="42.83025" lon="1.21955">
        <ele>619</ele>
        <time>2019-08-08T13:36:32.000Z</time>
      </trkpt>
      <trkpt lat="42.83022" lon="1.21962">
        <ele>619</ele>
        <time>2019-08-08T13:36:33.000Z</time>
      </trkpt>
      <trkpt lat="42.8302" lon="1.2197">
        <ele>619</ele>
        <time>2019-08-08T13:36:34.000Z</time>
      </trkpt>
      <trkpt lat="42.83018" lon="1.21978">
        <ele>619</ele>
        <time>2019-08-08T13:36:35.000Z</time>
      </trkpt>
      <trkpt lat="42.83016" lon="1.21986">
        <ele>619</ele>
        <time>2019-08-08T13:36:36.000Z</time>
      </trkpt>
      <trkpt lat="42.83015" lon="1.21993">
        <ele>619</ele>
        <time>2019-08-08T13:36:37.000Z</time>
      </trkpt>
      <trkpt lat="42.83014" lon="1.22001">
        <ele>619</ele>
        <time>2019-08-08T13:36:38.000Z</time>
      </trkpt>
      <trkpt lat="42.83013" lon="1.22009">
        <ele>619</ele>
        <time>2019-08-08T13:36:39.000Z</time>
      </trkpt>
      <trkpt lat="42.83012" lon="1.22017">
        <ele>619</ele>
        <time>2019-08-08T13:36:40.000Z</time>
      </trkpt>
      <trkpt lat="42.83012" lon="1.22025">
        <ele>619</ele>
        <time>2019-08-08T13:36:41.000Z</time>
      </trkpt>
      <trkpt lat="42.83012" lon="1.22032">
        <ele>619</ele>
        <time>2019-08-08T13:36:42.000Z</time>
      </trkpt>
      <trkpt lat="42.83011" lon="1.2204">
        <ele>620</ele>
        <time>2019-08-08T13:36:43.000Z</time>
      </trkpt>
      <trkpt lat="42.83011" lon="1.22048">
        <ele>620</ele>
        <time>2019-08-08T13:36:44.000Z</time>
      </trkpt>
      <trkpt lat="42.83011" lon="1.22055">
        <ele>620</ele>
        <time>2019-08-08T13:36:45.000Z</time>
      </trkpt>
      <trkpt lat="42.83011" lon="1.22062">
        <ele>621</ele>
        <time>2019-08-08T13:36:46.000Z</time>
      </trkpt>
      <trkpt lat="42.8301" lon="1.22072">
        <ele>621</ele>
        <time>2019-08-08T13:36:47.000Z</time>
      </trkpt>
      <trkpt lat="42.8301" lon="1.22076">
        <ele>621</ele>
        <time>2019-08-08T13:36:48.000Z</time>
      </trkpt>
      <trkpt lat="42.8301" lon="1.22083">
        <ele>621</ele>
        <time>2019-08-08T13:36:49.000Z</time>
      </trkpt>
      <trkpt lat="42.83009" lon="1.2209">
        <ele>621</ele>
        <time>2019-08-08T13:36:50.000Z</time>
      </trkpt>
      <trkpt lat="42.83009" lon="1.22096">
        <ele>621</ele>
        <time>2019-08-08T13:36:51.000Z</time>
      </trkpt>
      <trkpt lat="42.83009" lon="1.22103">
        <ele>621</ele>
        <time>2019-08-08T13:36:52.000Z</time>
      </trkpt>
      <trkpt lat="42.83009" lon="1.2211">
        <ele>621</ele>
        <time>2019-08-08T13:36:53.000Z</time>
      </trkpt>
      <trkpt lat="42.83008" lon="1.22117">
        <ele>622</ele>
        <time>2019-08-08T13:36:54.000Z</time>
      </trkpt>
      <trkpt lat="42.83008" lon="1.22125">
        <ele>622</ele>
        <time>2019-08-08T13:36:55.000Z</time>
      </trkpt>
      <trkpt lat="42.83008" lon="1.22132">
        <ele>622</ele>
        <time>2019-08-08T13:36:56.000Z</time>
      </trkpt>
      <trkpt lat="42.83008" lon="1.22139">
        <ele>622</ele>
        <time>2019-08-08T13:36:57.000Z</time>
      </trkpt>
      <trkpt lat="42.83007" lon="1.22146">
        <ele>622</ele>
        <time>2019-08-08T13:36:58.000Z</time>
      </trkpt>
      <trkpt lat="42.83007" lon="1.22153">
        <ele>622</ele>
        <time>2019-08-08T13:36:59.000Z</time>
      </trkpt>
      <trkpt lat="42.83007" lon="1.2216">
        <ele>623</ele>
        <time>2019-08-08T13:37:00.000Z</time>
      </trkpt>
      <trkpt lat="42.83007" lon="1.22167">
        <ele>623</ele>
        <time>2019-08-08T13:37:01.000Z</time>
      </trkpt>
      <trkpt lat="42.83006" lon="1.22174">
        <ele>623</ele>
        <time>2019-08-08T13:37:02.000Z</time>
      </trkpt>
      <trkpt lat="42.83006" lon="1.22185">
        <ele>623</ele>
        <time>2019-08-08T13:37:03.000Z</time>
      </trkpt>
      <trkpt lat="42.83006" lon="1.22189">
        <ele>623</ele>
        <time>2019-08-08T13:37:04.000Z</time>
      </trkpt>
      <trkpt lat="42.83005" lon="1.22196">
        <ele>623</ele>
        <time>2019-08-08T13:37:05.000Z</time>
      </trkpt>
      <trkpt lat="42.83005" lon="1.22203">
        <ele>623</ele>
        <time>2019-08-08T13:37:06.000Z</time>
      </trkpt>
      <trkpt lat="42.83005" lon="1.2221">
        <ele>623</ele>
        <time>2019-08-08T13:37:07.000Z</time>
      </trkpt>
      <trkpt lat="42.83003" lon="1.22217">
        <ele>623</ele>
        <time>2019-08-08T13:37:08.000Z</time>
      </trkpt>
      <trkpt lat="42.83001" lon="1.22223">
        <ele>623</ele>
        <time>2019-08-08T13:37:09.000Z</time>
      </trkpt>
      <trkpt lat="42.82999" lon="1.2223">
        <ele>624</ele>
        <time>2019-08-08T13:37:10.000Z</time>
      </trkpt>
      <trkpt lat="42.82997" lon="1.22237">
        <ele>624</ele>
        <time>2019-08-08T13:37:11.000Z</time>
      </trkpt>
      <trkpt lat="42.82994" lon="1.22243">
        <ele>624</ele>
        <time>2019-08-08T13:37:12.000Z</time>
      </trkpt>
      <trkpt lat="42.82991" lon="1.22249">
        <ele>624</ele>
        <time>2019-08-08T13:37:13.000Z</time>
      </trkpt>
      <trkpt lat="42.82989" lon="1.22255">
        <ele>624</ele>
        <time>2019-08-08T13:37:14.000Z</time>
      </trkpt>
      <trkpt lat="42.82986" lon="1.22262">
        <ele>624</ele>
        <time>2019-08-08T13:37:15.000Z</time>
      </trkpt>
      <trkpt lat="42.82983" lon="1.22268">
        <ele>624</ele>
        <time>2019-08-08T13:37:16.000Z</time>
      </trkpt>
      <trkpt lat="42.8298" lon="1.22275">
        <ele>624</ele>
        <time>2019-08-08T13:37:17.000Z</time>
      </trkpt>
      <trkpt lat="42.82978" lon="1.22282">
        <ele>624</ele>
        <time>2019-08-08T13:37:18.000Z</time>
      </trkpt>
      <trkpt lat="42.82976" lon="1.22288">
        <ele>624</ele>
        <time>2019-08-08T13:37:19.000Z</time>
      </trkpt>
      <trkpt lat="42.82973" lon="1.22299">
        <ele>624</ele>
        <time>2019-08-08T13:37:20.000Z</time>
      </trkpt>
      <trkpt lat="42.82972" lon="1.22303">
        <ele>624</ele>
        <time>2019-08-08T13:37:21.000Z</time>
      </trkpt>
      <trkpt lat="42.82971" lon="1.2231">
        <ele>624</ele>
        <time>2019-08-08T13:37:22.000Z</time>
      </trkpt>
      <trkpt lat="42.82971" lon="1.22318">
        <ele>624</ele>
        <time>2019-08-08T13:37:23.000Z</time>
      </trkpt>
      <trkpt lat="42.82971" lon="1.22326">
        <ele>625</ele>
        <time>2019-08-08T13:37:24.000Z</time>
      </trkpt>
      <trkpt lat="42.82971" lon="1.22334">
        <ele>625</ele>
        <time>2019-08-08T13:37:25.000Z</time>
      </trkpt>
      <trkpt lat="42.82971" lon="1.22342">
        <ele>625</ele>
        <time>2019-08-08T13:37:26.000Z</time>
      </trkpt>
      <trkpt lat="42.82972" lon="1.22349">
        <ele>625</ele>
        <time>2019-08-08T13:37:27.000Z</time>
      </trkpt>
      <trkpt lat="42.82974" lon="1.22357">
        <ele>625</ele>
        <time>2019-08-08T13:37:28.000Z</time>
      </trkpt>
      <trkpt lat="42.82975" lon="1.22364">
        <ele>625</ele>
        <time>2019-08-08T13:37:29.000Z</time>
      </trkpt>
      <trkpt lat="42.82975" lon="1.22372">
        <ele>625</ele>
        <time>2019-08-08T13:37:30.000Z</time>
      </trkpt>
      <trkpt lat="42.82976" lon="1.22379">
        <ele>625</ele>
        <time>2019-08-08T13:37:31.000Z</time>
      </trkpt>
      <trkpt lat="42.82977" lon="1.22387">
        <ele>625</ele>
        <time>2019-08-08T13:37:32.000Z</time>
      </trkpt>
      <trkpt lat="42.82978" lon="1.22394">
        <ele>625</ele>
        <time>2019-08-08T13:37:33.000Z</time>
      </trkpt>
      <trkpt lat="42.82979" lon="1.22401">
        <ele>626</ele>
        <time>2019-08-08T13:37:34.000Z</time>
      </trkpt>
      <trkpt lat="42.82979" lon="1.22409">
        <ele>626</ele>
        <time>2019-08-08T13:37:35.000Z</time>
      </trkpt>
      <trkpt lat="42.8298" lon="1.22416">
        <ele>626</ele>
        <time>2019-08-08T13:37:36.000Z</time>
      </trkpt>
      <trkpt lat="42.8298" lon="1.22427">
        <ele>626</ele>
        <time>2019-08-08T13:37:37.000Z</time>
      </trkpt>
      <trkpt lat="42.8298" lon="1.22431">
        <ele>626</ele>
        <time>2019-08-08T13:37:38.000Z</time>
      </trkpt>
      <trkpt lat="42.82981" lon="1.22438">
        <ele>627</ele>
        <time>2019-08-08T13:37:39.000Z</time>
      </trkpt>
      <trkpt lat="42.82981" lon="1.22446">
        <ele>627</ele>
        <time>2019-08-08T13:37:40.000Z</time>
      </trkpt>
      <trkpt lat="42.82981" lon="1.22453">
        <ele>628</ele>
        <time>2019-08-08T13:37:41.000Z</time>
      </trkpt>
      <trkpt lat="42.82981" lon="1.22461">
        <ele>628</ele>
        <time>2019-08-08T13:37:42.000Z</time>
      </trkpt>
      <trkpt lat="42.82982" lon="1.22468">
        <ele>628</ele>
        <time>2019-08-08T13:37:43.000Z</time>
      </trkpt>
      <trkpt lat="42.82982" lon="1.22475">
        <ele>628</ele>
        <time>2019-08-08T13:37:44.000Z</time>
      </trkpt>
      <trkpt lat="42.82982" lon="1.22483">
        <ele>628</ele>
        <time>2019-08-08T13:37:45.000Z</time>
      </trkpt>
      <trkpt lat="42.82982" lon="1.2249">
        <ele>628</ele>
        <time>2019-08-08T13:37:46.000Z</time>
      </trkpt>
      <trkpt lat="42.82983" lon="1.22497">
        <ele>628</ele>
        <time>2019-08-08T13:37:47.000Z</time>
      </trkpt>
      <trkpt lat="42.82983" lon="1.22504">
        <ele>628</ele>
        <time>2019-08-08T13:37:48.000Z</time>
      </trkpt>
      <trkpt lat="42.82983" lon="1.22512">
        <ele>628</ele>
        <time>2019-08-08T13:37:49.000Z</time>
      </trkpt>
      <trkpt lat="42.82982" lon="1.22519">
        <ele>629</ele>
        <time>2019-08-08T13:37:50.000Z</time>
      </trkpt>
      <trkpt lat="42.82982" lon="1.22526">
        <ele>629</ele>
        <time>2019-08-08T13:37:51.000Z</time>
      </trkpt>
      <trkpt lat="42.82981" lon="1.22534">
        <ele>629</ele>
        <time>2019-08-08T13:37:52.000Z</time>
      </trkpt>
      <trkpt lat="42.8298" lon="1.22545">
        <ele>629</ele>
        <time>2019-08-08T13:37:53.000Z</time>
      </trkpt>
      <trkpt lat="42.8298" lon="1.22548">
        <ele>629</ele>
        <time>2019-08-08T13:37:54.000Z</time>
      </trkpt>
      <trkpt lat="42.82978" lon="1.22556">
        <ele>629</ele>
        <time>2019-08-08T13:37:55.000Z</time>
      </trkpt>
      <trkpt lat="42.82976" lon="1.22562">
        <ele>629</ele>
        <time>2019-08-08T13:37:56.000Z</time>
      </trkpt>
      <trkpt lat="42.82974" lon="1.22569">
        <ele>629</ele>
        <time>2019-08-08T13:37:57.000Z</time>
      </trkpt>
      <trkpt lat="42.82972" lon="1.22576">
        <ele>629</ele>
        <time>2019-08-08T13:37:58.000Z</time>
      </trkpt>
      <trkpt lat="42.82969" lon="1.22582">
        <ele>629</ele>
        <time>2019-08-08T13:37:59.000Z</time>
      </trkpt>
      <trkpt lat="42.82967" lon="1.22589">
        <ele>630</ele>
        <time>2019-08-08T13:38:00.000Z</time>
      </trkpt>
      <trkpt lat="42.82964" lon="1.22595">
        <ele>631</ele>
        <time>2019-08-08T13:38:01.000Z</time>
      </trkpt>
      <trkpt lat="42.82961" lon="1.22601">
        <ele>631</ele>
        <time>2019-08-08T13:38:02.000Z</time>
      </trkpt>
      <trkpt lat="42.82958" lon="1.22606">
        <ele>631</ele>
        <time>2019-08-08T13:38:03.000Z</time>
      </trkpt>
      <trkpt lat="42.82955" lon="1.22612">
        <ele>631</ele>
        <time>2019-08-08T13:38:04.000Z</time>
      </trkpt>
      <trkpt lat="42.82951" lon="1.22617">
        <ele>631</ele>
        <time>2019-08-08T13:38:05.000Z</time>
      </trkpt>
      <trkpt lat="42.82947" lon="1.22622">
        <ele>631</ele>
        <time>2019-08-08T13:38:06.000Z</time>
      </trkpt>
      <trkpt lat="42.82943" lon="1.22626">
        <ele>632</ele>
        <time>2019-08-08T13:38:07.000Z</time>
      </trkpt>
      <trkpt lat="42.8294" lon="1.22631">
        <ele>632</ele>
        <time>2019-08-08T13:38:08.000Z</time>
      </trkpt>
      <trkpt lat="42.82936" lon="1.22635">
        <ele>633</ele>
        <time>2019-08-08T13:38:09.000Z</time>
      </trkpt>
      <trkpt lat="42.8293" lon="1.22642">
        <ele>633</ele>
        <time>2019-08-08T13:38:10.000Z</time>
      </trkpt>
      <trkpt lat="42.82928" lon="1.22644">
        <ele>633</ele>
        <time>2019-08-08T13:38:11.000Z</time>
      </trkpt>
      <trkpt lat="42.82925" lon="1.22648">
        <ele>633</ele>
        <time>2019-08-08T13:38:12.000Z</time>
      </trkpt>
      <trkpt lat="42.82921" lon="1.22652">
        <ele>633</ele>
        <time>2019-08-08T13:38:13.000Z</time>
      </trkpt>
      <trkpt lat="42.82918" lon="1.22657">
        <ele>634</ele>
        <time>2019-08-08T13:38:14.000Z</time>
      </trkpt>
      <trkpt lat="42.82915" lon="1.22662">
        <ele>634</ele>
        <time>2019-08-08T13:38:15.000Z</time>
      </trkpt>
      <trkpt lat="42.82912" lon="1.22667">
        <ele>634</ele>
        <time>2019-08-08T13:38:16.000Z</time>
      </trkpt>
      <trkpt lat="42.82909" lon="1.22672">
        <ele>634</ele>
        <time>2019-08-08T13:38:17.000Z</time>
      </trkpt>
      <trkpt lat="42.82907" lon="1.22677">
        <ele>634</ele>
        <time>2019-08-08T13:38:18.000Z</time>
      </trkpt>
      <trkpt lat="42.82904" lon="1.22683">
        <ele>634</ele>
        <time>2019-08-08T13:38:19.000Z</time>
      </trkpt>
      <trkpt lat="42.82901" lon="1.22688">
        <ele>634</ele>
        <time>2019-08-08T13:38:20.000Z</time>
      </trkpt>
      <trkpt lat="42.82898" lon="1.22693">
        <ele>634</ele>
        <time>2019-08-08T13:38:21.000Z</time>
      </trkpt>
      <trkpt lat="42.82895" lon="1.22698">
        <ele>634</ele>
        <time>2019-08-08T13:38:22.000Z</time>
      </trkpt>
      <trkpt lat="42.82893" lon="1.22703">
        <ele>634</ele>
        <time>2019-08-08T13:38:23.000Z</time>
      </trkpt>
      <trkpt lat="42.8289" lon="1.22708">
        <ele>634</ele>
        <time>2019-08-08T13:38:24.000Z</time>
      </trkpt>
      <trkpt lat="42.82887" lon="1.22712">
        <ele>635</ele>
        <time>2019-08-08T13:38:25.000Z</time>
      </trkpt>
      <trkpt lat="42.82883" lon="1.2272">
        <ele>635</ele>
        <time>2019-08-08T13:38:26.000Z</time>
      </trkpt>
      <trkpt lat="42.82881" lon="1.22722">
        <ele>635</ele>
        <time>2019-08-08T13:38:27.000Z</time>
      </trkpt>
      <trkpt lat="42.82879" lon="1.22727">
        <ele>635</ele>
        <time>2019-08-08T13:38:28.000Z</time>
      </trkpt>
      <trkpt lat="42.82876" lon="1.22732">
        <ele>635</ele>
        <time>2019-08-08T13:38:29.000Z</time>
      </trkpt>
      <trkpt lat="42.82873" lon="1.22737">
        <ele>635</ele>
        <time>2019-08-08T13:38:30.000Z</time>
      </trkpt>
      <trkpt lat="42.82871" lon="1.22742">
        <ele>635</ele>
        <time>2019-08-08T13:38:31.000Z</time>
      </trkpt>
      <trkpt lat="42.82868" lon="1.22746">
        <ele>635</ele>
        <time>2019-08-08T13:38:32.000Z</time>
      </trkpt>
      <trkpt lat="42.82865" lon="1.22751">
        <ele>636</ele>
        <time>2019-08-08T13:38:33.000Z</time>
      </trkpt>
      <trkpt lat="42.82861" lon="1.22758">
        <ele>636</ele>
        <time>2019-08-08T13:38:34.000Z</time>
      </trkpt>
      <trkpt lat="42.8286" lon="1.22761">
        <ele>636</ele>
        <time>2019-08-08T13:38:35.000Z</time>
      </trkpt>
      <trkpt lat="42.82856" lon="1.22769">
        <ele>637</ele>
        <time>2019-08-08T13:38:36.000Z</time>
      </trkpt>
      <trkpt lat="42.82854" lon="1.22771">
        <ele>637</ele>
        <time>2019-08-08T13:38:37.000Z</time>
      </trkpt>
      <trkpt lat="42.82851" lon="1.22776">
        <ele>638</ele>
        <time>2019-08-08T13:38:38.000Z</time>
      </trkpt>
      <trkpt lat="42.82848" lon="1.2278">
        <ele>638</ele>
        <time>2019-08-08T13:38:39.000Z</time>
      </trkpt>
      <trkpt lat="42.82844" lon="1.22785">
        <ele>638</ele>
        <time>2019-08-08T13:38:40.000Z</time>
      </trkpt>
      <trkpt lat="42.82841" lon="1.22789">
        <ele>638</ele>
        <time>2019-08-08T13:38:41.000Z</time>
      </trkpt>
      <trkpt lat="42.82837" lon="1.22792">
        <ele>637</ele>
        <time>2019-08-08T13:38:42.000Z</time>
      </trkpt>
      <trkpt lat="42.82833" lon="1.22796">
        <ele>637</ele>
        <time>2019-08-08T13:38:43.000Z</time>
      </trkpt>
      <trkpt lat="42.82829" lon="1.22799">
        <ele>637</ele>
        <time>2019-08-08T13:38:44.000Z</time>
      </trkpt>
      <trkpt lat="42.82826" lon="1.22802">
        <ele>637</ele>
        <time>2019-08-08T13:38:45.000Z</time>
      </trkpt>
      <trkpt lat="42.82822" lon="1.22805">
        <ele>639</ele>
        <time>2019-08-08T13:38:46.000Z</time>
      </trkpt>
      <trkpt lat="42.82818" lon="1.22807">
        <ele>639</ele>
        <time>2019-08-08T13:38:47.000Z</time>
      </trkpt>
      <trkpt lat="42.82814" lon="1.2281">
        <ele>639</ele>
        <time>2019-08-08T13:38:48.000Z</time>
      </trkpt>
      <trkpt lat="42.8281" lon="1.22813">
        <ele>639</ele>
        <time>2019-08-08T13:38:49.000Z</time>
      </trkpt>
      <trkpt lat="42.82806" lon="1.22815">
        <ele>639</ele>
        <time>2019-08-08T13:38:50.000Z</time>
      </trkpt>
      <trkpt lat="42.82802" lon="1.22818">
        <ele>639</ele>
        <time>2019-08-08T13:38:51.000Z</time>
      </trkpt>
      <trkpt lat="42.82798" lon="1.22821">
        <ele>639</ele>
        <time>2019-08-08T13:38:52.000Z</time>
      </trkpt>
      <trkpt lat="42.82794" lon="1.22824">
        <ele>639</ele>
        <time>2019-08-08T13:38:53.000Z</time>
      </trkpt>
      <trkpt lat="42.8279" lon="1.22827">
        <ele>639</ele>
        <time>2019-08-08T13:38:54.000Z</time>
      </trkpt>
      <trkpt lat="42.82787" lon="1.22831">
        <ele>639</ele>
        <time>2019-08-08T13:38:55.000Z</time>
      </trkpt>
      <trkpt lat="42.82784" lon="1.22835">
        <ele>639</ele>
        <time>2019-08-08T13:38:56.000Z</time>
      </trkpt>
      <trkpt lat="42.82781" lon="1.22839">
        <ele>639</ele>
        <time>2019-08-08T13:38:57.000Z</time>
      </trkpt>
      <trkpt lat="42.82778" lon="1.22844">
        <ele>639</ele>
        <time>2019-08-08T13:38:58.000Z</time>
      </trkpt>
      <trkpt lat="42.82775" lon="1.22849">
        <ele>639</ele>
        <time>2019-08-08T13:38:59.000Z</time>
      </trkpt>
      <trkpt lat="42.82772" lon="1.22857">
        <ele>640</ele>
        <time>2019-08-08T13:39:00.000Z</time>
      </trkpt>
      <trkpt lat="42.82771" lon="1.2286">
        <ele>640</ele>
        <time>2019-08-08T13:39:01.000Z</time>
      </trkpt>
      <trkpt lat="42.82769" lon="1.22866">
        <ele>640</ele>
        <time>2019-08-08T13:39:02.000Z</time>
      </trkpt>
      <trkpt lat="42.82768" lon="1.22872">
        <ele>640</ele>
        <time>2019-08-08T13:39:03.000Z</time>
      </trkpt>
      <trkpt lat="42.82767" lon="1.22878">
        <ele>640</ele>
        <time>2019-08-08T13:39:04.000Z</time>
      </trkpt>
      <trkpt lat="42.82766" lon="1.22884">
        <ele>640</ele>
        <time>2019-08-08T13:39:05.000Z</time>
      </trkpt>
      <trkpt lat="42.82765" lon="1.2289">
        <ele>640</ele>
        <time>2019-08-08T13:39:06.000Z</time>
      </trkpt>
      <trkpt lat="42.82764" lon="1.22896">
        <ele>640</ele>
        <time>2019-08-08T13:39:07.000Z</time>
      </trkpt>
      <trkpt lat="42.82764" lon="1.22902">
        <ele>640</ele>
        <time>2019-08-08T13:39:08.000Z</time>
      </trkpt>
      <trkpt lat="42.82763" lon="1.22908">
        <ele>640</ele>
        <time>2019-08-08T13:39:09.000Z</time>
      </trkpt>
      <trkpt lat="42.82762" lon="1.22914">
        <ele>640</ele>
        <time>2019-08-08T13:39:10.000Z</time>
      </trkpt>
      <trkpt lat="42.8276" lon="1.22922">
        <ele>640</ele>
        <time>2019-08-08T13:39:11.000Z</time>
      </trkpt>
      <trkpt lat="42.8276" lon="1.22925">
        <ele>640</ele>
        <time>2019-08-08T13:39:12.000Z</time>
      </trkpt>
      <trkpt lat="42.82759" lon="1.22931">
        <ele>640</ele>
        <time>2019-08-08T13:39:13.000Z</time>
      </trkpt>
      <trkpt lat="42.82758" lon="1.22936">
        <ele>641</ele>
        <time>2019-08-08T13:39:14.000Z</time>
      </trkpt>
      <trkpt lat="42.82756" lon="1.22942">
        <ele>641</ele>
        <time>2019-08-08T13:39:15.000Z</time>
      </trkpt>
      <trkpt lat="42.82755" lon="1.22951">
        <ele>641</ele>
        <time>2019-08-08T13:39:16.000Z</time>
      </trkpt>
      <trkpt lat="42.82754" lon="1.22953">
        <ele>641</ele>
        <time>2019-08-08T13:39:17.000Z</time>
      </trkpt>
      <trkpt lat="42.82753" lon="1.22959">
        <ele>641</ele>
        <time>2019-08-08T13:39:18.000Z</time>
      </trkpt>
      <trkpt lat="42.82752" lon="1.22964">
        <ele>641</ele>
        <time>2019-08-08T13:39:19.000Z</time>
      </trkpt>
      <trkpt lat="42.82751" lon="1.2297">
        <ele>642</ele>
        <time>2019-08-08T13:39:20.000Z</time>
      </trkpt>
      <trkpt lat="42.8275" lon="1.22976">
        <ele>642</ele>
        <time>2019-08-08T13:39:21.000Z</time>
      </trkpt>
      <trkpt lat="42.82749" lon="1.22981">
        <ele>642</ele>
        <time>2019-08-08T13:39:22.000Z</time>
      </trkpt>
      <trkpt lat="42.82747" lon="1.22987">
        <ele>642</ele>
        <time>2019-08-08T13:39:23.000Z</time>
      </trkpt>
      <trkpt lat="42.82744" lon="1.22995">
        <ele>642</ele>
        <time>2019-08-08T13:39:24.000Z</time>
      </trkpt>
      <trkpt lat="42.82743" lon="1.22997">
        <ele>642</ele>
        <time>2019-08-08T13:39:25.000Z</time>
      </trkpt>
      <trkpt lat="42.82741" lon="1.23002">
        <ele>642</ele>
        <time>2019-08-08T13:39:26.000Z</time>
      </trkpt>
      <trkpt lat="42.82739" lon="1.23007">
        <ele>643</ele>
        <time>2019-08-08T13:39:27.000Z</time>
      </trkpt>
      <trkpt lat="42.82736" lon="1.23012">
        <ele>643</ele>
        <time>2019-08-08T13:39:28.000Z</time>
      </trkpt>
      <trkpt lat="42.82734" lon="1.23017">
        <ele>643</ele>
        <time>2019-08-08T13:39:29.000Z</time>
      </trkpt>
      <trkpt lat="42.82731" lon="1.23021">
        <ele>644</ele>
        <time>2019-08-08T13:39:30.000Z</time>
      </trkpt>
      <trkpt lat="42.82728" lon="1.23026">
        <ele>644</ele>
        <time>2019-08-08T13:39:31.000Z</time>
      </trkpt>
      <trkpt lat="42.82723" lon="1.23032">
        <ele>644</ele>
        <time>2019-08-08T13:39:32.000Z</time>
      </trkpt>
      <trkpt lat="42.82722" lon="1.23034">
        <ele>644</ele>
        <time>2019-08-08T13:39:33.000Z</time>
      </trkpt>
      <trkpt lat="42.82719" lon="1.23038">
        <ele>644</ele>
        <time>2019-08-08T13:39:34.000Z</time>
      </trkpt>
      <trkpt lat="42.82715" lon="1.23042">
        <ele>645</ele>
        <time>2019-08-08T13:39:35.000Z</time>
      </trkpt>
      <trkpt lat="42.82712" lon="1.23046">
        <ele>645</ele>
        <time>2019-08-08T13:39:36.000Z</time>
      </trkpt>
      <trkpt lat="42.82708" lon="1.23049">
        <ele>645</ele>
        <time>2019-08-08T13:39:37.000Z</time>
      </trkpt>
      <trkpt lat="42.82704" lon="1.23052">
        <ele>645</ele>
        <time>2019-08-08T13:39:38.000Z</time>
      </trkpt>
      <trkpt lat="42.827" lon="1.23055">
        <ele>646</ele>
        <time>2019-08-08T13:39:39.000Z</time>
      </trkpt>
      <trkpt lat="42.82696" lon="1.23058">
        <ele>646</ele>
        <time>2019-08-08T13:39:40.000Z</time>
      </trkpt>
      <trkpt lat="42.82692" lon="1.23061">
        <ele>646</ele>
        <time>2019-08-08T13:39:41.000Z</time>
      </trkpt>
      <trkpt lat="42.82686" lon="1.23065">
        <ele>645</ele>
        <time>2019-08-08T13:39:42.000Z</time>
      </trkpt>
      <trkpt lat="42.82684" lon="1.23066">
        <ele>645</ele>
        <time>2019-08-08T13:39:43.000Z</time>
      </trkpt>
      <trkpt lat="42.8268" lon="1.23068">
        <ele>645</ele>
        <time>2019-08-08T13:39:44.000Z</time>
      </trkpt>
      <trkpt lat="42.82676" lon="1.2307">
        <ele>645</ele>
        <time>2019-08-08T13:39:45.000Z</time>
      </trkpt>
      <trkpt lat="42.82672" lon="1.23073">
        <ele>645</ele>
        <time>2019-08-08T13:39:46.000Z</time>
      </trkpt>
      <trkpt lat="42.82668" lon="1.23079">
        <ele>645</ele>
        <time>2019-08-08T13:39:47.000Z</time>
      </trkpt>
      <trkpt lat="42.82666" lon="1.23081">
        <ele>645</ele>
        <time>2019-08-08T13:39:48.000Z</time>
      </trkpt>
      <trkpt lat="42.82663" lon="1.23085">
        <ele>646</ele>
        <time>2019-08-08T13:39:49.000Z</time>
      </trkpt>
      <trkpt lat="42.82658" lon="1.23091">
        <ele>646</ele>
        <time>2019-08-08T13:39:50.000Z</time>
      </trkpt>
      <trkpt lat="42.82657" lon="1.23093">
        <ele>646</ele>
        <time>2019-08-08T13:39:51.000Z</time>
      </trkpt>
      <trkpt lat="42.82654" lon="1.23097">
        <ele>646</ele>
        <time>2019-08-08T13:39:52.000Z</time>
      </trkpt>
      <trkpt lat="42.82651" lon="1.23102">
        <ele>647</ele>
        <time>2019-08-08T13:39:53.000Z</time>
      </trkpt>
      <trkpt lat="42.82648" lon="1.23106">
        <ele>647</ele>
        <time>2019-08-08T13:39:54.000Z</time>
      </trkpt>
      <trkpt lat="42.82644" lon="1.23113">
        <ele>647</ele>
        <time>2019-08-08T13:39:55.000Z</time>
      </trkpt>
      <trkpt lat="42.82642" lon="1.23116">
        <ele>647</ele>
        <time>2019-08-08T13:39:56.000Z</time>
      </trkpt>
      <trkpt lat="42.8264" lon="1.23121">
        <ele>647</ele>
        <time>2019-08-08T13:39:57.000Z</time>
      </trkpt>
      <trkpt lat="42.82638" lon="1.23126">
        <ele>647</ele>
        <time>2019-08-08T13:39:58.000Z</time>
      </trkpt>
      <trkpt lat="42.82635" lon="1.23131">
        <ele>648</ele>
        <time>2019-08-08T13:39:59.000Z</time>
      </trkpt>
      <trkpt lat="42.82633" lon="1.23136">
        <ele>648</ele>
        <time>2019-08-08T13:40:00.000Z</time>
      </trkpt>
      <trkpt lat="42.8263" lon="1.23141">
        <ele>648</ele>
        <time>2019-08-08T13:40:01.000Z</time>
      </trkpt>
      <trkpt lat="42.82628" lon="1.23146">
        <ele>648</ele>
        <time>2019-08-08T13:40:02.000Z</time>
      </trkpt>
      <trkpt lat="42.82625" lon="1.23151">
        <ele>648</ele>
        <time>2019-08-08T13:40:03.000Z</time>
      </trkpt>
      <trkpt lat="42.82623" lon="1.23155">
        <ele>648</ele>
        <time>2019-08-08T13:40:04.000Z</time>
      </trkpt>
      <trkpt lat="42.8262" lon="1.2316">
        <ele>648</ele>
        <time>2019-08-08T13:40:05.000Z</time>
      </trkpt>
      <trkpt lat="42.82616" lon="1.23167">
        <ele>648</ele>
        <time>2019-08-08T13:40:06.000Z</time>
      </trkpt>
      <trkpt lat="42.82615" lon="1.23169">
        <ele>648</ele>
        <time>2019-08-08T13:40:07.000Z</time>
      </trkpt>
      <trkpt lat="42.82612" lon="1.23174">
        <ele>648</ele>
        <time>2019-08-08T13:40:08.000Z</time>
      </trkpt>
      <trkpt lat="42.82609" lon="1.23178">
        <ele>648</ele>
        <time>2019-08-08T13:40:09.000Z</time>
      </trkpt>
      <trkpt lat="42.82606" lon="1.23182">
        <ele>648</ele>
        <time>2019-08-08T13:40:10.000Z</time>
      </trkpt>
      <trkpt lat="42.82603" lon="1.23186">
        <ele>649</ele>
        <time>2019-08-08T13:40:11.000Z</time>
      </trkpt>
      <trkpt lat="42.82599" lon="1.23189">
        <ele>649</ele>
        <time>2019-08-08T13:40:12.000Z</time>
      </trkpt>
      <trkpt lat="42.82595" lon="1.23193">
        <ele>649</ele>
        <time>2019-08-08T13:40:13.000Z</time>
      </trkpt>
      <trkpt lat="42.82592" lon="1.23195">
        <ele>649</ele>
        <time>2019-08-08T13:40:14.000Z</time>
      </trkpt>
      <trkpt lat="42.82586" lon="1.23199">
        <ele>650</ele>
        <time>2019-08-08T13:40:15.000Z</time>
      </trkpt>
      <trkpt lat="42.82584" lon="1.23201">
        <ele>650</ele>
        <time>2019-08-08T13:40:16.000Z</time>
      </trkpt>
      <trkpt lat="42.8258" lon="1.23203">
        <ele>650</ele>
        <time>2019-08-08T13:40:17.000Z</time>
      </trkpt>
      <trkpt lat="42.82575" lon="1.23205">
        <ele>650</ele>
        <time>2019-08-08T13:40:18.000Z</time>
      </trkpt>
      <trkpt lat="42.82571" lon="1.23206">
        <ele>650</ele>
        <time>2019-08-08T13:40:19.000Z</time>
      </trkpt>
      <trkpt lat="42.82566" lon="1.23207">
        <ele>650</ele>
        <time>2019-08-08T13:40:20.000Z</time>
      </trkpt>
      <trkpt lat="42.82561" lon="1.23207">
        <ele>650</ele>
        <time>2019-08-08T13:40:21.000Z</time>
      </trkpt>
      <trkpt lat="42.82557" lon="1.23207">
        <ele>650</ele>
        <time>2019-08-08T13:40:22.000Z</time>
      </trkpt>
      <trkpt lat="42.82552" lon="1.23207">
        <ele>650</ele>
        <time>2019-08-08T13:40:23.000Z</time>
      </trkpt>
      <trkpt lat="42.82545" lon="1.23207">
        <ele>650</ele>
        <time>2019-08-08T13:40:24.000Z</time>
      </trkpt>
      <trkpt lat="42.82542" lon="1.23206">
        <ele>650</ele>
        <time>2019-08-08T13:40:25.000Z</time>
      </trkpt>
      <trkpt lat="42.82537" lon="1.23205">
        <ele>650</ele>
        <time>2019-08-08T13:40:26.000Z</time>
      </trkpt>
      <trkpt lat="42.82532" lon="1.23204">
        <ele>650</ele>
        <time>2019-08-08T13:40:27.000Z</time>
      </trkpt>
      <trkpt lat="42.82526" lon="1.23205">
        <ele>650</ele>
        <time>2019-08-08T13:40:28.000Z</time>
      </trkpt>
      <trkpt lat="42.8252" lon="1.23205">
        <ele>650</ele>
        <time>2019-08-08T13:40:29.000Z</time>
      </trkpt>
      <trkpt lat="42.82514" lon="1.23207">
        <ele>650</ele>
        <time>2019-08-08T13:40:30.000Z</time>
      </trkpt>
      <trkpt lat="42.82509" lon="1.23209">
        <ele>650</ele>
        <time>2019-08-08T13:40:31.000Z</time>
      </trkpt>
      <trkpt lat="42.82503" lon="1.23213">
        <ele>650</ele>
        <time>2019-08-08T13:40:32.000Z</time>
      </trkpt>
      <trkpt lat="42.82498" lon="1.23218">
        <ele>650</ele>
        <time>2019-08-08T13:40:33.000Z</time>
      </trkpt>
      <trkpt lat="42.82494" lon="1.23224">
        <ele>650</ele>
        <time>2019-08-08T13:40:34.000Z</time>
      </trkpt>
      <trkpt lat="42.8249" lon="1.23231">
        <ele>650</ele>
        <time>2019-08-08T13:40:35.000Z</time>
      </trkpt>
      <trkpt lat="42.82486" lon="1.23238">
        <ele>649</ele>
        <time>2019-08-08T13:40:36.000Z</time>
      </trkpt>
      <trkpt lat="42.82482" lon="1.23244">
        <ele>649</ele>
        <time>2019-08-08T13:40:37.000Z</time>
      </trkpt>
      <trkpt lat="42.82478" lon="1.23251">
        <ele>650</ele>
        <time>2019-08-08T13:40:38.000Z</time>
      </trkpt>
      <trkpt lat="42.82473" lon="1.23262">
        <ele>650</ele>
        <time>2019-08-08T13:40:39.000Z</time>
      </trkpt>
      <trkpt lat="42.82471" lon="1.23266">
        <ele>650</ele>
        <time>2019-08-08T13:40:40.000Z</time>
      </trkpt>
      <trkpt lat="42.82467" lon="1.23274">
        <ele>650</ele>
        <time>2019-08-08T13:40:41.000Z</time>
      </trkpt>
      <trkpt lat="42.82463" lon="1.23282">
        <ele>649</ele>
        <time>2019-08-08T13:40:42.000Z</time>
      </trkpt>
      <trkpt lat="42.8246" lon="1.2329">
        <ele>649</ele>
        <time>2019-08-08T13:40:43.000Z</time>
      </trkpt>
      <trkpt lat="42.82456" lon="1.23298">
        <ele>650</ele>
        <time>2019-08-08T13:40:44.000Z</time>
      </trkpt>
      <trkpt lat="42.82452" lon="1.23306">
        <ele>650</ele>
        <time>2019-08-08T13:40:45.000Z</time>
      </trkpt>
      <trkpt lat="42.82449" lon="1.23314">
        <ele>650</ele>
        <time>2019-08-08T13:40:46.000Z</time>
      </trkpt>
      <trkpt lat="42.82445" lon="1.23322">
        <ele>650</ele>
        <time>2019-08-08T13:40:47.000Z</time>
      </trkpt>
      <trkpt lat="42.82439" lon="1.23334">
        <ele>650</ele>
        <time>2019-08-08T13:40:48.000Z</time>
      </trkpt>
      <trkpt lat="42.82437" lon="1.23338">
        <ele>650</ele>
        <time>2019-08-08T13:40:49.000Z</time>
      </trkpt>
      <trkpt lat="42.82433" lon="1.23346">
        <ele>650</ele>
        <time>2019-08-08T13:40:50.000Z</time>
      </trkpt>
      <trkpt lat="42.82429" lon="1.23354">
        <ele>649</ele>
        <time>2019-08-08T13:40:51.000Z</time>
      </trkpt>
      <trkpt lat="42.82425" lon="1.23362">
        <ele>649</ele>
        <time>2019-08-08T13:40:52.000Z</time>
      </trkpt>
      <trkpt lat="42.82421" lon="1.2337">
        <ele>649</ele>
        <time>2019-08-08T13:40:53.000Z</time>
      </trkpt>
      <trkpt lat="42.82417" lon="1.23378">
        <ele>649</ele>
        <time>2019-08-08T13:40:54.000Z</time>
      </trkpt>
      <trkpt lat="42.82413" lon="1.23385">
        <ele>649</ele>
        <time>2019-08-08T13:40:55.000Z</time>
      </trkpt>
      <trkpt lat="42.82408" lon="1.23392">
        <ele>649</ele>
        <time>2019-08-08T13:40:56.000Z</time>
      </trkpt>
      <trkpt lat="42.82403" lon="1.234">
        <ele>649</ele>
        <time>2019-08-08T13:40:57.000Z</time>
      </trkpt>
      <trkpt lat="42.82399" lon="1.23407">
        <ele>649</ele>
        <time>2019-08-08T13:40:58.000Z</time>
      </trkpt>
      <trkpt lat="42.82394" lon="1.23414">
        <ele>650</ele>
        <time>2019-08-08T13:40:59.000Z</time>
      </trkpt>
      <trkpt lat="42.8239" lon="1.23422">
        <ele>650</ele>
        <time>2019-08-08T13:41:00.000Z</time>
      </trkpt>
      <trkpt lat="42.82385" lon="1.23429">
        <ele>650</ele>
        <time>2019-08-08T13:41:01.000Z</time>
      </trkpt>
      <trkpt lat="42.8238" lon="1.23437">
        <ele>650</ele>
        <time>2019-08-08T13:41:02.000Z</time>
      </trkpt>
      <trkpt lat="42.82376" lon="1.23444">
        <ele>651</ele>
        <time>2019-08-08T13:41:03.000Z</time>
      </trkpt>
      <trkpt lat="42.82371" lon="1.23451">
        <ele>651</ele>
        <time>2019-08-08T13:41:04.000Z</time>
      </trkpt>
      <trkpt lat="42.82366" lon="1.23458">
        <ele>651</ele>
        <time>2019-08-08T13:41:05.000Z</time>
      </trkpt>
      <trkpt lat="42.8236" lon="1.23464">
        <ele>651</ele>
        <time>2019-08-08T13:41:06.000Z</time>
      </trkpt>
      <trkpt lat="42.82352" lon="1.23473">
        <ele>651</ele>
        <time>2019-08-08T13:41:07.000Z</time>
      </trkpt>
      <trkpt lat="42.82349" lon="1.23476">
        <ele>651</ele>
        <time>2019-08-08T13:41:08.000Z</time>
      </trkpt>
      <trkpt lat="42.82344" lon="1.23482">
        <ele>651</ele>
        <time>2019-08-08T13:41:09.000Z</time>
      </trkpt>
      <trkpt lat="42.82338" lon="1.23488">
        <ele>651</ele>
        <time>2019-08-08T13:41:10.000Z</time>
      </trkpt>
      <trkpt lat="42.82332" lon="1.23493">
        <ele>651</ele>
        <time>2019-08-08T13:41:11.000Z</time>
      </trkpt>
      <trkpt lat="42.82324" lon="1.23502">
        <ele>652</ele>
        <time>2019-08-08T13:41:12.000Z</time>
      </trkpt>
      <trkpt lat="42.82321" lon="1.23504">
        <ele>652</ele>
        <time>2019-08-08T13:41:13.000Z</time>
      </trkpt>
      <trkpt lat="42.82315" lon="1.2351">
        <ele>652</ele>
        <time>2019-08-08T13:41:14.000Z</time>
      </trkpt>
      <trkpt lat="42.8231" lon="1.23514">
        <ele>652</ele>
        <time>2019-08-08T13:41:15.000Z</time>
      </trkpt>
      <trkpt lat="42.82301" lon="1.23522">
        <ele>652</ele>
        <time>2019-08-08T13:41:16.000Z</time>
      </trkpt>
      <trkpt lat="42.82298" lon="1.23525">
        <ele>652</ele>
        <time>2019-08-08T13:41:17.000Z</time>
      </trkpt>
      <trkpt lat="42.82292" lon="1.2353">
        <ele>652</ele>
        <time>2019-08-08T13:41:18.000Z</time>
      </trkpt>
      <trkpt lat="42.82286" lon="1.23536">
        <ele>652</ele>
        <time>2019-08-08T13:41:19.000Z</time>
      </trkpt>
      <trkpt lat="42.8228" lon="1.23541">
        <ele>652</ele>
        <time>2019-08-08T13:41:20.000Z</time>
      </trkpt>
      <trkpt lat="42.82275" lon="1.23547">
        <ele>652</ele>
        <time>2019-08-08T13:41:21.000Z</time>
      </trkpt>
      <trkpt lat="42.82269" lon="1.23552">
        <ele>652</ele>
        <time>2019-08-08T13:41:22.000Z</time>
      </trkpt>
      <trkpt lat="42.82263" lon="1.23557">
        <ele>652</ele>
        <time>2019-08-08T13:41:23.000Z</time>
      </trkpt>
      <trkpt lat="42.82254" lon="1.23565">
        <ele>652</ele>
        <time>2019-08-08T13:41:24.000Z</time>
      </trkpt>
      <trkpt lat="42.82251" lon="1.23568">
        <ele>652</ele>
        <time>2019-08-08T13:41:25.000Z</time>
      </trkpt>
      <trkpt lat="42.82245" lon="1.23574">
        <ele>652</ele>
        <time>2019-08-08T13:41:26.000Z</time>
      </trkpt>
      <trkpt lat="42.82239" lon="1.2358">
        <ele>652</ele>
        <time>2019-08-08T13:41:27.000Z</time>
      </trkpt>
      <trkpt lat="42.82234" lon="1.23586">
        <ele>652</ele>
        <time>2019-08-08T13:41:28.000Z</time>
      </trkpt>
      <trkpt lat="42.82229" lon="1.23593">
        <ele>652</ele>
        <time>2019-08-08T13:41:29.000Z</time>
      </trkpt>
      <trkpt lat="42.82224" lon="1.236">
        <ele>652</ele>
        <time>2019-08-08T13:41:30.000Z</time>
      </trkpt>
      <trkpt lat="42.82219" lon="1.23608">
        <ele>652</ele>
        <time>2019-08-08T13:41:31.000Z</time>
      </trkpt>
      <trkpt lat="42.82215" lon="1.23615">
        <ele>652</ele>
        <time>2019-08-08T13:41:32.000Z</time>
      </trkpt>
      <trkpt lat="42.82211" lon="1.23624">
        <ele>653</ele>
        <time>2019-08-08T13:41:33.000Z</time>
      </trkpt>
      <trkpt lat="42.82208" lon="1.23632">
        <ele>653</ele>
        <time>2019-08-08T13:41:34.000Z</time>
      </trkpt>
      <trkpt lat="42.82204" lon="1.2364">
        <ele>653</ele>
        <time>2019-08-08T13:41:35.000Z</time>
      </trkpt>
      <trkpt lat="42.82201" lon="1.23648">
        <ele>653</ele>
        <time>2019-08-08T13:41:36.000Z</time>
      </trkpt>
      <trkpt lat="42.82197" lon="1.23656">
        <ele>653</ele>
        <time>2019-08-08T13:41:37.000Z</time>
      </trkpt>
      <trkpt lat="42.82193" lon="1.23664">
        <ele>653</ele>
        <time>2019-08-08T13:41:38.000Z</time>
      </trkpt>
      <trkpt lat="42.8219" lon="1.23672">
        <ele>653</ele>
        <time>2019-08-08T13:41:39.000Z</time>
      </trkpt>
      <trkpt lat="42.82187" lon="1.23681">
        <ele>653</ele>
        <time>2019-08-08T13:41:40.000Z</time>
      </trkpt>
      <trkpt lat="42.82184" lon="1.23689">
        <ele>653</ele>
        <time>2019-08-08T13:41:41.000Z</time>
      </trkpt>
      <trkpt lat="42.8218" lon="1.23697">
        <ele>653</ele>
        <time>2019-08-08T13:41:42.000Z</time>
      </trkpt>
      <trkpt lat="42.82176" lon="1.23705">
        <ele>653</ele>
        <time>2019-08-08T13:41:43.000Z</time>
      </trkpt>
      <trkpt lat="42.82173" lon="1.23712">
        <ele>654</ele>
        <time>2019-08-08T13:41:44.000Z</time>
      </trkpt>
      <trkpt lat="42.82169" lon="1.2372">
        <ele>654</ele>
        <time>2019-08-08T13:41:45.000Z</time>
      </trkpt>
      <trkpt lat="42.82164" lon="1.23732">
        <ele>654</ele>
        <time>2019-08-08T13:41:46.000Z</time>
      </trkpt>
      <trkpt lat="42.82162" lon="1.23736">
        <ele>654</ele>
        <time>2019-08-08T13:41:47.000Z</time>
      </trkpt>
      <trkpt lat="42.82158" lon="1.23744">
        <ele>654</ele>
        <time>2019-08-08T13:41:48.000Z</time>
      </trkpt>
      <trkpt lat="42.82155" lon="1.23752">
        <ele>654</ele>
        <time>2019-08-08T13:41:49.000Z</time>
      </trkpt>
      <trkpt lat="42.82151" lon="1.2376">
        <ele>654</ele>
        <time>2019-08-08T13:41:50.000Z</time>
      </trkpt>
      <trkpt lat="42.82147" lon="1.23769">
        <ele>654</ele>
        <time>2019-08-08T13:41:51.000Z</time>
      </trkpt>
      <trkpt lat="42.82144" lon="1.23777">
        <ele>654</ele>
        <time>2019-08-08T13:41:52.000Z</time>
      </trkpt>
      <trkpt lat="42.8214" lon="1.23785">
        <ele>654</ele>
        <time>2019-08-08T13:41:53.000Z</time>
      </trkpt>
      <trkpt lat="42.82137" lon="1.23794">
        <ele>654</ele>
        <time>2019-08-08T13:41:54.000Z</time>
      </trkpt>
      <trkpt lat="42.82133" lon="1.23802">
        <ele>654</ele>
        <time>2019-08-08T13:41:55.000Z</time>
      </trkpt>
      <trkpt lat="42.82129" lon="1.2381">
        <ele>654</ele>
        <time>2019-08-08T13:41:56.000Z</time>
      </trkpt>
      <trkpt lat="42.82126" lon="1.23818">
        <ele>654</ele>
        <time>2019-08-08T13:41:57.000Z</time>
      </trkpt>
      <trkpt lat="42.82122" lon="1.23826">
        <ele>654</ele>
        <time>2019-08-08T13:41:58.000Z</time>
      </trkpt>
      <trkpt lat="42.82119" lon="1.23835">
        <ele>654</ele>
        <time>2019-08-08T13:41:59.000Z</time>
      </trkpt>
      <trkpt lat="42.82115" lon="1.23843">
        <ele>654</ele>
        <time>2019-08-08T13:42:00.000Z</time>
      </trkpt>
      <trkpt lat="42.82112" lon="1.23851">
        <ele>654</ele>
        <time>2019-08-08T13:42:01.000Z</time>
      </trkpt>
      <trkpt lat="42.82107" lon="1.23864">
        <ele>654</ele>
        <time>2019-08-08T13:42:02.000Z</time>
      </trkpt>
      <trkpt lat="42.82105" lon="1.23868">
        <ele>654</ele>
        <time>2019-08-08T13:42:03.000Z</time>
      </trkpt>
      <trkpt lat="42.82101" lon="1.23876">
        <ele>654</ele>
        <time>2019-08-08T13:42:04.000Z</time>
      </trkpt>
      <trkpt lat="42.82098" lon="1.23885">
        <ele>654</ele>
        <time>2019-08-08T13:42:05.000Z</time>
      </trkpt>
      <trkpt lat="42.82093" lon="1.23898">
        <ele>654</ele>
        <time>2019-08-08T13:42:06.000Z</time>
      </trkpt>
      <trkpt lat="42.82091" lon="1.23902">
        <ele>654</ele>
        <time>2019-08-08T13:42:07.000Z</time>
      </trkpt>
      <trkpt lat="42.82088" lon="1.23911">
        <ele>654</ele>
        <time>2019-08-08T13:42:08.000Z</time>
      </trkpt>
      <trkpt lat="42.82084" lon="1.23919">
        <ele>654</ele>
        <time>2019-08-08T13:42:09.000Z</time>
      </trkpt>
      <trkpt lat="42.82081" lon="1.23928">
        <ele>654</ele>
        <time>2019-08-08T13:42:10.000Z</time>
      </trkpt>
      <trkpt lat="42.82077" lon="1.23937">
        <ele>654</ele>
        <time>2019-08-08T13:42:11.000Z</time>
      </trkpt>
      <trkpt lat="42.82074" lon="1.23945">
        <ele>655</ele>
        <time>2019-08-08T13:42:12.000Z</time>
      </trkpt>
      <trkpt lat="42.8207" lon="1.23953">
        <ele>655</ele>
        <time>2019-08-08T13:42:13.000Z</time>
      </trkpt>
      <trkpt lat="42.82066" lon="1.23961">
        <ele>655</ele>
        <time>2019-08-08T13:42:14.000Z</time>
      </trkpt>
      <trkpt lat="42.82062" lon="1.23969">
        <ele>655</ele>
        <time>2019-08-08T13:42:15.000Z</time>
      </trkpt>
      <trkpt lat="42.82057" lon="1.23977">
        <ele>655</ele>
        <time>2019-08-08T13:42:16.000Z</time>
      </trkpt>
      <trkpt lat="42.82053" lon="1.23985">
        <ele>655</ele>
        <time>2019-08-08T13:42:17.000Z</time>
      </trkpt>
      <trkpt lat="42.82048" lon="1.23992">
        <ele>655</ele>
        <time>2019-08-08T13:42:18.000Z</time>
      </trkpt>
      <trkpt lat="42.82044" lon="1.24">
        <ele>655</ele>
        <time>2019-08-08T13:42:19.000Z</time>
      </trkpt>
      <trkpt lat="42.82039" lon="1.24007">
        <ele>655</ele>
        <time>2019-08-08T13:42:20.000Z</time>
      </trkpt>
      <trkpt lat="42.82035" lon="1.24014">
        <ele>655</ele>
        <time>2019-08-08T13:42:21.000Z</time>
      </trkpt>
      <trkpt lat="42.8203" lon="1.24021">
        <ele>655</ele>
        <time>2019-08-08T13:42:22.000Z</time>
      </trkpt>
      <trkpt lat="42.82026" lon="1.24028">
        <ele>655</ele>
        <time>2019-08-08T13:42:23.000Z</time>
      </trkpt>
      <trkpt lat="42.82021" lon="1.24035">
        <ele>656</ele>
        <time>2019-08-08T13:42:24.000Z</time>
      </trkpt>
      <trkpt lat="42.82016" lon="1.24042">
        <ele>656</ele>
        <time>2019-08-08T13:42:25.000Z</time>
      </trkpt>
      <trkpt lat="42.82012" lon="1.24048">
        <ele>656</ele>
        <time>2019-08-08T13:42:26.000Z</time>
      </trkpt>
      <trkpt lat="42.82007" lon="1.24054">
        <ele>656</ele>
        <time>2019-08-08T13:42:27.000Z</time>
      </trkpt>
      <trkpt lat="42.82003" lon="1.24061">
        <ele>656</ele>
        <time>2019-08-08T13:42:28.000Z</time>
      </trkpt>
      <trkpt lat="42.81998" lon="1.24067">
        <ele>656</ele>
        <time>2019-08-08T13:42:29.000Z</time>
      </trkpt>
      <trkpt lat="42.81993" lon="1.24073">
        <ele>657</ele>
        <time>2019-08-08T13:42:30.000Z</time>
      </trkpt>
      <trkpt lat="42.81988" lon="1.24078">
        <ele>657</ele>
        <time>2019-08-08T13:42:31.000Z</time>
      </trkpt>
      <trkpt lat="42.81983" lon="1.24084">
        <ele>657</ele>
        <time>2019-08-08T13:42:32.000Z</time>
      </trkpt>
      <trkpt lat="42.81978" lon="1.24089">
        <ele>657</ele>
        <time>2019-08-08T13:42:33.000Z</time>
      </trkpt>
      <trkpt lat="42.81973" lon="1.24095">
        <ele>657</ele>
        <time>2019-08-08T13:42:34.000Z</time>
      </trkpt>
      <trkpt lat="42.81969" lon="1.24099">
        <ele>657</ele>
        <time>2019-08-08T13:42:35.000Z</time>
      </trkpt>
      <trkpt lat="42.81961" lon="1.24107">
        <ele>657</ele>
        <time>2019-08-08T13:42:36.000Z</time>
      </trkpt>
      <trkpt lat="42.81959" lon="1.24109">
        <ele>657</ele>
        <time>2019-08-08T13:42:37.000Z</time>
      </trkpt>
      <trkpt lat="42.81954" lon="1.24115">
        <ele>658</ele>
        <time>2019-08-08T13:42:38.000Z</time>
      </trkpt>
      <trkpt lat="42.81949" lon="1.2412">
        <ele>658</ele>
        <time>2019-08-08T13:42:39.000Z</time>
      </trkpt>
      <trkpt lat="42.81942" lon="1.24128">
        <ele>658</ele>
        <time>2019-08-08T13:42:40.000Z</time>
      </trkpt>
      <trkpt lat="42.8194" lon="1.24131">
        <ele>658</ele>
        <time>2019-08-08T13:42:41.000Z</time>
      </trkpt>
      <trkpt lat="42.81935" lon="1.24136">
        <ele>658</ele>
        <time>2019-08-08T13:42:42.000Z</time>
      </trkpt>
      <trkpt lat="42.81931" lon="1.24142">
        <ele>658</ele>
        <time>2019-08-08T13:42:43.000Z</time>
      </trkpt>
      <trkpt lat="42.81926" lon="1.24147">
        <ele>658</ele>
        <time>2019-08-08T13:42:44.000Z</time>
      </trkpt>
      <trkpt lat="42.81921" lon="1.24153">
        <ele>658</ele>
        <time>2019-08-08T13:42:45.000Z</time>
      </trkpt>
      <trkpt lat="42.81917" lon="1.24158">
        <ele>659</ele>
        <time>2019-08-08T13:42:46.000Z</time>
      </trkpt>
      <trkpt lat="42.81912" lon="1.24163">
        <ele>659</ele>
        <time>2019-08-08T13:42:47.000Z</time>
      </trkpt>
      <trkpt lat="42.81907" lon="1.24168">
        <ele>659</ele>
        <time>2019-08-08T13:42:48.000Z</time>
      </trkpt>
      <trkpt lat="42.81903" lon="1.24173">
        <ele>659</ele>
        <time>2019-08-08T13:42:49.000Z</time>
      </trkpt>
      <trkpt lat="42.81898" lon="1.24178">
        <ele>659</ele>
        <time>2019-08-08T13:42:50.000Z</time>
      </trkpt>
      <trkpt lat="42.81894" lon="1.24183">
        <ele>659</ele>
        <time>2019-08-08T13:42:51.000Z</time>
      </trkpt>
      <trkpt lat="42.81888" lon="1.24191">
        <ele>659</ele>
        <time>2019-08-08T13:42:52.000Z</time>
      </trkpt>
      <trkpt lat="42.81885" lon="1.24193">
        <ele>658</ele>
        <time>2019-08-08T13:42:53.000Z</time>
      </trkpt>
      <trkpt lat="42.81881" lon="1.24198">
        <ele>659</ele>
        <time>2019-08-08T13:42:54.000Z</time>
      </trkpt>
      <trkpt lat="42.81877" lon="1.24203">
        <ele>660</ele>
        <time>2019-08-08T13:42:55.000Z</time>
      </trkpt>
      <trkpt lat="42.81872" lon="1.24208">
        <ele>660</ele>
        <time>2019-08-08T13:42:56.000Z</time>
      </trkpt>
      <trkpt lat="42.81868" lon="1.24214">
        <ele>660</ele>
        <time>2019-08-08T13:42:57.000Z</time>
      </trkpt>
      <trkpt lat="42.81864" lon="1.24219">
        <ele>660</ele>
        <time>2019-08-08T13:42:58.000Z</time>
      </trkpt>
      <trkpt lat="42.81859" lon="1.24224">
        <ele>660</ele>
        <time>2019-08-08T13:42:59.000Z</time>
      </trkpt>
      <trkpt lat="42.81855" lon="1.24229">
        <ele>660</ele>
        <time>2019-08-08T13:43:00.000Z</time>
      </trkpt>
      <trkpt lat="42.81851" lon="1.24234">
        <ele>660</ele>
        <time>2019-08-08T13:43:01.000Z</time>
      </trkpt>
      <trkpt lat="42.81846" lon="1.24239">
        <ele>661</ele>
        <time>2019-08-08T13:43:02.000Z</time>
      </trkpt>
      <trkpt lat="42.81842" lon="1.24244">
        <ele>661</ele>
        <time>2019-08-08T13:43:03.000Z</time>
      </trkpt>
      <trkpt lat="42.81838" lon="1.24249">
        <ele>661</ele>
        <time>2019-08-08T13:43:04.000Z</time>
      </trkpt>
      <trkpt lat="42.81833" lon="1.24254">
        <ele>661</ele>
        <time>2019-08-08T13:43:05.000Z</time>
      </trkpt>
      <trkpt lat="42.81829" lon="1.2426">
        <ele>661</ele>
        <time>2019-08-08T13:43:06.000Z</time>
      </trkpt>
      <trkpt lat="42.81825" lon="1.24265">
        <ele>661</ele>
        <time>2019-08-08T13:43:07.000Z</time>
      </trkpt>
      <trkpt lat="42.81821" lon="1.24271">
        <ele>661</ele>
        <time>2019-08-08T13:43:08.000Z</time>
      </trkpt>
      <trkpt lat="42.81817" lon="1.24277">
        <ele>661</ele>
        <time>2019-08-08T13:43:09.000Z</time>
      </trkpt>
      <trkpt lat="42.81814" lon="1.24283">
        <ele>661</ele>
        <time>2019-08-08T13:43:10.000Z</time>
      </trkpt>
      <trkpt lat="42.8181" lon="1.24289">
        <ele>661</ele>
        <time>2019-08-08T13:43:11.000Z</time>
      </trkpt>
      <trkpt lat="42.81806" lon="1.24295">
        <ele>662</ele>
        <time>2019-08-08T13:43:12.000Z</time>
      </trkpt>
      <trkpt lat="42.81801" lon="1.24302">
        <ele>662</ele>
        <time>2019-08-08T13:43:13.000Z</time>
      </trkpt>
      <trkpt lat="42.81797" lon="1.24308">
        <ele>662</ele>
        <time>2019-08-08T13:43:14.000Z</time>
      </trkpt>
      <trkpt lat="42.81793" lon="1.24314">
        <ele>662</ele>
        <time>2019-08-08T13:43:15.000Z</time>
      </trkpt>
      <trkpt lat="42.81789" lon="1.2432">
        <ele>662</ele>
        <time>2019-08-08T13:43:16.000Z</time>
      </trkpt>
      <trkpt lat="42.81785" lon="1.24327">
        <ele>662</ele>
        <time>2019-08-08T13:43:17.000Z</time>
      </trkpt>
      <trkpt lat="42.81781" lon="1.24333">
        <ele>661</ele>
        <time>2019-08-08T13:43:18.000Z</time>
      </trkpt>
      <trkpt lat="42.81777" lon="1.2434">
        <ele>661</ele>
        <time>2019-08-08T13:43:19.000Z</time>
      </trkpt>
      <trkpt lat="42.81773" lon="1.24346">
        <ele>661</ele>
        <time>2019-08-08T13:43:20.000Z</time>
      </trkpt>
      <trkpt lat="42.8177" lon="1.24352">
        <ele>662</ele>
        <time>2019-08-08T13:43:21.000Z</time>
      </trkpt>
      <trkpt lat="42.81766" lon="1.24359">
        <ele>662</ele>
        <time>2019-08-08T13:43:22.000Z</time>
      </trkpt>
      <trkpt lat="42.81762" lon="1.24365">
        <ele>662</ele>
        <time>2019-08-08T13:43:23.000Z</time>
      </trkpt>
      <trkpt lat="42.81759" lon="1.24371">
        <ele>662</ele>
        <time>2019-08-08T13:43:24.000Z</time>
      </trkpt>
      <trkpt lat="42.81753" lon="1.2438">
        <ele>663</ele>
        <time>2019-08-08T13:43:25.000Z</time>
      </trkpt>
      <trkpt lat="42.81751" lon="1.24383">
        <ele>663</ele>
        <time>2019-08-08T13:43:26.000Z</time>
      </trkpt>
      <trkpt lat="42.81747" lon="1.24389">
        <ele>663</ele>
        <time>2019-08-08T13:43:27.000Z</time>
      </trkpt>
      <trkpt lat="42.81742" lon="1.24395">
        <ele>663</ele>
        <time>2019-08-08T13:43:28.000Z</time>
      </trkpt>
      <trkpt lat="42.81738" lon="1.24401">
        <ele>663</ele>
        <time>2019-08-08T13:43:29.000Z</time>
      </trkpt>
      <trkpt lat="42.81734" lon="1.24407">
        <ele>663</ele>
        <time>2019-08-08T13:43:30.000Z</time>
      </trkpt>
      <trkpt lat="42.81731" lon="1.24413">
        <ele>663</ele>
        <time>2019-08-08T13:43:31.000Z</time>
      </trkpt>
      <trkpt lat="42.81727" lon="1.24419">
        <ele>663</ele>
        <time>2019-08-08T13:43:32.000Z</time>
      </trkpt>
      <trkpt lat="42.81723" lon="1.24425">
        <ele>663</ele>
        <time>2019-08-08T13:43:33.000Z</time>
      </trkpt>
      <trkpt lat="42.81719" lon="1.24431">
        <ele>664</ele>
        <time>2019-08-08T13:43:34.000Z</time>
      </trkpt>
      <trkpt lat="42.81715" lon="1.24438">
        <ele>664</ele>
        <time>2019-08-08T13:43:35.000Z</time>
      </trkpt>
      <trkpt lat="42.81711" lon="1.24444">
        <ele>664</ele>
        <time>2019-08-08T13:43:36.000Z</time>
      </trkpt>
      <trkpt lat="42.81707" lon="1.2445">
        <ele>664</ele>
        <time>2019-08-08T13:43:37.000Z</time>
      </trkpt>
      <trkpt lat="42.81703" lon="1.24457">
        <ele>664</ele>
        <time>2019-08-08T13:43:38.000Z</time>
      </trkpt>
      <trkpt lat="42.817" lon="1.24463">
        <ele>664</ele>
        <time>2019-08-08T13:43:39.000Z</time>
      </trkpt>
      <trkpt lat="42.81696" lon="1.24469">
        <ele>664</ele>
        <time>2019-08-08T13:43:40.000Z</time>
      </trkpt>
      <trkpt lat="42.81692" lon="1.24475">
        <ele>664</ele>
        <time>2019-08-08T13:43:41.000Z</time>
      </trkpt>
      <trkpt lat="42.81686" lon="1.24484">
        <ele>664</ele>
        <time>2019-08-08T13:43:42.000Z</time>
      </trkpt>
      <trkpt lat="42.81684" lon="1.24487">
        <ele>664</ele>
        <time>2019-08-08T13:43:43.000Z</time>
      </trkpt>
      <trkpt lat="42.81681" lon="1.24493">
        <ele>665</ele>
        <time>2019-08-08T13:43:44.000Z</time>
      </trkpt>
      <trkpt lat="42.81677" lon="1.245">
        <ele>665</ele>
        <time>2019-08-08T13:43:45.000Z</time>
      </trkpt>
      <trkpt lat="42.81673" lon="1.24507">
        <ele>665</ele>
        <time>2019-08-08T13:43:46.000Z</time>
      </trkpt>
      <trkpt lat="42.81669" lon="1.24513">
        <ele>665</ele>
        <time>2019-08-08T13:43:47.000Z</time>
      </trkpt>
      <trkpt lat="42.81665" lon="1.2452">
        <ele>665</ele>
        <time>2019-08-08T13:43:48.000Z</time>
      </trkpt>
      <trkpt lat="42.81662" lon="1.24527">
        <ele>665</ele>
        <time>2019-08-08T13:43:49.000Z</time>
      </trkpt>
      <trkpt lat="42.81658" lon="1.24534">
        <ele>666</ele>
        <time>2019-08-08T13:43:50.000Z</time>
      </trkpt>
      <trkpt lat="42.81656" lon="1.24541">
        <ele>666</ele>
        <time>2019-08-08T13:43:51.000Z</time>
      </trkpt>
      <trkpt lat="42.81653" lon="1.24549">
        <ele>666</ele>
        <time>2019-08-08T13:43:52.000Z</time>
      </trkpt>
      <trkpt lat="42.81649" lon="1.24556">
        <ele>666</ele>
        <time>2019-08-08T13:43:53.000Z</time>
      </trkpt>
      <trkpt lat="42.81646" lon="1.24564">
        <ele>666</ele>
        <time>2019-08-08T13:43:54.000Z</time>
      </trkpt>
      <trkpt lat="42.81643" lon="1.24571">
        <ele>666</ele>
        <time>2019-08-08T13:43:55.000Z</time>
      </trkpt>
      <trkpt lat="42.8164" lon="1.24579">
        <ele>666</ele>
        <time>2019-08-08T13:43:56.000Z</time>
      </trkpt>
      <trkpt lat="42.81637" lon="1.24587">
        <ele>666</ele>
        <time>2019-08-08T13:43:57.000Z</time>
      </trkpt>
      <trkpt lat="42.81633" lon="1.24599">
        <ele>666</ele>
        <time>2019-08-08T13:43:58.000Z</time>
      </trkpt>
      <trkpt lat="42.81632" lon="1.24603">
        <ele>666</ele>
        <time>2019-08-08T13:43:59.000Z</time>
      </trkpt>
      <trkpt lat="42.8163" lon="1.24611">
        <ele>666</ele>
        <time>2019-08-08T13:44:00.000Z</time>
      </trkpt>
      <trkpt lat="42.81627" lon="1.24619">
        <ele>666</ele>
        <time>2019-08-08T13:44:01.000Z</time>
      </trkpt>
      <trkpt lat="42.81625" lon="1.24628">
        <ele>666</ele>
        <time>2019-08-08T13:44:02.000Z</time>
      </trkpt>
      <trkpt lat="42.81624" lon="1.24636">
        <ele>666</ele>
        <time>2019-08-08T13:44:03.000Z</time>
      </trkpt>
      <trkpt lat="42.81622" lon="1.24645">
        <ele>666</ele>
        <time>2019-08-08T13:44:04.000Z</time>
      </trkpt>
      <trkpt lat="42.81621" lon="1.24654">
        <ele>666</ele>
        <time>2019-08-08T13:44:05.000Z</time>
      </trkpt>
      <trkpt lat="42.81619" lon="1.24663">
        <ele>666</ele>
        <time>2019-08-08T13:44:06.000Z</time>
      </trkpt>
      <trkpt lat="42.81617" lon="1.24671">
        <ele>666</ele>
        <time>2019-08-08T13:44:07.000Z</time>
      </trkpt>
      <trkpt lat="42.81616" lon="1.2468">
        <ele>666</ele>
        <time>2019-08-08T13:44:08.000Z</time>
      </trkpt>
      <trkpt lat="42.81614" lon="1.24689">
        <ele>667</ele>
        <time>2019-08-08T13:44:09.000Z</time>
      </trkpt>
      <trkpt lat="42.81613" lon="1.24698">
        <ele>667</ele>
        <time>2019-08-08T13:44:10.000Z</time>
      </trkpt>
      <trkpt lat="42.81611" lon="1.24707">
        <ele>667</ele>
        <time>2019-08-08T13:44:11.000Z</time>
      </trkpt>
      <trkpt lat="42.8161" lon="1.24716">
        <ele>668</ele>
        <time>2019-08-08T13:44:12.000Z</time>
      </trkpt>
      <trkpt lat="42.81609" lon="1.24725">
        <ele>668</ele>
        <time>2019-08-08T13:44:13.000Z</time>
      </trkpt>
      <trkpt lat="42.81608" lon="1.24733">
        <ele>668</ele>
        <time>2019-08-08T13:44:14.000Z</time>
      </trkpt>
      <trkpt lat="42.81606" lon="1.24746">
        <ele>668</ele>
        <time>2019-08-08T13:44:15.000Z</time>
      </trkpt>
      <trkpt lat="42.81605" lon="1.2475">
        <ele>668</ele>
        <time>2019-08-08T13:44:16.000Z</time>
      </trkpt>
      <trkpt lat="42.81603" lon="1.24759">
        <ele>668</ele>
        <time>2019-08-08T13:44:17.000Z</time>
      </trkpt>
      <trkpt lat="42.81601" lon="1.24768">
        <ele>669</ele>
        <time>2019-08-08T13:44:18.000Z</time>
      </trkpt>
      <trkpt lat="42.816" lon="1.24776">
        <ele>669</ele>
        <time>2019-08-08T13:44:19.000Z</time>
      </trkpt>
      <trkpt lat="42.81598" lon="1.24785">
        <ele>669</ele>
        <time>2019-08-08T13:44:20.000Z</time>
      </trkpt>
      <trkpt lat="42.81596" lon="1.24793">
        <ele>669</ele>
        <time>2019-08-08T13:44:21.000Z</time>
      </trkpt>
      <trkpt lat="42.81594" lon="1.24802">
        <ele>669</ele>
        <time>2019-08-08T13:44:22.000Z</time>
      </trkpt>
      <trkpt lat="42.81591" lon="1.2481">
        <ele>669</ele>
        <time>2019-08-08T13:44:23.000Z</time>
      </trkpt>
      <trkpt lat="42.81589" lon="1.24818">
        <ele>669</ele>
        <time>2019-08-08T13:44:24.000Z</time>
      </trkpt>
      <trkpt lat="42.81586" lon="1.24826">
        <ele>669</ele>
        <time>2019-08-08T13:44:25.000Z</time>
      </trkpt>
      <trkpt lat="42.81582" lon="1.24834">
        <ele>669</ele>
        <time>2019-08-08T13:44:26.000Z</time>
      </trkpt>
      <trkpt lat="42.81578" lon="1.24841">
        <ele>669</ele>
        <time>2019-08-08T13:44:27.000Z</time>
      </trkpt>
      <trkpt lat="42.81573" lon="1.24847">
        <ele>669</ele>
        <time>2019-08-08T13:44:28.000Z</time>
      </trkpt>
      <trkpt lat="42.81568" lon="1.24853">
        <ele>670</ele>
        <time>2019-08-08T13:44:29.000Z</time>
      </trkpt>
      <trkpt lat="42.81563" lon="1.24858">
        <ele>670</ele>
        <time>2019-08-08T13:44:30.000Z</time>
      </trkpt>
      <trkpt lat="42.81558" lon="1.24864">
        <ele>670</ele>
        <time>2019-08-08T13:44:31.000Z</time>
      </trkpt>
      <trkpt lat="42.81552" lon="1.24869">
        <ele>670</ele>
        <time>2019-08-08T13:44:32.000Z</time>
      </trkpt>
      <trkpt lat="42.81547" lon="1.24873">
        <ele>670</ele>
        <time>2019-08-08T13:44:33.000Z</time>
      </trkpt>
      <trkpt lat="42.81542" lon="1.24878">
        <ele>671</ele>
        <time>2019-08-08T13:44:34.000Z</time>
      </trkpt>
      <trkpt lat="42.81536" lon="1.24883">
        <ele>671</ele>
        <time>2019-08-08T13:44:35.000Z</time>
      </trkpt>
      <trkpt lat="42.81531" lon="1.24889">
        <ele>671</ele>
        <time>2019-08-08T13:44:36.000Z</time>
      </trkpt>
      <trkpt lat="42.81526" lon="1.24894">
        <ele>671</ele>
        <time>2019-08-08T13:44:37.000Z</time>
      </trkpt>
      <trkpt lat="42.81521" lon="1.249">
        <ele>671</ele>
        <time>2019-08-08T13:44:38.000Z</time>
      </trkpt>
      <trkpt lat="42.81517" lon="1.24906">
        <ele>671</ele>
        <time>2019-08-08T13:44:39.000Z</time>
      </trkpt>
      <trkpt lat="42.81512" lon="1.24912">
        <ele>671</ele>
        <time>2019-08-08T13:44:40.000Z</time>
      </trkpt>
      <trkpt lat="42.81508" lon="1.24919">
        <ele>671</ele>
        <time>2019-08-08T13:44:41.000Z</time>
      </trkpt>
      <trkpt lat="42.81505" lon="1.24926">
        <ele>671</ele>
        <time>2019-08-08T13:44:42.000Z</time>
      </trkpt>
      <trkpt lat="42.81502" lon="1.24934">
        <ele>671</ele>
        <time>2019-08-08T13:44:43.000Z</time>
      </trkpt>
      <trkpt lat="42.81499" lon="1.24941">
        <ele>671</ele>
        <time>2019-08-08T13:44:44.000Z</time>
      </trkpt>
      <trkpt lat="42.81497" lon="1.24949">
        <ele>672</ele>
        <time>2019-08-08T13:44:45.000Z</time>
      </trkpt>
      <trkpt lat="42.81495" lon="1.24957">
        <ele>672</ele>
        <time>2019-08-08T13:44:46.000Z</time>
      </trkpt>
      <trkpt lat="42.81494" lon="1.24965">
        <ele>672</ele>
        <time>2019-08-08T13:44:47.000Z</time>
      </trkpt>
      <trkpt lat="42.81493" lon="1.24978">
        <ele>672</ele>
        <time>2019-08-08T13:44:48.000Z</time>
      </trkpt>
      <trkpt lat="42.81493" lon="1.24982">
        <ele>672</ele>
        <time>2019-08-08T13:44:49.000Z</time>
      </trkpt>
      <trkpt lat="42.81493" lon="1.2499">
        <ele>672</ele>
        <time>2019-08-08T13:44:50.000Z</time>
      </trkpt>
      <trkpt lat="42.81493" lon="1.24999">
        <ele>672</ele>
        <time>2019-08-08T13:44:51.000Z</time>
      </trkpt>
      <trkpt lat="42.81493" lon="1.25007">
        <ele>673</ele>
        <time>2019-08-08T13:44:52.000Z</time>
      </trkpt>
      <trkpt lat="42.81493" lon="1.25019">
        <ele>673</ele>
        <time>2019-08-08T13:44:53.000Z</time>
      </trkpt>
      <trkpt lat="42.81494" lon="1.25024">
        <ele>673</ele>
        <time>2019-08-08T13:44:54.000Z</time>
      </trkpt>
      <trkpt lat="42.81494" lon="1.25032">
        <ele>673</ele>
        <time>2019-08-08T13:44:55.000Z</time>
      </trkpt>
      <trkpt lat="42.81494" lon="1.2504">
        <ele>673</ele>
        <time>2019-08-08T13:44:56.000Z</time>
      </trkpt>
      <trkpt lat="42.81493" lon="1.25049">
        <ele>673</ele>
        <time>2019-08-08T13:44:57.000Z</time>
      </trkpt>
      <trkpt lat="42.81493" lon="1.25057">
        <ele>673</ele>
        <time>2019-08-08T13:44:58.000Z</time>
      </trkpt>
      <trkpt lat="42.81492" lon="1.25066">
        <ele>673</ele>
        <time>2019-08-08T13:44:59.000Z</time>
      </trkpt>
      <trkpt lat="42.81491" lon="1.25074">
        <ele>673</ele>
        <time>2019-08-08T13:45:00.000Z</time>
      </trkpt>
      <trkpt lat="42.8149" lon="1.25082">
        <ele>673</ele>
        <time>2019-08-08T13:45:01.000Z</time>
      </trkpt>
      <trkpt lat="42.81489" lon="1.25091">
        <ele>674</ele>
        <time>2019-08-08T13:45:02.000Z</time>
      </trkpt>
      <trkpt lat="42.81487" lon="1.25099">
        <ele>674</ele>
        <time>2019-08-08T13:45:03.000Z</time>
      </trkpt>
      <trkpt lat="42.81485" lon="1.25112">
        <ele>674</ele>
        <time>2019-08-08T13:45:04.000Z</time>
      </trkpt>
      <trkpt lat="42.81484" lon="1.25116">
        <ele>674</ele>
        <time>2019-08-08T13:45:05.000Z</time>
      </trkpt>
      <trkpt lat="42.81482" lon="1.25124">
        <ele>675</ele>
        <time>2019-08-08T13:45:06.000Z</time>
      </trkpt>
      <trkpt lat="42.81479" lon="1.25132">
        <ele>675</ele>
        <time>2019-08-08T13:45:07.000Z</time>
      </trkpt>
      <trkpt lat="42.81476" lon="1.25139">
        <ele>675</ele>
        <time>2019-08-08T13:45:08.000Z</time>
      </trkpt>
      <trkpt lat="42.81472" lon="1.25146">
        <ele>675</ele>
        <time>2019-08-08T13:45:09.000Z</time>
      </trkpt>
      <trkpt lat="42.81468" lon="1.25153">
        <ele>675</ele>
        <time>2019-08-08T13:45:10.000Z</time>
      </trkpt>
      <trkpt lat="42.81464" lon="1.25159">
        <ele>675</ele>
        <time>2019-08-08T13:45:11.000Z</time>
      </trkpt>
      <trkpt lat="42.8146" lon="1.25165">
        <ele>675</ele>
        <time>2019-08-08T13:45:12.000Z</time>
      </trkpt>
      <trkpt lat="42.81456" lon="1.25171">
        <ele>675</ele>
        <time>2019-08-08T13:45:13.000Z</time>
      </trkpt>
      <trkpt lat="42.81451" lon="1.25176">
        <ele>675</ele>
        <time>2019-08-08T13:45:14.000Z</time>
      </trkpt>
      <trkpt lat="42.81446" lon="1.25182">
        <ele>675</ele>
        <time>2019-08-08T13:45:15.000Z</time>
      </trkpt>
      <trkpt lat="42.81441" lon="1.25187">
        <ele>675</ele>
        <time>2019-08-08T13:45:16.000Z</time>
      </trkpt>
      <trkpt lat="42.81436" lon="1.25192">
        <ele>675</ele>
        <time>2019-08-08T13:45:17.000Z</time>
      </trkpt>
      <trkpt lat="42.81431" lon="1.25198">
        <ele>675</ele>
        <time>2019-08-08T13:45:18.000Z</time>
      </trkpt>
      <trkpt lat="42.81426" lon="1.25203">
        <ele>675</ele>
        <time>2019-08-08T13:45:19.000Z</time>
      </trkpt>
      <trkpt lat="42.81421" lon="1.25209">
        <ele>675</ele>
        <time>2019-08-08T13:45:20.000Z</time>
      </trkpt>
      <trkpt lat="42.81413" lon="1.25216">
        <ele>675</ele>
        <time>2019-08-08T13:45:21.000Z</time>
      </trkpt>
      <trkpt lat="42.81411" lon="1.25219">
        <ele>675</ele>
        <time>2019-08-08T13:45:22.000Z</time>
      </trkpt>
      <trkpt lat="42.81406" lon="1.25224">
        <ele>675</ele>
        <time>2019-08-08T13:45:23.000Z</time>
      </trkpt>
      <trkpt lat="42.814" lon="1.2523">
        <ele>676</ele>
        <time>2019-08-08T13:45:24.000Z</time>
      </trkpt>
      <trkpt lat="42.81395" lon="1.25236">
        <ele>676</ele>
        <time>2019-08-08T13:45:25.000Z</time>
      </trkpt>
      <trkpt lat="42.8139" lon="1.25241">
        <ele>677</ele>
        <time>2019-08-08T13:45:26.000Z</time>
      </trkpt>
      <trkpt lat="42.81384" lon="1.25247">
        <ele>677</ele>
        <time>2019-08-08T13:45:27.000Z</time>
      </trkpt>
      <trkpt lat="42.81379" lon="1.25254">
        <ele>677</ele>
        <time>2019-08-08T13:45:28.000Z</time>
      </trkpt>
      <trkpt lat="42.81374" lon="1.25262">
        <ele>677</ele>
        <time>2019-08-08T13:45:29.000Z</time>
      </trkpt>
      <trkpt lat="42.81369" lon="1.25269">
        <ele>677</ele>
        <time>2019-08-08T13:45:30.000Z</time>
      </trkpt>
      <trkpt lat="42.81364" lon="1.25276">
        <ele>677</ele>
        <time>2019-08-08T13:45:31.000Z</time>
      </trkpt>
      <trkpt lat="42.81359" lon="1.25282">
        <ele>677</ele>
        <time>2019-08-08T13:45:32.000Z</time>
      </trkpt>
      <trkpt lat="42.81353" lon="1.25287">
        <ele>677</ele>
        <time>2019-08-08T13:45:33.000Z</time>
      </trkpt>
      <trkpt lat="42.81347" lon="1.25291">
        <ele>676</ele>
        <time>2019-08-08T13:45:34.000Z</time>
      </trkpt>
      <trkpt lat="42.81341" lon="1.25295">
        <ele>676</ele>
        <time>2019-08-08T13:45:35.000Z</time>
      </trkpt>
      <trkpt lat="42.81334" lon="1.25298">
        <ele>677</ele>
        <time>2019-08-08T13:45:36.000Z</time>
      </trkpt>
      <trkpt lat="42.81324" lon="1.25302">
        <ele>677</ele>
        <time>2019-08-08T13:45:37.000Z</time>
      </trkpt>
      <trkpt lat="42.81321" lon="1.25303">
        <ele>677</ele>
        <time>2019-08-08T13:45:38.000Z</time>
      </trkpt>
      <trkpt lat="42.81314" lon="1.25306">
        <ele>677</ele>
        <time>2019-08-08T13:45:39.000Z</time>
      </trkpt>
      <trkpt lat="42.81308" lon="1.25308">
        <ele>678</ele>
        <time>2019-08-08T13:45:40.000Z</time>
      </trkpt>
      <trkpt lat="42.81301" lon="1.2531">
        <ele>678</ele>
        <time>2019-08-08T13:45:41.000Z</time>
      </trkpt>
      <trkpt lat="42.81295" lon="1.25312">
        <ele>679</ele>
        <time>2019-08-08T13:45:42.000Z</time>
      </trkpt>
      <trkpt lat="42.81289" lon="1.25315">
        <ele>679</ele>
        <time>2019-08-08T13:45:43.000Z</time>
      </trkpt>
      <trkpt lat="42.81282" lon="1.25318">
        <ele>679</ele>
        <time>2019-08-08T13:45:44.000Z</time>
      </trkpt>
      <trkpt lat="42.81277" lon="1.25322">
        <ele>679</ele>
        <time>2019-08-08T13:45:45.000Z</time>
      </trkpt>
      <trkpt lat="42.81271" lon="1.25325">
        <ele>679</ele>
        <time>2019-08-08T13:45:46.000Z</time>
      </trkpt>
      <trkpt lat="42.81265" lon="1.25329">
        <ele>679</ele>
        <time>2019-08-08T13:45:47.000Z</time>
      </trkpt>
      <trkpt lat="42.81259" lon="1.25334">
        <ele>679</ele>
        <time>2019-08-08T13:45:48.000Z</time>
      </trkpt>
      <trkpt lat="42.81253" lon="1.25339">
        <ele>679</ele>
        <time>2019-08-08T13:45:49.000Z</time>
      </trkpt>
      <trkpt lat="42.81247" lon="1.25344">
        <ele>679</ele>
        <time>2019-08-08T13:45:50.000Z</time>
      </trkpt>
      <trkpt lat="42.81242" lon="1.2535">
        <ele>679</ele>
        <time>2019-08-08T13:45:51.000Z</time>
      </trkpt>
      <trkpt lat="42.81236" lon="1.25356">
        <ele>679</ele>
        <time>2019-08-08T13:45:52.000Z</time>
      </trkpt>
      <trkpt lat="42.8123" lon="1.25361">
        <ele>679</ele>
        <time>2019-08-08T13:45:53.000Z</time>
      </trkpt>
      <trkpt lat="42.81222" lon="1.25369">
        <ele>678</ele>
        <time>2019-08-08T13:45:54.000Z</time>
      </trkpt>
      <trkpt lat="42.81219" lon="1.25372">
        <ele>678</ele>
        <time>2019-08-08T13:45:55.000Z</time>
      </trkpt>
      <trkpt lat="42.8121" lon="1.25381">
        <ele>678</ele>
        <time>2019-08-08T13:45:56.000Z</time>
      </trkpt>
      <trkpt lat="42.81207" lon="1.25384">
        <ele>678</ele>
        <time>2019-08-08T13:45:57.000Z</time>
      </trkpt>
      <trkpt lat="42.81202" lon="1.2539">
        <ele>678</ele>
        <time>2019-08-08T13:45:58.000Z</time>
      </trkpt>
      <trkpt lat="42.81197" lon="1.25397">
        <ele>678</ele>
        <time>2019-08-08T13:45:59.000Z</time>
      </trkpt>
      <trkpt lat="42.81192" lon="1.25404">
        <ele>678</ele>
        <time>2019-08-08T13:46:00.000Z</time>
      </trkpt>
      <trkpt lat="42.81187" lon="1.25411">
        <ele>679</ele>
        <time>2019-08-08T13:46:01.000Z</time>
      </trkpt>
      <trkpt lat="42.81182" lon="1.25418">
        <ele>679</ele>
        <time>2019-08-08T13:46:02.000Z</time>
      </trkpt>
      <trkpt lat="42.81178" lon="1.25425">
        <ele>679</ele>
        <time>2019-08-08T13:46:03.000Z</time>
      </trkpt>
      <trkpt lat="42.81174" lon="1.25433">
        <ele>679</ele>
        <time>2019-08-08T13:46:04.000Z</time>
      </trkpt>
      <trkpt lat="42.81169" lon="1.2544">
        <ele>679</ele>
        <time>2019-08-08T13:46:05.000Z</time>
      </trkpt>
      <trkpt lat="42.81165" lon="1.25447">
        <ele>679</ele>
        <time>2019-08-08T13:46:06.000Z</time>
      </trkpt>
      <trkpt lat="42.81161" lon="1.25454">
        <ele>679</ele>
        <time>2019-08-08T13:46:07.000Z</time>
      </trkpt>
      <trkpt lat="42.81157" lon="1.25462">
        <ele>679</ele>
        <time>2019-08-08T13:46:08.000Z</time>
      </trkpt>
      <trkpt lat="42.81153" lon="1.25469">
        <ele>680</ele>
        <time>2019-08-08T13:46:09.000Z</time>
      </trkpt>
      <trkpt lat="42.81147" lon="1.25479">
        <ele>680</ele>
        <time>2019-08-08T13:46:10.000Z</time>
      </trkpt>
      <trkpt lat="42.81145" lon="1.25482">
        <ele>680</ele>
        <time>2019-08-08T13:46:11.000Z</time>
      </trkpt>
      <trkpt lat="42.81142" lon="1.25489">
        <ele>680</ele>
        <time>2019-08-08T13:46:12.000Z</time>
      </trkpt>
      <trkpt lat="42.81138" lon="1.25497">
        <ele>680</ele>
        <time>2019-08-08T13:46:13.000Z</time>
      </trkpt>
      <trkpt lat="42.81134" lon="1.25504">
        <ele>680</ele>
        <time>2019-08-08T13:46:14.000Z</time>
      </trkpt>
      <trkpt lat="42.8113" lon="1.25511">
        <ele>680</ele>
        <time>2019-08-08T13:46:15.000Z</time>
      </trkpt>
      <trkpt lat="42.81126" lon="1.25518">
        <ele>680</ele>
        <time>2019-08-08T13:46:16.000Z</time>
      </trkpt>
      <trkpt lat="42.81122" lon="1.25526">
        <ele>680</ele>
        <time>2019-08-08T13:46:17.000Z</time>
      </trkpt>
      <trkpt lat="42.81119" lon="1.25533">
        <ele>680</ele>
        <time>2019-08-08T13:46:18.000Z</time>
      </trkpt>
      <trkpt lat="42.81113" lon="1.25545">
        <ele>680</ele>
        <time>2019-08-08T13:46:19.000Z</time>
      </trkpt>
      <trkpt lat="42.81111" lon="1.25548">
        <ele>680</ele>
        <time>2019-08-08T13:46:20.000Z</time>
      </trkpt>
      <trkpt lat="42.81107" lon="1.25555">
        <ele>680</ele>
        <time>2019-08-08T13:46:21.000Z</time>
      </trkpt>
      <trkpt lat="42.81103" lon="1.25562">
        <ele>680</ele>
        <time>2019-08-08T13:46:22.000Z</time>
      </trkpt>
      <trkpt lat="42.81098" lon="1.25569">
        <ele>680</ele>
        <time>2019-08-08T13:46:23.000Z</time>
      </trkpt>
      <trkpt lat="42.81094" lon="1.25576">
        <ele>680</ele>
        <time>2019-08-08T13:46:24.000Z</time>
      </trkpt>
      <trkpt lat="42.8109" lon="1.25584">
        <ele>680</ele>
        <time>2019-08-08T13:46:25.000Z</time>
      </trkpt>
      <trkpt lat="42.81086" lon="1.25591">
        <ele>680</ele>
        <time>2019-08-08T13:46:26.000Z</time>
      </trkpt>
      <trkpt lat="42.81083" lon="1.25598">
        <ele>681</ele>
        <time>2019-08-08T13:46:27.000Z</time>
      </trkpt>
      <trkpt lat="42.81077" lon="1.25609">
        <ele>681</ele>
        <time>2019-08-08T13:46:28.000Z</time>
      </trkpt>
      <trkpt lat="42.81075" lon="1.25612">
        <ele>681</ele>
        <time>2019-08-08T13:46:29.000Z</time>
      </trkpt>
      <trkpt lat="42.81071" lon="1.25619">
        <ele>681</ele>
        <time>2019-08-08T13:46:30.000Z</time>
      </trkpt>
      <trkpt lat="42.81068" lon="1.25626">
        <ele>681</ele>
        <time>2019-08-08T13:46:31.000Z</time>
      </trkpt>
      <trkpt lat="42.81064" lon="1.25633">
        <ele>681</ele>
        <time>2019-08-08T13:46:32.000Z</time>
      </trkpt>
      <trkpt lat="42.8106" lon="1.2564">
        <ele>681</ele>
        <time>2019-08-08T13:46:33.000Z</time>
      </trkpt>
      <trkpt lat="42.81055" lon="1.2565">
        <ele>681</ele>
        <time>2019-08-08T13:46:34.000Z</time>
      </trkpt>
      <trkpt lat="42.81053" lon="1.25653">
        <ele>681</ele>
        <time>2019-08-08T13:46:35.000Z</time>
      </trkpt>
      <trkpt lat="42.81049" lon="1.2566">
        <ele>681</ele>
        <time>2019-08-08T13:46:36.000Z</time>
      </trkpt>
      <trkpt lat="42.81046" lon="1.25666">
        <ele>682</ele>
        <time>2019-08-08T13:46:37.000Z</time>
      </trkpt>
      <trkpt lat="42.81042" lon="1.25673">
        <ele>682</ele>
        <time>2019-08-08T13:46:38.000Z</time>
      </trkpt>
      <trkpt lat="42.81039" lon="1.2568">
        <ele>682</ele>
        <time>2019-08-08T13:46:39.000Z</time>
      </trkpt>
      <trkpt lat="42.81036" lon="1.25687">
        <ele>682</ele>
        <time>2019-08-08T13:46:40.000Z</time>
      </trkpt>
      <trkpt lat="42.81032" lon="1.25693">
        <ele>683</ele>
        <time>2019-08-08T13:46:41.000Z</time>
      </trkpt>
      <trkpt lat="42.81029" lon="1.257">
        <ele>683</ele>
        <time>2019-08-08T13:46:42.000Z</time>
      </trkpt>
      <trkpt lat="42.81025" lon="1.25707">
        <ele>683</ele>
        <time>2019-08-08T13:46:43.000Z</time>
      </trkpt>
      <trkpt lat="42.81022" lon="1.25713">
        <ele>683</ele>
        <time>2019-08-08T13:46:44.000Z</time>
      </trkpt>
      <trkpt lat="42.81019" lon="1.2572">
        <ele>683</ele>
        <time>2019-08-08T13:46:45.000Z</time>
      </trkpt>
      <trkpt lat="42.81016" lon="1.25728">
        <ele>683</ele>
        <time>2019-08-08T13:46:46.000Z</time>
      </trkpt>
      <trkpt lat="42.81013" lon="1.25735">
        <ele>683</ele>
        <time>2019-08-08T13:46:47.000Z</time>
      </trkpt>
      <trkpt lat="42.8101" lon="1.25741">
        <ele>683</ele>
        <time>2019-08-08T13:46:48.000Z</time>
      </trkpt>
      <trkpt lat="42.81006" lon="1.25748">
        <ele>683</ele>
        <time>2019-08-08T13:46:49.000Z</time>
      </trkpt>
      <trkpt lat="42.81003" lon="1.25755">
        <ele>683</ele>
        <time>2019-08-08T13:46:50.000Z</time>
      </trkpt>
      <trkpt lat="42.80999" lon="1.25761">
        <ele>683</ele>
        <time>2019-08-08T13:46:51.000Z</time>
      </trkpt>
      <trkpt lat="42.80995" lon="1.25766">
        <ele>684</ele>
        <time>2019-08-08T13:46:52.000Z</time>
      </trkpt>
      <trkpt lat="42.8099" lon="1.2577">
        <ele>684</ele>
        <time>2019-08-08T13:46:53.000Z</time>
      </trkpt>
      <trkpt lat="42.80984" lon="1.25774">
        <ele>684</ele>
        <time>2019-08-08T13:46:54.000Z</time>
      </trkpt>
      <trkpt lat="42.80978" lon="1.25778">
        <ele>684</ele>
        <time>2019-08-08T13:46:55.000Z</time>
      </trkpt>
      <trkpt lat="42.80972" lon="1.25782">
        <ele>684</ele>
        <time>2019-08-08T13:46:56.000Z</time>
      </trkpt>
      <trkpt lat="42.80966" lon="1.25786">
        <ele>684</ele>
        <time>2019-08-08T13:46:57.000Z</time>
      </trkpt>
      <trkpt lat="42.80961" lon="1.2579">
        <ele>684</ele>
        <time>2019-08-08T13:46:58.000Z</time>
      </trkpt>
      <trkpt lat="42.80955" lon="1.25795">
        <ele>684</ele>
        <time>2019-08-08T13:46:59.000Z</time>
      </trkpt>
      <trkpt lat="42.80947" lon="1.25802">
        <ele>685</ele>
        <time>2019-08-08T13:47:00.000Z</time>
      </trkpt>
      <trkpt lat="42.80945" lon="1.25804">
        <ele>685</ele>
        <time>2019-08-08T13:47:01.000Z</time>
      </trkpt>
      <trkpt lat="42.80939" lon="1.25809">
        <ele>685</ele>
        <time>2019-08-08T13:47:02.000Z</time>
      </trkpt>
      <trkpt lat="42.80934" lon="1.25813">
        <ele>685</ele>
        <time>2019-08-08T13:47:03.000Z</time>
      </trkpt>
      <trkpt lat="42.80928" lon="1.25818">
        <ele>684</ele>
        <time>2019-08-08T13:47:04.000Z</time>
      </trkpt>
      <trkpt lat="42.80922" lon="1.25822">
        <ele>684</ele>
        <time>2019-08-08T13:47:05.000Z</time>
      </trkpt>
      <trkpt lat="42.80917" lon="1.25826">
        <ele>685</ele>
        <time>2019-08-08T13:47:06.000Z</time>
      </trkpt>
      <trkpt lat="42.80911" lon="1.2583">
        <ele>685</ele>
        <time>2019-08-08T13:47:07.000Z</time>
      </trkpt>
      <trkpt lat="42.80906" lon="1.25835">
        <ele>685</ele>
        <time>2019-08-08T13:47:08.000Z</time>
      </trkpt>
      <trkpt lat="42.80901" lon="1.2584">
        <ele>685</ele>
        <time>2019-08-08T13:47:09.000Z</time>
      </trkpt>
      <trkpt lat="42.80896" lon="1.25846">
        <ele>684</ele>
        <time>2019-08-08T13:47:10.000Z</time>
      </trkpt>
      <trkpt lat="42.80891" lon="1.25852">
        <ele>684</ele>
        <time>2019-08-08T13:47:11.000Z</time>
      </trkpt>
      <trkpt lat="42.80886" lon="1.25857">
        <ele>684</ele>
        <time>2019-08-08T13:47:12.000Z</time>
      </trkpt>
      <trkpt lat="42.80881" lon="1.25863">
        <ele>685</ele>
        <time>2019-08-08T13:47:13.000Z</time>
      </trkpt>
      <trkpt lat="42.80875" lon="1.25869">
        <ele>685</ele>
        <time>2019-08-08T13:47:14.000Z</time>
      </trkpt>
      <trkpt lat="42.8087" lon="1.25875">
        <ele>685</ele>
        <time>2019-08-08T13:47:15.000Z</time>
      </trkpt>
      <trkpt lat="42.80862" lon="1.25885">
        <ele>685</ele>
        <time>2019-08-08T13:47:16.000Z</time>
      </trkpt>
      <trkpt lat="42.80859" lon="1.25887">
        <ele>685</ele>
        <time>2019-08-08T13:47:17.000Z</time>
      </trkpt>
      <trkpt lat="42.80854" lon="1.25893">
        <ele>685</ele>
        <time>2019-08-08T13:47:18.000Z</time>
      </trkpt>
      <trkpt lat="42.80848" lon="1.25899">
        <ele>684</ele>
        <time>2019-08-08T13:47:19.000Z</time>
      </trkpt>
      <trkpt lat="42.80843" lon="1.25904">
        <ele>684</ele>
        <time>2019-08-08T13:47:20.000Z</time>
      </trkpt>
      <trkpt lat="42.80838" lon="1.2591">
        <ele>684</ele>
        <time>2019-08-08T13:47:21.000Z</time>
      </trkpt>
      <trkpt lat="42.80832" lon="1.25916">
        <ele>684</ele>
        <time>2019-08-08T13:47:22.000Z</time>
      </trkpt>
      <trkpt lat="42.80827" lon="1.25922">
        <ele>684</ele>
        <time>2019-08-08T13:47:23.000Z</time>
      </trkpt>
      <trkpt lat="42.8082" lon="1.25932">
        <ele>684</ele>
        <time>2019-08-08T13:47:24.000Z</time>
      </trkpt>
      <trkpt lat="42.80818" lon="1.25935">
        <ele>684</ele>
        <time>2019-08-08T13:47:25.000Z</time>
      </trkpt>
      <trkpt lat="42.80814" lon="1.25942">
        <ele>685</ele>
        <time>2019-08-08T13:47:26.000Z</time>
      </trkpt>
      <trkpt lat="42.8081" lon="1.25948">
        <ele>685</ele>
        <time>2019-08-08T13:47:27.000Z</time>
      </trkpt>
      <trkpt lat="42.80806" lon="1.25955">
        <ele>686</ele>
        <time>2019-08-08T13:47:28.000Z</time>
      </trkpt>
      <trkpt lat="42.80803" lon="1.25961">
        <ele>686</ele>
        <time>2019-08-08T13:47:29.000Z</time>
      </trkpt>
      <trkpt lat="42.80801" lon="1.25967">
        <ele>687</ele>
        <time>2019-08-08T13:47:30.000Z</time>
      </trkpt>
      <trkpt lat="42.80798" lon="1.25973">
        <ele>687</ele>
        <time>2019-08-08T13:47:31.000Z</time>
      </trkpt>
      <trkpt lat="42.80795" lon="1.2598">
        <ele>687</ele>
        <time>2019-08-08T13:47:32.000Z</time>
      </trkpt>
      <trkpt lat="42.80792" lon="1.25986">
        <ele>687</ele>
        <time>2019-08-08T13:47:33.000Z</time>
      </trkpt>
      <trkpt lat="42.80788" lon="1.25995">
        <ele>688</ele>
        <time>2019-08-08T13:47:34.000Z</time>
      </trkpt>
      <trkpt lat="42.80787" lon="1.25998">
        <ele>688</ele>
        <time>2019-08-08T13:47:35.000Z</time>
      </trkpt>
      <trkpt lat="42.80784" lon="1.26004">
        <ele>689</ele>
        <time>2019-08-08T13:47:36.000Z</time>
      </trkpt>
      <trkpt lat="42.80782" lon="1.26009">
        <ele>689</ele>
        <time>2019-08-08T13:47:37.000Z</time>
      </trkpt>
      <trkpt lat="42.80779" lon="1.26015">
        <ele>689</ele>
        <time>2019-08-08T13:47:38.000Z</time>
      </trkpt>
      <trkpt lat="42.80777" lon="1.2602">
        <ele>689</ele>
        <time>2019-08-08T13:47:39.000Z</time>
      </trkpt>
      <trkpt lat="42.80775" lon="1.26025">
        <ele>690</ele>
        <time>2019-08-08T13:47:40.000Z</time>
      </trkpt>
      <trkpt lat="42.80772" lon="1.2603">
        <ele>690</ele>
        <time>2019-08-08T13:47:41.000Z</time>
      </trkpt>
      <trkpt lat="42.8077" lon="1.26035">
        <ele>690</ele>
        <time>2019-08-08T13:47:42.000Z</time>
      </trkpt>
      <trkpt lat="42.80767" lon="1.26039">
        <ele>690</ele>
        <time>2019-08-08T13:47:43.000Z</time>
      </trkpt>
      <trkpt lat="42.80764" lon="1.26043">
        <ele>692</ele>
        <time>2019-08-08T13:47:44.000Z</time>
      </trkpt>
      <trkpt lat="42.80762" lon="1.26048">
        <ele>692</ele>
        <time>2019-08-08T13:47:45.000Z</time>
      </trkpt>
      <trkpt lat="42.80759" lon="1.26052">
        <ele>692</ele>
        <time>2019-08-08T13:47:46.000Z</time>
      </trkpt>
      <trkpt lat="42.80757" lon="1.26057">
        <ele>692</ele>
        <time>2019-08-08T13:47:47.000Z</time>
      </trkpt>
      <trkpt lat="42.80755" lon="1.26061">
        <ele>693</ele>
        <time>2019-08-08T13:47:48.000Z</time>
      </trkpt>
      <trkpt lat="42.80753" lon="1.26065">
        <ele>693</ele>
        <time>2019-08-08T13:47:49.000Z</time>
      </trkpt>
      <trkpt lat="42.80749" lon="1.26071">
        <ele>693</ele>
        <time>2019-08-08T13:47:50.000Z</time>
      </trkpt>
      <trkpt lat="42.80748" lon="1.26073">
        <ele>693</ele>
        <time>2019-08-08T13:47:51.000Z</time>
      </trkpt>
      <trkpt lat="42.80745" lon="1.26076">
        <ele>693</ele>
        <time>2019-08-08T13:47:52.000Z</time>
      </trkpt>
      <trkpt lat="42.80743" lon="1.2608">
        <ele>693</ele>
        <time>2019-08-08T13:47:53.000Z</time>
      </trkpt>
      <trkpt lat="42.80741" lon="1.26084">
        <ele>693</ele>
        <time>2019-08-08T13:47:54.000Z</time>
      </trkpt>
      <trkpt lat="42.80738" lon="1.26088">
        <ele>694</ele>
        <time>2019-08-08T13:47:55.000Z</time>
      </trkpt>
      <trkpt lat="42.80736" lon="1.26093">
        <ele>694</ele>
        <time>2019-08-08T13:47:56.000Z</time>
      </trkpt>
      <trkpt lat="42.80734" lon="1.26098">
        <ele>695</ele>
        <time>2019-08-08T13:47:57.000Z</time>
      </trkpt>
      <trkpt lat="42.80731" lon="1.26102">
        <ele>695</ele>
        <time>2019-08-08T13:47:58.000Z</time>
      </trkpt>
      <trkpt lat="42.80729" lon="1.26107">
        <ele>695</ele>
        <time>2019-08-08T13:47:59.000Z</time>
      </trkpt>
      <trkpt lat="42.80725" lon="1.26114">
        <ele>695</ele>
        <time>2019-08-08T13:48:00.000Z</time>
      </trkpt>
      <trkpt lat="42.80724" lon="1.26116">
        <ele>696</ele>
        <time>2019-08-08T13:48:01.000Z</time>
      </trkpt>
      <trkpt lat="42.80721" lon="1.2612">
        <ele>696</ele>
        <time>2019-08-08T13:48:02.000Z</time>
      </trkpt>
      <trkpt lat="42.80719" lon="1.26125">
        <ele>696</ele>
        <time>2019-08-08T13:48:03.000Z</time>
      </trkpt>
      <trkpt lat="42.80716" lon="1.2613">
        <ele>696</ele>
        <time>2019-08-08T13:48:04.000Z</time>
      </trkpt>
      <trkpt lat="42.80714" lon="1.26134">
        <ele>696</ele>
        <time>2019-08-08T13:48:05.000Z</time>
      </trkpt>
      <trkpt lat="42.80711" lon="1.26138">
        <ele>696</ele>
        <time>2019-08-08T13:48:06.000Z</time>
      </trkpt>
      <trkpt lat="42.80708" lon="1.26145">
        <ele>696</ele>
        <time>2019-08-08T13:48:07.000Z</time>
      </trkpt>
      <trkpt lat="42.80707" lon="1.26147">
        <ele>696</ele>
        <time>2019-08-08T13:48:08.000Z</time>
      </trkpt>
      <trkpt lat="42.80704" lon="1.26152">
        <ele>696</ele>
        <time>2019-08-08T13:48:09.000Z</time>
      </trkpt>
      <trkpt lat="42.80702" lon="1.26156">
        <ele>698</ele>
        <time>2019-08-08T13:48:10.000Z</time>
      </trkpt>
      <trkpt lat="42.80699" lon="1.26161">
        <ele>698</ele>
        <time>2019-08-08T13:48:11.000Z</time>
      </trkpt>
      <trkpt lat="42.80697" lon="1.26166">
        <ele>698</ele>
        <time>2019-08-08T13:48:12.000Z</time>
      </trkpt>
      <trkpt lat="42.80695" lon="1.2617">
        <ele>698</ele>
        <time>2019-08-08T13:48:13.000Z</time>
      </trkpt>
      <trkpt lat="42.80692" lon="1.26175">
        <ele>698</ele>
        <time>2019-08-08T13:48:14.000Z</time>
      </trkpt>
      <trkpt lat="42.8069" lon="1.26179">
        <ele>698</ele>
        <time>2019-08-08T13:48:15.000Z</time>
      </trkpt>
      <trkpt lat="42.80688" lon="1.26184">
        <ele>699</ele>
        <time>2019-08-08T13:48:16.000Z</time>
      </trkpt>
      <trkpt lat="42.80686" lon="1.26189">
        <ele>699</ele>
        <time>2019-08-08T13:48:17.000Z</time>
      </trkpt>
      <trkpt lat="42.80683" lon="1.26193">
        <ele>700</ele>
        <time>2019-08-08T13:48:18.000Z</time>
      </trkpt>
      <trkpt lat="42.80681" lon="1.26198">
        <ele>700</ele>
        <time>2019-08-08T13:48:19.000Z</time>
      </trkpt>
      <trkpt lat="42.80679" lon="1.26203">
        <ele>700</ele>
        <time>2019-08-08T13:48:20.000Z</time>
      </trkpt>
      <trkpt lat="42.80676" lon="1.26207">
        <ele>700</ele>
        <time>2019-08-08T13:48:21.000Z</time>
      </trkpt>
      <trkpt lat="42.80674" lon="1.26211">
        <ele>700</ele>
        <time>2019-08-08T13:48:22.000Z</time>
      </trkpt>
      <trkpt lat="42.80671" lon="1.26215">
        <ele>700</ele>
        <time>2019-08-08T13:48:23.000Z</time>
      </trkpt>
      <trkpt lat="42.80669" lon="1.26219">
        <ele>701</ele>
        <time>2019-08-08T13:48:24.000Z</time>
      </trkpt>
      <trkpt lat="42.80666" lon="1.26223">
        <ele>701</ele>
        <time>2019-08-08T13:48:25.000Z</time>
      </trkpt>
      <trkpt lat="42.80664" lon="1.26227">
        <ele>701</ele>
        <time>2019-08-08T13:48:26.000Z</time>
      </trkpt>
      <trkpt lat="42.80661" lon="1.26232">
        <ele>701</ele>
        <time>2019-08-08T13:48:27.000Z</time>
      </trkpt>
      <trkpt lat="42.80658" lon="1.26236">
        <ele>701</ele>
        <time>2019-08-08T13:48:28.000Z</time>
      </trkpt>
      <trkpt lat="42.80654" lon="1.2624">
        <ele>701</ele>
        <time>2019-08-08T13:48:29.000Z</time>
      </trkpt>
      <trkpt lat="42.80651" lon="1.26244">
        <ele>701</ele>
        <time>2019-08-08T13:48:30.000Z</time>
      </trkpt>
      <trkpt lat="42.80647" lon="1.26249">
        <ele>701</ele>
        <time>2019-08-08T13:48:31.000Z</time>
      </trkpt>
      <trkpt lat="42.80644" lon="1.26254">
        <ele>701</ele>
        <time>2019-08-08T13:48:32.000Z</time>
      </trkpt>
      <trkpt lat="42.8064" lon="1.2626">
        <ele>700</ele>
        <time>2019-08-08T13:48:33.000Z</time>
      </trkpt>
      <trkpt lat="42.80636" lon="1.26265">
        <ele>700</ele>
        <time>2019-08-08T13:48:34.000Z</time>
      </trkpt>
      <trkpt lat="42.80633" lon="1.26271">
        <ele>699</ele>
        <time>2019-08-08T13:48:35.000Z</time>
      </trkpt>
      <trkpt lat="42.80629" lon="1.26277">
        <ele>699</ele>
        <time>2019-08-08T13:48:36.000Z</time>
      </trkpt>
      <trkpt lat="42.80625" lon="1.26283">
        <ele>699</ele>
        <time>2019-08-08T13:48:37.000Z</time>
      </trkpt>
      <trkpt lat="42.80621" lon="1.2629">
        <ele>699</ele>
        <time>2019-08-08T13:48:38.000Z</time>
      </trkpt>
      <trkpt lat="42.80617" lon="1.26296">
        <ele>699</ele>
        <time>2019-08-08T13:48:39.000Z</time>
      </trkpt>
      <trkpt lat="42.80612" lon="1.26303">
        <ele>699</ele>
        <time>2019-08-08T13:48:40.000Z</time>
      </trkpt>
      <trkpt lat="42.80608" lon="1.2631">
        <ele>698</ele>
        <time>2019-08-08T13:48:41.000Z</time>
      </trkpt>
      <trkpt lat="42.80604" lon="1.26316">
        <ele>698</ele>
        <time>2019-08-08T13:48:42.000Z</time>
      </trkpt>
      <trkpt lat="42.806" lon="1.26324">
        <ele>698</ele>
        <time>2019-08-08T13:48:43.000Z</time>
      </trkpt>
      <trkpt lat="42.80597" lon="1.26332">
        <ele>698</ele>
        <time>2019-08-08T13:48:44.000Z</time>
      </trkpt>
      <trkpt lat="42.80593" lon="1.2634">
        <ele>698</ele>
        <time>2019-08-08T13:48:45.000Z</time>
      </trkpt>
      <trkpt lat="42.80589" lon="1.26348">
        <ele>698</ele>
        <time>2019-08-08T13:48:46.000Z</time>
      </trkpt>
      <trkpt lat="42.80585" lon="1.26356">
        <ele>698</ele>
        <time>2019-08-08T13:48:47.000Z</time>
      </trkpt>
      <trkpt lat="42.80581" lon="1.26364">
        <ele>697</ele>
        <time>2019-08-08T13:48:48.000Z</time>
      </trkpt>
      <trkpt lat="42.80578" lon="1.26372">
        <ele>697</ele>
        <time>2019-08-08T13:48:49.000Z</time>
      </trkpt>
      <trkpt lat="42.80574" lon="1.26381">
        <ele>696</ele>
        <time>2019-08-08T13:48:50.000Z</time>
      </trkpt>
      <trkpt lat="42.8057" lon="1.26389">
        <ele>696</ele>
        <time>2019-08-08T13:48:51.000Z</time>
      </trkpt>
      <trkpt lat="42.80566" lon="1.26397">
        <ele>696</ele>
        <time>2019-08-08T13:48:52.000Z</time>
      </trkpt>
      <trkpt lat="42.80563" lon="1.26406">
        <ele>696</ele>
        <time>2019-08-08T13:48:53.000Z</time>
      </trkpt>
      <trkpt lat="42.80559" lon="1.26415">
        <ele>696</ele>
        <time>2019-08-08T13:48:54.000Z</time>
      </trkpt>
      <trkpt lat="42.80555" lon="1.26424">
        <ele>696</ele>
        <time>2019-08-08T13:48:55.000Z</time>
      </trkpt>
      <trkpt lat="42.8055" lon="1.26438">
        <ele>695</ele>
        <time>2019-08-08T13:48:56.000Z</time>
      </trkpt>
      <trkpt lat="42.80549" lon="1.26443">
        <ele>695</ele>
        <time>2019-08-08T13:48:57.000Z</time>
      </trkpt>
      <trkpt lat="42.80546" lon="1.26453">
        <ele>694</ele>
        <time>2019-08-08T13:48:58.000Z</time>
      </trkpt>
      <trkpt lat="42.80543" lon="1.26462">
        <ele>694</ele>
        <time>2019-08-08T13:48:59.000Z</time>
      </trkpt>
      <trkpt lat="42.80539" lon="1.26477">
        <ele>694</ele>
        <time>2019-08-08T13:49:00.000Z</time>
      </trkpt>
      <trkpt lat="42.80537" lon="1.26481">
        <ele>693</ele>
        <time>2019-08-08T13:49:01.000Z</time>
      </trkpt>
      <trkpt lat="42.80534" lon="1.2649">
        <ele>693</ele>
        <time>2019-08-08T13:49:02.000Z</time>
      </trkpt>
      <trkpt lat="42.8053" lon="1.26499">
        <ele>693</ele>
        <time>2019-08-08T13:49:03.000Z</time>
      </trkpt>
      <trkpt lat="42.80525" lon="1.26508">
        <ele>693</ele>
        <time>2019-08-08T13:49:04.000Z</time>
      </trkpt>
      <trkpt lat="42.80521" lon="1.26516">
        <ele>693</ele>
        <time>2019-08-08T13:49:05.000Z</time>
      </trkpt>
      <trkpt lat="42.80516" lon="1.26524">
        <ele>693</ele>
        <time>2019-08-08T13:49:06.000Z</time>
      </trkpt>
      <trkpt lat="42.80511" lon="1.26533">
        <ele>692</ele>
        <time>2019-08-08T13:49:07.000Z</time>
      </trkpt>
      <trkpt lat="42.80507" lon="1.26541">
        <ele>692</ele>
        <time>2019-08-08T13:49:08.000Z</time>
      </trkpt>
      <trkpt lat="42.80502" lon="1.26548">
        <ele>692</ele>
        <time>2019-08-08T13:49:09.000Z</time>
      </trkpt>
      <trkpt lat="42.80497" lon="1.26556">
        <ele>692</ele>
        <time>2019-08-08T13:49:10.000Z</time>
      </trkpt>
      <trkpt lat="42.80493" lon="1.26564">
        <ele>693</ele>
        <time>2019-08-08T13:49:11.000Z</time>
      </trkpt>
      <trkpt lat="42.80486" lon="1.26575">
        <ele>693</ele>
        <time>2019-08-08T13:49:12.000Z</time>
      </trkpt>
      <trkpt lat="42.80484" lon="1.26579">
        <ele>693</ele>
        <time>2019-08-08T13:49:13.000Z</time>
      </trkpt>
      <trkpt lat="42.80479" lon="1.26586">
        <ele>693</ele>
        <time>2019-08-08T13:49:14.000Z</time>
      </trkpt>
      <trkpt lat="42.80474" lon="1.26594">
        <ele>693</ele>
        <time>2019-08-08T13:49:15.000Z</time>
      </trkpt>
      <trkpt lat="42.8047" lon="1.26601">
        <ele>692</ele>
        <time>2019-08-08T13:49:16.000Z</time>
      </trkpt>
      <trkpt lat="42.80466" lon="1.26609">
        <ele>692</ele>
        <time>2019-08-08T13:49:17.000Z</time>
      </trkpt>
      <trkpt lat="42.80461" lon="1.26616">
        <ele>692</ele>
        <time>2019-08-08T13:49:18.000Z</time>
      </trkpt>
      <trkpt lat="42.80457" lon="1.26623">
        <ele>692</ele>
        <time>2019-08-08T13:49:19.000Z</time>
      </trkpt>
      <trkpt lat="42.80452" lon="1.26631">
        <ele>692</ele>
        <time>2019-08-08T13:49:20.000Z</time>
      </trkpt>
      <trkpt lat="42.80447" lon="1.26638">
        <ele>692</ele>
        <time>2019-08-08T13:49:21.000Z</time>
      </trkpt>
      <trkpt lat="42.80442" lon="1.26645">
        <ele>692</ele>
        <time>2019-08-08T13:49:22.000Z</time>
      </trkpt>
      <trkpt lat="42.80437" lon="1.26653">
        <ele>691</ele>
        <time>2019-08-08T13:49:23.000Z</time>
      </trkpt>
      <trkpt lat="42.80432" lon="1.26661">
        <ele>691</ele>
        <time>2019-08-08T13:49:24.000Z</time>
      </trkpt>
      <trkpt lat="42.80427" lon="1.26668">
        <ele>690</ele>
        <time>2019-08-08T13:49:25.000Z</time>
      </trkpt>
      <trkpt lat="42.80422" lon="1.26676">
        <ele>690</ele>
        <time>2019-08-08T13:49:26.000Z</time>
      </trkpt>
      <trkpt lat="42.80417" lon="1.26684">
        <ele>690</ele>
        <time>2019-08-08T13:49:27.000Z</time>
      </trkpt>
      <trkpt lat="42.80412" lon="1.26693">
        <ele>690</ele>
        <time>2019-08-08T13:49:28.000Z</time>
      </trkpt>
      <trkpt lat="42.80406" lon="1.26707">
        <ele>690</ele>
        <time>2019-08-08T13:49:29.000Z</time>
      </trkpt>
      <trkpt lat="42.80404" lon="1.26712">
        <ele>691</ele>
        <time>2019-08-08T13:49:30.000Z</time>
      </trkpt>
      <trkpt lat="42.804" lon="1.26721">
        <ele>691</ele>
        <time>2019-08-08T13:49:31.000Z</time>
      </trkpt>
      <trkpt lat="42.80397" lon="1.26732">
        <ele>691</ele>
        <time>2019-08-08T13:49:32.000Z</time>
      </trkpt>
      <trkpt lat="42.80395" lon="1.26743">
        <ele>690</ele>
        <time>2019-08-08T13:49:33.000Z</time>
      </trkpt>
      <trkpt lat="42.80394" lon="1.26754">
        <ele>690</ele>
        <time>2019-08-08T13:49:34.000Z</time>
      </trkpt>
      <trkpt lat="42.80393" lon="1.26765">
        <ele>690</ele>
        <time>2019-08-08T13:49:35.000Z</time>
      </trkpt>
      <trkpt lat="42.80393" lon="1.26775">
        <ele>690</ele>
        <time>2019-08-08T13:49:36.000Z</time>
      </trkpt>
      <trkpt lat="42.80392" lon="1.26786">
        <ele>690</ele>
        <time>2019-08-08T13:49:37.000Z</time>
      </trkpt>
      <trkpt lat="42.80391" lon="1.26796">
        <ele>689</ele>
        <time>2019-08-08T13:49:38.000Z</time>
      </trkpt>
      <trkpt lat="42.80391" lon="1.26807">
        <ele>689</ele>
        <time>2019-08-08T13:49:39.000Z</time>
      </trkpt>
      <trkpt lat="42.8039" lon="1.26817">
        <ele>689</ele>
        <time>2019-08-08T13:49:40.000Z</time>
      </trkpt>
      <trkpt lat="42.8039" lon="1.26827">
        <ele>691</ele>
        <time>2019-08-08T13:49:41.000Z</time>
      </trkpt>
      <trkpt lat="42.8039" lon="1.26837">
        <ele>691</ele>
        <time>2019-08-08T13:49:42.000Z</time>
      </trkpt>
      <trkpt lat="42.80389" lon="1.26847">
        <ele>691</ele>
        <time>2019-08-08T13:49:43.000Z</time>
      </trkpt>
      <trkpt lat="42.80388" lon="1.26856">
        <ele>691</ele>
        <time>2019-08-08T13:49:44.000Z</time>
      </trkpt>
      <trkpt lat="42.80387" lon="1.26866">
        <ele>691</ele>
        <time>2019-08-08T13:49:45.000Z</time>
      </trkpt>
      <trkpt lat="42.80386" lon="1.26881">
        <ele>691</ele>
        <time>2019-08-08T13:49:46.000Z</time>
      </trkpt>
      <trkpt lat="42.80385" lon="1.26886">
        <ele>690</ele>
        <time>2019-08-08T13:49:47.000Z</time>
      </trkpt>
      <trkpt lat="42.80383" lon="1.26896">
        <ele>690</ele>
        <time>2019-08-08T13:49:48.000Z</time>
      </trkpt>
      <trkpt lat="42.8038" lon="1.26906">
        <ele>690</ele>
        <time>2019-08-08T13:49:49.000Z</time>
      </trkpt>
      <trkpt lat="42.80376" lon="1.26916">
        <ele>689</ele>
        <time>2019-08-08T13:49:50.000Z</time>
      </trkpt>
      <trkpt lat="42.80373" lon="1.26925">
        <ele>689</ele>
        <time>2019-08-08T13:49:51.000Z</time>
      </trkpt>
      <trkpt lat="42.80369" lon="1.26935">
        <ele>689</ele>
        <time>2019-08-08T13:49:52.000Z</time>
      </trkpt>
      <trkpt lat="42.80365" lon="1.26944">
        <ele>689</ele>
        <time>2019-08-08T13:49:53.000Z</time>
      </trkpt>
      <trkpt lat="42.80361" lon="1.26953">
        <ele>690</ele>
        <time>2019-08-08T13:49:54.000Z</time>
      </trkpt>
      <trkpt lat="42.80358" lon="1.26961">
        <ele>690</ele>
        <time>2019-08-08T13:49:55.000Z</time>
      </trkpt>
      <trkpt lat="42.80353" lon="1.26974">
        <ele>691</ele>
        <time>2019-08-08T13:49:56.000Z</time>
      </trkpt>
      <trkpt lat="42.80351" lon="1.26978">
        <ele>691</ele>
        <time>2019-08-08T13:49:57.000Z</time>
      </trkpt>
      <trkpt lat="42.80348" lon="1.26986">
        <ele>691</ele>
        <time>2019-08-08T13:49:58.000Z</time>
      </trkpt>
      <trkpt lat="42.80344" lon="1.26994">
        <ele>691</ele>
        <time>2019-08-08T13:49:59.000Z</time>
      </trkpt>
      <trkpt lat="42.80339" lon="1.27006">
        <ele>691</ele>
        <time>2019-08-08T13:50:00.000Z</time>
      </trkpt>
      <trkpt lat="42.80337" lon="1.2701">
        <ele>691</ele>
        <time>2019-08-08T13:50:01.000Z</time>
      </trkpt>
      <trkpt lat="42.80331" lon="1.27021">
        <ele>691</ele>
        <time>2019-08-08T13:50:02.000Z</time>
      </trkpt>
      <trkpt lat="42.80329" lon="1.27025">
        <ele>691</ele>
        <time>2019-08-08T13:50:03.000Z</time>
      </trkpt>
      <trkpt lat="42.80325" lon="1.27032">
        <ele>691</ele>
        <time>2019-08-08T13:50:04.000Z</time>
      </trkpt>
      <trkpt lat="42.8032" lon="1.27037">
        <ele>692</ele>
        <time>2019-08-08T13:50:05.000Z</time>
      </trkpt>
      <trkpt lat="42.80314" lon="1.27042">
        <ele>692</ele>
        <time>2019-08-08T13:50:06.000Z</time>
      </trkpt>
      <trkpt lat="42.80309" lon="1.27047">
        <ele>692</ele>
        <time>2019-08-08T13:50:07.000Z</time>
      </trkpt>
      <trkpt lat="42.80304" lon="1.27052">
        <ele>692</ele>
        <time>2019-08-08T13:50:08.000Z</time>
      </trkpt>
      <trkpt lat="42.80299" lon="1.27057">
        <ele>692</ele>
        <time>2019-08-08T13:50:09.000Z</time>
      </trkpt>
      <trkpt lat="42.80294" lon="1.27062">
        <ele>693</ele>
        <time>2019-08-08T13:50:10.000Z</time>
      </trkpt>
      <trkpt lat="42.80288" lon="1.27067">
        <ele>693</ele>
        <time>2019-08-08T13:50:11.000Z</time>
      </trkpt>
      <trkpt lat="42.80283" lon="1.27072">
        <ele>694</ele>
        <time>2019-08-08T13:50:12.000Z</time>
      </trkpt>
      <trkpt lat="42.80278" lon="1.27078">
        <ele>694</ele>
        <time>2019-08-08T13:50:13.000Z</time>
      </trkpt>
      <trkpt lat="42.80273" lon="1.27083">
        <ele>694</ele>
        <time>2019-08-08T13:50:14.000Z</time>
      </trkpt>
      <trkpt lat="42.80269" lon="1.27089">
        <ele>694</ele>
        <time>2019-08-08T13:50:15.000Z</time>
      </trkpt>
      <trkpt lat="42.80264" lon="1.27096">
        <ele>693</ele>
        <time>2019-08-08T13:50:16.000Z</time>
      </trkpt>
      <trkpt lat="42.80261" lon="1.27104">
        <ele>693</ele>
        <time>2019-08-08T13:50:17.000Z</time>
      </trkpt>
      <trkpt lat="42.80259" lon="1.27111">
        <ele>693</ele>
        <time>2019-08-08T13:50:18.000Z</time>
      </trkpt>
      <trkpt lat="42.80258" lon="1.27124">
        <ele>695</ele>
        <time>2019-08-08T13:50:19.000Z</time>
      </trkpt>
      <trkpt lat="42.80258" lon="1.27127">
        <ele>695</ele>
        <time>2019-08-08T13:50:20.000Z</time>
      </trkpt>
      <trkpt lat="42.80257" lon="1.27135">
        <ele>695</ele>
        <time>2019-08-08T13:50:21.000Z</time>
      </trkpt>
      <trkpt lat="42.80257" lon="1.27143">
        <ele>695</ele>
        <time>2019-08-08T13:50:22.000Z</time>
      </trkpt>
      <trkpt lat="42.80257" lon="1.2715">
        <ele>695</ele>
        <time>2019-08-08T13:50:23.000Z</time>
      </trkpt>
      <trkpt lat="42.80257" lon="1.27157">
        <ele>697</ele>
        <time>2019-08-08T13:50:24.000Z</time>
      </trkpt>
      <trkpt lat="42.80256" lon="1.27163">
        <ele>697</ele>
        <time>2019-08-08T13:50:25.000Z</time>
      </trkpt>
      <trkpt lat="42.80256" lon="1.2717">
        <ele>697</ele>
        <time>2019-08-08T13:50:26.000Z</time>
      </trkpt>
      <trkpt lat="42.80256" lon="1.27176">
        <ele>697</ele>
        <time>2019-08-08T13:50:27.000Z</time>
      </trkpt>
      <trkpt lat="42.80256" lon="1.27182">
        <ele>698</ele>
        <time>2019-08-08T13:50:28.000Z</time>
      </trkpt>
      <trkpt lat="42.80256" lon="1.27188">
        <ele>698</ele>
        <time>2019-08-08T13:50:29.000Z</time>
      </trkpt>
      <trkpt lat="42.80255" lon="1.27194">
        <ele>698</ele>
        <time>2019-08-08T13:50:30.000Z</time>
      </trkpt>
      <trkpt lat="42.80255" lon="1.27199">
        <ele>698</ele>
        <time>2019-08-08T13:50:31.000Z</time>
      </trkpt>
      <trkpt lat="42.80254" lon="1.27205">
        <ele>698</ele>
        <time>2019-08-08T13:50:32.000Z</time>
      </trkpt>
      <trkpt lat="42.80254" lon="1.27211">
        <ele>698</ele>
        <time>2019-08-08T13:50:33.000Z</time>
      </trkpt>
      <trkpt lat="42.80253" lon="1.27216">
        <ele>698</ele>
        <time>2019-08-08T13:50:34.000Z</time>
      </trkpt>
      <trkpt lat="42.80251" lon="1.27224">
        <ele>698</ele>
        <time>2019-08-08T13:50:35.000Z</time>
      </trkpt>
      <trkpt lat="42.8025" lon="1.27227">
        <ele>698.4</ele>
        <time>2019-08-08T13:50:36.000Z</time>
      </trkpt>
      <trkpt lat="42.80249" lon="1.27232">
        <ele>699</ele>
        <time>2019-08-08T13:50:37.000Z</time>
      </trkpt>
      <trkpt lat="42.80247" lon="1.27236">
        <ele>699</ele>
        <time>2019-08-08T13:50:38.000Z</time>
      </trkpt>
      <trkpt lat="42.80246" lon="1.27241">
        <ele>700</ele>
        <time>2019-08-08T13:50:39.000Z</time>
      </trkpt>
      <trkpt lat="42.80244" lon="1.27245">
        <ele>700</ele>
        <time>2019-08-08T13:50:40.000Z</time>
      </trkpt>
      <trkpt lat="42.80242" lon="1.2725">
        <ele>700</ele>
        <time>2019-08-08T13:50:41.000Z</time>
      </trkpt>
      <trkpt lat="42.8024" lon="1.27254">
        <ele>700</ele>
        <time>2019-08-08T13:50:42.000Z</time>
      </trkpt>
      <trkpt lat="42.80238" lon="1.27258">
        <ele>701</ele>
        <time>2019-08-08T13:50:43.000Z</time>
      </trkpt>
      <trkpt lat="42.80236" lon="1.27262">
        <ele>701</ele>
        <time>2019-08-08T13:50:44.000Z</time>
      </trkpt>
      <trkpt lat="42.80233" lon="1.27266">
        <ele>702</ele>
        <time>2019-08-08T13:50:45.000Z</time>
      </trkpt>
      <trkpt lat="42.80231" lon="1.2727">
        <ele>702</ele>
        <time>2019-08-08T13:50:46.000Z</time>
      </trkpt>
      <trkpt lat="42.80229" lon="1.27274">
        <ele>702</ele>
        <time>2019-08-08T13:50:47.000Z</time>
      </trkpt>
      <trkpt lat="42.80227" lon="1.27277">
        <ele>702</ele>
        <time>2019-08-08T13:50:48.000Z</time>
      </trkpt>
      <trkpt lat="42.80225" lon="1.27281">
        <ele>703</ele>
        <time>2019-08-08T13:50:49.000Z</time>
      </trkpt>
      <trkpt lat="42.80223" lon="1.27285">
        <ele>703</ele>
        <time>2019-08-08T13:50:50.000Z</time>
      </trkpt>
      <trkpt lat="42.80221" lon="1.27288">
        <ele>704</ele>
        <time>2019-08-08T13:50:51.000Z</time>
      </trkpt>
      <trkpt lat="42.80219" lon="1.27292">
        <ele>704</ele>
        <time>2019-08-08T13:50:52.000Z</time>
      </trkpt>
      <trkpt lat="42.80218" lon="1.27296">
        <ele>705</ele>
        <time>2019-08-08T13:50:53.000Z</time>
      </trkpt>
      <trkpt lat="42.80216" lon="1.27299">
        <ele>705</ele>
        <time>2019-08-08T13:50:54.000Z</time>
      </trkpt>
      <trkpt lat="42.80214" lon="1.27302">
        <ele>705</ele>
        <time>2019-08-08T13:50:55.000Z</time>
      </trkpt>
      <trkpt lat="42.80212" lon="1.27306">
        <ele>705</ele>
        <time>2019-08-08T13:50:56.000Z</time>
      </trkpt>
      <trkpt lat="42.8021" lon="1.27309">
        <ele>705</ele>
        <time>2019-08-08T13:50:57.000Z</time>
      </trkpt>
      <trkpt lat="42.80208" lon="1.27313">
        <ele>705</ele>
        <time>2019-08-08T13:50:58.000Z</time>
      </trkpt>
      <trkpt lat="42.80206" lon="1.27316">
        <ele>705</ele>
        <time>2019-08-08T13:50:59.000Z</time>
      </trkpt>
      <trkpt lat="42.80205" lon="1.27319">
        <ele>706</ele>
        <time>2019-08-08T13:51:00.000Z</time>
      </trkpt>
      <trkpt lat="42.80203" lon="1.27322">
        <ele>706</ele>
        <time>2019-08-08T13:51:01.000Z</time>
      </trkpt>
      <trkpt lat="42.80201" lon="1.27325">
        <ele>706</ele>
        <time>2019-08-08T13:51:02.000Z</time>
      </trkpt>
      <trkpt lat="42.802" lon="1.27328">
        <ele>706</ele>
        <time>2019-08-08T13:51:03.000Z</time>
      </trkpt>
      <trkpt lat="42.80199" lon="1.27331">
        <ele>707</ele>
        <time>2019-08-08T13:51:04.000Z</time>
      </trkpt>
      <trkpt lat="42.80197" lon="1.27333">
        <ele>707</ele>
        <time>2019-08-08T13:51:05.000Z</time>
      </trkpt>
      <trkpt lat="42.80196" lon="1.27335">
        <ele>708</ele>
        <time>2019-08-08T13:51:06.000Z</time>
      </trkpt>
      <trkpt lat="42.80194" lon="1.27336">
        <ele>708</ele>
        <time>2019-08-08T13:51:07.000Z</time>
      </trkpt>
      <trkpt lat="42.80191" lon="1.27341">
        <ele>708</ele>
        <time>2019-08-08T13:51:08.000Z</time>
      </trkpt>
      <trkpt lat="42.80191" lon="1.27342">
        <ele>708</ele>
        <time>2019-08-08T13:51:09.000Z</time>
      </trkpt>
      <trkpt lat="42.8019" lon="1.27344">
        <ele>709</ele>
        <time>2019-08-08T13:51:10.000Z</time>
      </trkpt>
      <trkpt lat="42.80189" lon="1.27346">
        <ele>709</ele>
        <time>2019-08-08T13:51:11.000Z</time>
      </trkpt>
      <trkpt lat="42.80186" lon="1.27352">
        <ele>710</ele>
        <time>2019-08-08T13:51:12.000Z</time>
      </trkpt>
      <trkpt lat="42.80186" lon="1.27352">
        <ele>710</ele>
        <time>2019-08-08T13:51:13.000Z</time>
      </trkpt>
      <trkpt lat="42.80186" lon="1.27352">
        <ele>711</ele>
        <time>2019-08-08T13:51:14.000Z</time>
      </trkpt>
      <trkpt lat="42.80178" lon="1.27359">
        <ele>711</ele>
        <time>2019-08-08T13:51:15.000Z</time>
      </trkpt>
      <trkpt lat="42.80178" lon="1.27359">
        <ele>711</ele>
        <time>2019-08-08T13:51:16.000Z</time>
      </trkpt>
      <trkpt lat="42.80178" lon="1.27359">
        <ele>711</ele>
        <time>2019-08-08T13:51:17.000Z</time>
      </trkpt>
      <trkpt lat="42.80178" lon="1.27359">
        <ele>712</ele>
        <time>2019-08-08T13:51:18.000Z</time>
      </trkpt>
      <trkpt lat="42.80172" lon="1.2737">
        <ele>711</ele>
        <time>2019-08-08T13:51:19.000Z</time>
      </trkpt>
      <trkpt lat="42.80171" lon="1.27373">
        <ele>711</ele>
        <time>2019-08-08T13:51:20.000Z</time>
      </trkpt>
      <trkpt lat="42.80171" lon="1.27378">
        <ele>711</ele>
        <time>2019-08-08T13:51:21.000Z</time>
      </trkpt>
      <trkpt lat="42.80171" lon="1.27382">
        <ele>712</ele>
        <time>2019-08-08T13:51:22.000Z</time>
      </trkpt>
      <trkpt lat="42.80171" lon="1.27386">
        <ele>712</ele>
        <time>2019-08-08T13:51:23.000Z</time>
      </trkpt>
      <trkpt lat="42.80172" lon="1.2739">
        <ele>712</ele>
        <time>2019-08-08T13:51:24.000Z</time>
      </trkpt>
      <trkpt lat="42.80173" lon="1.27393">
        <ele>712</ele>
        <time>2019-08-08T13:51:25.000Z</time>
      </trkpt>
      <trkpt lat="42.80175" lon="1.27396">
        <ele>712</ele>
        <time>2019-08-08T13:51:26.000Z</time>
      </trkpt>
      <trkpt lat="42.80178" lon="1.27398">
        <ele>713</ele>
        <time>2019-08-08T13:51:27.000Z</time>
      </trkpt>
      <trkpt lat="42.80181" lon="1.27399">
        <ele>713</ele>
        <time>2019-08-08T13:51:28.000Z</time>
      </trkpt>
      <trkpt lat="42.80184" lon="1.27399">
        <ele>714</ele>
        <time>2019-08-08T13:51:29.000Z</time>
      </trkpt>
      <trkpt lat="42.80188" lon="1.27397">
        <ele>714</ele>
        <time>2019-08-08T13:51:30.000Z</time>
      </trkpt>
      <trkpt lat="42.80191" lon="1.27395">
        <ele>714</ele>
        <time>2019-08-08T13:51:31.000Z</time>
      </trkpt>
      <trkpt lat="42.80193" lon="1.27393">
        <ele>715</ele>
        <time>2019-08-08T13:51:32.000Z</time>
      </trkpt>
      <trkpt lat="42.80196" lon="1.2739">
        <ele>715</ele>
        <time>2019-08-08T13:51:33.000Z</time>
      </trkpt>
      <trkpt lat="42.80198" lon="1.27387">
        <ele>715</ele>
        <time>2019-08-08T13:51:34.000Z</time>
      </trkpt>
      <trkpt lat="42.802" lon="1.27384">
        <ele>715</ele>
        <time>2019-08-08T13:51:35.000Z</time>
      </trkpt>
      <trkpt lat="42.80202" lon="1.27381">
        <ele>716</ele>
        <time>2019-08-08T13:51:36.000Z</time>
      </trkpt>
      <trkpt lat="42.80204" lon="1.27378">
        <ele>716</ele>
        <time>2019-08-08T13:51:37.000Z</time>
      </trkpt>
      <trkpt lat="42.80206" lon="1.27375">
        <ele>716</ele>
        <time>2019-08-08T13:51:38.000Z</time>
      </trkpt>
      <trkpt lat="42.80208" lon="1.27373">
        <ele>716</ele>
        <time>2019-08-08T13:51:39.000Z</time>
      </trkpt>
      <trkpt lat="42.8021" lon="1.27371">
        <ele>716</ele>
        <time>2019-08-08T13:51:40.000Z</time>
      </trkpt>
      <trkpt lat="42.80212" lon="1.27368">
        <ele>716</ele>
        <time>2019-08-08T13:51:41.000Z</time>
      </trkpt>
      <trkpt lat="42.80214" lon="1.27365">
        <ele>717</ele>
        <time>2019-08-08T13:51:42.000Z</time>
      </trkpt>
      <trkpt lat="42.80218" lon="1.27362">
        <ele>717</ele>
        <time>2019-08-08T13:51:43.000Z</time>
      </trkpt>
      <trkpt lat="42.80219" lon="1.27361">
        <ele>717</ele>
        <time>2019-08-08T13:51:44.000Z</time>
      </trkpt>
      <trkpt lat="42.80222" lon="1.27359">
        <ele>718</ele>
        <time>2019-08-08T13:51:45.000Z</time>
      </trkpt>
      <trkpt lat="42.80224" lon="1.27358">
        <ele>718</ele>
        <time>2019-08-08T13:51:46.000Z</time>
      </trkpt>
      <trkpt lat="42.80226" lon="1.27356">
        <ele>718</ele>
        <time>2019-08-08T13:51:47.000Z</time>
      </trkpt>
      <trkpt lat="42.80229" lon="1.27354">
        <ele>718</ele>
        <time>2019-08-08T13:51:48.000Z</time>
      </trkpt>
      <trkpt lat="42.80231" lon="1.27352">
        <ele>718</ele>
        <time>2019-08-08T13:51:49.000Z</time>
      </trkpt>
      <trkpt lat="42.80234" lon="1.2735">
        <ele>718</ele>
        <time>2019-08-08T13:51:50.000Z</time>
      </trkpt>
      <trkpt lat="42.80237" lon="1.27348">
        <ele>718</ele>
        <time>2019-08-08T13:51:51.000Z</time>
      </trkpt>
      <trkpt lat="42.80241" lon="1.27345">
        <ele>718</ele>
        <time>2019-08-08T13:51:52.000Z</time>
      </trkpt>
      <trkpt lat="42.80242" lon="1.27344">
        <ele>718</ele>
        <time>2019-08-08T13:51:53.000Z</time>
      </trkpt>
      <trkpt lat="42.80245" lon="1.27343">
        <ele>719</ele>
        <time>2019-08-08T13:51:54.000Z</time>
      </trkpt>
      <trkpt lat="42.80247" lon="1.27341">
        <ele>719</ele>
        <time>2019-08-08T13:51:55.000Z</time>
      </trkpt>
      <trkpt lat="42.8025" lon="1.2734">
        <ele>720</ele>
        <time>2019-08-08T13:51:56.000Z</time>
      </trkpt>
      <trkpt lat="42.80252" lon="1.27338">
        <ele>720</ele>
        <time>2019-08-08T13:51:57.000Z</time>
      </trkpt>
      <trkpt lat="42.80255" lon="1.27336">
        <ele>721</ele>
        <time>2019-08-08T13:51:58.000Z</time>
      </trkpt>
      <trkpt lat="42.80258" lon="1.27334">
        <ele>721</ele>
        <time>2019-08-08T13:51:59.000Z</time>
      </trkpt>
      <trkpt lat="42.8026" lon="1.27332">
        <ele>721</ele>
        <time>2019-08-08T13:52:00.000Z</time>
      </trkpt>
      <trkpt lat="42.80263" lon="1.2733">
        <ele>721</ele>
        <time>2019-08-08T13:52:01.000Z</time>
      </trkpt>
      <trkpt lat="42.80265" lon="1.27328">
        <ele>721</ele>
        <time>2019-08-08T13:52:02.000Z</time>
      </trkpt>
      <trkpt lat="42.80268" lon="1.27326">
        <ele>722</ele>
        <time>2019-08-08T13:52:03.000Z</time>
      </trkpt>
      <trkpt lat="42.80271" lon="1.27324">
        <ele>722</ele>
        <time>2019-08-08T13:52:04.000Z</time>
      </trkpt>
      <trkpt lat="42.80273" lon="1.27323">
        <ele>723</ele>
        <time>2019-08-08T13:52:05.000Z</time>
      </trkpt>
      <trkpt lat="42.80276" lon="1.27321">
        <ele>723</ele>
        <time>2019-08-08T13:52:06.000Z</time>
      </trkpt>
      <trkpt lat="42.80279" lon="1.27319">
        <ele>723</ele>
        <time>2019-08-08T13:52:07.000Z</time>
      </trkpt>
      <trkpt lat="42.80281" lon="1.27318">
        <ele>723</ele>
        <time>2019-08-08T13:52:08.000Z</time>
      </trkpt>
      <trkpt lat="42.80284" lon="1.27316">
        <ele>723</ele>
        <time>2019-08-08T13:52:09.000Z</time>
      </trkpt>
      <trkpt lat="42.80286" lon="1.27314">
        <ele>723</ele>
        <time>2019-08-08T13:52:10.000Z</time>
      </trkpt>
      <trkpt lat="42.80289" lon="1.27312">
        <ele>723</ele>
        <time>2019-08-08T13:52:11.000Z</time>
      </trkpt>
      <trkpt lat="42.80292" lon="1.2731">
        <ele>723</ele>
        <time>2019-08-08T13:52:12.000Z</time>
      </trkpt>
      <trkpt lat="42.80294" lon="1.27308">
        <ele>723</ele>
        <time>2019-08-08T13:52:13.000Z</time>
      </trkpt>
      <trkpt lat="42.80297" lon="1.27306">
        <ele>724</ele>
        <time>2019-08-08T13:52:14.000Z</time>
      </trkpt>
      <trkpt lat="42.803" lon="1.27305">
        <ele>724</ele>
        <time>2019-08-08T13:52:15.000Z</time>
      </trkpt>
      <trkpt lat="42.80304" lon="1.27303">
        <ele>725</ele>
        <time>2019-08-08T13:52:16.000Z</time>
      </trkpt>
      <trkpt lat="42.80305" lon="1.27302">
        <ele>725</ele>
        <time>2019-08-08T13:52:17.000Z</time>
      </trkpt>
      <trkpt lat="42.80308" lon="1.27301">
        <ele>725</ele>
        <time>2019-08-08T13:52:18.000Z</time>
      </trkpt>
      <trkpt lat="42.8031" lon="1.273">
        <ele>726</ele>
        <time>2019-08-08T13:52:19.000Z</time>
      </trkpt>
      <trkpt lat="42.80313" lon="1.27299">
        <ele>726</ele>
        <time>2019-08-08T13:52:20.000Z</time>
      </trkpt>
      <trkpt lat="42.80316" lon="1.27298">
        <ele>727</ele>
        <time>2019-08-08T13:52:21.000Z</time>
      </trkpt>
      <trkpt lat="42.80318" lon="1.27297">
        <ele>727</ele>
        <time>2019-08-08T13:52:22.000Z</time>
      </trkpt>
      <trkpt lat="42.80321" lon="1.27295">
        <ele>727</ele>
        <time>2019-08-08T13:52:23.000Z</time>
      </trkpt>
      <trkpt lat="42.80323" lon="1.27293">
        <ele>727</ele>
        <time>2019-08-08T13:52:24.000Z</time>
      </trkpt>
      <trkpt lat="42.80326" lon="1.27292">
        <ele>727</ele>
        <time>2019-08-08T13:52:25.000Z</time>
      </trkpt>
      <trkpt lat="42.80328" lon="1.2729">
        <ele>727</ele>
        <time>2019-08-08T13:52:26.000Z</time>
      </trkpt>
      <trkpt lat="42.8033" lon="1.27288">
        <ele>728</ele>
        <time>2019-08-08T13:52:27.000Z</time>
      </trkpt>
      <trkpt lat="42.80333" lon="1.27287">
        <ele>728</ele>
        <time>2019-08-08T13:52:28.000Z</time>
      </trkpt>
      <trkpt lat="42.80335" lon="1.27285">
        <ele>729</ele>
        <time>2019-08-08T13:52:29.000Z</time>
      </trkpt>
      <trkpt lat="42.80339" lon="1.27282">
        <ele>729</ele>
        <time>2019-08-08T13:52:30.000Z</time>
      </trkpt>
      <trkpt lat="42.80341" lon="1.27281">
        <ele>729</ele>
        <time>2019-08-08T13:52:31.000Z</time>
      </trkpt>
      <trkpt lat="42.80344" lon="1.27279">
        <ele>730</ele>
        <time>2019-08-08T13:52:32.000Z</time>
      </trkpt>
      <trkpt lat="42.80348" lon="1.27276">
        <ele>730</ele>
        <time>2019-08-08T13:52:33.000Z</time>
      </trkpt>
      <trkpt lat="42.80349" lon="1.27275">
        <ele>730</ele>
        <time>2019-08-08T13:52:34.000Z</time>
      </trkpt>
      <trkpt lat="42.80352" lon="1.27273">
        <ele>730</ele>
        <time>2019-08-08T13:52:35.000Z</time>
      </trkpt>
      <trkpt lat="42.80354" lon="1.27271">
        <ele>730</ele>
        <time>2019-08-08T13:52:36.000Z</time>
      </trkpt>
      <trkpt lat="42.80357" lon="1.27269">
        <ele>731</ele>
        <time>2019-08-08T13:52:37.000Z</time>
      </trkpt>
      <trkpt lat="42.8036" lon="1.27267">
        <ele>731</ele>
        <time>2019-08-08T13:52:38.000Z</time>
      </trkpt>
      <trkpt lat="42.80363" lon="1.27265">
        <ele>731</ele>
        <time>2019-08-08T13:52:39.000Z</time>
      </trkpt>
      <trkpt lat="42.80366" lon="1.27263">
        <ele>731</ele>
        <time>2019-08-08T13:52:40.000Z</time>
      </trkpt>
      <trkpt lat="42.80368" lon="1.27261">
        <ele>731</ele>
        <time>2019-08-08T13:52:41.000Z</time>
      </trkpt>
      <trkpt lat="42.80371" lon="1.2726">
        <ele>731</ele>
        <time>2019-08-08T13:52:42.000Z</time>
      </trkpt>
      <trkpt lat="42.80375" lon="1.27258">
        <ele>731</ele>
        <time>2019-08-08T13:52:43.000Z</time>
      </trkpt>
      <trkpt lat="42.80377" lon="1.27257">
        <ele>731</ele>
        <time>2019-08-08T13:52:44.000Z</time>
      </trkpt>
      <trkpt lat="42.8038" lon="1.27256">
        <ele>732</ele>
        <time>2019-08-08T13:52:45.000Z</time>
      </trkpt>
      <trkpt lat="42.80382" lon="1.27254">
        <ele>732</ele>
        <time>2019-08-08T13:52:46.000Z</time>
      </trkpt>
      <trkpt lat="42.80385" lon="1.27253">
        <ele>733</ele>
        <time>2019-08-08T13:52:47.000Z</time>
      </trkpt>
      <trkpt lat="42.80388" lon="1.27252">
        <ele>733</ele>
        <time>2019-08-08T13:52:48.000Z</time>
      </trkpt>
      <trkpt lat="42.8039" lon="1.2725">
        <ele>733</ele>
        <time>2019-08-08T13:52:49.000Z</time>
      </trkpt>
      <trkpt lat="42.80393" lon="1.27248">
        <ele>733</ele>
        <time>2019-08-08T13:52:50.000Z</time>
      </trkpt>
      <trkpt lat="42.80396" lon="1.27247">
        <ele>733</ele>
        <time>2019-08-08T13:52:51.000Z</time>
      </trkpt>
      <trkpt lat="42.80399" lon="1.27246">
        <ele>733</ele>
        <time>2019-08-08T13:52:52.000Z</time>
      </trkpt>
      <trkpt lat="42.80401" lon="1.27244">
        <ele>734</ele>
        <time>2019-08-08T13:52:53.000Z</time>
      </trkpt>
      <trkpt lat="42.80404" lon="1.27242">
        <ele>734</ele>
        <time>2019-08-08T13:52:54.000Z</time>
      </trkpt>
      <trkpt lat="42.80406" lon="1.2724">
        <ele>736</ele>
        <time>2019-08-08T13:52:55.000Z</time>
      </trkpt>
      <trkpt lat="42.80409" lon="1.27238">
        <ele>736</ele>
        <time>2019-08-08T13:52:56.000Z</time>
      </trkpt>
      <trkpt lat="42.80412" lon="1.27237">
        <ele>736</ele>
        <time>2019-08-08T13:52:57.000Z</time>
      </trkpt>
      <trkpt lat="42.80414" lon="1.27234">
        <ele>736</ele>
        <time>2019-08-08T13:52:58.000Z</time>
      </trkpt>
      <trkpt lat="42.80417" lon="1.27232">
        <ele>736</ele>
        <time>2019-08-08T13:52:59.000Z</time>
      </trkpt>
      <trkpt lat="42.8042" lon="1.2723">
        <ele>736</ele>
        <time>2019-08-08T13:53:00.000Z</time>
      </trkpt>
      <trkpt lat="42.80423" lon="1.27229">
        <ele>736</ele>
        <time>2019-08-08T13:53:01.000Z</time>
      </trkpt>
      <trkpt lat="42.80426" lon="1.27227">
        <ele>736</ele>
        <time>2019-08-08T13:53:02.000Z</time>
      </trkpt>
      <trkpt lat="42.80428" lon="1.27225">
        <ele>737</ele>
        <time>2019-08-08T13:53:03.000Z</time>
      </trkpt>
      <trkpt lat="42.80431" lon="1.27223">
        <ele>737</ele>
        <time>2019-08-08T13:53:04.000Z</time>
      </trkpt>
      <trkpt lat="42.80434" lon="1.27221">
        <ele>737</ele>
        <time>2019-08-08T13:53:05.000Z</time>
      </trkpt>
      <trkpt lat="42.80438" lon="1.27218">
        <ele>738</ele>
        <time>2019-08-08T13:53:06.000Z</time>
      </trkpt>
      <trkpt lat="42.8044" lon="1.27217">
        <ele>738</ele>
        <time>2019-08-08T13:53:07.000Z</time>
      </trkpt>
      <trkpt lat="42.80442" lon="1.27215">
        <ele>738</ele>
        <time>2019-08-08T13:53:08.000Z</time>
      </trkpt>
      <trkpt lat="42.80444" lon="1.27213">
        <ele>738</ele>
        <time>2019-08-08T13:53:09.000Z</time>
      </trkpt>
      <trkpt lat="42.80447" lon="1.27211">
        <ele>739</ele>
        <time>2019-08-08T13:53:10.000Z</time>
      </trkpt>
      <trkpt lat="42.80449" lon="1.2721">
        <ele>739</ele>
        <time>2019-08-08T13:53:11.000Z</time>
      </trkpt>
      <trkpt lat="42.80452" lon="1.27209">
        <ele>739</ele>
        <time>2019-08-08T13:53:12.000Z</time>
      </trkpt>
      <trkpt lat="42.80455" lon="1.27208">
        <ele>739</ele>
        <time>2019-08-08T13:53:13.000Z</time>
      </trkpt>
      <trkpt lat="42.80458" lon="1.27206">
        <ele>739</ele>
        <time>2019-08-08T13:53:14.000Z</time>
      </trkpt>
      <trkpt lat="42.8046" lon="1.27205">
        <ele>739</ele>
        <time>2019-08-08T13:53:15.000Z</time>
      </trkpt>
      <trkpt lat="42.80463" lon="1.27204">
        <ele>740</ele>
        <time>2019-08-08T13:53:16.000Z</time>
      </trkpt>
      <trkpt lat="42.80466" lon="1.27203">
        <ele>740</ele>
        <time>2019-08-08T13:53:17.000Z</time>
      </trkpt>
      <trkpt lat="42.80469" lon="1.27202">
        <ele>740</ele>
        <time>2019-08-08T13:53:18.000Z</time>
      </trkpt>
      <trkpt lat="42.80472" lon="1.272">
        <ele>740</ele>
        <time>2019-08-08T13:53:19.000Z</time>
      </trkpt>
      <trkpt lat="42.80475" lon="1.27198">
        <ele>740</ele>
        <time>2019-08-08T13:53:20.000Z</time>
      </trkpt>
      <trkpt lat="42.80478" lon="1.27197">
        <ele>740</ele>
        <time>2019-08-08T13:53:21.000Z</time>
      </trkpt>
      <trkpt lat="42.80481" lon="1.27195">
        <ele>740</ele>
        <time>2019-08-08T13:53:22.000Z</time>
      </trkpt>
      <trkpt lat="42.80484" lon="1.27194">
        <ele>740</ele>
        <time>2019-08-08T13:53:23.000Z</time>
      </trkpt>
      <trkpt lat="42.80488" lon="1.27192">
        <ele>741</ele>
        <time>2019-08-08T13:53:24.000Z</time>
      </trkpt>
      <trkpt lat="42.8049" lon="1.27191">
        <ele>741</ele>
        <time>2019-08-08T13:53:25.000Z</time>
      </trkpt>
      <trkpt lat="42.80493" lon="1.2719">
        <ele>741</ele>
        <time>2019-08-08T13:53:26.000Z</time>
      </trkpt>
      <trkpt lat="42.80496" lon="1.27189">
        <ele>742</ele>
        <time>2019-08-08T13:53:27.000Z</time>
      </trkpt>
      <trkpt lat="42.80499" lon="1.27187">
        <ele>742</ele>
        <time>2019-08-08T13:53:28.000Z</time>
      </trkpt>
      <trkpt lat="42.80502" lon="1.27186">
        <ele>742</ele>
        <time>2019-08-08T13:53:29.000Z</time>
      </trkpt>
      <trkpt lat="42.80504" lon="1.27185">
        <ele>742</ele>
        <time>2019-08-08T13:53:30.000Z</time>
      </trkpt>
      <trkpt lat="42.80507" lon="1.27183">
        <ele>742</ele>
        <time>2019-08-08T13:53:31.000Z</time>
      </trkpt>
      <trkpt lat="42.8051" lon="1.27182">
        <ele>743</ele>
        <time>2019-08-08T13:53:32.000Z</time>
      </trkpt>
      <trkpt lat="42.80512" lon="1.27181">
        <ele>743</ele>
        <time>2019-08-08T13:53:33.000Z</time>
      </trkpt>
      <trkpt lat="42.80515" lon="1.27179">
        <ele>743</ele>
        <time>2019-08-08T13:53:34.000Z</time>
      </trkpt>
      <trkpt lat="42.80518" lon="1.27178">
        <ele>743</ele>
        <time>2019-08-08T13:53:35.000Z</time>
      </trkpt>
      <trkpt lat="42.80521" lon="1.27177">
        <ele>743</ele>
        <time>2019-08-08T13:53:36.000Z</time>
      </trkpt>
      <trkpt lat="42.80524" lon="1.27175">
        <ele>743</ele>
        <time>2019-08-08T13:53:37.000Z</time>
      </trkpt>
      <trkpt lat="42.80527" lon="1.27174">
        <ele>744</ele>
        <time>2019-08-08T13:53:38.000Z</time>
      </trkpt>
      <trkpt lat="42.8053" lon="1.27172">
        <ele>744</ele>
        <time>2019-08-08T13:53:39.000Z</time>
      </trkpt>
      <trkpt lat="42.80532" lon="1.27171">
        <ele>744</ele>
        <time>2019-08-08T13:53:40.000Z</time>
      </trkpt>
      <trkpt lat="42.80535" lon="1.27169">
        <ele>744</ele>
        <time>2019-08-08T13:53:41.000Z</time>
      </trkpt>
      <trkpt lat="42.80538" lon="1.27167">
        <ele>744</ele>
        <time>2019-08-08T13:53:42.000Z</time>
      </trkpt>
      <trkpt lat="42.80541" lon="1.27166">
        <ele>745</ele>
        <time>2019-08-08T13:53:43.000Z</time>
      </trkpt>
      <trkpt lat="42.80543" lon="1.27164">
        <ele>745</ele>
        <time>2019-08-08T13:53:44.000Z</time>
      </trkpt>
      <trkpt lat="42.80546" lon="1.27162">
        <ele>745</ele>
        <time>2019-08-08T13:53:45.000Z</time>
      </trkpt>
      <trkpt lat="42.80549" lon="1.2716">
        <ele>745</ele>
        <time>2019-08-08T13:53:46.000Z</time>
      </trkpt>
      <trkpt lat="42.80551" lon="1.27158">
        <ele>745</ele>
        <time>2019-08-08T13:53:47.000Z</time>
      </trkpt>
      <trkpt lat="42.80554" lon="1.27156">
        <ele>746</ele>
        <time>2019-08-08T13:53:48.000Z</time>
      </trkpt>
      <trkpt lat="42.80557" lon="1.27155">
        <ele>746</ele>
        <time>2019-08-08T13:53:49.000Z</time>
      </trkpt>
      <trkpt lat="42.8056" lon="1.27154">
        <ele>747</ele>
        <time>2019-08-08T13:53:50.000Z</time>
      </trkpt>
      <trkpt lat="42.80563" lon="1.27153">
        <ele>747</ele>
        <time>2019-08-08T13:53:51.000Z</time>
      </trkpt>
      <trkpt lat="42.80566" lon="1.27152">
        <ele>748</ele>
        <time>2019-08-08T13:53:52.000Z</time>
      </trkpt>
      <trkpt lat="42.80568" lon="1.2715">
        <ele>748</ele>
        <time>2019-08-08T13:53:53.000Z</time>
      </trkpt>
      <trkpt lat="42.80571" lon="1.27149">
        <ele>748</ele>
        <time>2019-08-08T13:53:54.000Z</time>
      </trkpt>
      <trkpt lat="42.80574" lon="1.27147">
        <ele>748</ele>
        <time>2019-08-08T13:53:55.000Z</time>
      </trkpt>
      <trkpt lat="42.80577" lon="1.27146">
        <ele>748</ele>
        <time>2019-08-08T13:53:56.000Z</time>
      </trkpt>
      <trkpt lat="42.80581" lon="1.27144">
        <ele>748</ele>
        <time>2019-08-08T13:53:57.000Z</time>
      </trkpt>
      <trkpt lat="42.80583" lon="1.27144">
        <ele>749</ele>
        <time>2019-08-08T13:53:58.000Z</time>
      </trkpt>
      <trkpt lat="42.80585" lon="1.27142">
        <ele>749</ele>
        <time>2019-08-08T13:53:59.000Z</time>
      </trkpt>
      <trkpt lat="42.80588" lon="1.27141">
        <ele>749</ele>
        <time>2019-08-08T13:54:00.000Z</time>
      </trkpt>
      <trkpt lat="42.80591" lon="1.27139">
        <ele>749</ele>
        <time>2019-08-08T13:54:01.000Z</time>
      </trkpt>
      <trkpt lat="42.80594" lon="1.27137">
        <ele>749</ele>
        <time>2019-08-08T13:54:02.000Z</time>
      </trkpt>
      <trkpt lat="42.80596" lon="1.27135">
        <ele>749</ele>
        <time>2019-08-08T13:54:03.000Z</time>
      </trkpt>
      <trkpt lat="42.80599" lon="1.27133">
        <ele>750</ele>
        <time>2019-08-08T13:54:04.000Z</time>
      </trkpt>
      <trkpt lat="42.80602" lon="1.27131">
        <ele>750</ele>
        <time>2019-08-08T13:54:05.000Z</time>
      </trkpt>
      <trkpt lat="42.80604" lon="1.27129">
        <ele>750</ele>
        <time>2019-08-08T13:54:06.000Z</time>
      </trkpt>
      <trkpt lat="42.80607" lon="1.27127">
        <ele>750</ele>
        <time>2019-08-08T13:54:07.000Z</time>
      </trkpt>
      <trkpt lat="42.80609" lon="1.27125">
        <ele>750</ele>
        <time>2019-08-08T13:54:08.000Z</time>
      </trkpt>
      <trkpt lat="42.80612" lon="1.27122">
        <ele>751</ele>
        <time>2019-08-08T13:54:09.000Z</time>
      </trkpt>
      <trkpt lat="42.80614" lon="1.2712">
        <ele>751</ele>
        <time>2019-08-08T13:54:10.000Z</time>
      </trkpt>
      <trkpt lat="42.80617" lon="1.27117">
        <ele>751</ele>
        <time>2019-08-08T13:54:11.000Z</time>
      </trkpt>
      <trkpt lat="42.8062" lon="1.27114">
        <ele>751</ele>
        <time>2019-08-08T13:54:12.000Z</time>
      </trkpt>
      <trkpt lat="42.80622" lon="1.27112">
        <ele>751</ele>
        <time>2019-08-08T13:54:13.000Z</time>
      </trkpt>
      <trkpt lat="42.80625" lon="1.2711">
        <ele>751</ele>
        <time>2019-08-08T13:54:14.000Z</time>
      </trkpt>
      <trkpt lat="42.80628" lon="1.27109">
        <ele>751</ele>
        <time>2019-08-08T13:54:15.000Z</time>
      </trkpt>
      <trkpt lat="42.80631" lon="1.27107">
        <ele>753</ele>
        <time>2019-08-08T13:54:16.000Z</time>
      </trkpt>
      <trkpt lat="42.80633" lon="1.27106">
        <ele>753</ele>
        <time>2019-08-08T13:54:17.000Z</time>
      </trkpt>
      <trkpt lat="42.80636" lon="1.27104">
        <ele>754</ele>
        <time>2019-08-08T13:54:18.000Z</time>
      </trkpt>
      <trkpt lat="42.80638" lon="1.27101">
        <ele>754</ele>
        <time>2019-08-08T13:54:19.000Z</time>
      </trkpt>
      <trkpt lat="42.80641" lon="1.27099">
        <ele>754</ele>
        <time>2019-08-08T13:54:20.000Z</time>
      </trkpt>
      <trkpt lat="42.80643" lon="1.27096">
        <ele>754</ele>
        <time>2019-08-08T13:54:21.000Z</time>
      </trkpt>
      <trkpt lat="42.80645" lon="1.27094">
        <ele>755</ele>
        <time>2019-08-08T13:54:22.000Z</time>
      </trkpt>
      <trkpt lat="42.80648" lon="1.27091">
        <ele>755</ele>
        <time>2019-08-08T13:54:23.000Z</time>
      </trkpt>
      <trkpt lat="42.8065" lon="1.27089">
        <ele>755</ele>
        <time>2019-08-08T13:54:24.000Z</time>
      </trkpt>
      <trkpt lat="42.80653" lon="1.27087">
        <ele>755</ele>
        <time>2019-08-08T13:54:25.000Z</time>
      </trkpt>
      <trkpt lat="42.80655" lon="1.27085">
        <ele>755</ele>
        <time>2019-08-08T13:54:26.000Z</time>
      </trkpt>
      <trkpt lat="42.80658" lon="1.27083">
        <ele>756</ele>
        <time>2019-08-08T13:54:27.000Z</time>
      </trkpt>
      <trkpt lat="42.8066" lon="1.2708">
        <ele>756</ele>
        <time>2019-08-08T13:54:28.000Z</time>
      </trkpt>
      <trkpt lat="42.80662" lon="1.27078">
        <ele>757</ele>
        <time>2019-08-08T13:54:29.000Z</time>
      </trkpt>
      <trkpt lat="42.80664" lon="1.27076">
        <ele>757</ele>
        <time>2019-08-08T13:54:30.000Z</time>
      </trkpt>
      <trkpt lat="42.80667" lon="1.27074">
        <ele>757</ele>
        <time>2019-08-08T13:54:31.000Z</time>
      </trkpt>
      <trkpt lat="42.80669" lon="1.27071">
        <ele>757</ele>
        <time>2019-08-08T13:54:32.000Z</time>
      </trkpt>
      <trkpt lat="42.80671" lon="1.27068">
        <ele>757</ele>
        <time>2019-08-08T13:54:33.000Z</time>
      </trkpt>
      <trkpt lat="42.80673" lon="1.27066">
        <ele>757</ele>
        <time>2019-08-08T13:54:34.000Z</time>
      </trkpt>
      <trkpt lat="42.80675" lon="1.27063">
        <ele>757</ele>
        <time>2019-08-08T13:54:35.000Z</time>
      </trkpt>
      <trkpt lat="42.80678" lon="1.27061">
        <ele>758</ele>
        <time>2019-08-08T13:54:36.000Z</time>
      </trkpt>
      <trkpt lat="42.8068" lon="1.27058">
        <ele>758</ele>
        <time>2019-08-08T13:54:37.000Z</time>
      </trkpt>
      <trkpt lat="42.80682" lon="1.27056">
        <ele>758</ele>
        <time>2019-08-08T13:54:38.000Z</time>
      </trkpt>
      <trkpt lat="42.80685" lon="1.27053">
        <ele>758</ele>
        <time>2019-08-08T13:54:39.000Z</time>
      </trkpt>
      <trkpt lat="42.80687" lon="1.2705">
        <ele>759</ele>
        <time>2019-08-08T13:54:40.000Z</time>
      </trkpt>
      <trkpt lat="42.80689" lon="1.27048">
        <ele>759</ele>
        <time>2019-08-08T13:54:41.000Z</time>
      </trkpt>
      <trkpt lat="42.80691" lon="1.27045">
        <ele>760</ele>
        <time>2019-08-08T13:54:42.000Z</time>
      </trkpt>
      <trkpt lat="42.80693" lon="1.27043">
        <ele>760</ele>
        <time>2019-08-08T13:54:43.000Z</time>
      </trkpt>
      <trkpt lat="42.80695" lon="1.2704">
        <ele>760</ele>
        <time>2019-08-08T13:54:44.000Z</time>
      </trkpt>
      <trkpt lat="42.80698" lon="1.27037">
        <ele>760</ele>
        <time>2019-08-08T13:54:45.000Z</time>
      </trkpt>
      <trkpt lat="42.807" lon="1.27035">
        <ele>760</ele>
        <time>2019-08-08T13:54:46.000Z</time>
      </trkpt>
      <trkpt lat="42.80702" lon="1.27032">
        <ele>761</ele>
        <time>2019-08-08T13:54:47.000Z</time>
      </trkpt>
      <trkpt lat="42.80705" lon="1.27028">
        <ele>761</ele>
        <time>2019-08-08T13:54:48.000Z</time>
      </trkpt>
      <trkpt lat="42.80706" lon="1.27027">
        <ele>761</ele>
        <time>2019-08-08T13:54:49.000Z</time>
      </trkpt>
      <trkpt lat="42.80708" lon="1.27025">
        <ele>761</ele>
        <time>2019-08-08T13:54:50.000Z</time>
      </trkpt>
      <trkpt lat="42.80711" lon="1.27022">
        <ele>762</ele>
        <time>2019-08-08T13:54:51.000Z</time>
      </trkpt>
      <trkpt lat="42.80713" lon="1.27019">
        <ele>762</ele>
        <time>2019-08-08T13:54:52.000Z</time>
      </trkpt>
      <trkpt lat="42.80715" lon="1.27017">
        <ele>763</ele>
        <time>2019-08-08T13:54:53.000Z</time>
      </trkpt>
      <trkpt lat="42.80717" lon="1.27014">
        <ele>763</ele>
        <time>2019-08-08T13:54:54.000Z</time>
      </trkpt>
      <trkpt lat="42.80719" lon="1.27011">
        <ele>763</ele>
        <time>2019-08-08T13:54:55.000Z</time>
      </trkpt>
      <trkpt lat="42.8072" lon="1.27008">
        <ele>763</ele>
        <time>2019-08-08T13:54:56.000Z</time>
      </trkpt>
      <trkpt lat="42.80722" lon="1.27005">
        <ele>764</ele>
        <time>2019-08-08T13:54:57.000Z</time>
      </trkpt>
      <trkpt lat="42.80724" lon="1.27003">
        <ele>764</ele>
        <time>2019-08-08T13:54:58.000Z</time>
      </trkpt>
      <trkpt lat="42.80726" lon="1.27001">
        <ele>764</ele>
        <time>2019-08-08T13:54:59.000Z</time>
      </trkpt>
      <trkpt lat="42.80729" lon="1.27001">
        <ele>764</ele>
        <time>2019-08-08T13:55:00.000Z</time>
      </trkpt>
      <trkpt lat="42.80732" lon="1.27003">
        <ele>765</ele>
        <time>2019-08-08T13:55:01.000Z</time>
      </trkpt>
      <trkpt lat="42.80733" lon="1.27006">
        <ele>765</ele>
        <time>2019-08-08T13:55:02.000Z</time>
      </trkpt>
      <trkpt lat="42.80732" lon="1.2701">
        <ele>765</ele>
        <time>2019-08-08T13:55:03.000Z</time>
      </trkpt>
      <trkpt lat="42.80731" lon="1.27014">
        <ele>765</ele>
        <time>2019-08-08T13:55:04.000Z</time>
      </trkpt>
      <trkpt lat="42.80728" lon="1.27019">
        <ele>765</ele>
        <time>2019-08-08T13:55:05.000Z</time>
      </trkpt>
      <trkpt lat="42.80727" lon="1.2702">
        <ele>766</ele>
        <time>2019-08-08T13:55:06.000Z</time>
      </trkpt>
      <trkpt lat="42.80725" lon="1.27023">
        <ele>766</ele>
        <time>2019-08-08T13:55:07.000Z</time>
      </trkpt>
      <trkpt lat="42.80723" lon="1.27026">
        <ele>766</ele>
        <time>2019-08-08T13:55:08.000Z</time>
      </trkpt>
      <trkpt lat="42.80721" lon="1.27029">
        <ele>766</ele>
        <time>2019-08-08T13:55:09.000Z</time>
      </trkpt>
      <trkpt lat="42.80719" lon="1.27032">
        <ele>766</ele>
        <time>2019-08-08T13:55:10.000Z</time>
      </trkpt>
      <trkpt lat="42.80717" lon="1.27035">
        <ele>766</ele>
        <time>2019-08-08T13:55:11.000Z</time>
      </trkpt>
      <trkpt lat="42.80714" lon="1.27038">
        <ele>767</ele>
        <time>2019-08-08T13:55:12.000Z</time>
      </trkpt>
      <trkpt lat="42.80712" lon="1.27041">
        <ele>767</ele>
        <time>2019-08-08T13:55:13.000Z</time>
      </trkpt>
      <trkpt lat="42.8071" lon="1.27044">
        <ele>767</ele>
        <time>2019-08-08T13:55:14.000Z</time>
      </trkpt>
      <trkpt lat="42.80708" lon="1.27047">
        <ele>767</ele>
        <time>2019-08-08T13:55:15.000Z</time>
      </trkpt>
      <trkpt lat="42.80706" lon="1.2705">
        <ele>767</ele>
        <time>2019-08-08T13:55:16.000Z</time>
      </trkpt>
      <trkpt lat="42.80705" lon="1.27053">
        <ele>767</ele>
        <time>2019-08-08T13:55:17.000Z</time>
      </trkpt>
      <trkpt lat="42.80703" lon="1.27057">
        <ele>767</ele>
        <time>2019-08-08T13:55:18.000Z</time>
      </trkpt>
      <trkpt lat="42.80701" lon="1.2706">
        <ele>767</ele>
        <time>2019-08-08T13:55:19.000Z</time>
      </trkpt>
      <trkpt lat="42.80699" lon="1.27065">
        <ele>767</ele>
        <time>2019-08-08T13:55:20.000Z</time>
      </trkpt>
      <trkpt lat="42.80698" lon="1.27067">
        <ele>768</ele>
        <time>2019-08-08T13:55:21.000Z</time>
      </trkpt>
      <trkpt lat="42.80695" lon="1.27071">
        <ele>770</ele>
        <time>2019-08-08T13:55:22.000Z</time>
      </trkpt>
      <trkpt lat="42.80694" lon="1.27072">
        <ele>770</ele>
        <time>2019-08-08T13:55:23.000Z</time>
      </trkpt>
      <trkpt lat="42.80692" lon="1.27074">
        <ele>770</ele>
        <time>2019-08-08T13:55:24.000Z</time>
      </trkpt>
      <trkpt lat="42.8069" lon="1.27077">
        <ele>770</ele>
        <time>2019-08-08T13:55:25.000Z</time>
      </trkpt>
      <trkpt lat="42.80688" lon="1.2708">
        <ele>770</ele>
        <time>2019-08-08T13:55:26.000Z</time>
      </trkpt>
      <trkpt lat="42.80686" lon="1.27083">
        <ele>770</ele>
        <time>2019-08-08T13:55:27.000Z</time>
      </trkpt>
      <trkpt lat="42.80684" lon="1.27085">
        <ele>770</ele>
        <time>2019-08-08T13:55:28.000Z</time>
      </trkpt>
      <trkpt lat="42.80682" lon="1.27088">
        <ele>770</ele>
        <time>2019-08-08T13:55:29.000Z</time>
      </trkpt>
      <trkpt lat="42.8068" lon="1.27091">
        <ele>771</ele>
        <time>2019-08-08T13:55:30.000Z</time>
      </trkpt>
      <trkpt lat="42.80678" lon="1.27094">
        <ele>772</ele>
        <time>2019-08-08T13:55:31.000Z</time>
      </trkpt>
      <trkpt lat="42.80676" lon="1.27097">
        <ele>772</ele>
        <time>2019-08-08T13:55:32.000Z</time>
      </trkpt>
      <trkpt lat="42.80674" lon="1.271">
        <ele>772</ele>
        <time>2019-08-08T13:55:33.000Z</time>
      </trkpt>
      <trkpt lat="42.80672" lon="1.27103">
        <ele>772</ele>
        <time>2019-08-08T13:55:34.000Z</time>
      </trkpt>
      <trkpt lat="42.80669" lon="1.27105">
        <ele>773</ele>
        <time>2019-08-08T13:55:35.000Z</time>
      </trkpt>
      <trkpt lat="42.80667" lon="1.27108">
        <ele>773</ele>
        <time>2019-08-08T13:55:36.000Z</time>
      </trkpt>
      <trkpt lat="42.80665" lon="1.2711">
        <ele>773</ele>
        <time>2019-08-08T13:55:37.000Z</time>
      </trkpt>
      <trkpt lat="42.80663" lon="1.27113">
        <ele>773</ele>
        <time>2019-08-08T13:55:38.000Z</time>
      </trkpt>
      <trkpt lat="42.80661" lon="1.27116">
        <ele>773</ele>
        <time>2019-08-08T13:55:39.000Z</time>
      </trkpt>
      <trkpt lat="42.80659" lon="1.27119">
        <ele>773</ele>
        <time>2019-08-08T13:55:40.000Z</time>
      </trkpt>
      <trkpt lat="42.80657" lon="1.27122">
        <ele>773</ele>
        <time>2019-08-08T13:55:41.000Z</time>
      </trkpt>
      <trkpt lat="42.80655" lon="1.27124">
        <ele>773</ele>
        <time>2019-08-08T13:55:42.000Z</time>
      </trkpt>
      <trkpt lat="42.80653" lon="1.27127">
        <ele>774</ele>
        <time>2019-08-08T13:55:43.000Z</time>
      </trkpt>
      <trkpt lat="42.80651" lon="1.27129">
        <ele>774</ele>
        <time>2019-08-08T13:55:44.000Z</time>
      </trkpt>
      <trkpt lat="42.80649" lon="1.27132">
        <ele>775</ele>
        <time>2019-08-08T13:55:45.000Z</time>
      </trkpt>
      <trkpt lat="42.80646" lon="1.27134">
        <ele>775</ele>
        <time>2019-08-08T13:55:46.000Z</time>
      </trkpt>
      <trkpt lat="42.80644" lon="1.27136">
        <ele>775</ele>
        <time>2019-08-08T13:55:47.000Z</time>
      </trkpt>
      <trkpt lat="42.80642" lon="1.27139">
        <ele>775</ele>
        <time>2019-08-08T13:55:48.000Z</time>
      </trkpt>
      <trkpt lat="42.8064" lon="1.27141">
        <ele>775</ele>
        <time>2019-08-08T13:55:49.000Z</time>
      </trkpt>
      <trkpt lat="42.80638" lon="1.27144">
        <ele>775</ele>
        <time>2019-08-08T13:55:50.000Z</time>
      </trkpt>
      <trkpt lat="42.80636" lon="1.27148">
        <ele>776</ele>
        <time>2019-08-08T13:55:51.000Z</time>
      </trkpt>
      <trkpt lat="42.80635" lon="1.2715">
        <ele>776</ele>
        <time>2019-08-08T13:55:52.000Z</time>
      </trkpt>
      <trkpt lat="42.80632" lon="1.27152">
        <ele>776</ele>
        <time>2019-08-08T13:55:53.000Z</time>
      </trkpt>
      <trkpt lat="42.80631" lon="1.27155">
        <ele>776</ele>
        <time>2019-08-08T13:55:54.000Z</time>
      </trkpt>
      <trkpt lat="42.80629" lon="1.27157">
        <ele>777</ele>
        <time>2019-08-08T13:55:55.000Z</time>
      </trkpt>
      <trkpt lat="42.80625" lon="1.27161">
        <ele>777</ele>
        <time>2019-08-08T13:55:56.000Z</time>
      </trkpt>
      <trkpt lat="42.80624" lon="1.27162">
        <ele>777.6</ele>
        <time>2019-08-08T13:55:57.000Z</time>
      </trkpt>
      <trkpt lat="42.80621" lon="1.27166">
        <ele>778</ele>
        <time>2019-08-08T13:55:58.000Z</time>
      </trkpt>
      <trkpt lat="42.8062" lon="1.27167">
        <ele>778</ele>
        <time>2019-08-08T13:55:59.000Z</time>
      </trkpt>
      <trkpt lat="42.80618" lon="1.27169">
        <ele>778</ele>
        <time>2019-08-08T13:56:00.000Z</time>
      </trkpt>
      <trkpt lat="42.80616" lon="1.27171">
        <ele>778</ele>
        <time>2019-08-08T13:56:01.000Z</time>
      </trkpt>
      <trkpt lat="42.80614" lon="1.27174">
        <ele>779</ele>
        <time>2019-08-08T13:56:02.000Z</time>
      </trkpt>
      <trkpt lat="42.80612" lon="1.27176">
        <ele>779</ele>
        <time>2019-08-08T13:56:03.000Z</time>
      </trkpt>
      <trkpt lat="42.8061" lon="1.27179">
        <ele>780</ele>
        <time>2019-08-08T13:56:04.000Z</time>
      </trkpt>
      <trkpt lat="42.80608" lon="1.27181">
        <ele>780</ele>
        <time>2019-08-08T13:56:05.000Z</time>
      </trkpt>
      <trkpt lat="42.80606" lon="1.27184">
        <ele>780</ele>
        <time>2019-08-08T13:56:06.000Z</time>
      </trkpt>
      <trkpt lat="42.80605" lon="1.27186">
        <ele>780</ele>
        <time>2019-08-08T13:56:07.000Z</time>
      </trkpt>
      <trkpt lat="42.80603" lon="1.27189">
        <ele>781</ele>
        <time>2019-08-08T13:56:08.000Z</time>
      </trkpt>
      <trkpt lat="42.80601" lon="1.27192">
        <ele>781</ele>
        <time>2019-08-08T13:56:09.000Z</time>
      </trkpt>
      <trkpt lat="42.80599" lon="1.27194">
        <ele>781</ele>
        <time>2019-08-08T13:56:10.000Z</time>
      </trkpt>
      <trkpt lat="42.80596" lon="1.27199">
        <ele>781</ele>
        <time>2019-08-08T13:56:11.000Z</time>
      </trkpt>
      <trkpt lat="42.80594" lon="1.27201">
        <ele>781</ele>
        <time>2019-08-08T13:56:12.000Z</time>
      </trkpt>
      <trkpt lat="42.80593" lon="1.27203">
        <ele>781.6</ele>
        <time>2019-08-08T13:56:13.000Z</time>
      </trkpt>
      <trkpt lat="42.80591" lon="1.27205">
        <ele>782</ele>
        <time>2019-08-08T13:56:14.000Z</time>
      </trkpt>
      <trkpt lat="42.8059" lon="1.27208">
        <ele>783</ele>
        <time>2019-08-08T13:56:15.000Z</time>
      </trkpt>
      <trkpt lat="42.80588" lon="1.2721">
        <ele>784</ele>
        <time>2019-08-08T13:56:16.000Z</time>
      </trkpt>
      <trkpt lat="42.80586" lon="1.27213">
        <ele>784</ele>
        <time>2019-08-08T13:56:17.000Z</time>
      </trkpt>
      <trkpt lat="42.80584" lon="1.27215">
        <ele>784</ele>
        <time>2019-08-08T13:56:18.000Z</time>
      </trkpt>
      <trkpt lat="42.80582" lon="1.27218">
        <ele>784</ele>
        <time>2019-08-08T13:56:19.000Z</time>
      </trkpt>
      <trkpt lat="42.8058" lon="1.27221">
        <ele>784</ele>
        <time>2019-08-08T13:56:20.000Z</time>
      </trkpt>
      <trkpt lat="42.80578" lon="1.27224">
        <ele>784</ele>
        <time>2019-08-08T13:56:21.000Z</time>
      </trkpt>
      <trkpt lat="42.80576" lon="1.27227">
        <ele>784</ele>
        <time>2019-08-08T13:56:22.000Z</time>
      </trkpt>
      <trkpt lat="42.80575" lon="1.2723">
        <ele>784</ele>
        <time>2019-08-08T13:56:23.000Z</time>
      </trkpt>
      <trkpt lat="42.80573" lon="1.27233">
        <ele>784</ele>
        <time>2019-08-08T13:56:24.000Z</time>
      </trkpt>
      <trkpt lat="42.80571" lon="1.27236">
        <ele>784</ele>
        <time>2019-08-08T13:56:25.000Z</time>
      </trkpt>
      <trkpt lat="42.80569" lon="1.27238">
        <ele>784</ele>
        <time>2019-08-08T13:56:26.000Z</time>
      </trkpt>
      <trkpt lat="42.80567" lon="1.27241">
        <ele>785</ele>
        <time>2019-08-08T13:56:27.000Z</time>
      </trkpt>
      <trkpt lat="42.80565" lon="1.27244">
        <ele>785</ele>
        <time>2019-08-08T13:56:28.000Z</time>
      </trkpt>
      <trkpt lat="42.80563" lon="1.27247">
        <ele>785</ele>
        <time>2019-08-08T13:56:29.000Z</time>
      </trkpt>
      <trkpt lat="42.8056" lon="1.27249">
        <ele>785</ele>
        <time>2019-08-08T13:56:30.000Z</time>
      </trkpt>
      <trkpt lat="42.80558" lon="1.27252">
        <ele>786</ele>
        <time>2019-08-08T13:56:31.000Z</time>
      </trkpt>
      <trkpt lat="42.80555" lon="1.27254">
        <ele>786</ele>
        <time>2019-08-08T13:56:32.000Z</time>
      </trkpt>
      <trkpt lat="42.80553" lon="1.27257">
        <ele>786</ele>
        <time>2019-08-08T13:56:33.000Z</time>
      </trkpt>
      <trkpt lat="42.8055" lon="1.2726">
        <ele>786</ele>
        <time>2019-08-08T13:56:34.000Z</time>
      </trkpt>
      <trkpt lat="42.80549" lon="1.27261">
        <ele>786</ele>
        <time>2019-08-08T13:56:35.000Z</time>
      </trkpt>
      <trkpt lat="42.80546" lon="1.27263">
        <ele>786</ele>
        <time>2019-08-08T13:56:36.000Z</time>
      </trkpt>
      <trkpt lat="42.80543" lon="1.27268">
        <ele>787</ele>
        <time>2019-08-08T13:56:37.000Z</time>
      </trkpt>
      <trkpt lat="42.80542" lon="1.27269">
        <ele>787</ele>
        <time>2019-08-08T13:56:38.000Z</time>
      </trkpt>
      <trkpt lat="42.8054" lon="1.27272">
        <ele>788</ele>
        <time>2019-08-08T13:56:39.000Z</time>
      </trkpt>
      <trkpt lat="42.80538" lon="1.27274">
        <ele>788</ele>
        <time>2019-08-08T13:56:40.000Z</time>
      </trkpt>
      <trkpt lat="42.80536" lon="1.27277">
        <ele>789</ele>
        <time>2019-08-08T13:56:41.000Z</time>
      </trkpt>
      <trkpt lat="42.80534" lon="1.2728">
        <ele>789</ele>
        <time>2019-08-08T13:56:42.000Z</time>
      </trkpt>
      <trkpt lat="42.80532" lon="1.27283">
        <ele>789</ele>
        <time>2019-08-08T13:56:43.000Z</time>
      </trkpt>
      <trkpt lat="42.8053" lon="1.27285">
        <ele>789</ele>
        <time>2019-08-08T13:56:44.000Z</time>
      </trkpt>
      <trkpt lat="42.80528" lon="1.27288">
        <ele>789</ele>
        <time>2019-08-08T13:56:45.000Z</time>
      </trkpt>
      <trkpt lat="42.80524" lon="1.27292">
        <ele>789</ele>
        <time>2019-08-08T13:56:46.000Z</time>
      </trkpt>
      <trkpt lat="42.80523" lon="1.27293">
        <ele>790</ele>
        <time>2019-08-08T13:56:47.000Z</time>
      </trkpt>
      <trkpt lat="42.8052" lon="1.27295">
        <ele>790</ele>
        <time>2019-08-08T13:56:48.000Z</time>
      </trkpt>
      <trkpt lat="42.80518" lon="1.27297">
        <ele>790</ele>
        <time>2019-08-08T13:56:49.000Z</time>
      </trkpt>
      <trkpt lat="42.80516" lon="1.273">
        <ele>790</ele>
        <time>2019-08-08T13:56:50.000Z</time>
      </trkpt>
      <trkpt lat="42.80512" lon="1.27304">
        <ele>791</ele>
        <time>2019-08-08T13:56:51.000Z</time>
      </trkpt>
      <trkpt lat="42.80511" lon="1.27305">
        <ele>791</ele>
        <time>2019-08-08T13:56:52.000Z</time>
      </trkpt>
      <trkpt lat="42.80509" lon="1.27307">
        <ele>791</ele>
        <time>2019-08-08T13:56:53.000Z</time>
      </trkpt>
      <trkpt lat="42.80507" lon="1.2731">
        <ele>791</ele>
        <time>2019-08-08T13:56:54.000Z</time>
      </trkpt>
      <trkpt lat="42.80505" lon="1.27312">
        <ele>791</ele>
        <time>2019-08-08T13:56:55.000Z</time>
      </trkpt>
      <trkpt lat="42.80502" lon="1.27314">
        <ele>791</ele>
        <time>2019-08-08T13:56:56.000Z</time>
      </trkpt>
      <trkpt lat="42.805" lon="1.27317">
        <ele>792</ele>
        <time>2019-08-08T13:56:57.000Z</time>
      </trkpt>
      <trkpt lat="42.80498" lon="1.2732">
        <ele>792</ele>
        <time>2019-08-08T13:56:58.000Z</time>
      </trkpt>
      <trkpt lat="42.80496" lon="1.27323">
        <ele>793</ele>
        <time>2019-08-08T13:56:59.000Z</time>
      </trkpt>
      <trkpt lat="42.80494" lon="1.27326">
        <ele>793</ele>
        <time>2019-08-08T13:57:00.000Z</time>
      </trkpt>
      <trkpt lat="42.80493" lon="1.27329">
        <ele>793</ele>
        <time>2019-08-08T13:57:01.000Z</time>
      </trkpt>
      <trkpt lat="42.80491" lon="1.27332">
        <ele>793</ele>
        <time>2019-08-08T13:57:02.000Z</time>
      </trkpt>
      <trkpt lat="42.80487" lon="1.27335">
        <ele>794</ele>
        <time>2019-08-08T13:57:03.000Z</time>
      </trkpt>
      <trkpt lat="42.80486" lon="1.27336">
        <ele>794</ele>
        <time>2019-08-08T13:57:04.000Z</time>
      </trkpt>
      <trkpt lat="42.80484" lon="1.27338">
        <ele>794</ele>
        <time>2019-08-08T13:57:05.000Z</time>
      </trkpt>
      <trkpt lat="42.80481" lon="1.27341">
        <ele>794</ele>
        <time>2019-08-08T13:57:06.000Z</time>
      </trkpt>
      <trkpt lat="42.80479" lon="1.27344">
        <ele>794</ele>
        <time>2019-08-08T13:57:07.000Z</time>
      </trkpt>
      <trkpt lat="42.80477" lon="1.27346">
        <ele>794</ele>
        <time>2019-08-08T13:57:08.000Z</time>
      </trkpt>
      <trkpt lat="42.80475" lon="1.27349">
        <ele>794</ele>
        <time>2019-08-08T13:57:09.000Z</time>
      </trkpt>
      <trkpt lat="42.80472" lon="1.27354">
        <ele>794</ele>
        <time>2019-08-08T13:57:10.000Z</time>
      </trkpt>
      <trkpt lat="42.80471" lon="1.27355">
        <ele>795</ele>
        <time>2019-08-08T13:57:11.000Z</time>
      </trkpt>
      <trkpt lat="42.80469" lon="1.27358">
        <ele>795</ele>
        <time>2019-08-08T13:57:12.000Z</time>
      </trkpt>
      <trkpt lat="42.80468" lon="1.27361">
        <ele>796</ele>
        <time>2019-08-08T13:57:13.000Z</time>
      </trkpt>
      <trkpt lat="42.80466" lon="1.27364">
        <ele>796</ele>
        <time>2019-08-08T13:57:14.000Z</time>
      </trkpt>
      <trkpt lat="42.80464" lon="1.27367">
        <ele>796</ele>
        <time>2019-08-08T13:57:15.000Z</time>
      </trkpt>
      <trkpt lat="42.80462" lon="1.27369">
        <ele>796</ele>
        <time>2019-08-08T13:57:16.000Z</time>
      </trkpt>
      <trkpt lat="42.80459" lon="1.27373">
        <ele>796</ele>
        <time>2019-08-08T13:57:17.000Z</time>
      </trkpt>
      <trkpt lat="42.80458" lon="1.27375">
        <ele>797</ele>
        <time>2019-08-08T13:57:18.000Z</time>
      </trkpt>
      <trkpt lat="42.80456" lon="1.27378">
        <ele>797</ele>
        <time>2019-08-08T13:57:19.000Z</time>
      </trkpt>
      <trkpt lat="42.80454" lon="1.2738">
        <ele>798</ele>
        <time>2019-08-08T13:57:20.000Z</time>
      </trkpt>
      <trkpt lat="42.80452" lon="1.27383">
        <ele>798</ele>
        <time>2019-08-08T13:57:21.000Z</time>
      </trkpt>
      <trkpt lat="42.8045" lon="1.27385">
        <ele>798</ele>
        <time>2019-08-08T13:57:22.000Z</time>
      </trkpt>
      <trkpt lat="42.80448" lon="1.27388">
        <ele>799</ele>
        <time>2019-08-08T13:57:23.000Z</time>
      </trkpt>
      <trkpt lat="42.80445" lon="1.27391">
        <ele>799</ele>
        <time>2019-08-08T13:57:24.000Z</time>
      </trkpt>
      <trkpt lat="42.80444" lon="1.27393">
        <ele>799</ele>
        <time>2019-08-08T13:57:25.000Z</time>
      </trkpt>
      <trkpt lat="42.80442" lon="1.27396">
        <ele>799</ele>
        <time>2019-08-08T13:57:26.000Z</time>
      </trkpt>
      <trkpt lat="42.8044" lon="1.27399">
        <ele>800</ele>
        <time>2019-08-08T13:57:27.000Z</time>
      </trkpt>
      <trkpt lat="42.80438" lon="1.27402">
        <ele>800</ele>
        <time>2019-08-08T13:57:28.000Z</time>
      </trkpt>
      <trkpt lat="42.80436" lon="1.27405">
        <ele>801</ele>
        <time>2019-08-08T13:57:29.000Z</time>
      </trkpt>
      <trkpt lat="42.80434" lon="1.27408">
        <ele>801</ele>
        <time>2019-08-08T13:57:30.000Z</time>
      </trkpt>
      <trkpt lat="42.80433" lon="1.27411">
        <ele>801</ele>
        <time>2019-08-08T13:57:31.000Z</time>
      </trkpt>
      <trkpt lat="42.80431" lon="1.27414">
        <ele>801</ele>
        <time>2019-08-08T13:57:32.000Z</time>
      </trkpt>
      <trkpt lat="42.80429" lon="1.27417">
        <ele>801</ele>
        <time>2019-08-08T13:57:33.000Z</time>
      </trkpt>
      <trkpt lat="42.80427" lon="1.2742">
        <ele>801</ele>
        <time>2019-08-08T13:57:34.000Z</time>
      </trkpt>
      <trkpt lat="42.80425" lon="1.27423">
        <ele>802</ele>
        <time>2019-08-08T13:57:35.000Z</time>
      </trkpt>
      <trkpt lat="42.80423" lon="1.27426">
        <ele>802</ele>
        <time>2019-08-08T13:57:36.000Z</time>
      </trkpt>
      <trkpt lat="42.80421" lon="1.2743">
        <ele>802</ele>
        <time>2019-08-08T13:57:37.000Z</time>
      </trkpt>
      <trkpt lat="42.80419" lon="1.27433">
        <ele>802</ele>
        <time>2019-08-08T13:57:38.000Z</time>
      </trkpt>
      <trkpt lat="42.80416" lon="1.27435">
        <ele>802</ele>
        <time>2019-08-08T13:57:39.000Z</time>
      </trkpt>
      <trkpt lat="42.80414" lon="1.27438">
        <ele>802</ele>
        <time>2019-08-08T13:57:40.000Z</time>
      </trkpt>
      <trkpt lat="42.80412" lon="1.2744">
        <ele>802</ele>
        <time>2019-08-08T13:57:41.000Z</time>
      </trkpt>
      <trkpt lat="42.80409" lon="1.27443">
        <ele>803</ele>
        <time>2019-08-08T13:57:42.000Z</time>
      </trkpt>
      <trkpt lat="42.80407" lon="1.27445">
        <ele>803</ele>
        <time>2019-08-08T13:57:43.000Z</time>
      </trkpt>
      <trkpt lat="42.80405" lon="1.27449">
        <ele>803</ele>
        <time>2019-08-08T13:57:44.000Z</time>
      </trkpt>
      <trkpt lat="42.80403" lon="1.27452">
        <ele>803</ele>
        <time>2019-08-08T13:57:45.000Z</time>
      </trkpt>
      <trkpt lat="42.80401" lon="1.27455">
        <ele>804</ele>
        <time>2019-08-08T13:57:46.000Z</time>
      </trkpt>
      <trkpt lat="42.80399" lon="1.27459">
        <ele>804</ele>
        <time>2019-08-08T13:57:47.000Z</time>
      </trkpt>
      <trkpt lat="42.80396" lon="1.27462">
        <ele>805</ele>
        <time>2019-08-08T13:57:48.000Z</time>
      </trkpt>
      <trkpt lat="42.80393" lon="1.27465">
        <ele>805</ele>
        <time>2019-08-08T13:57:49.000Z</time>
      </trkpt>
      <trkpt lat="42.80391" lon="1.27469">
        <ele>805</ele>
        <time>2019-08-08T13:57:50.000Z</time>
      </trkpt>
      <trkpt lat="42.80389" lon="1.27472">
        <ele>805</ele>
        <time>2019-08-08T13:57:51.000Z</time>
      </trkpt>
      <trkpt lat="42.80387" lon="1.27476">
        <ele>806</ele>
        <time>2019-08-08T13:57:52.000Z</time>
      </trkpt>
      <trkpt lat="42.80385" lon="1.27479">
        <ele>806</ele>
        <time>2019-08-08T13:57:53.000Z</time>
      </trkpt>
      <trkpt lat="42.80383" lon="1.27483">
        <ele>806</ele>
        <time>2019-08-08T13:57:54.000Z</time>
      </trkpt>
      <trkpt lat="42.80381" lon="1.27487">
        <ele>806</ele>
        <time>2019-08-08T13:57:55.000Z</time>
      </trkpt>
      <trkpt lat="42.80379" lon="1.27491">
        <ele>806</ele>
        <time>2019-08-08T13:57:56.000Z</time>
      </trkpt>
      <trkpt lat="42.80377" lon="1.27494">
        <ele>807</ele>
        <time>2019-08-08T13:57:57.000Z</time>
      </trkpt>
      <trkpt lat="42.80374" lon="1.27497">
        <ele>807</ele>
        <time>2019-08-08T13:57:58.000Z</time>
      </trkpt>
      <trkpt lat="42.80372" lon="1.27501">
        <ele>807</ele>
        <time>2019-08-08T13:57:59.000Z</time>
      </trkpt>
      <trkpt lat="42.8037" lon="1.27504">
        <ele>808</ele>
        <time>2019-08-08T13:58:00.000Z</time>
      </trkpt>
      <trkpt lat="42.80368" lon="1.27508">
        <ele>808</ele>
        <time>2019-08-08T13:58:01.000Z</time>
      </trkpt>
      <trkpt lat="42.80366" lon="1.27511">
        <ele>808</ele>
        <time>2019-08-08T13:58:02.000Z</time>
      </trkpt>
      <trkpt lat="42.80364" lon="1.27515">
        <ele>808</ele>
        <time>2019-08-08T13:58:03.000Z</time>
      </trkpt>
      <trkpt lat="42.80362" lon="1.27519">
        <ele>809</ele>
        <time>2019-08-08T13:58:04.000Z</time>
      </trkpt>
      <trkpt lat="42.8036" lon="1.27522">
        <ele>809</ele>
        <time>2019-08-08T13:58:05.000Z</time>
      </trkpt>
      <trkpt lat="42.80358" lon="1.27526">
        <ele>810</ele>
        <time>2019-08-08T13:58:06.000Z</time>
      </trkpt>
      <trkpt lat="42.80356" lon="1.2753">
        <ele>810</ele>
        <time>2019-08-08T13:58:07.000Z</time>
      </trkpt>
      <trkpt lat="42.80354" lon="1.27533">
        <ele>810</ele>
        <time>2019-08-08T13:58:08.000Z</time>
      </trkpt>
      <trkpt lat="42.80352" lon="1.27537">
        <ele>810</ele>
        <time>2019-08-08T13:58:09.000Z</time>
      </trkpt>
      <trkpt lat="42.80351" lon="1.27541">
        <ele>810</ele>
        <time>2019-08-08T13:58:10.000Z</time>
      </trkpt>
      <trkpt lat="42.8035" lon="1.27545">
        <ele>810</ele>
        <time>2019-08-08T13:58:11.000Z</time>
      </trkpt>
      <trkpt lat="42.80348" lon="1.27549">
        <ele>810</ele>
        <time>2019-08-08T13:58:12.000Z</time>
      </trkpt>
      <trkpt lat="42.80347" lon="1.27553">
        <ele>810</ele>
        <time>2019-08-08T13:58:13.000Z</time>
      </trkpt>
      <trkpt lat="42.80346" lon="1.27557">
        <ele>810</ele>
        <time>2019-08-08T13:58:14.000Z</time>
      </trkpt>
      <trkpt lat="42.80346" lon="1.27561">
        <ele>811</ele>
        <time>2019-08-08T13:58:15.000Z</time>
      </trkpt>
      <trkpt lat="42.80345" lon="1.27565">
        <ele>811</ele>
        <time>2019-08-08T13:58:16.000Z</time>
      </trkpt>
      <trkpt lat="42.80344" lon="1.27569">
        <ele>811</ele>
        <time>2019-08-08T13:58:17.000Z</time>
      </trkpt>
      <trkpt lat="42.80343" lon="1.27573">
        <ele>811</ele>
        <time>2019-08-08T13:58:18.000Z</time>
      </trkpt>
      <trkpt lat="42.80343" lon="1.27577">
        <ele>812</ele>
        <time>2019-08-08T13:58:19.000Z</time>
      </trkpt>
      <trkpt lat="42.80342" lon="1.27581">
        <ele>812</ele>
        <time>2019-08-08T13:58:20.000Z</time>
      </trkpt>
      <trkpt lat="42.80342" lon="1.27585">
        <ele>812</ele>
        <time>2019-08-08T13:58:21.000Z</time>
      </trkpt>
      <trkpt lat="42.80341" lon="1.27589">
        <ele>812</ele>
        <time>2019-08-08T13:58:22.000Z</time>
      </trkpt>
      <trkpt lat="42.80341" lon="1.27593">
        <ele>813</ele>
        <time>2019-08-08T13:58:23.000Z</time>
      </trkpt>
      <trkpt lat="42.8034" lon="1.27598">
        <ele>813</ele>
        <time>2019-08-08T13:58:24.000Z</time>
      </trkpt>
      <trkpt lat="42.8034" lon="1.27602">
        <ele>814</ele>
        <time>2019-08-08T13:58:25.000Z</time>
      </trkpt>
      <trkpt lat="42.80339" lon="1.27606">
        <ele>814</ele>
        <time>2019-08-08T13:58:26.000Z</time>
      </trkpt>
      <trkpt lat="42.80339" lon="1.27609">
        <ele>814</ele>
        <time>2019-08-08T13:58:27.000Z</time>
      </trkpt>
      <trkpt lat="42.80339" lon="1.27615">
        <ele>814</ele>
        <time>2019-08-08T13:58:28.000Z</time>
      </trkpt>
      <trkpt lat="42.80338" lon="1.27618">
        <ele>814.4</ele>
        <time>2019-08-08T13:58:29.000Z</time>
      </trkpt>
      <trkpt lat="42.80338" lon="1.27622">
        <ele>815</ele>
        <time>2019-08-08T13:58:30.000Z</time>
      </trkpt>
      <trkpt lat="42.80338" lon="1.27626">
        <ele>815</ele>
        <time>2019-08-08T13:58:31.000Z</time>
      </trkpt>
      <trkpt lat="42.80338" lon="1.2763">
        <ele>815</ele>
        <time>2019-08-08T13:58:32.000Z</time>
      </trkpt>
      <trkpt lat="42.80337" lon="1.27634">
        <ele>816</ele>
        <time>2019-08-08T13:58:33.000Z</time>
      </trkpt>
      <trkpt lat="42.80337" lon="1.27638">
        <ele>816</ele>
        <time>2019-08-08T13:58:34.000Z</time>
      </trkpt>
      <trkpt lat="42.80337" lon="1.27642">
        <ele>816</ele>
        <time>2019-08-08T13:58:35.000Z</time>
      </trkpt>
      <trkpt lat="42.80336" lon="1.27646">
        <ele>816</ele>
        <time>2019-08-08T13:58:36.000Z</time>
      </trkpt>
      <trkpt lat="42.80335" lon="1.2765">
        <ele>817</ele>
        <time>2019-08-08T13:58:37.000Z</time>
      </trkpt>
      <trkpt lat="42.80335" lon="1.27654">
        <ele>817</ele>
        <time>2019-08-08T13:58:38.000Z</time>
      </trkpt>
      <trkpt lat="42.80334" lon="1.27658">
        <ele>818</ele>
        <time>2019-08-08T13:58:39.000Z</time>
      </trkpt>
      <trkpt lat="42.80334" lon="1.27662">
        <ele>818</ele>
        <time>2019-08-08T13:58:40.000Z</time>
      </trkpt>
      <trkpt lat="42.80333" lon="1.27665">
        <ele>818</ele>
        <time>2019-08-08T13:58:41.000Z</time>
      </trkpt>
      <trkpt lat="42.80332" lon="1.27669">
        <ele>818</ele>
        <time>2019-08-08T13:58:42.000Z</time>
      </trkpt>
      <trkpt lat="42.8033" lon="1.27673">
        <ele>818</ele>
        <time>2019-08-08T13:58:43.000Z</time>
      </trkpt>
      <trkpt lat="42.80328" lon="1.27679">
        <ele>819</ele>
        <time>2019-08-08T13:58:44.000Z</time>
      </trkpt>
      <trkpt lat="42.80327" lon="1.2768">
        <ele>819</ele>
        <time>2019-08-08T13:58:45.000Z</time>
      </trkpt>
      <trkpt lat="42.80326" lon="1.27684">
        <ele>820</ele>
        <time>2019-08-08T13:58:46.000Z</time>
      </trkpt>
      <trkpt lat="42.80325" lon="1.27687">
        <ele>820</ele>
        <time>2019-08-08T13:58:47.000Z</time>
      </trkpt>
      <trkpt lat="42.80323" lon="1.27691">
        <ele>820</ele>
        <time>2019-08-08T13:58:48.000Z</time>
      </trkpt>
      <trkpt lat="42.80321" lon="1.27694">
        <ele>820</ele>
        <time>2019-08-08T13:58:49.000Z</time>
      </trkpt>
      <trkpt lat="42.8032" lon="1.27697">
        <ele>820</ele>
        <time>2019-08-08T13:58:50.000Z</time>
      </trkpt>
      <trkpt lat="42.80318" lon="1.27701">
        <ele>820</ele>
        <time>2019-08-08T13:58:51.000Z</time>
      </trkpt>
      <trkpt lat="42.80317" lon="1.27704">
        <ele>821</ele>
        <time>2019-08-08T13:58:52.000Z</time>
      </trkpt>
      <trkpt lat="42.80316" lon="1.27708">
        <ele>821</ele>
        <time>2019-08-08T13:58:53.000Z</time>
      </trkpt>
      <trkpt lat="42.80314" lon="1.27711">
        <ele>821</ele>
        <time>2019-08-08T13:58:54.000Z</time>
      </trkpt>
      <trkpt lat="42.80313" lon="1.27715">
        <ele>821</ele>
        <time>2019-08-08T13:58:55.000Z</time>
      </trkpt>
      <trkpt lat="42.80312" lon="1.27718">
        <ele>821</ele>
        <time>2019-08-08T13:58:56.000Z</time>
      </trkpt>
      <trkpt lat="42.80311" lon="1.27721">
        <ele>821</ele>
        <time>2019-08-08T13:58:57.000Z</time>
      </trkpt>
      <trkpt lat="42.80309" lon="1.27725">
        <ele>822</ele>
        <time>2019-08-08T13:58:58.000Z</time>
      </trkpt>
      <trkpt lat="42.80308" lon="1.27728">
        <ele>822</ele>
        <time>2019-08-08T13:58:59.000Z</time>
      </trkpt>
      <trkpt lat="42.80307" lon="1.27732">
        <ele>822</ele>
        <time>2019-08-08T13:59:00.000Z</time>
      </trkpt>
      <trkpt lat="42.80306" lon="1.27737">
        <ele>823</ele>
        <time>2019-08-08T13:59:01.000Z</time>
      </trkpt>
      <trkpt lat="42.80306" lon="1.27738">
        <ele>823</ele>
        <time>2019-08-08T13:59:02.000Z</time>
      </trkpt>
      <trkpt lat="42.80306" lon="1.27742">
        <ele>824</ele>
        <time>2019-08-08T13:59:03.000Z</time>
      </trkpt>
      <trkpt lat="42.80307" lon="1.27745">
        <ele>824</ele>
        <time>2019-08-08T13:59:04.000Z</time>
      </trkpt>
      <trkpt lat="42.80307" lon="1.27748">
        <ele>824</ele>
        <time>2019-08-08T13:59:05.000Z</time>
      </trkpt>
      <trkpt lat="42.80309" lon="1.27751">
        <ele>824</ele>
        <time>2019-08-08T13:59:06.000Z</time>
      </trkpt>
      <trkpt lat="42.80311" lon="1.27753">
        <ele>824</ele>
        <time>2019-08-08T13:59:07.000Z</time>
      </trkpt>
      <trkpt lat="42.80313" lon="1.27755">
        <ele>824</ele>
        <time>2019-08-08T13:59:08.000Z</time>
      </trkpt>
      <trkpt lat="42.80316" lon="1.27755">
        <ele>825</ele>
        <time>2019-08-08T13:59:09.000Z</time>
      </trkpt>
      <trkpt lat="42.80321" lon="1.27753">
        <ele>825</ele>
        <time>2019-08-08T13:59:10.000Z</time>
      </trkpt>
      <trkpt lat="42.80322" lon="1.27753">
        <ele>825</ele>
        <time>2019-08-08T13:59:11.000Z</time>
      </trkpt>
      <trkpt lat="42.80326" lon="1.2775">
        <ele>826</ele>
        <time>2019-08-08T13:59:12.000Z</time>
      </trkpt>
      <trkpt lat="42.80327" lon="1.27748">
        <ele>826</ele>
        <time>2019-08-08T13:59:13.000Z</time>
      </trkpt>
      <trkpt lat="42.80329" lon="1.27745">
        <ele>826</ele>
        <time>2019-08-08T13:59:14.000Z</time>
      </trkpt>
      <trkpt lat="42.80331" lon="1.27742">
        <ele>826</ele>
        <time>2019-08-08T13:59:15.000Z</time>
      </trkpt>
      <trkpt lat="42.80333" lon="1.2774">
        <ele>826</ele>
        <time>2019-08-08T13:59:16.000Z</time>
      </trkpt>
      <trkpt lat="42.80335" lon="1.27737">
        <ele>826</ele>
        <time>2019-08-08T13:59:17.000Z</time>
      </trkpt>
      <trkpt lat="42.80338" lon="1.27733">
        <ele>826</ele>
        <time>2019-08-08T13:59:18.000Z</time>
      </trkpt>
      <trkpt lat="42.80339" lon="1.27732">
        <ele>827</ele>
        <time>2019-08-08T13:59:19.000Z</time>
      </trkpt>
      <trkpt lat="42.80342" lon="1.27729">
        <ele>827</ele>
        <time>2019-08-08T13:59:20.000Z</time>
      </trkpt>
      <trkpt lat="42.80344" lon="1.27727">
        <ele>828</ele>
        <time>2019-08-08T13:59:21.000Z</time>
      </trkpt>
      <trkpt lat="42.80346" lon="1.27725">
        <ele>828</ele>
        <time>2019-08-08T13:59:22.000Z</time>
      </trkpt>
      <trkpt lat="42.80349" lon="1.27722">
        <ele>828</ele>
        <time>2019-08-08T13:59:23.000Z</time>
      </trkpt>
      <trkpt lat="42.80352" lon="1.27718">
        <ele>829</ele>
        <time>2019-08-08T13:59:24.000Z</time>
      </trkpt>
      <trkpt lat="42.80353" lon="1.27717">
        <ele>829</ele>
        <time>2019-08-08T13:59:25.000Z</time>
      </trkpt>
      <trkpt lat="42.80355" lon="1.27714">
        <ele>829</ele>
        <time>2019-08-08T13:59:26.000Z</time>
      </trkpt>
      <trkpt lat="42.80356" lon="1.27711">
        <ele>829</ele>
        <time>2019-08-08T13:59:27.000Z</time>
      </trkpt>
      <trkpt lat="42.80358" lon="1.27707">
        <ele>829</ele>
        <time>2019-08-08T13:59:28.000Z</time>
      </trkpt>
      <trkpt lat="42.8036" lon="1.27704">
        <ele>829</ele>
        <time>2019-08-08T13:59:29.000Z</time>
      </trkpt>
      <trkpt lat="42.80362" lon="1.27701">
        <ele>829</ele>
        <time>2019-08-08T13:59:30.000Z</time>
      </trkpt>
      <trkpt lat="42.80363" lon="1.27698">
        <ele>829</ele>
        <time>2019-08-08T13:59:31.000Z</time>
      </trkpt>
      <trkpt lat="42.80365" lon="1.27694">
        <ele>829</ele>
        <time>2019-08-08T13:59:32.000Z</time>
      </trkpt>
      <trkpt lat="42.80367" lon="1.27691">
        <ele>829</ele>
        <time>2019-08-08T13:59:33.000Z</time>
      </trkpt>
      <trkpt lat="42.80368" lon="1.27688">
        <ele>830</ele>
        <time>2019-08-08T13:59:34.000Z</time>
      </trkpt>
      <trkpt lat="42.8037" lon="1.27684">
        <ele>830</ele>
        <time>2019-08-08T13:59:35.000Z</time>
      </trkpt>
      <trkpt lat="42.80371" lon="1.27681">
        <ele>830</ele>
        <time>2019-08-08T13:59:36.000Z</time>
      </trkpt>
      <trkpt lat="42.80373" lon="1.27677">
        <ele>830</ele>
        <time>2019-08-08T13:59:37.000Z</time>
      </trkpt>
      <trkpt lat="42.80375" lon="1.27674">
        <ele>831</ele>
        <time>2019-08-08T13:59:38.000Z</time>
      </trkpt>
      <trkpt lat="42.80376" lon="1.27671">
        <ele>831</ele>
        <time>2019-08-08T13:59:39.000Z</time>
      </trkpt>
      <trkpt lat="42.80378" lon="1.27668">
        <ele>831</ele>
        <time>2019-08-08T13:59:40.000Z</time>
      </trkpt>
      <trkpt lat="42.8038" lon="1.27665">
        <ele>832</ele>
        <time>2019-08-08T13:59:41.000Z</time>
      </trkpt>
      <trkpt lat="42.80382" lon="1.27662">
        <ele>832</ele>
        <time>2019-08-08T13:59:42.000Z</time>
      </trkpt>
      <trkpt lat="42.80383" lon="1.27658">
        <ele>832</ele>
        <time>2019-08-08T13:59:43.000Z</time>
      </trkpt>
      <trkpt lat="42.80384" lon="1.27655">
        <ele>832</ele>
        <time>2019-08-08T13:59:44.000Z</time>
      </trkpt>
      <trkpt lat="42.80386" lon="1.27651">
        <ele>832</ele>
        <time>2019-08-08T13:59:45.000Z</time>
      </trkpt>
      <trkpt lat="42.80387" lon="1.27648">
        <ele>832</ele>
        <time>2019-08-08T13:59:46.000Z</time>
      </trkpt>
      <trkpt lat="42.80389" lon="1.27644">
        <ele>833</ele>
        <time>2019-08-08T13:59:47.000Z</time>
      </trkpt>
      <trkpt lat="42.8039" lon="1.27641">
        <ele>833</ele>
        <time>2019-08-08T13:59:48.000Z</time>
      </trkpt>
      <trkpt lat="42.80392" lon="1.27638">
        <ele>834</ele>
        <time>2019-08-08T13:59:49.000Z</time>
      </trkpt>
      <trkpt lat="42.80393" lon="1.27635">
        <ele>834</ele>
        <time>2019-08-08T13:59:50.000Z</time>
      </trkpt>
      <trkpt lat="42.80395" lon="1.27632">
        <ele>834</ele>
        <time>2019-08-08T13:59:51.000Z</time>
      </trkpt>
      <trkpt lat="42.80398" lon="1.27627">
        <ele>834</ele>
        <time>2019-08-08T13:59:52.000Z</time>
      </trkpt>
      <trkpt lat="42.80399" lon="1.27626">
        <ele>835</ele>
        <time>2019-08-08T13:59:53.000Z</time>
      </trkpt>
      <trkpt lat="42.804" lon="1.27623">
        <ele>835</ele>
        <time>2019-08-08T13:59:54.000Z</time>
      </trkpt>
      <trkpt lat="42.80402" lon="1.27619">
        <ele>835</ele>
        <time>2019-08-08T13:59:55.000Z</time>
      </trkpt>
      <trkpt lat="42.80404" lon="1.27616">
        <ele>835</ele>
        <time>2019-08-08T13:59:56.000Z</time>
      </trkpt>
      <trkpt lat="42.80407" lon="1.27612">
        <ele>836</ele>
        <time>2019-08-08T13:59:57.000Z</time>
      </trkpt>
      <trkpt lat="42.80408" lon="1.2761">
        <ele>836</ele>
        <time>2019-08-08T13:59:58.000Z</time>
      </trkpt>
      <trkpt lat="42.80409" lon="1.27607">
        <ele>836</ele>
        <time>2019-08-08T13:59:59.000Z</time>
      </trkpt>
      <trkpt lat="42.80411" lon="1.27604">
        <ele>836</ele>
        <time>2019-08-08T14:00:00.000Z</time>
      </trkpt>
      <trkpt lat="42.80413" lon="1.27601">
        <ele>837</ele>
        <time>2019-08-08T14:00:01.000Z</time>
      </trkpt>
      <trkpt lat="42.80415" lon="1.27598">
        <ele>837</ele>
        <time>2019-08-08T14:00:02.000Z</time>
      </trkpt>
      <trkpt lat="42.80417" lon="1.27595">
        <ele>837</ele>
        <time>2019-08-08T14:00:03.000Z</time>
      </trkpt>
      <trkpt lat="42.80418" lon="1.27592">
        <ele>837</ele>
        <time>2019-08-08T14:00:04.000Z</time>
      </trkpt>
      <trkpt lat="42.8042" lon="1.2759">
        <ele>838</ele>
        <time>2019-08-08T14:00:05.000Z</time>
      </trkpt>
      <trkpt lat="42.80422" lon="1.27587">
        <ele>838</ele>
        <time>2019-08-08T14:00:06.000Z</time>
      </trkpt>
      <trkpt lat="42.80424" lon="1.27584">
        <ele>838</ele>
        <time>2019-08-08T14:00:07.000Z</time>
      </trkpt>
      <trkpt lat="42.80426" lon="1.27582">
        <ele>838</ele>
        <time>2019-08-08T14:00:08.000Z</time>
      </trkpt>
      <trkpt lat="42.80427" lon="1.27579">
        <ele>838</ele>
        <time>2019-08-08T14:00:09.000Z</time>
      </trkpt>
      <trkpt lat="42.80429" lon="1.27576">
        <ele>839</ele>
        <time>2019-08-08T14:00:10.000Z</time>
      </trkpt>
      <trkpt lat="42.80431" lon="1.27573">
        <ele>839</ele>
        <time>2019-08-08T14:00:11.000Z</time>
      </trkpt>
      <trkpt lat="42.80433" lon="1.27571">
        <ele>839</ele>
        <time>2019-08-08T14:00:12.000Z</time>
      </trkpt>
      <trkpt lat="42.80436" lon="1.27567">
        <ele>839</ele>
        <time>2019-08-08T14:00:13.000Z</time>
      </trkpt>
      <trkpt lat="42.80437" lon="1.27565">
        <ele>840</ele>
        <time>2019-08-08T14:00:14.000Z</time>
      </trkpt>
      <trkpt lat="42.80439" lon="1.27563">
        <ele>840</ele>
        <time>2019-08-08T14:00:15.000Z</time>
      </trkpt>
      <trkpt lat="42.80441" lon="1.27559">
        <ele>841</ele>
        <time>2019-08-08T14:00:16.000Z</time>
      </trkpt>
      <trkpt lat="42.80442" lon="1.27557">
        <ele>841</ele>
        <time>2019-08-08T14:00:17.000Z</time>
      </trkpt>
      <trkpt lat="42.80444" lon="1.27555">
        <ele>841</ele>
        <time>2019-08-08T14:00:18.000Z</time>
      </trkpt>
      <trkpt lat="42.80446" lon="1.27552">
        <ele>841</ele>
        <time>2019-08-08T14:00:19.000Z</time>
      </trkpt>
      <trkpt lat="42.80447" lon="1.27549">
        <ele>841</ele>
        <time>2019-08-08T14:00:20.000Z</time>
      </trkpt>
      <trkpt lat="42.80449" lon="1.27547">
        <ele>841</ele>
        <time>2019-08-08T14:00:21.000Z</time>
      </trkpt>
      <trkpt lat="42.80451" lon="1.27544">
        <ele>842</ele>
        <time>2019-08-08T14:00:22.000Z</time>
      </trkpt>
      <trkpt lat="42.80452" lon="1.27542">
        <ele>842</ele>
        <time>2019-08-08T14:00:23.000Z</time>
      </trkpt>
      <trkpt lat="42.80454" lon="1.2754">
        <ele>842</ele>
        <time>2019-08-08T14:00:24.000Z</time>
      </trkpt>
      <trkpt lat="42.80456" lon="1.27538">
        <ele>843</ele>
        <time>2019-08-08T14:00:25.000Z</time>
      </trkpt>
      <trkpt lat="42.80458" lon="1.27535">
        <ele>843</ele>
        <time>2019-08-08T14:00:26.000Z</time>
      </trkpt>
      <trkpt lat="42.80461" lon="1.27533">
        <ele>843</ele>
        <time>2019-08-08T14:00:27.000Z</time>
      </trkpt>
      <trkpt lat="42.80463" lon="1.27531">
        <ele>843</ele>
        <time>2019-08-08T14:00:28.000Z</time>
      </trkpt>
      <trkpt lat="42.80465" lon="1.27529">
        <ele>843</ele>
        <time>2019-08-08T14:00:29.000Z</time>
      </trkpt>
      <trkpt lat="42.80467" lon="1.27527">
        <ele>844</ele>
        <time>2019-08-08T14:00:30.000Z</time>
      </trkpt>
      <trkpt lat="42.80469" lon="1.27525">
        <ele>844</ele>
        <time>2019-08-08T14:00:31.000Z</time>
      </trkpt>
      <trkpt lat="42.80472" lon="1.27522">
        <ele>845</ele>
        <time>2019-08-08T14:00:32.000Z</time>
      </trkpt>
      <trkpt lat="42.80474" lon="1.2752">
        <ele>845</ele>
        <time>2019-08-08T14:00:33.000Z</time>
      </trkpt>
      <trkpt lat="42.80476" lon="1.27517">
        <ele>846</ele>
        <time>2019-08-08T14:00:34.000Z</time>
      </trkpt>
      <trkpt lat="42.80479" lon="1.27514">
        <ele>846</ele>
        <time>2019-08-08T14:00:35.000Z</time>
      </trkpt>
      <trkpt lat="42.80481" lon="1.27511">
        <ele>846</ele>
        <time>2019-08-08T14:00:36.000Z</time>
      </trkpt>
      <trkpt lat="42.80483" lon="1.27508">
        <ele>846</ele>
        <time>2019-08-08T14:00:37.000Z</time>
      </trkpt>
      <trkpt lat="42.80485" lon="1.27505">
        <ele>847</ele>
        <time>2019-08-08T14:00:38.000Z</time>
      </trkpt>
      <trkpt lat="42.80487" lon="1.27502">
        <ele>847</ele>
        <time>2019-08-08T14:00:39.000Z</time>
      </trkpt>
      <trkpt lat="42.8049" lon="1.275">
        <ele>847</ele>
        <time>2019-08-08T14:00:40.000Z</time>
      </trkpt>
      <trkpt lat="42.80492" lon="1.27497">
        <ele>847</ele>
        <time>2019-08-08T14:00:41.000Z</time>
      </trkpt>
      <trkpt lat="42.80494" lon="1.27494">
        <ele>847</ele>
        <time>2019-08-08T14:00:42.000Z</time>
      </trkpt>
      <trkpt lat="42.80497" lon="1.27491">
        <ele>847</ele>
        <time>2019-08-08T14:00:43.000Z</time>
      </trkpt>
      <trkpt lat="42.80499" lon="1.27487">
        <ele>847</ele>
        <time>2019-08-08T14:00:44.000Z</time>
      </trkpt>
      <trkpt lat="42.80501" lon="1.27484">
        <ele>847</ele>
        <time>2019-08-08T14:00:45.000Z</time>
      </trkpt>
      <trkpt lat="42.80503" lon="1.27481">
        <ele>847</ele>
        <time>2019-08-08T14:00:46.000Z</time>
      </trkpt>
      <trkpt lat="42.80505" lon="1.27479">
        <ele>848</ele>
        <time>2019-08-08T14:00:47.000Z</time>
      </trkpt>
      <trkpt lat="42.80507" lon="1.27476">
        <ele>848</ele>
        <time>2019-08-08T14:00:48.000Z</time>
      </trkpt>
      <trkpt lat="42.80509" lon="1.27473">
        <ele>848</ele>
        <time>2019-08-08T14:00:49.000Z</time>
      </trkpt>
      <trkpt lat="42.80511" lon="1.2747">
        <ele>848</ele>
        <time>2019-08-08T14:00:50.000Z</time>
      </trkpt>
      <trkpt lat="42.80514" lon="1.27467">
        <ele>849</ele>
        <time>2019-08-08T14:00:51.000Z</time>
      </trkpt>
      <trkpt lat="42.80516" lon="1.27466">
        <ele>849</ele>
        <time>2019-08-08T14:00:52.000Z</time>
      </trkpt>
      <trkpt lat="42.80519" lon="1.27465">
        <ele>849</ele>
        <time>2019-08-08T14:00:53.000Z</time>
      </trkpt>
      <trkpt lat="42.80522" lon="1.27465">
        <ele>849</ele>
        <time>2019-08-08T14:00:54.000Z</time>
      </trkpt>
      <trkpt lat="42.80525" lon="1.27466">
        <ele>850</ele>
        <time>2019-08-08T14:00:55.000Z</time>
      </trkpt>
      <trkpt lat="42.80527" lon="1.27469">
        <ele>850</ele>
        <time>2019-08-08T14:00:56.000Z</time>
      </trkpt>
      <trkpt lat="42.80528" lon="1.27473">
        <ele>851</ele>
        <time>2019-08-08T14:00:57.000Z</time>
      </trkpt>
      <trkpt lat="42.80528" lon="1.27478">
        <ele>851</ele>
        <time>2019-08-08T14:00:58.000Z</time>
      </trkpt>
      <trkpt lat="42.80527" lon="1.2748">
        <ele>851</ele>
        <time>2019-08-08T14:00:59.000Z</time>
      </trkpt>
      <trkpt lat="42.80526" lon="1.27484">
        <ele>851</ele>
        <time>2019-08-08T14:01:00.000Z</time>
      </trkpt>
      <trkpt lat="42.80525" lon="1.27487">
        <ele>851</ele>
        <time>2019-08-08T14:01:01.000Z</time>
      </trkpt>
      <trkpt lat="42.80522" lon="1.2749">
        <ele>851</ele>
        <time>2019-08-08T14:01:02.000Z</time>
      </trkpt>
      <trkpt lat="42.80519" lon="1.27492">
        <ele>852</ele>
        <time>2019-08-08T14:01:03.000Z</time>
      </trkpt>
      <trkpt lat="42.80516" lon="1.27494">
        <ele>852</ele>
        <time>2019-08-08T14:01:04.000Z</time>
      </trkpt>
      <trkpt lat="42.80513" lon="1.27496">
        <ele>852</ele>
        <time>2019-08-08T14:01:05.000Z</time>
      </trkpt>
      <trkpt lat="42.80511" lon="1.27499">
        <ele>853</ele>
        <time>2019-08-08T14:01:06.000Z</time>
      </trkpt>
      <trkpt lat="42.80508" lon="1.27501">
        <ele>853</ele>
        <time>2019-08-08T14:01:07.000Z</time>
      </trkpt>
      <trkpt lat="42.80505" lon="1.27503">
        <ele>853</ele>
        <time>2019-08-08T14:01:08.000Z</time>
      </trkpt>
      <trkpt lat="42.80503" lon="1.27506">
        <ele>853</ele>
        <time>2019-08-08T14:01:09.000Z</time>
      </trkpt>
      <trkpt lat="42.805" lon="1.27509">
        <ele>854</ele>
        <time>2019-08-08T14:01:10.000Z</time>
      </trkpt>
      <trkpt lat="42.80498" lon="1.27511">
        <ele>854</ele>
        <time>2019-08-08T14:01:11.000Z</time>
      </trkpt>
      <trkpt lat="42.80496" lon="1.27514">
        <ele>854</ele>
        <time>2019-08-08T14:01:12.000Z</time>
      </trkpt>
      <trkpt lat="42.80494" lon="1.27516">
        <ele>854</ele>
        <time>2019-08-08T14:01:13.000Z</time>
      </trkpt>
      <trkpt lat="42.80492" lon="1.27519">
        <ele>855</ele>
        <time>2019-08-08T14:01:14.000Z</time>
      </trkpt>
      <trkpt lat="42.8049" lon="1.27522">
        <ele>855</ele>
        <time>2019-08-08T14:01:15.000Z</time>
      </trkpt>
      <trkpt lat="42.80488" lon="1.27524">
        <ele>856</ele>
        <time>2019-08-08T14:01:16.000Z</time>
      </trkpt>
      <trkpt lat="42.80486" lon="1.27527">
        <ele>856</ele>
        <time>2019-08-08T14:01:17.000Z</time>
      </trkpt>
      <trkpt lat="42.80484" lon="1.2753">
        <ele>856</ele>
        <time>2019-08-08T14:01:18.000Z</time>
      </trkpt>
      <trkpt lat="42.80483" lon="1.27533">
        <ele>856</ele>
        <time>2019-08-08T14:01:19.000Z</time>
      </trkpt>
      <trkpt lat="42.80481" lon="1.27536">
        <ele>856</ele>
        <time>2019-08-08T14:01:20.000Z</time>
      </trkpt>
      <trkpt lat="42.80478" lon="1.2754">
        <ele>856</ele>
        <time>2019-08-08T14:01:21.000Z</time>
      </trkpt>
      <trkpt lat="42.80477" lon="1.27542">
        <ele>856.4</ele>
        <time>2019-08-08T14:01:22.000Z</time>
      </trkpt>
      <trkpt lat="42.80475" lon="1.27545">
        <ele>857</ele>
        <time>2019-08-08T14:01:23.000Z</time>
      </trkpt>
      <trkpt lat="42.80473" lon="1.27548">
        <ele>857</ele>
        <time>2019-08-08T14:01:24.000Z</time>
      </trkpt>
      <trkpt lat="42.80472" lon="1.27552">
        <ele>857</ele>
        <time>2019-08-08T14:01:25.000Z</time>
      </trkpt>
      <trkpt lat="42.80471" lon="1.27555">
        <ele>857</ele>
        <time>2019-08-08T14:01:26.000Z</time>
      </trkpt>
      <trkpt lat="42.80469" lon="1.27558">
        <ele>857</ele>
        <time>2019-08-08T14:01:27.000Z</time>
      </trkpt>
      <trkpt lat="42.80467" lon="1.27562">
        <ele>858</ele>
        <time>2019-08-08T14:01:28.000Z</time>
      </trkpt>
      <trkpt lat="42.80466" lon="1.27565">
        <ele>858</ele>
        <time>2019-08-08T14:01:29.000Z</time>
      </trkpt>
      <trkpt lat="42.80464" lon="1.27568">
        <ele>858</ele>
        <time>2019-08-08T14:01:30.000Z</time>
      </trkpt>
      <trkpt lat="42.80462" lon="1.27574">
        <ele>858</ele>
        <time>2019-08-08T14:01:31.000Z</time>
      </trkpt>
      <trkpt lat="42.80462" lon="1.27575">
        <ele>859</ele>
        <time>2019-08-08T14:01:32.000Z</time>
      </trkpt>
      <trkpt lat="42.8046" lon="1.27579">
        <ele>859</ele>
        <time>2019-08-08T14:01:33.000Z</time>
      </trkpt>
      <trkpt lat="42.80459" lon="1.27582">
        <ele>859</ele>
        <time>2019-08-08T14:01:34.000Z</time>
      </trkpt>
      <trkpt lat="42.80458" lon="1.27586">
        <ele>859</ele>
        <time>2019-08-08T14:01:35.000Z</time>
      </trkpt>
      <trkpt lat="42.80457" lon="1.2759">
        <ele>859</ele>
        <time>2019-08-08T14:01:36.000Z</time>
      </trkpt>
      <trkpt lat="42.80456" lon="1.27595">
        <ele>861</ele>
        <time>2019-08-08T14:01:37.000Z</time>
      </trkpt>
      <trkpt lat="42.80455" lon="1.27597">
        <ele>861</ele>
        <time>2019-08-08T14:01:38.000Z</time>
      </trkpt>
      <trkpt lat="42.80454" lon="1.276">
        <ele>861</ele>
        <time>2019-08-08T14:01:39.000Z</time>
      </trkpt>
      <trkpt lat="42.80453" lon="1.27604">
        <ele>861</ele>
        <time>2019-08-08T14:01:40.000Z</time>
      </trkpt>
      <trkpt lat="42.80452" lon="1.27608">
        <ele>861</ele>
        <time>2019-08-08T14:01:41.000Z</time>
      </trkpt>
      <trkpt lat="42.8045" lon="1.27611">
        <ele>861</ele>
        <time>2019-08-08T14:01:42.000Z</time>
      </trkpt>
      <trkpt lat="42.80449" lon="1.27615">
        <ele>861</ele>
        <time>2019-08-08T14:01:43.000Z</time>
      </trkpt>
      <trkpt lat="42.80448" lon="1.27618">
        <ele>862</ele>
        <time>2019-08-08T14:01:44.000Z</time>
      </trkpt>
      <trkpt lat="42.80447" lon="1.27622">
        <ele>862</ele>
        <time>2019-08-08T14:01:45.000Z</time>
      </trkpt>
      <trkpt lat="42.80446" lon="1.27625">
        <ele>863</ele>
        <time>2019-08-08T14:01:46.000Z</time>
      </trkpt>
      <trkpt lat="42.80444" lon="1.27629">
        <ele>863</ele>
        <time>2019-08-08T14:01:47.000Z</time>
      </trkpt>
      <trkpt lat="42.80444" lon="1.27633">
        <ele>863</ele>
        <time>2019-08-08T14:01:48.000Z</time>
      </trkpt>
      <trkpt lat="42.80443" lon="1.27637">
        <ele>863</ele>
        <time>2019-08-08T14:01:49.000Z</time>
      </trkpt>
      <trkpt lat="42.80442" lon="1.27641">
        <ele>864</ele>
        <time>2019-08-08T14:01:50.000Z</time>
      </trkpt>
      <trkpt lat="42.80442" lon="1.27644">
        <ele>864</ele>
        <time>2019-08-08T14:01:51.000Z</time>
      </trkpt>
      <trkpt lat="42.80441" lon="1.27648">
        <ele>864</ele>
        <time>2019-08-08T14:01:52.000Z</time>
      </trkpt>
      <trkpt lat="42.8044" lon="1.27652">
        <ele>864</ele>
        <time>2019-08-08T14:01:53.000Z</time>
      </trkpt>
      <trkpt lat="42.80439" lon="1.27655">
        <ele>864</ele>
        <time>2019-08-08T14:01:54.000Z</time>
      </trkpt>
      <trkpt lat="42.80439" lon="1.27659">
        <ele>864</ele>
        <time>2019-08-08T14:01:55.000Z</time>
      </trkpt>
      <trkpt lat="42.80438" lon="1.27663">
        <ele>865</ele>
        <time>2019-08-08T14:01:56.000Z</time>
      </trkpt>
      <trkpt lat="42.80437" lon="1.27667">
        <ele>865</ele>
        <time>2019-08-08T14:01:57.000Z</time>
      </trkpt>
      <trkpt lat="42.80436" lon="1.27671">
        <ele>865</ele>
        <time>2019-08-08T14:01:58.000Z</time>
      </trkpt>
      <trkpt lat="42.80435" lon="1.27675">
        <ele>865</ele>
        <time>2019-08-08T14:01:59.000Z</time>
      </trkpt>
      <trkpt lat="42.80435" lon="1.27678">
        <ele>865</ele>
        <time>2019-08-08T14:02:00.000Z</time>
      </trkpt>
      <trkpt lat="42.80434" lon="1.27682">
        <ele>865</ele>
        <time>2019-08-08T14:02:01.000Z</time>
      </trkpt>
      <trkpt lat="42.80433" lon="1.27686">
        <ele>865</ele>
        <time>2019-08-08T14:02:02.000Z</time>
      </trkpt>
      <trkpt lat="42.80432" lon="1.2769">
        <ele>865</ele>
        <time>2019-08-08T14:02:03.000Z</time>
      </trkpt>
      <trkpt lat="42.80431" lon="1.27694">
        <ele>865</ele>
        <time>2019-08-08T14:02:04.000Z</time>
      </trkpt>
      <trkpt lat="42.8043" lon="1.27698">
        <ele>865</ele>
        <time>2019-08-08T14:02:05.000Z</time>
      </trkpt>
      <trkpt lat="42.8043" lon="1.27701">
        <ele>866</ele>
        <time>2019-08-08T14:02:06.000Z</time>
      </trkpt>
      <trkpt lat="42.80429" lon="1.27705">
        <ele>866</ele>
        <time>2019-08-08T14:02:07.000Z</time>
      </trkpt>
      <trkpt lat="42.80429" lon="1.27709">
        <ele>867</ele>
        <time>2019-08-08T14:02:08.000Z</time>
      </trkpt>
      <trkpt lat="42.80428" lon="1.27712">
        <ele>867</ele>
        <time>2019-08-08T14:02:09.000Z</time>
      </trkpt>
      <trkpt lat="42.80427" lon="1.27716">
        <ele>867</ele>
        <time>2019-08-08T14:02:10.000Z</time>
      </trkpt>
      <trkpt lat="42.80427" lon="1.2772">
        <ele>867</ele>
        <time>2019-08-08T14:02:11.000Z</time>
      </trkpt>
      <trkpt lat="42.80426" lon="1.27723">
        <ele>868</ele>
        <time>2019-08-08T14:02:12.000Z</time>
      </trkpt>
      <trkpt lat="42.80426" lon="1.27729">
        <ele>868</ele>
        <time>2019-08-08T14:02:13.000Z</time>
      </trkpt>
      <trkpt lat="42.80425" lon="1.27731">
        <ele>868</ele>
        <time>2019-08-08T14:02:14.000Z</time>
      </trkpt>
      <trkpt lat="42.80425" lon="1.27734">
        <ele>868</ele>
        <time>2019-08-08T14:02:15.000Z</time>
      </trkpt>
      <trkpt lat="42.80425" lon="1.27738">
        <ele>868</ele>
        <time>2019-08-08T14:02:16.000Z</time>
      </trkpt>
      <trkpt lat="42.80425" lon="1.27742">
        <ele>868</ele>
        <time>2019-08-08T14:02:17.000Z</time>
      </trkpt>
      <trkpt lat="42.80425" lon="1.27745">
        <ele>868</ele>
        <time>2019-08-08T14:02:18.000Z</time>
      </trkpt>
      <trkpt lat="42.80424" lon="1.27748">
        <ele>868</ele>
        <time>2019-08-08T14:02:19.000Z</time>
      </trkpt>
      <trkpt lat="42.80424" lon="1.27752">
        <ele>869</ele>
        <time>2019-08-08T14:02:20.000Z</time>
      </trkpt>
      <trkpt lat="42.80423" lon="1.27757">
        <ele>869</ele>
        <time>2019-08-08T14:02:21.000Z</time>
      </trkpt>
      <trkpt lat="42.80423" lon="1.27759">
        <ele>870</ele>
        <time>2019-08-08T14:02:22.000Z</time>
      </trkpt>
      <trkpt lat="42.80422" lon="1.27762">
        <ele>870</ele>
        <time>2019-08-08T14:02:23.000Z</time>
      </trkpt>
      <trkpt lat="42.80422" lon="1.27766">
        <ele>870</ele>
        <time>2019-08-08T14:02:24.000Z</time>
      </trkpt>
      <trkpt lat="42.80422" lon="1.27769">
        <ele>871</ele>
        <time>2019-08-08T14:02:25.000Z</time>
      </trkpt>
      <trkpt lat="42.80421" lon="1.27772">
        <ele>871</ele>
        <time>2019-08-08T14:02:26.000Z</time>
      </trkpt>
      <trkpt lat="42.8042" lon="1.27775">
        <ele>871</ele>
        <time>2019-08-08T14:02:27.000Z</time>
      </trkpt>
      <trkpt lat="42.8042" lon="1.27778">
        <ele>871</ele>
        <time>2019-08-08T14:02:28.000Z</time>
      </trkpt>
      <trkpt lat="42.80419" lon="1.27782">
        <ele>872</ele>
        <time>2019-08-08T14:02:29.000Z</time>
      </trkpt>
      <trkpt lat="42.80419" lon="1.27785">
        <ele>872</ele>
        <time>2019-08-08T14:02:30.000Z</time>
      </trkpt>
      <trkpt lat="42.80418" lon="1.27789">
        <ele>872</ele>
        <time>2019-08-08T14:02:31.000Z</time>
      </trkpt>
      <trkpt lat="42.80417" lon="1.27792">
        <ele>872</ele>
        <time>2019-08-08T14:02:32.000Z</time>
      </trkpt>
      <trkpt lat="42.80416" lon="1.27795">
        <ele>873</ele>
        <time>2019-08-08T14:02:33.000Z</time>
      </trkpt>
      <trkpt lat="42.80415" lon="1.27799">
        <ele>873</ele>
        <time>2019-08-08T14:02:34.000Z</time>
      </trkpt>
      <trkpt lat="42.80414" lon="1.27802">
        <ele>873</ele>
        <time>2019-08-08T14:02:35.000Z</time>
      </trkpt>
      <trkpt lat="42.80413" lon="1.27805">
        <ele>873</ele>
        <time>2019-08-08T14:02:36.000Z</time>
      </trkpt>
      <trkpt lat="42.8041" lon="1.2781">
        <ele>873</ele>
        <time>2019-08-08T14:02:37.000Z</time>
      </trkpt>
      <trkpt lat="42.80408" lon="1.27812">
        <ele>874</ele>
        <time>2019-08-08T14:02:38.000Z</time>
      </trkpt>
      <trkpt lat="42.80406" lon="1.27815">
        <ele>874</ele>
        <time>2019-08-08T14:02:39.000Z</time>
      </trkpt>
      <trkpt lat="42.80404" lon="1.27818">
        <ele>874</ele>
        <time>2019-08-08T14:02:40.000Z</time>
      </trkpt>
      <trkpt lat="42.80402" lon="1.27821">
        <ele>874</ele>
        <time>2019-08-08T14:02:41.000Z</time>
      </trkpt>
      <trkpt lat="42.804" lon="1.27825">
        <ele>874</ele>
        <time>2019-08-08T14:02:42.000Z</time>
      </trkpt>
      <trkpt lat="42.80397" lon="1.27827">
        <ele>874</ele>
        <time>2019-08-08T14:02:43.000Z</time>
      </trkpt>
      <trkpt lat="42.80395" lon="1.27829">
        <ele>875</ele>
        <time>2019-08-08T14:02:44.000Z</time>
      </trkpt>
      <trkpt lat="42.80392" lon="1.27831">
        <ele>875</ele>
        <time>2019-08-08T14:02:45.000Z</time>
      </trkpt>
      <trkpt lat="42.8039" lon="1.27833">
        <ele>875</ele>
        <time>2019-08-08T14:02:46.000Z</time>
      </trkpt>
      <trkpt lat="42.80388" lon="1.27836">
        <ele>875</ele>
        <time>2019-08-08T14:02:47.000Z</time>
      </trkpt>
      <trkpt lat="42.80386" lon="1.27838">
        <ele>876</ele>
        <time>2019-08-08T14:02:48.000Z</time>
      </trkpt>
      <trkpt lat="42.80384" lon="1.27841">
        <ele>876</ele>
        <time>2019-08-08T14:02:49.000Z</time>
      </trkpt>
      <trkpt lat="42.80382" lon="1.27844">
        <ele>876</ele>
        <time>2019-08-08T14:02:50.000Z</time>
      </trkpt>
      <trkpt lat="42.80381" lon="1.27847">
        <ele>876</ele>
        <time>2019-08-08T14:02:51.000Z</time>
      </trkpt>
      <trkpt lat="42.8038" lon="1.27851">
        <ele>877</ele>
        <time>2019-08-08T14:02:52.000Z</time>
      </trkpt>
      <trkpt lat="42.80379" lon="1.27854">
        <ele>877</ele>
        <time>2019-08-08T14:02:53.000Z</time>
      </trkpt>
      <trkpt lat="42.80379" lon="1.27858">
        <ele>878</ele>
        <time>2019-08-08T14:02:54.000Z</time>
      </trkpt>
      <trkpt lat="42.80379" lon="1.27862">
        <ele>878</ele>
        <time>2019-08-08T14:02:55.000Z</time>
      </trkpt>
      <trkpt lat="42.80378" lon="1.27866">
        <ele>878</ele>
        <time>2019-08-08T14:02:56.000Z</time>
      </trkpt>
      <trkpt lat="42.80378" lon="1.2787">
        <ele>879</ele>
        <time>2019-08-08T14:02:57.000Z</time>
      </trkpt>
      <trkpt lat="42.80377" lon="1.27873">
        <ele>879</ele>
        <time>2019-08-08T14:02:58.000Z</time>
      </trkpt>
      <trkpt lat="42.80376" lon="1.27877">
        <ele>879</ele>
        <time>2019-08-08T14:02:59.000Z</time>
      </trkpt>
      <trkpt lat="42.80376" lon="1.27881">
        <ele>879</ele>
        <time>2019-08-08T14:03:00.000Z</time>
      </trkpt>
      <trkpt lat="42.80376" lon="1.27886">
        <ele>879</ele>
        <time>2019-08-08T14:03:01.000Z</time>
      </trkpt>
      <trkpt lat="42.80376" lon="1.2789">
        <ele>879</ele>
        <time>2019-08-08T14:03:02.000Z</time>
      </trkpt>
      <trkpt lat="42.80376" lon="1.27894">
        <ele>879</ele>
        <time>2019-08-08T14:03:03.000Z</time>
      </trkpt>
      <trkpt lat="42.80376" lon="1.27898">
        <ele>880</ele>
        <time>2019-08-08T14:03:04.000Z</time>
      </trkpt>
      <trkpt lat="42.80376" lon="1.27901">
        <ele>880</ele>
        <time>2019-08-08T14:03:05.000Z</time>
      </trkpt>
      <trkpt lat="42.80376" lon="1.27905">
        <ele>880</ele>
        <time>2019-08-08T14:03:06.000Z</time>
      </trkpt>
      <trkpt lat="42.80375" lon="1.27909">
        <ele>880</ele>
        <time>2019-08-08T14:03:07.000Z</time>
      </trkpt>
      <trkpt lat="42.80375" lon="1.27913">
        <ele>880</ele>
        <time>2019-08-08T14:03:08.000Z</time>
      </trkpt>
      <trkpt lat="42.80374" lon="1.27917">
        <ele>880</ele>
        <time>2019-08-08T14:03:09.000Z</time>
      </trkpt>
      <trkpt lat="42.80372" lon="1.27922">
        <ele>881</ele>
        <time>2019-08-08T14:03:10.000Z</time>
      </trkpt>
      <trkpt lat="42.80372" lon="1.27923">
        <ele>881</ele>
        <time>2019-08-08T14:03:11.000Z</time>
      </trkpt>
      <trkpt lat="42.8037" lon="1.27927">
        <ele>882</ele>
        <time>2019-08-08T14:03:12.000Z</time>
      </trkpt>
      <trkpt lat="42.80369" lon="1.2793">
        <ele>882</ele>
        <time>2019-08-08T14:03:13.000Z</time>
      </trkpt>
      <trkpt lat="42.80367" lon="1.27934">
        <ele>882</ele>
        <time>2019-08-08T14:03:14.000Z</time>
      </trkpt>
      <trkpt lat="42.80366" lon="1.27937">
        <ele>882</ele>
        <time>2019-08-08T14:03:15.000Z</time>
      </trkpt>
      <trkpt lat="42.80364" lon="1.2794">
        <ele>883</ele>
        <time>2019-08-08T14:03:16.000Z</time>
      </trkpt>
      <trkpt lat="42.80362" lon="1.27944">
        <ele>883</ele>
        <time>2019-08-08T14:03:17.000Z</time>
      </trkpt>
      <trkpt lat="42.80361" lon="1.27947">
        <ele>883</ele>
        <time>2019-08-08T14:03:18.000Z</time>
      </trkpt>
      <trkpt lat="42.80359" lon="1.2795">
        <ele>883</ele>
        <time>2019-08-08T14:03:19.000Z</time>
      </trkpt>
      <trkpt lat="42.80357" lon="1.27953">
        <ele>883</ele>
        <time>2019-08-08T14:03:20.000Z</time>
      </trkpt>
      <trkpt lat="42.80356" lon="1.27957">
        <ele>883</ele>
        <time>2019-08-08T14:03:21.000Z</time>
      </trkpt>
      <trkpt lat="42.80354" lon="1.2796">
        <ele>883</ele>
        <time>2019-08-08T14:03:22.000Z</time>
      </trkpt>
      <trkpt lat="42.80353" lon="1.27963">
        <ele>883</ele>
        <time>2019-08-08T14:03:23.000Z</time>
      </trkpt>
      <trkpt lat="42.80352" lon="1.27967">
        <ele>884</ele>
        <time>2019-08-08T14:03:24.000Z</time>
      </trkpt>
      <trkpt lat="42.8035" lon="1.2797">
        <ele>884</ele>
        <time>2019-08-08T14:03:25.000Z</time>
      </trkpt>
      <trkpt lat="42.80348" lon="1.27975">
        <ele>884</ele>
        <time>2019-08-08T14:03:26.000Z</time>
      </trkpt>
      <trkpt lat="42.80347" lon="1.27976">
        <ele>884</ele>
        <time>2019-08-08T14:03:27.000Z</time>
      </trkpt>
      <trkpt lat="42.80346" lon="1.27979">
        <ele>884</ele>
        <time>2019-08-08T14:03:28.000Z</time>
      </trkpt>
      <trkpt lat="42.80345" lon="1.27982">
        <ele>885</ele>
        <time>2019-08-08T14:03:29.000Z</time>
      </trkpt>
      <trkpt lat="42.80345" lon="1.27985">
        <ele>885</ele>
        <time>2019-08-08T14:03:30.000Z</time>
      </trkpt>
      <trkpt lat="42.80343" lon="1.27988">
        <ele>885</ele>
        <time>2019-08-08T14:03:31.000Z</time>
      </trkpt>
      <trkpt lat="42.80342" lon="1.27991">
        <ele>885</ele>
        <time>2019-08-08T14:03:32.000Z</time>
      </trkpt>
      <trkpt lat="42.8034" lon="1.27994">
        <ele>885</ele>
        <time>2019-08-08T14:03:33.000Z</time>
      </trkpt>
      <trkpt lat="42.80339" lon="1.27998">
        <ele>885</ele>
        <time>2019-08-08T14:03:34.000Z</time>
      </trkpt>
      <trkpt lat="42.80337" lon="1.28001">
        <ele>887</ele>
        <time>2019-08-08T14:03:35.000Z</time>
      </trkpt>
      <trkpt lat="42.80336" lon="1.28005">
        <ele>887</ele>
        <time>2019-08-08T14:03:36.000Z</time>
      </trkpt>
      <trkpt lat="42.80335" lon="1.28008">
        <ele>887</ele>
        <time>2019-08-08T14:03:37.000Z</time>
      </trkpt>
      <trkpt lat="42.80334" lon="1.28012">
        <ele>887</ele>
        <time>2019-08-08T14:03:38.000Z</time>
      </trkpt>
      <trkpt lat="42.80333" lon="1.28015">
        <ele>887</ele>
        <time>2019-08-08T14:03:39.000Z</time>
      </trkpt>
      <trkpt lat="42.80332" lon="1.28019">
        <ele>887</ele>
        <time>2019-08-08T14:03:40.000Z</time>
      </trkpt>
      <trkpt lat="42.8033" lon="1.28023">
        <ele>888</ele>
        <time>2019-08-08T14:03:41.000Z</time>
      </trkpt>
      <trkpt lat="42.80329" lon="1.28027">
        <ele>888</ele>
        <time>2019-08-08T14:03:42.000Z</time>
      </trkpt>
      <trkpt lat="42.80328" lon="1.28031">
        <ele>888</ele>
        <time>2019-08-08T14:03:43.000Z</time>
      </trkpt>
      <trkpt lat="42.80327" lon="1.28035">
        <ele>888</ele>
        <time>2019-08-08T14:03:44.000Z</time>
      </trkpt>
      <trkpt lat="42.80326" lon="1.28039">
        <ele>888</ele>
        <time>2019-08-08T14:03:45.000Z</time>
      </trkpt>
      <trkpt lat="42.80325" lon="1.28043">
        <ele>889</ele>
        <time>2019-08-08T14:03:46.000Z</time>
      </trkpt>
      <trkpt lat="42.80324" lon="1.28047">
        <ele>889</ele>
        <time>2019-08-08T14:03:47.000Z</time>
      </trkpt>
      <trkpt lat="42.80323" lon="1.28051">
        <ele>890</ele>
        <time>2019-08-08T14:03:48.000Z</time>
      </trkpt>
      <trkpt lat="42.80322" lon="1.28055">
        <ele>890</ele>
        <time>2019-08-08T14:03:49.000Z</time>
      </trkpt>
      <trkpt lat="42.80321" lon="1.28059">
        <ele>890</ele>
        <time>2019-08-08T14:03:50.000Z</time>
      </trkpt>
      <trkpt lat="42.8032" lon="1.28062">
        <ele>891</ele>
        <time>2019-08-08T14:03:51.000Z</time>
      </trkpt>
      <trkpt lat="42.80319" lon="1.28066">
        <ele>891</ele>
        <time>2019-08-08T14:03:52.000Z</time>
      </trkpt>
      <trkpt lat="42.80318" lon="1.2807">
        <ele>891</ele>
        <time>2019-08-08T14:03:53.000Z</time>
      </trkpt>
      <trkpt lat="42.80317" lon="1.28074">
        <ele>892</ele>
        <time>2019-08-08T14:03:54.000Z</time>
      </trkpt>
      <trkpt lat="42.80316" lon="1.28078">
        <ele>892</ele>
        <time>2019-08-08T14:03:55.000Z</time>
      </trkpt>
      <trkpt lat="42.80316" lon="1.28082">
        <ele>892</ele>
        <time>2019-08-08T14:03:56.000Z</time>
      </trkpt>
      <trkpt lat="42.80315" lon="1.28085">
        <ele>892</ele>
        <time>2019-08-08T14:03:57.000Z</time>
      </trkpt>
      <trkpt lat="42.80314" lon="1.28088">
        <ele>892</ele>
        <time>2019-08-08T14:03:58.000Z</time>
      </trkpt>
      <trkpt lat="42.80313" lon="1.28092">
        <ele>892</ele>
        <time>2019-08-08T14:03:59.000Z</time>
      </trkpt>
      <trkpt lat="42.80312" lon="1.28095">
        <ele>892</ele>
        <time>2019-08-08T14:04:00.000Z</time>
      </trkpt>
      <trkpt lat="42.80312" lon="1.28099">
        <ele>892</ele>
        <time>2019-08-08T14:04:01.000Z</time>
      </trkpt>
      <trkpt lat="42.80311" lon="1.28103">
        <ele>892</ele>
        <time>2019-08-08T14:04:02.000Z</time>
      </trkpt>
      <trkpt lat="42.8031" lon="1.28107">
        <ele>892</ele>
        <time>2019-08-08T14:04:03.000Z</time>
      </trkpt>
      <trkpt lat="42.80309" lon="1.28111">
        <ele>892</ele>
        <time>2019-08-08T14:04:04.000Z</time>
      </trkpt>
      <trkpt lat="42.80309" lon="1.28115">
        <ele>893</ele>
        <time>2019-08-08T14:04:05.000Z</time>
      </trkpt>
      <trkpt lat="42.80308" lon="1.28119">
        <ele>893</ele>
        <time>2019-08-08T14:04:06.000Z</time>
      </trkpt>
      <trkpt lat="42.80308" lon="1.28123">
        <ele>893</ele>
        <time>2019-08-08T14:04:07.000Z</time>
      </trkpt>
      <trkpt lat="42.80308" lon="1.28127">
        <ele>893</ele>
        <time>2019-08-08T14:04:08.000Z</time>
      </trkpt>
      <trkpt lat="42.80307" lon="1.28131">
        <ele>894</ele>
        <time>2019-08-08T14:04:09.000Z</time>
      </trkpt>
      <trkpt lat="42.80307" lon="1.28134">
        <ele>894</ele>
        <time>2019-08-08T14:04:10.000Z</time>
      </trkpt>
      <trkpt lat="42.80307" lon="1.28138">
        <ele>895</ele>
        <time>2019-08-08T14:04:11.000Z</time>
      </trkpt>
      <trkpt lat="42.80307" lon="1.28142">
        <ele>895</ele>
        <time>2019-08-08T14:04:12.000Z</time>
      </trkpt>
      <trkpt lat="42.80307" lon="1.28146">
        <ele>895</ele>
        <time>2019-08-08T14:04:13.000Z</time>
      </trkpt>
      <trkpt lat="42.80307" lon="1.28149">
        <ele>895</ele>
        <time>2019-08-08T14:04:14.000Z</time>
      </trkpt>
      <trkpt lat="42.80307" lon="1.28155">
        <ele>895</ele>
        <time>2019-08-08T14:04:15.000Z</time>
      </trkpt>
      <trkpt lat="42.80307" lon="1.28157">
        <ele>895</ele>
        <time>2019-08-08T14:04:16.000Z</time>
      </trkpt>
      <trkpt lat="42.80307" lon="1.28161">
        <ele>895</ele>
        <time>2019-08-08T14:04:17.000Z</time>
      </trkpt>
      <trkpt lat="42.80307" lon="1.28165">
        <ele>896</ele>
        <time>2019-08-08T14:04:18.000Z</time>
      </trkpt>
      <trkpt lat="42.80307" lon="1.2817">
        <ele>896</ele>
        <time>2019-08-08T14:04:19.000Z</time>
      </trkpt>
      <trkpt lat="42.80307" lon="1.28173">
        <ele>896</ele>
        <time>2019-08-08T14:04:20.000Z</time>
      </trkpt>
      <trkpt lat="42.80308" lon="1.28177">
        <ele>896</ele>
        <time>2019-08-08T14:04:21.000Z</time>
      </trkpt>
      <trkpt lat="42.80308" lon="1.28181">
        <ele>897</ele>
        <time>2019-08-08T14:04:22.000Z</time>
      </trkpt>
      <trkpt lat="42.80308" lon="1.28185">
        <ele>897</ele>
        <time>2019-08-08T14:04:23.000Z</time>
      </trkpt>
      <trkpt lat="42.80307" lon="1.28189">
        <ele>898</ele>
        <time>2019-08-08T14:04:24.000Z</time>
      </trkpt>
      <trkpt lat="42.80307" lon="1.28193">
        <ele>898</ele>
        <time>2019-08-08T14:04:25.000Z</time>
      </trkpt>
      <trkpt lat="42.80307" lon="1.28197">
        <ele>898</ele>
        <time>2019-08-08T14:04:26.000Z</time>
      </trkpt>
      <trkpt lat="42.80307" lon="1.28201">
        <ele>898</ele>
        <time>2019-08-08T14:04:27.000Z</time>
      </trkpt>
      <trkpt lat="42.80306" lon="1.28206">
        <ele>898</ele>
        <time>2019-08-08T14:04:28.000Z</time>
      </trkpt>
      <trkpt lat="42.80306" lon="1.2821">
        <ele>898</ele>
        <time>2019-08-08T14:04:29.000Z</time>
      </trkpt>
      <trkpt lat="42.80306" lon="1.28214">
        <ele>899</ele>
        <time>2019-08-08T14:04:30.000Z</time>
      </trkpt>
      <trkpt lat="42.80306" lon="1.28218">
        <ele>899</ele>
        <time>2019-08-08T14:04:31.000Z</time>
      </trkpt>
      <trkpt lat="42.80306" lon="1.28225">
        <ele>900</ele>
        <time>2019-08-08T14:04:32.000Z</time>
      </trkpt>
      <trkpt lat="42.80306" lon="1.28227">
        <ele>900</ele>
        <time>2019-08-08T14:04:33.000Z</time>
      </trkpt>
      <trkpt lat="42.80305" lon="1.28231">
        <ele>900</ele>
        <time>2019-08-08T14:04:34.000Z</time>
      </trkpt>
      <trkpt lat="42.80305" lon="1.28235">
        <ele>900</ele>
        <time>2019-08-08T14:04:35.000Z</time>
      </trkpt>
      <trkpt lat="42.80305" lon="1.28239">
        <ele>900</ele>
        <time>2019-08-08T14:04:36.000Z</time>
      </trkpt>
      <trkpt lat="42.80305" lon="1.28243">
        <ele>901</ele>
        <time>2019-08-08T14:04:37.000Z</time>
      </trkpt>
      <trkpt lat="42.80304" lon="1.28247">
        <ele>901</ele>
        <time>2019-08-08T14:04:38.000Z</time>
      </trkpt>
      <trkpt lat="42.80304" lon="1.28251">
        <ele>901</ele>
        <time>2019-08-08T14:04:39.000Z</time>
      </trkpt>
      <trkpt lat="42.80303" lon="1.28255">
        <ele>901</ele>
        <time>2019-08-08T14:04:40.000Z</time>
      </trkpt>
      <trkpt lat="42.80303" lon="1.28259">
        <ele>901</ele>
        <time>2019-08-08T14:04:41.000Z</time>
      </trkpt>
      <trkpt lat="42.80302" lon="1.28262">
        <ele>901</ele>
        <time>2019-08-08T14:04:42.000Z</time>
      </trkpt>
      <trkpt lat="42.80302" lon="1.28266">
        <ele>901</ele>
        <time>2019-08-08T14:04:43.000Z</time>
      </trkpt>
      <trkpt lat="42.80301" lon="1.2827">
        <ele>902</ele>
        <time>2019-08-08T14:04:44.000Z</time>
      </trkpt>
      <trkpt lat="42.80301" lon="1.28274">
        <ele>902</ele>
        <time>2019-08-08T14:04:45.000Z</time>
      </trkpt>
      <trkpt lat="42.803" lon="1.28278">
        <ele>902</ele>
        <time>2019-08-08T14:04:46.000Z</time>
      </trkpt>
      <trkpt lat="42.803" lon="1.28282">
        <ele>902</ele>
        <time>2019-08-08T14:04:47.000Z</time>
      </trkpt>
      <trkpt lat="42.80299" lon="1.28287">
        <ele>902</ele>
        <time>2019-08-08T14:04:48.000Z</time>
      </trkpt>
      <trkpt lat="42.80298" lon="1.28289">
        <ele>902</ele>
        <time>2019-08-08T14:04:49.000Z</time>
      </trkpt>
      <trkpt lat="42.80298" lon="1.28292">
        <ele>902</ele>
        <time>2019-08-08T14:04:50.000Z</time>
      </trkpt>
      <trkpt lat="42.80297" lon="1.28296">
        <ele>903</ele>
        <time>2019-08-08T14:04:51.000Z</time>
      </trkpt>
      <trkpt lat="42.80296" lon="1.283">
        <ele>903</ele>
        <time>2019-08-08T14:04:52.000Z</time>
      </trkpt>
      <trkpt lat="42.80295" lon="1.28304">
        <ele>903</ele>
        <time>2019-08-08T14:04:53.000Z</time>
      </trkpt>
      <trkpt lat="42.80294" lon="1.28309">
        <ele>904</ele>
        <time>2019-08-08T14:04:54.000Z</time>
      </trkpt>
      <trkpt lat="42.80293" lon="1.28313">
        <ele>904</ele>
        <time>2019-08-08T14:04:55.000Z</time>
      </trkpt>
      <trkpt lat="42.80292" lon="1.28316">
        <ele>904</ele>
        <time>2019-08-08T14:04:56.000Z</time>
      </trkpt>
      <trkpt lat="42.8029" lon="1.2832">
        <ele>904</ele>
        <time>2019-08-08T14:04:57.000Z</time>
      </trkpt>
      <trkpt lat="42.80289" lon="1.28324">
        <ele>905</ele>
        <time>2019-08-08T14:04:58.000Z</time>
      </trkpt>
      <trkpt lat="42.80288" lon="1.28328">
        <ele>905</ele>
        <time>2019-08-08T14:04:59.000Z</time>
      </trkpt>
      <trkpt lat="42.80287" lon="1.28332">
        <ele>906</ele>
        <time>2019-08-08T14:05:00.000Z</time>
      </trkpt>
      <trkpt lat="42.80285" lon="1.28336">
        <ele>906</ele>
        <time>2019-08-08T14:05:01.000Z</time>
      </trkpt>
      <trkpt lat="42.80284" lon="1.28339">
        <ele>906</ele>
        <time>2019-08-08T14:05:02.000Z</time>
      </trkpt>
      <trkpt lat="42.80282" lon="1.28343">
        <ele>906</ele>
        <time>2019-08-08T14:05:03.000Z</time>
      </trkpt>
      <trkpt lat="42.80281" lon="1.28347">
        <ele>907</ele>
        <time>2019-08-08T14:05:04.000Z</time>
      </trkpt>
      <trkpt lat="42.80278" lon="1.28352">
        <ele>907</ele>
        <time>2019-08-08T14:05:05.000Z</time>
      </trkpt>
      <trkpt lat="42.80278" lon="1.28354">
        <ele>907</ele>
        <time>2019-08-08T14:05:06.000Z</time>
      </trkpt>
      <trkpt lat="42.80276" lon="1.28358">
        <ele>907</ele>
        <time>2019-08-08T14:05:07.000Z</time>
      </trkpt>
      <trkpt lat="42.80275" lon="1.28363">
        <ele>908</ele>
        <time>2019-08-08T14:05:08.000Z</time>
      </trkpt>
      <trkpt lat="42.80274" lon="1.28367">
        <ele>908</ele>
        <time>2019-08-08T14:05:09.000Z</time>
      </trkpt>
      <trkpt lat="42.80273" lon="1.28371">
        <ele>908</ele>
        <time>2019-08-08T14:05:10.000Z</time>
      </trkpt>
      <trkpt lat="42.80271" lon="1.28376">
        <ele>908</ele>
        <time>2019-08-08T14:05:11.000Z</time>
      </trkpt>
      <trkpt lat="42.80269" lon="1.2838">
        <ele>910</ele>
        <time>2019-08-08T14:05:12.000Z</time>
      </trkpt>
      <trkpt lat="42.80268" lon="1.28384">
        <ele>910</ele>
        <time>2019-08-08T14:05:13.000Z</time>
      </trkpt>
      <trkpt lat="42.80266" lon="1.28388">
        <ele>910</ele>
        <time>2019-08-08T14:05:14.000Z</time>
      </trkpt>
      <trkpt lat="42.80265" lon="1.28392">
        <ele>910</ele>
        <time>2019-08-08T14:05:15.000Z</time>
      </trkpt>
      <trkpt lat="42.80263" lon="1.28396">
        <ele>910</ele>
        <time>2019-08-08T14:05:16.000Z</time>
      </trkpt>
      <trkpt lat="42.80262" lon="1.284">
        <ele>910</ele>
        <time>2019-08-08T14:05:17.000Z</time>
      </trkpt>
      <trkpt lat="42.8026" lon="1.28405">
        <ele>910</ele>
        <time>2019-08-08T14:05:18.000Z</time>
      </trkpt>
      <trkpt lat="42.80259" lon="1.28409">
        <ele>910</ele>
        <time>2019-08-08T14:05:19.000Z</time>
      </trkpt>
      <trkpt lat="42.80257" lon="1.28415">
        <ele>910</ele>
        <time>2019-08-08T14:05:20.000Z</time>
      </trkpt>
      <trkpt lat="42.80256" lon="1.28418">
        <ele>910</ele>
        <time>2019-08-08T14:05:21.000Z</time>
      </trkpt>
      <trkpt lat="42.80254" lon="1.28425">
        <ele>910</ele>
        <time>2019-08-08T14:05:22.000Z</time>
      </trkpt>
      <trkpt lat="42.80254" lon="1.28427">
        <ele>910</ele>
        <time>2019-08-08T14:05:23.000Z</time>
      </trkpt>
      <trkpt lat="42.80253" lon="1.28432">
        <ele>910</ele>
        <time>2019-08-08T14:05:24.000Z</time>
      </trkpt>
      <trkpt lat="42.80251" lon="1.28436">
        <ele>911</ele>
        <time>2019-08-08T14:05:25.000Z</time>
      </trkpt>
      <trkpt lat="42.8025" lon="1.28441">
        <ele>911</ele>
        <time>2019-08-08T14:05:26.000Z</time>
      </trkpt>
      <trkpt lat="42.80249" lon="1.28446">
        <ele>911</ele>
        <time>2019-08-08T14:05:27.000Z</time>
      </trkpt>
      <trkpt lat="42.80248" lon="1.28451">
        <ele>911</ele>
        <time>2019-08-08T14:05:28.000Z</time>
      </trkpt>
      <trkpt lat="42.80246" lon="1.28456">
        <ele>912</ele>
        <time>2019-08-08T14:05:29.000Z</time>
      </trkpt>
      <trkpt lat="42.80245" lon="1.2846">
        <ele>912</ele>
        <time>2019-08-08T14:05:30.000Z</time>
      </trkpt>
      <trkpt lat="42.80244" lon="1.28465">
        <ele>913</ele>
        <time>2019-08-08T14:05:31.000Z</time>
      </trkpt>
      <trkpt lat="42.80243" lon="1.2847">
        <ele>913</ele>
        <time>2019-08-08T14:05:32.000Z</time>
      </trkpt>
      <trkpt lat="42.80241" lon="1.28475">
        <ele>913</ele>
        <time>2019-08-08T14:05:33.000Z</time>
      </trkpt>
      <trkpt lat="42.8024" lon="1.2848">
        <ele>913</ele>
        <time>2019-08-08T14:05:34.000Z</time>
      </trkpt>
      <trkpt lat="42.80238" lon="1.28485">
        <ele>913</ele>
        <time>2019-08-08T14:05:35.000Z</time>
      </trkpt>
      <trkpt lat="42.80237" lon="1.2849">
        <ele>913</ele>
        <time>2019-08-08T14:05:36.000Z</time>
      </trkpt>
      <trkpt lat="42.80235" lon="1.28495">
        <ele>914</ele>
        <time>2019-08-08T14:05:37.000Z</time>
      </trkpt>
      <trkpt lat="42.80233" lon="1.285">
        <ele>914</ele>
        <time>2019-08-08T14:05:38.000Z</time>
      </trkpt>
      <trkpt lat="42.80232" lon="1.28505">
        <ele>915</ele>
        <time>2019-08-08T14:05:39.000Z</time>
      </trkpt>
      <trkpt lat="42.8023" lon="1.2851">
        <ele>915</ele>
        <time>2019-08-08T14:05:40.000Z</time>
      </trkpt>
      <trkpt lat="42.80229" lon="1.28515">
        <ele>915</ele>
        <time>2019-08-08T14:05:41.000Z</time>
      </trkpt>
      <trkpt lat="42.80227" lon="1.2852">
        <ele>915</ele>
        <time>2019-08-08T14:05:42.000Z</time>
      </trkpt>
      <trkpt lat="42.80226" lon="1.28525">
        <ele>915</ele>
        <time>2019-08-08T14:05:43.000Z</time>
      </trkpt>
      <trkpt lat="42.80225" lon="1.2853">
        <ele>915</ele>
        <time>2019-08-08T14:05:44.000Z</time>
      </trkpt>
      <trkpt lat="42.80223" lon="1.28537">
        <ele>915</ele>
        <time>2019-08-08T14:05:45.000Z</time>
      </trkpt>
      <trkpt lat="42.80222" lon="1.2854">
        <ele>915</ele>
        <time>2019-08-08T14:05:46.000Z</time>
      </trkpt>
      <trkpt lat="42.80221" lon="1.28544">
        <ele>916</ele>
        <time>2019-08-08T14:05:47.000Z</time>
      </trkpt>
      <trkpt lat="42.80219" lon="1.28549">
        <ele>916</ele>
        <time>2019-08-08T14:05:48.000Z</time>
      </trkpt>
      <trkpt lat="42.80218" lon="1.28554">
        <ele>916</ele>
        <time>2019-08-08T14:05:49.000Z</time>
      </trkpt>
      <trkpt lat="42.80216" lon="1.28558">
        <ele>916</ele>
        <time>2019-08-08T14:05:50.000Z</time>
      </trkpt>
      <trkpt lat="42.80215" lon="1.28563">
        <ele>916</ele>
        <time>2019-08-08T14:05:51.000Z</time>
      </trkpt>
      <trkpt lat="42.80213" lon="1.28568">
        <ele>916</ele>
        <time>2019-08-08T14:05:52.000Z</time>
      </trkpt>
      <trkpt lat="42.80212" lon="1.28572">
        <ele>917</ele>
        <time>2019-08-08T14:05:53.000Z</time>
      </trkpt>
      <trkpt lat="42.8021" lon="1.28577">
        <ele>917</ele>
        <time>2019-08-08T14:05:54.000Z</time>
      </trkpt>
      <trkpt lat="42.80209" lon="1.28582">
        <ele>917</ele>
        <time>2019-08-08T14:05:55.000Z</time>
      </trkpt>
      <trkpt lat="42.80208" lon="1.2859">
        <ele>917</ele>
        <time>2019-08-08T14:05:56.000Z</time>
      </trkpt>
      <trkpt lat="42.80207" lon="1.28592">
        <ele>918</ele>
        <time>2019-08-08T14:05:57.000Z</time>
      </trkpt>
      <trkpt lat="42.80206" lon="1.28598">
        <ele>918</ele>
        <time>2019-08-08T14:05:58.000Z</time>
      </trkpt>
      <trkpt lat="42.80204" lon="1.28603">
        <ele>919</ele>
        <time>2019-08-08T14:05:59.000Z</time>
      </trkpt>
      <trkpt lat="42.80203" lon="1.28608">
        <ele>920</ele>
        <time>2019-08-08T14:06:00.000Z</time>
      </trkpt>
      <trkpt lat="42.80202" lon="1.28613">
        <ele>920</ele>
        <time>2019-08-08T14:06:01.000Z</time>
      </trkpt>
      <trkpt lat="42.80201" lon="1.28618">
        <ele>920</ele>
        <time>2019-08-08T14:06:02.000Z</time>
      </trkpt>
      <trkpt lat="42.802" lon="1.28624">
        <ele>920</ele>
        <time>2019-08-08T14:06:03.000Z</time>
      </trkpt>
      <trkpt lat="42.802" lon="1.28629">
        <ele>920</ele>
        <time>2019-08-08T14:06:04.000Z</time>
      </trkpt>
      <trkpt lat="42.80199" lon="1.28635">
        <ele>920</ele>
        <time>2019-08-08T14:06:05.000Z</time>
      </trkpt>
      <trkpt lat="42.80199" lon="1.2864">
        <ele>920</ele>
        <time>2019-08-08T14:06:06.000Z</time>
      </trkpt>
      <trkpt lat="42.80198" lon="1.28646">
        <ele>920</ele>
        <time>2019-08-08T14:06:07.000Z</time>
      </trkpt>
      <trkpt lat="42.80198" lon="1.28651">
        <ele>920</ele>
        <time>2019-08-08T14:06:08.000Z</time>
      </trkpt>
      <trkpt lat="42.80198" lon="1.28656">
        <ele>920</ele>
        <time>2019-08-08T14:06:09.000Z</time>
      </trkpt>
      <trkpt lat="42.80198" lon="1.28662">
        <ele>921</ele>
        <time>2019-08-08T14:06:10.000Z</time>
      </trkpt>
      <trkpt lat="42.80198" lon="1.28667">
        <ele>921</ele>
        <time>2019-08-08T14:06:11.000Z</time>
      </trkpt>
      <trkpt lat="42.80198" lon="1.28675">
        <ele>921</ele>
        <time>2019-08-08T14:06:12.000Z</time>
      </trkpt>
      <trkpt lat="42.80198" lon="1.28677">
        <ele>921</ele>
        <time>2019-08-08T14:06:13.000Z</time>
      </trkpt>
      <trkpt lat="42.80198" lon="1.28683">
        <ele>921</ele>
        <time>2019-08-08T14:06:14.000Z</time>
      </trkpt>
      <trkpt lat="42.80198" lon="1.28688">
        <ele>921</ele>
        <time>2019-08-08T14:06:15.000Z</time>
      </trkpt>
      <trkpt lat="42.80198" lon="1.28693">
        <ele>922</ele>
        <time>2019-08-08T14:06:16.000Z</time>
      </trkpt>
      <trkpt lat="42.80197" lon="1.28698">
        <ele>922</ele>
        <time>2019-08-08T14:06:17.000Z</time>
      </trkpt>
      <trkpt lat="42.80197" lon="1.28703">
        <ele>923</ele>
        <time>2019-08-08T14:06:18.000Z</time>
      </trkpt>
      <trkpt lat="42.80197" lon="1.28708">
        <ele>923</ele>
        <time>2019-08-08T14:06:19.000Z</time>
      </trkpt>
      <trkpt lat="42.80197" lon="1.28713">
        <ele>923</ele>
        <time>2019-08-08T14:06:20.000Z</time>
      </trkpt>
      <trkpt lat="42.80196" lon="1.28718">
        <ele>923</ele>
        <time>2019-08-08T14:06:21.000Z</time>
      </trkpt>
      <trkpt lat="42.80196" lon="1.28722">
        <ele>924</ele>
        <time>2019-08-08T14:06:22.000Z</time>
      </trkpt>
      <trkpt lat="42.80196" lon="1.28727">
        <ele>924</ele>
        <time>2019-08-08T14:06:23.000Z</time>
      </trkpt>
      <trkpt lat="42.80196" lon="1.28732">
        <ele>925</ele>
        <time>2019-08-08T14:06:24.000Z</time>
      </trkpt>
      <trkpt lat="42.80196" lon="1.28736">
        <ele>925</ele>
        <time>2019-08-08T14:06:25.000Z</time>
      </trkpt>
      <trkpt lat="42.80195" lon="1.28741">
        <ele>926</ele>
        <time>2019-08-08T14:06:26.000Z</time>
      </trkpt>
      <trkpt lat="42.80195" lon="1.28745">
        <ele>926</ele>
        <time>2019-08-08T14:06:27.000Z</time>
      </trkpt>
      <trkpt lat="42.80195" lon="1.2875">
        <ele>926</ele>
        <time>2019-08-08T14:06:28.000Z</time>
      </trkpt>
      <trkpt lat="42.80194" lon="1.28755">
        <ele>926</ele>
        <time>2019-08-08T14:06:29.000Z</time>
      </trkpt>
      <trkpt lat="42.80194" lon="1.28759">
        <ele>927</ele>
        <time>2019-08-08T14:06:30.000Z</time>
      </trkpt>
      <trkpt lat="42.80194" lon="1.28764">
        <ele>927</ele>
        <time>2019-08-08T14:06:31.000Z</time>
      </trkpt>
      <trkpt lat="42.80194" lon="1.28769">
        <ele>927</ele>
        <time>2019-08-08T14:06:32.000Z</time>
      </trkpt>
      <trkpt lat="42.80194" lon="1.28773">
        <ele>927</ele>
        <time>2019-08-08T14:06:33.000Z</time>
      </trkpt>
      <trkpt lat="42.80194" lon="1.28778">
        <ele>927</ele>
        <time>2019-08-08T14:06:34.000Z</time>
      </trkpt>
      <trkpt lat="42.80194" lon="1.28782">
        <ele>927</ele>
        <time>2019-08-08T14:06:35.000Z</time>
      </trkpt>
      <trkpt lat="42.80194" lon="1.28787">
        <ele>928</ele>
        <time>2019-08-08T14:06:36.000Z</time>
      </trkpt>
      <trkpt lat="42.80194" lon="1.28791">
        <ele>928</ele>
        <time>2019-08-08T14:06:37.000Z</time>
      </trkpt>
      <trkpt lat="42.80193" lon="1.28796">
        <ele>929</ele>
        <time>2019-08-08T14:06:38.000Z</time>
      </trkpt>
      <trkpt lat="42.80193" lon="1.288">
        <ele>929</ele>
        <time>2019-08-08T14:06:39.000Z</time>
      </trkpt>
      <trkpt lat="42.80193" lon="1.28805">
        <ele>930</ele>
        <time>2019-08-08T14:06:40.000Z</time>
      </trkpt>
      <trkpt lat="42.80193" lon="1.2881">
        <ele>930</ele>
        <time>2019-08-08T14:06:41.000Z</time>
      </trkpt>
      <trkpt lat="42.80193" lon="1.28814">
        <ele>930</ele>
        <time>2019-08-08T14:06:42.000Z</time>
      </trkpt>
      <trkpt lat="42.80192" lon="1.28818">
        <ele>930</ele>
        <time>2019-08-08T14:06:43.000Z</time>
      </trkpt>
      <trkpt lat="42.80192" lon="1.28823">
        <ele>930</ele>
        <time>2019-08-08T14:06:44.000Z</time>
      </trkpt>
      <trkpt lat="42.80192" lon="1.28827">
        <ele>930</ele>
        <time>2019-08-08T14:06:45.000Z</time>
      </trkpt>
      <trkpt lat="42.80191" lon="1.28834">
        <ele>930</ele>
        <time>2019-08-08T14:06:46.000Z</time>
      </trkpt>
      <trkpt lat="42.80191" lon="1.28836">
        <ele>931</ele>
        <time>2019-08-08T14:06:47.000Z</time>
      </trkpt>
      <trkpt lat="42.8019" lon="1.2884">
        <ele>931</ele>
        <time>2019-08-08T14:06:48.000Z</time>
      </trkpt>
      <trkpt lat="42.8019" lon="1.28845">
        <ele>932</ele>
        <time>2019-08-08T14:06:49.000Z</time>
      </trkpt>
      <trkpt lat="42.80189" lon="1.28849">
        <ele>932</ele>
        <time>2019-08-08T14:06:50.000Z</time>
      </trkpt>
      <trkpt lat="42.80189" lon="1.28853">
        <ele>932</ele>
        <time>2019-08-08T14:06:51.000Z</time>
      </trkpt>
      <trkpt lat="42.80188" lon="1.28857">
        <ele>932</ele>
        <time>2019-08-08T14:06:52.000Z</time>
      </trkpt>
      <trkpt lat="42.80188" lon="1.28861">
        <ele>932</ele>
        <time>2019-08-08T14:06:53.000Z</time>
      </trkpt>
      <trkpt lat="42.80187" lon="1.28865">
        <ele>932</ele>
        <time>2019-08-08T14:06:54.000Z</time>
      </trkpt>
      <trkpt lat="42.80186" lon="1.28869">
        <ele>932</ele>
        <time>2019-08-08T14:06:55.000Z</time>
      </trkpt>
      <trkpt lat="42.80184" lon="1.28872">
        <ele>932</ele>
        <time>2019-08-08T14:06:56.000Z</time>
      </trkpt>
      <trkpt lat="42.80183" lon="1.28876">
        <ele>934</ele>
        <time>2019-08-08T14:06:57.000Z</time>
      </trkpt>
      <trkpt lat="42.80182" lon="1.2888">
        <ele>934</ele>
        <time>2019-08-08T14:06:58.000Z</time>
      </trkpt>
      <trkpt lat="42.8018" lon="1.28884">
        <ele>934</ele>
        <time>2019-08-08T14:06:59.000Z</time>
      </trkpt>
      <trkpt lat="42.80179" lon="1.28889">
        <ele>934</ele>
        <time>2019-08-08T14:07:00.000Z</time>
      </trkpt>
      <trkpt lat="42.80179" lon="1.28889">
        <ele>935</ele>
        <time>2019-08-08T14:07:01.000Z</time>
      </trkpt>
      <trkpt lat="42.80176" lon="1.28901">
        <ele>935</ele>
        <time>2019-08-08T14:07:03.000Z</time>
      </trkpt>
      <trkpt lat="42.80176" lon="1.28901">
        <ele>935</ele>
        <time>2019-08-08T14:07:04.000Z</time>
      </trkpt>
      <trkpt lat="42.80176" lon="1.28901">
        <ele>935</ele>
        <time>2019-08-08T14:07:05.000Z</time>
      </trkpt>
      <trkpt lat="42.80171" lon="1.28915">
        <ele>937</ele>
        <time>2019-08-08T14:07:06.000Z</time>
      </trkpt>
      <trkpt lat="42.80171" lon="1.28917">
        <ele>937</ele>
        <time>2019-08-08T14:07:07.000Z</time>
      </trkpt>
      <trkpt lat="42.8017" lon="1.28919">
        <ele>937</ele>
        <time>2019-08-08T14:07:08.000Z</time>
      </trkpt>
      <trkpt lat="42.8017" lon="1.28921">
        <ele>937</ele>
        <time>2019-08-08T14:07:09.000Z</time>
      </trkpt>
      <trkpt lat="42.80168" lon="1.28931">
        <ele>938</ele>
        <time>2019-08-08T14:07:10.000Z</time>
      </trkpt>
      <trkpt lat="42.80167" lon="1.28933">
        <ele>938</ele>
        <time>2019-08-08T14:07:11.000Z</time>
      </trkpt>
      <trkpt lat="42.80167" lon="1.28935">
        <ele>938</ele>
        <time>2019-08-08T14:07:12.000Z</time>
      </trkpt>
      <trkpt lat="42.80167" lon="1.28937">
        <ele>938</ele>
        <time>2019-08-08T14:07:13.000Z</time>
      </trkpt>
      <trkpt lat="42.80165" lon="1.28946">
        <ele>938</ele>
        <time>2019-08-08T14:07:14.000Z</time>
      </trkpt>
      <trkpt lat="42.80165" lon="1.28948">
        <ele>938</ele>
        <time>2019-08-08T14:07:15.000Z</time>
      </trkpt>
      <trkpt lat="42.80164" lon="1.2895">
        <ele>939</ele>
        <time>2019-08-08T14:07:16.000Z</time>
      </trkpt>
      <trkpt lat="42.80164" lon="1.28951">
        <ele>939</ele>
        <time>2019-08-08T14:07:17.000Z</time>
      </trkpt>
      <trkpt lat="42.80163" lon="1.2896">
        <ele>939</ele>
        <time>2019-08-08T14:07:18.000Z</time>
      </trkpt>
      <trkpt lat="42.80163" lon="1.28962">
        <ele>939</ele>
        <time>2019-08-08T14:07:19.000Z</time>
      </trkpt>
      <trkpt lat="42.80163" lon="1.28964">
        <ele>939</ele>
        <time>2019-08-08T14:07:20.000Z</time>
      </trkpt>
      <trkpt lat="42.80164" lon="1.28966">
        <ele>939</ele>
        <time>2019-08-08T14:07:21.000Z</time>
      </trkpt>
      <trkpt lat="42.80164" lon="1.28976">
        <ele>940</ele>
        <time>2019-08-08T14:07:22.000Z</time>
      </trkpt>
      <trkpt lat="42.80164" lon="1.28978">
        <ele>940</ele>
        <time>2019-08-08T14:07:23.000Z</time>
      </trkpt>
      <trkpt lat="42.80163" lon="1.2898">
        <ele>941</ele>
        <time>2019-08-08T14:07:24.000Z</time>
      </trkpt>
      <trkpt lat="42.80163" lon="1.28982">
        <ele>941</ele>
        <time>2019-08-08T14:07:25.000Z</time>
      </trkpt>
      <trkpt lat="42.80162" lon="1.28989">
        <ele>941</ele>
        <time>2019-08-08T14:07:26.000Z</time>
      </trkpt>
      <trkpt lat="42.80162" lon="1.28989">
        <ele>941</ele>
        <time>2019-08-08T14:07:27.000Z</time>
      </trkpt>
      <trkpt lat="42.80162" lon="1.28989">
        <ele>942</ele>
        <time>2019-08-08T14:07:28.000Z</time>
      </trkpt>
      <trkpt lat="42.80162" lon="1.29003">
        <ele>942</ele>
        <time>2019-08-08T14:07:29.000Z</time>
      </trkpt>
      <trkpt lat="42.80162" lon="1.29003">
        <ele>942</ele>
        <time>2019-08-08T14:07:30.000Z</time>
      </trkpt>
      <trkpt lat="42.80162" lon="1.29003">
        <ele>942</ele>
        <time>2019-08-08T14:07:31.000Z</time>
      </trkpt>
      <trkpt lat="42.80162" lon="1.29015">
        <ele>943</ele>
        <time>2019-08-08T14:07:32.000Z</time>
      </trkpt>
      <trkpt lat="42.80162" lon="1.29015">
        <ele>943</ele>
        <time>2019-08-08T14:07:33.000Z</time>
      </trkpt>
      <trkpt lat="42.80162" lon="1.29024">
        <ele>944</ele>
        <time>2019-08-08T14:07:34.000Z</time>
      </trkpt>
      <trkpt lat="42.80163" lon="1.2903">
        <ele>944</ele>
        <time>2019-08-08T14:07:35.000Z</time>
      </trkpt>
      <trkpt lat="42.80163" lon="1.29032">
        <ele>944</ele>
        <time>2019-08-08T14:07:36.000Z</time>
      </trkpt>
      <trkpt lat="42.80163" lon="1.29036">
        <ele>944</ele>
        <time>2019-08-08T14:07:37.000Z</time>
      </trkpt>
      <trkpt lat="42.80163" lon="1.29041">
        <ele>944</ele>
        <time>2019-08-08T14:07:38.000Z</time>
      </trkpt>
      <trkpt lat="42.80163" lon="1.29045">
        <ele>944</ele>
        <time>2019-08-08T14:07:39.000Z</time>
      </trkpt>
      <trkpt lat="42.80162" lon="1.2905">
        <ele>945</ele>
        <time>2019-08-08T14:07:40.000Z</time>
      </trkpt>
      <trkpt lat="42.80162" lon="1.29054">
        <ele>945</ele>
        <time>2019-08-08T14:07:41.000Z</time>
      </trkpt>
      <trkpt lat="42.80162" lon="1.29058">
        <ele>946</ele>
        <time>2019-08-08T14:07:42.000Z</time>
      </trkpt>
      <trkpt lat="42.80162" lon="1.29063">
        <ele>946</ele>
        <time>2019-08-08T14:07:43.000Z</time>
      </trkpt>
      <trkpt lat="42.80162" lon="1.29067">
        <ele>946</ele>
        <time>2019-08-08T14:07:44.000Z</time>
      </trkpt>
      <trkpt lat="42.80161" lon="1.29072">
        <ele>946</ele>
        <time>2019-08-08T14:07:45.000Z</time>
      </trkpt>
      <trkpt lat="42.80161" lon="1.29076">
        <ele>947</ele>
        <time>2019-08-08T14:07:46.000Z</time>
      </trkpt>
      <trkpt lat="42.80161" lon="1.2908">
        <ele>947</ele>
        <time>2019-08-08T14:07:47.000Z</time>
      </trkpt>
      <trkpt lat="42.80161" lon="1.29085">
        <ele>948</ele>
        <time>2019-08-08T14:07:48.000Z</time>
      </trkpt>
      <trkpt lat="42.80161" lon="1.29089">
        <ele>948</ele>
        <time>2019-08-08T14:07:49.000Z</time>
      </trkpt>
      <trkpt lat="42.80161" lon="1.29093">
        <ele>949</ele>
        <time>2019-08-08T14:07:50.000Z</time>
      </trkpt>
      <trkpt lat="42.8016" lon="1.29097">
        <ele>949</ele>
        <time>2019-08-08T14:07:51.000Z</time>
      </trkpt>
      <trkpt lat="42.8016" lon="1.29101">
        <ele>949</ele>
        <time>2019-08-08T14:07:52.000Z</time>
      </trkpt>
      <trkpt lat="42.8016" lon="1.29105">
        <ele>949</ele>
        <time>2019-08-08T14:07:53.000Z</time>
      </trkpt>
      <trkpt lat="42.8016" lon="1.2911">
        <ele>949</ele>
        <time>2019-08-08T14:07:54.000Z</time>
      </trkpt>
      <trkpt lat="42.8016" lon="1.29114">
        <ele>949</ele>
        <time>2019-08-08T14:07:55.000Z</time>
      </trkpt>
      <trkpt lat="42.80159" lon="1.29119">
        <ele>949</ele>
        <time>2019-08-08T14:07:56.000Z</time>
      </trkpt>
      <trkpt lat="42.80159" lon="1.29123">
        <ele>949</ele>
        <time>2019-08-08T14:07:57.000Z</time>
      </trkpt>
      <trkpt lat="42.80158" lon="1.29127">
        <ele>951</ele>
        <time>2019-08-08T14:07:58.000Z</time>
      </trkpt>
      <trkpt lat="42.80157" lon="1.29131">
        <ele>951</ele>
        <time>2019-08-08T14:07:59.000Z</time>
      </trkpt>
      <trkpt lat="42.80157" lon="1.29135">
        <ele>951</ele>
        <time>2019-08-08T14:08:00.000Z</time>
      </trkpt>
      <trkpt lat="42.80156" lon="1.29139">
        <ele>951</ele>
        <time>2019-08-08T14:08:01.000Z</time>
      </trkpt>
      <trkpt lat="42.80156" lon="1.29144">
        <ele>952</ele>
        <time>2019-08-08T14:08:02.000Z</time>
      </trkpt>
      <trkpt lat="42.80155" lon="1.29148">
        <ele>952</ele>
        <time>2019-08-08T14:08:03.000Z</time>
      </trkpt>
      <trkpt lat="42.80154" lon="1.29152">
        <ele>952</ele>
        <time>2019-08-08T14:08:04.000Z</time>
      </trkpt>
      <trkpt lat="42.80152" lon="1.29156">
        <ele>952</ele>
        <time>2019-08-08T14:08:05.000Z</time>
      </trkpt>
      <trkpt lat="42.80151" lon="1.29161">
        <ele>953</ele>
        <time>2019-08-08T14:08:06.000Z</time>
      </trkpt>
      <trkpt lat="42.8015" lon="1.29165">
        <ele>953</ele>
        <time>2019-08-08T14:08:07.000Z</time>
      </trkpt>
      <trkpt lat="42.80148" lon="1.29171">
        <ele>953</ele>
        <time>2019-08-08T14:08:08.000Z</time>
      </trkpt>
      <trkpt lat="42.80147" lon="1.29173">
        <ele>953</ele>
        <time>2019-08-08T14:08:09.000Z</time>
      </trkpt>
      <trkpt lat="42.80146" lon="1.29178">
        <ele>954</ele>
        <time>2019-08-08T14:08:10.000Z</time>
      </trkpt>
      <trkpt lat="42.80145" lon="1.29182">
        <ele>954</ele>
        <time>2019-08-08T14:08:11.000Z</time>
      </trkpt>
      <trkpt lat="42.80144" lon="1.29186">
        <ele>954</ele>
        <time>2019-08-08T14:08:12.000Z</time>
      </trkpt>
      <trkpt lat="42.80142" lon="1.2919">
        <ele>954</ele>
        <time>2019-08-08T14:08:13.000Z</time>
      </trkpt>
      <trkpt lat="42.80141" lon="1.29195">
        <ele>954</ele>
        <time>2019-08-08T14:08:14.000Z</time>
      </trkpt>
      <trkpt lat="42.80141" lon="1.29199">
        <ele>955</ele>
        <time>2019-08-08T14:08:15.000Z</time>
      </trkpt>
      <trkpt lat="42.8014" lon="1.29203">
        <ele>955</ele>
        <time>2019-08-08T14:08:16.000Z</time>
      </trkpt>
      <trkpt lat="42.8014" lon="1.29207">
        <ele>955</ele>
        <time>2019-08-08T14:08:17.000Z</time>
      </trkpt>
      <trkpt lat="42.80139" lon="1.29211">
        <ele>955</ele>
        <time>2019-08-08T14:08:18.000Z</time>
      </trkpt>
      <trkpt lat="42.80138" lon="1.29215">
        <ele>956</ele>
        <time>2019-08-08T14:08:19.000Z</time>
      </trkpt>
      <trkpt lat="42.80138" lon="1.29219">
        <ele>956</ele>
        <time>2019-08-08T14:08:20.000Z</time>
      </trkpt>
      <trkpt lat="42.80138" lon="1.29223">
        <ele>956</ele>
        <time>2019-08-08T14:08:21.000Z</time>
      </trkpt>
      <trkpt lat="42.80137" lon="1.29228">
        <ele>957</ele>
        <time>2019-08-08T14:08:22.000Z</time>
      </trkpt>
      <trkpt lat="42.80136" lon="1.29232">
        <ele>957</ele>
        <time>2019-08-08T14:08:23.000Z</time>
      </trkpt>
      <trkpt lat="42.80135" lon="1.29236">
        <ele>958</ele>
        <time>2019-08-08T14:08:24.000Z</time>
      </trkpt>
      <trkpt lat="42.80135" lon="1.2924">
        <ele>958</ele>
        <time>2019-08-08T14:08:25.000Z</time>
      </trkpt>
      <trkpt lat="42.80134" lon="1.29245">
        <ele>958</ele>
        <time>2019-08-08T14:08:26.000Z</time>
      </trkpt>
      <trkpt lat="42.80133" lon="1.29249">
        <ele>958</ele>
        <time>2019-08-08T14:08:27.000Z</time>
      </trkpt>
      <trkpt lat="42.80132" lon="1.29253">
        <ele>959</ele>
        <time>2019-08-08T14:08:28.000Z</time>
      </trkpt>
      <trkpt lat="42.80132" lon="1.29257">
        <ele>959</ele>
        <time>2019-08-08T14:08:29.000Z</time>
      </trkpt>
      <trkpt lat="42.80132" lon="1.29257">
        <ele>959</ele>
        <time>2019-08-08T14:08:30.000Z</time>
      </trkpt>
      <trkpt lat="42.80131" lon="1.29265">
        <ele>959</ele>
        <time>2019-08-08T14:08:31.000Z</time>
      </trkpt>
      <trkpt lat="42.80132" lon="1.29269">
        <ele>960</ele>
        <time>2019-08-08T14:08:32.000Z</time>
      </trkpt>
      <trkpt lat="42.80131" lon="1.29272">
        <ele>960</ele>
        <time>2019-08-08T14:08:33.000Z</time>
      </trkpt>
      <trkpt lat="42.80131" lon="1.29272">
        <ele>960</ele>
        <time>2019-08-08T14:08:34.000Z</time>
      </trkpt>
      <trkpt lat="42.80131" lon="1.29272">
        <ele>960</ele>
        <time>2019-08-08T14:08:35.000Z</time>
      </trkpt>
      <trkpt lat="42.80129" lon="1.29285">
        <ele>960</ele>
        <time>2019-08-08T14:08:36.000Z</time>
      </trkpt>
      <trkpt lat="42.80129" lon="1.29285">
        <ele>960</ele>
        <time>2019-08-08T14:08:37.000Z</time>
      </trkpt>
      <trkpt lat="42.80129" lon="1.29285">
        <ele>962</ele>
        <time>2019-08-08T14:08:38.000Z</time>
      </trkpt>
      <trkpt lat="42.80128" lon="1.29299">
        <ele>962</ele>
        <time>2019-08-08T14:08:39.000Z</time>
      </trkpt>
      <trkpt lat="42.80127" lon="1.293">
        <ele>962</ele>
        <time>2019-08-08T14:08:40.000Z</time>
      </trkpt>
      <trkpt lat="42.80127" lon="1.29302">
        <ele>962</ele>
        <time>2019-08-08T14:08:41.000Z</time>
      </trkpt>
      <trkpt lat="42.80127" lon="1.29304">
        <ele>963</ele>
        <time>2019-08-08T14:08:42.000Z</time>
      </trkpt>
      <trkpt lat="42.80127" lon="1.29305">
        <ele>963</ele>
        <time>2019-08-08T14:08:43.000Z</time>
      </trkpt>
      <trkpt lat="42.80126" lon="1.29313">
        <ele>965</ele>
        <time>2019-08-08T14:08:44.000Z</time>
      </trkpt>
      <trkpt lat="42.80126" lon="1.29313">
        <ele>965</ele>
        <time>2019-08-08T14:08:45.000Z</time>
      </trkpt>
      <trkpt lat="42.80123" lon="1.29327">
        <ele>965</ele>
        <time>2019-08-08T14:08:46.000Z</time>
      </trkpt>
      <trkpt lat="42.80123" lon="1.29327">
        <ele>965</ele>
        <time>2019-08-08T14:08:47.000Z</time>
      </trkpt>
      <trkpt lat="42.80123" lon="1.29327">
        <ele>965</ele>
        <time>2019-08-08T14:08:48.000Z</time>
      </trkpt>
      <trkpt lat="42.80121" lon="1.29342">
        <ele>965</ele>
        <time>2019-08-08T14:08:49.000Z</time>
      </trkpt>
      <trkpt lat="42.80121" lon="1.29344">
        <ele>965</ele>
        <time>2019-08-08T14:08:50.000Z</time>
      </trkpt>
      <trkpt lat="42.80121" lon="1.29346">
        <ele>965</ele>
        <time>2019-08-08T14:08:51.000Z</time>
      </trkpt>
      <trkpt lat="42.80121" lon="1.29353">
        <ele>967</ele>
        <time>2019-08-08T14:08:52.000Z</time>
      </trkpt>
      <trkpt lat="42.80122" lon="1.29359">
        <ele>967</ele>
        <time>2019-08-08T14:08:53.000Z</time>
      </trkpt>
      <trkpt lat="42.80122" lon="1.29364">
        <ele>967</ele>
        <time>2019-08-08T14:08:54.000Z</time>
      </trkpt>
      <trkpt lat="42.80122" lon="1.29369">
        <ele>967</ele>
        <time>2019-08-08T14:08:55.000Z</time>
      </trkpt>
      <trkpt lat="42.80123" lon="1.29374">
        <ele>968</ele>
        <time>2019-08-08T14:08:56.000Z</time>
      </trkpt>
      <trkpt lat="42.80123" lon="1.29378">
        <ele>968</ele>
        <time>2019-08-08T14:08:57.000Z</time>
      </trkpt>
      <trkpt lat="42.80123" lon="1.29385">
        <ele>968</ele>
        <time>2019-08-08T14:08:58.000Z</time>
      </trkpt>
      <trkpt lat="42.80123" lon="1.29387">
        <ele>968</ele>
        <time>2019-08-08T14:08:59.000Z</time>
      </trkpt>
      <trkpt lat="42.80124" lon="1.29392">
        <ele>968</ele>
        <time>2019-08-08T14:09:00.000Z</time>
      </trkpt>
      <trkpt lat="42.80123" lon="1.29396">
        <ele>968</ele>
        <time>2019-08-08T14:09:01.000Z</time>
      </trkpt>
      <trkpt lat="42.80124" lon="1.29401">
        <ele>968</ele>
        <time>2019-08-08T14:09:02.000Z</time>
      </trkpt>
      <trkpt lat="42.80124" lon="1.29405">
        <ele>969</ele>
        <time>2019-08-08T14:09:03.000Z</time>
      </trkpt>
      <trkpt lat="42.80124" lon="1.2941">
        <ele>969</ele>
        <time>2019-08-08T14:09:04.000Z</time>
      </trkpt>
      <trkpt lat="42.80124" lon="1.29415">
        <ele>969</ele>
        <time>2019-08-08T14:09:05.000Z</time>
      </trkpt>
      <trkpt lat="42.80124" lon="1.29419">
        <ele>969</ele>
        <time>2019-08-08T14:09:06.000Z</time>
      </trkpt>
      <trkpt lat="42.80123" lon="1.29424">
        <ele>970</ele>
        <time>2019-08-08T14:09:07.000Z</time>
      </trkpt>
      <trkpt lat="42.80124" lon="1.29429">
        <ele>970</ele>
        <time>2019-08-08T14:09:08.000Z</time>
      </trkpt>
      <trkpt lat="42.80124" lon="1.29433">
        <ele>970</ele>
        <time>2019-08-08T14:09:09.000Z</time>
      </trkpt>
      <trkpt lat="42.80124" lon="1.29438">
        <ele>970</ele>
        <time>2019-08-08T14:09:10.000Z</time>
      </trkpt>
      <trkpt lat="42.80124" lon="1.29442">
        <ele>970</ele>
        <time>2019-08-08T14:09:11.000Z</time>
      </trkpt>
      <trkpt lat="42.80125" lon="1.29447">
        <ele>970</ele>
        <time>2019-08-08T14:09:12.000Z</time>
      </trkpt>
      <trkpt lat="42.80125" lon="1.29451">
        <ele>972</ele>
        <time>2019-08-08T14:09:13.000Z</time>
      </trkpt>
      <trkpt lat="42.80125" lon="1.29456">
        <ele>972</ele>
        <time>2019-08-08T14:09:14.000Z</time>
      </trkpt>
      <trkpt lat="42.80126" lon="1.29461">
        <ele>972</ele>
        <time>2019-08-08T14:09:15.000Z</time>
      </trkpt>
      <trkpt lat="42.80126" lon="1.29465">
        <ele>972</ele>
        <time>2019-08-08T14:09:16.000Z</time>
      </trkpt>
      <trkpt lat="42.80126" lon="1.2947">
        <ele>972</ele>
        <time>2019-08-08T14:09:17.000Z</time>
      </trkpt>
      <trkpt lat="42.80127" lon="1.29474">
        <ele>972</ele>
        <time>2019-08-08T14:09:18.000Z</time>
      </trkpt>
      <trkpt lat="42.80128" lon="1.29479">
        <ele>973</ele>
        <time>2019-08-08T14:09:19.000Z</time>
      </trkpt>
      <trkpt lat="42.80129" lon="1.29483">
        <ele>973</ele>
        <time>2019-08-08T14:09:20.000Z</time>
      </trkpt>
      <trkpt lat="42.8013" lon="1.29487">
        <ele>973</ele>
        <time>2019-08-08T14:09:21.000Z</time>
      </trkpt>
      <trkpt lat="42.80131" lon="1.29492">
        <ele>974</ele>
        <time>2019-08-08T14:09:22.000Z</time>
      </trkpt>
      <trkpt lat="42.80132" lon="1.29496">
        <ele>974</ele>
        <time>2019-08-08T14:09:23.000Z</time>
      </trkpt>
      <trkpt lat="42.80133" lon="1.29501">
        <ele>974</ele>
        <time>2019-08-08T14:09:24.000Z</time>
      </trkpt>
      <trkpt lat="42.80134" lon="1.29505">
        <ele>974</ele>
        <time>2019-08-08T14:09:25.000Z</time>
      </trkpt>
      <trkpt lat="42.80134" lon="1.2951">
        <ele>975</ele>
        <time>2019-08-08T14:09:26.000Z</time>
      </trkpt>
      <trkpt lat="42.80135" lon="1.29515">
        <ele>975</ele>
        <time>2019-08-08T14:09:27.000Z</time>
      </trkpt>
      <trkpt lat="42.80135" lon="1.29519">
        <ele>975</ele>
        <time>2019-08-08T14:09:28.000Z</time>
      </trkpt>
      <trkpt lat="42.80136" lon="1.29524">
        <ele>975</ele>
        <time>2019-08-08T14:09:29.000Z</time>
      </trkpt>
      <trkpt lat="42.80136" lon="1.29528">
        <ele>975</ele>
        <time>2019-08-08T14:09:30.000Z</time>
      </trkpt>
      <trkpt lat="42.80136" lon="1.29533">
        <ele>975</ele>
        <time>2019-08-08T14:09:31.000Z</time>
      </trkpt>
      <trkpt lat="42.80137" lon="1.29538">
        <ele>976</ele>
        <time>2019-08-08T14:09:32.000Z</time>
      </trkpt>
      <trkpt lat="42.80137" lon="1.29543">
        <ele>976</ele>
        <time>2019-08-08T14:09:33.000Z</time>
      </trkpt>
      <trkpt lat="42.80137" lon="1.29547">
        <ele>977</ele>
        <time>2019-08-08T14:09:34.000Z</time>
      </trkpt>
      <trkpt lat="42.80137" lon="1.29552">
        <ele>977</ele>
        <time>2019-08-08T14:09:35.000Z</time>
      </trkpt>
      <trkpt lat="42.80137" lon="1.29557">
        <ele>977</ele>
        <time>2019-08-08T14:09:36.000Z</time>
      </trkpt>
      <trkpt lat="42.80137" lon="1.29561">
        <ele>977</ele>
        <time>2019-08-08T14:09:37.000Z</time>
      </trkpt>
      <trkpt lat="42.80137" lon="1.29565">
        <ele>978</ele>
        <time>2019-08-08T14:09:38.000Z</time>
      </trkpt>
      <trkpt lat="42.80137" lon="1.2957">
        <ele>978</ele>
        <time>2019-08-08T14:09:39.000Z</time>
      </trkpt>
      <trkpt lat="42.80137" lon="1.29574">
        <ele>978</ele>
        <time>2019-08-08T14:09:40.000Z</time>
      </trkpt>
      <trkpt lat="42.80136" lon="1.29578">
        <ele>978</ele>
        <time>2019-08-08T14:09:41.000Z</time>
      </trkpt>
      <trkpt lat="42.80136" lon="1.29582">
        <ele>978</ele>
        <time>2019-08-08T14:09:42.000Z</time>
      </trkpt>
      <trkpt lat="42.80135" lon="1.29586">
        <ele>978</ele>
        <time>2019-08-08T14:09:43.000Z</time>
      </trkpt>
      <trkpt lat="42.80135" lon="1.2959">
        <ele>979</ele>
        <time>2019-08-08T14:09:44.000Z</time>
      </trkpt>
      <trkpt lat="42.80135" lon="1.29594">
        <ele>979</ele>
        <time>2019-08-08T14:09:45.000Z</time>
      </trkpt>
      <trkpt lat="42.80134" lon="1.29598">
        <ele>980</ele>
        <time>2019-08-08T14:09:46.000Z</time>
      </trkpt>
      <trkpt lat="42.80133" lon="1.29604">
        <ele>980</ele>
        <time>2019-08-08T14:09:47.000Z</time>
      </trkpt>
      <trkpt lat="42.80133" lon="1.29607">
        <ele>982</ele>
        <time>2019-08-08T14:09:48.000Z</time>
      </trkpt>
      <trkpt lat="42.80133" lon="1.29609">
        <ele>982</ele>
        <time>2019-08-08T14:09:49.000Z</time>
      </trkpt>
      <trkpt lat="42.80132" lon="1.29617">
        <ele>982</ele>
        <time>2019-08-08T14:09:50.000Z</time>
      </trkpt>
      <trkpt lat="42.80132" lon="1.29621">
        <ele>982</ele>
        <time>2019-08-08T14:09:51.000Z</time>
      </trkpt>
      <trkpt lat="42.80132" lon="1.29626">
        <ele>982</ele>
        <time>2019-08-08T14:09:52.000Z</time>
      </trkpt>
      <trkpt lat="42.80132" lon="1.2963">
        <ele>982</ele>
        <time>2019-08-08T14:09:53.000Z</time>
      </trkpt>
      <trkpt lat="42.80132" lon="1.29635">
        <ele>983</ele>
        <time>2019-08-08T14:09:54.000Z</time>
      </trkpt>
      <trkpt lat="42.80132" lon="1.29639">
        <ele>983</ele>
        <time>2019-08-08T14:09:55.000Z</time>
      </trkpt>
      <trkpt lat="42.80132" lon="1.29644">
        <ele>984</ele>
        <time>2019-08-08T14:09:56.000Z</time>
      </trkpt>
      <trkpt lat="42.80132" lon="1.29648">
        <ele>984</ele>
        <time>2019-08-08T14:09:57.000Z</time>
      </trkpt>
      <trkpt lat="42.80132" lon="1.29652">
        <ele>984</ele>
        <time>2019-08-08T14:09:58.000Z</time>
      </trkpt>
      <trkpt lat="42.80131" lon="1.29656">
        <ele>984</ele>
        <time>2019-08-08T14:09:59.000Z</time>
      </trkpt>
      <trkpt lat="42.80131" lon="1.29661">
        <ele>984</ele>
        <time>2019-08-08T14:10:00.000Z</time>
      </trkpt>
      <trkpt lat="42.80131" lon="1.29665">
        <ele>985</ele>
        <time>2019-08-08T14:10:01.000Z</time>
      </trkpt>
      <trkpt lat="42.80131" lon="1.29669">
        <ele>985</ele>
        <time>2019-08-08T14:10:02.000Z</time>
      </trkpt>
      <trkpt lat="42.80131" lon="1.29673">
        <ele>985</ele>
        <time>2019-08-08T14:10:03.000Z</time>
      </trkpt>
      <trkpt lat="42.8013" lon="1.2968">
        <ele>985</ele>
        <time>2019-08-08T14:10:04.000Z</time>
      </trkpt>
      <trkpt lat="42.8013" lon="1.29682">
        <ele>986</ele>
        <time>2019-08-08T14:10:05.000Z</time>
      </trkpt>
      <trkpt lat="42.80129" lon="1.29686">
        <ele>986</ele>
        <time>2019-08-08T14:10:06.000Z</time>
      </trkpt>
      <trkpt lat="42.80128" lon="1.2969">
        <ele>987</ele>
        <time>2019-08-08T14:10:07.000Z</time>
      </trkpt>
      <trkpt lat="42.80128" lon="1.29694">
        <ele>987</ele>
        <time>2019-08-08T14:10:08.000Z</time>
      </trkpt>
      <trkpt lat="42.80127" lon="1.29698">
        <ele>987</ele>
        <time>2019-08-08T14:10:09.000Z</time>
      </trkpt>
      <trkpt lat="42.80126" lon="1.29702">
        <ele>987</ele>
        <time>2019-08-08T14:10:10.000Z</time>
      </trkpt>
      <trkpt lat="42.80125" lon="1.29706">
        <ele>988</ele>
        <time>2019-08-08T14:10:11.000Z</time>
      </trkpt>
      <trkpt lat="42.80125" lon="1.2971">
        <ele>988</ele>
        <time>2019-08-08T14:10:12.000Z</time>
      </trkpt>
      <trkpt lat="42.80124" lon="1.29714">
        <ele>989</ele>
        <time>2019-08-08T14:10:13.000Z</time>
      </trkpt>
      <trkpt lat="42.80123" lon="1.29718">
        <ele>989</ele>
        <time>2019-08-08T14:10:14.000Z</time>
      </trkpt>
      <trkpt lat="42.80123" lon="1.29721">
        <ele>989</ele>
        <time>2019-08-08T14:10:15.000Z</time>
      </trkpt>
      <trkpt lat="42.80122" lon="1.29725">
        <ele>989</ele>
        <time>2019-08-08T14:10:16.000Z</time>
      </trkpt>
      <trkpt lat="42.80121" lon="1.29729">
        <ele>990</ele>
        <time>2019-08-08T14:10:17.000Z</time>
      </trkpt>
      <trkpt lat="42.8012" lon="1.29733">
        <ele>990</ele>
        <time>2019-08-08T14:10:18.000Z</time>
      </trkpt>
      <trkpt lat="42.8012" lon="1.29737">
        <ele>991</ele>
        <time>2019-08-08T14:10:19.000Z</time>
      </trkpt>
      <trkpt lat="42.80119" lon="1.2974">
        <ele>991</ele>
        <time>2019-08-08T14:10:20.000Z</time>
      </trkpt>
      <trkpt lat="42.80118" lon="1.29746">
        <ele>991</ele>
        <time>2019-08-08T14:10:21.000Z</time>
      </trkpt>
      <trkpt lat="42.80118" lon="1.29748">
        <ele>991</ele>
        <time>2019-08-08T14:10:22.000Z</time>
      </trkpt>
      <trkpt lat="42.80118" lon="1.29752">
        <ele>991</ele>
        <time>2019-08-08T14:10:23.000Z</time>
      </trkpt>
      <trkpt lat="42.80117" lon="1.29756">
        <ele>991</ele>
        <time>2019-08-08T14:10:24.000Z</time>
      </trkpt>
      <trkpt lat="42.80116" lon="1.2976">
        <ele>993</ele>
        <time>2019-08-08T14:10:25.000Z</time>
      </trkpt>
      <trkpt lat="42.80115" lon="1.29764">
        <ele>993</ele>
        <time>2019-08-08T14:10:26.000Z</time>
      </trkpt>
      <trkpt lat="42.80114" lon="1.29767">
        <ele>994</ele>
        <time>2019-08-08T14:10:27.000Z</time>
      </trkpt>
      <trkpt lat="42.80114" lon="1.29771">
        <ele>994</ele>
        <time>2019-08-08T14:10:28.000Z</time>
      </trkpt>
      <trkpt lat="42.80113" lon="1.29775">
        <ele>994</ele>
        <time>2019-08-08T14:10:29.000Z</time>
      </trkpt>
      <trkpt lat="42.80113" lon="1.29779">
        <ele>994</ele>
        <time>2019-08-08T14:10:30.000Z</time>
      </trkpt>
      <trkpt lat="42.80112" lon="1.29783">
        <ele>994</ele>
        <time>2019-08-08T14:10:31.000Z</time>
      </trkpt>
      <trkpt lat="42.80112" lon="1.29787">
        <ele>994</ele>
        <time>2019-08-08T14:10:32.000Z</time>
      </trkpt>
      <trkpt lat="42.80112" lon="1.29791">
        <ele>994</ele>
        <time>2019-08-08T14:10:33.000Z</time>
      </trkpt>
      <trkpt lat="42.80112" lon="1.29795">
        <ele>994</ele>
        <time>2019-08-08T14:10:34.000Z</time>
      </trkpt>
      <trkpt lat="42.80112" lon="1.298">
        <ele>994</ele>
        <time>2019-08-08T14:10:35.000Z</time>
      </trkpt>
      <trkpt lat="42.80111" lon="1.29804">
        <ele>994</ele>
        <time>2019-08-08T14:10:36.000Z</time>
      </trkpt>
      <trkpt lat="42.8011" lon="1.29808">
        <ele>994</ele>
        <time>2019-08-08T14:10:37.000Z</time>
      </trkpt>
      <trkpt lat="42.80109" lon="1.29814">
        <ele>995</ele>
        <time>2019-08-08T14:10:38.000Z</time>
      </trkpt>
      <trkpt lat="42.80109" lon="1.29816">
        <ele>995</ele>
        <time>2019-08-08T14:10:39.000Z</time>
      </trkpt>
      <trkpt lat="42.80108" lon="1.29821">
        <ele>995</ele>
        <time>2019-08-08T14:10:40.000Z</time>
      </trkpt>
      <trkpt lat="42.80107" lon="1.29825">
        <ele>995</ele>
        <time>2019-08-08T14:10:41.000Z</time>
      </trkpt>
      <trkpt lat="42.80107" lon="1.29829">
        <ele>996</ele>
        <time>2019-08-08T14:10:42.000Z</time>
      </trkpt>
      <trkpt lat="42.80107" lon="1.29833">
        <ele>996</ele>
        <time>2019-08-08T14:10:43.000Z</time>
      </trkpt>
      <trkpt lat="42.80107" lon="1.29837">
        <ele>997</ele>
        <time>2019-08-08T14:10:44.000Z</time>
      </trkpt>
      <trkpt lat="42.80107" lon="1.29842">
        <ele>997</ele>
        <time>2019-08-08T14:10:45.000Z</time>
      </trkpt>
      <trkpt lat="42.80107" lon="1.29846">
        <ele>997</ele>
        <time>2019-08-08T14:10:46.000Z</time>
      </trkpt>
      <trkpt lat="42.80106" lon="1.2985">
        <ele>997</ele>
        <time>2019-08-08T14:10:47.000Z</time>
      </trkpt>
      <trkpt lat="42.80105" lon="1.29854">
        <ele>997</ele>
        <time>2019-08-08T14:10:48.000Z</time>
      </trkpt>
      <trkpt lat="42.80105" lon="1.29858">
        <ele>997</ele>
        <time>2019-08-08T14:10:49.000Z</time>
      </trkpt>
      <trkpt lat="42.80103" lon="1.29862">
        <ele>998</ele>
        <time>2019-08-08T14:10:50.000Z</time>
      </trkpt>
      <trkpt lat="42.80102" lon="1.29866">
        <ele>998</ele>
        <time>2019-08-08T14:10:51.000Z</time>
      </trkpt>
      <trkpt lat="42.80101" lon="1.29869">
        <ele>999</ele>
        <time>2019-08-08T14:10:52.000Z</time>
      </trkpt>
      <trkpt lat="42.80097" lon="1.29879">
        <ele>999</ele>
        <time>2019-08-08T14:10:53.000Z</time>
      </trkpt>
      <trkpt lat="42.80096" lon="1.29882">
        <ele>1000</ele>
        <time>2019-08-08T14:10:54.000Z</time>
      </trkpt>
      <trkpt lat="42.80095" lon="1.29885">
        <ele>1000</ele>
        <time>2019-08-08T14:10:55.000Z</time>
      </trkpt>
      <trkpt lat="42.80095" lon="1.29888">
        <ele>1001</ele>
        <time>2019-08-08T14:10:56.000Z</time>
      </trkpt>
      <trkpt lat="42.80095" lon="1.29888">
        <ele>1001</ele>
        <time>2019-08-08T14:10:57.000Z</time>
      </trkpt>
      <trkpt lat="42.80095" lon="1.29888">
        <ele>1001</ele>
        <time>2019-08-08T14:10:58.000Z</time>
      </trkpt>
      <trkpt lat="42.80093" lon="1.29902">
        <ele>1001</ele>
        <time>2019-08-08T14:10:59.000Z</time>
      </trkpt>
      <trkpt lat="42.80092" lon="1.29907">
        <ele>1001</ele>
        <time>2019-08-08T14:11:00.000Z</time>
      </trkpt>
      <trkpt lat="42.80092" lon="1.29907">
        <ele>1002</ele>
        <time>2019-08-08T14:11:01.000Z</time>
      </trkpt>
      <trkpt lat="42.80092" lon="1.29915">
        <ele>1002</ele>
        <time>2019-08-08T14:11:02.000Z</time>
      </trkpt>
      <trkpt lat="42.80091" lon="1.2992">
        <ele>1002</ele>
        <time>2019-08-08T14:11:03.000Z</time>
      </trkpt>
      <trkpt lat="42.80091" lon="1.29925">
        <ele>1003</ele>
        <time>2019-08-08T14:11:04.000Z</time>
      </trkpt>
      <trkpt lat="42.8009" lon="1.29929">
        <ele>1003</ele>
        <time>2019-08-08T14:11:05.000Z</time>
      </trkpt>
      <trkpt lat="42.8009" lon="1.29929">
        <ele>1004</ele>
        <time>2019-08-08T14:11:06.000Z</time>
      </trkpt>
      <trkpt lat="42.8009" lon="1.29929">
        <ele>1004</ele>
        <time>2019-08-08T14:11:07.000Z</time>
      </trkpt>
      <trkpt lat="42.80089" lon="1.29943">
        <ele>1004</ele>
        <time>2019-08-08T14:11:08.000Z</time>
      </trkpt>
      <trkpt lat="42.80089" lon="1.29943">
        <ele>1004</ele>
        <time>2019-08-08T14:11:09.000Z</time>
      </trkpt>
      <trkpt lat="42.80088" lon="1.29951">
        <ele>1005</ele>
        <time>2019-08-08T14:11:10.000Z</time>
      </trkpt>
      <trkpt lat="42.80087" lon="1.29957">
        <ele>1005</ele>
        <time>2019-08-08T14:11:11.000Z</time>
      </trkpt>
      <trkpt lat="42.80087" lon="1.29959">
        <ele>1005</ele>
        <time>2019-08-08T14:11:12.000Z</time>
      </trkpt>
      <trkpt lat="42.80086" lon="1.29964">
        <ele>1005</ele>
        <time>2019-08-08T14:11:13.000Z</time>
      </trkpt>
      <trkpt lat="42.80085" lon="1.29968">
        <ele>1005</ele>
        <time>2019-08-08T14:11:14.000Z</time>
      </trkpt>
      <trkpt lat="42.80085" lon="1.29973">
        <ele>1006</ele>
        <time>2019-08-08T14:11:15.000Z</time>
      </trkpt>
      <trkpt lat="42.80084" lon="1.29977">
        <ele>1006</ele>
        <time>2019-08-08T14:11:16.000Z</time>
      </trkpt>
      <trkpt lat="42.80084" lon="1.29981">
        <ele>1006</ele>
        <time>2019-08-08T14:11:17.000Z</time>
      </trkpt>
      <trkpt lat="42.80084" lon="1.29981">
        <ele>1006</ele>
        <time>2019-08-08T14:11:18.000Z</time>
      </trkpt>
      <trkpt lat="42.80084" lon="1.29989">
        <ele>1007</ele>
        <time>2019-08-08T14:11:19.000Z</time>
      </trkpt>
      <trkpt lat="42.80084" lon="1.29994">
        <ele>1007</ele>
        <time>2019-08-08T14:11:20.000Z</time>
      </trkpt>
      <trkpt lat="42.80084" lon="1.29998">
        <ele>1008</ele>
        <time>2019-08-08T14:11:21.000Z</time>
      </trkpt>
      <trkpt lat="42.80084" lon="1.30002">
        <ele>1008</ele>
        <time>2019-08-08T14:11:22.000Z</time>
      </trkpt>
      <trkpt lat="42.80082" lon="1.30006">
        <ele>1009</ele>
        <time>2019-08-08T14:11:23.000Z</time>
      </trkpt>
      <trkpt lat="42.80082" lon="1.3001">
        <ele>1009</ele>
        <time>2019-08-08T14:11:24.000Z</time>
      </trkpt>
      <trkpt lat="42.80081" lon="1.30014">
        <ele>1009</ele>
        <time>2019-08-08T14:11:25.000Z</time>
      </trkpt>
      <trkpt lat="42.8008" lon="1.30019">
        <ele>1009</ele>
        <time>2019-08-08T14:11:26.000Z</time>
      </trkpt>
      <trkpt lat="42.8008" lon="1.30024">
        <ele>1009</ele>
        <time>2019-08-08T14:11:27.000Z</time>
      </trkpt>
      <trkpt lat="42.80079" lon="1.30028">
        <ele>1009</ele>
        <time>2019-08-08T14:11:28.000Z</time>
      </trkpt>
      <trkpt lat="42.80078" lon="1.30031">
        <ele>1009</ele>
        <time>2019-08-08T14:11:29.000Z</time>
      </trkpt>
      <trkpt lat="42.80077" lon="1.30035">
        <ele>1010</ele>
        <time>2019-08-08T14:11:30.000Z</time>
      </trkpt>
      <trkpt lat="42.80077" lon="1.30039">
        <ele>1010</ele>
        <time>2019-08-08T14:11:31.000Z</time>
      </trkpt>
      <trkpt lat="42.80076" lon="1.30043">
        <ele>1010</ele>
        <time>2019-08-08T14:11:32.000Z</time>
      </trkpt>
      <trkpt lat="42.80075" lon="1.30047">
        <ele>1010</ele>
        <time>2019-08-08T14:11:33.000Z</time>
      </trkpt>
      <trkpt lat="42.80073" lon="1.30051">
        <ele>1011</ele>
        <time>2019-08-08T14:11:34.000Z</time>
      </trkpt>
      <trkpt lat="42.80071" lon="1.30055">
        <ele>1011</ele>
        <time>2019-08-08T14:11:35.000Z</time>
      </trkpt>
      <trkpt lat="42.80069" lon="1.30059">
        <ele>1011</ele>
        <time>2019-08-08T14:11:36.000Z</time>
      </trkpt>
      <trkpt lat="42.80067" lon="1.30063">
        <ele>1011</ele>
        <time>2019-08-08T14:11:37.000Z</time>
      </trkpt>
      <trkpt lat="42.80065" lon="1.30067">
        <ele>1012</ele>
        <time>2019-08-08T14:11:38.000Z</time>
      </trkpt>
      <trkpt lat="42.80064" lon="1.3007">
        <ele>1012</ele>
        <time>2019-08-08T14:11:39.000Z</time>
      </trkpt>
      <trkpt lat="42.80062" lon="1.30075">
        <ele>1013</ele>
        <time>2019-08-08T14:11:40.000Z</time>
      </trkpt>
      <trkpt lat="42.80061" lon="1.30079">
        <ele>1013</ele>
        <time>2019-08-08T14:11:41.000Z</time>
      </trkpt>
      <trkpt lat="42.8006" lon="1.30083">
        <ele>1013</ele>
        <time>2019-08-08T14:11:42.000Z</time>
      </trkpt>
      <trkpt lat="42.80059" lon="1.30087">
        <ele>1013</ele>
        <time>2019-08-08T14:11:43.000Z</time>
      </trkpt>
      <trkpt lat="42.80057" lon="1.30092">
        <ele>1014</ele>
        <time>2019-08-08T14:11:44.000Z</time>
      </trkpt>
      <trkpt lat="42.80056" lon="1.30096">
        <ele>1014</ele>
        <time>2019-08-08T14:11:45.000Z</time>
      </trkpt>
      <trkpt lat="42.80055" lon="1.301">
        <ele>1014</ele>
        <time>2019-08-08T14:11:46.000Z</time>
      </trkpt>
      <trkpt lat="42.80054" lon="1.30104">
        <ele>1015</ele>
        <time>2019-08-08T14:11:47.000Z</time>
      </trkpt>
      <trkpt lat="42.80052" lon="1.30108">
        <ele>1015</ele>
        <time>2019-08-08T14:11:48.000Z</time>
      </trkpt>
      <trkpt lat="42.8005" lon="1.30112">
        <ele>1015</ele>
        <time>2019-08-08T14:11:49.000Z</time>
      </trkpt>
      <trkpt lat="42.80049" lon="1.30116">
        <ele>1015</ele>
        <time>2019-08-08T14:11:50.000Z</time>
      </trkpt>
      <trkpt lat="42.80047" lon="1.3012">
        <ele>1015</ele>
        <time>2019-08-08T14:11:51.000Z</time>
      </trkpt>
      <trkpt lat="42.80045" lon="1.30124">
        <ele>1015</ele>
        <time>2019-08-08T14:11:52.000Z</time>
      </trkpt>
      <trkpt lat="42.80043" lon="1.30127">
        <ele>1016</ele>
        <time>2019-08-08T14:11:53.000Z</time>
      </trkpt>
      <trkpt lat="42.80042" lon="1.30131">
        <ele>1017</ele>
        <time>2019-08-08T14:11:54.000Z</time>
      </trkpt>
      <trkpt lat="42.8004" lon="1.30136">
        <ele>1018</ele>
        <time>2019-08-08T14:11:55.000Z</time>
      </trkpt>
      <trkpt lat="42.80039" lon="1.3014">
        <ele>1018</ele>
        <time>2019-08-08T14:11:56.000Z</time>
      </trkpt>
      <trkpt lat="42.80039" lon="1.30144">
        <ele>1018</ele>
        <time>2019-08-08T14:11:57.000Z</time>
      </trkpt>
      <trkpt lat="42.80038" lon="1.30148">
        <ele>1018</ele>
        <time>2019-08-08T14:11:58.000Z</time>
      </trkpt>
      <trkpt lat="42.80036" lon="1.30153">
        <ele>1018</ele>
        <time>2019-08-08T14:11:59.000Z</time>
      </trkpt>
      <trkpt lat="42.80034" lon="1.30159">
        <ele>1019</ele>
        <time>2019-08-08T14:12:00.000Z</time>
      </trkpt>
      <trkpt lat="42.80034" lon="1.30161">
        <ele>1019</ele>
        <time>2019-08-08T14:12:01.000Z</time>
      </trkpt>
      <trkpt lat="42.80032" lon="1.30165">
        <ele>1019</ele>
        <time>2019-08-08T14:12:02.000Z</time>
      </trkpt>
      <trkpt lat="42.8003" lon="1.30168">
        <ele>1019</ele>
        <time>2019-08-08T14:12:03.000Z</time>
      </trkpt>
      <trkpt lat="42.80029" lon="1.30172">
        <ele>1020</ele>
        <time>2019-08-08T14:12:04.000Z</time>
      </trkpt>
      <trkpt lat="42.80026" lon="1.30176">
        <ele>1020</ele>
        <time>2019-08-08T14:12:05.000Z</time>
      </trkpt>
      <trkpt lat="42.80024" lon="1.3018">
        <ele>1020</ele>
        <time>2019-08-08T14:12:06.000Z</time>
      </trkpt>
      <trkpt lat="42.80022" lon="1.30184">
        <ele>1020</ele>
        <time>2019-08-08T14:12:07.000Z</time>
      </trkpt>
      <trkpt lat="42.8002" lon="1.30188">
        <ele>1020</ele>
        <time>2019-08-08T14:12:08.000Z</time>
      </trkpt>
      <trkpt lat="42.80018" lon="1.30191">
        <ele>1020</ele>
        <time>2019-08-08T14:12:09.000Z</time>
      </trkpt>
      <trkpt lat="42.80016" lon="1.30195">
        <ele>1021</ele>
        <time>2019-08-08T14:12:10.000Z</time>
      </trkpt>
      <trkpt lat="42.80013" lon="1.30198">
        <ele>1021</ele>
        <time>2019-08-08T14:12:11.000Z</time>
      </trkpt>
      <trkpt lat="42.80011" lon="1.30202">
        <ele>1021</ele>
        <time>2019-08-08T14:12:12.000Z</time>
      </trkpt>
      <trkpt lat="42.80009" lon="1.30206">
        <ele>1021</ele>
        <time>2019-08-08T14:12:13.000Z</time>
      </trkpt>
      <trkpt lat="42.80007" lon="1.30209">
        <ele>1022</ele>
        <time>2019-08-08T14:12:14.000Z</time>
      </trkpt>
      <trkpt lat="42.80005" lon="1.30213">
        <ele>1023</ele>
        <time>2019-08-08T14:12:15.000Z</time>
      </trkpt>
      <trkpt lat="42.80003" lon="1.30216">
        <ele>1023</ele>
        <time>2019-08-08T14:12:16.000Z</time>
      </trkpt>
      <trkpt lat="42.8" lon="1.30221">
        <ele>1023</ele>
        <time>2019-08-08T14:12:17.000Z</time>
      </trkpt>
      <trkpt lat="42.79998" lon="1.30223">
        <ele>1023</ele>
        <time>2019-08-08T14:12:18.000Z</time>
      </trkpt>
      <trkpt lat="42.79996" lon="1.30226">
        <ele>1023</ele>
        <time>2019-08-08T14:12:19.000Z</time>
      </trkpt>
      <trkpt lat="42.79994" lon="1.30229">
        <ele>1023</ele>
        <time>2019-08-08T14:12:20.000Z</time>
      </trkpt>
      <trkpt lat="42.79992" lon="1.30233">
        <ele>1024</ele>
        <time>2019-08-08T14:12:21.000Z</time>
      </trkpt>
      <trkpt lat="42.7999" lon="1.30236">
        <ele>1025</ele>
        <time>2019-08-08T14:12:22.000Z</time>
      </trkpt>
      <trkpt lat="42.79988" lon="1.3024">
        <ele>1025</ele>
        <time>2019-08-08T14:12:23.000Z</time>
      </trkpt>
      <trkpt lat="42.79986" lon="1.30243">
        <ele>1025</ele>
        <time>2019-08-08T14:12:24.000Z</time>
      </trkpt>
      <trkpt lat="42.79984" lon="1.30247">
        <ele>1025</ele>
        <time>2019-08-08T14:12:25.000Z</time>
      </trkpt>
      <trkpt lat="42.79981" lon="1.3025">
        <ele>1025</ele>
        <time>2019-08-08T14:12:26.000Z</time>
      </trkpt>
      <trkpt lat="42.79979" lon="1.30253">
        <ele>1025</ele>
        <time>2019-08-08T14:12:27.000Z</time>
      </trkpt>
      <trkpt lat="42.79976" lon="1.30256">
        <ele>1025</ele>
        <time>2019-08-08T14:12:28.000Z</time>
      </trkpt>
      <trkpt lat="42.79974" lon="1.3026">
        <ele>1025</ele>
        <time>2019-08-08T14:12:29.000Z</time>
      </trkpt>
      <trkpt lat="42.79972" lon="1.30264">
        <ele>1025</ele>
        <time>2019-08-08T14:12:30.000Z</time>
      </trkpt>
      <trkpt lat="42.79968" lon="1.30269">
        <ele>1025</ele>
        <time>2019-08-08T14:12:31.000Z</time>
      </trkpt>
      <trkpt lat="42.79967" lon="1.30271">
        <ele>1025</ele>
        <time>2019-08-08T14:12:32.000Z</time>
      </trkpt>
      <trkpt lat="42.79964" lon="1.30275">
        <ele>1026</ele>
        <time>2019-08-08T14:12:33.000Z</time>
      </trkpt>
      <trkpt lat="42.7996" lon="1.3028">
        <ele>1026</ele>
        <time>2019-08-08T14:12:34.000Z</time>
      </trkpt>
      <trkpt lat="42.79959" lon="1.30281">
        <ele>1026</ele>
        <time>2019-08-08T14:12:35.000Z</time>
      </trkpt>
      <trkpt lat="42.79956" lon="1.30284">
        <ele>1026</ele>
        <time>2019-08-08T14:12:36.000Z</time>
      </trkpt>
      <trkpt lat="42.79954" lon="1.30288">
        <ele>1027</ele>
        <time>2019-08-08T14:12:37.000Z</time>
      </trkpt>
      <trkpt lat="42.79952" lon="1.30291">
        <ele>1027</ele>
        <time>2019-08-08T14:12:38.000Z</time>
      </trkpt>
      <trkpt lat="42.79949" lon="1.30295">
        <ele>1028</ele>
        <time>2019-08-08T14:12:39.000Z</time>
      </trkpt>
      <trkpt lat="42.79947" lon="1.30299">
        <ele>1028</ele>
        <time>2019-08-08T14:12:40.000Z</time>
      </trkpt>
      <trkpt lat="42.79945" lon="1.30302">
        <ele>1028</ele>
        <time>2019-08-08T14:12:41.000Z</time>
      </trkpt>
      <trkpt lat="42.79943" lon="1.30306">
        <ele>1029</ele>
        <time>2019-08-08T14:12:42.000Z</time>
      </trkpt>
      <trkpt lat="42.79942" lon="1.30309">
        <ele>1029</ele>
        <time>2019-08-08T14:12:43.000Z</time>
      </trkpt>
      <trkpt lat="42.7994" lon="1.30313">
        <ele>1029</ele>
        <time>2019-08-08T14:12:44.000Z</time>
      </trkpt>
      <trkpt lat="42.79937" lon="1.30316">
        <ele>1030</ele>
        <time>2019-08-08T14:12:45.000Z</time>
      </trkpt>
      <trkpt lat="42.79935" lon="1.30319">
        <ele>1030</ele>
        <time>2019-08-08T14:12:46.000Z</time>
      </trkpt>
      <trkpt lat="42.79933" lon="1.30323">
        <ele>1030</ele>
        <time>2019-08-08T14:12:47.000Z</time>
      </trkpt>
      <trkpt lat="42.79931" lon="1.30326">
        <ele>1030</ele>
        <time>2019-08-08T14:12:48.000Z</time>
      </trkpt>
      <trkpt lat="42.79928" lon="1.3033">
        <ele>1030</ele>
        <time>2019-08-08T14:12:49.000Z</time>
      </trkpt>
      <trkpt lat="42.79926" lon="1.30333">
        <ele>1030</ele>
        <time>2019-08-08T14:12:50.000Z</time>
      </trkpt>
      <trkpt lat="42.79924" lon="1.30337">
        <ele>1031</ele>
        <time>2019-08-08T14:12:51.000Z</time>
      </trkpt>
      <trkpt lat="42.79923" lon="1.30339">
        <ele>1031</ele>
        <time>2019-08-08T14:12:52.000Z</time>
      </trkpt>
      <trkpt lat="42.79922" lon="1.30342">
        <ele>1031</ele>
        <time>2019-08-08T14:12:53.000Z</time>
      </trkpt>
      <trkpt lat="42.7992" lon="1.30344">
        <ele>1031</ele>
        <time>2019-08-08T14:12:54.000Z</time>
      </trkpt>
      <trkpt lat="42.79918" lon="1.30347">
        <ele>1032</ele>
        <time>2019-08-08T14:12:55.000Z</time>
      </trkpt>
      <trkpt lat="42.79917" lon="1.30349">
        <ele>1032</ele>
        <time>2019-08-08T14:12:56.000Z</time>
      </trkpt>
      <trkpt lat="42.79916" lon="1.30352">
        <ele>1032</ele>
        <time>2019-08-08T14:12:57.000Z</time>
      </trkpt>
      <trkpt lat="42.79916" lon="1.30356">
        <ele>1033</ele>
        <time>2019-08-08T14:12:58.000Z</time>
      </trkpt>
      <trkpt lat="42.79915" lon="1.30359">
        <ele>1033</ele>
        <time>2019-08-08T14:12:59.000Z</time>
      </trkpt>
      <trkpt lat="42.79913" lon="1.30362">
        <ele>1033</ele>
        <time>2019-08-08T14:13:00.000Z</time>
      </trkpt>
      <trkpt lat="42.79912" lon="1.30366">
        <ele>1034</ele>
        <time>2019-08-08T14:13:01.000Z</time>
      </trkpt>
      <trkpt lat="42.79911" lon="1.30369">
        <ele>1034</ele>
        <time>2019-08-08T14:13:02.000Z</time>
      </trkpt>
      <trkpt lat="42.79909" lon="1.30373">
        <ele>1034</ele>
        <time>2019-08-08T14:13:03.000Z</time>
      </trkpt>
      <trkpt lat="42.79908" lon="1.30377">
        <ele>1034</ele>
        <time>2019-08-08T14:13:04.000Z</time>
      </trkpt>
      <trkpt lat="42.79907" lon="1.3038">
        <ele>1034</ele>
        <time>2019-08-08T14:13:05.000Z</time>
      </trkpt>
      <trkpt lat="42.79906" lon="1.30384">
        <ele>1035</ele>
        <time>2019-08-08T14:13:06.000Z</time>
      </trkpt>
      <trkpt lat="42.79902" lon="1.30389">
        <ele>1035</ele>
        <time>2019-08-08T14:13:07.000Z</time>
      </trkpt>
      <trkpt lat="42.79901" lon="1.30391">
        <ele>1036</ele>
        <time>2019-08-08T14:13:08.000Z</time>
      </trkpt>
      <trkpt lat="42.79899" lon="1.30395">
        <ele>1036</ele>
        <time>2019-08-08T14:13:09.000Z</time>
      </trkpt>
      <trkpt lat="42.79897" lon="1.30399">
        <ele>1036</ele>
        <time>2019-08-08T14:13:10.000Z</time>
      </trkpt>
      <trkpt lat="42.79895" lon="1.30404">
        <ele>1036</ele>
        <time>2019-08-08T14:13:11.000Z</time>
      </trkpt>
      <trkpt lat="42.79893" lon="1.30408">
        <ele>1037</ele>
        <time>2019-08-08T14:13:12.000Z</time>
      </trkpt>
      <trkpt lat="42.79891" lon="1.30413">
        <ele>1038</ele>
        <time>2019-08-08T14:13:13.000Z</time>
      </trkpt>
      <trkpt lat="42.79889" lon="1.30417">
        <ele>1038</ele>
        <time>2019-08-08T14:13:14.000Z</time>
      </trkpt>
      <trkpt lat="42.79887" lon="1.30421">
        <ele>1038</ele>
        <time>2019-08-08T14:13:15.000Z</time>
      </trkpt>
      <trkpt lat="42.79885" lon="1.30425">
        <ele>1038</ele>
        <time>2019-08-08T14:13:16.000Z</time>
      </trkpt>
      <trkpt lat="42.79883" lon="1.3043">
        <ele>1038</ele>
        <time>2019-08-08T14:13:17.000Z</time>
      </trkpt>
      <trkpt lat="42.7988" lon="1.30434">
        <ele>1039</ele>
        <time>2019-08-08T14:13:18.000Z</time>
      </trkpt>
      <trkpt lat="42.79878" lon="1.30438">
        <ele>1040</ele>
        <time>2019-08-08T14:13:19.000Z</time>
      </trkpt>
      <trkpt lat="42.79876" lon="1.30442">
        <ele>1040</ele>
        <time>2019-08-08T14:13:20.000Z</time>
      </trkpt>
      <trkpt lat="42.79874" lon="1.30445">
        <ele>1040</ele>
        <time>2019-08-08T14:13:21.000Z</time>
      </trkpt>
      <trkpt lat="42.79872" lon="1.30449">
        <ele>1040</ele>
        <time>2019-08-08T14:13:22.000Z</time>
      </trkpt>
      <trkpt lat="42.79871" lon="1.30453">
        <ele>1041</ele>
        <time>2019-08-08T14:13:23.000Z</time>
      </trkpt>
      <trkpt lat="42.7987" lon="1.30457">
        <ele>1041</ele>
        <time>2019-08-08T14:13:24.000Z</time>
      </trkpt>
      <trkpt lat="42.79868" lon="1.30461">
        <ele>1041</ele>
        <time>2019-08-08T14:13:25.000Z</time>
      </trkpt>
      <trkpt lat="42.79866" lon="1.30465">
        <ele>1041</ele>
        <time>2019-08-08T14:13:26.000Z</time>
      </trkpt>
      <trkpt lat="42.79865" lon="1.3047">
        <ele>1041</ele>
        <time>2019-08-08T14:13:27.000Z</time>
      </trkpt>
      <trkpt lat="42.79863" lon="1.30474">
        <ele>1041</ele>
        <time>2019-08-08T14:13:28.000Z</time>
      </trkpt>
      <trkpt lat="42.79862" lon="1.30478">
        <ele>1041</ele>
        <time>2019-08-08T14:13:29.000Z</time>
      </trkpt>
      <trkpt lat="42.7986" lon="1.30482">
        <ele>1042</ele>
        <time>2019-08-08T14:13:30.000Z</time>
      </trkpt>
      <trkpt lat="42.79859" lon="1.30486">
        <ele>1042</ele>
        <time>2019-08-08T14:13:31.000Z</time>
      </trkpt>
      <trkpt lat="42.79858" lon="1.30491">
        <ele>1042</ele>
        <time>2019-08-08T14:13:32.000Z</time>
      </trkpt>
      <trkpt lat="42.79856" lon="1.30495">
        <ele>1043</ele>
        <time>2019-08-08T14:13:33.000Z</time>
      </trkpt>
      <trkpt lat="42.79854" lon="1.30499">
        <ele>1043</ele>
        <time>2019-08-08T14:13:34.000Z</time>
      </trkpt>
      <trkpt lat="42.79852" lon="1.30503">
        <ele>1043</ele>
        <time>2019-08-08T14:13:35.000Z</time>
      </trkpt>
      <trkpt lat="42.79851" lon="1.30507">
        <ele>1043</ele>
        <time>2019-08-08T14:13:36.000Z</time>
      </trkpt>
      <trkpt lat="42.7985" lon="1.30511">
        <ele>1043</ele>
        <time>2019-08-08T14:13:37.000Z</time>
      </trkpt>
      <trkpt lat="42.79848" lon="1.30515">
        <ele>1044</ele>
        <time>2019-08-08T14:13:38.000Z</time>
      </trkpt>
      <trkpt lat="42.79847" lon="1.3052">
        <ele>1045</ele>
        <time>2019-08-08T14:13:39.000Z</time>
      </trkpt>
      <trkpt lat="42.79845" lon="1.30526">
        <ele>1045</ele>
        <time>2019-08-08T14:13:40.000Z</time>
      </trkpt>
      <trkpt lat="42.79844" lon="1.30528">
        <ele>1045</ele>
        <time>2019-08-08T14:13:41.000Z</time>
      </trkpt>
      <trkpt lat="42.79843" lon="1.30532">
        <ele>1045</ele>
        <time>2019-08-08T14:13:42.000Z</time>
      </trkpt>
      <trkpt lat="42.79842" lon="1.30536">
        <ele>1045</ele>
        <time>2019-08-08T14:13:43.000Z</time>
      </trkpt>
      <trkpt lat="42.7984" lon="1.3054">
        <ele>1045</ele>
        <time>2019-08-08T14:13:44.000Z</time>
      </trkpt>
      <trkpt lat="42.79839" lon="1.30543">
        <ele>1045</ele>
        <time>2019-08-08T14:13:45.000Z</time>
      </trkpt>
      <trkpt lat="42.79838" lon="1.30547">
        <ele>1046</ele>
        <time>2019-08-08T14:13:46.000Z</time>
      </trkpt>
      <trkpt lat="42.79836" lon="1.30551">
        <ele>1047</ele>
        <time>2019-08-08T14:13:47.000Z</time>
      </trkpt>
      <trkpt lat="42.79835" lon="1.30555">
        <ele>1047</ele>
        <time>2019-08-08T14:13:48.000Z</time>
      </trkpt>
      <trkpt lat="42.79833" lon="1.30559">
        <ele>1047</ele>
        <time>2019-08-08T14:13:49.000Z</time>
      </trkpt>
      <trkpt lat="42.79831" lon="1.30563">
        <ele>1047</ele>
        <time>2019-08-08T14:13:50.000Z</time>
      </trkpt>
      <trkpt lat="42.7983" lon="1.30567">
        <ele>1048</ele>
        <time>2019-08-08T14:13:51.000Z</time>
      </trkpt>
      <trkpt lat="42.79828" lon="1.30571">
        <ele>1048</ele>
        <time>2019-08-08T14:13:52.000Z</time>
      </trkpt>
      <trkpt lat="42.79826" lon="1.30575">
        <ele>1048</ele>
        <time>2019-08-08T14:13:53.000Z</time>
      </trkpt>
      <trkpt lat="42.79824" lon="1.30578">
        <ele>1048</ele>
        <time>2019-08-08T14:13:54.000Z</time>
      </trkpt>
      <trkpt lat="42.79822" lon="1.30582">
        <ele>1049</ele>
        <time>2019-08-08T14:13:55.000Z</time>
      </trkpt>
      <trkpt lat="42.7982" lon="1.30586">
        <ele>1049</ele>
        <time>2019-08-08T14:13:56.000Z</time>
      </trkpt>
      <trkpt lat="42.79817" lon="1.30593">
        <ele>1049</ele>
        <time>2019-08-08T14:13:57.000Z</time>
      </trkpt>
      <trkpt lat="42.79816" lon="1.30595">
        <ele>1049</ele>
        <time>2019-08-08T14:13:58.000Z</time>
      </trkpt>
      <trkpt lat="42.79814" lon="1.30598">
        <ele>1049</ele>
        <time>2019-08-08T14:13:59.000Z</time>
      </trkpt>
      <trkpt lat="42.79812" lon="1.30602">
        <ele>1050</ele>
        <time>2019-08-08T14:14:00.000Z</time>
      </trkpt>
      <trkpt lat="42.7981" lon="1.30606">
        <ele>1051</ele>
        <time>2019-08-08T14:14:01.000Z</time>
      </trkpt>
      <trkpt lat="42.79808" lon="1.3061">
        <ele>1051</ele>
        <time>2019-08-08T14:14:02.000Z</time>
      </trkpt>
      <trkpt lat="42.79807" lon="1.30614">
        <ele>1052</ele>
        <time>2019-08-08T14:14:03.000Z</time>
      </trkpt>
      <trkpt lat="42.79805" lon="1.30617">
        <ele>1052</ele>
        <time>2019-08-08T14:14:04.000Z</time>
      </trkpt>
      <trkpt lat="42.79803" lon="1.30621">
        <ele>1052</ele>
        <time>2019-08-08T14:14:05.000Z</time>
      </trkpt>
      <trkpt lat="42.798" lon="1.30624">
        <ele>1052</ele>
        <time>2019-08-08T14:14:06.000Z</time>
      </trkpt>
      <trkpt lat="42.79797" lon="1.30628">
        <ele>1053</ele>
        <time>2019-08-08T14:14:07.000Z</time>
      </trkpt>
      <trkpt lat="42.79795" lon="1.30631">
        <ele>1053</ele>
        <time>2019-08-08T14:14:08.000Z</time>
      </trkpt>
      <trkpt lat="42.79793" lon="1.30634">
        <ele>1053</ele>
        <time>2019-08-08T14:14:09.000Z</time>
      </trkpt>
      <trkpt lat="42.79791" lon="1.30638">
        <ele>1053</ele>
        <time>2019-08-08T14:14:10.000Z</time>
      </trkpt>
      <trkpt lat="42.7979" lon="1.30642">
        <ele>1053</ele>
        <time>2019-08-08T14:14:11.000Z</time>
      </trkpt>
      <trkpt lat="42.79789" lon="1.30645">
        <ele>1053</ele>
        <time>2019-08-08T14:14:12.000Z</time>
      </trkpt>
      <trkpt lat="42.79787" lon="1.30651">
        <ele>1053</ele>
        <time>2019-08-08T14:14:13.000Z</time>
      </trkpt>
      <trkpt lat="42.79786" lon="1.30653">
        <ele>1053</ele>
        <time>2019-08-08T14:14:14.000Z</time>
      </trkpt>
      <trkpt lat="42.79784" lon="1.30657">
        <ele>1053</ele>
        <time>2019-08-08T14:14:15.000Z</time>
      </trkpt>
      <trkpt lat="42.79781" lon="1.3066">
        <ele>1055</ele>
        <time>2019-08-08T14:14:16.000Z</time>
      </trkpt>
      <trkpt lat="42.79778" lon="1.30664">
        <ele>1055</ele>
        <time>2019-08-08T14:14:17.000Z</time>
      </trkpt>
      <trkpt lat="42.79775" lon="1.30667">
        <ele>1055</ele>
        <time>2019-08-08T14:14:18.000Z</time>
      </trkpt>
      <trkpt lat="42.79773" lon="1.30671">
        <ele>1055</ele>
        <time>2019-08-08T14:14:19.000Z</time>
      </trkpt>
      <trkpt lat="42.79771" lon="1.30674">
        <ele>1055</ele>
        <time>2019-08-08T14:14:20.000Z</time>
      </trkpt>
      <trkpt lat="42.79769" lon="1.30678">
        <ele>1056</ele>
        <time>2019-08-08T14:14:21.000Z</time>
      </trkpt>
      <trkpt lat="42.79768" lon="1.30681">
        <ele>1056</ele>
        <time>2019-08-08T14:14:22.000Z</time>
      </trkpt>
      <trkpt lat="42.79767" lon="1.30685">
        <ele>1056</ele>
        <time>2019-08-08T14:14:23.000Z</time>
      </trkpt>
      <trkpt lat="42.79765" lon="1.30689">
        <ele>1056</ele>
        <time>2019-08-08T14:14:24.000Z</time>
      </trkpt>
      <trkpt lat="42.79764" lon="1.30692">
        <ele>1056</ele>
        <time>2019-08-08T14:14:25.000Z</time>
      </trkpt>
      <trkpt lat="42.79764" lon="1.30696">
        <ele>1056</ele>
        <time>2019-08-08T14:14:26.000Z</time>
      </trkpt>
      <trkpt lat="42.79763" lon="1.307">
        <ele>1056</ele>
        <time>2019-08-08T14:14:27.000Z</time>
      </trkpt>
      <trkpt lat="42.79761" lon="1.30704">
        <ele>1056</ele>
        <time>2019-08-08T14:14:28.000Z</time>
      </trkpt>
      <trkpt lat="42.79759" lon="1.30708">
        <ele>1057</ele>
        <time>2019-08-08T14:14:29.000Z</time>
      </trkpt>
      <trkpt lat="42.79756" lon="1.30713">
        <ele>1057</ele>
        <time>2019-08-08T14:14:30.000Z</time>
      </trkpt>
      <trkpt lat="42.79755" lon="1.30715">
        <ele>1057</ele>
        <time>2019-08-08T14:14:31.000Z</time>
      </trkpt>
      <trkpt lat="42.79754" lon="1.30719">
        <ele>1057</ele>
        <time>2019-08-08T14:14:32.000Z</time>
      </trkpt>
      <trkpt lat="42.79754" lon="1.30723">
        <ele>1058</ele>
        <time>2019-08-08T14:14:33.000Z</time>
      </trkpt>
      <trkpt lat="42.79753" lon="1.30727">
        <ele>1058</ele>
        <time>2019-08-08T14:14:34.000Z</time>
      </trkpt>
      <trkpt lat="42.79752" lon="1.30732">
        <ele>1059</ele>
        <time>2019-08-08T14:14:35.000Z</time>
      </trkpt>
      <trkpt lat="42.7975" lon="1.30736">
        <ele>1059</ele>
        <time>2019-08-08T14:14:36.000Z</time>
      </trkpt>
      <trkpt lat="42.79747" lon="1.30741">
        <ele>1059</ele>
        <time>2019-08-08T14:14:37.000Z</time>
      </trkpt>
      <trkpt lat="42.79745" lon="1.30746">
        <ele>1059</ele>
        <time>2019-08-08T14:14:38.000Z</time>
      </trkpt>
      <trkpt lat="42.79743" lon="1.30751">
        <ele>1060</ele>
        <time>2019-08-08T14:14:39.000Z</time>
      </trkpt>
      <trkpt lat="42.7974" lon="1.30755">
        <ele>1060</ele>
        <time>2019-08-08T14:14:40.000Z</time>
      </trkpt>
      <trkpt lat="42.79737" lon="1.30758">
        <ele>1061</ele>
        <time>2019-08-08T14:14:41.000Z</time>
      </trkpt>
      <trkpt lat="42.79734" lon="1.30762">
        <ele>1061</ele>
        <time>2019-08-08T14:14:42.000Z</time>
      </trkpt>
      <trkpt lat="42.7973" lon="1.30765">
        <ele>1061</ele>
        <time>2019-08-08T14:14:43.000Z</time>
      </trkpt>
      <trkpt lat="42.79727" lon="1.30768">
        <ele>1061</ele>
        <time>2019-08-08T14:14:44.000Z</time>
      </trkpt>
      <trkpt lat="42.79724" lon="1.30771">
        <ele>1061</ele>
        <time>2019-08-08T14:14:45.000Z</time>
      </trkpt>
      <trkpt lat="42.79721" lon="1.30774">
        <ele>1062</ele>
        <time>2019-08-08T14:14:46.000Z</time>
      </trkpt>
      <trkpt lat="42.79716" lon="1.30778">
        <ele>1062</ele>
        <time>2019-08-08T14:14:47.000Z</time>
      </trkpt>
      <trkpt lat="42.79715" lon="1.3078">
        <ele>1062</ele>
        <time>2019-08-08T14:14:48.000Z</time>
      </trkpt>
      <trkpt lat="42.79712" lon="1.30783">
        <ele>1063</ele>
        <time>2019-08-08T14:14:49.000Z</time>
      </trkpt>
      <trkpt lat="42.7971" lon="1.30786">
        <ele>1063</ele>
        <time>2019-08-08T14:14:50.000Z</time>
      </trkpt>
      <trkpt lat="42.79708" lon="1.3079">
        <ele>1063</ele>
        <time>2019-08-08T14:14:51.000Z</time>
      </trkpt>
      <trkpt lat="42.79706" lon="1.30794">
        <ele>1063</ele>
        <time>2019-08-08T14:14:52.000Z</time>
      </trkpt>
      <trkpt lat="42.79704" lon="1.30799">
        <ele>1064</ele>
        <time>2019-08-08T14:14:53.000Z</time>
      </trkpt>
      <trkpt lat="42.79702" lon="1.30803">
        <ele>1064</ele>
        <time>2019-08-08T14:14:54.000Z</time>
      </trkpt>
      <trkpt lat="42.79701" lon="1.30808">
        <ele>1064</ele>
        <time>2019-08-08T14:14:55.000Z</time>
      </trkpt>
      <trkpt lat="42.79699" lon="1.30813">
        <ele>1064</ele>
        <time>2019-08-08T14:14:56.000Z</time>
      </trkpt>
      <trkpt lat="42.79698" lon="1.30817">
        <ele>1065</ele>
        <time>2019-08-08T14:14:57.000Z</time>
      </trkpt>
      <trkpt lat="42.79696" lon="1.30822">
        <ele>1065</ele>
        <time>2019-08-08T14:14:58.000Z</time>
      </trkpt>
      <trkpt lat="42.79695" lon="1.30827">
        <ele>1066</ele>
        <time>2019-08-08T14:14:59.000Z</time>
      </trkpt>
      <trkpt lat="42.79693" lon="1.30831">
        <ele>1066</ele>
        <time>2019-08-08T14:15:00.000Z</time>
      </trkpt>
      <trkpt lat="42.79692" lon="1.30836">
        <ele>1066</ele>
        <time>2019-08-08T14:15:01.000Z</time>
      </trkpt>
      <trkpt lat="42.79691" lon="1.30841">
        <ele>1066</ele>
        <time>2019-08-08T14:15:02.000Z</time>
      </trkpt>
      <trkpt lat="42.79689" lon="1.30848">
        <ele>1066</ele>
        <time>2019-08-08T14:15:03.000Z</time>
      </trkpt>
      <trkpt lat="42.79688" lon="1.30851">
        <ele>1066.4</ele>
        <time>2019-08-08T14:15:04.000Z</time>
      </trkpt>
      <trkpt lat="42.79687" lon="1.30856">
        <ele>1067</ele>
        <time>2019-08-08T14:15:05.000Z</time>
      </trkpt>
      <trkpt lat="42.79685" lon="1.30861">
        <ele>1067</ele>
        <time>2019-08-08T14:15:06.000Z</time>
      </trkpt>
      <trkpt lat="42.79684" lon="1.30865">
        <ele>1067</ele>
        <time>2019-08-08T14:15:07.000Z</time>
      </trkpt>
      <trkpt lat="42.79683" lon="1.3087">
        <ele>1067</ele>
        <time>2019-08-08T14:15:08.000Z</time>
      </trkpt>
      <trkpt lat="42.79682" lon="1.30875">
        <ele>1067</ele>
        <time>2019-08-08T14:15:09.000Z</time>
      </trkpt>
      <trkpt lat="42.79681" lon="1.30881">
        <ele>1067</ele>
        <time>2019-08-08T14:15:10.000Z</time>
      </trkpt>
      <trkpt lat="42.7968" lon="1.30886">
        <ele>1068</ele>
        <time>2019-08-08T14:15:11.000Z</time>
      </trkpt>
      <trkpt lat="42.79679" lon="1.30891">
        <ele>1068</ele>
        <time>2019-08-08T14:15:12.000Z</time>
      </trkpt>
      <trkpt lat="42.79678" lon="1.30896">
        <ele>1069</ele>
        <time>2019-08-08T14:15:13.000Z</time>
      </trkpt>
      <trkpt lat="42.79676" lon="1.309">
        <ele>1069</ele>
        <time>2019-08-08T14:15:14.000Z</time>
      </trkpt>
      <trkpt lat="42.79675" lon="1.30904">
        <ele>1069</ele>
        <time>2019-08-08T14:15:15.000Z</time>
      </trkpt>
      <trkpt lat="42.79674" lon="1.30909">
        <ele>1070</ele>
        <time>2019-08-08T14:15:16.000Z</time>
      </trkpt>
      <trkpt lat="42.79674" lon="1.30913">
        <ele>1070</ele>
        <time>2019-08-08T14:15:17.000Z</time>
      </trkpt>
      <trkpt lat="42.79673" lon="1.30917">
        <ele>1070</ele>
        <time>2019-08-08T14:15:18.000Z</time>
      </trkpt>
      <trkpt lat="42.79672" lon="1.30921">
        <ele>1070</ele>
        <time>2019-08-08T14:15:19.000Z</time>
      </trkpt>
      <trkpt lat="42.7967" lon="1.30928">
        <ele>1071</ele>
        <time>2019-08-08T14:15:20.000Z</time>
      </trkpt>
      <trkpt lat="42.79669" lon="1.3093">
        <ele>1071</ele>
        <time>2019-08-08T14:15:21.000Z</time>
      </trkpt>
      <trkpt lat="42.79668" lon="1.30935">
        <ele>1071</ele>
        <time>2019-08-08T14:15:22.000Z</time>
      </trkpt>
      <trkpt lat="42.79667" lon="1.3094">
        <ele>1071</ele>
        <time>2019-08-08T14:15:23.000Z</time>
      </trkpt>
      <trkpt lat="42.79665" lon="1.30945">
        <ele>1072</ele>
        <time>2019-08-08T14:15:24.000Z</time>
      </trkpt>
      <trkpt lat="42.79664" lon="1.3095">
        <ele>1072</ele>
        <time>2019-08-08T14:15:25.000Z</time>
      </trkpt>
      <trkpt lat="42.79663" lon="1.30955">
        <ele>1072</ele>
        <time>2019-08-08T14:15:26.000Z</time>
      </trkpt>
      <trkpt lat="42.79662" lon="1.3096">
        <ele>1072</ele>
        <time>2019-08-08T14:15:27.000Z</time>
      </trkpt>
      <trkpt lat="42.7966" lon="1.30966">
        <ele>1072</ele>
        <time>2019-08-08T14:15:28.000Z</time>
      </trkpt>
      <trkpt lat="42.79659" lon="1.30971">
        <ele>1072</ele>
        <time>2019-08-08T14:15:29.000Z</time>
      </trkpt>
      <trkpt lat="42.79658" lon="1.30976">
        <ele>1072</ele>
        <time>2019-08-08T14:15:30.000Z</time>
      </trkpt>
      <trkpt lat="42.79657" lon="1.30981">
        <ele>1072</ele>
        <time>2019-08-08T14:15:31.000Z</time>
      </trkpt>
      <trkpt lat="42.79655" lon="1.30986">
        <ele>1072</ele>
        <time>2019-08-08T14:15:32.000Z</time>
      </trkpt>
      <trkpt lat="42.79654" lon="1.30991">
        <ele>1072</ele>
        <time>2019-08-08T14:15:33.000Z</time>
      </trkpt>
      <trkpt lat="42.79652" lon="1.30996">
        <ele>1072</ele>
        <time>2019-08-08T14:15:34.000Z</time>
      </trkpt>
      <trkpt lat="42.79651" lon="1.31001">
        <ele>1072</ele>
        <time>2019-08-08T14:15:35.000Z</time>
      </trkpt>
      <trkpt lat="42.79649" lon="1.31006">
        <ele>1072</ele>
        <time>2019-08-08T14:15:36.000Z</time>
      </trkpt>
      <trkpt lat="42.79647" lon="1.31013">
        <ele>1072</ele>
        <time>2019-08-08T14:15:37.000Z</time>
      </trkpt>
      <trkpt lat="42.79646" lon="1.31015">
        <ele>1073</ele>
        <time>2019-08-08T14:15:38.000Z</time>
      </trkpt>
      <trkpt lat="42.79644" lon="1.3102">
        <ele>1073</ele>
        <time>2019-08-08T14:15:39.000Z</time>
      </trkpt>
      <trkpt lat="42.79644" lon="1.3102">
        <ele>1073</ele>
        <time>2019-08-08T14:15:40.000Z</time>
      </trkpt>
      <trkpt lat="42.79643" lon="1.31031">
        <ele>1073</ele>
        <time>2019-08-08T14:15:41.000Z</time>
      </trkpt>
      <trkpt lat="42.79641" lon="1.31037">
        <ele>1074</ele>
        <time>2019-08-08T14:15:42.000Z</time>
      </trkpt>
      <trkpt lat="42.79639" lon="1.31042">
        <ele>1074</ele>
        <time>2019-08-08T14:15:43.000Z</time>
      </trkpt>
      <trkpt lat="42.79637" lon="1.31048">
        <ele>1075</ele>
        <time>2019-08-08T14:15:44.000Z</time>
      </trkpt>
      <trkpt lat="42.79636" lon="1.31054">
        <ele>1075</ele>
        <time>2019-08-08T14:15:45.000Z</time>
      </trkpt>
      <trkpt lat="42.79635" lon="1.31059">
        <ele>1075</ele>
        <time>2019-08-08T14:15:46.000Z</time>
      </trkpt>
      <trkpt lat="42.79633" lon="1.31064">
        <ele>1075</ele>
        <time>2019-08-08T14:15:47.000Z</time>
      </trkpt>
      <trkpt lat="42.79632" lon="1.3107">
        <ele>1076</ele>
        <time>2019-08-08T14:15:48.000Z</time>
      </trkpt>
      <trkpt lat="42.79631" lon="1.31076">
        <ele>1076</ele>
        <time>2019-08-08T14:15:49.000Z</time>
      </trkpt>
      <trkpt lat="42.79629" lon="1.31081">
        <ele>1076</ele>
        <time>2019-08-08T14:15:50.000Z</time>
      </trkpt>
      <trkpt lat="42.79627" lon="1.31086">
        <ele>1076</ele>
        <time>2019-08-08T14:15:51.000Z</time>
      </trkpt>
      <trkpt lat="42.79625" lon="1.3109">
        <ele>1078</ele>
        <time>2019-08-08T14:15:52.000Z</time>
      </trkpt>
      <trkpt lat="42.79622" lon="1.31095">
        <ele>1078</ele>
        <time>2019-08-08T14:15:53.000Z</time>
      </trkpt>
      <trkpt lat="42.79618" lon="1.31101">
        <ele>1078</ele>
        <time>2019-08-08T14:15:54.000Z</time>
      </trkpt>
      <trkpt lat="42.79616" lon="1.31103">
        <ele>1079</ele>
        <time>2019-08-08T14:15:55.000Z</time>
      </trkpt>
      <trkpt lat="42.79615" lon="1.31105">
        <ele>1079</ele>
        <time>2019-08-08T14:15:56.000Z</time>
      </trkpt>
      <trkpt lat="42.7961" lon="1.31111">
        <ele>1079</ele>
        <time>2019-08-08T14:15:57.000Z</time>
      </trkpt>
      <trkpt lat="42.7961" lon="1.31111">
        <ele>1079</ele>
        <time>2019-08-08T14:15:58.000Z</time>
      </trkpt>
      <trkpt lat="42.7961" lon="1.31111">
        <ele>1079</ele>
        <time>2019-08-08T14:15:59.000Z</time>
      </trkpt>
      <trkpt lat="42.796" lon="1.31119">
        <ele>1080</ele>
        <time>2019-08-08T14:16:00.000Z</time>
      </trkpt>
      <trkpt lat="42.79599" lon="1.31121">
        <ele>1080</ele>
        <time>2019-08-08T14:16:01.000Z</time>
      </trkpt>
      <trkpt lat="42.79597" lon="1.31123">
        <ele>1080</ele>
        <time>2019-08-08T14:16:02.000Z</time>
      </trkpt>
      <trkpt lat="42.79593" lon="1.31128">
        <ele>1080</ele>
        <time>2019-08-08T14:16:03.000Z</time>
      </trkpt>
      <trkpt lat="42.79589" lon="1.31131">
        <ele>1081</ele>
        <time>2019-08-08T14:16:04.000Z</time>
      </trkpt>
      <trkpt lat="42.79587" lon="1.31135">
        <ele>1081</ele>
        <time>2019-08-08T14:16:05.000Z</time>
      </trkpt>
      <trkpt lat="42.79584" lon="1.31139">
        <ele>1081</ele>
        <time>2019-08-08T14:16:06.000Z</time>
      </trkpt>
      <trkpt lat="42.79581" lon="1.31143">
        <ele>1081</ele>
        <time>2019-08-08T14:16:07.000Z</time>
      </trkpt>
      <trkpt lat="42.79578" lon="1.31147">
        <ele>1081</ele>
        <time>2019-08-08T14:16:08.000Z</time>
      </trkpt>
      <trkpt lat="42.79576" lon="1.31149">
        <ele>1081</ele>
        <time>2019-08-08T14:16:09.000Z</time>
      </trkpt>
      <trkpt lat="42.79576" lon="1.31149">
        <ele>1081</ele>
        <time>2019-08-08T14:16:10.000Z</time>
      </trkpt>
      <trkpt lat="42.79576" lon="1.31149">
        <ele>1081</ele>
        <time>2019-08-08T14:16:11.000Z</time>
      </trkpt>
      <trkpt lat="42.7957" lon="1.31163">
        <ele>1082</ele>
        <time>2019-08-08T14:16:12.000Z</time>
      </trkpt>
      <trkpt lat="42.79569" lon="1.31165">
        <ele>1082</ele>
        <time>2019-08-08T14:16:13.000Z</time>
      </trkpt>
      <trkpt lat="42.79568" lon="1.31168">
        <ele>1082</ele>
        <time>2019-08-08T14:16:14.000Z</time>
      </trkpt>
      <trkpt lat="42.79565" lon="1.31178">
        <ele>1082</ele>
        <time>2019-08-08T14:16:15.000Z</time>
      </trkpt>
      <trkpt lat="42.79564" lon="1.3118">
        <ele>1084</ele>
        <time>2019-08-08T14:16:16.000Z</time>
      </trkpt>
      <trkpt lat="42.79563" lon="1.31183">
        <ele>1084</ele>
        <time>2019-08-08T14:16:17.000Z</time>
      </trkpt>
      <trkpt lat="42.79561" lon="1.3119">
        <ele>1084</ele>
        <time>2019-08-08T14:16:18.000Z</time>
      </trkpt>
      <trkpt lat="42.79561" lon="1.3119">
        <ele>1084</ele>
        <time>2019-08-08T14:16:19.000Z</time>
      </trkpt>
      <trkpt lat="42.79558" lon="1.31201">
        <ele>1084</ele>
        <time>2019-08-08T14:16:20.000Z</time>
      </trkpt>
      <trkpt lat="42.79557" lon="1.31206">
        <ele>1085</ele>
        <time>2019-08-08T14:16:21.000Z</time>
      </trkpt>
      <trkpt lat="42.79557" lon="1.31211">
        <ele>1085</ele>
        <time>2019-08-08T14:16:22.000Z</time>
      </trkpt>
      <trkpt lat="42.79556" lon="1.31216">
        <ele>1085</ele>
        <time>2019-08-08T14:16:23.000Z</time>
      </trkpt>
      <trkpt lat="42.79556" lon="1.31224">
        <ele>1085</ele>
        <time>2019-08-08T14:16:24.000Z</time>
      </trkpt>
      <trkpt lat="42.79555" lon="1.31227">
        <ele>1085</ele>
        <time>2019-08-08T14:16:25.000Z</time>
      </trkpt>
      <trkpt lat="42.79556" lon="1.31232">
        <ele>1085</ele>
        <time>2019-08-08T14:16:26.000Z</time>
      </trkpt>
      <trkpt lat="42.79556" lon="1.31238">
        <ele>1085</ele>
        <time>2019-08-08T14:16:27.000Z</time>
      </trkpt>
      <trkpt lat="42.79555" lon="1.31244">
        <ele>1085</ele>
        <time>2019-08-08T14:16:28.000Z</time>
      </trkpt>
      <trkpt lat="42.79555" lon="1.31249">
        <ele>1086</ele>
        <time>2019-08-08T14:16:29.000Z</time>
      </trkpt>
      <trkpt lat="42.79555" lon="1.31255">
        <ele>1086</ele>
        <time>2019-08-08T14:16:30.000Z</time>
      </trkpt>
      <trkpt lat="42.79554" lon="1.3126">
        <ele>1086</ele>
        <time>2019-08-08T14:16:31.000Z</time>
      </trkpt>
      <trkpt lat="42.79554" lon="1.31266">
        <ele>1086</ele>
        <time>2019-08-08T14:16:32.000Z</time>
      </trkpt>
      <trkpt lat="42.79554" lon="1.31272">
        <ele>1086</ele>
        <time>2019-08-08T14:16:33.000Z</time>
      </trkpt>
      <trkpt lat="42.79555" lon="1.31277">
        <ele>1086</ele>
        <time>2019-08-08T14:16:34.000Z</time>
      </trkpt>
      <trkpt lat="42.79555" lon="1.31283">
        <ele>1086</ele>
        <time>2019-08-08T14:16:35.000Z</time>
      </trkpt>
      <trkpt lat="42.79555" lon="1.31289">
        <ele>1086</ele>
        <time>2019-08-08T14:16:36.000Z</time>
      </trkpt>
      <trkpt lat="42.79555" lon="1.31297">
        <ele>1086</ele>
        <time>2019-08-08T14:16:37.000Z</time>
      </trkpt>
      <trkpt lat="42.79555" lon="1.313">
        <ele>1086</ele>
        <time>2019-08-08T14:16:38.000Z</time>
      </trkpt>
      <trkpt lat="42.79555" lon="1.31305">
        <ele>1087</ele>
        <time>2019-08-08T14:16:39.000Z</time>
      </trkpt>
      <trkpt lat="42.79555" lon="1.31309">
        <ele>1087</ele>
        <time>2019-08-08T14:16:40.000Z</time>
      </trkpt>
      <trkpt lat="42.79554" lon="1.31314">
        <ele>1088</ele>
        <time>2019-08-08T14:16:41.000Z</time>
      </trkpt>
      <trkpt lat="42.79555" lon="1.31319">
        <ele>1088</ele>
        <time>2019-08-08T14:16:42.000Z</time>
      </trkpt>
      <trkpt lat="42.79555" lon="1.31327">
        <ele>1088</ele>
        <time>2019-08-08T14:16:43.000Z</time>
      </trkpt>
      <trkpt lat="42.79555" lon="1.3133">
        <ele>1088</ele>
        <time>2019-08-08T14:16:44.000Z</time>
      </trkpt>
      <trkpt lat="42.79556" lon="1.31336">
        <ele>1088</ele>
        <time>2019-08-08T14:16:45.000Z</time>
      </trkpt>
      <trkpt lat="42.79555" lon="1.31346">
        <ele>1087</ele>
        <time>2019-08-08T14:16:46.000Z</time>
      </trkpt>
      <trkpt lat="42.79555" lon="1.3135">
        <ele>1087</ele>
        <time>2019-08-08T14:16:47.000Z</time>
      </trkpt>
      <trkpt lat="42.79555" lon="1.31357">
        <ele>1087</ele>
        <time>2019-08-08T14:16:48.000Z</time>
      </trkpt>
      <trkpt lat="42.79555" lon="1.31364">
        <ele>1087</ele>
        <time>2019-08-08T14:16:49.000Z</time>
      </trkpt>
      <trkpt lat="42.79554" lon="1.31372">
        <ele>1088</ele>
        <time>2019-08-08T14:16:50.000Z</time>
      </trkpt>
      <trkpt lat="42.79554" lon="1.31384">
        <ele>1088</ele>
        <time>2019-08-08T14:16:51.000Z</time>
      </trkpt>
      <trkpt lat="42.79554" lon="1.31388">
        <ele>1088</ele>
        <time>2019-08-08T14:16:52.000Z</time>
      </trkpt>
      <trkpt lat="42.79554" lon="1.31396">
        <ele>1088</ele>
        <time>2019-08-08T14:16:53.000Z</time>
      </trkpt>
      <trkpt lat="42.79554" lon="1.31404">
        <ele>1088</ele>
        <time>2019-08-08T14:16:54.000Z</time>
      </trkpt>
      <trkpt lat="42.79554" lon="1.31416">
        <ele>1088</ele>
        <time>2019-08-08T14:16:55.000Z</time>
      </trkpt>
      <trkpt lat="42.79553" lon="1.31419">
        <ele>1088</ele>
        <time>2019-08-08T14:16:56.000Z</time>
      </trkpt>
      <trkpt lat="42.79553" lon="1.31427">
        <ele>1088</ele>
        <time>2019-08-08T14:16:57.000Z</time>
      </trkpt>
      <trkpt lat="42.79553" lon="1.31434">
        <ele>1088</ele>
        <time>2019-08-08T14:16:58.000Z</time>
      </trkpt>
      <trkpt lat="42.79553" lon="1.31441">
        <ele>1088</ele>
        <time>2019-08-08T14:16:59.000Z</time>
      </trkpt>
      <trkpt lat="42.79553" lon="1.31447">
        <ele>1088</ele>
        <time>2019-08-08T14:17:00.000Z</time>
      </trkpt>
      <trkpt lat="42.79553" lon="1.31454">
        <ele>1088</ele>
        <time>2019-08-08T14:17:01.000Z</time>
      </trkpt>
      <trkpt lat="42.79552" lon="1.31461">
        <ele>1088</ele>
        <time>2019-08-08T14:17:02.000Z</time>
      </trkpt>
      <trkpt lat="42.79552" lon="1.31467">
        <ele>1088</ele>
        <time>2019-08-08T14:17:03.000Z</time>
      </trkpt>
      <trkpt lat="42.79552" lon="1.31473">
        <ele>1088</ele>
        <time>2019-08-08T14:17:04.000Z</time>
      </trkpt>
      <trkpt lat="42.79552" lon="1.31479">
        <ele>1088</ele>
        <time>2019-08-08T14:17:05.000Z</time>
      </trkpt>
      <trkpt lat="42.79552" lon="1.31486">
        <ele>1089</ele>
        <time>2019-08-08T14:17:06.000Z</time>
      </trkpt>
      <trkpt lat="42.79552" lon="1.31493">
        <ele>1089</ele>
        <time>2019-08-08T14:17:07.000Z</time>
      </trkpt>
      <trkpt lat="42.79552" lon="1.315">
        <ele>1089</ele>
        <time>2019-08-08T14:17:08.000Z</time>
      </trkpt>
      <trkpt lat="42.79553" lon="1.31507">
        <ele>1089</ele>
        <time>2019-08-08T14:17:09.000Z</time>
      </trkpt>
      <trkpt lat="42.79552" lon="1.31514">
        <ele>1089</ele>
        <time>2019-08-08T14:17:10.000Z</time>
      </trkpt>
      <trkpt lat="42.79552" lon="1.31521">
        <ele>1089</ele>
        <time>2019-08-08T14:17:11.000Z</time>
      </trkpt>
      <trkpt lat="42.79551" lon="1.31528">
        <ele>1089</ele>
        <time>2019-08-08T14:17:12.000Z</time>
      </trkpt>
      <trkpt lat="42.79551" lon="1.31536">
        <ele>1089</ele>
        <time>2019-08-08T14:17:13.000Z</time>
      </trkpt>
      <trkpt lat="42.7955" lon="1.31543">
        <ele>1088</ele>
        <time>2019-08-08T14:17:14.000Z</time>
      </trkpt>
      <trkpt lat="42.7955" lon="1.31551">
        <ele>1088</ele>
        <time>2019-08-08T14:17:15.000Z</time>
      </trkpt>
      <trkpt lat="42.79547" lon="1.31562">
        <ele>1088</ele>
        <time>2019-08-08T14:17:16.000Z</time>
      </trkpt>
      <trkpt lat="42.79546" lon="1.31566">
        <ele>1088</ele>
        <time>2019-08-08T14:17:17.000Z</time>
      </trkpt>
      <trkpt lat="42.79543" lon="1.31573">
        <ele>1087</ele>
        <time>2019-08-08T14:17:18.000Z</time>
      </trkpt>
      <trkpt lat="42.79539" lon="1.31581">
        <ele>1087</ele>
        <time>2019-08-08T14:17:19.000Z</time>
      </trkpt>
      <trkpt lat="42.79536" lon="1.31589">
        <ele>1087</ele>
        <time>2019-08-08T14:17:20.000Z</time>
      </trkpt>
      <trkpt lat="42.79531" lon="1.31597">
        <ele>1087</ele>
        <time>2019-08-08T14:17:21.000Z</time>
      </trkpt>
      <trkpt lat="42.79527" lon="1.31606">
        <ele>1087</ele>
        <time>2019-08-08T14:17:22.000Z</time>
      </trkpt>
      <trkpt lat="42.79522" lon="1.31615">
        <ele>1084</ele>
        <time>2019-08-08T14:17:23.000Z</time>
      </trkpt>
      <trkpt lat="42.79515" lon="1.3163">
        <ele>1084</ele>
        <time>2019-08-08T14:17:24.000Z</time>
      </trkpt>
      <trkpt lat="42.79512" lon="1.31635">
        <ele>1084</ele>
        <time>2019-08-08T14:17:25.000Z</time>
      </trkpt>
      <trkpt lat="42.79506" lon="1.31645">
        <ele>1082</ele>
        <time>2019-08-08T14:17:26.000Z</time>
      </trkpt>
      <trkpt lat="42.79501" lon="1.31655">
        <ele>1082</ele>
        <time>2019-08-08T14:17:27.000Z</time>
      </trkpt>
      <trkpt lat="42.79495" lon="1.31666">
        <ele>1081</ele>
        <time>2019-08-08T14:17:28.000Z</time>
      </trkpt>
      <trkpt lat="42.79488" lon="1.31678">
        <ele>1081</ele>
        <time>2019-08-08T14:17:29.000Z</time>
      </trkpt>
      <trkpt lat="42.79481" lon="1.31689">
        <ele>1080</ele>
        <time>2019-08-08T14:17:30.000Z</time>
      </trkpt>
      <trkpt lat="42.79474" lon="1.31701">
        <ele>1080</ele>
        <time>2019-08-08T14:17:31.000Z</time>
      </trkpt>
      <trkpt lat="42.79463" lon="1.31719">
        <ele>1080</ele>
        <time>2019-08-08T14:17:32.000Z</time>
      </trkpt>
      <trkpt lat="42.79459" lon="1.31726">
        <ele>1077</ele>
        <time>2019-08-08T14:17:33.000Z</time>
      </trkpt>
      <trkpt lat="42.79451" lon="1.31739">
        <ele>1074</ele>
        <time>2019-08-08T14:17:34.000Z</time>
      </trkpt>
      <trkpt lat="42.79442" lon="1.31752">
        <ele>1074</ele>
        <time>2019-08-08T14:17:35.000Z</time>
      </trkpt>
      <trkpt lat="42.79434" lon="1.31765">
        <ele>1074</ele>
        <time>2019-08-08T14:17:36.000Z</time>
      </trkpt>
      <trkpt lat="42.79423" lon="1.31779">
        <ele>1071</ele>
        <time>2019-08-08T14:17:37.000Z</time>
      </trkpt>
      <trkpt lat="42.79413" lon="1.31793">
        <ele>1071</ele>
        <time>2019-08-08T14:17:38.000Z</time>
      </trkpt>
      <trkpt lat="42.79403" lon="1.31807">
        <ele>1067</ele>
        <time>2019-08-08T14:17:39.000Z</time>
      </trkpt>
      <trkpt lat="42.79387" lon="1.31827">
        <ele>1067</ele>
        <time>2019-08-08T14:17:40.000Z</time>
      </trkpt>
      <trkpt lat="42.79381" lon="1.31833">
        <ele>1066</ele>
        <time>2019-08-08T14:17:41.000Z</time>
      </trkpt>
      <trkpt lat="42.7937" lon="1.31845">
        <ele>1066</ele>
        <time>2019-08-08T14:17:42.000Z</time>
      </trkpt>
      <trkpt lat="42.79358" lon="1.31856">
        <ele>1063</ele>
        <time>2019-08-08T14:17:43.000Z</time>
      </trkpt>
      <trkpt lat="42.79339" lon="1.31869">
        <ele>1063</ele>
        <time>2019-08-08T14:17:44.000Z</time>
      </trkpt>
      <trkpt lat="42.79332" lon="1.31873">
        <ele>1063</ele>
        <time>2019-08-08T14:17:45.000Z</time>
      </trkpt>
      <trkpt lat="42.79319" lon="1.31881">
        <ele>1061</ele>
        <time>2019-08-08T14:17:46.000Z</time>
      </trkpt>
      <trkpt lat="42.793" lon="1.31892">
        <ele>1061</ele>
        <time>2019-08-08T14:17:47.000Z</time>
      </trkpt>
      <trkpt lat="42.79293" lon="1.31894">
        <ele>1058</ele>
        <time>2019-08-08T14:17:48.000Z</time>
      </trkpt>
      <trkpt lat="42.79273" lon="1.31899">
        <ele>1058</ele>
        <time>2019-08-08T14:17:49.000Z</time>
      </trkpt>
      <trkpt lat="42.79266" lon="1.31899">
        <ele>1057</ele>
        <time>2019-08-08T14:17:50.000Z</time>
      </trkpt>
      <trkpt lat="42.79252" lon="1.31898">
        <ele>1057</ele>
        <time>2019-08-08T14:17:51.000Z</time>
      </trkpt>
      <trkpt lat="42.79238" lon="1.31898">
        <ele>1054</ele>
        <time>2019-08-08T14:17:52.000Z</time>
      </trkpt>
      <trkpt lat="42.79223" lon="1.31898">
        <ele>1054</ele>
        <time>2019-08-08T14:17:53.000Z</time>
      </trkpt>
      <trkpt lat="42.7921" lon="1.31901">
        <ele>1051</ele>
        <time>2019-08-08T14:17:54.000Z</time>
      </trkpt>
      <trkpt lat="42.79196" lon="1.31904">
        <ele>1051</ele>
        <time>2019-08-08T14:17:55.000Z</time>
      </trkpt>
      <trkpt lat="42.79183" lon="1.31908">
        <ele>1050</ele>
        <time>2019-08-08T14:17:56.000Z</time>
      </trkpt>
      <trkpt lat="42.79169" lon="1.31911">
        <ele>1050</ele>
        <time>2019-08-08T14:17:57.000Z</time>
      </trkpt>
      <trkpt lat="42.79156" lon="1.31915">
        <ele>1050</ele>
        <time>2019-08-08T14:17:58.000Z</time>
      </trkpt>
      <trkpt lat="42.79145" lon="1.31919">
        <ele>1050</ele>
        <time>2019-08-08T14:17:59.000Z</time>
      </trkpt>
      <trkpt lat="42.79134" lon="1.31923">
        <ele>1048</ele>
        <time>2019-08-08T14:18:00.000Z</time>
      </trkpt>
      <trkpt lat="42.79121" lon="1.31928">
        <ele>1048</ele>
        <time>2019-08-08T14:18:01.000Z</time>
      </trkpt>
      <trkpt lat="42.79118" lon="1.3193">
        <ele>1047</ele>
        <time>2019-08-08T14:18:02.000Z</time>
      </trkpt>
      <trkpt lat="42.79112" lon="1.31935">
        <ele>1047</ele>
        <time>2019-08-08T14:18:03.000Z</time>
      </trkpt>
      <trkpt lat="42.79111" lon="1.31944">
        <ele>1047</ele>
        <time>2019-08-08T14:18:04.000Z</time>
      </trkpt>
      <trkpt lat="42.79118" lon="1.3195">
        <ele>1047</ele>
        <time>2019-08-08T14:18:05.000Z</time>
      </trkpt>
      <trkpt lat="42.79121" lon="1.3195">
        <ele>1047</ele>
        <time>2019-08-08T14:18:06.000Z</time>
      </trkpt>
      <trkpt lat="42.79128" lon="1.3195">
        <ele>1046</ele>
        <time>2019-08-08T14:18:07.000Z</time>
      </trkpt>
      <trkpt lat="42.79135" lon="1.31946">
        <ele>1046</ele>
        <time>2019-08-08T14:18:08.000Z</time>
      </trkpt>
      <trkpt lat="42.79148" lon="1.3194">
        <ele>1046</ele>
        <time>2019-08-08T14:18:09.000Z</time>
      </trkpt>
      <trkpt lat="42.79153" lon="1.31938">
        <ele>1046</ele>
        <time>2019-08-08T14:18:10.000Z</time>
      </trkpt>
      <trkpt lat="42.79162" lon="1.31934">
        <ele>1045</ele>
        <time>2019-08-08T14:18:11.000Z</time>
      </trkpt>
      <trkpt lat="42.79171" lon="1.31932">
        <ele>1045</ele>
        <time>2019-08-08T14:18:12.000Z</time>
      </trkpt>
      <trkpt lat="42.79181" lon="1.3193">
        <ele>1043</ele>
        <time>2019-08-08T14:18:13.000Z</time>
      </trkpt>
      <trkpt lat="42.79192" lon="1.3193">
        <ele>1043</ele>
        <time>2019-08-08T14:18:14.000Z</time>
      </trkpt>
      <trkpt lat="42.79202" lon="1.3193">
        <ele>1042</ele>
        <time>2019-08-08T14:18:15.000Z</time>
      </trkpt>
      <trkpt lat="42.79213" lon="1.31931">
        <ele>1042</ele>
        <time>2019-08-08T14:18:16.000Z</time>
      </trkpt>
      <trkpt lat="42.79224" lon="1.31933">
        <ele>1039</ele>
        <time>2019-08-08T14:18:17.000Z</time>
      </trkpt>
      <trkpt lat="42.79235" lon="1.31938">
        <ele>1039</ele>
        <time>2019-08-08T14:18:18.000Z</time>
      </trkpt>
      <trkpt lat="42.79246" lon="1.31945">
        <ele>1039</ele>
        <time>2019-08-08T14:18:19.000Z</time>
      </trkpt>
      <trkpt lat="42.79257" lon="1.31951">
        <ele>1039</ele>
        <time>2019-08-08T14:18:20.000Z</time>
      </trkpt>
      <trkpt lat="42.79269" lon="1.31957">
        <ele>1036</ele>
        <time>2019-08-08T14:18:21.000Z</time>
      </trkpt>
      <trkpt lat="42.79281" lon="1.3196">
        <ele>1036</ele>
        <time>2019-08-08T14:18:22.000Z</time>
      </trkpt>
      <trkpt lat="42.793" lon="1.31962">
        <ele>1035</ele>
        <time>2019-08-08T14:18:23.000Z</time>
      </trkpt>
      <trkpt lat="42.79306" lon="1.31962">
        <ele>1035</ele>
        <time>2019-08-08T14:18:24.000Z</time>
      </trkpt>
      <trkpt lat="42.79318" lon="1.31962">
        <ele>1035</ele>
        <time>2019-08-08T14:18:25.000Z</time>
      </trkpt>
      <trkpt lat="42.79331" lon="1.31962">
        <ele>1033</ele>
        <time>2019-08-08T14:18:26.000Z</time>
      </trkpt>
      <trkpt lat="42.7935" lon="1.3196">
        <ele>1033</ele>
        <time>2019-08-08T14:18:27.000Z</time>
      </trkpt>
      <trkpt lat="42.79357" lon="1.31959">
        <ele>1032</ele>
        <time>2019-08-08T14:18:28.000Z</time>
      </trkpt>
      <trkpt lat="42.7937" lon="1.31957">
        <ele>1032</ele>
        <time>2019-08-08T14:18:29.000Z</time>
      </trkpt>
      <trkpt lat="42.79383" lon="1.31955">
        <ele>1028</ele>
        <time>2019-08-08T14:18:30.000Z</time>
      </trkpt>
      <trkpt lat="42.79396" lon="1.31953">
        <ele>1028</ele>
        <time>2019-08-08T14:18:31.000Z</time>
      </trkpt>
      <trkpt lat="42.7941" lon="1.3195">
        <ele>1026</ele>
        <time>2019-08-08T14:18:32.000Z</time>
      </trkpt>
      <trkpt lat="42.79423" lon="1.31947">
        <ele>1026</ele>
        <time>2019-08-08T14:18:33.000Z</time>
      </trkpt>
      <trkpt lat="42.79436" lon="1.31943">
        <ele>1023</ele>
        <time>2019-08-08T14:18:34.000Z</time>
      </trkpt>
      <trkpt lat="42.79448" lon="1.31937">
        <ele>1023</ele>
        <time>2019-08-08T14:18:35.000Z</time>
      </trkpt>
      <trkpt lat="42.79458" lon="1.31929">
        <ele>1022</ele>
        <time>2019-08-08T14:18:36.000Z</time>
      </trkpt>
      <trkpt lat="42.79466" lon="1.3192">
        <ele>1022</ele>
        <time>2019-08-08T14:18:37.000Z</time>
      </trkpt>
      <trkpt lat="42.79473" lon="1.3191">
        <ele>1022</ele>
        <time>2019-08-08T14:18:38.000Z</time>
      </trkpt>
      <trkpt lat="42.79482" lon="1.31902">
        <ele>1022</ele>
        <time>2019-08-08T14:18:39.000Z</time>
      </trkpt>
      <trkpt lat="42.79486" lon="1.31902">
        <ele>1022</ele>
        <time>2019-08-08T14:18:40.000Z</time>
      </trkpt>
      <trkpt lat="42.79492" lon="1.31901">
        <ele>1022</ele>
        <time>2019-08-08T14:18:41.000Z</time>
      </trkpt>
      <trkpt lat="42.79493" lon="1.31909">
        <ele>1022</ele>
        <time>2019-08-08T14:18:42.000Z</time>
      </trkpt>
      <trkpt lat="42.7949" lon="1.31917">
        <ele>1020</ele>
        <time>2019-08-08T14:18:43.000Z</time>
      </trkpt>
      <trkpt lat="42.79483" lon="1.31922">
        <ele>1020</ele>
        <time>2019-08-08T14:18:44.000Z</time>
      </trkpt>
      <trkpt lat="42.79476" lon="1.31928">
        <ele>1019</ele>
        <time>2019-08-08T14:18:45.000Z</time>
      </trkpt>
      <trkpt lat="42.79464" lon="1.31938">
        <ele>1019</ele>
        <time>2019-08-08T14:18:46.000Z</time>
      </trkpt>
      <trkpt lat="42.7946" lon="1.31942">
        <ele>1018</ele>
        <time>2019-08-08T14:18:47.000Z</time>
      </trkpt>
      <trkpt lat="42.79452" lon="1.31949">
        <ele>1017</ele>
        <time>2019-08-08T14:18:48.000Z</time>
      </trkpt>
      <trkpt lat="42.79444" lon="1.31957">
        <ele>1017</ele>
        <time>2019-08-08T14:18:49.000Z</time>
      </trkpt>
      <trkpt lat="42.79435" lon="1.31964">
        <ele>1015</ele>
        <time>2019-08-08T14:18:50.000Z</time>
      </trkpt>
      <trkpt lat="42.79426" lon="1.31971">
        <ele>1015</ele>
        <time>2019-08-08T14:18:51.000Z</time>
      </trkpt>
      <trkpt lat="42.79416" lon="1.31978">
        <ele>1014</ele>
        <time>2019-08-08T14:18:52.000Z</time>
      </trkpt>
      <trkpt lat="42.79406" lon="1.31984">
        <ele>1014</ele>
        <time>2019-08-08T14:18:53.000Z</time>
      </trkpt>
      <trkpt lat="42.7939" lon="1.31993">
        <ele>1011</ele>
        <time>2019-08-08T14:18:54.000Z</time>
      </trkpt>
      <trkpt lat="42.79384" lon="1.31996">
        <ele>1011</ele>
        <time>2019-08-08T14:18:55.000Z</time>
      </trkpt>
      <trkpt lat="42.79374" lon="1.32003">
        <ele>1010</ele>
        <time>2019-08-08T14:18:56.000Z</time>
      </trkpt>
      <trkpt lat="42.79363" lon="1.32009">
        <ele>1010</ele>
        <time>2019-08-08T14:18:57.000Z</time>
      </trkpt>
      <trkpt lat="42.79351" lon="1.32016">
        <ele>1007</ele>
        <time>2019-08-08T14:18:58.000Z</time>
      </trkpt>
      <trkpt lat="42.7934" lon="1.32023">
        <ele>1007</ele>
        <time>2019-08-08T14:18:59.000Z</time>
      </trkpt>
      <trkpt lat="42.79329" lon="1.3203">
        <ele>1005</ele>
        <time>2019-08-08T14:19:00.000Z</time>
      </trkpt>
      <trkpt lat="42.79317" lon="1.32038">
        <ele>1005</ele>
        <time>2019-08-08T14:19:01.000Z</time>
      </trkpt>
      <trkpt lat="42.79306" lon="1.32045">
        <ele>1002</ele>
        <time>2019-08-08T14:19:02.000Z</time>
      </trkpt>
      <trkpt lat="42.79293" lon="1.32051">
        <ele>1002</ele>
        <time>2019-08-08T14:19:03.000Z</time>
      </trkpt>
      <trkpt lat="42.79281" lon="1.32052">
        <ele>1001</ele>
        <time>2019-08-08T14:19:04.000Z</time>
      </trkpt>
      <trkpt lat="42.79262" lon="1.32049">
        <ele>1001</ele>
        <time>2019-08-08T14:19:05.000Z</time>
      </trkpt>
      <trkpt lat="42.79255" lon="1.32047">
        <ele>999</ele>
        <time>2019-08-08T14:19:06.000Z</time>
      </trkpt>
      <trkpt lat="42.79243" lon="1.32043">
        <ele>999</ele>
        <time>2019-08-08T14:19:07.000Z</time>
      </trkpt>
      <trkpt lat="42.7923" lon="1.32039">
        <ele>999</ele>
        <time>2019-08-08T14:19:08.000Z</time>
      </trkpt>
      <trkpt lat="42.79217" lon="1.32038">
        <ele>996</ele>
        <time>2019-08-08T14:19:09.000Z</time>
      </trkpt>
      <trkpt lat="42.79204" lon="1.3204">
        <ele>996</ele>
        <time>2019-08-08T14:19:10.000Z</time>
      </trkpt>
      <trkpt lat="42.79191" lon="1.32045">
        <ele>995</ele>
        <time>2019-08-08T14:19:11.000Z</time>
      </trkpt>
      <trkpt lat="42.79178" lon="1.32052">
        <ele>995</ele>
        <time>2019-08-08T14:19:12.000Z</time>
      </trkpt>
      <trkpt lat="42.79166" lon="1.32062">
        <ele>991</ele>
        <time>2019-08-08T14:19:13.000Z</time>
      </trkpt>
      <trkpt lat="42.7915" lon="1.32078">
        <ele>991</ele>
        <time>2019-08-08T14:19:14.000Z</time>
      </trkpt>
      <trkpt lat="42.79145" lon="1.32084">
        <ele>991</ele>
        <time>2019-08-08T14:19:15.000Z</time>
      </trkpt>
      <trkpt lat="42.79136" lon="1.32096">
        <ele>988</ele>
        <time>2019-08-08T14:19:16.000Z</time>
      </trkpt>
      <trkpt lat="42.79126" lon="1.32104">
        <ele>988</ele>
        <time>2019-08-08T14:19:17.000Z</time>
      </trkpt>
      <trkpt lat="42.79111" lon="1.32107">
        <ele>987</ele>
        <time>2019-08-08T14:19:18.000Z</time>
      </trkpt>
      <trkpt lat="42.79107" lon="1.32105">
        <ele>987</ele>
        <time>2019-08-08T14:19:19.000Z</time>
      </trkpt>
      <trkpt lat="42.79099" lon="1.321">
        <ele>986</ele>
        <time>2019-08-08T14:19:20.000Z</time>
      </trkpt>
      <trkpt lat="42.79094" lon="1.32089">
        <ele>986</ele>
        <time>2019-08-08T14:19:21.000Z</time>
      </trkpt>
      <trkpt lat="42.79089" lon="1.32069">
        <ele>985</ele>
        <time>2019-08-08T14:19:22.000Z</time>
      </trkpt>
      <trkpt lat="42.79087" lon="1.32063">
        <ele>985</ele>
        <time>2019-08-08T14:19:23.000Z</time>
      </trkpt>
      <trkpt lat="42.79081" lon="1.32044">
        <ele>985</ele>
        <time>2019-08-08T14:19:24.000Z</time>
      </trkpt>
      <trkpt lat="42.79078" lon="1.32038">
        <ele>984</ele>
        <time>2019-08-08T14:19:25.000Z</time>
      </trkpt>
      <trkpt lat="42.79072" lon="1.32026">
        <ele>984</ele>
        <time>2019-08-08T14:19:26.000Z</time>
      </trkpt>
      <trkpt lat="42.79064" lon="1.32016">
        <ele>983</ele>
        <time>2019-08-08T14:19:27.000Z</time>
      </trkpt>
      <trkpt lat="42.79056" lon="1.32008">
        <ele>983</ele>
        <time>2019-08-08T14:19:28.000Z</time>
      </trkpt>
      <trkpt lat="42.79046" lon="1.32002">
        <ele>981</ele>
        <time>2019-08-08T14:19:29.000Z</time>
      </trkpt>
      <trkpt lat="42.79036" lon="1.32">
        <ele>981</ele>
        <time>2019-08-08T14:19:30.000Z</time>
      </trkpt>
      <trkpt lat="42.79025" lon="1.31999">
        <ele>979</ele>
        <time>2019-08-08T14:19:31.000Z</time>
      </trkpt>
      <trkpt lat="42.79013" lon="1.32002">
        <ele>979</ele>
        <time>2019-08-08T14:19:32.000Z</time>
      </trkpt>
      <trkpt lat="42.78999" lon="1.32011">
        <ele>979</ele>
        <time>2019-08-08T14:19:33.000Z</time>
      </trkpt>
      <trkpt lat="42.78995" lon="1.32015">
        <ele>978</ele>
        <time>2019-08-08T14:19:34.000Z</time>
      </trkpt>
      <trkpt lat="42.78989" lon="1.32026">
        <ele>978</ele>
        <time>2019-08-08T14:19:35.000Z</time>
      </trkpt>
      <trkpt lat="42.78988" lon="1.32038">
        <ele>977</ele>
        <time>2019-08-08T14:19:36.000Z</time>
      </trkpt>
      <trkpt lat="42.7899" lon="1.32051">
        <ele>977</ele>
        <time>2019-08-08T14:19:37.000Z</time>
      </trkpt>
      <trkpt lat="42.78994" lon="1.32063">
        <ele>976</ele>
        <time>2019-08-08T14:19:38.000Z</time>
      </trkpt>
      <trkpt lat="42.78998" lon="1.32075">
        <ele>976</ele>
        <time>2019-08-08T14:19:39.000Z</time>
      </trkpt>
      <trkpt lat="42.79001" lon="1.32087">
        <ele>975</ele>
        <time>2019-08-08T14:19:40.000Z</time>
      </trkpt>
      <trkpt lat="42.79003" lon="1.32099">
        <ele>975</ele>
        <time>2019-08-08T14:19:41.000Z</time>
      </trkpt>
      <trkpt lat="42.79005" lon="1.32112">
        <ele>974</ele>
        <time>2019-08-08T14:19:42.000Z</time>
      </trkpt>
      <trkpt lat="42.79005" lon="1.32125">
        <ele>974</ele>
        <time>2019-08-08T14:19:43.000Z</time>
      </trkpt>
      <trkpt lat="42.79004" lon="1.32138">
        <ele>973</ele>
        <time>2019-08-08T14:19:44.000Z</time>
      </trkpt>
      <trkpt lat="42.79003" lon="1.32152">
        <ele>973</ele>
        <time>2019-08-08T14:19:45.000Z</time>
      </trkpt>
      <trkpt lat="42.79" lon="1.32166">
        <ele>973</ele>
        <time>2019-08-08T14:19:46.000Z</time>
      </trkpt>
      <trkpt lat="42.78998" lon="1.3218">
        <ele>971</ele>
        <time>2019-08-08T14:19:47.000Z</time>
      </trkpt>
      <trkpt lat="42.78992" lon="1.32193">
        <ele>971</ele>
        <time>2019-08-08T14:19:48.000Z</time>
      </trkpt>
      <trkpt lat="42.78981" lon="1.32213">
        <ele>967</ele>
        <time>2019-08-08T14:19:49.000Z</time>
      </trkpt>
      <trkpt lat="42.78977" lon="1.32219">
        <ele>967</ele>
        <time>2019-08-08T14:19:50.000Z</time>
      </trkpt>
      <trkpt lat="42.7897" lon="1.32232">
        <ele>967</ele>
        <time>2019-08-08T14:19:51.000Z</time>
      </trkpt>
      <trkpt lat="42.78962" lon="1.32245">
        <ele>967</ele>
        <time>2019-08-08T14:19:52.000Z</time>
      </trkpt>
      <trkpt lat="42.78949" lon="1.32261">
        <ele>965</ele>
        <time>2019-08-08T14:19:53.000Z</time>
      </trkpt>
      <trkpt lat="42.78944" lon="1.32266">
        <ele>965</ele>
        <time>2019-08-08T14:19:54.000Z</time>
      </trkpt>
      <trkpt lat="42.78933" lon="1.32275">
        <ele>964</ele>
        <time>2019-08-08T14:19:55.000Z</time>
      </trkpt>
      <trkpt lat="42.78922" lon="1.32284">
        <ele>964</ele>
        <time>2019-08-08T14:19:56.000Z</time>
      </trkpt>
      <trkpt lat="42.7891" lon="1.32292">
        <ele>961</ele>
        <time>2019-08-08T14:19:57.000Z</time>
      </trkpt>
      <trkpt lat="42.78899" lon="1.32302">
        <ele>961</ele>
        <time>2019-08-08T14:19:58.000Z</time>
      </trkpt>
      <trkpt lat="42.78883" lon="1.32316">
        <ele>959</ele>
        <time>2019-08-08T14:19:59.000Z</time>
      </trkpt>
      <trkpt lat="42.78877" lon="1.32322">
        <ele>959</ele>
        <time>2019-08-08T14:20:00.000Z</time>
      </trkpt>
      <trkpt lat="42.78867" lon="1.32332">
        <ele>958</ele>
        <time>2019-08-08T14:20:01.000Z</time>
      </trkpt>
      <trkpt lat="42.78857" lon="1.32345">
        <ele>958</ele>
        <time>2019-08-08T14:20:02.000Z</time>
      </trkpt>
      <trkpt lat="42.78842" lon="1.32362">
        <ele>955</ele>
        <time>2019-08-08T14:20:03.000Z</time>
      </trkpt>
      <trkpt lat="42.78837" lon="1.32367">
        <ele>955</ele>
        <time>2019-08-08T14:20:04.000Z</time>
      </trkpt>
      <trkpt lat="42.78826" lon="1.32378">
        <ele>955</ele>
        <time>2019-08-08T14:20:05.000Z</time>
      </trkpt>
      <trkpt lat="42.78815" lon="1.32388">
        <ele>952</ele>
        <time>2019-08-08T14:20:06.000Z</time>
      </trkpt>
      <trkpt lat="42.78803" lon="1.32398">
        <ele>952</ele>
        <time>2019-08-08T14:20:07.000Z</time>
      </trkpt>
      <trkpt lat="42.78791" lon="1.32407">
        <ele>951</ele>
        <time>2019-08-08T14:20:08.000Z</time>
      </trkpt>
      <trkpt lat="42.78779" lon="1.32415">
        <ele>951</ele>
        <time>2019-08-08T14:20:09.000Z</time>
      </trkpt>
      <trkpt lat="42.78766" lon="1.32423">
        <ele>948</ele>
        <time>2019-08-08T14:20:10.000Z</time>
      </trkpt>
      <trkpt lat="42.78753" lon="1.32429">
        <ele>948</ele>
        <time>2019-08-08T14:20:11.000Z</time>
      </trkpt>
      <trkpt lat="42.7874" lon="1.32434">
        <ele>947</ele>
        <time>2019-08-08T14:20:12.000Z</time>
      </trkpt>
      <trkpt lat="42.78726" lon="1.32438">
        <ele>947</ele>
        <time>2019-08-08T14:20:13.000Z</time>
      </trkpt>
      <trkpt lat="42.78713" lon="1.32442">
        <ele>944</ele>
        <time>2019-08-08T14:20:14.000Z</time>
      </trkpt>
      <trkpt lat="42.787" lon="1.32448">
        <ele>944</ele>
        <time>2019-08-08T14:20:15.000Z</time>
      </trkpt>
      <trkpt lat="42.78689" lon="1.32459">
        <ele>942</ele>
        <time>2019-08-08T14:20:16.000Z</time>
      </trkpt>
      <trkpt lat="42.7868" lon="1.32472">
        <ele>942</ele>
        <time>2019-08-08T14:20:17.000Z</time>
      </trkpt>
      <trkpt lat="42.78671" lon="1.32486">
        <ele>938</ele>
        <time>2019-08-08T14:20:18.000Z</time>
      </trkpt>
      <trkpt lat="42.78661" lon="1.32499">
        <ele>938</ele>
        <time>2019-08-08T14:20:19.000Z</time>
      </trkpt>
      <trkpt lat="42.78646" lon="1.32515">
        <ele>938</ele>
        <time>2019-08-08T14:20:20.000Z</time>
      </trkpt>
      <trkpt lat="42.7864" lon="1.32519">
        <ele>938</ele>
        <time>2019-08-08T14:20:21.000Z</time>
      </trkpt>
      <trkpt lat="42.78629" lon="1.32526">
        <ele>938</ele>
        <time>2019-08-08T14:20:22.000Z</time>
      </trkpt>
      <trkpt lat="42.78618" lon="1.3253">
        <ele>938</ele>
        <time>2019-08-08T14:20:23.000Z</time>
      </trkpt>
      <trkpt lat="42.78602" lon="1.32532">
        <ele>936</ele>
        <time>2019-08-08T14:20:24.000Z</time>
      </trkpt>
      <trkpt lat="42.78598" lon="1.32533">
        <ele>936</ele>
        <time>2019-08-08T14:20:25.000Z</time>
      </trkpt>
      <trkpt lat="42.78589" lon="1.32535">
        <ele>936</ele>
        <time>2019-08-08T14:20:26.000Z</time>
      </trkpt>
      <trkpt lat="42.78585" lon="1.32542">
        <ele>935</ele>
        <time>2019-08-08T14:20:27.000Z</time>
      </trkpt>
      <trkpt lat="42.78584" lon="1.32549">
        <ele>935</ele>
        <time>2019-08-08T14:20:28.000Z</time>
      </trkpt>
      <trkpt lat="42.78588" lon="1.32554">
        <ele>934</ele>
        <time>2019-08-08T14:20:29.000Z</time>
      </trkpt>
      <trkpt lat="42.78594" lon="1.32556">
        <ele>934</ele>
        <time>2019-08-08T14:20:30.000Z</time>
      </trkpt>
      <trkpt lat="42.78605" lon="1.32555">
        <ele>932</ele>
        <time>2019-08-08T14:20:31.000Z</time>
      </trkpt>
      <trkpt lat="42.78609" lon="1.32554">
        <ele>932</ele>
        <time>2019-08-08T14:20:32.000Z</time>
      </trkpt>
      <trkpt lat="42.78618" lon="1.32552">
        <ele>930</ele>
        <time>2019-08-08T14:20:33.000Z</time>
      </trkpt>
      <trkpt lat="42.78627" lon="1.32549">
        <ele>930</ele>
        <time>2019-08-08T14:20:34.000Z</time>
      </trkpt>
      <trkpt lat="42.78637" lon="1.32545">
        <ele>929</ele>
        <time>2019-08-08T14:20:35.000Z</time>
      </trkpt>
      <trkpt lat="42.78646" lon="1.32538">
        <ele>929</ele>
        <time>2019-08-08T14:20:36.000Z</time>
      </trkpt>
      <trkpt lat="42.78661" lon="1.32527">
        <ele>929</ele>
        <time>2019-08-08T14:20:37.000Z</time>
      </trkpt>
      <trkpt lat="42.78666" lon="1.32523">
        <ele>928</ele>
        <time>2019-08-08T14:20:38.000Z</time>
      </trkpt>
      <trkpt lat="42.78684" lon="1.32511">
        <ele>928</ele>
        <time>2019-08-08T14:20:39.000Z</time>
      </trkpt>
      <trkpt lat="42.78691" lon="1.32507">
        <ele>928</ele>
        <time>2019-08-08T14:20:40.000Z</time>
      </trkpt>
      <trkpt lat="42.78699" lon="1.32502">
        <ele>922</ele>
        <time>2019-08-08T14:20:41.000Z</time>
      </trkpt>
      <trkpt lat="42.78711" lon="1.32495">
        <ele>920</ele>
        <time>2019-08-08T14:20:42.000Z</time>
      </trkpt>
      <trkpt lat="42.78723" lon="1.32489">
        <ele>920</ele>
        <time>2019-08-08T14:20:43.000Z</time>
      </trkpt>
      <trkpt lat="42.78735" lon="1.32484">
        <ele>920</ele>
        <time>2019-08-08T14:20:44.000Z</time>
      </trkpt>
      <trkpt lat="42.78748" lon="1.3248">
        <ele>920</ele>
        <time>2019-08-08T14:20:45.000Z</time>
      </trkpt>
      <trkpt lat="42.78761" lon="1.32479">
        <ele>916</ele>
        <time>2019-08-08T14:20:46.000Z</time>
      </trkpt>
      <trkpt lat="42.78782" lon="1.3248">
        <ele>916</ele>
        <time>2019-08-08T14:20:47.000Z</time>
      </trkpt>
      <trkpt lat="42.78789" lon="1.3248">
        <ele>914</ele>
        <time>2019-08-08T14:20:48.000Z</time>
      </trkpt>
      <trkpt lat="42.78803" lon="1.32482">
        <ele>914</ele>
        <time>2019-08-08T14:20:49.000Z</time>
      </trkpt>
      <trkpt lat="42.78817" lon="1.32483">
        <ele>911</ele>
        <time>2019-08-08T14:20:50.000Z</time>
      </trkpt>
      <trkpt lat="42.7883" lon="1.32483">
        <ele>911</ele>
        <time>2019-08-08T14:20:51.000Z</time>
      </trkpt>
      <trkpt lat="42.78843" lon="1.32481">
        <ele>909</ele>
        <time>2019-08-08T14:20:52.000Z</time>
      </trkpt>
      <trkpt lat="42.78863" lon="1.32472">
        <ele>909</ele>
        <time>2019-08-08T14:20:53.000Z</time>
      </trkpt>
      <trkpt lat="42.78869" lon="1.32468">
        <ele>908.4</ele>
        <time>2019-08-08T14:20:54.000Z</time>
      </trkpt>
      <trkpt lat="42.78881" lon="1.32461">
        <ele>908</ele>
        <time>2019-08-08T14:20:55.000Z</time>
      </trkpt>
      <trkpt lat="42.78893" lon="1.32453">
        <ele>908</ele>
        <time>2019-08-08T14:20:56.000Z</time>
      </trkpt>
      <trkpt lat="42.78906" lon="1.32445">
        <ele>905</ele>
        <time>2019-08-08T14:20:57.000Z</time>
      </trkpt>
      <trkpt lat="42.78918" lon="1.32438">
        <ele>905</ele>
        <time>2019-08-08T14:20:58.000Z</time>
      </trkpt>
      <trkpt lat="42.7893" lon="1.3243">
        <ele>903</ele>
        <time>2019-08-08T14:20:59.000Z</time>
      </trkpt>
      <trkpt lat="42.78943" lon="1.32422">
        <ele>903</ele>
        <time>2019-08-08T14:21:00.000Z</time>
      </trkpt>
      <trkpt lat="42.78956" lon="1.32416">
        <ele>903</ele>
        <time>2019-08-08T14:21:01.000Z</time>
      </trkpt>
      <trkpt lat="42.78968" lon="1.32409">
        <ele>901</ele>
        <time>2019-08-08T14:21:02.000Z</time>
      </trkpt>
      <trkpt lat="42.78981" lon="1.32403">
        <ele>901</ele>
        <time>2019-08-08T14:21:03.000Z</time>
      </trkpt>
      <trkpt lat="42.78994" lon="1.32398">
        <ele>899</ele>
        <time>2019-08-08T14:21:04.000Z</time>
      </trkpt>
      <trkpt lat="42.79007" lon="1.32393">
        <ele>899</ele>
        <time>2019-08-08T14:21:05.000Z</time>
      </trkpt>
      <trkpt lat="42.7902" lon="1.32389">
        <ele>898</ele>
        <time>2019-08-08T14:21:06.000Z</time>
      </trkpt>
      <trkpt lat="42.79033" lon="1.32385">
        <ele>898</ele>
        <time>2019-08-08T14:21:07.000Z</time>
      </trkpt>
      <trkpt lat="42.79044" lon="1.32381">
        <ele>896</ele>
        <time>2019-08-08T14:21:08.000Z</time>
      </trkpt>
      <trkpt lat="42.79054" lon="1.32377">
        <ele>896</ele>
        <time>2019-08-08T14:21:09.000Z</time>
      </trkpt>
      <trkpt lat="42.79067" lon="1.32373">
        <ele>896</ele>
        <time>2019-08-08T14:21:10.000Z</time>
      </trkpt>
      <trkpt lat="42.7907" lon="1.32373">
        <ele>896</ele>
        <time>2019-08-08T14:21:11.000Z</time>
      </trkpt>
      <trkpt lat="42.79076" lon="1.32373">
        <ele>896</ele>
        <time>2019-08-08T14:21:12.000Z</time>
      </trkpt>
      <trkpt lat="42.7908" lon="1.32378">
        <ele>896</ele>
        <time>2019-08-08T14:21:13.000Z</time>
      </trkpt>
      <trkpt lat="42.79077" lon="1.32386">
        <ele>896</ele>
        <time>2019-08-08T14:21:14.000Z</time>
      </trkpt>
      <trkpt lat="42.79071" lon="1.3239">
        <ele>895</ele>
        <time>2019-08-08T14:21:15.000Z</time>
      </trkpt>
      <trkpt lat="42.79063" lon="1.32393">
        <ele>895</ele>
        <time>2019-08-08T14:21:16.000Z</time>
      </trkpt>
      <trkpt lat="42.79054" lon="1.32397">
        <ele>893</ele>
        <time>2019-08-08T14:21:17.000Z</time>
      </trkpt>
      <trkpt lat="42.79046" lon="1.32401">
        <ele>893</ele>
        <time>2019-08-08T14:21:18.000Z</time>
      </trkpt>
      <trkpt lat="42.79032" lon="1.32408">
        <ele>893</ele>
        <time>2019-08-08T14:21:19.000Z</time>
      </trkpt>
      <trkpt lat="42.79028" lon="1.3241">
        <ele>893</ele>
        <time>2019-08-08T14:21:20.000Z</time>
      </trkpt>
      <trkpt lat="42.79019" lon="1.32415">
        <ele>890</ele>
        <time>2019-08-08T14:21:21.000Z</time>
      </trkpt>
      <trkpt lat="42.79009" lon="1.32421">
        <ele>890</ele>
        <time>2019-08-08T14:21:22.000Z</time>
      </trkpt>
      <trkpt lat="42.78999" lon="1.32427">
        <ele>889</ele>
        <time>2019-08-08T14:21:23.000Z</time>
      </trkpt>
      <trkpt lat="42.7899" lon="1.32436">
        <ele>889</ele>
        <time>2019-08-08T14:21:24.000Z</time>
      </trkpt>
      <trkpt lat="42.7898" lon="1.32444">
        <ele>886</ele>
        <time>2019-08-08T14:21:25.000Z</time>
      </trkpt>
      <trkpt lat="42.78971" lon="1.32455">
        <ele>886</ele>
        <time>2019-08-08T14:21:26.000Z</time>
      </trkpt>
      <trkpt lat="42.78961" lon="1.32466">
        <ele>884</ele>
        <time>2019-08-08T14:21:27.000Z</time>
      </trkpt>
      <trkpt lat="42.78952" lon="1.32478">
        <ele>884</ele>
        <time>2019-08-08T14:21:28.000Z</time>
      </trkpt>
      <trkpt lat="42.78942" lon="1.3249">
        <ele>884</ele>
        <time>2019-08-08T14:21:29.000Z</time>
      </trkpt>
      <trkpt lat="42.78933" lon="1.32503">
        <ele>880</ele>
        <time>2019-08-08T14:21:30.000Z</time>
      </trkpt>
      <trkpt lat="42.78924" lon="1.32516">
        <ele>880</ele>
        <time>2019-08-08T14:21:31.000Z</time>
      </trkpt>
      <trkpt lat="42.78916" lon="1.32529">
        <ele>878</ele>
        <time>2019-08-08T14:21:32.000Z</time>
      </trkpt>
      <trkpt lat="42.78906" lon="1.32543">
        <ele>878</ele>
        <time>2019-08-08T14:21:33.000Z</time>
      </trkpt>
      <trkpt lat="42.78897" lon="1.32556">
        <ele>877</ele>
        <time>2019-08-08T14:21:34.000Z</time>
      </trkpt>
      <trkpt lat="42.78889" lon="1.32569">
        <ele>877</ele>
        <time>2019-08-08T14:21:35.000Z</time>
      </trkpt>
      <trkpt lat="42.7888" lon="1.32581">
        <ele>875</ele>
        <time>2019-08-08T14:21:36.000Z</time>
      </trkpt>
      <trkpt lat="42.7887" lon="1.3259">
        <ele>875</ele>
        <time>2019-08-08T14:21:37.000Z</time>
      </trkpt>
      <trkpt lat="42.78859" lon="1.32597">
        <ele>873</ele>
        <time>2019-08-08T14:21:38.000Z</time>
      </trkpt>
      <trkpt lat="42.78847" lon="1.32603">
        <ele>873</ele>
        <time>2019-08-08T14:21:39.000Z</time>
      </trkpt>
      <trkpt lat="42.78838" lon="1.32612">
        <ele>873</ele>
        <time>2019-08-08T14:21:40.000Z</time>
      </trkpt>
      <trkpt lat="42.78824" lon="1.32622">
        <ele>869</ele>
        <time>2019-08-08T14:21:41.000Z</time>
      </trkpt>
      <trkpt lat="42.78819" lon="1.32623">
        <ele>869</ele>
        <time>2019-08-08T14:21:42.000Z</time>
      </trkpt>
      <trkpt lat="42.78802" lon="1.32625">
        <ele>867</ele>
        <time>2019-08-08T14:21:43.000Z</time>
      </trkpt>
      <trkpt lat="42.78796" lon="1.32624">
        <ele>867</ele>
        <time>2019-08-08T14:21:44.000Z</time>
      </trkpt>
      <trkpt lat="42.78784" lon="1.32622">
        <ele>865</ele>
        <time>2019-08-08T14:21:45.000Z</time>
      </trkpt>
      <trkpt lat="42.78771" lon="1.32623">
        <ele>865</ele>
        <time>2019-08-08T14:21:46.000Z</time>
      </trkpt>
      <trkpt lat="42.78753" lon="1.32627">
        <ele>863</ele>
        <time>2019-08-08T14:21:47.000Z</time>
      </trkpt>
      <trkpt lat="42.78747" lon="1.32629">
        <ele>863</ele>
        <time>2019-08-08T14:21:48.000Z</time>
      </trkpt>
      <trkpt lat="42.78736" lon="1.32632">
        <ele>862</ele>
        <time>2019-08-08T14:21:49.000Z</time>
      </trkpt>
      <trkpt lat="42.78726" lon="1.32637">
        <ele>862</ele>
        <time>2019-08-08T14:21:50.000Z</time>
      </trkpt>
      <trkpt lat="42.78718" lon="1.32643">
        <ele>858</ele>
        <time>2019-08-08T14:21:51.000Z</time>
      </trkpt>
      <trkpt lat="42.78713" lon="1.32652">
        <ele>858</ele>
        <time>2019-08-08T14:21:52.000Z</time>
      </trkpt>
      <trkpt lat="42.78711" lon="1.32662">
        <ele>857</ele>
        <time>2019-08-08T14:21:53.000Z</time>
      </trkpt>
      <trkpt lat="42.78716" lon="1.32678">
        <ele>857</ele>
        <time>2019-08-08T14:21:54.000Z</time>
      </trkpt>
      <trkpt lat="42.78719" lon="1.32682">
        <ele>857</ele>
        <time>2019-08-08T14:21:55.000Z</time>
      </trkpt>
      <trkpt lat="42.78725" lon="1.32691">
        <ele>857</ele>
        <time>2019-08-08T14:21:56.000Z</time>
      </trkpt>
      <trkpt lat="42.78737" lon="1.32701">
        <ele>855</ele>
        <time>2019-08-08T14:21:57.000Z</time>
      </trkpt>
      <trkpt lat="42.78742" lon="1.32705">
        <ele>855</ele>
        <time>2019-08-08T14:21:58.000Z</time>
      </trkpt>
      <trkpt lat="42.7875" lon="1.32712">
        <ele>852</ele>
        <time>2019-08-08T14:21:59.000Z</time>
      </trkpt>
      <trkpt lat="42.78764" lon="1.32722">
        <ele>852</ele>
        <time>2019-08-08T14:22:00.000Z</time>
      </trkpt>
      <trkpt lat="42.78769" lon="1.32725">
        <ele>852</ele>
        <time>2019-08-08T14:22:01.000Z</time>
      </trkpt>
      <trkpt lat="42.78779" lon="1.32732">
        <ele>851</ele>
        <time>2019-08-08T14:22:02.000Z</time>
      </trkpt>
      <trkpt lat="42.78789" lon="1.32739">
        <ele>851</ele>
        <time>2019-08-08T14:22:03.000Z</time>
      </trkpt>
      <trkpt lat="42.78805" lon="1.32752">
        <ele>848</ele>
        <time>2019-08-08T14:22:04.000Z</time>
      </trkpt>
      <trkpt lat="42.7881" lon="1.32757">
        <ele>848</ele>
        <time>2019-08-08T14:22:05.000Z</time>
      </trkpt>
      <trkpt lat="42.7882" lon="1.32767">
        <ele>848</ele>
        <time>2019-08-08T14:22:06.000Z</time>
      </trkpt>
      <trkpt lat="42.78829" lon="1.32778">
        <ele>848</ele>
        <time>2019-08-08T14:22:07.000Z</time>
      </trkpt>
      <trkpt lat="42.78838" lon="1.3279">
        <ele>848</ele>
        <time>2019-08-08T14:22:08.000Z</time>
      </trkpt>
      <trkpt lat="42.78846" lon="1.32804">
        <ele>844</ele>
        <time>2019-08-08T14:22:09.000Z</time>
      </trkpt>
      <trkpt lat="42.78854" lon="1.32818">
        <ele>844</ele>
        <time>2019-08-08T14:22:10.000Z</time>
      </trkpt>
      <trkpt lat="42.78862" lon="1.32833">
        <ele>840</ele>
        <time>2019-08-08T14:22:11.000Z</time>
      </trkpt>
      <trkpt lat="42.78874" lon="1.32856">
        <ele>840</ele>
        <time>2019-08-08T14:22:12.000Z</time>
      </trkpt>
      <trkpt lat="42.78878" lon="1.32863">
        <ele>838</ele>
        <time>2019-08-08T14:22:13.000Z</time>
      </trkpt>
      <trkpt lat="42.78885" lon="1.32879">
        <ele>838</ele>
        <time>2019-08-08T14:22:14.000Z</time>
      </trkpt>
      <trkpt lat="42.78894" lon="1.32904">
        <ele>836</ele>
        <time>2019-08-08T14:22:15.000Z</time>
      </trkpt>
      <trkpt lat="42.78897" lon="1.32912">
        <ele>836</ele>
        <time>2019-08-08T14:22:16.000Z</time>
      </trkpt>
      <trkpt lat="42.78904" lon="1.32929">
        <ele>836</ele>
        <time>2019-08-08T14:22:17.000Z</time>
      </trkpt>
      <trkpt lat="42.7891" lon="1.32945">
        <ele>834</ele>
        <time>2019-08-08T14:22:18.000Z</time>
      </trkpt>
      <trkpt lat="42.78917" lon="1.3296">
        <ele>834</ele>
        <time>2019-08-08T14:22:19.000Z</time>
      </trkpt>
      <trkpt lat="42.78922" lon="1.32977">
        <ele>834</ele>
        <time>2019-08-08T14:22:20.000Z</time>
      </trkpt>
      <trkpt lat="42.78924" lon="1.32995">
        <ele>831</ele>
        <time>2019-08-08T14:22:21.000Z</time>
      </trkpt>
      <trkpt lat="42.78922" lon="1.33013">
        <ele>831</ele>
        <time>2019-08-08T14:22:22.000Z</time>
      </trkpt>
      <trkpt lat="42.78916" lon="1.33031">
        <ele>828</ele>
        <time>2019-08-08T14:22:23.000Z</time>
      </trkpt>
      <trkpt lat="42.78908" lon="1.33057">
        <ele>828</ele>
        <time>2019-08-08T14:22:24.000Z</time>
      </trkpt>
      <trkpt lat="42.78905" lon="1.33065">
        <ele>825.6</ele>
        <time>2019-08-08T14:22:25.000Z</time>
      </trkpt>
      <trkpt lat="42.78899" lon="1.33082">
        <ele>823</ele>
        <time>2019-08-08T14:22:26.000Z</time>
      </trkpt>
      <trkpt lat="42.78894" lon="1.3311">
        <ele>823</ele>
        <time>2019-08-08T14:22:27.000Z</time>
      </trkpt>
      <trkpt lat="42.78892" lon="1.33119">
        <ele>821</ele>
        <time>2019-08-08T14:22:28.000Z</time>
      </trkpt>
      <trkpt lat="42.7889" lon="1.33138">
        <ele>821</ele>
        <time>2019-08-08T14:22:29.000Z</time>
      </trkpt>
      <trkpt lat="42.78888" lon="1.33157">
        <ele>819</ele>
        <time>2019-08-08T14:22:30.000Z</time>
      </trkpt>
      <trkpt lat="42.78885" lon="1.33176">
        <ele>819</ele>
        <time>2019-08-08T14:22:31.000Z</time>
      </trkpt>
      <trkpt lat="42.78881" lon="1.33196">
        <ele>816</ele>
        <time>2019-08-08T14:22:32.000Z</time>
      </trkpt>
      <trkpt lat="42.78874" lon="1.33225">
        <ele>816</ele>
        <time>2019-08-08T14:22:33.000Z</time>
      </trkpt>
      <trkpt lat="42.78872" lon="1.33234">
        <ele>815</ele>
        <time>2019-08-08T14:22:34.000Z</time>
      </trkpt>
      <trkpt lat="42.78868" lon="1.33253">
        <ele>814</ele>
        <time>2019-08-08T14:22:35.000Z</time>
      </trkpt>
      <trkpt lat="42.78864" lon="1.33272">
        <ele>814</ele>
        <time>2019-08-08T14:22:36.000Z</time>
      </trkpt>
      <trkpt lat="42.78859" lon="1.33292">
        <ele>814</ele>
        <time>2019-08-08T14:22:37.000Z</time>
      </trkpt>
      <trkpt lat="42.78855" lon="1.33312">
        <ele>810</ele>
        <time>2019-08-08T14:22:38.000Z</time>
      </trkpt>
      <trkpt lat="42.78853" lon="1.33332">
        <ele>807</ele>
        <time>2019-08-08T14:22:39.000Z</time>
      </trkpt>
      <trkpt lat="42.78851" lon="1.3335">
        <ele>807</ele>
        <time>2019-08-08T14:22:40.000Z</time>
      </trkpt>
      <trkpt lat="42.78849" lon="1.33369">
        <ele>807</ele>
        <time>2019-08-08T14:22:41.000Z</time>
      </trkpt>
      <trkpt lat="42.78849" lon="1.33386">
        <ele>806</ele>
        <time>2019-08-08T14:22:42.000Z</time>
      </trkpt>
      <trkpt lat="42.78848" lon="1.33413">
        <ele>805</ele>
        <time>2019-08-08T14:22:43.000Z</time>
      </trkpt>
      <trkpt lat="42.78848" lon="1.33422">
        <ele>804</ele>
        <time>2019-08-08T14:22:44.000Z</time>
      </trkpt>
      <trkpt lat="42.78846" lon="1.33439">
        <ele>804</ele>
        <time>2019-08-08T14:22:45.000Z</time>
      </trkpt>
      <trkpt lat="42.78845" lon="1.33457">
        <ele>803</ele>
        <time>2019-08-08T14:22:46.000Z</time>
      </trkpt>
      <trkpt lat="42.78843" lon="1.33475">
        <ele>803</ele>
        <time>2019-08-08T14:22:47.000Z</time>
      </trkpt>
      <trkpt lat="42.7884" lon="1.33492">
        <ele>799</ele>
        <time>2019-08-08T14:22:48.000Z</time>
      </trkpt>
      <trkpt lat="42.78837" lon="1.33509">
        <ele>799</ele>
        <time>2019-08-08T14:22:49.000Z</time>
      </trkpt>
      <trkpt lat="42.78834" lon="1.33525">
        <ele>796</ele>
        <time>2019-08-08T14:22:50.000Z</time>
      </trkpt>
      <trkpt lat="42.78831" lon="1.33541">
        <ele>796</ele>
        <time>2019-08-08T14:22:51.000Z</time>
      </trkpt>
      <trkpt lat="42.78826" lon="1.33558">
        <ele>796</ele>
        <time>2019-08-08T14:22:52.000Z</time>
      </trkpt>
      <trkpt lat="42.78821" lon="1.33575">
        <ele>794</ele>
        <time>2019-08-08T14:22:53.000Z</time>
      </trkpt>
      <trkpt lat="42.78816" lon="1.33593">
        <ele>794</ele>
        <time>2019-08-08T14:22:54.000Z</time>
      </trkpt>
      <trkpt lat="42.78811" lon="1.3361">
        <ele>794</ele>
        <time>2019-08-08T14:22:55.000Z</time>
      </trkpt>
      <trkpt lat="42.78806" lon="1.33628">
        <ele>790</ele>
        <time>2019-08-08T14:22:56.000Z</time>
      </trkpt>
      <trkpt lat="42.78801" lon="1.33647">
        <ele>790</ele>
        <time>2019-08-08T14:22:57.000Z</time>
      </trkpt>
      <trkpt lat="42.78797" lon="1.33664">
        <ele>788</ele>
        <time>2019-08-08T14:22:58.000Z</time>
      </trkpt>
      <trkpt lat="42.78792" lon="1.33681">
        <ele>788</ele>
        <time>2019-08-08T14:22:59.000Z</time>
      </trkpt>
      <trkpt lat="42.78788" lon="1.33697">
        <ele>785</ele>
        <time>2019-08-08T14:23:00.000Z</time>
      </trkpt>
      <trkpt lat="42.78784" lon="1.33714">
        <ele>785</ele>
        <time>2019-08-08T14:23:01.000Z</time>
      </trkpt>
      <trkpt lat="42.78779" lon="1.3373">
        <ele>783</ele>
        <time>2019-08-08T14:23:02.000Z</time>
      </trkpt>
      <trkpt lat="42.78774" lon="1.33745">
        <ele>783</ele>
        <time>2019-08-08T14:23:03.000Z</time>
      </trkpt>
      <trkpt lat="42.78768" lon="1.33759">
        <ele>779</ele>
        <time>2019-08-08T14:23:04.000Z</time>
      </trkpt>
      <trkpt lat="42.78762" lon="1.33772">
        <ele>779</ele>
        <time>2019-08-08T14:23:05.000Z</time>
      </trkpt>
      <trkpt lat="42.78758" lon="1.33785">
        <ele>777</ele>
        <time>2019-08-08T14:23:06.000Z</time>
      </trkpt>
      <trkpt lat="42.78754" lon="1.33797">
        <ele>777</ele>
        <time>2019-08-08T14:23:07.000Z</time>
      </trkpt>
      <trkpt lat="42.78753" lon="1.33807">
        <ele>776</ele>
        <time>2019-08-08T14:23:08.000Z</time>
      </trkpt>
      <trkpt lat="42.78753" lon="1.33817">
        <ele>776</ele>
        <time>2019-08-08T14:23:09.000Z</time>
      </trkpt>
      <trkpt lat="42.78755" lon="1.33824">
        <ele>776</ele>
        <time>2019-08-08T14:23:10.000Z</time>
      </trkpt>
      <trkpt lat="42.78761" lon="1.33827">
        <ele>776</ele>
        <time>2019-08-08T14:23:11.000Z</time>
      </trkpt>
      <trkpt lat="42.78766" lon="1.33825">
        <ele>775</ele>
        <time>2019-08-08T14:23:12.000Z</time>
      </trkpt>
      <trkpt lat="42.78771" lon="1.33819">
        <ele>775</ele>
        <time>2019-08-08T14:23:13.000Z</time>
      </trkpt>
      <trkpt lat="42.78774" lon="1.33811">
        <ele>775</ele>
        <time>2019-08-08T14:23:14.000Z</time>
      </trkpt>
      <trkpt lat="42.78776" lon="1.33801">
        <ele>773</ele>
        <time>2019-08-08T14:23:15.000Z</time>
      </trkpt>
      <trkpt lat="42.78777" lon="1.3379">
        <ele>773</ele>
        <time>2019-08-08T14:23:16.000Z</time>
      </trkpt>
      <trkpt lat="42.78781" lon="1.3378">
        <ele>772</ele>
        <time>2019-08-08T14:23:17.000Z</time>
      </trkpt>
      <trkpt lat="42.78785" lon="1.3377">
        <ele>772</ele>
        <time>2019-08-08T14:23:18.000Z</time>
      </trkpt>
      <trkpt lat="42.78791" lon="1.3376">
        <ele>768</ele>
        <time>2019-08-08T14:23:19.000Z</time>
      </trkpt>
      <trkpt lat="42.78797" lon="1.33749">
        <ele>768</ele>
        <time>2019-08-08T14:23:20.000Z</time>
      </trkpt>
      <trkpt lat="42.78804" lon="1.33738">
        <ele>768</ele>
        <time>2019-08-08T14:23:21.000Z</time>
      </trkpt>
      <trkpt lat="42.78811" lon="1.33726">
        <ele>766</ele>
        <time>2019-08-08T14:23:22.000Z</time>
      </trkpt>
      <trkpt lat="42.78823" lon="1.33708">
        <ele>766</ele>
        <time>2019-08-08T14:23:23.000Z</time>
      </trkpt>
      <trkpt lat="42.78827" lon="1.33702">
        <ele>764.4</ele>
        <time>2019-08-08T14:23:24.000Z</time>
      </trkpt>
      <trkpt lat="42.78835" lon="1.3369">
        <ele>763</ele>
        <time>2019-08-08T14:23:25.000Z</time>
      </trkpt>
      <trkpt lat="42.78845" lon="1.3368">
        <ele>763</ele>
        <time>2019-08-08T14:23:26.000Z</time>
      </trkpt>
      <trkpt lat="42.78854" lon="1.3367">
        <ele>759</ele>
        <time>2019-08-08T14:23:27.000Z</time>
      </trkpt>
      <trkpt lat="42.78865" lon="1.3366">
        <ele>759</ele>
        <time>2019-08-08T14:23:28.000Z</time>
      </trkpt>
      <trkpt lat="42.78875" lon="1.3365">
        <ele>758</ele>
        <time>2019-08-08T14:23:29.000Z</time>
      </trkpt>
      <trkpt lat="42.78887" lon="1.3364">
        <ele>758</ele>
        <time>2019-08-08T14:23:30.000Z</time>
      </trkpt>
      <trkpt lat="42.78898" lon="1.33629">
        <ele>758</ele>
        <time>2019-08-08T14:23:31.000Z</time>
      </trkpt>
      <trkpt lat="42.78909" lon="1.33619">
        <ele>753</ele>
        <time>2019-08-08T14:23:32.000Z</time>
      </trkpt>
      <trkpt lat="42.7892" lon="1.3361">
        <ele>753</ele>
        <time>2019-08-08T14:23:33.000Z</time>
      </trkpt>
      <trkpt lat="42.78931" lon="1.33601">
        <ele>753</ele>
        <time>2019-08-08T14:23:34.000Z</time>
      </trkpt>
      <trkpt lat="42.78941" lon="1.33593">
        <ele>749</ele>
        <time>2019-08-08T14:23:35.000Z</time>
      </trkpt>
      <trkpt lat="42.78951" lon="1.33589">
        <ele>749</ele>
        <time>2019-08-08T14:23:36.000Z</time>
      </trkpt>
      <trkpt lat="42.78961" lon="1.33591">
        <ele>749</ele>
        <time>2019-08-08T14:23:37.000Z</time>
      </trkpt>
      <trkpt lat="42.78969" lon="1.33595">
        <ele>749</ele>
        <time>2019-08-08T14:23:38.000Z</time>
      </trkpt>
      <trkpt lat="42.78976" lon="1.33601">
        <ele>749</ele>
        <time>2019-08-08T14:23:39.000Z</time>
      </trkpt>
      <trkpt lat="42.78981" lon="1.33606">
        <ele>749</ele>
        <time>2019-08-08T14:23:40.000Z</time>
      </trkpt>
      <trkpt lat="42.78986" lon="1.33612">
        <ele>749</ele>
        <time>2019-08-08T14:23:41.000Z</time>
      </trkpt>
      <trkpt lat="42.7899" lon="1.33619">
        <ele>749</ele>
        <time>2019-08-08T14:23:42.000Z</time>
      </trkpt>
      <trkpt lat="42.78992" lon="1.33625">
        <ele>749</ele>
        <time>2019-08-08T14:23:43.000Z</time>
      </trkpt>
      <trkpt lat="42.78994" lon="1.3363">
        <ele>749</ele>
        <time>2019-08-08T14:23:44.000Z</time>
      </trkpt>
      <trkpt lat="42.78995" lon="1.33635">
        <ele>749</ele>
        <time>2019-08-08T14:23:45.000Z</time>
      </trkpt>
      <trkpt lat="42.78997" lon="1.3364">
        <ele>749</ele>
        <time>2019-08-08T14:23:46.000Z</time>
      </trkpt>
      <trkpt lat="42.78998" lon="1.33644">
        <ele>749</ele>
        <time>2019-08-08T14:23:47.000Z</time>
      </trkpt>
      <trkpt lat="42.79" lon="1.33648">
        <ele>749</ele>
        <time>2019-08-08T14:23:48.000Z</time>
      </trkpt>
      <trkpt lat="42.79001" lon="1.3365">
        <ele>749</ele>
        <time>2019-08-08T14:23:49.000Z</time>
      </trkpt>
      <trkpt lat="42.79001" lon="1.3365">
        <ele>749</ele>
        <time>2019-08-08T14:23:50.000Z</time>
      </trkpt>
      <trkpt lat="42.79001" lon="1.3365">
        <ele>749</ele>
        <time>2019-08-08T14:23:51.000Z</time>
      </trkpt>
      <trkpt lat="42.79001" lon="1.3365">
        <ele>749</ele>
        <time>2019-08-08T14:23:52.000Z</time>
      </trkpt>
    </trkseg>
  </trk>
</gpx>